<?xml version="1.0" encoding="UTF-8" standalone="no" ?>
<gpx xmlns="http://www.topografix.com/GPX/1/1" xmlns:xsi="http://www.w3.org/2001/XMLSchema-instance" xsi:schemaLocation="http://www.topografix.com/GPX/1/1 http://www.topografix.com/GPX/1/1/gpx.xsd" version="1.1" creator="VisuGPX - https://www.visugpx.com">
  <metadata>
    <name>Trace Gravienne avec départ de La Mothe</name>
  </metadata>
  <trk>
    <name><![CDATA[Trace Gravienne avec départ de La Mothe_1]]></name>
    <trkseg>
      <trkpt lat="46.58181" lon="0.34532">
        <ele>119.23</ele>
        <time>2023-06-23T15:23:35.565Z</time>
      </trkpt>
      <trkpt lat="46.58181" lon="0.34532">
        <ele>119.23</ele>
        <time>2023-06-23T15:24:46.842Z</time>
      </trkpt>
      <trkpt lat="46.5816" lon="0.34577">
        <ele>119.01</ele>
        <time>2023-06-23T15:25:58.125Z</time>
      </trkpt>
      <trkpt lat="46.5816" lon="0.34577">
        <ele>122.44</ele>
        <time>2023-06-23T15:27:09.408Z</time>
      </trkpt>
      <trkpt lat="46.58153" lon="0.34592">
        <ele>122.37</ele>
        <time>2023-06-23T15:28:20.693Z</time>
      </trkpt>
      <trkpt lat="46.58146" lon="0.34607">
        <ele>122.2</ele>
        <time>2023-06-23T15:29:31.980Z</time>
      </trkpt>
      <trkpt lat="46.58133" lon="0.34636">
        <ele>121.7</ele>
        <time>2023-06-23T15:30:43.270Z</time>
      </trkpt>
      <trkpt lat="46.58131" lon="0.34643">
        <ele>121.6</ele>
        <time>2023-06-23T15:31:54.561Z</time>
      </trkpt>
      <trkpt lat="46.58131" lon="0.34643">
        <ele>118.5</ele>
        <time>2023-06-23T15:33:05.852Z</time>
      </trkpt>
      <trkpt lat="46.58127" lon="0.34654">
        <ele>118.45</ele>
        <time>2023-06-23T15:34:17.145Z</time>
      </trkpt>
      <trkpt lat="46.58119" lon="0.34676">
        <ele>117.65</ele>
        <time>2023-06-23T15:35:28.440Z</time>
      </trkpt>
      <trkpt lat="46.58115" lon="0.34687">
        <ele>117.28</ele>
        <time>2023-06-23T15:36:39.737Z</time>
      </trkpt>
      <trkpt lat="46.58113" lon="0.34692">
        <ele>117.11</ele>
        <time>2023-06-23T15:37:51.034Z</time>
      </trkpt>
      <trkpt lat="46.58111" lon="0.34698">
        <ele>116.97</ele>
        <time>2023-06-23T15:39:02.332Z</time>
      </trkpt>
      <trkpt lat="46.58108" lon="0.34707">
        <ele>116.77</ele>
        <time>2023-06-23T15:40:13.631Z</time>
      </trkpt>
      <trkpt lat="46.58107" lon="0.34709">
        <ele>116.73</ele>
        <time>2023-06-23T15:41:24.930Z</time>
      </trkpt>
      <trkpt lat="46.58102" lon="0.34719">
        <ele>116.61</ele>
        <time>2023-06-23T15:42:36.231Z</time>
      </trkpt>
      <trkpt lat="46.58099" lon="0.34724">
        <ele>116.58</ele>
        <time>2023-06-23T15:43:47.533Z</time>
      </trkpt>
      <trkpt lat="46.58093" lon="0.34734">
        <ele>116.59</ele>
        <time>2023-06-23T15:44:58.836Z</time>
      </trkpt>
      <trkpt lat="46.58088" lon="0.34744">
        <ele>116.66</ele>
        <time>2023-06-23T15:46:10.140Z</time>
      </trkpt>
      <trkpt lat="46.58082" lon="0.34755">
        <ele>116.76</ele>
        <time>2023-06-23T15:47:21.446Z</time>
      </trkpt>
      <trkpt lat="46.58071" lon="0.34775">
        <ele>117.04</ele>
        <time>2023-06-23T15:48:32.755Z</time>
      </trkpt>
      <trkpt lat="46.58068" lon="0.34781">
        <ele>117.1</ele>
        <time>2023-06-23T15:49:44.065Z</time>
      </trkpt>
      <trkpt lat="46.58067" lon="0.34786">
        <ele>117.15</ele>
        <time>2023-06-23T15:50:55.375Z</time>
      </trkpt>
      <trkpt lat="46.58064" lon="0.34797">
        <ele>117.15</ele>
        <time>2023-06-23T15:52:06.687Z</time>
      </trkpt>
      <trkpt lat="46.5806" lon="0.34812">
        <ele>117.57</ele>
        <time>2023-06-23T15:53:18.000Z</time>
      </trkpt>
      <trkpt lat="46.58057" lon="0.34823">
        <ele>117.77</ele>
        <time>2023-06-23T15:54:29.315Z</time>
      </trkpt>
      <trkpt lat="46.58057" lon="0.34824">
        <ele>117.8</ele>
        <time>2023-06-23T15:55:40.630Z</time>
      </trkpt>
      <trkpt lat="46.58048" lon="0.34848">
        <ele>118.3</ele>
        <time>2023-06-23T15:56:51.948Z</time>
      </trkpt>
      <trkpt lat="46.58048" lon="0.34848">
        <ele>118.3</ele>
        <time>2023-06-23T15:58:03.266Z</time>
      </trkpt>
      <trkpt lat="46.5806" lon="0.34855">
        <ele>118.61</ele>
        <time>2023-06-23T15:59:14.586Z</time>
      </trkpt>
      <trkpt lat="46.58069" lon="0.3486">
        <ele>118.79</ele>
        <time>2023-06-23T16:00:25.907Z</time>
      </trkpt>
      <trkpt lat="46.58073" lon="0.34862">
        <ele>118.85</ele>
        <time>2023-06-23T16:01:37.229Z</time>
      </trkpt>
      <trkpt lat="46.58079" lon="0.34866">
        <ele>118.91</ele>
        <time>2023-06-23T16:02:48.552Z</time>
      </trkpt>
      <trkpt lat="46.58081" lon="0.34868">
        <ele>118.93</ele>
        <time>2023-06-23T16:03:59.875Z</time>
      </trkpt>
      <trkpt lat="46.58084" lon="0.3487">
        <ele>118.89</ele>
        <time>2023-06-23T16:05:11.199Z</time>
      </trkpt>
      <trkpt lat="46.58094" lon="0.34878">
        <ele>118.71</ele>
        <time>2023-06-23T16:06:22.525Z</time>
      </trkpt>
      <trkpt lat="46.58098" lon="0.34882">
        <ele>118.6</ele>
        <time>2023-06-23T16:07:33.852Z</time>
      </trkpt>
      <trkpt lat="46.581" lon="0.34886">
        <ele>118.53</ele>
        <time>2023-06-23T16:08:45.179Z</time>
      </trkpt>
      <trkpt lat="46.58103" lon="0.34891">
        <ele>118.42</ele>
        <time>2023-06-23T16:09:56.507Z</time>
      </trkpt>
      <trkpt lat="46.58089" lon="0.3493">
        <ele>117.65</ele>
        <time>2023-06-23T16:11:07.840Z</time>
      </trkpt>
      <trkpt lat="46.58082" lon="0.34948">
        <ele>117.36</ele>
        <time>2023-06-23T16:12:19.175Z</time>
      </trkpt>
      <trkpt lat="46.58078" lon="0.3496">
        <ele>117.1</ele>
        <time>2023-06-23T16:13:30.511Z</time>
      </trkpt>
      <trkpt lat="46.58075" lon="0.34971">
        <ele>116.86</ele>
        <time>2023-06-23T16:14:41.849Z</time>
      </trkpt>
      <trkpt lat="46.58068" lon="0.34994">
        <ele>116.31</ele>
        <time>2023-06-23T16:15:53.190Z</time>
      </trkpt>
      <trkpt lat="46.58065" lon="0.35004">
        <ele>115.53</ele>
        <time>2023-06-23T16:17:04.532Z</time>
      </trkpt>
      <trkpt lat="46.58058" lon="0.35027">
        <ele>115.22</ele>
        <time>2023-06-23T16:18:15.877Z</time>
      </trkpt>
      <trkpt lat="46.58056" lon="0.35033">
        <ele>115.15</ele>
        <time>2023-06-23T16:19:27.222Z</time>
      </trkpt>
      <trkpt lat="46.58039" lon="0.3502">
        <ele>114.87</ele>
        <time>2023-06-23T16:20:38.570Z</time>
      </trkpt>
      <trkpt lat="46.58034" lon="0.35016">
        <ele>114.91</ele>
        <time>2023-06-23T16:21:49.919Z</time>
      </trkpt>
      <trkpt lat="46.58016" lon="0.35002">
        <ele>114.32</ele>
        <time>2023-06-23T16:23:01.272Z</time>
      </trkpt>
      <trkpt lat="46.58014" lon="0.35">
        <ele>114.26</ele>
        <time>2023-06-23T16:24:12.625Z</time>
      </trkpt>
      <trkpt lat="46.58003" lon="0.3499">
        <ele>113.89</ele>
        <time>2023-06-23T16:25:23.980Z</time>
      </trkpt>
      <trkpt lat="46.57992" lon="0.3498">
        <ele>113.59</ele>
        <time>2023-06-23T16:26:35.337Z</time>
      </trkpt>
      <trkpt lat="46.57967" lon="0.34962">
        <ele>112.95</ele>
        <time>2023-06-23T16:27:46.698Z</time>
      </trkpt>
      <trkpt lat="46.57938" lon="0.34942">
        <ele>111.66</ele>
        <time>2023-06-23T16:28:58.065Z</time>
      </trkpt>
      <trkpt lat="46.57936" lon="0.34939">
        <ele>111.55</ele>
        <time>2023-06-23T16:30:09.432Z</time>
      </trkpt>
      <trkpt lat="46.57934" lon="0.34935">
        <ele>111.41</ele>
        <time>2023-06-23T16:31:20.800Z</time>
      </trkpt>
      <trkpt lat="46.5793" lon="0.34939">
        <ele>111.22</ele>
        <time>2023-06-23T16:32:32.169Z</time>
      </trkpt>
      <trkpt lat="46.57915" lon="0.34954">
        <ele>110.6</ele>
        <time>2023-06-23T16:33:43.540Z</time>
      </trkpt>
      <trkpt lat="46.57905" lon="0.34964">
        <ele>110.09</ele>
        <time>2023-06-23T16:34:54.913Z</time>
      </trkpt>
      <trkpt lat="46.57904" lon="0.34965">
        <ele>110.09</ele>
        <time>2023-06-23T16:36:06.286Z</time>
      </trkpt>
      <trkpt lat="46.57902" lon="0.34968">
        <ele>109.94</ele>
        <time>2023-06-23T16:37:17.660Z</time>
      </trkpt>
      <trkpt lat="46.57883" lon="0.34994">
        <ele>108.14</ele>
        <time>2023-06-23T16:38:29.038Z</time>
      </trkpt>
      <trkpt lat="46.57873" lon="0.35007">
        <ele>107.2</ele>
        <time>2023-06-23T16:39:40.418Z</time>
      </trkpt>
      <trkpt lat="46.57863" lon="0.3502">
        <ele>106.34</ele>
        <time>2023-06-23T16:40:51.801Z</time>
      </trkpt>
      <trkpt lat="46.57855" lon="0.35031">
        <ele>106.23</ele>
        <time>2023-06-23T16:42:03.185Z</time>
      </trkpt>
      <trkpt lat="46.57842" lon="0.35048">
        <ele>105.03</ele>
        <time>2023-06-23T16:43:14.572Z</time>
      </trkpt>
      <trkpt lat="46.57835" lon="0.35056">
        <ele>104.41</ele>
        <time>2023-06-23T16:44:25.960Z</time>
      </trkpt>
      <trkpt lat="46.57824" lon="0.35063">
        <ele>103.58</ele>
        <time>2023-06-23T16:45:37.350Z</time>
      </trkpt>
      <trkpt lat="46.57813" lon="0.35076">
        <ele>102.59</ele>
        <time>2023-06-23T16:46:48.743Z</time>
      </trkpt>
      <trkpt lat="46.5781" lon="0.35081">
        <ele>102.26</ele>
        <time>2023-06-23T16:48:00.136Z</time>
      </trkpt>
      <trkpt lat="46.57805" lon="0.35088">
        <ele>101.81</ele>
        <time>2023-06-23T16:49:11.530Z</time>
      </trkpt>
      <trkpt lat="46.57799" lon="0.35103">
        <ele>101.02</ele>
        <time>2023-06-23T16:50:22.926Z</time>
      </trkpt>
      <trkpt lat="46.57793" lon="0.35111">
        <ele>100.51</ele>
        <time>2023-06-23T16:51:34.324Z</time>
      </trkpt>
      <trkpt lat="46.57778" lon="0.35133">
        <ele>99.02</ele>
        <time>2023-06-23T16:52:45.725Z</time>
      </trkpt>
      <trkpt lat="46.57771" lon="0.35142">
        <ele>98.46</ele>
        <time>2023-06-23T16:53:57.128Z</time>
      </trkpt>
      <trkpt lat="46.57765" lon="0.35151">
        <ele>97.93</ele>
        <time>2023-06-23T16:55:08.532Z</time>
      </trkpt>
      <trkpt lat="46.57752" lon="0.35169">
        <ele>96.95</ele>
        <time>2023-06-23T16:56:19.939Z</time>
      </trkpt>
      <trkpt lat="46.57746" lon="0.35178">
        <ele>96.62</ele>
        <time>2023-06-23T16:57:31.347Z</time>
      </trkpt>
      <trkpt lat="46.57741" lon="0.35184">
        <ele>96.41</ele>
        <time>2023-06-23T16:58:42.756Z</time>
      </trkpt>
      <trkpt lat="46.57739" lon="0.35187">
        <ele>96.33</ele>
        <time>2023-06-23T16:59:54.166Z</time>
      </trkpt>
      <trkpt lat="46.57736" lon="0.35191">
        <ele>96.2</ele>
        <time>2023-06-23T17:01:05.576Z</time>
      </trkpt>
      <trkpt lat="46.57729" lon="0.352">
        <ele>96</ele>
        <time>2023-06-23T17:02:16.988Z</time>
      </trkpt>
      <trkpt lat="46.57727" lon="0.35202">
        <ele>95.8</ele>
        <time>2023-06-23T17:03:28.400Z</time>
      </trkpt>
      <trkpt lat="46.57715" lon="0.35218">
        <ele>94.95</ele>
        <time>2023-06-23T17:04:39.815Z</time>
      </trkpt>
      <trkpt lat="46.57704" lon="0.35233">
        <ele>94.92</ele>
        <time>2023-06-23T17:05:51.232Z</time>
      </trkpt>
      <trkpt lat="46.57691" lon="0.35251">
        <ele>94.7</ele>
        <time>2023-06-23T17:07:02.652Z</time>
      </trkpt>
      <trkpt lat="46.57688" lon="0.35254">
        <ele>94.62</ele>
        <time>2023-06-23T17:08:14.073Z</time>
      </trkpt>
      <trkpt lat="46.57679" lon="0.35266">
        <ele>94.55</ele>
        <time>2023-06-23T17:09:25.496Z</time>
      </trkpt>
      <trkpt lat="46.57668" lon="0.3528">
        <ele>94.33</ele>
        <time>2023-06-23T17:10:36.921Z</time>
      </trkpt>
      <trkpt lat="46.57664" lon="0.35286">
        <ele>94.18</ele>
        <time>2023-06-23T17:11:48.347Z</time>
      </trkpt>
      <trkpt lat="46.57654" lon="0.35299">
        <ele>93.6</ele>
        <time>2023-06-23T17:12:59.775Z</time>
      </trkpt>
      <trkpt lat="46.57638" lon="0.3532">
        <ele>92.55</ele>
        <time>2023-06-23T17:14:11.207Z</time>
      </trkpt>
      <trkpt lat="46.57629" lon="0.35333">
        <ele>91.98</ele>
        <time>2023-06-23T17:15:22.641Z</time>
      </trkpt>
      <trkpt lat="46.57613" lon="0.35354">
        <ele>91.32</ele>
        <time>2023-06-23T17:16:34.078Z</time>
      </trkpt>
      <trkpt lat="46.57606" lon="0.35362">
        <ele>91.08</ele>
        <time>2023-06-23T17:17:45.516Z</time>
      </trkpt>
      <trkpt lat="46.57594" lon="0.35379">
        <ele>90.66</ele>
        <time>2023-06-23T17:18:56.957Z</time>
      </trkpt>
      <trkpt lat="46.57588" lon="0.35387">
        <ele>90.48</ele>
        <time>2023-06-23T17:20:08.399Z</time>
      </trkpt>
      <trkpt lat="46.57579" lon="0.35399">
        <ele>90.11</ele>
        <time>2023-06-23T17:21:19.843Z</time>
      </trkpt>
      <trkpt lat="46.57573" lon="0.35407">
        <ele>89.89</ele>
        <time>2023-06-23T17:22:31.289Z</time>
      </trkpt>
      <trkpt lat="46.57564" lon="0.35419">
        <ele>89.65</ele>
        <time>2023-06-23T17:23:42.737Z</time>
      </trkpt>
      <trkpt lat="46.57555" lon="0.35431">
        <ele>89.48</ele>
        <time>2023-06-23T17:24:54.187Z</time>
      </trkpt>
      <trkpt lat="46.57543" lon="0.35447">
        <ele>89.62</ele>
        <time>2023-06-23T17:26:05.639Z</time>
      </trkpt>
      <trkpt lat="46.57535" lon="0.35457">
        <ele>89.67</ele>
        <time>2023-06-23T17:27:17.093Z</time>
      </trkpt>
      <trkpt lat="46.57533" lon="0.35459">
        <ele>89.69</ele>
        <time>2023-06-23T17:28:28.547Z</time>
      </trkpt>
      <trkpt lat="46.57529" lon="0.35465">
        <ele>89.64</ele>
        <time>2023-06-23T17:29:40.002Z</time>
      </trkpt>
      <trkpt lat="46.57529" lon="0.35465">
        <ele>89.64</ele>
        <time>2023-06-23T17:30:51.457Z</time>
      </trkpt>
      <trkpt lat="46.57523" lon="0.35469">
        <ele>89.54</ele>
        <time>2023-06-23T17:32:02.913Z</time>
      </trkpt>
      <trkpt lat="46.57513" lon="0.35475">
        <ele>89.36</ele>
        <time>2023-06-23T17:33:14.371Z</time>
      </trkpt>
      <trkpt lat="46.57501" lon="0.35482">
        <ele>88.93</ele>
        <time>2023-06-23T17:34:25.831Z</time>
      </trkpt>
      <trkpt lat="46.57475" lon="0.35497">
        <ele>87.82</ele>
        <time>2023-06-23T17:35:37.296Z</time>
      </trkpt>
      <trkpt lat="46.57474" lon="0.35498">
        <ele>87.78</ele>
        <time>2023-06-23T17:36:48.761Z</time>
      </trkpt>
      <trkpt lat="46.57461" lon="0.35507">
        <ele>87.35</ele>
        <time>2023-06-23T17:38:00.228Z</time>
      </trkpt>
      <trkpt lat="46.57453" lon="0.35512">
        <ele>86.88</ele>
        <time>2023-06-23T17:39:11.696Z</time>
      </trkpt>
      <trkpt lat="46.57447" lon="0.35516">
        <ele>86.48</ele>
        <time>2023-06-23T17:40:23.166Z</time>
      </trkpt>
      <trkpt lat="46.57446" lon="0.35518">
        <ele>86.38</ele>
        <time>2023-06-23T17:41:34.636Z</time>
      </trkpt>
      <trkpt lat="46.57432" lon="0.35532">
        <ele>85.31</ele>
        <time>2023-06-23T17:42:46.109Z</time>
      </trkpt>
      <trkpt lat="46.57429" lon="0.35537">
        <ele>85.03</ele>
        <time>2023-06-23T17:43:57.582Z</time>
      </trkpt>
      <trkpt lat="46.5742" lon="0.35551">
        <ele>84.27</ele>
        <time>2023-06-23T17:45:09.057Z</time>
      </trkpt>
      <trkpt lat="46.5742" lon="0.35551">
        <ele>84.27</ele>
        <time>2023-06-23T17:46:20.532Z</time>
      </trkpt>
      <trkpt lat="46.57406" lon="0.35581">
        <ele>82.69</ele>
        <time>2023-06-23T17:47:32.011Z</time>
      </trkpt>
      <trkpt lat="46.57401" lon="0.35591">
        <ele>82.22</ele>
        <time>2023-06-23T17:48:43.492Z</time>
      </trkpt>
      <trkpt lat="46.57396" lon="0.35601">
        <ele>81.79</ele>
        <time>2023-06-23T17:49:54.974Z</time>
      </trkpt>
      <trkpt lat="46.57389" lon="0.35617">
        <ele>81.39</ele>
        <time>2023-06-23T17:51:06.458Z</time>
      </trkpt>
      <trkpt lat="46.57377" lon="0.35642">
        <ele>80.58</ele>
        <time>2023-06-23T17:52:17.945Z</time>
      </trkpt>
      <trkpt lat="46.57374" lon="0.35649">
        <ele>80.16</ele>
        <time>2023-06-23T17:53:29.433Z</time>
      </trkpt>
      <trkpt lat="46.57369" lon="0.35659">
        <ele>79.87</ele>
        <time>2023-06-23T17:54:40.923Z</time>
      </trkpt>
      <trkpt lat="46.57363" lon="0.35673">
        <ele>80.01</ele>
        <time>2023-06-23T17:55:52.415Z</time>
      </trkpt>
      <trkpt lat="46.57356" lon="0.35687">
        <ele>80.2</ele>
        <time>2023-06-23T17:57:03.908Z</time>
      </trkpt>
      <trkpt lat="46.57349" lon="0.35703">
        <ele>80.38</ele>
        <time>2023-06-23T17:58:15.404Z</time>
      </trkpt>
      <trkpt lat="46.57341" lon="0.35719">
        <ele>80.51</ele>
        <time>2023-06-23T17:59:26.902Z</time>
      </trkpt>
      <trkpt lat="46.57336" lon="0.3573">
        <ele>80.53</ele>
        <time>2023-06-23T18:00:38.401Z</time>
      </trkpt>
      <trkpt lat="46.57331" lon="0.35741">
        <ele>80.51</ele>
        <time>2023-06-23T18:01:49.902Z</time>
      </trkpt>
      <trkpt lat="46.57326" lon="0.35751">
        <ele>80.46</ele>
        <time>2023-06-23T18:03:01.404Z</time>
      </trkpt>
      <trkpt lat="46.57311" lon="0.35784">
        <ele>80.2</ele>
        <time>2023-06-23T18:04:12.910Z</time>
      </trkpt>
      <trkpt lat="46.57309" lon="0.35787">
        <ele>80.09</ele>
        <time>2023-06-23T18:05:24.417Z</time>
      </trkpt>
      <trkpt lat="46.57306" lon="0.35794">
        <ele>80.07</ele>
        <time>2023-06-23T18:06:35.925Z</time>
      </trkpt>
      <trkpt lat="46.57288" lon="0.35831">
        <ele>79.81</ele>
        <time>2023-06-23T18:07:47.438Z</time>
      </trkpt>
      <trkpt lat="46.57283" lon="0.35842">
        <ele>79.72</ele>
        <time>2023-06-23T18:08:58.952Z</time>
      </trkpt>
      <trkpt lat="46.57266" lon="0.35879">
        <ele>79.52</ele>
        <time>2023-06-23T18:10:10.471Z</time>
      </trkpt>
      <trkpt lat="46.57263" lon="0.35885">
        <ele>79.49</ele>
        <time>2023-06-23T18:11:21.991Z</time>
      </trkpt>
      <trkpt lat="46.57256" lon="0.35883">
        <ele>79.47</ele>
        <time>2023-06-23T18:12:33.512Z</time>
      </trkpt>
      <trkpt lat="46.57255" lon="0.35884">
        <ele>79.47</ele>
        <time>2023-06-23T18:13:45.033Z</time>
      </trkpt>
      <trkpt lat="46.57251" lon="0.3589">
        <ele>79.46</ele>
        <time>2023-06-23T18:14:56.555Z</time>
      </trkpt>
      <trkpt lat="46.57222" lon="0.35884">
        <ele>79.45</ele>
        <time>2023-06-23T18:16:08.082Z</time>
      </trkpt>
      <trkpt lat="46.57205" lon="0.3588">
        <ele>79.55</ele>
        <time>2023-06-23T18:17:19.612Z</time>
      </trkpt>
      <trkpt lat="46.57201" lon="0.35879">
        <ele>79.58</ele>
        <time>2023-06-23T18:18:31.142Z</time>
      </trkpt>
      <trkpt lat="46.57188" lon="0.35875">
        <ele>79.71</ele>
        <time>2023-06-23T18:19:42.674Z</time>
      </trkpt>
      <trkpt lat="46.57176" lon="0.35872">
        <ele>79.91</ele>
        <time>2023-06-23T18:20:54.208Z</time>
      </trkpt>
      <trkpt lat="46.57163" lon="0.35868">
        <ele>80.41</ele>
        <time>2023-06-23T18:22:05.745Z</time>
      </trkpt>
      <trkpt lat="46.57154" lon="0.35865">
        <ele>80.77</ele>
        <time>2023-06-23T18:23:17.283Z</time>
      </trkpt>
      <trkpt lat="46.57145" lon="0.35863">
        <ele>81.16</ele>
        <time>2023-06-23T18:24:28.822Z</time>
      </trkpt>
      <trkpt lat="46.57123" lon="0.35857">
        <ele>82.21</ele>
        <time>2023-06-23T18:25:40.365Z</time>
      </trkpt>
      <trkpt lat="46.57114" lon="0.35854">
        <ele>82.71</ele>
        <time>2023-06-23T18:26:51.909Z</time>
      </trkpt>
      <trkpt lat="46.57106" lon="0.35852">
        <ele>83.27</ele>
        <time>2023-06-23T18:28:03.455Z</time>
      </trkpt>
      <trkpt lat="46.57075" lon="0.35843">
        <ele>84.49</ele>
        <time>2023-06-23T18:29:15.006Z</time>
      </trkpt>
      <trkpt lat="46.57066" lon="0.3584">
        <ele>84.99</ele>
        <time>2023-06-23T18:30:26.558Z</time>
      </trkpt>
      <trkpt lat="46.57035" lon="0.35831">
        <ele>86.89</ele>
        <time>2023-06-23T18:31:38.115Z</time>
      </trkpt>
      <trkpt lat="46.57022" lon="0.35828">
        <ele>87.66</ele>
        <time>2023-06-23T18:32:49.675Z</time>
      </trkpt>
      <trkpt lat="46.57004" lon="0.35823">
        <ele>88.63</ele>
        <time>2023-06-23T18:34:01.237Z</time>
      </trkpt>
      <trkpt lat="46.56991" lon="0.35819">
        <ele>89.26</ele>
        <time>2023-06-23T18:35:12.802Z</time>
      </trkpt>
      <trkpt lat="46.56978" lon="0.35815">
        <ele>89.82</ele>
        <time>2023-06-23T18:36:24.369Z</time>
      </trkpt>
      <trkpt lat="46.56965" lon="0.35811">
        <ele>90.29</ele>
        <time>2023-06-23T18:37:35.938Z</time>
      </trkpt>
      <trkpt lat="46.56956" lon="0.35809">
        <ele>90.55</ele>
        <time>2023-06-23T18:38:47.508Z</time>
      </trkpt>
      <trkpt lat="46.56934" lon="0.35802">
        <ele>91.13</ele>
        <time>2023-06-23T18:39:59.082Z</time>
      </trkpt>
      <trkpt lat="46.56916" lon="0.35797">
        <ele>91.65</ele>
        <time>2023-06-23T18:41:10.659Z</time>
      </trkpt>
      <trkpt lat="46.56895" lon="0.35791">
        <ele>91.98</ele>
        <time>2023-06-23T18:42:22.239Z</time>
      </trkpt>
      <trkpt lat="46.56878" lon="0.35786">
        <ele>92.58</ele>
        <time>2023-06-23T18:43:33.822Z</time>
      </trkpt>
      <trkpt lat="46.56869" lon="0.35784">
        <ele>92.9</ele>
        <time>2023-06-23T18:44:45.406Z</time>
      </trkpt>
      <trkpt lat="46.56856" lon="0.3578">
        <ele>93.46</ele>
        <time>2023-06-23T18:45:56.993Z</time>
      </trkpt>
      <trkpt lat="46.56843" lon="0.35776">
        <ele>94.09</ele>
        <time>2023-06-23T18:47:08.582Z</time>
      </trkpt>
      <trkpt lat="46.56813" lon="0.35768">
        <ele>95.65</ele>
        <time>2023-06-23T18:48:20.176Z</time>
      </trkpt>
      <trkpt lat="46.568" lon="0.35764">
        <ele>96.35</ele>
        <time>2023-06-23T18:49:31.772Z</time>
      </trkpt>
      <trkpt lat="46.56787" lon="0.3576">
        <ele>97.08</ele>
        <time>2023-06-23T18:50:43.370Z</time>
      </trkpt>
      <trkpt lat="46.56761" lon="0.35753">
        <ele>98.61</ele>
        <time>2023-06-23T18:51:54.972Z</time>
      </trkpt>
      <trkpt lat="46.56731" lon="0.35744">
        <ele>100.26</ele>
        <time>2023-06-23T18:53:06.579Z</time>
      </trkpt>
      <trkpt lat="46.56718" lon="0.3574">
        <ele>101.06</ele>
        <time>2023-06-23T18:54:18.188Z</time>
      </trkpt>
      <trkpt lat="46.56705" lon="0.35737">
        <ele>101.89</ele>
        <time>2023-06-23T18:55:29.799Z</time>
      </trkpt>
      <trkpt lat="46.56684" lon="0.35731">
        <ele>103.34</ele>
        <time>2023-06-23T18:56:41.414Z</time>
      </trkpt>
      <trkpt lat="46.56671" lon="0.35727">
        <ele>104.16</ele>
        <time>2023-06-23T18:57:53.031Z</time>
      </trkpt>
      <trkpt lat="46.56657" lon="0.35723">
        <ele>104.13</ele>
        <time>2023-06-23T18:59:04.650Z</time>
      </trkpt>
      <trkpt lat="46.56631" lon="0.35715">
        <ele>104.58</ele>
        <time>2023-06-23T19:00:16.273Z</time>
      </trkpt>
      <trkpt lat="46.56618" lon="0.35712">
        <ele>104.86</ele>
        <time>2023-06-23T19:01:27.898Z</time>
      </trkpt>
      <trkpt lat="46.56588" lon="0.35703">
        <ele>105.62</ele>
        <time>2023-06-23T19:02:39.528Z</time>
      </trkpt>
      <trkpt lat="46.56558" lon="0.35694">
        <ele>106.44</ele>
        <time>2023-06-23T19:03:51.163Z</time>
      </trkpt>
      <trkpt lat="46.56532" lon="0.35687">
        <ele>107.08</ele>
        <time>2023-06-23T19:05:02.802Z</time>
      </trkpt>
      <trkpt lat="46.56524" lon="0.35688">
        <ele>107.27</ele>
        <time>2023-06-23T19:06:14.443Z</time>
      </trkpt>
      <trkpt lat="46.56501" lon="0.35683">
        <ele>107.84</ele>
        <time>2023-06-23T19:07:26.087Z</time>
      </trkpt>
      <trkpt lat="46.56487" lon="0.35678">
        <ele>108.19</ele>
        <time>2023-06-23T19:08:37.734Z</time>
      </trkpt>
      <trkpt lat="46.56479" lon="0.35689">
        <ele>108.46</ele>
        <time>2023-06-23T19:09:49.383Z</time>
      </trkpt>
      <trkpt lat="46.56477" lon="0.35695">
        <ele>108.58</ele>
        <time>2023-06-23T19:11:01.032Z</time>
      </trkpt>
      <trkpt lat="46.5647" lon="0.35716">
        <ele>108.93</ele>
        <time>2023-06-23T19:12:12.684Z</time>
      </trkpt>
      <trkpt lat="46.56465" lon="0.35725">
        <ele>109.1</ele>
        <time>2023-06-23T19:13:24.337Z</time>
      </trkpt>
      <trkpt lat="46.56456" lon="0.35717">
        <ele>109.34</ele>
        <time>2023-06-23T19:14:35.992Z</time>
      </trkpt>
      <trkpt lat="46.5645" lon="0.35716">
        <ele>109.48</ele>
        <time>2023-06-23T19:15:47.648Z</time>
      </trkpt>
      <trkpt lat="46.56447" lon="0.35716">
        <ele>109.54</ele>
        <time>2023-06-23T19:16:59.304Z</time>
      </trkpt>
      <trkpt lat="46.56441" lon="0.35718">
        <ele>109.66</ele>
        <time>2023-06-23T19:18:10.961Z</time>
      </trkpt>
      <trkpt lat="46.56441" lon="0.35718">
        <ele>109.66</ele>
        <time>2023-06-23T19:19:22.618Z</time>
      </trkpt>
      <trkpt lat="46.56435" lon="0.35725">
        <ele>109.79</ele>
        <time>2023-06-23T19:20:34.277Z</time>
      </trkpt>
      <trkpt lat="46.56434" lon="0.35726">
        <ele>109.81</ele>
        <time>2023-06-23T19:21:45.936Z</time>
      </trkpt>
      <trkpt lat="46.5642" lon="0.35753">
        <ele>110.14</ele>
        <time>2023-06-23T19:22:57.598Z</time>
      </trkpt>
      <trkpt lat="46.56418" lon="0.35759">
        <ele>110.21</ele>
        <time>2023-06-23T19:24:09.261Z</time>
      </trkpt>
      <trkpt lat="46.56416" lon="0.3577">
        <ele>110.38</ele>
        <time>2023-06-23T19:25:20.925Z</time>
      </trkpt>
      <trkpt lat="46.56418" lon="0.35784">
        <ele>110.61</ele>
        <time>2023-06-23T19:26:32.591Z</time>
      </trkpt>
      <trkpt lat="46.56424" lon="0.35834">
        <ele>111.5</ele>
        <time>2023-06-23T19:27:44.263Z</time>
      </trkpt>
      <trkpt lat="46.56428" lon="0.35866">
        <ele>112.08</ele>
        <time>2023-06-23T19:28:55.938Z</time>
      </trkpt>
      <trkpt lat="46.56436" lon="0.35922">
        <ele>112.98</ele>
        <time>2023-06-23T19:30:07.620Z</time>
      </trkpt>
      <trkpt lat="46.5644" lon="0.35955">
        <ele>113.46</ele>
        <time>2023-06-23T19:31:19.305Z</time>
      </trkpt>
    </trkseg>
  </trk>
  <trk>
    <name><![CDATA[Trace Gravienne avec départ de La Mothe_2]]></name>
    <trkseg>
      <trkpt lat="46.5754" lon="0.34695">
        <ele>75.52</ele>
        <time>2023-06-07T19:23:00.756Z</time>
      </trkpt>
      <trkpt lat="46.57551" lon="0.34724">
        <ele>75.52</ele>
        <time>2023-06-07T19:23:02.464Z</time>
      </trkpt>
      <trkpt lat="46.57554" lon="0.34733">
        <ele>75.5</ele>
        <time>2023-06-07T19:23:04.173Z</time>
      </trkpt>
      <trkpt lat="46.57561" lon="0.34746">
        <ele>75.48</ele>
        <time>2023-06-07T19:23:05.884Z</time>
      </trkpt>
      <trkpt lat="46.57568" lon="0.34778">
        <ele>75.44</ele>
        <time>2023-06-07T19:23:07.599Z</time>
      </trkpt>
      <trkpt lat="46.57575" lon="0.34793">
        <ele>75.41</ele>
        <time>2023-06-07T19:23:09.316Z</time>
      </trkpt>
      <trkpt lat="46.57576" lon="0.34797">
        <ele>75.41</ele>
        <time>2023-06-07T19:23:11.033Z</time>
      </trkpt>
      <trkpt lat="46.57579" lon="0.34812">
        <ele>75.41</ele>
        <time>2023-06-07T19:23:12.752Z</time>
      </trkpt>
      <trkpt lat="46.5759" lon="0.3484">
        <ele>75.41</ele>
        <time>2023-06-07T19:23:14.474Z</time>
      </trkpt>
      <trkpt lat="46.57596" lon="0.34862">
        <ele>75.42</ele>
        <time>2023-06-07T19:23:16.199Z</time>
      </trkpt>
      <trkpt lat="46.57602" lon="0.34883">
        <ele>75.43</ele>
        <time>2023-06-07T19:23:17.927Z</time>
      </trkpt>
      <trkpt lat="46.57609" lon="0.34897">
        <ele>75.44</ele>
        <time>2023-06-07T19:23:19.656Z</time>
      </trkpt>
      <trkpt lat="46.57614" lon="0.34913">
        <ele>75.46</ele>
        <time>2023-06-07T19:23:21.387Z</time>
      </trkpt>
      <trkpt lat="46.57618" lon="0.34924">
        <ele>75.45</ele>
        <time>2023-06-07T19:23:23.120Z</time>
      </trkpt>
      <trkpt lat="46.57622" lon="0.34936">
        <ele>75.4</ele>
        <time>2023-06-07T19:23:24.854Z</time>
      </trkpt>
      <trkpt lat="46.57628" lon="0.34955">
        <ele>75.28</ele>
        <time>2023-06-07T19:23:26.591Z</time>
      </trkpt>
      <trkpt lat="46.57629" lon="0.3496">
        <ele>75.26</ele>
        <time>2023-06-07T19:23:28.328Z</time>
      </trkpt>
      <trkpt lat="46.57633" lon="0.34978">
        <ele>75.21</ele>
        <time>2023-06-07T19:23:30.067Z</time>
      </trkpt>
      <trkpt lat="46.57636" lon="0.3499">
        <ele>75.22</ele>
        <time>2023-06-07T19:23:31.808Z</time>
      </trkpt>
      <trkpt lat="46.57637" lon="0.34994">
        <ele>75.23</ele>
        <time>2023-06-07T19:23:33.549Z</time>
      </trkpt>
      <trkpt lat="46.57644" lon="0.35013">
        <ele>75.29</ele>
        <time>2023-06-07T19:23:35.292Z</time>
      </trkpt>
      <trkpt lat="46.57648" lon="0.35024">
        <ele>75.31</ele>
        <time>2023-06-07T19:23:37.037Z</time>
      </trkpt>
      <trkpt lat="46.57651" lon="0.35031">
        <ele>75.29</ele>
        <time>2023-06-07T19:23:38.783Z</time>
      </trkpt>
      <trkpt lat="46.57652" lon="0.35036">
        <ele>75.29</ele>
        <time>2023-06-07T19:23:40.529Z</time>
      </trkpt>
      <trkpt lat="46.57661" lon="0.35065">
        <ele>75.2</ele>
        <time>2023-06-07T19:23:42.279Z</time>
      </trkpt>
      <trkpt lat="46.5767" lon="0.35093">
        <ele>75.23</ele>
        <time>2023-06-07T19:23:44.032Z</time>
      </trkpt>
      <trkpt lat="46.57683" lon="0.35123">
        <ele>75.28</ele>
        <time>2023-06-07T19:23:45.789Z</time>
      </trkpt>
      <trkpt lat="46.57686" lon="0.35125">
        <ele>75.29</ele>
        <time>2023-06-07T19:23:47.547Z</time>
      </trkpt>
      <trkpt lat="46.57688" lon="0.35127">
        <ele>75.32</ele>
        <time>2023-06-07T19:23:49.305Z</time>
      </trkpt>
      <trkpt lat="46.57694" lon="0.35129">
        <ele>75.41</ele>
        <time>2023-06-07T19:23:51.064Z</time>
      </trkpt>
      <trkpt lat="46.57707" lon="0.35133">
        <ele>75.63</ele>
        <time>2023-06-07T19:23:52.825Z</time>
      </trkpt>
      <trkpt lat="46.57709" lon="0.35134">
        <ele>75.71</ele>
        <time>2023-06-07T19:23:54.586Z</time>
      </trkpt>
      <trkpt lat="46.57712" lon="0.35137">
        <ele>75.82</ele>
        <time>2023-06-07T19:23:56.348Z</time>
      </trkpt>
      <trkpt lat="46.57724" lon="0.35149">
        <ele>76.94</ele>
        <time>2023-06-07T19:23:58.112Z</time>
      </trkpt>
      <trkpt lat="46.57726" lon="0.35151">
        <ele>77.43</ele>
        <time>2023-06-07T19:23:59.877Z</time>
      </trkpt>
      <trkpt lat="46.57729" lon="0.35154">
        <ele>77.85</ele>
        <time>2023-06-07T19:24:01.642Z</time>
      </trkpt>
      <trkpt lat="46.57733" lon="0.3516">
        <ele>78.6</ele>
        <time>2023-06-07T19:24:03.408Z</time>
      </trkpt>
      <trkpt lat="46.57733" lon="0.35161">
        <ele>79.25</ele>
        <time>2023-06-07T19:24:05.174Z</time>
      </trkpt>
      <trkpt lat="46.57735" lon="0.35164">
        <ele>79.62</ele>
        <time>2023-06-07T19:24:06.941Z</time>
      </trkpt>
      <trkpt lat="46.57735" lon="0.35164">
        <ele>79.62</ele>
        <time>2023-06-07T19:24:08.708Z</time>
      </trkpt>
      <trkpt lat="46.57733" lon="0.35165">
        <ele>79.68</ele>
        <time>2023-06-07T19:24:10.475Z</time>
      </trkpt>
      <trkpt lat="46.57737" lon="0.3518">
        <ele>80.09</ele>
        <time>2023-06-07T19:24:12.244Z</time>
      </trkpt>
      <trkpt lat="46.57739" lon="0.35187">
        <ele>80.07</ele>
        <time>2023-06-07T19:24:14.014Z</time>
      </trkpt>
      <trkpt lat="46.57738" lon="0.35188">
        <ele>80.07</ele>
        <time>2023-06-07T19:24:15.784Z</time>
      </trkpt>
      <trkpt lat="46.57734" lon="0.35192">
        <ele>80.09</ele>
        <time>2023-06-07T19:24:17.555Z</time>
      </trkpt>
      <trkpt lat="46.57735" lon="0.35191">
        <ele>80.09</ele>
        <time>2023-06-07T19:24:19.326Z</time>
      </trkpt>
      <trkpt lat="46.57737" lon="0.35189">
        <ele>80.2</ele>
        <time>2023-06-07T19:24:21.097Z</time>
      </trkpt>
      <trkpt lat="46.57756" lon="0.35162">
        <ele>80.46</ele>
        <time>2023-06-07T19:24:22.873Z</time>
      </trkpt>
      <trkpt lat="46.57763" lon="0.35153">
        <ele>80.51</ele>
        <time>2023-06-07T19:24:24.650Z</time>
      </trkpt>
      <trkpt lat="46.57769" lon="0.35144">
        <ele>80.53</ele>
        <time>2023-06-07T19:24:26.428Z</time>
      </trkpt>
      <trkpt lat="46.57776" lon="0.35135">
        <ele>80.51</ele>
        <time>2023-06-07T19:24:28.208Z</time>
      </trkpt>
      <trkpt lat="46.57779" lon="0.3513">
        <ele>80.47</ele>
        <time>2023-06-07T19:24:29.989Z</time>
      </trkpt>
      <trkpt lat="46.57785" lon="0.35122">
        <ele>80.38</ele>
        <time>2023-06-07T19:24:31.771Z</time>
      </trkpt>
      <trkpt lat="46.57795" lon="0.35108">
        <ele>80.2</ele>
        <time>2023-06-07T19:24:33.555Z</time>
      </trkpt>
      <trkpt lat="46.57799" lon="0.35103">
        <ele>80.13</ele>
        <time>2023-06-07T19:24:35.340Z</time>
      </trkpt>
      <trkpt lat="46.57805" lon="0.35099">
        <ele>80.06</ele>
        <time>2023-06-07T19:24:37.126Z</time>
      </trkpt>
      <trkpt lat="46.5781" lon="0.35096">
        <ele>79.89</ele>
        <time>2023-06-07T19:24:38.913Z</time>
      </trkpt>
      <trkpt lat="46.57813" lon="0.35097">
        <ele>79.81</ele>
        <time>2023-06-07T19:24:40.700Z</time>
      </trkpt>
      <trkpt lat="46.57818" lon="0.35098">
        <ele>79.6</ele>
        <time>2023-06-07T19:24:42.488Z</time>
      </trkpt>
      <trkpt lat="46.57825" lon="0.35097">
        <ele>79.34</ele>
        <time>2023-06-07T19:24:44.277Z</time>
      </trkpt>
      <trkpt lat="46.57826" lon="0.35099">
        <ele>79.29</ele>
        <time>2023-06-07T19:24:46.067Z</time>
      </trkpt>
      <trkpt lat="46.57829" lon="0.35105">
        <ele>79.13</ele>
        <time>2023-06-07T19:24:47.857Z</time>
      </trkpt>
      <trkpt lat="46.57834" lon="0.35112">
        <ele>78.94</ele>
        <time>2023-06-07T19:24:49.649Z</time>
      </trkpt>
      <trkpt lat="46.57843" lon="0.35123">
        <ele>78.64</ele>
        <time>2023-06-07T19:24:51.443Z</time>
      </trkpt>
      <trkpt lat="46.57847" lon="0.35128">
        <ele>78.48</ele>
        <time>2023-06-07T19:24:53.237Z</time>
      </trkpt>
      <trkpt lat="46.57856" lon="0.35141">
        <ele>78.11</ele>
        <time>2023-06-07T19:24:55.033Z</time>
      </trkpt>
      <trkpt lat="46.57865" lon="0.35155">
        <ele>77.75</ele>
        <time>2023-06-07T19:24:56.831Z</time>
      </trkpt>
      <trkpt lat="46.57874" lon="0.35168">
        <ele>77.43</ele>
        <time>2023-06-07T19:24:58.632Z</time>
      </trkpt>
      <trkpt lat="46.57883" lon="0.35182">
        <ele>77.17</ele>
        <time>2023-06-07T19:25:00.435Z</time>
      </trkpt>
      <trkpt lat="46.57889" lon="0.35191">
        <ele>77.02</ele>
        <time>2023-06-07T19:25:02.239Z</time>
      </trkpt>
      <trkpt lat="46.57895" lon="0.352">
        <ele>76.9</ele>
        <time>2023-06-07T19:25:04.044Z</time>
      </trkpt>
      <trkpt lat="46.57896" lon="0.35202">
        <ele>76.88</ele>
        <time>2023-06-07T19:25:05.850Z</time>
      </trkpt>
      <trkpt lat="46.57901" lon="0.35209">
        <ele>76.84</ele>
        <time>2023-06-07T19:25:07.657Z</time>
      </trkpt>
      <trkpt lat="46.57911" lon="0.35222">
        <ele>76.81</ele>
        <time>2023-06-07T19:25:09.466Z</time>
      </trkpt>
      <trkpt lat="46.57912" lon="0.35223">
        <ele>76.76</ele>
        <time>2023-06-07T19:25:11.275Z</time>
      </trkpt>
      <trkpt lat="46.57916" lon="0.35228">
        <ele>76.75</ele>
        <time>2023-06-07T19:25:13.085Z</time>
      </trkpt>
      <trkpt lat="46.57922" lon="0.35235">
        <ele>76.75</ele>
        <time>2023-06-07T19:25:14.896Z</time>
      </trkpt>
      <trkpt lat="46.57936" lon="0.3525">
        <ele>76.69</ele>
        <time>2023-06-07T19:25:16.710Z</time>
      </trkpt>
      <trkpt lat="46.57941" lon="0.35255">
        <ele>76.69</ele>
        <time>2023-06-07T19:25:18.525Z</time>
      </trkpt>
      <trkpt lat="46.57949" lon="0.35261">
        <ele>76.71</ele>
        <time>2023-06-07T19:25:20.341Z</time>
      </trkpt>
      <trkpt lat="46.57954" lon="0.35264">
        <ele>76.72</ele>
        <time>2023-06-07T19:25:22.158Z</time>
      </trkpt>
      <trkpt lat="46.57966" lon="0.3527">
        <ele>76.76</ele>
        <time>2023-06-07T19:25:23.977Z</time>
      </trkpt>
      <trkpt lat="46.57971" lon="0.35272">
        <ele>76.78</ele>
        <time>2023-06-07T19:25:25.797Z</time>
      </trkpt>
      <trkpt lat="46.57996" lon="0.35276">
        <ele>76.91</ele>
        <time>2023-06-07T19:25:27.621Z</time>
      </trkpt>
      <trkpt lat="46.58001" lon="0.35277">
        <ele>78.06</ele>
        <time>2023-06-07T19:25:29.446Z</time>
      </trkpt>
      <trkpt lat="46.58004" lon="0.35265">
        <ele>79.93</ele>
        <time>2023-06-07T19:25:31.272Z</time>
      </trkpt>
      <trkpt lat="46.58007" lon="0.35249">
        <ele>80.05</ele>
        <time>2023-06-07T19:25:33.100Z</time>
      </trkpt>
      <trkpt lat="46.5801" lon="0.35233">
        <ele>80.26</ele>
        <time>2023-06-07T19:25:34.930Z</time>
      </trkpt>
      <trkpt lat="46.58014" lon="0.35215">
        <ele>83.34</ele>
        <time>2023-06-07T19:25:36.762Z</time>
      </trkpt>
      <trkpt lat="46.58016" lon="0.35207">
        <ele>84.25</ele>
        <time>2023-06-07T19:25:38.595Z</time>
      </trkpt>
      <trkpt lat="46.58017" lon="0.35192">
        <ele>85.95</ele>
        <time>2023-06-07T19:25:40.430Z</time>
      </trkpt>
      <trkpt lat="46.58019" lon="0.35174">
        <ele>84.21</ele>
        <time>2023-06-07T19:25:42.267Z</time>
      </trkpt>
      <trkpt lat="46.58021" lon="0.35155">
        <ele>82.56</ele>
        <time>2023-06-07T19:25:44.106Z</time>
      </trkpt>
      <trkpt lat="46.58022" lon="0.35147">
        <ele>82.7</ele>
        <time>2023-06-07T19:25:45.946Z</time>
      </trkpt>
      <trkpt lat="46.58013" lon="0.35144">
        <ele>82.94</ele>
        <time>2023-06-07T19:25:47.787Z</time>
      </trkpt>
      <trkpt lat="46.58006" lon="0.35141">
        <ele>83.07</ele>
        <time>2023-06-07T19:25:49.629Z</time>
      </trkpt>
      <trkpt lat="46.58" lon="0.35139">
        <ele>83.24</ele>
        <time>2023-06-07T19:25:51.472Z</time>
      </trkpt>
      <trkpt lat="46.57991" lon="0.35134">
        <ele>83.53</ele>
        <time>2023-06-07T19:25:53.317Z</time>
      </trkpt>
      <trkpt lat="46.57981" lon="0.35129">
        <ele>84</ele>
        <time>2023-06-07T19:25:55.164Z</time>
      </trkpt>
      <trkpt lat="46.57981" lon="0.35129">
        <ele>84</ele>
        <time>2023-06-07T19:25:57.011Z</time>
      </trkpt>
      <trkpt lat="46.5798" lon="0.35121">
        <ele>84.23</ele>
        <time>2023-06-07T19:25:58.858Z</time>
      </trkpt>
      <trkpt lat="46.5799" lon="0.35084">
        <ele>85.46</ele>
        <time>2023-06-07T19:26:00.710Z</time>
      </trkpt>
      <trkpt lat="46.57992" lon="0.35077">
        <ele>85.76</ele>
        <time>2023-06-07T19:26:02.563Z</time>
      </trkpt>
      <trkpt lat="46.57997" lon="0.35061">
        <ele>86.47</ele>
        <time>2023-06-07T19:26:04.418Z</time>
      </trkpt>
      <trkpt lat="46.58001" lon="0.35049">
        <ele>87.05</ele>
        <time>2023-06-07T19:26:06.274Z</time>
      </trkpt>
      <trkpt lat="46.58005" lon="0.35038">
        <ele>87.72</ele>
        <time>2023-06-07T19:26:08.131Z</time>
      </trkpt>
      <trkpt lat="46.58014" lon="0.35009">
        <ele>89.48</ele>
        <time>2023-06-07T19:26:09.992Z</time>
      </trkpt>
      <trkpt lat="46.58016" lon="0.35002">
        <ele>89.55</ele>
        <time>2023-06-07T19:26:11.854Z</time>
      </trkpt>
      <trkpt lat="46.58022" lon="0.35007">
        <ele>89.65</ele>
        <time>2023-06-07T19:26:13.717Z</time>
      </trkpt>
      <trkpt lat="46.58033" lon="0.35015">
        <ele>89.89</ele>
        <time>2023-06-07T19:26:15.582Z</time>
      </trkpt>
      <trkpt lat="46.5804" lon="0.35021">
        <ele>90.11</ele>
        <time>2023-06-07T19:26:17.448Z</time>
      </trkpt>
      <trkpt lat="46.58051" lon="0.35029">
        <ele>90.48</ele>
        <time>2023-06-07T19:26:19.316Z</time>
      </trkpt>
      <trkpt lat="46.58056" lon="0.35033">
        <ele>90.59</ele>
        <time>2023-06-07T19:26:21.185Z</time>
      </trkpt>
      <trkpt lat="46.58057" lon="0.35029">
        <ele>90.66</ele>
        <time>2023-06-07T19:26:23.055Z</time>
      </trkpt>
      <trkpt lat="46.58064" lon="0.35007">
        <ele>91.08</ele>
        <time>2023-06-07T19:26:24.927Z</time>
      </trkpt>
      <trkpt lat="46.58067" lon="0.34996">
        <ele>91.32</ele>
        <time>2023-06-07T19:26:26.801Z</time>
      </trkpt>
      <trkpt lat="46.58076" lon="0.34967">
        <ele>91.98</ele>
        <time>2023-06-07T19:26:28.678Z</time>
      </trkpt>
      <trkpt lat="46.58078" lon="0.3496">
        <ele>92.22</ele>
        <time>2023-06-07T19:26:30.556Z</time>
      </trkpt>
      <trkpt lat="46.58081" lon="0.3495">
        <ele>92.55</ele>
        <time>2023-06-07T19:26:32.435Z</time>
      </trkpt>
      <trkpt lat="46.58092" lon="0.34923">
        <ele>93.6</ele>
        <time>2023-06-07T19:26:34.318Z</time>
      </trkpt>
      <trkpt lat="46.58098" lon="0.34906">
        <ele>94.18</ele>
        <time>2023-06-07T19:26:36.203Z</time>
      </trkpt>
      <trkpt lat="46.581" lon="0.34898">
        <ele>94.33</ele>
        <time>2023-06-07T19:26:38.089Z</time>
      </trkpt>
      <trkpt lat="46.58103" lon="0.34891">
        <ele>94.4</ele>
        <time>2023-06-07T19:26:39.976Z</time>
      </trkpt>
      <trkpt lat="46.58098" lon="0.34882">
        <ele>94.52</ele>
        <time>2023-06-07T19:26:41.864Z</time>
      </trkpt>
      <trkpt lat="46.58097" lon="0.34881">
        <ele>94.55</ele>
        <time>2023-06-07T19:26:43.752Z</time>
      </trkpt>
      <trkpt lat="46.58086" lon="0.34872">
        <ele>94.62</ele>
        <time>2023-06-07T19:26:45.642Z</time>
      </trkpt>
      <trkpt lat="46.58083" lon="0.3487">
        <ele>94.7</ele>
        <time>2023-06-07T19:26:47.533Z</time>
      </trkpt>
      <trkpt lat="46.58079" lon="0.34866">
        <ele>94.76</ele>
        <time>2023-06-07T19:26:49.424Z</time>
      </trkpt>
      <trkpt lat="46.58067" lon="0.34859">
        <ele>94.92</ele>
        <time>2023-06-07T19:26:51.317Z</time>
      </trkpt>
      <trkpt lat="46.58062" lon="0.34856">
        <ele>95.06</ele>
        <time>2023-06-07T19:26:53.211Z</time>
      </trkpt>
      <trkpt lat="46.58068" lon="0.34841">
        <ele>95.4</ele>
        <time>2023-06-07T19:26:55.107Z</time>
      </trkpt>
      <trkpt lat="46.58069" lon="0.34838">
        <ele>95.47</ele>
        <time>2023-06-07T19:26:57.004Z</time>
      </trkpt>
      <trkpt lat="46.5806" lon="0.3483">
        <ele>95.8</ele>
        <time>2023-06-07T19:26:58.902Z</time>
      </trkpt>
      <trkpt lat="46.58058" lon="0.34828">
        <ele>96</ele>
        <time>2023-06-07T19:27:00.801Z</time>
      </trkpt>
      <trkpt lat="46.58056" lon="0.34826">
        <ele>96.05</ele>
        <time>2023-06-07T19:27:02.700Z</time>
      </trkpt>
      <trkpt lat="46.58058" lon="0.34817">
        <ele>96.2</ele>
        <time>2023-06-07T19:27:04.600Z</time>
      </trkpt>
      <trkpt lat="46.5806" lon="0.34811">
        <ele>96.33</ele>
        <time>2023-06-07T19:27:06.501Z</time>
      </trkpt>
      <trkpt lat="46.58063" lon="0.34799">
        <ele>96.62</ele>
        <time>2023-06-07T19:27:08.403Z</time>
      </trkpt>
      <trkpt lat="46.58066" lon="0.34787">
        <ele>96.95</ele>
        <time>2023-06-07T19:27:10.307Z</time>
      </trkpt>
      <trkpt lat="46.58068" lon="0.34781">
        <ele>97.18</ele>
        <time>2023-06-07T19:27:12.211Z</time>
      </trkpt>
      <trkpt lat="46.58076" lon="0.34766">
        <ele>97.93</ele>
        <time>2023-06-07T19:27:14.117Z</time>
      </trkpt>
      <trkpt lat="46.58082" lon="0.34756">
        <ele>98.46</ele>
        <time>2023-06-07T19:27:16.025Z</time>
      </trkpt>
      <trkpt lat="46.58087" lon="0.34746">
        <ele>99.02</ele>
        <time>2023-06-07T19:27:17.934Z</time>
      </trkpt>
      <trkpt lat="46.58101" lon="0.3472">
        <ele>100.51</ele>
        <time>2023-06-07T19:27:19.847Z</time>
      </trkpt>
      <trkpt lat="46.58108" lon="0.34707">
        <ele>101.28</ele>
        <time>2023-06-07T19:27:21.762Z</time>
      </trkpt>
      <trkpt lat="46.58115" lon="0.34688">
        <ele>102.26</ele>
        <time>2023-06-07T19:27:23.679Z</time>
      </trkpt>
      <trkpt lat="46.58133" lon="0.34636">
        <ele>105.03</ele>
        <time>2023-06-07T19:27:25.602Z</time>
      </trkpt>
    </trkseg>
  </trk>
  <trk>
    <name><![CDATA[Trace Gravienne avec départ de La Mothe_3]]></name>
    <trkseg>
      <trkpt lat="46.57476" lon="0.34624">
        <ele>76.56</ele>
        <time>2023-06-07T19:22:30.229Z</time>
      </trkpt>
      <trkpt lat="46.57479" lon="0.3463">
        <ele>76.62</ele>
        <time>2023-06-07T19:22:31.918Z</time>
      </trkpt>
      <trkpt lat="46.57481" lon="0.34634">
        <ele>76.61</ele>
        <time>2023-06-07T19:22:33.608Z</time>
      </trkpt>
      <trkpt lat="46.57486" lon="0.34638">
        <ele>76.61</ele>
        <time>2023-06-07T19:22:35.298Z</time>
      </trkpt>
      <trkpt lat="46.57486" lon="0.34638">
        <ele>76.61</ele>
        <time>2023-06-07T19:22:36.988Z</time>
      </trkpt>
      <trkpt lat="46.57489" lon="0.34636">
        <ele>76.58</ele>
        <time>2023-06-07T19:22:38.679Z</time>
      </trkpt>
      <trkpt lat="46.57501" lon="0.34628">
        <ele>76.42</ele>
        <time>2023-06-07T19:22:40.372Z</time>
      </trkpt>
      <trkpt lat="46.57505" lon="0.34625">
        <ele>76.26</ele>
        <time>2023-06-07T19:22:42.066Z</time>
      </trkpt>
      <trkpt lat="46.57514" lon="0.34625">
        <ele>75.96</ele>
        <time>2023-06-07T19:22:43.761Z</time>
      </trkpt>
      <trkpt lat="46.57515" lon="0.34625">
        <ele>75.93</ele>
        <time>2023-06-07T19:22:45.456Z</time>
      </trkpt>
      <trkpt lat="46.57521" lon="0.34632">
        <ele>75.73</ele>
        <time>2023-06-07T19:22:47.153Z</time>
      </trkpt>
      <trkpt lat="46.57525" lon="0.34638">
        <ele>75.62</ele>
        <time>2023-06-07T19:22:48.851Z</time>
      </trkpt>
      <trkpt lat="46.57527" lon="0.34642">
        <ele>75.57</ele>
        <time>2023-06-07T19:22:50.549Z</time>
      </trkpt>
    </trkseg>
  </trk>
  <trk>
    <name><![CDATA[Trace Gravienne avec départ de La Mothe_4]]></name>
    <trkseg>
      <trkpt lat="46.57527" lon="0.34642">
        <ele>75.57</ele>
        <time>2023-06-07T19:22:50.549Z</time>
      </trkpt>
      <trkpt lat="46.57529" lon="0.34647">
        <ele>75.52</ele>
        <time>2023-06-07T19:22:52.248Z</time>
      </trkpt>
      <trkpt lat="46.57532" lon="0.34653">
        <ele>75.49</ele>
        <time>2023-06-07T19:22:53.948Z</time>
      </trkpt>
      <trkpt lat="46.57532" lon="0.34653">
        <ele>75.49</ele>
        <time>2023-06-07T19:22:55.648Z</time>
      </trkpt>
      <trkpt lat="46.57534" lon="0.34665">
        <ele>75.48</ele>
        <time>2023-06-07T19:22:57.349Z</time>
      </trkpt>
    </trkseg>
  </trk>
  <trk>
    <name><![CDATA[Trace Gravienne avec départ de La Mothe_5]]></name>
    <trkseg>
      <trkpt lat="46.57534" lon="0.34665">
        <ele>75.48</ele>
        <time>2023-06-07T19:22:57.349Z</time>
      </trkpt>
      <trkpt lat="46.57537" lon="0.34686">
        <ele>75.5</ele>
        <time>2023-06-07T19:22:59.052Z</time>
      </trkpt>
      <trkpt lat="46.5754" lon="0.34695">
        <ele>75.52</ele>
        <time>2023-06-07T19:23:00.756Z</time>
      </trkpt>
    </trkseg>
  </trk>
  <trk>
    <name><![CDATA[Trace Gravienne avec départ de La Mothe_6]]></name>
    <trkseg>
      <trkpt lat="46.58194" lon="0.34498">
        <ele>119.49</ele>
        <time>2023-06-23T15:22:24.288Z</time>
      </trkpt>
      <trkpt lat="46.58181" lon="0.34532">
        <ele>119.23</ele>
        <time>2023-06-23T15:23:35.565Z</time>
      </trkpt>
      <trkpt lat="46.56363" lon="0.35174">
        <ele>122.62</ele>
        <time>2023-06-07T19:10:45.000Z</time>
      </trkpt>
      <trkpt lat="46.56357" lon="0.3516">
        <ele>122.63</ele>
        <time>2023-06-07T19:10:45.002Z</time>
      </trkpt>
      <trkpt lat="46.5635" lon="0.35143">
        <ele>122.61</ele>
        <time>2023-06-07T19:10:45.006Z</time>
      </trkpt>
      <trkpt lat="46.56343" lon="0.35114">
        <ele>122.59</ele>
        <time>2023-06-07T19:10:45.013Z</time>
      </trkpt>
      <trkpt lat="46.56341" lon="0.35105">
        <ele>122.56</ele>
        <time>2023-06-07T19:10:45.021Z</time>
      </trkpt>
      <trkpt lat="46.56338" lon="0.35089">
        <ele>122.51</ele>
        <time>2023-06-07T19:10:45.031Z</time>
      </trkpt>
      <trkpt lat="46.56332" lon="0.35058">
        <ele>122.33</ele>
        <time>2023-06-07T19:10:45.045Z</time>
      </trkpt>
      <trkpt lat="46.56331" lon="0.35052">
        <ele>122.31</ele>
        <time>2023-06-07T19:10:45.059Z</time>
      </trkpt>
      <trkpt lat="46.56323" lon="0.34996">
        <ele>121.96</ele>
        <time>2023-06-07T19:10:45.080Z</time>
      </trkpt>
      <trkpt lat="46.56323" lon="0.34996">
        <ele>121.96</ele>
        <time>2023-06-07T19:10:45.101Z</time>
      </trkpt>
      <trkpt lat="46.56313" lon="0.34973">
        <ele>121.85</ele>
        <time>2023-06-07T19:10:45.125Z</time>
      </trkpt>
      <trkpt lat="46.56308" lon="0.34957">
        <ele>121.79</ele>
        <time>2023-06-07T19:10:45.151Z</time>
      </trkpt>
      <trkpt lat="46.563" lon="0.34934">
        <ele>121.77</ele>
        <time>2023-06-07T19:10:45.180Z</time>
      </trkpt>
      <trkpt lat="46.56292" lon="0.34911">
        <ele>121.79</ele>
        <time>2023-06-07T19:10:45.212Z</time>
      </trkpt>
      <trkpt lat="46.56274" lon="0.34859">
        <ele>121.96</ele>
        <time>2023-06-07T19:10:45.250Z</time>
      </trkpt>
      <trkpt lat="46.56262" lon="0.34824">
        <ele>122.12</ele>
        <time>2023-06-07T19:10:45.292Z</time>
      </trkpt>
      <trkpt lat="46.56256" lon="0.34806">
        <ele>122.18</ele>
        <time>2023-06-07T19:10:45.336Z</time>
      </trkpt>
      <trkpt lat="46.56256" lon="0.34806">
        <ele>122.18</ele>
        <time>2023-06-07T19:10:45.380Z</time>
      </trkpt>
      <trkpt lat="46.56247" lon="0.34788">
        <ele>122.18</ele>
        <time>2023-06-07T19:10:45.427Z</time>
      </trkpt>
      <trkpt lat="46.56225" lon="0.3476">
        <ele>122.2</ele>
        <time>2023-06-07T19:10:45.479Z</time>
      </trkpt>
      <trkpt lat="46.56225" lon="0.3476">
        <ele>122.2</ele>
        <time>2023-06-07T19:10:45.531Z</time>
      </trkpt>
      <trkpt lat="46.56198" lon="0.34739">
        <ele>122.37</ele>
        <time>2023-06-07T19:10:45.587Z</time>
      </trkpt>
      <trkpt lat="46.56179" lon="0.34724">
        <ele>122.52</ele>
        <time>2023-06-07T19:10:45.647Z</time>
      </trkpt>
      <trkpt lat="46.56171" lon="0.34718">
        <ele>122.61</ele>
        <time>2023-06-07T19:10:45.708Z</time>
      </trkpt>
      <trkpt lat="46.56163" lon="0.34712">
        <ele>122.74</ele>
        <time>2023-06-07T19:10:45.771Z</time>
      </trkpt>
      <trkpt lat="46.56144" lon="0.34697">
        <ele>123.13</ele>
        <time>2023-06-07T19:10:45.837Z</time>
      </trkpt>
      <trkpt lat="46.56117" lon="0.34676">
        <ele>123.62</ele>
        <time>2023-06-07T19:10:45.908Z</time>
      </trkpt>
      <trkpt lat="46.56109" lon="0.3467">
        <ele>123.74</ele>
        <time>2023-06-07T19:10:45.981Z</time>
      </trkpt>
      <trkpt lat="46.5608" lon="0.34653">
        <ele>124.2</ele>
        <time>2023-06-07T19:10:46.059Z</time>
      </trkpt>
      <trkpt lat="46.5608" lon="0.34653">
        <ele>124.2</ele>
        <time>2023-06-07T19:10:46.137Z</time>
      </trkpt>
      <trkpt lat="46.56067" lon="0.34648">
        <ele>124.34</ele>
        <time>2023-06-07T19:10:46.217Z</time>
      </trkpt>
      <trkpt lat="46.56054" lon="0.34647">
        <ele>124.48</ele>
        <time>2023-06-07T19:10:46.299Z</time>
      </trkpt>
      <trkpt lat="46.56041" lon="0.34645">
        <ele>124.57</ele>
        <time>2023-06-07T19:10:46.383Z</time>
      </trkpt>
      <trkpt lat="46.56027" lon="0.34643">
        <ele>124.61</ele>
        <time>2023-06-07T19:10:46.469Z</time>
      </trkpt>
      <trkpt lat="46.56006" lon="0.34641">
        <ele>124.62</ele>
        <time>2023-06-07T19:10:46.559Z</time>
      </trkpt>
      <trkpt lat="46.56005" lon="0.34641">
        <ele>124.62</ele>
        <time>2023-06-07T19:10:46.649Z</time>
      </trkpt>
      <trkpt lat="46.55992" lon="0.34638">
        <ele>124.57</ele>
        <time>2023-06-07T19:10:46.741Z</time>
      </trkpt>
      <trkpt lat="46.5598" lon="0.34635">
        <ele>124.47</ele>
        <time>2023-06-07T19:10:46.835Z</time>
      </trkpt>
      <trkpt lat="46.55966" lon="0.3463">
        <ele>124.36</ele>
        <time>2023-06-07T19:10:46.931Z</time>
      </trkpt>
      <trkpt lat="46.55914" lon="0.3461">
        <ele>124.12</ele>
        <time>2023-06-07T19:10:47.036Z</time>
      </trkpt>
      <trkpt lat="46.55889" lon="0.346">
        <ele>123.96</ele>
        <time>2023-06-07T19:10:47.145Z</time>
      </trkpt>
      <trkpt lat="46.55889" lon="0.346">
        <ele>123.96</ele>
        <time>2023-06-07T19:10:47.254Z</time>
      </trkpt>
      <trkpt lat="46.55892" lon="0.34574">
        <ele>123.68</ele>
        <time>2023-06-07T19:10:47.366Z</time>
      </trkpt>
      <trkpt lat="46.55893" lon="0.34562">
        <ele>123.59</ele>
        <time>2023-06-07T19:10:47.479Z</time>
      </trkpt>
      <trkpt lat="46.55895" lon="0.34549">
        <ele>123.53</ele>
        <time>2023-06-07T19:10:47.594Z</time>
      </trkpt>
      <trkpt lat="46.55898" lon="0.34524">
        <ele>123.47</ele>
        <time>2023-06-07T19:10:47.711Z</time>
      </trkpt>
      <trkpt lat="46.55906" lon="0.34449">
        <ele>123.41</ele>
        <time>2023-06-07T19:10:47.837Z</time>
      </trkpt>
      <trkpt lat="46.55906" lon="0.34448">
        <ele>123.41</ele>
        <time>2023-06-07T19:10:47.963Z</time>
      </trkpt>
      <trkpt lat="46.55908" lon="0.34429">
        <ele>123.17</ele>
        <time>2023-06-07T19:10:48.091Z</time>
      </trkpt>
      <trkpt lat="46.55911" lon="0.3439">
        <ele>122.65</ele>
        <time>2023-06-07T19:10:48.223Z</time>
      </trkpt>
      <trkpt lat="46.55914" lon="0.34345">
        <ele>122.14</ele>
        <time>2023-06-07T19:10:48.360Z</time>
      </trkpt>
      <trkpt lat="46.55917" lon="0.34308">
        <ele>121.68</ele>
        <time>2023-06-07T19:10:48.501Z</time>
      </trkpt>
      <trkpt lat="46.55917" lon="0.34308">
        <ele>121.68</ele>
        <time>2023-06-07T19:10:48.642Z</time>
      </trkpt>
      <trkpt lat="46.55919" lon="0.34296">
        <ele>121.58</ele>
        <time>2023-06-07T19:10:48.785Z</time>
      </trkpt>
      <trkpt lat="46.55923" lon="0.34279">
        <ele>121.39</ele>
        <time>2023-06-07T19:10:48.930Z</time>
      </trkpt>
      <trkpt lat="46.55925" lon="0.3427">
        <ele>121.25</ele>
        <time>2023-06-07T19:10:49.076Z</time>
      </trkpt>
      <trkpt lat="46.55924" lon="0.3427">
        <ele>121.25</ele>
        <time>2023-06-07T19:10:49.222Z</time>
      </trkpt>
      <trkpt lat="46.55855" lon="0.34257">
        <ele>121.85</ele>
        <time>2023-06-07T19:10:49.379Z</time>
      </trkpt>
      <trkpt lat="46.55821" lon="0.3425">
        <ele>122.16</ele>
        <time>2023-06-07T19:10:49.542Z</time>
      </trkpt>
      <trkpt lat="46.55789" lon="0.34244">
        <ele>122.38</ele>
        <time>2023-06-07T19:10:49.710Z</time>
      </trkpt>
      <trkpt lat="46.55754" lon="0.34238">
        <ele>122.52</ele>
        <time>2023-06-07T19:10:49.883Z</time>
      </trkpt>
      <trkpt lat="46.55735" lon="0.34234">
        <ele>122.55</ele>
        <time>2023-06-07T19:10:50.059Z</time>
      </trkpt>
      <trkpt lat="46.55728" lon="0.34233">
        <ele>122.57</ele>
        <time>2023-06-07T19:10:50.237Z</time>
      </trkpt>
      <trkpt lat="46.5572" lon="0.34235">
        <ele>122.59</ele>
        <time>2023-06-07T19:10:50.416Z</time>
      </trkpt>
      <trkpt lat="46.55719" lon="0.34235">
        <ele>122.6</ele>
        <time>2023-06-07T19:10:50.595Z</time>
      </trkpt>
      <trkpt lat="46.55702" lon="0.34235">
        <ele>122.62</ele>
        <time>2023-06-07T19:10:50.777Z</time>
      </trkpt>
      <trkpt lat="46.55695" lon="0.3423">
        <ele>122.63</ele>
        <time>2023-06-07T19:10:50.960Z</time>
      </trkpt>
      <trkpt lat="46.55691" lon="0.34231">
        <ele>122.64</ele>
        <time>2023-06-07T19:10:51.144Z</time>
      </trkpt>
      <trkpt lat="46.55674" lon="0.34225">
        <ele>122.67</ele>
        <time>2023-06-07T19:10:51.330Z</time>
      </trkpt>
      <trkpt lat="46.55674" lon="0.34225">
        <ele>122.67</ele>
        <time>2023-06-07T19:10:51.517Z</time>
      </trkpt>
      <trkpt lat="46.55667" lon="0.34218">
        <ele>122.59</ele>
        <time>2023-06-07T19:10:51.705Z</time>
      </trkpt>
      <trkpt lat="46.55667" lon="0.34218">
        <ele>122.59</ele>
        <time>2023-06-07T19:10:51.893Z</time>
      </trkpt>
      <trkpt lat="46.55638" lon="0.34212">
        <ele>122.59</ele>
        <time>2023-06-07T19:10:52.086Z</time>
      </trkpt>
      <trkpt lat="46.55621" lon="0.34209">
        <ele>122.59</ele>
        <time>2023-06-07T19:10:52.281Z</time>
      </trkpt>
      <trkpt lat="46.55612" lon="0.34208">
        <ele>122.57</ele>
        <time>2023-06-07T19:10:52.478Z</time>
      </trkpt>
      <trkpt lat="46.55604" lon="0.34207">
        <ele>122.53</ele>
        <time>2023-06-07T19:10:52.676Z</time>
      </trkpt>
      <trkpt lat="46.55603" lon="0.34207">
        <ele>122.53</ele>
        <time>2023-06-07T19:10:52.874Z</time>
      </trkpt>
      <trkpt lat="46.55581" lon="0.3421">
        <ele>122.37</ele>
        <time>2023-06-07T19:10:53.076Z</time>
      </trkpt>
      <trkpt lat="46.55528" lon="0.34217">
        <ele>121.88</ele>
        <time>2023-06-07T19:10:53.286Z</time>
      </trkpt>
      <trkpt lat="46.55506" lon="0.34219">
        <ele>121.57</ele>
        <time>2023-06-07T19:10:53.500Z</time>
      </trkpt>
      <trkpt lat="46.55497" lon="0.3422">
        <ele>121.42</ele>
        <time>2023-06-07T19:10:53.715Z</time>
      </trkpt>
      <trkpt lat="46.55489" lon="0.34222">
        <ele>121.22</ele>
        <time>2023-06-07T19:10:53.932Z</time>
      </trkpt>
      <trkpt lat="46.55484" lon="0.34222">
        <ele>121.1</ele>
        <time>2023-06-07T19:10:54.149Z</time>
      </trkpt>
      <trkpt lat="46.55475" lon="0.34223">
        <ele>120.8</ele>
        <time>2023-06-07T19:10:54.368Z</time>
      </trkpt>
      <trkpt lat="46.55469" lon="0.34224">
        <ele>120.54</ele>
        <time>2023-06-07T19:10:54.588Z</time>
      </trkpt>
      <trkpt lat="46.55466" lon="0.34224">
        <ele>120.45</ele>
        <time>2023-06-07T19:10:54.808Z</time>
      </trkpt>
      <trkpt lat="46.55462" lon="0.34223">
        <ele>120.24</ele>
        <time>2023-06-07T19:10:55.029Z</time>
      </trkpt>
      <trkpt lat="46.55453" lon="0.34222">
        <ele>119.77</ele>
        <time>2023-06-07T19:10:55.251Z</time>
      </trkpt>
      <trkpt lat="46.55453" lon="0.34222">
        <ele>119.77</ele>
        <time>2023-06-07T19:10:55.473Z</time>
      </trkpt>
      <trkpt lat="46.5542" lon="0.34214">
        <ele>117.73</ele>
        <time>2023-06-07T19:10:55.701Z</time>
      </trkpt>
      <trkpt lat="46.55411" lon="0.34211">
        <ele>117.25</ele>
        <time>2023-06-07T19:10:55.930Z</time>
      </trkpt>
      <trkpt lat="46.55403" lon="0.34209">
        <ele>116.81</ele>
        <time>2023-06-07T19:10:56.160Z</time>
      </trkpt>
      <trkpt lat="46.55399" lon="0.34208">
        <ele>116.78</ele>
        <time>2023-06-07T19:10:56.391Z</time>
      </trkpt>
      <trkpt lat="46.55387" lon="0.34205">
        <ele>115.84</ele>
        <time>2023-06-07T19:10:56.624Z</time>
      </trkpt>
      <trkpt lat="46.55346" lon="0.34195">
        <ele>112.55</ele>
        <time>2023-06-07T19:10:56.864Z</time>
      </trkpt>
      <trkpt lat="46.55307" lon="0.34185">
        <ele>109.91</ele>
        <time>2023-06-07T19:10:57.110Z</time>
      </trkpt>
      <trkpt lat="46.55298" lon="0.34182">
        <ele>109.3</ele>
        <time>2023-06-07T19:10:57.357Z</time>
      </trkpt>
      <trkpt lat="46.55289" lon="0.3418">
        <ele>108.65</ele>
        <time>2023-06-07T19:10:57.606Z</time>
      </trkpt>
      <trkpt lat="46.55268" lon="0.34175">
        <ele>106.97</ele>
        <time>2023-06-07T19:10:57.858Z</time>
      </trkpt>
      <trkpt lat="46.55259" lon="0.34173">
        <ele>106.34</ele>
        <time>2023-06-07T19:10:58.112Z</time>
      </trkpt>
      <trkpt lat="46.55246" lon="0.34169">
        <ele>105.45</ele>
        <time>2023-06-07T19:10:58.368Z</time>
      </trkpt>
      <trkpt lat="46.55198" lon="0.34157">
        <ele>102.26</ele>
        <time>2023-06-07T19:10:58.632Z</time>
      </trkpt>
      <trkpt lat="46.55198" lon="0.34157">
        <ele>102.26</ele>
        <time>2023-06-07T19:10:58.896Z</time>
      </trkpt>
      <trkpt lat="46.5518" lon="0.34149">
        <ele>100.76</ele>
        <time>2023-06-07T19:10:59.163Z</time>
      </trkpt>
      <trkpt lat="46.55137" lon="0.34137">
        <ele>97.33</ele>
        <time>2023-06-07T19:10:59.437Z</time>
      </trkpt>
      <trkpt lat="46.55134" lon="0.34137">
        <ele>97.11</ele>
        <time>2023-06-07T19:10:59.711Z</time>
      </trkpt>
      <trkpt lat="46.55121" lon="0.34135">
        <ele>96.02</ele>
        <time>2023-06-07T19:10:59.987Z</time>
      </trkpt>
      <trkpt lat="46.5509" lon="0.34131">
        <ele>93.31</ele>
        <time>2023-06-07T19:11:00.268Z</time>
      </trkpt>
      <trkpt lat="46.55077" lon="0.3413">
        <ele>92.11</ele>
        <time>2023-06-07T19:11:00.551Z</time>
      </trkpt>
      <trkpt lat="46.55072" lon="0.34129">
        <ele>91.6</ele>
        <time>2023-06-07T19:11:00.835Z</time>
      </trkpt>
      <trkpt lat="46.55051" lon="0.34132">
        <ele>89.59</ele>
        <time>2023-06-07T19:11:01.123Z</time>
      </trkpt>
      <trkpt lat="46.55047" lon="0.34132">
        <ele>89.19</ele>
        <time>2023-06-07T19:11:01.411Z</time>
      </trkpt>
      <trkpt lat="46.55038" lon="0.34132">
        <ele>88.3</ele>
        <time>2023-06-07T19:11:01.701Z</time>
      </trkpt>
      <trkpt lat="46.55032" lon="0.34132">
        <ele>87.84</ele>
        <time>2023-06-07T19:11:01.992Z</time>
      </trkpt>
      <trkpt lat="46.55027" lon="0.34129">
        <ele>87.39</ele>
        <time>2023-06-07T19:11:02.284Z</time>
      </trkpt>
      <trkpt lat="46.55023" lon="0.34126">
        <ele>87.06</ele>
        <time>2023-06-07T19:11:02.576Z</time>
      </trkpt>
      <trkpt lat="46.55016" lon="0.34122">
        <ele>86.35</ele>
        <time>2023-06-07T19:11:02.869Z</time>
      </trkpt>
      <trkpt lat="46.55016" lon="0.34122">
        <ele>86.35</ele>
        <time>2023-06-07T19:11:03.162Z</time>
      </trkpt>
      <trkpt lat="46.55006" lon="0.34099">
        <ele>84.97</ele>
        <time>2023-06-07T19:11:03.458Z</time>
      </trkpt>
      <trkpt lat="46.55006" lon="0.34099">
        <ele>84.97</ele>
        <time>2023-06-07T19:11:03.754Z</time>
      </trkpt>
      <trkpt lat="46.55006" lon="0.3408">
        <ele>84.49</ele>
        <time>2023-06-07T19:11:04.052Z</time>
      </trkpt>
      <trkpt lat="46.55006" lon="0.3408">
        <ele>84.49</ele>
        <time>2023-06-07T19:11:04.350Z</time>
      </trkpt>
      <trkpt lat="46.55002" lon="0.34071">
        <ele>83.79</ele>
        <time>2023-06-07T19:11:04.650Z</time>
      </trkpt>
      <trkpt lat="46.5499" lon="0.3406">
        <ele>82.57</ele>
        <time>2023-06-07T19:11:04.952Z</time>
      </trkpt>
      <trkpt lat="46.5499" lon="0.3406">
        <ele>82.57</ele>
        <time>2023-06-07T19:11:05.254Z</time>
      </trkpt>
      <trkpt lat="46.54978" lon="0.34039">
        <ele>81.29</ele>
        <time>2023-06-07T19:11:05.559Z</time>
      </trkpt>
      <trkpt lat="46.54978" lon="0.34039">
        <ele>81.29</ele>
        <time>2023-06-07T19:11:05.864Z</time>
      </trkpt>
      <trkpt lat="46.54979" lon="0.34021">
        <ele>80.22</ele>
        <time>2023-06-07T19:11:06.171Z</time>
      </trkpt>
      <trkpt lat="46.54981" lon="0.3399">
        <ele>78.36</ele>
        <time>2023-06-07T19:11:06.481Z</time>
      </trkpt>
      <trkpt lat="46.54981" lon="0.3399">
        <ele>78.36</ele>
        <time>2023-06-07T19:11:06.791Z</time>
      </trkpt>
      <trkpt lat="46.54984" lon="0.33971">
        <ele>78</ele>
        <time>2023-06-07T19:11:07.103Z</time>
      </trkpt>
      <trkpt lat="46.54989" lon="0.33945">
        <ele>77.41</ele>
        <time>2023-06-07T19:11:07.418Z</time>
      </trkpt>
      <trkpt lat="46.54992" lon="0.33928">
        <ele>77.15</ele>
        <time>2023-06-07T19:11:07.735Z</time>
      </trkpt>
      <trkpt lat="46.54995" lon="0.33909">
        <ele>76.92</ele>
        <time>2023-06-07T19:11:08.055Z</time>
      </trkpt>
      <trkpt lat="46.54995" lon="0.33909">
        <ele>76.92</ele>
        <time>2023-06-07T19:11:08.375Z</time>
      </trkpt>
      <trkpt lat="46.54997" lon="0.33884">
        <ele>76.83</ele>
        <time>2023-06-07T19:11:08.697Z</time>
      </trkpt>
      <trkpt lat="46.54997" lon="0.33884">
        <ele>76.83</ele>
        <time>2023-06-07T19:11:09.019Z</time>
      </trkpt>
      <trkpt lat="46.54996" lon="0.33852">
        <ele>76.74</ele>
        <time>2023-06-07T19:11:09.345Z</time>
      </trkpt>
      <trkpt lat="46.54996" lon="0.33852">
        <ele>76.74</ele>
        <time>2023-06-07T19:11:09.671Z</time>
      </trkpt>
      <trkpt lat="46.54994" lon="0.33828">
        <ele>76.79</ele>
        <time>2023-06-07T19:11:10.000Z</time>
      </trkpt>
      <trkpt lat="46.54995" lon="0.33808">
        <ele>76.84</ele>
        <time>2023-06-07T19:11:10.331Z</time>
      </trkpt>
      <trkpt lat="46.54997" lon="0.33783">
        <ele>76.86</ele>
        <time>2023-06-07T19:11:10.665Z</time>
      </trkpt>
      <trkpt lat="46.54997" lon="0.33776">
        <ele>76.92</ele>
        <time>2023-06-07T19:11:10.999Z</time>
      </trkpt>
      <trkpt lat="46.54997" lon="0.33776">
        <ele>76.92</ele>
        <time>2023-06-07T19:11:11.333Z</time>
      </trkpt>
      <trkpt lat="46.54991" lon="0.33777">
        <ele>77.07</ele>
        <time>2023-06-07T19:11:11.668Z</time>
      </trkpt>
      <trkpt lat="46.54991" lon="0.33777">
        <ele>77.07</ele>
        <time>2023-06-07T19:11:12.003Z</time>
      </trkpt>
      <trkpt lat="46.54985" lon="0.33775">
        <ele>77.2</ele>
        <time>2023-06-07T19:11:12.339Z</time>
      </trkpt>
      <trkpt lat="46.54985" lon="0.33775">
        <ele>77.2</ele>
        <time>2023-06-07T19:11:12.675Z</time>
      </trkpt>
      <trkpt lat="46.54991" lon="0.33777">
        <ele>77.07</ele>
        <time>2023-06-07T19:11:13.012Z</time>
      </trkpt>
      <trkpt lat="46.54991" lon="0.33777">
        <ele>77.07</ele>
        <time>2023-06-07T19:11:13.349Z</time>
      </trkpt>
      <trkpt lat="46.54997" lon="0.33776">
        <ele>76.92</ele>
        <time>2023-06-07T19:11:13.687Z</time>
      </trkpt>
      <trkpt lat="46.54997" lon="0.33776">
        <ele>76.92</ele>
        <time>2023-06-07T19:11:14.025Z</time>
      </trkpt>
      <trkpt lat="46.55005" lon="0.33718">
        <ele>76.8</ele>
        <time>2023-06-07T19:11:14.370Z</time>
      </trkpt>
      <trkpt lat="46.55009" lon="0.33689">
        <ele>76.92</ele>
        <time>2023-06-07T19:11:14.718Z</time>
      </trkpt>
      <trkpt lat="46.5501" lon="0.33686">
        <ele>76.95</ele>
        <time>2023-06-07T19:11:15.066Z</time>
      </trkpt>
      <trkpt lat="46.55017" lon="0.33636">
        <ele>77.18</ele>
        <time>2023-06-07T19:11:15.420Z</time>
      </trkpt>
      <trkpt lat="46.55017" lon="0.33636">
        <ele>77.18</ele>
        <time>2023-06-07T19:11:15.774Z</time>
      </trkpt>
      <trkpt lat="46.54997" lon="0.33629">
        <ele>77.04</ele>
        <time>2023-06-07T19:11:16.131Z</time>
      </trkpt>
      <trkpt lat="46.54989" lon="0.33626">
        <ele>77.04</ele>
        <time>2023-06-07T19:11:16.490Z</time>
      </trkpt>
      <trkpt lat="46.5498" lon="0.33623">
        <ele>77.08</ele>
        <time>2023-06-07T19:11:16.850Z</time>
      </trkpt>
      <trkpt lat="46.5498" lon="0.33623">
        <ele>77.08</ele>
        <time>2023-06-07T19:11:17.210Z</time>
      </trkpt>
      <trkpt lat="46.5498" lon="0.33618">
        <ele>77.06</ele>
        <time>2023-06-07T19:11:17.571Z</time>
      </trkpt>
      <trkpt lat="46.54981" lon="0.33613">
        <ele>77.02</ele>
        <time>2023-06-07T19:11:17.932Z</time>
      </trkpt>
      <trkpt lat="46.54981" lon="0.33613">
        <ele>77.02</ele>
        <time>2023-06-07T19:11:18.293Z</time>
      </trkpt>
      <trkpt lat="46.54972" lon="0.33604">
        <ele>76.96</ele>
        <time>2023-06-07T19:11:18.656Z</time>
      </trkpt>
      <trkpt lat="46.54972" lon="0.33604">
        <ele>76.96</ele>
        <time>2023-06-07T19:11:19.019Z</time>
      </trkpt>
      <trkpt lat="46.54965" lon="0.33596">
        <ele>76.66</ele>
        <time>2023-06-07T19:11:19.383Z</time>
      </trkpt>
      <trkpt lat="46.54962" lon="0.33592">
        <ele>76.54</ele>
        <time>2023-06-07T19:11:19.748Z</time>
      </trkpt>
      <trkpt lat="46.54959" lon="0.33588">
        <ele>76.45</ele>
        <time>2023-06-07T19:11:20.114Z</time>
      </trkpt>
      <trkpt lat="46.54955" lon="0.33584">
        <ele>76.4</ele>
        <time>2023-06-07T19:11:20.480Z</time>
      </trkpt>
      <trkpt lat="46.54948" lon="0.33576">
        <ele>76.35</ele>
        <time>2023-06-07T19:11:20.848Z</time>
      </trkpt>
      <trkpt lat="46.54941" lon="0.33568">
        <ele>76.35</ele>
        <time>2023-06-07T19:11:21.217Z</time>
      </trkpt>
      <trkpt lat="46.54925" lon="0.33549">
        <ele>76.4</ele>
        <time>2023-06-07T19:11:21.590Z</time>
      </trkpt>
      <trkpt lat="46.54908" lon="0.33525">
        <ele>76.46</ele>
        <time>2023-06-07T19:11:21.966Z</time>
      </trkpt>
      <trkpt lat="46.54892" lon="0.33503">
        <ele>76.53</ele>
        <time>2023-06-07T19:11:22.346Z</time>
      </trkpt>
      <trkpt lat="46.54873" lon="0.33476">
        <ele>76.51</ele>
        <time>2023-06-07T19:11:22.730Z</time>
      </trkpt>
      <trkpt lat="46.54842" lon="0.3343">
        <ele>76.66</ele>
        <time>2023-06-07T19:11:23.121Z</time>
      </trkpt>
      <trkpt lat="46.54826" lon="0.33408">
        <ele>76.71</ele>
        <time>2023-06-07T19:11:23.516Z</time>
      </trkpt>
      <trkpt lat="46.54823" lon="0.33404">
        <ele>76.71</ele>
        <time>2023-06-07T19:11:23.912Z</time>
      </trkpt>
      <trkpt lat="46.54811" lon="0.33403">
        <ele>76.71</ele>
        <time>2023-06-07T19:11:24.309Z</time>
      </trkpt>
      <trkpt lat="46.54806" lon="0.33405">
        <ele>76.72</ele>
        <time>2023-06-07T19:11:24.707Z</time>
      </trkpt>
      <trkpt lat="46.54791" lon="0.33414">
        <ele>76.68</ele>
        <time>2023-06-07T19:11:25.108Z</time>
      </trkpt>
      <trkpt lat="46.5479" lon="0.33414">
        <ele>76.68</ele>
        <time>2023-06-07T19:11:25.509Z</time>
      </trkpt>
      <trkpt lat="46.54775" lon="0.33414">
        <ele>76.69</ele>
        <time>2023-06-07T19:11:25.912Z</time>
      </trkpt>
      <trkpt lat="46.54774" lon="0.33414">
        <ele>76.69</ele>
        <time>2023-06-07T19:11:26.316Z</time>
      </trkpt>
      <trkpt lat="46.54759" lon="0.33403">
        <ele>76.83</ele>
        <time>2023-06-07T19:11:26.722Z</time>
      </trkpt>
      <trkpt lat="46.54751" lon="0.33397">
        <ele>76.86</ele>
        <time>2023-06-07T19:11:27.130Z</time>
      </trkpt>
      <trkpt lat="46.54743" lon="0.33391">
        <ele>76.84</ele>
        <time>2023-06-07T19:11:27.539Z</time>
      </trkpt>
      <trkpt lat="46.5472" lon="0.33372">
        <ele>76.82</ele>
        <time>2023-06-07T19:11:27.952Z</time>
      </trkpt>
      <trkpt lat="46.547" lon="0.33356">
        <ele>76.84</ele>
        <time>2023-06-07T19:11:28.369Z</time>
      </trkpt>
      <trkpt lat="46.54686" lon="0.33345">
        <ele>76.81</ele>
        <time>2023-06-07T19:11:28.789Z</time>
      </trkpt>
      <trkpt lat="46.5468" lon="0.33342">
        <ele>76.81</ele>
        <time>2023-06-07T19:11:29.210Z</time>
      </trkpt>
      <trkpt lat="46.54642" lon="0.33323">
        <ele>76.85</ele>
        <time>2023-06-07T19:11:29.637Z</time>
      </trkpt>
      <trkpt lat="46.54641" lon="0.33322">
        <ele>76.85</ele>
        <time>2023-06-07T19:11:30.064Z</time>
      </trkpt>
      <trkpt lat="46.54634" lon="0.33317">
        <ele>76.85</ele>
        <time>2023-06-07T19:11:30.492Z</time>
      </trkpt>
      <trkpt lat="46.54618" lon="0.33289">
        <ele>76.85</ele>
        <time>2023-06-07T19:11:30.925Z</time>
      </trkpt>
      <trkpt lat="46.54601" lon="0.33259">
        <ele>76.77</ele>
        <time>2023-06-07T19:11:31.362Z</time>
      </trkpt>
      <trkpt lat="46.5459" lon="0.33239">
        <ele>76.78</ele>
        <time>2023-06-07T19:11:31.802Z</time>
      </trkpt>
      <trkpt lat="46.54583" lon="0.33227">
        <ele>76.77</ele>
        <time>2023-06-07T19:11:32.243Z</time>
      </trkpt>
      <trkpt lat="46.5457" lon="0.33212">
        <ele>76.76</ele>
        <time>2023-06-07T19:11:32.687Z</time>
      </trkpt>
      <trkpt lat="46.54564" lon="0.33205">
        <ele>76.72</ele>
        <time>2023-06-07T19:11:33.132Z</time>
      </trkpt>
      <trkpt lat="46.54546" lon="0.33174">
        <ele>76.61</ele>
        <time>2023-06-07T19:11:33.582Z</time>
      </trkpt>
      <trkpt lat="46.54537" lon="0.33159">
        <ele>76.59</ele>
        <time>2023-06-07T19:11:34.034Z</time>
      </trkpt>
      <trkpt lat="46.54532" lon="0.33149">
        <ele>76.6</ele>
        <time>2023-06-07T19:11:34.487Z</time>
      </trkpt>
      <trkpt lat="46.54514" lon="0.3312">
        <ele>76.71</ele>
        <time>2023-06-07T19:11:34.945Z</time>
      </trkpt>
      <trkpt lat="46.54497" lon="0.3309">
        <ele>76.89</ele>
        <time>2023-06-07T19:11:35.407Z</time>
      </trkpt>
      <trkpt lat="46.54491" lon="0.3308">
        <ele>76.91</ele>
        <time>2023-06-07T19:11:35.870Z</time>
      </trkpt>
      <trkpt lat="46.54488" lon="0.33075">
        <ele>76.9</ele>
        <time>2023-06-07T19:11:36.334Z</time>
      </trkpt>
      <trkpt lat="46.54477" lon="0.33055">
        <ele>76.78</ele>
        <time>2023-06-07T19:11:36.801Z</time>
      </trkpt>
      <trkpt lat="46.54468" lon="0.3304">
        <ele>76.72</ele>
        <time>2023-06-07T19:11:37.270Z</time>
      </trkpt>
      <trkpt lat="46.54463" lon="0.3303">
        <ele>76.69</ele>
        <time>2023-06-07T19:11:37.740Z</time>
      </trkpt>
      <trkpt lat="46.54453" lon="0.33014">
        <ele>76.67</ele>
        <time>2023-06-07T19:11:38.213Z</time>
      </trkpt>
      <trkpt lat="46.54447" lon="0.33007">
        <ele>76.66</ele>
        <time>2023-06-07T19:11:38.687Z</time>
      </trkpt>
      <trkpt lat="46.54437" lon="0.32994">
        <ele>76.67</ele>
        <time>2023-06-07T19:11:39.163Z</time>
      </trkpt>
      <trkpt lat="46.54418" lon="0.32968">
        <ele>76.78</ele>
        <time>2023-06-07T19:11:39.643Z</time>
      </trkpt>
      <trkpt lat="46.54408" lon="0.32955">
        <ele>76.79</ele>
        <time>2023-06-07T19:11:40.126Z</time>
      </trkpt>
      <trkpt lat="46.54391" lon="0.32933">
        <ele>76.76</ele>
        <time>2023-06-07T19:11:40.612Z</time>
      </trkpt>
      <trkpt lat="46.54385" lon="0.32925">
        <ele>76.73</ele>
        <time>2023-06-07T19:11:41.099Z</time>
      </trkpt>
      <trkpt lat="46.54378" lon="0.32907">
        <ele>76.69</ele>
        <time>2023-06-07T19:11:41.589Z</time>
      </trkpt>
      <trkpt lat="46.54376" lon="0.32903">
        <ele>76.69</ele>
        <time>2023-06-07T19:11:42.079Z</time>
      </trkpt>
      <trkpt lat="46.54366" lon="0.32888">
        <ele>76.73</ele>
        <time>2023-06-07T19:11:42.572Z</time>
      </trkpt>
      <trkpt lat="46.54354" lon="0.32871">
        <ele>76.73</ele>
        <time>2023-06-07T19:11:43.067Z</time>
      </trkpt>
      <trkpt lat="46.54349" lon="0.32866">
        <ele>76.74</ele>
        <time>2023-06-07T19:11:43.563Z</time>
      </trkpt>
      <trkpt lat="46.54331" lon="0.32847">
        <ele>76.86</ele>
        <time>2023-06-07T19:11:44.063Z</time>
      </trkpt>
      <trkpt lat="46.54331" lon="0.32847">
        <ele>76.86</ele>
        <time>2023-06-07T19:11:44.563Z</time>
      </trkpt>
      <trkpt lat="46.54322" lon="0.32845">
        <ele>76.89</ele>
        <time>2023-06-07T19:11:45.064Z</time>
      </trkpt>
      <trkpt lat="46.54317" lon="0.32844">
        <ele>76.89</ele>
        <time>2023-06-07T19:11:45.566Z</time>
      </trkpt>
      <trkpt lat="46.54288" lon="0.32856">
        <ele>76.89</ele>
        <time>2023-06-07T19:11:46.073Z</time>
      </trkpt>
      <trkpt lat="46.54272" lon="0.32863">
        <ele>76.91</ele>
        <time>2023-06-07T19:11:46.583Z</time>
      </trkpt>
      <trkpt lat="46.54271" lon="0.32863">
        <ele>76.92</ele>
        <time>2023-06-07T19:11:47.093Z</time>
      </trkpt>
      <trkpt lat="46.54242" lon="0.32865">
        <ele>77</ele>
        <time>2023-06-07T19:11:47.607Z</time>
      </trkpt>
      <trkpt lat="46.54235" lon="0.32863">
        <ele>77.02</ele>
        <time>2023-06-07T19:11:48.123Z</time>
      </trkpt>
      <trkpt lat="46.54208" lon="0.32856">
        <ele>77.02</ele>
        <time>2023-06-07T19:11:48.643Z</time>
      </trkpt>
      <trkpt lat="46.54208" lon="0.32856">
        <ele>77.02</ele>
        <time>2023-06-07T19:11:49.163Z</time>
      </trkpt>
      <trkpt lat="46.54178" lon="0.32859">
        <ele>77.12</ele>
        <time>2023-06-07T19:11:49.688Z</time>
      </trkpt>
      <trkpt lat="46.54175" lon="0.32859">
        <ele>77.11</ele>
        <time>2023-06-07T19:11:50.213Z</time>
      </trkpt>
      <trkpt lat="46.54163" lon="0.32867">
        <ele>77.07</ele>
        <time>2023-06-07T19:11:50.740Z</time>
      </trkpt>
      <trkpt lat="46.54152" lon="0.32859">
        <ele>77.05</ele>
        <time>2023-06-07T19:11:51.269Z</time>
      </trkpt>
      <trkpt lat="46.54149" lon="0.32857">
        <ele>77.05</ele>
        <time>2023-06-07T19:11:51.799Z</time>
      </trkpt>
      <trkpt lat="46.54138" lon="0.32858">
        <ele>77.07</ele>
        <time>2023-06-07T19:11:52.331Z</time>
      </trkpt>
      <trkpt lat="46.54133" lon="0.32866">
        <ele>77.08</ele>
        <time>2023-06-07T19:11:52.864Z</time>
      </trkpt>
      <trkpt lat="46.54131" lon="0.32868">
        <ele>77.07</ele>
        <time>2023-06-07T19:11:53.397Z</time>
      </trkpt>
      <trkpt lat="46.54124" lon="0.32865">
        <ele>77.04</ele>
        <time>2023-06-07T19:11:53.931Z</time>
      </trkpt>
      <trkpt lat="46.54122" lon="0.32869">
        <ele>77.03</ele>
        <time>2023-06-07T19:11:54.466Z</time>
      </trkpt>
      <trkpt lat="46.54115" lon="0.32885">
        <ele>77.01</ele>
        <time>2023-06-07T19:11:55.003Z</time>
      </trkpt>
      <trkpt lat="46.54113" lon="0.3289">
        <ele>77.01</ele>
        <time>2023-06-07T19:11:55.541Z</time>
      </trkpt>
      <trkpt lat="46.54102" lon="0.32902">
        <ele>77.02</ele>
        <time>2023-06-07T19:11:56.081Z</time>
      </trkpt>
      <trkpt lat="46.54085" lon="0.32922">
        <ele>77.08</ele>
        <time>2023-06-07T19:11:56.624Z</time>
      </trkpt>
      <trkpt lat="46.54078" lon="0.3293">
        <ele>77.09</ele>
        <time>2023-06-07T19:11:57.169Z</time>
      </trkpt>
      <trkpt lat="46.54073" lon="0.32936">
        <ele>77.08</ele>
        <time>2023-06-07T19:11:57.715Z</time>
      </trkpt>
      <trkpt lat="46.54044" lon="0.32971">
        <ele>77.06</ele>
        <time>2023-06-07T19:11:58.267Z</time>
      </trkpt>
      <trkpt lat="46.54038" lon="0.32979">
        <ele>77.09</ele>
        <time>2023-06-07T19:11:58.820Z</time>
      </trkpt>
      <trkpt lat="46.54034" lon="0.32984">
        <ele>77.12</ele>
        <time>2023-06-07T19:11:59.374Z</time>
      </trkpt>
      <trkpt lat="46.54028" lon="0.32992">
        <ele>77.19</ele>
        <time>2023-06-07T19:11:59.929Z</time>
      </trkpt>
      <trkpt lat="46.54022" lon="0.33002">
        <ele>77.24</ele>
        <time>2023-06-07T19:12:00.486Z</time>
      </trkpt>
      <trkpt lat="46.54019" lon="0.33006">
        <ele>77.24</ele>
        <time>2023-06-07T19:12:01.043Z</time>
      </trkpt>
      <trkpt lat="46.54007" lon="0.33028">
        <ele>77.28</ele>
        <time>2023-06-07T19:12:01.603Z</time>
      </trkpt>
      <trkpt lat="46.54006" lon="0.3303">
        <ele>77.34</ele>
        <time>2023-06-07T19:12:02.164Z</time>
      </trkpt>
      <trkpt lat="46.54014" lon="0.33041">
        <ele>77.7</ele>
        <time>2023-06-07T19:12:02.727Z</time>
      </trkpt>
      <trkpt lat="46.54018" lon="0.33045">
        <ele>77.88</ele>
        <time>2023-06-07T19:12:03.290Z</time>
      </trkpt>
      <trkpt lat="46.54021" lon="0.3305">
        <ele>78.1</ele>
        <time>2023-06-07T19:12:03.854Z</time>
      </trkpt>
      <trkpt lat="46.54024" lon="0.33054">
        <ele>78.36</ele>
        <time>2023-06-07T19:12:04.419Z</time>
      </trkpt>
      <trkpt lat="46.54028" lon="0.33058">
        <ele>78.66</ele>
        <time>2023-06-07T19:12:04.984Z</time>
      </trkpt>
      <trkpt lat="46.54031" lon="0.33063">
        <ele>78.99</ele>
        <time>2023-06-07T19:12:05.550Z</time>
      </trkpt>
      <trkpt lat="46.54035" lon="0.33067">
        <ele>79.35</ele>
        <time>2023-06-07T19:12:06.117Z</time>
      </trkpt>
      <trkpt lat="46.54037" lon="0.3307">
        <ele>79.63</ele>
        <time>2023-06-07T19:12:06.684Z</time>
      </trkpt>
      <trkpt lat="46.5404" lon="0.33077">
        <ele>80.15</ele>
        <time>2023-06-07T19:12:07.252Z</time>
      </trkpt>
      <trkpt lat="46.54042" lon="0.33084">
        <ele>80.62</ele>
        <time>2023-06-07T19:12:07.821Z</time>
      </trkpt>
      <trkpt lat="46.54044" lon="0.33096">
        <ele>81.39</ele>
        <time>2023-06-07T19:12:08.392Z</time>
      </trkpt>
      <trkpt lat="46.54044" lon="0.33099">
        <ele>81.48</ele>
        <time>2023-06-07T19:12:08.963Z</time>
      </trkpt>
      <trkpt lat="46.5404" lon="0.33106">
        <ele>81.76</ele>
        <time>2023-06-07T19:12:09.535Z</time>
      </trkpt>
      <trkpt lat="46.54036" lon="0.33112">
        <ele>82.03</ele>
        <time>2023-06-07T19:12:10.108Z</time>
      </trkpt>
      <trkpt lat="46.54034" lon="0.33117">
        <ele>82.22</ele>
        <time>2023-06-07T19:12:10.681Z</time>
      </trkpt>
      <trkpt lat="46.54032" lon="0.33123">
        <ele>82.49</ele>
        <time>2023-06-07T19:12:11.255Z</time>
      </trkpt>
      <trkpt lat="46.54031" lon="0.33128">
        <ele>82.79</ele>
        <time>2023-06-07T19:12:11.830Z</time>
      </trkpt>
      <trkpt lat="46.5403" lon="0.3313">
        <ele>82.87</ele>
        <time>2023-06-07T19:12:12.405Z</time>
      </trkpt>
      <trkpt lat="46.54027" lon="0.33152">
        <ele>83.94</ele>
        <time>2023-06-07T19:12:12.982Z</time>
      </trkpt>
      <trkpt lat="46.54027" lon="0.33154">
        <ele>84.04</ele>
        <time>2023-06-07T19:12:13.560Z</time>
      </trkpt>
      <trkpt lat="46.54027" lon="0.33167">
        <ele>84.62</ele>
        <time>2023-06-07T19:12:14.139Z</time>
      </trkpt>
      <trkpt lat="46.54026" lon="0.3318">
        <ele>85.15</ele>
        <time>2023-06-07T19:12:14.720Z</time>
      </trkpt>
      <trkpt lat="46.54026" lon="0.33193">
        <ele>85.63</ele>
        <time>2023-06-07T19:12:15.302Z</time>
      </trkpt>
      <trkpt lat="46.54026" lon="0.33196">
        <ele>85.73</ele>
        <time>2023-06-07T19:12:15.884Z</time>
      </trkpt>
      <trkpt lat="46.54025" lon="0.33212">
        <ele>86.28</ele>
        <time>2023-06-07T19:12:16.468Z</time>
      </trkpt>
      <trkpt lat="46.54025" lon="0.33217">
        <ele>86.48</ele>
        <time>2023-06-07T19:12:17.053Z</time>
      </trkpt>
      <trkpt lat="46.54027" lon="0.33237">
        <ele>87.23</ele>
        <time>2023-06-07T19:12:17.640Z</time>
      </trkpt>
      <trkpt lat="46.54027" lon="0.33243">
        <ele>87.45</ele>
        <time>2023-06-07T19:12:18.228Z</time>
      </trkpt>
      <trkpt lat="46.54029" lon="0.33255">
        <ele>87.89</ele>
        <time>2023-06-07T19:12:18.817Z</time>
      </trkpt>
      <trkpt lat="46.5403" lon="0.33261">
        <ele>88.07</ele>
        <time>2023-06-07T19:12:19.407Z</time>
      </trkpt>
      <trkpt lat="46.54031" lon="0.33267">
        <ele>88.22</ele>
        <time>2023-06-07T19:12:19.997Z</time>
      </trkpt>
      <trkpt lat="46.54033" lon="0.3328">
        <ele>88.48</ele>
        <time>2023-06-07T19:12:20.589Z</time>
      </trkpt>
      <trkpt lat="46.54035" lon="0.33298">
        <ele>88.61</ele>
        <time>2023-06-07T19:12:21.183Z</time>
      </trkpt>
      <trkpt lat="46.54038" lon="0.33315">
        <ele>88.66</ele>
        <time>2023-06-07T19:12:21.779Z</time>
      </trkpt>
      <trkpt lat="46.54039" lon="0.3333">
        <ele>88.71</ele>
        <time>2023-06-07T19:12:22.376Z</time>
      </trkpt>
      <trkpt lat="46.54039" lon="0.3335">
        <ele>88.8</ele>
        <time>2023-06-07T19:12:22.976Z</time>
      </trkpt>
      <trkpt lat="46.5404" lon="0.33362">
        <ele>88.91</ele>
        <time>2023-06-07T19:12:23.577Z</time>
      </trkpt>
      <trkpt lat="46.5404" lon="0.33371">
        <ele>89</ele>
        <time>2023-06-07T19:12:24.179Z</time>
      </trkpt>
      <trkpt lat="46.54041" lon="0.33375">
        <ele>89.05</ele>
        <time>2023-06-07T19:12:24.781Z</time>
      </trkpt>
      <trkpt lat="46.54042" lon="0.33382">
        <ele>89.14</ele>
        <time>2023-06-07T19:12:25.384Z</time>
      </trkpt>
      <trkpt lat="46.54043" lon="0.33394">
        <ele>89.35</ele>
        <time>2023-06-07T19:12:25.989Z</time>
      </trkpt>
      <trkpt lat="46.54045" lon="0.33407">
        <ele>89.62</ele>
        <time>2023-06-07T19:12:26.595Z</time>
      </trkpt>
      <trkpt lat="46.54046" lon="0.33413">
        <ele>89.77</ele>
        <time>2023-06-07T19:12:27.202Z</time>
      </trkpt>
      <trkpt lat="46.54048" lon="0.33419">
        <ele>89.95</ele>
        <time>2023-06-07T19:12:27.809Z</time>
      </trkpt>
      <trkpt lat="46.54051" lon="0.33429">
        <ele>90.26</ele>
        <time>2023-06-07T19:12:28.418Z</time>
      </trkpt>
      <trkpt lat="46.54054" lon="0.33436">
        <ele>90.51</ele>
        <time>2023-06-07T19:12:29.028Z</time>
      </trkpt>
      <trkpt lat="46.5406" lon="0.33449">
        <ele>91</ele>
        <time>2023-06-07T19:12:29.639Z</time>
      </trkpt>
      <trkpt lat="46.54062" lon="0.33452">
        <ele>91.13</ele>
        <time>2023-06-07T19:12:30.251Z</time>
      </trkpt>
      <trkpt lat="46.54071" lon="0.33466">
        <ele>91.79</ele>
        <time>2023-06-07T19:12:30.865Z</time>
      </trkpt>
      <trkpt lat="46.54077" lon="0.33476">
        <ele>92.27</ele>
        <time>2023-06-07T19:12:31.480Z</time>
      </trkpt>
      <trkpt lat="46.54083" lon="0.33485">
        <ele>92.81</ele>
        <time>2023-06-07T19:12:32.097Z</time>
      </trkpt>
      <trkpt lat="46.54092" lon="0.33499">
        <ele>93.69</ele>
        <time>2023-06-07T19:12:32.716Z</time>
      </trkpt>
      <trkpt lat="46.54101" lon="0.33517">
        <ele>94.72</ele>
        <time>2023-06-07T19:12:33.337Z</time>
      </trkpt>
      <trkpt lat="46.54106" lon="0.33532">
        <ele>95.5</ele>
        <time>2023-06-07T19:12:33.960Z</time>
      </trkpt>
      <trkpt lat="46.5412" lon="0.3358">
        <ele>98.09</ele>
        <time>2023-06-07T19:12:34.589Z</time>
      </trkpt>
      <trkpt lat="46.54123" lon="0.33591">
        <ele>98.72</ele>
        <time>2023-06-07T19:12:35.219Z</time>
      </trkpt>
      <trkpt lat="46.54127" lon="0.33603">
        <ele>99.31</ele>
        <time>2023-06-07T19:12:35.851Z</time>
      </trkpt>
      <trkpt lat="46.54147" lon="0.3367">
        <ele>102.47</ele>
        <time>2023-06-07T19:12:36.491Z</time>
      </trkpt>
      <trkpt lat="46.54148" lon="0.33673">
        <ele>102.64</ele>
        <time>2023-06-07T19:12:37.131Z</time>
      </trkpt>
      <trkpt lat="46.54165" lon="0.33741">
        <ele>106.47</ele>
        <time>2023-06-07T19:12:37.779Z</time>
      </trkpt>
      <trkpt lat="46.54165" lon="0.33744">
        <ele>106.61</ele>
        <time>2023-06-07T19:12:38.427Z</time>
      </trkpt>
      <trkpt lat="46.54177" lon="0.3382">
        <ele>110.56</ele>
        <time>2023-06-07T19:12:39.084Z</time>
      </trkpt>
      <trkpt lat="46.54177" lon="0.33823">
        <ele>110.46</ele>
        <time>2023-06-07T19:12:39.741Z</time>
      </trkpt>
      <trkpt lat="46.5418" lon="0.33814">
        <ele>110.14</ele>
        <time>2023-06-07T19:12:40.399Z</time>
      </trkpt>
      <trkpt lat="46.54184" lon="0.33803">
        <ele>109.78</ele>
        <time>2023-06-07T19:12:41.059Z</time>
      </trkpt>
      <trkpt lat="46.54193" lon="0.33779">
        <ele>109.25</ele>
        <time>2023-06-07T19:12:41.722Z</time>
      </trkpt>
      <trkpt lat="46.542" lon="0.3376">
        <ele>108.76</ele>
        <time>2023-06-07T19:12:42.387Z</time>
      </trkpt>
      <trkpt lat="46.54202" lon="0.33757">
        <ele>108.67</ele>
        <time>2023-06-07T19:12:43.053Z</time>
      </trkpt>
      <trkpt lat="46.54211" lon="0.33735">
        <ele>108.17</ele>
        <time>2023-06-07T19:12:43.721Z</time>
      </trkpt>
      <trkpt lat="46.54214" lon="0.33729">
        <ele>108.02</ele>
        <time>2023-06-07T19:12:44.390Z</time>
      </trkpt>
      <trkpt lat="46.54219" lon="0.33718">
        <ele>107.68</ele>
        <time>2023-06-07T19:12:45.061Z</time>
      </trkpt>
      <trkpt lat="46.54221" lon="0.33714">
        <ele>107.51</ele>
        <time>2023-06-07T19:12:45.732Z</time>
      </trkpt>
      <trkpt lat="46.54229" lon="0.33706">
        <ele>107.06</ele>
        <time>2023-06-07T19:12:46.405Z</time>
      </trkpt>
      <trkpt lat="46.54252" lon="0.33684">
        <ele>105.68</ele>
        <time>2023-06-07T19:12:47.082Z</time>
      </trkpt>
      <trkpt lat="46.54267" lon="0.3367">
        <ele>104.85</ele>
        <time>2023-06-07T19:12:47.762Z</time>
      </trkpt>
      <trkpt lat="46.54274" lon="0.33663">
        <ele>104.47</ele>
        <time>2023-06-07T19:12:48.443Z</time>
      </trkpt>
      <trkpt lat="46.54278" lon="0.33659">
        <ele>104.3</ele>
        <time>2023-06-07T19:12:49.125Z</time>
      </trkpt>
      <trkpt lat="46.54297" lon="0.33641">
        <ele>103.54</ele>
        <time>2023-06-07T19:12:49.811Z</time>
      </trkpt>
      <trkpt lat="46.54304" lon="0.33634">
        <ele>103.2</ele>
        <time>2023-06-07T19:12:50.498Z</time>
      </trkpt>
      <trkpt lat="46.54311" lon="0.33626">
        <ele>102.81</ele>
        <time>2023-06-07T19:12:51.187Z</time>
      </trkpt>
      <trkpt lat="46.54315" lon="0.33623">
        <ele>102.59</ele>
        <time>2023-06-07T19:12:51.876Z</time>
      </trkpt>
      <trkpt lat="46.54328" lon="0.33616">
        <ele>101.9</ele>
        <time>2023-06-07T19:12:52.568Z</time>
      </trkpt>
      <trkpt lat="46.54336" lon="0.33612">
        <ele>101.5</ele>
        <time>2023-06-07T19:12:53.261Z</time>
      </trkpt>
      <trkpt lat="46.54338" lon="0.33611">
        <ele>101.44</ele>
        <time>2023-06-07T19:12:53.954Z</time>
      </trkpt>
      <trkpt lat="46.54345" lon="0.33611">
        <ele>101.18</ele>
        <time>2023-06-07T19:12:54.648Z</time>
      </trkpt>
      <trkpt lat="46.5435" lon="0.33611">
        <ele>101.06</ele>
        <time>2023-06-07T19:12:55.343Z</time>
      </trkpt>
      <trkpt lat="46.54363" lon="0.33612">
        <ele>100.76</ele>
        <time>2023-06-07T19:12:56.040Z</time>
      </trkpt>
      <trkpt lat="46.54377" lon="0.33612">
        <ele>100.51</ele>
        <time>2023-06-07T19:12:56.739Z</time>
      </trkpt>
      <trkpt lat="46.54386" lon="0.33612">
        <ele>100.42</ele>
        <time>2023-06-07T19:12:57.440Z</time>
      </trkpt>
      <trkpt lat="46.54395" lon="0.33612">
        <ele>100.41</ele>
        <time>2023-06-07T19:12:58.142Z</time>
      </trkpt>
      <trkpt lat="46.54399" lon="0.33613">
        <ele>100.43</ele>
        <time>2023-06-07T19:12:58.845Z</time>
      </trkpt>
      <trkpt lat="46.54408" lon="0.33613">
        <ele>100.55</ele>
        <time>2023-06-07T19:12:59.549Z</time>
      </trkpt>
      <trkpt lat="46.54417" lon="0.33613">
        <ele>100.77</ele>
        <time>2023-06-07T19:13:00.255Z</time>
      </trkpt>
      <trkpt lat="46.54422" lon="0.33613">
        <ele>100.92</ele>
        <time>2023-06-07T19:13:00.962Z</time>
      </trkpt>
      <trkpt lat="46.5444" lon="0.33614">
        <ele>101.62</ele>
        <time>2023-06-07T19:13:01.672Z</time>
      </trkpt>
      <trkpt lat="46.54449" lon="0.33614">
        <ele>101.92</ele>
        <time>2023-06-07T19:13:02.383Z</time>
      </trkpt>
      <trkpt lat="46.54453" lon="0.33614">
        <ele>102.04</ele>
        <time>2023-06-07T19:13:03.095Z</time>
      </trkpt>
      <trkpt lat="46.54462" lon="0.33614">
        <ele>102.21</ele>
        <time>2023-06-07T19:13:03.808Z</time>
      </trkpt>
      <trkpt lat="46.54489" lon="0.33615">
        <ele>102.54</ele>
        <time>2023-06-07T19:13:04.525Z</time>
      </trkpt>
      <trkpt lat="46.54493" lon="0.33615">
        <ele>102.61</ele>
        <time>2023-06-07T19:13:05.243Z</time>
      </trkpt>
      <trkpt lat="46.54523" lon="0.3363">
        <ele>103.24</ele>
        <time>2023-06-07T19:13:05.966Z</time>
      </trkpt>
      <trkpt lat="46.54532" lon="0.33634">
        <ele>103.39</ele>
        <time>2023-06-07T19:13:06.691Z</time>
      </trkpt>
      <trkpt lat="46.5454" lon="0.33639">
        <ele>103.47</ele>
        <time>2023-06-07T19:13:07.417Z</time>
      </trkpt>
      <trkpt lat="46.54553" lon="0.33645">
        <ele>103.47</ele>
        <time>2023-06-07T19:13:08.145Z</time>
      </trkpt>
      <trkpt lat="46.5457" lon="0.33654">
        <ele>103.35</ele>
        <time>2023-06-07T19:13:08.876Z</time>
      </trkpt>
      <trkpt lat="46.54579" lon="0.33658">
        <ele>103.21</ele>
        <time>2023-06-07T19:13:09.609Z</time>
      </trkpt>
      <trkpt lat="46.54581" lon="0.33659">
        <ele>102.91</ele>
        <time>2023-06-07T19:13:10.342Z</time>
      </trkpt>
      <trkpt lat="46.54583" lon="0.33651">
        <ele>102.22</ele>
        <time>2023-06-07T19:13:11.076Z</time>
      </trkpt>
      <trkpt lat="46.54584" lon="0.33645">
        <ele>101.68</ele>
        <time>2023-06-07T19:13:11.811Z</time>
      </trkpt>
      <trkpt lat="46.54589" lon="0.33615">
        <ele>98.78</ele>
        <time>2023-06-07T19:13:12.549Z</time>
      </trkpt>
      <trkpt lat="46.5459" lon="0.33609">
        <ele>98.24</ele>
        <time>2023-06-07T19:13:13.288Z</time>
      </trkpt>
      <trkpt lat="46.5459" lon="0.33609">
        <ele>98.24</ele>
        <time>2023-06-07T19:13:14.027Z</time>
      </trkpt>
      <trkpt lat="46.54594" lon="0.33605">
        <ele>97.73</ele>
        <time>2023-06-07T19:13:14.766Z</time>
      </trkpt>
      <trkpt lat="46.54594" lon="0.33605">
        <ele>97.73</ele>
        <time>2023-06-07T19:13:15.505Z</time>
      </trkpt>
      <trkpt lat="46.54598" lon="0.33605">
        <ele>97.27</ele>
        <time>2023-06-07T19:13:16.245Z</time>
      </trkpt>
      <trkpt lat="46.54601" lon="0.33605">
        <ele>96.97</ele>
        <time>2023-06-07T19:13:16.986Z</time>
      </trkpt>
      <trkpt lat="46.54602" lon="0.33606">
        <ele>96.87</ele>
        <time>2023-06-07T19:13:17.727Z</time>
      </trkpt>
      <trkpt lat="46.54609" lon="0.33613">
        <ele>96.21</ele>
        <time>2023-06-07T19:13:18.469Z</time>
      </trkpt>
      <trkpt lat="46.54616" lon="0.33619">
        <ele>95.86</ele>
        <time>2023-06-07T19:13:19.212Z</time>
      </trkpt>
      <trkpt lat="46.5462" lon="0.33623">
        <ele>95.7</ele>
        <time>2023-06-07T19:13:19.956Z</time>
      </trkpt>
      <trkpt lat="46.54627" lon="0.3363">
        <ele>95.43</ele>
        <time>2023-06-07T19:13:20.702Z</time>
      </trkpt>
      <trkpt lat="46.54628" lon="0.33631">
        <ele>95.39</ele>
        <time>2023-06-07T19:13:21.448Z</time>
      </trkpt>
      <trkpt lat="46.54639" lon="0.33638">
        <ele>95.11</ele>
        <time>2023-06-07T19:13:22.196Z</time>
      </trkpt>
      <trkpt lat="46.54647" lon="0.33643">
        <ele>94.94</ele>
        <time>2023-06-07T19:13:22.945Z</time>
      </trkpt>
      <trkpt lat="46.54651" lon="0.33644">
        <ele>94.88</ele>
        <time>2023-06-07T19:13:23.695Z</time>
      </trkpt>
      <trkpt lat="46.54664" lon="0.33646">
        <ele>94.75</ele>
        <time>2023-06-07T19:13:24.447Z</time>
      </trkpt>
      <trkpt lat="46.54664" lon="0.33646">
        <ele>94.75</ele>
        <time>2023-06-07T19:13:25.199Z</time>
      </trkpt>
      <trkpt lat="46.54672" lon="0.33645">
        <ele>94.7</ele>
        <time>2023-06-07T19:13:25.952Z</time>
      </trkpt>
      <trkpt lat="46.54676" lon="0.33645">
        <ele>94.69</ele>
        <time>2023-06-07T19:13:26.706Z</time>
      </trkpt>
      <trkpt lat="46.54682" lon="0.33644">
        <ele>94.7</ele>
        <time>2023-06-07T19:13:27.461Z</time>
      </trkpt>
      <trkpt lat="46.54685" lon="0.33643">
        <ele>94.72</ele>
        <time>2023-06-07T19:13:28.216Z</time>
      </trkpt>
      <trkpt lat="46.54697" lon="0.33636">
        <ele>94.86</ele>
        <time>2023-06-07T19:13:28.973Z</time>
      </trkpt>
      <trkpt lat="46.54699" lon="0.33635">
        <ele>94.83</ele>
        <time>2023-06-07T19:13:29.731Z</time>
      </trkpt>
      <trkpt lat="46.54713" lon="0.33621">
        <ele>94.62</ele>
        <time>2023-06-07T19:13:30.491Z</time>
      </trkpt>
      <trkpt lat="46.54715" lon="0.33619">
        <ele>94.62</ele>
        <time>2023-06-07T19:13:31.252Z</time>
      </trkpt>
      <trkpt lat="46.54725" lon="0.33604">
        <ele>94.66</ele>
        <time>2023-06-07T19:13:32.015Z</time>
      </trkpt>
      <trkpt lat="46.54726" lon="0.33602">
        <ele>94.67</ele>
        <time>2023-06-07T19:13:32.778Z</time>
      </trkpt>
      <trkpt lat="46.54745" lon="0.33566">
        <ele>94.66</ele>
        <time>2023-06-07T19:13:33.546Z</time>
      </trkpt>
      <trkpt lat="46.54756" lon="0.33545">
        <ele>94.7</ele>
        <time>2023-06-07T19:13:34.317Z</time>
      </trkpt>
      <trkpt lat="46.54768" lon="0.33522">
        <ele>94.71</ele>
        <time>2023-06-07T19:13:35.091Z</time>
      </trkpt>
      <trkpt lat="46.548" lon="0.33464">
        <ele>94.76</ele>
        <time>2023-06-07T19:13:35.874Z</time>
      </trkpt>
      <trkpt lat="46.5482" lon="0.33429">
        <ele>94.85</ele>
        <time>2023-06-07T19:13:36.662Z</time>
      </trkpt>
      <trkpt lat="46.54834" lon="0.33404">
        <ele>94.96</ele>
        <time>2023-06-07T19:13:37.453Z</time>
      </trkpt>
      <trkpt lat="46.54845" lon="0.33391">
        <ele>95.04</ele>
        <time>2023-06-07T19:13:38.246Z</time>
      </trkpt>
      <trkpt lat="46.54856" lon="0.33377">
        <ele>95.07</ele>
        <time>2023-06-07T19:13:39.042Z</time>
      </trkpt>
      <trkpt lat="46.54859" lon="0.33374">
        <ele>95.08</ele>
        <time>2023-06-07T19:13:39.838Z</time>
      </trkpt>
      <trkpt lat="46.54869" lon="0.33364">
        <ele>95.09</ele>
        <time>2023-06-07T19:13:40.636Z</time>
      </trkpt>
      <trkpt lat="46.54886" lon="0.33351">
        <ele>95.12</ele>
        <time>2023-06-07T19:13:41.437Z</time>
      </trkpt>
      <trkpt lat="46.54886" lon="0.33351">
        <ele>95.12</ele>
        <time>2023-06-07T19:13:42.238Z</time>
      </trkpt>
      <trkpt lat="46.54894" lon="0.33347">
        <ele>95.17</ele>
        <time>2023-06-07T19:13:43.041Z</time>
      </trkpt>
      <trkpt lat="46.54902" lon="0.33342">
        <ele>95.25</ele>
        <time>2023-06-07T19:13:43.845Z</time>
      </trkpt>
      <trkpt lat="46.54904" lon="0.33341">
        <ele>95.3</ele>
        <time>2023-06-07T19:13:44.649Z</time>
      </trkpt>
      <trkpt lat="46.54915" lon="0.3334">
        <ele>95.6</ele>
        <time>2023-06-07T19:13:45.455Z</time>
      </trkpt>
      <trkpt lat="46.54924" lon="0.33339">
        <ele>95.87</ele>
        <time>2023-06-07T19:13:46.263Z</time>
      </trkpt>
      <trkpt lat="46.54924" lon="0.33339">
        <ele>95.87</ele>
        <time>2023-06-07T19:13:47.071Z</time>
      </trkpt>
      <trkpt lat="46.54932" lon="0.3334">
        <ele>96.19</ele>
        <time>2023-06-07T19:13:47.880Z</time>
      </trkpt>
      <trkpt lat="46.54941" lon="0.33342">
        <ele>96.54</ele>
        <time>2023-06-07T19:13:48.690Z</time>
      </trkpt>
      <trkpt lat="46.54943" lon="0.33342">
        <ele>96.57</ele>
        <time>2023-06-07T19:13:49.501Z</time>
      </trkpt>
      <trkpt lat="46.54961" lon="0.33356">
        <ele>96.9</ele>
        <time>2023-06-07T19:13:50.315Z</time>
      </trkpt>
      <trkpt lat="46.54969" lon="0.33362">
        <ele>97.06</ele>
        <time>2023-06-07T19:13:51.130Z</time>
      </trkpt>
      <trkpt lat="46.54996" lon="0.33383">
        <ele>97.63</ele>
        <time>2023-06-07T19:13:51.950Z</time>
      </trkpt>
      <trkpt lat="46.55008" lon="0.33392">
        <ele>97.91</ele>
        <time>2023-06-07T19:13:52.773Z</time>
      </trkpt>
      <trkpt lat="46.55025" lon="0.33405">
        <ele>98.34</ele>
        <time>2023-06-07T19:13:53.599Z</time>
      </trkpt>
      <trkpt lat="46.55025" lon="0.33405">
        <ele>98.34</ele>
        <time>2023-06-07T19:13:54.425Z</time>
      </trkpt>
      <trkpt lat="46.55045" lon="0.33417">
        <ele>98.84</ele>
        <time>2023-06-07T19:13:55.254Z</time>
      </trkpt>
      <trkpt lat="46.55053" lon="0.33421">
        <ele>99.05</ele>
        <time>2023-06-07T19:13:56.084Z</time>
      </trkpt>
      <trkpt lat="46.55062" lon="0.33427">
        <ele>99.29</ele>
        <time>2023-06-07T19:13:56.916Z</time>
      </trkpt>
      <trkpt lat="46.5509" lon="0.33446">
        <ele>100.13</ele>
        <time>2023-06-07T19:13:57.753Z</time>
      </trkpt>
      <trkpt lat="46.55093" lon="0.33448">
        <ele>100.2</ele>
        <time>2023-06-07T19:13:58.590Z</time>
      </trkpt>
      <trkpt lat="46.55118" lon="0.3346">
        <ele>100.81</ele>
        <time>2023-06-07T19:13:59.432Z</time>
      </trkpt>
      <trkpt lat="46.55132" lon="0.33469">
        <ele>101.17</ele>
        <time>2023-06-07T19:14:00.276Z</time>
      </trkpt>
      <trkpt lat="46.55153" lon="0.33482">
        <ele>101.76</ele>
        <time>2023-06-07T19:14:01.124Z</time>
      </trkpt>
      <trkpt lat="46.55167" lon="0.33491">
        <ele>102.13</ele>
        <time>2023-06-07T19:14:01.974Z</time>
      </trkpt>
      <trkpt lat="46.55182" lon="0.33496">
        <ele>102.52</ele>
        <time>2023-06-07T19:14:02.827Z</time>
      </trkpt>
      <trkpt lat="46.55196" lon="0.335">
        <ele>102.8</ele>
        <time>2023-06-07T19:14:03.682Z</time>
      </trkpt>
      <trkpt lat="46.55217" lon="0.33508">
        <ele>103.22</ele>
        <time>2023-06-07T19:14:04.541Z</time>
      </trkpt>
      <trkpt lat="46.55239" lon="0.33515">
        <ele>103.59</ele>
        <time>2023-06-07T19:14:05.403Z</time>
      </trkpt>
      <trkpt lat="46.55246" lon="0.33517">
        <ele>103.68</ele>
        <time>2023-06-07T19:14:06.266Z</time>
      </trkpt>
      <trkpt lat="46.55248" lon="0.33517">
        <ele>103.71</ele>
        <time>2023-06-07T19:14:07.130Z</time>
      </trkpt>
      <trkpt lat="46.55264" lon="0.33516">
        <ele>103.81</ele>
        <time>2023-06-07T19:14:07.996Z</time>
      </trkpt>
      <trkpt lat="46.55285" lon="0.33512">
        <ele>103.95</ele>
        <time>2023-06-07T19:14:08.865Z</time>
      </trkpt>
      <trkpt lat="46.55293" lon="0.33509">
        <ele>104.01</ele>
        <time>2023-06-07T19:14:09.736Z</time>
      </trkpt>
      <trkpt lat="46.55304" lon="0.33504">
        <ele>104.14</ele>
        <time>2023-06-07T19:14:10.609Z</time>
      </trkpt>
      <trkpt lat="46.55313" lon="0.33497">
        <ele>104.27</ele>
        <time>2023-06-07T19:14:11.483Z</time>
      </trkpt>
      <trkpt lat="46.55329" lon="0.33485">
        <ele>104.42</ele>
        <time>2023-06-07T19:14:12.360Z</time>
      </trkpt>
      <trkpt lat="46.55337" lon="0.33479">
        <ele>104.44</ele>
        <time>2023-06-07T19:14:13.239Z</time>
      </trkpt>
      <trkpt lat="46.55337" lon="0.33479">
        <ele>104.44</ele>
        <time>2023-06-07T19:14:14.118Z</time>
      </trkpt>
      <trkpt lat="46.55341" lon="0.33475">
        <ele>104.41</ele>
        <time>2023-06-07T19:14:14.997Z</time>
      </trkpt>
      <trkpt lat="46.55345" lon="0.33472">
        <ele>104.35</ele>
        <time>2023-06-07T19:14:15.877Z</time>
      </trkpt>
      <trkpt lat="46.55352" lon="0.33465">
        <ele>104.14</ele>
        <time>2023-06-07T19:14:16.759Z</time>
      </trkpt>
      <trkpt lat="46.55354" lon="0.33463">
        <ele>104.06</ele>
        <time>2023-06-07T19:14:17.641Z</time>
      </trkpt>
      <trkpt lat="46.55355" lon="0.33463">
        <ele>104.06</ele>
        <time>2023-06-07T19:14:18.523Z</time>
      </trkpt>
      <trkpt lat="46.55362" lon="0.3347">
        <ele>103.64</ele>
        <time>2023-06-07T19:14:19.406Z</time>
      </trkpt>
      <trkpt lat="46.5537" lon="0.33476">
        <ele>103.18</ele>
        <time>2023-06-07T19:14:20.291Z</time>
      </trkpt>
      <trkpt lat="46.55378" lon="0.33482">
        <ele>102.68</ele>
        <time>2023-06-07T19:14:21.177Z</time>
      </trkpt>
      <trkpt lat="46.55386" lon="0.33488">
        <ele>102.14</ele>
        <time>2023-06-07T19:14:22.065Z</time>
      </trkpt>
      <trkpt lat="46.55398" lon="0.33497">
        <ele>101.83</ele>
        <time>2023-06-07T19:14:22.955Z</time>
      </trkpt>
      <trkpt lat="46.554" lon="0.33499">
        <ele>101.86</ele>
        <time>2023-06-07T19:14:23.845Z</time>
      </trkpt>
      <trkpt lat="46.55403" lon="0.33504">
        <ele>101.96</ele>
        <time>2023-06-07T19:14:24.736Z</time>
      </trkpt>
      <trkpt lat="46.55405" lon="0.33507">
        <ele>101.9</ele>
        <time>2023-06-07T19:14:25.627Z</time>
      </trkpt>
      <trkpt lat="46.55423" lon="0.3346">
        <ele>101.07</ele>
        <time>2023-06-07T19:14:26.524Z</time>
      </trkpt>
      <trkpt lat="46.55429" lon="0.33443">
        <ele>100.74</ele>
        <time>2023-06-07T19:14:27.423Z</time>
      </trkpt>
      <trkpt lat="46.55441" lon="0.33412">
        <ele>100.06</ele>
        <time>2023-06-07T19:14:28.326Z</time>
      </trkpt>
      <trkpt lat="46.55443" lon="0.33404">
        <ele>99.9</ele>
        <time>2023-06-07T19:14:29.230Z</time>
      </trkpt>
      <trkpt lat="46.55449" lon="0.33384">
        <ele>99.47</ele>
        <time>2023-06-07T19:14:30.137Z</time>
      </trkpt>
      <trkpt lat="46.55455" lon="0.33372">
        <ele>99.18</ele>
        <time>2023-06-07T19:14:31.045Z</time>
      </trkpt>
      <trkpt lat="46.55456" lon="0.3337">
        <ele>99.14</ele>
        <time>2023-06-07T19:14:31.954Z</time>
      </trkpt>
      <trkpt lat="46.55469" lon="0.33335">
        <ele>98.53</ele>
        <time>2023-06-07T19:14:32.867Z</time>
      </trkpt>
      <trkpt lat="46.5547" lon="0.33332">
        <ele>98.39</ele>
        <time>2023-06-07T19:14:33.780Z</time>
      </trkpt>
      <trkpt lat="46.5547" lon="0.33332">
        <ele>98.39</ele>
        <time>2023-06-07T19:14:34.693Z</time>
      </trkpt>
      <trkpt lat="46.55494" lon="0.33272">
        <ele>97.49</ele>
        <time>2023-06-07T19:14:35.614Z</time>
      </trkpt>
      <trkpt lat="46.55511" lon="0.33229">
        <ele>96.76</ele>
        <time>2023-06-07T19:14:36.541Z</time>
      </trkpt>
      <trkpt lat="46.55518" lon="0.33212">
        <ele>96.52</ele>
        <time>2023-06-07T19:14:37.470Z</time>
      </trkpt>
      <trkpt lat="46.55524" lon="0.33196">
        <ele>96.36</ele>
        <time>2023-06-07T19:14:38.401Z</time>
      </trkpt>
      <trkpt lat="46.55529" lon="0.33185">
        <ele>96.29</ele>
        <time>2023-06-07T19:14:39.333Z</time>
      </trkpt>
      <trkpt lat="46.55533" lon="0.33174">
        <ele>96.26</ele>
        <time>2023-06-07T19:14:40.267Z</time>
      </trkpt>
      <trkpt lat="46.55537" lon="0.33163">
        <ele>96.31</ele>
        <time>2023-06-07T19:14:41.202Z</time>
      </trkpt>
      <trkpt lat="46.5554" lon="0.33158">
        <ele>96.37</ele>
        <time>2023-06-07T19:14:42.138Z</time>
      </trkpt>
      <trkpt lat="46.55544" lon="0.33147">
        <ele>96.53</ele>
        <time>2023-06-07T19:14:43.075Z</time>
      </trkpt>
      <trkpt lat="46.55548" lon="0.33136">
        <ele>96.74</ele>
        <time>2023-06-07T19:14:44.013Z</time>
      </trkpt>
      <trkpt lat="46.55553" lon="0.33125">
        <ele>97.01</ele>
        <time>2023-06-07T19:14:44.953Z</time>
      </trkpt>
      <trkpt lat="46.55554" lon="0.33122">
        <ele>96.95</ele>
        <time>2023-06-07T19:14:45.893Z</time>
      </trkpt>
      <trkpt lat="46.5556" lon="0.33117">
        <ele>96.79</ele>
        <time>2023-06-07T19:14:46.834Z</time>
      </trkpt>
      <trkpt lat="46.55566" lon="0.33116">
        <ele>96.66</ele>
        <time>2023-06-07T19:14:47.776Z</time>
      </trkpt>
      <trkpt lat="46.55567" lon="0.33117">
        <ele>96.63</ele>
        <time>2023-06-07T19:14:48.718Z</time>
      </trkpt>
      <trkpt lat="46.55575" lon="0.33122">
        <ele>96.38</ele>
        <time>2023-06-07T19:14:49.662Z</time>
      </trkpt>
      <trkpt lat="46.55583" lon="0.33126">
        <ele>96.09</ele>
        <time>2023-06-07T19:14:50.607Z</time>
      </trkpt>
      <trkpt lat="46.55585" lon="0.33128">
        <ele>95.93</ele>
        <time>2023-06-07T19:14:51.553Z</time>
      </trkpt>
      <trkpt lat="46.55596" lon="0.33143">
        <ele>95.04</ele>
        <time>2023-06-07T19:14:52.501Z</time>
      </trkpt>
      <trkpt lat="46.55612" lon="0.33164">
        <ele>93.69</ele>
        <time>2023-06-07T19:14:53.452Z</time>
      </trkpt>
      <trkpt lat="46.55642" lon="0.33203">
        <ele>90.94</ele>
        <time>2023-06-07T19:14:54.410Z</time>
      </trkpt>
      <trkpt lat="46.55655" lon="0.33219">
        <ele>90.11</ele>
        <time>2023-06-07T19:14:55.371Z</time>
      </trkpt>
      <trkpt lat="46.55661" lon="0.33227">
        <ele>89.73</ele>
        <time>2023-06-07T19:14:56.333Z</time>
      </trkpt>
      <trkpt lat="46.5567" lon="0.3324">
        <ele>89.25</ele>
        <time>2023-06-07T19:14:57.297Z</time>
      </trkpt>
      <trkpt lat="46.55679" lon="0.33252">
        <ele>88.87</ele>
        <time>2023-06-07T19:14:58.263Z</time>
      </trkpt>
      <trkpt lat="46.55689" lon="0.33264">
        <ele>88.59</ele>
        <time>2023-06-07T19:14:59.231Z</time>
      </trkpt>
      <trkpt lat="46.55704" lon="0.33285">
        <ele>88.15</ele>
        <time>2023-06-07T19:15:00.202Z</time>
      </trkpt>
      <trkpt lat="46.55711" lon="0.33293">
        <ele>88.02</ele>
        <time>2023-06-07T19:15:01.175Z</time>
      </trkpt>
      <trkpt lat="46.5572" lon="0.33306">
        <ele>87.89</ele>
        <time>2023-06-07T19:15:02.150Z</time>
      </trkpt>
      <trkpt lat="46.55722" lon="0.33308">
        <ele>87.83</ele>
        <time>2023-06-07T19:15:03.125Z</time>
      </trkpt>
      <trkpt lat="46.55726" lon="0.33314">
        <ele>87.7</ele>
        <time>2023-06-07T19:15:04.101Z</time>
      </trkpt>
      <trkpt lat="46.55733" lon="0.33323">
        <ele>87.54</ele>
        <time>2023-06-07T19:15:05.079Z</time>
      </trkpt>
      <trkpt lat="46.55739" lon="0.33331">
        <ele>87.44</ele>
        <time>2023-06-07T19:15:06.058Z</time>
      </trkpt>
      <trkpt lat="46.55742" lon="0.33336">
        <ele>87.41</ele>
        <time>2023-06-07T19:15:07.038Z</time>
      </trkpt>
      <trkpt lat="46.55745" lon="0.3334">
        <ele>87.41</ele>
        <time>2023-06-07T19:15:08.018Z</time>
      </trkpt>
      <trkpt lat="46.55752" lon="0.33348">
        <ele>87.46</ele>
        <time>2023-06-07T19:15:09.000Z</time>
      </trkpt>
      <trkpt lat="46.55763" lon="0.33364">
        <ele>87.68</ele>
        <time>2023-06-07T19:15:09.984Z</time>
      </trkpt>
      <trkpt lat="46.5577" lon="0.33376">
        <ele>87.84</ele>
        <time>2023-06-07T19:15:10.970Z</time>
      </trkpt>
      <trkpt lat="46.55778" lon="0.33391">
        <ele>88.01</ele>
        <time>2023-06-07T19:15:11.958Z</time>
      </trkpt>
      <trkpt lat="46.55783" lon="0.334">
        <ele>88.05</ele>
        <time>2023-06-07T19:15:12.947Z</time>
      </trkpt>
      <trkpt lat="46.55789" lon="0.33409">
        <ele>88.03</ele>
        <time>2023-06-07T19:15:13.938Z</time>
      </trkpt>
      <trkpt lat="46.55791" lon="0.33413">
        <ele>87.98</ele>
        <time>2023-06-07T19:15:14.929Z</time>
      </trkpt>
      <trkpt lat="46.55796" lon="0.33422">
        <ele>87.82</ele>
        <time>2023-06-07T19:15:15.922Z</time>
      </trkpt>
      <trkpt lat="46.55801" lon="0.33431">
        <ele>87.46</ele>
        <time>2023-06-07T19:15:16.916Z</time>
      </trkpt>
      <trkpt lat="46.55804" lon="0.33435">
        <ele>87.26</ele>
        <time>2023-06-07T19:15:17.910Z</time>
      </trkpt>
      <trkpt lat="46.55806" lon="0.33439">
        <ele>87.03</ele>
        <time>2023-06-07T19:15:18.905Z</time>
      </trkpt>
      <trkpt lat="46.55811" lon="0.33448">
        <ele>86.51</ele>
        <time>2023-06-07T19:15:19.901Z</time>
      </trkpt>
      <trkpt lat="46.55825" lon="0.33472">
        <ele>84.75</ele>
        <time>2023-06-07T19:15:20.901Z</time>
      </trkpt>
      <trkpt lat="46.55829" lon="0.33479">
        <ele>84.27</ele>
        <time>2023-06-07T19:15:21.902Z</time>
      </trkpt>
      <trkpt lat="46.55843" lon="0.3349">
        <ele>83.02</ele>
        <time>2023-06-07T19:15:22.905Z</time>
      </trkpt>
      <trkpt lat="46.55851" lon="0.33496">
        <ele>82.36</ele>
        <time>2023-06-07T19:15:23.910Z</time>
      </trkpt>
      <trkpt lat="46.55852" lon="0.33497">
        <ele>82.25</ele>
        <time>2023-06-07T19:15:24.915Z</time>
      </trkpt>
      <trkpt lat="46.55863" lon="0.33501">
        <ele>81.44</ele>
        <time>2023-06-07T19:15:25.922Z</time>
      </trkpt>
      <trkpt lat="46.55866" lon="0.33502">
        <ele>81.28</ele>
        <time>2023-06-07T19:15:26.929Z</time>
      </trkpt>
      <trkpt lat="46.55893" lon="0.3351">
        <ele>79.76</ele>
        <time>2023-06-07T19:15:27.941Z</time>
      </trkpt>
      <trkpt lat="46.55896" lon="0.33511">
        <ele>79.67</ele>
        <time>2023-06-07T19:15:28.953Z</time>
      </trkpt>
      <trkpt lat="46.5591" lon="0.33514">
        <ele>79.2</ele>
        <time>2023-06-07T19:15:29.967Z</time>
      </trkpt>
      <trkpt lat="46.55923" lon="0.33516">
        <ele>78.82</ele>
        <time>2023-06-07T19:15:30.984Z</time>
      </trkpt>
      <trkpt lat="46.55926" lon="0.33517">
        <ele>78.77</ele>
        <time>2023-06-07T19:15:32.001Z</time>
      </trkpt>
      <trkpt lat="46.55935" lon="0.33515">
        <ele>78.59</ele>
        <time>2023-06-07T19:15:33.019Z</time>
      </trkpt>
      <trkpt lat="46.5594" lon="0.33512">
        <ele>78.5</ele>
        <time>2023-06-07T19:15:34.038Z</time>
      </trkpt>
      <trkpt lat="46.55946" lon="0.33508">
        <ele>78.39</ele>
        <time>2023-06-07T19:15:35.058Z</time>
      </trkpt>
      <trkpt lat="46.55957" lon="0.33494">
        <ele>78.17</ele>
        <time>2023-06-07T19:15:36.081Z</time>
      </trkpt>
      <trkpt lat="46.55959" lon="0.33492">
        <ele>78.15</ele>
        <time>2023-06-07T19:15:37.104Z</time>
      </trkpt>
      <trkpt lat="46.55966" lon="0.33481">
        <ele>78.07</ele>
        <time>2023-06-07T19:15:38.129Z</time>
      </trkpt>
      <trkpt lat="46.55973" lon="0.33471">
        <ele>77.96</ele>
        <time>2023-06-07T19:15:39.155Z</time>
      </trkpt>
      <trkpt lat="46.55983" lon="0.33461">
        <ele>77.84</ele>
        <time>2023-06-07T19:15:40.183Z</time>
      </trkpt>
      <trkpt lat="46.55983" lon="0.33461">
        <ele>77.84</ele>
        <time>2023-06-07T19:15:41.211Z</time>
      </trkpt>
      <trkpt lat="46.55994" lon="0.33458">
        <ele>77.69</ele>
        <time>2023-06-07T19:15:42.241Z</time>
      </trkpt>
      <trkpt lat="46.56012" lon="0.33466">
        <ele>77.46</ele>
        <time>2023-06-07T19:15:43.274Z</time>
      </trkpt>
      <trkpt lat="46.56021" lon="0.33469">
        <ele>77.32</ele>
        <time>2023-06-07T19:15:44.308Z</time>
      </trkpt>
      <trkpt lat="46.56036" lon="0.33476">
        <ele>76.96</ele>
        <time>2023-06-07T19:15:45.345Z</time>
      </trkpt>
      <trkpt lat="46.56043" lon="0.33477">
        <ele>76.8</ele>
        <time>2023-06-07T19:15:46.383Z</time>
      </trkpt>
      <trkpt lat="46.56046" lon="0.33476">
        <ele>76.74</ele>
        <time>2023-06-07T19:15:47.422Z</time>
      </trkpt>
      <trkpt lat="46.56048" lon="0.33476">
        <ele>76.71</ele>
        <time>2023-06-07T19:15:48.461Z</time>
      </trkpt>
      <trkpt lat="46.5606" lon="0.33469">
        <ele>76.53</ele>
        <time>2023-06-07T19:15:49.502Z</time>
      </trkpt>
      <trkpt lat="46.56072" lon="0.33455">
        <ele>76.32</ele>
        <time>2023-06-07T19:15:50.546Z</time>
      </trkpt>
      <trkpt lat="46.56079" lon="0.33447">
        <ele>76.23</ele>
        <time>2023-06-07T19:15:51.591Z</time>
      </trkpt>
      <trkpt lat="46.56082" lon="0.33444">
        <ele>76.2</ele>
        <time>2023-06-07T19:15:52.637Z</time>
      </trkpt>
      <trkpt lat="46.56094" lon="0.33424">
        <ele>76.08</ele>
        <time>2023-06-07T19:15:53.685Z</time>
      </trkpt>
      <trkpt lat="46.56114" lon="0.33391">
        <ele>75.67</ele>
        <time>2023-06-07T19:15:54.738Z</time>
      </trkpt>
      <trkpt lat="46.56123" lon="0.33377">
        <ele>75.56</ele>
        <time>2023-06-07T19:15:55.793Z</time>
      </trkpt>
      <trkpt lat="46.56124" lon="0.33375">
        <ele>75.53</ele>
        <time>2023-06-07T19:15:56.849Z</time>
      </trkpt>
      <trkpt lat="46.56124" lon="0.33375">
        <ele>75.53</ele>
        <time>2023-06-07T19:15:57.905Z</time>
      </trkpt>
      <trkpt lat="46.56139" lon="0.33385">
        <ele>75.39</ele>
        <time>2023-06-07T19:15:58.963Z</time>
      </trkpt>
      <trkpt lat="46.56147" lon="0.33391">
        <ele>75.34</ele>
        <time>2023-06-07T19:16:00.023Z</time>
      </trkpt>
      <trkpt lat="46.56159" lon="0.33399">
        <ele>75.32</ele>
        <time>2023-06-07T19:16:01.085Z</time>
      </trkpt>
      <trkpt lat="46.56172" lon="0.33408">
        <ele>75.33</ele>
        <time>2023-06-07T19:16:02.149Z</time>
      </trkpt>
      <trkpt lat="46.56174" lon="0.33409">
        <ele>75.34</ele>
        <time>2023-06-07T19:16:03.214Z</time>
      </trkpt>
      <trkpt lat="46.56177" lon="0.3341">
        <ele>75.33</ele>
        <time>2023-06-07T19:16:04.279Z</time>
      </trkpt>
      <trkpt lat="46.56188" lon="0.33413">
        <ele>75.31</ele>
        <time>2023-06-07T19:16:05.346Z</time>
      </trkpt>
      <trkpt lat="46.56197" lon="0.33409">
        <ele>75.29</ele>
        <time>2023-06-07T19:16:06.414Z</time>
      </trkpt>
      <trkpt lat="46.562" lon="0.33406">
        <ele>75.29</ele>
        <time>2023-06-07T19:16:07.483Z</time>
      </trkpt>
      <trkpt lat="46.56205" lon="0.33401">
        <ele>75.29</ele>
        <time>2023-06-07T19:16:08.553Z</time>
      </trkpt>
      <trkpt lat="46.56217" lon="0.33369">
        <ele>75.33</ele>
        <time>2023-06-07T19:16:09.627Z</time>
      </trkpt>
      <trkpt lat="46.56218" lon="0.33368">
        <ele>75.32</ele>
        <time>2023-06-07T19:16:10.701Z</time>
      </trkpt>
      <trkpt lat="46.56229" lon="0.33333">
        <ele>75.27</ele>
        <time>2023-06-07T19:16:11.779Z</time>
      </trkpt>
      <trkpt lat="46.5623" lon="0.33328">
        <ele>75.27</ele>
        <time>2023-06-07T19:16:12.858Z</time>
      </trkpt>
      <trkpt lat="46.5624" lon="0.33258">
        <ele>75.38</ele>
        <time>2023-06-07T19:16:13.945Z</time>
      </trkpt>
      <trkpt lat="46.56241" lon="0.33249">
        <ele>75.4</ele>
        <time>2023-06-07T19:16:15.033Z</time>
      </trkpt>
      <trkpt lat="46.5625" lon="0.33223">
        <ele>75.49</ele>
        <time>2023-06-07T19:16:16.124Z</time>
      </trkpt>
      <trkpt lat="46.56263" lon="0.33188">
        <ele>75.51</ele>
        <time>2023-06-07T19:16:17.219Z</time>
      </trkpt>
      <trkpt lat="46.56264" lon="0.33185">
        <ele>75.49</ele>
        <time>2023-06-07T19:16:18.315Z</time>
      </trkpt>
      <trkpt lat="46.56265" lon="0.33183">
        <ele>75.48</ele>
        <time>2023-06-07T19:16:19.411Z</time>
      </trkpt>
      <trkpt lat="46.56269" lon="0.33169">
        <ele>75.45</ele>
        <time>2023-06-07T19:16:20.509Z</time>
      </trkpt>
      <trkpt lat="46.56271" lon="0.33139">
        <ele>75.39</ele>
        <time>2023-06-07T19:16:21.610Z</time>
      </trkpt>
      <trkpt lat="46.56272" lon="0.33126">
        <ele>75.35</ele>
        <time>2023-06-07T19:16:22.712Z</time>
      </trkpt>
      <trkpt lat="46.56271" lon="0.33101">
        <ele>75.29</ele>
        <time>2023-06-07T19:16:23.817Z</time>
      </trkpt>
      <trkpt lat="46.5627" lon="0.33082">
        <ele>75.25</ele>
        <time>2023-06-07T19:16:24.924Z</time>
      </trkpt>
      <trkpt lat="46.56266" lon="0.33049">
        <ele>75.19</ele>
        <time>2023-06-07T19:16:26.035Z</time>
      </trkpt>
      <trkpt lat="46.5626" lon="0.33033">
        <ele>75.15</ele>
        <time>2023-06-07T19:16:27.148Z</time>
      </trkpt>
      <trkpt lat="46.56254" lon="0.33022">
        <ele>75.13</ele>
        <time>2023-06-07T19:16:28.263Z</time>
      </trkpt>
      <trkpt lat="46.56253" lon="0.3302">
        <ele>75.12</ele>
        <time>2023-06-07T19:16:29.378Z</time>
      </trkpt>
      <trkpt lat="46.56234" lon="0.32999">
        <ele>75.08</ele>
        <time>2023-06-07T19:16:30.497Z</time>
      </trkpt>
      <trkpt lat="46.56201" lon="0.32961">
        <ele>75.05</ele>
        <time>2023-06-07T19:16:31.622Z</time>
      </trkpt>
      <trkpt lat="46.56199" lon="0.32959">
        <ele>75.05</ele>
        <time>2023-06-07T19:16:32.748Z</time>
      </trkpt>
      <trkpt lat="46.56196" lon="0.32952">
        <ele>75.08</ele>
        <time>2023-06-07T19:16:33.875Z</time>
      </trkpt>
      <trkpt lat="46.56193" lon="0.32946">
        <ele>75.1</ele>
        <time>2023-06-07T19:16:35.003Z</time>
      </trkpt>
      <trkpt lat="46.56192" lon="0.32945">
        <ele>75.12</ele>
        <time>2023-06-07T19:16:36.131Z</time>
      </trkpt>
      <trkpt lat="46.5619" lon="0.32942">
        <ele>75.12</ele>
        <time>2023-06-07T19:16:37.259Z</time>
      </trkpt>
      <trkpt lat="46.56185" lon="0.32919">
        <ele>75.13</ele>
        <time>2023-06-07T19:16:38.390Z</time>
      </trkpt>
      <trkpt lat="46.5618" lon="0.32907">
        <ele>75.13</ele>
        <time>2023-06-07T19:16:39.522Z</time>
      </trkpt>
      <trkpt lat="46.56179" lon="0.32905">
        <ele>75.14</ele>
        <time>2023-06-07T19:16:40.655Z</time>
      </trkpt>
      <trkpt lat="46.56173" lon="0.32898">
        <ele>75.17</ele>
        <time>2023-06-07T19:16:41.789Z</time>
      </trkpt>
      <trkpt lat="46.56168" lon="0.32896">
        <ele>75.2</ele>
        <time>2023-06-07T19:16:42.924Z</time>
      </trkpt>
      <trkpt lat="46.56155" lon="0.32892">
        <ele>75.28</ele>
        <time>2023-06-07T19:16:44.061Z</time>
      </trkpt>
      <trkpt lat="46.56153" lon="0.32891">
        <ele>75.31</ele>
        <time>2023-06-07T19:16:45.198Z</time>
      </trkpt>
      <trkpt lat="46.56154" lon="0.32882">
        <ele>75.43</ele>
        <time>2023-06-07T19:16:46.336Z</time>
      </trkpt>
      <trkpt lat="46.56155" lon="0.32875">
        <ele>75.47</ele>
        <time>2023-06-07T19:16:47.475Z</time>
      </trkpt>
      <trkpt lat="46.56156" lon="0.32869">
        <ele>75.48</ele>
        <time>2023-06-07T19:16:48.615Z</time>
      </trkpt>
      <trkpt lat="46.56158" lon="0.32851">
        <ele>75.42</ele>
        <time>2023-06-07T19:16:49.757Z</time>
      </trkpt>
      <trkpt lat="46.56158" lon="0.32848">
        <ele>75.42</ele>
        <time>2023-06-07T19:16:50.899Z</time>
      </trkpt>
      <trkpt lat="46.56144" lon="0.32838">
        <ele>75.45</ele>
        <time>2023-06-07T19:16:52.044Z</time>
      </trkpt>
      <trkpt lat="46.56128" lon="0.32827">
        <ele>75.43</ele>
        <time>2023-06-07T19:16:53.191Z</time>
      </trkpt>
      <trkpt lat="46.5612" lon="0.32821">
        <ele>75.45</ele>
        <time>2023-06-07T19:16:54.340Z</time>
      </trkpt>
      <trkpt lat="46.56115" lon="0.32818">
        <ele>75.47</ele>
        <time>2023-06-07T19:16:55.490Z</time>
      </trkpt>
      <trkpt lat="46.56096" lon="0.32804">
        <ele>75.58</ele>
        <time>2023-06-07T19:16:56.643Z</time>
      </trkpt>
      <trkpt lat="46.5608" lon="0.32792">
        <ele>75.62</ele>
        <time>2023-06-07T19:16:57.799Z</time>
      </trkpt>
      <trkpt lat="46.56069" lon="0.32783">
        <ele>75.61</ele>
        <time>2023-06-07T19:16:58.957Z</time>
      </trkpt>
      <trkpt lat="46.56065" lon="0.3278">
        <ele>75.59</ele>
        <time>2023-06-07T19:17:00.116Z</time>
      </trkpt>
      <trkpt lat="46.56032" lon="0.32747">
        <ele>75.48</ele>
        <time>2023-06-07T19:17:01.281Z</time>
      </trkpt>
      <trkpt lat="46.56024" lon="0.3274">
        <ele>75.5</ele>
        <time>2023-06-07T19:17:02.448Z</time>
      </trkpt>
      <trkpt lat="46.5602" lon="0.32736">
        <ele>75.52</ele>
        <time>2023-06-07T19:17:03.615Z</time>
      </trkpt>
      <trkpt lat="46.56014" lon="0.32727">
        <ele>75.57</ele>
        <time>2023-06-07T19:17:04.784Z</time>
      </trkpt>
      <trkpt lat="46.56007" lon="0.32717">
        <ele>75.59</ele>
        <time>2023-06-07T19:17:05.954Z</time>
      </trkpt>
      <trkpt lat="46.55995" lon="0.32696">
        <ele>75.65</ele>
        <time>2023-06-07T19:17:07.127Z</time>
      </trkpt>
      <trkpt lat="46.5599" lon="0.32683">
        <ele>75.68</ele>
        <time>2023-06-07T19:17:08.302Z</time>
      </trkpt>
      <trkpt lat="46.55973" lon="0.32657">
        <ele>75.75</ele>
        <time>2023-06-07T19:17:09.481Z</time>
      </trkpt>
      <trkpt lat="46.55961" lon="0.32637">
        <ele>75.83</ele>
        <time>2023-06-07T19:17:10.663Z</time>
      </trkpt>
      <trkpt lat="46.55955" lon="0.32622">
        <ele>75.89</ele>
        <time>2023-06-07T19:17:11.847Z</time>
      </trkpt>
      <trkpt lat="46.55951" lon="0.32614">
        <ele>75.88</ele>
        <time>2023-06-07T19:17:13.032Z</time>
      </trkpt>
      <trkpt lat="46.55944" lon="0.32588">
        <ele>75.86</ele>
        <time>2023-06-07T19:17:14.220Z</time>
      </trkpt>
      <trkpt lat="46.55938" lon="0.32565">
        <ele>75.79</ele>
        <time>2023-06-07T19:17:15.411Z</time>
      </trkpt>
      <trkpt lat="46.55931" lon="0.32541">
        <ele>75.77</ele>
        <time>2023-06-07T19:17:16.605Z</time>
      </trkpt>
      <trkpt lat="46.55927" lon="0.32523">
        <ele>75.82</ele>
        <time>2023-06-07T19:17:17.801Z</time>
      </trkpt>
      <trkpt lat="46.55926" lon="0.32521">
        <ele>75.83</ele>
        <time>2023-06-07T19:17:18.997Z</time>
      </trkpt>
      <trkpt lat="46.55923" lon="0.32502">
        <ele>75.94</ele>
        <time>2023-06-07T19:17:20.195Z</time>
      </trkpt>
      <trkpt lat="46.55925" lon="0.3248">
        <ele>76.08</ele>
        <time>2023-06-07T19:17:21.396Z</time>
      </trkpt>
      <trkpt lat="46.55929" lon="0.32448">
        <ele>76.16</ele>
        <time>2023-06-07T19:17:22.600Z</time>
      </trkpt>
      <trkpt lat="46.5593" lon="0.32436">
        <ele>76.15</ele>
        <time>2023-06-07T19:17:23.805Z</time>
      </trkpt>
      <trkpt lat="46.55931" lon="0.3243">
        <ele>76.12</ele>
        <time>2023-06-07T19:17:25.011Z</time>
      </trkpt>
      <trkpt lat="46.55937" lon="0.32412">
        <ele>76.06</ele>
        <time>2023-06-07T19:17:26.219Z</time>
      </trkpt>
      <trkpt lat="46.5594" lon="0.324">
        <ele>76.04</ele>
        <time>2023-06-07T19:17:27.429Z</time>
      </trkpt>
      <trkpt lat="46.55946" lon="0.32382">
        <ele>76.02</ele>
        <time>2023-06-07T19:17:28.641Z</time>
      </trkpt>
      <trkpt lat="46.55948" lon="0.32378">
        <ele>76.02</ele>
        <time>2023-06-07T19:17:29.853Z</time>
      </trkpt>
      <trkpt lat="46.55955" lon="0.32367">
        <ele>76.03</ele>
        <time>2023-06-07T19:17:31.067Z</time>
      </trkpt>
      <trkpt lat="46.55961" lon="0.32361">
        <ele>76.04</ele>
        <time>2023-06-07T19:17:32.282Z</time>
      </trkpt>
      <trkpt lat="46.55963" lon="0.3236">
        <ele>76.06</ele>
        <time>2023-06-07T19:17:33.498Z</time>
      </trkpt>
      <trkpt lat="46.55993" lon="0.32347">
        <ele>76.4</ele>
        <time>2023-06-07T19:17:34.719Z</time>
      </trkpt>
      <trkpt lat="46.55995" lon="0.32346">
        <ele>76.43</ele>
        <time>2023-06-07T19:17:35.940Z</time>
      </trkpt>
      <trkpt lat="46.56011" lon="0.32337">
        <ele>76.64</ele>
        <time>2023-06-07T19:17:37.164Z</time>
      </trkpt>
      <trkpt lat="46.56024" lon="0.3233">
        <ele>76.74</ele>
        <time>2023-06-07T19:17:38.390Z</time>
      </trkpt>
      <trkpt lat="46.56032" lon="0.32325">
        <ele>76.76</ele>
        <time>2023-06-07T19:17:39.617Z</time>
      </trkpt>
      <trkpt lat="46.56036" lon="0.32323">
        <ele>76.75</ele>
        <time>2023-06-07T19:17:40.845Z</time>
      </trkpt>
      <trkpt lat="46.56061" lon="0.32309">
        <ele>76.61</ele>
        <time>2023-06-07T19:17:42.077Z</time>
      </trkpt>
      <trkpt lat="46.56081" lon="0.32297">
        <ele>76.56</ele>
        <time>2023-06-07T19:17:43.313Z</time>
      </trkpt>
      <trkpt lat="46.56098" lon="0.32288">
        <ele>76.54</ele>
        <time>2023-06-07T19:17:44.552Z</time>
      </trkpt>
      <trkpt lat="46.561" lon="0.32287">
        <ele>76.53</ele>
        <time>2023-06-07T19:17:45.791Z</time>
      </trkpt>
      <trkpt lat="46.56128" lon="0.32265">
        <ele>76.42</ele>
        <time>2023-06-07T19:17:47.035Z</time>
      </trkpt>
      <trkpt lat="46.56155" lon="0.32244">
        <ele>76.4</ele>
        <time>2023-06-07T19:17:48.284Z</time>
      </trkpt>
      <trkpt lat="46.56173" lon="0.32229">
        <ele>76.35</ele>
        <time>2023-06-07T19:17:49.536Z</time>
      </trkpt>
      <trkpt lat="46.56203" lon="0.32214">
        <ele>76.28</ele>
        <time>2023-06-07T19:17:50.793Z</time>
      </trkpt>
      <trkpt lat="46.56212" lon="0.3221">
        <ele>76.29</ele>
        <time>2023-06-07T19:17:52.052Z</time>
      </trkpt>
      <trkpt lat="46.56237" lon="0.32198">
        <ele>76.41</ele>
        <time>2023-06-07T19:17:53.315Z</time>
      </trkpt>
      <trkpt lat="46.56258" lon="0.32188">
        <ele>76.37</ele>
        <time>2023-06-07T19:17:54.582Z</time>
      </trkpt>
      <trkpt lat="46.5626" lon="0.32187">
        <ele>76.36</ele>
        <time>2023-06-07T19:17:55.849Z</time>
      </trkpt>
      <trkpt lat="46.56275" lon="0.3218">
        <ele>76.31</ele>
        <time>2023-06-07T19:17:57.118Z</time>
      </trkpt>
      <trkpt lat="46.56287" lon="0.32173">
        <ele>76.29</ele>
        <time>2023-06-07T19:17:58.390Z</time>
      </trkpt>
      <trkpt lat="46.56297" lon="0.32168">
        <ele>76.32</ele>
        <time>2023-06-07T19:17:59.663Z</time>
      </trkpt>
      <trkpt lat="46.56326" lon="0.32157">
        <ele>76.41</ele>
        <time>2023-06-07T19:18:00.941Z</time>
      </trkpt>
      <trkpt lat="46.5634" lon="0.32151">
        <ele>76.41</ele>
        <time>2023-06-07T19:18:02.221Z</time>
      </trkpt>
      <trkpt lat="46.56347" lon="0.3215">
        <ele>76.41</ele>
        <time>2023-06-07T19:18:03.503Z</time>
      </trkpt>
      <trkpt lat="46.56372" lon="0.32145">
        <ele>76.46</ele>
        <time>2023-06-07T19:18:04.789Z</time>
      </trkpt>
      <trkpt lat="46.56374" lon="0.32145">
        <ele>76.47</ele>
        <time>2023-06-07T19:18:06.075Z</time>
      </trkpt>
      <trkpt lat="46.56396" lon="0.32142">
        <ele>76.43</ele>
        <time>2023-06-07T19:18:07.364Z</time>
      </trkpt>
      <trkpt lat="46.56399" lon="0.32142">
        <ele>76.41</ele>
        <time>2023-06-07T19:18:08.654Z</time>
      </trkpt>
      <trkpt lat="46.56436" lon="0.32141">
        <ele>76.28</ele>
        <time>2023-06-07T19:18:09.950Z</time>
      </trkpt>
      <trkpt lat="46.56437" lon="0.32141">
        <ele>76.28</ele>
        <time>2023-06-07T19:18:11.246Z</time>
      </trkpt>
      <trkpt lat="46.56458" lon="0.32144">
        <ele>76.28</ele>
        <time>2023-06-07T19:18:12.545Z</time>
      </trkpt>
      <trkpt lat="46.56463" lon="0.32146">
        <ele>76.29</ele>
        <time>2023-06-07T19:18:13.845Z</time>
      </trkpt>
      <trkpt lat="46.56488" lon="0.32156">
        <ele>76.37</ele>
        <time>2023-06-07T19:18:15.149Z</time>
      </trkpt>
      <trkpt lat="46.56491" lon="0.32157">
        <ele>76.39</ele>
        <time>2023-06-07T19:18:16.454Z</time>
      </trkpt>
      <trkpt lat="46.56521" lon="0.32174">
        <ele>76.69</ele>
        <time>2023-06-07T19:18:17.764Z</time>
      </trkpt>
      <trkpt lat="46.56533" lon="0.32181">
        <ele>76.75</ele>
        <time>2023-06-07T19:18:19.076Z</time>
      </trkpt>
      <trkpt lat="46.56541" lon="0.32185">
        <ele>76.74</ele>
        <time>2023-06-07T19:18:20.389Z</time>
      </trkpt>
      <trkpt lat="46.56565" lon="0.32199">
        <ele>76.65</ele>
        <time>2023-06-07T19:18:21.707Z</time>
      </trkpt>
      <trkpt lat="46.56573" lon="0.32204">
        <ele>76.59</ele>
        <time>2023-06-07T19:18:23.026Z</time>
      </trkpt>
      <trkpt lat="46.56588" lon="0.32212">
        <ele>76.43</ele>
        <time>2023-06-07T19:18:24.348Z</time>
      </trkpt>
      <trkpt lat="46.56598" lon="0.32217">
        <ele>76.33</ele>
        <time>2023-06-07T19:18:25.671Z</time>
      </trkpt>
      <trkpt lat="46.56632" lon="0.32235">
        <ele>76.07</ele>
        <time>2023-06-07T19:18:27.000Z</time>
      </trkpt>
      <trkpt lat="46.56641" lon="0.3224">
        <ele>75.98</ele>
        <time>2023-06-07T19:18:28.331Z</time>
      </trkpt>
      <trkpt lat="46.56652" lon="0.32249">
        <ele>75.87</ele>
        <time>2023-06-07T19:18:29.664Z</time>
      </trkpt>
      <trkpt lat="46.56664" lon="0.32258">
        <ele>75.81</ele>
        <time>2023-06-07T19:18:30.999Z</time>
      </trkpt>
      <trkpt lat="46.56671" lon="0.32264">
        <ele>75.81</ele>
        <time>2023-06-07T19:18:32.335Z</time>
      </trkpt>
      <trkpt lat="46.56671" lon="0.32264">
        <ele>75.81</ele>
        <time>2023-06-07T19:18:33.671Z</time>
      </trkpt>
      <trkpt lat="46.56692" lon="0.3229">
        <ele>75.96</ele>
        <time>2023-06-07T19:18:35.011Z</time>
      </trkpt>
      <trkpt lat="46.56702" lon="0.32302">
        <ele>76</ele>
        <time>2023-06-07T19:18:36.354Z</time>
      </trkpt>
      <trkpt lat="46.56705" lon="0.32306">
        <ele>76</ele>
        <time>2023-06-07T19:18:37.697Z</time>
      </trkpt>
      <trkpt lat="46.56708" lon="0.32311">
        <ele>76</ele>
        <time>2023-06-07T19:18:39.041Z</time>
      </trkpt>
      <trkpt lat="46.56726" lon="0.32341">
        <ele>75.95</ele>
        <time>2023-06-07T19:18:40.389Z</time>
      </trkpt>
      <trkpt lat="46.56747" lon="0.32375">
        <ele>75.98</ele>
        <time>2023-06-07T19:18:41.742Z</time>
      </trkpt>
      <trkpt lat="46.5677" lon="0.32414">
        <ele>76.16</ele>
        <time>2023-06-07T19:18:43.101Z</time>
      </trkpt>
      <trkpt lat="46.56772" lon="0.32417">
        <ele>76.14</ele>
        <time>2023-06-07T19:18:44.460Z</time>
      </trkpt>
      <trkpt lat="46.56781" lon="0.32435">
        <ele>76.07</ele>
        <time>2023-06-07T19:18:45.822Z</time>
      </trkpt>
      <trkpt lat="46.56793" lon="0.32462">
        <ele>75.9</ele>
        <time>2023-06-07T19:18:47.187Z</time>
      </trkpt>
      <trkpt lat="46.56803" lon="0.32483">
        <ele>75.87</ele>
        <time>2023-06-07T19:18:48.555Z</time>
      </trkpt>
      <trkpt lat="46.56816" lon="0.32509">
        <ele>75.89</ele>
        <time>2023-06-07T19:18:49.927Z</time>
      </trkpt>
      <trkpt lat="46.56823" lon="0.32524">
        <ele>75.89</ele>
        <time>2023-06-07T19:18:51.301Z</time>
      </trkpt>
      <trkpt lat="46.56836" lon="0.32544">
        <ele>75.89</ele>
        <time>2023-06-07T19:18:52.678Z</time>
      </trkpt>
      <trkpt lat="46.56853" lon="0.32573">
        <ele>75.92</ele>
        <time>2023-06-07T19:18:54.059Z</time>
      </trkpt>
      <trkpt lat="46.56868" lon="0.32597">
        <ele>75.85</ele>
        <time>2023-06-07T19:18:55.444Z</time>
      </trkpt>
      <trkpt lat="46.56877" lon="0.32612">
        <ele>75.81</ele>
        <time>2023-06-07T19:18:56.831Z</time>
      </trkpt>
      <trkpt lat="46.56896" lon="0.3264">
        <ele>75.85</ele>
        <time>2023-06-07T19:18:58.222Z</time>
      </trkpt>
      <trkpt lat="46.56911" lon="0.32663">
        <ele>75.82</ele>
        <time>2023-06-07T19:18:59.617Z</time>
      </trkpt>
      <trkpt lat="46.56917" lon="0.32673">
        <ele>75.8</ele>
        <time>2023-06-07T19:19:01.013Z</time>
      </trkpt>
      <trkpt lat="46.56926" lon="0.32686">
        <ele>75.74</ele>
        <time>2023-06-07T19:19:02.411Z</time>
      </trkpt>
      <trkpt lat="46.56931" lon="0.32695">
        <ele>75.73</ele>
        <time>2023-06-07T19:19:03.811Z</time>
      </trkpt>
      <trkpt lat="46.56935" lon="0.32701">
        <ele>75.74</ele>
        <time>2023-06-07T19:19:05.211Z</time>
      </trkpt>
      <trkpt lat="46.56945" lon="0.32725">
        <ele>75.8</ele>
        <time>2023-06-07T19:19:06.614Z</time>
      </trkpt>
      <trkpt lat="46.56945" lon="0.32733">
        <ele>75.82</ele>
        <time>2023-06-07T19:19:08.018Z</time>
      </trkpt>
      <trkpt lat="46.56946" lon="0.32747">
        <ele>75.87</ele>
        <time>2023-06-07T19:19:09.424Z</time>
      </trkpt>
      <trkpt lat="46.56946" lon="0.32761">
        <ele>75.96</ele>
        <time>2023-06-07T19:19:10.831Z</time>
      </trkpt>
      <trkpt lat="46.56946" lon="0.32765">
        <ele>76</ele>
        <time>2023-06-07T19:19:12.239Z</time>
      </trkpt>
      <trkpt lat="46.56947" lon="0.32766">
        <ele>76.03</ele>
        <time>2023-06-07T19:19:13.647Z</time>
      </trkpt>
      <trkpt lat="46.56954" lon="0.32787">
        <ele>76.06</ele>
        <time>2023-06-07T19:19:15.058Z</time>
      </trkpt>
      <trkpt lat="46.56957" lon="0.32793">
        <ele>76.08</ele>
        <time>2023-06-07T19:19:16.469Z</time>
      </trkpt>
      <trkpt lat="46.56963" lon="0.32806">
        <ele>76.08</ele>
        <time>2023-06-07T19:19:17.882Z</time>
      </trkpt>
      <trkpt lat="46.56985" lon="0.32839">
        <ele>76.08</ele>
        <time>2023-06-07T19:19:19.300Z</time>
      </trkpt>
      <trkpt lat="46.56999" lon="0.32861">
        <ele>75.96</ele>
        <time>2023-06-07T19:19:20.722Z</time>
      </trkpt>
      <trkpt lat="46.57015" lon="0.32895">
        <ele>75.81</ele>
        <time>2023-06-07T19:19:22.148Z</time>
      </trkpt>
      <trkpt lat="46.57025" lon="0.32917">
        <ele>75.79</ele>
        <time>2023-06-07T19:19:23.577Z</time>
      </trkpt>
      <trkpt lat="46.57035" lon="0.32939">
        <ele>75.83</ele>
        <time>2023-06-07T19:19:25.009Z</time>
      </trkpt>
      <trkpt lat="46.57037" lon="0.32944">
        <ele>75.84</ele>
        <time>2023-06-07T19:19:26.441Z</time>
      </trkpt>
      <trkpt lat="46.57045" lon="0.32967">
        <ele>75.94</ele>
        <time>2023-06-07T19:19:27.876Z</time>
      </trkpt>
      <trkpt lat="46.5705" lon="0.32978">
        <ele>76.01</ele>
        <time>2023-06-07T19:19:29.313Z</time>
      </trkpt>
      <trkpt lat="46.57053" lon="0.32987">
        <ele>76.08</ele>
        <time>2023-06-07T19:19:30.751Z</time>
      </trkpt>
      <trkpt lat="46.57059" lon="0.33008">
        <ele>76.24</ele>
        <time>2023-06-07T19:19:32.191Z</time>
      </trkpt>
      <trkpt lat="46.57064" lon="0.33026">
        <ele>76.32</ele>
        <time>2023-06-07T19:19:33.634Z</time>
      </trkpt>
      <trkpt lat="46.57067" lon="0.33038">
        <ele>76.34</ele>
        <time>2023-06-07T19:19:35.078Z</time>
      </trkpt>
      <trkpt lat="46.57071" lon="0.3305">
        <ele>76.33</ele>
        <time>2023-06-07T19:19:36.523Z</time>
      </trkpt>
      <trkpt lat="46.57084" lon="0.33098">
        <ele>76.24</ele>
        <time>2023-06-07T19:19:37.974Z</time>
      </trkpt>
      <trkpt lat="46.57088" lon="0.3311">
        <ele>76.25</ele>
        <time>2023-06-07T19:19:39.427Z</time>
      </trkpt>
      <trkpt lat="46.57093" lon="0.33128">
        <ele>76.3</ele>
        <time>2023-06-07T19:19:40.882Z</time>
      </trkpt>
      <trkpt lat="46.57094" lon="0.33132">
        <ele>76.32</ele>
        <time>2023-06-07T19:19:42.337Z</time>
      </trkpt>
      <trkpt lat="46.57101" lon="0.33161">
        <ele>76.48</ele>
        <time>2023-06-07T19:19:43.796Z</time>
      </trkpt>
      <trkpt lat="46.57108" lon="0.33185">
        <ele>76.7</ele>
        <time>2023-06-07T19:19:45.257Z</time>
      </trkpt>
      <trkpt lat="46.57112" lon="0.33203">
        <ele>76.8</ele>
        <time>2023-06-07T19:19:46.721Z</time>
      </trkpt>
      <trkpt lat="46.57115" lon="0.33215">
        <ele>76.84</ele>
        <time>2023-06-07T19:19:48.186Z</time>
      </trkpt>
      <trkpt lat="46.57123" lon="0.33245">
        <ele>76.84</ele>
        <time>2023-06-07T19:19:49.655Z</time>
      </trkpt>
      <trkpt lat="46.57131" lon="0.33275">
        <ele>76.91</ele>
        <time>2023-06-07T19:19:51.127Z</time>
      </trkpt>
      <trkpt lat="46.57135" lon="0.33294">
        <ele>76.99</ele>
        <time>2023-06-07T19:19:52.601Z</time>
      </trkpt>
      <trkpt lat="46.57146" lon="0.33336">
        <ele>77.23</ele>
        <time>2023-06-07T19:19:54.080Z</time>
      </trkpt>
      <trkpt lat="46.57151" lon="0.33354">
        <ele>77.35</ele>
        <time>2023-06-07T19:19:55.561Z</time>
      </trkpt>
      <trkpt lat="46.57155" lon="0.33372">
        <ele>77.5</ele>
        <time>2023-06-07T19:19:57.044Z</time>
      </trkpt>
      <trkpt lat="46.57158" lon="0.33384">
        <ele>77.56</ele>
        <time>2023-06-07T19:19:58.529Z</time>
      </trkpt>
      <trkpt lat="46.57163" lon="0.33402">
        <ele>77.62</ele>
        <time>2023-06-07T19:20:00.016Z</time>
      </trkpt>
      <trkpt lat="46.57168" lon="0.3342">
        <ele>77.71</ele>
        <time>2023-06-07T19:20:01.505Z</time>
      </trkpt>
      <trkpt lat="46.57171" lon="0.33432">
        <ele>77.75</ele>
        <time>2023-06-07T19:20:02.996Z</time>
      </trkpt>
      <trkpt lat="46.57177" lon="0.33456">
        <ele>77.75</ele>
        <time>2023-06-07T19:20:04.489Z</time>
      </trkpt>
      <trkpt lat="46.57189" lon="0.33504">
        <ele>77.4</ele>
        <time>2023-06-07T19:20:05.988Z</time>
      </trkpt>
      <trkpt lat="46.57205" lon="0.33564">
        <ele>77.12</ele>
        <time>2023-06-07T19:20:07.494Z</time>
      </trkpt>
      <trkpt lat="46.57214" lon="0.336">
        <ele>77.1</ele>
        <time>2023-06-07T19:20:09.004Z</time>
      </trkpt>
      <trkpt lat="46.57226" lon="0.33648">
        <ele>76.99</ele>
        <time>2023-06-07T19:20:10.520Z</time>
      </trkpt>
      <trkpt lat="46.57239" lon="0.33696">
        <ele>76.93</ele>
        <time>2023-06-07T19:20:12.042Z</time>
      </trkpt>
      <trkpt lat="46.57239" lon="0.33698">
        <ele>76.85</ele>
        <time>2023-06-07T19:20:13.564Z</time>
      </trkpt>
      <trkpt lat="46.5724" lon="0.33702">
        <ele>76.8</ele>
        <time>2023-06-07T19:20:15.086Z</time>
      </trkpt>
      <trkpt lat="46.57259" lon="0.337">
        <ele>76.46</ele>
        <time>2023-06-07T19:20:16.611Z</time>
      </trkpt>
      <trkpt lat="46.57276" lon="0.33698">
        <ele>76.21</ele>
        <time>2023-06-07T19:20:18.139Z</time>
      </trkpt>
      <trkpt lat="46.57301" lon="0.33695">
        <ele>75.95</ele>
        <time>2023-06-07T19:20:19.671Z</time>
      </trkpt>
      <trkpt lat="46.57309" lon="0.33694">
        <ele>75.85</ele>
        <time>2023-06-07T19:20:21.204Z</time>
      </trkpt>
      <trkpt lat="46.5733" lon="0.33691">
        <ele>75.75</ele>
        <time>2023-06-07T19:20:22.741Z</time>
      </trkpt>
      <trkpt lat="46.5734" lon="0.3369">
        <ele>75.71</ele>
        <time>2023-06-07T19:20:24.279Z</time>
      </trkpt>
      <trkpt lat="46.57341" lon="0.33693">
        <ele>75.71</ele>
        <time>2023-06-07T19:20:25.818Z</time>
      </trkpt>
      <trkpt lat="46.57348" lon="0.33709">
        <ele>75.77</ele>
        <time>2023-06-07T19:20:27.359Z</time>
      </trkpt>
      <trkpt lat="46.57354" lon="0.33724">
        <ele>75.88</ele>
        <time>2023-06-07T19:20:28.902Z</time>
      </trkpt>
      <trkpt lat="46.57365" lon="0.3375">
        <ele>76.26</ele>
        <time>2023-06-07T19:20:30.448Z</time>
      </trkpt>
      <trkpt lat="46.57369" lon="0.33761">
        <ele>76.39</ele>
        <time>2023-06-07T19:20:31.996Z</time>
      </trkpt>
      <trkpt lat="46.57374" lon="0.33771">
        <ele>76.49</ele>
        <time>2023-06-07T19:20:33.545Z</time>
      </trkpt>
      <trkpt lat="46.5738" lon="0.33787">
        <ele>76.58</ele>
        <time>2023-06-07T19:20:35.096Z</time>
      </trkpt>
      <trkpt lat="46.57382" lon="0.33791">
        <ele>76.64</ele>
        <time>2023-06-07T19:20:36.647Z</time>
      </trkpt>
      <trkpt lat="46.57376" lon="0.33797">
        <ele>76.79</ele>
        <time>2023-06-07T19:20:38.200Z</time>
      </trkpt>
      <trkpt lat="46.57373" lon="0.33799">
        <ele>76.82</ele>
        <time>2023-06-07T19:20:39.753Z</time>
      </trkpt>
      <trkpt lat="46.5737" lon="0.33822">
        <ele>76.99</ele>
        <time>2023-06-07T19:20:41.309Z</time>
      </trkpt>
      <trkpt lat="46.57367" lon="0.33844">
        <ele>77.01</ele>
        <time>2023-06-07T19:20:42.867Z</time>
      </trkpt>
      <trkpt lat="46.57368" lon="0.33847">
        <ele>77.02</ele>
        <time>2023-06-07T19:20:44.425Z</time>
      </trkpt>
      <trkpt lat="46.5738" lon="0.33881">
        <ele>77.02</ele>
        <time>2023-06-07T19:20:45.988Z</time>
      </trkpt>
      <trkpt lat="46.57388" lon="0.33903">
        <ele>76.96</ele>
        <time>2023-06-07T19:20:47.554Z</time>
      </trkpt>
      <trkpt lat="46.57412" lon="0.33971">
        <ele>76.93</ele>
        <time>2023-06-07T19:20:49.128Z</time>
      </trkpt>
      <trkpt lat="46.57413" lon="0.33975">
        <ele>76.92</ele>
        <time>2023-06-07T19:20:50.702Z</time>
      </trkpt>
      <trkpt lat="46.57422" lon="0.33969">
        <ele>76.89</ele>
        <time>2023-06-07T19:20:52.278Z</time>
      </trkpt>
      <trkpt lat="46.57439" lon="0.33957">
        <ele>76.86</ele>
        <time>2023-06-07T19:20:53.857Z</time>
      </trkpt>
      <trkpt lat="46.57458" lon="0.33944">
        <ele>77.07</ele>
        <time>2023-06-07T19:20:55.439Z</time>
      </trkpt>
      <trkpt lat="46.57461" lon="0.33942">
        <ele>77.11</ele>
        <time>2023-06-07T19:20:57.022Z</time>
      </trkpt>
      <trkpt lat="46.5747" lon="0.33933">
        <ele>77.24</ele>
        <time>2023-06-07T19:20:58.607Z</time>
      </trkpt>
      <trkpt lat="46.5748" lon="0.33924">
        <ele>77.38</ele>
        <time>2023-06-07T19:21:00.194Z</time>
      </trkpt>
      <trkpt lat="46.57482" lon="0.33922">
        <ele>77.44</ele>
        <time>2023-06-07T19:21:01.781Z</time>
      </trkpt>
      <trkpt lat="46.57485" lon="0.3392">
        <ele>77.36</ele>
        <time>2023-06-07T19:21:03.368Z</time>
      </trkpt>
      <trkpt lat="46.57488" lon="0.33927">
        <ele>77.21</ele>
        <time>2023-06-07T19:21:04.956Z</time>
      </trkpt>
      <trkpt lat="46.57494" lon="0.33937">
        <ele>76.95</ele>
        <time>2023-06-07T19:21:06.546Z</time>
      </trkpt>
      <trkpt lat="46.57504" lon="0.33957">
        <ele>76.36</ele>
        <time>2023-06-07T19:21:08.139Z</time>
      </trkpt>
      <trkpt lat="46.57506" lon="0.33961">
        <ele>76.27</ele>
        <time>2023-06-07T19:21:09.732Z</time>
      </trkpt>
      <trkpt lat="46.57509" lon="0.33968">
        <ele>76.1</ele>
        <time>2023-06-07T19:21:11.326Z</time>
      </trkpt>
      <trkpt lat="46.57514" lon="0.33979">
        <ele>75.89</ele>
        <time>2023-06-07T19:21:12.921Z</time>
      </trkpt>
      <trkpt lat="46.57517" lon="0.33984">
        <ele>75.81</ele>
        <time>2023-06-07T19:21:14.517Z</time>
      </trkpt>
      <trkpt lat="46.57522" lon="0.33995">
        <ele>75.71</ele>
        <time>2023-06-07T19:21:16.115Z</time>
      </trkpt>
      <trkpt lat="46.57527" lon="0.34006">
        <ele>75.67</ele>
        <time>2023-06-07T19:21:17.714Z</time>
      </trkpt>
      <trkpt lat="46.57541" lon="0.34039">
        <ele>75.67</ele>
        <time>2023-06-07T19:21:19.317Z</time>
      </trkpt>
      <trkpt lat="46.57543" lon="0.34042">
        <ele>75.65</ele>
        <time>2023-06-07T19:21:20.921Z</time>
      </trkpt>
      <trkpt lat="46.57559" lon="0.3407">
        <ele>75.56</ele>
        <time>2023-06-07T19:21:22.529Z</time>
      </trkpt>
      <trkpt lat="46.57559" lon="0.3407">
        <ele>75.56</ele>
        <time>2023-06-07T19:21:24.137Z</time>
      </trkpt>
      <trkpt lat="46.57566" lon="0.34085">
        <ele>75.57</ele>
        <time>2023-06-07T19:21:25.747Z</time>
      </trkpt>
      <trkpt lat="46.57572" lon="0.34097">
        <ele>75.6</ele>
        <time>2023-06-07T19:21:27.358Z</time>
      </trkpt>
      <trkpt lat="46.57588" lon="0.34134">
        <ele>75.71</ele>
        <time>2023-06-07T19:21:28.974Z</time>
      </trkpt>
      <trkpt lat="46.57596" lon="0.34153">
        <ele>75.7</ele>
        <time>2023-06-07T19:21:30.593Z</time>
      </trkpt>
      <trkpt lat="46.57603" lon="0.34174">
        <ele>75.7</ele>
        <time>2023-06-07T19:21:32.214Z</time>
      </trkpt>
      <trkpt lat="46.57608" lon="0.34185">
        <ele>75.68</ele>
        <time>2023-06-07T19:21:33.837Z</time>
      </trkpt>
      <trkpt lat="46.57612" lon="0.34197">
        <ele>75.63</ele>
        <time>2023-06-07T19:21:35.461Z</time>
      </trkpt>
      <trkpt lat="46.57615" lon="0.34209">
        <ele>75.6</ele>
        <time>2023-06-07T19:21:37.087Z</time>
      </trkpt>
      <trkpt lat="46.57624" lon="0.34245">
        <ele>75.53</ele>
        <time>2023-06-07T19:21:38.717Z</time>
      </trkpt>
      <trkpt lat="46.57629" lon="0.34263">
        <ele>75.44</ele>
        <time>2023-06-07T19:21:40.349Z</time>
      </trkpt>
      <trkpt lat="46.5763" lon="0.3427">
        <ele>75.41</ele>
        <time>2023-06-07T19:21:41.982Z</time>
      </trkpt>
      <trkpt lat="46.57632" lon="0.34283">
        <ele>75.37</ele>
        <time>2023-06-07T19:21:43.616Z</time>
      </trkpt>
      <trkpt lat="46.57639" lon="0.34334">
        <ele>75.34</ele>
        <time>2023-06-07T19:21:45.256Z</time>
      </trkpt>
      <trkpt lat="46.57646" lon="0.34378">
        <ele>75.47</ele>
        <time>2023-06-07T19:21:46.901Z</time>
      </trkpt>
      <trkpt lat="46.57647" lon="0.34386">
        <ele>75.47</ele>
        <time>2023-06-07T19:21:48.547Z</time>
      </trkpt>
      <trkpt lat="46.57648" lon="0.34408">
        <ele>75.48</ele>
        <time>2023-06-07T19:21:50.195Z</time>
      </trkpt>
      <trkpt lat="46.57645" lon="0.34423">
        <ele>75.5</ele>
        <time>2023-06-07T19:21:51.845Z</time>
      </trkpt>
      <trkpt lat="46.57643" lon="0.34436">
        <ele>75.53</ele>
        <time>2023-06-07T19:21:53.496Z</time>
      </trkpt>
      <trkpt lat="46.57634" lon="0.34485">
        <ele>75.81</ele>
        <time>2023-06-07T19:21:55.153Z</time>
      </trkpt>
      <trkpt lat="46.57629" lon="0.34497">
        <ele>75.89</ele>
        <time>2023-06-07T19:21:56.812Z</time>
      </trkpt>
      <trkpt lat="46.57628" lon="0.34501">
        <ele>75.91</ele>
        <time>2023-06-07T19:21:58.471Z</time>
      </trkpt>
      <trkpt lat="46.57623" lon="0.34502">
        <ele>75.94</ele>
        <time>2023-06-07T19:22:00.131Z</time>
      </trkpt>
      <trkpt lat="46.57618" lon="0.34511">
        <ele>76</ele>
        <time>2023-06-07T19:22:01.792Z</time>
      </trkpt>
      <trkpt lat="46.5761" lon="0.34524">
        <ele>76.04</ele>
        <time>2023-06-07T19:22:03.455Z</time>
      </trkpt>
      <trkpt lat="46.57608" lon="0.34528">
        <ele>76.08</ele>
        <time>2023-06-07T19:22:05.119Z</time>
      </trkpt>
      <trkpt lat="46.57609" lon="0.3453">
        <ele>76.1</ele>
        <time>2023-06-07T19:22:06.783Z</time>
      </trkpt>
      <trkpt lat="46.5761" lon="0.34534">
        <ele>76.09</ele>
        <time>2023-06-07T19:22:08.447Z</time>
      </trkpt>
      <trkpt lat="46.57601" lon="0.34539">
        <ele>76.07</ele>
        <time>2023-06-07T19:22:10.113Z</time>
      </trkpt>
      <trkpt lat="46.57599" lon="0.34543">
        <ele>76.07</ele>
        <time>2023-06-07T19:22:11.780Z</time>
      </trkpt>
      <trkpt lat="46.57596" lon="0.34547">
        <ele>76.08</ele>
        <time>2023-06-07T19:22:13.447Z</time>
      </trkpt>
      <trkpt lat="46.57582" lon="0.34555">
        <ele>76.13</ele>
        <time>2023-06-07T19:22:15.117Z</time>
      </trkpt>
      <trkpt lat="46.57573" lon="0.34559">
        <ele>76.17</ele>
        <time>2023-06-07T19:22:16.788Z</time>
      </trkpt>
      <trkpt lat="46.5757" lon="0.34561">
        <ele>76.19</ele>
        <time>2023-06-07T19:22:18.460Z</time>
      </trkpt>
      <trkpt lat="46.57557" lon="0.3457">
        <ele>76.29</ele>
        <time>2023-06-07T19:22:20.134Z</time>
      </trkpt>
      <trkpt lat="46.57553" lon="0.34573">
        <ele>76.34</ele>
        <time>2023-06-07T19:22:21.809Z</time>
      </trkpt>
      <trkpt lat="46.57534" lon="0.34585">
        <ele>76.37</ele>
        <time>2023-06-07T19:22:23.487Z</time>
      </trkpt>
      <trkpt lat="46.5751" lon="0.34601">
        <ele>76.36</ele>
        <time>2023-06-07T19:22:25.169Z</time>
      </trkpt>
      <trkpt lat="46.57501" lon="0.34607">
        <ele>76.38</ele>
        <time>2023-06-07T19:22:26.853Z</time>
      </trkpt>
      <trkpt lat="46.57479" lon="0.34622">
        <ele>76.53</ele>
        <time>2023-06-07T19:22:28.541Z</time>
      </trkpt>
      <trkpt lat="46.57476" lon="0.34624">
        <ele>76.56</ele>
        <time>2023-06-07T19:22:30.229Z</time>
      </trkpt>
    </trkseg>
  </trk>
  <trk>
    <name><![CDATA[Trace Gravienne départ La Mothe]]></name>
    <desc><![CDATA[
]]></desc>
    <trkseg>
      <trkpt lat="46.38107" lon="-0.13986">
        <ele>70.88</ele>
        <time>2023-06-17T06:17:32.172Z</time>
      </trkpt>
      <trkpt lat="46.38106" lon="-0.13986">
        <ele>70.8</ele>
        <time>2023-06-17T06:18:28.965Z</time>
      </trkpt>
      <trkpt lat="46.38088" lon="-0.13991">
        <ele>69.88</ele>
        <time>2023-06-17T06:19:25.761Z</time>
      </trkpt>
      <trkpt lat="46.38075" lon="-0.13993">
        <ele>69.2</ele>
        <time>2023-06-17T06:20:22.559Z</time>
      </trkpt>
      <trkpt lat="46.38052" lon="-0.13996">
        <ele>68.23</ele>
        <time>2023-06-17T06:21:19.361Z</time>
      </trkpt>
      <trkpt lat="46.38052" lon="-0.13996">
        <ele>68.23</ele>
        <time>2023-06-17T06:21:19.361Z</time>
      </trkpt>
      <trkpt lat="46.38044" lon="-0.13998">
        <ele>68.14</ele>
        <time>2023-06-17T06:22:16.164Z</time>
      </trkpt>
      <trkpt lat="46.38036" lon="-0.13999">
        <ele>68.01</ele>
        <time>2023-06-17T06:23:12.968Z</time>
      </trkpt>
      <trkpt lat="46.38035" lon="-0.13999">
        <ele>67.99</ele>
        <time>2023-06-17T06:24:09.773Z</time>
      </trkpt>
      <trkpt lat="46.38026" lon="-0.14002">
        <ele>67.78</ele>
        <time>2023-06-17T06:25:06.579Z</time>
      </trkpt>
      <trkpt lat="46.38015" lon="-0.14005">
        <ele>67.46</ele>
        <time>2023-06-17T06:26:03.387Z</time>
      </trkpt>
      <trkpt lat="46.38004" lon="-0.14006">
        <ele>67.15</ele>
        <time>2023-06-17T06:27:00.197Z</time>
      </trkpt>
      <trkpt lat="46.38" lon="-0.14006">
        <ele>67.06</ele>
        <time>2023-06-17T06:27:57.007Z</time>
      </trkpt>
      <trkpt lat="46.37996" lon="-0.14025">
        <ele>66.78</ele>
        <time>2023-06-17T06:28:53.820Z</time>
      </trkpt>
      <trkpt lat="46.37994" lon="-0.14035">
        <ele>66.61</ele>
        <time>2023-06-17T06:29:50.634Z</time>
      </trkpt>
      <trkpt lat="46.37994" lon="-0.14044">
        <ele>66.47</ele>
        <time>2023-06-17T06:30:47.449Z</time>
      </trkpt>
      <trkpt lat="46.37993" lon="-0.14054">
        <ele>66.37</ele>
        <time>2023-06-17T06:31:44.265Z</time>
      </trkpt>
      <trkpt lat="46.37994" lon="-0.14057">
        <ele>66.34</ele>
        <time>2023-06-17T06:32:41.081Z</time>
      </trkpt>
      <trkpt lat="46.37997" lon="-0.14076">
        <ele>66.2</ele>
        <time>2023-06-17T06:33:37.899Z</time>
      </trkpt>
      <trkpt lat="46.38003" lon="-0.14111">
        <ele>66.11</ele>
        <time>2023-06-17T06:34:34.721Z</time>
      </trkpt>
      <trkpt lat="46.38007" lon="-0.14132">
        <ele>66.18</ele>
        <time>2023-06-17T06:35:31.546Z</time>
      </trkpt>
      <trkpt lat="46.38007" lon="-0.14136">
        <ele>66.2</ele>
        <time>2023-06-17T06:36:28.371Z</time>
      </trkpt>
      <trkpt lat="46.38006" lon="-0.14143">
        <ele>66.2</ele>
        <time>2023-06-17T06:37:25.197Z</time>
      </trkpt>
      <trkpt lat="46.38006" lon="-0.1415">
        <ele>66.18</ele>
        <time>2023-06-17T06:38:22.024Z</time>
      </trkpt>
      <trkpt lat="46.38006" lon="-0.1415">
        <ele>66.18</ele>
        <time>2023-06-17T06:39:18.851Z</time>
      </trkpt>
      <trkpt lat="46.38002" lon="-0.14157">
        <ele>66.1</ele>
        <time>2023-06-17T06:40:15.679Z</time>
      </trkpt>
      <trkpt lat="46.38" lon="-0.14158">
        <ele>66.09</ele>
        <time>2023-06-17T06:41:12.507Z</time>
      </trkpt>
      <trkpt lat="46.3799" lon="-0.14163">
        <ele>66.11</ele>
        <time>2023-06-17T06:42:09.337Z</time>
      </trkpt>
      <trkpt lat="46.37979" lon="-0.14169">
        <ele>66.1</ele>
        <time>2023-06-17T06:43:06.169Z</time>
      </trkpt>
      <trkpt lat="46.37967" lon="-0.14175">
        <ele>65.92</ele>
        <time>2023-06-17T06:44:03.003Z</time>
      </trkpt>
      <trkpt lat="46.3795" lon="-0.14184">
        <ele>65.73</ele>
        <time>2023-06-17T06:44:59.840Z</time>
      </trkpt>
      <trkpt lat="46.3795" lon="-0.14184">
        <ele>65.73</ele>
        <time>2023-06-17T06:45:56.677Z</time>
      </trkpt>
      <trkpt lat="46.37938" lon="-0.14192">
        <ele>65.63</ele>
        <time>2023-06-17T06:46:53.516Z</time>
      </trkpt>
      <trkpt lat="46.3793" lon="-0.14198">
        <ele>65.6</ele>
        <time>2023-06-17T06:47:50.356Z</time>
      </trkpt>
      <trkpt lat="46.37926" lon="-0.142">
        <ele>65.6</ele>
        <time>2023-06-17T06:48:47.197Z</time>
      </trkpt>
      <trkpt lat="46.37913" lon="-0.14206">
        <ele>65.66</ele>
        <time>2023-06-17T06:49:44.040Z</time>
      </trkpt>
      <trkpt lat="46.37897" lon="-0.14214">
        <ele>65.81</ele>
        <time>2023-06-17T06:50:40.886Z</time>
      </trkpt>
      <trkpt lat="46.3788" lon="-0.14222">
        <ele>66</ele>
        <time>2023-06-17T06:51:37.735Z</time>
      </trkpt>
      <trkpt lat="46.37866" lon="-0.14229">
        <ele>66.21</ele>
        <time>2023-06-17T06:52:34.586Z</time>
      </trkpt>
      <trkpt lat="46.37863" lon="-0.14229">
        <ele>66.25</ele>
        <time>2023-06-17T06:53:31.437Z</time>
      </trkpt>
      <trkpt lat="46.3785" lon="-0.14228">
        <ele>66.21</ele>
        <time>2023-06-17T06:54:28.291Z</time>
      </trkpt>
      <trkpt lat="46.37841" lon="-0.14228">
        <ele>66.14</ele>
        <time>2023-06-17T06:55:25.146Z</time>
      </trkpt>
      <trkpt lat="46.37832" lon="-0.14227">
        <ele>66.03</ele>
        <time>2023-06-17T06:56:22.002Z</time>
      </trkpt>
      <trkpt lat="46.37829" lon="-0.14227">
        <ele>65.98</ele>
        <time>2023-06-17T06:57:18.859Z</time>
      </trkpt>
      <trkpt lat="46.37814" lon="-0.1423">
        <ele>65.73</ele>
        <time>2023-06-17T06:58:15.718Z</time>
      </trkpt>
      <trkpt lat="46.37811" lon="-0.14231">
        <ele>65.69</ele>
        <time>2023-06-17T06:59:12.578Z</time>
      </trkpt>
      <trkpt lat="46.37813" lon="-0.14239">
        <ele>65.64</ele>
        <time>2023-06-17T07:00:09.439Z</time>
      </trkpt>
      <trkpt lat="46.37815" lon="-0.14245">
        <ele>65.63</ele>
        <time>2023-06-17T07:01:06.300Z</time>
      </trkpt>
      <trkpt lat="46.37819" lon="-0.14257">
        <ele>65.68</ele>
        <time>2023-06-17T07:02:03.163Z</time>
      </trkpt>
      <trkpt lat="46.37822" lon="-0.14269">
        <ele>65.8</ele>
        <time>2023-06-17T07:03:00.027Z</time>
      </trkpt>
      <trkpt lat="46.37828" lon="-0.14286">
        <ele>66.05</ele>
        <time>2023-06-17T07:03:56.893Z</time>
      </trkpt>
      <trkpt lat="46.37831" lon="-0.14298">
        <ele>66.13</ele>
        <time>2023-06-17T07:04:53.761Z</time>
      </trkpt>
      <trkpt lat="46.37833" lon="-0.14304">
        <ele>66.14</ele>
        <time>2023-06-17T07:05:50.630Z</time>
      </trkpt>
      <trkpt lat="46.37835" lon="-0.1431">
        <ele>66.13</ele>
        <time>2023-06-17T07:06:47.499Z</time>
      </trkpt>
      <trkpt lat="46.37838" lon="-0.14329">
        <ele>66.1</ele>
        <time>2023-06-17T07:07:44.370Z</time>
      </trkpt>
      <trkpt lat="46.37836" lon="-0.14342">
        <ele>66.08</ele>
        <time>2023-06-17T07:08:41.243Z</time>
      </trkpt>
      <trkpt lat="46.37831" lon="-0.14367">
        <ele>65.99</ele>
        <time>2023-06-17T07:09:38.119Z</time>
      </trkpt>
      <trkpt lat="46.37829" lon="-0.14379">
        <ele>65.93</ele>
        <time>2023-06-17T07:10:34.996Z</time>
      </trkpt>
      <trkpt lat="46.37825" lon="-0.14398">
        <ele>65.8</ele>
        <time>2023-06-17T07:11:31.875Z</time>
      </trkpt>
      <trkpt lat="46.37823" lon="-0.14411">
        <ele>65.74</ele>
        <time>2023-06-17T07:12:28.756Z</time>
      </trkpt>
      <trkpt lat="46.37822" lon="-0.14417">
        <ele>65.73</ele>
        <time>2023-06-17T07:13:25.638Z</time>
      </trkpt>
      <trkpt lat="46.37819" lon="-0.14436">
        <ele>65.76</ele>
        <time>2023-06-17T07:14:22.522Z</time>
      </trkpt>
      <trkpt lat="46.37818" lon="-0.14442">
        <ele>65.75</ele>
        <time>2023-06-17T07:15:19.406Z</time>
      </trkpt>
      <trkpt lat="46.37816" lon="-0.14451">
        <ele>65.71</ele>
        <time>2023-06-17T07:16:16.291Z</time>
      </trkpt>
      <trkpt lat="46.37816" lon="-0.14455">
        <ele>65.7</ele>
        <time>2023-06-17T07:17:13.177Z</time>
      </trkpt>
      <trkpt lat="46.37814" lon="-0.14481">
        <ele>65.55</ele>
        <time>2023-06-17T07:18:10.066Z</time>
      </trkpt>
      <trkpt lat="46.37813" lon="-0.14494">
        <ele>65.53</ele>
        <time>2023-06-17T07:19:06.956Z</time>
      </trkpt>
      <trkpt lat="46.37811" lon="-0.14507">
        <ele>65.55</ele>
        <time>2023-06-17T07:20:03.848Z</time>
      </trkpt>
      <trkpt lat="46.3781" lon="-0.14526">
        <ele>65.67</ele>
        <time>2023-06-17T07:21:00.742Z</time>
      </trkpt>
      <trkpt lat="46.37809" lon="-0.14533">
        <ele>65.68</ele>
        <time>2023-06-17T07:21:57.637Z</time>
      </trkpt>
      <trkpt lat="46.37809" lon="-0.14537">
        <ele>65.67</ele>
        <time>2023-06-17T07:22:54.532Z</time>
      </trkpt>
      <trkpt lat="46.37807" lon="-0.14552">
        <ele>65.65</ele>
        <time>2023-06-17T07:23:51.429Z</time>
      </trkpt>
      <trkpt lat="46.37805" lon="-0.14571">
        <ele>65.65</ele>
        <time>2023-06-17T07:24:48.328Z</time>
      </trkpt>
      <trkpt lat="46.37802" lon="-0.14597">
        <ele>65.73</ele>
        <time>2023-06-17T07:25:45.230Z</time>
      </trkpt>
      <trkpt lat="46.37801" lon="-0.1461">
        <ele>65.74</ele>
        <time>2023-06-17T07:26:42.133Z</time>
      </trkpt>
      <trkpt lat="46.37801" lon="-0.1461">
        <ele>65.74</ele>
        <time>2023-06-17T07:27:39.036Z</time>
      </trkpt>
      <trkpt lat="46.37799" lon="-0.14622">
        <ele>65.73</ele>
        <time>2023-06-17T07:28:35.941Z</time>
      </trkpt>
      <trkpt lat="46.37797" lon="-0.14632">
        <ele>65.68</ele>
        <time>2023-06-17T07:29:32.847Z</time>
      </trkpt>
      <trkpt lat="46.37792" lon="-0.14646">
        <ele>65.62</ele>
        <time>2023-06-17T07:30:29.755Z</time>
      </trkpt>
      <trkpt lat="46.3779" lon="-0.14652">
        <ele>65.63</ele>
        <time>2023-06-17T07:31:26.663Z</time>
      </trkpt>
      <trkpt lat="46.37786" lon="-0.14664">
        <ele>65.75</ele>
        <time>2023-06-17T07:32:23.573Z</time>
      </trkpt>
      <trkpt lat="46.37784" lon="-0.14669">
        <ele>65.86</ele>
        <time>2023-06-17T07:33:20.483Z</time>
      </trkpt>
      <trkpt lat="46.37774" lon="-0.14698">
        <ele>66.52</ele>
        <time>2023-06-17T07:34:17.397Z</time>
      </trkpt>
      <trkpt lat="46.37772" lon="-0.14704">
        <ele>66.54</ele>
        <time>2023-06-17T07:35:14.312Z</time>
      </trkpt>
      <trkpt lat="46.37771" lon="-0.14718">
        <ele>66.61</ele>
        <time>2023-06-17T07:36:11.228Z</time>
      </trkpt>
      <trkpt lat="46.37772" lon="-0.14746">
        <ele>66.75</ele>
        <time>2023-06-17T07:37:08.147Z</time>
      </trkpt>
      <trkpt lat="46.37773" lon="-0.14762">
        <ele>66.85</ele>
        <time>2023-06-17T07:38:05.068Z</time>
      </trkpt>
      <trkpt lat="46.37773" lon="-0.14767">
        <ele>66.89</ele>
        <time>2023-06-17T07:39:01.990Z</time>
      </trkpt>
      <trkpt lat="46.37773" lon="-0.14774">
        <ele>66.81</ele>
        <time>2023-06-17T07:39:58.912Z</time>
      </trkpt>
      <trkpt lat="46.37766" lon="-0.1478">
        <ele>66.7</ele>
        <time>2023-06-17T07:40:55.836Z</time>
      </trkpt>
      <trkpt lat="46.37758" lon="-0.14786">
        <ele>66.61</ele>
        <time>2023-06-17T07:41:52.761Z</time>
      </trkpt>
      <trkpt lat="46.3775" lon="-0.14792">
        <ele>66.56</ele>
        <time>2023-06-17T07:42:49.688Z</time>
      </trkpt>
      <trkpt lat="46.37744" lon="-0.14797">
        <ele>66.55</ele>
        <time>2023-06-17T07:43:46.616Z</time>
      </trkpt>
      <trkpt lat="46.37743" lon="-0.14798">
        <ele>66.55</ele>
        <time>2023-06-17T07:44:43.544Z</time>
      </trkpt>
      <trkpt lat="46.37735" lon="-0.14805">
        <ele>66.59</ele>
        <time>2023-06-17T07:45:40.473Z</time>
      </trkpt>
      <trkpt lat="46.37724" lon="-0.14816">
        <ele>66.68</ele>
        <time>2023-06-17T07:46:37.405Z</time>
      </trkpt>
      <trkpt lat="46.3771" lon="-0.14829">
        <ele>66.75</ele>
        <time>2023-06-17T07:47:34.339Z</time>
      </trkpt>
      <trkpt lat="46.37697" lon="-0.14849">
        <ele>66.83</ele>
        <time>2023-06-17T07:48:31.276Z</time>
      </trkpt>
      <trkpt lat="46.37691" lon="-0.14858">
        <ele>66.91</ele>
        <time>2023-06-17T07:49:28.215Z</time>
      </trkpt>
      <trkpt lat="46.37676" lon="-0.14881">
        <ele>67.17</ele>
        <time>2023-06-17T07:50:25.157Z</time>
      </trkpt>
      <trkpt lat="46.3767" lon="-0.14891">
        <ele>67.25</ele>
        <time>2023-06-17T07:51:22.101Z</time>
      </trkpt>
      <trkpt lat="46.37664" lon="-0.149">
        <ele>66.95</ele>
        <time>2023-06-17T07:52:19.046Z</time>
      </trkpt>
      <trkpt lat="46.37655" lon="-0.14914">
        <ele>66.47</ele>
        <time>2023-06-17T07:53:15.993Z</time>
      </trkpt>
      <trkpt lat="46.37651" lon="-0.1492">
        <ele>66.35</ele>
        <time>2023-06-17T07:54:12.941Z</time>
      </trkpt>
      <trkpt lat="46.37651" lon="-0.1492">
        <ele>66.35</ele>
        <time>2023-06-17T07:55:09.889Z</time>
      </trkpt>
      <trkpt lat="46.37648" lon="-0.14924">
        <ele>66.27</ele>
        <time>2023-06-17T07:56:06.838Z</time>
      </trkpt>
      <trkpt lat="46.37632" lon="-0.14944">
        <ele>66.08</ele>
        <time>2023-06-17T07:57:03.790Z</time>
      </trkpt>
      <trkpt lat="46.37631" lon="-0.14943">
        <ele>66.08</ele>
        <time>2023-06-17T07:58:00.742Z</time>
      </trkpt>
      <trkpt lat="46.37628" lon="-0.14938">
        <ele>66.07</ele>
        <time>2023-06-17T07:58:57.695Z</time>
      </trkpt>
      <trkpt lat="46.37623" lon="-0.14928">
        <ele>66.11</ele>
        <time>2023-06-17T07:59:54.649Z</time>
      </trkpt>
      <trkpt lat="46.37607" lon="-0.14901">
        <ele>66.36</ele>
        <time>2023-06-17T08:00:51.607Z</time>
      </trkpt>
      <trkpt lat="46.37598" lon="-0.1489">
        <ele>66.48</ele>
        <time>2023-06-17T08:01:48.567Z</time>
      </trkpt>
      <trkpt lat="46.37591" lon="-0.14883">
        <ele>66.58</ele>
        <time>2023-06-17T08:02:45.529Z</time>
      </trkpt>
      <trkpt lat="46.37587" lon="-0.14879">
        <ele>66.61</ele>
        <time>2023-06-17T08:03:42.491Z</time>
      </trkpt>
      <trkpt lat="46.37583" lon="-0.14876">
        <ele>66.65</ele>
        <time>2023-06-17T08:04:39.454Z</time>
      </trkpt>
      <trkpt lat="46.37575" lon="-0.1487">
        <ele>66.66</ele>
        <time>2023-06-17T08:05:36.418Z</time>
      </trkpt>
      <trkpt lat="46.37567" lon="-0.14863">
        <ele>66.61</ele>
        <time>2023-06-17T08:06:33.384Z</time>
      </trkpt>
      <trkpt lat="46.37559" lon="-0.14857">
        <ele>66.59</ele>
        <time>2023-06-17T08:07:30.351Z</time>
      </trkpt>
      <trkpt lat="46.37559" lon="-0.14857">
        <ele>66.59</ele>
        <time>2023-06-17T08:08:27.318Z</time>
      </trkpt>
      <trkpt lat="46.3755" lon="-0.14843">
        <ele>66.61</ele>
        <time>2023-06-17T08:09:24.288Z</time>
      </trkpt>
      <trkpt lat="46.37548" lon="-0.1484">
        <ele>66.61</ele>
        <time>2023-06-17T08:10:21.258Z</time>
      </trkpt>
      <trkpt lat="46.37537" lon="-0.14809">
        <ele>66.61</ele>
        <time>2023-06-17T08:11:18.232Z</time>
      </trkpt>
      <trkpt lat="46.37533" lon="-0.14798">
        <ele>66.66</ele>
        <time>2023-06-17T08:12:15.207Z</time>
      </trkpt>
      <trkpt lat="46.37521" lon="-0.14776">
        <ele>66.78</ele>
        <time>2023-06-17T08:13:12.185Z</time>
      </trkpt>
      <trkpt lat="46.37515" lon="-0.14768">
        <ele>66.83</ele>
        <time>2023-06-17T08:14:09.165Z</time>
      </trkpt>
      <trkpt lat="46.37508" lon="-0.14759">
        <ele>66.85</ele>
        <time>2023-06-17T08:15:06.146Z</time>
      </trkpt>
      <trkpt lat="46.37495" lon="-0.14741">
        <ele>66.85</ele>
        <time>2023-06-17T08:16:03.130Z</time>
      </trkpt>
      <trkpt lat="46.37489" lon="-0.14732">
        <ele>66.92</ele>
        <time>2023-06-17T08:17:00.115Z</time>
      </trkpt>
      <trkpt lat="46.37476" lon="-0.14715">
        <ele>67.1</ele>
        <time>2023-06-17T08:17:57.103Z</time>
      </trkpt>
      <trkpt lat="46.3747" lon="-0.14707">
        <ele>67.19</ele>
        <time>2023-06-17T08:18:54.093Z</time>
      </trkpt>
      <trkpt lat="46.37466" lon="-0.14701">
        <ele>67.26</ele>
        <time>2023-06-17T08:19:51.083Z</time>
      </trkpt>
      <trkpt lat="46.37449" lon="-0.14676">
        <ele>67.38</ele>
        <time>2023-06-17T08:20:48.077Z</time>
      </trkpt>
      <trkpt lat="46.37447" lon="-0.14674">
        <ele>67.4</ele>
        <time>2023-06-17T08:21:45.072Z</time>
      </trkpt>
      <trkpt lat="46.37436" lon="-0.14662">
        <ele>67.41</ele>
        <time>2023-06-17T08:22:42.069Z</time>
      </trkpt>
      <trkpt lat="46.37424" lon="-0.14656">
        <ele>67.43</ele>
        <time>2023-06-17T08:23:39.068Z</time>
      </trkpt>
      <trkpt lat="46.37415" lon="-0.14651">
        <ele>67.41</ele>
        <time>2023-06-17T08:24:36.069Z</time>
      </trkpt>
      <trkpt lat="46.37413" lon="-0.14648">
        <ele>67.41</ele>
        <time>2023-06-17T08:25:33.070Z</time>
      </trkpt>
      <trkpt lat="46.374" lon="-0.1463">
        <ele>67.32</ele>
        <time>2023-06-17T08:26:30.074Z</time>
      </trkpt>
      <trkpt lat="46.37391" lon="-0.14617">
        <ele>67.32</ele>
        <time>2023-06-17T08:27:27.080Z</time>
      </trkpt>
      <trkpt lat="46.37381" lon="-0.14603">
        <ele>67.37</ele>
        <time>2023-06-17T08:28:24.088Z</time>
      </trkpt>
      <trkpt lat="46.37374" lon="-0.14593">
        <ele>67.46</ele>
        <time>2023-06-17T08:29:21.098Z</time>
      </trkpt>
      <trkpt lat="46.37369" lon="-0.14589">
        <ele>67.52</ele>
        <time>2023-06-17T08:30:18.109Z</time>
      </trkpt>
      <trkpt lat="46.37364" lon="-0.14585">
        <ele>67.59</ele>
        <time>2023-06-17T08:31:15.121Z</time>
      </trkpt>
      <trkpt lat="46.37361" lon="-0.14584">
        <ele>67.63</ele>
        <time>2023-06-17T08:32:12.133Z</time>
      </trkpt>
      <trkpt lat="46.37355" lon="-0.14582">
        <ele>67.66</ele>
        <time>2023-06-17T08:33:09.146Z</time>
      </trkpt>
      <trkpt lat="46.37352" lon="-0.14582">
        <ele>67.68</ele>
        <time>2023-06-17T08:34:06.159Z</time>
      </trkpt>
      <trkpt lat="46.37344" lon="-0.1458">
        <ele>67.66</ele>
        <time>2023-06-17T08:35:03.174Z</time>
      </trkpt>
      <trkpt lat="46.37336" lon="-0.14579">
        <ele>67.61</ele>
        <time>2023-06-17T08:36:00.190Z</time>
      </trkpt>
      <trkpt lat="46.37327" lon="-0.14574">
        <ele>67.55</ele>
        <time>2023-06-17T08:36:57.208Z</time>
      </trkpt>
      <trkpt lat="46.37324" lon="-0.14573">
        <ele>67.54</ele>
        <time>2023-06-17T08:37:54.226Z</time>
      </trkpt>
      <trkpt lat="46.37319" lon="-0.14568">
        <ele>67.54</ele>
        <time>2023-06-17T08:38:51.245Z</time>
      </trkpt>
      <trkpt lat="46.37314" lon="-0.14562">
        <ele>67.55</ele>
        <time>2023-06-17T08:39:48.265Z</time>
      </trkpt>
      <trkpt lat="46.37306" lon="-0.1455">
        <ele>67.59</ele>
        <time>2023-06-17T08:40:45.287Z</time>
      </trkpt>
      <trkpt lat="46.37294" lon="-0.14532">
        <ele>67.72</ele>
        <time>2023-06-17T08:41:42.312Z</time>
      </trkpt>
      <trkpt lat="46.3729" lon="-0.14526">
        <ele>67.79</ele>
        <time>2023-06-17T08:42:39.338Z</time>
      </trkpt>
      <trkpt lat="46.37284" lon="-0.1452">
        <ele>67.91</ele>
        <time>2023-06-17T08:43:36.365Z</time>
      </trkpt>
      <trkpt lat="46.37276" lon="-0.14512">
        <ele>68.09</ele>
        <time>2023-06-17T08:44:33.393Z</time>
      </trkpt>
      <trkpt lat="46.37276" lon="-0.14512">
        <ele>68.09</ele>
        <time>2023-06-17T08:45:30.421Z</time>
      </trkpt>
      <trkpt lat="46.37268" lon="-0.14507">
        <ele>68.32</ele>
        <time>2023-06-17T08:46:27.451Z</time>
      </trkpt>
      <trkpt lat="46.37254" lon="-0.14499">
        <ele>68.78</ele>
        <time>2023-06-17T08:47:24.483Z</time>
      </trkpt>
      <trkpt lat="46.37249" lon="-0.14492">
        <ele>68.99</ele>
        <time>2023-06-17T08:48:21.516Z</time>
      </trkpt>
      <trkpt lat="46.37232" lon="-0.14471">
        <ele>69.34</ele>
        <time>2023-06-17T08:49:18.553Z</time>
      </trkpt>
      <trkpt lat="46.37232" lon="-0.14471">
        <ele>69.34</ele>
        <time>2023-06-17T08:50:15.590Z</time>
      </trkpt>
      <trkpt lat="46.37213" lon="-0.14435">
        <ele>69.76</ele>
        <time>2023-06-17T08:51:12.632Z</time>
      </trkpt>
      <trkpt lat="46.37213" lon="-0.14435">
        <ele>69.76</ele>
        <time>2023-06-17T08:52:09.674Z</time>
      </trkpt>
      <trkpt lat="46.37206" lon="-0.14443">
        <ele>69.85</ele>
        <time>2023-06-17T08:53:06.717Z</time>
      </trkpt>
      <trkpt lat="46.37193" lon="-0.14459">
        <ele>69.97</ele>
        <time>2023-06-17T08:54:03.763Z</time>
      </trkpt>
      <trkpt lat="46.37187" lon="-0.14465">
        <ele>70.06</ele>
        <time>2023-06-17T08:55:00.810Z</time>
      </trkpt>
      <trkpt lat="46.37169" lon="-0.14497">
        <ele>70.43</ele>
        <time>2023-06-17T08:55:57.862Z</time>
      </trkpt>
      <trkpt lat="46.37166" lon="-0.14502">
        <ele>70.5</ele>
        <time>2023-06-17T08:56:54.914Z</time>
      </trkpt>
      <trkpt lat="46.37161" lon="-0.14512">
        <ele>70.68</ele>
        <time>2023-06-17T08:57:51.968Z</time>
      </trkpt>
      <trkpt lat="46.37149" lon="-0.14532">
        <ele>71.1</ele>
        <time>2023-06-17T08:58:49.025Z</time>
      </trkpt>
      <trkpt lat="46.37141" lon="-0.14546">
        <ele>71.47</ele>
        <time>2023-06-17T08:59:46.084Z</time>
      </trkpt>
      <trkpt lat="46.37141" lon="-0.14546">
        <ele>71.47</ele>
        <time>2023-06-17T09:00:43.143Z</time>
      </trkpt>
      <trkpt lat="46.37121" lon="-0.14568">
        <ele>72.27</ele>
        <time>2023-06-17T09:01:40.206Z</time>
      </trkpt>
      <trkpt lat="46.37119" lon="-0.14569">
        <ele>72.33</ele>
        <time>2023-06-17T09:02:37.269Z</time>
      </trkpt>
      <trkpt lat="46.37112" lon="-0.14576">
        <ele>72.65</ele>
        <time>2023-06-17T09:03:34.334Z</time>
      </trkpt>
      <trkpt lat="46.37109" lon="-0.14579">
        <ele>72.78</ele>
        <time>2023-06-17T09:04:31.399Z</time>
      </trkpt>
      <trkpt lat="46.371" lon="-0.14584">
        <ele>73.16</ele>
        <time>2023-06-17T09:05:28.466Z</time>
      </trkpt>
      <trkpt lat="46.37096" lon="-0.14586">
        <ele>73.28</ele>
        <time>2023-06-17T09:06:25.533Z</time>
      </trkpt>
      <trkpt lat="46.37094" lon="-0.14587">
        <ele>73.31</ele>
        <time>2023-06-17T09:07:22.601Z</time>
      </trkpt>
      <trkpt lat="46.37078" lon="-0.1459">
        <ele>73.68</ele>
        <time>2023-06-17T09:08:19.671Z</time>
      </trkpt>
      <trkpt lat="46.37069" lon="-0.14591">
        <ele>73.84</ele>
        <time>2023-06-17T09:09:16.743Z</time>
      </trkpt>
      <trkpt lat="46.3706" lon="-0.14592">
        <ele>73.94</ele>
        <time>2023-06-17T09:10:13.816Z</time>
      </trkpt>
      <trkpt lat="46.37039" lon="-0.14596">
        <ele>74.04</ele>
        <time>2023-06-17T09:11:10.893Z</time>
      </trkpt>
      <trkpt lat="46.37034" lon="-0.14597">
        <ele>74.07</ele>
        <time>2023-06-17T09:12:07.970Z</time>
      </trkpt>
      <trkpt lat="46.37028" lon="-0.14599">
        <ele>74.09</ele>
        <time>2023-06-17T09:13:05.048Z</time>
      </trkpt>
      <trkpt lat="46.37017" lon="-0.14607">
        <ele>74.14</ele>
        <time>2023-06-17T09:14:02.128Z</time>
      </trkpt>
      <trkpt lat="46.36993" lon="-0.14644">
        <ele>74.28</ele>
        <time>2023-06-17T09:14:59.214Z</time>
      </trkpt>
      <trkpt lat="46.36965" lon="-0.14607">
        <ele>74.44</ele>
        <time>2023-06-17T09:15:56.306Z</time>
      </trkpt>
      <trkpt lat="46.36963" lon="-0.14604">
        <ele>74.46</ele>
        <time>2023-06-17T09:16:53.398Z</time>
      </trkpt>
      <trkpt lat="46.3695" lon="-0.1459">
        <ele>74.59</ele>
        <time>2023-06-17T09:17:50.493Z</time>
      </trkpt>
      <trkpt lat="46.36943" lon="-0.14585">
        <ele>74.65</ele>
        <time>2023-06-17T09:18:47.589Z</time>
      </trkpt>
      <trkpt lat="46.36932" lon="-0.14585">
        <ele>74.74</ele>
        <time>2023-06-17T09:19:44.687Z</time>
      </trkpt>
      <trkpt lat="46.36916" lon="-0.14588">
        <ele>74.86</ele>
        <time>2023-06-17T09:20:41.788Z</time>
      </trkpt>
      <trkpt lat="46.36905" lon="-0.14585">
        <ele>74.95</ele>
        <time>2023-06-17T09:21:38.890Z</time>
      </trkpt>
      <trkpt lat="46.3688" lon="-0.1456">
        <ele>75.2</ele>
        <time>2023-06-17T09:22:35.997Z</time>
      </trkpt>
      <trkpt lat="46.36658" lon="-0.14398">
        <ele>77.18</ele>
        <time>2023-06-17T09:23:33.144Z</time>
      </trkpt>
      <trkpt lat="46.36617" lon="-0.14368">
        <ele>78.86</ele>
        <time>2023-06-17T09:24:30.298Z</time>
      </trkpt>
      <trkpt lat="46.3661" lon="-0.14366">
        <ele>79.12</ele>
        <time>2023-06-17T09:25:27.454Z</time>
      </trkpt>
      <trkpt lat="46.36597" lon="-0.14374">
        <ele>79.63</ele>
        <time>2023-06-17T09:26:24.612Z</time>
      </trkpt>
      <trkpt lat="46.36593" lon="-0.14379">
        <ele>79.82</ele>
        <time>2023-06-17T09:27:21.771Z</time>
      </trkpt>
      <trkpt lat="46.36411" lon="-0.14825">
        <ele>92.79</ele>
        <time>2023-06-17T09:28:18.987Z</time>
      </trkpt>
      <trkpt lat="46.36407" lon="-0.14836">
        <ele>91.94</ele>
        <time>2023-06-17T09:29:16.204Z</time>
      </trkpt>
      <trkpt lat="46.36404" lon="-0.14841">
        <ele>91.54</ele>
        <time>2023-06-17T09:30:13.422Z</time>
      </trkpt>
      <trkpt lat="46.364" lon="-0.14852">
        <ele>90.79</ele>
        <time>2023-06-17T09:31:10.642Z</time>
      </trkpt>
      <trkpt lat="46.36395" lon="-0.14863">
        <ele>90.86</ele>
        <time>2023-06-17T09:32:07.863Z</time>
      </trkpt>
      <trkpt lat="46.36393" lon="-0.14868">
        <ele>90.93</ele>
        <time>2023-06-17T09:33:05.085Z</time>
      </trkpt>
      <trkpt lat="46.36391" lon="-0.14874">
        <ele>91.04</ele>
        <time>2023-06-17T09:34:02.307Z</time>
      </trkpt>
      <trkpt lat="46.36389" lon="-0.14879">
        <ele>91.18</ele>
        <time>2023-06-17T09:34:59.530Z</time>
      </trkpt>
      <trkpt lat="46.36387" lon="-0.14885">
        <ele>91.36</ele>
        <time>2023-06-17T09:35:56.754Z</time>
      </trkpt>
      <trkpt lat="46.36384" lon="-0.14891">
        <ele>91.57</ele>
        <time>2023-06-17T09:36:53.979Z</time>
      </trkpt>
      <trkpt lat="46.36384" lon="-0.14891">
        <ele>91.57</ele>
        <time>2023-06-17T09:37:51.204Z</time>
      </trkpt>
      <trkpt lat="46.3638" lon="-0.1489">
        <ele>91.82</ele>
        <time>2023-06-17T09:38:48.429Z</time>
      </trkpt>
      <trkpt lat="46.36376" lon="-0.14889">
        <ele>92.1</ele>
        <time>2023-06-17T09:39:45.655Z</time>
      </trkpt>
      <trkpt lat="46.36372" lon="-0.14887">
        <ele>92.41</ele>
        <time>2023-06-17T09:40:42.882Z</time>
      </trkpt>
      <trkpt lat="46.36367" lon="-0.14886">
        <ele>92.75</ele>
        <time>2023-06-17T09:41:40.109Z</time>
      </trkpt>
      <trkpt lat="46.36363" lon="-0.14885">
        <ele>93.12</ele>
        <time>2023-06-17T09:42:37.337Z</time>
      </trkpt>
      <trkpt lat="46.36363" lon="-0.14885">
        <ele>93.12</ele>
        <time>2023-06-17T09:43:34.565Z</time>
      </trkpt>
      <trkpt lat="46.36362" lon="-0.14891">
        <ele>93.55</ele>
        <time>2023-06-17T09:44:31.794Z</time>
      </trkpt>
      <trkpt lat="46.36362" lon="-0.14896">
        <ele>93.9</ele>
        <time>2023-06-17T09:45:29.023Z</time>
      </trkpt>
      <trkpt lat="46.36363" lon="-0.14904">
        <ele>94.47</ele>
        <time>2023-06-17T09:46:26.253Z</time>
      </trkpt>
      <trkpt lat="46.36365" lon="-0.14916">
        <ele>95.5</ele>
        <time>2023-06-17T09:47:23.485Z</time>
      </trkpt>
      <trkpt lat="46.36366" lon="-0.1492">
        <ele>95.88</ele>
        <time>2023-06-17T09:48:20.717Z</time>
      </trkpt>
      <trkpt lat="46.36367" lon="-0.14941">
        <ele>97.83</ele>
        <time>2023-06-17T09:49:17.951Z</time>
      </trkpt>
      <trkpt lat="46.36367" lon="-0.14954">
        <ele>98.92</ele>
        <time>2023-06-17T09:50:15.187Z</time>
      </trkpt>
      <trkpt lat="46.36367" lon="-0.14954">
        <ele>98.92</ele>
        <time>2023-06-17T09:51:12.423Z</time>
      </trkpt>
      <trkpt lat="46.36366" lon="-0.1496">
        <ele>99.44</ele>
        <time>2023-06-17T09:52:09.659Z</time>
      </trkpt>
      <trkpt lat="46.36365" lon="-0.14973">
        <ele>100.41</ele>
        <time>2023-06-17T09:53:06.897Z</time>
      </trkpt>
      <trkpt lat="46.36363" lon="-0.14984">
        <ele>101.33</ele>
        <time>2023-06-17T09:54:04.136Z</time>
      </trkpt>
      <trkpt lat="46.36363" lon="-0.14985">
        <ele>101.33</ele>
        <time>2023-06-17T09:55:01.375Z</time>
      </trkpt>
      <trkpt lat="46.36357" lon="-0.15004">
        <ele>103.54</ele>
        <time>2023-06-17T09:55:58.617Z</time>
      </trkpt>
      <trkpt lat="46.36357" lon="-0.15009">
        <ele>104.04</ele>
        <time>2023-06-17T09:56:55.859Z</time>
      </trkpt>
      <trkpt lat="46.36358" lon="-0.15021">
        <ele>105.35</ele>
        <time>2023-06-17T09:57:53.102Z</time>
      </trkpt>
      <trkpt lat="46.36358" lon="-0.15023">
        <ele>105.5</ele>
        <time>2023-06-17T09:58:50.346Z</time>
      </trkpt>
      <trkpt lat="46.36362" lon="-0.1504">
        <ele>107.26</ele>
        <time>2023-06-17T09:59:47.592Z</time>
      </trkpt>
      <trkpt lat="46.36368" lon="-0.15049">
        <ele>108.45</ele>
        <time>2023-06-17T10:00:44.839Z</time>
      </trkpt>
      <trkpt lat="46.36371" lon="-0.15054">
        <ele>109.16</ele>
        <time>2023-06-17T10:01:42.087Z</time>
      </trkpt>
      <trkpt lat="46.36364" lon="-0.1507">
        <ele>111.1</ele>
        <time>2023-06-17T10:02:39.337Z</time>
      </trkpt>
      <trkpt lat="46.36361" lon="-0.15074">
        <ele>111.71</ele>
        <time>2023-06-17T10:03:36.588Z</time>
      </trkpt>
      <trkpt lat="46.36358" lon="-0.15078">
        <ele>112.32</ele>
        <time>2023-06-17T10:04:33.839Z</time>
      </trkpt>
      <trkpt lat="46.36355" lon="-0.15083">
        <ele>112.89</ele>
        <time>2023-06-17T10:05:31.091Z</time>
      </trkpt>
      <trkpt lat="46.36348" lon="-0.15091">
        <ele>113.96</ele>
        <time>2023-06-17T10:06:28.344Z</time>
      </trkpt>
      <trkpt lat="46.36335" lon="-0.15108">
        <ele>115.33</ele>
        <time>2023-06-17T10:07:25.600Z</time>
      </trkpt>
      <trkpt lat="46.36329" lon="-0.15117">
        <ele>116.06</ele>
        <time>2023-06-17T10:08:22.857Z</time>
      </trkpt>
      <trkpt lat="46.36313" lon="-0.15138">
        <ele>118.01</ele>
        <time>2023-06-17T10:09:20.118Z</time>
      </trkpt>
      <trkpt lat="46.36309" lon="-0.15144">
        <ele>118.54</ele>
        <time>2023-06-17T10:10:17.380Z</time>
      </trkpt>
      <trkpt lat="46.36297" lon="-0.15151">
        <ele>119.68</ele>
        <time>2023-06-17T10:11:14.644Z</time>
      </trkpt>
      <trkpt lat="46.36294" lon="-0.15151">
        <ele>119.91</ele>
        <time>2023-06-17T10:12:11.908Z</time>
      </trkpt>
      <trkpt lat="46.36286" lon="-0.15152">
        <ele>120.71</ele>
        <time>2023-06-17T10:13:09.174Z</time>
      </trkpt>
      <trkpt lat="46.36277" lon="-0.15152">
        <ele>121.47</ele>
        <time>2023-06-17T10:14:06.441Z</time>
      </trkpt>
      <trkpt lat="46.36259" lon="-0.15154">
        <ele>123.11</ele>
        <time>2023-06-17T10:15:03.711Z</time>
      </trkpt>
      <trkpt lat="46.36255" lon="-0.15154">
        <ele>123.47</ele>
        <time>2023-06-17T10:16:00.982Z</time>
      </trkpt>
      <trkpt lat="46.36242" lon="-0.15157">
        <ele>124.62</ele>
        <time>2023-06-17T10:16:58.255Z</time>
      </trkpt>
      <trkpt lat="46.36232" lon="-0.15159">
        <ele>125.5</ele>
        <time>2023-06-17T10:17:55.529Z</time>
      </trkpt>
      <trkpt lat="46.36228" lon="-0.15149">
        <ele>126.22</ele>
        <time>2023-06-17T10:18:52.805Z</time>
      </trkpt>
      <trkpt lat="46.36225" lon="-0.15144">
        <ele>126.6</ele>
        <time>2023-06-17T10:19:50.081Z</time>
      </trkpt>
      <trkpt lat="46.36223" lon="-0.15138">
        <ele>126.95</ele>
        <time>2023-06-17T10:20:47.358Z</time>
      </trkpt>
      <trkpt lat="46.36218" lon="-0.15127">
        <ele>127.56</ele>
        <time>2023-06-17T10:21:44.637Z</time>
      </trkpt>
      <trkpt lat="46.36209" lon="-0.15106">
        <ele>128.62</ele>
        <time>2023-06-17T10:22:41.918Z</time>
      </trkpt>
      <trkpt lat="46.36204" lon="-0.15095">
        <ele>129.22</ele>
        <time>2023-06-17T10:23:39.201Z</time>
      </trkpt>
      <trkpt lat="46.36202" lon="-0.15089">
        <ele>129.57</ele>
        <time>2023-06-17T10:24:36.485Z</time>
      </trkpt>
      <trkpt lat="46.362" lon="-0.15084">
        <ele>129.99</ele>
        <time>2023-06-17T10:25:33.769Z</time>
      </trkpt>
      <trkpt lat="46.36197" lon="-0.15078">
        <ele>130.48</ele>
        <time>2023-06-17T10:26:31.054Z</time>
      </trkpt>
      <trkpt lat="46.36195" lon="-0.15073">
        <ele>131.04</ele>
        <time>2023-06-17T10:27:28.340Z</time>
      </trkpt>
      <trkpt lat="46.36193" lon="-0.15067">
        <ele>131.68</ele>
        <time>2023-06-17T10:28:25.626Z</time>
      </trkpt>
      <trkpt lat="46.36186" lon="-0.15051">
        <ele>133.7</ele>
        <time>2023-06-17T10:29:22.914Z</time>
      </trkpt>
      <trkpt lat="46.36183" lon="-0.15046">
        <ele>134.34</ele>
        <time>2023-06-17T10:30:20.203Z</time>
      </trkpt>
      <trkpt lat="46.36179" lon="-0.15035">
        <ele>135.54</ele>
        <time>2023-06-17T10:31:17.494Z</time>
      </trkpt>
      <trkpt lat="46.36177" lon="-0.15031">
        <ele>135.9</ele>
        <time>2023-06-17T10:32:14.785Z</time>
      </trkpt>
      <trkpt lat="46.36172" lon="-0.15026">
        <ele>136.61</ele>
        <time>2023-06-17T10:33:12.077Z</time>
      </trkpt>
      <trkpt lat="46.36169" lon="-0.15022">
        <ele>137.08</ele>
        <time>2023-06-17T10:34:09.370Z</time>
      </trkpt>
      <trkpt lat="46.36166" lon="-0.15018">
        <ele>137.49</ele>
        <time>2023-06-17T10:35:06.663Z</time>
      </trkpt>
      <trkpt lat="46.36165" lon="-0.15018">
        <ele>137.49</ele>
        <time>2023-06-17T10:36:03.956Z</time>
      </trkpt>
      <trkpt lat="46.36161" lon="-0.15017">
        <ele>137.85</ele>
        <time>2023-06-17T10:37:01.250Z</time>
      </trkpt>
      <trkpt lat="46.36157" lon="-0.15016">
        <ele>138.16</ele>
        <time>2023-06-17T10:37:58.545Z</time>
      </trkpt>
      <trkpt lat="46.36153" lon="-0.15015">
        <ele>138.42</ele>
        <time>2023-06-17T10:38:55.840Z</time>
      </trkpt>
      <trkpt lat="46.36152" lon="-0.15015">
        <ele>138.42</ele>
        <time>2023-06-17T10:39:53.136Z</time>
      </trkpt>
      <trkpt lat="46.3614" lon="-0.15018">
        <ele>138.67</ele>
        <time>2023-06-17T10:40:50.434Z</time>
      </trkpt>
      <trkpt lat="46.3614" lon="-0.15018">
        <ele>138.67</ele>
        <time>2023-06-17T10:41:47.732Z</time>
      </trkpt>
      <trkpt lat="46.36127" lon="-0.15026">
        <ele>138.95</ele>
        <time>2023-06-17T10:42:45.032Z</time>
      </trkpt>
      <trkpt lat="46.36127" lon="-0.15026">
        <ele>138.95</ele>
        <time>2023-06-17T10:43:42.332Z</time>
      </trkpt>
      <trkpt lat="46.3612" lon="-0.15022">
        <ele>139.09</ele>
        <time>2023-06-17T10:44:39.633Z</time>
      </trkpt>
      <trkpt lat="46.36115" lon="-0.1502">
        <ele>139.14</ele>
        <time>2023-06-17T10:45:36.935Z</time>
      </trkpt>
      <trkpt lat="46.36115" lon="-0.1502">
        <ele>139.14</ele>
        <time>2023-06-17T10:46:34.237Z</time>
      </trkpt>
      <trkpt lat="46.36103" lon="-0.15007">
        <ele>139.2</ele>
        <time>2023-06-17T10:47:31.541Z</time>
      </trkpt>
      <trkpt lat="46.36098" lon="-0.15002">
        <ele>139.23</ele>
        <time>2023-06-17T10:48:28.846Z</time>
      </trkpt>
      <trkpt lat="46.36091" lon="-0.14995">
        <ele>139.25</ele>
        <time>2023-06-17T10:49:26.153Z</time>
      </trkpt>
      <trkpt lat="46.3608" lon="-0.14985">
        <ele>138.83</ele>
        <time>2023-06-17T10:50:23.462Z</time>
      </trkpt>
      <trkpt lat="46.36076" lon="-0.14981">
        <ele>138.66</ele>
        <time>2023-06-17T10:51:20.771Z</time>
      </trkpt>
      <trkpt lat="46.36068" lon="-0.14966">
        <ele>138.2</ele>
        <time>2023-06-17T10:52:18.083Z</time>
      </trkpt>
      <trkpt lat="46.36062" lon="-0.14957">
        <ele>137.91</ele>
        <time>2023-06-17T10:53:15.396Z</time>
      </trkpt>
      <trkpt lat="46.36062" lon="-0.14957">
        <ele>137.91</ele>
        <time>2023-06-17T10:54:12.709Z</time>
      </trkpt>
      <trkpt lat="46.36055" lon="-0.14951">
        <ele>137.67</ele>
        <time>2023-06-17T10:55:10.023Z</time>
      </trkpt>
      <trkpt lat="46.36049" lon="-0.14949">
        <ele>137.51</ele>
        <time>2023-06-17T10:56:07.338Z</time>
      </trkpt>
      <trkpt lat="46.36049" lon="-0.14949">
        <ele>137.51</ele>
        <time>2023-06-17T10:57:04.653Z</time>
      </trkpt>
      <trkpt lat="46.36045" lon="-0.14938">
        <ele>137.3</ele>
        <time>2023-06-17T10:58:01.970Z</time>
      </trkpt>
      <trkpt lat="46.36043" lon="-0.14932">
        <ele>137.23</ele>
        <time>2023-06-17T10:58:59.287Z</time>
      </trkpt>
      <trkpt lat="46.3604" lon="-0.14921">
        <ele>137.17</ele>
        <time>2023-06-17T10:59:56.606Z</time>
      </trkpt>
      <trkpt lat="46.36036" lon="-0.14909">
        <ele>137.22</ele>
        <time>2023-06-17T11:00:53.926Z</time>
      </trkpt>
      <trkpt lat="46.36032" lon="-0.14897">
        <ele>137.38</ele>
        <time>2023-06-17T11:01:51.248Z</time>
      </trkpt>
      <trkpt lat="46.3603" lon="-0.14892">
        <ele>137.5</ele>
        <time>2023-06-17T11:02:48.570Z</time>
      </trkpt>
      <trkpt lat="46.36026" lon="-0.1488">
        <ele>137.79</ele>
        <time>2023-06-17T11:03:45.894Z</time>
      </trkpt>
      <trkpt lat="46.36019" lon="-0.14859">
        <ele>138.4</ele>
        <time>2023-06-17T11:04:43.220Z</time>
      </trkpt>
      <trkpt lat="46.36012" lon="-0.14848">
        <ele>138.8</ele>
        <time>2023-06-17T11:05:40.548Z</time>
      </trkpt>
      <trkpt lat="46.36009" lon="-0.14843">
        <ele>138.93</ele>
        <time>2023-06-17T11:06:37.877Z</time>
      </trkpt>
      <trkpt lat="46.36006" lon="-0.14839">
        <ele>139.07</ele>
        <time>2023-06-17T11:07:35.206Z</time>
      </trkpt>
      <trkpt lat="46.36002" lon="-0.14835">
        <ele>139.18</ele>
        <time>2023-06-17T11:08:32.536Z</time>
      </trkpt>
      <trkpt lat="46.35995" lon="-0.14828">
        <ele>139.36</ele>
        <time>2023-06-17T11:09:29.868Z</time>
      </trkpt>
      <trkpt lat="46.35983" lon="-0.14815">
        <ele>139.62</ele>
        <time>2023-06-17T11:10:27.202Z</time>
      </trkpt>
      <trkpt lat="46.35975" lon="-0.14803">
        <ele>139.85</ele>
        <time>2023-06-17T11:11:24.538Z</time>
      </trkpt>
      <trkpt lat="46.35968" lon="-0.14793">
        <ele>139.99</ele>
        <time>2023-06-17T11:12:21.875Z</time>
      </trkpt>
      <trkpt lat="46.35962" lon="-0.14784">
        <ele>140.11</ele>
        <time>2023-06-17T11:13:19.214Z</time>
      </trkpt>
      <trkpt lat="46.35959" lon="-0.14772">
        <ele>140.23</ele>
        <time>2023-06-17T11:14:16.554Z</time>
      </trkpt>
      <trkpt lat="46.35958" lon="-0.14766">
        <ele>140.31</ele>
        <time>2023-06-17T11:15:13.895Z</time>
      </trkpt>
      <trkpt lat="46.35955" lon="-0.14754">
        <ele>140.52</ele>
        <time>2023-06-17T11:16:11.237Z</time>
      </trkpt>
      <trkpt lat="46.35953" lon="-0.14748">
        <ele>140.65</ele>
        <time>2023-06-17T11:17:08.580Z</time>
      </trkpt>
      <trkpt lat="46.3595" lon="-0.14743">
        <ele>140.78</ele>
        <time>2023-06-17T11:18:05.924Z</time>
      </trkpt>
      <trkpt lat="46.35948" lon="-0.14737">
        <ele>140.93</ele>
        <time>2023-06-17T11:19:03.268Z</time>
      </trkpt>
      <trkpt lat="46.35945" lon="-0.14732">
        <ele>141.1</ele>
        <time>2023-06-17T11:20:00.613Z</time>
      </trkpt>
      <trkpt lat="46.35935" lon="-0.14711">
        <ele>141.85</ele>
        <time>2023-06-17T11:20:57.961Z</time>
      </trkpt>
      <trkpt lat="46.35933" lon="-0.14706">
        <ele>142.01</ele>
        <time>2023-06-17T11:21:55.310Z</time>
      </trkpt>
      <trkpt lat="46.35932" lon="-0.14704">
        <ele>142.04</ele>
        <time>2023-06-17T11:22:52.659Z</time>
      </trkpt>
      <trkpt lat="46.35929" lon="-0.14702">
        <ele>142.13</ele>
        <time>2023-06-17T11:23:50.008Z</time>
      </trkpt>
      <trkpt lat="46.35925" lon="-0.147">
        <ele>142.22</ele>
        <time>2023-06-17T11:24:47.358Z</time>
      </trkpt>
      <trkpt lat="46.35921" lon="-0.14697">
        <ele>142.27</ele>
        <time>2023-06-17T11:25:44.709Z</time>
      </trkpt>
      <trkpt lat="46.35917" lon="-0.14694">
        <ele>142.29</ele>
        <time>2023-06-17T11:26:42.061Z</time>
      </trkpt>
      <trkpt lat="46.35909" lon="-0.14689">
        <ele>142.25</ele>
        <time>2023-06-17T11:27:39.414Z</time>
      </trkpt>
      <trkpt lat="46.35897" lon="-0.14681">
        <ele>142.11</ele>
        <time>2023-06-17T11:28:36.769Z</time>
      </trkpt>
      <trkpt lat="46.35888" lon="-0.14676">
        <ele>141.98</ele>
        <time>2023-06-17T11:29:34.126Z</time>
      </trkpt>
      <trkpt lat="46.35886" lon="-0.14672">
        <ele>141.93</ele>
        <time>2023-06-17T11:30:31.483Z</time>
      </trkpt>
      <trkpt lat="46.3588" lon="-0.14662">
        <ele>141.85</ele>
        <time>2023-06-17T11:31:28.842Z</time>
      </trkpt>
      <trkpt lat="46.35879" lon="-0.1466">
        <ele>141.85</ele>
        <time>2023-06-17T11:32:26.201Z</time>
      </trkpt>
      <trkpt lat="46.35875" lon="-0.14651">
        <ele>141.85</ele>
        <time>2023-06-17T11:33:23.561Z</time>
      </trkpt>
      <trkpt lat="46.3587" lon="-0.1464">
        <ele>141.91</ele>
        <time>2023-06-17T11:34:20.922Z</time>
      </trkpt>
      <trkpt lat="46.35863" lon="-0.14625">
        <ele>141.95</ele>
        <time>2023-06-17T11:35:18.286Z</time>
      </trkpt>
      <trkpt lat="46.35856" lon="-0.1461">
        <ele>142.05</ele>
        <time>2023-06-17T11:36:15.652Z</time>
      </trkpt>
      <trkpt lat="46.35852" lon="-0.14601">
        <ele>142.16</ele>
        <time>2023-06-17T11:37:13.019Z</time>
      </trkpt>
      <trkpt lat="46.35848" lon="-0.14596">
        <ele>142.25</ele>
        <time>2023-06-17T11:38:10.387Z</time>
      </trkpt>
      <trkpt lat="46.35836" lon="-0.14579">
        <ele>142.59</ele>
        <time>2023-06-17T11:39:07.757Z</time>
      </trkpt>
      <trkpt lat="46.35829" lon="-0.1457">
        <ele>143.42</ele>
        <time>2023-06-17T11:40:05.129Z</time>
      </trkpt>
      <trkpt lat="46.35826" lon="-0.14566">
        <ele>143.8</ele>
        <time>2023-06-17T11:41:02.501Z</time>
      </trkpt>
      <trkpt lat="46.3582" lon="-0.14557">
        <ele>144.51</ele>
        <time>2023-06-17T11:41:59.875Z</time>
      </trkpt>
      <trkpt lat="46.35807" lon="-0.1454">
        <ele>145.84</ele>
        <time>2023-06-17T11:42:57.252Z</time>
      </trkpt>
      <trkpt lat="46.35799" lon="-0.14532">
        <ele>146.58</ele>
        <time>2023-06-17T11:43:54.630Z</time>
      </trkpt>
      <trkpt lat="46.35795" lon="-0.14528">
        <ele>146.94</ele>
        <time>2023-06-17T11:44:52.009Z</time>
      </trkpt>
      <trkpt lat="46.35787" lon="-0.14527">
        <ele>147.54</ele>
        <time>2023-06-17T11:45:49.389Z</time>
      </trkpt>
      <trkpt lat="46.35784" lon="-0.14526">
        <ele>147.72</ele>
        <time>2023-06-17T11:46:46.770Z</time>
      </trkpt>
      <trkpt lat="46.35765" lon="-0.14528">
        <ele>149.03</ele>
        <time>2023-06-17T11:47:44.154Z</time>
      </trkpt>
      <trkpt lat="46.3576" lon="-0.14529">
        <ele>149.35</ele>
        <time>2023-06-17T11:48:41.539Z</time>
      </trkpt>
      <trkpt lat="46.35756" lon="-0.14529">
        <ele>149.65</ele>
        <time>2023-06-17T11:49:38.924Z</time>
      </trkpt>
      <trkpt lat="46.35738" lon="-0.14527">
        <ele>151.01</ele>
        <time>2023-06-17T11:50:36.312Z</time>
      </trkpt>
      <trkpt lat="46.35713" lon="-0.14524">
        <ele>152.88</ele>
        <time>2023-06-17T11:51:33.704Z</time>
      </trkpt>
      <trkpt lat="46.35711" lon="-0.14524">
        <ele>153</ele>
        <time>2023-06-17T11:52:31.096Z</time>
      </trkpt>
      <trkpt lat="46.35702" lon="-0.14524">
        <ele>153.6</ele>
        <time>2023-06-17T11:53:28.490Z</time>
      </trkpt>
      <trkpt lat="46.35694" lon="-0.14524">
        <ele>154.15</ele>
        <time>2023-06-17T11:54:25.885Z</time>
      </trkpt>
      <trkpt lat="46.35685" lon="-0.14524">
        <ele>154.28</ele>
        <time>2023-06-17T11:55:23.282Z</time>
      </trkpt>
      <trkpt lat="46.35681" lon="-0.14524">
        <ele>154.32</ele>
        <time>2023-06-17T11:56:20.679Z</time>
      </trkpt>
      <trkpt lat="46.35675" lon="-0.14529">
        <ele>154.41</ele>
        <time>2023-06-17T11:57:18.077Z</time>
      </trkpt>
      <trkpt lat="46.35674" lon="-0.14532">
        <ele>154.44</ele>
        <time>2023-06-17T11:58:15.476Z</time>
      </trkpt>
      <trkpt lat="46.35671" lon="-0.1454">
        <ele>154.54</ele>
        <time>2023-06-17T11:59:12.876Z</time>
      </trkpt>
      <trkpt lat="46.35671" lon="-0.14543">
        <ele>154.58</ele>
        <time>2023-06-17T12:00:10.276Z</time>
      </trkpt>
      <trkpt lat="46.35669" lon="-0.14556">
        <ele>154.76</ele>
        <time>2023-06-17T12:01:07.677Z</time>
      </trkpt>
      <trkpt lat="46.35666" lon="-0.14575">
        <ele>155.06</ele>
        <time>2023-06-17T12:02:05.081Z</time>
      </trkpt>
      <trkpt lat="46.35666" lon="-0.14575">
        <ele>155.06</ele>
        <time>2023-06-17T12:03:02.485Z</time>
      </trkpt>
      <trkpt lat="46.35654" lon="-0.14571">
        <ele>155.24</ele>
        <time>2023-06-17T12:03:59.891Z</time>
      </trkpt>
      <trkpt lat="46.35645" lon="-0.14568">
        <ele>155.31</ele>
        <time>2023-06-17T12:04:57.298Z</time>
      </trkpt>
      <trkpt lat="46.35645" lon="-0.14568">
        <ele>155.31</ele>
        <time>2023-06-17T12:05:54.705Z</time>
      </trkpt>
      <trkpt lat="46.35637" lon="-0.14564">
        <ele>155.35</ele>
        <time>2023-06-17T12:06:52.113Z</time>
      </trkpt>
      <trkpt lat="46.35633" lon="-0.14561">
        <ele>155.35</ele>
        <time>2023-06-17T12:07:49.522Z</time>
      </trkpt>
      <trkpt lat="46.35629" lon="-0.14559">
        <ele>155.33</ele>
        <time>2023-06-17T12:08:46.932Z</time>
      </trkpt>
      <trkpt lat="46.35625" lon="-0.14557">
        <ele>155.28</ele>
        <time>2023-06-17T12:09:44.343Z</time>
      </trkpt>
      <trkpt lat="46.35621" lon="-0.14555">
        <ele>155.2</ele>
        <time>2023-06-17T12:10:41.754Z</time>
      </trkpt>
      <trkpt lat="46.35609" lon="-0.14548">
        <ele>154.85</ele>
        <time>2023-06-17T12:11:39.167Z</time>
      </trkpt>
      <trkpt lat="46.35609" lon="-0.14548">
        <ele>154.85</ele>
        <time>2023-06-17T12:12:36.580Z</time>
      </trkpt>
      <trkpt lat="46.35592" lon="-0.14537">
        <ele>154.32</ele>
        <time>2023-06-17T12:13:33.996Z</time>
      </trkpt>
      <trkpt lat="46.3558" lon="-0.14529">
        <ele>153.88</ele>
        <time>2023-06-17T12:14:31.414Z</time>
      </trkpt>
      <trkpt lat="46.35572" lon="-0.14523">
        <ele>153.56</ele>
        <time>2023-06-17T12:15:28.834Z</time>
      </trkpt>
      <trkpt lat="46.35569" lon="-0.14521">
        <ele>153.41</ele>
        <time>2023-06-17T12:16:26.254Z</time>
      </trkpt>
      <trkpt lat="46.35565" lon="-0.14515">
        <ele>153.21</ele>
        <time>2023-06-17T12:17:23.675Z</time>
      </trkpt>
      <trkpt lat="46.35563" lon="-0.14511">
        <ele>153.03</ele>
        <time>2023-06-17T12:18:21.097Z</time>
      </trkpt>
      <trkpt lat="46.35561" lon="-0.14504">
        <ele>152.81</ele>
        <time>2023-06-17T12:19:18.520Z</time>
      </trkpt>
      <trkpt lat="46.35557" lon="-0.14493">
        <ele>152.35</ele>
        <time>2023-06-17T12:20:15.944Z</time>
      </trkpt>
      <trkpt lat="46.35555" lon="-0.14487">
        <ele>152.1</ele>
        <time>2023-06-17T12:21:13.369Z</time>
      </trkpt>
      <trkpt lat="46.35553" lon="-0.14481">
        <ele>151.81</ele>
        <time>2023-06-17T12:22:10.795Z</time>
      </trkpt>
      <trkpt lat="46.35551" lon="-0.14475">
        <ele>151.51</ele>
        <time>2023-06-17T12:23:08.221Z</time>
      </trkpt>
      <trkpt lat="46.35543" lon="-0.14452">
        <ele>150.22</ele>
        <time>2023-06-17T12:24:05.650Z</time>
      </trkpt>
      <trkpt lat="46.3554" lon="-0.14443">
        <ele>149.73</ele>
        <time>2023-06-17T12:25:03.080Z</time>
      </trkpt>
      <trkpt lat="46.35539" lon="-0.14441">
        <ele>149.61</ele>
        <time>2023-06-17T12:26:00.510Z</time>
      </trkpt>
      <trkpt lat="46.35532" lon="-0.14433">
        <ele>149.05</ele>
        <time>2023-06-17T12:26:57.942Z</time>
      </trkpt>
      <trkpt lat="46.35529" lon="-0.14428">
        <ele>148.81</ele>
        <time>2023-06-17T12:27:55.375Z</time>
      </trkpt>
      <trkpt lat="46.35522" lon="-0.1442">
        <ele>148.41</ele>
        <time>2023-06-17T12:28:52.809Z</time>
      </trkpt>
      <trkpt lat="46.35519" lon="-0.14415">
        <ele>148.24</ele>
        <time>2023-06-17T12:29:50.244Z</time>
      </trkpt>
      <trkpt lat="46.35515" lon="-0.14411">
        <ele>148.1</ele>
        <time>2023-06-17T12:30:47.679Z</time>
      </trkpt>
      <trkpt lat="46.35512" lon="-0.14407">
        <ele>147.98</ele>
        <time>2023-06-17T12:31:45.115Z</time>
      </trkpt>
      <trkpt lat="46.35509" lon="-0.14402">
        <ele>147.89</ele>
        <time>2023-06-17T12:32:42.552Z</time>
      </trkpt>
      <trkpt lat="46.35502" lon="-0.14394">
        <ele>147.79</ele>
        <time>2023-06-17T12:33:39.990Z</time>
      </trkpt>
      <trkpt lat="46.35495" lon="-0.14385">
        <ele>147.78</ele>
        <time>2023-06-17T12:34:37.430Z</time>
      </trkpt>
      <trkpt lat="46.35489" lon="-0.14377">
        <ele>147.84</ele>
        <time>2023-06-17T12:35:34.871Z</time>
      </trkpt>
      <trkpt lat="46.35485" lon="-0.14372">
        <ele>147.9</ele>
        <time>2023-06-17T12:36:32.313Z</time>
      </trkpt>
      <trkpt lat="46.35479" lon="-0.14364">
        <ele>148.09</ele>
        <time>2023-06-17T12:37:29.756Z</time>
      </trkpt>
      <trkpt lat="46.35472" lon="-0.14355">
        <ele>148.34</ele>
        <time>2023-06-17T12:38:27.201Z</time>
      </trkpt>
      <trkpt lat="46.35469" lon="-0.14351">
        <ele>148.48</ele>
        <time>2023-06-17T12:39:24.646Z</time>
      </trkpt>
      <trkpt lat="46.35465" lon="-0.14349">
        <ele>148.64</ele>
        <time>2023-06-17T12:40:22.092Z</time>
      </trkpt>
      <trkpt lat="46.3546" lon="-0.14346">
        <ele>148.83</ele>
        <time>2023-06-17T12:41:19.539Z</time>
      </trkpt>
      <trkpt lat="46.35456" lon="-0.14344">
        <ele>149.06</ele>
        <time>2023-06-17T12:42:16.987Z</time>
      </trkpt>
      <trkpt lat="46.35454" lon="-0.14343">
        <ele>149.21</ele>
        <time>2023-06-17T12:43:14.435Z</time>
      </trkpt>
      <trkpt lat="46.35452" lon="-0.14343">
        <ele>149.34</ele>
        <time>2023-06-17T12:44:11.883Z</time>
      </trkpt>
      <trkpt lat="46.35443" lon="-0.14341">
        <ele>150.05</ele>
        <time>2023-06-17T12:45:09.333Z</time>
      </trkpt>
      <trkpt lat="46.35439" lon="-0.1434">
        <ele>150.44</ele>
        <time>2023-06-17T12:46:06.783Z</time>
      </trkpt>
      <trkpt lat="46.35434" lon="-0.14342">
        <ele>150.88</ele>
        <time>2023-06-17T12:47:04.234Z</time>
      </trkpt>
      <trkpt lat="46.35426" lon="-0.14345">
        <ele>151.81</ele>
        <time>2023-06-17T12:48:01.687Z</time>
      </trkpt>
      <trkpt lat="46.35414" lon="-0.14349">
        <ele>153.23</ele>
        <time>2023-06-17T12:48:59.142Z</time>
      </trkpt>
      <trkpt lat="46.35408" lon="-0.1435">
        <ele>153.89</ele>
        <time>2023-06-17T12:49:56.597Z</time>
      </trkpt>
      <trkpt lat="46.35397" lon="-0.14351">
        <ele>155.13</ele>
        <time>2023-06-17T12:50:54.054Z</time>
      </trkpt>
      <trkpt lat="46.35391" lon="-0.1435">
        <ele>155.83</ele>
        <time>2023-06-17T12:51:51.512Z</time>
      </trkpt>
      <trkpt lat="46.35382" lon="-0.14349">
        <ele>155.85</ele>
        <time>2023-06-17T12:52:48.972Z</time>
      </trkpt>
      <trkpt lat="46.35369" lon="-0.14348">
        <ele>155.83</ele>
        <time>2023-06-17T12:53:46.434Z</time>
      </trkpt>
      <trkpt lat="46.35364" lon="-0.14347">
        <ele>155.85</ele>
        <time>2023-06-17T12:54:43.897Z</time>
      </trkpt>
      <trkpt lat="46.35355" lon="-0.14346">
        <ele>155.93</ele>
        <time>2023-06-17T12:55:41.361Z</time>
      </trkpt>
      <trkpt lat="46.35339" lon="-0.14344">
        <ele>156.14</ele>
        <time>2023-06-17T12:56:38.828Z</time>
      </trkpt>
      <trkpt lat="46.35343" lon="-0.14324">
        <ele>156.33</ele>
        <time>2023-06-17T12:57:36.297Z</time>
      </trkpt>
      <trkpt lat="46.35344" lon="-0.14321">
        <ele>156.36</ele>
        <time>2023-06-17T12:58:33.766Z</time>
      </trkpt>
      <trkpt lat="46.35344" lon="-0.14318">
        <ele>156.4</ele>
        <time>2023-06-17T12:59:31.236Z</time>
      </trkpt>
      <trkpt lat="46.35345" lon="-0.14311">
        <ele>156.51</ele>
        <time>2023-06-17T13:00:28.706Z</time>
      </trkpt>
      <trkpt lat="46.35345" lon="-0.14311">
        <ele>159.67</ele>
        <time>2023-06-17T13:01:26.176Z</time>
      </trkpt>
      <trkpt lat="46.35346" lon="-0.14298">
        <ele>159.75</ele>
        <time>2023-06-17T13:02:23.648Z</time>
      </trkpt>
      <trkpt lat="46.35346" lon="-0.14298">
        <ele>156.76</ele>
        <time>2023-06-17T13:03:21.120Z</time>
      </trkpt>
      <trkpt lat="46.35346" lon="-0.1429">
        <ele>156.61</ele>
        <time>2023-06-17T13:04:18.593Z</time>
      </trkpt>
      <trkpt lat="46.35347" lon="-0.14278">
        <ele>156.4</ele>
        <time>2023-06-17T13:05:16.067Z</time>
      </trkpt>
      <trkpt lat="46.35348" lon="-0.14271">
        <ele>156.33</ele>
        <time>2023-06-17T13:06:13.542Z</time>
      </trkpt>
      <trkpt lat="46.35349" lon="-0.14254">
        <ele>156.17</ele>
        <time>2023-06-17T13:07:11.019Z</time>
      </trkpt>
      <trkpt lat="46.35352" lon="-0.14239">
        <ele>156.03</ele>
        <time>2023-06-17T13:08:08.498Z</time>
      </trkpt>
      <trkpt lat="46.35352" lon="-0.14239">
        <ele>158.28</ele>
        <time>2023-06-17T13:09:05.977Z</time>
      </trkpt>
      <trkpt lat="46.35354" lon="-0.14231">
        <ele>159.85</ele>
        <time>2023-06-17T13:10:03.456Z</time>
      </trkpt>
      <trkpt lat="46.35355" lon="-0.14224">
        <ele>160.94</ele>
        <time>2023-06-17T13:11:00.936Z</time>
      </trkpt>
      <trkpt lat="46.35354" lon="-0.14231">
        <ele>162.1</ele>
        <time>2023-06-17T13:11:58.417Z</time>
      </trkpt>
      <trkpt lat="46.35351" lon="-0.14244">
        <ele>163.79</ele>
        <time>2023-06-17T13:12:55.900Z</time>
      </trkpt>
      <trkpt lat="46.35349" lon="-0.14254">
        <ele>164.68</ele>
        <time>2023-06-17T13:13:53.384Z</time>
      </trkpt>
      <trkpt lat="46.35349" lon="-0.14257">
        <ele>164.98</ele>
        <time>2023-06-17T13:14:50.868Z</time>
      </trkpt>
      <trkpt lat="46.35347" lon="-0.14271">
        <ele>165.7</ele>
        <time>2023-06-17T13:15:48.354Z</time>
      </trkpt>
      <trkpt lat="46.35346" lon="-0.14283">
        <ele>165.65</ele>
        <time>2023-06-17T13:16:45.841Z</time>
      </trkpt>
      <trkpt lat="46.35344" lon="-0.14282">
        <ele>165.64</ele>
        <time>2023-06-17T13:17:43.328Z</time>
      </trkpt>
      <trkpt lat="46.35333" lon="-0.14279">
        <ele>165.66</ele>
        <time>2023-06-17T13:18:40.817Z</time>
      </trkpt>
      <trkpt lat="46.35313" lon="-0.14272">
        <ele>165.63</ele>
        <time>2023-06-17T13:19:38.309Z</time>
      </trkpt>
      <trkpt lat="46.35313" lon="-0.14272">
        <ele>165.63</ele>
        <time>2023-06-17T13:20:35.801Z</time>
      </trkpt>
      <trkpt lat="46.35305" lon="-0.14263">
        <ele>165.7</ele>
        <time>2023-06-17T13:21:33.295Z</time>
      </trkpt>
      <trkpt lat="46.35301" lon="-0.1425">
        <ele>165.77</ele>
        <time>2023-06-17T13:22:30.791Z</time>
      </trkpt>
      <trkpt lat="46.35293" lon="-0.14224">
        <ele>165.87</ele>
        <time>2023-06-17T13:23:28.290Z</time>
      </trkpt>
      <trkpt lat="46.35285" lon="-0.14196">
        <ele>165.84</ele>
        <time>2023-06-17T13:24:25.792Z</time>
      </trkpt>
      <trkpt lat="46.35279" lon="-0.14176">
        <ele>165.97</ele>
        <time>2023-06-17T13:25:23.297Z</time>
      </trkpt>
      <trkpt lat="46.35279" lon="-0.14176">
        <ele>166.31</ele>
        <time>2023-06-17T13:26:20.802Z</time>
      </trkpt>
      <trkpt lat="46.35277" lon="-0.14169">
        <ele>166.33</ele>
        <time>2023-06-17T13:27:18.307Z</time>
      </trkpt>
      <trkpt lat="46.35274" lon="-0.14157">
        <ele>166.34</ele>
        <time>2023-06-17T13:28:15.814Z</time>
      </trkpt>
      <trkpt lat="46.35265" lon="-0.14127">
        <ele>166.31</ele>
        <time>2023-06-17T13:29:13.324Z</time>
      </trkpt>
      <trkpt lat="46.35263" lon="-0.14122">
        <ele>166.31</ele>
        <time>2023-06-17T13:30:10.835Z</time>
      </trkpt>
      <trkpt lat="46.35258" lon="-0.14107">
        <ele>166.26</ele>
        <time>2023-06-17T13:31:08.348Z</time>
      </trkpt>
      <trkpt lat="46.35263" lon="-0.14096">
        <ele>166.23</ele>
        <time>2023-06-17T13:32:05.862Z</time>
      </trkpt>
      <trkpt lat="46.35263" lon="-0.14093">
        <ele>166.23</ele>
        <time>2023-06-17T13:33:03.377Z</time>
      </trkpt>
      <trkpt lat="46.35263" lon="-0.14081">
        <ele>165.97</ele>
        <time>2023-06-17T13:34:00.893Z</time>
      </trkpt>
      <trkpt lat="46.35263" lon="-0.14079">
        <ele>165.94</ele>
        <time>2023-06-17T13:34:58.409Z</time>
      </trkpt>
      <trkpt lat="46.35259" lon="-0.1407">
        <ele>165.75</ele>
        <time>2023-06-17T13:35:55.926Z</time>
      </trkpt>
      <trkpt lat="46.35253" lon="-0.14055">
        <ele>165.49</ele>
        <time>2023-06-17T13:36:53.445Z</time>
      </trkpt>
      <trkpt lat="46.35244" lon="-0.14038">
        <ele>165.17</ele>
        <time>2023-06-17T13:37:50.967Z</time>
      </trkpt>
      <trkpt lat="46.35239" lon="-0.1403">
        <ele>165.05</ele>
        <time>2023-06-17T13:38:48.490Z</time>
      </trkpt>
      <trkpt lat="46.35238" lon="-0.14028">
        <ele>165.03</ele>
        <time>2023-06-17T13:39:46.013Z</time>
      </trkpt>
      <trkpt lat="46.35225" lon="-0.13995">
        <ele>164.76</ele>
        <time>2023-06-17T13:40:43.540Z</time>
      </trkpt>
      <trkpt lat="46.35219" lon="-0.13978">
        <ele>164.52</ele>
        <time>2023-06-17T13:41:41.069Z</time>
      </trkpt>
      <trkpt lat="46.35217" lon="-0.13974">
        <ele>164.44</ele>
        <time>2023-06-17T13:42:38.599Z</time>
      </trkpt>
      <trkpt lat="46.35205" lon="-0.13953">
        <ele>164.04</ele>
        <time>2023-06-17T13:43:36.132Z</time>
      </trkpt>
      <trkpt lat="46.35188" lon="-0.13921">
        <ele>163.48</ele>
        <time>2023-06-17T13:44:33.669Z</time>
      </trkpt>
      <trkpt lat="46.35186" lon="-0.13918">
        <ele>163.43</ele>
        <time>2023-06-17T13:45:31.207Z</time>
      </trkpt>
      <trkpt lat="46.35179" lon="-0.1391">
        <ele>163.32</ele>
        <time>2023-06-17T13:46:28.746Z</time>
      </trkpt>
      <trkpt lat="46.35169" lon="-0.13896">
        <ele>163.2</ele>
        <time>2023-06-17T13:47:26.288Z</time>
      </trkpt>
      <trkpt lat="46.35169" lon="-0.13896">
        <ele>163.2</ele>
        <time>2023-06-17T13:48:23.830Z</time>
      </trkpt>
      <trkpt lat="46.35162" lon="-0.1389">
        <ele>163.35</ele>
        <time>2023-06-17T13:49:21.373Z</time>
      </trkpt>
      <trkpt lat="46.35139" lon="-0.1387">
        <ele>163.89</ele>
        <time>2023-06-17T13:50:18.920Z</time>
      </trkpt>
      <trkpt lat="46.35131" lon="-0.13863">
        <ele>164.09</ele>
        <time>2023-06-17T13:51:16.469Z</time>
      </trkpt>
      <trkpt lat="46.35125" lon="-0.13858">
        <ele>164.26</ele>
        <time>2023-06-17T13:52:14.019Z</time>
      </trkpt>
      <trkpt lat="46.3512" lon="-0.13852">
        <ele>164.42</ele>
        <time>2023-06-17T13:53:11.570Z</time>
      </trkpt>
      <trkpt lat="46.3511" lon="-0.1384">
        <ele>164.71</ele>
        <time>2023-06-17T13:54:09.123Z</time>
      </trkpt>
      <trkpt lat="46.35103" lon="-0.13831">
        <ele>164.88</ele>
        <time>2023-06-17T13:55:06.677Z</time>
      </trkpt>
      <trkpt lat="46.35089" lon="-0.13815">
        <ele>165.18</ele>
        <time>2023-06-17T13:56:04.234Z</time>
      </trkpt>
      <trkpt lat="46.35082" lon="-0.13806">
        <ele>165.39</ele>
        <time>2023-06-17T13:57:01.793Z</time>
      </trkpt>
      <trkpt lat="46.35068" lon="-0.1379">
        <ele>165.98</ele>
        <time>2023-06-17T13:57:59.355Z</time>
      </trkpt>
      <trkpt lat="46.35058" lon="-0.13777">
        <ele>166.47</ele>
        <time>2023-06-17T13:58:56.919Z</time>
      </trkpt>
      <trkpt lat="46.35047" lon="-0.13765">
        <ele>167.06</ele>
        <time>2023-06-17T13:59:54.485Z</time>
      </trkpt>
      <trkpt lat="46.3503" lon="-0.13744">
        <ele>168.12</ele>
        <time>2023-06-17T14:00:52.055Z</time>
      </trkpt>
      <trkpt lat="46.3502" lon="-0.13732">
        <ele>168.68</ele>
        <time>2023-06-17T14:01:49.627Z</time>
      </trkpt>
      <trkpt lat="46.35013" lon="-0.13724">
        <ele>169</ele>
        <time>2023-06-17T14:02:47.200Z</time>
      </trkpt>
      <trkpt lat="46.35009" lon="-0.13719">
        <ele>169.13</ele>
        <time>2023-06-17T14:03:44.774Z</time>
      </trkpt>
      <trkpt lat="46.35002" lon="-0.13711">
        <ele>169.33</ele>
        <time>2023-06-17T14:04:42.349Z</time>
      </trkpt>
      <trkpt lat="46.34982" lon="-0.13686">
        <ele>169.75</ele>
        <time>2023-06-17T14:05:39.929Z</time>
      </trkpt>
      <trkpt lat="46.34975" lon="-0.13678">
        <ele>169.87</ele>
        <time>2023-06-17T14:06:37.510Z</time>
      </trkpt>
      <trkpt lat="46.34971" lon="-0.13674">
        <ele>169.91</ele>
        <time>2023-06-17T14:07:35.092Z</time>
      </trkpt>
      <trkpt lat="46.34964" lon="-0.13666">
        <ele>169.95</ele>
        <time>2023-06-17T14:08:32.675Z</time>
      </trkpt>
      <trkpt lat="46.34944" lon="-0.13641">
        <ele>169.89</ele>
        <time>2023-06-17T14:09:30.263Z</time>
      </trkpt>
      <trkpt lat="46.34933" lon="-0.13628">
        <ele>169.8</ele>
        <time>2023-06-17T14:10:27.853Z</time>
      </trkpt>
      <trkpt lat="46.34926" lon="-0.1362">
        <ele>169.72</ele>
        <time>2023-06-17T14:11:25.444Z</time>
      </trkpt>
      <trkpt lat="46.34919" lon="-0.13612">
        <ele>169.61</ele>
        <time>2023-06-17T14:12:23.037Z</time>
      </trkpt>
      <trkpt lat="46.34912" lon="-0.13603">
        <ele>169.45</ele>
        <time>2023-06-17T14:13:20.631Z</time>
      </trkpt>
      <trkpt lat="46.34905" lon="-0.13595">
        <ele>169.25</ele>
        <time>2023-06-17T14:14:18.226Z</time>
      </trkpt>
      <trkpt lat="46.34902" lon="-0.13591">
        <ele>169.12</ele>
        <time>2023-06-17T14:15:15.822Z</time>
      </trkpt>
      <trkpt lat="46.34895" lon="-0.13583">
        <ele>168.81</ele>
        <time>2023-06-17T14:16:13.420Z</time>
      </trkpt>
      <trkpt lat="46.34888" lon="-0.13574">
        <ele>168.41</ele>
        <time>2023-06-17T14:17:11.019Z</time>
      </trkpt>
      <trkpt lat="46.34885" lon="-0.1357">
        <ele>168.17</ele>
        <time>2023-06-17T14:18:08.619Z</time>
      </trkpt>
      <trkpt lat="46.34871" lon="-0.13554">
        <ele>167.09</ele>
        <time>2023-06-17T14:19:06.222Z</time>
      </trkpt>
      <trkpt lat="46.34857" lon="-0.13537">
        <ele>167.21</ele>
        <time>2023-06-17T14:20:03.827Z</time>
      </trkpt>
      <trkpt lat="46.3484" lon="-0.13517">
        <ele>167.25</ele>
        <time>2023-06-17T14:21:01.436Z</time>
      </trkpt>
      <trkpt lat="46.34831" lon="-0.13506">
        <ele>167.31</ele>
        <time>2023-06-17T14:21:59.047Z</time>
      </trkpt>
      <trkpt lat="46.3481" lon="-0.13479">
        <ele>167.46</ele>
        <time>2023-06-17T14:22:56.662Z</time>
      </trkpt>
      <trkpt lat="46.34804" lon="-0.13471">
        <ele>167</ele>
        <time>2023-06-17T14:23:54.279Z</time>
      </trkpt>
      <trkpt lat="46.348" lon="-0.13466">
        <ele>166.74</ele>
        <time>2023-06-17T14:24:51.897Z</time>
      </trkpt>
      <trkpt lat="46.34797" lon="-0.13462">
        <ele>166.45</ele>
        <time>2023-06-17T14:25:49.515Z</time>
      </trkpt>
      <trkpt lat="46.34794" lon="-0.13458">
        <ele>166.15</ele>
        <time>2023-06-17T14:26:47.134Z</time>
      </trkpt>
      <trkpt lat="46.34787" lon="-0.13449">
        <ele>165.5</ele>
        <time>2023-06-17T14:27:44.754Z</time>
      </trkpt>
      <trkpt lat="46.34774" lon="-0.13432">
        <ele>164.12</ele>
        <time>2023-06-17T14:28:42.377Z</time>
      </trkpt>
      <trkpt lat="46.34772" lon="-0.1343">
        <ele>163.96</ele>
        <time>2023-06-17T14:29:40.001Z</time>
      </trkpt>
      <trkpt lat="46.34764" lon="-0.13419">
        <ele>163.14</ele>
        <time>2023-06-17T14:30:37.626Z</time>
      </trkpt>
      <trkpt lat="46.34757" lon="-0.1341">
        <ele>162.56</ele>
        <time>2023-06-17T14:31:35.253Z</time>
      </trkpt>
      <trkpt lat="46.34756" lon="-0.13408">
        <ele>162.45</ele>
        <time>2023-06-17T14:32:32.880Z</time>
      </trkpt>
      <trkpt lat="46.34753" lon="-0.13399">
        <ele>162.02</ele>
        <time>2023-06-17T14:33:30.508Z</time>
      </trkpt>
      <trkpt lat="46.34749" lon="-0.13387">
        <ele>161.54</ele>
        <time>2023-06-17T14:34:28.138Z</time>
      </trkpt>
      <trkpt lat="46.34744" lon="-0.13369">
        <ele>160.87</ele>
        <time>2023-06-17T14:35:25.770Z</time>
      </trkpt>
      <trkpt lat="46.34742" lon="-0.13363">
        <ele>160.65</ele>
        <time>2023-06-17T14:36:23.403Z</time>
      </trkpt>
      <trkpt lat="46.34741" lon="-0.13357">
        <ele>160.44</ele>
        <time>2023-06-17T14:37:21.036Z</time>
      </trkpt>
      <trkpt lat="46.34738" lon="-0.13344">
        <ele>160.05</ele>
        <time>2023-06-17T14:38:18.671Z</time>
      </trkpt>
      <trkpt lat="46.34736" lon="-0.13332">
        <ele>159.7</ele>
        <time>2023-06-17T14:39:16.307Z</time>
      </trkpt>
      <trkpt lat="46.34733" lon="-0.1332">
        <ele>159.4</ele>
        <time>2023-06-17T14:40:13.945Z</time>
      </trkpt>
      <trkpt lat="46.34729" lon="-0.13299">
        <ele>158.96</ele>
        <time>2023-06-17T14:41:11.585Z</time>
      </trkpt>
      <trkpt lat="46.3473" lon="-0.13295">
        <ele>158.87</ele>
        <time>2023-06-17T14:42:09.225Z</time>
      </trkpt>
      <trkpt lat="46.34731" lon="-0.13282">
        <ele>158.58</ele>
        <time>2023-06-17T14:43:06.867Z</time>
      </trkpt>
      <trkpt lat="46.34732" lon="-0.13276">
        <ele>158.41</ele>
        <time>2023-06-17T14:44:04.510Z</time>
      </trkpt>
      <trkpt lat="46.34733" lon="-0.13269">
        <ele>158.2</ele>
        <time>2023-06-17T14:45:02.153Z</time>
      </trkpt>
      <trkpt lat="46.34734" lon="-0.13263">
        <ele>157.97</ele>
        <time>2023-06-17T14:45:59.797Z</time>
      </trkpt>
      <trkpt lat="46.34736" lon="-0.1325">
        <ele>157.44</ele>
        <time>2023-06-17T14:46:57.443Z</time>
      </trkpt>
      <trkpt lat="46.34741" lon="-0.13211">
        <ele>155.68</ele>
        <time>2023-06-17T14:47:55.093Z</time>
      </trkpt>
      <trkpt lat="46.34741" lon="-0.13211">
        <ele>155.68</ele>
        <time>2023-06-17T14:48:52.743Z</time>
      </trkpt>
      <trkpt lat="46.34755" lon="-0.13179">
        <ele>154.07</ele>
        <time>2023-06-17T14:49:50.397Z</time>
      </trkpt>
      <trkpt lat="46.34758" lon="-0.13174">
        <ele>153.78</ele>
        <time>2023-06-17T14:50:48.052Z</time>
      </trkpt>
      <trkpt lat="46.3476" lon="-0.13168">
        <ele>153.46</ele>
        <time>2023-06-17T14:51:45.708Z</time>
      </trkpt>
      <trkpt lat="46.34763" lon="-0.13163">
        <ele>153.1</ele>
        <time>2023-06-17T14:52:43.364Z</time>
      </trkpt>
      <trkpt lat="46.34765" lon="-0.13157">
        <ele>152.7</ele>
        <time>2023-06-17T14:53:41.021Z</time>
      </trkpt>
      <trkpt lat="46.34767" lon="-0.13152">
        <ele>152.26</ele>
        <time>2023-06-17T14:54:38.679Z</time>
      </trkpt>
      <trkpt lat="46.34775" lon="-0.13136">
        <ele>150.82</ele>
        <time>2023-06-17T14:55:36.339Z</time>
      </trkpt>
      <trkpt lat="46.34779" lon="-0.13125">
        <ele>149.89</ele>
        <time>2023-06-17T14:56:34.000Z</time>
      </trkpt>
      <trkpt lat="46.34782" lon="-0.13119">
        <ele>149.46</ele>
        <time>2023-06-17T14:57:31.662Z</time>
      </trkpt>
      <trkpt lat="46.34787" lon="-0.13108">
        <ele>148.66</ele>
        <time>2023-06-17T14:58:29.325Z</time>
      </trkpt>
      <trkpt lat="46.34794" lon="-0.13092">
        <ele>147.53</ele>
        <time>2023-06-17T14:59:26.991Z</time>
      </trkpt>
      <trkpt lat="46.34796" lon="-0.13086">
        <ele>147.02</ele>
        <time>2023-06-17T15:00:24.657Z</time>
      </trkpt>
      <trkpt lat="46.34799" lon="-0.13081">
        <ele>146.45</ele>
        <time>2023-06-17T15:01:22.324Z</time>
      </trkpt>
      <trkpt lat="46.34801" lon="-0.13076">
        <ele>145.78</ele>
        <time>2023-06-17T15:02:19.992Z</time>
      </trkpt>
      <trkpt lat="46.34804" lon="-0.1307">
        <ele>145.01</ele>
        <time>2023-06-17T15:03:17.660Z</time>
      </trkpt>
      <trkpt lat="46.34806" lon="-0.13065">
        <ele>144.15</ele>
        <time>2023-06-17T15:04:15.329Z</time>
      </trkpt>
      <trkpt lat="46.34809" lon="-0.13059">
        <ele>143.22</ele>
        <time>2023-06-17T15:05:12.999Z</time>
      </trkpt>
      <trkpt lat="46.34811" lon="-0.13054">
        <ele>142.24</ele>
        <time>2023-06-17T15:06:10.670Z</time>
      </trkpt>
      <trkpt lat="46.34818" lon="-0.13037">
        <ele>139.12</ele>
        <time>2023-06-17T15:07:08.343Z</time>
      </trkpt>
      <trkpt lat="46.34822" lon="-0.13029">
        <ele>137.59</ele>
        <time>2023-06-17T15:08:06.017Z</time>
      </trkpt>
      <trkpt lat="46.34824" lon="-0.13028">
        <ele>137.13</ele>
        <time>2023-06-17T15:09:03.691Z</time>
      </trkpt>
      <trkpt lat="46.34828" lon="-0.13025">
        <ele>136.19</ele>
        <time>2023-06-17T15:10:01.366Z</time>
      </trkpt>
      <trkpt lat="46.34836" lon="-0.1302">
        <ele>134.45</ele>
        <time>2023-06-17T15:10:59.042Z</time>
      </trkpt>
      <trkpt lat="46.3484" lon="-0.13017">
        <ele>133.65</ele>
        <time>2023-06-17T15:11:56.719Z</time>
      </trkpt>
      <trkpt lat="46.34853" lon="-0.1301">
        <ele>131.39</ele>
        <time>2023-06-17T15:12:54.398Z</time>
      </trkpt>
      <trkpt lat="46.34873" lon="-0.12996">
        <ele>127.87</ele>
        <time>2023-06-17T15:13:52.081Z</time>
      </trkpt>
      <trkpt lat="46.34881" lon="-0.12991">
        <ele>126.5</ele>
        <time>2023-06-17T15:14:49.765Z</time>
      </trkpt>
      <trkpt lat="46.34914" lon="-0.1297">
        <ele>121.25</ele>
        <time>2023-06-17T15:15:47.455Z</time>
      </trkpt>
      <trkpt lat="46.34914" lon="-0.1297">
        <ele>129.32</ele>
        <time>2023-06-17T15:16:45.145Z</time>
      </trkpt>
      <trkpt lat="46.34926" lon="-0.12963">
        <ele>128.55</ele>
        <time>2023-06-17T15:17:42.837Z</time>
      </trkpt>
      <trkpt lat="46.34935" lon="-0.12957">
        <ele>127.19</ele>
        <time>2023-06-17T15:18:40.531Z</time>
      </trkpt>
      <trkpt lat="46.34944" lon="-0.12951">
        <ele>128.1</ele>
        <time>2023-06-17T15:19:38.226Z</time>
      </trkpt>
      <trkpt lat="46.34953" lon="-0.12945">
        <ele>128.38</ele>
        <time>2023-06-17T15:20:35.923Z</time>
      </trkpt>
      <trkpt lat="46.34962" lon="-0.1294">
        <ele>127.76</ele>
        <time>2023-06-17T15:21:33.621Z</time>
      </trkpt>
      <trkpt lat="46.34962" lon="-0.12939">
        <ele>127.76</ele>
        <time>2023-06-17T15:22:31.319Z</time>
      </trkpt>
      <trkpt lat="46.34958" lon="-0.12922">
        <ele>124.54</ele>
        <time>2023-06-17T15:23:29.019Z</time>
      </trkpt>
      <trkpt lat="46.34961" lon="-0.12917">
        <ele>123.45</ele>
        <time>2023-06-17T15:24:26.720Z</time>
      </trkpt>
      <trkpt lat="46.34964" lon="-0.12912">
        <ele>121.91</ele>
        <time>2023-06-17T15:25:24.422Z</time>
      </trkpt>
      <trkpt lat="46.34958" lon="-0.12911">
        <ele>120.13</ele>
        <time>2023-06-17T15:26:22.125Z</time>
      </trkpt>
      <trkpt lat="46.34954" lon="-0.12911">
        <ele>119.35</ele>
        <time>2023-06-17T15:27:19.829Z</time>
      </trkpt>
      <trkpt lat="46.34949" lon="-0.12909">
        <ele>118.52</ele>
        <time>2023-06-17T15:28:17.533Z</time>
      </trkpt>
      <trkpt lat="46.34945" lon="-0.12908">
        <ele>117.5</ele>
        <time>2023-06-17T15:29:15.238Z</time>
      </trkpt>
      <trkpt lat="46.34941" lon="-0.12902">
        <ele>116.16</ele>
        <time>2023-06-17T15:30:12.944Z</time>
      </trkpt>
      <trkpt lat="46.34938" lon="-0.12897">
        <ele>117.33</ele>
        <time>2023-06-17T15:31:10.651Z</time>
      </trkpt>
      <trkpt lat="46.34941" lon="-0.12891">
        <ele>118.64</ele>
        <time>2023-06-17T15:32:08.358Z</time>
      </trkpt>
      <trkpt lat="46.34945" lon="-0.1288">
        <ele>120.13</ele>
        <time>2023-06-17T15:33:06.067Z</time>
      </trkpt>
      <trkpt lat="46.34947" lon="-0.12876">
        <ele>120.73</ele>
        <time>2023-06-17T15:34:03.776Z</time>
      </trkpt>
      <trkpt lat="46.34949" lon="-0.12867">
        <ele>122.14</ele>
        <time>2023-06-17T15:35:01.487Z</time>
      </trkpt>
      <trkpt lat="46.3495" lon="-0.12861">
        <ele>121.02</ele>
        <time>2023-06-17T15:35:59.198Z</time>
      </trkpt>
      <trkpt lat="46.34947" lon="-0.12854">
        <ele>119.44</ele>
        <time>2023-06-17T15:36:56.910Z</time>
      </trkpt>
      <trkpt lat="46.34946" lon="-0.1285">
        <ele>119.28</ele>
        <time>2023-06-17T15:37:54.623Z</time>
      </trkpt>
      <trkpt lat="46.34941" lon="-0.12844">
        <ele>118.91</ele>
        <time>2023-06-17T15:38:52.337Z</time>
      </trkpt>
      <trkpt lat="46.34938" lon="-0.1284">
        <ele>118.92</ele>
        <time>2023-06-17T15:39:50.051Z</time>
      </trkpt>
      <trkpt lat="46.34941" lon="-0.12847">
        <ele>118.96</ele>
        <time>2023-06-17T15:40:47.766Z</time>
      </trkpt>
      <trkpt lat="46.34948" lon="-0.1286">
        <ele>117.8</ele>
        <time>2023-06-17T15:41:45.483Z</time>
      </trkpt>
      <trkpt lat="46.34949" lon="-0.12862">
        <ele>117.46</ele>
        <time>2023-06-17T15:42:43.200Z</time>
      </trkpt>
      <trkpt lat="46.34956" lon="-0.12871">
        <ele>115.41</ele>
        <time>2023-06-17T15:43:40.919Z</time>
      </trkpt>
      <trkpt lat="46.34957" lon="-0.1287">
        <ele>115.41</ele>
        <time>2023-06-17T15:44:38.638Z</time>
      </trkpt>
      <trkpt lat="46.34963" lon="-0.12861">
        <ele>112.93</ele>
        <time>2023-06-17T15:45:36.358Z</time>
      </trkpt>
      <trkpt lat="46.34964" lon="-0.12861">
        <ele>112.66</ele>
        <time>2023-06-17T15:46:34.078Z</time>
      </trkpt>
      <trkpt lat="46.34972" lon="-0.12858">
        <ele>112.43</ele>
        <time>2023-06-17T15:47:31.800Z</time>
      </trkpt>
      <trkpt lat="46.34975" lon="-0.1286">
        <ele>112.36</ele>
        <time>2023-06-17T15:48:29.522Z</time>
      </trkpt>
      <trkpt lat="46.34981" lon="-0.12863">
        <ele>110.56</ele>
        <time>2023-06-17T15:49:27.245Z</time>
      </trkpt>
      <trkpt lat="46.34984" lon="-0.12863">
        <ele>109.83</ele>
        <time>2023-06-17T15:50:24.969Z</time>
      </trkpt>
      <trkpt lat="46.34992" lon="-0.12864">
        <ele>109.66</ele>
        <time>2023-06-17T15:51:22.694Z</time>
      </trkpt>
      <trkpt lat="46.34993" lon="-0.12864">
        <ele>109.64</ele>
        <time>2023-06-17T15:52:20.419Z</time>
      </trkpt>
      <trkpt lat="46.35003" lon="-0.12859">
        <ele>107.94</ele>
        <time>2023-06-17T15:53:18.146Z</time>
      </trkpt>
      <trkpt lat="46.35004" lon="-0.12859">
        <ele>107.73</ele>
        <time>2023-06-17T15:54:15.873Z</time>
      </trkpt>
      <trkpt lat="46.35005" lon="-0.12845">
        <ele>105.91</ele>
        <time>2023-06-17T15:55:13.602Z</time>
      </trkpt>
      <trkpt lat="46.35005" lon="-0.12845">
        <ele>105.91</ele>
        <time>2023-06-17T15:56:11.331Z</time>
      </trkpt>
      <trkpt lat="46.34998" lon="-0.12836">
        <ele>105.43</ele>
        <time>2023-06-17T15:57:09.061Z</time>
      </trkpt>
      <trkpt lat="46.34997" lon="-0.12834">
        <ele>104.72</ele>
        <time>2023-06-17T15:58:06.791Z</time>
      </trkpt>
      <trkpt lat="46.35001" lon="-0.12824">
        <ele>101.82</ele>
        <time>2023-06-17T15:59:04.523Z</time>
      </trkpt>
      <trkpt lat="46.35002" lon="-0.12822">
        <ele>101.56</ele>
        <time>2023-06-17T16:00:02.255Z</time>
      </trkpt>
      <trkpt lat="46.3501" lon="-0.12825">
        <ele>100.53</ele>
        <time>2023-06-17T16:00:59.988Z</time>
      </trkpt>
      <trkpt lat="46.35011" lon="-0.12826">
        <ele>100.14</ele>
        <time>2023-06-17T16:01:57.721Z</time>
      </trkpt>
      <trkpt lat="46.35007" lon="-0.12814">
        <ele>97.66</ele>
        <time>2023-06-17T16:02:55.456Z</time>
      </trkpt>
      <trkpt lat="46.35007" lon="-0.12812">
        <ele>97.56</ele>
        <time>2023-06-17T16:03:53.191Z</time>
      </trkpt>
      <trkpt lat="46.35002" lon="-0.12803">
        <ele>96.87</ele>
        <time>2023-06-17T16:04:50.927Z</time>
      </trkpt>
      <trkpt lat="46.35002" lon="-0.12803">
        <ele>93.27</ele>
        <time>2023-06-17T16:05:48.663Z</time>
      </trkpt>
      <trkpt lat="46.35001" lon="-0.128">
        <ele>93.01</ele>
        <time>2023-06-17T16:06:46.400Z</time>
      </trkpt>
      <trkpt lat="46.34993" lon="-0.12795">
        <ele>92.1</ele>
        <time>2023-06-17T16:07:44.138Z</time>
      </trkpt>
      <trkpt lat="46.34992" lon="-0.12794">
        <ele>91.95</ele>
        <time>2023-06-17T16:08:41.876Z</time>
      </trkpt>
      <trkpt lat="46.34993" lon="-0.12783">
        <ele>91.25</ele>
        <time>2023-06-17T16:09:39.616Z</time>
      </trkpt>
      <trkpt lat="46.34993" lon="-0.1278">
        <ele>91.05</ele>
        <time>2023-06-17T16:10:37.356Z</time>
      </trkpt>
      <trkpt lat="46.34999" lon="-0.12775">
        <ele>90.52</ele>
        <time>2023-06-17T16:11:35.097Z</time>
      </trkpt>
      <trkpt lat="46.35002" lon="-0.12771">
        <ele>90.2</ele>
        <time>2023-06-17T16:12:32.839Z</time>
      </trkpt>
      <trkpt lat="46.3501" lon="-0.12765">
        <ele>89.61</ele>
        <time>2023-06-17T16:13:30.582Z</time>
      </trkpt>
      <trkpt lat="46.35018" lon="-0.12757">
        <ele>89.09</ele>
        <time>2023-06-17T16:14:28.327Z</time>
      </trkpt>
      <trkpt lat="46.35018" lon="-0.12757">
        <ele>89.09</ele>
        <time>2023-06-17T16:15:26.072Z</time>
      </trkpt>
      <trkpt lat="46.35017" lon="-0.12752">
        <ele>88.85</ele>
        <time>2023-06-17T16:16:23.817Z</time>
      </trkpt>
      <trkpt lat="46.35013" lon="-0.1274">
        <ele>88.44</ele>
        <time>2023-06-17T16:17:21.564Z</time>
      </trkpt>
      <trkpt lat="46.35011" lon="-0.12734">
        <ele>88.27</ele>
        <time>2023-06-17T16:18:19.311Z</time>
      </trkpt>
      <trkpt lat="46.35011" lon="-0.12733">
        <ele>88.23</ele>
        <time>2023-06-17T16:19:17.059Z</time>
      </trkpt>
      <trkpt lat="46.35009" lon="-0.12729">
        <ele>88.14</ele>
        <time>2023-06-17T16:20:14.807Z</time>
      </trkpt>
      <trkpt lat="46.35007" lon="-0.12724">
        <ele>88.05</ele>
        <time>2023-06-17T16:21:12.556Z</time>
      </trkpt>
      <trkpt lat="46.35004" lon="-0.12718">
        <ele>88.01</ele>
        <time>2023-06-17T16:22:10.306Z</time>
      </trkpt>
      <trkpt lat="46.35001" lon="-0.12713">
        <ele>88.03</ele>
        <time>2023-06-17T16:23:08.056Z</time>
      </trkpt>
      <trkpt lat="46.34999" lon="-0.12708">
        <ele>88.1</ele>
        <time>2023-06-17T16:24:05.807Z</time>
      </trkpt>
      <trkpt lat="46.34998" lon="-0.12706">
        <ele>88.13</ele>
        <time>2023-06-17T16:25:03.558Z</time>
      </trkpt>
      <trkpt lat="46.34996" lon="-0.12703">
        <ele>88.21</ele>
        <time>2023-06-17T16:26:01.310Z</time>
      </trkpt>
      <trkpt lat="46.34993" lon="-0.12698">
        <ele>88.35</ele>
        <time>2023-06-17T16:26:59.062Z</time>
      </trkpt>
      <trkpt lat="46.34984" lon="-0.12686">
        <ele>88.78</ele>
        <time>2023-06-17T16:27:56.816Z</time>
      </trkpt>
      <trkpt lat="46.34975" lon="-0.12678">
        <ele>89.15</ele>
        <time>2023-06-17T16:28:54.572Z</time>
      </trkpt>
      <trkpt lat="46.34964" lon="-0.12669">
        <ele>89.6</ele>
        <time>2023-06-17T16:29:52.330Z</time>
      </trkpt>
      <trkpt lat="46.34956" lon="-0.12663">
        <ele>89.95</ele>
        <time>2023-06-17T16:30:50.090Z</time>
      </trkpt>
      <trkpt lat="46.34947" lon="-0.12656">
        <ele>90.42</ele>
        <time>2023-06-17T16:31:47.851Z</time>
      </trkpt>
      <trkpt lat="46.34936" lon="-0.12643">
        <ele>91.07</ele>
        <time>2023-06-17T16:32:45.614Z</time>
      </trkpt>
      <trkpt lat="46.34934" lon="-0.12634">
        <ele>91.39</ele>
        <time>2023-06-17T16:33:43.379Z</time>
      </trkpt>
      <trkpt lat="46.34928" lon="-0.12609">
        <ele>92.17</ele>
        <time>2023-06-17T16:34:41.146Z</time>
      </trkpt>
      <trkpt lat="46.34925" lon="-0.1259">
        <ele>92.75</ele>
        <time>2023-06-17T16:35:38.916Z</time>
      </trkpt>
      <trkpt lat="46.34922" lon="-0.12567">
        <ele>93.52</ele>
        <time>2023-06-17T16:36:36.688Z</time>
      </trkpt>
      <trkpt lat="46.34919" lon="-0.12553">
        <ele>94.01</ele>
        <time>2023-06-17T16:37:34.462Z</time>
      </trkpt>
      <trkpt lat="46.34915" lon="-0.12535">
        <ele>94.59</ele>
        <time>2023-06-17T16:38:32.238Z</time>
      </trkpt>
      <trkpt lat="46.34911" lon="-0.12516">
        <ele>95.09</ele>
        <time>2023-06-17T16:39:30.016Z</time>
      </trkpt>
      <trkpt lat="46.34905" lon="-0.12492">
        <ele>95.73</ele>
        <time>2023-06-17T16:40:27.797Z</time>
      </trkpt>
      <trkpt lat="46.34896" lon="-0.12448">
        <ele>96.97</ele>
        <time>2023-06-17T16:41:25.583Z</time>
      </trkpt>
      <trkpt lat="46.34892" lon="-0.1243">
        <ele>97.43</ele>
        <time>2023-06-17T16:42:23.371Z</time>
      </trkpt>
      <trkpt lat="46.34889" lon="-0.12411">
        <ele>97.89</ele>
        <time>2023-06-17T16:43:21.161Z</time>
      </trkpt>
      <trkpt lat="46.34883" lon="-0.1238">
        <ele>98.56</ele>
        <time>2023-06-17T16:44:18.955Z</time>
      </trkpt>
      <trkpt lat="46.34881" lon="-0.12368">
        <ele>98.85</ele>
        <time>2023-06-17T16:45:16.750Z</time>
      </trkpt>
      <trkpt lat="46.34877" lon="-0.12349">
        <ele>99.33</ele>
        <time>2023-06-17T16:46:14.547Z</time>
      </trkpt>
      <trkpt lat="46.34873" lon="-0.12324">
        <ele>100.02</ele>
        <time>2023-06-17T16:47:12.347Z</time>
      </trkpt>
      <trkpt lat="46.34871" lon="-0.12312">
        <ele>100.34</ele>
        <time>2023-06-17T16:48:10.149Z</time>
      </trkpt>
      <trkpt lat="46.34867" lon="-0.12293">
        <ele>100.72</ele>
        <time>2023-06-17T16:49:07.953Z</time>
      </trkpt>
      <trkpt lat="46.34866" lon="-0.12287">
        <ele>100.8</ele>
        <time>2023-06-17T16:50:05.758Z</time>
      </trkpt>
      <trkpt lat="46.34864" lon="-0.12274">
        <ele>100.92</ele>
        <time>2023-06-17T16:51:03.564Z</time>
      </trkpt>
      <trkpt lat="46.3486" lon="-0.12256">
        <ele>100.99</ele>
        <time>2023-06-17T16:52:01.372Z</time>
      </trkpt>
      <trkpt lat="46.34848" lon="-0.12187">
        <ele>101.06</ele>
        <time>2023-06-17T16:52:59.188Z</time>
      </trkpt>
      <trkpt lat="46.34846" lon="-0.12174">
        <ele>100.64</ele>
        <time>2023-06-17T16:53:57.005Z</time>
      </trkpt>
      <trkpt lat="46.34843" lon="-0.12162">
        <ele>100.27</ele>
        <time>2023-06-17T16:54:54.824Z</time>
      </trkpt>
      <trkpt lat="46.34841" lon="-0.12149">
        <ele>99.97</ele>
        <time>2023-06-17T16:55:52.644Z</time>
      </trkpt>
      <trkpt lat="46.34839" lon="-0.12137">
        <ele>99.75</ele>
        <time>2023-06-17T16:56:50.466Z</time>
      </trkpt>
      <trkpt lat="46.34838" lon="-0.1213">
        <ele>99.67</ele>
        <time>2023-06-17T16:57:48.288Z</time>
      </trkpt>
      <trkpt lat="46.34835" lon="-0.12118">
        <ele>99.55</ele>
        <time>2023-06-17T16:58:46.112Z</time>
      </trkpt>
      <trkpt lat="46.34835" lon="-0.12115">
        <ele>99.53</ele>
        <time>2023-06-17T16:59:43.936Z</time>
      </trkpt>
      <trkpt lat="46.34853" lon="-0.12102">
        <ele>99.36</ele>
        <time>2023-06-17T17:00:41.763Z</time>
      </trkpt>
      <trkpt lat="46.34858" lon="-0.12098">
        <ele>99.3</ele>
        <time>2023-06-17T17:01:39.591Z</time>
      </trkpt>
      <trkpt lat="46.34861" lon="-0.12096">
        <ele>99.27</ele>
        <time>2023-06-17T17:02:37.420Z</time>
      </trkpt>
      <trkpt lat="46.34884" lon="-0.12086">
        <ele>98.92</ele>
        <time>2023-06-17T17:03:35.253Z</time>
      </trkpt>
      <trkpt lat="46.34887" lon="-0.12085">
        <ele>98.88</ele>
        <time>2023-06-17T17:04:33.086Z</time>
      </trkpt>
      <trkpt lat="46.34913" lon="-0.12078">
        <ele>98.59</ele>
        <time>2023-06-17T17:05:30.923Z</time>
      </trkpt>
      <trkpt lat="46.34922" lon="-0.12076">
        <ele>98.45</ele>
        <time>2023-06-17T17:06:28.762Z</time>
      </trkpt>
      <trkpt lat="46.34949" lon="-0.12069">
        <ele>97.91</ele>
        <time>2023-06-17T17:07:26.605Z</time>
      </trkpt>
      <trkpt lat="46.34964" lon="-0.12065">
        <ele>97.62</ele>
        <time>2023-06-17T17:08:24.451Z</time>
      </trkpt>
      <trkpt lat="46.34979" lon="-0.12063">
        <ele>97.35</ele>
        <time>2023-06-17T17:09:22.299Z</time>
      </trkpt>
      <trkpt lat="46.34988" lon="-0.12061">
        <ele>97.17</ele>
        <time>2023-06-17T17:10:20.149Z</time>
      </trkpt>
      <trkpt lat="46.35009" lon="-0.12058">
        <ele>96.66</ele>
        <time>2023-06-17T17:11:18.002Z</time>
      </trkpt>
      <trkpt lat="46.3501" lon="-0.12057">
        <ele>96.63</ele>
        <time>2023-06-17T17:12:15.855Z</time>
      </trkpt>
      <trkpt lat="46.3503" lon="-0.12051">
        <ele>96.2</ele>
        <time>2023-06-17T17:13:13.711Z</time>
      </trkpt>
      <trkpt lat="46.35041" lon="-0.12045">
        <ele>95.96</ele>
        <time>2023-06-17T17:14:11.569Z</time>
      </trkpt>
      <trkpt lat="46.35051" lon="-0.1204">
        <ele>95.65</ele>
        <time>2023-06-17T17:15:09.429Z</time>
      </trkpt>
      <trkpt lat="46.35057" lon="-0.12036">
        <ele>95.47</ele>
        <time>2023-06-17T17:16:07.290Z</time>
      </trkpt>
      <trkpt lat="46.35065" lon="-0.1203">
        <ele>95.26</ele>
        <time>2023-06-17T17:17:05.153Z</time>
      </trkpt>
      <trkpt lat="46.35077" lon="-0.12021">
        <ele>95.03</ele>
        <time>2023-06-17T17:18:03.018Z</time>
      </trkpt>
      <trkpt lat="46.35096" lon="-0.12008">
        <ele>94.71</ele>
        <time>2023-06-17T17:19:00.886Z</time>
      </trkpt>
      <trkpt lat="46.35126" lon="-0.11976">
        <ele>94.16</ele>
        <time>2023-06-17T17:19:58.760Z</time>
      </trkpt>
      <trkpt lat="46.35137" lon="-0.11965">
        <ele>93.92</ele>
        <time>2023-06-17T17:20:56.636Z</time>
      </trkpt>
      <trkpt lat="46.3516" lon="-0.11946">
        <ele>93.46</ele>
        <time>2023-06-17T17:21:54.516Z</time>
      </trkpt>
      <trkpt lat="46.35164" lon="-0.11943">
        <ele>93.37</ele>
        <time>2023-06-17T17:22:52.397Z</time>
      </trkpt>
      <trkpt lat="46.35172" lon="-0.11938">
        <ele>93.18</ele>
        <time>2023-06-17T17:23:50.280Z</time>
      </trkpt>
      <trkpt lat="46.35185" lon="-0.1193">
        <ele>92.83</ele>
        <time>2023-06-17T17:24:48.165Z</time>
      </trkpt>
      <trkpt lat="46.35209" lon="-0.11914">
        <ele>92.01</ele>
        <time>2023-06-17T17:25:46.054Z</time>
      </trkpt>
      <trkpt lat="46.35229" lon="-0.11901">
        <ele>91.45</ele>
        <time>2023-06-17T17:26:43.946Z</time>
      </trkpt>
      <trkpt lat="46.35229" lon="-0.11901">
        <ele>91.45</ele>
        <time>2023-06-17T17:27:41.839Z</time>
      </trkpt>
      <trkpt lat="46.35242" lon="-0.11892">
        <ele>91.08</ele>
        <time>2023-06-17T17:28:39.734Z</time>
      </trkpt>
      <trkpt lat="46.35249" lon="-0.11887">
        <ele>90.82</ele>
        <time>2023-06-17T17:29:37.630Z</time>
      </trkpt>
      <trkpt lat="46.35258" lon="-0.11881">
        <ele>90.52</ele>
        <time>2023-06-17T17:30:35.528Z</time>
      </trkpt>
      <trkpt lat="46.35262" lon="-0.11878">
        <ele>90.34</ele>
        <time>2023-06-17T17:31:33.426Z</time>
      </trkpt>
      <trkpt lat="46.35266" lon="-0.11875">
        <ele>90.13</ele>
        <time>2023-06-17T17:32:31.325Z</time>
      </trkpt>
      <trkpt lat="46.3527" lon="-0.11872">
        <ele>89.9</ele>
        <time>2023-06-17T17:33:29.225Z</time>
      </trkpt>
      <trkpt lat="46.3527" lon="-0.11872">
        <ele>89.9</ele>
        <time>2023-06-17T17:34:27.125Z</time>
      </trkpt>
      <trkpt lat="46.35295" lon="-0.1186">
        <ele>88.29</ele>
        <time>2023-06-17T17:35:25.029Z</time>
      </trkpt>
      <trkpt lat="46.35309" lon="-0.11854">
        <ele>88.08</ele>
        <time>2023-06-17T17:36:22.935Z</time>
      </trkpt>
      <trkpt lat="46.35321" lon="-0.11848">
        <ele>87.29</ele>
        <time>2023-06-17T17:37:20.843Z</time>
      </trkpt>
      <trkpt lat="46.35324" lon="-0.11847">
        <ele>87.11</ele>
        <time>2023-06-17T17:38:18.752Z</time>
      </trkpt>
      <trkpt lat="46.35334" lon="-0.11842">
        <ele>86.56</ele>
        <time>2023-06-17T17:39:16.662Z</time>
      </trkpt>
      <trkpt lat="46.35342" lon="-0.11838">
        <ele>86.14</ele>
        <time>2023-06-17T17:40:14.574Z</time>
      </trkpt>
      <trkpt lat="46.35343" lon="-0.11837">
        <ele>86.08</ele>
        <time>2023-06-17T17:41:12.486Z</time>
      </trkpt>
      <trkpt lat="46.35348" lon="-0.11845">
        <ele>85.78</ele>
        <time>2023-06-17T17:42:10.399Z</time>
      </trkpt>
      <trkpt lat="46.35352" lon="-0.11853">
        <ele>85.55</ele>
        <time>2023-06-17T17:43:08.313Z</time>
      </trkpt>
      <trkpt lat="46.35354" lon="-0.11851">
        <ele>85.49</ele>
        <time>2023-06-17T17:44:06.228Z</time>
      </trkpt>
      <trkpt lat="46.35361" lon="-0.11844">
        <ele>85.24</ele>
        <time>2023-06-17T17:45:04.144Z</time>
      </trkpt>
      <trkpt lat="46.35368" lon="-0.11837">
        <ele>85.01</ele>
        <time>2023-06-17T17:46:02.062Z</time>
      </trkpt>
      <trkpt lat="46.35387" lon="-0.1182">
        <ele>84.48</ele>
        <time>2023-06-17T17:46:59.983Z</time>
      </trkpt>
      <trkpt lat="46.35398" lon="-0.11809">
        <ele>84.12</ele>
        <time>2023-06-17T17:47:57.906Z</time>
      </trkpt>
      <trkpt lat="46.35405" lon="-0.11802">
        <ele>83.83</ele>
        <time>2023-06-17T17:48:55.831Z</time>
      </trkpt>
      <trkpt lat="46.35413" lon="-0.11795">
        <ele>83.45</ele>
        <time>2023-06-17T17:49:53.757Z</time>
      </trkpt>
      <trkpt lat="46.3542" lon="-0.11788">
        <ele>82.98</ele>
        <time>2023-06-17T17:50:51.684Z</time>
      </trkpt>
      <trkpt lat="46.35427" lon="-0.11781">
        <ele>82.46</ele>
        <time>2023-06-17T17:51:49.613Z</time>
      </trkpt>
      <trkpt lat="46.35435" lon="-0.11774">
        <ele>81.91</ele>
        <time>2023-06-17T17:52:47.543Z</time>
      </trkpt>
      <trkpt lat="46.35468" lon="-0.11743">
        <ele>79.36</ele>
        <time>2023-06-17T17:53:45.480Z</time>
      </trkpt>
      <trkpt lat="46.35475" lon="-0.11736">
        <ele>78.75</ele>
        <time>2023-06-17T17:54:43.418Z</time>
      </trkpt>
      <trkpt lat="46.35479" lon="-0.11732">
        <ele>78.47</ele>
        <time>2023-06-17T17:55:41.357Z</time>
      </trkpt>
      <trkpt lat="46.35486" lon="-0.11725">
        <ele>77.97</ele>
        <time>2023-06-17T17:56:39.297Z</time>
      </trkpt>
      <trkpt lat="46.3549" lon="-0.11721">
        <ele>77.75</ele>
        <time>2023-06-17T17:57:37.238Z</time>
      </trkpt>
      <trkpt lat="46.35494" lon="-0.11718">
        <ele>77.56</ele>
        <time>2023-06-17T17:58:35.180Z</time>
      </trkpt>
      <trkpt lat="46.35497" lon="-0.11714">
        <ele>77.39</ele>
        <time>2023-06-17T17:59:33.122Z</time>
      </trkpt>
      <trkpt lat="46.35501" lon="-0.11711">
        <ele>77.24</ele>
        <time>2023-06-17T18:00:31.065Z</time>
      </trkpt>
      <trkpt lat="46.35509" lon="-0.11704">
        <ele>77</ele>
        <time>2023-06-17T18:01:29.009Z</time>
      </trkpt>
      <trkpt lat="46.35516" lon="-0.11697">
        <ele>76.84</ele>
        <time>2023-06-17T18:02:26.955Z</time>
      </trkpt>
      <trkpt lat="46.35524" lon="-0.11689">
        <ele>76.73</ele>
        <time>2023-06-17T18:03:24.902Z</time>
      </trkpt>
      <trkpt lat="46.35542" lon="-0.11672">
        <ele>76.51</ele>
        <time>2023-06-17T18:04:22.853Z</time>
      </trkpt>
      <trkpt lat="46.35557" lon="-0.11657">
        <ele>76.43</ele>
        <time>2023-06-17T18:05:20.807Z</time>
      </trkpt>
      <trkpt lat="46.35585" lon="-0.11631">
        <ele>76.4</ele>
        <time>2023-06-17T18:06:18.766Z</time>
      </trkpt>
      <trkpt lat="46.35587" lon="-0.11629">
        <ele>76.4</ele>
        <time>2023-06-17T18:07:16.725Z</time>
      </trkpt>
      <trkpt lat="46.35599" lon="-0.1162">
        <ele>76.4</ele>
        <time>2023-06-17T18:08:14.687Z</time>
      </trkpt>
      <trkpt lat="46.35623" lon="-0.11602">
        <ele>76.46</ele>
        <time>2023-06-17T18:09:12.653Z</time>
      </trkpt>
      <trkpt lat="46.35636" lon="-0.11593">
        <ele>76.46</ele>
        <time>2023-06-17T18:10:10.621Z</time>
      </trkpt>
      <trkpt lat="46.35643" lon="-0.11587">
        <ele>76.47</ele>
        <time>2023-06-17T18:11:08.591Z</time>
      </trkpt>
      <trkpt lat="46.35662" lon="-0.11569">
        <ele>76.51</ele>
        <time>2023-06-17T18:12:06.564Z</time>
      </trkpt>
      <trkpt lat="46.35673" lon="-0.11558">
        <ele>76.59</ele>
        <time>2023-06-17T18:13:04.539Z</time>
      </trkpt>
      <trkpt lat="46.35686" lon="-0.11546">
        <ele>76.74</ele>
        <time>2023-06-17T18:14:02.517Z</time>
      </trkpt>
      <trkpt lat="46.35675" lon="-0.11514">
        <ele>76.98</ele>
        <time>2023-06-17T18:15:00.499Z</time>
      </trkpt>
      <trkpt lat="46.35669" lon="-0.11497">
        <ele>77.09</ele>
        <time>2023-06-17T18:15:58.483Z</time>
      </trkpt>
      <trkpt lat="46.35669" lon="-0.11497">
        <ele>77.09</ele>
        <time>2023-06-17T18:16:56.467Z</time>
      </trkpt>
      <trkpt lat="46.35664" lon="-0.11486">
        <ele>77.11</ele>
        <time>2023-06-17T18:17:54.452Z</time>
      </trkpt>
      <trkpt lat="46.35659" lon="-0.11476">
        <ele>77.16</ele>
        <time>2023-06-17T18:18:52.439Z</time>
      </trkpt>
      <trkpt lat="46.35645" lon="-0.11444">
        <ele>77.45</ele>
        <time>2023-06-17T18:19:50.430Z</time>
      </trkpt>
      <trkpt lat="46.35641" lon="-0.11434">
        <ele>77.5</ele>
        <time>2023-06-17T18:20:48.422Z</time>
      </trkpt>
      <trkpt lat="46.35641" lon="-0.11433">
        <ele>77.51</ele>
        <time>2023-06-17T18:21:46.414Z</time>
      </trkpt>
      <trkpt lat="46.35645" lon="-0.11421">
        <ele>77.49</ele>
        <time>2023-06-17T18:22:44.408Z</time>
      </trkpt>
      <trkpt lat="46.35654" lon="-0.11392">
        <ele>77.34</ele>
        <time>2023-06-17T18:23:42.405Z</time>
      </trkpt>
      <trkpt lat="46.3566" lon="-0.11374">
        <ele>77.34</ele>
        <time>2023-06-17T18:24:40.404Z</time>
      </trkpt>
      <trkpt lat="46.3566" lon="-0.11374">
        <ele>77.34</ele>
        <time>2023-06-17T18:25:38.403Z</time>
      </trkpt>
      <trkpt lat="46.35661" lon="-0.11369">
        <ele>77.36</ele>
        <time>2023-06-17T18:26:36.403Z</time>
      </trkpt>
      <trkpt lat="46.35662" lon="-0.11363">
        <ele>77.4</ele>
        <time>2023-06-17T18:27:34.404Z</time>
      </trkpt>
      <trkpt lat="46.35665" lon="-0.11351">
        <ele>77.53</ele>
        <time>2023-06-17T18:28:32.406Z</time>
      </trkpt>
      <trkpt lat="46.35669" lon="-0.11332">
        <ele>77.79</ele>
        <time>2023-06-17T18:29:30.410Z</time>
      </trkpt>
      <trkpt lat="46.35671" lon="-0.11322">
        <ele>77.97</ele>
        <time>2023-06-17T18:30:28.416Z</time>
      </trkpt>
      <trkpt lat="46.35657" lon="-0.11324">
        <ele>78.32</ele>
        <time>2023-06-17T18:31:26.424Z</time>
      </trkpt>
      <trkpt lat="46.35655" lon="-0.11324">
        <ele>78.35</ele>
        <time>2023-06-17T18:32:24.432Z</time>
      </trkpt>
      <trkpt lat="46.35649" lon="-0.11321">
        <ele>78.49</ele>
        <time>2023-06-17T18:33:22.441Z</time>
      </trkpt>
      <trkpt lat="46.35642" lon="-0.11317">
        <ele>78.66</ele>
        <time>2023-06-17T18:34:20.451Z</time>
      </trkpt>
      <trkpt lat="46.35635" lon="-0.11306">
        <ele>78.91</ele>
        <time>2023-06-17T18:35:18.463Z</time>
      </trkpt>
      <trkpt lat="46.35635" lon="-0.11305">
        <ele>78.91</ele>
        <time>2023-06-17T18:36:16.475Z</time>
      </trkpt>
      <trkpt lat="46.35626" lon="-0.1129">
        <ele>79.29</ele>
        <time>2023-06-17T18:37:14.489Z</time>
      </trkpt>
      <trkpt lat="46.35623" lon="-0.11285">
        <ele>79.4</ele>
        <time>2023-06-17T18:38:12.504Z</time>
      </trkpt>
      <trkpt lat="46.35623" lon="-0.11285">
        <ele>79.4</ele>
        <time>2023-06-17T18:39:10.519Z</time>
      </trkpt>
      <trkpt lat="46.35621" lon="-0.1128">
        <ele>79.48</ele>
        <time>2023-06-17T18:40:08.535Z</time>
      </trkpt>
      <trkpt lat="46.35618" lon="-0.11275">
        <ele>79.53</ele>
        <time>2023-06-17T18:41:06.551Z</time>
      </trkpt>
      <trkpt lat="46.35611" lon="-0.11258">
        <ele>79.61</ele>
        <time>2023-06-17T18:42:04.570Z</time>
      </trkpt>
      <trkpt lat="46.35608" lon="-0.11253">
        <ele>79.66</ele>
        <time>2023-06-17T18:43:02.589Z</time>
      </trkpt>
      <trkpt lat="46.35603" lon="-0.11242">
        <ele>79.82</ele>
        <time>2023-06-17T18:44:00.610Z</time>
      </trkpt>
      <trkpt lat="46.35598" lon="-0.11231">
        <ele>80.07</ele>
        <time>2023-06-17T18:44:58.632Z</time>
      </trkpt>
      <trkpt lat="46.35593" lon="-0.1122">
        <ele>80.31</ele>
        <time>2023-06-17T18:45:56.656Z</time>
      </trkpt>
      <trkpt lat="46.3559" lon="-0.11217">
        <ele>80.4</ele>
        <time>2023-06-17T18:46:54.680Z</time>
      </trkpt>
      <trkpt lat="46.35584" lon="-0.11209">
        <ele>80.64</ele>
        <time>2023-06-17T18:47:52.706Z</time>
      </trkpt>
      <trkpt lat="46.35575" lon="-0.11199">
        <ele>80.97</ele>
        <time>2023-06-17T18:48:50.733Z</time>
      </trkpt>
      <trkpt lat="46.35574" lon="-0.11196">
        <ele>81.04</ele>
        <time>2023-06-17T18:49:48.761Z</time>
      </trkpt>
      <trkpt lat="46.35571" lon="-0.11188">
        <ele>81.25</ele>
        <time>2023-06-17T18:50:46.790Z</time>
      </trkpt>
      <trkpt lat="46.35572" lon="-0.11179">
        <ele>81.47</ele>
        <time>2023-06-17T18:51:44.820Z</time>
      </trkpt>
      <trkpt lat="46.35573" lon="-0.11172">
        <ele>81.53</ele>
        <time>2023-06-17T18:52:42.851Z</time>
      </trkpt>
      <trkpt lat="46.35571" lon="-0.11167">
        <ele>81.58</ele>
        <time>2023-06-17T18:53:40.882Z</time>
      </trkpt>
      <trkpt lat="46.35567" lon="-0.11156">
        <ele>81.66</ele>
        <time>2023-06-17T18:54:38.915Z</time>
      </trkpt>
      <trkpt lat="46.35564" lon="-0.11135">
        <ele>81.79</ele>
        <time>2023-06-17T18:55:36.950Z</time>
      </trkpt>
      <trkpt lat="46.35564" lon="-0.11133">
        <ele>81.81</ele>
        <time>2023-06-17T18:56:34.985Z</time>
      </trkpt>
      <trkpt lat="46.35565" lon="-0.11107">
        <ele>81.93</ele>
        <time>2023-06-17T18:57:33.023Z</time>
      </trkpt>
      <trkpt lat="46.35566" lon="-0.11095">
        <ele>81.97</ele>
        <time>2023-06-17T18:58:31.062Z</time>
      </trkpt>
      <trkpt lat="46.35566" lon="-0.11094">
        <ele>81.97</ele>
        <time>2023-06-17T18:59:29.101Z</time>
      </trkpt>
      <trkpt lat="46.3557" lon="-0.11082">
        <ele>81.97</ele>
        <time>2023-06-17T19:00:27.142Z</time>
      </trkpt>
      <trkpt lat="46.35575" lon="-0.11064">
        <ele>81.93</ele>
        <time>2023-06-17T19:01:25.185Z</time>
      </trkpt>
      <trkpt lat="46.3558" lon="-0.11046">
        <ele>81.81</ele>
        <time>2023-06-17T19:02:23.230Z</time>
      </trkpt>
      <trkpt lat="46.35586" lon="-0.11022">
        <ele>81.53</ele>
        <time>2023-06-17T19:03:21.278Z</time>
      </trkpt>
      <trkpt lat="46.3559" lon="-0.1101">
        <ele>81.42</ele>
        <time>2023-06-17T19:04:19.328Z</time>
      </trkpt>
      <trkpt lat="46.35591" lon="-0.11004">
        <ele>81.39</ele>
        <time>2023-06-17T19:05:17.378Z</time>
      </trkpt>
      <trkpt lat="46.35593" lon="-0.10998">
        <ele>81.39</ele>
        <time>2023-06-17T19:06:15.429Z</time>
      </trkpt>
      <trkpt lat="46.35596" lon="-0.10986">
        <ele>81.44</ele>
        <time>2023-06-17T19:07:13.481Z</time>
      </trkpt>
      <trkpt lat="46.35601" lon="-0.1097">
        <ele>81.8</ele>
        <time>2023-06-17T19:08:11.535Z</time>
      </trkpt>
      <trkpt lat="46.35601" lon="-0.10968">
        <ele>81.84</ele>
        <time>2023-06-17T19:09:09.590Z</time>
      </trkpt>
      <trkpt lat="46.35604" lon="-0.10956">
        <ele>82.15</ele>
        <time>2023-06-17T19:10:07.646Z</time>
      </trkpt>
      <trkpt lat="46.35607" lon="-0.10944">
        <ele>82.5</ele>
        <time>2023-06-17T19:11:05.703Z</time>
      </trkpt>
      <trkpt lat="46.35611" lon="-0.10923">
        <ele>83.17</ele>
        <time>2023-06-17T19:12:03.763Z</time>
      </trkpt>
      <trkpt lat="46.35612" lon="-0.1092">
        <ele>83.29</ele>
        <time>2023-06-17T19:13:01.823Z</time>
      </trkpt>
      <trkpt lat="46.35615" lon="-0.10915">
        <ele>83.56</ele>
        <time>2023-06-17T19:13:59.884Z</time>
      </trkpt>
      <trkpt lat="46.35617" lon="-0.10903">
        <ele>84.12</ele>
        <time>2023-06-17T19:14:57.946Z</time>
      </trkpt>
      <trkpt lat="46.3562" lon="-0.10891">
        <ele>84.75</ele>
        <time>2023-06-17T19:15:56.010Z</time>
      </trkpt>
      <trkpt lat="46.35622" lon="-0.10879">
        <ele>85.43</ele>
        <time>2023-06-17T19:16:54.075Z</time>
      </trkpt>
      <trkpt lat="46.3563" lon="-0.10844">
        <ele>87.53</ele>
        <time>2023-06-17T19:17:52.144Z</time>
      </trkpt>
      <trkpt lat="46.35639" lon="-0.10799">
        <ele>89.81</ele>
        <time>2023-06-17T19:18:50.218Z</time>
      </trkpt>
      <trkpt lat="46.35638" lon="-0.10783">
        <ele>90.62</ele>
        <time>2023-06-17T19:19:48.294Z</time>
      </trkpt>
      <trkpt lat="46.35638" lon="-0.1077">
        <ele>91.18</ele>
        <time>2023-06-17T19:20:46.371Z</time>
      </trkpt>
      <trkpt lat="46.35637" lon="-0.10764">
        <ele>91.47</ele>
        <time>2023-06-17T19:21:44.449Z</time>
      </trkpt>
      <trkpt lat="46.35635" lon="-0.10755">
        <ele>91.84</ele>
        <time>2023-06-17T19:22:42.528Z</time>
      </trkpt>
      <trkpt lat="46.35634" lon="-0.10752">
        <ele>91.98</ele>
        <time>2023-06-17T19:23:40.608Z</time>
      </trkpt>
      <trkpt lat="46.35627" lon="-0.10736">
        <ele>92.65</ele>
        <time>2023-06-17T19:24:38.690Z</time>
      </trkpt>
      <trkpt lat="46.35626" lon="-0.10733">
        <ele>92.74</ele>
        <time>2023-06-17T19:25:36.772Z</time>
      </trkpt>
      <trkpt lat="46.35616" lon="-0.10716">
        <ele>93.45</ele>
        <time>2023-06-17T19:26:34.857Z</time>
      </trkpt>
      <trkpt lat="46.35605" lon="-0.10697">
        <ele>94.13</ele>
        <time>2023-06-17T19:27:32.944Z</time>
      </trkpt>
      <trkpt lat="46.35595" lon="-0.10681">
        <ele>94.63</ele>
        <time>2023-06-17T19:28:31.034Z</time>
      </trkpt>
      <trkpt lat="46.35593" lon="-0.10678">
        <ele>94.73</ele>
        <time>2023-06-17T19:29:29.124Z</time>
      </trkpt>
      <trkpt lat="46.35584" lon="-0.10664">
        <ele>94.02</ele>
        <time>2023-06-17T19:30:27.216Z</time>
      </trkpt>
      <trkpt lat="46.35574" lon="-0.1065">
        <ele>93.36</ele>
        <time>2023-06-17T19:31:25.310Z</time>
      </trkpt>
      <trkpt lat="46.35565" lon="-0.10636">
        <ele>92.76</ele>
        <time>2023-06-17T19:32:23.407Z</time>
      </trkpt>
      <trkpt lat="46.35557" lon="-0.10624">
        <ele>92.26</ele>
        <time>2023-06-17T19:33:21.505Z</time>
      </trkpt>
      <trkpt lat="46.35551" lon="-0.10621">
        <ele>92.01</ele>
        <time>2023-06-17T19:34:19.604Z</time>
      </trkpt>
      <trkpt lat="46.35539" lon="-0.10614">
        <ele>91.49</ele>
        <time>2023-06-17T19:35:17.706Z</time>
      </trkpt>
      <trkpt lat="46.35534" lon="-0.10612">
        <ele>91.31</ele>
        <time>2023-06-17T19:36:15.808Z</time>
      </trkpt>
      <trkpt lat="46.35526" lon="-0.10607">
        <ele>91.01</ele>
        <time>2023-06-17T19:37:13.912Z</time>
      </trkpt>
      <trkpt lat="46.35518" lon="-0.10601">
        <ele>90.75</ele>
        <time>2023-06-17T19:38:12.017Z</time>
      </trkpt>
      <trkpt lat="46.3551" lon="-0.10596">
        <ele>90.53</ele>
        <time>2023-06-17T19:39:10.124Z</time>
      </trkpt>
      <trkpt lat="46.35486" lon="-0.10579">
        <ele>89.21</ele>
        <time>2023-06-17T19:40:08.235Z</time>
      </trkpt>
      <trkpt lat="46.35478" lon="-0.10573">
        <ele>88.74</ele>
        <time>2023-06-17T19:41:06.347Z</time>
      </trkpt>
      <trkpt lat="46.35474" lon="-0.10571">
        <ele>88.48</ele>
        <time>2023-06-17T19:42:04.460Z</time>
      </trkpt>
      <trkpt lat="46.35466" lon="-0.10565">
        <ele>87.9</ele>
        <time>2023-06-17T19:43:02.574Z</time>
      </trkpt>
      <trkpt lat="46.35446" lon="-0.10551">
        <ele>86.34</ele>
        <time>2023-06-17T19:44:00.692Z</time>
      </trkpt>
      <trkpt lat="46.35442" lon="-0.10548">
        <ele>86.06</ele>
        <time>2023-06-17T19:44:58.811Z</time>
      </trkpt>
      <trkpt lat="46.35438" lon="-0.10546">
        <ele>85.81</ele>
        <time>2023-06-17T19:45:56.930Z</time>
      </trkpt>
      <trkpt lat="46.3543" lon="-0.1054">
        <ele>85.37</ele>
        <time>2023-06-17T19:46:55.051Z</time>
      </trkpt>
      <trkpt lat="46.35422" lon="-0.10535">
        <ele>85</ele>
        <time>2023-06-17T19:47:53.173Z</time>
      </trkpt>
      <trkpt lat="46.35414" lon="-0.10529">
        <ele>84.68</ele>
        <time>2023-06-17T19:48:51.297Z</time>
      </trkpt>
      <trkpt lat="46.35401" lon="-0.10521">
        <ele>84.26</ele>
        <time>2023-06-17T19:49:49.423Z</time>
      </trkpt>
      <trkpt lat="46.35393" lon="-0.10515">
        <ele>84.43</ele>
        <time>2023-06-17T19:50:47.550Z</time>
      </trkpt>
      <trkpt lat="46.35393" lon="-0.10515">
        <ele>84.43</ele>
        <time>2023-06-17T19:51:45.677Z</time>
      </trkpt>
      <trkpt lat="46.3539" lon="-0.10511">
        <ele>84.54</ele>
        <time>2023-06-17T19:52:43.805Z</time>
      </trkpt>
      <trkpt lat="46.35383" lon="-0.10503">
        <ele>84.8</ele>
        <time>2023-06-17T19:53:41.934Z</time>
      </trkpt>
      <trkpt lat="46.35369" lon="-0.10487">
        <ele>85.43</ele>
        <time>2023-06-17T19:54:40.066Z</time>
      </trkpt>
      <trkpt lat="46.35368" lon="-0.10486">
        <ele>85.47</ele>
        <time>2023-06-17T19:55:38.198Z</time>
      </trkpt>
      <trkpt lat="46.35358" lon="-0.1046">
        <ele>86.17</ele>
        <time>2023-06-17T19:56:36.334Z</time>
      </trkpt>
      <trkpt lat="46.35357" lon="-0.10458">
        <ele>86.21</ele>
        <time>2023-06-17T19:57:34.470Z</time>
      </trkpt>
      <trkpt lat="46.35356" lon="-0.10447">
        <ele>86.5</ele>
        <time>2023-06-17T19:58:32.607Z</time>
      </trkpt>
      <trkpt lat="46.35356" lon="-0.1044">
        <ele>86.69</ele>
        <time>2023-06-17T19:59:30.745Z</time>
      </trkpt>
      <trkpt lat="46.35357" lon="-0.10428">
        <ele>87.05</ele>
        <time>2023-06-17T20:00:28.884Z</time>
      </trkpt>
      <trkpt lat="46.35358" lon="-0.10415">
        <ele>87.35</ele>
        <time>2023-06-17T20:01:27.025Z</time>
      </trkpt>
      <trkpt lat="46.35359" lon="-0.10402">
        <ele>87.57</ele>
        <time>2023-06-17T20:02:25.167Z</time>
      </trkpt>
      <trkpt lat="46.3536" lon="-0.1039">
        <ele>87.73</ele>
        <time>2023-06-17T20:03:23.311Z</time>
      </trkpt>
      <trkpt lat="46.35362" lon="-0.10383">
        <ele>87.84</ele>
        <time>2023-06-17T20:04:21.455Z</time>
      </trkpt>
      <trkpt lat="46.35364" lon="-0.10377">
        <ele>87.96</ele>
        <time>2023-06-17T20:05:19.600Z</time>
      </trkpt>
      <trkpt lat="46.35367" lon="-0.10365">
        <ele>88.27</ele>
        <time>2023-06-17T20:06:17.747Z</time>
      </trkpt>
      <trkpt lat="46.35369" lon="-0.10359">
        <ele>88.46</ele>
        <time>2023-06-17T20:07:15.894Z</time>
      </trkpt>
      <trkpt lat="46.35373" lon="-0.10348">
        <ele>88.88</ele>
        <time>2023-06-17T20:08:14.043Z</time>
      </trkpt>
      <trkpt lat="46.35376" lon="-0.10336">
        <ele>89.37</ele>
        <time>2023-06-17T20:09:12.193Z</time>
      </trkpt>
      <trkpt lat="46.3538" lon="-0.10324">
        <ele>89.94</ele>
        <time>2023-06-17T20:10:10.345Z</time>
      </trkpt>
      <trkpt lat="46.35382" lon="-0.10316">
        <ele>90.33</ele>
        <time>2023-06-17T20:11:08.498Z</time>
      </trkpt>
      <trkpt lat="46.35393" lon="-0.1029">
        <ele>91.76</ele>
        <time>2023-06-17T20:12:06.654Z</time>
      </trkpt>
      <trkpt lat="46.35401" lon="-0.10275">
        <ele>92.66</ele>
        <time>2023-06-17T20:13:04.812Z</time>
      </trkpt>
      <trkpt lat="46.35404" lon="-0.10269">
        <ele>92.92</ele>
        <time>2023-06-17T20:14:02.971Z</time>
      </trkpt>
      <trkpt lat="46.35406" lon="-0.10264">
        <ele>93.16</ele>
        <time>2023-06-17T20:15:01.130Z</time>
      </trkpt>
      <trkpt lat="46.35409" lon="-0.10259">
        <ele>93.35</ele>
        <time>2023-06-17T20:15:59.290Z</time>
      </trkpt>
      <trkpt lat="46.35412" lon="-0.10254">
        <ele>93.51</ele>
        <time>2023-06-17T20:16:57.451Z</time>
      </trkpt>
      <trkpt lat="46.35414" lon="-0.10249">
        <ele>93.63</ele>
        <time>2023-06-17T20:17:55.613Z</time>
      </trkpt>
      <trkpt lat="46.35428" lon="-0.10223">
        <ele>94.09</ele>
        <time>2023-06-17T20:18:53.778Z</time>
      </trkpt>
      <trkpt lat="46.3543" lon="-0.10218">
        <ele>94.18</ele>
        <time>2023-06-17T20:19:51.944Z</time>
      </trkpt>
      <trkpt lat="46.35433" lon="-0.10213">
        <ele>94.29</ele>
        <time>2023-06-17T20:20:50.111Z</time>
      </trkpt>
      <trkpt lat="46.35442" lon="-0.10199">
        <ele>94.64</ele>
        <time>2023-06-17T20:21:48.280Z</time>
      </trkpt>
      <trkpt lat="46.35448" lon="-0.10189">
        <ele>94.9</ele>
        <time>2023-06-17T20:22:46.450Z</time>
      </trkpt>
      <trkpt lat="46.35451" lon="-0.10184">
        <ele>95.07</ele>
        <time>2023-06-17T20:23:44.621Z</time>
      </trkpt>
      <trkpt lat="46.35454" lon="-0.1018">
        <ele>95.28</ele>
        <time>2023-06-17T20:24:42.793Z</time>
      </trkpt>
      <trkpt lat="46.35457" lon="-0.10175">
        <ele>95.54</ele>
        <time>2023-06-17T20:25:40.965Z</time>
      </trkpt>
      <trkpt lat="46.35463" lon="-0.10165">
        <ele>96.19</ele>
        <time>2023-06-17T20:26:39.139Z</time>
      </trkpt>
      <trkpt lat="46.35466" lon="-0.10161">
        <ele>96.49</ele>
        <time>2023-06-17T20:27:37.313Z</time>
      </trkpt>
      <trkpt lat="46.35466" lon="-0.1016">
        <ele>96.49</ele>
        <time>2023-06-17T20:28:35.488Z</time>
      </trkpt>
      <trkpt lat="46.3547" lon="-0.10156">
        <ele>96.68</ele>
        <time>2023-06-17T20:29:33.663Z</time>
      </trkpt>
      <trkpt lat="46.35473" lon="-0.10151">
        <ele>96.76</ele>
        <time>2023-06-17T20:30:31.839Z</time>
      </trkpt>
      <trkpt lat="46.35476" lon="-0.10147">
        <ele>96.71</ele>
        <time>2023-06-17T20:31:30.016Z</time>
      </trkpt>
      <trkpt lat="46.35479" lon="-0.10142">
        <ele>96.59</ele>
        <time>2023-06-17T20:32:28.193Z</time>
      </trkpt>
      <trkpt lat="46.35482" lon="-0.10138">
        <ele>96.42</ele>
        <time>2023-06-17T20:33:26.371Z</time>
      </trkpt>
      <trkpt lat="46.35495" lon="-0.10119">
        <ele>95.46</ele>
        <time>2023-06-17T20:34:24.552Z</time>
      </trkpt>
      <trkpt lat="46.35501" lon="-0.1011">
        <ele>95.05</ele>
        <time>2023-06-17T20:35:22.734Z</time>
      </trkpt>
      <trkpt lat="46.35507" lon="-0.10101">
        <ele>94.69</ele>
        <time>2023-06-17T20:36:20.918Z</time>
      </trkpt>
      <trkpt lat="46.35514" lon="-0.10091">
        <ele>94.37</ele>
        <time>2023-06-17T20:37:19.103Z</time>
      </trkpt>
      <trkpt lat="46.35519" lon="-0.10084">
        <ele>94.13</ele>
        <time>2023-06-17T20:38:17.289Z</time>
      </trkpt>
      <trkpt lat="46.35529" lon="-0.10067">
        <ele>93.64</ele>
        <time>2023-06-17T20:39:15.478Z</time>
      </trkpt>
      <trkpt lat="46.3554" lon="-0.10047">
        <ele>93.15</ele>
        <time>2023-06-17T20:40:13.670Z</time>
      </trkpt>
      <trkpt lat="46.35552" lon="-0.10027">
        <ele>92.69</ele>
        <time>2023-06-17T20:41:11.865Z</time>
      </trkpt>
      <trkpt lat="46.35575" lon="-0.09987">
        <ele>91.85</ele>
        <time>2023-06-17T20:42:10.065Z</time>
      </trkpt>
      <trkpt lat="46.35589" lon="-0.09963">
        <ele>91.37</ele>
        <time>2023-06-17T20:43:08.269Z</time>
      </trkpt>
      <trkpt lat="46.35595" lon="-0.09953">
        <ele>91.15</ele>
        <time>2023-06-17T20:44:06.474Z</time>
      </trkpt>
      <trkpt lat="46.35607" lon="-0.09933">
        <ele>90.68</ele>
        <time>2023-06-17T20:45:04.682Z</time>
      </trkpt>
      <trkpt lat="46.35611" lon="-0.09925">
        <ele>90.49</ele>
        <time>2023-06-17T20:46:02.891Z</time>
      </trkpt>
      <trkpt lat="46.35622" lon="-0.09901">
        <ele>89.94</ele>
        <time>2023-06-17T20:47:01.104Z</time>
      </trkpt>
      <trkpt lat="46.35626" lon="-0.09893">
        <ele>89.78</ele>
        <time>2023-06-17T20:47:59.318Z</time>
      </trkpt>
      <trkpt lat="46.35629" lon="-0.09884">
        <ele>89.62</ele>
        <time>2023-06-17T20:48:57.533Z</time>
      </trkpt>
      <trkpt lat="46.35637" lon="-0.09854">
        <ele>89.15</ele>
        <time>2023-06-17T20:49:55.751Z</time>
      </trkpt>
      <trkpt lat="46.3564" lon="-0.09842">
        <ele>88.99</ele>
        <time>2023-06-17T20:50:53.971Z</time>
      </trkpt>
      <trkpt lat="46.35642" lon="-0.09822">
        <ele>88.75</ele>
        <time>2023-06-17T20:51:52.193Z</time>
      </trkpt>
      <trkpt lat="46.35644" lon="-0.0981">
        <ele>88.58</ele>
        <time>2023-06-17T20:52:50.416Z</time>
      </trkpt>
      <trkpt lat="46.35644" lon="-0.09785">
        <ele>88.24</ele>
        <time>2023-06-17T20:53:48.642Z</time>
      </trkpt>
      <trkpt lat="46.35644" lon="-0.09783">
        <ele>88.22</ele>
        <time>2023-06-17T20:54:46.868Z</time>
      </trkpt>
      <trkpt lat="46.3564" lon="-0.09749">
        <ele>87.76</ele>
        <time>2023-06-17T20:55:45.098Z</time>
      </trkpt>
      <trkpt lat="46.35638" lon="-0.09739">
        <ele>87.63</ele>
        <time>2023-06-17T20:56:43.329Z</time>
      </trkpt>
      <trkpt lat="46.35633" lon="-0.0972">
        <ele>87.33</ele>
        <time>2023-06-17T20:57:41.563Z</time>
      </trkpt>
      <trkpt lat="46.35621" lon="-0.09669">
        <ele>86.4</ele>
        <time>2023-06-17T20:58:39.803Z</time>
      </trkpt>
      <trkpt lat="46.35621" lon="-0.09669">
        <ele>88.17</ele>
        <time>2023-06-17T20:59:38.043Z</time>
      </trkpt>
      <trkpt lat="46.35606" lon="-0.09604">
        <ele>94.82</ele>
        <time>2023-06-17T21:00:36.290Z</time>
      </trkpt>
      <trkpt lat="46.35606" lon="-0.09604">
        <ele>92.27</ele>
        <time>2023-06-17T21:01:34.537Z</time>
      </trkpt>
      <trkpt lat="46.35604" lon="-0.09597">
        <ele>91.94</ele>
        <time>2023-06-17T21:02:32.785Z</time>
      </trkpt>
      <trkpt lat="46.35622" lon="-0.0959">
        <ele>90.71</ele>
        <time>2023-06-17T21:03:31.036Z</time>
      </trkpt>
      <trkpt lat="46.35635" lon="-0.09586">
        <ele>89.86</ele>
        <time>2023-06-17T21:04:29.289Z</time>
      </trkpt>
      <trkpt lat="46.3565" lon="-0.0958">
        <ele>89.43</ele>
        <time>2023-06-17T21:05:27.545Z</time>
      </trkpt>
      <trkpt lat="46.35649" lon="-0.09569">
        <ele>89.24</ele>
        <time>2023-06-17T21:06:25.802Z</time>
      </trkpt>
      <trkpt lat="46.35647" lon="-0.09556">
        <ele>88.96</ele>
        <time>2023-06-17T21:07:24.060Z</time>
      </trkpt>
      <trkpt lat="46.35639" lon="-0.09529">
        <ele>88.37</ele>
        <time>2023-06-17T21:08:22.322Z</time>
      </trkpt>
      <trkpt lat="46.35637" lon="-0.09524">
        <ele>88.27</ele>
        <time>2023-06-17T21:09:20.584Z</time>
      </trkpt>
      <trkpt lat="46.35633" lon="-0.09513">
        <ele>88.06</ele>
        <time>2023-06-17T21:10:18.848Z</time>
      </trkpt>
      <trkpt lat="46.35629" lon="-0.09502">
        <ele>87.89</ele>
        <time>2023-06-17T21:11:17.113Z</time>
      </trkpt>
      <trkpt lat="46.35628" lon="-0.095">
        <ele>87.86</ele>
        <time>2023-06-17T21:12:15.378Z</time>
      </trkpt>
      <trkpt lat="46.3562" lon="-0.09488">
        <ele>87.66</ele>
        <time>2023-06-17T21:13:13.645Z</time>
      </trkpt>
      <trkpt lat="46.35617" lon="-0.09484">
        <ele>87.6</ele>
        <time>2023-06-17T21:14:11.913Z</time>
      </trkpt>
      <trkpt lat="46.35613" lon="-0.09481">
        <ele>87.54</ele>
        <time>2023-06-17T21:15:10.181Z</time>
      </trkpt>
      <trkpt lat="46.35605" lon="-0.09475">
        <ele>87.44</ele>
        <time>2023-06-17T21:16:08.451Z</time>
      </trkpt>
      <trkpt lat="46.35597" lon="-0.0947">
        <ele>87.4</ele>
        <time>2023-06-17T21:17:06.722Z</time>
      </trkpt>
      <trkpt lat="46.35597" lon="-0.0947">
        <ele>87.4</ele>
        <time>2023-06-17T21:18:04.993Z</time>
      </trkpt>
      <trkpt lat="46.35588" lon="-0.09468">
        <ele>87.41</ele>
        <time>2023-06-17T21:19:03.266Z</time>
      </trkpt>
      <trkpt lat="46.35579" lon="-0.09465">
        <ele>87.46</ele>
        <time>2023-06-17T21:20:01.540Z</time>
      </trkpt>
      <trkpt lat="46.35567" lon="-0.09461">
        <ele>87.58</ele>
        <time>2023-06-17T21:20:59.816Z</time>
      </trkpt>
      <trkpt lat="46.35558" lon="-0.09459">
        <ele>87.69</ele>
        <time>2023-06-17T21:21:58.094Z</time>
      </trkpt>
      <trkpt lat="46.35549" lon="-0.09457">
        <ele>87.83</ele>
        <time>2023-06-17T21:22:56.373Z</time>
      </trkpt>
      <trkpt lat="46.35547" lon="-0.09456">
        <ele>87.87</ele>
        <time>2023-06-17T21:23:54.652Z</time>
      </trkpt>
      <trkpt lat="46.35541" lon="-0.09452">
        <ele>88.01</ele>
        <time>2023-06-17T21:24:52.932Z</time>
      </trkpt>
      <trkpt lat="46.35521" lon="-0.09439">
        <ele>88.54</ele>
        <time>2023-06-17T21:25:51.216Z</time>
      </trkpt>
      <trkpt lat="46.35509" lon="-0.09431">
        <ele>88.74</ele>
        <time>2023-06-17T21:26:49.502Z</time>
      </trkpt>
      <trkpt lat="46.35507" lon="-0.0943">
        <ele>88.77</ele>
        <time>2023-06-17T21:27:47.788Z</time>
      </trkpt>
      <trkpt lat="46.35498" lon="-0.09421">
        <ele>88.98</ele>
        <time>2023-06-17T21:28:46.076Z</time>
      </trkpt>
      <trkpt lat="46.35487" lon="-0.0941">
        <ele>89.27</ele>
        <time>2023-06-17T21:29:44.366Z</time>
      </trkpt>
      <trkpt lat="46.35476" lon="-0.09399">
        <ele>89.61</ele>
        <time>2023-06-17T21:30:42.658Z</time>
      </trkpt>
      <trkpt lat="46.35458" lon="-0.0938">
        <ele>90.26</ele>
        <time>2023-06-17T21:31:40.954Z</time>
      </trkpt>
      <trkpt lat="46.35437" lon="-0.09358">
        <ele>91.01</ele>
        <time>2023-06-17T21:32:39.254Z</time>
      </trkpt>
      <trkpt lat="46.35419" lon="-0.0934">
        <ele>91.68</ele>
        <time>2023-06-17T21:33:37.558Z</time>
      </trkpt>
      <trkpt lat="46.3539" lon="-0.09311">
        <ele>92.84</ele>
        <time>2023-06-17T21:34:35.867Z</time>
      </trkpt>
      <trkpt lat="46.35365" lon="-0.09285">
        <ele>93.94</ele>
        <time>2023-06-17T21:35:34.181Z</time>
      </trkpt>
      <trkpt lat="46.35358" lon="-0.09277">
        <ele>94.08</ele>
        <time>2023-06-17T21:36:32.497Z</time>
      </trkpt>
      <trkpt lat="46.35354" lon="-0.09274">
        <ele>94.1</ele>
        <time>2023-06-17T21:37:30.813Z</time>
      </trkpt>
      <trkpt lat="46.3535" lon="-0.0927">
        <ele>94.09</ele>
        <time>2023-06-17T21:38:29.130Z</time>
      </trkpt>
      <trkpt lat="46.35347" lon="-0.09266">
        <ele>94.05</ele>
        <time>2023-06-17T21:39:27.448Z</time>
      </trkpt>
      <trkpt lat="46.35343" lon="-0.09263">
        <ele>93.99</ele>
        <time>2023-06-17T21:40:25.767Z</time>
      </trkpt>
      <trkpt lat="46.35336" lon="-0.09255">
        <ele>93.81</ele>
        <time>2023-06-17T21:41:24.087Z</time>
      </trkpt>
      <trkpt lat="46.35328" lon="-0.09248">
        <ele>93.56</ele>
        <time>2023-06-17T21:42:22.408Z</time>
      </trkpt>
      <trkpt lat="46.35322" lon="-0.09241">
        <ele>93.3</ele>
        <time>2023-06-17T21:43:20.731Z</time>
      </trkpt>
      <trkpt lat="46.35299" lon="-0.09238">
        <ele>92.56</ele>
        <time>2023-06-17T21:44:19.057Z</time>
      </trkpt>
      <trkpt lat="46.35296" lon="-0.09238">
        <ele>92.48</ele>
        <time>2023-06-17T21:45:17.384Z</time>
      </trkpt>
      <trkpt lat="46.35264" lon="-0.09242">
        <ele>91.55</ele>
        <time>2023-06-17T21:46:15.716Z</time>
      </trkpt>
      <trkpt lat="46.3525" lon="-0.09242">
        <ele>91.15</ele>
        <time>2023-06-17T21:47:14.050Z</time>
      </trkpt>
      <trkpt lat="46.35223" lon="-0.09242">
        <ele>90.28</ele>
        <time>2023-06-17T21:48:12.389Z</time>
      </trkpt>
      <trkpt lat="46.35215" lon="-0.09238">
        <ele>90</ele>
        <time>2023-06-17T21:49:10.729Z</time>
      </trkpt>
      <trkpt lat="46.35198" lon="-0.0923">
        <ele>89.45</ele>
        <time>2023-06-17T21:50:09.072Z</time>
      </trkpt>
      <trkpt lat="46.35192" lon="-0.09227">
        <ele>89.29</ele>
        <time>2023-06-17T21:51:07.416Z</time>
      </trkpt>
      <trkpt lat="46.35182" lon="-0.09217">
        <ele>88.97</ele>
        <time>2023-06-17T21:52:05.762Z</time>
      </trkpt>
      <trkpt lat="46.35168" lon="-0.09201">
        <ele>88.55</ele>
        <time>2023-06-17T21:53:04.111Z</time>
      </trkpt>
      <trkpt lat="46.35165" lon="-0.09198">
        <ele>90.44</ele>
        <time>2023-06-17T21:54:02.460Z</time>
      </trkpt>
      <trkpt lat="46.35163" lon="-0.09194">
        <ele>92.3</ele>
        <time>2023-06-17T21:55:00.810Z</time>
      </trkpt>
      <trkpt lat="46.35158" lon="-0.09184">
        <ele>90.76</ele>
        <time>2023-06-17T21:55:59.161Z</time>
      </trkpt>
      <trkpt lat="46.35156" lon="-0.0918">
        <ele>90.04</ele>
        <time>2023-06-17T21:56:57.513Z</time>
      </trkpt>
      <trkpt lat="46.35151" lon="-0.0917">
        <ele>88.7</ele>
        <time>2023-06-17T21:57:55.866Z</time>
      </trkpt>
      <trkpt lat="46.35144" lon="-0.09156">
        <ele>86.76</ele>
        <time>2023-06-17T21:58:54.221Z</time>
      </trkpt>
      <trkpt lat="46.35138" lon="-0.09146">
        <ele>86.56</ele>
        <time>2023-06-17T21:59:52.577Z</time>
      </trkpt>
      <trkpt lat="46.35136" lon="-0.09141">
        <ele>86.42</ele>
        <time>2023-06-17T22:00:50.934Z</time>
      </trkpt>
      <trkpt lat="46.35136" lon="-0.09141">
        <ele>86.42</ele>
        <time>2023-06-17T22:01:49.291Z</time>
      </trkpt>
      <trkpt lat="46.35124" lon="-0.09151">
        <ele>85.9</ele>
        <time>2023-06-17T22:02:47.650Z</time>
      </trkpt>
      <trkpt lat="46.35116" lon="-0.09158">
        <ele>85.6</ele>
        <time>2023-06-17T22:03:46.011Z</time>
      </trkpt>
      <trkpt lat="46.35113" lon="-0.09161">
        <ele>85.49</ele>
        <time>2023-06-17T22:04:44.372Z</time>
      </trkpt>
      <trkpt lat="46.35101" lon="-0.09171">
        <ele>85.25</ele>
        <time>2023-06-17T22:05:42.736Z</time>
      </trkpt>
      <trkpt lat="46.35097" lon="-0.09173">
        <ele>85.18</ele>
        <time>2023-06-17T22:06:41.100Z</time>
      </trkpt>
      <trkpt lat="46.35092" lon="-0.09174">
        <ele>85.14</ele>
        <time>2023-06-17T22:07:39.465Z</time>
      </trkpt>
      <trkpt lat="46.35084" lon="-0.09177">
        <ele>85.12</ele>
        <time>2023-06-17T22:08:37.831Z</time>
      </trkpt>
      <trkpt lat="46.35071" lon="-0.09182">
        <ele>85.15</ele>
        <time>2023-06-17T22:09:36.200Z</time>
      </trkpt>
      <trkpt lat="46.35058" lon="-0.09187">
        <ele>85.27</ele>
        <time>2023-06-17T22:10:34.571Z</time>
      </trkpt>
      <trkpt lat="46.35049" lon="-0.0919">
        <ele>85.39</ele>
        <time>2023-06-17T22:11:32.943Z</time>
      </trkpt>
      <trkpt lat="46.35028" lon="-0.09198">
        <ele>85.87</ele>
        <time>2023-06-17T22:12:31.319Z</time>
      </trkpt>
      <trkpt lat="46.35019" lon="-0.09201">
        <ele>86.01</ele>
        <time>2023-06-17T22:13:29.696Z</time>
      </trkpt>
      <trkpt lat="46.35016" lon="-0.09202">
        <ele>86.04</ele>
        <time>2023-06-17T22:14:28.074Z</time>
      </trkpt>
      <trkpt lat="46.3501" lon="-0.09204">
        <ele>86.1</ele>
        <time>2023-06-17T22:15:26.453Z</time>
      </trkpt>
      <trkpt lat="46.3499" lon="-0.0921">
        <ele>88.25</ele>
        <time>2023-06-17T22:16:24.835Z</time>
      </trkpt>
      <trkpt lat="46.34982" lon="-0.09216">
        <ele>89.21</ele>
        <time>2023-06-17T22:17:23.218Z</time>
      </trkpt>
      <trkpt lat="46.34981" lon="-0.09217">
        <ele>89.31</ele>
        <time>2023-06-17T22:18:21.601Z</time>
      </trkpt>
      <trkpt lat="46.34968" lon="-0.09231">
        <ele>91.14</ele>
        <time>2023-06-17T22:19:19.987Z</time>
      </trkpt>
      <trkpt lat="46.34963" lon="-0.09237">
        <ele>91.83</ele>
        <time>2023-06-17T22:20:18.374Z</time>
      </trkpt>
      <trkpt lat="46.34955" lon="-0.09248">
        <ele>92.99</ele>
        <time>2023-06-17T22:21:16.763Z</time>
      </trkpt>
      <trkpt lat="46.34946" lon="-0.09261">
        <ele>92.56</ele>
        <time>2023-06-17T22:22:15.154Z</time>
      </trkpt>
      <trkpt lat="46.34943" lon="-0.09266">
        <ele>92.44</ele>
        <time>2023-06-17T22:23:13.546Z</time>
      </trkpt>
      <trkpt lat="46.34939" lon="-0.09271">
        <ele>92.36</ele>
        <time>2023-06-17T22:24:11.938Z</time>
      </trkpt>
      <trkpt lat="46.34936" lon="-0.09275">
        <ele>92.31</ele>
        <time>2023-06-17T22:25:10.331Z</time>
      </trkpt>
      <trkpt lat="46.34925" lon="-0.09291">
        <ele>92.22</ele>
        <time>2023-06-17T22:26:08.727Z</time>
      </trkpt>
      <trkpt lat="46.34922" lon="-0.09305">
        <ele>92.17</ele>
        <time>2023-06-17T22:27:07.124Z</time>
      </trkpt>
      <trkpt lat="46.34921" lon="-0.09304">
        <ele>92.17</ele>
        <time>2023-06-17T22:28:05.521Z</time>
      </trkpt>
      <trkpt lat="46.34914" lon="-0.09294">
        <ele>92.17</ele>
        <time>2023-06-17T22:29:03.920Z</time>
      </trkpt>
      <trkpt lat="46.34901" lon="-0.09269">
        <ele>92.17</ele>
        <time>2023-06-17T22:30:02.323Z</time>
      </trkpt>
      <trkpt lat="46.3489" lon="-0.09249">
        <ele>92.24</ele>
        <time>2023-06-17T22:31:00.728Z</time>
      </trkpt>
      <trkpt lat="46.34876" lon="-0.09223">
        <ele>92.26</ele>
        <time>2023-06-17T22:31:59.137Z</time>
      </trkpt>
      <trkpt lat="46.34868" lon="-0.09208">
        <ele>92.36</ele>
        <time>2023-06-17T22:32:57.548Z</time>
      </trkpt>
      <trkpt lat="46.34862" lon="-0.09198">
        <ele>92.45</ele>
        <time>2023-06-17T22:33:55.961Z</time>
      </trkpt>
      <trkpt lat="46.34854" lon="-0.09183">
        <ele>92.64</ele>
        <time>2023-06-17T22:34:54.376Z</time>
      </trkpt>
      <trkpt lat="46.34851" lon="-0.09178">
        <ele>92.72</ele>
        <time>2023-06-17T22:35:52.791Z</time>
      </trkpt>
      <trkpt lat="46.34838" lon="-0.09159">
        <ele>92.94</ele>
        <time>2023-06-17T22:36:51.209Z</time>
      </trkpt>
      <trkpt lat="46.34826" lon="-0.0914">
        <ele>93.21</ele>
        <time>2023-06-17T22:37:49.630Z</time>
      </trkpt>
      <trkpt lat="46.34822" lon="-0.09134">
        <ele>93.31</ele>
        <time>2023-06-17T22:38:48.052Z</time>
      </trkpt>
      <trkpt lat="46.34819" lon="-0.09131">
        <ele>93.37</ele>
        <time>2023-06-17T22:39:46.475Z</time>
      </trkpt>
      <trkpt lat="46.34809" lon="-0.09119">
        <ele>94.51</ele>
        <time>2023-06-17T22:40:44.900Z</time>
      </trkpt>
      <trkpt lat="46.34809" lon="-0.09119">
        <ele>94.51</ele>
        <time>2023-06-17T22:41:43.325Z</time>
      </trkpt>
      <trkpt lat="46.34788" lon="-0.09109">
        <ele>96.25</ele>
        <time>2023-06-17T22:42:41.753Z</time>
      </trkpt>
      <trkpt lat="46.3478" lon="-0.09105">
        <ele>97.02</ele>
        <time>2023-06-17T22:43:40.183Z</time>
      </trkpt>
      <trkpt lat="46.34772" lon="-0.09101">
        <ele>97.88</ele>
        <time>2023-06-17T22:44:38.614Z</time>
      </trkpt>
      <trkpt lat="46.34771" lon="-0.09101">
        <ele>97.88</ele>
        <time>2023-06-17T22:45:37.045Z</time>
      </trkpt>
      <trkpt lat="46.34767" lon="-0.09104">
        <ele>98.29</ele>
        <time>2023-06-17T22:46:35.477Z</time>
      </trkpt>
      <trkpt lat="46.34763" lon="-0.09106">
        <ele>98.67</ele>
        <time>2023-06-17T22:47:33.910Z</time>
      </trkpt>
      <trkpt lat="46.34759" lon="-0.09108">
        <ele>99</ele>
        <time>2023-06-17T22:48:32.343Z</time>
      </trkpt>
      <trkpt lat="46.3475" lon="-0.0911">
        <ele>99.76</ele>
        <time>2023-06-17T22:49:30.778Z</time>
      </trkpt>
      <trkpt lat="46.34746" lon="-0.09112">
        <ele>100.14</ele>
        <time>2023-06-17T22:50:29.213Z</time>
      </trkpt>
      <trkpt lat="46.34741" lon="-0.09113">
        <ele>100.56</ele>
        <time>2023-06-17T22:51:27.649Z</time>
      </trkpt>
      <trkpt lat="46.34737" lon="-0.09114">
        <ele>101.01</ele>
        <time>2023-06-17T22:52:26.086Z</time>
      </trkpt>
      <trkpt lat="46.34732" lon="-0.09115">
        <ele>101.5</ele>
        <time>2023-06-17T22:53:24.524Z</time>
      </trkpt>
      <trkpt lat="46.34729" lon="-0.09116">
        <ele>101.92</ele>
        <time>2023-06-17T22:54:22.962Z</time>
      </trkpt>
      <trkpt lat="46.34719" lon="-0.09116">
        <ele>103.17</ele>
        <time>2023-06-17T22:55:21.402Z</time>
      </trkpt>
      <trkpt lat="46.3471" lon="-0.09115">
        <ele>104.26</ele>
        <time>2023-06-17T22:56:19.843Z</time>
      </trkpt>
      <trkpt lat="46.34707" lon="-0.09115">
        <ele>104.62</ele>
        <time>2023-06-17T22:57:18.285Z</time>
      </trkpt>
      <trkpt lat="46.34701" lon="-0.09114">
        <ele>105.28</ele>
        <time>2023-06-17T22:58:16.728Z</time>
      </trkpt>
      <trkpt lat="46.34697" lon="-0.09112">
        <ele>105.76</ele>
        <time>2023-06-17T22:59:15.171Z</time>
      </trkpt>
      <trkpt lat="46.34693" lon="-0.09111">
        <ele>106.22</ele>
        <time>2023-06-17T23:00:13.615Z</time>
      </trkpt>
      <trkpt lat="46.34688" lon="-0.0911">
        <ele>106.64</ele>
        <time>2023-06-17T23:01:12.060Z</time>
      </trkpt>
      <trkpt lat="46.3468" lon="-0.09108">
        <ele>107.4</ele>
        <time>2023-06-17T23:02:10.506Z</time>
      </trkpt>
      <trkpt lat="46.34671" lon="-0.09105">
        <ele>108.03</ele>
        <time>2023-06-17T23:03:08.954Z</time>
      </trkpt>
      <trkpt lat="46.34666" lon="-0.09104">
        <ele>108.27</ele>
        <time>2023-06-17T23:04:07.402Z</time>
      </trkpt>
      <trkpt lat="46.34662" lon="-0.09103">
        <ele>108.41</ele>
        <time>2023-06-17T23:05:05.851Z</time>
      </trkpt>
      <trkpt lat="46.34658" lon="-0.09102">
        <ele>108.36</ele>
        <time>2023-06-17T23:06:04.301Z</time>
      </trkpt>
      <trkpt lat="46.34654" lon="-0.09101">
        <ele>108.11</ele>
        <time>2023-06-17T23:07:02.751Z</time>
      </trkpt>
      <trkpt lat="46.34653" lon="-0.09101">
        <ele>108.11</ele>
        <time>2023-06-17T23:08:01.201Z</time>
      </trkpt>
      <trkpt lat="46.34649" lon="-0.09101">
        <ele>107.7</ele>
        <time>2023-06-17T23:08:59.652Z</time>
      </trkpt>
      <trkpt lat="46.34639" lon="-0.09101">
        <ele>106.56</ele>
        <time>2023-06-17T23:09:58.105Z</time>
      </trkpt>
      <trkpt lat="46.34636" lon="-0.09103">
        <ele>106.16</ele>
        <time>2023-06-17T23:10:56.558Z</time>
      </trkpt>
      <trkpt lat="46.34631" lon="-0.09105">
        <ele>105.71</ele>
        <time>2023-06-17T23:11:55.012Z</time>
      </trkpt>
      <trkpt lat="46.34627" lon="-0.09108">
        <ele>105.36</ele>
        <time>2023-06-17T23:12:53.467Z</time>
      </trkpt>
      <trkpt lat="46.34623" lon="-0.09111">
        <ele>104.91</ele>
        <time>2023-06-17T23:13:51.922Z</time>
      </trkpt>
      <trkpt lat="46.34619" lon="-0.09114">
        <ele>104.42</ele>
        <time>2023-06-17T23:14:50.378Z</time>
      </trkpt>
      <trkpt lat="46.34615" lon="-0.09117">
        <ele>103.87</ele>
        <time>2023-06-17T23:15:48.835Z</time>
      </trkpt>
      <trkpt lat="46.34603" lon="-0.09125">
        <ele>102.13</ele>
        <time>2023-06-17T23:16:47.294Z</time>
      </trkpt>
      <trkpt lat="46.34599" lon="-0.09128">
        <ele>101.57</ele>
        <time>2023-06-17T23:17:45.754Z</time>
      </trkpt>
      <trkpt lat="46.34595" lon="-0.09131">
        <ele>101.05</ele>
        <time>2023-06-17T23:18:44.214Z</time>
      </trkpt>
      <trkpt lat="46.34589" lon="-0.09136">
        <ele>100.26</ele>
        <time>2023-06-17T23:19:42.676Z</time>
      </trkpt>
      <trkpt lat="46.34585" lon="-0.0913">
        <ele>99.64</ele>
        <time>2023-06-17T23:20:41.139Z</time>
      </trkpt>
      <trkpt lat="46.34576" lon="-0.09126">
        <ele>98.63</ele>
        <time>2023-06-17T23:21:39.603Z</time>
      </trkpt>
      <trkpt lat="46.34572" lon="-0.09124">
        <ele>98.18</ele>
        <time>2023-06-17T23:22:38.068Z</time>
      </trkpt>
      <trkpt lat="46.34563" lon="-0.09127">
        <ele>97.23</ele>
        <time>2023-06-17T23:23:36.534Z</time>
      </trkpt>
      <trkpt lat="46.34554" lon="-0.0913">
        <ele>96.4</ele>
        <time>2023-06-17T23:24:35.002Z</time>
      </trkpt>
      <trkpt lat="46.3455" lon="-0.09131">
        <ele>96.03</ele>
        <time>2023-06-17T23:25:33.470Z</time>
      </trkpt>
      <trkpt lat="46.34545" lon="-0.09133">
        <ele>95.64</ele>
        <time>2023-06-17T23:26:31.939Z</time>
      </trkpt>
      <trkpt lat="46.34537" lon="-0.09134">
        <ele>95.01</ele>
        <time>2023-06-17T23:27:30.409Z</time>
      </trkpt>
      <trkpt lat="46.34528" lon="-0.09135">
        <ele>94.4</ele>
        <time>2023-06-17T23:28:28.881Z</time>
      </trkpt>
      <trkpt lat="46.34523" lon="-0.09136">
        <ele>94.12</ele>
        <time>2023-06-17T23:29:27.354Z</time>
      </trkpt>
      <trkpt lat="46.34515" lon="-0.09137">
        <ele>93.63</ele>
        <time>2023-06-17T23:30:25.828Z</time>
      </trkpt>
      <trkpt lat="46.34514" lon="-0.09137">
        <ele>93.63</ele>
        <time>2023-06-17T23:31:24.302Z</time>
      </trkpt>
      <trkpt lat="46.34505" lon="-0.09137">
        <ele>93.16</ele>
        <time>2023-06-17T23:32:22.778Z</time>
      </trkpt>
      <trkpt lat="46.34501" lon="-0.09137">
        <ele>92.95</ele>
        <time>2023-06-17T23:33:21.254Z</time>
      </trkpt>
      <trkpt lat="46.34496" lon="-0.09137">
        <ele>92.76</ele>
        <time>2023-06-17T23:34:19.731Z</time>
      </trkpt>
      <trkpt lat="46.34492" lon="-0.09137">
        <ele>92.6</ele>
        <time>2023-06-17T23:35:18.209Z</time>
      </trkpt>
      <trkpt lat="46.34478" lon="-0.09137">
        <ele>92.18</ele>
        <time>2023-06-17T23:36:16.689Z</time>
      </trkpt>
      <trkpt lat="46.34472" lon="-0.09137">
        <ele>92.02</ele>
        <time>2023-06-17T23:37:15.170Z</time>
      </trkpt>
      <trkpt lat="46.34465" lon="-0.09134">
        <ele>91.85</ele>
        <time>2023-06-17T23:38:13.652Z</time>
      </trkpt>
      <trkpt lat="46.34444" lon="-0.09124">
        <ele>91.45</ele>
        <time>2023-06-17T23:39:12.138Z</time>
      </trkpt>
      <trkpt lat="46.34434" lon="-0.0912">
        <ele>91.23</ele>
        <time>2023-06-17T23:40:10.625Z</time>
      </trkpt>
      <trkpt lat="46.34424" lon="-0.0911">
        <ele>90.99</ele>
        <time>2023-06-17T23:41:09.114Z</time>
      </trkpt>
      <trkpt lat="46.34418" lon="-0.09105">
        <ele>90.87</ele>
        <time>2023-06-17T23:42:07.604Z</time>
      </trkpt>
      <trkpt lat="46.34417" lon="-0.09103">
        <ele>90.84</ele>
        <time>2023-06-17T23:43:06.095Z</time>
      </trkpt>
      <trkpt lat="46.34411" lon="-0.09092">
        <ele>90.72</ele>
        <time>2023-06-17T23:44:04.587Z</time>
      </trkpt>
      <trkpt lat="46.34406" lon="-0.09082">
        <ele>90.65</ele>
        <time>2023-06-17T23:45:03.080Z</time>
      </trkpt>
      <trkpt lat="46.34395" lon="-0.09061">
        <ele>90.58</ele>
        <time>2023-06-17T23:46:01.576Z</time>
      </trkpt>
      <trkpt lat="46.34389" lon="-0.09049">
        <ele>90.52</ele>
        <time>2023-06-17T23:47:00.074Z</time>
      </trkpt>
      <trkpt lat="46.34385" lon="-0.09039">
        <ele>90.48</ele>
        <time>2023-06-17T23:47:58.573Z</time>
      </trkpt>
      <trkpt lat="46.34381" lon="-0.09028">
        <ele>90.49</ele>
        <time>2023-06-17T23:48:57.074Z</time>
      </trkpt>
      <trkpt lat="46.34371" lon="-0.08999">
        <ele>90.59</ele>
        <time>2023-06-17T23:49:55.578Z</time>
      </trkpt>
      <trkpt lat="46.34356" lon="-0.08959">
        <ele>90.53</ele>
        <time>2023-06-17T23:50:54.087Z</time>
      </trkpt>
      <trkpt lat="46.34352" lon="-0.08948">
        <ele>90.54</ele>
        <time>2023-06-17T23:51:52.598Z</time>
      </trkpt>
      <trkpt lat="46.34345" lon="-0.08931">
        <ele>90.59</ele>
        <time>2023-06-17T23:52:51.111Z</time>
      </trkpt>
      <trkpt lat="46.34341" lon="-0.08919">
        <ele>90.69</ele>
        <time>2023-06-17T23:53:49.625Z</time>
      </trkpt>
      <trkpt lat="46.34339" lon="-0.08914">
        <ele>90.8</ele>
        <time>2023-06-17T23:54:48.140Z</time>
      </trkpt>
      <trkpt lat="46.34337" lon="-0.08908">
        <ele>90.96</ele>
        <time>2023-06-17T23:55:46.656Z</time>
      </trkpt>
      <trkpt lat="46.3433" lon="-0.08891">
        <ele>91.53</ele>
        <time>2023-06-17T23:56:45.174Z</time>
      </trkpt>
      <trkpt lat="46.34328" lon="-0.08885">
        <ele>91.7</ele>
        <time>2023-06-17T23:57:43.693Z</time>
      </trkpt>
      <trkpt lat="46.34326" lon="-0.08879">
        <ele>91.84</ele>
        <time>2023-06-17T23:58:42.212Z</time>
      </trkpt>
      <trkpt lat="46.34324" lon="-0.08874">
        <ele>91.96</ele>
        <time>2023-06-17T23:59:40.732Z</time>
      </trkpt>
      <trkpt lat="46.34322" lon="-0.08868">
        <ele>92.05</ele>
        <time>2023-06-18T00:00:39.253Z</time>
      </trkpt>
      <trkpt lat="46.34318" lon="-0.08856">
        <ele>92.17</ele>
        <time>2023-06-18T00:01:37.775Z</time>
      </trkpt>
      <trkpt lat="46.34317" lon="-0.08855">
        <ele>92.17</ele>
        <time>2023-06-18T00:02:36.297Z</time>
      </trkpt>
      <trkpt lat="46.34317" lon="-0.0885">
        <ele>92.19</ele>
        <time>2023-06-18T00:03:34.820Z</time>
      </trkpt>
      <trkpt lat="46.34317" lon="-0.08844">
        <ele>92.18</ele>
        <time>2023-06-18T00:04:33.344Z</time>
      </trkpt>
      <trkpt lat="46.34316" lon="-0.08825">
        <ele>92.1</ele>
        <time>2023-06-18T00:05:31.870Z</time>
      </trkpt>
      <trkpt lat="46.34316" lon="-0.08824">
        <ele>92.1</ele>
        <time>2023-06-18T00:06:30.396Z</time>
      </trkpt>
      <trkpt lat="46.34316" lon="-0.08818">
        <ele>92.12</ele>
        <time>2023-06-18T00:07:28.923Z</time>
      </trkpt>
      <trkpt lat="46.34317" lon="-0.08805">
        <ele>92.21</ele>
        <time>2023-06-18T00:08:27.451Z</time>
      </trkpt>
      <trkpt lat="46.34317" lon="-0.08799">
        <ele>92.23</ele>
        <time>2023-06-18T00:09:25.980Z</time>
      </trkpt>
      <trkpt lat="46.34317" lon="-0.08792">
        <ele>92.21</ele>
        <time>2023-06-18T00:10:24.509Z</time>
      </trkpt>
      <trkpt lat="46.34319" lon="-0.08766">
        <ele>92.05</ele>
        <time>2023-06-18T00:11:23.041Z</time>
      </trkpt>
      <trkpt lat="46.3432" lon="-0.08737">
        <ele>92.05</ele>
        <time>2023-06-18T00:12:21.577Z</time>
      </trkpt>
      <trkpt lat="46.34322" lon="-0.08721">
        <ele>92.05</ele>
        <time>2023-06-18T00:13:20.114Z</time>
      </trkpt>
      <trkpt lat="46.34323" lon="-0.08708">
        <ele>92.13</ele>
        <time>2023-06-18T00:14:18.653Z</time>
      </trkpt>
      <trkpt lat="46.34324" lon="-0.08702">
        <ele>92.2</ele>
        <time>2023-06-18T00:15:17.193Z</time>
      </trkpt>
      <trkpt lat="46.34326" lon="-0.08682">
        <ele>92.48</ele>
        <time>2023-06-18T00:16:15.735Z</time>
      </trkpt>
      <trkpt lat="46.34327" lon="-0.08669">
        <ele>92.63</ele>
        <time>2023-06-18T00:17:14.278Z</time>
      </trkpt>
      <trkpt lat="46.34329" lon="-0.08654">
        <ele>92.71</ele>
        <time>2023-06-18T00:18:12.823Z</time>
      </trkpt>
      <trkpt lat="46.34331" lon="-0.08644">
        <ele>92.77</ele>
        <time>2023-06-18T00:19:11.369Z</time>
      </trkpt>
      <trkpt lat="46.34334" lon="-0.08632">
        <ele>92.88</ele>
        <time>2023-06-18T00:20:09.916Z</time>
      </trkpt>
      <trkpt lat="46.34336" lon="-0.08619">
        <ele>93.06</ele>
        <time>2023-06-18T00:21:08.465Z</time>
      </trkpt>
      <trkpt lat="46.34337" lon="-0.08613">
        <ele>93.2</ele>
        <time>2023-06-18T00:22:07.015Z</time>
      </trkpt>
      <trkpt lat="46.34339" lon="-0.08607">
        <ele>93.38</ele>
        <time>2023-06-18T00:23:05.565Z</time>
      </trkpt>
      <trkpt lat="46.34341" lon="-0.08596">
        <ele>93.79</ele>
        <time>2023-06-18T00:24:04.117Z</time>
      </trkpt>
      <trkpt lat="46.34341" lon="-0.08594">
        <ele>93.86</ele>
        <time>2023-06-18T00:25:02.669Z</time>
      </trkpt>
      <trkpt lat="46.34342" lon="-0.08588">
        <ele>94.14</ele>
        <time>2023-06-18T00:26:01.221Z</time>
      </trkpt>
      <trkpt lat="46.34345" lon="-0.08556">
        <ele>95.66</ele>
        <time>2023-06-18T00:26:59.777Z</time>
      </trkpt>
      <trkpt lat="46.34346" lon="-0.08547">
        <ele>96.11</ele>
        <time>2023-06-18T00:27:58.334Z</time>
      </trkpt>
      <trkpt lat="46.34345" lon="-0.08543">
        <ele>96.33</ele>
        <time>2023-06-18T00:28:56.891Z</time>
      </trkpt>
      <trkpt lat="46.34344" lon="-0.08537">
        <ele>96.71</ele>
        <time>2023-06-18T00:29:55.449Z</time>
      </trkpt>
      <trkpt lat="46.34343" lon="-0.0853">
        <ele>97.14</ele>
        <time>2023-06-18T00:30:54.008Z</time>
      </trkpt>
      <trkpt lat="46.34342" lon="-0.08524">
        <ele>97.63</ele>
        <time>2023-06-18T00:31:52.568Z</time>
      </trkpt>
      <trkpt lat="46.34341" lon="-0.08518">
        <ele>98.15</ele>
        <time>2023-06-18T00:32:51.128Z</time>
      </trkpt>
      <trkpt lat="46.3434" lon="-0.08512">
        <ele>98.54</ele>
        <time>2023-06-18T00:33:49.689Z</time>
      </trkpt>
      <trkpt lat="46.3434" lon="-0.08511">
        <ele>98.54</ele>
        <time>2023-06-18T00:34:48.250Z</time>
      </trkpt>
      <trkpt lat="46.34336" lon="-0.085">
        <ele>98.94</ele>
        <time>2023-06-18T00:35:46.813Z</time>
      </trkpt>
      <trkpt lat="46.34334" lon="-0.08494">
        <ele>99.19</ele>
        <time>2023-06-18T00:36:45.376Z</time>
      </trkpt>
      <trkpt lat="46.34331" lon="-0.08488">
        <ele>99.47</ele>
        <time>2023-06-18T00:37:43.940Z</time>
      </trkpt>
      <trkpt lat="46.34321" lon="-0.0846">
        <ele>100.95</ele>
        <time>2023-06-18T00:38:42.508Z</time>
      </trkpt>
      <trkpt lat="46.34318" lon="-0.08451">
        <ele>101.47</ele>
        <time>2023-06-18T00:39:41.077Z</time>
      </trkpt>
      <trkpt lat="46.34314" lon="-0.08455">
        <ele>101.83</ele>
        <time>2023-06-18T00:40:39.646Z</time>
      </trkpt>
      <trkpt lat="46.34315" lon="-0.08441">
        <ele>102.57</ele>
        <time>2023-06-18T00:41:38.217Z</time>
      </trkpt>
      <trkpt lat="46.34316" lon="-0.08434">
        <ele>102.85</ele>
        <time>2023-06-18T00:42:36.789Z</time>
      </trkpt>
      <trkpt lat="46.34317" lon="-0.08428">
        <ele>103.09</ele>
        <time>2023-06-18T00:43:35.361Z</time>
      </trkpt>
      <trkpt lat="46.34317" lon="-0.08422">
        <ele>103.28</ele>
        <time>2023-06-18T00:44:33.934Z</time>
      </trkpt>
      <trkpt lat="46.34318" lon="-0.08415">
        <ele>103.42</ele>
        <time>2023-06-18T00:45:32.508Z</time>
      </trkpt>
      <trkpt lat="46.34318" lon="-0.08409">
        <ele>103.51</ele>
        <time>2023-06-18T00:46:31.083Z</time>
      </trkpt>
      <trkpt lat="46.34319" lon="-0.08403">
        <ele>103.57</ele>
        <time>2023-06-18T00:47:29.658Z</time>
      </trkpt>
      <trkpt lat="46.34319" lon="-0.08403">
        <ele>103.57</ele>
        <time>2023-06-18T00:48:28.233Z</time>
      </trkpt>
      <trkpt lat="46.34321" lon="-0.08397">
        <ele>103.58</ele>
        <time>2023-06-18T00:49:26.809Z</time>
      </trkpt>
      <trkpt lat="46.34322" lon="-0.08391">
        <ele>103.54</ele>
        <time>2023-06-18T00:50:25.386Z</time>
      </trkpt>
      <trkpt lat="46.34324" lon="-0.08385">
        <ele>103.47</ele>
        <time>2023-06-18T00:51:23.963Z</time>
      </trkpt>
      <trkpt lat="46.34326" lon="-0.08378">
        <ele>103.35</ele>
        <time>2023-06-18T00:52:22.541Z</time>
      </trkpt>
      <trkpt lat="46.34326" lon="-0.08378">
        <ele>103.35</ele>
        <time>2023-06-18T00:53:21.119Z</time>
      </trkpt>
      <trkpt lat="46.34327" lon="-0.08373">
        <ele>103.19</ele>
        <time>2023-06-18T00:54:19.698Z</time>
      </trkpt>
      <trkpt lat="46.34327" lon="-0.08366">
        <ele>102.99</ele>
        <time>2023-06-18T00:55:18.278Z</time>
      </trkpt>
      <trkpt lat="46.34328" lon="-0.08357">
        <ele>102.63</ele>
        <time>2023-06-18T00:56:16.859Z</time>
      </trkpt>
      <trkpt lat="46.34327" lon="-0.08354">
        <ele>102.51</ele>
        <time>2023-06-18T00:57:15.440Z</time>
      </trkpt>
      <trkpt lat="46.34324" lon="-0.08342">
        <ele>102</ele>
        <time>2023-06-18T00:58:14.022Z</time>
      </trkpt>
      <trkpt lat="46.3432" lon="-0.08324">
        <ele>101.18</ele>
        <time>2023-06-18T00:59:12.606Z</time>
      </trkpt>
      <trkpt lat="46.34319" lon="-0.08305">
        <ele>100.34</ele>
        <time>2023-06-18T01:00:11.193Z</time>
      </trkpt>
      <trkpt lat="46.34317" lon="-0.08286">
        <ele>99.55</ele>
        <time>2023-06-18T01:01:09.782Z</time>
      </trkpt>
      <trkpt lat="46.34316" lon="-0.08274">
        <ele>99.18</ele>
        <time>2023-06-18T01:02:08.372Z</time>
      </trkpt>
      <trkpt lat="46.34316" lon="-0.08268">
        <ele>99.02</ele>
        <time>2023-06-18T01:03:06.963Z</time>
      </trkpt>
      <trkpt lat="46.34315" lon="-0.08256">
        <ele>98.75</ele>
        <time>2023-06-18T01:04:05.555Z</time>
      </trkpt>
      <trkpt lat="46.34314" lon="-0.0825">
        <ele>98.67</ele>
        <time>2023-06-18T01:05:04.148Z</time>
      </trkpt>
      <trkpt lat="46.34314" lon="-0.08246">
        <ele>98.37</ele>
        <time>2023-06-18T01:06:02.741Z</time>
      </trkpt>
      <trkpt lat="46.34306" lon="-0.08222">
        <ele>96.33</ele>
        <time>2023-06-18T01:07:01.337Z</time>
      </trkpt>
      <trkpt lat="46.34305" lon="-0.08216">
        <ele>95.9</ele>
        <time>2023-06-18T01:07:59.934Z</time>
      </trkpt>
      <trkpt lat="46.34304" lon="-0.08214">
        <ele>95.74</ele>
        <time>2023-06-18T01:08:58.531Z</time>
      </trkpt>
      <trkpt lat="46.34299" lon="-0.08208">
        <ele>95.12</ele>
        <time>2023-06-18T01:09:57.129Z</time>
      </trkpt>
      <trkpt lat="46.34293" lon="-0.082">
        <ele>94.41</ele>
        <time>2023-06-18T01:10:55.728Z</time>
      </trkpt>
      <trkpt lat="46.34289" lon="-0.08195">
        <ele>94.03</ele>
        <time>2023-06-18T01:11:54.328Z</time>
      </trkpt>
      <trkpt lat="46.34294" lon="-0.08179">
        <ele>93.1</ele>
        <time>2023-06-18T01:12:52.930Z</time>
      </trkpt>
      <trkpt lat="46.34297" lon="-0.08167">
        <ele>92.71</ele>
        <time>2023-06-18T01:13:51.534Z</time>
      </trkpt>
      <trkpt lat="46.34299" lon="-0.08161">
        <ele>92.53</ele>
        <time>2023-06-18T01:14:50.138Z</time>
      </trkpt>
      <trkpt lat="46.34302" lon="-0.08149">
        <ele>92.23</ele>
        <time>2023-06-18T01:15:48.744Z</time>
      </trkpt>
      <trkpt lat="46.34306" lon="-0.08135">
        <ele>92.04</ele>
        <time>2023-06-18T01:16:47.351Z</time>
      </trkpt>
      <trkpt lat="46.34309" lon="-0.08126">
        <ele>92.15</ele>
        <time>2023-06-18T01:17:45.960Z</time>
      </trkpt>
      <trkpt lat="46.3431" lon="-0.08121">
        <ele>92.12</ele>
        <time>2023-06-18T01:18:44.569Z</time>
      </trkpt>
      <trkpt lat="46.34311" lon="-0.08114">
        <ele>92.09</ele>
        <time>2023-06-18T01:19:43.179Z</time>
      </trkpt>
      <trkpt lat="46.34311" lon="-0.08109">
        <ele>92.09</ele>
        <time>2023-06-18T01:20:41.789Z</time>
      </trkpt>
      <trkpt lat="46.34312" lon="-0.08108">
        <ele>92.09</ele>
        <time>2023-06-18T01:21:40.400Z</time>
      </trkpt>
      <trkpt lat="46.34315" lon="-0.08104">
        <ele>92.14</ele>
        <time>2023-06-18T01:22:39.011Z</time>
      </trkpt>
      <trkpt lat="46.34318" lon="-0.08099">
        <ele>92.25</ele>
        <time>2023-06-18T01:23:37.623Z</time>
      </trkpt>
      <trkpt lat="46.34321" lon="-0.08095">
        <ele>92.41</ele>
        <time>2023-06-18T01:24:36.236Z</time>
      </trkpt>
      <trkpt lat="46.34324" lon="-0.08091">
        <ele>92.62</ele>
        <time>2023-06-18T01:25:34.849Z</time>
      </trkpt>
      <trkpt lat="46.34327" lon="-0.08087">
        <ele>92.87</ele>
        <time>2023-06-18T01:26:33.463Z</time>
      </trkpt>
      <trkpt lat="46.3433" lon="-0.08082">
        <ele>93.15</ele>
        <time>2023-06-18T01:27:32.078Z</time>
      </trkpt>
      <trkpt lat="46.34334" lon="-0.08076">
        <ele>93.59</ele>
        <time>2023-06-18T01:28:30.694Z</time>
      </trkpt>
      <trkpt lat="46.34325" lon="-0.08067">
        <ele>94.37</ele>
        <time>2023-06-18T01:29:29.311Z</time>
      </trkpt>
      <trkpt lat="46.34318" lon="-0.0806">
        <ele>94.8</ele>
        <time>2023-06-18T01:30:27.930Z</time>
      </trkpt>
      <trkpt lat="46.34318" lon="-0.0806">
        <ele>94.8</ele>
        <time>2023-06-18T01:31:26.549Z</time>
      </trkpt>
      <trkpt lat="46.34314" lon="-0.08057">
        <ele>94.97</ele>
        <time>2023-06-18T01:32:25.168Z</time>
      </trkpt>
      <trkpt lat="46.3431" lon="-0.08055">
        <ele>95.1</ele>
        <time>2023-06-18T01:33:23.788Z</time>
      </trkpt>
      <trkpt lat="46.34306" lon="-0.08052">
        <ele>95.18</ele>
        <time>2023-06-18T01:34:22.409Z</time>
      </trkpt>
      <trkpt lat="46.34302" lon="-0.0805">
        <ele>95.23</ele>
        <time>2023-06-18T01:35:21.031Z</time>
      </trkpt>
      <trkpt lat="46.34298" lon="-0.08047">
        <ele>95.25</ele>
        <time>2023-06-18T01:36:19.653Z</time>
      </trkpt>
      <trkpt lat="46.34296" lon="-0.08046">
        <ele>95.25</ele>
        <time>2023-06-18T01:37:18.276Z</time>
      </trkpt>
      <trkpt lat="46.34292" lon="-0.08038">
        <ele>95.26</ele>
        <time>2023-06-18T01:38:16.900Z</time>
      </trkpt>
      <trkpt lat="46.3429" lon="-0.08032">
        <ele>95.24</ele>
        <time>2023-06-18T01:39:15.524Z</time>
      </trkpt>
      <trkpt lat="46.34288" lon="-0.08027">
        <ele>95.2</ele>
        <time>2023-06-18T01:40:14.149Z</time>
      </trkpt>
      <trkpt lat="46.34286" lon="-0.08021">
        <ele>95.13</ele>
        <time>2023-06-18T01:41:12.775Z</time>
      </trkpt>
      <trkpt lat="46.34281" lon="-0.08011">
        <ele>94.95</ele>
        <time>2023-06-18T01:42:11.402Z</time>
      </trkpt>
      <trkpt lat="46.34277" lon="-0.08">
        <ele>94.71</ele>
        <time>2023-06-18T01:43:10.031Z</time>
      </trkpt>
      <trkpt lat="46.34275" lon="-0.07996">
        <ele>94.6</ele>
        <time>2023-06-18T01:44:08.660Z</time>
      </trkpt>
      <trkpt lat="46.34274" lon="-0.07995">
        <ele>94.55</ele>
        <time>2023-06-18T01:45:07.289Z</time>
      </trkpt>
      <trkpt lat="46.34268" lon="-0.07985">
        <ele>94.18</ele>
        <time>2023-06-18T01:46:05.920Z</time>
      </trkpt>
      <trkpt lat="46.34259" lon="-0.07971">
        <ele>93.85</ele>
        <time>2023-06-18T01:47:04.553Z</time>
      </trkpt>
      <trkpt lat="46.34256" lon="-0.07968">
        <ele>93.76</ele>
        <time>2023-06-18T01:48:03.187Z</time>
      </trkpt>
      <trkpt lat="46.34248" lon="-0.07961">
        <ele>93.52</ele>
        <time>2023-06-18T01:49:01.822Z</time>
      </trkpt>
      <trkpt lat="46.34239" lon="-0.07953">
        <ele>93.19</ele>
        <time>2023-06-18T01:50:00.459Z</time>
      </trkpt>
      <trkpt lat="46.34237" lon="-0.07951">
        <ele>93.12</ele>
        <time>2023-06-18T01:50:59.096Z</time>
      </trkpt>
      <trkpt lat="46.34224" lon="-0.07934">
        <ele>92.56</ele>
        <time>2023-06-18T01:51:57.736Z</time>
      </trkpt>
      <trkpt lat="46.34218" lon="-0.07925">
        <ele>92.31</ele>
        <time>2023-06-18T01:52:56.377Z</time>
      </trkpt>
      <trkpt lat="46.34211" lon="-0.07917">
        <ele>92.13</ele>
        <time>2023-06-18T01:53:55.020Z</time>
      </trkpt>
      <trkpt lat="46.34211" lon="-0.07917">
        <ele>92.13</ele>
        <time>2023-06-18T01:54:53.663Z</time>
      </trkpt>
      <trkpt lat="46.34209" lon="-0.07912">
        <ele>92.07</ele>
        <time>2023-06-18T01:55:52.306Z</time>
      </trkpt>
      <trkpt lat="46.34204" lon="-0.07901">
        <ele>92.02</ele>
        <time>2023-06-18T01:56:50.951Z</time>
      </trkpt>
      <trkpt lat="46.34201" lon="-0.07896">
        <ele>92.04</ele>
        <time>2023-06-18T01:57:49.596Z</time>
      </trkpt>
      <trkpt lat="46.34199" lon="-0.07891">
        <ele>92.09</ele>
        <time>2023-06-18T01:58:48.242Z</time>
      </trkpt>
      <trkpt lat="46.34194" lon="-0.0788">
        <ele>92.25</ele>
        <time>2023-06-18T01:59:46.890Z</time>
      </trkpt>
      <trkpt lat="46.34192" lon="-0.07875">
        <ele>92.36</ele>
        <time>2023-06-18T02:00:45.538Z</time>
      </trkpt>
      <trkpt lat="46.34187" lon="-0.07864">
        <ele>92.65</ele>
        <time>2023-06-18T02:01:44.188Z</time>
      </trkpt>
      <trkpt lat="46.34184" lon="-0.07859">
        <ele>92.83</ele>
        <time>2023-06-18T02:02:42.838Z</time>
      </trkpt>
      <trkpt lat="46.34182" lon="-0.07854">
        <ele>93.03</ele>
        <time>2023-06-18T02:03:41.489Z</time>
      </trkpt>
      <trkpt lat="46.34177" lon="-0.07843">
        <ele>93.48</ele>
        <time>2023-06-18T02:04:40.141Z</time>
      </trkpt>
      <trkpt lat="46.34177" lon="-0.07843">
        <ele>93.48</ele>
        <time>2023-06-18T02:05:38.793Z</time>
      </trkpt>
      <trkpt lat="46.34165" lon="-0.07823">
        <ele>95.14</ele>
        <time>2023-06-18T02:06:37.448Z</time>
      </trkpt>
      <trkpt lat="46.34163" lon="-0.07819">
        <ele>95.51</ele>
        <time>2023-06-18T02:07:36.104Z</time>
      </trkpt>
      <trkpt lat="46.3416" lon="-0.07814">
        <ele>95.86</ele>
        <time>2023-06-18T02:08:34.761Z</time>
      </trkpt>
      <trkpt lat="46.34155" lon="-0.07806">
        <ele>96.34</ele>
        <time>2023-06-18T02:09:33.419Z</time>
      </trkpt>
      <trkpt lat="46.34153" lon="-0.07804">
        <ele>96.48</ele>
        <time>2023-06-18T02:10:32.077Z</time>
      </trkpt>
      <trkpt lat="46.3415" lon="-0.078">
        <ele>96.77</ele>
        <time>2023-06-18T02:11:30.736Z</time>
      </trkpt>
      <trkpt lat="46.34146" lon="-0.07796">
        <ele>97.03</ele>
        <time>2023-06-18T02:12:29.396Z</time>
      </trkpt>
      <trkpt lat="46.34141" lon="-0.0779">
        <ele>97.36</ele>
        <time>2023-06-18T02:13:28.057Z</time>
      </trkpt>
      <trkpt lat="46.3414" lon="-0.07787">
        <ele>97.47</ele>
        <time>2023-06-18T02:14:26.718Z</time>
      </trkpt>
      <trkpt lat="46.34138" lon="-0.07775">
        <ele>97.79</ele>
        <time>2023-06-18T02:15:25.381Z</time>
      </trkpt>
      <trkpt lat="46.34136" lon="-0.07769">
        <ele>97.91</ele>
        <time>2023-06-18T02:16:24.044Z</time>
      </trkpt>
      <trkpt lat="46.34132" lon="-0.07749">
        <ele>98.18</ele>
        <time>2023-06-18T02:17:22.710Z</time>
      </trkpt>
      <trkpt lat="46.34132" lon="-0.07749">
        <ele>98.18</ele>
        <time>2023-06-18T02:18:21.376Z</time>
      </trkpt>
      <trkpt lat="46.34125" lon="-0.07726">
        <ele>98.62</ele>
        <time>2023-06-18T02:19:20.044Z</time>
      </trkpt>
      <trkpt lat="46.3412" lon="-0.07709">
        <ele>98.86</ele>
        <time>2023-06-18T02:20:18.714Z</time>
      </trkpt>
      <trkpt lat="46.34118" lon="-0.07703">
        <ele>98.97</ele>
        <time>2023-06-18T02:21:17.385Z</time>
      </trkpt>
      <trkpt lat="46.34118" lon="-0.07703">
        <ele>98.97</ele>
        <time>2023-06-18T02:22:16.056Z</time>
      </trkpt>
      <trkpt lat="46.34117" lon="-0.07696">
        <ele>99.12</ele>
        <time>2023-06-18T02:23:14.728Z</time>
      </trkpt>
      <trkpt lat="46.34115" lon="-0.0769">
        <ele>99.33</ele>
        <time>2023-06-18T02:24:13.401Z</time>
      </trkpt>
      <trkpt lat="46.34114" lon="-0.07684">
        <ele>99.62</ele>
        <time>2023-06-18T02:25:12.074Z</time>
      </trkpt>
      <trkpt lat="46.34112" lon="-0.07678">
        <ele>99.98</ele>
        <time>2023-06-18T02:26:10.748Z</time>
      </trkpt>
      <trkpt lat="46.34111" lon="-0.07672">
        <ele>100.39</ele>
        <time>2023-06-18T02:27:09.423Z</time>
      </trkpt>
      <trkpt lat="46.34107" lon="-0.07653">
        <ele>101.77</ele>
        <time>2023-06-18T02:28:08.100Z</time>
      </trkpt>
      <trkpt lat="46.34106" lon="-0.07647">
        <ele>102.2</ele>
        <time>2023-06-18T02:29:06.778Z</time>
      </trkpt>
      <trkpt lat="46.34104" lon="-0.07641">
        <ele>102.56</ele>
        <time>2023-06-18T02:30:05.456Z</time>
      </trkpt>
      <trkpt lat="46.34104" lon="-0.07639">
        <ele>102.63</ele>
        <time>2023-06-18T02:31:04.135Z</time>
      </trkpt>
      <trkpt lat="46.34103" lon="-0.07635">
        <ele>102.84</ele>
        <time>2023-06-18T02:32:02.814Z</time>
      </trkpt>
      <trkpt lat="46.34101" lon="-0.07629">
        <ele>103.06</ele>
        <time>2023-06-18T02:33:01.494Z</time>
      </trkpt>
      <trkpt lat="46.34099" lon="-0.07623">
        <ele>103.22</ele>
        <time>2023-06-18T02:34:00.175Z</time>
      </trkpt>
      <trkpt lat="46.34097" lon="-0.07617">
        <ele>103.34</ele>
        <time>2023-06-18T02:34:58.856Z</time>
      </trkpt>
      <trkpt lat="46.34095" lon="-0.07612">
        <ele>103.43</ele>
        <time>2023-06-18T02:35:57.538Z</time>
      </trkpt>
      <trkpt lat="46.34093" lon="-0.07606">
        <ele>103.48</ele>
        <time>2023-06-18T02:36:56.221Z</time>
      </trkpt>
      <trkpt lat="46.34091" lon="-0.076">
        <ele>103.5</ele>
        <time>2023-06-18T02:37:54.904Z</time>
      </trkpt>
      <trkpt lat="46.34084" lon="-0.07581">
        <ele>103.47</ele>
        <time>2023-06-18T02:38:53.590Z</time>
      </trkpt>
      <trkpt lat="46.34083" lon="-0.07576">
        <ele>103.47</ele>
        <time>2023-06-18T02:39:52.276Z</time>
      </trkpt>
      <trkpt lat="46.34081" lon="-0.07566">
        <ele>103.49</ele>
        <time>2023-06-18T02:40:50.963Z</time>
      </trkpt>
      <trkpt lat="46.3408" lon="-0.07549">
        <ele>103.53</ele>
        <time>2023-06-18T02:41:49.652Z</time>
      </trkpt>
      <trkpt lat="46.34081" lon="-0.07545">
        <ele>103.54</ele>
        <time>2023-06-18T02:42:48.342Z</time>
      </trkpt>
      <trkpt lat="46.34083" lon="-0.07532">
        <ele>103.6</ele>
        <time>2023-06-18T02:43:47.033Z</time>
      </trkpt>
      <trkpt lat="46.34084" lon="-0.07524">
        <ele>103.68</ele>
        <time>2023-06-18T02:44:45.725Z</time>
      </trkpt>
      <trkpt lat="46.34085" lon="-0.07513">
        <ele>103.81</ele>
        <time>2023-06-18T02:45:44.418Z</time>
      </trkpt>
      <trkpt lat="46.34086" lon="-0.0748">
        <ele>104.28</ele>
        <time>2023-06-18T02:46:43.115Z</time>
      </trkpt>
      <trkpt lat="46.34086" lon="-0.07474">
        <ele>104.34</ele>
        <time>2023-06-18T02:47:41.813Z</time>
      </trkpt>
      <trkpt lat="46.34087" lon="-0.07467">
        <ele>104.35</ele>
        <time>2023-06-18T02:48:40.511Z</time>
      </trkpt>
      <trkpt lat="46.34087" lon="-0.07461">
        <ele>104.32</ele>
        <time>2023-06-18T02:49:39.210Z</time>
      </trkpt>
      <trkpt lat="46.34087" lon="-0.07459">
        <ele>104.29</ele>
        <time>2023-06-18T02:50:37.909Z</time>
      </trkpt>
      <trkpt lat="46.34087" lon="-0.07454">
        <ele>104.25</ele>
        <time>2023-06-18T02:51:36.609Z</time>
      </trkpt>
      <trkpt lat="46.34087" lon="-0.07441">
        <ele>104.06</ele>
        <time>2023-06-18T02:52:35.310Z</time>
      </trkpt>
      <trkpt lat="46.34087" lon="-0.07441">
        <ele>104.06</ele>
        <time>2023-06-18T02:53:34.011Z</time>
      </trkpt>
      <trkpt lat="46.34083" lon="-0.07416">
        <ele>103.6</ele>
        <time>2023-06-18T02:54:32.715Z</time>
      </trkpt>
      <trkpt lat="46.34081" lon="-0.07404">
        <ele>103.46</ele>
        <time>2023-06-18T02:55:31.421Z</time>
      </trkpt>
      <trkpt lat="46.34079" lon="-0.07388">
        <ele>103.35</ele>
        <time>2023-06-18T02:56:30.128Z</time>
      </trkpt>
      <trkpt lat="46.34079" lon="-0.07384">
        <ele>103.33</ele>
        <time>2023-06-18T02:57:28.836Z</time>
      </trkpt>
      <trkpt lat="46.34081" lon="-0.07352">
        <ele>103.2</ele>
        <time>2023-06-18T02:58:27.547Z</time>
      </trkpt>
      <trkpt lat="46.34082" lon="-0.07345">
        <ele>103.14</ele>
        <time>2023-06-18T02:59:26.259Z</time>
      </trkpt>
      <trkpt lat="46.34082" lon="-0.07339">
        <ele>103.1</ele>
        <time>2023-06-18T03:00:24.972Z</time>
      </trkpt>
      <trkpt lat="46.34082" lon="-0.07326">
        <ele>102.93</ele>
        <time>2023-06-18T03:01:23.686Z</time>
      </trkpt>
      <trkpt lat="46.34081" lon="-0.07294">
        <ele>102.42</ele>
        <time>2023-06-18T03:02:22.404Z</time>
      </trkpt>
      <trkpt lat="46.34081" lon="-0.07281">
        <ele>102.27</ele>
        <time>2023-06-18T03:03:21.123Z</time>
      </trkpt>
      <trkpt lat="46.34081" lon="-0.07274">
        <ele>102.22</ele>
        <time>2023-06-18T03:04:19.843Z</time>
      </trkpt>
      <trkpt lat="46.34081" lon="-0.07268">
        <ele>102.2</ele>
        <time>2023-06-18T03:05:18.564Z</time>
      </trkpt>
      <trkpt lat="46.34081" lon="-0.07261">
        <ele>102.21</ele>
        <time>2023-06-18T03:06:17.285Z</time>
      </trkpt>
      <trkpt lat="46.34081" lon="-0.07255">
        <ele>102.25</ele>
        <time>2023-06-18T03:07:16.007Z</time>
      </trkpt>
      <trkpt lat="46.34081" lon="-0.07255">
        <ele>102.25</ele>
        <time>2023-06-18T03:08:14.729Z</time>
      </trkpt>
      <trkpt lat="46.34082" lon="-0.07248">
        <ele>102.32</ele>
        <time>2023-06-18T03:09:13.452Z</time>
      </trkpt>
      <trkpt lat="46.34082" lon="-0.07242">
        <ele>102.41</ele>
        <time>2023-06-18T03:10:12.176Z</time>
      </trkpt>
      <trkpt lat="46.34083" lon="-0.07236">
        <ele>102.52</ele>
        <time>2023-06-18T03:11:10.900Z</time>
      </trkpt>
      <trkpt lat="46.34083" lon="-0.07229">
        <ele>102.67</ele>
        <time>2023-06-18T03:12:09.625Z</time>
      </trkpt>
      <trkpt lat="46.34084" lon="-0.07223">
        <ele>102.83</ele>
        <time>2023-06-18T03:13:08.351Z</time>
      </trkpt>
      <trkpt lat="46.34085" lon="-0.0721">
        <ele>103.2</ele>
        <time>2023-06-18T03:14:07.078Z</time>
      </trkpt>
      <trkpt lat="46.34086" lon="-0.07194">
        <ele>103.71</ele>
        <time>2023-06-18T03:15:05.807Z</time>
      </trkpt>
      <trkpt lat="46.34086" lon="-0.0719">
        <ele>103.83</ele>
        <time>2023-06-18T03:16:04.536Z</time>
      </trkpt>
      <trkpt lat="46.34086" lon="-0.0718">
        <ele>104.13</ele>
        <time>2023-06-18T03:17:03.267Z</time>
      </trkpt>
      <trkpt lat="46.34085" lon="-0.07178">
        <ele>104.21</ele>
        <time>2023-06-18T03:18:01.998Z</time>
      </trkpt>
      <trkpt lat="46.34083" lon="-0.07169">
        <ele>104.41</ele>
        <time>2023-06-18T03:19:00.730Z</time>
      </trkpt>
      <trkpt lat="46.34079" lon="-0.07162">
        <ele>104.61</ele>
        <time>2023-06-18T03:19:59.463Z</time>
      </trkpt>
      <trkpt lat="46.34073" lon="-0.07159">
        <ele>104.81</ele>
        <time>2023-06-18T03:20:58.197Z</time>
      </trkpt>
      <trkpt lat="46.3407" lon="-0.07159">
        <ele>104.92</ele>
        <time>2023-06-18T03:21:56.931Z</time>
      </trkpt>
      <trkpt lat="46.34056" lon="-0.07157">
        <ele>105.44</ele>
        <time>2023-06-18T03:22:55.668Z</time>
      </trkpt>
      <trkpt lat="46.34052" lon="-0.07156">
        <ele>105.59</ele>
        <time>2023-06-18T03:23:54.405Z</time>
      </trkpt>
      <trkpt lat="46.34045" lon="-0.07155">
        <ele>105.78</ele>
        <time>2023-06-18T03:24:53.143Z</time>
      </trkpt>
      <trkpt lat="46.34043" lon="-0.07155">
        <ele>105.85</ele>
        <time>2023-06-18T03:25:51.882Z</time>
      </trkpt>
      <trkpt lat="46.34034" lon="-0.07154">
        <ele>106.09</ele>
        <time>2023-06-18T03:26:50.622Z</time>
      </trkpt>
      <trkpt lat="46.33998" lon="-0.07149">
        <ele>106.81</ele>
        <time>2023-06-18T03:27:49.368Z</time>
      </trkpt>
      <trkpt lat="46.33989" lon="-0.07148">
        <ele>106.94</ele>
        <time>2023-06-18T03:28:48.115Z</time>
      </trkpt>
      <trkpt lat="46.33976" lon="-0.07146">
        <ele>107.08</ele>
        <time>2023-06-18T03:29:46.864Z</time>
      </trkpt>
      <trkpt lat="46.33967" lon="-0.07145">
        <ele>107.08</ele>
        <time>2023-06-18T03:30:45.615Z</time>
      </trkpt>
      <trkpt lat="46.33963" lon="-0.07145">
        <ele>107.05</ele>
        <time>2023-06-18T03:31:44.367Z</time>
      </trkpt>
      <trkpt lat="46.33958" lon="-0.07144">
        <ele>106.98</ele>
        <time>2023-06-18T03:32:43.119Z</time>
      </trkpt>
      <trkpt lat="46.33941" lon="-0.0714">
        <ele>106.75</ele>
        <time>2023-06-18T03:33:41.874Z</time>
      </trkpt>
      <trkpt lat="46.33927" lon="-0.07136">
        <ele>106.64</ele>
        <time>2023-06-18T03:34:40.631Z</time>
      </trkpt>
      <trkpt lat="46.33915" lon="-0.07133">
        <ele>106.51</ele>
        <time>2023-06-18T03:35:39.390Z</time>
      </trkpt>
      <trkpt lat="46.33914" lon="-0.07132">
        <ele>106.51</ele>
        <time>2023-06-18T03:36:38.150Z</time>
      </trkpt>
      <trkpt lat="46.33906" lon="-0.07127">
        <ele>106.48</ele>
        <time>2023-06-18T03:37:36.911Z</time>
      </trkpt>
      <trkpt lat="46.33893" lon="-0.07119">
        <ele>106.46</ele>
        <time>2023-06-18T03:38:35.674Z</time>
      </trkpt>
      <trkpt lat="46.33886" lon="-0.07113">
        <ele>106.46</ele>
        <time>2023-06-18T03:39:34.439Z</time>
      </trkpt>
      <trkpt lat="46.33882" lon="-0.0711">
        <ele>106.43</ele>
        <time>2023-06-18T03:40:33.204Z</time>
      </trkpt>
      <trkpt lat="46.33878" lon="-0.07107">
        <ele>106.36</ele>
        <time>2023-06-18T03:41:31.970Z</time>
      </trkpt>
      <trkpt lat="46.33874" lon="-0.07104">
        <ele>106.24</ele>
        <time>2023-06-18T03:42:30.737Z</time>
      </trkpt>
      <trkpt lat="46.3387" lon="-0.07101">
        <ele>106.04</ele>
        <time>2023-06-18T03:43:29.504Z</time>
      </trkpt>
      <trkpt lat="46.33866" lon="-0.07097">
        <ele>105.79</ele>
        <time>2023-06-18T03:44:28.272Z</time>
      </trkpt>
      <trkpt lat="46.33854" lon="-0.07088">
        <ele>104.89</ele>
        <time>2023-06-18T03:45:27.042Z</time>
      </trkpt>
      <trkpt lat="46.33851" lon="-0.07085">
        <ele>104.61</ele>
        <time>2023-06-18T03:46:25.813Z</time>
      </trkpt>
      <trkpt lat="46.33847" lon="-0.07082">
        <ele>104.36</ele>
        <time>2023-06-18T03:47:24.585Z</time>
      </trkpt>
      <trkpt lat="46.33843" lon="-0.07078">
        <ele>104.14</ele>
        <time>2023-06-18T03:48:23.357Z</time>
      </trkpt>
      <trkpt lat="46.33835" lon="-0.07072">
        <ele>103.79</ele>
        <time>2023-06-18T03:49:22.131Z</time>
      </trkpt>
      <trkpt lat="46.33826" lon="-0.07065">
        <ele>103.43</ele>
        <time>2023-06-18T03:50:20.906Z</time>
      </trkpt>
      <trkpt lat="46.33821" lon="-0.07055">
        <ele>103.17</ele>
        <time>2023-06-18T03:51:19.683Z</time>
      </trkpt>
      <trkpt lat="46.33821" lon="-0.07055">
        <ele>103.17</ele>
        <time>2023-06-18T03:52:18.460Z</time>
      </trkpt>
      <trkpt lat="46.33818" lon="-0.07044">
        <ele>102.93</ele>
        <time>2023-06-18T03:53:17.238Z</time>
      </trkpt>
      <trkpt lat="46.33816" lon="-0.07038">
        <ele>102.85</ele>
        <time>2023-06-18T03:54:16.017Z</time>
      </trkpt>
      <trkpt lat="46.33814" lon="-0.07032">
        <ele>102.8</ele>
        <time>2023-06-18T03:55:14.797Z</time>
      </trkpt>
      <trkpt lat="46.33813" lon="-0.07026">
        <ele>102.78</ele>
        <time>2023-06-18T03:56:13.577Z</time>
      </trkpt>
      <trkpt lat="46.33806" lon="-0.07002">
        <ele>102.77</ele>
        <time>2023-06-18T03:57:12.360Z</time>
      </trkpt>
      <trkpt lat="46.33797" lon="-0.06972">
        <ele>102.67</ele>
        <time>2023-06-18T03:58:11.147Z</time>
      </trkpt>
      <trkpt lat="46.33797" lon="-0.06972">
        <ele>102.67</ele>
        <time>2023-06-18T03:59:09.934Z</time>
      </trkpt>
      <trkpt lat="46.33793" lon="-0.06954">
        <ele>102.64</ele>
        <time>2023-06-18T04:00:08.723Z</time>
      </trkpt>
      <trkpt lat="46.33791" lon="-0.06941">
        <ele>102.59</ele>
        <time>2023-06-18T04:01:07.513Z</time>
      </trkpt>
      <trkpt lat="46.3379" lon="-0.06935">
        <ele>102.6</ele>
        <time>2023-06-18T04:02:06.304Z</time>
      </trkpt>
      <trkpt lat="46.33786" lon="-0.06916">
        <ele>102.74</ele>
        <time>2023-06-18T04:03:05.097Z</time>
      </trkpt>
      <trkpt lat="46.33785" lon="-0.06912">
        <ele>102.72</ele>
        <time>2023-06-18T04:04:03.891Z</time>
      </trkpt>
      <trkpt lat="46.33783" lon="-0.06904">
        <ele>102.7</ele>
        <time>2023-06-18T04:05:02.686Z</time>
      </trkpt>
      <trkpt lat="46.33782" lon="-0.069">
        <ele>100.92</ele>
        <time>2023-06-18T04:06:01.481Z</time>
      </trkpt>
      <trkpt lat="46.33777" lon="-0.06883">
        <ele>101.53</ele>
        <time>2023-06-18T04:07:00.278Z</time>
      </trkpt>
      <trkpt lat="46.33775" lon="-0.06877">
        <ele>101.71</ele>
        <time>2023-06-18T04:07:59.076Z</time>
      </trkpt>
      <trkpt lat="46.33773" lon="-0.06871">
        <ele>101.85</ele>
        <time>2023-06-18T04:08:57.875Z</time>
      </trkpt>
      <trkpt lat="46.33771" lon="-0.06865">
        <ele>101.96</ele>
        <time>2023-06-18T04:09:56.674Z</time>
      </trkpt>
      <trkpt lat="46.3377" lon="-0.06859">
        <ele>102.02</ele>
        <time>2023-06-18T04:10:55.474Z</time>
      </trkpt>
      <trkpt lat="46.33768" lon="-0.06853">
        <ele>102.05</ele>
        <time>2023-06-18T04:11:54.275Z</time>
      </trkpt>
      <trkpt lat="46.33763" lon="-0.06835">
        <ele>102.07</ele>
        <time>2023-06-18T04:12:53.078Z</time>
      </trkpt>
      <trkpt lat="46.33763" lon="-0.06835">
        <ele>102.07</ele>
        <time>2023-06-18T04:13:51.881Z</time>
      </trkpt>
      <trkpt lat="46.33765" lon="-0.06832">
        <ele>102.08</ele>
        <time>2023-06-18T04:14:50.684Z</time>
      </trkpt>
      <trkpt lat="46.33764" lon="-0.0683">
        <ele>102.1</ele>
        <time>2023-06-18T04:15:49.488Z</time>
      </trkpt>
      <trkpt lat="46.33762" lon="-0.06824">
        <ele>102.17</ele>
        <time>2023-06-18T04:16:48.292Z</time>
      </trkpt>
      <trkpt lat="46.33755" lon="-0.06801">
        <ele>102.58</ele>
        <time>2023-06-18T04:17:47.099Z</time>
      </trkpt>
      <trkpt lat="46.33753" lon="-0.06795">
        <ele>102.71</ele>
        <time>2023-06-18T04:18:45.907Z</time>
      </trkpt>
      <trkpt lat="46.33751" lon="-0.0679">
        <ele>102.86</ele>
        <time>2023-06-18T04:19:44.716Z</time>
      </trkpt>
      <trkpt lat="46.33746" lon="-0.06776">
        <ele>103.29</ele>
        <time>2023-06-18T04:20:43.526Z</time>
      </trkpt>
      <trkpt lat="46.33744" lon="-0.06773">
        <ele>103.41</ele>
        <time>2023-06-18T04:21:42.337Z</time>
      </trkpt>
      <trkpt lat="46.33737" lon="-0.06757">
        <ele>103.92</ele>
        <time>2023-06-18T04:22:41.150Z</time>
      </trkpt>
      <trkpt lat="46.33734" lon="-0.06751">
        <ele>104.08</ele>
        <time>2023-06-18T04:23:39.964Z</time>
      </trkpt>
      <trkpt lat="46.33732" lon="-0.06746">
        <ele>104.21</ele>
        <time>2023-06-18T04:24:38.778Z</time>
      </trkpt>
      <trkpt lat="46.3373" lon="-0.06741">
        <ele>104.32</ele>
        <time>2023-06-18T04:25:37.593Z</time>
      </trkpt>
      <trkpt lat="46.33727" lon="-0.06735">
        <ele>104.38</ele>
        <time>2023-06-18T04:26:36.409Z</time>
      </trkpt>
      <trkpt lat="46.33726" lon="-0.06733">
        <ele>104.38</ele>
        <time>2023-06-18T04:27:35.225Z</time>
      </trkpt>
      <trkpt lat="46.33724" lon="-0.0673">
        <ele>104.4</ele>
        <time>2023-06-18T04:28:34.042Z</time>
      </trkpt>
      <trkpt lat="46.33722" lon="-0.06725">
        <ele>104.33</ele>
        <time>2023-06-18T04:29:32.859Z</time>
      </trkpt>
      <trkpt lat="46.33719" lon="-0.0672">
        <ele>104.17</ele>
        <time>2023-06-18T04:30:31.677Z</time>
      </trkpt>
      <trkpt lat="46.33713" lon="-0.0671">
        <ele>103.7</ele>
        <time>2023-06-18T04:31:30.496Z</time>
      </trkpt>
      <trkpt lat="46.3371" lon="-0.06706">
        <ele>103.49</ele>
        <time>2023-06-18T04:32:29.316Z</time>
      </trkpt>
      <trkpt lat="46.33707" lon="-0.06701">
        <ele>103.33</ele>
        <time>2023-06-18T04:33:28.137Z</time>
      </trkpt>
      <trkpt lat="46.33701" lon="-0.0669">
        <ele>103.07</ele>
        <time>2023-06-18T04:34:26.959Z</time>
      </trkpt>
      <trkpt lat="46.33701" lon="-0.0669">
        <ele>103.07</ele>
        <time>2023-06-18T04:35:25.781Z</time>
      </trkpt>
      <trkpt lat="46.33699" lon="-0.06686">
        <ele>102.92</ele>
        <time>2023-06-18T04:36:24.604Z</time>
      </trkpt>
      <trkpt lat="46.33696" lon="-0.0668">
        <ele>102.72</ele>
        <time>2023-06-18T04:37:23.428Z</time>
      </trkpt>
      <trkpt lat="46.33694" lon="-0.06675">
        <ele>102.46</ele>
        <time>2023-06-18T04:38:22.252Z</time>
      </trkpt>
      <trkpt lat="46.33692" lon="-0.0667">
        <ele>102.13</ele>
        <time>2023-06-18T04:39:21.077Z</time>
      </trkpt>
      <trkpt lat="46.33689" lon="-0.06664">
        <ele>101.73</ele>
        <time>2023-06-18T04:40:19.903Z</time>
      </trkpt>
      <trkpt lat="46.33688" lon="-0.06662">
        <ele>101.52</ele>
        <time>2023-06-18T04:41:18.729Z</time>
      </trkpt>
      <trkpt lat="46.33688" lon="-0.06658">
        <ele>101.24</ele>
        <time>2023-06-18T04:42:17.555Z</time>
      </trkpt>
      <trkpt lat="46.33689" lon="-0.06652">
        <ele>100.67</ele>
        <time>2023-06-18T04:43:16.382Z</time>
      </trkpt>
      <trkpt lat="46.3369" lon="-0.0664">
        <ele>99.47</ele>
        <time>2023-06-18T04:44:15.211Z</time>
      </trkpt>
      <trkpt lat="46.33692" lon="-0.06633">
        <ele>98.76</ele>
        <time>2023-06-18T04:45:14.040Z</time>
      </trkpt>
      <trkpt lat="46.33694" lon="-0.06627">
        <ele>98.19</ele>
        <time>2023-06-18T04:46:12.870Z</time>
      </trkpt>
      <trkpt lat="46.33696" lon="-0.06622">
        <ele>97.68</ele>
        <time>2023-06-18T04:47:11.701Z</time>
      </trkpt>
      <trkpt lat="46.33697" lon="-0.06616">
        <ele>97.27</ele>
        <time>2023-06-18T04:48:10.532Z</time>
      </trkpt>
      <trkpt lat="46.33699" lon="-0.0661">
        <ele>97</ele>
        <time>2023-06-18T04:49:09.364Z</time>
      </trkpt>
      <trkpt lat="46.33701" lon="-0.06604">
        <ele>96.83</ele>
        <time>2023-06-18T04:50:08.197Z</time>
      </trkpt>
      <trkpt lat="46.33703" lon="-0.06597">
        <ele>96.81</ele>
        <time>2023-06-18T04:51:07.031Z</time>
      </trkpt>
      <trkpt lat="46.33707" lon="-0.06586">
        <ele>96.8</ele>
        <time>2023-06-18T04:52:05.866Z</time>
      </trkpt>
      <trkpt lat="46.33707" lon="-0.06586">
        <ele>96.8</ele>
        <time>2023-06-18T04:53:04.701Z</time>
      </trkpt>
      <trkpt lat="46.33713" lon="-0.06579">
        <ele>96.83</ele>
        <time>2023-06-18T04:54:03.537Z</time>
      </trkpt>
      <trkpt lat="46.3372" lon="-0.0657">
        <ele>96.81</ele>
        <time>2023-06-18T04:55:02.375Z</time>
      </trkpt>
      <trkpt lat="46.33722" lon="-0.06568">
        <ele>96.77</ele>
        <time>2023-06-18T04:56:01.213Z</time>
      </trkpt>
      <trkpt lat="46.33724" lon="-0.06559">
        <ele>96.68</ele>
        <time>2023-06-18T04:57:00.052Z</time>
      </trkpt>
      <trkpt lat="46.33726" lon="-0.06553">
        <ele>96.65</ele>
        <time>2023-06-18T04:57:58.892Z</time>
      </trkpt>
      <trkpt lat="46.33727" lon="-0.06547">
        <ele>96.65</ele>
        <time>2023-06-18T04:58:57.733Z</time>
      </trkpt>
      <trkpt lat="46.33728" lon="-0.06544">
        <ele>96.67</ele>
        <time>2023-06-18T04:59:56.574Z</time>
      </trkpt>
      <trkpt lat="46.33727" lon="-0.06534">
        <ele>96.75</ele>
        <time>2023-06-18T05:00:55.416Z</time>
      </trkpt>
      <trkpt lat="46.33726" lon="-0.06521">
        <ele>96.88</ele>
        <time>2023-06-18T05:01:54.260Z</time>
      </trkpt>
      <trkpt lat="46.33723" lon="-0.06516">
        <ele>96.94</ele>
        <time>2023-06-18T05:02:53.104Z</time>
      </trkpt>
      <trkpt lat="46.33722" lon="-0.06514">
        <ele>96.95</ele>
        <time>2023-06-18T05:03:51.949Z</time>
      </trkpt>
      <trkpt lat="46.3372" lon="-0.06512">
        <ele>96.98</ele>
        <time>2023-06-18T05:04:50.794Z</time>
      </trkpt>
      <trkpt lat="46.33715" lon="-0.06507">
        <ele>97</ele>
        <time>2023-06-18T05:05:49.640Z</time>
      </trkpt>
      <trkpt lat="46.33712" lon="-0.06505">
        <ele>97.01</ele>
        <time>2023-06-18T05:06:48.486Z</time>
      </trkpt>
      <trkpt lat="46.33708" lon="-0.06503">
        <ele>97.05</ele>
        <time>2023-06-18T05:07:47.333Z</time>
      </trkpt>
      <trkpt lat="46.33704" lon="-0.06501">
        <ele>97.2</ele>
        <time>2023-06-18T05:08:46.181Z</time>
      </trkpt>
      <trkpt lat="46.337" lon="-0.06498">
        <ele>97.51</ele>
        <time>2023-06-18T05:09:45.030Z</time>
      </trkpt>
      <trkpt lat="46.33696" lon="-0.06496">
        <ele>97.99</ele>
        <time>2023-06-18T05:10:43.879Z</time>
      </trkpt>
      <trkpt lat="46.3369" lon="-0.06492">
        <ele>98.84</ele>
        <time>2023-06-18T05:11:42.729Z</time>
      </trkpt>
      <trkpt lat="46.33695" lon="-0.06485">
        <ele>99.76</ele>
        <time>2023-06-18T05:12:41.580Z</time>
      </trkpt>
      <trkpt lat="46.33704" lon="-0.0647">
        <ele>101.41</ele>
        <time>2023-06-18T05:13:40.434Z</time>
      </trkpt>
      <trkpt lat="46.33707" lon="-0.06466">
        <ele>101.91</ele>
        <time>2023-06-18T05:14:39.288Z</time>
      </trkpt>
      <trkpt lat="46.3371" lon="-0.06461">
        <ele>102.38</ele>
        <time>2023-06-18T05:15:38.143Z</time>
      </trkpt>
      <trkpt lat="46.33716" lon="-0.06457">
        <ele>103.08</ele>
        <time>2023-06-18T05:16:36.999Z</time>
      </trkpt>
      <trkpt lat="46.33718" lon="-0.06457">
        <ele>103.32</ele>
        <time>2023-06-18T05:17:35.855Z</time>
      </trkpt>
      <trkpt lat="46.33723" lon="-0.06457">
        <ele>103.76</ele>
        <time>2023-06-18T05:18:34.712Z</time>
      </trkpt>
      <trkpt lat="46.33727" lon="-0.06457">
        <ele>104.15</ele>
        <time>2023-06-18T05:19:33.570Z</time>
      </trkpt>
      <trkpt lat="46.33732" lon="-0.06457">
        <ele>104.46</ele>
        <time>2023-06-18T05:20:32.429Z</time>
      </trkpt>
      <trkpt lat="46.33733" lon="-0.06457">
        <ele>104.52</ele>
        <time>2023-06-18T05:21:31.288Z</time>
      </trkpt>
      <trkpt lat="46.33734" lon="-0.06453">
        <ele>104.69</ele>
        <time>2023-06-18T05:22:30.147Z</time>
      </trkpt>
      <trkpt lat="46.33734" lon="-0.0645">
        <ele>104.75</ele>
        <time>2023-06-18T05:23:29.007Z</time>
      </trkpt>
      <trkpt lat="46.33734" lon="-0.06446">
        <ele>104.85</ele>
        <time>2023-06-18T05:24:27.867Z</time>
      </trkpt>
      <trkpt lat="46.33733" lon="-0.06428">
        <ele>105.19</ele>
        <time>2023-06-18T05:25:26.729Z</time>
      </trkpt>
      <trkpt lat="46.33733" lon="-0.06427">
        <ele>105.19</ele>
        <time>2023-06-18T05:26:25.591Z</time>
      </trkpt>
      <trkpt lat="46.33732" lon="-0.0642">
        <ele>105.32</ele>
        <time>2023-06-18T05:27:24.454Z</time>
      </trkpt>
      <trkpt lat="46.3373" lon="-0.06408">
        <ele>105.64</ele>
        <time>2023-06-18T05:28:23.318Z</time>
      </trkpt>
      <trkpt lat="46.33728" lon="-0.06396">
        <ele>105.57</ele>
        <time>2023-06-18T05:29:22.184Z</time>
      </trkpt>
      <trkpt lat="46.33726" lon="-0.06365">
        <ele>105.41</ele>
        <time>2023-06-18T05:30:21.053Z</time>
      </trkpt>
      <trkpt lat="46.33724" lon="-0.0634">
        <ele>105.24</ele>
        <time>2023-06-18T05:31:19.925Z</time>
      </trkpt>
      <trkpt lat="46.33724" lon="-0.06336">
        <ele>105.2</ele>
        <time>2023-06-18T05:32:18.797Z</time>
      </trkpt>
      <trkpt lat="46.33734" lon="-0.06336">
        <ele>105.05</ele>
        <time>2023-06-18T05:33:17.671Z</time>
      </trkpt>
      <trkpt lat="46.33747" lon="-0.06336">
        <ele>104.78</ele>
        <time>2023-06-18T05:34:16.547Z</time>
      </trkpt>
      <trkpt lat="46.33747" lon="-0.06336">
        <ele>104.78</ele>
        <time>2023-06-18T05:35:15.423Z</time>
      </trkpt>
      <trkpt lat="46.33756" lon="-0.06335">
        <ele>104.54</ele>
        <time>2023-06-18T05:36:14.300Z</time>
      </trkpt>
      <trkpt lat="46.33765" lon="-0.06333">
        <ele>104.24</ele>
        <time>2023-06-18T05:37:13.179Z</time>
      </trkpt>
      <trkpt lat="46.33773" lon="-0.06332">
        <ele>103.86</ele>
        <time>2023-06-18T05:38:12.059Z</time>
      </trkpt>
      <trkpt lat="46.33782" lon="-0.0633">
        <ele>103.4</ele>
        <time>2023-06-18T05:39:10.941Z</time>
      </trkpt>
      <trkpt lat="46.33791" lon="-0.06329">
        <ele>102.87</ele>
        <time>2023-06-18T05:40:09.824Z</time>
      </trkpt>
      <trkpt lat="46.33797" lon="-0.06328">
        <ele>102.48</ele>
        <time>2023-06-18T05:41:08.708Z</time>
      </trkpt>
      <trkpt lat="46.338" lon="-0.06327">
        <ele>102.31</ele>
        <time>2023-06-18T05:42:07.593Z</time>
      </trkpt>
      <trkpt lat="46.33825" lon="-0.06318">
        <ele>100.4</ele>
        <time>2023-06-18T05:43:06.482Z</time>
      </trkpt>
      <trkpt lat="46.33838" lon="-0.06313">
        <ele>99.49</ele>
        <time>2023-06-18T05:44:05.373Z</time>
      </trkpt>
      <trkpt lat="46.33847" lon="-0.0631">
        <ele>98.92</ele>
        <time>2023-06-18T05:45:04.265Z</time>
      </trkpt>
      <trkpt lat="46.33848" lon="-0.0631">
        <ele>98.83</ele>
        <time>2023-06-18T05:46:03.157Z</time>
      </trkpt>
      <trkpt lat="46.33859" lon="-0.06305">
        <ele>98.14</ele>
        <time>2023-06-18T05:47:02.051Z</time>
      </trkpt>
      <trkpt lat="46.33864" lon="-0.06303">
        <ele>98.03</ele>
        <time>2023-06-18T05:48:00.946Z</time>
      </trkpt>
      <trkpt lat="46.3387" lon="-0.06298">
        <ele>97.88</ele>
        <time>2023-06-18T05:48:59.842Z</time>
      </trkpt>
      <trkpt lat="46.33878" lon="-0.06293">
        <ele>97.75</ele>
        <time>2023-06-18T05:49:58.740Z</time>
      </trkpt>
      <trkpt lat="46.33885" lon="-0.06287">
        <ele>97.67</ele>
        <time>2023-06-18T05:50:57.639Z</time>
      </trkpt>
      <trkpt lat="46.33896" lon="-0.06279">
        <ele>97.62</ele>
        <time>2023-06-18T05:51:56.540Z</time>
      </trkpt>
      <trkpt lat="46.33901" lon="-0.06275">
        <ele>97.61</ele>
        <time>2023-06-18T05:52:55.442Z</time>
      </trkpt>
      <trkpt lat="46.33913" lon="-0.06266">
        <ele>97.28</ele>
        <time>2023-06-18T05:53:54.346Z</time>
      </trkpt>
      <trkpt lat="46.33919" lon="-0.06262">
        <ele>101.01</ele>
        <time>2023-06-18T05:54:53.251Z</time>
      </trkpt>
      <trkpt lat="46.3394" lon="-0.06246">
        <ele>101.14</ele>
        <time>2023-06-18T05:55:52.160Z</time>
      </trkpt>
      <trkpt lat="46.33941" lon="-0.06246">
        <ele>101.15</ele>
        <time>2023-06-18T05:56:51.069Z</time>
      </trkpt>
      <trkpt lat="46.33945" lon="-0.06245">
        <ele>101.15</ele>
        <time>2023-06-18T05:57:49.979Z</time>
      </trkpt>
      <trkpt lat="46.33954" lon="-0.06243">
        <ele>101.23</ele>
        <time>2023-06-18T05:58:48.890Z</time>
      </trkpt>
      <trkpt lat="46.33959" lon="-0.06242">
        <ele>101.32</ele>
        <time>2023-06-18T05:59:47.802Z</time>
      </trkpt>
      <trkpt lat="46.33962" lon="-0.06238">
        <ele>101.39</ele>
        <time>2023-06-18T06:00:46.715Z</time>
      </trkpt>
      <trkpt lat="46.33964" lon="-0.06235">
        <ele>101.47</ele>
        <time>2023-06-18T06:01:45.628Z</time>
      </trkpt>
      <trkpt lat="46.33964" lon="-0.06227">
        <ele>101.63</ele>
        <time>2023-06-18T06:02:44.542Z</time>
      </trkpt>
      <trkpt lat="46.33965" lon="-0.0622">
        <ele>101.79</ele>
        <time>2023-06-18T06:03:43.457Z</time>
      </trkpt>
      <trkpt lat="46.33966" lon="-0.06199">
        <ele>102.38</ele>
        <time>2023-06-18T06:04:42.374Z</time>
      </trkpt>
      <trkpt lat="46.33968" lon="-0.06189">
        <ele>102.68</ele>
        <time>2023-06-18T06:05:41.292Z</time>
      </trkpt>
      <trkpt lat="46.3397" lon="-0.06176">
        <ele>103</ele>
        <time>2023-06-18T06:06:40.212Z</time>
      </trkpt>
      <trkpt lat="46.33975" lon="-0.06147">
        <ele>103.57</ele>
        <time>2023-06-18T06:07:39.135Z</time>
      </trkpt>
      <trkpt lat="46.33975" lon="-0.06145">
        <ele>103.62</ele>
        <time>2023-06-18T06:08:38.058Z</time>
      </trkpt>
      <trkpt lat="46.33976" lon="-0.06126">
        <ele>104.07</ele>
        <time>2023-06-18T06:09:36.983Z</time>
      </trkpt>
      <trkpt lat="46.33977" lon="-0.06106">
        <ele>105.09</ele>
        <time>2023-06-18T06:10:35.911Z</time>
      </trkpt>
      <trkpt lat="46.33977" lon="-0.06093">
        <ele>105.71</ele>
        <time>2023-06-18T06:11:34.840Z</time>
      </trkpt>
      <trkpt lat="46.33978" lon="-0.0608">
        <ele>106.29</ele>
        <time>2023-06-18T06:12:33.770Z</time>
      </trkpt>
      <trkpt lat="46.33979" lon="-0.06054">
        <ele>107.41</ele>
        <time>2023-06-18T06:13:32.703Z</time>
      </trkpt>
      <trkpt lat="46.33979" lon="-0.06042">
        <ele>108</ele>
        <time>2023-06-18T06:14:31.638Z</time>
      </trkpt>
      <trkpt lat="46.3398" lon="-0.06035">
        <ele>108.36</ele>
        <time>2023-06-18T06:15:30.573Z</time>
      </trkpt>
      <trkpt lat="46.33981" lon="-0.06028">
        <ele>108.66</ele>
        <time>2023-06-18T06:16:29.509Z</time>
      </trkpt>
      <trkpt lat="46.33981" lon="-0.06027">
        <ele>108.72</ele>
        <time>2023-06-18T06:17:28.445Z</time>
      </trkpt>
      <trkpt lat="46.33986" lon="-0.06018">
        <ele>109.22</ele>
        <time>2023-06-18T06:18:27.383Z</time>
      </trkpt>
      <trkpt lat="46.33991" lon="-0.06009">
        <ele>109.67</ele>
        <time>2023-06-18T06:19:26.322Z</time>
      </trkpt>
      <trkpt lat="46.33991" lon="-0.06008">
        <ele>109.73</ele>
        <time>2023-06-18T06:20:25.261Z</time>
      </trkpt>
      <trkpt lat="46.33994" lon="-0.05999">
        <ele>110.08</ele>
        <time>2023-06-18T06:21:24.201Z</time>
      </trkpt>
      <trkpt lat="46.33994" lon="-0.05982">
        <ele>110.71</ele>
        <time>2023-06-18T06:22:23.143Z</time>
      </trkpt>
      <trkpt lat="46.33995" lon="-0.05961">
        <ele>110.96</ele>
        <time>2023-06-18T06:23:22.087Z</time>
      </trkpt>
      <trkpt lat="46.33994" lon="-0.05951">
        <ele>111.09</ele>
        <time>2023-06-18T06:24:21.032Z</time>
      </trkpt>
      <trkpt lat="46.33994" lon="-0.05938">
        <ele>111.22</ele>
        <time>2023-06-18T06:25:19.979Z</time>
      </trkpt>
      <trkpt lat="46.33993" lon="-0.05925">
        <ele>111.31</ele>
        <time>2023-06-18T06:26:18.927Z</time>
      </trkpt>
      <trkpt lat="46.33992" lon="-0.0591">
        <ele>111.31</ele>
        <time>2023-06-18T06:27:17.877Z</time>
      </trkpt>
      <trkpt lat="46.33992" lon="-0.05887">
        <ele>111.31</ele>
        <time>2023-06-18T06:28:16.830Z</time>
      </trkpt>
      <trkpt lat="46.33991" lon="-0.05868">
        <ele>111.37</ele>
        <time>2023-06-18T06:29:15.785Z</time>
      </trkpt>
      <trkpt lat="46.33991" lon="-0.05855">
        <ele>111.39</ele>
        <time>2023-06-18T06:30:14.741Z</time>
      </trkpt>
      <trkpt lat="46.33991" lon="-0.05849">
        <ele>111.37</ele>
        <time>2023-06-18T06:31:13.698Z</time>
      </trkpt>
      <trkpt lat="46.3399" lon="-0.05824">
        <ele>111.24</ele>
        <time>2023-06-18T06:32:12.658Z</time>
      </trkpt>
      <trkpt lat="46.3399" lon="-0.05811">
        <ele>111.2</ele>
        <time>2023-06-18T06:33:11.619Z</time>
      </trkpt>
      <trkpt lat="46.3399" lon="-0.05798">
        <ele>111.24</ele>
        <time>2023-06-18T06:34:10.581Z</time>
      </trkpt>
      <trkpt lat="46.3399" lon="-0.05792">
        <ele>111.28</ele>
        <time>2023-06-18T06:35:09.544Z</time>
      </trkpt>
      <trkpt lat="46.3399" lon="-0.05779">
        <ele>111.41</ele>
        <time>2023-06-18T06:36:08.509Z</time>
      </trkpt>
      <trkpt lat="46.33989" lon="-0.05759">
        <ele>111.64</ele>
        <time>2023-06-18T06:37:07.476Z</time>
      </trkpt>
      <trkpt lat="46.33989" lon="-0.05746">
        <ele>111.75</ele>
        <time>2023-06-18T06:38:06.444Z</time>
      </trkpt>
      <trkpt lat="46.33989" lon="-0.0574">
        <ele>111.78</ele>
        <time>2023-06-18T06:39:05.413Z</time>
      </trkpt>
      <trkpt lat="46.33989" lon="-0.05738">
        <ele>111.78</ele>
        <time>2023-06-18T06:40:04.382Z</time>
      </trkpt>
      <trkpt lat="46.33989" lon="-0.05721">
        <ele>111.81</ele>
        <time>2023-06-18T06:41:03.353Z</time>
      </trkpt>
      <trkpt lat="46.3399" lon="-0.05708">
        <ele>111.85</ele>
        <time>2023-06-18T06:42:02.325Z</time>
      </trkpt>
      <trkpt lat="46.33991" lon="-0.05669">
        <ele>112.06</ele>
        <time>2023-06-18T06:43:01.302Z</time>
      </trkpt>
      <trkpt lat="46.33991" lon="-0.05656">
        <ele>112.11</ele>
        <time>2023-06-18T06:44:00.280Z</time>
      </trkpt>
      <trkpt lat="46.33991" lon="-0.05643">
        <ele>112.13</ele>
        <time>2023-06-18T06:44:59.260Z</time>
      </trkpt>
      <trkpt lat="46.33991" lon="-0.0563">
        <ele>112.1</ele>
        <time>2023-06-18T06:45:58.241Z</time>
      </trkpt>
      <trkpt lat="46.33992" lon="-0.05617">
        <ele>112.04</ele>
        <time>2023-06-18T06:46:57.223Z</time>
      </trkpt>
      <trkpt lat="46.33992" lon="-0.05605">
        <ele>111.96</ele>
        <time>2023-06-18T06:47:56.207Z</time>
      </trkpt>
      <trkpt lat="46.33989" lon="-0.05579">
        <ele>111.8</ele>
        <time>2023-06-18T06:48:55.194Z</time>
      </trkpt>
      <trkpt lat="46.33986" lon="-0.0556">
        <ele>112.11</ele>
        <time>2023-06-18T06:49:54.183Z</time>
      </trkpt>
      <trkpt lat="46.33986" lon="-0.05553">
        <ele>112.19</ele>
        <time>2023-06-18T06:50:53.173Z</time>
      </trkpt>
      <trkpt lat="46.33985" lon="-0.05547">
        <ele>112.23</ele>
        <time>2023-06-18T06:51:52.163Z</time>
      </trkpt>
      <trkpt lat="46.33984" lon="-0.05541">
        <ele>112.23</ele>
        <time>2023-06-18T06:52:51.154Z</time>
      </trkpt>
      <trkpt lat="46.3398" lon="-0.05508">
        <ele>111.99</ele>
        <time>2023-06-18T06:53:50.149Z</time>
      </trkpt>
      <trkpt lat="46.3398" lon="-0.05508">
        <ele>111.99</ele>
        <time>2023-06-18T06:54:49.144Z</time>
      </trkpt>
      <trkpt lat="46.33974" lon="-0.05491">
        <ele>111.94</ele>
        <time>2023-06-18T06:55:48.141Z</time>
      </trkpt>
      <trkpt lat="46.33972" lon="-0.05485">
        <ele>111.9</ele>
        <time>2023-06-18T06:56:47.139Z</time>
      </trkpt>
      <trkpt lat="46.3397" lon="-0.0548">
        <ele>111.83</ele>
        <time>2023-06-18T06:57:46.137Z</time>
      </trkpt>
      <trkpt lat="46.3397" lon="-0.0548">
        <ele>111.83</ele>
        <time>2023-06-18T06:58:45.135Z</time>
      </trkpt>
      <trkpt lat="46.33965" lon="-0.05469">
        <ele>111.64</ele>
        <time>2023-06-18T06:59:44.135Z</time>
      </trkpt>
      <trkpt lat="46.33958" lon="-0.05452">
        <ele>110.76</ele>
        <time>2023-06-18T07:00:43.137Z</time>
      </trkpt>
      <trkpt lat="46.33955" lon="-0.05447">
        <ele>110.49</ele>
        <time>2023-06-18T07:01:42.140Z</time>
      </trkpt>
      <trkpt lat="46.33953" lon="-0.05441">
        <ele>110.25</ele>
        <time>2023-06-18T07:02:41.143Z</time>
      </trkpt>
      <trkpt lat="46.3395" lon="-0.05436">
        <ele>110.05</ele>
        <time>2023-06-18T07:03:40.147Z</time>
      </trkpt>
      <trkpt lat="46.33946" lon="-0.05425">
        <ele>109.73</ele>
        <time>2023-06-18T07:04:39.153Z</time>
      </trkpt>
      <trkpt lat="46.33941" lon="-0.05414">
        <ele>109.53</ele>
        <time>2023-06-18T07:05:38.160Z</time>
      </trkpt>
      <trkpt lat="46.33938" lon="-0.05408">
        <ele>109.44</ele>
        <time>2023-06-18T07:06:37.168Z</time>
      </trkpt>
      <trkpt lat="46.33936" lon="-0.05403">
        <ele>109.38</ele>
        <time>2023-06-18T07:07:36.176Z</time>
      </trkpt>
      <trkpt lat="46.3393" lon="-0.05393">
        <ele>109.27</ele>
        <time>2023-06-18T07:08:35.186Z</time>
      </trkpt>
      <trkpt lat="46.33916" lon="-0.05368">
        <ele>109.1</ele>
        <time>2023-06-18T07:09:34.199Z</time>
      </trkpt>
      <trkpt lat="46.33911" lon="-0.05358">
        <ele>108.97</ele>
        <time>2023-06-18T07:10:33.214Z</time>
      </trkpt>
      <trkpt lat="46.33906" lon="-0.05346">
        <ele>108.83</ele>
        <time>2023-06-18T07:11:32.230Z</time>
      </trkpt>
      <trkpt lat="46.33902" lon="-0.05335">
        <ele>108.73</ele>
        <time>2023-06-18T07:12:31.248Z</time>
      </trkpt>
      <trkpt lat="46.3389" lon="-0.05306">
        <ele>108.67</ele>
        <time>2023-06-18T07:13:30.269Z</time>
      </trkpt>
      <trkpt lat="46.3389" lon="-0.05306">
        <ele>108.67</ele>
        <time>2023-06-18T07:14:29.290Z</time>
      </trkpt>
      <trkpt lat="46.33871" lon="-0.05279">
        <ele>108.51</ele>
        <time>2023-06-18T07:15:28.316Z</time>
      </trkpt>
      <trkpt lat="46.33855" lon="-0.05257">
        <ele>108.41</ele>
        <time>2023-06-18T07:16:27.345Z</time>
      </trkpt>
      <trkpt lat="46.33853" lon="-0.05254">
        <ele>108.39</ele>
        <time>2023-06-18T07:17:26.375Z</time>
      </trkpt>
      <trkpt lat="46.33848" lon="-0.05248">
        <ele>108.35</ele>
        <time>2023-06-18T07:18:25.406Z</time>
      </trkpt>
      <trkpt lat="46.33838" lon="-0.05236">
        <ele>108.19</ele>
        <time>2023-06-18T07:19:24.439Z</time>
      </trkpt>
      <trkpt lat="46.33824" lon="-0.05219">
        <ele>107.91</ele>
        <time>2023-06-18T07:20:23.475Z</time>
      </trkpt>
      <trkpt lat="46.33817" lon="-0.05211">
        <ele>107.82</ele>
        <time>2023-06-18T07:21:22.512Z</time>
      </trkpt>
      <trkpt lat="46.33796" lon="-0.05186">
        <ele>107.78</ele>
        <time>2023-06-18T07:22:21.554Z</time>
      </trkpt>
      <trkpt lat="46.3379" lon="-0.05177">
        <ele>107.78</ele>
        <time>2023-06-18T07:23:20.597Z</time>
      </trkpt>
      <trkpt lat="46.33785" lon="-0.0517">
        <ele>107.8</ele>
        <time>2023-06-18T07:24:19.641Z</time>
      </trkpt>
      <trkpt lat="46.33784" lon="-0.05167">
        <ele>107.82</ele>
        <time>2023-06-18T07:25:18.685Z</time>
      </trkpt>
      <trkpt lat="46.33769" lon="-0.05135">
        <ele>107.99</ele>
        <time>2023-06-18T07:26:17.734Z</time>
      </trkpt>
      <trkpt lat="46.33768" lon="-0.05132">
        <ele>107.99</ele>
        <time>2023-06-18T07:27:16.783Z</time>
      </trkpt>
      <trkpt lat="46.33766" lon="-0.05122">
        <ele>108.03</ele>
        <time>2023-06-18T07:28:15.833Z</time>
      </trkpt>
      <trkpt lat="46.33761" lon="-0.05091">
        <ele>108.02</ele>
        <time>2023-06-18T07:29:14.887Z</time>
      </trkpt>
      <trkpt lat="46.33758" lon="-0.05077">
        <ele>108.03</ele>
        <time>2023-06-18T07:30:13.942Z</time>
      </trkpt>
      <trkpt lat="46.3376" lon="-0.05052">
        <ele>108.05</ele>
        <time>2023-06-18T07:31:13.000Z</time>
      </trkpt>
      <trkpt lat="46.33762" lon="-0.05026">
        <ele>108.02</ele>
        <time>2023-06-18T07:32:12.061Z</time>
      </trkpt>
      <trkpt lat="46.33763" lon="-0.05014">
        <ele>108.05</ele>
        <time>2023-06-18T07:33:11.123Z</time>
      </trkpt>
      <trkpt lat="46.33763" lon="-0.05007">
        <ele>108.09</ele>
        <time>2023-06-18T07:34:10.186Z</time>
      </trkpt>
      <trkpt lat="46.33765" lon="-0.04988">
        <ele>108.28</ele>
        <time>2023-06-18T07:35:09.251Z</time>
      </trkpt>
      <trkpt lat="46.33766" lon="-0.04975">
        <ele>108.36</ele>
        <time>2023-06-18T07:36:08.318Z</time>
      </trkpt>
      <trkpt lat="46.33766" lon="-0.0497">
        <ele>108.37</ele>
        <time>2023-06-18T07:37:07.385Z</time>
      </trkpt>
      <trkpt lat="46.33764" lon="-0.04942">
        <ele>108.47</ele>
        <time>2023-06-18T07:38:06.455Z</time>
      </trkpt>
      <trkpt lat="46.33764" lon="-0.04934">
        <ele>108.49</ele>
        <time>2023-06-18T07:39:05.526Z</time>
      </trkpt>
      <trkpt lat="46.3376" lon="-0.0492">
        <ele>108.53</ele>
        <time>2023-06-18T07:40:04.599Z</time>
      </trkpt>
      <trkpt lat="46.3375" lon="-0.049">
        <ele>108.59</ele>
        <time>2023-06-18T07:41:03.675Z</time>
      </trkpt>
      <trkpt lat="46.33748" lon="-0.04897">
        <ele>108.61</ele>
        <time>2023-06-18T07:42:02.751Z</time>
      </trkpt>
      <trkpt lat="46.33742" lon="-0.04888">
        <ele>108.68</ele>
        <time>2023-06-18T07:43:01.829Z</time>
      </trkpt>
      <trkpt lat="46.33736" lon="-0.0488">
        <ele>108.77</ele>
        <time>2023-06-18T07:44:00.908Z</time>
      </trkpt>
      <trkpt lat="46.33726" lon="-0.04871">
        <ele>108.91</ele>
        <time>2023-06-18T07:44:59.989Z</time>
      </trkpt>
      <trkpt lat="46.33724" lon="-0.04869">
        <ele>108.95</ele>
        <time>2023-06-18T07:45:59.070Z</time>
      </trkpt>
      <trkpt lat="46.33711" lon="-0.0486">
        <ele>109.02</ele>
        <time>2023-06-18T07:46:58.153Z</time>
      </trkpt>
      <trkpt lat="46.33707" lon="-0.04858">
        <ele>109.05</ele>
        <time>2023-06-18T07:47:57.237Z</time>
      </trkpt>
      <trkpt lat="46.3369" lon="-0.04851">
        <ele>109.22</ele>
        <time>2023-06-18T07:48:56.324Z</time>
      </trkpt>
      <trkpt lat="46.33682" lon="-0.04847">
        <ele>109.32</ele>
        <time>2023-06-18T07:49:55.412Z</time>
      </trkpt>
      <trkpt lat="46.3368" lon="-0.04846">
        <ele>109.34</ele>
        <time>2023-06-18T07:50:54.501Z</time>
      </trkpt>
      <trkpt lat="46.33673" lon="-0.04842">
        <ele>109.47</ele>
        <time>2023-06-18T07:51:53.591Z</time>
      </trkpt>
      <trkpt lat="46.33669" lon="-0.04839">
        <ele>109.58</ele>
        <time>2023-06-18T07:52:52.682Z</time>
      </trkpt>
      <trkpt lat="46.33666" lon="-0.04837">
        <ele>109.7</ele>
        <time>2023-06-18T07:53:51.773Z</time>
      </trkpt>
      <trkpt lat="46.33661" lon="-0.04833">
        <ele>109.9</ele>
        <time>2023-06-18T07:54:50.865Z</time>
      </trkpt>
      <trkpt lat="46.33646" lon="-0.04819">
        <ele>110.65</ele>
        <time>2023-06-18T07:55:49.960Z</time>
      </trkpt>
      <trkpt lat="46.33643" lon="-0.04816">
        <ele>110.81</ele>
        <time>2023-06-18T07:56:49.055Z</time>
      </trkpt>
      <trkpt lat="46.33639" lon="-0.04811">
        <ele>111.05</ele>
        <time>2023-06-18T07:57:48.151Z</time>
      </trkpt>
      <trkpt lat="46.33632" lon="-0.04803">
        <ele>111.5</ele>
        <time>2023-06-18T07:58:47.249Z</time>
      </trkpt>
      <trkpt lat="46.3363" lon="-0.048">
        <ele>111.65</ele>
        <time>2023-06-18T07:59:46.347Z</time>
      </trkpt>
      <trkpt lat="46.33619" lon="-0.04784">
        <ele>112.46</ele>
        <time>2023-06-18T08:00:45.448Z</time>
      </trkpt>
      <trkpt lat="46.3361" lon="-0.04771">
        <ele>113.1</ele>
        <time>2023-06-18T08:01:44.551Z</time>
      </trkpt>
      <trkpt lat="46.33594" lon="-0.04748">
        <ele>114.21</ele>
        <time>2023-06-18T08:02:43.657Z</time>
      </trkpt>
      <trkpt lat="46.33589" lon="-0.04741">
        <ele>114.5</ele>
        <time>2023-06-18T08:03:42.764Z</time>
      </trkpt>
      <trkpt lat="46.33587" lon="-0.04739">
        <ele>114.6</ele>
        <time>2023-06-18T08:04:41.872Z</time>
      </trkpt>
      <trkpt lat="46.3358" lon="-0.04732">
        <ele>114.9</ele>
        <time>2023-06-18T08:05:40.981Z</time>
      </trkpt>
      <trkpt lat="46.33565" lon="-0.04717">
        <ele>115.39</ele>
        <time>2023-06-18T08:06:40.093Z</time>
      </trkpt>
      <trkpt lat="46.33554" lon="-0.04705">
        <ele>115.79</ele>
        <time>2023-06-18T08:07:39.207Z</time>
      </trkpt>
      <trkpt lat="46.33547" lon="-0.04698">
        <ele>116.1</ele>
        <time>2023-06-18T08:08:38.323Z</time>
      </trkpt>
      <trkpt lat="46.33536" lon="-0.04687">
        <ele>116.62</ele>
        <time>2023-06-18T08:09:37.441Z</time>
      </trkpt>
      <trkpt lat="46.33534" lon="-0.04685">
        <ele>116.68</ele>
        <time>2023-06-18T08:10:36.559Z</time>
      </trkpt>
      <trkpt lat="46.33529" lon="-0.04679">
        <ele>116.92</ele>
        <time>2023-06-18T08:11:35.678Z</time>
      </trkpt>
      <trkpt lat="46.33522" lon="-0.0467">
        <ele>117.17</ele>
        <time>2023-06-18T08:12:34.799Z</time>
      </trkpt>
      <trkpt lat="46.33518" lon="-0.04666">
        <ele>117.27</ele>
        <time>2023-06-18T08:13:33.921Z</time>
      </trkpt>
      <trkpt lat="46.33511" lon="-0.04658">
        <ele>117.39</ele>
        <time>2023-06-18T08:14:33.044Z</time>
      </trkpt>
      <trkpt lat="46.33504" lon="-0.0465">
        <ele>117.45</ele>
        <time>2023-06-18T08:15:32.168Z</time>
      </trkpt>
      <trkpt lat="46.33497" lon="-0.04642">
        <ele>117.48</ele>
        <time>2023-06-18T08:16:31.294Z</time>
      </trkpt>
      <trkpt lat="46.33495" lon="-0.04639">
        <ele>117.48</ele>
        <time>2023-06-18T08:17:30.420Z</time>
      </trkpt>
      <trkpt lat="46.33485" lon="-0.04623">
        <ele>117.48</ele>
        <time>2023-06-18T08:18:29.549Z</time>
      </trkpt>
      <trkpt lat="46.33475" lon="-0.04609">
        <ele>117.36</ele>
        <time>2023-06-18T08:19:28.680Z</time>
      </trkpt>
      <trkpt lat="46.33472" lon="-0.04604">
        <ele>117.28</ele>
        <time>2023-06-18T08:20:27.812Z</time>
      </trkpt>
      <trkpt lat="46.33466" lon="-0.04595">
        <ele>117.04</ele>
        <time>2023-06-18T08:21:26.945Z</time>
      </trkpt>
      <trkpt lat="46.33463" lon="-0.0459">
        <ele>116.89</ele>
        <time>2023-06-18T08:22:26.079Z</time>
      </trkpt>
      <trkpt lat="46.3346" lon="-0.04586">
        <ele>116.71</ele>
        <time>2023-06-18T08:23:25.213Z</time>
      </trkpt>
      <trkpt lat="46.33456" lon="-0.0458">
        <ele>116.5</ele>
        <time>2023-06-18T08:24:24.348Z</time>
      </trkpt>
      <trkpt lat="46.33456" lon="-0.0458">
        <ele>116.5</ele>
        <time>2023-06-18T08:25:23.483Z</time>
      </trkpt>
      <trkpt lat="46.33454" lon="-0.04576">
        <ele>116.23</ele>
        <time>2023-06-18T08:26:22.619Z</time>
      </trkpt>
      <trkpt lat="46.33451" lon="-0.04571">
        <ele>115.93</ele>
        <time>2023-06-18T08:27:21.756Z</time>
      </trkpt>
      <trkpt lat="46.33446" lon="-0.0456">
        <ele>115.29</ele>
        <time>2023-06-18T08:28:20.894Z</time>
      </trkpt>
      <trkpt lat="46.3344" lon="-0.0455">
        <ele>114.71</ele>
        <time>2023-06-18T08:29:20.034Z</time>
      </trkpt>
      <trkpt lat="46.33435" lon="-0.0454">
        <ele>114.23</ele>
        <time>2023-06-18T08:30:19.175Z</time>
      </trkpt>
      <trkpt lat="46.33424" lon="-0.04519">
        <ele>113.33</ele>
        <time>2023-06-18T08:31:18.319Z</time>
      </trkpt>
      <trkpt lat="46.33423" lon="-0.04517">
        <ele>113.33</ele>
        <time>2023-06-18T08:32:17.463Z</time>
      </trkpt>
      <trkpt lat="46.33419" lon="-0.04511">
        <ele>113.41</ele>
        <time>2023-06-18T08:33:16.608Z</time>
      </trkpt>
      <trkpt lat="46.33419" lon="-0.04511">
        <ele>113.37</ele>
        <time>2023-06-18T08:34:15.753Z</time>
      </trkpt>
      <trkpt lat="46.33412" lon="-0.04497">
        <ele>113.57</ele>
        <time>2023-06-18T08:35:14.900Z</time>
      </trkpt>
      <trkpt lat="46.33406" lon="-0.04483">
        <ele>113.76</ele>
        <time>2023-06-18T08:36:14.049Z</time>
      </trkpt>
      <trkpt lat="46.33405" lon="-0.04478">
        <ele>113.83</ele>
        <time>2023-06-18T08:37:13.198Z</time>
      </trkpt>
      <trkpt lat="46.33396" lon="-0.04449">
        <ele>114.25</ele>
        <time>2023-06-18T08:38:12.351Z</time>
      </trkpt>
      <trkpt lat="46.33396" lon="-0.04447">
        <ele>114.29</ele>
        <time>2023-06-18T08:39:11.504Z</time>
      </trkpt>
      <trkpt lat="46.33406" lon="-0.0444">
        <ele>114.69</ele>
        <time>2023-06-18T08:40:10.659Z</time>
      </trkpt>
      <trkpt lat="46.3341" lon="-0.04437">
        <ele>114.83</ele>
        <time>2023-06-18T08:41:09.815Z</time>
      </trkpt>
      <trkpt lat="46.3342" lon="-0.04423">
        <ele>115.24</ele>
        <time>2023-06-18T08:42:08.973Z</time>
      </trkpt>
      <trkpt lat="46.33427" lon="-0.04415">
        <ele>115.45</ele>
        <time>2023-06-18T08:43:08.132Z</time>
      </trkpt>
      <trkpt lat="46.33428" lon="-0.04414">
        <ele>115.5</ele>
        <time>2023-06-18T08:44:07.291Z</time>
      </trkpt>
      <trkpt lat="46.33437" lon="-0.04404">
        <ele>115.73</ele>
        <time>2023-06-18T08:45:06.452Z</time>
      </trkpt>
      <trkpt lat="46.33446" lon="-0.04395">
        <ele>115.92</ele>
        <time>2023-06-18T08:46:05.615Z</time>
      </trkpt>
      <trkpt lat="46.33455" lon="-0.04386">
        <ele>116.09</ele>
        <time>2023-06-18T08:47:04.780Z</time>
      </trkpt>
      <trkpt lat="46.33464" lon="-0.04376">
        <ele>116.49</ele>
        <time>2023-06-18T08:48:03.947Z</time>
      </trkpt>
      <trkpt lat="46.33473" lon="-0.04366">
        <ele>116.75</ele>
        <time>2023-06-18T08:49:03.115Z</time>
      </trkpt>
      <trkpt lat="46.3349" lon="-0.04349">
        <ele>117.02</ele>
        <time>2023-06-18T08:50:02.287Z</time>
      </trkpt>
      <trkpt lat="46.33498" lon="-0.0434">
        <ele>117.09</ele>
        <time>2023-06-18T08:51:01.460Z</time>
      </trkpt>
      <trkpt lat="46.33507" lon="-0.0433">
        <ele>117.21</ele>
        <time>2023-06-18T08:52:00.635Z</time>
      </trkpt>
      <trkpt lat="46.33513" lon="-0.04324">
        <ele>117.32</ele>
        <time>2023-06-18T08:52:59.811Z</time>
      </trkpt>
      <trkpt lat="46.33525" lon="-0.04309">
        <ele>117.58</ele>
        <time>2023-06-18T08:53:58.990Z</time>
      </trkpt>
      <trkpt lat="46.33533" lon="-0.04298">
        <ele>117.7</ele>
        <time>2023-06-18T08:54:58.171Z</time>
      </trkpt>
      <trkpt lat="46.33537" lon="-0.04293">
        <ele>117.79</ele>
        <time>2023-06-18T08:55:57.352Z</time>
      </trkpt>
      <trkpt lat="46.33541" lon="-0.04287">
        <ele>117.89</ele>
        <time>2023-06-18T08:56:56.534Z</time>
      </trkpt>
      <trkpt lat="46.33549" lon="-0.04277">
        <ele>118.16</ele>
        <time>2023-06-18T08:57:55.718Z</time>
      </trkpt>
      <trkpt lat="46.33556" lon="-0.04266">
        <ele>118.35</ele>
        <time>2023-06-18T08:58:54.904Z</time>
      </trkpt>
      <trkpt lat="46.33564" lon="-0.04256">
        <ele>118.65</ele>
        <time>2023-06-18T08:59:54.091Z</time>
      </trkpt>
      <trkpt lat="46.33571" lon="-0.04246">
        <ele>118.89</ele>
        <time>2023-06-18T09:00:53.280Z</time>
      </trkpt>
      <trkpt lat="46.33578" lon="-0.04237">
        <ele>119.18</ele>
        <time>2023-06-18T09:01:52.470Z</time>
      </trkpt>
      <trkpt lat="46.33585" lon="-0.04227">
        <ele>119.62</ele>
        <time>2023-06-18T09:02:51.662Z</time>
      </trkpt>
      <trkpt lat="46.336" lon="-0.04206">
        <ele>120.41</ele>
        <time>2023-06-18T09:03:50.857Z</time>
      </trkpt>
      <trkpt lat="46.33608" lon="-0.04195">
        <ele>120.79</ele>
        <time>2023-06-18T09:04:50.054Z</time>
      </trkpt>
      <trkpt lat="46.33614" lon="-0.04186">
        <ele>121.12</ele>
        <time>2023-06-18T09:05:49.253Z</time>
      </trkpt>
      <trkpt lat="46.33625" lon="-0.04174">
        <ele>121.66</ele>
        <time>2023-06-18T09:06:48.454Z</time>
      </trkpt>
      <trkpt lat="46.3363" lon="-0.04169">
        <ele>121.86</ele>
        <time>2023-06-18T09:07:47.656Z</time>
      </trkpt>
      <trkpt lat="46.33635" lon="-0.04164">
        <ele>122.06</ele>
        <time>2023-06-18T09:08:46.859Z</time>
      </trkpt>
      <trkpt lat="46.33644" lon="-0.04156">
        <ele>122.3</ele>
        <time>2023-06-18T09:09:46.063Z</time>
      </trkpt>
      <trkpt lat="46.33667" lon="-0.04134">
        <ele>122.73</ele>
        <time>2023-06-18T09:10:45.272Z</time>
      </trkpt>
      <trkpt lat="46.33671" lon="-0.04131">
        <ele>122.8</ele>
        <time>2023-06-18T09:11:44.481Z</time>
      </trkpt>
      <trkpt lat="46.33681" lon="-0.04123">
        <ele>123.07</ele>
        <time>2023-06-18T09:12:43.692Z</time>
      </trkpt>
      <trkpt lat="46.33687" lon="-0.04119">
        <ele>123.18</ele>
        <time>2023-06-18T09:13:42.904Z</time>
      </trkpt>
      <trkpt lat="46.33691" lon="-0.04116">
        <ele>123.26</ele>
        <time>2023-06-18T09:14:42.117Z</time>
      </trkpt>
      <trkpt lat="46.33702" lon="-0.0411">
        <ele>123.42</ele>
        <time>2023-06-18T09:15:41.332Z</time>
      </trkpt>
      <trkpt lat="46.33723" lon="-0.04097">
        <ele>123.62</ele>
        <time>2023-06-18T09:16:40.551Z</time>
      </trkpt>
      <trkpt lat="46.33727" lon="-0.04094">
        <ele>123.63</ele>
        <time>2023-06-18T09:17:39.770Z</time>
      </trkpt>
      <trkpt lat="46.33731" lon="-0.0409">
        <ele>123.66</ele>
        <time>2023-06-18T09:18:38.990Z</time>
      </trkpt>
      <trkpt lat="46.33739" lon="-0.04083">
        <ele>123.74</ele>
        <time>2023-06-18T09:19:38.212Z</time>
      </trkpt>
      <trkpt lat="46.33747" lon="-0.04076">
        <ele>123.79</ele>
        <time>2023-06-18T09:20:37.435Z</time>
      </trkpt>
      <trkpt lat="46.33757" lon="-0.04067">
        <ele>123.9</ele>
        <time>2023-06-18T09:21:36.660Z</time>
      </trkpt>
      <trkpt lat="46.33765" lon="-0.04059">
        <ele>124.05</ele>
        <time>2023-06-18T09:22:35.887Z</time>
      </trkpt>
      <trkpt lat="46.33765" lon="-0.04059">
        <ele>124.05</ele>
        <time>2023-06-18T09:23:35.114Z</time>
      </trkpt>
      <trkpt lat="46.33773" lon="-0.04053">
        <ele>124.13</ele>
        <time>2023-06-18T09:24:34.342Z</time>
      </trkpt>
      <trkpt lat="46.33781" lon="-0.04047">
        <ele>124.26</ele>
        <time>2023-06-18T09:25:33.572Z</time>
      </trkpt>
      <trkpt lat="46.3379" lon="-0.04041">
        <ele>124.33</ele>
        <time>2023-06-18T09:26:32.803Z</time>
      </trkpt>
      <trkpt lat="46.33808" lon="-0.04036">
        <ele>124.48</ele>
        <time>2023-06-18T09:27:32.037Z</time>
      </trkpt>
      <trkpt lat="46.33817" lon="-0.04033">
        <ele>124.64</ele>
        <time>2023-06-18T09:28:31.273Z</time>
      </trkpt>
      <trkpt lat="46.33827" lon="-0.04031">
        <ele>124.88</ele>
        <time>2023-06-18T09:29:30.510Z</time>
      </trkpt>
      <trkpt lat="46.33837" lon="-0.04028">
        <ele>125.28</ele>
        <time>2023-06-18T09:30:29.749Z</time>
      </trkpt>
      <trkpt lat="46.33839" lon="-0.04027">
        <ele>125.39</ele>
        <time>2023-06-18T09:31:28.988Z</time>
      </trkpt>
      <trkpt lat="46.33846" lon="-0.04024">
        <ele>125.8</ele>
        <time>2023-06-18T09:32:28.228Z</time>
      </trkpt>
      <trkpt lat="46.33856" lon="-0.0402">
        <ele>126.28</ele>
        <time>2023-06-18T09:33:27.470Z</time>
      </trkpt>
      <trkpt lat="46.33856" lon="-0.0402">
        <ele>126.28</ele>
        <time>2023-06-18T09:34:26.712Z</time>
      </trkpt>
      <trkpt lat="46.33865" lon="-0.04014">
        <ele>126.54</ele>
        <time>2023-06-18T09:35:25.955Z</time>
      </trkpt>
      <trkpt lat="46.33874" lon="-0.04009">
        <ele>126.73</ele>
        <time>2023-06-18T09:36:25.200Z</time>
      </trkpt>
      <trkpt lat="46.33875" lon="-0.04008">
        <ele>126.76</ele>
        <time>2023-06-18T09:37:24.445Z</time>
      </trkpt>
      <trkpt lat="46.33884" lon="-0.03999">
        <ele>126.85</ele>
        <time>2023-06-18T09:38:23.692Z</time>
      </trkpt>
      <trkpt lat="46.33892" lon="-0.03991">
        <ele>126.91</ele>
        <time>2023-06-18T09:39:22.941Z</time>
      </trkpt>
      <trkpt lat="46.33899" lon="-0.03984">
        <ele>126.92</ele>
        <time>2023-06-18T09:40:22.191Z</time>
      </trkpt>
      <trkpt lat="46.33901" lon="-0.03981">
        <ele>126.93</ele>
        <time>2023-06-18T09:41:21.441Z</time>
      </trkpt>
      <trkpt lat="46.3391" lon="-0.0397">
        <ele>126.93</ele>
        <time>2023-06-18T09:42:20.693Z</time>
      </trkpt>
      <trkpt lat="46.3392" lon="-0.03958">
        <ele>126.89</ele>
        <time>2023-06-18T09:43:19.947Z</time>
      </trkpt>
      <trkpt lat="46.33938" lon="-0.03935">
        <ele>126.95</ele>
        <time>2023-06-18T09:44:19.205Z</time>
      </trkpt>
      <trkpt lat="46.33948" lon="-0.03923">
        <ele>127.11</ele>
        <time>2023-06-18T09:45:18.465Z</time>
      </trkpt>
      <trkpt lat="46.33958" lon="-0.03911">
        <ele>127.3</ele>
        <time>2023-06-18T09:46:17.727Z</time>
      </trkpt>
      <trkpt lat="46.33958" lon="-0.03911">
        <ele>127.3</ele>
        <time>2023-06-18T09:47:16.989Z</time>
      </trkpt>
      <trkpt lat="46.33973" lon="-0.03895">
        <ele>127.75</ele>
        <time>2023-06-18T09:48:16.254Z</time>
      </trkpt>
      <trkpt lat="46.33981" lon="-0.03886">
        <ele>127.85</ele>
        <time>2023-06-18T09:49:15.521Z</time>
      </trkpt>
      <trkpt lat="46.33988" lon="-0.03878">
        <ele>127.9</ele>
        <time>2023-06-18T09:50:14.789Z</time>
      </trkpt>
      <trkpt lat="46.33998" lon="-0.03868">
        <ele>127.8</ele>
        <time>2023-06-18T09:51:14.059Z</time>
      </trkpt>
      <trkpt lat="46.34017" lon="-0.03851">
        <ele>127.64</ele>
        <time>2023-06-18T09:52:13.333Z</time>
      </trkpt>
      <trkpt lat="46.34022" lon="-0.03846">
        <ele>127.61</ele>
        <time>2023-06-18T09:53:12.608Z</time>
      </trkpt>
      <trkpt lat="46.34025" lon="-0.03844">
        <ele>127.61</ele>
        <time>2023-06-18T09:54:11.883Z</time>
      </trkpt>
      <trkpt lat="46.34047" lon="-0.03828">
        <ele>127.64</ele>
        <time>2023-06-18T09:55:11.162Z</time>
      </trkpt>
      <trkpt lat="46.34059" lon="-0.03819">
        <ele>127.73</ele>
        <time>2023-06-18T09:56:10.444Z</time>
      </trkpt>
      <trkpt lat="46.34082" lon="-0.03802">
        <ele>127.97</ele>
        <time>2023-06-18T09:57:09.730Z</time>
      </trkpt>
      <trkpt lat="46.34092" lon="-0.03795">
        <ele>128.17</ele>
        <time>2023-06-18T09:58:09.017Z</time>
      </trkpt>
      <trkpt lat="46.34093" lon="-0.03794">
        <ele>128.2</ele>
        <time>2023-06-18T09:59:08.305Z</time>
      </trkpt>
      <trkpt lat="46.34103" lon="-0.03785">
        <ele>128.37</ele>
        <time>2023-06-18T10:00:07.594Z</time>
      </trkpt>
      <trkpt lat="46.34113" lon="-0.03776">
        <ele>128.66</ele>
        <time>2023-06-18T10:01:06.885Z</time>
      </trkpt>
      <trkpt lat="46.34125" lon="-0.03766">
        <ele>128.86</ele>
        <time>2023-06-18T10:02:06.179Z</time>
      </trkpt>
      <trkpt lat="46.34125" lon="-0.03766">
        <ele>128.86</ele>
        <time>2023-06-18T10:03:05.473Z</time>
      </trkpt>
      <trkpt lat="46.34135" lon="-0.03755">
        <ele>129.13</ele>
        <time>2023-06-18T10:04:04.769Z</time>
      </trkpt>
      <trkpt lat="46.34164" lon="-0.03721">
        <ele>129.95</ele>
        <time>2023-06-18T10:05:04.071Z</time>
      </trkpt>
      <trkpt lat="46.34174" lon="-0.03709">
        <ele>130.14</ele>
        <time>2023-06-18T10:06:03.375Z</time>
      </trkpt>
      <trkpt lat="46.34174" lon="-0.03709">
        <ele>130.14</ele>
        <time>2023-06-18T10:07:02.679Z</time>
      </trkpt>
      <trkpt lat="46.34193" lon="-0.03685">
        <ele>130.61</ele>
        <time>2023-06-18T10:08:01.987Z</time>
      </trkpt>
      <trkpt lat="46.3421" lon="-0.03664">
        <ele>130.87</ele>
        <time>2023-06-18T10:09:01.298Z</time>
      </trkpt>
      <trkpt lat="46.34211" lon="-0.03662">
        <ele>130.89</ele>
        <time>2023-06-18T10:10:00.610Z</time>
      </trkpt>
      <trkpt lat="46.34216" lon="-0.03654">
        <ele>130.99</ele>
        <time>2023-06-18T10:10:59.923Z</time>
      </trkpt>
      <trkpt lat="46.34222" lon="-0.03644">
        <ele>131.01</ele>
        <time>2023-06-18T10:11:59.237Z</time>
      </trkpt>
      <trkpt lat="46.34229" lon="-0.03634">
        <ele>131.01</ele>
        <time>2023-06-18T10:12:58.553Z</time>
      </trkpt>
      <trkpt lat="46.34236" lon="-0.03623">
        <ele>130.95</ele>
        <time>2023-06-18T10:13:57.870Z</time>
      </trkpt>
      <trkpt lat="46.34242" lon="-0.03612">
        <ele>130.83</ele>
        <time>2023-06-18T10:14:57.189Z</time>
      </trkpt>
      <trkpt lat="46.34249" lon="-0.03601">
        <ele>130.6</ele>
        <time>2023-06-18T10:15:56.510Z</time>
      </trkpt>
      <trkpt lat="46.34262" lon="-0.0358">
        <ele>130.23</ele>
        <time>2023-06-18T10:16:55.834Z</time>
      </trkpt>
      <trkpt lat="46.34269" lon="-0.0357">
        <ele>130.03</ele>
        <time>2023-06-18T10:17:55.159Z</time>
      </trkpt>
      <trkpt lat="46.34269" lon="-0.0357">
        <ele>130.03</ele>
        <time>2023-06-18T10:18:54.484Z</time>
      </trkpt>
      <trkpt lat="46.34303" lon="-0.0352">
        <ele>130.03</ele>
        <time>2023-06-18T10:19:53.817Z</time>
      </trkpt>
      <trkpt lat="46.34328" lon="-0.03495">
        <ele>130.03</ele>
        <time>2023-06-18T10:20:53.155Z</time>
      </trkpt>
      <trkpt lat="46.34344" lon="-0.03486">
        <ele>130.03</ele>
        <time>2023-06-18T10:21:52.496Z</time>
      </trkpt>
      <trkpt lat="46.34366" lon="-0.03479">
        <ele>130.03</ele>
        <time>2023-06-18T10:22:51.840Z</time>
      </trkpt>
      <trkpt lat="46.34459" lon="-0.03463">
        <ele>130.03</ele>
        <time>2023-06-18T10:23:51.199Z</time>
      </trkpt>
      <trkpt lat="46.34527" lon="-0.03431">
        <ele>130.03</ele>
        <time>2023-06-18T10:24:50.570Z</time>
      </trkpt>
      <trkpt lat="46.34585" lon="-0.03411">
        <ele>130.03</ele>
        <time>2023-06-18T10:25:49.950Z</time>
      </trkpt>
      <trkpt lat="46.34681" lon="-0.0337">
        <ele>130.03</ele>
        <time>2023-06-18T10:26:49.346Z</time>
      </trkpt>
      <trkpt lat="46.34721" lon="-0.03359">
        <ele>130.03</ele>
        <time>2023-06-18T10:27:48.749Z</time>
      </trkpt>
      <trkpt lat="46.34769" lon="-0.03336">
        <ele>130.03</ele>
        <time>2023-06-18T10:28:48.160Z</time>
      </trkpt>
      <trkpt lat="46.34788" lon="-0.03325">
        <ele>130.03</ele>
        <time>2023-06-18T10:29:47.574Z</time>
      </trkpt>
      <trkpt lat="46.34863" lon="-0.03266">
        <ele>130.03</ele>
        <time>2023-06-18T10:30:47.002Z</time>
      </trkpt>
      <trkpt lat="46.34889" lon="-0.03248">
        <ele>130.04</ele>
        <time>2023-06-18T10:31:46.435Z</time>
      </trkpt>
      <trkpt lat="46.34898" lon="-0.03243">
        <ele>129.77</ele>
        <time>2023-06-18T10:32:45.869Z</time>
      </trkpt>
      <trkpt lat="46.34908" lon="-0.03236">
        <ele>129.46</ele>
        <time>2023-06-18T10:33:45.305Z</time>
      </trkpt>
      <trkpt lat="46.3491" lon="-0.03235">
        <ele>129.41</ele>
        <time>2023-06-18T10:34:44.741Z</time>
      </trkpt>
      <trkpt lat="46.34917" lon="-0.03228">
        <ele>129.2</ele>
        <time>2023-06-18T10:35:44.179Z</time>
      </trkpt>
      <trkpt lat="46.34921" lon="-0.03225">
        <ele>129.12</ele>
        <time>2023-06-18T10:36:43.617Z</time>
      </trkpt>
      <trkpt lat="46.34929" lon="-0.03219">
        <ele>129.06</ele>
        <time>2023-06-18T10:37:43.057Z</time>
      </trkpt>
      <trkpt lat="46.34941" lon="-0.03209">
        <ele>129.06</ele>
        <time>2023-06-18T10:38:42.499Z</time>
      </trkpt>
      <trkpt lat="46.34945" lon="-0.03206">
        <ele>129.04</ele>
        <time>2023-06-18T10:39:41.942Z</time>
      </trkpt>
      <trkpt lat="46.34957" lon="-0.03196">
        <ele>128.92</ele>
        <time>2023-06-18T10:40:41.387Z</time>
      </trkpt>
      <trkpt lat="46.34964" lon="-0.0319">
        <ele>128.88</ele>
        <time>2023-06-18T10:41:40.833Z</time>
      </trkpt>
      <trkpt lat="46.34976" lon="-0.03181">
        <ele>128.92</ele>
        <time>2023-06-18T10:42:40.281Z</time>
      </trkpt>
      <trkpt lat="46.34988" lon="-0.03171">
        <ele>128.92</ele>
        <time>2023-06-18T10:43:39.731Z</time>
      </trkpt>
      <trkpt lat="46.34992" lon="-0.03168">
        <ele>128.96</ele>
        <time>2023-06-18T10:44:39.182Z</time>
      </trkpt>
      <trkpt lat="46.35003" lon="-0.03158">
        <ele>129.16</ele>
        <time>2023-06-18T10:45:38.635Z</time>
      </trkpt>
      <trkpt lat="46.35007" lon="-0.03155">
        <ele>129.19</ele>
        <time>2023-06-18T10:46:38.089Z</time>
      </trkpt>
      <trkpt lat="46.35011" lon="-0.03152">
        <ele>129.18</ele>
        <time>2023-06-18T10:47:37.544Z</time>
      </trkpt>
      <trkpt lat="46.35018" lon="-0.03144">
        <ele>129.17</ele>
        <time>2023-06-18T10:48:37.000Z</time>
      </trkpt>
      <trkpt lat="46.35022" lon="-0.0314">
        <ele>129.19</ele>
        <time>2023-06-18T10:49:36.457Z</time>
      </trkpt>
      <trkpt lat="46.35029" lon="-0.03132">
        <ele>129.29</ele>
        <time>2023-06-18T10:50:35.915Z</time>
      </trkpt>
      <trkpt lat="46.35039" lon="-0.0312">
        <ele>129.49</ele>
        <time>2023-06-18T10:51:35.376Z</time>
      </trkpt>
      <trkpt lat="46.35045" lon="-0.03113">
        <ele>129.62</ele>
        <time>2023-06-18T10:52:34.838Z</time>
      </trkpt>
      <trkpt lat="46.3505" lon="-0.03107">
        <ele>129.73</ele>
        <time>2023-06-18T10:53:34.301Z</time>
      </trkpt>
      <trkpt lat="46.35053" lon="-0.03103">
        <ele>129.78</ele>
        <time>2023-06-18T10:54:33.764Z</time>
      </trkpt>
      <trkpt lat="46.35056" lon="-0.03099">
        <ele>129.8</ele>
        <time>2023-06-18T10:55:33.228Z</time>
      </trkpt>
      <trkpt lat="46.35067" lon="-0.03086">
        <ele>129.76</ele>
        <time>2023-06-18T10:56:32.694Z</time>
      </trkpt>
      <trkpt lat="46.3507" lon="-0.03082">
        <ele>129.78</ele>
        <time>2023-06-18T10:57:32.161Z</time>
      </trkpt>
      <trkpt lat="46.35074" lon="-0.03077">
        <ele>129.82</ele>
        <time>2023-06-18T10:58:31.629Z</time>
      </trkpt>
      <trkpt lat="46.3508" lon="-0.0307">
        <ele>129.9</ele>
        <time>2023-06-18T10:59:31.098Z</time>
      </trkpt>
      <trkpt lat="46.35088" lon="-0.03062">
        <ele>129.94</ele>
        <time>2023-06-18T11:00:30.569Z</time>
      </trkpt>
      <trkpt lat="46.35095" lon="-0.03054">
        <ele>129.94</ele>
        <time>2023-06-18T11:01:30.041Z</time>
      </trkpt>
      <trkpt lat="46.35102" lon="-0.03046">
        <ele>129.88</ele>
        <time>2023-06-18T11:02:29.514Z</time>
      </trkpt>
      <trkpt lat="46.35119" lon="-0.03026">
        <ele>129.51</ele>
        <time>2023-06-18T11:03:28.991Z</time>
      </trkpt>
      <trkpt lat="46.35125" lon="-0.0302">
        <ele>129.43</ele>
        <time>2023-06-18T11:04:28.469Z</time>
      </trkpt>
      <trkpt lat="46.35127" lon="-0.03018">
        <ele>129.41</ele>
        <time>2023-06-18T11:05:27.947Z</time>
      </trkpt>
      <trkpt lat="46.3513" lon="-0.03014">
        <ele>129.39</ele>
        <time>2023-06-18T11:06:27.426Z</time>
      </trkpt>
      <trkpt lat="46.35147" lon="-0.02991">
        <ele>129.38</ele>
        <time>2023-06-18T11:07:26.909Z</time>
      </trkpt>
      <trkpt lat="46.35147" lon="-0.02991">
        <ele>129.38</ele>
        <time>2023-06-18T11:08:26.392Z</time>
      </trkpt>
      <trkpt lat="46.35154" lon="-0.02976">
        <ele>129.29</ele>
        <time>2023-06-18T11:09:25.877Z</time>
      </trkpt>
      <trkpt lat="46.35157" lon="-0.02971">
        <ele>129.29</ele>
        <time>2023-06-18T11:10:25.363Z</time>
      </trkpt>
      <trkpt lat="46.35159" lon="-0.02966">
        <ele>129.31</ele>
        <time>2023-06-18T11:11:24.849Z</time>
      </trkpt>
      <trkpt lat="46.35165" lon="-0.02955">
        <ele>129.41</ele>
        <time>2023-06-18T11:12:24.337Z</time>
      </trkpt>
      <trkpt lat="46.35167" lon="-0.0295">
        <ele>129.44</ele>
        <time>2023-06-18T11:13:23.825Z</time>
      </trkpt>
      <trkpt lat="46.35167" lon="-0.0295">
        <ele>129.44</ele>
        <time>2023-06-18T11:14:23.314Z</time>
      </trkpt>
      <trkpt lat="46.35177" lon="-0.02936">
        <ele>129.41</ele>
        <time>2023-06-18T11:15:22.805Z</time>
      </trkpt>
      <trkpt lat="46.35183" lon="-0.02927">
        <ele>129.43</ele>
        <time>2023-06-18T11:16:22.297Z</time>
      </trkpt>
      <trkpt lat="46.35189" lon="-0.02917">
        <ele>129.52</ele>
        <time>2023-06-18T11:17:21.791Z</time>
      </trkpt>
      <trkpt lat="46.35192" lon="-0.02913">
        <ele>129.6</ele>
        <time>2023-06-18T11:18:21.285Z</time>
      </trkpt>
      <trkpt lat="46.35199" lon="-0.02904">
        <ele>129.8</ele>
        <time>2023-06-18T11:19:20.781Z</time>
      </trkpt>
      <trkpt lat="46.35202" lon="-0.02899">
        <ele>129.87</ele>
        <time>2023-06-18T11:20:20.277Z</time>
      </trkpt>
      <trkpt lat="46.35202" lon="-0.02899">
        <ele>129.87</ele>
        <time>2023-06-18T11:21:19.773Z</time>
      </trkpt>
      <trkpt lat="46.35205" lon="-0.02894">
        <ele>129.91</ele>
        <time>2023-06-18T11:22:19.270Z</time>
      </trkpt>
      <trkpt lat="46.35207" lon="-0.02889">
        <ele>129.91</ele>
        <time>2023-06-18T11:23:18.768Z</time>
      </trkpt>
      <trkpt lat="46.35213" lon="-0.02878">
        <ele>129.87</ele>
        <time>2023-06-18T11:24:18.267Z</time>
      </trkpt>
      <trkpt lat="46.35215" lon="-0.02873">
        <ele>129.88</ele>
        <time>2023-06-18T11:25:17.767Z</time>
      </trkpt>
      <trkpt lat="46.35218" lon="-0.02868">
        <ele>129.93</ele>
        <time>2023-06-18T11:26:17.268Z</time>
      </trkpt>
      <trkpt lat="46.3522" lon="-0.02862">
        <ele>130.02</ele>
        <time>2023-06-18T11:27:16.769Z</time>
      </trkpt>
      <trkpt lat="46.35223" lon="-0.02857">
        <ele>130.15</ele>
        <time>2023-06-18T11:28:16.271Z</time>
      </trkpt>
      <trkpt lat="46.35226" lon="-0.02852">
        <ele>130.32</ele>
        <time>2023-06-18T11:29:15.774Z</time>
      </trkpt>
      <trkpt lat="46.35228" lon="-0.02847">
        <ele>130.52</ele>
        <time>2023-06-18T11:30:15.278Z</time>
      </trkpt>
      <trkpt lat="46.35231" lon="-0.02842">
        <ele>130.75</ele>
        <time>2023-06-18T11:31:14.782Z</time>
      </trkpt>
      <trkpt lat="46.35234" lon="-0.02836">
        <ele>131.01</ele>
        <time>2023-06-18T11:32:14.287Z</time>
      </trkpt>
      <trkpt lat="46.35239" lon="-0.02826">
        <ele>131.58</ele>
        <time>2023-06-18T11:33:13.794Z</time>
      </trkpt>
      <trkpt lat="46.35242" lon="-0.0282">
        <ele>131.83</ele>
        <time>2023-06-18T11:34:13.301Z</time>
      </trkpt>
      <trkpt lat="46.35244" lon="-0.02815">
        <ele>132.01</ele>
        <time>2023-06-18T11:35:12.809Z</time>
      </trkpt>
      <trkpt lat="46.35247" lon="-0.0281">
        <ele>132.14</ele>
        <time>2023-06-18T11:36:12.318Z</time>
      </trkpt>
      <trkpt lat="46.3525" lon="-0.02805">
        <ele>132.22</ele>
        <time>2023-06-18T11:37:11.827Z</time>
      </trkpt>
      <trkpt lat="46.35255" lon="-0.02794">
        <ele>132.33</ele>
        <time>2023-06-18T11:38:11.338Z</time>
      </trkpt>
      <trkpt lat="46.35263" lon="-0.02779">
        <ele>132.46</ele>
        <time>2023-06-18T11:39:10.851Z</time>
      </trkpt>
      <trkpt lat="46.35273" lon="-0.02758">
        <ele>132.57</ele>
        <time>2023-06-18T11:40:10.367Z</time>
      </trkpt>
      <trkpt lat="46.35292" lon="-0.02721">
        <ele>132.66</ele>
        <time>2023-06-18T11:41:09.888Z</time>
      </trkpt>
      <trkpt lat="46.35297" lon="-0.02711">
        <ele>132.65</ele>
        <time>2023-06-18T11:42:09.410Z</time>
      </trkpt>
      <trkpt lat="46.35298" lon="-0.02691">
        <ele>132.64</ele>
        <time>2023-06-18T11:43:08.934Z</time>
      </trkpt>
      <trkpt lat="46.35298" lon="-0.02678">
        <ele>132.68</ele>
        <time>2023-06-18T11:44:08.460Z</time>
      </trkpt>
      <trkpt lat="46.35299" lon="-0.02665">
        <ele>132.75</ele>
        <time>2023-06-18T11:45:07.987Z</time>
      </trkpt>
      <trkpt lat="46.35299" lon="-0.02652">
        <ele>132.86</ele>
        <time>2023-06-18T11:46:07.516Z</time>
      </trkpt>
      <trkpt lat="46.353" lon="-0.02639">
        <ele>133.01</ele>
        <time>2023-06-18T11:47:07.046Z</time>
      </trkpt>
      <trkpt lat="46.353" lon="-0.02633">
        <ele>133.11</ele>
        <time>2023-06-18T11:48:06.577Z</time>
      </trkpt>
      <trkpt lat="46.353" lon="-0.02626">
        <ele>133.22</ele>
        <time>2023-06-18T11:49:06.109Z</time>
      </trkpt>
      <trkpt lat="46.35299" lon="-0.02606">
        <ele>133.59</ele>
        <time>2023-06-18T11:50:05.643Z</time>
      </trkpt>
      <trkpt lat="46.35298" lon="-0.026">
        <ele>133.7</ele>
        <time>2023-06-18T11:51:05.178Z</time>
      </trkpt>
      <trkpt lat="46.35296" lon="-0.02588">
        <ele>133.89</ele>
        <time>2023-06-18T11:52:04.714Z</time>
      </trkpt>
      <trkpt lat="46.35294" lon="-0.02575">
        <ele>134.03</ele>
        <time>2023-06-18T11:53:04.251Z</time>
      </trkpt>
      <trkpt lat="46.35293" lon="-0.02569">
        <ele>134.07</ele>
        <time>2023-06-18T11:54:03.789Z</time>
      </trkpt>
      <trkpt lat="46.35292" lon="-0.02563">
        <ele>134.08</ele>
        <time>2023-06-18T11:55:03.328Z</time>
      </trkpt>
      <trkpt lat="46.35288" lon="-0.02537">
        <ele>134.04</ele>
        <time>2023-06-18T11:56:02.870Z</time>
      </trkpt>
      <trkpt lat="46.35285" lon="-0.02525">
        <ele>134.05</ele>
        <time>2023-06-18T11:57:02.413Z</time>
      </trkpt>
      <trkpt lat="46.35283" lon="-0.02512">
        <ele>134.1</ele>
        <time>2023-06-18T11:58:01.958Z</time>
      </trkpt>
      <trkpt lat="46.35281" lon="-0.02498">
        <ele>134.19</ele>
        <time>2023-06-18T11:59:01.504Z</time>
      </trkpt>
      <trkpt lat="46.3528" lon="-0.02487">
        <ele>134.26</ele>
        <time>2023-06-18T12:00:01.051Z</time>
      </trkpt>
      <trkpt lat="46.3528" lon="-0.0248">
        <ele>134.28</ele>
        <time>2023-06-18T12:01:00.599Z</time>
      </trkpt>
      <trkpt lat="46.35279" lon="-0.02473">
        <ele>134.28</ele>
        <time>2023-06-18T12:02:00.148Z</time>
      </trkpt>
      <trkpt lat="46.35279" lon="-0.02467">
        <ele>134.28</ele>
        <time>2023-06-18T12:02:59.698Z</time>
      </trkpt>
      <trkpt lat="46.35278" lon="-0.02448">
        <ele>134.25</ele>
        <time>2023-06-18T12:03:59.250Z</time>
      </trkpt>
      <trkpt lat="46.35278" lon="-0.02428">
        <ele>134.25</ele>
        <time>2023-06-18T12:04:58.804Z</time>
      </trkpt>
      <trkpt lat="46.35277" lon="-0.02416">
        <ele>134.22</ele>
        <time>2023-06-18T12:05:58.359Z</time>
      </trkpt>
      <trkpt lat="46.35277" lon="-0.0239">
        <ele>134.06</ele>
        <time>2023-06-18T12:06:57.917Z</time>
      </trkpt>
      <trkpt lat="46.35276" lon="-0.02364">
        <ele>133.98</ele>
        <time>2023-06-18T12:07:57.478Z</time>
      </trkpt>
      <trkpt lat="46.35276" lon="-0.0236">
        <ele>133.95</ele>
        <time>2023-06-18T12:08:57.040Z</time>
      </trkpt>
      <trkpt lat="46.35276" lon="-0.02346">
        <ele>133.86</ele>
        <time>2023-06-18T12:09:56.603Z</time>
      </trkpt>
      <trkpt lat="46.35277" lon="-0.02338">
        <ele>133.81</ele>
        <time>2023-06-18T12:10:56.167Z</time>
      </trkpt>
      <trkpt lat="46.35278" lon="-0.02331">
        <ele>133.79</ele>
        <time>2023-06-18T12:11:55.732Z</time>
      </trkpt>
      <trkpt lat="46.3528" lon="-0.02312">
        <ele>133.78</ele>
        <time>2023-06-18T12:12:55.299Z</time>
      </trkpt>
      <trkpt lat="46.35284" lon="-0.0228">
        <ele>133.69</ele>
        <time>2023-06-18T12:13:54.869Z</time>
      </trkpt>
      <trkpt lat="46.35285" lon="-0.02267">
        <ele>133.71</ele>
        <time>2023-06-18T12:14:54.441Z</time>
      </trkpt>
      <trkpt lat="46.35287" lon="-0.02255">
        <ele>133.78</ele>
        <time>2023-06-18T12:15:54.014Z</time>
      </trkpt>
      <trkpt lat="46.35288" lon="-0.02242">
        <ele>133.67</ele>
        <time>2023-06-18T12:16:53.589Z</time>
      </trkpt>
      <trkpt lat="46.35289" lon="-0.02236">
        <ele>133.64</ele>
        <time>2023-06-18T12:17:53.164Z</time>
      </trkpt>
      <trkpt lat="46.3529" lon="-0.02229">
        <ele>133.63</ele>
        <time>2023-06-18T12:18:52.740Z</time>
      </trkpt>
      <trkpt lat="46.3529" lon="-0.02223">
        <ele>133.64</ele>
        <time>2023-06-18T12:19:52.317Z</time>
      </trkpt>
      <trkpt lat="46.35292" lon="-0.0221">
        <ele>133.74</ele>
        <time>2023-06-18T12:20:51.895Z</time>
      </trkpt>
      <trkpt lat="46.35295" lon="-0.02185">
        <ele>134.09</ele>
        <time>2023-06-18T12:21:51.476Z</time>
      </trkpt>
      <trkpt lat="46.35296" lon="-0.02179">
        <ele>134.13</ele>
        <time>2023-06-18T12:22:51.058Z</time>
      </trkpt>
      <trkpt lat="46.35298" lon="-0.02159">
        <ele>134.16</ele>
        <time>2023-06-18T12:23:50.642Z</time>
      </trkpt>
      <trkpt lat="46.35298" lon="-0.02159">
        <ele>134.16</ele>
        <time>2023-06-18T12:24:50.226Z</time>
      </trkpt>
      <trkpt lat="46.35288" lon="-0.02147">
        <ele>134.22</ele>
        <time>2023-06-18T12:25:49.812Z</time>
      </trkpt>
      <trkpt lat="46.35285" lon="-0.02142">
        <ele>134.22</ele>
        <time>2023-06-18T12:26:49.399Z</time>
      </trkpt>
      <trkpt lat="46.35279" lon="-0.02134">
        <ele>134.17</ele>
        <time>2023-06-18T12:27:48.987Z</time>
      </trkpt>
      <trkpt lat="46.35265" lon="-0.02117">
        <ele>133.92</ele>
        <time>2023-06-18T12:28:48.578Z</time>
      </trkpt>
      <trkpt lat="46.35262" lon="-0.02112">
        <ele>133.89</ele>
        <time>2023-06-18T12:29:48.170Z</time>
      </trkpt>
      <trkpt lat="46.35261" lon="-0.02111">
        <ele>133.88</ele>
        <time>2023-06-18T12:30:47.762Z</time>
      </trkpt>
      <trkpt lat="46.35248" lon="-0.02097">
        <ele>133.82</ele>
        <time>2023-06-18T12:31:47.357Z</time>
      </trkpt>
      <trkpt lat="46.35235" lon="-0.02083">
        <ele>133.68</ele>
        <time>2023-06-18T12:32:46.954Z</time>
      </trkpt>
      <trkpt lat="46.3522" lon="-0.02064">
        <ele>133.52</ele>
        <time>2023-06-18T12:33:46.554Z</time>
      </trkpt>
      <trkpt lat="46.35216" lon="-0.02059">
        <ele>133.44</ele>
        <time>2023-06-18T12:34:46.155Z</time>
      </trkpt>
      <trkpt lat="46.35214" lon="-0.02055">
        <ele>133.41</ele>
        <time>2023-06-18T12:35:45.757Z</time>
      </trkpt>
      <trkpt lat="46.35201" lon="-0.02022">
        <ele>132.93</ele>
        <time>2023-06-18T12:36:45.363Z</time>
      </trkpt>
      <trkpt lat="46.35197" lon="-0.0201">
        <ele>132.72</ele>
        <time>2023-06-18T12:37:44.971Z</time>
      </trkpt>
      <trkpt lat="46.35186" lon="-0.01983">
        <ele>132.11</ele>
        <time>2023-06-18T12:38:44.582Z</time>
      </trkpt>
      <trkpt lat="46.35177" lon="-0.0196">
        <ele>131.73</ele>
        <time>2023-06-18T12:39:44.196Z</time>
      </trkpt>
      <trkpt lat="46.35172" lon="-0.01948">
        <ele>131.48</ele>
        <time>2023-06-18T12:40:43.811Z</time>
      </trkpt>
      <trkpt lat="46.35167" lon="-0.01939">
        <ele>131.28</ele>
        <time>2023-06-18T12:41:43.428Z</time>
      </trkpt>
      <trkpt lat="46.35162" lon="-0.01929">
        <ele>131.09</ele>
        <time>2023-06-18T12:42:43.046Z</time>
      </trkpt>
      <trkpt lat="46.35159" lon="-0.01923">
        <ele>131.02</ele>
        <time>2023-06-18T12:43:42.665Z</time>
      </trkpt>
      <trkpt lat="46.35157" lon="-0.01918">
        <ele>130.98</ele>
        <time>2023-06-18T12:44:42.285Z</time>
      </trkpt>
      <trkpt lat="46.35149" lon="-0.01903">
        <ele>130.92</ele>
        <time>2023-06-18T12:45:41.907Z</time>
      </trkpt>
      <trkpt lat="46.35132" lon="-0.01871">
        <ele>130.55</ele>
        <time>2023-06-18T12:46:41.533Z</time>
      </trkpt>
      <trkpt lat="46.35118" lon="-0.01851">
        <ele>130.29</ele>
        <time>2023-06-18T12:47:41.162Z</time>
      </trkpt>
      <trkpt lat="46.35099" lon="-0.01825">
        <ele>129.99</ele>
        <time>2023-06-18T12:48:40.795Z</time>
      </trkpt>
      <trkpt lat="46.35093" lon="-0.01817">
        <ele>129.82</ele>
        <time>2023-06-18T12:49:40.430Z</time>
      </trkpt>
      <trkpt lat="46.35087" lon="-0.01808">
        <ele>129.68</ele>
        <time>2023-06-18T12:50:40.066Z</time>
      </trkpt>
      <trkpt lat="46.3508" lon="-0.01799">
        <ele>129.57</ele>
        <time>2023-06-18T12:51:39.704Z</time>
      </trkpt>
      <trkpt lat="46.35071" lon="-0.01785">
        <ele>129.52</ele>
        <time>2023-06-18T12:52:39.344Z</time>
      </trkpt>
      <trkpt lat="46.35064" lon="-0.01776">
        <ele>129.54</ele>
        <time>2023-06-18T12:53:38.985Z</time>
      </trkpt>
      <trkpt lat="46.35052" lon="-0.01751">
        <ele>129.59</ele>
        <time>2023-06-18T12:54:38.630Z</time>
      </trkpt>
      <trkpt lat="46.35047" lon="-0.0174">
        <ele>129.66</ele>
        <time>2023-06-18T12:55:38.276Z</time>
      </trkpt>
      <trkpt lat="46.35039" lon="-0.01724">
        <ele>129.82</ele>
        <time>2023-06-18T12:56:37.924Z</time>
      </trkpt>
      <trkpt lat="46.35016" lon="-0.01677">
        <ele>130.39</ele>
        <time>2023-06-18T12:57:37.579Z</time>
      </trkpt>
      <trkpt lat="46.34993" lon="-0.0163">
        <ele>130.9</ele>
        <time>2023-06-18T12:58:37.240Z</time>
      </trkpt>
      <trkpt lat="46.34988" lon="-0.01619">
        <ele>130.98</ele>
        <time>2023-06-18T12:59:36.903Z</time>
      </trkpt>
      <trkpt lat="46.3498" lon="-0.01603">
        <ele>130.99</ele>
        <time>2023-06-18T13:00:36.568Z</time>
      </trkpt>
      <trkpt lat="46.3497" lon="-0.01582">
        <ele>131.06</ele>
        <time>2023-06-18T13:01:36.236Z</time>
      </trkpt>
      <trkpt lat="46.34959" lon="-0.01561">
        <ele>131.17</ele>
        <time>2023-06-18T13:02:35.906Z</time>
      </trkpt>
      <trkpt lat="46.34955" lon="-0.01552">
        <ele>131.2</ele>
        <time>2023-06-18T13:03:35.578Z</time>
      </trkpt>
      <trkpt lat="46.34951" lon="-0.01546">
        <ele>131.23</ele>
        <time>2023-06-18T13:04:35.251Z</time>
      </trkpt>
      <trkpt lat="46.34916" lon="-0.01496">
        <ele>131.37</ele>
        <time>2023-06-18T13:05:34.932Z</time>
      </trkpt>
      <trkpt lat="46.34909" lon="-0.01486">
        <ele>131.52</ele>
        <time>2023-06-18T13:06:34.614Z</time>
      </trkpt>
      <trkpt lat="46.34907" lon="-0.01483">
        <ele>131.54</ele>
        <time>2023-06-18T13:07:34.296Z</time>
      </trkpt>
      <trkpt lat="46.34905" lon="-0.01474">
        <ele>131.61</ele>
        <time>2023-06-18T13:08:33.980Z</time>
      </trkpt>
      <trkpt lat="46.349" lon="-0.01456">
        <ele>131.67</ele>
        <time>2023-06-18T13:09:33.666Z</time>
      </trkpt>
      <trkpt lat="46.34898" lon="-0.01443">
        <ele>131.78</ele>
        <time>2023-06-18T13:10:33.353Z</time>
      </trkpt>
      <trkpt lat="46.34896" lon="-0.01437">
        <ele>131.85</ele>
        <time>2023-06-18T13:11:33.041Z</time>
      </trkpt>
      <trkpt lat="46.34893" lon="-0.01425">
        <ele>132.04</ele>
        <time>2023-06-18T13:12:32.730Z</time>
      </trkpt>
      <trkpt lat="46.34888" lon="-0.01403">
        <ele>132.43</ele>
        <time>2023-06-18T13:13:32.422Z</time>
      </trkpt>
      <trkpt lat="46.34886" lon="-0.01394">
        <ele>132.6</ele>
        <time>2023-06-18T13:14:32.115Z</time>
      </trkpt>
      <trkpt lat="46.34881" lon="-0.01363">
        <ele>133.11</ele>
        <time>2023-06-18T13:15:31.811Z</time>
      </trkpt>
      <trkpt lat="46.34877" lon="-0.01344">
        <ele>133.37</ele>
        <time>2023-06-18T13:16:31.510Z</time>
      </trkpt>
      <trkpt lat="46.34875" lon="-0.01331">
        <ele>133.5</ele>
        <time>2023-06-18T13:17:31.210Z</time>
      </trkpt>
      <trkpt lat="46.3487" lon="-0.01306">
        <ele>133.68</ele>
        <time>2023-06-18T13:18:30.913Z</time>
      </trkpt>
      <trkpt lat="46.34867" lon="-0.01287">
        <ele>133.87</ele>
        <time>2023-06-18T13:19:30.618Z</time>
      </trkpt>
      <trkpt lat="46.34865" lon="-0.01275">
        <ele>133.96</ele>
        <time>2023-06-18T13:20:30.325Z</time>
      </trkpt>
      <trkpt lat="46.34857" lon="-0.01231">
        <ele>134.15</ele>
        <time>2023-06-18T13:21:30.037Z</time>
      </trkpt>
      <trkpt lat="46.34855" lon="-0.01222">
        <ele>134.18</ele>
        <time>2023-06-18T13:22:29.750Z</time>
      </trkpt>
      <trkpt lat="46.34871" lon="-0.01218">
        <ele>134.26</ele>
        <time>2023-06-18T13:23:29.465Z</time>
      </trkpt>
      <trkpt lat="46.34884" lon="-0.01214">
        <ele>134.3</ele>
        <time>2023-06-18T13:24:29.182Z</time>
      </trkpt>
      <trkpt lat="46.34897" lon="-0.0121">
        <ele>134.26</ele>
        <time>2023-06-18T13:25:28.901Z</time>
      </trkpt>
      <trkpt lat="46.34906" lon="-0.01208">
        <ele>134.16</ele>
        <time>2023-06-18T13:26:28.622Z</time>
      </trkpt>
      <trkpt lat="46.3495" lon="-0.01196">
        <ele>133.52</ele>
        <time>2023-06-18T13:27:28.350Z</time>
      </trkpt>
      <trkpt lat="46.34957" lon="-0.01194">
        <ele>133.44</ele>
        <time>2023-06-18T13:28:28.079Z</time>
      </trkpt>
      <trkpt lat="46.34959" lon="-0.01193">
        <ele>133.42</ele>
        <time>2023-06-18T13:29:27.809Z</time>
      </trkpt>
      <trkpt lat="46.34975" lon="-0.01184">
        <ele>133.27</ele>
        <time>2023-06-18T13:30:27.541Z</time>
      </trkpt>
      <trkpt lat="46.34984" lon="-0.01179">
        <ele>133.16</ele>
        <time>2023-06-18T13:31:27.275Z</time>
      </trkpt>
      <trkpt lat="46.35005" lon="-0.01167">
        <ele>132.84</ele>
        <time>2023-06-18T13:32:27.012Z</time>
      </trkpt>
      <trkpt lat="46.35017" lon="-0.0116">
        <ele>132.6</ele>
        <time>2023-06-18T13:33:26.752Z</time>
      </trkpt>
      <trkpt lat="46.35026" lon="-0.01156">
        <ele>132.41</ele>
        <time>2023-06-18T13:34:26.493Z</time>
      </trkpt>
      <trkpt lat="46.35042" lon="-0.01146">
        <ele>131.98</ele>
        <time>2023-06-18T13:35:26.237Z</time>
      </trkpt>
      <trkpt lat="46.35055" lon="-0.01139">
        <ele>131.69</ele>
        <time>2023-06-18T13:36:25.983Z</time>
      </trkpt>
      <trkpt lat="46.35063" lon="-0.01134">
        <ele>131.48</ele>
        <time>2023-06-18T13:37:25.730Z</time>
      </trkpt>
      <trkpt lat="46.35076" lon="-0.01127">
        <ele>131.07</ele>
        <time>2023-06-18T13:38:25.480Z</time>
      </trkpt>
      <trkpt lat="46.35084" lon="-0.01123">
        <ele>130.75</ele>
        <time>2023-06-18T13:39:25.231Z</time>
      </trkpt>
      <trkpt lat="46.35097" lon="-0.01116">
        <ele>130.23</ele>
        <time>2023-06-18T13:40:24.984Z</time>
      </trkpt>
      <trkpt lat="46.35105" lon="-0.01111">
        <ele>129.95</ele>
        <time>2023-06-18T13:41:24.739Z</time>
      </trkpt>
      <trkpt lat="46.35122" lon="-0.01102">
        <ele>129.51</ele>
        <time>2023-06-18T13:42:24.496Z</time>
      </trkpt>
      <trkpt lat="46.35134" lon="-0.01095">
        <ele>129.27</ele>
        <time>2023-06-18T13:43:24.256Z</time>
      </trkpt>
      <trkpt lat="46.35142" lon="-0.0109">
        <ele>129.21</ele>
        <time>2023-06-18T13:44:24.017Z</time>
      </trkpt>
      <trkpt lat="46.35151" lon="-0.01085">
        <ele>129.22</ele>
        <time>2023-06-18T13:45:23.780Z</time>
      </trkpt>
      <trkpt lat="46.35153" lon="-0.01084">
        <ele>129.23</ele>
        <time>2023-06-18T13:46:23.543Z</time>
      </trkpt>
      <trkpt lat="46.35163" lon="-0.01078">
        <ele>129.32</ele>
        <time>2023-06-18T13:47:23.308Z</time>
      </trkpt>
      <trkpt lat="46.35171" lon="-0.01073">
        <ele>129.44</ele>
        <time>2023-06-18T13:48:23.074Z</time>
      </trkpt>
      <trkpt lat="46.3518" lon="-0.01068">
        <ele>129.61</ele>
        <time>2023-06-18T13:49:22.842Z</time>
      </trkpt>
      <trkpt lat="46.35184" lon="-0.01065">
        <ele>129.71</ele>
        <time>2023-06-18T13:50:22.610Z</time>
      </trkpt>
      <trkpt lat="46.352" lon="-0.01055">
        <ele>130.2</ele>
        <time>2023-06-18T13:51:22.381Z</time>
      </trkpt>
      <trkpt lat="46.35207" lon="-0.01051">
        <ele>130.37</ele>
        <time>2023-06-18T13:52:22.153Z</time>
      </trkpt>
      <trkpt lat="46.35208" lon="-0.01049">
        <ele>130.42</ele>
        <time>2023-06-18T13:53:21.926Z</time>
      </trkpt>
      <trkpt lat="46.35219" lon="-0.01038">
        <ele>130.7</ele>
        <time>2023-06-18T13:54:21.701Z</time>
      </trkpt>
      <trkpt lat="46.3523" lon="-0.01026">
        <ele>130.92</ele>
        <time>2023-06-18T13:55:21.478Z</time>
      </trkpt>
      <trkpt lat="46.35237" lon="-0.01018">
        <ele>131.01</ele>
        <time>2023-06-18T13:56:21.256Z</time>
      </trkpt>
      <trkpt lat="46.35261" lon="-0.00992">
        <ele>131.07</ele>
        <time>2023-06-18T13:57:21.039Z</time>
      </trkpt>
      <trkpt lat="46.35265" lon="-0.00978">
        <ele>131.1</ele>
        <time>2023-06-18T13:58:20.824Z</time>
      </trkpt>
      <trkpt lat="46.35266" lon="-0.00972">
        <ele>131.07</ele>
        <time>2023-06-18T13:59:20.609Z</time>
      </trkpt>
      <trkpt lat="46.3527" lon="-0.00957">
        <ele>130.95</ele>
        <time>2023-06-18T14:00:20.396Z</time>
      </trkpt>
      <trkpt lat="46.35273" lon="-0.00934">
        <ele>130.79</ele>
        <time>2023-06-18T14:01:20.186Z</time>
      </trkpt>
      <trkpt lat="46.3528" lon="-0.00884">
        <ele>130.31</ele>
        <time>2023-06-18T14:02:19.982Z</time>
      </trkpt>
      <trkpt lat="46.35282" lon="-0.0087">
        <ele>130.14</ele>
        <time>2023-06-18T14:03:19.779Z</time>
      </trkpt>
      <trkpt lat="46.35275" lon="-0.00868">
        <ele>130.02</ele>
        <time>2023-06-18T14:04:19.577Z</time>
      </trkpt>
      <trkpt lat="46.35271" lon="-0.00862">
        <ele>129.93</ele>
        <time>2023-06-18T14:05:19.376Z</time>
      </trkpt>
      <trkpt lat="46.35269" lon="-0.00859">
        <ele>129.86</ele>
        <time>2023-06-18T14:06:19.176Z</time>
      </trkpt>
      <trkpt lat="46.35267" lon="-0.00851">
        <ele>129.72</ele>
        <time>2023-06-18T14:07:18.977Z</time>
      </trkpt>
      <trkpt lat="46.35261" lon="-0.00826">
        <ele>129.26</ele>
        <time>2023-06-18T14:08:18.780Z</time>
      </trkpt>
      <trkpt lat="46.35255" lon="-0.00802">
        <ele>128.94</ele>
        <time>2023-06-18T14:09:18.586Z</time>
      </trkpt>
      <trkpt lat="46.35251" lon="-0.0079">
        <ele>128.71</ele>
        <time>2023-06-18T14:10:18.394Z</time>
      </trkpt>
      <trkpt lat="46.3525" lon="-0.00784">
        <ele>128.56</ele>
        <time>2023-06-18T14:11:18.202Z</time>
      </trkpt>
      <trkpt lat="46.35249" lon="-0.00777">
        <ele>128.41</ele>
        <time>2023-06-18T14:12:18.011Z</time>
      </trkpt>
      <trkpt lat="46.35247" lon="-0.00759">
        <ele>127.87</ele>
        <time>2023-06-18T14:13:17.822Z</time>
      </trkpt>
      <trkpt lat="46.35247" lon="-0.00752">
        <ele>127.67</ele>
        <time>2023-06-18T14:14:17.634Z</time>
      </trkpt>
      <trkpt lat="46.35248" lon="-0.00738">
        <ele>127.23</ele>
        <time>2023-06-18T14:15:17.448Z</time>
      </trkpt>
      <trkpt lat="46.35248" lon="-0.00738">
        <ele>127.23</ele>
        <time>2023-06-18T14:16:17.262Z</time>
      </trkpt>
      <trkpt lat="46.3525" lon="-0.00726">
        <ele>126.85</ele>
        <time>2023-06-18T14:17:17.077Z</time>
      </trkpt>
      <trkpt lat="46.35252" lon="-0.00714">
        <ele>126.53</ele>
        <time>2023-06-18T14:18:16.893Z</time>
      </trkpt>
      <trkpt lat="46.35255" lon="-0.00701">
        <ele>126.23</ele>
        <time>2023-06-18T14:19:16.711Z</time>
      </trkpt>
      <trkpt lat="46.35256" lon="-0.00695">
        <ele>126.1</ele>
        <time>2023-06-18T14:20:16.530Z</time>
      </trkpt>
      <trkpt lat="46.35257" lon="-0.00689">
        <ele>126</ele>
        <time>2023-06-18T14:21:16.349Z</time>
      </trkpt>
      <trkpt lat="46.35258" lon="-0.00683">
        <ele>125.93</ele>
        <time>2023-06-18T14:22:16.169Z</time>
      </trkpt>
      <trkpt lat="46.3526" lon="-0.0067">
        <ele>125.87</ele>
        <time>2023-06-18T14:23:15.990Z</time>
      </trkpt>
      <trkpt lat="46.35262" lon="-0.00664">
        <ele>125.87</ele>
        <time>2023-06-18T14:24:15.812Z</time>
      </trkpt>
      <trkpt lat="46.35264" lon="-0.00651">
        <ele>125.93</ele>
        <time>2023-06-18T14:25:15.636Z</time>
      </trkpt>
      <trkpt lat="46.35266" lon="-0.0064">
        <ele>126.04</ele>
        <time>2023-06-18T14:26:15.461Z</time>
      </trkpt>
      <trkpt lat="46.35266" lon="-0.00639">
        <ele>126.06</ele>
        <time>2023-06-18T14:27:15.286Z</time>
      </trkpt>
      <trkpt lat="46.35267" lon="-0.00626">
        <ele>126.26</ele>
        <time>2023-06-18T14:28:15.112Z</time>
      </trkpt>
      <trkpt lat="46.35268" lon="-0.00606">
        <ele>126.63</ele>
        <time>2023-06-18T14:29:14.941Z</time>
      </trkpt>
      <trkpt lat="46.35269" lon="-0.00581">
        <ele>127.19</ele>
        <time>2023-06-18T14:30:14.772Z</time>
      </trkpt>
      <trkpt lat="46.35269" lon="-0.0058">
        <ele>127.19</ele>
        <time>2023-06-18T14:31:14.603Z</time>
      </trkpt>
      <trkpt lat="46.35268" lon="-0.00555">
        <ele>127.8</ele>
        <time>2023-06-18T14:32:14.437Z</time>
      </trkpt>
      <trkpt lat="46.35268" lon="-0.00542">
        <ele>128.16</ele>
        <time>2023-06-18T14:33:14.273Z</time>
      </trkpt>
      <trkpt lat="46.35268" lon="-0.00535">
        <ele>128.37</ele>
        <time>2023-06-18T14:34:14.109Z</time>
      </trkpt>
      <trkpt lat="46.35267" lon="-0.00512">
        <ele>129.18</ele>
        <time>2023-06-18T14:35:13.948Z</time>
      </trkpt>
      <trkpt lat="46.35266" lon="-0.00503">
        <ele>129.51</ele>
        <time>2023-06-18T14:36:13.788Z</time>
      </trkpt>
      <trkpt lat="46.35263" lon="-0.00471">
        <ele>130.51</ele>
        <time>2023-06-18T14:37:13.632Z</time>
      </trkpt>
      <trkpt lat="46.35262" lon="-0.00458">
        <ele>130.89</ele>
        <time>2023-06-18T14:38:13.477Z</time>
      </trkpt>
      <trkpt lat="46.3526" lon="-0.00445">
        <ele>131.24</ele>
        <time>2023-06-18T14:39:13.324Z</time>
      </trkpt>
      <trkpt lat="46.3526" lon="-0.0044">
        <ele>131.36</ele>
        <time>2023-06-18T14:40:13.171Z</time>
      </trkpt>
      <trkpt lat="46.35259" lon="-0.00432">
        <ele>131.56</ele>
        <time>2023-06-18T14:41:13.019Z</time>
      </trkpt>
      <trkpt lat="46.35258" lon="-0.00426">
        <ele>131.69</ele>
        <time>2023-06-18T14:42:12.868Z</time>
      </trkpt>
      <trkpt lat="46.3525" lon="-0.00375">
        <ele>132.59</ele>
        <time>2023-06-18T14:43:12.722Z</time>
      </trkpt>
      <trkpt lat="46.35244" lon="-0.00337">
        <ele>133.21</ele>
        <time>2023-06-18T14:44:12.581Z</time>
      </trkpt>
      <trkpt lat="46.35241" lon="-0.00318">
        <ele>133.48</ele>
        <time>2023-06-18T14:45:12.442Z</time>
      </trkpt>
      <trkpt lat="46.35235" lon="-0.00274">
        <ele>134.06</ele>
        <time>2023-06-18T14:46:12.308Z</time>
      </trkpt>
      <trkpt lat="46.3523" lon="-0.00242">
        <ele>134.43</ele>
        <time>2023-06-18T14:47:12.178Z</time>
      </trkpt>
      <trkpt lat="46.35224" lon="-0.00204">
        <ele>134.98</ele>
        <time>2023-06-18T14:48:12.052Z</time>
      </trkpt>
      <trkpt lat="46.3522" lon="-0.00179">
        <ele>135.28</ele>
        <time>2023-06-18T14:49:11.929Z</time>
      </trkpt>
      <trkpt lat="46.35217" lon="-0.0016">
        <ele>135.6</ele>
        <time>2023-06-18T14:50:11.808Z</time>
      </trkpt>
      <trkpt lat="46.35215" lon="-0.00147">
        <ele>135.78</ele>
        <time>2023-06-18T14:51:11.688Z</time>
      </trkpt>
      <trkpt lat="46.35213" lon="-0.00135">
        <ele>135.89</ele>
        <time>2023-06-18T14:52:11.570Z</time>
      </trkpt>
      <trkpt lat="46.35209" lon="-0.00109">
        <ele>136.04</ele>
        <time>2023-06-18T14:53:11.455Z</time>
      </trkpt>
      <trkpt lat="46.35206" lon="-0.0009">
        <ele>136.22</ele>
        <time>2023-06-18T14:54:11.342Z</time>
      </trkpt>
      <trkpt lat="46.35206" lon="-0.00088">
        <ele>136.25</ele>
        <time>2023-06-18T14:55:11.229Z</time>
      </trkpt>
      <trkpt lat="46.35205" lon="-0.00072">
        <ele>136.47</ele>
        <time>2023-06-18T14:56:11.118Z</time>
      </trkpt>
      <trkpt lat="46.35202" lon="-0.00044">
        <ele>136.79</ele>
        <time>2023-06-18T14:57:11.010Z</time>
      </trkpt>
      <trkpt lat="46.35202" lon="-0.00028">
        <ele>136.98</ele>
        <time>2023-06-18T14:58:10.904Z</time>
      </trkpt>
      <trkpt lat="46.35202" lon="-2.0E-5">
        <ele>137.37</ele>
        <time>2023-06-18T14:59:10.801Z</time>
      </trkpt>
      <trkpt lat="46.35202" lon="6.0E-5">
        <ele>137.47</ele>
        <time>2023-06-18T15:00:10.699Z</time>
      </trkpt>
      <trkpt lat="46.35204" lon="0.00061">
        <ele>138.15</ele>
        <time>2023-06-18T15:01:10.603Z</time>
      </trkpt>
      <trkpt lat="46.35206" lon="0.00099">
        <ele>138.59</ele>
        <time>2023-06-18T15:02:10.511Z</time>
      </trkpt>
      <trkpt lat="46.35206" lon="0.00118">
        <ele>138.86</ele>
        <time>2023-06-18T15:03:10.421Z</time>
      </trkpt>
      <trkpt lat="46.35208" lon="0.00151">
        <ele>139.36</ele>
        <time>2023-06-18T15:04:10.335Z</time>
      </trkpt>
      <trkpt lat="46.35209" lon="0.0019">
        <ele>139.8</ele>
        <time>2023-06-18T15:05:10.253Z</time>
      </trkpt>
      <trkpt lat="46.3521" lon="0.00211">
        <ele>140.08</ele>
        <time>2023-06-18T15:06:10.173Z</time>
      </trkpt>
      <trkpt lat="46.3521" lon="0.00216">
        <ele>140.15</ele>
        <time>2023-06-18T15:07:10.094Z</time>
      </trkpt>
      <trkpt lat="46.3521" lon="0.00229">
        <ele>140.29</ele>
        <time>2023-06-18T15:08:10.016Z</time>
      </trkpt>
      <trkpt lat="46.3521" lon="0.00248">
        <ele>140.45</ele>
        <time>2023-06-18T15:09:09.940Z</time>
      </trkpt>
      <trkpt lat="46.3521" lon="0.00251">
        <ele>140.47</ele>
        <time>2023-06-18T15:10:09.865Z</time>
      </trkpt>
      <trkpt lat="46.35208" lon="0.00268">
        <ele>140.65</ele>
        <time>2023-06-18T15:11:09.792Z</time>
      </trkpt>
      <trkpt lat="46.35206" lon="0.0028">
        <ele>140.76</ele>
        <time>2023-06-18T15:12:09.720Z</time>
      </trkpt>
      <trkpt lat="46.35205" lon="0.00288">
        <ele>140.8</ele>
        <time>2023-06-18T15:13:09.649Z</time>
      </trkpt>
      <trkpt lat="46.35203" lon="0.00293">
        <ele>140.83</ele>
        <time>2023-06-18T15:14:09.578Z</time>
      </trkpt>
      <trkpt lat="46.35196" lon="0.00316">
        <ele>140.89</ele>
        <time>2023-06-18T15:15:09.510Z</time>
      </trkpt>
      <trkpt lat="46.35192" lon="0.00328">
        <ele>140.88</ele>
        <time>2023-06-18T15:16:09.444Z</time>
      </trkpt>
      <trkpt lat="46.35189" lon="0.00333">
        <ele>140.88</ele>
        <time>2023-06-18T15:17:09.379Z</time>
      </trkpt>
      <trkpt lat="46.35184" lon="0.00344">
        <ele>140.91</ele>
        <time>2023-06-18T15:18:09.315Z</time>
      </trkpt>
      <trkpt lat="46.35175" lon="0.00362">
        <ele>140.99</ele>
        <time>2023-06-18T15:19:09.253Z</time>
      </trkpt>
      <trkpt lat="46.35155" lon="0.00393">
        <ele>141.17</ele>
        <time>2023-06-18T15:20:09.196Z</time>
      </trkpt>
      <trkpt lat="46.35151" lon="0.00398">
        <ele>141.21</ele>
        <time>2023-06-18T15:21:09.140Z</time>
      </trkpt>
      <trkpt lat="46.35136" lon="0.0041">
        <ele>141.36</ele>
        <time>2023-06-18T15:22:09.087Z</time>
      </trkpt>
      <trkpt lat="46.35124" lon="0.00419">
        <ele>141.45</ele>
        <time>2023-06-18T15:23:09.036Z</time>
      </trkpt>
      <trkpt lat="46.35121" lon="0.00421">
        <ele>141.46</ele>
        <time>2023-06-18T15:24:08.985Z</time>
      </trkpt>
      <trkpt lat="46.35096" lon="0.00451">
        <ele>141.58</ele>
        <time>2023-06-18T15:25:08.940Z</time>
      </trkpt>
      <trkpt lat="46.35087" lon="0.00461">
        <ele>141.64</ele>
        <time>2023-06-18T15:26:08.896Z</time>
      </trkpt>
      <trkpt lat="46.35065" lon="0.0049">
        <ele>141.81</ele>
        <time>2023-06-18T15:27:08.857Z</time>
      </trkpt>
      <trkpt lat="46.35056" lon="0.00503">
        <ele>141.84</ele>
        <time>2023-06-18T15:28:08.820Z</time>
      </trkpt>
      <trkpt lat="46.35043" lon="0.0052">
        <ele>141.78</ele>
        <time>2023-06-18T15:29:08.786Z</time>
      </trkpt>
      <trkpt lat="46.35029" lon="0.00547">
        <ele>141.72</ele>
        <time>2023-06-18T15:30:08.756Z</time>
      </trkpt>
      <trkpt lat="46.35012" lon="0.00577">
        <ele>141.69</ele>
        <time>2023-06-18T15:31:08.730Z</time>
      </trkpt>
      <trkpt lat="46.35001" lon="0.00598">
        <ele>141.72</ele>
        <time>2023-06-18T15:32:08.707Z</time>
      </trkpt>
      <trkpt lat="46.35001" lon="0.00598">
        <ele>141.72</ele>
        <time>2023-06-18T15:33:08.684Z</time>
      </trkpt>
      <trkpt lat="46.34988" lon="0.00624">
        <ele>141.71</ele>
        <time>2023-06-18T15:34:08.665Z</time>
      </trkpt>
      <trkpt lat="46.3498" lon="0.00641">
        <ele>141.66</ele>
        <time>2023-06-18T15:35:08.648Z</time>
      </trkpt>
      <trkpt lat="46.3498" lon="0.00641">
        <ele>141.66</ele>
        <time>2023-06-18T15:36:08.631Z</time>
      </trkpt>
      <trkpt lat="46.34967" lon="0.00682">
        <ele>141.41</ele>
        <time>2023-06-18T15:37:08.619Z</time>
      </trkpt>
      <trkpt lat="46.34958" lon="0.00711">
        <ele>141.19</ele>
        <time>2023-06-18T15:38:08.610Z</time>
      </trkpt>
      <trkpt lat="46.34946" lon="0.00747">
        <ele>141.03</ele>
        <time>2023-06-18T15:39:08.606Z</time>
      </trkpt>
      <trkpt lat="46.34939" lon="0.0077">
        <ele>140.86</ele>
        <time>2023-06-18T15:40:08.605Z</time>
      </trkpt>
      <trkpt lat="46.3493" lon="0.008">
        <ele>140.56</ele>
        <time>2023-06-18T15:41:08.607Z</time>
      </trkpt>
      <trkpt lat="46.34922" lon="0.00823">
        <ele>140.24</ele>
        <time>2023-06-18T15:42:08.612Z</time>
      </trkpt>
      <trkpt lat="46.34918" lon="0.00835">
        <ele>140.1</ele>
        <time>2023-06-18T15:43:08.619Z</time>
      </trkpt>
      <trkpt lat="46.34915" lon="0.00847">
        <ele>139.99</ele>
        <time>2023-06-18T15:44:08.627Z</time>
      </trkpt>
      <trkpt lat="46.34905" lon="0.00877">
        <ele>139.79</ele>
        <time>2023-06-18T15:45:08.639Z</time>
      </trkpt>
      <trkpt lat="46.34892" lon="0.00918">
        <ele>139.34</ele>
        <time>2023-06-18T15:46:08.656Z</time>
      </trkpt>
      <trkpt lat="46.34886" lon="0.00936">
        <ele>139.19</ele>
        <time>2023-06-18T15:47:08.675Z</time>
      </trkpt>
      <trkpt lat="46.34883" lon="0.00948">
        <ele>139.14</ele>
        <time>2023-06-18T15:48:08.695Z</time>
      </trkpt>
      <trkpt lat="46.3488" lon="0.00956">
        <ele>139.13</ele>
        <time>2023-06-18T15:49:08.716Z</time>
      </trkpt>
      <trkpt lat="46.34868" lon="0.00988">
        <ele>139.11</ele>
        <time>2023-06-18T15:50:08.741Z</time>
      </trkpt>
      <trkpt lat="46.34854" lon="0.01028">
        <ele>139</ele>
        <time>2023-06-18T15:51:08.771Z</time>
      </trkpt>
      <trkpt lat="46.34847" lon="0.01046">
        <ele>138.98</ele>
        <time>2023-06-18T15:52:08.803Z</time>
      </trkpt>
      <trkpt lat="46.34844" lon="0.01055">
        <ele>138.99</ele>
        <time>2023-06-18T15:53:08.837Z</time>
      </trkpt>
      <trkpt lat="46.34842" lon="0.01063">
        <ele>139</ele>
        <time>2023-06-18T15:54:08.872Z</time>
      </trkpt>
      <trkpt lat="46.3484" lon="0.01069">
        <ele>138.99</ele>
        <time>2023-06-18T15:55:08.907Z</time>
      </trkpt>
      <trkpt lat="46.34834" lon="0.01093">
        <ele>138.86</ele>
        <time>2023-06-18T15:56:08.945Z</time>
      </trkpt>
      <trkpt lat="46.34827" lon="0.01118">
        <ele>138.83</ele>
        <time>2023-06-18T15:57:08.986Z</time>
      </trkpt>
      <trkpt lat="46.34822" lon="0.01136">
        <ele>138.76</ele>
        <time>2023-06-18T15:58:09.029Z</time>
      </trkpt>
      <trkpt lat="46.34819" lon="0.01148">
        <ele>138.67</ele>
        <time>2023-06-18T15:59:09.074Z</time>
      </trkpt>
      <trkpt lat="46.34816" lon="0.01158">
        <ele>138.58</ele>
        <time>2023-06-18T16:00:09.120Z</time>
      </trkpt>
      <trkpt lat="46.3481" lon="0.01177">
        <ele>138.41</ele>
        <time>2023-06-18T16:01:09.168Z</time>
      </trkpt>
      <trkpt lat="46.34806" lon="0.01189">
        <ele>138.29</ele>
        <time>2023-06-18T16:02:09.218Z</time>
      </trkpt>
      <trkpt lat="46.34803" lon="0.01198">
        <ele>138.16</ele>
        <time>2023-06-18T16:03:09.269Z</time>
      </trkpt>
      <trkpt lat="46.34795" lon="0.01217">
        <ele>137.87</ele>
        <time>2023-06-18T16:04:09.322Z</time>
      </trkpt>
      <trkpt lat="46.3479" lon="0.01228">
        <ele>137.76</ele>
        <time>2023-06-18T16:05:09.377Z</time>
      </trkpt>
      <trkpt lat="46.34778" lon="0.01255">
        <ele>137.54</ele>
        <time>2023-06-18T16:06:09.435Z</time>
      </trkpt>
      <trkpt lat="46.34771" lon="0.01271">
        <ele>137.48</ele>
        <time>2023-06-18T16:07:09.495Z</time>
      </trkpt>
      <trkpt lat="46.34757" lon="0.01302">
        <ele>137.25</ele>
        <time>2023-06-18T16:08:09.559Z</time>
      </trkpt>
      <trkpt lat="46.34753" lon="0.01316">
        <ele>137.16</ele>
        <time>2023-06-18T16:09:09.625Z</time>
      </trkpt>
      <trkpt lat="46.3475" lon="0.01328">
        <ele>137.12</ele>
        <time>2023-06-18T16:10:09.693Z</time>
      </trkpt>
      <trkpt lat="46.34738" lon="0.01377">
        <ele>137.19</ele>
        <time>2023-06-18T16:11:09.766Z</time>
      </trkpt>
      <trkpt lat="46.34734" lon="0.01394">
        <ele>137.17</ele>
        <time>2023-06-18T16:12:09.841Z</time>
      </trkpt>
      <trkpt lat="46.34732" lon="0.01408">
        <ele>137.17</ele>
        <time>2023-06-18T16:13:09.918Z</time>
      </trkpt>
      <trkpt lat="46.34727" lon="0.01433">
        <ele>137.09</ele>
        <time>2023-06-18T16:14:09.998Z</time>
      </trkpt>
      <trkpt lat="46.34724" lon="0.01452">
        <ele>137.12</ele>
        <time>2023-06-18T16:15:10.080Z</time>
      </trkpt>
      <trkpt lat="46.34721" lon="0.01467">
        <ele>137.18</ele>
        <time>2023-06-18T16:16:10.164Z</time>
      </trkpt>
      <trkpt lat="46.34721" lon="0.0147">
        <ele>137.2</ele>
        <time>2023-06-18T16:17:10.248Z</time>
      </trkpt>
      <trkpt lat="46.34721" lon="0.01483">
        <ele>137.28</ele>
        <time>2023-06-18T16:18:10.333Z</time>
      </trkpt>
      <trkpt lat="46.34721" lon="0.01494">
        <ele>137.37</ele>
        <time>2023-06-18T16:19:10.420Z</time>
      </trkpt>
      <trkpt lat="46.34724" lon="0.01508">
        <ele>137.5</ele>
        <time>2023-06-18T16:20:10.508Z</time>
      </trkpt>
      <trkpt lat="46.34731" lon="0.01539">
        <ele>137.63</ele>
        <time>2023-06-18T16:21:10.600Z</time>
      </trkpt>
      <trkpt lat="46.34735" lon="0.01554">
        <ele>137.77</ele>
        <time>2023-06-18T16:22:10.694Z</time>
      </trkpt>
      <trkpt lat="46.34741" lon="0.01575">
        <ele>137.98</ele>
        <time>2023-06-18T16:23:10.790Z</time>
      </trkpt>
      <trkpt lat="46.34748" lon="0.01603">
        <ele>138.2</ele>
        <time>2023-06-18T16:24:10.890Z</time>
      </trkpt>
      <trkpt lat="46.34749" lon="0.01612">
        <ele>138.27</ele>
        <time>2023-06-18T16:25:10.991Z</time>
      </trkpt>
      <trkpt lat="46.34752" lon="0.01628">
        <ele>138.47</ele>
        <time>2023-06-18T16:26:11.093Z</time>
      </trkpt>
      <trkpt lat="46.34753" lon="0.01674">
        <ele>139.03</ele>
        <time>2023-06-18T16:27:11.200Z</time>
      </trkpt>
      <trkpt lat="46.34766" lon="0.01684">
        <ele>139.3</ele>
        <time>2023-06-18T16:28:11.310Z</time>
      </trkpt>
      <trkpt lat="46.34771" lon="0.01688">
        <ele>139.41</ele>
        <time>2023-06-18T16:29:11.421Z</time>
      </trkpt>
      <trkpt lat="46.34777" lon="0.01694">
        <ele>139.58</ele>
        <time>2023-06-18T16:30:11.533Z</time>
      </trkpt>
      <trkpt lat="46.34792" lon="0.01709">
        <ele>140.06</ele>
        <time>2023-06-18T16:31:11.648Z</time>
      </trkpt>
      <trkpt lat="46.34814" lon="0.01731">
        <ele>140.84</ele>
        <time>2023-06-18T16:32:11.767Z</time>
      </trkpt>
      <trkpt lat="46.34817" lon="0.01734">
        <ele>140.92</ele>
        <time>2023-06-18T16:33:11.887Z</time>
      </trkpt>
      <trkpt lat="46.34839" lon="0.01745">
        <ele>141.53</ele>
        <time>2023-06-18T16:34:12.010Z</time>
      </trkpt>
      <trkpt lat="46.34865" lon="0.01757">
        <ele>142.34</ele>
        <time>2023-06-18T16:35:12.138Z</time>
      </trkpt>
      <trkpt lat="46.34873" lon="0.01761">
        <ele>142.58</ele>
        <time>2023-06-18T16:36:12.267Z</time>
      </trkpt>
      <trkpt lat="46.34877" lon="0.01763">
        <ele>142.68</ele>
        <time>2023-06-18T16:37:12.397Z</time>
      </trkpt>
      <trkpt lat="46.34886" lon="0.01767">
        <ele>142.84</ele>
        <time>2023-06-18T16:38:12.528Z</time>
      </trkpt>
      <trkpt lat="46.34899" lon="0.01771">
        <ele>143.1</ele>
        <time>2023-06-18T16:39:12.661Z</time>
      </trkpt>
      <trkpt lat="46.34916" lon="0.01776">
        <ele>143.46</ele>
        <time>2023-06-18T16:40:12.797Z</time>
      </trkpt>
      <trkpt lat="46.34925" lon="0.01779">
        <ele>143.61</ele>
        <time>2023-06-18T16:41:12.935Z</time>
      </trkpt>
      <trkpt lat="46.34934" lon="0.01782">
        <ele>143.72</ele>
        <time>2023-06-18T16:42:13.074Z</time>
      </trkpt>
      <trkpt lat="46.34943" lon="0.01785">
        <ele>143.77</ele>
        <time>2023-06-18T16:43:13.215Z</time>
      </trkpt>
      <trkpt lat="46.34951" lon="0.01787">
        <ele>143.76</ele>
        <time>2023-06-18T16:44:13.357Z</time>
      </trkpt>
      <trkpt lat="46.34957" lon="0.01789">
        <ele>143.72</ele>
        <time>2023-06-18T16:45:13.500Z</time>
      </trkpt>
      <trkpt lat="46.3496" lon="0.0179">
        <ele>143.71</ele>
        <time>2023-06-18T16:46:13.643Z</time>
      </trkpt>
      <trkpt lat="46.34969" lon="0.01792">
        <ele>143.62</ele>
        <time>2023-06-18T16:47:13.788Z</time>
      </trkpt>
      <trkpt lat="46.34982" lon="0.01794">
        <ele>143.42</ele>
        <time>2023-06-18T16:48:13.935Z</time>
      </trkpt>
      <trkpt lat="46.34991" lon="0.01796">
        <ele>143.24</ele>
        <time>2023-06-18T16:49:14.083Z</time>
      </trkpt>
      <trkpt lat="46.35009" lon="0.018">
        <ele>142.81</ele>
        <time>2023-06-18T16:50:14.234Z</time>
      </trkpt>
      <trkpt lat="46.35026" lon="0.01804">
        <ele>142.41</ele>
        <time>2023-06-18T16:51:14.388Z</time>
      </trkpt>
      <trkpt lat="46.35049" lon="0.01809">
        <ele>141.86</ele>
        <time>2023-06-18T16:52:14.546Z</time>
      </trkpt>
      <trkpt lat="46.35053" lon="0.0181">
        <ele>141.77</ele>
        <time>2023-06-18T16:53:14.704Z</time>
      </trkpt>
      <trkpt lat="46.35083" lon="0.01821">
        <ele>140.96</ele>
        <time>2023-06-18T16:54:14.867Z</time>
      </trkpt>
      <trkpt lat="46.35092" lon="0.01824">
        <ele>140.76</ele>
        <time>2023-06-18T16:55:15.032Z</time>
      </trkpt>
      <trkpt lat="46.35096" lon="0.01826">
        <ele>140.67</ele>
        <time>2023-06-18T16:56:15.198Z</time>
      </trkpt>
      <trkpt lat="46.35117" lon="0.01835">
        <ele>140.29</ele>
        <time>2023-06-18T16:57:15.367Z</time>
      </trkpt>
      <trkpt lat="46.35131" lon="0.01838">
        <ele>140.05</ele>
        <time>2023-06-18T16:58:15.538Z</time>
      </trkpt>
      <trkpt lat="46.35142" lon="0.01841">
        <ele>139.87</ele>
        <time>2023-06-18T16:59:15.711Z</time>
      </trkpt>
      <trkpt lat="46.35152" lon="0.01848">
        <ele>139.69</ele>
        <time>2023-06-18T17:00:15.886Z</time>
      </trkpt>
      <trkpt lat="46.35155" lon="0.01855">
        <ele>139.6</ele>
        <time>2023-06-18T17:01:16.062Z</time>
      </trkpt>
      <trkpt lat="46.35157" lon="0.01872">
        <ele>139.42</ele>
        <time>2023-06-18T17:02:16.240Z</time>
      </trkpt>
      <trkpt lat="46.35159" lon="0.01884">
        <ele>139.32</ele>
        <time>2023-06-18T17:03:16.419Z</time>
      </trkpt>
      <trkpt lat="46.35157" lon="0.01891">
        <ele>139.26</ele>
        <time>2023-06-18T17:04:16.599Z</time>
      </trkpt>
      <trkpt lat="46.35152" lon="0.01908">
        <ele>139.16</ele>
        <time>2023-06-18T17:05:16.781Z</time>
      </trkpt>
      <trkpt lat="46.35149" lon="0.01914">
        <ele>139.13</ele>
        <time>2023-06-18T17:06:16.964Z</time>
      </trkpt>
      <trkpt lat="46.3514" lon="0.01937">
        <ele>139.07</ele>
        <time>2023-06-18T17:07:17.150Z</time>
      </trkpt>
      <trkpt lat="46.35122" lon="0.01981">
        <ele>139.13</ele>
        <time>2023-06-18T17:08:17.341Z</time>
      </trkpt>
      <trkpt lat="46.35145" lon="0.02">
        <ele>139.18</ele>
        <time>2023-06-18T17:09:17.537Z</time>
      </trkpt>
      <trkpt lat="46.35152" lon="0.02007">
        <ele>139.24</ele>
        <time>2023-06-18T17:10:17.734Z</time>
      </trkpt>
      <trkpt lat="46.3516" lon="0.02013">
        <ele>139.34</ele>
        <time>2023-06-18T17:11:17.933Z</time>
      </trkpt>
      <trkpt lat="46.35172" lon="0.02023">
        <ele>139.54</ele>
        <time>2023-06-18T17:12:18.134Z</time>
      </trkpt>
      <trkpt lat="46.35199" lon="0.02046">
        <ele>140.2</ele>
        <time>2023-06-18T17:13:18.340Z</time>
      </trkpt>
      <trkpt lat="46.35204" lon="0.0205">
        <ele>140.57</ele>
        <time>2023-06-18T17:14:18.547Z</time>
      </trkpt>
      <trkpt lat="46.35211" lon="0.02056">
        <ele>140.27</ele>
        <time>2023-06-18T17:15:18.755Z</time>
      </trkpt>
      <trkpt lat="46.35215" lon="0.0206">
        <ele>140.15</ele>
        <time>2023-06-18T17:16:18.964Z</time>
      </trkpt>
      <trkpt lat="46.35219" lon="0.02063">
        <ele>140.06</ele>
        <time>2023-06-18T17:17:19.173Z</time>
      </trkpt>
      <trkpt lat="46.35223" lon="0.02066">
        <ele>140</ele>
        <time>2023-06-18T17:18:19.383Z</time>
      </trkpt>
      <trkpt lat="46.3523" lon="0.02073">
        <ele>139.94</ele>
        <time>2023-06-18T17:19:19.594Z</time>
      </trkpt>
      <trkpt lat="46.35238" lon="0.02079">
        <ele>139.91</ele>
        <time>2023-06-18T17:20:19.807Z</time>
      </trkpt>
      <trkpt lat="46.35249" lon="0.02089">
        <ele>139.91</ele>
        <time>2023-06-18T17:21:20.022Z</time>
      </trkpt>
      <trkpt lat="46.35272" lon="0.02108">
        <ele>140</ele>
        <time>2023-06-18T17:22:20.241Z</time>
      </trkpt>
      <trkpt lat="46.35292" lon="0.02125">
        <ele>140</ele>
        <time>2023-06-18T17:23:20.464Z</time>
      </trkpt>
      <trkpt lat="46.35299" lon="0.02131">
        <ele>140.05</ele>
        <time>2023-06-18T17:24:20.688Z</time>
      </trkpt>
      <trkpt lat="46.35318" lon="0.02147">
        <ele>140.29</ele>
        <time>2023-06-18T17:25:20.916Z</time>
      </trkpt>
      <trkpt lat="46.35326" lon="0.02154">
        <ele>140.43</ele>
        <time>2023-06-18T17:26:21.145Z</time>
      </trkpt>
      <trkpt lat="46.35334" lon="0.0216">
        <ele>140.6</ele>
        <time>2023-06-18T17:27:21.376Z</time>
      </trkpt>
      <trkpt lat="46.35345" lon="0.0217">
        <ele>140.96</ele>
        <time>2023-06-18T17:28:21.609Z</time>
      </trkpt>
      <trkpt lat="46.3536" lon="0.02183">
        <ele>141.55</ele>
        <time>2023-06-18T17:29:21.845Z</time>
      </trkpt>
      <trkpt lat="46.35368" lon="0.02189">
        <ele>141.81</ele>
        <time>2023-06-18T17:30:22.082Z</time>
      </trkpt>
      <trkpt lat="46.35395" lon="0.02212">
        <ele>142.63</ele>
        <time>2023-06-18T17:31:22.324Z</time>
      </trkpt>
      <trkpt lat="46.35402" lon="0.02218">
        <ele>142.9</ele>
        <time>2023-06-18T17:32:22.567Z</time>
      </trkpt>
      <trkpt lat="46.35418" lon="0.02231">
        <ele>143.52</ele>
        <time>2023-06-18T17:33:22.813Z</time>
      </trkpt>
      <trkpt lat="46.35425" lon="0.02238">
        <ele>143.79</ele>
        <time>2023-06-18T17:34:23.061Z</time>
      </trkpt>
      <trkpt lat="46.35433" lon="0.02244">
        <ele>144.03</ele>
        <time>2023-06-18T17:35:23.310Z</time>
      </trkpt>
      <trkpt lat="46.35456" lon="0.02264">
        <ele>144.7</ele>
        <time>2023-06-18T17:36:23.563Z</time>
      </trkpt>
      <trkpt lat="46.35464" lon="0.0227">
        <ele>144.89</ele>
        <time>2023-06-18T17:37:23.818Z</time>
      </trkpt>
      <trkpt lat="46.35479" lon="0.02283">
        <ele>145.17</ele>
        <time>2023-06-18T17:38:24.076Z</time>
      </trkpt>
      <trkpt lat="46.35487" lon="0.0229">
        <ele>145.33</ele>
        <time>2023-06-18T17:39:24.335Z</time>
      </trkpt>
      <trkpt lat="46.35507" lon="0.02307">
        <ele>145.78</ele>
        <time>2023-06-18T17:40:24.598Z</time>
      </trkpt>
      <trkpt lat="46.35521" lon="0.0232">
        <ele>146.12</ele>
        <time>2023-06-18T17:41:24.864Z</time>
      </trkpt>
      <trkpt lat="46.35529" lon="0.02327">
        <ele>146.28</ele>
        <time>2023-06-18T17:42:25.131Z</time>
      </trkpt>
      <trkpt lat="46.35532" lon="0.0233">
        <ele>146.34</ele>
        <time>2023-06-18T17:43:25.399Z</time>
      </trkpt>
      <trkpt lat="46.3554" lon="0.02337">
        <ele>146.41</ele>
        <time>2023-06-18T17:44:25.668Z</time>
      </trkpt>
      <trkpt lat="46.35555" lon="0.02351">
        <ele>146.45</ele>
        <time>2023-06-18T17:45:25.940Z</time>
      </trkpt>
      <trkpt lat="46.35563" lon="0.02358">
        <ele>146.51</ele>
        <time>2023-06-18T17:46:26.213Z</time>
      </trkpt>
      <trkpt lat="46.35566" lon="0.02361">
        <ele>146.57</ele>
        <time>2023-06-18T17:47:26.487Z</time>
      </trkpt>
      <trkpt lat="46.3557" lon="0.02365">
        <ele>146.65</ele>
        <time>2023-06-18T17:48:26.762Z</time>
      </trkpt>
      <trkpt lat="46.35593" lon="0.02386">
        <ele>147.25</ele>
        <time>2023-06-18T17:49:27.041Z</time>
      </trkpt>
      <trkpt lat="46.356" lon="0.02392">
        <ele>147.38</ele>
        <time>2023-06-18T17:50:27.322Z</time>
      </trkpt>
      <trkpt lat="46.35604" lon="0.02396">
        <ele>147.41</ele>
        <time>2023-06-18T17:51:27.603Z</time>
      </trkpt>
      <trkpt lat="46.35611" lon="0.02403">
        <ele>147.43</ele>
        <time>2023-06-18T17:52:27.886Z</time>
      </trkpt>
      <trkpt lat="46.35616" lon="0.02407">
        <ele>147.4</ele>
        <time>2023-06-18T17:53:28.170Z</time>
      </trkpt>
      <trkpt lat="46.35619" lon="0.02409">
        <ele>147.39</ele>
        <time>2023-06-18T17:54:28.454Z</time>
      </trkpt>
      <trkpt lat="46.35631" lon="0.02418">
        <ele>147.29</ele>
        <time>2023-06-18T17:55:28.740Z</time>
      </trkpt>
      <trkpt lat="46.35639" lon="0.02423">
        <ele>147.28</ele>
        <time>2023-06-18T17:56:29.028Z</time>
      </trkpt>
      <trkpt lat="46.35647" lon="0.02429">
        <ele>147.33</ele>
        <time>2023-06-18T17:57:29.317Z</time>
      </trkpt>
      <trkpt lat="46.35655" lon="0.02435">
        <ele>147.44</ele>
        <time>2023-06-18T17:58:29.607Z</time>
      </trkpt>
      <trkpt lat="46.35667" lon="0.02443">
        <ele>147.04</ele>
        <time>2023-06-18T17:59:29.900Z</time>
      </trkpt>
      <trkpt lat="46.35671" lon="0.02446">
        <ele>146.93</ele>
        <time>2023-06-18T18:00:30.193Z</time>
      </trkpt>
      <trkpt lat="46.35675" lon="0.02448">
        <ele>146.82</ele>
        <time>2023-06-18T18:01:30.487Z</time>
      </trkpt>
      <trkpt lat="46.3568" lon="0.02451">
        <ele>146.75</ele>
        <time>2023-06-18T18:02:30.782Z</time>
      </trkpt>
      <trkpt lat="46.35684" lon="0.02453">
        <ele>146.71</ele>
        <time>2023-06-18T18:03:31.078Z</time>
      </trkpt>
      <trkpt lat="46.35688" lon="0.02455">
        <ele>146.7</ele>
        <time>2023-06-18T18:04:31.374Z</time>
      </trkpt>
      <trkpt lat="46.35689" lon="0.02456">
        <ele>146.7</ele>
        <time>2023-06-18T18:05:31.670Z</time>
      </trkpt>
      <trkpt lat="46.3569" lon="0.02461">
        <ele>146.71</ele>
        <time>2023-06-18T18:06:31.967Z</time>
      </trkpt>
      <trkpt lat="46.35692" lon="0.02474">
        <ele>146.77</ele>
        <time>2023-06-18T18:07:32.265Z</time>
      </trkpt>
      <trkpt lat="46.35697" lon="0.02512">
        <ele>147.09</ele>
        <time>2023-06-18T18:08:32.568Z</time>
      </trkpt>
      <trkpt lat="46.35699" lon="0.02525">
        <ele>147.18</ele>
        <time>2023-06-18T18:09:32.872Z</time>
      </trkpt>
      <trkpt lat="46.35706" lon="0.02575">
        <ele>147.44</ele>
        <time>2023-06-18T18:10:33.182Z</time>
      </trkpt>
      <trkpt lat="46.3571" lon="0.02601">
        <ele>147.6</ele>
        <time>2023-06-18T18:11:33.495Z</time>
      </trkpt>
      <trkpt lat="46.35713" lon="0.0262">
        <ele>147.66</ele>
        <time>2023-06-18T18:12:33.810Z</time>
      </trkpt>
      <trkpt lat="46.35716" lon="0.02639">
        <ele>147.68</ele>
        <time>2023-06-18T18:13:34.127Z</time>
      </trkpt>
      <trkpt lat="46.35718" lon="0.02658">
        <ele>147.65</ele>
        <time>2023-06-18T18:14:34.446Z</time>
      </trkpt>
      <trkpt lat="46.3572" lon="0.02671">
        <ele>147.61</ele>
        <time>2023-06-18T18:15:34.767Z</time>
      </trkpt>
      <trkpt lat="46.35725" lon="0.02703">
        <ele>147.47</ele>
        <time>2023-06-18T18:16:35.091Z</time>
      </trkpt>
      <trkpt lat="46.35727" lon="0.02716">
        <ele>147.49</ele>
        <time>2023-06-18T18:17:35.417Z</time>
      </trkpt>
      <trkpt lat="46.35729" lon="0.02735">
        <ele>147.6</ele>
        <time>2023-06-18T18:18:35.745Z</time>
      </trkpt>
      <trkpt lat="46.35731" lon="0.02748">
        <ele>147.63</ele>
        <time>2023-06-18T18:19:36.074Z</time>
      </trkpt>
      <trkpt lat="46.35735" lon="0.02773">
        <ele>147.63</ele>
        <time>2023-06-18T18:20:36.406Z</time>
      </trkpt>
      <trkpt lat="46.35737" lon="0.02786">
        <ele>147.61</ele>
        <time>2023-06-18T18:21:36.740Z</time>
      </trkpt>
      <trkpt lat="46.3574" lon="0.02811">
        <ele>147.5</ele>
        <time>2023-06-18T18:22:37.077Z</time>
      </trkpt>
      <trkpt lat="46.35744" lon="0.02837">
        <ele>147.33</ele>
        <time>2023-06-18T18:23:37.417Z</time>
      </trkpt>
      <trkpt lat="46.35749" lon="0.02869">
        <ele>147.03</ele>
        <time>2023-06-18T18:24:37.760Z</time>
      </trkpt>
      <trkpt lat="46.35751" lon="0.02881">
        <ele>146.87</ele>
        <time>2023-06-18T18:25:38.105Z</time>
      </trkpt>
      <trkpt lat="46.35754" lon="0.02907">
        <ele>146.49</ele>
        <time>2023-06-18T18:26:38.452Z</time>
      </trkpt>
      <trkpt lat="46.35757" lon="0.02926">
        <ele>146.27</ele>
        <time>2023-06-18T18:27:38.802Z</time>
      </trkpt>
      <trkpt lat="46.35759" lon="0.02939">
        <ele>146.1</ele>
        <time>2023-06-18T18:28:39.153Z</time>
      </trkpt>
      <trkpt lat="46.35761" lon="0.02951">
        <ele>145.84</ele>
        <time>2023-06-18T18:29:39.505Z</time>
      </trkpt>
      <trkpt lat="46.35765" lon="0.02983">
        <ele>144.99</ele>
        <time>2023-06-18T18:30:39.861Z</time>
      </trkpt>
      <trkpt lat="46.35766" lon="0.0299">
        <ele>144.84</ele>
        <time>2023-06-18T18:31:40.218Z</time>
      </trkpt>
      <trkpt lat="46.35767" lon="0.02996">
        <ele>144.72</ele>
        <time>2023-06-18T18:32:40.576Z</time>
      </trkpt>
      <trkpt lat="46.35768" lon="0.03002">
        <ele>144.62</ele>
        <time>2023-06-18T18:33:40.934Z</time>
      </trkpt>
      <trkpt lat="46.35771" lon="0.03021">
        <ele>144.39</ele>
        <time>2023-06-18T18:34:41.294Z</time>
      </trkpt>
      <trkpt lat="46.35775" lon="0.03053">
        <ele>143.84</ele>
        <time>2023-06-18T18:35:41.658Z</time>
      </trkpt>
      <trkpt lat="46.3578" lon="0.03085">
        <ele>143.44</ele>
        <time>2023-06-18T18:36:42.026Z</time>
      </trkpt>
      <trkpt lat="46.35786" lon="0.0313">
        <ele>142.76</ele>
        <time>2023-06-18T18:37:42.399Z</time>
      </trkpt>
      <trkpt lat="46.35788" lon="0.03142">
        <ele>142.51</ele>
        <time>2023-06-18T18:38:42.773Z</time>
      </trkpt>
      <trkpt lat="46.35792" lon="0.03168">
        <ele>141.91</ele>
        <time>2023-06-18T18:39:43.150Z</time>
      </trkpt>
      <trkpt lat="46.35793" lon="0.03174">
        <ele>141.79</ele>
        <time>2023-06-18T18:40:43.528Z</time>
      </trkpt>
      <trkpt lat="46.35794" lon="0.03181">
        <ele>141.71</ele>
        <time>2023-06-18T18:41:43.906Z</time>
      </trkpt>
      <trkpt lat="46.35795" lon="0.03187">
        <ele>141.66</ele>
        <time>2023-06-18T18:42:44.285Z</time>
      </trkpt>
      <trkpt lat="46.35798" lon="0.03213">
        <ele>141.6</ele>
        <time>2023-06-18T18:43:44.667Z</time>
      </trkpt>
      <trkpt lat="46.35802" lon="0.03238">
        <ele>141.48</ele>
        <time>2023-06-18T18:44:45.052Z</time>
      </trkpt>
      <trkpt lat="46.35803" lon="0.03244">
        <ele>141.44</ele>
        <time>2023-06-18T18:45:45.438Z</time>
      </trkpt>
      <trkpt lat="46.35803" lon="0.03251">
        <ele>141.4</ele>
        <time>2023-06-18T18:46:45.824Z</time>
      </trkpt>
      <trkpt lat="46.35803" lon="0.0327">
        <ele>141.24</ele>
        <time>2023-06-18T18:47:46.213Z</time>
      </trkpt>
      <trkpt lat="46.35803" lon="0.03278">
        <ele>141.21</ele>
        <time>2023-06-18T18:48:46.602Z</time>
      </trkpt>
      <trkpt lat="46.35803" lon="0.03278">
        <ele>141.21</ele>
        <time>2023-06-18T18:49:46.991Z</time>
      </trkpt>
      <trkpt lat="46.35802" lon="0.03283">
        <ele>141.21</ele>
        <time>2023-06-18T18:50:47.381Z</time>
      </trkpt>
      <trkpt lat="46.35802" lon="0.0329">
        <ele>141.25</ele>
        <time>2023-06-18T18:51:47.772Z</time>
      </trkpt>
      <trkpt lat="46.35801" lon="0.03296">
        <ele>141.31</ele>
        <time>2023-06-18T18:52:48.163Z</time>
      </trkpt>
      <trkpt lat="46.35801" lon="0.03303">
        <ele>141.41</ele>
        <time>2023-06-18T18:53:48.555Z</time>
      </trkpt>
      <trkpt lat="46.358" lon="0.0331">
        <ele>141.54</ele>
        <time>2023-06-18T18:54:48.948Z</time>
      </trkpt>
      <trkpt lat="46.358" lon="0.0331">
        <ele>141.54</ele>
        <time>2023-06-18T18:55:49.341Z</time>
      </trkpt>
      <trkpt lat="46.35797" lon="0.03335">
        <ele>142.16</ele>
        <time>2023-06-18T18:56:49.737Z</time>
      </trkpt>
      <trkpt lat="46.35795" lon="0.03347">
        <ele>142.36</ele>
        <time>2023-06-18T18:57:50.134Z</time>
      </trkpt>
      <trkpt lat="46.35792" lon="0.03366">
        <ele>142.62</ele>
        <time>2023-06-18T18:58:50.533Z</time>
      </trkpt>
      <trkpt lat="46.3579" lon="0.03378">
        <ele>142.82</ele>
        <time>2023-06-18T18:59:50.934Z</time>
      </trkpt>
      <trkpt lat="46.35784" lon="0.03422">
        <ele>143.65</ele>
        <time>2023-06-18T19:00:51.340Z</time>
      </trkpt>
      <trkpt lat="46.35776" lon="0.03479">
        <ele>144.76</ele>
        <time>2023-06-18T19:01:51.752Z</time>
      </trkpt>
      <trkpt lat="46.35774" lon="0.03497">
        <ele>145.07</ele>
        <time>2023-06-18T19:02:52.166Z</time>
      </trkpt>
      <trkpt lat="46.35771" lon="0.03516">
        <ele>145.34</ele>
        <time>2023-06-18T19:03:52.582Z</time>
      </trkpt>
      <trkpt lat="46.35766" lon="0.03554">
        <ele>145.83</ele>
        <time>2023-06-18T19:04:53.003Z</time>
      </trkpt>
      <trkpt lat="46.3576" lon="0.03591">
        <ele>146.19</ele>
        <time>2023-06-18T19:05:53.428Z</time>
      </trkpt>
      <trkpt lat="46.35759" lon="0.03604">
        <ele>146.36</ele>
        <time>2023-06-18T19:06:53.854Z</time>
      </trkpt>
      <trkpt lat="46.35756" lon="0.03623">
        <ele>146.53</ele>
        <time>2023-06-18T19:07:54.282Z</time>
      </trkpt>
      <trkpt lat="46.35753" lon="0.03642">
        <ele>146.65</ele>
        <time>2023-06-18T19:08:54.713Z</time>
      </trkpt>
      <trkpt lat="46.3575" lon="0.03667">
        <ele>146.71</ele>
        <time>2023-06-18T19:09:55.146Z</time>
      </trkpt>
      <trkpt lat="46.35748" lon="0.0368">
        <ele>146.71</ele>
        <time>2023-06-18T19:10:55.581Z</time>
      </trkpt>
      <trkpt lat="46.35746" lon="0.03693">
        <ele>146.68</ele>
        <time>2023-06-18T19:11:56.017Z</time>
      </trkpt>
      <trkpt lat="46.35745" lon="0.03701">
        <ele>146.64</ele>
        <time>2023-06-18T19:12:56.454Z</time>
      </trkpt>
      <trkpt lat="46.35744" lon="0.03712">
        <ele>146.59</ele>
        <time>2023-06-18T19:13:56.892Z</time>
      </trkpt>
      <trkpt lat="46.35742" lon="0.03733">
        <ele>146.45</ele>
        <time>2023-06-18T19:14:57.333Z</time>
      </trkpt>
      <trkpt lat="46.35742" lon="0.03738">
        <ele>146.42</ele>
        <time>2023-06-18T19:15:57.774Z</time>
      </trkpt>
      <trkpt lat="46.35743" lon="0.03776">
        <ele>146.07</ele>
        <time>2023-06-18T19:16:58.220Z</time>
      </trkpt>
      <trkpt lat="46.35744" lon="0.03815">
        <ele>145.78</ele>
        <time>2023-06-18T19:17:58.670Z</time>
      </trkpt>
      <trkpt lat="46.35745" lon="0.03847">
        <ele>145.51</ele>
        <time>2023-06-18T19:18:59.123Z</time>
      </trkpt>
      <trkpt lat="46.35747" lon="0.03893">
        <ele>145.33</ele>
        <time>2023-06-18T19:19:59.581Z</time>
      </trkpt>
      <trkpt lat="46.35747" lon="0.03912">
        <ele>145.27</ele>
        <time>2023-06-18T19:21:00.042Z</time>
      </trkpt>
      <trkpt lat="46.35748" lon="0.03931">
        <ele>145.26</ele>
        <time>2023-06-18T19:22:00.505Z</time>
      </trkpt>
      <trkpt lat="46.35749" lon="0.0399">
        <ele>145.3</ele>
        <time>2023-06-18T19:23:00.974Z</time>
      </trkpt>
      <trkpt lat="46.3575" lon="0.04022">
        <ele>145.27</ele>
        <time>2023-06-18T19:24:01.447Z</time>
      </trkpt>
      <trkpt lat="46.35752" lon="0.04087">
        <ele>145.46</ele>
        <time>2023-06-18T19:25:01.927Z</time>
      </trkpt>
      <trkpt lat="46.35753" lon="0.04112">
        <ele>145.59</ele>
        <time>2023-06-18T19:26:02.410Z</time>
      </trkpt>
      <trkpt lat="46.35753" lon="0.04132">
        <ele>145.59</ele>
        <time>2023-06-18T19:27:02.895Z</time>
      </trkpt>
      <trkpt lat="46.35754" lon="0.04145">
        <ele>145.63</ele>
        <time>2023-06-18T19:28:03.381Z</time>
      </trkpt>
      <trkpt lat="46.35754" lon="0.04158">
        <ele>145.71</ele>
        <time>2023-06-18T19:29:03.869Z</time>
      </trkpt>
      <trkpt lat="46.35754" lon="0.04171">
        <ele>145.83</ele>
        <time>2023-06-18T19:30:04.358Z</time>
      </trkpt>
      <trkpt lat="46.35755" lon="0.04184">
        <ele>145.97</ele>
        <time>2023-06-18T19:31:04.849Z</time>
      </trkpt>
      <trkpt lat="46.35755" lon="0.04197">
        <ele>146.15</ele>
        <time>2023-06-18T19:32:05.341Z</time>
      </trkpt>
      <trkpt lat="46.35756" lon="0.04223">
        <ele>146.55</ele>
        <time>2023-06-18T19:33:05.836Z</time>
      </trkpt>
      <trkpt lat="46.35757" lon="0.04268">
        <ele>147.3</ele>
        <time>2023-06-18T19:34:06.336Z</time>
      </trkpt>
      <trkpt lat="46.35758" lon="0.04313">
        <ele>147.93</ele>
        <time>2023-06-18T19:35:06.841Z</time>
      </trkpt>
      <trkpt lat="46.35759" lon="0.04326">
        <ele>148.09</ele>
        <time>2023-06-18T19:36:07.348Z</time>
      </trkpt>
      <trkpt lat="46.35759" lon="0.04333">
        <ele>148.15</ele>
        <time>2023-06-18T19:37:07.855Z</time>
      </trkpt>
      <trkpt lat="46.35768" lon="0.04334">
        <ele>148.28</ele>
        <time>2023-06-18T19:38:08.364Z</time>
      </trkpt>
      <trkpt lat="46.3579" lon="0.04336">
        <ele>148.63</ele>
        <time>2023-06-18T19:39:08.876Z</time>
      </trkpt>
      <trkpt lat="46.358" lon="0.04337">
        <ele>148.74</ele>
        <time>2023-06-18T19:40:09.390Z</time>
      </trkpt>
      <trkpt lat="46.35804" lon="0.04337">
        <ele>148.79</ele>
        <time>2023-06-18T19:41:09.904Z</time>
      </trkpt>
      <trkpt lat="46.3584" lon="0.04335">
        <ele>149.09</ele>
        <time>2023-06-18T19:42:10.424Z</time>
      </trkpt>
      <trkpt lat="46.3585" lon="0.04335">
        <ele>149.16</ele>
        <time>2023-06-18T19:43:10.946Z</time>
      </trkpt>
      <trkpt lat="46.35853" lon="0.04336">
        <ele>149.18</ele>
        <time>2023-06-18T19:44:11.468Z</time>
      </trkpt>
      <trkpt lat="46.35862" lon="0.04338">
        <ele>149.2</ele>
        <time>2023-06-18T19:45:11.992Z</time>
      </trkpt>
      <trkpt lat="46.35871" lon="0.0434">
        <ele>149.19</ele>
        <time>2023-06-18T19:46:12.517Z</time>
      </trkpt>
      <trkpt lat="46.35879" lon="0.04343">
        <ele>149.15</ele>
        <time>2023-06-18T19:47:13.044Z</time>
      </trkpt>
      <trkpt lat="46.35892" lon="0.04346">
        <ele>149.02</ele>
        <time>2023-06-18T19:48:13.573Z</time>
      </trkpt>
      <trkpt lat="46.35906" lon="0.04352">
        <ele>148.89</ele>
        <time>2023-06-18T19:49:14.104Z</time>
      </trkpt>
      <trkpt lat="46.35931" lon="0.04362">
        <ele>148.66</ele>
        <time>2023-06-18T19:50:14.639Z</time>
      </trkpt>
      <trkpt lat="46.35957" lon="0.04373">
        <ele>148.48</ele>
        <time>2023-06-18T19:51:15.179Z</time>
      </trkpt>
      <trkpt lat="46.36005" lon="0.04392">
        <ele>148.04</ele>
        <time>2023-06-18T19:52:15.727Z</time>
      </trkpt>
      <trkpt lat="46.36027" lon="0.04401">
        <ele>147.9</ele>
        <time>2023-06-18T19:53:16.278Z</time>
      </trkpt>
      <trkpt lat="46.36027" lon="0.04401">
        <ele>147.9</ele>
        <time>2023-06-18T19:54:16.829Z</time>
      </trkpt>
      <trkpt lat="46.36047" lon="0.04413">
        <ele>147.88</ele>
        <time>2023-06-18T19:55:17.384Z</time>
      </trkpt>
      <trkpt lat="46.36081" lon="0.04431">
        <ele>147.79</ele>
        <time>2023-06-18T19:56:17.944Z</time>
      </trkpt>
      <trkpt lat="46.36094" lon="0.04439">
        <ele>147.79</ele>
        <time>2023-06-18T19:57:18.507Z</time>
      </trkpt>
      <trkpt lat="46.36098" lon="0.04441">
        <ele>147.79</ele>
        <time>2023-06-18T19:58:19.070Z</time>
      </trkpt>
      <trkpt lat="46.3611" lon="0.04446">
        <ele>147.82</ele>
        <time>2023-06-18T19:59:19.635Z</time>
      </trkpt>
      <trkpt lat="46.36141" lon="0.04459">
        <ele>147.94</ele>
        <time>2023-06-18T20:00:20.205Z</time>
      </trkpt>
      <trkpt lat="46.36158" lon="0.04466">
        <ele>147.98</ele>
        <time>2023-06-18T20:01:20.778Z</time>
      </trkpt>
      <trkpt lat="46.3618" lon="0.04475">
        <ele>148.07</ele>
        <time>2023-06-18T20:02:21.355Z</time>
      </trkpt>
      <trkpt lat="46.3618" lon="0.04475">
        <ele>148.07</ele>
        <time>2023-06-18T20:03:21.932Z</time>
      </trkpt>
      <trkpt lat="46.36208" lon="0.04495">
        <ele>148.16</ele>
        <time>2023-06-18T20:04:22.514Z</time>
      </trkpt>
      <trkpt lat="46.3622" lon="0.04504">
        <ele>148.12</ele>
        <time>2023-06-18T20:05:23.098Z</time>
      </trkpt>
      <trkpt lat="46.36244" lon="0.04521">
        <ele>147.97</ele>
        <time>2023-06-18T20:06:23.686Z</time>
      </trkpt>
      <trkpt lat="46.36252" lon="0.04527">
        <ele>147.9</ele>
        <time>2023-06-18T20:07:24.276Z</time>
      </trkpt>
      <trkpt lat="46.36264" lon="0.04535">
        <ele>147.75</ele>
        <time>2023-06-18T20:08:24.868Z</time>
      </trkpt>
      <trkpt lat="46.3628" lon="0.04547">
        <ele>147.51</ele>
        <time>2023-06-18T20:09:25.463Z</time>
      </trkpt>
      <trkpt lat="46.363" lon="0.04561">
        <ele>147.15</ele>
        <time>2023-06-18T20:10:26.062Z</time>
      </trkpt>
      <trkpt lat="46.36308" lon="0.04567">
        <ele>146.99</ele>
        <time>2023-06-18T20:11:26.662Z</time>
      </trkpt>
      <trkpt lat="46.36308" lon="0.04567">
        <ele>146.99</ele>
        <time>2023-06-18T20:12:27.262Z</time>
      </trkpt>
      <trkpt lat="46.36313" lon="0.04577">
        <ele>146.79</ele>
        <time>2023-06-18T20:13:27.863Z</time>
      </trkpt>
      <trkpt lat="46.36332" lon="0.04613">
        <ele>146.01</ele>
        <time>2023-06-18T20:14:28.469Z</time>
      </trkpt>
      <trkpt lat="46.36337" lon="0.04622">
        <ele>146.06</ele>
        <time>2023-06-18T20:15:29.077Z</time>
      </trkpt>
      <trkpt lat="46.36329" lon="0.0472">
        <ele>146.56</ele>
        <time>2023-06-18T20:16:29.696Z</time>
      </trkpt>
      <trkpt lat="46.36335" lon="0.04719">
        <ele>146.61</ele>
        <time>2023-06-18T20:17:30.315Z</time>
      </trkpt>
      <trkpt lat="46.3636" lon="0.04696">
        <ele>146.83</ele>
        <time>2023-06-18T20:18:30.939Z</time>
      </trkpt>
      <trkpt lat="46.36382" lon="0.04681">
        <ele>147.01</ele>
        <time>2023-06-18T20:19:31.567Z</time>
      </trkpt>
      <trkpt lat="46.36424" lon="0.04764">
        <ele>147.53</ele>
        <time>2023-06-18T20:20:32.207Z</time>
      </trkpt>
      <trkpt lat="46.36462" lon="0.04855">
        <ele>148.08</ele>
        <time>2023-06-18T20:21:32.858Z</time>
      </trkpt>
      <trkpt lat="46.36515" lon="0.04947">
        <ele>148.69</ele>
        <time>2023-06-18T20:22:33.523Z</time>
      </trkpt>
      <trkpt lat="46.36563" lon="0.05025">
        <ele>149.23</ele>
        <time>2023-06-18T20:23:34.199Z</time>
      </trkpt>
      <trkpt lat="46.36569" lon="0.05035">
        <ele>149.22</ele>
        <time>2023-06-18T20:24:34.877Z</time>
      </trkpt>
      <trkpt lat="46.36584" lon="0.05059">
        <ele>149.12</ele>
        <time>2023-06-18T20:25:35.558Z</time>
      </trkpt>
      <trkpt lat="46.36602" lon="0.05087">
        <ele>149.21</ele>
        <time>2023-06-18T20:26:36.243Z</time>
      </trkpt>
      <trkpt lat="46.36618" lon="0.05114">
        <ele>149.22</ele>
        <time>2023-06-18T20:27:36.932Z</time>
      </trkpt>
      <trkpt lat="46.36626" lon="0.05125">
        <ele>149.23</ele>
        <time>2023-06-18T20:28:37.623Z</time>
      </trkpt>
      <trkpt lat="46.36632" lon="0.05134">
        <ele>149.22</ele>
        <time>2023-06-18T20:29:38.316Z</time>
      </trkpt>
      <trkpt lat="46.36639" lon="0.05143">
        <ele>149.18</ele>
        <time>2023-06-18T20:30:39.010Z</time>
      </trkpt>
      <trkpt lat="46.36645" lon="0.05152">
        <ele>149.11</ele>
        <time>2023-06-18T20:31:39.705Z</time>
      </trkpt>
      <trkpt lat="46.36651" lon="0.05161">
        <ele>148.98</ele>
        <time>2023-06-18T20:32:40.402Z</time>
      </trkpt>
      <trkpt lat="46.36658" lon="0.0517">
        <ele>148.79</ele>
        <time>2023-06-18T20:33:41.100Z</time>
      </trkpt>
      <trkpt lat="46.36661" lon="0.05174">
        <ele>148.72</ele>
        <time>2023-06-18T20:34:41.799Z</time>
      </trkpt>
      <trkpt lat="46.36667" lon="0.05183">
        <ele>148.64</ele>
        <time>2023-06-18T20:35:42.499Z</time>
      </trkpt>
      <trkpt lat="46.36677" lon="0.05197">
        <ele>148.62</ele>
        <time>2023-06-18T20:36:43.202Z</time>
      </trkpt>
      <trkpt lat="46.3669" lon="0.05215">
        <ele>148.71</ele>
        <time>2023-06-18T20:37:43.907Z</time>
      </trkpt>
      <trkpt lat="46.36696" lon="0.05224">
        <ele>148.68</ele>
        <time>2023-06-18T20:38:44.614Z</time>
      </trkpt>
      <trkpt lat="46.36723" lon="0.05263">
        <ele>148.65</ele>
        <time>2023-06-18T20:39:45.327Z</time>
      </trkpt>
      <trkpt lat="46.3673" lon="0.05271">
        <ele>148.62</ele>
        <time>2023-06-18T20:40:46.041Z</time>
      </trkpt>
      <trkpt lat="46.36745" lon="0.05293">
        <ele>148.5</ele>
        <time>2023-06-18T20:41:46.759Z</time>
      </trkpt>
      <trkpt lat="46.36745" lon="0.05293">
        <ele>148.5</ele>
        <time>2023-06-18T20:42:47.477Z</time>
      </trkpt>
      <trkpt lat="46.36758" lon="0.05309">
        <ele>148.69</ele>
        <time>2023-06-18T20:43:48.197Z</time>
      </trkpt>
      <trkpt lat="46.36775" lon="0.05329">
        <ele>148.96</ele>
        <time>2023-06-18T20:44:48.921Z</time>
      </trkpt>
      <trkpt lat="46.36791" lon="0.05349">
        <ele>149.14</ele>
        <time>2023-06-18T20:45:49.648Z</time>
      </trkpt>
      <trkpt lat="46.36798" lon="0.05357">
        <ele>148.79</ele>
        <time>2023-06-18T20:46:50.377Z</time>
      </trkpt>
      <trkpt lat="46.36812" lon="0.05374">
        <ele>148.22</ele>
        <time>2023-06-18T20:47:51.109Z</time>
      </trkpt>
      <trkpt lat="46.36818" lon="0.05382">
        <ele>147.97</ele>
        <time>2023-06-18T20:48:51.842Z</time>
      </trkpt>
      <trkpt lat="46.36825" lon="0.0539">
        <ele>147.77</ele>
        <time>2023-06-18T20:49:52.577Z</time>
      </trkpt>
      <trkpt lat="46.36839" lon="0.05407">
        <ele>147.45</ele>
        <time>2023-06-18T20:50:53.314Z</time>
      </trkpt>
      <trkpt lat="46.36846" lon="0.05415">
        <ele>147.33</ele>
        <time>2023-06-18T20:51:54.053Z</time>
      </trkpt>
      <trkpt lat="46.36856" lon="0.05428">
        <ele>147.18</ele>
        <time>2023-06-18T20:52:54.794Z</time>
      </trkpt>
      <trkpt lat="46.36867" lon="0.0544">
        <ele>147.11</ele>
        <time>2023-06-18T20:53:55.537Z</time>
      </trkpt>
      <trkpt lat="46.3687" lon="0.05444">
        <ele>147.07</ele>
        <time>2023-06-18T20:54:56.281Z</time>
      </trkpt>
      <trkpt lat="46.36873" lon="0.05449">
        <ele>147</ele>
        <time>2023-06-18T20:55:57.026Z</time>
      </trkpt>
      <trkpt lat="46.36877" lon="0.05453">
        <ele>146.87</ele>
        <time>2023-06-18T20:56:57.771Z</time>
      </trkpt>
      <trkpt lat="46.3688" lon="0.05457">
        <ele>146.77</ele>
        <time>2023-06-18T20:57:58.517Z</time>
      </trkpt>
      <trkpt lat="46.36886" lon="0.05466">
        <ele>146.59</ele>
        <time>2023-06-18T20:58:59.264Z</time>
      </trkpt>
      <trkpt lat="46.36909" lon="0.05498">
        <ele>146.11</ele>
        <time>2023-06-18T21:00:00.016Z</time>
      </trkpt>
      <trkpt lat="46.36915" lon="0.05507">
        <ele>145.95</ele>
        <time>2023-06-18T21:01:00.770Z</time>
      </trkpt>
      <trkpt lat="46.36928" lon="0.05525">
        <ele>145.54</ele>
        <time>2023-06-18T21:02:01.527Z</time>
      </trkpt>
      <trkpt lat="46.36938" lon="0.0554">
        <ele>145.3</ele>
        <time>2023-06-18T21:03:02.286Z</time>
      </trkpt>
      <trkpt lat="46.36938" lon="0.0554">
        <ele>145.3</ele>
        <time>2023-06-18T21:04:03.045Z</time>
      </trkpt>
      <trkpt lat="46.36949" lon="0.05559">
        <ele>145.11</ele>
        <time>2023-06-18T21:05:03.807Z</time>
      </trkpt>
      <trkpt lat="46.36958" lon="0.05573">
        <ele>144.93</ele>
        <time>2023-06-18T21:06:04.571Z</time>
      </trkpt>
      <trkpt lat="46.36985" lon="0.05617">
        <ele>144.3</ele>
        <time>2023-06-18T21:07:05.341Z</time>
      </trkpt>
      <trkpt lat="46.36987" lon="0.0562">
        <ele>144.28</ele>
        <time>2023-06-18T21:08:06.112Z</time>
      </trkpt>
      <trkpt lat="46.36989" lon="0.05635">
        <ele>144.24</ele>
        <time>2023-06-18T21:09:06.885Z</time>
      </trkpt>
      <trkpt lat="46.3699" lon="0.05639">
        <ele>144.25</ele>
        <time>2023-06-18T21:10:07.658Z</time>
      </trkpt>
      <trkpt lat="46.36992" lon="0.05667">
        <ele>144.33</ele>
        <time>2023-06-18T21:11:08.434Z</time>
      </trkpt>
      <trkpt lat="46.36993" lon="0.0568">
        <ele>144.32</ele>
        <time>2023-06-18T21:12:09.212Z</time>
      </trkpt>
      <trkpt lat="46.36994" lon="0.05693">
        <ele>144.27</ele>
        <time>2023-06-18T21:13:09.991Z</time>
      </trkpt>
      <trkpt lat="46.36995" lon="0.05699">
        <ele>144.21</ele>
        <time>2023-06-18T21:14:10.771Z</time>
      </trkpt>
      <trkpt lat="46.36996" lon="0.05718">
        <ele>143.97</ele>
        <time>2023-06-18T21:15:11.553Z</time>
      </trkpt>
      <trkpt lat="46.36999" lon="0.05751">
        <ele>143.71</ele>
        <time>2023-06-18T21:16:12.339Z</time>
      </trkpt>
      <trkpt lat="46.36999" lon="0.05757">
        <ele>143.67</ele>
        <time>2023-06-18T21:17:13.125Z</time>
      </trkpt>
      <trkpt lat="46.37002" lon="0.05789">
        <ele>143.63</ele>
        <time>2023-06-18T21:18:13.915Z</time>
      </trkpt>
      <trkpt lat="46.37003" lon="0.05809">
        <ele>143.55</ele>
        <time>2023-06-18T21:19:14.707Z</time>
      </trkpt>
      <trkpt lat="46.37004" lon="0.05815">
        <ele>143.54</ele>
        <time>2023-06-18T21:20:15.500Z</time>
      </trkpt>
      <trkpt lat="46.37006" lon="0.05841">
        <ele>143.56</ele>
        <time>2023-06-18T21:21:16.296Z</time>
      </trkpt>
      <trkpt lat="46.37007" lon="0.0586">
        <ele>143.52</ele>
        <time>2023-06-18T21:22:17.094Z</time>
      </trkpt>
      <trkpt lat="46.37008" lon="0.05872">
        <ele>143.47</ele>
        <time>2023-06-18T21:23:17.893Z</time>
      </trkpt>
      <trkpt lat="46.37008" lon="0.05873">
        <ele>143.47</ele>
        <time>2023-06-18T21:24:18.692Z</time>
      </trkpt>
      <trkpt lat="46.37009" lon="0.0588">
        <ele>143.41</ele>
        <time>2023-06-18T21:25:19.492Z</time>
      </trkpt>
      <trkpt lat="46.3701" lon="0.05888">
        <ele>143.31</ele>
        <time>2023-06-18T21:26:20.293Z</time>
      </trkpt>
      <trkpt lat="46.37011" lon="0.05892">
        <ele>143.26</ele>
        <time>2023-06-18T21:27:21.094Z</time>
      </trkpt>
      <trkpt lat="46.37015" lon="0.05911">
        <ele>142.9</ele>
        <time>2023-06-18T21:28:21.897Z</time>
      </trkpt>
      <trkpt lat="46.37018" lon="0.05923">
        <ele>142.72</ele>
        <time>2023-06-18T21:29:22.702Z</time>
      </trkpt>
      <trkpt lat="46.37018" lon="0.05923">
        <ele>142.72</ele>
        <time>2023-06-18T21:30:23.507Z</time>
      </trkpt>
      <trkpt lat="46.37031" lon="0.05964">
        <ele>142.26</ele>
        <time>2023-06-18T21:31:24.317Z</time>
      </trkpt>
      <trkpt lat="46.37036" lon="0.05982">
        <ele>142.03</ele>
        <time>2023-06-18T21:32:25.129Z</time>
      </trkpt>
      <trkpt lat="46.37042" lon="0.06">
        <ele>141.84</ele>
        <time>2023-06-18T21:33:25.943Z</time>
      </trkpt>
      <trkpt lat="46.37045" lon="0.0601">
        <ele>141.7</ele>
        <time>2023-06-18T21:34:26.758Z</time>
      </trkpt>
      <trkpt lat="46.37048" lon="0.06017">
        <ele>141.6</ele>
        <time>2023-06-18T21:35:27.574Z</time>
      </trkpt>
      <trkpt lat="46.37052" lon="0.06029">
        <ele>141.46</ele>
        <time>2023-06-18T21:36:28.392Z</time>
      </trkpt>
      <trkpt lat="46.37056" lon="0.0604">
        <ele>141.39</ele>
        <time>2023-06-18T21:37:29.211Z</time>
      </trkpt>
      <trkpt lat="46.37065" lon="0.06063">
        <ele>141.29</ele>
        <time>2023-06-18T21:38:30.033Z</time>
      </trkpt>
      <trkpt lat="46.37067" lon="0.06069">
        <ele>141.23</ele>
        <time>2023-06-18T21:39:30.856Z</time>
      </trkpt>
      <trkpt lat="46.37068" lon="0.06071">
        <ele>141.2</ele>
        <time>2023-06-18T21:40:31.679Z</time>
      </trkpt>
      <trkpt lat="46.37069" lon="0.06074">
        <ele>141.16</ele>
        <time>2023-06-18T21:41:32.503Z</time>
      </trkpt>
      <trkpt lat="46.37079" lon="0.06104">
        <ele>140.71</ele>
        <time>2023-06-18T21:42:33.330Z</time>
      </trkpt>
      <trkpt lat="46.37082" lon="0.06114">
        <ele>140.59</ele>
        <time>2023-06-18T21:43:34.158Z</time>
      </trkpt>
      <trkpt lat="46.37087" lon="0.06134">
        <ele>140.37</ele>
        <time>2023-06-18T21:44:34.989Z</time>
      </trkpt>
      <trkpt lat="46.37093" lon="0.06158">
        <ele>140.29</ele>
        <time>2023-06-18T21:45:35.823Z</time>
      </trkpt>
      <trkpt lat="46.37095" lon="0.06164">
        <ele>140.25</ele>
        <time>2023-06-18T21:46:36.657Z</time>
      </trkpt>
      <trkpt lat="46.37103" lon="0.06195">
        <ele>139.92</ele>
        <time>2023-06-18T21:47:37.495Z</time>
      </trkpt>
      <trkpt lat="46.37109" lon="0.06219">
        <ele>139.68</ele>
        <time>2023-06-18T21:48:38.336Z</time>
      </trkpt>
      <trkpt lat="46.37109" lon="0.06219">
        <ele>139.68</ele>
        <time>2023-06-18T21:49:39.177Z</time>
      </trkpt>
      <trkpt lat="46.37128" lon="0.0627">
        <ele>139.25</ele>
        <time>2023-06-18T21:50:40.024Z</time>
      </trkpt>
      <trkpt lat="46.37141" lon="0.06305">
        <ele>138.88</ele>
        <time>2023-06-18T21:51:40.876Z</time>
      </trkpt>
      <trkpt lat="46.37141" lon="0.06306">
        <ele>138.86</ele>
        <time>2023-06-18T21:52:41.728Z</time>
      </trkpt>
      <trkpt lat="46.37162" lon="0.06354">
        <ele>138.24</ele>
        <time>2023-06-18T21:53:42.586Z</time>
      </trkpt>
      <trkpt lat="46.3717" lon="0.0637">
        <ele>138.07</ele>
        <time>2023-06-18T21:54:43.446Z</time>
      </trkpt>
      <trkpt lat="46.37177" lon="0.06387">
        <ele>137.95</ele>
        <time>2023-06-18T21:55:44.308Z</time>
      </trkpt>
      <trkpt lat="46.37182" lon="0.06398">
        <ele>137.89</ele>
        <time>2023-06-18T21:56:45.172Z</time>
      </trkpt>
      <trkpt lat="46.37187" lon="0.06408">
        <ele>137.88</ele>
        <time>2023-06-18T21:57:46.037Z</time>
      </trkpt>
      <trkpt lat="46.37194" lon="0.06425">
        <ele>137.92</ele>
        <time>2023-06-18T21:58:46.904Z</time>
      </trkpt>
      <trkpt lat="46.37199" lon="0.06436">
        <ele>137.92</ele>
        <time>2023-06-18T21:59:47.773Z</time>
      </trkpt>
      <trkpt lat="46.37203" lon="0.06447">
        <ele>137.83</ele>
        <time>2023-06-18T22:00:48.643Z</time>
      </trkpt>
      <trkpt lat="46.37205" lon="0.0645">
        <ele>137.78</ele>
        <time>2023-06-18T22:01:49.514Z</time>
      </trkpt>
      <trkpt lat="46.37207" lon="0.06459">
        <ele>137.69</ele>
        <time>2023-06-18T22:02:50.386Z</time>
      </trkpt>
      <trkpt lat="46.37208" lon="0.06464">
        <ele>137.64</ele>
        <time>2023-06-18T22:03:51.258Z</time>
      </trkpt>
      <trkpt lat="46.37209" lon="0.06478">
        <ele>137.52</ele>
        <time>2023-06-18T22:04:52.132Z</time>
      </trkpt>
      <trkpt lat="46.37211" lon="0.06491">
        <ele>137.36</ele>
        <time>2023-06-18T22:05:53.007Z</time>
      </trkpt>
      <trkpt lat="46.37212" lon="0.06503">
        <ele>137.17</ele>
        <time>2023-06-18T22:06:53.884Z</time>
      </trkpt>
      <trkpt lat="46.37213" lon="0.06513">
        <ele>137</ele>
        <time>2023-06-18T22:07:54.762Z</time>
      </trkpt>
      <trkpt lat="46.37214" lon="0.06516">
        <ele>136.95</ele>
        <time>2023-06-18T22:08:55.640Z</time>
      </trkpt>
      <trkpt lat="46.37219" lon="0.06541">
        <ele>136.46</ele>
        <time>2023-06-18T22:09:56.521Z</time>
      </trkpt>
      <trkpt lat="46.37223" lon="0.06559">
        <ele>136.14</ele>
        <time>2023-06-18T22:10:57.404Z</time>
      </trkpt>
      <trkpt lat="46.37227" lon="0.06578">
        <ele>135.87</ele>
        <time>2023-06-18T22:11:58.289Z</time>
      </trkpt>
      <trkpt lat="46.37229" lon="0.06591">
        <ele>135.72</ele>
        <time>2023-06-18T22:12:59.176Z</time>
      </trkpt>
      <trkpt lat="46.37232" lon="0.06604">
        <ele>135.61</ele>
        <time>2023-06-18T22:14:00.064Z</time>
      </trkpt>
      <trkpt lat="46.37232" lon="0.06609">
        <ele>135.58</ele>
        <time>2023-06-18T22:15:00.953Z</time>
      </trkpt>
      <trkpt lat="46.37233" lon="0.06622">
        <ele>135.51</ele>
        <time>2023-06-18T22:16:01.843Z</time>
      </trkpt>
      <trkpt lat="46.37233" lon="0.06629">
        <ele>135.5</ele>
        <time>2023-06-18T22:17:02.734Z</time>
      </trkpt>
      <trkpt lat="46.37234" lon="0.06642">
        <ele>135.54</ele>
        <time>2023-06-18T22:18:03.627Z</time>
      </trkpt>
      <trkpt lat="46.37234" lon="0.06648">
        <ele>135.59</ele>
        <time>2023-06-18T22:19:04.520Z</time>
      </trkpt>
      <trkpt lat="46.37235" lon="0.06655">
        <ele>135.67</ele>
        <time>2023-06-18T22:20:05.414Z</time>
      </trkpt>
      <trkpt lat="46.37235" lon="0.06659">
        <ele>135.73</ele>
        <time>2023-06-18T22:21:06.308Z</time>
      </trkpt>
      <trkpt lat="46.37249" lon="0.06653">
        <ele>136.09</ele>
        <time>2023-06-18T22:22:07.205Z</time>
      </trkpt>
      <trkpt lat="46.37258" lon="0.0665">
        <ele>136.28</ele>
        <time>2023-06-18T22:23:08.103Z</time>
      </trkpt>
      <trkpt lat="46.37262" lon="0.06648">
        <ele>136.12</ele>
        <time>2023-06-18T22:24:09.002Z</time>
      </trkpt>
      <trkpt lat="46.37271" lon="0.06644">
        <ele>135.9</ele>
        <time>2023-06-18T22:25:09.902Z</time>
      </trkpt>
      <trkpt lat="46.37275" lon="0.06642">
        <ele>135.82</ele>
        <time>2023-06-18T22:26:10.803Z</time>
      </trkpt>
      <trkpt lat="46.37284" lon="0.06639">
        <ele>135.71</ele>
        <time>2023-06-18T22:27:11.706Z</time>
      </trkpt>
      <trkpt lat="46.37293" lon="0.06635">
        <ele>135.65</ele>
        <time>2023-06-18T22:28:12.610Z</time>
      </trkpt>
      <trkpt lat="46.37293" lon="0.06635">
        <ele>135.65</ele>
        <time>2023-06-18T22:29:13.514Z</time>
      </trkpt>
      <trkpt lat="46.37301" lon="0.06637">
        <ele>135.63</ele>
        <time>2023-06-18T22:30:14.419Z</time>
      </trkpt>
      <trkpt lat="46.37302" lon="0.06637">
        <ele>135.63</ele>
        <time>2023-06-18T22:31:15.325Z</time>
      </trkpt>
      <trkpt lat="46.37309" lon="0.06643">
        <ele>135.64</ele>
        <time>2023-06-18T22:32:16.232Z</time>
      </trkpt>
      <trkpt lat="46.37309" lon="0.06643">
        <ele>135.64</ele>
        <time>2023-06-18T22:33:17.139Z</time>
      </trkpt>
      <trkpt lat="46.37322" lon="0.0666">
        <ele>135.72</ele>
        <time>2023-06-18T22:34:18.049Z</time>
      </trkpt>
      <trkpt lat="46.37329" lon="0.06668">
        <ele>135.71</ele>
        <time>2023-06-18T22:35:18.960Z</time>
      </trkpt>
      <trkpt lat="46.37336" lon="0.06676">
        <ele>135.66</ele>
        <time>2023-06-18T22:36:19.873Z</time>
      </trkpt>
      <trkpt lat="46.37346" lon="0.06689">
        <ele>135.55</ele>
        <time>2023-06-18T22:37:20.788Z</time>
      </trkpt>
      <trkpt lat="46.37357" lon="0.06702">
        <ele>135.39</ele>
        <time>2023-06-18T22:38:21.705Z</time>
      </trkpt>
      <trkpt lat="46.37372" lon="0.06715">
        <ele>135.2</ele>
        <time>2023-06-18T22:39:22.625Z</time>
      </trkpt>
      <trkpt lat="46.37383" lon="0.06726">
        <ele>135.11</ele>
        <time>2023-06-18T22:40:23.547Z</time>
      </trkpt>
      <trkpt lat="46.37393" lon="0.06735">
        <ele>135.01</ele>
        <time>2023-06-18T22:41:24.471Z</time>
      </trkpt>
      <trkpt lat="46.37399" lon="0.06738">
        <ele>134.96</ele>
        <time>2023-06-18T22:42:25.396Z</time>
      </trkpt>
      <trkpt lat="46.37407" lon="0.06743">
        <ele>134.93</ele>
        <time>2023-06-18T22:43:26.322Z</time>
      </trkpt>
      <trkpt lat="46.3742" lon="0.06749">
        <ele>134.93</ele>
        <time>2023-06-18T22:44:27.250Z</time>
      </trkpt>
      <trkpt lat="46.37432" lon="0.06756">
        <ele>134.85</ele>
        <time>2023-06-18T22:45:28.180Z</time>
      </trkpt>
      <trkpt lat="46.37441" lon="0.06761">
        <ele>134.83</ele>
        <time>2023-06-18T22:46:29.112Z</time>
      </trkpt>
      <trkpt lat="46.37445" lon="0.06763">
        <ele>134.75</ele>
        <time>2023-06-18T22:47:30.045Z</time>
      </trkpt>
      <trkpt lat="46.37447" lon="0.06764">
        <ele>134.67</ele>
        <time>2023-06-18T22:48:30.978Z</time>
      </trkpt>
      <trkpt lat="46.37453" lon="0.06768">
        <ele>134.48</ele>
        <time>2023-06-18T22:49:31.912Z</time>
      </trkpt>
      <trkpt lat="46.37457" lon="0.06771">
        <ele>134.38</ele>
        <time>2023-06-18T22:50:32.847Z</time>
      </trkpt>
      <trkpt lat="46.37461" lon="0.06774">
        <ele>134.31</ele>
        <time>2023-06-18T22:51:33.783Z</time>
      </trkpt>
      <trkpt lat="46.37466" lon="0.06778">
        <ele>134.26</ele>
        <time>2023-06-18T22:52:34.719Z</time>
      </trkpt>
      <trkpt lat="46.37469" lon="0.0678">
        <ele>134.24</ele>
        <time>2023-06-18T22:53:35.656Z</time>
      </trkpt>
      <trkpt lat="46.37472" lon="0.06784">
        <ele>134.23</ele>
        <time>2023-06-18T22:54:36.594Z</time>
      </trkpt>
      <trkpt lat="46.37485" lon="0.06796">
        <ele>134.28</ele>
        <time>2023-06-18T22:55:37.534Z</time>
      </trkpt>
      <trkpt lat="46.37487" lon="0.06799">
        <ele>134.3</ele>
        <time>2023-06-18T22:56:38.475Z</time>
      </trkpt>
      <trkpt lat="46.37497" lon="0.06811">
        <ele>134.29</ele>
        <time>2023-06-18T22:57:39.418Z</time>
      </trkpt>
      <trkpt lat="46.37508" lon="0.06824">
        <ele>134.18</ele>
        <time>2023-06-18T22:58:40.363Z</time>
      </trkpt>
      <trkpt lat="46.37508" lon="0.06824">
        <ele>134.18</ele>
        <time>2023-06-18T22:59:41.308Z</time>
      </trkpt>
      <trkpt lat="46.37514" lon="0.0684">
        <ele>134.1</ele>
        <time>2023-06-18T23:00:42.255Z</time>
      </trkpt>
      <trkpt lat="46.37517" lon="0.06846">
        <ele>134.05</ele>
        <time>2023-06-18T23:01:43.203Z</time>
      </trkpt>
      <trkpt lat="46.37525" lon="0.06868">
        <ele>133.77</ele>
        <time>2023-06-18T23:02:44.154Z</time>
      </trkpt>
      <trkpt lat="46.37532" lon="0.06885">
        <ele>133.64</ele>
        <time>2023-06-18T23:03:45.107Z</time>
      </trkpt>
      <trkpt lat="46.37536" lon="0.06897">
        <ele>133.59</ele>
        <time>2023-06-18T23:04:46.061Z</time>
      </trkpt>
      <trkpt lat="46.37539" lon="0.06902">
        <ele>133.59</ele>
        <time>2023-06-18T23:05:47.016Z</time>
      </trkpt>
      <trkpt lat="46.37543" lon="0.06913">
        <ele>133.61</ele>
        <time>2023-06-18T23:06:47.972Z</time>
      </trkpt>
      <trkpt lat="46.3755" lon="0.0693">
        <ele>133.67</ele>
        <time>2023-06-18T23:07:48.930Z</time>
      </trkpt>
      <trkpt lat="46.37556" lon="0.06947">
        <ele>133.66</ele>
        <time>2023-06-18T23:08:49.891Z</time>
      </trkpt>
      <trkpt lat="46.37561" lon="0.06958">
        <ele>133.61</ele>
        <time>2023-06-18T23:09:50.853Z</time>
      </trkpt>
      <trkpt lat="46.37568" lon="0.06977">
        <ele>133.48</ele>
        <time>2023-06-18T23:10:51.817Z</time>
      </trkpt>
      <trkpt lat="46.37581" lon="0.07001">
        <ele>133.31</ele>
        <time>2023-06-18T23:11:52.785Z</time>
      </trkpt>
      <trkpt lat="46.37589" lon="0.07017">
        <ele>133.23</ele>
        <time>2023-06-18T23:12:53.755Z</time>
      </trkpt>
      <trkpt lat="46.37598" lon="0.07034">
        <ele>133.19</ele>
        <time>2023-06-18T23:13:54.727Z</time>
      </trkpt>
      <trkpt lat="46.37615" lon="0.07061">
        <ele>133.13</ele>
        <time>2023-06-18T23:14:55.703Z</time>
      </trkpt>
      <trkpt lat="46.37624" lon="0.07076">
        <ele>133.08</ele>
        <time>2023-06-18T23:15:56.682Z</time>
      </trkpt>
      <trkpt lat="46.37633" lon="0.0709">
        <ele>132.97</ele>
        <time>2023-06-18T23:16:57.663Z</time>
      </trkpt>
      <trkpt lat="46.37651" lon="0.07119">
        <ele>132.63</ele>
        <time>2023-06-18T23:17:58.648Z</time>
      </trkpt>
      <trkpt lat="46.37653" lon="0.07122">
        <ele>132.6</ele>
        <time>2023-06-18T23:18:59.633Z</time>
      </trkpt>
      <trkpt lat="46.37661" lon="0.07132">
        <ele>132.53</ele>
        <time>2023-06-18T23:20:00.620Z</time>
      </trkpt>
      <trkpt lat="46.37664" lon="0.07136">
        <ele>132.51</ele>
        <time>2023-06-18T23:21:01.608Z</time>
      </trkpt>
      <trkpt lat="46.37676" lon="0.07147">
        <ele>132.46</ele>
        <time>2023-06-18T23:22:02.598Z</time>
      </trkpt>
      <trkpt lat="46.37694" lon="0.07165">
        <ele>132.51</ele>
        <time>2023-06-18T23:23:03.592Z</time>
      </trkpt>
      <trkpt lat="46.37696" lon="0.07167">
        <ele>132.48</ele>
        <time>2023-06-18T23:24:04.586Z</time>
      </trkpt>
      <trkpt lat="46.37701" lon="0.07173">
        <ele>132.4</ele>
        <time>2023-06-18T23:25:05.581Z</time>
      </trkpt>
      <trkpt lat="46.37707" lon="0.07181">
        <ele>132.32</ele>
        <time>2023-06-18T23:26:06.577Z</time>
      </trkpt>
      <trkpt lat="46.37714" lon="0.07189">
        <ele>132.3</ele>
        <time>2023-06-18T23:27:07.575Z</time>
      </trkpt>
      <trkpt lat="46.37717" lon="0.07194">
        <ele>132.31</ele>
        <time>2023-06-18T23:28:08.573Z</time>
      </trkpt>
      <trkpt lat="46.37723" lon="0.07202">
        <ele>132.39</ele>
        <time>2023-06-18T23:29:09.573Z</time>
      </trkpt>
      <trkpt lat="46.3774" lon="0.07222">
        <ele>132.71</ele>
        <time>2023-06-18T23:30:10.576Z</time>
      </trkpt>
      <trkpt lat="46.37741" lon="0.07224">
        <ele>132.76</ele>
        <time>2023-06-18T23:31:11.580Z</time>
      </trkpt>
      <trkpt lat="46.37752" lon="0.0724">
        <ele>133.2</ele>
        <time>2023-06-18T23:32:12.586Z</time>
      </trkpt>
      <trkpt lat="46.37758" lon="0.07249">
        <ele>133.5</ele>
        <time>2023-06-18T23:33:13.593Z</time>
      </trkpt>
      <trkpt lat="46.37767" lon="0.07263">
        <ele>134.03</ele>
        <time>2023-06-18T23:34:14.603Z</time>
      </trkpt>
      <trkpt lat="46.3777" lon="0.07267">
        <ele>134.19</ele>
        <time>2023-06-18T23:35:15.613Z</time>
      </trkpt>
      <trkpt lat="46.37785" lon="0.0729">
        <ele>134.91</ele>
        <time>2023-06-18T23:36:16.627Z</time>
      </trkpt>
      <trkpt lat="46.37795" lon="0.07304">
        <ele>135.3</ele>
        <time>2023-06-18T23:37:17.643Z</time>
      </trkpt>
      <trkpt lat="46.37801" lon="0.07313">
        <ele>135.53</ele>
        <time>2023-06-18T23:38:18.660Z</time>
      </trkpt>
      <trkpt lat="46.37807" lon="0.07322">
        <ele>135.71</ele>
        <time>2023-06-18T23:39:19.679Z</time>
      </trkpt>
      <trkpt lat="46.37816" lon="0.07336">
        <ele>135.92</ele>
        <time>2023-06-18T23:40:20.700Z</time>
      </trkpt>
      <trkpt lat="46.37825" lon="0.07349">
        <ele>136.09</ele>
        <time>2023-06-18T23:41:21.723Z</time>
      </trkpt>
      <trkpt lat="46.37833" lon="0.07361">
        <ele>136.14</ele>
        <time>2023-06-18T23:42:22.748Z</time>
      </trkpt>
      <trkpt lat="46.37844" lon="0.07376">
        <ele>136.22</ele>
        <time>2023-06-18T23:43:23.775Z</time>
      </trkpt>
      <trkpt lat="46.3786" lon="0.07399">
        <ele>136.25</ele>
        <time>2023-06-18T23:44:24.806Z</time>
      </trkpt>
      <trkpt lat="46.37888" lon="0.07439">
        <ele>136.39</ele>
        <time>2023-06-18T23:45:25.843Z</time>
      </trkpt>
      <trkpt lat="46.37895" lon="0.07448">
        <ele>136.37</ele>
        <time>2023-06-18T23:46:26.881Z</time>
      </trkpt>
      <trkpt lat="46.37901" lon="0.07457">
        <ele>136.31</ele>
        <time>2023-06-18T23:47:27.921Z</time>
      </trkpt>
      <trkpt lat="46.37914" lon="0.07474">
        <ele>136.21</ele>
        <time>2023-06-18T23:48:28.964Z</time>
      </trkpt>
      <trkpt lat="46.37917" lon="0.07478">
        <ele>136.21</ele>
        <time>2023-06-18T23:49:30.007Z</time>
      </trkpt>
      <trkpt lat="46.37924" lon="0.07487">
        <ele>136.28</ele>
        <time>2023-06-18T23:50:31.052Z</time>
      </trkpt>
      <trkpt lat="46.37931" lon="0.07496">
        <ele>136.23</ele>
        <time>2023-06-18T23:51:32.098Z</time>
      </trkpt>
      <trkpt lat="46.37934" lon="0.075">
        <ele>136.18</ele>
        <time>2023-06-18T23:52:33.145Z</time>
      </trkpt>
      <trkpt lat="46.37937" lon="0.07504">
        <ele>136.1</ele>
        <time>2023-06-18T23:53:34.193Z</time>
      </trkpt>
      <trkpt lat="46.37944" lon="0.07513">
        <ele>135.89</ele>
        <time>2023-06-18T23:54:35.242Z</time>
      </trkpt>
      <trkpt lat="46.37957" lon="0.0753">
        <ele>135.39</ele>
        <time>2023-06-18T23:55:36.294Z</time>
      </trkpt>
      <trkpt lat="46.37961" lon="0.07535">
        <ele>135.29</ele>
        <time>2023-06-18T23:56:37.347Z</time>
      </trkpt>
      <trkpt lat="46.37964" lon="0.07539">
        <ele>135.21</ele>
        <time>2023-06-18T23:57:38.400Z</time>
      </trkpt>
      <trkpt lat="46.37967" lon="0.07544">
        <ele>135.13</ele>
        <time>2023-06-18T23:58:39.454Z</time>
      </trkpt>
      <trkpt lat="46.37978" lon="0.07564">
        <ele>134.89</ele>
        <time>2023-06-18T23:59:40.511Z</time>
      </trkpt>
      <trkpt lat="46.37987" lon="0.07579">
        <ele>134.75</ele>
        <time>2023-06-19T00:00:41.570Z</time>
      </trkpt>
      <trkpt lat="46.37998" lon="0.076">
        <ele>134.6</ele>
        <time>2023-06-19T00:01:42.632Z</time>
      </trkpt>
      <trkpt lat="46.38007" lon="0.07615">
        <ele>134.55</ele>
        <time>2023-06-19T00:02:43.696Z</time>
      </trkpt>
      <trkpt lat="46.38012" lon="0.07625">
        <ele>134.46</ele>
        <time>2023-06-19T00:03:44.762Z</time>
      </trkpt>
      <trkpt lat="46.38021" lon="0.0764">
        <ele>134.19</ele>
        <time>2023-06-19T00:04:45.830Z</time>
      </trkpt>
      <trkpt lat="46.38032" lon="0.0766">
        <ele>133.74</ele>
        <time>2023-06-19T00:05:46.901Z</time>
      </trkpt>
      <trkpt lat="46.38041" lon="0.07675">
        <ele>133.44</ele>
        <time>2023-06-19T00:06:47.974Z</time>
      </trkpt>
      <trkpt lat="46.38046" lon="0.07685">
        <ele>133.32</ele>
        <time>2023-06-19T00:07:49.048Z</time>
      </trkpt>
      <trkpt lat="46.38051" lon="0.07694">
        <ele>133.28</ele>
        <time>2023-06-19T00:08:50.124Z</time>
      </trkpt>
      <trkpt lat="46.38055" lon="0.077">
        <ele>133.26</ele>
        <time>2023-06-19T00:09:51.201Z</time>
      </trkpt>
      <trkpt lat="46.38064" lon="0.07715">
        <ele>133.29</ele>
        <time>2023-06-19T00:10:52.280Z</time>
      </trkpt>
      <trkpt lat="46.38082" lon="0.07744">
        <ele>133.58</ele>
        <time>2023-06-19T00:11:53.363Z</time>
      </trkpt>
      <trkpt lat="46.38084" lon="0.07748">
        <ele>133.64</ele>
        <time>2023-06-19T00:12:54.447Z</time>
      </trkpt>
      <trkpt lat="46.38088" lon="0.07753">
        <ele>133.74</ele>
        <time>2023-06-19T00:13:55.531Z</time>
      </trkpt>
      <trkpt lat="46.38104" lon="0.07775">
        <ele>134.25</ele>
        <time>2023-06-19T00:14:56.619Z</time>
      </trkpt>
      <trkpt lat="46.38111" lon="0.07784">
        <ele>134.41</ele>
        <time>2023-06-19T00:15:57.708Z</time>
      </trkpt>
      <trkpt lat="46.38118" lon="0.07793">
        <ele>134.54</ele>
        <time>2023-06-19T00:16:58.799Z</time>
      </trkpt>
      <trkpt lat="46.38124" lon="0.07802">
        <ele>134.61</ele>
        <time>2023-06-19T00:17:59.891Z</time>
      </trkpt>
      <trkpt lat="46.38131" lon="0.07811">
        <ele>134.64</ele>
        <time>2023-06-19T00:19:00.985Z</time>
      </trkpt>
      <trkpt lat="46.38141" lon="0.07824">
        <ele>134.67</ele>
        <time>2023-06-19T00:20:02.081Z</time>
      </trkpt>
      <trkpt lat="46.38154" lon="0.07842">
        <ele>134.68</ele>
        <time>2023-06-19T00:21:03.180Z</time>
      </trkpt>
      <trkpt lat="46.38184" lon="0.07881">
        <ele>134.54</ele>
        <time>2023-06-19T00:22:04.285Z</time>
      </trkpt>
      <trkpt lat="46.3819" lon="0.0789">
        <ele>134.48</ele>
        <time>2023-06-19T00:23:05.392Z</time>
      </trkpt>
      <trkpt lat="46.38199" lon="0.07902">
        <ele>134.37</ele>
        <time>2023-06-19T00:24:06.501Z</time>
      </trkpt>
      <trkpt lat="46.38204" lon="0.07907">
        <ele>134.32</ele>
        <time>2023-06-19T00:25:07.611Z</time>
      </trkpt>
      <trkpt lat="46.38218" lon="0.07923">
        <ele>134.29</ele>
        <time>2023-06-19T00:26:08.724Z</time>
      </trkpt>
      <trkpt lat="46.38225" lon="0.07931">
        <ele>134.25</ele>
        <time>2023-06-19T00:27:09.838Z</time>
      </trkpt>
      <trkpt lat="46.38233" lon="0.07939">
        <ele>134.17</ele>
        <time>2023-06-19T00:28:10.953Z</time>
      </trkpt>
      <trkpt lat="46.38244" lon="0.07951">
        <ele>133.97</ele>
        <time>2023-06-19T00:29:12.071Z</time>
      </trkpt>
      <trkpt lat="46.38247" lon="0.07954">
        <ele>133.92</ele>
        <time>2023-06-19T00:30:13.189Z</time>
      </trkpt>
      <trkpt lat="46.38257" lon="0.07967">
        <ele>133.8</ele>
        <time>2023-06-19T00:31:14.309Z</time>
      </trkpt>
      <trkpt lat="46.38264" lon="0.07975">
        <ele>133.75</ele>
        <time>2023-06-19T00:32:15.431Z</time>
      </trkpt>
      <trkpt lat="46.38274" lon="0.07988">
        <ele>133.72</ele>
        <time>2023-06-19T00:33:16.555Z</time>
      </trkpt>
      <trkpt lat="46.38281" lon="0.07997">
        <ele>133.68</ele>
        <time>2023-06-19T00:34:17.680Z</time>
      </trkpt>
      <trkpt lat="46.38282" lon="0.07998">
        <ele>133.66</ele>
        <time>2023-06-19T00:35:18.806Z</time>
      </trkpt>
      <trkpt lat="46.38304" lon="0.08032">
        <ele>133.41</ele>
        <time>2023-06-19T00:36:19.937Z</time>
      </trkpt>
      <trkpt lat="46.38309" lon="0.08038">
        <ele>133.36</ele>
        <time>2023-06-19T00:37:21.069Z</time>
      </trkpt>
      <trkpt lat="46.38331" lon="0.08061">
        <ele>133.27</ele>
        <time>2023-06-19T00:38:22.205Z</time>
      </trkpt>
      <trkpt lat="46.38333" lon="0.08063">
        <ele>133.27</ele>
        <time>2023-06-19T00:39:23.342Z</time>
      </trkpt>
      <trkpt lat="46.38339" lon="0.08068">
        <ele>133.27</ele>
        <time>2023-06-19T00:40:24.480Z</time>
      </trkpt>
      <trkpt lat="46.3835" lon="0.08078">
        <ele>133.34</ele>
        <time>2023-06-19T00:41:25.620Z</time>
      </trkpt>
      <trkpt lat="46.38381" lon="0.08105">
        <ele>133.61</ele>
        <time>2023-06-19T00:42:26.766Z</time>
      </trkpt>
      <trkpt lat="46.38388" lon="0.08111">
        <ele>133.65</ele>
        <time>2023-06-19T00:43:27.913Z</time>
      </trkpt>
      <trkpt lat="46.38392" lon="0.08115">
        <ele>133.69</ele>
        <time>2023-06-19T00:44:29.061Z</time>
      </trkpt>
      <trkpt lat="46.384" lon="0.08123">
        <ele>133.78</ele>
        <time>2023-06-19T00:45:30.210Z</time>
      </trkpt>
      <trkpt lat="46.38422" lon="0.08144">
        <ele>134.11</ele>
        <time>2023-06-19T00:46:31.364Z</time>
      </trkpt>
      <trkpt lat="46.38433" lon="0.08155">
        <ele>134.21</ele>
        <time>2023-06-19T00:47:32.520Z</time>
      </trkpt>
      <trkpt lat="46.38459" lon="0.08169">
        <ele>134.44</ele>
        <time>2023-06-19T00:48:33.680Z</time>
      </trkpt>
      <trkpt lat="46.38461" lon="0.0817">
        <ele>134.45</ele>
        <time>2023-06-19T00:49:34.840Z</time>
      </trkpt>
      <trkpt lat="46.38467" lon="0.08173">
        <ele>134.49</ele>
        <time>2023-06-19T00:50:36.001Z</time>
      </trkpt>
      <trkpt lat="46.38489" lon="0.08182">
        <ele>134.57</ele>
        <time>2023-06-19T00:51:37.166Z</time>
      </trkpt>
      <trkpt lat="46.38494" lon="0.08184">
        <ele>134.6</ele>
        <time>2023-06-19T00:52:38.332Z</time>
      </trkpt>
      <trkpt lat="46.38519" lon="0.08192">
        <ele>134.78</ele>
        <time>2023-06-19T00:53:39.502Z</time>
      </trkpt>
      <trkpt lat="46.38537" lon="0.08198">
        <ele>134.92</ele>
        <time>2023-06-19T00:54:40.675Z</time>
      </trkpt>
      <trkpt lat="46.38542" lon="0.082">
        <ele>134.95</ele>
        <time>2023-06-19T00:55:41.849Z</time>
      </trkpt>
      <trkpt lat="46.38558" lon="0.08207">
        <ele>135.06</ele>
        <time>2023-06-19T00:56:43.026Z</time>
      </trkpt>
      <trkpt lat="46.38576" lon="0.08214">
        <ele>135.14</ele>
        <time>2023-06-19T00:57:44.205Z</time>
      </trkpt>
      <trkpt lat="46.38593" lon="0.08221">
        <ele>135.26</ele>
        <time>2023-06-19T00:58:45.387Z</time>
      </trkpt>
      <trkpt lat="46.38601" lon="0.08224">
        <ele>135.35</ele>
        <time>2023-06-19T00:59:46.571Z</time>
      </trkpt>
      <trkpt lat="46.38602" lon="0.08224">
        <ele>135.35</ele>
        <time>2023-06-19T01:00:47.755Z</time>
      </trkpt>
      <trkpt lat="46.38612" lon="0.08227">
        <ele>135.52</ele>
        <time>2023-06-19T01:01:48.940Z</time>
      </trkpt>
      <trkpt lat="46.38623" lon="0.08233">
        <ele>135.72</ele>
        <time>2023-06-19T01:02:50.127Z</time>
      </trkpt>
      <trkpt lat="46.38644" lon="0.08243">
        <ele>135.77</ele>
        <time>2023-06-19T01:03:51.318Z</time>
      </trkpt>
      <trkpt lat="46.3865" lon="0.08246">
        <ele>135.8</ele>
        <time>2023-06-19T01:04:52.510Z</time>
      </trkpt>
      <trkpt lat="46.38669" lon="0.08258">
        <ele>135.9</ele>
        <time>2023-06-19T01:05:53.705Z</time>
      </trkpt>
      <trkpt lat="46.38689" lon="0.08271">
        <ele>135.94</ele>
        <time>2023-06-19T01:06:54.904Z</time>
      </trkpt>
      <trkpt lat="46.38697" lon="0.08276">
        <ele>135.99</ele>
        <time>2023-06-19T01:07:56.104Z</time>
      </trkpt>
      <trkpt lat="46.3871" lon="0.08283">
        <ele>136.07</ele>
        <time>2023-06-19T01:08:57.306Z</time>
      </trkpt>
      <trkpt lat="46.38718" lon="0.08287">
        <ele>136.1</ele>
        <time>2023-06-19T01:09:58.510Z</time>
      </trkpt>
      <trkpt lat="46.3873" lon="0.08294">
        <ele>136.1</ele>
        <time>2023-06-19T01:10:59.716Z</time>
      </trkpt>
      <trkpt lat="46.38738" lon="0.08299">
        <ele>136.1</ele>
        <time>2023-06-19T01:12:00.923Z</time>
      </trkpt>
      <trkpt lat="46.38757" lon="0.08311">
        <ele>136.06</ele>
        <time>2023-06-19T01:13:02.133Z</time>
      </trkpt>
      <trkpt lat="46.38763" lon="0.08316">
        <ele>136.06</ele>
        <time>2023-06-19T01:14:03.344Z</time>
      </trkpt>
      <trkpt lat="46.38785" lon="0.08335">
        <ele>136.09</ele>
        <time>2023-06-19T01:15:04.560Z</time>
      </trkpt>
      <trkpt lat="46.38791" lon="0.0834">
        <ele>136.13</ele>
        <time>2023-06-19T01:16:05.777Z</time>
      </trkpt>
      <trkpt lat="46.38796" lon="0.08346">
        <ele>136.18</ele>
        <time>2023-06-19T01:17:06.995Z</time>
      </trkpt>
      <trkpt lat="46.38804" lon="0.08354">
        <ele>136.3</ele>
        <time>2023-06-19T01:18:08.214Z</time>
      </trkpt>
      <trkpt lat="46.38808" lon="0.08365">
        <ele>136.41</ele>
        <time>2023-06-19T01:19:09.435Z</time>
      </trkpt>
      <trkpt lat="46.38814" lon="0.08382">
        <ele>136.53</ele>
        <time>2023-06-19T01:20:10.658Z</time>
      </trkpt>
      <trkpt lat="46.38824" lon="0.08411">
        <ele>136.79</ele>
        <time>2023-06-19T01:21:11.884Z</time>
      </trkpt>
      <trkpt lat="46.38825" lon="0.08414">
        <ele>136.81</ele>
        <time>2023-06-19T01:22:13.111Z</time>
      </trkpt>
      <trkpt lat="46.38829" lon="0.08421">
        <ele>136.86</ele>
        <time>2023-06-19T01:23:14.339Z</time>
      </trkpt>
      <trkpt lat="46.38836" lon="0.08437">
        <ele>136.91</ele>
        <time>2023-06-19T01:24:15.569Z</time>
      </trkpt>
      <trkpt lat="46.38838" lon="0.0844">
        <ele>136.87</ele>
        <time>2023-06-19T01:25:16.799Z</time>
      </trkpt>
      <trkpt lat="46.38848" lon="0.08456">
        <ele>136.69</ele>
        <time>2023-06-19T01:26:18.032Z</time>
      </trkpt>
      <trkpt lat="46.38863" lon="0.08478">
        <ele>136.48</ele>
        <time>2023-06-19T01:27:19.268Z</time>
      </trkpt>
      <trkpt lat="46.38874" lon="0.08492">
        <ele>136.35</ele>
        <time>2023-06-19T01:28:20.506Z</time>
      </trkpt>
      <trkpt lat="46.38899" lon="0.08523">
        <ele>136.16</ele>
        <time>2023-06-19T01:29:21.750Z</time>
      </trkpt>
      <trkpt lat="46.38904" lon="0.08531">
        <ele>136.13</ele>
        <time>2023-06-19T01:30:22.995Z</time>
      </trkpt>
      <trkpt lat="46.38909" lon="0.08541">
        <ele>136.11</ele>
        <time>2023-06-19T01:31:24.241Z</time>
      </trkpt>
      <trkpt lat="46.38915" lon="0.08551">
        <ele>136.12</ele>
        <time>2023-06-19T01:32:25.489Z</time>
      </trkpt>
      <trkpt lat="46.38917" lon="0.08554">
        <ele>136.14</ele>
        <time>2023-06-19T01:33:26.737Z</time>
      </trkpt>
      <trkpt lat="46.38918" lon="0.08555">
        <ele>136.15</ele>
        <time>2023-06-19T01:34:27.985Z</time>
      </trkpt>
      <trkpt lat="46.38925" lon="0.08563">
        <ele>136.26</ele>
        <time>2023-06-19T01:35:29.235Z</time>
      </trkpt>
      <trkpt lat="46.38939" lon="0.08579">
        <ele>136.54</ele>
        <time>2023-06-19T01:36:30.488Z</time>
      </trkpt>
      <trkpt lat="46.38946" lon="0.08586">
        <ele>136.69</ele>
        <time>2023-06-19T01:37:31.742Z</time>
      </trkpt>
      <trkpt lat="46.38956" lon="0.08599">
        <ele>136.95</ele>
        <time>2023-06-19T01:38:32.998Z</time>
      </trkpt>
      <trkpt lat="46.38963" lon="0.08608">
        <ele>137.05</ele>
        <time>2023-06-19T01:39:34.256Z</time>
      </trkpt>
      <trkpt lat="46.39" lon="0.08654">
        <ele>137.14</ele>
        <time>2023-06-19T01:40:35.522Z</time>
      </trkpt>
      <trkpt lat="46.39027" lon="0.08689">
        <ele>137.14</ele>
        <time>2023-06-19T01:41:36.793Z</time>
      </trkpt>
      <trkpt lat="46.3903" lon="0.08693">
        <ele>137.15</ele>
        <time>2023-06-19T01:42:38.065Z</time>
      </trkpt>
      <trkpt lat="46.39037" lon="0.08701">
        <ele>137.23</ele>
        <time>2023-06-19T01:43:39.338Z</time>
      </trkpt>
      <trkpt lat="46.39045" lon="0.08712">
        <ele>137.36</ele>
        <time>2023-06-19T01:44:40.613Z</time>
      </trkpt>
      <trkpt lat="46.39058" lon="0.08724">
        <ele>137.56</ele>
        <time>2023-06-19T01:45:41.891Z</time>
      </trkpt>
      <trkpt lat="46.39064" lon="0.08729">
        <ele>137.68</ele>
        <time>2023-06-19T01:46:43.170Z</time>
      </trkpt>
      <trkpt lat="46.39066" lon="0.08731">
        <ele>137.72</ele>
        <time>2023-06-19T01:47:44.449Z</time>
      </trkpt>
      <trkpt lat="46.39073" lon="0.08738">
        <ele>137.95</ele>
        <time>2023-06-19T01:48:45.730Z</time>
      </trkpt>
      <trkpt lat="46.39076" lon="0.08742">
        <ele>138.09</ele>
        <time>2023-06-19T01:49:47.011Z</time>
      </trkpt>
      <trkpt lat="46.39084" lon="0.0875">
        <ele>138.44</ele>
        <time>2023-06-19T01:50:48.294Z</time>
      </trkpt>
      <trkpt lat="46.39098" lon="0.08765">
        <ele>138.52</ele>
        <time>2023-06-19T01:51:49.580Z</time>
      </trkpt>
      <trkpt lat="46.39105" lon="0.08773">
        <ele>138.6</ele>
        <time>2023-06-19T01:52:50.867Z</time>
      </trkpt>
      <trkpt lat="46.39113" lon="0.0878">
        <ele>138.74</ele>
        <time>2023-06-19T01:53:52.155Z</time>
      </trkpt>
      <trkpt lat="46.39123" lon="0.08792">
        <ele>139.03</ele>
        <time>2023-06-19T01:54:53.446Z</time>
      </trkpt>
      <trkpt lat="46.39127" lon="0.08796">
        <ele>139.11</ele>
        <time>2023-06-19T01:55:54.737Z</time>
      </trkpt>
      <trkpt lat="46.39132" lon="0.08801">
        <ele>139.18</ele>
        <time>2023-06-19T01:56:56.029Z</time>
      </trkpt>
      <trkpt lat="46.39142" lon="0.0881">
        <ele>139.32</ele>
        <time>2023-06-19T01:57:57.323Z</time>
      </trkpt>
      <trkpt lat="46.3915" lon="0.08816">
        <ele>139.45</ele>
        <time>2023-06-19T01:58:58.619Z</time>
      </trkpt>
      <trkpt lat="46.39168" lon="0.08832">
        <ele>139.79</ele>
        <time>2023-06-19T01:59:59.918Z</time>
      </trkpt>
      <trkpt lat="46.39193" lon="0.08851">
        <ele>140.25</ele>
        <time>2023-06-19T02:01:01.221Z</time>
      </trkpt>
      <trkpt lat="46.39198" lon="0.08854">
        <ele>140.35</ele>
        <time>2023-06-19T02:02:02.525Z</time>
      </trkpt>
      <trkpt lat="46.39201" lon="0.08857">
        <ele>140.42</ele>
        <time>2023-06-19T02:03:03.830Z</time>
      </trkpt>
      <trkpt lat="46.39209" lon="0.08863">
        <ele>140.63</ele>
        <time>2023-06-19T02:04:05.136Z</time>
      </trkpt>
      <trkpt lat="46.39225" lon="0.08875">
        <ele>141.16</ele>
        <time>2023-06-19T02:05:06.445Z</time>
      </trkpt>
      <trkpt lat="46.39241" lon="0.08888">
        <ele>141.61</ele>
        <time>2023-06-19T02:06:07.757Z</time>
      </trkpt>
      <trkpt lat="46.39252" lon="0.08897">
        <ele>141.88</ele>
        <time>2023-06-19T02:07:09.071Z</time>
      </trkpt>
      <trkpt lat="46.3926" lon="0.08904">
        <ele>141.98</ele>
        <time>2023-06-19T02:08:10.387Z</time>
      </trkpt>
      <trkpt lat="46.39268" lon="0.0891">
        <ele>142.01</ele>
        <time>2023-06-19T02:09:11.704Z</time>
      </trkpt>
      <trkpt lat="46.39284" lon="0.08923">
        <ele>141.94</ele>
        <time>2023-06-19T02:10:13.024Z</time>
      </trkpt>
      <trkpt lat="46.39292" lon="0.08929">
        <ele>141.93</ele>
        <time>2023-06-19T02:11:14.345Z</time>
      </trkpt>
      <trkpt lat="46.393" lon="0.08935">
        <ele>141.96</ele>
        <time>2023-06-19T02:12:15.668Z</time>
      </trkpt>
      <trkpt lat="46.39311" lon="0.08945">
        <ele>142.04</ele>
        <time>2023-06-19T02:13:16.993Z</time>
      </trkpt>
      <trkpt lat="46.39319" lon="0.08951">
        <ele>142.05</ele>
        <time>2023-06-19T02:14:18.320Z</time>
      </trkpt>
      <trkpt lat="46.39327" lon="0.08957">
        <ele>142.01</ele>
        <time>2023-06-19T02:15:19.648Z</time>
      </trkpt>
      <trkpt lat="46.39343" lon="0.0897">
        <ele>141.86</ele>
        <time>2023-06-19T02:16:20.979Z</time>
      </trkpt>
      <trkpt lat="46.39347" lon="0.08973">
        <ele>141.83</ele>
        <time>2023-06-19T02:17:22.311Z</time>
      </trkpt>
      <trkpt lat="46.39366" lon="0.08988">
        <ele>141.71</ele>
        <time>2023-06-19T02:18:23.646Z</time>
      </trkpt>
      <trkpt lat="46.3939" lon="0.09006">
        <ele>141.6</ele>
        <time>2023-06-19T02:19:24.985Z</time>
      </trkpt>
      <trkpt lat="46.39414" lon="0.09025">
        <ele>141.58</ele>
        <time>2023-06-19T02:20:26.329Z</time>
      </trkpt>
      <trkpt lat="46.39426" lon="0.09034">
        <ele>141.61</ele>
        <time>2023-06-19T02:21:27.675Z</time>
      </trkpt>
      <trkpt lat="46.39434" lon="0.09039">
        <ele>141.63</ele>
        <time>2023-06-19T02:22:29.022Z</time>
      </trkpt>
      <trkpt lat="46.39443" lon="0.09044">
        <ele>141.61</ele>
        <time>2023-06-19T02:23:30.371Z</time>
      </trkpt>
      <trkpt lat="46.39455" lon="0.09051">
        <ele>141.54</ele>
        <time>2023-06-19T02:24:31.722Z</time>
      </trkpt>
      <trkpt lat="46.39459" lon="0.09053">
        <ele>141.54</ele>
        <time>2023-06-19T02:25:33.074Z</time>
      </trkpt>
      <trkpt lat="46.3948" lon="0.09066">
        <ele>141.64</ele>
        <time>2023-06-19T02:26:34.429Z</time>
      </trkpt>
      <trkpt lat="46.39488" lon="0.0907">
        <ele>141.7</ele>
        <time>2023-06-19T02:27:35.786Z</time>
      </trkpt>
      <trkpt lat="46.39505" lon="0.0908">
        <ele>141.88</ele>
        <time>2023-06-19T02:28:37.146Z</time>
      </trkpt>
      <trkpt lat="46.39513" lon="0.09085">
        <ele>141.92</ele>
        <time>2023-06-19T02:29:38.507Z</time>
      </trkpt>
      <trkpt lat="46.3953" lon="0.09095">
        <ele>141.94</ele>
        <time>2023-06-19T02:30:39.871Z</time>
      </trkpt>
      <trkpt lat="46.39537" lon="0.09099">
        <ele>141.91</ele>
        <time>2023-06-19T02:31:41.236Z</time>
      </trkpt>
      <trkpt lat="46.39545" lon="0.09108">
        <ele>141.88</ele>
        <time>2023-06-19T02:32:42.603Z</time>
      </trkpt>
      <trkpt lat="46.39552" lon="0.09116">
        <ele>141.88</ele>
        <time>2023-06-19T02:33:43.971Z</time>
      </trkpt>
      <trkpt lat="46.3956" lon="0.09124">
        <ele>141.92</ele>
        <time>2023-06-19T02:34:45.341Z</time>
      </trkpt>
      <trkpt lat="46.39574" lon="0.09139">
        <ele>142.08</ele>
        <time>2023-06-19T02:35:46.714Z</time>
      </trkpt>
      <trkpt lat="46.39588" lon="0.09155">
        <ele>142.13</ele>
        <time>2023-06-19T02:36:48.089Z</time>
      </trkpt>
      <trkpt lat="46.39592" lon="0.09159">
        <ele>142.13</ele>
        <time>2023-06-19T02:37:49.465Z</time>
      </trkpt>
      <trkpt lat="46.39596" lon="0.09162">
        <ele>142.14</ele>
        <time>2023-06-19T02:38:50.842Z</time>
      </trkpt>
      <trkpt lat="46.39611" lon="0.09175">
        <ele>142.12</ele>
        <time>2023-06-19T02:39:52.222Z</time>
      </trkpt>
      <trkpt lat="46.39614" lon="0.09177">
        <ele>142.12</ele>
        <time>2023-06-19T02:40:53.602Z</time>
      </trkpt>
      <trkpt lat="46.39642" lon="0.09202">
        <ele>142.12</ele>
        <time>2023-06-19T02:41:54.987Z</time>
      </trkpt>
      <trkpt lat="46.3965" lon="0.09209">
        <ele>142.14</ele>
        <time>2023-06-19T02:42:56.374Z</time>
      </trkpt>
      <trkpt lat="46.3967" lon="0.09228">
        <ele>142.3</ele>
        <time>2023-06-19T02:43:57.765Z</time>
      </trkpt>
      <trkpt lat="46.39675" lon="0.09235">
        <ele>142.36</ele>
        <time>2023-06-19T02:44:59.157Z</time>
      </trkpt>
      <trkpt lat="46.39694" lon="0.09263">
        <ele>142.6</ele>
        <time>2023-06-19T02:46:00.553Z</time>
      </trkpt>
      <trkpt lat="46.39713" lon="0.09291">
        <ele>142.62</ele>
        <time>2023-06-19T02:47:01.954Z</time>
      </trkpt>
      <trkpt lat="46.39725" lon="0.09308">
        <ele>142.65</ele>
        <time>2023-06-19T02:48:03.357Z</time>
      </trkpt>
      <trkpt lat="46.39742" lon="0.09331">
        <ele>142.7</ele>
        <time>2023-06-19T02:49:04.764Z</time>
      </trkpt>
      <trkpt lat="46.39756" lon="0.09348">
        <ele>142.82</ele>
        <time>2023-06-19T02:50:06.174Z</time>
      </trkpt>
      <trkpt lat="46.3976" lon="0.09354">
        <ele>142.84</ele>
        <time>2023-06-19T02:51:07.585Z</time>
      </trkpt>
      <trkpt lat="46.39766" lon="0.09361">
        <ele>142.87</ele>
        <time>2023-06-19T02:52:08.997Z</time>
      </trkpt>
      <trkpt lat="46.3978" lon="0.09379">
        <ele>143.02</ele>
        <time>2023-06-19T02:53:10.412Z</time>
      </trkpt>
      <trkpt lat="46.39787" lon="0.09386">
        <ele>143.1</ele>
        <time>2023-06-19T02:54:11.828Z</time>
      </trkpt>
      <trkpt lat="46.39805" lon="0.09405">
        <ele>143.22</ele>
        <time>2023-06-19T02:55:13.248Z</time>
      </trkpt>
      <trkpt lat="46.39813" lon="0.09413">
        <ele>143.22</ele>
        <time>2023-06-19T02:56:14.669Z</time>
      </trkpt>
      <trkpt lat="46.39827" lon="0.09428">
        <ele>143.28</ele>
        <time>2023-06-19T02:57:16.093Z</time>
      </trkpt>
      <trkpt lat="46.3983" lon="0.09431">
        <ele>143.27</ele>
        <time>2023-06-19T02:58:17.518Z</time>
      </trkpt>
      <trkpt lat="46.39831" lon="0.09432">
        <ele>143.27</ele>
        <time>2023-06-19T02:59:18.943Z</time>
      </trkpt>
      <trkpt lat="46.39847" lon="0.09443">
        <ele>143.11</ele>
        <time>2023-06-19T03:00:20.371Z</time>
      </trkpt>
      <trkpt lat="46.39855" lon="0.09448">
        <ele>143.09</ele>
        <time>2023-06-19T03:01:21.800Z</time>
      </trkpt>
      <trkpt lat="46.39859" lon="0.09451">
        <ele>143.11</ele>
        <time>2023-06-19T03:02:23.230Z</time>
      </trkpt>
      <trkpt lat="46.39871" lon="0.09459">
        <ele>143.22</ele>
        <time>2023-06-19T03:03:24.662Z</time>
      </trkpt>
      <trkpt lat="46.39883" lon="0.09468">
        <ele>143.3</ele>
        <time>2023-06-19T03:04:26.096Z</time>
      </trkpt>
      <trkpt lat="46.39908" lon="0.09485">
        <ele>143.4</ele>
        <time>2023-06-19T03:05:27.535Z</time>
      </trkpt>
      <trkpt lat="46.3993" lon="0.095">
        <ele>143.61</ele>
        <time>2023-06-19T03:06:28.978Z</time>
      </trkpt>
      <trkpt lat="46.39932" lon="0.09501">
        <ele>143.63</ele>
        <time>2023-06-19T03:07:30.421Z</time>
      </trkpt>
      <trkpt lat="46.39966" lon="0.09518">
        <ele>143.73</ele>
        <time>2023-06-19T03:08:31.870Z</time>
      </trkpt>
      <trkpt lat="46.39987" lon="0.09529">
        <ele>143.85</ele>
        <time>2023-06-19T03:09:33.322Z</time>
      </trkpt>
      <trkpt lat="46.39992" lon="0.09532">
        <ele>143.86</ele>
        <time>2023-06-19T03:10:34.775Z</time>
      </trkpt>
      <trkpt lat="46.40007" lon="0.09542">
        <ele>143.91</ele>
        <time>2023-06-19T03:11:36.231Z</time>
      </trkpt>
      <trkpt lat="46.4004" lon="0.09563">
        <ele>144.23</ele>
        <time>2023-06-19T03:12:37.693Z</time>
      </trkpt>
      <trkpt lat="46.40044" lon="0.09566">
        <ele>144.26</ele>
        <time>2023-06-19T03:13:39.155Z</time>
      </trkpt>
      <trkpt lat="46.4007" lon="0.09589">
        <ele>144.47</ele>
        <time>2023-06-19T03:14:40.622Z</time>
      </trkpt>
      <trkpt lat="46.40081" lon="0.09602">
        <ele>144.58</ele>
        <time>2023-06-19T03:15:42.092Z</time>
      </trkpt>
      <trkpt lat="46.40088" lon="0.09609">
        <ele>144.66</ele>
        <time>2023-06-19T03:16:43.563Z</time>
      </trkpt>
      <trkpt lat="46.40109" lon="0.09632">
        <ele>144.99</ele>
        <time>2023-06-19T03:17:45.038Z</time>
      </trkpt>
      <trkpt lat="46.40122" lon="0.09642">
        <ele>145.18</ele>
        <time>2023-06-19T03:18:46.515Z</time>
      </trkpt>
      <trkpt lat="46.40134" lon="0.09651">
        <ele>145.34</ele>
        <time>2023-06-19T03:19:47.995Z</time>
      </trkpt>
      <trkpt lat="46.40145" lon="0.0966">
        <ele>145.48</ele>
        <time>2023-06-19T03:20:49.477Z</time>
      </trkpt>
      <trkpt lat="46.40165" lon="0.09676">
        <ele>145.78</ele>
        <time>2023-06-19T03:21:50.962Z</time>
      </trkpt>
      <trkpt lat="46.40189" lon="0.09694">
        <ele>146.23</ele>
        <time>2023-06-19T03:22:52.452Z</time>
      </trkpt>
      <trkpt lat="46.40193" lon="0.09697">
        <ele>146.33</ele>
        <time>2023-06-19T03:23:53.942Z</time>
      </trkpt>
      <trkpt lat="46.40205" lon="0.09706">
        <ele>146.68</ele>
        <time>2023-06-19T03:24:55.434Z</time>
      </trkpt>
      <trkpt lat="46.40209" lon="0.09709">
        <ele>146.78</ele>
        <time>2023-06-19T03:25:56.927Z</time>
      </trkpt>
      <trkpt lat="46.4022" lon="0.09719">
        <ele>147</ele>
        <time>2023-06-19T03:26:58.422Z</time>
      </trkpt>
      <trkpt lat="46.40236" lon="0.09731">
        <ele>147.2</ele>
        <time>2023-06-19T03:27:59.920Z</time>
      </trkpt>
      <trkpt lat="46.40248" lon="0.0974">
        <ele>147.3</ele>
        <time>2023-06-19T03:29:01.420Z</time>
      </trkpt>
      <trkpt lat="46.40262" lon="0.09755">
        <ele>147.44</ele>
        <time>2023-06-19T03:30:02.923Z</time>
      </trkpt>
      <trkpt lat="46.40284" lon="0.09778">
        <ele>147.76</ele>
        <time>2023-06-19T03:31:04.430Z</time>
      </trkpt>
      <trkpt lat="46.40284" lon="0.09778">
        <ele>147.76</ele>
        <time>2023-06-19T03:32:05.938Z</time>
      </trkpt>
      <trkpt lat="46.40304" lon="0.09794">
        <ele>147.89</ele>
        <time>2023-06-19T03:33:07.449Z</time>
      </trkpt>
      <trkpt lat="46.40308" lon="0.09797">
        <ele>147.93</ele>
        <time>2023-06-19T03:34:08.961Z</time>
      </trkpt>
      <trkpt lat="46.40322" lon="0.09812">
        <ele>148.1</ele>
        <time>2023-06-19T03:35:10.476Z</time>
      </trkpt>
      <trkpt lat="46.4033" lon="0.09819">
        <ele>148.17</ele>
        <time>2023-06-19T03:36:11.992Z</time>
      </trkpt>
      <trkpt lat="46.40344" lon="0.09834">
        <ele>148.2</ele>
        <time>2023-06-19T03:37:13.511Z</time>
      </trkpt>
      <trkpt lat="46.40359" lon="0.09849">
        <ele>148.25</ele>
        <time>2023-06-19T03:38:15.033Z</time>
      </trkpt>
      <trkpt lat="46.40374" lon="0.09862">
        <ele>148.32</ele>
        <time>2023-06-19T03:39:16.558Z</time>
      </trkpt>
      <trkpt lat="46.40386" lon="0.09872">
        <ele>148.35</ele>
        <time>2023-06-19T03:40:18.085Z</time>
      </trkpt>
      <trkpt lat="46.40398" lon="0.09883">
        <ele>148.44</ele>
        <time>2023-06-19T03:41:19.614Z</time>
      </trkpt>
      <trkpt lat="46.40401" lon="0.09887">
        <ele>148.47</ele>
        <time>2023-06-19T03:42:21.144Z</time>
      </trkpt>
      <trkpt lat="46.40425" lon="0.09916">
        <ele>148.48</ele>
        <time>2023-06-19T03:43:22.679Z</time>
      </trkpt>
      <trkpt lat="46.40431" lon="0.09925">
        <ele>148.53</ele>
        <time>2023-06-19T03:44:24.215Z</time>
      </trkpt>
      <trkpt lat="46.40439" lon="0.09934">
        <ele>148.62</ele>
        <time>2023-06-19T03:45:25.753Z</time>
      </trkpt>
      <trkpt lat="46.40449" lon="0.09944">
        <ele>148.75</ele>
        <time>2023-06-19T03:46:27.293Z</time>
      </trkpt>
      <trkpt lat="46.40456" lon="0.09952">
        <ele>148.82</ele>
        <time>2023-06-19T03:47:28.834Z</time>
      </trkpt>
      <trkpt lat="46.40464" lon="0.0996">
        <ele>148.85</ele>
        <time>2023-06-19T03:48:30.377Z</time>
      </trkpt>
      <trkpt lat="46.40473" lon="0.09973">
        <ele>148.9</ele>
        <time>2023-06-19T03:49:31.922Z</time>
      </trkpt>
      <trkpt lat="46.40489" lon="0.09996">
        <ele>148.94</ele>
        <time>2023-06-19T03:50:33.470Z</time>
      </trkpt>
      <trkpt lat="46.40517" lon="0.10038">
        <ele>149.25</ele>
        <time>2023-06-19T03:51:35.025Z</time>
      </trkpt>
      <trkpt lat="46.40525" lon="0.10045">
        <ele>149.32</ele>
        <time>2023-06-19T03:52:36.581Z</time>
      </trkpt>
      <trkpt lat="46.4054" lon="0.10059">
        <ele>149.5</ele>
        <time>2023-06-19T03:53:38.140Z</time>
      </trkpt>
      <trkpt lat="46.40551" lon="0.1007">
        <ele>149.69</ele>
        <time>2023-06-19T03:54:39.701Z</time>
      </trkpt>
      <trkpt lat="46.40551" lon="0.1007">
        <ele>149.69</ele>
        <time>2023-06-19T03:55:41.262Z</time>
      </trkpt>
      <trkpt lat="46.40573" lon="0.1009">
        <ele>149.78</ele>
        <time>2023-06-19T03:56:42.827Z</time>
      </trkpt>
      <trkpt lat="46.40584" lon="0.101">
        <ele>149.87</ele>
        <time>2023-06-19T03:57:44.395Z</time>
      </trkpt>
      <trkpt lat="46.40595" lon="0.1011">
        <ele>150.02</ele>
        <time>2023-06-19T03:58:45.965Z</time>
      </trkpt>
      <trkpt lat="46.4061" lon="0.10123">
        <ele>150.28</ele>
        <time>2023-06-19T03:59:47.537Z</time>
      </trkpt>
      <trkpt lat="46.40617" lon="0.1013">
        <ele>150.24</ele>
        <time>2023-06-19T04:00:49.111Z</time>
      </trkpt>
      <trkpt lat="46.40624" lon="0.10136">
        <ele>150.17</ele>
        <time>2023-06-19T04:01:50.686Z</time>
      </trkpt>
      <trkpt lat="46.40633" lon="0.10144">
        <ele>150.09</ele>
        <time>2023-06-19T04:02:52.263Z</time>
      </trkpt>
      <trkpt lat="46.40648" lon="0.10157">
        <ele>149.97</ele>
        <time>2023-06-19T04:03:53.843Z</time>
      </trkpt>
      <trkpt lat="46.40675" lon="0.1018">
        <ele>149.67</ele>
        <time>2023-06-19T04:04:55.428Z</time>
      </trkpt>
      <trkpt lat="46.40699" lon="0.102">
        <ele>149.53</ele>
        <time>2023-06-19T04:05:57.017Z</time>
      </trkpt>
      <trkpt lat="46.40703" lon="0.10203">
        <ele>149.48</ele>
        <time>2023-06-19T04:06:58.607Z</time>
      </trkpt>
      <trkpt lat="46.40718" lon="0.10216">
        <ele>149.18</ele>
        <time>2023-06-19T04:08:00.200Z</time>
      </trkpt>
      <trkpt lat="46.40722" lon="0.1022">
        <ele>149.12</ele>
        <time>2023-06-19T04:09:01.793Z</time>
      </trkpt>
      <trkpt lat="46.4073" lon="0.10226">
        <ele>149.06</ele>
        <time>2023-06-19T04:10:03.388Z</time>
      </trkpt>
      <trkpt lat="46.40741" lon="0.10236">
        <ele>149.03</ele>
        <time>2023-06-19T04:11:04.985Z</time>
      </trkpt>
      <trkpt lat="46.40749" lon="0.10243">
        <ele>148.98</ele>
        <time>2023-06-19T04:12:06.583Z</time>
      </trkpt>
      <trkpt lat="46.40755" lon="0.10248">
        <ele>148.9</ele>
        <time>2023-06-19T04:13:08.182Z</time>
      </trkpt>
      <trkpt lat="46.40781" lon="0.10267">
        <ele>148.62</ele>
        <time>2023-06-19T04:14:09.786Z</time>
      </trkpt>
      <trkpt lat="46.40797" lon="0.1028">
        <ele>148.54</ele>
        <time>2023-06-19T04:15:11.393Z</time>
      </trkpt>
      <trkpt lat="46.40801" lon="0.10283">
        <ele>148.56</ele>
        <time>2023-06-19T04:16:13.001Z</time>
      </trkpt>
      <trkpt lat="46.40809" lon="0.10289">
        <ele>148.66</ele>
        <time>2023-06-19T04:17:14.610Z</time>
      </trkpt>
      <trkpt lat="46.40816" lon="0.10295">
        <ele>148.76</ele>
        <time>2023-06-19T04:18:16.221Z</time>
      </trkpt>
      <trkpt lat="46.4082" lon="0.10298">
        <ele>148.77</ele>
        <time>2023-06-19T04:19:17.832Z</time>
      </trkpt>
      <trkpt lat="46.40828" lon="0.10305">
        <ele>148.72</ele>
        <time>2023-06-19T04:20:19.445Z</time>
      </trkpt>
      <trkpt lat="46.40836" lon="0.10311">
        <ele>148.63</ele>
        <time>2023-06-19T04:21:21.059Z</time>
      </trkpt>
      <trkpt lat="46.40844" lon="0.10317">
        <ele>148.51</ele>
        <time>2023-06-19T04:22:22.675Z</time>
      </trkpt>
      <trkpt lat="46.40848" lon="0.10321">
        <ele>148.49</ele>
        <time>2023-06-19T04:23:24.291Z</time>
      </trkpt>
      <trkpt lat="46.40852" lon="0.10324">
        <ele>148.53</ele>
        <time>2023-06-19T04:24:25.908Z</time>
      </trkpt>
      <trkpt lat="46.40863" lon="0.10333">
        <ele>148.82</ele>
        <time>2023-06-19T04:25:27.527Z</time>
      </trkpt>
      <trkpt lat="46.40867" lon="0.10336">
        <ele>148.88</ele>
        <time>2023-06-19T04:26:29.147Z</time>
      </trkpt>
      <trkpt lat="46.40871" lon="0.1034">
        <ele>148.91</ele>
        <time>2023-06-19T04:27:30.768Z</time>
      </trkpt>
      <trkpt lat="46.40918" lon="0.10378">
        <ele>148.88</ele>
        <time>2023-06-19T04:28:32.397Z</time>
      </trkpt>
      <trkpt lat="46.40922" lon="0.10381">
        <ele>148.88</ele>
        <time>2023-06-19T04:29:34.027Z</time>
      </trkpt>
      <trkpt lat="46.40926" lon="0.10384">
        <ele>148.91</ele>
        <time>2023-06-19T04:30:35.658Z</time>
      </trkpt>
      <trkpt lat="46.4093" lon="0.10388">
        <ele>148.97</ele>
        <time>2023-06-19T04:31:37.289Z</time>
      </trkpt>
      <trkpt lat="46.40942" lon="0.10397">
        <ele>149.27</ele>
        <time>2023-06-19T04:32:38.923Z</time>
      </trkpt>
      <trkpt lat="46.40946" lon="0.104">
        <ele>149.34</ele>
        <time>2023-06-19T04:33:40.557Z</time>
      </trkpt>
      <trkpt lat="46.4095" lon="0.10404">
        <ele>149.39</ele>
        <time>2023-06-19T04:34:42.192Z</time>
      </trkpt>
      <trkpt lat="46.40955" lon="0.10408">
        <ele>149.43</ele>
        <time>2023-06-19T04:35:43.828Z</time>
      </trkpt>
      <trkpt lat="46.40966" lon="0.10414">
        <ele>149.53</ele>
        <time>2023-06-19T04:36:45.466Z</time>
      </trkpt>
      <trkpt lat="46.40973" lon="0.10418">
        <ele>149.61</ele>
        <time>2023-06-19T04:37:47.105Z</time>
      </trkpt>
      <trkpt lat="46.40974" lon="0.10418">
        <ele>149.63</ele>
        <time>2023-06-19T04:38:48.744Z</time>
      </trkpt>
      <trkpt lat="46.40979" lon="0.10416">
        <ele>149.72</ele>
        <time>2023-06-19T04:39:50.384Z</time>
      </trkpt>
      <trkpt lat="46.40982" lon="0.1042">
        <ele>149.81</ele>
        <time>2023-06-19T04:40:52.025Z</time>
      </trkpt>
      <trkpt lat="46.40992" lon="0.10435">
        <ele>150.21</ele>
        <time>2023-06-19T04:41:53.668Z</time>
      </trkpt>
      <trkpt lat="46.40995" lon="0.10438">
        <ele>150.32</ele>
        <time>2023-06-19T04:42:55.312Z</time>
      </trkpt>
      <trkpt lat="46.40999" lon="0.10441">
        <ele>150.41</ele>
        <time>2023-06-19T04:43:56.956Z</time>
      </trkpt>
      <trkpt lat="46.41003" lon="0.10444">
        <ele>150.46</ele>
        <time>2023-06-19T04:44:58.601Z</time>
      </trkpt>
      <trkpt lat="46.41007" lon="0.10447">
        <ele>150.46</ele>
        <time>2023-06-19T04:46:00.247Z</time>
      </trkpt>
      <trkpt lat="46.41015" lon="0.10454">
        <ele>150.38</ele>
        <time>2023-06-19T04:47:01.894Z</time>
      </trkpt>
      <trkpt lat="46.41023" lon="0.1046">
        <ele>150.26</ele>
        <time>2023-06-19T04:48:03.543Z</time>
      </trkpt>
      <trkpt lat="46.41031" lon="0.10466">
        <ele>150.08</ele>
        <time>2023-06-19T04:49:05.193Z</time>
      </trkpt>
      <trkpt lat="46.41042" lon="0.10476">
        <ele>149.74</ele>
        <time>2023-06-19T04:50:06.845Z</time>
      </trkpt>
      <trkpt lat="46.4105" lon="0.10482">
        <ele>149.6</ele>
        <time>2023-06-19T04:51:08.499Z</time>
      </trkpt>
      <trkpt lat="46.4105" lon="0.10482">
        <ele>149.6</ele>
        <time>2023-06-19T04:52:10.153Z</time>
      </trkpt>
      <trkpt lat="46.41057" lon="0.10495">
        <ele>149.51</ele>
        <time>2023-06-19T04:53:11.809Z</time>
      </trkpt>
      <trkpt lat="46.41063" lon="0.10499">
        <ele>149.47</ele>
        <time>2023-06-19T04:54:13.466Z</time>
      </trkpt>
      <trkpt lat="46.41079" lon="0.10509">
        <ele>149.28</ele>
        <time>2023-06-19T04:55:15.125Z</time>
      </trkpt>
      <trkpt lat="46.4108" lon="0.1051">
        <ele>149.28</ele>
        <time>2023-06-19T04:56:16.785Z</time>
      </trkpt>
      <trkpt lat="46.41091" lon="0.10521">
        <ele>149.1</ele>
        <time>2023-06-19T04:57:18.447Z</time>
      </trkpt>
      <trkpt lat="46.41105" lon="0.10536">
        <ele>148.93</ele>
        <time>2023-06-19T04:58:20.112Z</time>
      </trkpt>
      <trkpt lat="46.41105" lon="0.10536">
        <ele>148.93</ele>
        <time>2023-06-19T04:59:21.777Z</time>
      </trkpt>
      <trkpt lat="46.41119" lon="0.10553">
        <ele>148.71</ele>
        <time>2023-06-19T05:00:23.444Z</time>
      </trkpt>
      <trkpt lat="46.41122" lon="0.10557">
        <ele>148.67</ele>
        <time>2023-06-19T05:01:25.112Z</time>
      </trkpt>
      <trkpt lat="46.41129" lon="0.10565">
        <ele>148.63</ele>
        <time>2023-06-19T05:02:26.782Z</time>
      </trkpt>
      <trkpt lat="46.41143" lon="0.10582">
        <ele>148.62</ele>
        <time>2023-06-19T05:03:28.454Z</time>
      </trkpt>
      <trkpt lat="46.41147" lon="0.10586">
        <ele>148.59</ele>
        <time>2023-06-19T05:04:30.127Z</time>
      </trkpt>
      <trkpt lat="46.4115" lon="0.1059">
        <ele>148.53</ele>
        <time>2023-06-19T05:05:31.801Z</time>
      </trkpt>
      <trkpt lat="46.41157" lon="0.10599">
        <ele>148.37</ele>
        <time>2023-06-19T05:06:33.476Z</time>
      </trkpt>
      <trkpt lat="46.41161" lon="0.10603">
        <ele>148.32</ele>
        <time>2023-06-19T05:07:35.152Z</time>
      </trkpt>
      <trkpt lat="46.41167" lon="0.10611">
        <ele>148.28</ele>
        <time>2023-06-19T05:08:36.830Z</time>
      </trkpt>
      <trkpt lat="46.41188" lon="0.10636">
        <ele>148.22</ele>
        <time>2023-06-19T05:09:38.512Z</time>
      </trkpt>
      <trkpt lat="46.41192" lon="0.1064">
        <ele>148.19</ele>
        <time>2023-06-19T05:10:40.195Z</time>
      </trkpt>
      <trkpt lat="46.41205" lon="0.10657">
        <ele>147.99</ele>
        <time>2023-06-19T05:11:41.880Z</time>
      </trkpt>
      <trkpt lat="46.41212" lon="0.10666">
        <ele>147.93</ele>
        <time>2023-06-19T05:12:43.567Z</time>
      </trkpt>
      <trkpt lat="46.41216" lon="0.1067">
        <ele>147.93</ele>
        <time>2023-06-19T05:13:45.255Z</time>
      </trkpt>
      <trkpt lat="46.41219" lon="0.10674">
        <ele>147.96</ele>
        <time>2023-06-19T05:14:46.943Z</time>
      </trkpt>
      <trkpt lat="46.41223" lon="0.10678">
        <ele>148.04</ele>
        <time>2023-06-19T05:15:48.632Z</time>
      </trkpt>
      <trkpt lat="46.41233" lon="0.1069">
        <ele>148.41</ele>
        <time>2023-06-19T05:16:50.323Z</time>
      </trkpt>
      <trkpt lat="46.41237" lon="0.10695">
        <ele>148.51</ele>
        <time>2023-06-19T05:17:52.015Z</time>
      </trkpt>
      <trkpt lat="46.4124" lon="0.10699">
        <ele>148.59</ele>
        <time>2023-06-19T05:18:53.708Z</time>
      </trkpt>
      <trkpt lat="46.41241" lon="0.107">
        <ele>148.6</ele>
        <time>2023-06-19T05:19:55.401Z</time>
      </trkpt>
      <trkpt lat="46.41243" lon="0.10703">
        <ele>148.63</ele>
        <time>2023-06-19T05:20:57.094Z</time>
      </trkpt>
      <trkpt lat="46.41263" lon="0.1073">
        <ele>148.79</ele>
        <time>2023-06-19T05:21:58.792Z</time>
      </trkpt>
      <trkpt lat="46.41269" lon="0.1074">
        <ele>148.82</ele>
        <time>2023-06-19T05:23:00.491Z</time>
      </trkpt>
      <trkpt lat="46.41285" lon="0.10762">
        <ele>148.79</ele>
        <time>2023-06-19T05:24:02.194Z</time>
      </trkpt>
      <trkpt lat="46.41295" lon="0.10776">
        <ele>148.8</ele>
        <time>2023-06-19T05:25:03.899Z</time>
      </trkpt>
      <trkpt lat="46.41314" lon="0.10803">
        <ele>148.93</ele>
        <time>2023-06-19T05:26:05.608Z</time>
      </trkpt>
      <trkpt lat="46.41321" lon="0.10812">
        <ele>149</ele>
        <time>2023-06-19T05:27:07.319Z</time>
      </trkpt>
      <trkpt lat="46.41327" lon="0.10821">
        <ele>149.1</ele>
        <time>2023-06-19T05:28:09.031Z</time>
      </trkpt>
      <trkpt lat="46.41334" lon="0.1083">
        <ele>149.26</ele>
        <time>2023-06-19T05:29:10.745Z</time>
      </trkpt>
      <trkpt lat="46.4134" lon="0.10839">
        <ele>149.47</ele>
        <time>2023-06-19T05:30:12.460Z</time>
      </trkpt>
      <trkpt lat="46.41347" lon="0.10848">
        <ele>149.71</ele>
        <time>2023-06-19T05:31:14.176Z</time>
      </trkpt>
      <trkpt lat="46.41353" lon="0.10857">
        <ele>149.74</ele>
        <time>2023-06-19T05:32:15.894Z</time>
      </trkpt>
      <trkpt lat="46.41359" lon="0.10866">
        <ele>149.73</ele>
        <time>2023-06-19T05:33:17.613Z</time>
      </trkpt>
      <trkpt lat="46.41366" lon="0.10875">
        <ele>149.65</ele>
        <time>2023-06-19T05:34:19.334Z</time>
      </trkpt>
      <trkpt lat="46.41379" lon="0.10894">
        <ele>149.37</ele>
        <time>2023-06-19T05:35:21.058Z</time>
      </trkpt>
      <trkpt lat="46.41382" lon="0.10897">
        <ele>149.33</ele>
        <time>2023-06-19T05:36:22.782Z</time>
      </trkpt>
      <trkpt lat="46.41392" lon="0.10908">
        <ele>149.18</ele>
        <time>2023-06-19T05:37:24.508Z</time>
      </trkpt>
      <trkpt lat="46.414" lon="0.10916">
        <ele>149.12</ele>
        <time>2023-06-19T05:38:26.236Z</time>
      </trkpt>
      <trkpt lat="46.41418" lon="0.10935">
        <ele>148.99</ele>
        <time>2023-06-19T05:39:27.967Z</time>
      </trkpt>
      <trkpt lat="46.41433" lon="0.10946">
        <ele>148.91</ele>
        <time>2023-06-19T05:40:29.701Z</time>
      </trkpt>
      <trkpt lat="46.41441" lon="0.10951">
        <ele>148.9</ele>
        <time>2023-06-19T05:41:31.436Z</time>
      </trkpt>
      <trkpt lat="46.41441" lon="0.10951">
        <ele>148.9</ele>
        <time>2023-06-19T05:42:33.172Z</time>
      </trkpt>
      <trkpt lat="46.41449" lon="0.10956">
        <ele>148.94</ele>
        <time>2023-06-19T05:43:34.909Z</time>
      </trkpt>
      <trkpt lat="46.41453" lon="0.10959">
        <ele>149</ele>
        <time>2023-06-19T05:44:36.647Z</time>
      </trkpt>
      <trkpt lat="46.41462" lon="0.10963">
        <ele>149.16</ele>
        <time>2023-06-19T05:45:38.386Z</time>
      </trkpt>
      <trkpt lat="46.4147" lon="0.10968">
        <ele>149.12</ele>
        <time>2023-06-19T05:46:40.126Z</time>
      </trkpt>
      <trkpt lat="46.41478" lon="0.10973">
        <ele>149.12</ele>
        <time>2023-06-19T05:47:41.868Z</time>
      </trkpt>
      <trkpt lat="46.4151" lon="0.10993">
        <ele>149.23</ele>
        <time>2023-06-19T05:48:43.615Z</time>
      </trkpt>
      <trkpt lat="46.41518" lon="0.10998">
        <ele>149.29</ele>
        <time>2023-06-19T05:49:45.364Z</time>
      </trkpt>
      <trkpt lat="46.41531" lon="0.11005">
        <ele>149.45</ele>
        <time>2023-06-19T05:50:47.115Z</time>
      </trkpt>
      <trkpt lat="46.41539" lon="0.1101">
        <ele>149.53</ele>
        <time>2023-06-19T05:51:48.867Z</time>
      </trkpt>
      <trkpt lat="46.41563" lon="0.11025">
        <ele>149.65</ele>
        <time>2023-06-19T05:52:50.624Z</time>
      </trkpt>
      <trkpt lat="46.41563" lon="0.11025">
        <ele>149.65</ele>
        <time>2023-06-19T05:53:52.381Z</time>
      </trkpt>
      <trkpt lat="46.41588" lon="0.1104">
        <ele>149.95</ele>
        <time>2023-06-19T05:54:54.142Z</time>
      </trkpt>
      <trkpt lat="46.41601" lon="0.11047">
        <ele>150.15</ele>
        <time>2023-06-19T05:55:55.905Z</time>
      </trkpt>
      <trkpt lat="46.41638" lon="0.11069">
        <ele>150.8</ele>
        <time>2023-06-19T05:56:57.675Z</time>
      </trkpt>
      <trkpt lat="46.41672" lon="0.11088">
        <ele>151.3</ele>
        <time>2023-06-19T05:57:59.450Z</time>
      </trkpt>
      <trkpt lat="46.41684" lon="0.11095">
        <ele>151.44</ele>
        <time>2023-06-19T05:59:01.228Z</time>
      </trkpt>
      <trkpt lat="46.41684" lon="0.11095">
        <ele>151.44</ele>
        <time>2023-06-19T06:00:03.006Z</time>
      </trkpt>
      <trkpt lat="46.41701" lon="0.11104">
        <ele>151.58</ele>
        <time>2023-06-19T06:01:04.786Z</time>
      </trkpt>
      <trkpt lat="46.41718" lon="0.11113">
        <ele>151.67</ele>
        <time>2023-06-19T06:02:06.569Z</time>
      </trkpt>
      <trkpt lat="46.41731" lon="0.11119">
        <ele>151.77</ele>
        <time>2023-06-19T06:03:08.355Z</time>
      </trkpt>
      <trkpt lat="46.41736" lon="0.11122">
        <ele>151.81</ele>
        <time>2023-06-19T06:04:10.141Z</time>
      </trkpt>
      <trkpt lat="46.4174" lon="0.11123">
        <ele>151.85</ele>
        <time>2023-06-19T06:05:11.928Z</time>
      </trkpt>
      <trkpt lat="46.41757" lon="0.11129">
        <ele>152.05</ele>
        <time>2023-06-19T06:06:13.718Z</time>
      </trkpt>
      <trkpt lat="46.41772" lon="0.11134">
        <ele>152.14</ele>
        <time>2023-06-19T06:07:15.510Z</time>
      </trkpt>
      <trkpt lat="46.41779" lon="0.11138">
        <ele>152.19</ele>
        <time>2023-06-19T06:08:17.303Z</time>
      </trkpt>
      <trkpt lat="46.41804" lon="0.11153">
        <ele>152.32</ele>
        <time>2023-06-19T06:09:19.101Z</time>
      </trkpt>
      <trkpt lat="46.4182" lon="0.11162">
        <ele>152.44</ele>
        <time>2023-06-19T06:10:20.902Z</time>
      </trkpt>
      <trkpt lat="46.41862" lon="0.11187">
        <ele>152.64</ele>
        <time>2023-06-19T06:11:22.710Z</time>
      </trkpt>
      <trkpt lat="46.41887" lon="0.11202">
        <ele>152.78</ele>
        <time>2023-06-19T06:12:24.522Z</time>
      </trkpt>
      <trkpt lat="46.41904" lon="0.11212">
        <ele>152.85</ele>
        <time>2023-06-19T06:13:26.337Z</time>
      </trkpt>
      <trkpt lat="46.41912" lon="0.11216">
        <ele>152.91</ele>
        <time>2023-06-19T06:14:28.153Z</time>
      </trkpt>
      <trkpt lat="46.41918" lon="0.1122">
        <ele>152.96</ele>
        <time>2023-06-19T06:15:29.971Z</time>
      </trkpt>
      <trkpt lat="46.41929" lon="0.11225">
        <ele>153.07</ele>
        <time>2023-06-19T06:16:31.790Z</time>
      </trkpt>
      <trkpt lat="46.41971" lon="0.11247">
        <ele>153.32</ele>
        <time>2023-06-19T06:17:33.617Z</time>
      </trkpt>
      <trkpt lat="46.41988" lon="0.11255">
        <ele>153.48</ele>
        <time>2023-06-19T06:18:35.446Z</time>
      </trkpt>
      <trkpt lat="46.42018" lon="0.1127">
        <ele>153.81</ele>
        <time>2023-06-19T06:19:37.280Z</time>
      </trkpt>
      <trkpt lat="46.42031" lon="0.11276">
        <ele>153.93</ele>
        <time>2023-06-19T06:20:39.117Z</time>
      </trkpt>
      <trkpt lat="46.42048" lon="0.11285">
        <ele>154.13</ele>
        <time>2023-06-19T06:21:40.956Z</time>
      </trkpt>
      <trkpt lat="46.4206" lon="0.11291">
        <ele>154.2</ele>
        <time>2023-06-19T06:22:42.798Z</time>
      </trkpt>
      <trkpt lat="46.42073" lon="0.11297">
        <ele>154.22</ele>
        <time>2023-06-19T06:23:44.642Z</time>
      </trkpt>
      <trkpt lat="46.42082" lon="0.11301">
        <ele>154.21</ele>
        <time>2023-06-19T06:24:46.487Z</time>
      </trkpt>
      <trkpt lat="46.42095" lon="0.11308">
        <ele>154.13</ele>
        <time>2023-06-19T06:25:48.334Z</time>
      </trkpt>
      <trkpt lat="46.42102" lon="0.11313">
        <ele>154.09</ele>
        <time>2023-06-19T06:26:50.183Z</time>
      </trkpt>
      <trkpt lat="46.42118" lon="0.11323">
        <ele>154.06</ele>
        <time>2023-06-19T06:27:52.034Z</time>
      </trkpt>
      <trkpt lat="46.42141" lon="0.11339">
        <ele>153.92</ele>
        <time>2023-06-19T06:28:53.890Z</time>
      </trkpt>
      <trkpt lat="46.42162" lon="0.11353">
        <ele>153.82</ele>
        <time>2023-06-19T06:29:55.749Z</time>
      </trkpt>
      <trkpt lat="46.42168" lon="0.11357">
        <ele>153.77</ele>
        <time>2023-06-19T06:30:57.609Z</time>
      </trkpt>
      <trkpt lat="46.42174" lon="0.11361">
        <ele>153.74</ele>
        <time>2023-06-19T06:31:59.470Z</time>
      </trkpt>
      <trkpt lat="46.42206" lon="0.11384">
        <ele>153.65</ele>
        <time>2023-06-19T06:33:01.337Z</time>
      </trkpt>
      <trkpt lat="46.42222" lon="0.11396">
        <ele>153.54</ele>
        <time>2023-06-19T06:34:03.207Z</time>
      </trkpt>
      <trkpt lat="46.42222" lon="0.11396">
        <ele>153.54</ele>
        <time>2023-06-19T06:35:05.077Z</time>
      </trkpt>
      <trkpt lat="46.42233" lon="0.11406">
        <ele>153.41</ele>
        <time>2023-06-19T06:36:06.949Z</time>
      </trkpt>
      <trkpt lat="46.42257" lon="0.11426">
        <ele>153.1</ele>
        <time>2023-06-19T06:37:08.826Z</time>
      </trkpt>
      <trkpt lat="46.42279" lon="0.11447">
        <ele>152.82</ele>
        <time>2023-06-19T06:38:10.707Z</time>
      </trkpt>
      <trkpt lat="46.42291" lon="0.11459">
        <ele>152.7</ele>
        <time>2023-06-19T06:39:12.590Z</time>
      </trkpt>
      <trkpt lat="46.42308" lon="0.11478">
        <ele>152.55</ele>
        <time>2023-06-19T06:40:14.476Z</time>
      </trkpt>
      <trkpt lat="46.42332" lon="0.11505">
        <ele>152.22</ele>
        <time>2023-06-19T06:41:16.367Z</time>
      </trkpt>
      <trkpt lat="46.42348" lon="0.11518">
        <ele>152.04</ele>
        <time>2023-06-19T06:42:18.261Z</time>
      </trkpt>
      <trkpt lat="46.42352" lon="0.11522">
        <ele>152</ele>
        <time>2023-06-19T06:43:20.156Z</time>
      </trkpt>
      <trkpt lat="46.42364" lon="0.11528">
        <ele>151.91</ele>
        <time>2023-06-19T06:44:22.053Z</time>
      </trkpt>
      <trkpt lat="46.42373" lon="0.11532">
        <ele>151.81</ele>
        <time>2023-06-19T06:45:23.952Z</time>
      </trkpt>
      <trkpt lat="46.42381" lon="0.11536">
        <ele>151.68</ele>
        <time>2023-06-19T06:46:25.852Z</time>
      </trkpt>
      <trkpt lat="46.4239" lon="0.1154">
        <ele>151.52</ele>
        <time>2023-06-19T06:47:27.753Z</time>
      </trkpt>
      <trkpt lat="46.42402" lon="0.11546">
        <ele>151.27</ele>
        <time>2023-06-19T06:48:29.657Z</time>
      </trkpt>
      <trkpt lat="46.42428" lon="0.11555">
        <ele>150.76</ele>
        <time>2023-06-19T06:49:31.565Z</time>
      </trkpt>
      <trkpt lat="46.42437" lon="0.11558">
        <ele>150.55</ele>
        <time>2023-06-19T06:50:33.474Z</time>
      </trkpt>
      <trkpt lat="46.42453" lon="0.11564">
        <ele>150.12</ele>
        <time>2023-06-19T06:51:35.386Z</time>
      </trkpt>
      <trkpt lat="46.42463" lon="0.11563">
        <ele>149.86</ele>
        <time>2023-06-19T06:52:37.300Z</time>
      </trkpt>
      <trkpt lat="46.42469" lon="0.11563">
        <ele>149.7</ele>
        <time>2023-06-19T06:53:39.215Z</time>
      </trkpt>
      <trkpt lat="46.4247" lon="0.11568">
        <ele>149.62</ele>
        <time>2023-06-19T06:54:41.130Z</time>
      </trkpt>
      <trkpt lat="46.42471" lon="0.11574">
        <ele>149.47</ele>
        <time>2023-06-19T06:55:43.046Z</time>
      </trkpt>
      <trkpt lat="46.42474" lon="0.11578">
        <ele>149.34</ele>
        <time>2023-06-19T06:56:44.962Z</time>
      </trkpt>
      <trkpt lat="46.42481" lon="0.11587">
        <ele>149.21</ele>
        <time>2023-06-19T06:57:46.880Z</time>
      </trkpt>
      <trkpt lat="46.42507" lon="0.11611">
        <ele>148.79</ele>
        <time>2023-06-19T06:58:48.803Z</time>
      </trkpt>
      <trkpt lat="46.42508" lon="0.11612">
        <ele>148.77</ele>
        <time>2023-06-19T06:59:50.726Z</time>
      </trkpt>
      <trkpt lat="46.42523" lon="0.11621">
        <ele>148.59</ele>
        <time>2023-06-19T07:00:52.652Z</time>
      </trkpt>
      <trkpt lat="46.42535" lon="0.11628">
        <ele>148.22</ele>
        <time>2023-06-19T07:01:54.580Z</time>
      </trkpt>
      <trkpt lat="46.42539" lon="0.11631">
        <ele>148.13</ele>
        <time>2023-06-19T07:02:56.508Z</time>
      </trkpt>
      <trkpt lat="46.42548" lon="0.11636">
        <ele>148.01</ele>
        <time>2023-06-19T07:03:58.438Z</time>
      </trkpt>
      <trkpt lat="46.42552" lon="0.11638">
        <ele>147.99</ele>
        <time>2023-06-19T07:05:00.369Z</time>
      </trkpt>
      <trkpt lat="46.42564" lon="0.11645">
        <ele>148</ele>
        <time>2023-06-19T07:06:02.302Z</time>
      </trkpt>
      <trkpt lat="46.42581" lon="0.11655">
        <ele>147.95</ele>
        <time>2023-06-19T07:07:04.238Z</time>
      </trkpt>
      <trkpt lat="46.42589" lon="0.1166">
        <ele>147.92</ele>
        <time>2023-06-19T07:08:06.175Z</time>
      </trkpt>
      <trkpt lat="46.42594" lon="0.11663">
        <ele>147.88</ele>
        <time>2023-06-19T07:09:08.113Z</time>
      </trkpt>
      <trkpt lat="46.42592" lon="0.11682">
        <ele>147.81</ele>
        <time>2023-06-19T07:10:10.053Z</time>
      </trkpt>
      <trkpt lat="46.42591" lon="0.11701">
        <ele>147.77</ele>
        <time>2023-06-19T07:11:11.995Z</time>
      </trkpt>
      <trkpt lat="46.42589" lon="0.1172">
        <ele>147.78</ele>
        <time>2023-06-19T07:12:13.939Z</time>
      </trkpt>
      <trkpt lat="46.42585" lon="0.11766">
        <ele>147.88</ele>
        <time>2023-06-19T07:13:15.888Z</time>
      </trkpt>
      <trkpt lat="46.42584" lon="0.11779">
        <ele>147.93</ele>
        <time>2023-06-19T07:14:17.839Z</time>
      </trkpt>
      <trkpt lat="46.42583" lon="0.11792">
        <ele>148.05</ele>
        <time>2023-06-19T07:15:19.791Z</time>
      </trkpt>
      <trkpt lat="46.4258" lon="0.11824">
        <ele>148.45</ele>
        <time>2023-06-19T07:16:21.747Z</time>
      </trkpt>
      <trkpt lat="46.42577" lon="0.11856">
        <ele>148.89</ele>
        <time>2023-06-19T07:17:23.706Z</time>
      </trkpt>
      <trkpt lat="46.42574" lon="0.11895">
        <ele>149.39</ele>
        <time>2023-06-19T07:18:25.670Z</time>
      </trkpt>
      <trkpt lat="46.42572" lon="0.11908">
        <ele>149.5</ele>
        <time>2023-06-19T07:19:27.635Z</time>
      </trkpt>
      <trkpt lat="46.4257" lon="0.11934">
        <ele>149.67</ele>
        <time>2023-06-19T07:20:29.603Z</time>
      </trkpt>
      <trkpt lat="46.42569" lon="0.11946">
        <ele>149.79</ele>
        <time>2023-06-19T07:21:31.573Z</time>
      </trkpt>
      <trkpt lat="46.4258" lon="0.11933">
        <ele>149.99</ele>
        <time>2023-06-19T07:22:33.545Z</time>
      </trkpt>
      <trkpt lat="46.42591" lon="0.11921">
        <ele>150.12</ele>
        <time>2023-06-19T07:23:35.519Z</time>
      </trkpt>
      <trkpt lat="46.42598" lon="0.11913">
        <ele>150.16</ele>
        <time>2023-06-19T07:24:37.494Z</time>
      </trkpt>
      <trkpt lat="46.42605" lon="0.11905">
        <ele>150.16</ele>
        <time>2023-06-19T07:25:39.471Z</time>
      </trkpt>
      <trkpt lat="46.42626" lon="0.11881">
        <ele>150.09</ele>
        <time>2023-06-19T07:26:41.452Z</time>
      </trkpt>
      <trkpt lat="46.42628" lon="0.11876">
        <ele>150.08</ele>
        <time>2023-06-19T07:27:43.434Z</time>
      </trkpt>
      <trkpt lat="46.42633" lon="0.11865">
        <ele>150</ele>
        <time>2023-06-19T07:28:45.417Z</time>
      </trkpt>
      <trkpt lat="46.42634" lon="0.11863">
        <ele>149.98</ele>
        <time>2023-06-19T07:29:47.400Z</time>
      </trkpt>
      <trkpt lat="46.42642" lon="0.11856">
        <ele>149.86</ele>
        <time>2023-06-19T07:30:49.385Z</time>
      </trkpt>
      <trkpt lat="46.42649" lon="0.11854">
        <ele>149.77</ele>
        <time>2023-06-19T07:31:51.371Z</time>
      </trkpt>
      <trkpt lat="46.42671" lon="0.11848">
        <ele>149.57</ele>
        <time>2023-06-19T07:32:53.361Z</time>
      </trkpt>
      <trkpt lat="46.4268" lon="0.11845">
        <ele>149.49</ele>
        <time>2023-06-19T07:33:55.352Z</time>
      </trkpt>
      <trkpt lat="46.42697" lon="0.11839">
        <ele>149.39</ele>
        <time>2023-06-19T07:34:57.346Z</time>
      </trkpt>
      <trkpt lat="46.42711" lon="0.11835">
        <ele>149.24</ele>
        <time>2023-06-19T07:35:59.342Z</time>
      </trkpt>
      <trkpt lat="46.42724" lon="0.11831">
        <ele>149</ele>
        <time>2023-06-19T07:37:01.340Z</time>
      </trkpt>
      <trkpt lat="46.42746" lon="0.11823">
        <ele>148.37</ele>
        <time>2023-06-19T07:38:03.342Z</time>
      </trkpt>
      <trkpt lat="46.42754" lon="0.1182">
        <ele>148.14</ele>
        <time>2023-06-19T07:39:05.345Z</time>
      </trkpt>
      <trkpt lat="46.42759" lon="0.11819">
        <ele>148.04</ele>
        <time>2023-06-19T07:40:07.349Z</time>
      </trkpt>
      <trkpt lat="46.42763" lon="0.11817">
        <ele>147.95</ele>
        <time>2023-06-19T07:41:09.354Z</time>
      </trkpt>
      <trkpt lat="46.42772" lon="0.11813">
        <ele>147.81</ele>
        <time>2023-06-19T07:42:11.360Z</time>
      </trkpt>
      <trkpt lat="46.42781" lon="0.11808">
        <ele>147.69</ele>
        <time>2023-06-19T07:43:13.368Z</time>
      </trkpt>
      <trkpt lat="46.42789" lon="0.11801">
        <ele>147.58</ele>
        <time>2023-06-19T07:44:15.377Z</time>
      </trkpt>
      <trkpt lat="46.42797" lon="0.11802">
        <ele>147.5</ele>
        <time>2023-06-19T07:45:17.388Z</time>
      </trkpt>
      <trkpt lat="46.42814" lon="0.11806">
        <ele>147.2</ele>
        <time>2023-06-19T07:46:19.401Z</time>
      </trkpt>
      <trkpt lat="46.42821" lon="0.11807">
        <ele>147.04</ele>
        <time>2023-06-19T07:47:21.416Z</time>
      </trkpt>
      <trkpt lat="46.42823" lon="0.11807">
        <ele>146.99</ele>
        <time>2023-06-19T07:48:23.431Z</time>
      </trkpt>
      <trkpt lat="46.42841" lon="0.11806">
        <ele>146.5</ele>
        <time>2023-06-19T07:49:25.449Z</time>
      </trkpt>
      <trkpt lat="46.42845" lon="0.11805">
        <ele>146.41</ele>
        <time>2023-06-19T07:50:27.467Z</time>
      </trkpt>
      <trkpt lat="46.42852" lon="0.11805">
        <ele>146.31</ele>
        <time>2023-06-19T07:51:29.487Z</time>
      </trkpt>
      <trkpt lat="46.42854" lon="0.11807">
        <ele>146.29</ele>
        <time>2023-06-19T07:52:31.507Z</time>
      </trkpt>
      <trkpt lat="46.42868" lon="0.11821">
        <ele>146.1</ele>
        <time>2023-06-19T07:53:33.530Z</time>
      </trkpt>
      <trkpt lat="46.42894" lon="0.11846">
        <ele>145.65</ele>
        <time>2023-06-19T07:54:35.558Z</time>
      </trkpt>
      <trkpt lat="46.42912" lon="0.11863">
        <ele>145.41</ele>
        <time>2023-06-19T07:55:37.589Z</time>
      </trkpt>
      <trkpt lat="46.4292" lon="0.1187">
        <ele>145.36</ele>
        <time>2023-06-19T07:56:39.622Z</time>
      </trkpt>
      <trkpt lat="46.42927" lon="0.11877">
        <ele>145.37</ele>
        <time>2023-06-19T07:57:41.656Z</time>
      </trkpt>
      <trkpt lat="46.42942" lon="0.11892">
        <ele>145.46</ele>
        <time>2023-06-19T07:58:43.693Z</time>
      </trkpt>
      <trkpt lat="46.42949" lon="0.11899">
        <ele>145.18</ele>
        <time>2023-06-19T07:59:45.731Z</time>
      </trkpt>
      <trkpt lat="46.4296" lon="0.1191">
        <ele>144.8</ele>
        <time>2023-06-19T08:00:47.771Z</time>
      </trkpt>
      <trkpt lat="46.42968" lon="0.11917">
        <ele>144.58</ele>
        <time>2023-06-19T08:01:49.813Z</time>
      </trkpt>
      <trkpt lat="46.42971" lon="0.1192">
        <ele>144.5</ele>
        <time>2023-06-19T08:02:51.856Z</time>
      </trkpt>
      <trkpt lat="46.42975" lon="0.11924">
        <ele>144.44</ele>
        <time>2023-06-19T08:03:53.899Z</time>
      </trkpt>
      <trkpt lat="46.4299" lon="0.11938">
        <ele>144.28</ele>
        <time>2023-06-19T08:04:55.945Z</time>
      </trkpt>
      <trkpt lat="46.42997" lon="0.11945">
        <ele>144.13</ele>
        <time>2023-06-19T08:05:57.993Z</time>
      </trkpt>
      <trkpt lat="46.43012" lon="0.1196">
        <ele>143.77</ele>
        <time>2023-06-19T08:07:00.043Z</time>
      </trkpt>
      <trkpt lat="46.43042" lon="0.11988">
        <ele>143.22</ele>
        <time>2023-06-19T08:08:02.099Z</time>
      </trkpt>
      <trkpt lat="46.4306" lon="0.12006">
        <ele>142.94</ele>
        <time>2023-06-19T08:09:04.159Z</time>
      </trkpt>
      <trkpt lat="46.43079" lon="0.12024">
        <ele>142.6</ele>
        <time>2023-06-19T08:10:06.222Z</time>
      </trkpt>
      <trkpt lat="46.43083" lon="0.12013">
        <ele>142.47</ele>
        <time>2023-06-19T08:11:08.287Z</time>
      </trkpt>
      <trkpt lat="46.43095" lon="0.11985">
        <ele>142.21</ele>
        <time>2023-06-19T08:12:10.355Z</time>
      </trkpt>
      <trkpt lat="46.43112" lon="0.11941">
        <ele>142.24</ele>
        <time>2023-06-19T08:13:12.429Z</time>
      </trkpt>
      <trkpt lat="46.43123" lon="0.11913">
        <ele>142.36</ele>
        <time>2023-06-19T08:14:14.506Z</time>
      </trkpt>
      <trkpt lat="46.43128" lon="0.11902">
        <ele>142.35</ele>
        <time>2023-06-19T08:15:16.585Z</time>
      </trkpt>
      <trkpt lat="46.4313" lon="0.11897">
        <ele>142.31</ele>
        <time>2023-06-19T08:16:18.664Z</time>
      </trkpt>
      <trkpt lat="46.43133" lon="0.11889">
        <ele>142.2</ele>
        <time>2023-06-19T08:17:20.744Z</time>
      </trkpt>
      <trkpt lat="46.43135" lon="0.11886">
        <ele>142.16</ele>
        <time>2023-06-19T08:18:22.825Z</time>
      </trkpt>
      <trkpt lat="46.43142" lon="0.11875">
        <ele>141.92</ele>
        <time>2023-06-19T08:19:24.908Z</time>
      </trkpt>
      <trkpt lat="46.43154" lon="0.11861">
        <ele>141.56</ele>
        <time>2023-06-19T08:20:26.993Z</time>
      </trkpt>
      <trkpt lat="46.4317" lon="0.11843">
        <ele>141.64</ele>
        <time>2023-06-19T08:21:29.081Z</time>
      </trkpt>
      <trkpt lat="46.43181" lon="0.11831">
        <ele>142.05</ele>
        <time>2023-06-19T08:22:31.171Z</time>
      </trkpt>
      <trkpt lat="46.43188" lon="0.11823">
        <ele>142.38</ele>
        <time>2023-06-19T08:23:33.263Z</time>
      </trkpt>
      <trkpt lat="46.43197" lon="0.11812">
        <ele>142.85</ele>
        <time>2023-06-19T08:24:35.357Z</time>
      </trkpt>
      <trkpt lat="46.43198" lon="0.11813">
        <ele>142.9</ele>
        <time>2023-06-19T08:25:37.451Z</time>
      </trkpt>
      <trkpt lat="46.43205" lon="0.1182">
        <ele>143.19</ele>
        <time>2023-06-19T08:26:39.546Z</time>
      </trkpt>
      <trkpt lat="46.43209" lon="0.11823">
        <ele>143.31</ele>
        <time>2023-06-19T08:27:41.642Z</time>
      </trkpt>
      <trkpt lat="46.43213" lon="0.11826">
        <ele>143.4</ele>
        <time>2023-06-19T08:28:43.739Z</time>
      </trkpt>
      <trkpt lat="46.4322" lon="0.11833">
        <ele>143.51</ele>
        <time>2023-06-19T08:29:45.837Z</time>
      </trkpt>
      <trkpt lat="46.43224" lon="0.11837">
        <ele>143.58</ele>
        <time>2023-06-19T08:30:47.936Z</time>
      </trkpt>
      <trkpt lat="46.43231" lon="0.11845">
        <ele>143.63</ele>
        <time>2023-06-19T08:31:50.036Z</time>
      </trkpt>
      <trkpt lat="46.43234" lon="0.11849">
        <ele>143.63</ele>
        <time>2023-06-19T08:32:52.137Z</time>
      </trkpt>
      <trkpt lat="46.43244" lon="0.11861">
        <ele>143.54</ele>
        <time>2023-06-19T08:33:54.240Z</time>
      </trkpt>
      <trkpt lat="46.43252" lon="0.11869">
        <ele>143.39</ele>
        <time>2023-06-19T08:34:56.345Z</time>
      </trkpt>
      <trkpt lat="46.43252" lon="0.11869">
        <ele>143.39</ele>
        <time>2023-06-19T08:35:58.450Z</time>
      </trkpt>
      <trkpt lat="46.43258" lon="0.11885">
        <ele>143.08</ele>
        <time>2023-06-19T08:37:00.557Z</time>
      </trkpt>
      <trkpt lat="46.43261" lon="0.11897">
        <ele>142.88</ele>
        <time>2023-06-19T08:38:02.665Z</time>
      </trkpt>
      <trkpt lat="46.43263" lon="0.11905">
        <ele>142.79</ele>
        <time>2023-06-19T08:39:04.774Z</time>
      </trkpt>
      <trkpt lat="46.43266" lon="0.1192">
        <ele>142.64</ele>
        <time>2023-06-19T08:40:06.885Z</time>
      </trkpt>
      <trkpt lat="46.43269" lon="0.11932">
        <ele>142.48</ele>
        <time>2023-06-19T08:41:08.997Z</time>
      </trkpt>
      <trkpt lat="46.43275" lon="0.11961">
        <ele>142.02</ele>
        <time>2023-06-19T08:42:11.113Z</time>
      </trkpt>
      <trkpt lat="46.43278" lon="0.11973">
        <ele>141.87</ele>
        <time>2023-06-19T08:43:13.230Z</time>
      </trkpt>
      <trkpt lat="46.43278" lon="0.11973">
        <ele>141.87</ele>
        <time>2023-06-19T08:44:15.347Z</time>
      </trkpt>
      <trkpt lat="46.43285" lon="0.11978">
        <ele>141.75</ele>
        <time>2023-06-19T08:45:17.465Z</time>
      </trkpt>
      <trkpt lat="46.43297" lon="0.11987">
        <ele>141.87</ele>
        <time>2023-06-19T08:46:19.585Z</time>
      </trkpt>
      <trkpt lat="46.43304" lon="0.11992">
        <ele>141.89</ele>
        <time>2023-06-19T08:47:21.707Z</time>
      </trkpt>
      <trkpt lat="46.43308" lon="0.11995">
        <ele>141.87</ele>
        <time>2023-06-19T08:48:23.829Z</time>
      </trkpt>
      <trkpt lat="46.43315" lon="0.12001">
        <ele>141.78</ele>
        <time>2023-06-19T08:49:25.953Z</time>
      </trkpt>
      <trkpt lat="46.43327" lon="0.12009">
        <ele>141.61</ele>
        <time>2023-06-19T08:50:28.079Z</time>
      </trkpt>
      <trkpt lat="46.43334" lon="0.12015">
        <ele>141.46</ele>
        <time>2023-06-19T08:51:30.206Z</time>
      </trkpt>
      <trkpt lat="46.43342" lon="0.1202">
        <ele>141.28</ele>
        <time>2023-06-19T08:52:32.334Z</time>
      </trkpt>
      <trkpt lat="46.43361" lon="0.12034">
        <ele>140.72</ele>
        <time>2023-06-19T08:53:34.466Z</time>
      </trkpt>
      <trkpt lat="46.43368" lon="0.1204">
        <ele>140.48</ele>
        <time>2023-06-19T08:54:36.599Z</time>
      </trkpt>
      <trkpt lat="46.43403" lon="0.12065">
        <ele>139.32</ele>
        <time>2023-06-19T08:55:38.738Z</time>
      </trkpt>
      <trkpt lat="46.43421" lon="0.12079">
        <ele>138.64</ele>
        <time>2023-06-19T08:56:40.881Z</time>
      </trkpt>
      <trkpt lat="46.43422" lon="0.1208">
        <ele>138.64</ele>
        <time>2023-06-19T08:57:43.024Z</time>
      </trkpt>
      <trkpt lat="46.43435" lon="0.12094">
        <ele>138.04</ele>
        <time>2023-06-19T08:58:45.169Z</time>
      </trkpt>
      <trkpt lat="46.43443" lon="0.12102">
        <ele>137.69</ele>
        <time>2023-06-19T08:59:47.316Z</time>
      </trkpt>
      <trkpt lat="46.43443" lon="0.12102">
        <ele>137.69</ele>
        <time>2023-06-19T09:00:49.463Z</time>
      </trkpt>
      <trkpt lat="46.43451" lon="0.12114">
        <ele>137.07</ele>
        <time>2023-06-19T09:01:51.612Z</time>
      </trkpt>
      <trkpt lat="46.43457" lon="0.12123">
        <ele>136.52</ele>
        <time>2023-06-19T09:02:53.762Z</time>
      </trkpt>
      <trkpt lat="46.43466" lon="0.12136">
        <ele>135.65</ele>
        <time>2023-06-19T09:03:55.914Z</time>
      </trkpt>
      <trkpt lat="46.43472" lon="0.12145">
        <ele>135.05</ele>
        <time>2023-06-19T09:04:58.068Z</time>
      </trkpt>
      <trkpt lat="46.43485" lon="0.12163">
        <ele>133.79</ele>
        <time>2023-06-19T09:06:00.224Z</time>
      </trkpt>
      <trkpt lat="46.43491" lon="0.12172">
        <ele>133.23</ele>
        <time>2023-06-19T09:07:02.382Z</time>
      </trkpt>
      <trkpt lat="46.43494" lon="0.12176">
        <ele>133</ele>
        <time>2023-06-19T09:08:04.541Z</time>
      </trkpt>
      <trkpt lat="46.43497" lon="0.12181">
        <ele>132.8</ele>
        <time>2023-06-19T09:09:06.700Z</time>
      </trkpt>
      <trkpt lat="46.435" lon="0.12185">
        <ele>132.63</ele>
        <time>2023-06-19T09:10:08.860Z</time>
      </trkpt>
      <trkpt lat="46.43503" lon="0.12189">
        <ele>132.5</ele>
        <time>2023-06-19T09:11:11.021Z</time>
      </trkpt>
      <trkpt lat="46.43509" lon="0.12198">
        <ele>132.3</ele>
        <time>2023-06-19T09:12:13.183Z</time>
      </trkpt>
      <trkpt lat="46.43512" lon="0.12203">
        <ele>132.02</ele>
        <time>2023-06-19T09:13:15.346Z</time>
      </trkpt>
      <trkpt lat="46.4352" lon="0.12209">
        <ele>131.49</ele>
        <time>2023-06-19T09:14:17.510Z</time>
      </trkpt>
      <trkpt lat="46.43522" lon="0.1221">
        <ele>131.36</ele>
        <time>2023-06-19T09:15:19.674Z</time>
      </trkpt>
      <trkpt lat="46.43527" lon="0.12216">
        <ele>130.98</ele>
        <time>2023-06-19T09:16:21.840Z</time>
      </trkpt>
      <trkpt lat="46.43537" lon="0.12229">
        <ele>130.27</ele>
        <time>2023-06-19T09:17:24.008Z</time>
      </trkpt>
      <trkpt lat="46.43529" lon="0.12237">
        <ele>129.75</ele>
        <time>2023-06-19T09:18:26.177Z</time>
      </trkpt>
      <trkpt lat="46.43519" lon="0.12257">
        <ele>128.83</ele>
        <time>2023-06-19T09:19:28.349Z</time>
      </trkpt>
      <trkpt lat="46.43512" lon="0.1227">
        <ele>128.21</ele>
        <time>2023-06-19T09:20:30.523Z</time>
      </trkpt>
      <trkpt lat="46.43529" lon="0.12237">
        <ele>126.61</ele>
        <time>2023-06-19T09:21:32.701Z</time>
      </trkpt>
      <trkpt lat="46.43533" lon="0.12233">
        <ele>126.32</ele>
        <time>2023-06-19T09:22:34.880Z</time>
      </trkpt>
      <trkpt lat="46.43537" lon="0.12229">
        <ele>125.97</ele>
        <time>2023-06-19T09:23:37.060Z</time>
      </trkpt>
      <trkpt lat="46.43539" lon="0.12234">
        <ele>125.63</ele>
        <time>2023-06-19T09:24:39.241Z</time>
      </trkpt>
      <trkpt lat="46.43544" lon="0.12245">
        <ele>124.98</ele>
        <time>2023-06-19T09:25:41.423Z</time>
      </trkpt>
      <trkpt lat="46.43554" lon="0.12267">
        <ele>123.74</ele>
        <time>2023-06-19T09:26:43.608Z</time>
      </trkpt>
      <trkpt lat="46.43554" lon="0.12267">
        <ele>123.74</ele>
        <time>2023-06-19T09:27:45.793Z</time>
      </trkpt>
      <trkpt lat="46.43559" lon="0.12276">
        <ele>123.15</ele>
        <time>2023-06-19T09:28:47.979Z</time>
      </trkpt>
      <trkpt lat="46.43565" lon="0.12286">
        <ele>122.6</ele>
        <time>2023-06-19T09:29:50.167Z</time>
      </trkpt>
      <trkpt lat="46.43571" lon="0.12296">
        <ele>122.09</ele>
        <time>2023-06-19T09:30:52.356Z</time>
      </trkpt>
      <trkpt lat="46.43579" lon="0.1231">
        <ele>121.39</ele>
        <time>2023-06-19T09:31:54.547Z</time>
      </trkpt>
      <trkpt lat="46.43583" lon="0.12322">
        <ele>120.92</ele>
        <time>2023-06-19T09:32:56.740Z</time>
      </trkpt>
      <trkpt lat="46.43585" lon="0.12329">
        <ele>120.5</ele>
        <time>2023-06-19T09:33:58.933Z</time>
      </trkpt>
      <trkpt lat="46.43585" lon="0.12333">
        <ele>120.27</ele>
        <time>2023-06-19T09:35:01.127Z</time>
      </trkpt>
      <trkpt lat="46.43586" lon="0.12346">
        <ele>119.67</ele>
        <time>2023-06-19T09:36:03.322Z</time>
      </trkpt>
      <trkpt lat="46.43587" lon="0.12352">
        <ele>119.4</ele>
        <time>2023-06-19T09:37:05.518Z</time>
      </trkpt>
      <trkpt lat="46.43587" lon="0.12356">
        <ele>119.23</ele>
        <time>2023-06-19T09:38:07.714Z</time>
      </trkpt>
      <trkpt lat="46.43589" lon="0.12363">
        <ele>118.92</ele>
        <time>2023-06-19T09:39:09.911Z</time>
      </trkpt>
      <trkpt lat="46.43592" lon="0.12375">
        <ele>118.5</ele>
        <time>2023-06-19T09:40:12.110Z</time>
      </trkpt>
      <trkpt lat="46.43597" lon="0.12391">
        <ele>117.94</ele>
        <time>2023-06-19T09:41:14.311Z</time>
      </trkpt>
      <trkpt lat="46.436" lon="0.124">
        <ele>117.69</ele>
        <time>2023-06-19T09:42:16.513Z</time>
      </trkpt>
      <trkpt lat="46.43605" lon="0.12413">
        <ele>117.28</ele>
        <time>2023-06-19T09:43:18.716Z</time>
      </trkpt>
      <trkpt lat="46.43611" lon="0.12429">
        <ele>117.24</ele>
        <time>2023-06-19T09:44:20.921Z</time>
      </trkpt>
      <trkpt lat="46.43619" lon="0.12447">
        <ele>117.16</ele>
        <time>2023-06-19T09:45:23.129Z</time>
      </trkpt>
      <trkpt lat="46.43626" lon="0.12466">
        <ele>117.05</ele>
        <time>2023-06-19T09:46:25.339Z</time>
      </trkpt>
      <trkpt lat="46.43627" lon="0.1247">
        <ele>117.03</ele>
        <time>2023-06-19T09:47:27.550Z</time>
      </trkpt>
      <trkpt lat="46.43629" lon="0.12483">
        <ele>116.99</ele>
        <time>2023-06-19T09:48:29.762Z</time>
      </trkpt>
      <trkpt lat="46.4363" lon="0.12487">
        <ele>116.98</ele>
        <time>2023-06-19T09:49:31.975Z</time>
      </trkpt>
      <trkpt lat="46.43629" lon="0.12495">
        <ele>116.97</ele>
        <time>2023-06-19T09:50:34.188Z</time>
      </trkpt>
      <trkpt lat="46.43626" lon="0.12514">
        <ele>116.98</ele>
        <time>2023-06-19T09:51:36.404Z</time>
      </trkpt>
      <trkpt lat="46.43624" lon="0.12527">
        <ele>117.41</ele>
        <time>2023-06-19T09:52:38.621Z</time>
      </trkpt>
      <trkpt lat="46.43623" lon="0.12533">
        <ele>117.66</ele>
        <time>2023-06-19T09:53:40.839Z</time>
      </trkpt>
      <trkpt lat="46.43622" lon="0.12539">
        <ele>117.93</ele>
        <time>2023-06-19T09:54:43.057Z</time>
      </trkpt>
      <trkpt lat="46.4362" lon="0.12552">
        <ele>118.53</ele>
        <time>2023-06-19T09:55:45.277Z</time>
      </trkpt>
      <trkpt lat="46.43618" lon="0.12562">
        <ele>119.07</ele>
        <time>2023-06-19T09:56:47.498Z</time>
      </trkpt>
      <trkpt lat="46.43617" lon="0.12571">
        <ele>119.55</ele>
        <time>2023-06-19T09:57:49.720Z</time>
      </trkpt>
      <trkpt lat="46.43616" lon="0.12597">
        <ele>120.95</ele>
        <time>2023-06-19T09:58:51.945Z</time>
      </trkpt>
      <trkpt lat="46.43615" lon="0.1261">
        <ele>121.67</ele>
        <time>2023-06-19T09:59:54.171Z</time>
      </trkpt>
      <trkpt lat="46.43614" lon="0.12629">
        <ele>122.81</ele>
        <time>2023-06-19T10:00:56.400Z</time>
      </trkpt>
      <trkpt lat="46.43614" lon="0.12635">
        <ele>123.17</ele>
        <time>2023-06-19T10:01:58.629Z</time>
      </trkpt>
      <trkpt lat="46.43619" lon="0.12634">
        <ele>123.62</ele>
        <time>2023-06-19T10:03:00.859Z</time>
      </trkpt>
      <trkpt lat="46.43635" lon="0.12632">
        <ele>125.13</ele>
        <time>2023-06-19T10:04:03.092Z</time>
      </trkpt>
      <trkpt lat="46.4365" lon="0.12627">
        <ele>126.55</ele>
        <time>2023-06-19T10:05:05.327Z</time>
      </trkpt>
      <trkpt lat="46.43653" lon="0.12626">
        <ele>126.87</ele>
        <time>2023-06-19T10:06:07.563Z</time>
      </trkpt>
      <trkpt lat="46.43666" lon="0.12646">
        <ele>128.68</ele>
        <time>2023-06-19T10:07:09.802Z</time>
      </trkpt>
      <trkpt lat="46.4367" lon="0.12652">
        <ele>129.21</ele>
        <time>2023-06-19T10:08:12.041Z</time>
      </trkpt>
      <trkpt lat="46.43676" lon="0.12667">
        <ele>130.31</ele>
        <time>2023-06-19T10:09:14.282Z</time>
      </trkpt>
      <trkpt lat="46.43684" lon="0.12687">
        <ele>131.69</ele>
        <time>2023-06-19T10:10:16.526Z</time>
      </trkpt>
      <trkpt lat="46.43688" lon="0.12688">
        <ele>132.01</ele>
        <time>2023-06-19T10:11:18.771Z</time>
      </trkpt>
      <trkpt lat="46.43689" lon="0.12688">
        <ele>132.12</ele>
        <time>2023-06-19T10:12:21.016Z</time>
      </trkpt>
      <trkpt lat="46.43699" lon="0.12685">
        <ele>132.93</ele>
        <time>2023-06-19T10:13:23.262Z</time>
      </trkpt>
      <trkpt lat="46.437" lon="0.12686">
        <ele>133.04</ele>
        <time>2023-06-19T10:14:25.509Z</time>
      </trkpt>
      <trkpt lat="46.43707" lon="0.12693">
        <ele>133.68</ele>
        <time>2023-06-19T10:15:27.757Z</time>
      </trkpt>
      <trkpt lat="46.43711" lon="0.12697">
        <ele>133.97</ele>
        <time>2023-06-19T10:16:30.006Z</time>
      </trkpt>
      <trkpt lat="46.43711" lon="0.12697">
        <ele>133.97</ele>
        <time>2023-06-19T10:17:32.255Z</time>
      </trkpt>
      <trkpt lat="46.43719" lon="0.12702">
        <ele>134.49</ele>
        <time>2023-06-19T10:18:34.505Z</time>
      </trkpt>
      <trkpt lat="46.43724" lon="0.12705">
        <ele>134.71</ele>
        <time>2023-06-19T10:19:36.756Z</time>
      </trkpt>
      <trkpt lat="46.43728" lon="0.12711">
        <ele>134.95</ele>
        <time>2023-06-19T10:20:39.008Z</time>
      </trkpt>
      <trkpt lat="46.43733" lon="0.1272">
        <ele>135.23</ele>
        <time>2023-06-19T10:21:41.261Z</time>
      </trkpt>
      <trkpt lat="46.4374" lon="0.12731">
        <ele>135.48</ele>
        <time>2023-06-19T10:22:43.516Z</time>
      </trkpt>
      <trkpt lat="46.4376" lon="0.12764">
        <ele>136.31</ele>
        <time>2023-06-19T10:23:45.776Z</time>
      </trkpt>
      <trkpt lat="46.43764" lon="0.12766">
        <ele>136.43</ele>
        <time>2023-06-19T10:24:48.036Z</time>
      </trkpt>
      <trkpt lat="46.43767" lon="0.12767">
        <ele>136.5</ele>
        <time>2023-06-19T10:25:50.297Z</time>
      </trkpt>
      <trkpt lat="46.43771" lon="0.12761">
        <ele>136.64</ele>
        <time>2023-06-19T10:26:52.559Z</time>
      </trkpt>
      <trkpt lat="46.43771" lon="0.12749">
        <ele>136.86</ele>
        <time>2023-06-19T10:27:54.822Z</time>
      </trkpt>
      <trkpt lat="46.43771" lon="0.12748">
        <ele>136.86</ele>
        <time>2023-06-19T10:28:57.085Z</time>
      </trkpt>
      <trkpt lat="46.43764" lon="0.12722">
        <ele>136.73</ele>
        <time>2023-06-19T10:29:59.351Z</time>
      </trkpt>
      <trkpt lat="46.43762" lon="0.12713">
        <ele>136.27</ele>
        <time>2023-06-19T10:31:01.618Z</time>
      </trkpt>
      <trkpt lat="46.43762" lon="0.1271">
        <ele>136.12</ele>
        <time>2023-06-19T10:32:03.886Z</time>
      </trkpt>
      <trkpt lat="46.4376" lon="0.12698">
        <ele>135.4</ele>
        <time>2023-06-19T10:33:06.155Z</time>
      </trkpt>
      <trkpt lat="46.43759" lon="0.12692">
        <ele>135.01</ele>
        <time>2023-06-19T10:34:08.425Z</time>
      </trkpt>
      <trkpt lat="46.43759" lon="0.12692">
        <ele>135.01</ele>
        <time>2023-06-19T10:35:10.695Z</time>
      </trkpt>
      <trkpt lat="46.43754" lon="0.12684">
        <ele>134.25</ele>
        <time>2023-06-19T10:36:12.966Z</time>
      </trkpt>
      <trkpt lat="46.43754" lon="0.12684">
        <ele>139.11</ele>
        <time>2023-06-19T10:37:15.237Z</time>
      </trkpt>
      <trkpt lat="46.43748" lon="0.12673">
        <ele>139.88</ele>
        <time>2023-06-19T10:38:17.509Z</time>
      </trkpt>
      <trkpt lat="46.43748" lon="0.12673">
        <ele>133.28</ele>
        <time>2023-06-19T10:39:19.781Z</time>
      </trkpt>
      <trkpt lat="46.43743" lon="0.12664">
        <ele>134.17</ele>
        <time>2023-06-19T10:40:22.055Z</time>
      </trkpt>
      <trkpt lat="46.43741" lon="0.12661">
        <ele>134.42</ele>
        <time>2023-06-19T10:41:24.329Z</time>
      </trkpt>
      <trkpt lat="46.43738" lon="0.12654">
        <ele>135.01</ele>
        <time>2023-06-19T10:42:26.604Z</time>
      </trkpt>
      <trkpt lat="46.43736" lon="0.12649">
        <ele>135.4</ele>
        <time>2023-06-19T10:43:28.880Z</time>
      </trkpt>
      <trkpt lat="46.43731" lon="0.12638">
        <ele>136.12</ele>
        <time>2023-06-19T10:44:31.157Z</time>
      </trkpt>
      <trkpt lat="46.43727" lon="0.12628">
        <ele>136.73</ele>
        <time>2023-06-19T10:45:33.436Z</time>
      </trkpt>
      <trkpt lat="46.43718" lon="0.12608">
        <ele>136.57</ele>
        <time>2023-06-19T10:46:35.717Z</time>
      </trkpt>
      <trkpt lat="46.4371" lon="0.12589">
        <ele>136.36</ele>
        <time>2023-06-19T10:47:38.001Z</time>
      </trkpt>
      <trkpt lat="46.43696" lon="0.12556">
        <ele>135.81</ele>
        <time>2023-06-19T10:48:40.289Z</time>
      </trkpt>
      <trkpt lat="46.43695" lon="0.12539">
        <ele>135.58</ele>
        <time>2023-06-19T10:49:42.579Z</time>
      </trkpt>
      <trkpt lat="46.43694" lon="0.12526">
        <ele>135.28</ele>
        <time>2023-06-19T10:50:44.870Z</time>
      </trkpt>
      <trkpt lat="46.43691" lon="0.12491">
        <ele>134.38</ele>
        <time>2023-06-19T10:51:47.165Z</time>
      </trkpt>
      <trkpt lat="46.43689" lon="0.12462">
        <ele>133.47</ele>
        <time>2023-06-19T10:52:49.463Z</time>
      </trkpt>
      <trkpt lat="46.43688" lon="0.12449">
        <ele>133.14</ele>
        <time>2023-06-19T10:53:51.763Z</time>
      </trkpt>
      <trkpt lat="46.43687" lon="0.12443">
        <ele>132.99</ele>
        <time>2023-06-19T10:54:54.063Z</time>
      </trkpt>
      <trkpt lat="46.43685" lon="0.12431">
        <ele>132.7</ele>
        <time>2023-06-19T10:55:56.365Z</time>
      </trkpt>
      <trkpt lat="46.43681" lon="0.12413">
        <ele>132.2</ele>
        <time>2023-06-19T10:56:58.669Z</time>
      </trkpt>
      <trkpt lat="46.43683" lon="0.12407">
        <ele>132.04</ele>
        <time>2023-06-19T10:58:00.974Z</time>
      </trkpt>
      <trkpt lat="46.43688" lon="0.1239">
        <ele>131.58</ele>
        <time>2023-06-19T10:59:03.281Z</time>
      </trkpt>
      <trkpt lat="46.43691" lon="0.12379">
        <ele>131.44</ele>
        <time>2023-06-19T11:00:05.589Z</time>
      </trkpt>
      <trkpt lat="46.43693" lon="0.12372">
        <ele>131.36</ele>
        <time>2023-06-19T11:01:07.898Z</time>
      </trkpt>
      <trkpt lat="46.43696" lon="0.12372">
        <ele>131.33</ele>
        <time>2023-06-19T11:02:10.207Z</time>
      </trkpt>
      <trkpt lat="46.43708" lon="0.12374">
        <ele>131.29</ele>
        <time>2023-06-19T11:03:12.518Z</time>
      </trkpt>
      <trkpt lat="46.43716" lon="0.12375">
        <ele>131.37</ele>
        <time>2023-06-19T11:04:14.831Z</time>
      </trkpt>
      <trkpt lat="46.43728" lon="0.12377">
        <ele>131.55</ele>
        <time>2023-06-19T11:05:17.145Z</time>
      </trkpt>
      <trkpt lat="46.43735" lon="0.12378">
        <ele>131.81</ele>
        <time>2023-06-19T11:06:19.461Z</time>
      </trkpt>
      <trkpt lat="46.43736" lon="0.12377">
        <ele>131.86</ele>
        <time>2023-06-19T11:07:21.777Z</time>
      </trkpt>
      <trkpt lat="46.43749" lon="0.1236">
        <ele>132.55</ele>
        <time>2023-06-19T11:08:24.096Z</time>
      </trkpt>
      <trkpt lat="46.43752" lon="0.12354">
        <ele>132.75</ele>
        <time>2023-06-19T11:09:26.415Z</time>
      </trkpt>
      <trkpt lat="46.43757" lon="0.12344">
        <ele>133.03</ele>
        <time>2023-06-19T11:10:28.736Z</time>
      </trkpt>
      <trkpt lat="46.43759" lon="0.12338">
        <ele>133.15</ele>
        <time>2023-06-19T11:11:31.057Z</time>
      </trkpt>
      <trkpt lat="46.43761" lon="0.12334">
        <ele>133.23</ele>
        <time>2023-06-19T11:12:33.379Z</time>
      </trkpt>
      <trkpt lat="46.43761" lon="0.12333">
        <ele>133.23</ele>
        <time>2023-06-19T11:13:35.701Z</time>
      </trkpt>
      <trkpt lat="46.43764" lon="0.12327">
        <ele>133.3</ele>
        <time>2023-06-19T11:14:38.024Z</time>
      </trkpt>
      <trkpt lat="46.43766" lon="0.12322">
        <ele>133.32</ele>
        <time>2023-06-19T11:15:40.348Z</time>
      </trkpt>
      <trkpt lat="46.43768" lon="0.12316">
        <ele>133.3</ele>
        <time>2023-06-19T11:16:42.672Z</time>
      </trkpt>
      <trkpt lat="46.43769" lon="0.12313">
        <ele>133.25</ele>
        <time>2023-06-19T11:17:44.997Z</time>
      </trkpt>
      <trkpt lat="46.43771" lon="0.12305">
        <ele>133.15</ele>
        <time>2023-06-19T11:18:47.323Z</time>
      </trkpt>
      <trkpt lat="46.43774" lon="0.12295">
        <ele>132.95</ele>
        <time>2023-06-19T11:19:49.650Z</time>
      </trkpt>
      <trkpt lat="46.43775" lon="0.12286">
        <ele>132.78</ele>
        <time>2023-06-19T11:20:51.978Z</time>
      </trkpt>
      <trkpt lat="46.43776" lon="0.1228">
        <ele>132.9</ele>
        <time>2023-06-19T11:21:54.307Z</time>
      </trkpt>
      <trkpt lat="46.43779" lon="0.12256">
        <ele>132.99</ele>
        <time>2023-06-19T11:22:56.638Z</time>
      </trkpt>
      <trkpt lat="46.43786" lon="0.12211">
        <ele>132.57</ele>
        <time>2023-06-19T11:23:58.974Z</time>
      </trkpt>
      <trkpt lat="46.43786" lon="0.12209">
        <ele>132.54</ele>
        <time>2023-06-19T11:25:01.311Z</time>
      </trkpt>
      <trkpt lat="46.43789" lon="0.122">
        <ele>132.39</ele>
        <time>2023-06-19T11:26:03.649Z</time>
      </trkpt>
      <trkpt lat="46.43803" lon="0.12161">
        <ele>131.58</ele>
        <time>2023-06-19T11:27:05.992Z</time>
      </trkpt>
      <trkpt lat="46.43809" lon="0.12146">
        <ele>130.6</ele>
        <time>2023-06-19T11:28:08.336Z</time>
      </trkpt>
      <trkpt lat="46.43811" lon="0.12142">
        <ele>130.29</ele>
        <time>2023-06-19T11:29:10.681Z</time>
      </trkpt>
      <trkpt lat="46.43817" lon="0.12132">
        <ele>128.16</ele>
        <time>2023-06-19T11:30:13.027Z</time>
      </trkpt>
      <trkpt lat="46.43822" lon="0.12122">
        <ele>126.14</ele>
        <time>2023-06-19T11:31:15.375Z</time>
      </trkpt>
      <trkpt lat="46.43825" lon="0.12117">
        <ele>125.21</ele>
        <time>2023-06-19T11:32:17.724Z</time>
      </trkpt>
      <trkpt lat="46.43827" lon="0.12112">
        <ele>124.35</ele>
        <time>2023-06-19T11:33:20.073Z</time>
      </trkpt>
      <trkpt lat="46.4383" lon="0.12107">
        <ele>123.56</ele>
        <time>2023-06-19T11:34:22.423Z</time>
      </trkpt>
      <trkpt lat="46.43832" lon="0.12102">
        <ele>122.85</ele>
        <time>2023-06-19T11:35:24.774Z</time>
      </trkpt>
      <trkpt lat="46.43835" lon="0.12097">
        <ele>122.2</ele>
        <time>2023-06-19T11:36:27.125Z</time>
      </trkpt>
      <trkpt lat="46.43838" lon="0.12092">
        <ele>121.61</ele>
        <time>2023-06-19T11:37:29.477Z</time>
      </trkpt>
      <trkpt lat="46.4384" lon="0.12087">
        <ele>121.06</ele>
        <time>2023-06-19T11:38:31.830Z</time>
      </trkpt>
      <trkpt lat="46.43843" lon="0.12082">
        <ele>120.55</ele>
        <time>2023-06-19T11:39:34.183Z</time>
      </trkpt>
      <trkpt lat="46.43849" lon="0.12071">
        <ele>119.49</ele>
        <time>2023-06-19T11:40:36.538Z</time>
      </trkpt>
      <trkpt lat="46.43854" lon="0.12063">
        <ele>118.68</ele>
        <time>2023-06-19T11:41:38.894Z</time>
      </trkpt>
      <trkpt lat="46.43857" lon="0.12059">
        <ele>118.18</ele>
        <time>2023-06-19T11:42:41.251Z</time>
      </trkpt>
      <trkpt lat="46.43864" lon="0.1205">
        <ele>117.09</ele>
        <time>2023-06-19T11:43:43.609Z</time>
      </trkpt>
      <trkpt lat="46.43868" lon="0.12044">
        <ele>116.21</ele>
        <time>2023-06-19T11:44:45.968Z</time>
      </trkpt>
      <trkpt lat="46.4387" lon="0.12047">
        <ele>115.85</ele>
        <time>2023-06-19T11:45:48.328Z</time>
      </trkpt>
      <trkpt lat="46.43876" lon="0.12055">
        <ele>113.76</ele>
        <time>2023-06-19T11:46:50.689Z</time>
      </trkpt>
      <trkpt lat="46.43879" lon="0.12059">
        <ele>112.77</ele>
        <time>2023-06-19T11:47:53.051Z</time>
      </trkpt>
      <trkpt lat="46.43885" lon="0.12068">
        <ele>110.93</ele>
        <time>2023-06-19T11:48:55.414Z</time>
      </trkpt>
      <trkpt lat="46.43892" lon="0.12076">
        <ele>109.23</ele>
        <time>2023-06-19T11:49:57.778Z</time>
      </trkpt>
      <trkpt lat="46.43895" lon="0.1208">
        <ele>108.44</ele>
        <time>2023-06-19T11:51:00.143Z</time>
      </trkpt>
      <trkpt lat="46.43901" lon="0.12089">
        <ele>106.97</ele>
        <time>2023-06-19T11:52:02.509Z</time>
      </trkpt>
      <trkpt lat="46.43904" lon="0.12093">
        <ele>106.3</ele>
        <time>2023-06-19T11:53:04.876Z</time>
      </trkpt>
      <trkpt lat="46.43911" lon="0.12102">
        <ele>105.1</ele>
        <time>2023-06-19T11:54:07.245Z</time>
      </trkpt>
      <trkpt lat="46.43911" lon="0.12102">
        <ele>105.1</ele>
        <time>2023-06-19T11:55:09.614Z</time>
      </trkpt>
      <trkpt lat="46.43915" lon="0.12098">
        <ele>104.95</ele>
        <time>2023-06-19T11:56:11.983Z</time>
      </trkpt>
      <trkpt lat="46.43918" lon="0.12108">
        <ele>104.75</ele>
        <time>2023-06-19T11:57:14.354Z</time>
      </trkpt>
      <trkpt lat="46.4392" lon="0.12113">
        <ele>104.66</ele>
        <time>2023-06-19T11:58:16.725Z</time>
      </trkpt>
      <trkpt lat="46.4392" lon="0.12113">
        <ele>104.66</ele>
        <time>2023-06-19T11:59:19.096Z</time>
      </trkpt>
      <trkpt lat="46.43927" lon="0.12122">
        <ele>104.52</ele>
        <time>2023-06-19T12:00:21.469Z</time>
      </trkpt>
      <trkpt lat="46.43938" lon="0.12133">
        <ele>104.42</ele>
        <time>2023-06-19T12:01:23.844Z</time>
      </trkpt>
      <trkpt lat="46.43952" lon="0.12149">
        <ele>104.36</ele>
        <time>2023-06-19T12:02:26.222Z</time>
      </trkpt>
      <trkpt lat="46.43959" lon="0.12158">
        <ele>104.35</ele>
        <time>2023-06-19T12:03:28.601Z</time>
      </trkpt>
      <trkpt lat="46.43959" lon="0.12158">
        <ele>104.35</ele>
        <time>2023-06-19T12:04:30.980Z</time>
      </trkpt>
      <trkpt lat="46.43965" lon="0.12166">
        <ele>104.43</ele>
        <time>2023-06-19T12:05:33.361Z</time>
      </trkpt>
      <trkpt lat="46.43968" lon="0.12171">
        <ele>104.5</ele>
        <time>2023-06-19T12:06:35.742Z</time>
      </trkpt>
      <trkpt lat="46.43973" lon="0.12178">
        <ele>104.68</ele>
        <time>2023-06-19T12:07:38.124Z</time>
      </trkpt>
      <trkpt lat="46.43974" lon="0.1218">
        <ele>104.73</ele>
        <time>2023-06-19T12:08:40.507Z</time>
      </trkpt>
      <trkpt lat="46.43985" lon="0.12192">
        <ele>105.12</ele>
        <time>2023-06-19T12:09:42.892Z</time>
      </trkpt>
      <trkpt lat="46.43988" lon="0.12196">
        <ele>105.23</ele>
        <time>2023-06-19T12:10:45.277Z</time>
      </trkpt>
      <trkpt lat="46.43991" lon="0.122">
        <ele>105.32</ele>
        <time>2023-06-19T12:11:47.663Z</time>
      </trkpt>
      <trkpt lat="46.43995" lon="0.12205">
        <ele>105.38</ele>
        <time>2023-06-19T12:12:50.050Z</time>
      </trkpt>
      <trkpt lat="46.44002" lon="0.12213">
        <ele>105.46</ele>
        <time>2023-06-19T12:13:52.438Z</time>
      </trkpt>
      <trkpt lat="46.44018" lon="0.12233">
        <ele>105.55</ele>
        <time>2023-06-19T12:14:54.830Z</time>
      </trkpt>
      <trkpt lat="46.44035" lon="0.12254">
        <ele>105.56</ele>
        <time>2023-06-19T12:15:57.225Z</time>
      </trkpt>
      <trkpt lat="46.44037" lon="0.12256">
        <ele>105.56</ele>
        <time>2023-06-19T12:16:59.621Z</time>
      </trkpt>
      <trkpt lat="46.44044" lon="0.12254">
        <ele>105.59</ele>
        <time>2023-06-19T12:18:02.018Z</time>
      </trkpt>
      <trkpt lat="46.44057" lon="0.1225">
        <ele>105.69</ele>
        <time>2023-06-19T12:19:04.417Z</time>
      </trkpt>
      <trkpt lat="46.44079" lon="0.12244">
        <ele>105.93</ele>
        <time>2023-06-19T12:20:06.820Z</time>
      </trkpt>
      <trkpt lat="46.44079" lon="0.12244">
        <ele>105.93</ele>
        <time>2023-06-19T12:21:09.223Z</time>
      </trkpt>
      <trkpt lat="46.44107" lon="0.1223">
        <ele>106.05</ele>
        <time>2023-06-19T12:22:11.630Z</time>
      </trkpt>
      <trkpt lat="46.44126" lon="0.1222">
        <ele>105.77</ele>
        <time>2023-06-19T12:23:14.041Z</time>
      </trkpt>
      <trkpt lat="46.44147" lon="0.1221">
        <ele>105.41</ele>
        <time>2023-06-19T12:24:16.455Z</time>
      </trkpt>
      <trkpt lat="46.44159" lon="0.12203">
        <ele>105.25</ele>
        <time>2023-06-19T12:25:18.871Z</time>
      </trkpt>
      <trkpt lat="46.44168" lon="0.12199">
        <ele>105.18</ele>
        <time>2023-06-19T12:26:21.289Z</time>
      </trkpt>
      <trkpt lat="46.44176" lon="0.12195">
        <ele>105.17</ele>
        <time>2023-06-19T12:27:23.708Z</time>
      </trkpt>
      <trkpt lat="46.44197" lon="0.12185">
        <ele>105.2</ele>
        <time>2023-06-19T12:28:26.131Z</time>
      </trkpt>
      <trkpt lat="46.44217" lon="0.12174">
        <ele>105.27</ele>
        <time>2023-06-19T12:29:28.557Z</time>
      </trkpt>
      <trkpt lat="46.44222" lon="0.12172">
        <ele>105.29</ele>
        <time>2023-06-19T12:30:30.984Z</time>
      </trkpt>
      <trkpt lat="46.44264" lon="0.12162">
        <ele>105.47</ele>
        <time>2023-06-19T12:31:33.418Z</time>
      </trkpt>
      <trkpt lat="46.44273" lon="0.12162">
        <ele>105.51</ele>
        <time>2023-06-19T12:32:35.853Z</time>
      </trkpt>
      <trkpt lat="46.4431" lon="0.12164">
        <ele>105.61</ele>
        <time>2023-06-19T12:33:38.294Z</time>
      </trkpt>
      <trkpt lat="46.44336" lon="0.12166">
        <ele>105.65</ele>
        <time>2023-06-19T12:34:40.739Z</time>
      </trkpt>
      <trkpt lat="46.44354" lon="0.12166">
        <ele>105.73</ele>
        <time>2023-06-19T12:35:43.187Z</time>
      </trkpt>
      <trkpt lat="46.44367" lon="0.12167">
        <ele>105.76</ele>
        <time>2023-06-19T12:36:45.637Z</time>
      </trkpt>
      <trkpt lat="46.44379" lon="0.12176">
        <ele>105.81</ele>
        <time>2023-06-19T12:37:48.089Z</time>
      </trkpt>
      <trkpt lat="46.44428" lon="0.1221">
        <ele>106.17</ele>
        <time>2023-06-19T12:38:50.550Z</time>
      </trkpt>
      <trkpt lat="46.44453" lon="0.12228">
        <ele>106.23</ele>
        <time>2023-06-19T12:39:53.015Z</time>
      </trkpt>
      <trkpt lat="46.44458" lon="0.12236">
        <ele>106.25</ele>
        <time>2023-06-19T12:40:55.482Z</time>
      </trkpt>
      <trkpt lat="46.44463" lon="0.12243">
        <ele>106.28</ele>
        <time>2023-06-19T12:41:57.950Z</time>
      </trkpt>
      <trkpt lat="46.44463" lon="0.12243">
        <ele>113.48</ele>
        <time>2023-06-19T12:43:00.418Z</time>
      </trkpt>
      <trkpt lat="46.4447" lon="0.12254">
        <ele>114.42</ele>
        <time>2023-06-19T12:44:02.888Z</time>
      </trkpt>
      <trkpt lat="46.44477" lon="0.12264">
        <ele>115.13</ele>
        <time>2023-06-19T12:45:05.359Z</time>
      </trkpt>
      <trkpt lat="46.44484" lon="0.12275">
        <ele>115.93</ele>
        <time>2023-06-19T12:46:07.832Z</time>
      </trkpt>
      <trkpt lat="46.44491" lon="0.12286">
        <ele>117.22</ele>
        <time>2023-06-19T12:47:10.306Z</time>
      </trkpt>
      <trkpt lat="46.44498" lon="0.12297">
        <ele>119.66</ele>
        <time>2023-06-19T12:48:12.782Z</time>
      </trkpt>
      <trkpt lat="46.44505" lon="0.12307">
        <ele>121.36</ele>
        <time>2023-06-19T12:49:15.260Z</time>
      </trkpt>
      <trkpt lat="46.44511" lon="0.12317">
        <ele>123.18</ele>
        <time>2023-06-19T12:50:17.739Z</time>
      </trkpt>
      <trkpt lat="46.44525" lon="0.12338">
        <ele>127.69</ele>
        <time>2023-06-19T12:51:20.221Z</time>
      </trkpt>
      <trkpt lat="46.44532" lon="0.12348">
        <ele>128.78</ele>
        <time>2023-06-19T12:52:22.705Z</time>
      </trkpt>
      <trkpt lat="46.44539" lon="0.12359">
        <ele>129.57</ele>
        <time>2023-06-19T12:53:25.191Z</time>
      </trkpt>
      <trkpt lat="46.44546" lon="0.12371">
        <ele>129.96</ele>
        <time>2023-06-19T12:54:27.678Z</time>
      </trkpt>
      <trkpt lat="46.44553" lon="0.12381">
        <ele>130.16</ele>
        <time>2023-06-19T12:55:30.167Z</time>
      </trkpt>
      <trkpt lat="46.4456" lon="0.12391">
        <ele>130.29</ele>
        <time>2023-06-19T12:56:32.657Z</time>
      </trkpt>
      <trkpt lat="46.44567" lon="0.12403">
        <ele>130.48</ele>
        <time>2023-06-19T12:57:35.149Z</time>
      </trkpt>
      <trkpt lat="46.44576" lon="0.12416">
        <ele>130.85</ele>
        <time>2023-06-19T12:58:37.643Z</time>
      </trkpt>
      <trkpt lat="46.44576" lon="0.12416">
        <ele>122.35</ele>
        <time>2023-06-19T12:59:40.137Z</time>
      </trkpt>
      <trkpt lat="46.44584" lon="0.12428">
        <ele>122.54</ele>
        <time>2023-06-19T13:00:42.633Z</time>
      </trkpt>
      <trkpt lat="46.44586" lon="0.12431">
        <ele>122.62</ele>
        <time>2023-06-19T13:01:45.129Z</time>
      </trkpt>
      <trkpt lat="46.44588" lon="0.12439">
        <ele>122.79</ele>
        <time>2023-06-19T13:02:47.626Z</time>
      </trkpt>
      <trkpt lat="46.44591" lon="0.12451">
        <ele>123.06</ele>
        <time>2023-06-19T13:03:50.125Z</time>
      </trkpt>
      <trkpt lat="46.44594" lon="0.12463">
        <ele>123.35</ele>
        <time>2023-06-19T13:04:52.625Z</time>
      </trkpt>
      <trkpt lat="46.44602" lon="0.12494">
        <ele>124.17</ele>
        <time>2023-06-19T13:05:55.129Z</time>
      </trkpt>
      <trkpt lat="46.44604" lon="0.125">
        <ele>124.31</ele>
        <time>2023-06-19T13:06:57.634Z</time>
      </trkpt>
      <trkpt lat="46.44607" lon="0.12512">
        <ele>124.56</ele>
        <time>2023-06-19T13:08:00.140Z</time>
      </trkpt>
      <trkpt lat="46.4461" lon="0.12524">
        <ele>124.78</ele>
        <time>2023-06-19T13:09:02.647Z</time>
      </trkpt>
      <trkpt lat="46.44615" lon="0.12542">
        <ele>125.08</ele>
        <time>2023-06-19T13:10:05.157Z</time>
      </trkpt>
      <trkpt lat="46.44616" lon="0.12546">
        <ele>125.13</ele>
        <time>2023-06-19T13:11:07.667Z</time>
      </trkpt>
      <trkpt lat="46.44617" lon="0.12555">
        <ele>125.26</ele>
        <time>2023-06-19T13:12:10.178Z</time>
      </trkpt>
      <trkpt lat="46.44618" lon="0.12568">
        <ele>125.41</ele>
        <time>2023-06-19T13:13:12.690Z</time>
      </trkpt>
      <trkpt lat="46.44619" lon="0.12587">
        <ele>125.57</ele>
        <time>2023-06-19T13:14:15.205Z</time>
      </trkpt>
      <trkpt lat="46.4462" lon="0.12594">
        <ele>125.6</ele>
        <time>2023-06-19T13:15:17.720Z</time>
      </trkpt>
      <trkpt lat="46.44621" lon="0.12613">
        <ele>125.6</ele>
        <time>2023-06-19T13:16:20.238Z</time>
      </trkpt>
      <trkpt lat="46.44622" lon="0.12621">
        <ele>125.55</ele>
        <time>2023-06-19T13:17:22.756Z</time>
      </trkpt>
      <trkpt lat="46.44622" lon="0.12626">
        <ele>125.52</ele>
        <time>2023-06-19T13:18:25.275Z</time>
      </trkpt>
      <trkpt lat="46.44621" lon="0.12639">
        <ele>125.39</ele>
        <time>2023-06-19T13:19:27.795Z</time>
      </trkpt>
      <trkpt lat="46.44621" lon="0.12652">
        <ele>125.23</ele>
        <time>2023-06-19T13:20:30.317Z</time>
      </trkpt>
      <trkpt lat="46.4462" lon="0.12671">
        <ele>124.92</ele>
        <time>2023-06-19T13:21:32.841Z</time>
      </trkpt>
      <trkpt lat="46.44619" lon="0.12696">
        <ele>124.47</ele>
        <time>2023-06-19T13:22:35.368Z</time>
      </trkpt>
      <trkpt lat="46.44623" lon="0.12709">
        <ele>124.22</ele>
        <time>2023-06-19T13:23:37.896Z</time>
      </trkpt>
      <trkpt lat="46.44635" lon="0.12744">
        <ele>123.59</ele>
        <time>2023-06-19T13:24:40.429Z</time>
      </trkpt>
      <trkpt lat="46.44641" lon="0.12761">
        <ele>123.24</ele>
        <time>2023-06-19T13:25:42.964Z</time>
      </trkpt>
      <trkpt lat="46.44649" lon="0.12791">
        <ele>122.65</ele>
        <time>2023-06-19T13:26:45.502Z</time>
      </trkpt>
      <trkpt lat="46.44663" lon="0.1284">
        <ele>121.76</ele>
        <time>2023-06-19T13:27:48.046Z</time>
      </trkpt>
      <trkpt lat="46.44665" lon="0.12852">
        <ele>121.55</ele>
        <time>2023-06-19T13:28:50.592Z</time>
      </trkpt>
      <trkpt lat="46.4467" lon="0.12877">
        <ele>121.13</ele>
        <time>2023-06-19T13:29:53.140Z</time>
      </trkpt>
      <trkpt lat="46.44678" lon="0.12914">
        <ele>120.44</ele>
        <time>2023-06-19T13:30:55.693Z</time>
      </trkpt>
      <trkpt lat="46.4468" lon="0.12927">
        <ele>120.23</ele>
        <time>2023-06-19T13:31:58.247Z</time>
      </trkpt>
      <trkpt lat="46.44686" lon="0.12945">
        <ele>119.93</ele>
        <time>2023-06-19T13:33:00.803Z</time>
      </trkpt>
      <trkpt lat="46.44699" lon="0.12986">
        <ele>119.25</ele>
        <time>2023-06-19T13:34:03.364Z</time>
      </trkpt>
      <trkpt lat="46.44705" lon="0.13004">
        <ele>118.89</ele>
        <time>2023-06-19T13:35:05.928Z</time>
      </trkpt>
      <trkpt lat="46.44725" lon="0.13046">
        <ele>117.99</ele>
        <time>2023-06-19T13:36:08.497Z</time>
      </trkpt>
      <trkpt lat="46.44728" lon="0.13051">
        <ele>117.88</ele>
        <time>2023-06-19T13:37:11.067Z</time>
      </trkpt>
      <trkpt lat="46.44731" lon="0.13055">
        <ele>117.78</ele>
        <time>2023-06-19T13:38:13.638Z</time>
      </trkpt>
      <trkpt lat="46.44749" lon="0.13076">
        <ele>117.33</ele>
        <time>2023-06-19T13:39:16.212Z</time>
      </trkpt>
      <trkpt lat="46.44756" lon="0.13084">
        <ele>117.13</ele>
        <time>2023-06-19T13:40:18.788Z</time>
      </trkpt>
      <trkpt lat="46.4478" lon="0.13112">
        <ele>116.32</ele>
        <time>2023-06-19T13:41:21.369Z</time>
      </trkpt>
      <trkpt lat="46.4478" lon="0.13112">
        <ele>116.32</ele>
        <time>2023-06-19T13:42:23.950Z</time>
      </trkpt>
      <trkpt lat="46.44808" lon="0.13132">
        <ele>115.59</ele>
        <time>2023-06-19T13:43:26.536Z</time>
      </trkpt>
      <trkpt lat="46.44816" lon="0.13138">
        <ele>115.4</ele>
        <time>2023-06-19T13:44:29.123Z</time>
      </trkpt>
      <trkpt lat="46.44821" lon="0.1314">
        <ele>115.3</ele>
        <time>2023-06-19T13:45:31.711Z</time>
      </trkpt>
      <trkpt lat="46.44829" lon="0.13144">
        <ele>115.14</ele>
        <time>2023-06-19T13:46:34.300Z</time>
      </trkpt>
      <trkpt lat="46.44842" lon="0.13147">
        <ele>114.91</ele>
        <time>2023-06-19T13:47:36.891Z</time>
      </trkpt>
      <trkpt lat="46.44851" lon="0.1315">
        <ele>114.78</ele>
        <time>2023-06-19T13:48:39.484Z</time>
      </trkpt>
      <trkpt lat="46.44865" lon="0.13153">
        <ele>114.61</ele>
        <time>2023-06-19T13:49:42.079Z</time>
      </trkpt>
      <trkpt lat="46.44865" lon="0.13153">
        <ele>114.61</ele>
        <time>2023-06-19T13:50:44.674Z</time>
      </trkpt>
      <trkpt lat="46.4488" lon="0.13165">
        <ele>115.05</ele>
        <time>2023-06-19T13:51:47.272Z</time>
      </trkpt>
      <trkpt lat="46.44896" lon="0.13178">
        <ele>115.35</ele>
        <time>2023-06-19T13:52:49.873Z</time>
      </trkpt>
      <trkpt lat="46.44896" lon="0.13178">
        <ele>115.35</ele>
        <time>2023-06-19T13:53:52.474Z</time>
      </trkpt>
      <trkpt lat="46.44912" lon="0.13188">
        <ele>115.68</ele>
        <time>2023-06-19T13:54:55.078Z</time>
      </trkpt>
      <trkpt lat="46.44921" lon="0.13193">
        <ele>115.86</ele>
        <time>2023-06-19T13:55:57.683Z</time>
      </trkpt>
      <trkpt lat="46.44925" lon="0.13196">
        <ele>115.96</ele>
        <time>2023-06-19T13:57:00.289Z</time>
      </trkpt>
      <trkpt lat="46.44929" lon="0.13196">
        <ele>116.06</ele>
        <time>2023-06-19T13:58:02.895Z</time>
      </trkpt>
      <trkpt lat="46.44943" lon="0.13197">
        <ele>116.43</ele>
        <time>2023-06-19T13:59:05.504Z</time>
      </trkpt>
      <trkpt lat="46.4495" lon="0.13197">
        <ele>116.66</ele>
        <time>2023-06-19T14:00:08.114Z</time>
      </trkpt>
      <trkpt lat="46.44961" lon="0.13195">
        <ele>117</ele>
        <time>2023-06-19T14:01:10.726Z</time>
      </trkpt>
      <trkpt lat="46.44979" lon="0.13192">
        <ele>117.5</ele>
        <time>2023-06-19T14:02:13.341Z</time>
      </trkpt>
      <trkpt lat="46.45004" lon="0.1318">
        <ele>118.22</ele>
        <time>2023-06-19T14:03:15.960Z</time>
      </trkpt>
      <trkpt lat="46.45012" lon="0.13176">
        <ele>118.41</ele>
        <time>2023-06-19T14:04:18.580Z</time>
      </trkpt>
      <trkpt lat="46.45021" lon="0.13172">
        <ele>118.52</ele>
        <time>2023-06-19T14:05:21.202Z</time>
      </trkpt>
      <trkpt lat="46.45033" lon="0.13166">
        <ele>118.6</ele>
        <time>2023-06-19T14:06:23.826Z</time>
      </trkpt>
      <trkpt lat="46.45042" lon="0.13159">
        <ele>118.67</ele>
        <time>2023-06-19T14:07:26.451Z</time>
      </trkpt>
      <trkpt lat="46.45049" lon="0.13153">
        <ele>118.79</ele>
        <time>2023-06-19T14:08:29.078Z</time>
      </trkpt>
      <trkpt lat="46.45077" lon="0.1313">
        <ele>119.41</ele>
        <time>2023-06-19T14:09:31.710Z</time>
      </trkpt>
      <trkpt lat="46.45078" lon="0.13129">
        <ele>119.44</ele>
        <time>2023-06-19T14:10:34.342Z</time>
      </trkpt>
      <trkpt lat="46.45084" lon="0.13122">
        <ele>119.62</ele>
        <time>2023-06-19T14:11:36.975Z</time>
      </trkpt>
      <trkpt lat="46.45102" lon="0.13103">
        <ele>120.21</ele>
        <time>2023-06-19T14:12:39.612Z</time>
      </trkpt>
      <trkpt lat="46.45105" lon="0.13099">
        <ele>120.29</ele>
        <time>2023-06-19T14:13:42.249Z</time>
      </trkpt>
      <trkpt lat="46.45118" lon="0.1308">
        <ele>120.68</ele>
        <time>2023-06-19T14:14:44.889Z</time>
      </trkpt>
      <trkpt lat="46.45137" lon="0.13052">
        <ele>121.12</ele>
        <time>2023-06-19T14:15:47.534Z</time>
      </trkpt>
      <trkpt lat="46.45142" lon="0.13045">
        <ele>121.2</ele>
        <time>2023-06-19T14:16:50.180Z</time>
      </trkpt>
      <trkpt lat="46.45152" lon="0.13028">
        <ele>121.4</ele>
        <time>2023-06-19T14:17:52.828Z</time>
      </trkpt>
      <trkpt lat="46.45175" lon="0.12988">
        <ele>121.94</ele>
        <time>2023-06-19T14:18:55.482Z</time>
      </trkpt>
      <trkpt lat="46.45187" lon="0.1296">
        <ele>122.28</ele>
        <time>2023-06-19T14:19:58.140Z</time>
      </trkpt>
      <trkpt lat="46.45199" lon="0.12932">
        <ele>122.57</ele>
        <time>2023-06-19T14:21:00.801Z</time>
      </trkpt>
      <trkpt lat="46.45208" lon="0.12919">
        <ele>122.74</ele>
        <time>2023-06-19T14:22:03.464Z</time>
      </trkpt>
      <trkpt lat="46.45215" lon="0.1291">
        <ele>122.9</ele>
        <time>2023-06-19T14:23:06.129Z</time>
      </trkpt>
      <trkpt lat="46.45218" lon="0.12905">
        <ele>123</ele>
        <time>2023-06-19T14:24:08.795Z</time>
      </trkpt>
      <trkpt lat="46.45231" lon="0.12886">
        <ele>123.49</ele>
        <time>2023-06-19T14:25:11.464Z</time>
      </trkpt>
      <trkpt lat="46.45231" lon="0.12886">
        <ele>123.49</ele>
        <time>2023-06-19T14:26:14.133Z</time>
      </trkpt>
      <trkpt lat="46.45234" lon="0.12875">
        <ele>123.7</ele>
        <time>2023-06-19T14:27:16.803Z</time>
      </trkpt>
      <trkpt lat="46.45236" lon="0.12869">
        <ele>123.78</ele>
        <time>2023-06-19T14:28:19.474Z</time>
      </trkpt>
      <trkpt lat="46.45239" lon="0.12857">
        <ele>123.9</ele>
        <time>2023-06-19T14:29:22.146Z</time>
      </trkpt>
      <trkpt lat="46.45245" lon="0.12839">
        <ele>124.04</ele>
        <time>2023-06-19T14:30:24.820Z</time>
      </trkpt>
      <trkpt lat="46.45248" lon="0.12827">
        <ele>124.11</ele>
        <time>2023-06-19T14:31:27.496Z</time>
      </trkpt>
      <trkpt lat="46.45252" lon="0.12815">
        <ele>124.14</ele>
        <time>2023-06-19T14:32:30.173Z</time>
      </trkpt>
      <trkpt lat="46.45253" lon="0.12809">
        <ele>124.12</ele>
        <time>2023-06-19T14:33:32.851Z</time>
      </trkpt>
      <trkpt lat="46.45255" lon="0.12803">
        <ele>124.06</ele>
        <time>2023-06-19T14:34:35.530Z</time>
      </trkpt>
      <trkpt lat="46.45257" lon="0.12797">
        <ele>123.97</ele>
        <time>2023-06-19T14:35:38.209Z</time>
      </trkpt>
      <trkpt lat="46.45258" lon="0.12791">
        <ele>123.83</ele>
        <time>2023-06-19T14:36:40.889Z</time>
      </trkpt>
      <trkpt lat="46.4526" lon="0.12785">
        <ele>123.64</ele>
        <time>2023-06-19T14:37:43.570Z</time>
      </trkpt>
      <trkpt lat="46.45262" lon="0.12779">
        <ele>123.39</ele>
        <time>2023-06-19T14:38:46.251Z</time>
      </trkpt>
      <trkpt lat="46.45264" lon="0.12773">
        <ele>123.05</ele>
        <time>2023-06-19T14:39:48.933Z</time>
      </trkpt>
      <trkpt lat="46.45265" lon="0.12767">
        <ele>122.62</ele>
        <time>2023-06-19T14:40:51.616Z</time>
      </trkpt>
      <trkpt lat="46.45267" lon="0.12761">
        <ele>122.1</ele>
        <time>2023-06-19T14:41:54.300Z</time>
      </trkpt>
      <trkpt lat="46.45269" lon="0.12754">
        <ele>121.5</ele>
        <time>2023-06-19T14:42:56.984Z</time>
      </trkpt>
      <trkpt lat="46.45269" lon="0.12754">
        <ele>121.5</ele>
        <time>2023-06-19T14:43:59.668Z</time>
      </trkpt>
      <trkpt lat="46.4527" lon="0.12748">
        <ele>120.83</ele>
        <time>2023-06-19T14:45:02.353Z</time>
      </trkpt>
      <trkpt lat="46.45272" lon="0.12742">
        <ele>120.08</ele>
        <time>2023-06-19T14:46:05.039Z</time>
      </trkpt>
      <trkpt lat="46.45273" lon="0.12736">
        <ele>119.27</ele>
        <time>2023-06-19T14:47:07.725Z</time>
      </trkpt>
      <trkpt lat="46.45276" lon="0.12724">
        <ele>117.53</ele>
        <time>2023-06-19T14:48:10.413Z</time>
      </trkpt>
      <trkpt lat="46.45279" lon="0.12711">
        <ele>115.71</ele>
        <time>2023-06-19T14:49:13.102Z</time>
      </trkpt>
      <trkpt lat="46.4528" lon="0.12705">
        <ele>114.86</ele>
        <time>2023-06-19T14:50:15.792Z</time>
      </trkpt>
      <trkpt lat="46.45282" lon="0.12699">
        <ele>114.08</ele>
        <time>2023-06-19T14:51:18.483Z</time>
      </trkpt>
      <trkpt lat="46.45283" lon="0.12693">
        <ele>113.39</ele>
        <time>2023-06-19T14:52:21.174Z</time>
      </trkpt>
      <trkpt lat="46.45285" lon="0.12687">
        <ele>112.81</ele>
        <time>2023-06-19T14:53:23.866Z</time>
      </trkpt>
      <trkpt lat="46.45286" lon="0.12682">
        <ele>112.45</ele>
        <time>2023-06-19T14:54:26.559Z</time>
      </trkpt>
      <trkpt lat="46.45286" lon="0.12681">
        <ele>112.35</ele>
        <time>2023-06-19T14:55:29.252Z</time>
      </trkpt>
      <trkpt lat="46.45286" lon="0.12674">
        <ele>111.99</ele>
        <time>2023-06-19T14:56:31.946Z</time>
      </trkpt>
      <trkpt lat="46.45286" lon="0.12667">
        <ele>111.72</ele>
        <time>2023-06-19T14:57:34.640Z</time>
      </trkpt>
      <trkpt lat="46.45286" lon="0.12661">
        <ele>111.52</ele>
        <time>2023-06-19T14:58:37.335Z</time>
      </trkpt>
      <trkpt lat="46.45287" lon="0.12654">
        <ele>111.38</ele>
        <time>2023-06-19T14:59:40.031Z</time>
      </trkpt>
      <trkpt lat="46.45287" lon="0.12648">
        <ele>111.29</ele>
        <time>2023-06-19T15:00:42.728Z</time>
      </trkpt>
      <trkpt lat="46.45287" lon="0.12635">
        <ele>111.18</ele>
        <time>2023-06-19T15:01:45.426Z</time>
      </trkpt>
      <trkpt lat="46.45287" lon="0.1263">
        <ele>111.14</ele>
        <time>2023-06-19T15:02:48.125Z</time>
      </trkpt>
      <trkpt lat="46.45279" lon="0.12591">
        <ele>110.87</ele>
        <time>2023-06-19T15:03:50.828Z</time>
      </trkpt>
      <trkpt lat="46.45269" lon="0.12547">
        <ele>110.67</ele>
        <time>2023-06-19T15:04:53.536Z</time>
      </trkpt>
      <trkpt lat="46.45269" lon="0.12543">
        <ele>110.66</ele>
        <time>2023-06-19T15:05:56.245Z</time>
      </trkpt>
      <trkpt lat="46.45268" lon="0.12535">
        <ele>110.63</ele>
        <time>2023-06-19T15:06:58.955Z</time>
      </trkpt>
      <trkpt lat="46.45267" lon="0.12522">
        <ele>110.61</ele>
        <time>2023-06-19T15:08:01.666Z</time>
      </trkpt>
      <trkpt lat="46.45264" lon="0.12489">
        <ele>110.64</ele>
        <time>2023-06-19T15:09:04.381Z</time>
      </trkpt>
      <trkpt lat="46.4526" lon="0.12451">
        <ele>110.62</ele>
        <time>2023-06-19T15:10:07.100Z</time>
      </trkpt>
      <trkpt lat="46.45259" lon="0.12436">
        <ele>110.65</ele>
        <time>2023-06-19T15:11:09.821Z</time>
      </trkpt>
      <trkpt lat="46.45257" lon="0.12418">
        <ele>110.69</ele>
        <time>2023-06-19T15:12:12.544Z</time>
      </trkpt>
      <trkpt lat="46.45255" lon="0.12406">
        <ele>110.69</ele>
        <time>2023-06-19T15:13:15.268Z</time>
      </trkpt>
      <trkpt lat="46.45249" lon="0.1236">
        <ele>110.54</ele>
        <time>2023-06-19T15:14:17.997Z</time>
      </trkpt>
      <trkpt lat="46.45246" lon="0.12342">
        <ele>110.48</ele>
        <time>2023-06-19T15:15:20.728Z</time>
      </trkpt>
      <trkpt lat="46.45243" lon="0.12329">
        <ele>110.43</ele>
        <time>2023-06-19T15:16:23.461Z</time>
      </trkpt>
      <trkpt lat="46.45241" lon="0.12315">
        <ele>110.33</ele>
        <time>2023-06-19T15:17:26.195Z</time>
      </trkpt>
      <trkpt lat="46.45241" lon="0.12303">
        <ele>110.26</ele>
        <time>2023-06-19T15:18:28.931Z</time>
      </trkpt>
      <trkpt lat="46.45241" lon="0.1229">
        <ele>110.22</ele>
        <time>2023-06-19T15:19:31.668Z</time>
      </trkpt>
      <trkpt lat="46.45241" lon="0.12284">
        <ele>110.22</ele>
        <time>2023-06-19T15:20:34.406Z</time>
      </trkpt>
      <trkpt lat="46.45241" lon="0.12277">
        <ele>110.23</ele>
        <time>2023-06-19T15:21:37.144Z</time>
      </trkpt>
      <trkpt lat="46.45242" lon="0.12264">
        <ele>110.3</ele>
        <time>2023-06-19T15:22:39.884Z</time>
      </trkpt>
      <trkpt lat="46.45242" lon="0.12234">
        <ele>110.53</ele>
        <time>2023-06-19T15:23:42.627Z</time>
      </trkpt>
      <trkpt lat="46.4524" lon="0.12226">
        <ele>110.6</ele>
        <time>2023-06-19T15:24:45.371Z</time>
      </trkpt>
      <trkpt lat="46.45233" lon="0.12201">
        <ele>110.7</ele>
        <time>2023-06-19T15:25:48.118Z</time>
      </trkpt>
      <trkpt lat="46.4523" lon="0.1219">
        <ele>110.69</ele>
        <time>2023-06-19T15:26:50.866Z</time>
      </trkpt>
      <trkpt lat="46.45223" lon="0.12151">
        <ele>110.66</ele>
        <time>2023-06-19T15:27:53.619Z</time>
      </trkpt>
      <trkpt lat="46.45214" lon="0.12101">
        <ele>110.5</ele>
        <time>2023-06-19T15:28:56.378Z</time>
      </trkpt>
      <trkpt lat="46.45213" lon="0.12095">
        <ele>110.5</ele>
        <time>2023-06-19T15:29:59.137Z</time>
      </trkpt>
      <trkpt lat="46.45211" lon="0.12082">
        <ele>110.54</ele>
        <time>2023-06-19T15:31:01.898Z</time>
      </trkpt>
      <trkpt lat="46.45208" lon="0.12063">
        <ele>110.65</ele>
        <time>2023-06-19T15:32:04.661Z</time>
      </trkpt>
      <trkpt lat="46.45205" lon="0.1205">
        <ele>110.76</ele>
        <time>2023-06-19T15:33:07.425Z</time>
      </trkpt>
      <trkpt lat="46.45203" lon="0.12038">
        <ele>110.91</ele>
        <time>2023-06-19T15:34:10.191Z</time>
      </trkpt>
      <trkpt lat="46.45201" lon="0.12025">
        <ele>111.08</ele>
        <time>2023-06-19T15:35:12.958Z</time>
      </trkpt>
      <trkpt lat="46.45205" lon="0.12013">
        <ele>111.27</ele>
        <time>2023-06-19T15:36:15.727Z</time>
      </trkpt>
      <trkpt lat="46.45206" lon="0.12007">
        <ele>111.34</ele>
        <time>2023-06-19T15:37:18.496Z</time>
      </trkpt>
      <trkpt lat="46.45208" lon="0.12001">
        <ele>111.38</ele>
        <time>2023-06-19T15:38:21.266Z</time>
      </trkpt>
      <trkpt lat="46.4521" lon="0.11995">
        <ele>111.38</ele>
        <time>2023-06-19T15:39:24.037Z</time>
      </trkpt>
      <trkpt lat="46.45209" lon="0.11989">
        <ele>111.38</ele>
        <time>2023-06-19T15:40:26.809Z</time>
      </trkpt>
      <trkpt lat="46.45208" lon="0.11982">
        <ele>111.33</ele>
        <time>2023-06-19T15:41:29.581Z</time>
      </trkpt>
      <trkpt lat="46.45203" lon="0.11944">
        <ele>110.93</ele>
        <time>2023-06-19T15:42:32.358Z</time>
      </trkpt>
      <trkpt lat="46.45201" lon="0.11931">
        <ele>110.82</ele>
        <time>2023-06-19T15:43:35.136Z</time>
      </trkpt>
      <trkpt lat="46.452" lon="0.11918">
        <ele>110.75</ele>
        <time>2023-06-19T15:44:37.916Z</time>
      </trkpt>
      <trkpt lat="46.45197" lon="0.11899">
        <ele>110.71</ele>
        <time>2023-06-19T15:45:40.698Z</time>
      </trkpt>
      <trkpt lat="46.45194" lon="0.1188">
        <ele>110.71</ele>
        <time>2023-06-19T15:46:43.482Z</time>
      </trkpt>
      <trkpt lat="46.45191" lon="0.11854">
        <ele>110.78</ele>
        <time>2023-06-19T15:47:46.269Z</time>
      </trkpt>
      <trkpt lat="46.45189" lon="0.11841">
        <ele>110.87</ele>
        <time>2023-06-19T15:48:49.057Z</time>
      </trkpt>
      <trkpt lat="46.45189" lon="0.11839">
        <ele>110.89</ele>
        <time>2023-06-19T15:49:51.845Z</time>
      </trkpt>
      <trkpt lat="46.45186" lon="0.11823">
        <ele>111.06</ele>
        <time>2023-06-19T15:50:54.635Z</time>
      </trkpt>
      <trkpt lat="46.45183" lon="0.1181">
        <ele>111.16</ele>
        <time>2023-06-19T15:51:57.427Z</time>
      </trkpt>
      <trkpt lat="46.4518" lon="0.11798">
        <ele>111.23</ele>
        <time>2023-06-19T15:53:00.220Z</time>
      </trkpt>
      <trkpt lat="46.45178" lon="0.11785">
        <ele>111.23</ele>
        <time>2023-06-19T15:54:03.015Z</time>
      </trkpt>
      <trkpt lat="46.45175" lon="0.11773">
        <ele>111.13</ele>
        <time>2023-06-19T15:55:05.811Z</time>
      </trkpt>
      <trkpt lat="46.45174" lon="0.11766">
        <ele>111.04</ele>
        <time>2023-06-19T15:56:08.608Z</time>
      </trkpt>
      <trkpt lat="46.45172" lon="0.1176">
        <ele>110.92</ele>
        <time>2023-06-19T15:57:11.406Z</time>
      </trkpt>
      <trkpt lat="46.4517" lon="0.11748">
        <ele>110.6</ele>
        <time>2023-06-19T15:58:14.205Z</time>
      </trkpt>
      <trkpt lat="46.45166" lon="0.1173">
        <ele>110.05</ele>
        <time>2023-06-19T15:59:17.006Z</time>
      </trkpt>
      <trkpt lat="46.45164" lon="0.11716">
        <ele>109.65</ele>
        <time>2023-06-19T16:00:19.809Z</time>
      </trkpt>
      <trkpt lat="46.45162" lon="0.11704">
        <ele>109.33</ele>
        <time>2023-06-19T16:01:22.613Z</time>
      </trkpt>
      <trkpt lat="46.45161" lon="0.11697">
        <ele>109.2</ele>
        <time>2023-06-19T16:02:25.418Z</time>
      </trkpt>
      <trkpt lat="46.45159" lon="0.11684">
        <ele>108.99</ele>
        <time>2023-06-19T16:03:28.224Z</time>
      </trkpt>
      <trkpt lat="46.45158" lon="0.11678">
        <ele>108.91</ele>
        <time>2023-06-19T16:04:31.031Z</time>
      </trkpt>
      <trkpt lat="46.45156" lon="0.11665">
        <ele>108.79</ele>
        <time>2023-06-19T16:05:33.839Z</time>
      </trkpt>
      <trkpt lat="46.45156" lon="0.11665">
        <ele>108.79</ele>
        <time>2023-06-19T16:06:36.647Z</time>
      </trkpt>
      <trkpt lat="46.45157" lon="0.11646">
        <ele>108.66</ele>
        <time>2023-06-19T16:07:39.458Z</time>
      </trkpt>
      <trkpt lat="46.45157" lon="0.11633">
        <ele>108.6</ele>
        <time>2023-06-19T16:08:42.270Z</time>
      </trkpt>
      <trkpt lat="46.45158" lon="0.1162">
        <ele>108.57</ele>
        <time>2023-06-19T16:09:45.083Z</time>
      </trkpt>
      <trkpt lat="46.45159" lon="0.11581">
        <ele>108.57</ele>
        <time>2023-06-19T16:10:47.901Z</time>
      </trkpt>
      <trkpt lat="46.45158" lon="0.11574">
        <ele>108.57</ele>
        <time>2023-06-19T16:11:50.720Z</time>
      </trkpt>
      <trkpt lat="46.45151" lon="0.11543">
        <ele>108.5</ele>
        <time>2023-06-19T16:12:53.542Z</time>
      </trkpt>
      <trkpt lat="46.45147" lon="0.11524">
        <ele>108.49</ele>
        <time>2023-06-19T16:13:56.366Z</time>
      </trkpt>
      <trkpt lat="46.45145" lon="0.11512">
        <ele>108.52</ele>
        <time>2023-06-19T16:14:59.192Z</time>
      </trkpt>
      <trkpt lat="46.45139" lon="0.11484">
        <ele>108.64</ele>
        <time>2023-06-19T16:16:02.021Z</time>
      </trkpt>
      <trkpt lat="46.45141" lon="0.11448">
        <ele>108.8</ele>
        <time>2023-06-19T16:17:04.854Z</time>
      </trkpt>
      <trkpt lat="46.45142" lon="0.11428">
        <ele>108.95</ele>
        <time>2023-06-19T16:18:07.689Z</time>
      </trkpt>
      <trkpt lat="46.45143" lon="0.11409">
        <ele>109.2</ele>
        <time>2023-06-19T16:19:10.526Z</time>
      </trkpt>
      <trkpt lat="46.45143" lon="0.114">
        <ele>109.35</ele>
        <time>2023-06-19T16:20:13.364Z</time>
      </trkpt>
      <trkpt lat="46.45147" lon="0.11377">
        <ele>109.77</ele>
        <time>2023-06-19T16:21:16.205Z</time>
      </trkpt>
      <trkpt lat="46.45149" lon="0.11364">
        <ele>109.96</ele>
        <time>2023-06-19T16:22:19.047Z</time>
      </trkpt>
      <trkpt lat="46.45151" lon="0.11352">
        <ele>110.12</ele>
        <time>2023-06-19T16:23:21.891Z</time>
      </trkpt>
      <trkpt lat="46.45153" lon="0.11339">
        <ele>110.21</ele>
        <time>2023-06-19T16:24:24.736Z</time>
      </trkpt>
      <trkpt lat="46.45154" lon="0.11333">
        <ele>110.23</ele>
        <time>2023-06-19T16:25:27.582Z</time>
      </trkpt>
      <trkpt lat="46.45156" lon="0.1132">
        <ele>110.2</ele>
        <time>2023-06-19T16:26:30.429Z</time>
      </trkpt>
      <trkpt lat="46.45157" lon="0.11313">
        <ele>110.15</ele>
        <time>2023-06-19T16:27:33.277Z</time>
      </trkpt>
      <trkpt lat="46.45164" lon="0.11269">
        <ele>109.64</ele>
        <time>2023-06-19T16:28:36.130Z</time>
      </trkpt>
      <trkpt lat="46.45168" lon="0.1125">
        <ele>109.45</ele>
        <time>2023-06-19T16:29:38.985Z</time>
      </trkpt>
      <trkpt lat="46.45171" lon="0.11231">
        <ele>109.35</ele>
        <time>2023-06-19T16:30:41.842Z</time>
      </trkpt>
      <trkpt lat="46.45171" lon="0.11229">
        <ele>109.34</ele>
        <time>2023-06-19T16:31:44.700Z</time>
      </trkpt>
      <trkpt lat="46.45181" lon="0.1121">
        <ele>109.27</ele>
        <time>2023-06-19T16:32:47.560Z</time>
      </trkpt>
      <trkpt lat="46.45187" lon="0.112">
        <ele>109.25</ele>
        <time>2023-06-19T16:33:50.422Z</time>
      </trkpt>
      <trkpt lat="46.45189" lon="0.11195">
        <ele>109.25</ele>
        <time>2023-06-19T16:34:53.284Z</time>
      </trkpt>
      <trkpt lat="46.45199" lon="0.11172">
        <ele>109.26</ele>
        <time>2023-06-19T16:35:56.149Z</time>
      </trkpt>
      <trkpt lat="46.45204" lon="0.11161">
        <ele>109.31</ele>
        <time>2023-06-19T16:36:59.016Z</time>
      </trkpt>
      <trkpt lat="46.45207" lon="0.11154">
        <ele>109.39</ele>
        <time>2023-06-19T16:38:01.884Z</time>
      </trkpt>
      <trkpt lat="46.45209" lon="0.11151">
        <ele>109.44</ele>
        <time>2023-06-19T16:39:04.752Z</time>
      </trkpt>
      <trkpt lat="46.45218" lon="0.11136">
        <ele>109.72</ele>
        <time>2023-06-19T16:40:07.622Z</time>
      </trkpt>
      <trkpt lat="46.45221" lon="0.11132">
        <ele>109.79</ele>
        <time>2023-06-19T16:41:10.493Z</time>
      </trkpt>
      <trkpt lat="46.45227" lon="0.11122">
        <ele>109.9</ele>
        <time>2023-06-19T16:42:13.366Z</time>
      </trkpt>
      <trkpt lat="46.45228" lon="0.11121">
        <ele>109.9</ele>
        <time>2023-06-19T16:43:16.239Z</time>
      </trkpt>
      <trkpt lat="46.45236" lon="0.11117">
        <ele>109.95</ele>
        <time>2023-06-19T16:44:19.113Z</time>
      </trkpt>
      <trkpt lat="46.45244" lon="0.11113">
        <ele>109.95</ele>
        <time>2023-06-19T16:45:21.988Z</time>
      </trkpt>
      <trkpt lat="46.45244" lon="0.11113">
        <ele>109.95</ele>
        <time>2023-06-19T16:46:24.864Z</time>
      </trkpt>
      <trkpt lat="46.45253" lon="0.1111">
        <ele>109.9</ele>
        <time>2023-06-19T16:47:27.741Z</time>
      </trkpt>
      <trkpt lat="46.45267" lon="0.11105">
        <ele>109.75</ele>
        <time>2023-06-19T16:48:30.620Z</time>
      </trkpt>
      <trkpt lat="46.45275" lon="0.11105">
        <ele>109.67</ele>
        <time>2023-06-19T16:49:33.501Z</time>
      </trkpt>
      <trkpt lat="46.45276" lon="0.11105">
        <ele>109.66</ele>
        <time>2023-06-19T16:50:36.382Z</time>
      </trkpt>
      <trkpt lat="46.45273" lon="0.11105">
        <ele>109.66</ele>
        <time>2023-06-19T16:51:39.263Z</time>
      </trkpt>
      <trkpt lat="46.45268" lon="0.11105">
        <ele>109.69</ele>
        <time>2023-06-19T16:52:42.145Z</time>
      </trkpt>
      <trkpt lat="46.45264" lon="0.11106">
        <ele>109.72</ele>
        <time>2023-06-19T16:53:45.028Z</time>
      </trkpt>
      <trkpt lat="46.45246" lon="0.11112">
        <ele>109.96</ele>
        <time>2023-06-19T16:54:47.914Z</time>
      </trkpt>
      <trkpt lat="46.45244" lon="0.11113">
        <ele>109.98</ele>
        <time>2023-06-19T16:55:50.800Z</time>
      </trkpt>
      <trkpt lat="46.45238" lon="0.11116">
        <ele>110.06</ele>
        <time>2023-06-19T16:56:53.687Z</time>
      </trkpt>
      <trkpt lat="46.45228" lon="0.11121">
        <ele>110.13</ele>
        <time>2023-06-19T16:57:56.576Z</time>
      </trkpt>
      <trkpt lat="46.45231" lon="0.11104">
        <ele>110.22</ele>
        <time>2023-06-19T16:58:59.467Z</time>
      </trkpt>
      <trkpt lat="46.45233" lon="0.11096">
        <ele>110.24</ele>
        <time>2023-06-19T17:00:02.359Z</time>
      </trkpt>
      <trkpt lat="46.45235" lon="0.11092">
        <ele>110.26</ele>
        <time>2023-06-19T17:01:05.251Z</time>
      </trkpt>
      <trkpt lat="46.45239" lon="0.1108">
        <ele>110.24</ele>
        <time>2023-06-19T17:02:08.145Z</time>
      </trkpt>
      <trkpt lat="46.45249" lon="0.11056">
        <ele>110.06</ele>
        <time>2023-06-19T17:03:11.042Z</time>
      </trkpt>
      <trkpt lat="46.45251" lon="0.11054">
        <ele>110.04</ele>
        <time>2023-06-19T17:04:13.939Z</time>
      </trkpt>
      <trkpt lat="46.45259" lon="0.11046">
        <ele>110</ele>
        <time>2023-06-19T17:05:16.838Z</time>
      </trkpt>
      <trkpt lat="46.45266" lon="0.11039">
        <ele>109.98</ele>
        <time>2023-06-19T17:06:19.738Z</time>
      </trkpt>
      <trkpt lat="46.4527" lon="0.11035">
        <ele>109.98</ele>
        <time>2023-06-19T17:07:22.639Z</time>
      </trkpt>
      <trkpt lat="46.45283" lon="0.11036">
        <ele>109.99</ele>
        <time>2023-06-19T17:08:25.542Z</time>
      </trkpt>
      <trkpt lat="46.45297" lon="0.11036">
        <ele>109.97</ele>
        <time>2023-06-19T17:09:28.447Z</time>
      </trkpt>
      <trkpt lat="46.45306" lon="0.11037">
        <ele>110.02</ele>
        <time>2023-06-19T17:10:31.353Z</time>
      </trkpt>
      <trkpt lat="46.45309" lon="0.11037">
        <ele>110.04</ele>
        <time>2023-06-19T17:11:34.260Z</time>
      </trkpt>
      <trkpt lat="46.45319" lon="0.11042">
        <ele>110.15</ele>
        <time>2023-06-19T17:12:37.169Z</time>
      </trkpt>
      <trkpt lat="46.4534" lon="0.11053">
        <ele>110.29</ele>
        <time>2023-06-19T17:13:40.081Z</time>
      </trkpt>
      <trkpt lat="46.45343" lon="0.11055">
        <ele>110.31</ele>
        <time>2023-06-19T17:14:42.994Z</time>
      </trkpt>
      <trkpt lat="46.4536" lon="0.11069">
        <ele>110.48</ele>
        <time>2023-06-19T17:15:45.910Z</time>
      </trkpt>
      <trkpt lat="46.45371" lon="0.11079">
        <ele>110.53</ele>
        <time>2023-06-19T17:16:48.828Z</time>
      </trkpt>
      <trkpt lat="46.45378" lon="0.11085">
        <ele>110.53</ele>
        <time>2023-06-19T17:17:51.747Z</time>
      </trkpt>
      <trkpt lat="46.45379" lon="0.11086">
        <ele>110.53</ele>
        <time>2023-06-19T17:18:54.666Z</time>
      </trkpt>
      <trkpt lat="46.45387" lon="0.11091">
        <ele>110.49</ele>
        <time>2023-06-19T17:19:57.587Z</time>
      </trkpt>
      <trkpt lat="46.45395" lon="0.11097">
        <ele>110.42</ele>
        <time>2023-06-19T17:21:00.509Z</time>
      </trkpt>
      <trkpt lat="46.45403" lon="0.11102">
        <ele>110.31</ele>
        <time>2023-06-19T17:22:03.433Z</time>
      </trkpt>
      <trkpt lat="46.45411" lon="0.11108">
        <ele>110.15</ele>
        <time>2023-06-19T17:23:06.358Z</time>
      </trkpt>
      <trkpt lat="46.45416" lon="0.11111">
        <ele>110.02</ele>
        <time>2023-06-19T17:24:09.284Z</time>
      </trkpt>
      <trkpt lat="46.45429" lon="0.11115">
        <ele>109.7</ele>
        <time>2023-06-19T17:25:12.212Z</time>
      </trkpt>
      <trkpt lat="46.45442" lon="0.1112">
        <ele>109.4</ele>
        <time>2023-06-19T17:26:15.142Z</time>
      </trkpt>
      <trkpt lat="46.45451" lon="0.11123">
        <ele>109.25</ele>
        <time>2023-06-19T17:27:18.074Z</time>
      </trkpt>
      <trkpt lat="46.45459" lon="0.11125">
        <ele>109.17</ele>
        <time>2023-06-19T17:28:21.007Z</time>
      </trkpt>
      <trkpt lat="46.45468" lon="0.11128">
        <ele>109.15</ele>
        <time>2023-06-19T17:29:23.942Z</time>
      </trkpt>
      <trkpt lat="46.45494" lon="0.11137">
        <ele>109.22</ele>
        <time>2023-06-19T17:30:26.881Z</time>
      </trkpt>
      <trkpt lat="46.45512" lon="0.11143">
        <ele>109.37</ele>
        <time>2023-06-19T17:31:29.823Z</time>
      </trkpt>
      <trkpt lat="46.45529" lon="0.11149">
        <ele>109.47</ele>
        <time>2023-06-19T17:32:32.768Z</time>
      </trkpt>
      <trkpt lat="46.45534" lon="0.1115">
        <ele>109.51</ele>
        <time>2023-06-19T17:33:35.713Z</time>
      </trkpt>
      <trkpt lat="46.45543" lon="0.11153">
        <ele>109.67</ele>
        <time>2023-06-19T17:34:38.660Z</time>
      </trkpt>
      <trkpt lat="46.45545" lon="0.11154">
        <ele>109.73</ele>
        <time>2023-06-19T17:35:41.607Z</time>
      </trkpt>
      <trkpt lat="46.45545" lon="0.11151">
        <ele>109.79</ele>
        <time>2023-06-19T17:36:44.555Z</time>
      </trkpt>
      <trkpt lat="46.45546" lon="0.11138">
        <ele>110.12</ele>
        <time>2023-06-19T17:37:47.504Z</time>
      </trkpt>
      <trkpt lat="46.45546" lon="0.11132">
        <ele>110.32</ele>
        <time>2023-06-19T17:38:50.454Z</time>
      </trkpt>
      <trkpt lat="46.45548" lon="0.11106">
        <ele>111.2</ele>
        <time>2023-06-19T17:39:53.407Z</time>
      </trkpt>
      <trkpt lat="46.45548" lon="0.11086">
        <ele>111.89</ele>
        <time>2023-06-19T17:40:56.362Z</time>
      </trkpt>
      <trkpt lat="46.45548" lon="0.11081">
        <ele>112.07</ele>
        <time>2023-06-19T17:41:59.317Z</time>
      </trkpt>
      <trkpt lat="46.45545" lon="0.11074">
        <ele>112.39</ele>
        <time>2023-06-19T17:43:02.273Z</time>
      </trkpt>
      <trkpt lat="46.45543" lon="0.11068">
        <ele>112.7</ele>
        <time>2023-06-19T17:44:05.230Z</time>
      </trkpt>
      <trkpt lat="46.45541" lon="0.11062">
        <ele>113.06</ele>
        <time>2023-06-19T17:45:08.188Z</time>
      </trkpt>
      <trkpt lat="46.45539" lon="0.11056">
        <ele>113.49</ele>
        <time>2023-06-19T17:46:11.146Z</time>
      </trkpt>
      <trkpt lat="46.45539" lon="0.11056">
        <ele>113.49</ele>
        <time>2023-06-19T17:47:14.104Z</time>
      </trkpt>
      <trkpt lat="46.45535" lon="0.11054">
        <ele>114</ele>
        <time>2023-06-19T17:48:17.063Z</time>
      </trkpt>
      <trkpt lat="46.45514" lon="0.11042">
        <ele>116.92</ele>
        <time>2023-06-19T17:49:20.026Z</time>
      </trkpt>
      <trkpt lat="46.4551" lon="0.1104">
        <ele>117.44</ele>
        <time>2023-06-19T17:50:22.989Z</time>
      </trkpt>
      <trkpt lat="46.45506" lon="0.11038">
        <ele>117.91</ele>
        <time>2023-06-19T17:51:25.953Z</time>
      </trkpt>
      <trkpt lat="46.45501" lon="0.11035">
        <ele>118.34</ele>
        <time>2023-06-19T17:52:28.918Z</time>
      </trkpt>
      <trkpt lat="46.4549" lon="0.11029">
        <ele>119.38</ele>
        <time>2023-06-19T17:53:31.885Z</time>
      </trkpt>
      <trkpt lat="46.45489" lon="0.11028">
        <ele>119.49</ele>
        <time>2023-06-19T17:54:34.852Z</time>
      </trkpt>
      <trkpt lat="46.45477" lon="0.1102">
        <ele>120.7</ele>
        <time>2023-06-19T17:55:37.821Z</time>
      </trkpt>
      <trkpt lat="46.45473" lon="0.11017">
        <ele>121.04</ele>
        <time>2023-06-19T17:56:40.791Z</time>
      </trkpt>
      <trkpt lat="46.45469" lon="0.11014">
        <ele>121.31</ele>
        <time>2023-06-19T17:57:43.762Z</time>
      </trkpt>
      <trkpt lat="46.45465" lon="0.11012">
        <ele>121.53</ele>
        <time>2023-06-19T17:58:46.733Z</time>
      </trkpt>
      <trkpt lat="46.45453" lon="0.11004">
        <ele>122.83</ele>
        <time>2023-06-19T17:59:49.706Z</time>
      </trkpt>
      <trkpt lat="46.45452" lon="0.11003">
        <ele>122.83</ele>
        <time>2023-06-19T18:00:52.679Z</time>
      </trkpt>
      <trkpt lat="46.45449" lon="0.10999">
        <ele>123.29</ele>
        <time>2023-06-19T18:01:55.653Z</time>
      </trkpt>
      <trkpt lat="46.45439" lon="0.10986">
        <ele>124.76</ele>
        <time>2023-06-19T18:02:58.629Z</time>
      </trkpt>
      <trkpt lat="46.45436" lon="0.10982">
        <ele>125.23</ele>
        <time>2023-06-19T18:04:01.606Z</time>
      </trkpt>
      <trkpt lat="46.45433" lon="0.10978">
        <ele>125.59</ele>
        <time>2023-06-19T18:05:04.584Z</time>
      </trkpt>
      <trkpt lat="46.45433" lon="0.10978">
        <ele>124.2</ele>
        <time>2023-06-19T18:06:07.562Z</time>
      </trkpt>
      <trkpt lat="46.45426" lon="0.10969">
        <ele>125.71</ele>
        <time>2023-06-19T18:07:10.541Z</time>
      </trkpt>
      <trkpt lat="46.45426" lon="0.10969">
        <ele>126.46</ele>
        <time>2023-06-19T18:08:13.520Z</time>
      </trkpt>
      <trkpt lat="46.45422" lon="0.10965">
        <ele>126.09</ele>
        <time>2023-06-19T18:09:16.500Z</time>
      </trkpt>
      <trkpt lat="46.45418" lon="0.10959">
        <ele>125.53</ele>
        <time>2023-06-19T18:10:19.481Z</time>
      </trkpt>
      <trkpt lat="46.45416" lon="0.10956">
        <ele>125.23</ele>
        <time>2023-06-19T18:11:22.462Z</time>
      </trkpt>
      <trkpt lat="46.45413" lon="0.10951">
        <ele>124.76</ele>
        <time>2023-06-19T18:12:25.444Z</time>
      </trkpt>
      <trkpt lat="46.45404" lon="0.10937">
        <ele>123.29</ele>
        <time>2023-06-19T18:13:28.428Z</time>
      </trkpt>
      <trkpt lat="46.454" lon="0.10932">
        <ele>122.83</ele>
        <time>2023-06-19T18:14:31.413Z</time>
      </trkpt>
      <trkpt lat="46.45391" lon="0.10918">
        <ele>121.53</ele>
        <time>2023-06-19T18:15:34.400Z</time>
      </trkpt>
      <trkpt lat="46.45385" lon="0.10909">
        <ele>120.95</ele>
        <time>2023-06-19T18:16:37.388Z</time>
      </trkpt>
      <trkpt lat="46.45382" lon="0.10904">
        <ele>120.62</ele>
        <time>2023-06-19T18:17:40.377Z</time>
      </trkpt>
      <trkpt lat="46.45379" lon="0.10899">
        <ele>120.27</ele>
        <time>2023-06-19T18:18:43.367Z</time>
      </trkpt>
      <trkpt lat="46.45373" lon="0.1089">
        <ele>119.51</ele>
        <time>2023-06-19T18:19:46.358Z</time>
      </trkpt>
      <trkpt lat="46.45367" lon="0.10881">
        <ele>118.69</ele>
        <time>2023-06-19T18:20:49.351Z</time>
      </trkpt>
      <trkpt lat="46.45364" lon="0.10876">
        <ele>118.25</ele>
        <time>2023-06-19T18:21:52.344Z</time>
      </trkpt>
      <trkpt lat="46.45361" lon="0.10871">
        <ele>117.79</ele>
        <time>2023-06-19T18:22:55.338Z</time>
      </trkpt>
      <trkpt lat="46.45351" lon="0.10857">
        <ele>116.33</ele>
        <time>2023-06-19T18:23:58.334Z</time>
      </trkpt>
      <trkpt lat="46.45348" lon="0.10852">
        <ele>115.89</ele>
        <time>2023-06-19T18:25:01.331Z</time>
      </trkpt>
      <trkpt lat="46.45345" lon="0.10848">
        <ele>115.5</ele>
        <time>2023-06-19T18:26:04.329Z</time>
      </trkpt>
      <trkpt lat="46.45342" lon="0.10843">
        <ele>115.16</ele>
        <time>2023-06-19T18:27:07.327Z</time>
      </trkpt>
      <trkpt lat="46.45339" lon="0.10838">
        <ele>114.87</ele>
        <time>2023-06-19T18:28:10.326Z</time>
      </trkpt>
      <trkpt lat="46.45336" lon="0.10834">
        <ele>114.61</ele>
        <time>2023-06-19T18:29:13.326Z</time>
      </trkpt>
      <trkpt lat="46.45326" lon="0.10818">
        <ele>113.8</ele>
        <time>2023-06-19T18:30:16.328Z</time>
      </trkpt>
      <trkpt lat="46.45319" lon="0.10816">
        <ele>113.4</ele>
        <time>2023-06-19T18:31:19.331Z</time>
      </trkpt>
      <trkpt lat="46.45317" lon="0.10816">
        <ele>113.31</ele>
        <time>2023-06-19T18:32:22.335Z</time>
      </trkpt>
      <trkpt lat="46.45314" lon="0.10815">
        <ele>113.18</ele>
        <time>2023-06-19T18:33:25.339Z</time>
      </trkpt>
      <trkpt lat="46.4531" lon="0.10812">
        <ele>113</ele>
        <time>2023-06-19T18:34:28.344Z</time>
      </trkpt>
      <trkpt lat="46.45306" lon="0.1081">
        <ele>112.84</ele>
        <time>2023-06-19T18:35:31.350Z</time>
      </trkpt>
      <trkpt lat="46.45302" lon="0.10808">
        <ele>112.72</ele>
        <time>2023-06-19T18:36:34.356Z</time>
      </trkpt>
      <trkpt lat="46.45291" lon="0.1082">
        <ele>112.35</ele>
        <time>2023-06-19T18:37:37.364Z</time>
      </trkpt>
      <trkpt lat="46.45288" lon="0.10824">
        <ele>112.21</ele>
        <time>2023-06-19T18:38:40.373Z</time>
      </trkpt>
      <trkpt lat="46.45284" lon="0.10829">
        <ele>112.05</ele>
        <time>2023-06-19T18:39:43.383Z</time>
      </trkpt>
      <trkpt lat="46.45284" lon="0.10829">
        <ele>112.05</ele>
        <time>2023-06-19T18:40:46.393Z</time>
      </trkpt>
      <trkpt lat="46.45277" lon="0.10832">
        <ele>111.73</ele>
        <time>2023-06-19T18:41:49.404Z</time>
      </trkpt>
      <trkpt lat="46.45268" lon="0.10833">
        <ele>111.35</ele>
        <time>2023-06-19T18:42:52.417Z</time>
      </trkpt>
      <trkpt lat="46.45267" lon="0.10833">
        <ele>111.35</ele>
        <time>2023-06-19T18:43:55.430Z</time>
      </trkpt>
      <trkpt lat="46.45263" lon="0.10831">
        <ele>111.21</ele>
        <time>2023-06-19T18:44:58.443Z</time>
      </trkpt>
      <trkpt lat="46.45259" lon="0.1083">
        <ele>111.1</ele>
        <time>2023-06-19T18:46:01.457Z</time>
      </trkpt>
      <trkpt lat="46.45257" lon="0.10829">
        <ele>111.06</ele>
        <time>2023-06-19T18:47:04.471Z</time>
      </trkpt>
      <trkpt lat="46.45254" lon="0.10828">
        <ele>111.02</ele>
        <time>2023-06-19T18:48:07.486Z</time>
      </trkpt>
      <trkpt lat="46.4525" lon="0.10825">
        <ele>110.97</ele>
        <time>2023-06-19T18:49:10.502Z</time>
      </trkpt>
      <trkpt lat="46.45246" lon="0.10823">
        <ele>110.94</ele>
        <time>2023-06-19T18:50:13.518Z</time>
      </trkpt>
      <trkpt lat="46.45242" lon="0.10821">
        <ele>110.95</ele>
        <time>2023-06-19T18:51:16.535Z</time>
      </trkpt>
      <trkpt lat="46.45234" lon="0.10817">
        <ele>111.01</ele>
        <time>2023-06-19T18:52:19.553Z</time>
      </trkpt>
      <trkpt lat="46.45217" lon="0.10808">
        <ele>111.25</ele>
        <time>2023-06-19T18:53:22.574Z</time>
      </trkpt>
      <trkpt lat="46.45213" lon="0.10806">
        <ele>111.29</ele>
        <time>2023-06-19T18:54:25.596Z</time>
      </trkpt>
      <trkpt lat="46.45208" lon="0.10804">
        <ele>111.3</ele>
        <time>2023-06-19T18:55:28.619Z</time>
      </trkpt>
      <trkpt lat="46.45204" lon="0.10801">
        <ele>111.28</ele>
        <time>2023-06-19T18:56:31.642Z</time>
      </trkpt>
      <trkpt lat="46.452" lon="0.10799">
        <ele>111.23</ele>
        <time>2023-06-19T18:57:34.666Z</time>
      </trkpt>
      <trkpt lat="46.45192" lon="0.10795">
        <ele>111.03</ele>
        <time>2023-06-19T18:58:37.692Z</time>
      </trkpt>
      <trkpt lat="46.45187" lon="0.10793">
        <ele>110.88</ele>
        <time>2023-06-19T18:59:40.718Z</time>
      </trkpt>
      <trkpt lat="46.45183" lon="0.10791">
        <ele>110.7</ele>
        <time>2023-06-19T19:00:43.745Z</time>
      </trkpt>
      <trkpt lat="46.45175" lon="0.10786">
        <ele>110.29</ele>
        <time>2023-06-19T19:01:46.773Z</time>
      </trkpt>
      <trkpt lat="46.45171" lon="0.10784">
        <ele>110.11</ele>
        <time>2023-06-19T19:02:49.802Z</time>
      </trkpt>
      <trkpt lat="46.45167" lon="0.10782">
        <ele>109.96</ele>
        <time>2023-06-19T19:03:52.832Z</time>
      </trkpt>
      <trkpt lat="46.45165" lon="0.10781">
        <ele>109.91</ele>
        <time>2023-06-19T19:04:55.862Z</time>
      </trkpt>
      <trkpt lat="46.45162" lon="0.10779">
        <ele>109.85</ele>
        <time>2023-06-19T19:05:58.893Z</time>
      </trkpt>
      <trkpt lat="46.45158" lon="0.10777">
        <ele>109.79</ele>
        <time>2023-06-19T19:07:01.924Z</time>
      </trkpt>
      <trkpt lat="46.45154" lon="0.10774">
        <ele>109.78</ele>
        <time>2023-06-19T19:08:04.956Z</time>
      </trkpt>
      <trkpt lat="46.4515" lon="0.10772">
        <ele>109.81</ele>
        <time>2023-06-19T19:09:07.989Z</time>
      </trkpt>
      <trkpt lat="46.45146" lon="0.10769">
        <ele>109.88</ele>
        <time>2023-06-19T19:10:11.022Z</time>
      </trkpt>
      <trkpt lat="46.45138" lon="0.10764">
        <ele>110.08</ele>
        <time>2023-06-19T19:11:14.057Z</time>
      </trkpt>
      <trkpt lat="46.45135" lon="0.10762">
        <ele>110.18</ele>
        <time>2023-06-19T19:12:17.092Z</time>
      </trkpt>
      <trkpt lat="46.4513" lon="0.10757">
        <ele>110.36</ele>
        <time>2023-06-19T19:13:20.128Z</time>
      </trkpt>
      <trkpt lat="46.45124" lon="0.10749">
        <ele>110.72</ele>
        <time>2023-06-19T19:14:23.166Z</time>
      </trkpt>
      <trkpt lat="46.45119" lon="0.10744">
        <ele>110.98</ele>
        <time>2023-06-19T19:15:26.205Z</time>
      </trkpt>
      <trkpt lat="46.45117" lon="0.10741">
        <ele>111.13</ele>
        <time>2023-06-19T19:16:29.244Z</time>
      </trkpt>
      <trkpt lat="46.45111" lon="0.10731">
        <ele>111.59</ele>
        <time>2023-06-19T19:17:32.284Z</time>
      </trkpt>
      <trkpt lat="46.45111" lon="0.10731">
        <ele>111.59</ele>
        <time>2023-06-19T19:18:35.325Z</time>
      </trkpt>
      <trkpt lat="46.45108" lon="0.10727">
        <ele>111.86</ele>
        <time>2023-06-19T19:19:38.366Z</time>
      </trkpt>
      <trkpt lat="46.45098" lon="0.10713">
        <ele>112.71</ele>
        <time>2023-06-19T19:20:41.409Z</time>
      </trkpt>
      <trkpt lat="46.45095" lon="0.10709">
        <ele>112.95</ele>
        <time>2023-06-19T19:21:44.453Z</time>
      </trkpt>
      <trkpt lat="46.45093" lon="0.10707">
        <ele>113.03</ele>
        <time>2023-06-19T19:22:47.497Z</time>
      </trkpt>
      <trkpt lat="46.45095" lon="0.10704">
        <ele>113.14</ele>
        <time>2023-06-19T19:23:50.542Z</time>
      </trkpt>
      <trkpt lat="46.45097" lon="0.107">
        <ele>113.3</ele>
        <time>2023-06-19T19:24:53.587Z</time>
      </trkpt>
      <trkpt lat="46.45103" lon="0.10691">
        <ele>112.91</ele>
        <time>2023-06-19T19:25:56.634Z</time>
      </trkpt>
      <trkpt lat="46.45114" lon="0.10673">
        <ele>112.05</ele>
        <time>2023-06-19T19:26:59.683Z</time>
      </trkpt>
      <trkpt lat="46.45119" lon="0.10663">
        <ele>111.71</ele>
        <time>2023-06-19T19:28:02.734Z</time>
      </trkpt>
      <trkpt lat="46.4513" lon="0.10645">
        <ele>111.4</ele>
        <time>2023-06-19T19:29:05.787Z</time>
      </trkpt>
      <trkpt lat="46.45133" lon="0.10641">
        <ele>111.35</ele>
        <time>2023-06-19T19:30:08.841Z</time>
      </trkpt>
      <trkpt lat="46.45139" lon="0.10632">
        <ele>111.29</ele>
        <time>2023-06-19T19:31:11.896Z</time>
      </trkpt>
      <trkpt lat="46.45144" lon="0.10623">
        <ele>111.27</ele>
        <time>2023-06-19T19:32:14.953Z</time>
      </trkpt>
      <trkpt lat="46.4515" lon="0.10613">
        <ele>111.35</ele>
        <time>2023-06-19T19:33:18.011Z</time>
      </trkpt>
      <trkpt lat="46.45156" lon="0.10603">
        <ele>111.48</ele>
        <time>2023-06-19T19:34:21.071Z</time>
      </trkpt>
      <trkpt lat="46.45165" lon="0.10589">
        <ele>111.77</ele>
        <time>2023-06-19T19:35:24.133Z</time>
      </trkpt>
      <trkpt lat="46.45179" lon="0.10565">
        <ele>112.31</ele>
        <time>2023-06-19T19:36:27.198Z</time>
      </trkpt>
      <trkpt lat="46.45185" lon="0.10555">
        <ele>112.49</ele>
        <time>2023-06-19T19:37:30.265Z</time>
      </trkpt>
      <trkpt lat="46.45197" lon="0.10535">
        <ele>112.79</ele>
        <time>2023-06-19T19:38:33.335Z</time>
      </trkpt>
      <trkpt lat="46.45203" lon="0.10526">
        <ele>112.9</ele>
        <time>2023-06-19T19:39:36.406Z</time>
      </trkpt>
      <trkpt lat="46.45206" lon="0.10521">
        <ele>112.93</ele>
        <time>2023-06-19T19:40:39.478Z</time>
      </trkpt>
      <trkpt lat="46.45212" lon="0.10511">
        <ele>112.96</ele>
        <time>2023-06-19T19:41:42.551Z</time>
      </trkpt>
      <trkpt lat="46.45232" lon="0.10477">
        <ele>112.89</ele>
        <time>2023-06-19T19:42:45.629Z</time>
      </trkpt>
      <trkpt lat="46.45244" lon="0.10458">
        <ele>112.97</ele>
        <time>2023-06-19T19:43:48.710Z</time>
      </trkpt>
      <trkpt lat="46.45259" lon="0.10434">
        <ele>112.95</ele>
        <time>2023-06-19T19:44:51.795Z</time>
      </trkpt>
      <trkpt lat="46.45264" lon="0.10425">
        <ele>112.96</ele>
        <time>2023-06-19T19:45:54.881Z</time>
      </trkpt>
      <trkpt lat="46.45265" lon="0.10424">
        <ele>112.97</ele>
        <time>2023-06-19T19:46:57.967Z</time>
      </trkpt>
      <trkpt lat="46.45268" lon="0.10419">
        <ele>113.01</ele>
        <time>2023-06-19T19:48:01.054Z</time>
      </trkpt>
      <trkpt lat="46.4527" lon="0.10414">
        <ele>113.07</ele>
        <time>2023-06-19T19:49:04.142Z</time>
      </trkpt>
      <trkpt lat="46.45276" lon="0.10404">
        <ele>113.23</ele>
        <time>2023-06-19T19:50:07.231Z</time>
      </trkpt>
      <trkpt lat="46.45282" lon="0.10394">
        <ele>113.36</ele>
        <time>2023-06-19T19:51:10.321Z</time>
      </trkpt>
      <trkpt lat="46.45291" lon="0.10379">
        <ele>113.49</ele>
        <time>2023-06-19T19:52:13.414Z</time>
      </trkpt>
      <trkpt lat="46.45302" lon="0.1036">
        <ele>113.72</ele>
        <time>2023-06-19T19:53:16.509Z</time>
      </trkpt>
      <trkpt lat="46.45305" lon="0.10355">
        <ele>113.73</ele>
        <time>2023-06-19T19:54:19.605Z</time>
      </trkpt>
      <trkpt lat="46.45308" lon="0.1035">
        <ele>113.69</ele>
        <time>2023-06-19T19:55:22.702Z</time>
      </trkpt>
      <trkpt lat="46.45311" lon="0.10345">
        <ele>113.56</ele>
        <time>2023-06-19T19:56:25.800Z</time>
      </trkpt>
      <trkpt lat="46.45314" lon="0.1034">
        <ele>113.35</ele>
        <time>2023-06-19T19:57:28.898Z</time>
      </trkpt>
      <trkpt lat="46.45323" lon="0.10325">
        <ele>112.5</ele>
        <time>2023-06-19T19:58:31.998Z</time>
      </trkpt>
      <trkpt lat="46.45334" lon="0.10306">
        <ele>111.47</ele>
        <time>2023-06-19T19:59:35.101Z</time>
      </trkpt>
      <trkpt lat="46.45345" lon="0.10286">
        <ele>110.39</ele>
        <time>2023-06-19T20:00:38.207Z</time>
      </trkpt>
      <trkpt lat="46.45351" lon="0.10277">
        <ele>109.93</ele>
        <time>2023-06-19T20:01:41.314Z</time>
      </trkpt>
      <trkpt lat="46.45357" lon="0.10267">
        <ele>109.54</ele>
        <time>2023-06-19T20:02:44.423Z</time>
      </trkpt>
      <trkpt lat="46.45362" lon="0.10258">
        <ele>109.24</ele>
        <time>2023-06-19T20:03:47.533Z</time>
      </trkpt>
      <trkpt lat="46.45365" lon="0.10253">
        <ele>109.14</ele>
        <time>2023-06-19T20:04:50.644Z</time>
      </trkpt>
      <trkpt lat="46.4537" lon="0.10244">
        <ele>109</ele>
        <time>2023-06-19T20:05:53.756Z</time>
      </trkpt>
      <trkpt lat="46.45373" lon="0.10239">
        <ele>108.97</ele>
        <time>2023-06-19T20:06:56.869Z</time>
      </trkpt>
      <trkpt lat="46.45379" lon="0.1023">
        <ele>108.95</ele>
        <time>2023-06-19T20:07:59.983Z</time>
      </trkpt>
      <trkpt lat="46.45387" lon="0.10215">
        <ele>108.98</ele>
        <time>2023-06-19T20:09:03.099Z</time>
      </trkpt>
      <trkpt lat="46.45395" lon="0.10202">
        <ele>108.94</ele>
        <time>2023-06-19T20:10:06.217Z</time>
      </trkpt>
      <trkpt lat="46.45395" lon="0.10181">
        <ele>108.91</ele>
        <time>2023-06-19T20:11:09.338Z</time>
      </trkpt>
      <trkpt lat="46.45396" lon="0.10162">
        <ele>108.97</ele>
        <time>2023-06-19T20:12:12.461Z</time>
      </trkpt>
      <trkpt lat="46.45396" lon="0.10152">
        <ele>109.03</ele>
        <time>2023-06-19T20:13:15.585Z</time>
      </trkpt>
      <trkpt lat="46.45397" lon="0.10149">
        <ele>109.06</ele>
        <time>2023-06-19T20:14:18.709Z</time>
      </trkpt>
      <trkpt lat="46.454" lon="0.10144">
        <ele>109.12</ele>
        <time>2023-06-19T20:15:21.834Z</time>
      </trkpt>
      <trkpt lat="46.45413" lon="0.10118">
        <ele>109.6</ele>
        <time>2023-06-19T20:16:24.962Z</time>
      </trkpt>
      <trkpt lat="46.45418" lon="0.10108">
        <ele>109.72</ele>
        <time>2023-06-19T20:17:28.092Z</time>
      </trkpt>
      <trkpt lat="46.45423" lon="0.10099">
        <ele>109.78</ele>
        <time>2023-06-19T20:18:31.223Z</time>
      </trkpt>
      <trkpt lat="46.45425" lon="0.10094">
        <ele>109.78</ele>
        <time>2023-06-19T20:19:34.355Z</time>
      </trkpt>
      <trkpt lat="46.45427" lon="0.10089">
        <ele>109.76</ele>
        <time>2023-06-19T20:20:37.487Z</time>
      </trkpt>
      <trkpt lat="46.45432" lon="0.1008">
        <ele>109.67</ele>
        <time>2023-06-19T20:21:40.621Z</time>
      </trkpt>
      <trkpt lat="46.45442" lon="0.1006">
        <ele>109.59</ele>
        <time>2023-06-19T20:22:43.757Z</time>
      </trkpt>
      <trkpt lat="46.45451" lon="0.10041">
        <ele>109.6</ele>
        <time>2023-06-19T20:23:46.896Z</time>
      </trkpt>
      <trkpt lat="46.45455" lon="0.10034">
        <ele>109.62</ele>
        <time>2023-06-19T20:24:50.036Z</time>
      </trkpt>
      <trkpt lat="46.45457" lon="0.10026">
        <ele>109.64</ele>
        <time>2023-06-19T20:25:53.177Z</time>
      </trkpt>
      <trkpt lat="46.4546" lon="0.10008">
        <ele>109.71</ele>
        <time>2023-06-19T20:26:56.320Z</time>
      </trkpt>
      <trkpt lat="46.4546" lon="0.10007">
        <ele>109.7</ele>
        <time>2023-06-19T20:27:59.463Z</time>
      </trkpt>
      <trkpt lat="46.45456" lon="0.09997">
        <ele>109.65</ele>
        <time>2023-06-19T20:29:02.607Z</time>
      </trkpt>
      <trkpt lat="46.45452" lon="0.09985">
        <ele>109.51</ele>
        <time>2023-06-19T20:30:05.753Z</time>
      </trkpt>
      <trkpt lat="46.45447" lon="0.09972">
        <ele>109.27</ele>
        <time>2023-06-19T20:31:08.900Z</time>
      </trkpt>
      <trkpt lat="46.45446" lon="0.09961">
        <ele>109.11</ele>
        <time>2023-06-19T20:32:12.049Z</time>
      </trkpt>
      <trkpt lat="46.45444" lon="0.09949">
        <ele>108.93</ele>
        <time>2023-06-19T20:33:15.199Z</time>
      </trkpt>
      <trkpt lat="46.45442" lon="0.09936">
        <ele>108.79</ele>
        <time>2023-06-19T20:34:18.351Z</time>
      </trkpt>
      <trkpt lat="46.4544" lon="0.09922">
        <ele>108.68</ele>
        <time>2023-06-19T20:35:21.504Z</time>
      </trkpt>
      <trkpt lat="46.4544" lon="0.09922">
        <ele>108.68</ele>
        <time>2023-06-19T20:36:24.657Z</time>
      </trkpt>
      <trkpt lat="46.45434" lon="0.09914">
        <ele>108.63</ele>
        <time>2023-06-19T20:37:27.811Z</time>
      </trkpt>
      <trkpt lat="46.45434" lon="0.09914">
        <ele>108.63</ele>
        <time>2023-06-19T20:38:30.965Z</time>
      </trkpt>
      <trkpt lat="46.4543" lon="0.09911">
        <ele>108.63</ele>
        <time>2023-06-19T20:39:34.120Z</time>
      </trkpt>
      <trkpt lat="46.45422" lon="0.09905">
        <ele>108.69</ele>
        <time>2023-06-19T20:40:37.277Z</time>
      </trkpt>
      <trkpt lat="46.45418" lon="0.09902">
        <ele>108.74</ele>
        <time>2023-06-19T20:41:40.434Z</time>
      </trkpt>
      <trkpt lat="46.45418" lon="0.09902">
        <ele>108.74</ele>
        <time>2023-06-19T20:42:43.591Z</time>
      </trkpt>
      <trkpt lat="46.45422" lon="0.09877">
        <ele>109.04</ele>
        <time>2023-06-19T20:43:46.751Z</time>
      </trkpt>
      <trkpt lat="46.45425" lon="0.09864">
        <ele>109.12</ele>
        <time>2023-06-19T20:44:49.913Z</time>
      </trkpt>
      <trkpt lat="46.45429" lon="0.09839">
        <ele>109.24</ele>
        <time>2023-06-19T20:45:53.077Z</time>
      </trkpt>
      <trkpt lat="46.45432" lon="0.0982">
        <ele>109.26</ele>
        <time>2023-06-19T20:46:56.244Z</time>
      </trkpt>
      <trkpt lat="46.45434" lon="0.09811">
        <ele>109.23</ele>
        <time>2023-06-19T20:47:59.412Z</time>
      </trkpt>
      <trkpt lat="46.45435" lon="0.09807">
        <ele>109.22</ele>
        <time>2023-06-19T20:49:02.580Z</time>
      </trkpt>
      <trkpt lat="46.45439" lon="0.09789">
        <ele>109.1</ele>
        <time>2023-06-19T20:50:05.750Z</time>
      </trkpt>
      <trkpt lat="46.45442" lon="0.09776">
        <ele>109.05</ele>
        <time>2023-06-19T20:51:08.922Z</time>
      </trkpt>
      <trkpt lat="46.4545" lon="0.09742">
        <ele>109.05</ele>
        <time>2023-06-19T20:52:12.098Z</time>
      </trkpt>
      <trkpt lat="46.45451" lon="0.09739">
        <ele>109.05</ele>
        <time>2023-06-19T20:53:15.274Z</time>
      </trkpt>
      <trkpt lat="46.45455" lon="0.09728">
        <ele>109.02</ele>
        <time>2023-06-19T20:54:18.451Z</time>
      </trkpt>
      <trkpt lat="46.45459" lon="0.09719">
        <ele>108.94</ele>
        <time>2023-06-19T20:55:21.630Z</time>
      </trkpt>
      <trkpt lat="46.45459" lon="0.09716">
        <ele>108.93</ele>
        <time>2023-06-19T20:56:24.809Z</time>
      </trkpt>
      <trkpt lat="46.45458" lon="0.09697">
        <ele>108.74</ele>
        <time>2023-06-19T20:57:27.990Z</time>
      </trkpt>
      <trkpt lat="46.45458" lon="0.09684">
        <ele>108.66</ele>
        <time>2023-06-19T20:58:31.173Z</time>
      </trkpt>
      <trkpt lat="46.45457" lon="0.0967">
        <ele>108.62</ele>
        <time>2023-06-19T20:59:34.357Z</time>
      </trkpt>
      <trkpt lat="46.45469" lon="0.09662">
        <ele>108.57</ele>
        <time>2023-06-19T21:00:37.543Z</time>
      </trkpt>
      <trkpt lat="46.45488" lon="0.0965">
        <ele>108.45</ele>
        <time>2023-06-19T21:01:40.732Z</time>
      </trkpt>
      <trkpt lat="46.45489" lon="0.09648">
        <ele>108.45</ele>
        <time>2023-06-19T21:02:43.922Z</time>
      </trkpt>
      <trkpt lat="46.45495" lon="0.09631">
        <ele>108.41</ele>
        <time>2023-06-19T21:03:47.114Z</time>
      </trkpt>
      <trkpt lat="46.45514" lon="0.09579">
        <ele>108.37</ele>
        <time>2023-06-19T21:04:50.312Z</time>
      </trkpt>
      <trkpt lat="46.45523" lon="0.09556">
        <ele>108.33</ele>
        <time>2023-06-19T21:05:53.513Z</time>
      </trkpt>
      <trkpt lat="46.45527" lon="0.09545">
        <ele>108.35</ele>
        <time>2023-06-19T21:06:56.716Z</time>
      </trkpt>
      <trkpt lat="46.45529" lon="0.09539">
        <ele>108.38</ele>
        <time>2023-06-19T21:07:59.919Z</time>
      </trkpt>
      <trkpt lat="46.45542" lon="0.09504">
        <ele>108.71</ele>
        <time>2023-06-19T21:09:03.127Z</time>
      </trkpt>
      <trkpt lat="46.45546" lon="0.09493">
        <ele>108.76</ele>
        <time>2023-06-19T21:10:06.336Z</time>
      </trkpt>
      <trkpt lat="46.45552" lon="0.09475">
        <ele>108.79</ele>
        <time>2023-06-19T21:11:09.547Z</time>
      </trkpt>
      <trkpt lat="46.45556" lon="0.09464">
        <ele>108.87</ele>
        <time>2023-06-19T21:12:12.760Z</time>
      </trkpt>
      <trkpt lat="46.45558" lon="0.09458">
        <ele>108.96</ele>
        <time>2023-06-19T21:13:15.974Z</time>
      </trkpt>
      <trkpt lat="46.45561" lon="0.09453">
        <ele>109.11</ele>
        <time>2023-06-19T21:14:19.188Z</time>
      </trkpt>
      <trkpt lat="46.45563" lon="0.09447">
        <ele>109.35</ele>
        <time>2023-06-19T21:15:22.403Z</time>
      </trkpt>
      <trkpt lat="46.45565" lon="0.09441">
        <ele>109.73</ele>
        <time>2023-06-19T21:16:25.619Z</time>
      </trkpt>
      <trkpt lat="46.45567" lon="0.09435">
        <ele>110.27</ele>
        <time>2023-06-19T21:17:28.835Z</time>
      </trkpt>
      <trkpt lat="46.45569" lon="0.0943">
        <ele>110.98</ele>
        <time>2023-06-19T21:18:32.052Z</time>
      </trkpt>
      <trkpt lat="46.45571" lon="0.09424">
        <ele>111.86</ele>
        <time>2023-06-19T21:19:35.270Z</time>
      </trkpt>
      <trkpt lat="46.45573" lon="0.09418">
        <ele>112.89</ele>
        <time>2023-06-19T21:20:38.489Z</time>
      </trkpt>
      <trkpt lat="46.4558" lon="0.09401">
        <ele>116.35</ele>
        <time>2023-06-19T21:21:41.710Z</time>
      </trkpt>
      <trkpt lat="46.45582" lon="0.09395">
        <ele>117.47</ele>
        <time>2023-06-19T21:22:44.931Z</time>
      </trkpt>
      <trkpt lat="46.45584" lon="0.09389">
        <ele>118.54</ele>
        <time>2023-06-19T21:23:48.153Z</time>
      </trkpt>
      <trkpt lat="46.45584" lon="0.09389">
        <ele>118.54</ele>
        <time>2023-06-19T21:24:51.375Z</time>
      </trkpt>
      <trkpt lat="46.45576" lon="0.09385">
        <ele>120.55</ele>
        <time>2023-06-19T21:25:54.599Z</time>
      </trkpt>
      <trkpt lat="46.45558" lon="0.09377">
        <ele>124.34</ele>
        <time>2023-06-19T21:26:57.825Z</time>
      </trkpt>
      <trkpt lat="46.4555" lon="0.09374">
        <ele>126.37</ele>
        <time>2023-06-19T21:28:01.053Z</time>
      </trkpt>
      <trkpt lat="46.45546" lon="0.09372">
        <ele>127.33</ele>
        <time>2023-06-19T21:29:04.282Z</time>
      </trkpt>
      <trkpt lat="46.45541" lon="0.0937">
        <ele>128.19</ele>
        <time>2023-06-19T21:30:07.511Z</time>
      </trkpt>
      <trkpt lat="46.45528" lon="0.09364">
        <ele>130.56</ele>
        <time>2023-06-19T21:31:10.743Z</time>
      </trkpt>
      <trkpt lat="46.45524" lon="0.09362">
        <ele>131.4</ele>
        <time>2023-06-19T21:32:13.975Z</time>
      </trkpt>
      <trkpt lat="46.4552" lon="0.0936">
        <ele>132.29</ele>
        <time>2023-06-19T21:33:17.208Z</time>
      </trkpt>
      <trkpt lat="46.45516" lon="0.09358">
        <ele>133.23</ele>
        <time>2023-06-19T21:34:20.442Z</time>
      </trkpt>
      <trkpt lat="46.45507" lon="0.09354">
        <ele>135.19</ele>
        <time>2023-06-19T21:35:23.677Z</time>
      </trkpt>
      <trkpt lat="46.4549" lon="0.09347">
        <ele>139.19</ele>
        <time>2023-06-19T21:36:26.915Z</time>
      </trkpt>
      <trkpt lat="46.45481" lon="0.09343">
        <ele>141.29</ele>
        <time>2023-06-19T21:37:30.154Z</time>
      </trkpt>
      <trkpt lat="46.45473" lon="0.09339">
        <ele>143.47</ele>
        <time>2023-06-19T21:38:33.395Z</time>
      </trkpt>
      <trkpt lat="46.45468" lon="0.09337">
        <ele>144.51</ele>
        <time>2023-06-19T21:39:36.637Z</time>
      </trkpt>
      <trkpt lat="46.45464" lon="0.09335">
        <ele>145.42</ele>
        <time>2023-06-19T21:40:39.879Z</time>
      </trkpt>
      <trkpt lat="46.4546" lon="0.09333">
        <ele>146.18</ele>
        <time>2023-06-19T21:41:43.122Z</time>
      </trkpt>
      <trkpt lat="46.45455" lon="0.09331">
        <ele>146.75</ele>
        <time>2023-06-19T21:42:46.366Z</time>
      </trkpt>
      <trkpt lat="46.45451" lon="0.09329">
        <ele>147.17</ele>
        <time>2023-06-19T21:43:49.610Z</time>
      </trkpt>
      <trkpt lat="46.45447" lon="0.09327">
        <ele>147.48</ele>
        <time>2023-06-19T21:44:52.855Z</time>
      </trkpt>
      <trkpt lat="46.45443" lon="0.09325">
        <ele>147.73</ele>
        <time>2023-06-19T21:45:56.101Z</time>
      </trkpt>
      <trkpt lat="46.45434" lon="0.09322">
        <ele>147.92</ele>
        <time>2023-06-19T21:46:59.348Z</time>
      </trkpt>
      <trkpt lat="46.45426" lon="0.09318">
        <ele>148.06</ele>
        <time>2023-06-19T21:48:02.597Z</time>
      </trkpt>
      <trkpt lat="46.45428" lon="0.09312">
        <ele>148.14</ele>
        <time>2023-06-19T21:49:05.846Z</time>
      </trkpt>
      <trkpt lat="46.45446" lon="0.09262">
        <ele>148.64</ele>
        <time>2023-06-19T21:50:09.102Z</time>
      </trkpt>
      <trkpt lat="46.45448" lon="0.09256">
        <ele>148.65</ele>
        <time>2023-06-19T21:51:12.358Z</time>
      </trkpt>
      <trkpt lat="46.45456" lon="0.09241">
        <ele>148.69</ele>
        <time>2023-06-19T21:52:15.617Z</time>
      </trkpt>
      <trkpt lat="46.45457" lon="0.09238">
        <ele>148.68</ele>
        <time>2023-06-19T21:53:18.876Z</time>
      </trkpt>
      <trkpt lat="46.45468" lon="0.09222">
        <ele>148.68</ele>
        <time>2023-06-19T21:54:22.137Z</time>
      </trkpt>
      <trkpt lat="46.45484" lon="0.092">
        <ele>148.55</ele>
        <time>2023-06-19T21:55:25.402Z</time>
      </trkpt>
      <trkpt lat="46.45497" lon="0.09182">
        <ele>148.49</ele>
        <time>2023-06-19T21:56:28.670Z</time>
      </trkpt>
      <trkpt lat="46.45503" lon="0.09173">
        <ele>148.43</ele>
        <time>2023-06-19T21:57:31.939Z</time>
      </trkpt>
      <trkpt lat="46.45506" lon="0.09169">
        <ele>148.38</ele>
        <time>2023-06-19T21:58:35.209Z</time>
      </trkpt>
      <trkpt lat="46.45519" lon="0.09151">
        <ele>148.12</ele>
        <time>2023-06-19T21:59:38.482Z</time>
      </trkpt>
      <trkpt lat="46.45525" lon="0.09142">
        <ele>148.02</ele>
        <time>2023-06-19T22:00:41.756Z</time>
      </trkpt>
      <trkpt lat="46.45541" lon="0.0912">
        <ele>147.74</ele>
        <time>2023-06-19T22:01:45.034Z</time>
      </trkpt>
      <trkpt lat="46.45547" lon="0.09111">
        <ele>147.68</ele>
        <time>2023-06-19T22:02:48.313Z</time>
      </trkpt>
      <trkpt lat="46.45547" lon="0.09111">
        <ele>147.68</ele>
        <time>2023-06-19T22:03:51.592Z</time>
      </trkpt>
      <trkpt lat="46.45546" lon="0.09105">
        <ele>147.67</ele>
        <time>2023-06-19T22:04:54.872Z</time>
      </trkpt>
      <trkpt lat="46.45548" lon="0.091">
        <ele>147.67</ele>
        <time>2023-06-19T22:05:58.152Z</time>
      </trkpt>
      <trkpt lat="46.45555" lon="0.09084">
        <ele>147.75</ele>
        <time>2023-06-19T22:07:01.434Z</time>
      </trkpt>
      <trkpt lat="46.45559" lon="0.09073">
        <ele>147.71</ele>
        <time>2023-06-19T22:08:04.718Z</time>
      </trkpt>
      <trkpt lat="46.45562" lon="0.09068">
        <ele>147.7</ele>
        <time>2023-06-19T22:09:08.002Z</time>
      </trkpt>
      <trkpt lat="46.45575" lon="0.09043">
        <ele>147.58</ele>
        <time>2023-06-19T22:10:11.290Z</time>
      </trkpt>
      <trkpt lat="46.45579" lon="0.09035">
        <ele>147.49</ele>
        <time>2023-06-19T22:11:14.579Z</time>
      </trkpt>
      <trkpt lat="46.45589" lon="0.09018">
        <ele>147.3</ele>
        <time>2023-06-19T22:12:17.871Z</time>
      </trkpt>
      <trkpt lat="46.45595" lon="0.09008">
        <ele>147.14</ele>
        <time>2023-06-19T22:13:21.164Z</time>
      </trkpt>
      <trkpt lat="46.45613" lon="0.08981">
        <ele>146.72</ele>
        <time>2023-06-19T22:14:24.461Z</time>
      </trkpt>
      <trkpt lat="46.4562" lon="0.08972">
        <ele>146.55</ele>
        <time>2023-06-19T22:15:27.760Z</time>
      </trkpt>
      <trkpt lat="46.45635" lon="0.08949">
        <ele>146.05</ele>
        <time>2023-06-19T22:16:31.062Z</time>
      </trkpt>
      <trkpt lat="46.45641" lon="0.0894">
        <ele>145.87</ele>
        <time>2023-06-19T22:17:34.366Z</time>
      </trkpt>
      <trkpt lat="46.45651" lon="0.08926">
        <ele>145.66</ele>
        <time>2023-06-19T22:18:37.672Z</time>
      </trkpt>
      <trkpt lat="46.45652" lon="0.08924">
        <ele>145.63</ele>
        <time>2023-06-19T22:19:40.978Z</time>
      </trkpt>
      <trkpt lat="46.45637" lon="0.08905">
        <ele>145.36</ele>
        <time>2023-06-19T22:20:44.287Z</time>
      </trkpt>
      <trkpt lat="46.45631" lon="0.08897">
        <ele>145.27</ele>
        <time>2023-06-19T22:21:47.598Z</time>
      </trkpt>
      <trkpt lat="46.4563" lon="0.08896">
        <ele>145.26</ele>
        <time>2023-06-19T22:22:50.909Z</time>
      </trkpt>
      <trkpt lat="46.45621" lon="0.08882">
        <ele>145.15</ele>
        <time>2023-06-19T22:23:54.222Z</time>
      </trkpt>
      <trkpt lat="46.45612" lon="0.08868">
        <ele>145.06</ele>
        <time>2023-06-19T22:24:57.537Z</time>
      </trkpt>
      <trkpt lat="46.45608" lon="0.08864">
        <ele>145.04</ele>
        <time>2023-06-19T22:26:00.853Z</time>
      </trkpt>
      <trkpt lat="46.45597" lon="0.08854">
        <ele>145.01</ele>
        <time>2023-06-19T22:27:04.171Z</time>
      </trkpt>
      <trkpt lat="46.45583" lon="0.0884">
        <ele>145.04</ele>
        <time>2023-06-19T22:28:07.492Z</time>
      </trkpt>
      <trkpt lat="46.45582" lon="0.0884">
        <ele>145.04</ele>
        <time>2023-06-19T22:29:10.813Z</time>
      </trkpt>
      <trkpt lat="46.45571" lon="0.0883">
        <ele>144.42</ele>
        <time>2023-06-19T22:30:14.136Z</time>
      </trkpt>
      <trkpt lat="46.45559" lon="0.08821">
        <ele>143.85</ele>
        <time>2023-06-19T22:31:17.461Z</time>
      </trkpt>
      <trkpt lat="46.45547" lon="0.08811">
        <ele>143.32</ele>
        <time>2023-06-19T22:32:20.788Z</time>
      </trkpt>
      <trkpt lat="46.45533" lon="0.088">
        <ele>142.75</ele>
        <time>2023-06-19T22:33:24.118Z</time>
      </trkpt>
      <trkpt lat="46.45528" lon="0.08793">
        <ele>142.53</ele>
        <time>2023-06-19T22:34:27.449Z</time>
      </trkpt>
      <trkpt lat="46.45522" lon="0.08784">
        <ele>142.18</ele>
        <time>2023-06-19T22:35:30.781Z</time>
      </trkpt>
      <trkpt lat="46.45516" lon="0.08775">
        <ele>141.77</ele>
        <time>2023-06-19T22:36:34.115Z</time>
      </trkpt>
      <trkpt lat="46.45512" lon="0.0877">
        <ele>141.48</ele>
        <time>2023-06-19T22:37:37.449Z</time>
      </trkpt>
      <trkpt lat="46.45507" lon="0.0876">
        <ele>141.03</ele>
        <time>2023-06-19T22:38:40.785Z</time>
      </trkpt>
      <trkpt lat="46.45501" lon="0.0875">
        <ele>140.47</ele>
        <time>2023-06-19T22:39:44.122Z</time>
      </trkpt>
      <trkpt lat="46.45496" lon="0.0874">
        <ele>139.85</ele>
        <time>2023-06-19T22:40:47.461Z</time>
      </trkpt>
      <trkpt lat="46.45491" lon="0.08731">
        <ele>139.25</ele>
        <time>2023-06-19T22:41:50.801Z</time>
      </trkpt>
      <trkpt lat="46.4549" lon="0.0873">
        <ele>139.16</ele>
        <time>2023-06-19T22:42:54.141Z</time>
      </trkpt>
      <trkpt lat="46.45484" lon="0.0872">
        <ele>138.44</ele>
        <time>2023-06-19T22:43:57.482Z</time>
      </trkpt>
      <trkpt lat="46.45478" lon="0.0871">
        <ele>137.69</ele>
        <time>2023-06-19T22:45:00.825Z</time>
      </trkpt>
      <trkpt lat="46.45472" lon="0.087">
        <ele>136.9</ele>
        <time>2023-06-19T22:46:04.169Z</time>
      </trkpt>
      <trkpt lat="46.45466" lon="0.08691">
        <ele>136.05</ele>
        <time>2023-06-19T22:47:07.515Z</time>
      </trkpt>
      <trkpt lat="46.4546" lon="0.08681">
        <ele>135.11</ele>
        <time>2023-06-19T22:48:10.862Z</time>
      </trkpt>
      <trkpt lat="46.45452" lon="0.08667">
        <ele>134.2</ele>
        <time>2023-06-19T22:49:14.211Z</time>
      </trkpt>
      <trkpt lat="46.4545" lon="0.08664">
        <ele>134.02</ele>
        <time>2023-06-19T22:50:17.561Z</time>
      </trkpt>
      <trkpt lat="46.45435" lon="0.08645">
        <ele>132.59</ele>
        <time>2023-06-19T22:51:20.914Z</time>
      </trkpt>
      <trkpt lat="46.45427" lon="0.08622">
        <ele>131.32</ele>
        <time>2023-06-19T22:52:24.270Z</time>
      </trkpt>
      <trkpt lat="46.4543" lon="0.08604">
        <ele>130.4</ele>
        <time>2023-06-19T22:53:27.628Z</time>
      </trkpt>
      <trkpt lat="46.45432" lon="0.08592">
        <ele>129.84</ele>
        <time>2023-06-19T22:54:30.987Z</time>
      </trkpt>
      <trkpt lat="46.45432" lon="0.08585">
        <ele>129.52</ele>
        <time>2023-06-19T22:55:34.347Z</time>
      </trkpt>
      <trkpt lat="46.45433" lon="0.08566">
        <ele>128.69</ele>
        <time>2023-06-19T22:56:37.709Z</time>
      </trkpt>
      <trkpt lat="46.45433" lon="0.08551">
        <ele>128.14</ele>
        <time>2023-06-19T22:57:41.073Z</time>
      </trkpt>
      <trkpt lat="46.45433" lon="0.08547">
        <ele>127.98</ele>
        <time>2023-06-19T22:58:44.437Z</time>
      </trkpt>
      <trkpt lat="46.45436" lon="0.08521">
        <ele>126.97</ele>
        <time>2023-06-19T22:59:47.804Z</time>
      </trkpt>
      <trkpt lat="46.45437" lon="0.08509">
        <ele>126.48</ele>
        <time>2023-06-19T23:00:51.172Z</time>
      </trkpt>
      <trkpt lat="46.4544" lon="0.08477">
        <ele>125.34</ele>
        <time>2023-06-19T23:01:54.544Z</time>
      </trkpt>
      <trkpt lat="46.45441" lon="0.08465">
        <ele>124.92</ele>
        <time>2023-06-19T23:02:57.917Z</time>
      </trkpt>
      <trkpt lat="46.45443" lon="0.08452">
        <ele>124.54</ele>
        <time>2023-06-19T23:04:01.292Z</time>
      </trkpt>
      <trkpt lat="46.45444" lon="0.08439">
        <ele>124.19</ele>
        <time>2023-06-19T23:05:04.668Z</time>
      </trkpt>
      <trkpt lat="46.45445" lon="0.08429">
        <ele>123.92</ele>
        <time>2023-06-19T23:06:08.045Z</time>
      </trkpt>
      <trkpt lat="46.45445" lon="0.08427">
        <ele>123.87</ele>
        <time>2023-06-19T23:07:11.423Z</time>
      </trkpt>
      <trkpt lat="46.4544" lon="0.08356">
        <ele>121.57</ele>
        <time>2023-06-19T23:08:14.808Z</time>
      </trkpt>
      <trkpt lat="46.45439" lon="0.08343">
        <ele>121.21</ele>
        <time>2023-06-19T23:09:18.195Z</time>
      </trkpt>
      <trkpt lat="46.45438" lon="0.0833">
        <ele>120.89</ele>
        <time>2023-06-19T23:10:21.583Z</time>
      </trkpt>
      <trkpt lat="46.45437" lon="0.0832">
        <ele>120.61</ele>
        <time>2023-06-19T23:11:24.972Z</time>
      </trkpt>
      <trkpt lat="46.45437" lon="0.08317">
        <ele>120.54</ele>
        <time>2023-06-19T23:12:28.362Z</time>
      </trkpt>
      <trkpt lat="46.45434" lon="0.08305">
        <ele>120.16</ele>
        <time>2023-06-19T23:13:31.753Z</time>
      </trkpt>
      <trkpt lat="46.4543" lon="0.0828">
        <ele>119.36</ele>
        <time>2023-06-19T23:14:35.147Z</time>
      </trkpt>
      <trkpt lat="46.45428" lon="0.08267">
        <ele>118.99</ele>
        <time>2023-06-19T23:15:38.543Z</time>
      </trkpt>
      <trkpt lat="46.4542" lon="0.08223">
        <ele>117.85</ele>
        <time>2023-06-19T23:16:41.944Z</time>
      </trkpt>
      <trkpt lat="46.45418" lon="0.0821">
        <ele>117.61</ele>
        <time>2023-06-19T23:17:45.346Z</time>
      </trkpt>
      <trkpt lat="46.45417" lon="0.08204">
        <ele>117.53</ele>
        <time>2023-06-19T23:18:48.749Z</time>
      </trkpt>
      <trkpt lat="46.45413" lon="0.08185">
        <ele>117.35</ele>
        <time>2023-06-19T23:19:52.154Z</time>
      </trkpt>
      <trkpt lat="46.4541" lon="0.08166">
        <ele>117.13</ele>
        <time>2023-06-19T23:20:55.561Z</time>
      </trkpt>
      <trkpt lat="46.45409" lon="0.0816">
        <ele>117.07</ele>
        <time>2023-06-19T23:21:58.969Z</time>
      </trkpt>
      <trkpt lat="46.45407" lon="0.0815">
        <ele>117.02</ele>
        <time>2023-06-19T23:23:02.378Z</time>
      </trkpt>
      <trkpt lat="46.45407" lon="0.08148">
        <ele>117.01</ele>
        <time>2023-06-19T23:24:05.787Z</time>
      </trkpt>
      <trkpt lat="46.45406" lon="0.08141">
        <ele>117.02</ele>
        <time>2023-06-19T23:25:09.197Z</time>
      </trkpt>
      <trkpt lat="46.45406" lon="0.08128">
        <ele>117.09</ele>
        <time>2023-06-19T23:26:12.608Z</time>
      </trkpt>
      <trkpt lat="46.45405" lon="0.08115">
        <ele>117.22</ele>
        <time>2023-06-19T23:27:16.021Z</time>
      </trkpt>
      <trkpt lat="46.45404" lon="0.08102">
        <ele>117.37</ele>
        <time>2023-06-19T23:28:19.435Z</time>
      </trkpt>
      <trkpt lat="46.45402" lon="0.08077">
        <ele>117.61</ele>
        <time>2023-06-19T23:29:22.852Z</time>
      </trkpt>
      <trkpt lat="46.45402" lon="0.0807">
        <ele>117.69</ele>
        <time>2023-06-19T23:30:26.270Z</time>
      </trkpt>
      <trkpt lat="46.45401" lon="0.08057">
        <ele>117.9</ele>
        <time>2023-06-19T23:31:29.689Z</time>
      </trkpt>
      <trkpt lat="46.454" lon="0.08041">
        <ele>118.22</ele>
        <time>2023-06-19T23:32:33.110Z</time>
      </trkpt>
      <trkpt lat="46.45397" lon="0.08025">
        <ele>118.56</ele>
        <time>2023-06-19T23:33:36.533Z</time>
      </trkpt>
      <trkpt lat="46.45394" lon="0.08013">
        <ele>118.86</ele>
        <time>2023-06-19T23:34:39.957Z</time>
      </trkpt>
      <trkpt lat="46.45391" lon="0.07994">
        <ele>119.34</ele>
        <time>2023-06-19T23:35:43.383Z</time>
      </trkpt>
      <trkpt lat="46.4539" lon="0.0799">
        <ele>119.43</ele>
        <time>2023-06-19T23:36:46.810Z</time>
      </trkpt>
      <trkpt lat="46.45389" lon="0.07988">
        <ele>119.48</ele>
        <time>2023-06-19T23:37:50.237Z</time>
      </trkpt>
      <trkpt lat="46.45387" lon="0.07982">
        <ele>119.59</ele>
        <time>2023-06-19T23:38:53.665Z</time>
      </trkpt>
      <trkpt lat="46.45382" lon="0.07971">
        <ele>119.75</ele>
        <time>2023-06-19T23:39:57.094Z</time>
      </trkpt>
      <trkpt lat="46.45376" lon="0.07955">
        <ele>119.9</ele>
        <time>2023-06-19T23:41:00.525Z</time>
      </trkpt>
      <trkpt lat="46.45371" lon="0.07944">
        <ele>120.03</ele>
        <time>2023-06-19T23:42:03.958Z</time>
      </trkpt>
      <trkpt lat="46.45361" lon="0.07919">
        <ele>120.38</ele>
        <time>2023-06-19T23:43:07.394Z</time>
      </trkpt>
      <trkpt lat="46.45362" lon="0.07915">
        <ele>120.44</ele>
        <time>2023-06-19T23:44:10.830Z</time>
      </trkpt>
      <trkpt lat="46.45368" lon="0.07898">
        <ele>120.73</ele>
        <time>2023-06-19T23:45:14.269Z</time>
      </trkpt>
      <trkpt lat="46.45369" lon="0.07894">
        <ele>120.79</ele>
        <time>2023-06-19T23:46:17.708Z</time>
      </trkpt>
      <trkpt lat="46.45382" lon="0.07867">
        <ele>121.35</ele>
        <time>2023-06-19T23:47:21.151Z</time>
      </trkpt>
      <trkpt lat="46.45387" lon="0.07862">
        <ele>121.49</ele>
        <time>2023-06-19T23:48:24.595Z</time>
      </trkpt>
      <trkpt lat="46.45397" lon="0.07851">
        <ele>121.76</ele>
        <time>2023-06-19T23:49:28.041Z</time>
      </trkpt>
      <trkpt lat="46.45412" lon="0.07835">
        <ele>122.06</ele>
        <time>2023-06-19T23:50:31.490Z</time>
      </trkpt>
      <trkpt lat="46.45414" lon="0.07833">
        <ele>122.08</ele>
        <time>2023-06-19T23:51:34.939Z</time>
      </trkpt>
      <trkpt lat="46.45419" lon="0.07829">
        <ele>122.15</ele>
        <time>2023-06-19T23:52:38.389Z</time>
      </trkpt>
      <trkpt lat="46.45423" lon="0.07825">
        <ele>122.17</ele>
        <time>2023-06-19T23:53:41.840Z</time>
      </trkpt>
      <trkpt lat="46.45425" lon="0.07824">
        <ele>122.16</ele>
        <time>2023-06-19T23:54:45.291Z</time>
      </trkpt>
      <trkpt lat="46.45428" lon="0.07825">
        <ele>122.16</ele>
        <time>2023-06-19T23:55:48.742Z</time>
      </trkpt>
      <trkpt lat="46.45432" lon="0.07826">
        <ele>122.12</ele>
        <time>2023-06-19T23:56:52.194Z</time>
      </trkpt>
      <trkpt lat="46.45447" lon="0.07832">
        <ele>121.92</ele>
        <time>2023-06-19T23:57:55.649Z</time>
      </trkpt>
      <trkpt lat="46.45453" lon="0.07836">
        <ele>121.84</ele>
        <time>2023-06-19T23:58:59.105Z</time>
      </trkpt>
      <trkpt lat="46.45461" lon="0.07841">
        <ele>121.77</ele>
        <time>2023-06-20T00:00:02.562Z</time>
      </trkpt>
      <trkpt lat="46.45482" lon="0.07854">
        <ele>121.76</ele>
        <time>2023-06-20T00:01:06.023Z</time>
      </trkpt>
      <trkpt lat="46.4549" lon="0.07859">
        <ele>121.79</ele>
        <time>2023-06-20T00:02:09.485Z</time>
      </trkpt>
      <trkpt lat="46.45506" lon="0.0787">
        <ele>121.92</ele>
        <time>2023-06-20T00:03:12.950Z</time>
      </trkpt>
      <trkpt lat="46.45524" lon="0.07881">
        <ele>122.03</ele>
        <time>2023-06-20T00:04:16.418Z</time>
      </trkpt>
      <trkpt lat="46.45535" lon="0.07887">
        <ele>122.11</ele>
        <time>2023-06-20T00:05:19.888Z</time>
      </trkpt>
      <trkpt lat="46.45544" lon="0.07891">
        <ele>122.22</ele>
        <time>2023-06-20T00:06:23.360Z</time>
      </trkpt>
      <trkpt lat="46.45561" lon="0.079">
        <ele>122.53</ele>
        <time>2023-06-20T00:07:26.834Z</time>
      </trkpt>
      <trkpt lat="46.45565" lon="0.07902">
        <ele>122.59</ele>
        <time>2023-06-20T00:08:30.309Z</time>
      </trkpt>
      <trkpt lat="46.45569" lon="0.07903">
        <ele>122.66</ele>
        <time>2023-06-20T00:09:33.785Z</time>
      </trkpt>
      <trkpt lat="46.45591" lon="0.07909">
        <ele>122.87</ele>
        <time>2023-06-20T00:10:37.264Z</time>
      </trkpt>
      <trkpt lat="46.456" lon="0.07912">
        <ele>122.94</ele>
        <time>2023-06-20T00:11:40.745Z</time>
      </trkpt>
      <trkpt lat="46.45624" lon="0.07919">
        <ele>123.05</ele>
        <time>2023-06-20T00:12:44.230Z</time>
      </trkpt>
      <trkpt lat="46.45643" lon="0.07926">
        <ele>123.15</ele>
        <time>2023-06-20T00:13:47.718Z</time>
      </trkpt>
      <trkpt lat="46.45661" lon="0.07933">
        <ele>123.31</ele>
        <time>2023-06-20T00:14:51.209Z</time>
      </trkpt>
      <trkpt lat="46.45669" lon="0.07936">
        <ele>123.44</ele>
        <time>2023-06-20T00:15:54.701Z</time>
      </trkpt>
      <trkpt lat="46.45678" lon="0.0794">
        <ele>123.6</ele>
        <time>2023-06-20T00:16:58.195Z</time>
      </trkpt>
      <trkpt lat="46.45707" lon="0.07951">
        <ele>124.24</ele>
        <time>2023-06-20T00:18:01.694Z</time>
      </trkpt>
      <trkpt lat="46.45712" lon="0.07955">
        <ele>124.36</ele>
        <time>2023-06-20T00:19:05.193Z</time>
      </trkpt>
      <trkpt lat="46.45714" lon="0.07957">
        <ele>124.4</ele>
        <time>2023-06-20T00:20:08.693Z</time>
      </trkpt>
      <trkpt lat="46.4572" lon="0.0796">
        <ele>124.5</ele>
        <time>2023-06-20T00:21:12.194Z</time>
      </trkpt>
      <trkpt lat="46.45724" lon="0.07962">
        <ele>124.55</ele>
        <time>2023-06-20T00:22:15.696Z</time>
      </trkpt>
      <trkpt lat="46.45733" lon="0.07967">
        <ele>124.61</ele>
        <time>2023-06-20T00:23:19.199Z</time>
      </trkpt>
      <trkpt lat="46.45735" lon="0.07968">
        <ele>124.61</ele>
        <time>2023-06-20T00:24:22.702Z</time>
      </trkpt>
      <trkpt lat="46.45741" lon="0.07972">
        <ele>124.63</ele>
        <time>2023-06-20T00:25:26.206Z</time>
      </trkpt>
      <trkpt lat="46.45756" lon="0.07983">
        <ele>124.62</ele>
        <time>2023-06-20T00:26:29.713Z</time>
      </trkpt>
      <trkpt lat="46.45761" lon="0.07985">
        <ele>124.62</ele>
        <time>2023-06-20T00:27:33.221Z</time>
      </trkpt>
      <trkpt lat="46.4577" lon="0.07988">
        <ele>124.65</ele>
        <time>2023-06-20T00:28:36.730Z</time>
      </trkpt>
      <trkpt lat="46.45778" lon="0.07992">
        <ele>124.72</ele>
        <time>2023-06-20T00:29:40.241Z</time>
      </trkpt>
      <trkpt lat="46.458" lon="0.08">
        <ele>125.02</ele>
        <time>2023-06-20T00:30:43.755Z</time>
      </trkpt>
      <trkpt lat="46.45809" lon="0.08003">
        <ele>125.11</ele>
        <time>2023-06-20T00:31:47.271Z</time>
      </trkpt>
      <trkpt lat="46.45813" lon="0.08005">
        <ele>125.13</ele>
        <time>2023-06-20T00:32:50.788Z</time>
      </trkpt>
      <trkpt lat="46.45817" lon="0.08006">
        <ele>125.15</ele>
        <time>2023-06-20T00:33:54.305Z</time>
      </trkpt>
      <trkpt lat="46.4582" lon="0.08006">
        <ele>125.14</ele>
        <time>2023-06-20T00:34:57.823Z</time>
      </trkpt>
      <trkpt lat="46.45821" lon="0.07993">
        <ele>125.12</ele>
        <time>2023-06-20T00:36:01.342Z</time>
      </trkpt>
      <trkpt lat="46.45827" lon="0.07994">
        <ele>125.11</ele>
        <time>2023-06-20T00:37:04.862Z</time>
      </trkpt>
      <trkpt lat="46.45832" lon="0.07995">
        <ele>125.12</ele>
        <time>2023-06-20T00:38:08.383Z</time>
      </trkpt>
      <trkpt lat="46.4584" lon="0.07996">
        <ele>125.18</ele>
        <time>2023-06-20T00:39:11.905Z</time>
      </trkpt>
      <trkpt lat="46.45858" lon="0.07999">
        <ele>125.39</ele>
        <time>2023-06-20T00:40:15.430Z</time>
      </trkpt>
      <trkpt lat="46.45861" lon="0.07999">
        <ele>125.43</ele>
        <time>2023-06-20T00:41:18.956Z</time>
      </trkpt>
      <trkpt lat="46.45867" lon="0.08002">
        <ele>125.53</ele>
        <time>2023-06-20T00:42:22.483Z</time>
      </trkpt>
      <trkpt lat="46.45875" lon="0.08007">
        <ele>125.74</ele>
        <time>2023-06-20T00:43:26.011Z</time>
      </trkpt>
      <trkpt lat="46.45876" lon="0.08008">
        <ele>125.77</ele>
        <time>2023-06-20T00:44:29.539Z</time>
      </trkpt>
      <trkpt lat="46.45882" lon="0.08015">
        <ele>126.05</ele>
        <time>2023-06-20T00:45:33.068Z</time>
      </trkpt>
      <trkpt lat="46.45889" lon="0.08022">
        <ele>126.47</ele>
        <time>2023-06-20T00:46:36.599Z</time>
      </trkpt>
      <trkpt lat="46.45893" lon="0.08026">
        <ele>126.72</ele>
        <time>2023-06-20T00:47:40.131Z</time>
      </trkpt>
      <trkpt lat="46.45894" lon="0.08027">
        <ele>126.79</ele>
        <time>2023-06-20T00:48:43.663Z</time>
      </trkpt>
      <trkpt lat="46.45897" lon="0.08029">
        <ele>127.03</ele>
        <time>2023-06-20T00:49:47.195Z</time>
      </trkpt>
      <trkpt lat="46.45901" lon="0.08032">
        <ele>127.4</ele>
        <time>2023-06-20T00:50:50.728Z</time>
      </trkpt>
      <trkpt lat="46.45905" lon="0.08036">
        <ele>127.83</ele>
        <time>2023-06-20T00:51:54.262Z</time>
      </trkpt>
      <trkpt lat="46.45909" lon="0.08039">
        <ele>128.28</ele>
        <time>2023-06-20T00:52:57.796Z</time>
      </trkpt>
      <trkpt lat="46.45917" lon="0.08045">
        <ele>128.49</ele>
        <time>2023-06-20T00:54:01.332Z</time>
      </trkpt>
      <trkpt lat="46.45921" lon="0.08048">
        <ele>128.63</ele>
        <time>2023-06-20T00:55:04.869Z</time>
      </trkpt>
      <trkpt lat="46.45925" lon="0.08051">
        <ele>128.82</ele>
        <time>2023-06-20T00:56:08.406Z</time>
      </trkpt>
      <trkpt lat="46.45927" lon="0.08053">
        <ele>128.96</ele>
        <time>2023-06-20T00:57:11.944Z</time>
      </trkpt>
      <trkpt lat="46.45932" lon="0.08058">
        <ele>129.28</ele>
        <time>2023-06-20T00:58:15.483Z</time>
      </trkpt>
      <trkpt lat="46.45947" lon="0.08073">
        <ele>130.33</ele>
        <time>2023-06-20T00:59:19.025Z</time>
      </trkpt>
      <trkpt lat="46.45947" lon="0.08073">
        <ele>130.33</ele>
        <time>2023-06-20T01:00:22.567Z</time>
      </trkpt>
      <trkpt lat="46.45959" lon="0.08082">
        <ele>131.16</ele>
        <time>2023-06-20T01:01:26.111Z</time>
      </trkpt>
      <trkpt lat="46.45961" lon="0.08083">
        <ele>131.3</ele>
        <time>2023-06-20T01:02:29.655Z</time>
      </trkpt>
      <trkpt lat="46.45967" lon="0.08086">
        <ele>131.76</ele>
        <time>2023-06-20T01:03:33.200Z</time>
      </trkpt>
      <trkpt lat="46.4598" lon="0.08093">
        <ele>132.72</ele>
        <time>2023-06-20T01:04:36.747Z</time>
      </trkpt>
      <trkpt lat="46.45993" lon="0.081">
        <ele>133.65</ele>
        <time>2023-06-20T01:05:40.297Z</time>
      </trkpt>
      <trkpt lat="46.46001" lon="0.08104">
        <ele>134.34</ele>
        <time>2023-06-20T01:06:43.848Z</time>
      </trkpt>
      <trkpt lat="46.46009" lon="0.08108">
        <ele>135</ele>
        <time>2023-06-20T01:07:47.400Z</time>
      </trkpt>
      <trkpt lat="46.46022" lon="0.08115">
        <ele>135.87</ele>
        <time>2023-06-20T01:08:50.955Z</time>
      </trkpt>
      <trkpt lat="46.4603" lon="0.08119">
        <ele>136.36</ele>
        <time>2023-06-20T01:09:54.511Z</time>
      </trkpt>
      <trkpt lat="46.46032" lon="0.0812">
        <ele>136.43</ele>
        <time>2023-06-20T01:10:58.067Z</time>
      </trkpt>
      <trkpt lat="46.46035" lon="0.0812">
        <ele>136.58</ele>
        <time>2023-06-20T01:12:01.624Z</time>
      </trkpt>
      <trkpt lat="46.46044" lon="0.08121">
        <ele>136.95</ele>
        <time>2023-06-20T01:13:05.182Z</time>
      </trkpt>
      <trkpt lat="46.46051" lon="0.08121">
        <ele>137.19</ele>
        <time>2023-06-20T01:14:08.741Z</time>
      </trkpt>
      <trkpt lat="46.46053" lon="0.0812">
        <ele>137.25</ele>
        <time>2023-06-20T01:15:12.301Z</time>
      </trkpt>
      <trkpt lat="46.46066" lon="0.08116">
        <ele>137.63</ele>
        <time>2023-06-20T01:16:15.863Z</time>
      </trkpt>
      <trkpt lat="46.4607" lon="0.08114">
        <ele>137.74</ele>
        <time>2023-06-20T01:17:19.425Z</time>
      </trkpt>
      <trkpt lat="46.46079" lon="0.08108">
        <ele>137.98</ele>
        <time>2023-06-20T01:18:22.989Z</time>
      </trkpt>
      <trkpt lat="46.46084" lon="0.08099">
        <ele>138.18</ele>
        <time>2023-06-20T01:19:26.554Z</time>
      </trkpt>
      <trkpt lat="46.46093" lon="0.08083">
        <ele>138.43</ele>
        <time>2023-06-20T01:20:30.122Z</time>
      </trkpt>
      <trkpt lat="46.4611" lon="0.08067">
        <ele>138.8</ele>
        <time>2023-06-20T01:21:33.693Z</time>
      </trkpt>
      <trkpt lat="46.46118" lon="0.08063">
        <ele>138.95</ele>
        <time>2023-06-20T01:22:37.265Z</time>
      </trkpt>
      <trkpt lat="46.4612" lon="0.08063">
        <ele>138.99</ele>
        <time>2023-06-20T01:23:40.837Z</time>
      </trkpt>
      <trkpt lat="46.46126" lon="0.08062">
        <ele>139.11</ele>
        <time>2023-06-20T01:24:44.410Z</time>
      </trkpt>
      <trkpt lat="46.46159" lon="0.08074">
        <ele>139.77</ele>
        <time>2023-06-20T01:25:47.989Z</time>
      </trkpt>
      <trkpt lat="46.46166" lon="0.08076">
        <ele>139.93</ele>
        <time>2023-06-20T01:26:51.569Z</time>
      </trkpt>
      <trkpt lat="46.46168" lon="0.08076">
        <ele>139.98</ele>
        <time>2023-06-20T01:27:55.149Z</time>
      </trkpt>
      <trkpt lat="46.46186" lon="0.08075">
        <ele>140.51</ele>
        <time>2023-06-20T01:28:58.732Z</time>
      </trkpt>
      <trkpt lat="46.46194" lon="0.08075">
        <ele>140.69</ele>
        <time>2023-06-20T01:30:02.317Z</time>
      </trkpt>
      <trkpt lat="46.46203" lon="0.08074">
        <ele>140.82</ele>
        <time>2023-06-20T01:31:05.903Z</time>
      </trkpt>
      <trkpt lat="46.46212" lon="0.08074">
        <ele>140.88</ele>
        <time>2023-06-20T01:32:09.490Z</time>
      </trkpt>
      <trkpt lat="46.46212" lon="0.08074">
        <ele>140.88</ele>
        <time>2023-06-20T01:33:13.077Z</time>
      </trkpt>
      <trkpt lat="46.46219" lon="0.08078">
        <ele>140.89</ele>
        <time>2023-06-20T01:34:16.666Z</time>
      </trkpt>
      <trkpt lat="46.46222" lon="0.08079">
        <ele>140.88</ele>
        <time>2023-06-20T01:35:20.255Z</time>
      </trkpt>
      <trkpt lat="46.46228" lon="0.08078">
        <ele>140.86</ele>
        <time>2023-06-20T01:36:23.845Z</time>
      </trkpt>
      <trkpt lat="46.46233" lon="0.08078">
        <ele>140.8</ele>
        <time>2023-06-20T01:37:27.436Z</time>
      </trkpt>
      <trkpt lat="46.4624" lon="0.08074">
        <ele>140.73</ele>
        <time>2023-06-20T01:38:31.028Z</time>
      </trkpt>
      <trkpt lat="46.46242" lon="0.08073">
        <ele>140.7</ele>
        <time>2023-06-20T01:39:34.620Z</time>
      </trkpt>
      <trkpt lat="46.46251" lon="0.08063">
        <ele>140.54</ele>
        <time>2023-06-20T01:40:38.214Z</time>
      </trkpt>
      <trkpt lat="46.46264" lon="0.08048">
        <ele>140.24</ele>
        <time>2023-06-20T01:41:41.811Z</time>
      </trkpt>
      <trkpt lat="46.46271" lon="0.0804">
        <ele>140.03</ele>
        <time>2023-06-20T01:42:45.409Z</time>
      </trkpt>
      <trkpt lat="46.46275" lon="0.08035">
        <ele>139.89</ele>
        <time>2023-06-20T01:43:49.008Z</time>
      </trkpt>
      <trkpt lat="46.46289" lon="0.08023">
        <ele>139.47</ele>
        <time>2023-06-20T01:44:52.610Z</time>
      </trkpt>
      <trkpt lat="46.46296" lon="0.08017">
        <ele>138.7</ele>
        <time>2023-06-20T01:45:56.213Z</time>
      </trkpt>
      <trkpt lat="46.46304" lon="0.08011">
        <ele>137.98</ele>
        <time>2023-06-20T01:46:59.818Z</time>
      </trkpt>
      <trkpt lat="46.46305" lon="0.0801">
        <ele>137.88</ele>
        <time>2023-06-20T01:48:03.423Z</time>
      </trkpt>
      <trkpt lat="46.46316" lon="0.08006">
        <ele>136.94</ele>
        <time>2023-06-20T01:49:07.030Z</time>
      </trkpt>
      <trkpt lat="46.46321" lon="0.08004">
        <ele>136.58</ele>
        <time>2023-06-20T01:50:10.637Z</time>
      </trkpt>
      <trkpt lat="46.46324" lon="0.08002">
        <ele>136.3</ele>
        <time>2023-06-20T01:51:14.245Z</time>
      </trkpt>
      <trkpt lat="46.46328" lon="0.07999">
        <ele>136</ele>
        <time>2023-06-20T01:52:17.854Z</time>
      </trkpt>
      <trkpt lat="46.46336" lon="0.07994">
        <ele>135.46</ele>
        <time>2023-06-20T01:53:21.464Z</time>
      </trkpt>
      <trkpt lat="46.46358" lon="0.0798">
        <ele>134.07</ele>
        <time>2023-06-20T01:54:25.078Z</time>
      </trkpt>
      <trkpt lat="46.46364" lon="0.07978">
        <ele>133.71</ele>
        <time>2023-06-20T01:55:28.693Z</time>
      </trkpt>
      <trkpt lat="46.46369" lon="0.07977">
        <ele>133.4</ele>
        <time>2023-06-20T01:56:32.309Z</time>
      </trkpt>
      <trkpt lat="46.46373" lon="0.07977">
        <ele>133.18</ele>
        <time>2023-06-20T01:57:35.925Z</time>
      </trkpt>
      <trkpt lat="46.46381" lon="0.07977">
        <ele>133.23</ele>
        <time>2023-06-20T01:58:39.543Z</time>
      </trkpt>
      <trkpt lat="46.46395" lon="0.07976">
        <ele>132.36</ele>
        <time>2023-06-20T01:59:43.163Z</time>
      </trkpt>
      <trkpt lat="46.46398" lon="0.07976">
        <ele>132.14</ele>
        <time>2023-06-20T02:00:46.783Z</time>
      </trkpt>
      <trkpt lat="46.46413" lon="0.07973">
        <ele>131.13</ele>
        <time>2023-06-20T02:01:50.406Z</time>
      </trkpt>
      <trkpt lat="46.46421" lon="0.0797">
        <ele>130.59</ele>
        <time>2023-06-20T02:02:54.030Z</time>
      </trkpt>
      <trkpt lat="46.46436" lon="0.07967">
        <ele>129.77</ele>
        <time>2023-06-20T02:03:57.656Z</time>
      </trkpt>
      <trkpt lat="46.46439" lon="0.07967">
        <ele>129.6</ele>
        <time>2023-06-20T02:05:01.283Z</time>
      </trkpt>
      <trkpt lat="46.4647" lon="0.07973">
        <ele>127.94</ele>
        <time>2023-06-20T02:06:04.915Z</time>
      </trkpt>
      <trkpt lat="46.46479" lon="0.07974">
        <ele>127.45</ele>
        <time>2023-06-20T02:07:08.548Z</time>
      </trkpt>
      <trkpt lat="46.46488" lon="0.07978">
        <ele>126.96</ele>
        <time>2023-06-20T02:08:12.183Z</time>
      </trkpt>
      <trkpt lat="46.465" lon="0.07983">
        <ele>126.29</ele>
        <time>2023-06-20T02:09:15.820Z</time>
      </trkpt>
      <trkpt lat="46.46504" lon="0.07987">
        <ele>126.03</ele>
        <time>2023-06-20T02:10:19.458Z</time>
      </trkpt>
      <trkpt lat="46.46516" lon="0.07996">
        <ele>125.38</ele>
        <time>2023-06-20T02:11:23.098Z</time>
      </trkpt>
      <trkpt lat="46.46543" lon="0.08017">
        <ele>124.02</ele>
        <time>2023-06-20T02:12:26.743Z</time>
      </trkpt>
      <trkpt lat="46.4655" lon="0.07978">
        <ele>122.8</ele>
        <time>2023-06-20T02:13:30.392Z</time>
      </trkpt>
      <trkpt lat="46.46553" lon="0.07966">
        <ele>122.44</ele>
        <time>2023-06-20T02:14:34.043Z</time>
      </trkpt>
      <trkpt lat="46.46553" lon="0.07964">
        <ele>122.39</ele>
        <time>2023-06-20T02:15:37.694Z</time>
      </trkpt>
      <trkpt lat="46.46554" lon="0.07953">
        <ele>122.14</ele>
        <time>2023-06-20T02:16:41.346Z</time>
      </trkpt>
      <trkpt lat="46.46557" lon="0.07901">
        <ele>120.57</ele>
        <time>2023-06-20T02:17:45.004Z</time>
      </trkpt>
      <trkpt lat="46.46557" lon="0.07892">
        <ele>120.07</ele>
        <time>2023-06-20T02:18:48.663Z</time>
      </trkpt>
      <trkpt lat="46.46559" lon="0.07882">
        <ele>119.47</ele>
        <time>2023-06-20T02:19:52.323Z</time>
      </trkpt>
      <trkpt lat="46.46563" lon="0.07863">
        <ele>118.31</ele>
        <time>2023-06-20T02:20:55.985Z</time>
      </trkpt>
      <trkpt lat="46.46564" lon="0.07856">
        <ele>117.83</ele>
        <time>2023-06-20T02:21:59.648Z</time>
      </trkpt>
      <trkpt lat="46.46566" lon="0.07851">
        <ele>117.49</ele>
        <time>2023-06-20T02:23:03.312Z</time>
      </trkpt>
      <trkpt lat="46.46572" lon="0.0783">
        <ele>115.96</ele>
        <time>2023-06-20T02:24:06.978Z</time>
      </trkpt>
      <trkpt lat="46.46575" lon="0.07822">
        <ele>115.37</ele>
        <time>2023-06-20T02:25:10.645Z</time>
      </trkpt>
      <trkpt lat="46.4658" lon="0.07811">
        <ele>114.57</ele>
        <time>2023-06-20T02:26:14.313Z</time>
      </trkpt>
      <trkpt lat="46.46585" lon="0.07801">
        <ele>113.83</ele>
        <time>2023-06-20T02:27:17.983Z</time>
      </trkpt>
      <trkpt lat="46.46586" lon="0.07798">
        <ele>113.66</ele>
        <time>2023-06-20T02:28:21.653Z</time>
      </trkpt>
      <trkpt lat="46.46595" lon="0.07788">
        <ele>112.78</ele>
        <time>2023-06-20T02:29:25.325Z</time>
      </trkpt>
      <trkpt lat="46.46602" lon="0.0778">
        <ele>112.05</ele>
        <time>2023-06-20T02:30:28.998Z</time>
      </trkpt>
      <trkpt lat="46.46611" lon="0.0777">
        <ele>111.21</ele>
        <time>2023-06-20T02:31:32.673Z</time>
      </trkpt>
      <trkpt lat="46.46611" lon="0.07769">
        <ele>111.21</ele>
        <time>2023-06-20T02:32:36.348Z</time>
      </trkpt>
      <trkpt lat="46.46608" lon="0.07758">
        <ele>110.62</ele>
        <time>2023-06-20T02:33:40.025Z</time>
      </trkpt>
      <trkpt lat="46.46604" lon="0.07742">
        <ele>109.66</ele>
        <time>2023-06-20T02:34:43.704Z</time>
      </trkpt>
      <trkpt lat="46.46601" lon="0.07734">
        <ele>109.64</ele>
        <time>2023-06-20T02:35:47.384Z</time>
      </trkpt>
      <trkpt lat="46.46598" lon="0.07721">
        <ele>109.63</ele>
        <time>2023-06-20T02:36:51.065Z</time>
      </trkpt>
      <trkpt lat="46.46598" lon="0.07716">
        <ele>109.63</ele>
        <time>2023-06-20T02:37:54.747Z</time>
      </trkpt>
      <trkpt lat="46.46597" lon="0.07708">
        <ele>109.64</ele>
        <time>2023-06-20T02:38:58.430Z</time>
      </trkpt>
      <trkpt lat="46.46599" lon="0.07703">
        <ele>109.65</ele>
        <time>2023-06-20T02:40:02.113Z</time>
      </trkpt>
      <trkpt lat="46.46606" lon="0.07682">
        <ele>109.62</ele>
        <time>2023-06-20T02:41:05.799Z</time>
      </trkpt>
      <trkpt lat="46.46608" lon="0.07676">
        <ele>109.81</ele>
        <time>2023-06-20T02:42:09.485Z</time>
      </trkpt>
      <trkpt lat="46.4661" lon="0.0767">
        <ele>110.03</ele>
        <time>2023-06-20T02:43:13.172Z</time>
      </trkpt>
      <trkpt lat="46.46612" lon="0.07664">
        <ele>110.29</ele>
        <time>2023-06-20T02:44:16.860Z</time>
      </trkpt>
      <trkpt lat="46.46614" lon="0.07658">
        <ele>110.61</ele>
        <time>2023-06-20T02:45:20.549Z</time>
      </trkpt>
      <trkpt lat="46.46616" lon="0.07653">
        <ele>110.98</ele>
        <time>2023-06-20T02:46:24.238Z</time>
      </trkpt>
      <trkpt lat="46.46618" lon="0.07647">
        <ele>111.39</ele>
        <time>2023-06-20T02:47:27.928Z</time>
      </trkpt>
      <trkpt lat="46.46619" lon="0.07643">
        <ele>111.68</ele>
        <time>2023-06-20T02:48:31.619Z</time>
      </trkpt>
      <trkpt lat="46.46625" lon="0.0764">
        <ele>112.3</ele>
        <time>2023-06-20T02:49:35.311Z</time>
      </trkpt>
      <trkpt lat="46.46633" lon="0.07637">
        <ele>113.22</ele>
        <time>2023-06-20T02:50:39.004Z</time>
      </trkpt>
      <trkpt lat="46.4664" lon="0.07628">
        <ele>114.26</ele>
        <time>2023-06-20T02:51:42.698Z</time>
      </trkpt>
      <trkpt lat="46.46643" lon="0.07623">
        <ele>114.73</ele>
        <time>2023-06-20T02:52:46.393Z</time>
      </trkpt>
      <trkpt lat="46.46645" lon="0.07617">
        <ele>115.21</ele>
        <time>2023-06-20T02:53:50.089Z</time>
      </trkpt>
      <trkpt lat="46.4665" lon="0.07605">
        <ele>116.18</ele>
        <time>2023-06-20T02:54:53.786Z</time>
      </trkpt>
      <trkpt lat="46.46651" lon="0.076">
        <ele>116.56</ele>
        <time>2023-06-20T02:55:57.484Z</time>
      </trkpt>
      <trkpt lat="46.46652" lon="0.07586">
        <ele>117.42</ele>
        <time>2023-06-20T02:57:01.184Z</time>
      </trkpt>
      <trkpt lat="46.46652" lon="0.07586">
        <ele>117.42</ele>
        <time>2023-06-20T02:58:04.884Z</time>
      </trkpt>
      <trkpt lat="46.46651" lon="0.07567">
        <ele>118.64</ele>
        <time>2023-06-20T02:59:08.586Z</time>
      </trkpt>
      <trkpt lat="46.46651" lon="0.0755">
        <ele>119.62</ele>
        <time>2023-06-20T03:00:12.290Z</time>
      </trkpt>
      <trkpt lat="46.46655" lon="0.07543">
        <ele>120.13</ele>
        <time>2023-06-20T03:01:15.995Z</time>
      </trkpt>
      <trkpt lat="46.4666" lon="0.07532">
        <ele>120.85</ele>
        <time>2023-06-20T03:02:19.701Z</time>
      </trkpt>
      <trkpt lat="46.46668" lon="0.07517">
        <ele>121.83</ele>
        <time>2023-06-20T03:03:23.409Z</time>
      </trkpt>
      <trkpt lat="46.46673" lon="0.07506">
        <ele>122.42</ele>
        <time>2023-06-20T03:04:27.119Z</time>
      </trkpt>
      <trkpt lat="46.46678" lon="0.07495">
        <ele>122.93</ele>
        <time>2023-06-20T03:05:30.830Z</time>
      </trkpt>
      <trkpt lat="46.46679" lon="0.07494">
        <ele>122.98</ele>
        <time>2023-06-20T03:06:34.541Z</time>
      </trkpt>
      <trkpt lat="46.46689" lon="0.07505">
        <ele>123.61</ele>
        <time>2023-06-20T03:07:38.254Z</time>
      </trkpt>
      <trkpt lat="46.467" lon="0.07516">
        <ele>124.2</ele>
        <time>2023-06-20T03:08:41.969Z</time>
      </trkpt>
      <trkpt lat="46.46714" lon="0.07532">
        <ele>124.92</ele>
        <time>2023-06-20T03:09:45.687Z</time>
      </trkpt>
      <trkpt lat="46.46725" lon="0.07543">
        <ele>125.42</ele>
        <time>2023-06-20T03:10:49.407Z</time>
      </trkpt>
      <trkpt lat="46.4673" lon="0.07549">
        <ele>125.62</ele>
        <time>2023-06-20T03:11:53.128Z</time>
      </trkpt>
      <trkpt lat="46.46732" lon="0.07551">
        <ele>125.71</ele>
        <time>2023-06-20T03:12:56.850Z</time>
      </trkpt>
      <trkpt lat="46.46755" lon="0.07571">
        <ele>126.5</ele>
        <time>2023-06-20T03:14:00.576Z</time>
      </trkpt>
      <trkpt lat="46.46763" lon="0.07577">
        <ele>126.82</ele>
        <time>2023-06-20T03:15:04.304Z</time>
      </trkpt>
      <trkpt lat="46.4677" lon="0.07583">
        <ele>127.13</ele>
        <time>2023-06-20T03:16:08.033Z</time>
      </trkpt>
      <trkpt lat="46.46771" lon="0.07584">
        <ele>127.18</ele>
        <time>2023-06-20T03:17:11.762Z</time>
      </trkpt>
      <trkpt lat="46.46778" lon="0.07592">
        <ele>127.56</ele>
        <time>2023-06-20T03:18:15.492Z</time>
      </trkpt>
      <trkpt lat="46.46788" lon="0.07605">
        <ele>128.19</ele>
        <time>2023-06-20T03:19:19.225Z</time>
      </trkpt>
      <trkpt lat="46.46791" lon="0.07608">
        <ele>128.36</ele>
        <time>2023-06-20T03:20:22.958Z</time>
      </trkpt>
      <trkpt lat="46.46796" lon="0.07612">
        <ele>128.63</ele>
        <time>2023-06-20T03:21:26.692Z</time>
      </trkpt>
      <trkpt lat="46.46803" lon="0.07619">
        <ele>129.14</ele>
        <time>2023-06-20T03:22:30.427Z</time>
      </trkpt>
      <trkpt lat="46.46811" lon="0.07626">
        <ele>129.72</ele>
        <time>2023-06-20T03:23:34.164Z</time>
      </trkpt>
      <trkpt lat="46.46818" lon="0.07633">
        <ele>130.37</ele>
        <time>2023-06-20T03:24:37.902Z</time>
      </trkpt>
      <trkpt lat="46.46822" lon="0.07636">
        <ele>130.74</ele>
        <time>2023-06-20T03:25:41.641Z</time>
      </trkpt>
      <trkpt lat="46.46826" lon="0.0764">
        <ele>131.15</ele>
        <time>2023-06-20T03:26:45.381Z</time>
      </trkpt>
      <trkpt lat="46.4683" lon="0.07643">
        <ele>131.62</ele>
        <time>2023-06-20T03:27:49.121Z</time>
      </trkpt>
      <trkpt lat="46.46834" lon="0.07647">
        <ele>132.13</ele>
        <time>2023-06-20T03:28:52.862Z</time>
      </trkpt>
      <trkpt lat="46.46837" lon="0.0765">
        <ele>132.67</ele>
        <time>2023-06-20T03:29:56.604Z</time>
      </trkpt>
      <trkpt lat="46.46845" lon="0.07657">
        <ele>133.81</ele>
        <time>2023-06-20T03:31:00.347Z</time>
      </trkpt>
      <trkpt lat="46.46847" lon="0.07659">
        <ele>133.9</ele>
        <time>2023-06-20T03:32:04.091Z</time>
      </trkpt>
      <trkpt lat="46.46849" lon="0.0766">
        <ele>133.99</ele>
        <time>2023-06-20T03:33:07.835Z</time>
      </trkpt>
      <trkpt lat="46.46853" lon="0.07663">
        <ele>134.12</ele>
        <time>2023-06-20T03:34:11.580Z</time>
      </trkpt>
      <trkpt lat="46.46857" lon="0.07666">
        <ele>134.19</ele>
        <time>2023-06-20T03:35:15.325Z</time>
      </trkpt>
      <trkpt lat="46.46861" lon="0.07669">
        <ele>134.21</ele>
        <time>2023-06-20T03:36:19.071Z</time>
      </trkpt>
      <trkpt lat="46.46865" lon="0.07671">
        <ele>134.17</ele>
        <time>2023-06-20T03:37:22.818Z</time>
      </trkpt>
      <trkpt lat="46.46869" lon="0.07674">
        <ele>134.1</ele>
        <time>2023-06-20T03:38:26.566Z</time>
      </trkpt>
      <trkpt lat="46.46877" lon="0.0768">
        <ele>133.9</ele>
        <time>2023-06-20T03:39:30.315Z</time>
      </trkpt>
      <trkpt lat="46.46882" lon="0.07683">
        <ele>133.74</ele>
        <time>2023-06-20T03:40:34.065Z</time>
      </trkpt>
      <trkpt lat="46.46885" lon="0.07685">
        <ele>133.66</ele>
        <time>2023-06-20T03:41:37.815Z</time>
      </trkpt>
      <trkpt lat="46.46896" lon="0.07695">
        <ele>133.25</ele>
        <time>2023-06-20T03:42:41.568Z</time>
      </trkpt>
      <trkpt lat="46.46898" lon="0.07697">
        <ele>133.19</ele>
        <time>2023-06-20T03:43:45.321Z</time>
      </trkpt>
      <trkpt lat="46.46904" lon="0.077">
        <ele>133.01</ele>
        <time>2023-06-20T03:44:49.075Z</time>
      </trkpt>
      <trkpt lat="46.46916" lon="0.07706">
        <ele>132.74</ele>
        <time>2023-06-20T03:45:52.831Z</time>
      </trkpt>
      <trkpt lat="46.46917" lon="0.07706">
        <ele>132.72</ele>
        <time>2023-06-20T03:46:56.587Z</time>
      </trkpt>
      <trkpt lat="46.46926" lon="0.07709">
        <ele>132.53</ele>
        <time>2023-06-20T03:48:00.345Z</time>
      </trkpt>
      <trkpt lat="46.46934" lon="0.0771">
        <ele>132.36</ele>
        <time>2023-06-20T03:49:04.104Z</time>
      </trkpt>
      <trkpt lat="46.46955" lon="0.07712">
        <ele>132</ele>
        <time>2023-06-20T03:50:07.866Z</time>
      </trkpt>
      <trkpt lat="46.46957" lon="0.07712">
        <ele>131.98</ele>
        <time>2023-06-20T03:51:11.628Z</time>
      </trkpt>
      <trkpt lat="46.46965" lon="0.07714">
        <ele>131.85</ele>
        <time>2023-06-20T03:52:15.392Z</time>
      </trkpt>
      <trkpt lat="46.46989" lon="0.07719">
        <ele>131.65</ele>
        <time>2023-06-20T03:53:19.160Z</time>
      </trkpt>
      <trkpt lat="46.46996" lon="0.07721">
        <ele>131.6</ele>
        <time>2023-06-20T03:54:22.929Z</time>
      </trkpt>
      <trkpt lat="46.47012" lon="0.07727">
        <ele>132.55</ele>
        <time>2023-06-20T03:55:26.701Z</time>
      </trkpt>
      <trkpt lat="46.47013" lon="0.07727">
        <ele>132.62</ele>
        <time>2023-06-20T03:56:30.473Z</time>
      </trkpt>
      <trkpt lat="46.47018" lon="0.07728">
        <ele>132.9</ele>
        <time>2023-06-20T03:57:34.245Z</time>
      </trkpt>
      <trkpt lat="46.47026" lon="0.0773">
        <ele>133.52</ele>
        <time>2023-06-20T03:58:38.019Z</time>
      </trkpt>
      <trkpt lat="46.4704" lon="0.07732">
        <ele>132.83</ele>
        <time>2023-06-20T03:59:41.795Z</time>
      </trkpt>
      <trkpt lat="46.4704" lon="0.07732">
        <ele>132.83</ele>
        <time>2023-06-20T04:00:45.571Z</time>
      </trkpt>
      <trkpt lat="46.47058" lon="0.07731">
        <ele>132.01</ele>
        <time>2023-06-20T04:01:49.350Z</time>
      </trkpt>
      <trkpt lat="46.47065" lon="0.07731">
        <ele>131.63</ele>
        <time>2023-06-20T04:02:53.130Z</time>
      </trkpt>
      <trkpt lat="46.47071" lon="0.07729">
        <ele>131.33</ele>
        <time>2023-06-20T04:03:56.911Z</time>
      </trkpt>
      <trkpt lat="46.47087" lon="0.07723">
        <ele>131.22</ele>
        <time>2023-06-20T04:05:00.695Z</time>
      </trkpt>
      <trkpt lat="46.47095" lon="0.0772">
        <ele>131.14</ele>
        <time>2023-06-20T04:06:04.480Z</time>
      </trkpt>
      <trkpt lat="46.47103" lon="0.07717">
        <ele>131.03</ele>
        <time>2023-06-20T04:07:08.266Z</time>
      </trkpt>
      <trkpt lat="46.4712" lon="0.07711">
        <ele>130.69</ele>
        <time>2023-06-20T04:08:12.055Z</time>
      </trkpt>
      <trkpt lat="46.47136" lon="0.07705">
        <ele>130.68</ele>
        <time>2023-06-20T04:09:15.847Z</time>
      </trkpt>
      <trkpt lat="46.47148" lon="0.07701">
        <ele>130.64</ele>
        <time>2023-06-20T04:10:19.641Z</time>
      </trkpt>
      <trkpt lat="46.47148" lon="0.07701">
        <ele>130.64</ele>
        <time>2023-06-20T04:11:23.435Z</time>
      </trkpt>
      <trkpt lat="46.47156" lon="0.07696">
        <ele>130.59</ele>
        <time>2023-06-20T04:12:27.230Z</time>
      </trkpt>
      <trkpt lat="46.4716" lon="0.07693">
        <ele>130.53</ele>
        <time>2023-06-20T04:13:31.026Z</time>
      </trkpt>
      <trkpt lat="46.47163" lon="0.0769">
        <ele>130.4</ele>
        <time>2023-06-20T04:14:34.822Z</time>
      </trkpt>
      <trkpt lat="46.47167" lon="0.07688">
        <ele>130.19</ele>
        <time>2023-06-20T04:15:38.619Z</time>
      </trkpt>
      <trkpt lat="46.47171" lon="0.07685">
        <ele>129.91</ele>
        <time>2023-06-20T04:16:42.417Z</time>
      </trkpt>
      <trkpt lat="46.47179" lon="0.0768">
        <ele>129.29</ele>
        <time>2023-06-20T04:17:46.216Z</time>
      </trkpt>
      <trkpt lat="46.47187" lon="0.07674">
        <ele>128.86</ele>
        <time>2023-06-20T04:18:50.017Z</time>
      </trkpt>
      <trkpt lat="46.47191" lon="0.07672">
        <ele>128.6</ele>
        <time>2023-06-20T04:19:53.818Z</time>
      </trkpt>
      <trkpt lat="46.47195" lon="0.07669">
        <ele>128.29</ele>
        <time>2023-06-20T04:20:57.620Z</time>
      </trkpt>
      <trkpt lat="46.47195" lon="0.07669">
        <ele>126.41</ele>
        <time>2023-06-20T04:22:01.422Z</time>
      </trkpt>
      <trkpt lat="46.47196" lon="0.07668">
        <ele>126.41</ele>
        <time>2023-06-20T04:23:05.224Z</time>
      </trkpt>
      <trkpt lat="46.47204" lon="0.07661">
        <ele>126.41</ele>
        <time>2023-06-20T04:24:09.028Z</time>
      </trkpt>
      <trkpt lat="46.47214" lon="0.07653">
        <ele>126.27</ele>
        <time>2023-06-20T04:25:12.834Z</time>
      </trkpt>
      <trkpt lat="46.47223" lon="0.07646">
        <ele>125.68</ele>
        <time>2023-06-20T04:26:16.641Z</time>
      </trkpt>
      <trkpt lat="46.47237" lon="0.07635">
        <ele>124.13</ele>
        <time>2023-06-20T04:27:20.451Z</time>
      </trkpt>
      <trkpt lat="46.47237" lon="0.07635">
        <ele>119.59</ele>
        <time>2023-06-20T04:28:24.261Z</time>
      </trkpt>
      <trkpt lat="46.47238" lon="0.07634">
        <ele>119.59</ele>
        <time>2023-06-20T04:29:28.071Z</time>
      </trkpt>
      <trkpt lat="46.4724" lon="0.07631">
        <ele>119.6</ele>
        <time>2023-06-20T04:30:31.881Z</time>
      </trkpt>
      <trkpt lat="46.47247" lon="0.07623">
        <ele>119.65</ele>
        <time>2023-06-20T04:31:35.693Z</time>
      </trkpt>
      <trkpt lat="46.47259" lon="0.07604">
        <ele>119.76</ele>
        <time>2023-06-20T04:32:39.508Z</time>
      </trkpt>
      <trkpt lat="46.47278" lon="0.07575">
        <ele>119.96</ele>
        <time>2023-06-20T04:33:43.327Z</time>
      </trkpt>
      <trkpt lat="46.47281" lon="0.0757">
        <ele>120.01</ele>
        <time>2023-06-20T04:34:47.147Z</time>
      </trkpt>
      <trkpt lat="46.47287" lon="0.07561">
        <ele>120.17</ele>
        <time>2023-06-20T04:35:50.968Z</time>
      </trkpt>
      <trkpt lat="46.47294" lon="0.07549">
        <ele>120.42</ele>
        <time>2023-06-20T04:36:54.791Z</time>
      </trkpt>
      <trkpt lat="46.47298" lon="0.0754">
        <ele>120.59</ele>
        <time>2023-06-20T04:37:58.615Z</time>
      </trkpt>
      <trkpt lat="46.47302" lon="0.07529">
        <ele>120.78</ele>
        <time>2023-06-20T04:39:02.441Z</time>
      </trkpt>
      <trkpt lat="46.47312" lon="0.07507">
        <ele>121.01</ele>
        <time>2023-06-20T04:40:06.269Z</time>
      </trkpt>
      <trkpt lat="46.47324" lon="0.07479">
        <ele>121.39</ele>
        <time>2023-06-20T04:41:10.101Z</time>
      </trkpt>
      <trkpt lat="46.47324" lon="0.07479">
        <ele>121.39</ele>
        <time>2023-06-20T04:42:13.933Z</time>
      </trkpt>
      <trkpt lat="46.47328" lon="0.07468">
        <ele>121.59</ele>
        <time>2023-06-20T04:43:17.766Z</time>
      </trkpt>
      <trkpt lat="46.47334" lon="0.0745">
        <ele>121.99</ele>
        <time>2023-06-20T04:44:21.602Z</time>
      </trkpt>
      <trkpt lat="46.47336" lon="0.07444">
        <ele>122.1</ele>
        <time>2023-06-20T04:45:25.438Z</time>
      </trkpt>
      <trkpt lat="46.47342" lon="0.07427">
        <ele>122.38</ele>
        <time>2023-06-20T04:46:29.276Z</time>
      </trkpt>
      <trkpt lat="46.47345" lon="0.07415">
        <ele>122.51</ele>
        <time>2023-06-20T04:47:33.116Z</time>
      </trkpt>
      <trkpt lat="46.47349" lon="0.07404">
        <ele>122.55</ele>
        <time>2023-06-20T04:48:36.957Z</time>
      </trkpt>
      <trkpt lat="46.47351" lon="0.07399">
        <ele>122.52</ele>
        <time>2023-06-20T04:49:40.799Z</time>
      </trkpt>
      <trkpt lat="46.47351" lon="0.07398">
        <ele>122.52</ele>
        <time>2023-06-20T04:50:44.641Z</time>
      </trkpt>
      <trkpt lat="46.47355" lon="0.07379">
        <ele>122.36</ele>
        <time>2023-06-20T04:51:48.485Z</time>
      </trkpt>
      <trkpt lat="46.47358" lon="0.07367">
        <ele>122.34</ele>
        <time>2023-06-20T04:52:52.331Z</time>
      </trkpt>
      <trkpt lat="46.47358" lon="0.07367">
        <ele>122.34</ele>
        <time>2023-06-20T04:53:56.177Z</time>
      </trkpt>
      <trkpt lat="46.47359" lon="0.07354">
        <ele>122.38</ele>
        <time>2023-06-20T04:55:00.024Z</time>
      </trkpt>
      <trkpt lat="46.47359" lon="0.07349">
        <ele>122.4</ele>
        <time>2023-06-20T04:56:03.872Z</time>
      </trkpt>
      <trkpt lat="46.47363" lon="0.07335">
        <ele>122.47</ele>
        <time>2023-06-20T04:57:07.721Z</time>
      </trkpt>
      <trkpt lat="46.47367" lon="0.0732">
        <ele>122.57</ele>
        <time>2023-06-20T04:58:11.572Z</time>
      </trkpt>
      <trkpt lat="46.47376" lon="0.07302">
        <ele>122.72</ele>
        <time>2023-06-20T04:59:15.426Z</time>
      </trkpt>
      <trkpt lat="46.47381" lon="0.07292">
        <ele>122.81</ele>
        <time>2023-06-20T05:00:19.281Z</time>
      </trkpt>
      <trkpt lat="46.47384" lon="0.07286">
        <ele>122.88</ele>
        <time>2023-06-20T05:01:23.137Z</time>
      </trkpt>
      <trkpt lat="46.47386" lon="0.07281">
        <ele>122.91</ele>
        <time>2023-06-20T05:02:26.993Z</time>
      </trkpt>
      <trkpt lat="46.47391" lon="0.0727">
        <ele>122.92</ele>
        <time>2023-06-20T05:03:30.851Z</time>
      </trkpt>
      <trkpt lat="46.47401" lon="0.07248">
        <ele>122.88</ele>
        <time>2023-06-20T05:04:34.712Z</time>
      </trkpt>
      <trkpt lat="46.47412" lon="0.07226">
        <ele>122.87</ele>
        <time>2023-06-20T05:05:38.576Z</time>
      </trkpt>
      <trkpt lat="46.47414" lon="0.07221">
        <ele>122.87</ele>
        <time>2023-06-20T05:06:42.440Z</time>
      </trkpt>
      <trkpt lat="46.47427" lon="0.07188">
        <ele>122.89</ele>
        <time>2023-06-20T05:07:46.309Z</time>
      </trkpt>
      <trkpt lat="46.47429" lon="0.07182">
        <ele>122.91</ele>
        <time>2023-06-20T05:08:50.178Z</time>
      </trkpt>
      <trkpt lat="46.47436" lon="0.07164">
        <ele>123.09</ele>
        <time>2023-06-20T05:09:54.050Z</time>
      </trkpt>
      <trkpt lat="46.47441" lon="0.07155">
        <ele>123.2</ele>
        <time>2023-06-20T05:10:57.923Z</time>
      </trkpt>
      <trkpt lat="46.47447" lon="0.07146">
        <ele>123.25</ele>
        <time>2023-06-20T05:12:01.797Z</time>
      </trkpt>
      <trkpt lat="46.47451" lon="0.0714">
        <ele>123.25</ele>
        <time>2023-06-20T05:13:05.672Z</time>
      </trkpt>
      <trkpt lat="46.47458" lon="0.07133">
        <ele>123.26</ele>
        <time>2023-06-20T05:14:09.548Z</time>
      </trkpt>
      <trkpt lat="46.47461" lon="0.07129">
        <ele>123.29</ele>
        <time>2023-06-20T05:15:13.425Z</time>
      </trkpt>
      <trkpt lat="46.47465" lon="0.07125">
        <ele>123.36</ele>
        <time>2023-06-20T05:16:17.303Z</time>
      </trkpt>
      <trkpt lat="46.47468" lon="0.07121">
        <ele>123.46</ele>
        <time>2023-06-20T05:17:21.182Z</time>
      </trkpt>
      <trkpt lat="46.47475" lon="0.07114">
        <ele>123.73</ele>
        <time>2023-06-20T05:18:25.062Z</time>
      </trkpt>
      <trkpt lat="46.47486" lon="0.07102">
        <ele>124.19</ele>
        <time>2023-06-20T05:19:28.944Z</time>
      </trkpt>
      <trkpt lat="46.47487" lon="0.07101">
        <ele>124.21</ele>
        <time>2023-06-20T05:20:32.826Z</time>
      </trkpt>
      <trkpt lat="46.4749" lon="0.07099">
        <ele>124.31</ele>
        <time>2023-06-20T05:21:36.709Z</time>
      </trkpt>
      <trkpt lat="46.47494" lon="0.07096">
        <ele>124.4</ele>
        <time>2023-06-20T05:22:40.593Z</time>
      </trkpt>
      <trkpt lat="46.47498" lon="0.07092">
        <ele>124.46</ele>
        <time>2023-06-20T05:23:44.477Z</time>
      </trkpt>
      <trkpt lat="46.47502" lon="0.07089">
        <ele>124.49</ele>
        <time>2023-06-20T05:24:48.362Z</time>
      </trkpt>
      <trkpt lat="46.47506" lon="0.07086">
        <ele>124.5</ele>
        <time>2023-06-20T05:25:52.248Z</time>
      </trkpt>
      <trkpt lat="46.47506" lon="0.0708">
        <ele>124.5</ele>
        <time>2023-06-20T05:26:56.134Z</time>
      </trkpt>
      <trkpt lat="46.47508" lon="0.07074">
        <ele>124.52</ele>
        <time>2023-06-20T05:28:00.021Z</time>
      </trkpt>
      <trkpt lat="46.4751" lon="0.07069">
        <ele>124.55</ele>
        <time>2023-06-20T05:29:03.909Z</time>
      </trkpt>
      <trkpt lat="46.4751" lon="0.07069">
        <ele>124.55</ele>
        <time>2023-06-20T05:30:07.797Z</time>
      </trkpt>
      <trkpt lat="46.47523" lon="0.07056">
        <ele>124.71</ele>
        <time>2023-06-20T05:31:11.687Z</time>
      </trkpt>
      <trkpt lat="46.47525" lon="0.07056">
        <ele>124.74</ele>
        <time>2023-06-20T05:32:15.578Z</time>
      </trkpt>
      <trkpt lat="46.4753" lon="0.07055">
        <ele>124.74</ele>
        <time>2023-06-20T05:33:19.470Z</time>
      </trkpt>
      <trkpt lat="46.47534" lon="0.07057">
        <ele>124.75</ele>
        <time>2023-06-20T05:34:23.362Z</time>
      </trkpt>
      <trkpt lat="46.47544" lon="0.07063">
        <ele>124.72</ele>
        <time>2023-06-20T05:35:27.256Z</time>
      </trkpt>
      <trkpt lat="46.47548" lon="0.07071">
        <ele>124.71</ele>
        <time>2023-06-20T05:36:31.151Z</time>
      </trkpt>
      <trkpt lat="46.47556" lon="0.07087">
        <ele>124.71</ele>
        <time>2023-06-20T05:37:35.048Z</time>
      </trkpt>
      <trkpt lat="46.47556" lon="0.07087">
        <ele>124.71</ele>
        <time>2023-06-20T05:38:38.945Z</time>
      </trkpt>
      <trkpt lat="46.47559" lon="0.07092">
        <ele>124.68</ele>
        <time>2023-06-20T05:39:42.843Z</time>
      </trkpt>
      <trkpt lat="46.47568" lon="0.07106">
        <ele>124.51</ele>
        <time>2023-06-20T05:40:46.743Z</time>
      </trkpt>
      <trkpt lat="46.47571" lon="0.07111">
        <ele>124.47</ele>
        <time>2023-06-20T05:41:50.644Z</time>
      </trkpt>
      <trkpt lat="46.47578" lon="0.07121">
        <ele>124.45</ele>
        <time>2023-06-20T05:42:54.546Z</time>
      </trkpt>
      <trkpt lat="46.47578" lon="0.07121">
        <ele>124.45</ele>
        <time>2023-06-20T05:43:58.448Z</time>
      </trkpt>
      <trkpt lat="46.4758" lon="0.07125">
        <ele>124.48</ele>
        <time>2023-06-20T05:45:02.351Z</time>
      </trkpt>
      <trkpt lat="46.47583" lon="0.0713">
        <ele>124.53</ele>
        <time>2023-06-20T05:46:06.255Z</time>
      </trkpt>
      <trkpt lat="46.47586" lon="0.07136">
        <ele>124.61</ele>
        <time>2023-06-20T05:47:10.159Z</time>
      </trkpt>
      <trkpt lat="46.47594" lon="0.07151">
        <ele>124.97</ele>
        <time>2023-06-20T05:48:14.066Z</time>
      </trkpt>
      <trkpt lat="46.47603" lon="0.07169">
        <ele>125.33</ele>
        <time>2023-06-20T05:49:17.975Z</time>
      </trkpt>
      <trkpt lat="46.47605" lon="0.07171">
        <ele>125.39</ele>
        <time>2023-06-20T05:50:21.884Z</time>
      </trkpt>
      <trkpt lat="46.47614" lon="0.0718">
        <ele>125.68</ele>
        <time>2023-06-20T05:51:25.795Z</time>
      </trkpt>
      <trkpt lat="46.47616" lon="0.07181">
        <ele>125.75</ele>
        <time>2023-06-20T05:52:29.707Z</time>
      </trkpt>
      <trkpt lat="46.4762" lon="0.07184">
        <ele>125.82</ele>
        <time>2023-06-20T05:53:33.619Z</time>
      </trkpt>
      <trkpt lat="46.47625" lon="0.07186">
        <ele>125.84</ele>
        <time>2023-06-20T05:54:37.532Z</time>
      </trkpt>
      <trkpt lat="46.4763" lon="0.07189">
        <ele>125.79</ele>
        <time>2023-06-20T05:55:41.446Z</time>
      </trkpt>
      <trkpt lat="46.47641" lon="0.07189">
        <ele>125.7</ele>
        <time>2023-06-20T05:56:45.362Z</time>
      </trkpt>
      <trkpt lat="46.47642" lon="0.07188">
        <ele>125.7</ele>
        <time>2023-06-20T05:57:49.278Z</time>
      </trkpt>
      <trkpt lat="46.47646" lon="0.07186">
        <ele>125.68</ele>
        <time>2023-06-20T05:58:53.195Z</time>
      </trkpt>
      <trkpt lat="46.4765" lon="0.07183">
        <ele>125.68</ele>
        <time>2023-06-20T05:59:57.112Z</time>
      </trkpt>
      <trkpt lat="46.47654" lon="0.07181">
        <ele>125.72</ele>
        <time>2023-06-20T06:01:01.030Z</time>
      </trkpt>
      <trkpt lat="46.47663" lon="0.07176">
        <ele>125.88</ele>
        <time>2023-06-20T06:02:04.949Z</time>
      </trkpt>
      <trkpt lat="46.47666" lon="0.07174">
        <ele>125.97</ele>
        <time>2023-06-20T06:03:08.869Z</time>
      </trkpt>
      <trkpt lat="46.47673" lon="0.07192">
        <ele>126.33</ele>
        <time>2023-06-20T06:04:12.791Z</time>
      </trkpt>
      <trkpt lat="46.47676" lon="0.07197">
        <ele>126.41</ele>
        <time>2023-06-20T06:05:16.714Z</time>
      </trkpt>
      <trkpt lat="46.47685" lon="0.07219">
        <ele>126.59</ele>
        <time>2023-06-20T06:06:20.640Z</time>
      </trkpt>
      <trkpt lat="46.47692" lon="0.07236">
        <ele>126.81</ele>
        <time>2023-06-20T06:07:24.568Z</time>
      </trkpt>
      <trkpt lat="46.477" lon="0.07257">
        <ele>122.16</ele>
        <time>2023-06-20T06:08:28.499Z</time>
      </trkpt>
      <trkpt lat="46.47712" lon="0.07285">
        <ele>121.79</ele>
        <time>2023-06-20T06:09:32.433Z</time>
      </trkpt>
      <trkpt lat="46.47719" lon="0.07301">
        <ele>121.65</ele>
        <time>2023-06-20T06:10:36.369Z</time>
      </trkpt>
      <trkpt lat="46.47728" lon="0.07324">
        <ele>121.5</ele>
        <time>2023-06-20T06:11:40.308Z</time>
      </trkpt>
      <trkpt lat="46.4773" lon="0.07329">
        <ele>121.42</ele>
        <time>2023-06-20T06:12:44.248Z</time>
      </trkpt>
      <trkpt lat="46.47733" lon="0.07335">
        <ele>121.3</ele>
        <time>2023-06-20T06:13:48.189Z</time>
      </trkpt>
      <trkpt lat="46.47735" lon="0.0734">
        <ele>121.14</ele>
        <time>2023-06-20T06:14:52.130Z</time>
      </trkpt>
      <trkpt lat="46.47739" lon="0.07351">
        <ele>120.75</ele>
        <time>2023-06-20T06:15:56.073Z</time>
      </trkpt>
      <trkpt lat="46.47742" lon="0.07357">
        <ele>120.53</ele>
        <time>2023-06-20T06:17:00.017Z</time>
      </trkpt>
      <trkpt lat="46.47746" lon="0.07368">
        <ele>120.04</ele>
        <time>2023-06-20T06:18:03.962Z</time>
      </trkpt>
      <trkpt lat="46.47756" lon="0.07391">
        <ele>118.94</ele>
        <time>2023-06-20T06:19:07.910Z</time>
      </trkpt>
      <trkpt lat="46.47756" lon="0.07391">
        <ele>118.94</ele>
        <time>2023-06-20T06:20:11.858Z</time>
      </trkpt>
      <trkpt lat="46.47758" lon="0.07395">
        <ele>118.7</ele>
        <time>2023-06-20T06:21:15.807Z</time>
      </trkpt>
      <trkpt lat="46.4776" lon="0.07401">
        <ele>118.52</ele>
        <time>2023-06-20T06:22:19.756Z</time>
      </trkpt>
      <trkpt lat="46.47763" lon="0.07407">
        <ele>118.4</ele>
        <time>2023-06-20T06:23:23.706Z</time>
      </trkpt>
      <trkpt lat="46.47765" lon="0.07412">
        <ele>118.33</ele>
        <time>2023-06-20T06:24:27.657Z</time>
      </trkpt>
      <trkpt lat="46.47767" lon="0.07418">
        <ele>118.32</ele>
        <time>2023-06-20T06:25:31.608Z</time>
      </trkpt>
      <trkpt lat="46.4777" lon="0.07423">
        <ele>118.34</ele>
        <time>2023-06-20T06:26:35.560Z</time>
      </trkpt>
      <trkpt lat="46.47774" lon="0.07434">
        <ele>118.49</ele>
        <time>2023-06-20T06:27:39.514Z</time>
      </trkpt>
      <trkpt lat="46.47786" lon="0.07461">
        <ele>119.36</ele>
        <time>2023-06-20T06:28:43.471Z</time>
      </trkpt>
      <trkpt lat="46.47788" lon="0.07467">
        <ele>119.51</ele>
        <time>2023-06-20T06:29:47.429Z</time>
      </trkpt>
      <trkpt lat="46.47791" lon="0.07472">
        <ele>119.61</ele>
        <time>2023-06-20T06:30:51.388Z</time>
      </trkpt>
      <trkpt lat="46.47793" lon="0.07478">
        <ele>119.67</ele>
        <time>2023-06-20T06:31:55.347Z</time>
      </trkpt>
      <trkpt lat="46.47795" lon="0.07483">
        <ele>119.69</ele>
        <time>2023-06-20T06:32:59.307Z</time>
      </trkpt>
      <trkpt lat="46.47805" lon="0.07505">
        <ele>119.68</ele>
        <time>2023-06-20T06:34:03.270Z</time>
      </trkpt>
      <trkpt lat="46.47807" lon="0.07511">
        <ele>119.72</ele>
        <time>2023-06-20T06:35:07.234Z</time>
      </trkpt>
      <trkpt lat="46.4781" lon="0.07516">
        <ele>119.8</ele>
        <time>2023-06-20T06:36:11.198Z</time>
      </trkpt>
      <trkpt lat="46.47819" lon="0.07538">
        <ele>120.32</ele>
        <time>2023-06-20T06:37:15.165Z</time>
      </trkpt>
      <trkpt lat="46.47824" lon="0.0755">
        <ele>120.53</ele>
        <time>2023-06-20T06:38:19.134Z</time>
      </trkpt>
      <trkpt lat="46.47824" lon="0.0755">
        <ele>120.53</ele>
        <time>2023-06-20T06:39:23.103Z</time>
      </trkpt>
      <trkpt lat="46.47829" lon="0.0756">
        <ele>120.69</ele>
        <time>2023-06-20T06:40:27.073Z</time>
      </trkpt>
      <trkpt lat="46.47839" lon="0.07581">
        <ele>120.96</ele>
        <time>2023-06-20T06:41:31.046Z</time>
      </trkpt>
      <trkpt lat="46.47845" lon="0.07591">
        <ele>121.08</ele>
        <time>2023-06-20T06:42:35.020Z</time>
      </trkpt>
      <trkpt lat="46.47847" lon="0.07596">
        <ele>121.12</ele>
        <time>2023-06-20T06:43:38.995Z</time>
      </trkpt>
      <trkpt lat="46.4785" lon="0.07602">
        <ele>121.14</ele>
        <time>2023-06-20T06:44:42.971Z</time>
      </trkpt>
      <trkpt lat="46.47852" lon="0.07607">
        <ele>121.12</ele>
        <time>2023-06-20T06:45:46.947Z</time>
      </trkpt>
      <trkpt lat="46.47855" lon="0.07612">
        <ele>121.07</ele>
        <time>2023-06-20T06:46:50.924Z</time>
      </trkpt>
      <trkpt lat="46.47858" lon="0.07617">
        <ele>120.97</ele>
        <time>2023-06-20T06:47:54.902Z</time>
      </trkpt>
      <trkpt lat="46.4786" lon="0.07622">
        <ele>120.83</ele>
        <time>2023-06-20T06:48:58.881Z</time>
      </trkpt>
      <trkpt lat="46.47862" lon="0.07626">
        <ele>120.7</ele>
        <time>2023-06-20T06:50:02.860Z</time>
      </trkpt>
      <trkpt lat="46.47863" lon="0.07627">
        <ele>120.64</ele>
        <time>2023-06-20T06:51:06.839Z</time>
      </trkpt>
      <trkpt lat="46.47866" lon="0.07632">
        <ele>120.42</ele>
        <time>2023-06-20T06:52:10.819Z</time>
      </trkpt>
      <trkpt lat="46.47876" lon="0.07645">
        <ele>119.67</ele>
        <time>2023-06-20T06:53:14.801Z</time>
      </trkpt>
      <trkpt lat="46.47879" lon="0.0765">
        <ele>119.46</ele>
        <time>2023-06-20T06:54:18.784Z</time>
      </trkpt>
      <trkpt lat="46.47882" lon="0.07654">
        <ele>119.31</ele>
        <time>2023-06-20T06:55:22.768Z</time>
      </trkpt>
      <trkpt lat="46.47885" lon="0.07659">
        <ele>119.25</ele>
        <time>2023-06-20T06:56:26.752Z</time>
      </trkpt>
      <trkpt lat="46.47889" lon="0.07663">
        <ele>119.3</ele>
        <time>2023-06-20T06:57:30.737Z</time>
      </trkpt>
      <trkpt lat="46.47892" lon="0.07668">
        <ele>119.48</ele>
        <time>2023-06-20T06:58:34.723Z</time>
      </trkpt>
      <trkpt lat="46.47895" lon="0.07673">
        <ele>119.8</ele>
        <time>2023-06-20T06:59:38.709Z</time>
      </trkpt>
      <trkpt lat="46.47898" lon="0.07677">
        <ele>120.25</ele>
        <time>2023-06-20T07:00:42.696Z</time>
      </trkpt>
      <trkpt lat="46.47901" lon="0.07682">
        <ele>120.82</ele>
        <time>2023-06-20T07:01:46.684Z</time>
      </trkpt>
      <trkpt lat="46.47904" lon="0.07686">
        <ele>121.51</ele>
        <time>2023-06-20T07:02:50.673Z</time>
      </trkpt>
      <trkpt lat="46.47908" lon="0.07691">
        <ele>122.3</ele>
        <time>2023-06-20T07:03:54.662Z</time>
      </trkpt>
      <trkpt lat="46.47913" lon="0.07698">
        <ele>123.78</ele>
        <time>2023-06-20T07:04:58.652Z</time>
      </trkpt>
      <trkpt lat="46.47918" lon="0.07703">
        <ele>124.97</ele>
        <time>2023-06-20T07:06:02.643Z</time>
      </trkpt>
      <trkpt lat="46.47921" lon="0.07707">
        <ele>125.81</ele>
        <time>2023-06-20T07:07:06.635Z</time>
      </trkpt>
      <trkpt lat="46.47925" lon="0.07711">
        <ele>126.58</ele>
        <time>2023-06-20T07:08:10.628Z</time>
      </trkpt>
      <trkpt lat="46.47932" lon="0.0772">
        <ele>127.99</ele>
        <time>2023-06-20T07:09:14.622Z</time>
      </trkpt>
      <trkpt lat="46.47949" lon="0.0774">
        <ele>131.42</ele>
        <time>2023-06-20T07:10:18.620Z</time>
      </trkpt>
      <trkpt lat="46.47959" lon="0.07752">
        <ele>133.56</ele>
        <time>2023-06-20T07:11:22.620Z</time>
      </trkpt>
      <trkpt lat="46.47966" lon="0.0776">
        <ele>134.88</ele>
        <time>2023-06-20T07:12:26.621Z</time>
      </trkpt>
      <trkpt lat="46.4797" lon="0.07764">
        <ele>135.45</ele>
        <time>2023-06-20T07:13:30.623Z</time>
      </trkpt>
      <trkpt lat="46.47973" lon="0.07768">
        <ele>135.98</ele>
        <time>2023-06-20T07:14:34.626Z</time>
      </trkpt>
      <trkpt lat="46.4798" lon="0.07776">
        <ele>136.97</ele>
        <time>2023-06-20T07:15:38.630Z</time>
      </trkpt>
      <trkpt lat="46.47986" lon="0.07783">
        <ele>137.73</ele>
        <time>2023-06-20T07:16:42.635Z</time>
      </trkpt>
      <trkpt lat="46.47987" lon="0.07784">
        <ele>137.88</ele>
        <time>2023-06-20T07:17:46.641Z</time>
      </trkpt>
      <trkpt lat="46.47995" lon="0.0779">
        <ele>138.75</ele>
        <time>2023-06-20T07:18:50.648Z</time>
      </trkpt>
      <trkpt lat="46.48003" lon="0.07797">
        <ele>139.58</ele>
        <time>2023-06-20T07:19:54.657Z</time>
      </trkpt>
      <trkpt lat="46.48007" lon="0.078">
        <ele>139.97</ele>
        <time>2023-06-20T07:20:58.666Z</time>
      </trkpt>
      <trkpt lat="46.4801" lon="0.07803">
        <ele>140.33</ele>
        <time>2023-06-20T07:22:02.676Z</time>
      </trkpt>
      <trkpt lat="46.48022" lon="0.07813">
        <ele>141.29</ele>
        <time>2023-06-20T07:23:06.688Z</time>
      </trkpt>
      <trkpt lat="46.48026" lon="0.07816">
        <ele>141.66</ele>
        <time>2023-06-20T07:24:10.701Z</time>
      </trkpt>
      <trkpt lat="46.4803" lon="0.07819">
        <ele>142.1</ele>
        <time>2023-06-20T07:25:14.714Z</time>
      </trkpt>
      <trkpt lat="46.48034" lon="0.07822">
        <ele>142.6</ele>
        <time>2023-06-20T07:26:18.728Z</time>
      </trkpt>
      <trkpt lat="46.48042" lon="0.07828">
        <ele>143.66</ele>
        <time>2023-06-20T07:27:22.744Z</time>
      </trkpt>
      <trkpt lat="46.48045" lon="0.07832">
        <ele>144.16</ele>
        <time>2023-06-20T07:28:26.760Z</time>
      </trkpt>
      <trkpt lat="46.48049" lon="0.07835">
        <ele>144.58</ele>
        <time>2023-06-20T07:29:30.777Z</time>
      </trkpt>
      <trkpt lat="46.48053" lon="0.07838">
        <ele>144.9</ele>
        <time>2023-06-20T07:30:34.795Z</time>
      </trkpt>
      <trkpt lat="46.48057" lon="0.07841">
        <ele>145.17</ele>
        <time>2023-06-20T07:31:38.813Z</time>
      </trkpt>
      <trkpt lat="46.48065" lon="0.07848">
        <ele>145.19</ele>
        <time>2023-06-20T07:32:42.833Z</time>
      </trkpt>
      <trkpt lat="46.48073" lon="0.07854">
        <ele>145.18</ele>
        <time>2023-06-20T07:33:46.854Z</time>
      </trkpt>
      <trkpt lat="46.48104" lon="0.0788">
        <ele>144.94</ele>
        <time>2023-06-20T07:34:50.881Z</time>
      </trkpt>
      <trkpt lat="46.48108" lon="0.07883">
        <ele>144.94</ele>
        <time>2023-06-20T07:35:54.909Z</time>
      </trkpt>
      <trkpt lat="46.48112" lon="0.07886">
        <ele>144.97</ele>
        <time>2023-06-20T07:36:58.938Z</time>
      </trkpt>
      <trkpt lat="46.48124" lon="0.07896">
        <ele>145.11</ele>
        <time>2023-06-20T07:38:02.969Z</time>
      </trkpt>
      <trkpt lat="46.48124" lon="0.07896">
        <ele>145.11</ele>
        <time>2023-06-20T07:39:07.000Z</time>
      </trkpt>
      <trkpt lat="46.48126" lon="0.07891">
        <ele>145.12</ele>
        <time>2023-06-20T07:40:11.031Z</time>
      </trkpt>
      <trkpt lat="46.48129" lon="0.07886">
        <ele>145.09</ele>
        <time>2023-06-20T07:41:15.063Z</time>
      </trkpt>
      <trkpt lat="46.48138" lon="0.07864">
        <ele>144.91</ele>
        <time>2023-06-20T07:42:19.098Z</time>
      </trkpt>
      <trkpt lat="46.48148" lon="0.07842">
        <ele>144.84</ele>
        <time>2023-06-20T07:43:23.136Z</time>
      </trkpt>
      <trkpt lat="46.48154" lon="0.07828">
        <ele>144.74</ele>
        <time>2023-06-20T07:44:27.176Z</time>
      </trkpt>
      <trkpt lat="46.48161" lon="0.07808">
        <ele>144.61</ele>
        <time>2023-06-20T07:45:31.218Z</time>
      </trkpt>
      <trkpt lat="46.48168" lon="0.07791">
        <ele>144.52</ele>
        <time>2023-06-20T07:46:35.262Z</time>
      </trkpt>
      <trkpt lat="46.48173" lon="0.07773">
        <ele>144.45</ele>
        <time>2023-06-20T07:47:39.309Z</time>
      </trkpt>
      <trkpt lat="46.48177" lon="0.07761">
        <ele>144.45</ele>
        <time>2023-06-20T07:48:43.357Z</time>
      </trkpt>
      <trkpt lat="46.48184" lon="0.07737">
        <ele>144.58</ele>
        <time>2023-06-20T07:49:47.408Z</time>
      </trkpt>
      <trkpt lat="46.48185" lon="0.07731">
        <ele>144.59</ele>
        <time>2023-06-20T07:50:51.460Z</time>
      </trkpt>
      <trkpt lat="46.48187" lon="0.07725">
        <ele>144.59</ele>
        <time>2023-06-20T07:51:55.512Z</time>
      </trkpt>
      <trkpt lat="46.48192" lon="0.07707">
        <ele>144.54</ele>
        <time>2023-06-20T07:52:59.566Z</time>
      </trkpt>
      <trkpt lat="46.48199" lon="0.07683">
        <ele>144.54</ele>
        <time>2023-06-20T07:54:03.623Z</time>
      </trkpt>
      <trkpt lat="46.48206" lon="0.07659">
        <ele>144.46</ele>
        <time>2023-06-20T07:55:07.683Z</time>
      </trkpt>
      <trkpt lat="46.48208" lon="0.07653">
        <ele>144.47</ele>
        <time>2023-06-20T07:56:11.744Z</time>
      </trkpt>
      <trkpt lat="46.48213" lon="0.07635">
        <ele>144.57</ele>
        <time>2023-06-20T07:57:15.807Z</time>
      </trkpt>
      <trkpt lat="46.48215" lon="0.07629">
        <ele>144.56</ele>
        <time>2023-06-20T07:58:19.871Z</time>
      </trkpt>
      <trkpt lat="46.48217" lon="0.07623">
        <ele>144.52</ele>
        <time>2023-06-20T07:59:23.936Z</time>
      </trkpt>
      <trkpt lat="46.48222" lon="0.07605">
        <ele>144.34</ele>
        <time>2023-06-20T08:00:28.003Z</time>
      </trkpt>
      <trkpt lat="46.48225" lon="0.07593">
        <ele>144.2</ele>
        <time>2023-06-20T08:01:32.071Z</time>
      </trkpt>
      <trkpt lat="46.48227" lon="0.07587">
        <ele>144.11</ele>
        <time>2023-06-20T08:02:36.140Z</time>
      </trkpt>
      <trkpt lat="46.48232" lon="0.07569">
        <ele>143.74</ele>
        <time>2023-06-20T08:03:40.211Z</time>
      </trkpt>
      <trkpt lat="46.48237" lon="0.07553">
        <ele>143.45</ele>
        <time>2023-06-20T08:04:44.284Z</time>
      </trkpt>
      <trkpt lat="46.48238" lon="0.07551">
        <ele>143.41</ele>
        <time>2023-06-20T08:05:48.357Z</time>
      </trkpt>
      <trkpt lat="46.48246" lon="0.07535">
        <ele>143.05</ele>
        <time>2023-06-20T08:06:52.432Z</time>
      </trkpt>
      <trkpt lat="46.48248" lon="0.0753">
        <ele>142.96</ele>
        <time>2023-06-20T08:07:56.508Z</time>
      </trkpt>
      <trkpt lat="46.48248" lon="0.0753">
        <ele>142.96</ele>
        <time>2023-06-20T08:09:00.584Z</time>
      </trkpt>
      <trkpt lat="46.48258" lon="0.07516">
        <ele>142.79</ele>
        <time>2023-06-20T08:10:04.662Z</time>
      </trkpt>
      <trkpt lat="46.4826" lon="0.07512">
        <ele>142.72</ele>
        <time>2023-06-20T08:11:08.741Z</time>
      </trkpt>
      <trkpt lat="46.48261" lon="0.07511">
        <ele>142.71</ele>
        <time>2023-06-20T08:12:12.820Z</time>
      </trkpt>
      <trkpt lat="46.48271" lon="0.07498">
        <ele>142.4</ele>
        <time>2023-06-20T08:13:16.901Z</time>
      </trkpt>
      <trkpt lat="46.48278" lon="0.07489">
        <ele>142.24</ele>
        <time>2023-06-20T08:14:20.984Z</time>
      </trkpt>
      <trkpt lat="46.48281" lon="0.07485">
        <ele>142.19</ele>
        <time>2023-06-20T08:15:25.067Z</time>
      </trkpt>
      <trkpt lat="46.48284" lon="0.07481">
        <ele>142.15</ele>
        <time>2023-06-20T08:16:29.151Z</time>
      </trkpt>
      <trkpt lat="46.48291" lon="0.07472">
        <ele>142.12</ele>
        <time>2023-06-20T08:17:33.236Z</time>
      </trkpt>
      <trkpt lat="46.48303" lon="0.07457">
        <ele>142.17</ele>
        <time>2023-06-20T08:18:37.324Z</time>
      </trkpt>
      <trkpt lat="46.4831" lon="0.07445">
        <ele>142.21</ele>
        <time>2023-06-20T08:19:41.414Z</time>
      </trkpt>
      <trkpt lat="46.48317" lon="0.07436">
        <ele>142.29</ele>
        <time>2023-06-20T08:20:45.505Z</time>
      </trkpt>
      <trkpt lat="46.48324" lon="0.07424">
        <ele>142.42</ele>
        <time>2023-06-20T08:21:49.598Z</time>
      </trkpt>
      <trkpt lat="46.48312" lon="0.07408">
        <ele>142.62</ele>
        <time>2023-06-20T08:22:53.694Z</time>
      </trkpt>
      <trkpt lat="46.48306" lon="0.07399">
        <ele>142.68</ele>
        <time>2023-06-20T08:23:57.791Z</time>
      </trkpt>
      <trkpt lat="46.48296" lon="0.07386">
        <ele>142.67</ele>
        <time>2023-06-20T08:25:01.890Z</time>
      </trkpt>
      <trkpt lat="46.48286" lon="0.07373">
        <ele>142.72</ele>
        <time>2023-06-20T08:26:05.991Z</time>
      </trkpt>
      <trkpt lat="46.48283" lon="0.07368">
        <ele>142.72</ele>
        <time>2023-06-20T08:27:10.093Z</time>
      </trkpt>
      <trkpt lat="46.48269" lon="0.07351">
        <ele>142.66</ele>
        <time>2023-06-20T08:28:14.198Z</time>
      </trkpt>
      <trkpt lat="46.48263" lon="0.07342">
        <ele>142.57</ele>
        <time>2023-06-20T08:29:18.304Z</time>
      </trkpt>
      <trkpt lat="46.48256" lon="0.07333">
        <ele>142.43</ele>
        <time>2023-06-20T08:30:22.412Z</time>
      </trkpt>
      <trkpt lat="46.48243" lon="0.07315">
        <ele>142.04</ele>
        <time>2023-06-20T08:31:26.523Z</time>
      </trkpt>
      <trkpt lat="46.4823" lon="0.07297">
        <ele>141.71</ele>
        <time>2023-06-20T08:32:30.636Z</time>
      </trkpt>
      <trkpt lat="46.48227" lon="0.07293">
        <ele>141.59</ele>
        <time>2023-06-20T08:33:34.750Z</time>
      </trkpt>
      <trkpt lat="46.4822" lon="0.07284">
        <ele>141.32</ele>
        <time>2023-06-20T08:34:38.866Z</time>
      </trkpt>
      <trkpt lat="46.48217" lon="0.0728">
        <ele>141.2</ele>
        <time>2023-06-20T08:35:42.982Z</time>
      </trkpt>
      <trkpt lat="46.48214" lon="0.07275">
        <ele>141.11</ele>
        <time>2023-06-20T08:36:47.099Z</time>
      </trkpt>
      <trkpt lat="46.48207" lon="0.07266">
        <ele>141.01</ele>
        <time>2023-06-20T08:37:51.218Z</time>
      </trkpt>
      <trkpt lat="46.48194" lon="0.07249">
        <ele>140.9</ele>
        <time>2023-06-20T08:38:55.339Z</time>
      </trkpt>
      <trkpt lat="46.48194" lon="0.07249">
        <ele>140.9</ele>
        <time>2023-06-20T08:39:59.460Z</time>
      </trkpt>
      <trkpt lat="46.48171" lon="0.07227">
        <ele>140.66</ele>
        <time>2023-06-20T08:41:03.586Z</time>
      </trkpt>
      <trkpt lat="46.4816" lon="0.07216">
        <ele>140.4</ele>
        <time>2023-06-20T08:42:07.714Z</time>
      </trkpt>
      <trkpt lat="46.48153" lon="0.07209">
        <ele>140.26</ele>
        <time>2023-06-20T08:43:11.843Z</time>
      </trkpt>
      <trkpt lat="46.48143" lon="0.07199">
        <ele>140.57</ele>
        <time>2023-06-20T08:44:15.974Z</time>
      </trkpt>
      <trkpt lat="46.48139" lon="0.07194">
        <ele>140.73</ele>
        <time>2023-06-20T08:45:20.106Z</time>
      </trkpt>
      <trkpt lat="46.48132" lon="0.07185">
        <ele>140.92</ele>
        <time>2023-06-20T08:46:24.240Z</time>
      </trkpt>
      <trkpt lat="46.48118" lon="0.07169">
        <ele>141.23</ele>
        <time>2023-06-20T08:47:28.376Z</time>
      </trkpt>
      <trkpt lat="46.48111" lon="0.07161">
        <ele>141.36</ele>
        <time>2023-06-20T08:48:32.514Z</time>
      </trkpt>
      <trkpt lat="46.48101" lon="0.07149">
        <ele>141.52</ele>
        <time>2023-06-20T08:49:36.654Z</time>
      </trkpt>
      <trkpt lat="46.4809" lon="0.07136">
        <ele>141.73</ele>
        <time>2023-06-20T08:50:40.796Z</time>
      </trkpt>
      <trkpt lat="46.48083" lon="0.07128">
        <ele>141.9</ele>
        <time>2023-06-20T08:51:44.940Z</time>
      </trkpt>
      <trkpt lat="46.4807" lon="0.07112">
        <ele>142.33</ele>
        <time>2023-06-20T08:52:49.086Z</time>
      </trkpt>
      <trkpt lat="46.48064" lon="0.07105">
        <ele>142.45</ele>
        <time>2023-06-20T08:53:53.234Z</time>
      </trkpt>
      <trkpt lat="46.48056" lon="0.07096">
        <ele>142.64</ele>
        <time>2023-06-20T08:54:57.383Z</time>
      </trkpt>
      <trkpt lat="46.48049" lon="0.07088">
        <ele>142.85</ele>
        <time>2023-06-20T08:56:01.534Z</time>
      </trkpt>
      <trkpt lat="46.48038" lon="0.07076">
        <ele>143.2</ele>
        <time>2023-06-20T08:57:05.687Z</time>
      </trkpt>
      <trkpt lat="46.48023" lon="0.07059">
        <ele>143.61</ele>
        <time>2023-06-20T08:58:09.843Z</time>
      </trkpt>
      <trkpt lat="46.48017" lon="0.07052">
        <ele>143.78</ele>
        <time>2023-06-20T08:59:14.000Z</time>
      </trkpt>
      <trkpt lat="46.48011" lon="0.07043">
        <ele>144.01</ele>
        <time>2023-06-20T09:00:18.159Z</time>
      </trkpt>
      <trkpt lat="46.47997" lon="0.07026">
        <ele>144.51</ele>
        <time>2023-06-20T09:01:22.320Z</time>
      </trkpt>
      <trkpt lat="46.47994" lon="0.07022">
        <ele>144.62</ele>
        <time>2023-06-20T09:02:26.482Z</time>
      </trkpt>
      <trkpt lat="46.47991" lon="0.07017">
        <ele>144.71</ele>
        <time>2023-06-20T09:03:30.645Z</time>
      </trkpt>
      <trkpt lat="46.47987" lon="0.07013">
        <ele>144.77</ele>
        <time>2023-06-20T09:04:34.809Z</time>
      </trkpt>
      <trkpt lat="46.47985" lon="0.0701">
        <ele>144.8</ele>
        <time>2023-06-20T09:05:38.973Z</time>
      </trkpt>
      <trkpt lat="46.47978" lon="0.06999">
        <ele>144.91</ele>
        <time>2023-06-20T09:06:43.139Z</time>
      </trkpt>
      <trkpt lat="46.47975" lon="0.06994">
        <ele>144.98</ele>
        <time>2023-06-20T09:07:47.305Z</time>
      </trkpt>
      <trkpt lat="46.47958" lon="0.06964">
        <ele>145.46</ele>
        <time>2023-06-20T09:08:51.476Z</time>
      </trkpt>
      <trkpt lat="46.47945" lon="0.06942">
        <ele>145.74</ele>
        <time>2023-06-20T09:09:55.650Z</time>
      </trkpt>
      <trkpt lat="46.47944" lon="0.0694">
        <ele>145.77</ele>
        <time>2023-06-20T09:10:59.824Z</time>
      </trkpt>
      <trkpt lat="46.47936" lon="0.06924">
        <ele>145.99</ele>
        <time>2023-06-20T09:12:04.000Z</time>
      </trkpt>
      <trkpt lat="46.47925" lon="0.06904">
        <ele>146.32</ele>
        <time>2023-06-20T09:13:08.179Z</time>
      </trkpt>
      <trkpt lat="46.47917" lon="0.06888">
        <ele>146.53</ele>
        <time>2023-06-20T09:14:12.360Z</time>
      </trkpt>
      <trkpt lat="46.47906" lon="0.06868">
        <ele>146.84</ele>
        <time>2023-06-20T09:15:16.544Z</time>
      </trkpt>
      <trkpt lat="46.47892" lon="0.06842">
        <ele>147.17</ele>
        <time>2023-06-20T09:16:20.732Z</time>
      </trkpt>
      <trkpt lat="46.47887" lon="0.06832">
        <ele>147.36</ele>
        <time>2023-06-20T09:17:24.921Z</time>
      </trkpt>
      <trkpt lat="46.47879" lon="0.06817">
        <ele>147.69</ele>
        <time>2023-06-20T09:18:29.112Z</time>
      </trkpt>
      <trkpt lat="46.47877" lon="0.06813">
        <ele>147.74</ele>
        <time>2023-06-20T09:19:33.304Z</time>
      </trkpt>
      <trkpt lat="46.47877" lon="0.06792">
        <ele>148</ele>
        <time>2023-06-20T09:20:37.498Z</time>
      </trkpt>
      <trkpt lat="46.47877" lon="0.06779">
        <ele>148.12</ele>
        <time>2023-06-20T09:21:41.694Z</time>
      </trkpt>
      <trkpt lat="46.47877" lon="0.06777">
        <ele>148.12</ele>
        <time>2023-06-20T09:22:45.890Z</time>
      </trkpt>
      <trkpt lat="46.47875" lon="0.06773">
        <ele>148.15</ele>
        <time>2023-06-20T09:23:50.086Z</time>
      </trkpt>
      <trkpt lat="46.47867" lon="0.06757">
        <ele>148.18</ele>
        <time>2023-06-20T09:24:54.285Z</time>
      </trkpt>
      <trkpt lat="46.47862" lon="0.06747">
        <ele>148.28</ele>
        <time>2023-06-20T09:25:58.485Z</time>
      </trkpt>
      <trkpt lat="46.47859" lon="0.06742">
        <ele>148.35</ele>
        <time>2023-06-20T09:27:02.686Z</time>
      </trkpt>
      <trkpt lat="46.47854" lon="0.06731">
        <ele>148.52</ele>
        <time>2023-06-20T09:28:06.888Z</time>
      </trkpt>
      <trkpt lat="46.47843" lon="0.0671">
        <ele>148.94</ele>
        <time>2023-06-20T09:29:11.093Z</time>
      </trkpt>
      <trkpt lat="46.47838" lon="0.067">
        <ele>149.12</ele>
        <time>2023-06-20T09:30:15.299Z</time>
      </trkpt>
      <trkpt lat="46.47827" lon="0.06679">
        <ele>149.36</ele>
        <time>2023-06-20T09:31:19.508Z</time>
      </trkpt>
      <trkpt lat="46.47826" lon="0.06676">
        <ele>149.38</ele>
        <time>2023-06-20T09:32:23.718Z</time>
      </trkpt>
      <trkpt lat="46.4782" lon="0.06663">
        <ele>149.51</ele>
        <time>2023-06-20T09:33:27.929Z</time>
      </trkpt>
      <trkpt lat="46.47805" lon="0.0663">
        <ele>149.69</ele>
        <time>2023-06-20T09:34:32.145Z</time>
      </trkpt>
      <trkpt lat="46.47801" lon="0.06621">
        <ele>149.75</ele>
        <time>2023-06-20T09:35:36.362Z</time>
      </trkpt>
      <trkpt lat="46.47792" lon="0.06604">
        <ele>149.88</ele>
        <time>2023-06-20T09:36:40.581Z</time>
      </trkpt>
      <trkpt lat="46.47789" lon="0.06599">
        <ele>149.89</ele>
        <time>2023-06-20T09:37:44.801Z</time>
      </trkpt>
      <trkpt lat="46.47786" lon="0.06594">
        <ele>149.88</ele>
        <time>2023-06-20T09:38:49.022Z</time>
      </trkpt>
      <trkpt lat="46.47778" lon="0.06578">
        <ele>149.77</ele>
        <time>2023-06-20T09:39:53.245Z</time>
      </trkpt>
      <trkpt lat="46.47775" lon="0.06574">
        <ele>149.74</ele>
        <time>2023-06-20T09:40:57.469Z</time>
      </trkpt>
      <trkpt lat="46.47771" lon="0.0657">
        <ele>149.75</ele>
        <time>2023-06-20T09:42:01.693Z</time>
      </trkpt>
      <trkpt lat="46.47764" lon="0.06562">
        <ele>149.82</ele>
        <time>2023-06-20T09:43:05.919Z</time>
      </trkpt>
      <trkpt lat="46.47754" lon="0.0655">
        <ele>149.98</ele>
        <time>2023-06-20T09:44:10.147Z</time>
      </trkpt>
      <trkpt lat="46.47743" lon="0.06538">
        <ele>150.22</ele>
        <time>2023-06-20T09:45:14.377Z</time>
      </trkpt>
      <trkpt lat="46.47736" lon="0.0653">
        <ele>150.34</ele>
        <time>2023-06-20T09:46:18.608Z</time>
      </trkpt>
      <trkpt lat="46.47733" lon="0.06526">
        <ele>150.36</ele>
        <time>2023-06-20T09:47:22.840Z</time>
      </trkpt>
      <trkpt lat="46.47729" lon="0.06522">
        <ele>150.34</ele>
        <time>2023-06-20T09:48:27.073Z</time>
      </trkpt>
      <trkpt lat="46.47722" lon="0.06514">
        <ele>150.27</ele>
        <time>2023-06-20T09:49:31.307Z</time>
      </trkpt>
      <trkpt lat="46.47716" lon="0.06507">
        <ele>150.16</ele>
        <time>2023-06-20T09:50:35.543Z</time>
      </trkpt>
      <trkpt lat="46.47711" lon="0.06505">
        <ele>150.09</ele>
        <time>2023-06-20T09:51:39.780Z</time>
      </trkpt>
      <trkpt lat="46.47693" lon="0.065">
        <ele>149.76</ele>
        <time>2023-06-20T09:52:44.019Z</time>
      </trkpt>
      <trkpt lat="46.47688" lon="0.06498">
        <ele>149.69</ele>
        <time>2023-06-20T09:53:48.259Z</time>
      </trkpt>
      <trkpt lat="46.4768" lon="0.06495">
        <ele>149.6</ele>
        <time>2023-06-20T09:54:52.501Z</time>
      </trkpt>
      <trkpt lat="46.47676" lon="0.06493">
        <ele>149.52</ele>
        <time>2023-06-20T09:55:56.743Z</time>
      </trkpt>
      <trkpt lat="46.47663" lon="0.06488">
        <ele>149.18</ele>
        <time>2023-06-20T09:57:00.987Z</time>
      </trkpt>
      <trkpt lat="46.47659" lon="0.06486">
        <ele>149.09</ele>
        <time>2023-06-20T09:58:05.232Z</time>
      </trkpt>
      <trkpt lat="46.47654" lon="0.06484">
        <ele>149.02</ele>
        <time>2023-06-20T09:59:09.478Z</time>
      </trkpt>
      <trkpt lat="46.47651" lon="0.06483">
        <ele>148.99</ele>
        <time>2023-06-20T10:00:13.724Z</time>
      </trkpt>
      <trkpt lat="46.47641" lon="0.0648">
        <ele>148.9</ele>
        <time>2023-06-20T10:01:17.972Z</time>
      </trkpt>
      <trkpt lat="46.47637" lon="0.06479">
        <ele>148.82</ele>
        <time>2023-06-20T10:02:22.221Z</time>
      </trkpt>
      <trkpt lat="46.47628" lon="0.06477">
        <ele>148.56</ele>
        <time>2023-06-20T10:03:26.471Z</time>
      </trkpt>
      <trkpt lat="46.47619" lon="0.06474">
        <ele>148.21</ele>
        <time>2023-06-20T10:04:30.723Z</time>
      </trkpt>
      <trkpt lat="46.47615" lon="0.06472">
        <ele>148.05</ele>
        <time>2023-06-20T10:05:34.975Z</time>
      </trkpt>
      <trkpt lat="46.47611" lon="0.06469">
        <ele>147.92</ele>
        <time>2023-06-20T10:06:39.228Z</time>
      </trkpt>
      <trkpt lat="46.47607" lon="0.06467">
        <ele>147.81</ele>
        <time>2023-06-20T10:07:43.482Z</time>
      </trkpt>
      <trkpt lat="46.47599" lon="0.06463">
        <ele>147.67</ele>
        <time>2023-06-20T10:08:47.737Z</time>
      </trkpt>
      <trkpt lat="46.47594" lon="0.06462">
        <ele>147.59</ele>
        <time>2023-06-20T10:09:51.993Z</time>
      </trkpt>
      <trkpt lat="46.47585" lon="0.0646">
        <ele>147.42</ele>
        <time>2023-06-20T10:10:56.250Z</time>
      </trkpt>
      <trkpt lat="46.47579" lon="0.06458">
        <ele>147.28</ele>
        <time>2023-06-20T10:12:00.508Z</time>
      </trkpt>
      <trkpt lat="46.47571" lon="0.06458">
        <ele>147.12</ele>
        <time>2023-06-20T10:13:04.768Z</time>
      </trkpt>
      <trkpt lat="46.47571" lon="0.06458">
        <ele>147.12</ele>
        <time>2023-06-20T10:14:09.028Z</time>
      </trkpt>
      <trkpt lat="46.47572" lon="0.0644">
        <ele>146.77</ele>
        <time>2023-06-20T10:15:13.290Z</time>
      </trkpt>
      <trkpt lat="46.47572" lon="0.06433">
        <ele>146.64</ele>
        <time>2023-06-20T10:16:17.552Z</time>
      </trkpt>
      <trkpt lat="46.47573" lon="0.06407">
        <ele>146.05</ele>
        <time>2023-06-20T10:17:21.817Z</time>
      </trkpt>
      <trkpt lat="46.47575" lon="0.06375">
        <ele>145.43</ele>
        <time>2023-06-20T10:18:26.086Z</time>
      </trkpt>
      <trkpt lat="46.47575" lon="0.06368">
        <ele>145.28</ele>
        <time>2023-06-20T10:19:30.355Z</time>
      </trkpt>
      <trkpt lat="46.47575" lon="0.06364">
        <ele>145.16</ele>
        <time>2023-06-20T10:20:34.625Z</time>
      </trkpt>
      <trkpt lat="46.47575" lon="0.06362">
        <ele>145.11</ele>
        <time>2023-06-20T10:21:38.895Z</time>
      </trkpt>
      <trkpt lat="46.47577" lon="0.06343">
        <ele>144.54</ele>
        <time>2023-06-20T10:22:43.167Z</time>
      </trkpt>
      <trkpt lat="46.4758" lon="0.06319">
        <ele>143.99</ele>
        <time>2023-06-20T10:23:47.442Z</time>
      </trkpt>
      <trkpt lat="46.47587" lon="0.06279">
        <ele>143.05</ele>
        <time>2023-06-20T10:24:51.722Z</time>
      </trkpt>
      <trkpt lat="46.47588" lon="0.06274">
        <ele>142.91</ele>
        <time>2023-06-20T10:25:56.002Z</time>
      </trkpt>
      <trkpt lat="46.4759" lon="0.06267">
        <ele>142.72</ele>
        <time>2023-06-20T10:27:00.283Z</time>
      </trkpt>
      <trkpt lat="46.47599" lon="0.06238">
        <ele>141.86</ele>
        <time>2023-06-20T10:28:04.567Z</time>
      </trkpt>
      <trkpt lat="46.47605" lon="0.06228">
        <ele>141.5</ele>
        <time>2023-06-20T10:29:08.853Z</time>
      </trkpt>
      <trkpt lat="46.47611" lon="0.06217">
        <ele>141.19</ele>
        <time>2023-06-20T10:30:13.140Z</time>
      </trkpt>
      <trkpt lat="46.47619" lon="0.06212">
        <ele>140.93</ele>
        <time>2023-06-20T10:31:17.429Z</time>
      </trkpt>
      <trkpt lat="46.47626" lon="0.06207">
        <ele>140.62</ele>
        <time>2023-06-20T10:32:21.719Z</time>
      </trkpt>
      <trkpt lat="46.47627" lon="0.06207">
        <ele>140.62</ele>
        <time>2023-06-20T10:33:26.009Z</time>
      </trkpt>
      <trkpt lat="46.47636" lon="0.06204">
        <ele>140.42</ele>
        <time>2023-06-20T10:34:30.301Z</time>
      </trkpt>
      <trkpt lat="46.47648" lon="0.062">
        <ele>140.2</ele>
        <time>2023-06-20T10:35:34.595Z</time>
      </trkpt>
      <trkpt lat="46.47653" lon="0.06196">
        <ele>140.12</ele>
        <time>2023-06-20T10:36:38.890Z</time>
      </trkpt>
      <trkpt lat="46.47657" lon="0.06193">
        <ele>140.02</ele>
        <time>2023-06-20T10:37:43.185Z</time>
      </trkpt>
      <trkpt lat="46.4766" lon="0.06188">
        <ele>139.94</ele>
        <time>2023-06-20T10:38:47.481Z</time>
      </trkpt>
      <trkpt lat="46.47665" lon="0.06178">
        <ele>139.72</ele>
        <time>2023-06-20T10:39:51.778Z</time>
      </trkpt>
      <trkpt lat="46.47668" lon="0.06173">
        <ele>139.57</ele>
        <time>2023-06-20T10:40:56.076Z</time>
      </trkpt>
      <trkpt lat="46.47697" lon="0.06123">
        <ele>137.75</ele>
        <time>2023-06-20T10:42:00.381Z</time>
      </trkpt>
      <trkpt lat="46.47699" lon="0.06119">
        <ele>137.61</ele>
        <time>2023-06-20T10:43:04.687Z</time>
      </trkpt>
      <trkpt lat="46.47713" lon="0.06099">
        <ele>136.84</ele>
        <time>2023-06-20T10:44:08.996Z</time>
      </trkpt>
      <trkpt lat="46.4771" lon="0.06096">
        <ele>136.7</ele>
        <time>2023-06-20T10:45:13.306Z</time>
      </trkpt>
      <trkpt lat="46.47708" lon="0.06093">
        <ele>136.58</ele>
        <time>2023-06-20T10:46:17.616Z</time>
      </trkpt>
      <trkpt lat="46.47704" lon="0.06086">
        <ele>136.32</ele>
        <time>2023-06-20T10:47:21.927Z</time>
      </trkpt>
      <trkpt lat="46.47697" lon="0.0607">
        <ele>135.66</ele>
        <time>2023-06-20T10:48:26.240Z</time>
      </trkpt>
      <trkpt lat="46.47683" lon="0.06043">
        <ele>134.43</ele>
        <time>2023-06-20T10:49:30.557Z</time>
      </trkpt>
      <trkpt lat="46.47678" lon="0.06033">
        <ele>133.9</ele>
        <time>2023-06-20T10:50:34.875Z</time>
      </trkpt>
      <trkpt lat="46.47665" lon="0.06006">
        <ele>132.46</ele>
        <time>2023-06-20T10:51:39.197Z</time>
      </trkpt>
      <trkpt lat="46.47661" lon="0.05998">
        <ele>131.98</ele>
        <time>2023-06-20T10:52:43.520Z</time>
      </trkpt>
      <trkpt lat="46.47655" lon="0.05985">
        <ele>131.21</ele>
        <time>2023-06-20T10:53:47.845Z</time>
      </trkpt>
      <trkpt lat="46.47642" lon="0.05958">
        <ele>129.86</ele>
        <time>2023-06-20T10:54:52.173Z</time>
      </trkpt>
      <trkpt lat="46.47637" lon="0.05947">
        <ele>129.28</ele>
        <time>2023-06-20T10:55:56.503Z</time>
      </trkpt>
      <trkpt lat="46.4763" lon="0.05931">
        <ele>128.37</ele>
        <time>2023-06-20T10:57:00.835Z</time>
      </trkpt>
      <trkpt lat="46.47625" lon="0.0592">
        <ele>127.71</ele>
        <time>2023-06-20T10:58:05.168Z</time>
      </trkpt>
      <trkpt lat="46.4762" lon="0.05909">
        <ele>126.96</ele>
        <time>2023-06-20T10:59:09.503Z</time>
      </trkpt>
      <trkpt lat="46.47612" lon="0.05893">
        <ele>125.75</ele>
        <time>2023-06-20T11:00:13.840Z</time>
      </trkpt>
      <trkpt lat="46.47607" lon="0.05882">
        <ele>124.98</ele>
        <time>2023-06-20T11:01:18.179Z</time>
      </trkpt>
      <trkpt lat="46.47603" lon="0.05873">
        <ele>124.4</ele>
        <time>2023-06-20T11:02:22.519Z</time>
      </trkpt>
      <trkpt lat="46.47602" lon="0.05871">
        <ele>124.28</ele>
        <time>2023-06-20T11:03:26.859Z</time>
      </trkpt>
      <trkpt lat="46.47594" lon="0.05848">
        <ele>123.01</ele>
        <time>2023-06-20T11:04:31.202Z</time>
      </trkpt>
      <trkpt lat="46.47592" lon="0.05842">
        <ele>122.67</ele>
        <time>2023-06-20T11:05:35.546Z</time>
      </trkpt>
      <trkpt lat="46.47589" lon="0.05836">
        <ele>122.29</ele>
        <time>2023-06-20T11:06:39.890Z</time>
      </trkpt>
      <trkpt lat="46.47587" lon="0.05831">
        <ele>121.88</ele>
        <time>2023-06-20T11:07:44.235Z</time>
      </trkpt>
      <trkpt lat="46.47586" lon="0.05827">
        <ele>121.6</ele>
        <time>2023-06-20T11:08:48.580Z</time>
      </trkpt>
      <trkpt lat="46.47586" lon="0.05825">
        <ele>121.45</ele>
        <time>2023-06-20T11:09:52.926Z</time>
      </trkpt>
      <trkpt lat="46.47583" lon="0.05812">
        <ele>120.53</ele>
        <time>2023-06-20T11:10:57.273Z</time>
      </trkpt>
      <trkpt lat="46.47583" lon="0.05809">
        <ele>120.29</ele>
        <time>2023-06-20T11:12:01.621Z</time>
      </trkpt>
      <trkpt lat="46.47586" lon="0.058">
        <ele>119.53</ele>
        <time>2023-06-20T11:13:05.970Z</time>
      </trkpt>
      <trkpt lat="46.47587" lon="0.05797">
        <ele>119.24</ele>
        <time>2023-06-20T11:14:10.319Z</time>
      </trkpt>
      <trkpt lat="46.47593" lon="0.05792">
        <ele>118.46</ele>
        <time>2023-06-20T11:15:14.669Z</time>
      </trkpt>
      <trkpt lat="46.47608" lon="0.05777">
        <ele>116.18</ele>
        <time>2023-06-20T11:16:19.022Z</time>
      </trkpt>
      <trkpt lat="46.47619" lon="0.05767">
        <ele>114.55</ele>
        <time>2023-06-20T11:17:23.377Z</time>
      </trkpt>
      <trkpt lat="46.47623" lon="0.05763">
        <ele>114.05</ele>
        <time>2023-06-20T11:18:27.733Z</time>
      </trkpt>
      <trkpt lat="46.47625" lon="0.05761">
        <ele>113.76</ele>
        <time>2023-06-20T11:19:32.089Z</time>
      </trkpt>
      <trkpt lat="46.47624" lon="0.05761">
        <ele>113.6</ele>
        <time>2023-06-20T11:20:36.445Z</time>
      </trkpt>
      <trkpt lat="46.47625" lon="0.05761">
        <ele>113.6</ele>
        <time>2023-06-20T11:21:40.802Z</time>
      </trkpt>
      <trkpt lat="46.47629" lon="0.05762">
        <ele>113.21</ele>
        <time>2023-06-20T11:22:45.159Z</time>
      </trkpt>
      <trkpt lat="46.47634" lon="0.05763">
        <ele>112.86</ele>
        <time>2023-06-20T11:23:49.517Z</time>
      </trkpt>
      <trkpt lat="46.47643" lon="0.05765">
        <ele>112.66</ele>
        <time>2023-06-20T11:24:53.877Z</time>
      </trkpt>
      <trkpt lat="46.47645" lon="0.05769">
        <ele>112.58</ele>
        <time>2023-06-20T11:25:58.237Z</time>
      </trkpt>
      <trkpt lat="46.47648" lon="0.05775">
        <ele>112.51</ele>
        <time>2023-06-20T11:27:02.598Z</time>
      </trkpt>
      <trkpt lat="46.47654" lon="0.05785">
        <ele>112.45</ele>
        <time>2023-06-20T11:28:06.960Z</time>
      </trkpt>
      <trkpt lat="46.47654" lon="0.05785">
        <ele>112.45</ele>
        <time>2023-06-20T11:29:11.322Z</time>
      </trkpt>
      <trkpt lat="46.47656" lon="0.0579">
        <ele>112.45</ele>
        <time>2023-06-20T11:30:15.685Z</time>
      </trkpt>
      <trkpt lat="46.47661" lon="0.05802">
        <ele>112.49</ele>
        <time>2023-06-20T11:31:20.049Z</time>
      </trkpt>
      <trkpt lat="46.47665" lon="0.05813">
        <ele>112.59</ele>
        <time>2023-06-20T11:32:24.415Z</time>
      </trkpt>
      <trkpt lat="46.47667" lon="0.05819">
        <ele>112.67</ele>
        <time>2023-06-20T11:33:28.782Z</time>
      </trkpt>
      <trkpt lat="46.47672" lon="0.0583">
        <ele>112.91</ele>
        <time>2023-06-20T11:34:33.150Z</time>
      </trkpt>
      <trkpt lat="46.47674" lon="0.05836">
        <ele>113.07</ele>
        <time>2023-06-20T11:35:37.519Z</time>
      </trkpt>
      <trkpt lat="46.47678" lon="0.05847">
        <ele>113.49</ele>
        <time>2023-06-20T11:36:41.889Z</time>
      </trkpt>
      <trkpt lat="46.47687" lon="0.05869">
        <ele>114.4</ele>
        <time>2023-06-20T11:37:46.262Z</time>
      </trkpt>
      <trkpt lat="46.47692" lon="0.05881">
        <ele>114.79</ele>
        <time>2023-06-20T11:38:50.637Z</time>
      </trkpt>
      <trkpt lat="46.47694" lon="0.05886">
        <ele>114.95</ele>
        <time>2023-06-20T11:39:55.012Z</time>
      </trkpt>
      <trkpt lat="46.47699" lon="0.05898">
        <ele>115.21</ele>
        <time>2023-06-20T11:40:59.389Z</time>
      </trkpt>
      <trkpt lat="46.4771" lon="0.05926">
        <ele>115.68</ele>
        <time>2023-06-20T11:42:03.769Z</time>
      </trkpt>
      <trkpt lat="46.47712" lon="0.05931">
        <ele>115.79</ele>
        <time>2023-06-20T11:43:08.150Z</time>
      </trkpt>
      <trkpt lat="46.47714" lon="0.05937">
        <ele>115.92</ele>
        <time>2023-06-20T11:44:12.532Z</time>
      </trkpt>
      <trkpt lat="46.47717" lon="0.05943">
        <ele>116.08</ele>
        <time>2023-06-20T11:45:16.914Z</time>
      </trkpt>
      <trkpt lat="46.47719" lon="0.05949">
        <ele>116.28</ele>
        <time>2023-06-20T11:46:21.297Z</time>
      </trkpt>
      <trkpt lat="46.47719" lon="0.05949">
        <ele>116.28</ele>
        <time>2023-06-20T11:47:25.680Z</time>
      </trkpt>
      <trkpt lat="46.47721" lon="0.05954">
        <ele>116.52</ele>
        <time>2023-06-20T11:48:30.064Z</time>
      </trkpt>
      <trkpt lat="46.47724" lon="0.05966">
        <ele>117.09</ele>
        <time>2023-06-20T11:49:34.449Z</time>
      </trkpt>
      <trkpt lat="46.47726" lon="0.05972">
        <ele>117.41</ele>
        <time>2023-06-20T11:50:38.835Z</time>
      </trkpt>
      <trkpt lat="46.4773" lon="0.05984">
        <ele>118.11</ele>
        <time>2023-06-20T11:51:43.223Z</time>
      </trkpt>
      <trkpt lat="46.47732" lon="0.0599">
        <ele>118.5</ele>
        <time>2023-06-20T11:52:47.611Z</time>
      </trkpt>
      <trkpt lat="46.47741" lon="0.05992">
        <ele>119.25</ele>
        <time>2023-06-20T11:53:52.001Z</time>
      </trkpt>
      <trkpt lat="46.47747" lon="0.05994">
        <ele>119.76</ele>
        <time>2023-06-20T11:54:56.392Z</time>
      </trkpt>
      <trkpt lat="46.47749" lon="0.05996">
        <ele>119.98</ele>
        <time>2023-06-20T11:56:00.783Z</time>
      </trkpt>
      <trkpt lat="46.47753" lon="0.05998">
        <ele>120.3</ele>
        <time>2023-06-20T11:57:05.175Z</time>
      </trkpt>
      <trkpt lat="46.47753" lon="0.05998">
        <ele>120.3</ele>
        <time>2023-06-20T11:58:09.567Z</time>
      </trkpt>
      <trkpt lat="46.47758" lon="0.05994">
        <ele>120.59</ele>
        <time>2023-06-20T11:59:13.960Z</time>
      </trkpt>
      <trkpt lat="46.47758" lon="0.05994">
        <ele>120.59</ele>
        <time>2023-06-20T12:00:18.353Z</time>
      </trkpt>
      <trkpt lat="46.47759" lon="0.05989">
        <ele>120.84</ele>
        <time>2023-06-20T12:01:22.746Z</time>
      </trkpt>
      <trkpt lat="46.4776" lon="0.05982">
        <ele>121.05</ele>
        <time>2023-06-20T12:02:27.140Z</time>
      </trkpt>
      <trkpt lat="46.47762" lon="0.0597">
        <ele>121.37</ele>
        <time>2023-06-20T12:03:31.535Z</time>
      </trkpt>
      <trkpt lat="46.47763" lon="0.0596">
        <ele>121.52</ele>
        <time>2023-06-20T12:04:35.932Z</time>
      </trkpt>
      <trkpt lat="46.47763" lon="0.05957">
        <ele>121.57</ele>
        <time>2023-06-20T12:05:40.329Z</time>
      </trkpt>
      <trkpt lat="46.47764" lon="0.0595">
        <ele>121.64</ele>
        <time>2023-06-20T12:06:44.727Z</time>
      </trkpt>
      <trkpt lat="46.47765" lon="0.05944">
        <ele>121.69</ele>
        <time>2023-06-20T12:07:49.125Z</time>
      </trkpt>
      <trkpt lat="46.47765" lon="0.05937">
        <ele>121.71</ele>
        <time>2023-06-20T12:08:53.524Z</time>
      </trkpt>
      <trkpt lat="46.47766" lon="0.05931">
        <ele>121.72</ele>
        <time>2023-06-20T12:09:57.924Z</time>
      </trkpt>
      <trkpt lat="46.47768" lon="0.05912">
        <ele>121.69</ele>
        <time>2023-06-20T12:11:02.326Z</time>
      </trkpt>
      <trkpt lat="46.47768" lon="0.05908">
        <ele>121.69</ele>
        <time>2023-06-20T12:12:06.728Z</time>
      </trkpt>
      <trkpt lat="46.47773" lon="0.05893">
        <ele>121.7</ele>
        <time>2023-06-20T12:13:11.132Z</time>
      </trkpt>
      <trkpt lat="46.47778" lon="0.05884">
        <ele>121.72</ele>
        <time>2023-06-20T12:14:15.538Z</time>
      </trkpt>
      <trkpt lat="46.47787" lon="0.05869">
        <ele>121.67</ele>
        <time>2023-06-20T12:15:19.946Z</time>
      </trkpt>
      <trkpt lat="46.47787" lon="0.05869">
        <ele>121.67</ele>
        <time>2023-06-20T12:16:24.354Z</time>
      </trkpt>
      <trkpt lat="46.47796" lon="0.05855">
        <ele>121.07</ele>
        <time>2023-06-20T12:17:28.764Z</time>
      </trkpt>
      <trkpt lat="46.47803" lon="0.05845">
        <ele>120.63</ele>
        <time>2023-06-20T12:18:33.175Z</time>
      </trkpt>
      <trkpt lat="46.47803" lon="0.05845">
        <ele>120.63</ele>
        <time>2023-06-20T12:19:37.586Z</time>
      </trkpt>
      <trkpt lat="46.47806" lon="0.05858">
        <ele>120.08</ele>
        <time>2023-06-20T12:20:41.999Z</time>
      </trkpt>
      <trkpt lat="46.47809" lon="0.05861">
        <ele>119.89</ele>
        <time>2023-06-20T12:21:46.412Z</time>
      </trkpt>
      <trkpt lat="46.47813" lon="0.05864">
        <ele>119.62</ele>
        <time>2023-06-20T12:22:50.826Z</time>
      </trkpt>
      <trkpt lat="46.47817" lon="0.05866">
        <ele>119.37</ele>
        <time>2023-06-20T12:23:55.241Z</time>
      </trkpt>
      <trkpt lat="46.4783" lon="0.05871">
        <ele>118.51</ele>
        <time>2023-06-20T12:24:59.658Z</time>
      </trkpt>
      <trkpt lat="46.47869" lon="0.05886">
        <ele>115.7</ele>
        <time>2023-06-20T12:26:04.081Z</time>
      </trkpt>
      <trkpt lat="46.47878" lon="0.05889">
        <ele>115.11</ele>
        <time>2023-06-20T12:27:08.506Z</time>
      </trkpt>
      <trkpt lat="46.47886" lon="0.05893">
        <ele>114.59</ele>
        <time>2023-06-20T12:28:12.932Z</time>
      </trkpt>
      <trkpt lat="46.4789" lon="0.05894">
        <ele>114.38</ele>
        <time>2023-06-20T12:29:17.359Z</time>
      </trkpt>
      <trkpt lat="46.47891" lon="0.05894">
        <ele>114.38</ele>
        <time>2023-06-20T12:30:21.786Z</time>
      </trkpt>
      <trkpt lat="46.47895" lon="0.05896">
        <ele>114.2</ele>
        <time>2023-06-20T12:31:26.214Z</time>
      </trkpt>
      <trkpt lat="46.47899" lon="0.05898">
        <ele>114.06</ele>
        <time>2023-06-20T12:32:30.642Z</time>
      </trkpt>
      <trkpt lat="46.47903" lon="0.059">
        <ele>113.95</ele>
        <time>2023-06-20T12:33:35.071Z</time>
      </trkpt>
      <trkpt lat="46.47908" lon="0.05902">
        <ele>113.87</ele>
        <time>2023-06-20T12:34:39.501Z</time>
      </trkpt>
      <trkpt lat="46.47912" lon="0.05904">
        <ele>113.82</ele>
        <time>2023-06-20T12:35:43.932Z</time>
      </trkpt>
      <trkpt lat="46.4792" lon="0.05908">
        <ele>113.77</ele>
        <time>2023-06-20T12:36:48.364Z</time>
      </trkpt>
      <trkpt lat="46.47933" lon="0.05914">
        <ele>113.74</ele>
        <time>2023-06-20T12:37:52.798Z</time>
      </trkpt>
      <trkpt lat="46.47942" lon="0.05919">
        <ele>113.74</ele>
        <time>2023-06-20T12:38:57.234Z</time>
      </trkpt>
      <trkpt lat="46.47953" lon="0.05924">
        <ele>113.81</ele>
        <time>2023-06-20T12:40:01.672Z</time>
      </trkpt>
      <trkpt lat="46.47963" lon="0.05928">
        <ele>113.88</ele>
        <time>2023-06-20T12:41:06.111Z</time>
      </trkpt>
      <trkpt lat="46.4798" lon="0.05934">
        <ele>113.95</ele>
        <time>2023-06-20T12:42:10.553Z</time>
      </trkpt>
      <trkpt lat="46.47989" lon="0.05937">
        <ele>114.01</ele>
        <time>2023-06-20T12:43:14.996Z</time>
      </trkpt>
      <trkpt lat="46.47998" lon="0.05941">
        <ele>114.1</ele>
        <time>2023-06-20T12:44:19.441Z</time>
      </trkpt>
      <trkpt lat="46.48015" lon="0.05947">
        <ele>114.34</ele>
        <time>2023-06-20T12:45:23.889Z</time>
      </trkpt>
      <trkpt lat="46.48024" lon="0.0595">
        <ele>114.41</ele>
        <time>2023-06-20T12:46:28.338Z</time>
      </trkpt>
      <trkpt lat="46.48032" lon="0.05953">
        <ele>114.42</ele>
        <time>2023-06-20T12:47:32.789Z</time>
      </trkpt>
      <trkpt lat="46.48053" lon="0.05961">
        <ele>114.32</ele>
        <time>2023-06-20T12:48:37.243Z</time>
      </trkpt>
      <trkpt lat="46.48054" lon="0.05961">
        <ele>114.32</ele>
        <time>2023-06-20T12:49:41.697Z</time>
      </trkpt>
      <trkpt lat="46.48058" lon="0.05961">
        <ele>114.32</ele>
        <time>2023-06-20T12:50:46.152Z</time>
      </trkpt>
      <trkpt lat="46.48063" lon="0.05961">
        <ele>114.33</ele>
        <time>2023-06-20T12:51:50.608Z</time>
      </trkpt>
      <trkpt lat="46.48072" lon="0.05961">
        <ele>114.39</ele>
        <time>2023-06-20T12:52:55.065Z</time>
      </trkpt>
      <trkpt lat="46.48074" lon="0.05961">
        <ele>114.41</ele>
        <time>2023-06-20T12:53:59.522Z</time>
      </trkpt>
      <trkpt lat="46.48076" lon="0.05962">
        <ele>114.45</ele>
        <time>2023-06-20T12:55:03.980Z</time>
      </trkpt>
      <trkpt lat="46.48081" lon="0.05963">
        <ele>114.55</ele>
        <time>2023-06-20T12:56:08.438Z</time>
      </trkpt>
      <trkpt lat="46.48084" lon="0.05964">
        <ele>114.64</ele>
        <time>2023-06-20T12:57:12.897Z</time>
      </trkpt>
      <trkpt lat="46.48088" lon="0.05969">
        <ele>114.81</ele>
        <time>2023-06-20T12:58:17.357Z</time>
      </trkpt>
      <trkpt lat="46.4809" lon="0.05972">
        <ele>114.9</ele>
        <time>2023-06-20T12:59:21.817Z</time>
      </trkpt>
      <trkpt lat="46.48094" lon="0.05979">
        <ele>115.12</ele>
        <time>2023-06-20T13:00:26.278Z</time>
      </trkpt>
      <trkpt lat="46.48106" lon="0.05999">
        <ele>115.81</ele>
        <time>2023-06-20T13:01:30.742Z</time>
      </trkpt>
      <trkpt lat="46.48112" lon="0.06009">
        <ele>116.1</ele>
        <time>2023-06-20T13:02:35.208Z</time>
      </trkpt>
      <trkpt lat="46.4812" lon="0.06023">
        <ele>116.41</ele>
        <time>2023-06-20T13:03:39.676Z</time>
      </trkpt>
      <trkpt lat="46.48132" lon="0.06043">
        <ele>116.74</ele>
        <time>2023-06-20T13:04:44.147Z</time>
      </trkpt>
      <trkpt lat="46.48138" lon="0.06053">
        <ele>116.85</ele>
        <time>2023-06-20T13:05:48.619Z</time>
      </trkpt>
      <trkpt lat="46.48141" lon="0.06058">
        <ele>116.88</ele>
        <time>2023-06-20T13:06:53.092Z</time>
      </trkpt>
      <trkpt lat="46.48152" lon="0.06078">
        <ele>116.93</ele>
        <time>2023-06-20T13:07:57.568Z</time>
      </trkpt>
      <trkpt lat="46.48157" lon="0.06086">
        <ele>116.96</ele>
        <time>2023-06-20T13:09:02.045Z</time>
      </trkpt>
      <trkpt lat="46.48162" lon="0.0609">
        <ele>117</ele>
        <time>2023-06-20T13:10:06.523Z</time>
      </trkpt>
      <trkpt lat="46.48167" lon="0.06094">
        <ele>117</ele>
        <time>2023-06-20T13:11:11.002Z</time>
      </trkpt>
      <trkpt lat="46.48174" lon="0.06095">
        <ele>117</ele>
        <time>2023-06-20T13:12:15.482Z</time>
      </trkpt>
      <trkpt lat="46.48193" lon="0.06089">
        <ele>117</ele>
        <time>2023-06-20T13:13:19.965Z</time>
      </trkpt>
      <trkpt lat="46.48197" lon="0.06089">
        <ele>117.01</ele>
        <time>2023-06-20T13:14:24.449Z</time>
      </trkpt>
      <trkpt lat="46.48206" lon="0.0609">
        <ele>117.07</ele>
        <time>2023-06-20T13:15:28.934Z</time>
      </trkpt>
      <trkpt lat="46.48213" lon="0.0609">
        <ele>117.14</ele>
        <time>2023-06-20T13:16:33.420Z</time>
      </trkpt>
      <trkpt lat="46.48215" lon="0.0609">
        <ele>117.16</ele>
        <time>2023-06-20T13:17:37.906Z</time>
      </trkpt>
      <trkpt lat="46.48223" lon="0.06092">
        <ele>117.11</ele>
        <time>2023-06-20T13:18:42.394Z</time>
      </trkpt>
      <trkpt lat="46.48235" lon="0.06094">
        <ele>117.01</ele>
        <time>2023-06-20T13:19:46.884Z</time>
      </trkpt>
      <trkpt lat="46.48236" lon="0.06095">
        <ele>117</ele>
        <time>2023-06-20T13:20:51.374Z</time>
      </trkpt>
      <trkpt lat="46.4824" lon="0.06096">
        <ele>117</ele>
        <time>2023-06-20T13:21:55.865Z</time>
      </trkpt>
      <trkpt lat="46.48244" lon="0.06098">
        <ele>117.03</ele>
        <time>2023-06-20T13:23:00.356Z</time>
      </trkpt>
      <trkpt lat="46.48253" lon="0.06102">
        <ele>117.15</ele>
        <time>2023-06-20T13:24:04.849Z</time>
      </trkpt>
      <trkpt lat="46.48273" lon="0.06111">
        <ele>117.58</ele>
        <time>2023-06-20T13:25:09.345Z</time>
      </trkpt>
      <trkpt lat="46.48274" lon="0.06112">
        <ele>117.58</ele>
        <time>2023-06-20T13:26:13.841Z</time>
      </trkpt>
      <trkpt lat="46.48288" lon="0.06127">
        <ele>117.88</ele>
        <time>2023-06-20T13:27:18.340Z</time>
      </trkpt>
      <trkpt lat="46.48298" lon="0.06138">
        <ele>118.07</ele>
        <time>2023-06-20T13:28:22.841Z</time>
      </trkpt>
      <trkpt lat="46.48323" lon="0.06164">
        <ele>118.42</ele>
        <time>2023-06-20T13:29:27.347Z</time>
      </trkpt>
      <trkpt lat="46.4833" lon="0.06171">
        <ele>118.56</ele>
        <time>2023-06-20T13:30:31.854Z</time>
      </trkpt>
      <trkpt lat="46.48337" lon="0.06179">
        <ele>118.73</ele>
        <time>2023-06-20T13:31:36.363Z</time>
      </trkpt>
      <trkpt lat="46.48349" lon="0.06186">
        <ele>119</ele>
        <time>2023-06-20T13:32:40.874Z</time>
      </trkpt>
      <trkpt lat="46.48358" lon="0.0619">
        <ele>119.23</ele>
        <time>2023-06-20T13:33:45.386Z</time>
      </trkpt>
      <trkpt lat="46.48367" lon="0.06195">
        <ele>119.52</ele>
        <time>2023-06-20T13:34:49.900Z</time>
      </trkpt>
      <trkpt lat="46.48367" lon="0.06195">
        <ele>119.52</ele>
        <time>2023-06-20T13:35:54.414Z</time>
      </trkpt>
      <trkpt lat="46.48379" lon="0.06199">
        <ele>120.03</ele>
        <time>2023-06-20T13:36:58.930Z</time>
      </trkpt>
      <trkpt lat="46.48388" lon="0.06201">
        <ele>120.43</ele>
        <time>2023-06-20T13:38:03.447Z</time>
      </trkpt>
      <trkpt lat="46.48392" lon="0.06202">
        <ele>120.67</ele>
        <time>2023-06-20T13:39:07.965Z</time>
      </trkpt>
      <trkpt lat="46.48397" lon="0.06204">
        <ele>120.94</ele>
        <time>2023-06-20T13:40:12.484Z</time>
      </trkpt>
      <trkpt lat="46.48401" lon="0.06205">
        <ele>121.24</ele>
        <time>2023-06-20T13:41:17.003Z</time>
      </trkpt>
      <trkpt lat="46.48411" lon="0.06208">
        <ele>121.98</ele>
        <time>2023-06-20T13:42:21.524Z</time>
      </trkpt>
      <trkpt lat="46.48423" lon="0.0621">
        <ele>122.9</ele>
        <time>2023-06-20T13:43:26.047Z</time>
      </trkpt>
      <trkpt lat="46.48431" lon="0.06211">
        <ele>123.51</ele>
        <time>2023-06-20T13:44:30.571Z</time>
      </trkpt>
      <trkpt lat="46.48452" lon="0.06211">
        <ele>125.17</ele>
        <time>2023-06-20T13:45:35.099Z</time>
      </trkpt>
      <trkpt lat="46.48463" lon="0.06214">
        <ele>126.05</ele>
        <time>2023-06-20T13:46:39.628Z</time>
      </trkpt>
      <trkpt lat="46.48468" lon="0.06216">
        <ele>126.43</ele>
        <time>2023-06-20T13:47:44.158Z</time>
      </trkpt>
      <trkpt lat="46.48473" lon="0.06218">
        <ele>126.84</ele>
        <time>2023-06-20T13:48:48.689Z</time>
      </trkpt>
      <trkpt lat="46.48484" lon="0.06227">
        <ele>127.74</ele>
        <time>2023-06-20T13:49:53.222Z</time>
      </trkpt>
      <trkpt lat="46.48494" lon="0.06236">
        <ele>128.49</ele>
        <time>2023-06-20T13:50:57.757Z</time>
      </trkpt>
      <trkpt lat="46.48508" lon="0.06243">
        <ele>129.41</ele>
        <time>2023-06-20T13:52:02.294Z</time>
      </trkpt>
      <trkpt lat="46.48525" lon="0.06251">
        <ele>130.56</ele>
        <time>2023-06-20T13:53:06.834Z</time>
      </trkpt>
      <trkpt lat="46.48528" lon="0.06253">
        <ele>130.75</ele>
        <time>2023-06-20T13:54:11.375Z</time>
      </trkpt>
      <trkpt lat="46.48533" lon="0.06255">
        <ele>131.08</ele>
        <time>2023-06-20T13:55:15.917Z</time>
      </trkpt>
      <trkpt lat="46.48542" lon="0.06258">
        <ele>131.54</ele>
        <time>2023-06-20T13:56:20.460Z</time>
      </trkpt>
      <trkpt lat="46.48555" lon="0.06262">
        <ele>132.19</ele>
        <time>2023-06-20T13:57:25.005Z</time>
      </trkpt>
      <trkpt lat="46.48568" lon="0.06266">
        <ele>132.77</ele>
        <time>2023-06-20T13:58:29.552Z</time>
      </trkpt>
      <trkpt lat="46.48581" lon="0.06271">
        <ele>133.31</ele>
        <time>2023-06-20T13:59:34.102Z</time>
      </trkpt>
      <trkpt lat="46.48598" lon="0.06276">
        <ele>133.98</ele>
        <time>2023-06-20T14:00:38.654Z</time>
      </trkpt>
      <trkpt lat="46.48599" lon="0.06276">
        <ele>133.98</ele>
        <time>2023-06-20T14:01:43.206Z</time>
      </trkpt>
      <trkpt lat="46.48612" lon="0.0628">
        <ele>134.45</ele>
        <time>2023-06-20T14:02:47.761Z</time>
      </trkpt>
      <trkpt lat="46.48625" lon="0.06283">
        <ele>134.8</ele>
        <time>2023-06-20T14:03:52.318Z</time>
      </trkpt>
      <trkpt lat="46.48647" lon="0.06289">
        <ele>135.27</ele>
        <time>2023-06-20T14:04:56.878Z</time>
      </trkpt>
      <trkpt lat="46.48647" lon="0.06289">
        <ele>135.27</ele>
        <time>2023-06-20T14:06:01.438Z</time>
      </trkpt>
      <trkpt lat="46.48674" lon="0.0629">
        <ele>135.73</ele>
        <time>2023-06-20T14:07:06.003Z</time>
      </trkpt>
      <trkpt lat="46.48674" lon="0.0629">
        <ele>135.73</ele>
        <time>2023-06-20T14:08:10.568Z</time>
      </trkpt>
      <trkpt lat="46.48687" lon="0.06285">
        <ele>135.91</ele>
        <time>2023-06-20T14:09:15.135Z</time>
      </trkpt>
      <trkpt lat="46.48691" lon="0.06284">
        <ele>135.94</ele>
        <time>2023-06-20T14:10:19.702Z</time>
      </trkpt>
      <trkpt lat="46.487" lon="0.0628">
        <ele>135.96</ele>
        <time>2023-06-20T14:11:24.271Z</time>
      </trkpt>
      <trkpt lat="46.48701" lon="0.0628">
        <ele>135.95</ele>
        <time>2023-06-20T14:12:28.840Z</time>
      </trkpt>
      <trkpt lat="46.48714" lon="0.06265">
        <ele>135.93</ele>
        <time>2023-06-20T14:13:33.412Z</time>
      </trkpt>
      <trkpt lat="46.48728" lon="0.06248">
        <ele>135.99</ele>
        <time>2023-06-20T14:14:37.987Z</time>
      </trkpt>
      <trkpt lat="46.48737" lon="0.06238">
        <ele>136.09</ele>
        <time>2023-06-20T14:15:42.563Z</time>
      </trkpt>
      <trkpt lat="46.48739" lon="0.06237">
        <ele>136.11</ele>
        <time>2023-06-20T14:16:47.140Z</time>
      </trkpt>
      <trkpt lat="46.48746" lon="0.06231">
        <ele>136.13</ele>
        <time>2023-06-20T14:17:51.718Z</time>
      </trkpt>
      <trkpt lat="46.48754" lon="0.06225">
        <ele>136.18</ele>
        <time>2023-06-20T14:18:56.298Z</time>
      </trkpt>
      <trkpt lat="46.48762" lon="0.06219">
        <ele>136.3</ele>
        <time>2023-06-20T14:20:00.879Z</time>
      </trkpt>
      <trkpt lat="46.48765" lon="0.06216">
        <ele>136.36</ele>
        <time>2023-06-20T14:21:05.461Z</time>
      </trkpt>
      <trkpt lat="46.48769" lon="0.06213">
        <ele>136.45</ele>
        <time>2023-06-20T14:22:10.043Z</time>
      </trkpt>
      <trkpt lat="46.48777" lon="0.06208">
        <ele>136.64</ele>
        <time>2023-06-20T14:23:14.627Z</time>
      </trkpt>
      <trkpt lat="46.48792" lon="0.06199">
        <ele>137.03</ele>
        <time>2023-06-20T14:24:19.213Z</time>
      </trkpt>
      <trkpt lat="46.48806" lon="0.06192">
        <ele>137.39</ele>
        <time>2023-06-20T14:25:23.802Z</time>
      </trkpt>
      <trkpt lat="46.48817" lon="0.06187">
        <ele>137.69</ele>
        <time>2023-06-20T14:26:28.392Z</time>
      </trkpt>
      <trkpt lat="46.48827" lon="0.06184">
        <ele>137.95</ele>
        <time>2023-06-20T14:27:32.984Z</time>
      </trkpt>
      <trkpt lat="46.48839" lon="0.0618">
        <ele>138.31</ele>
        <time>2023-06-20T14:28:37.578Z</time>
      </trkpt>
      <trkpt lat="46.48844" lon="0.06178">
        <ele>138.47</ele>
        <time>2023-06-20T14:29:42.173Z</time>
      </trkpt>
      <trkpt lat="46.48852" lon="0.06172">
        <ele>138.76</ele>
        <time>2023-06-20T14:30:46.769Z</time>
      </trkpt>
      <trkpt lat="46.48855" lon="0.0617">
        <ele>138.89</ele>
        <time>2023-06-20T14:31:51.366Z</time>
      </trkpt>
      <trkpt lat="46.48856" lon="0.06169">
        <ele>138.89</ele>
        <time>2023-06-20T14:32:55.963Z</time>
      </trkpt>
      <trkpt lat="46.48874" lon="0.06152">
        <ele>139.4</ele>
        <time>2023-06-20T14:34:00.564Z</time>
      </trkpt>
      <trkpt lat="46.48878" lon="0.06148">
        <ele>139.52</ele>
        <time>2023-06-20T14:35:05.165Z</time>
      </trkpt>
      <trkpt lat="46.48889" lon="0.06137">
        <ele>139.98</ele>
        <time>2023-06-20T14:36:09.768Z</time>
      </trkpt>
      <trkpt lat="46.48904" lon="0.06123">
        <ele>140.51</ele>
        <time>2023-06-20T14:37:14.374Z</time>
      </trkpt>
      <trkpt lat="46.48908" lon="0.06119">
        <ele>140.63</ele>
        <time>2023-06-20T14:38:18.981Z</time>
      </trkpt>
      <trkpt lat="46.48919" lon="0.06109">
        <ele>140.93</ele>
        <time>2023-06-20T14:39:23.590Z</time>
      </trkpt>
      <trkpt lat="46.48927" lon="0.06101">
        <ele>141.16</ele>
        <time>2023-06-20T14:40:28.201Z</time>
      </trkpt>
      <trkpt lat="46.48927" lon="0.06101">
        <ele>141.16</ele>
        <time>2023-06-20T14:41:32.812Z</time>
      </trkpt>
      <trkpt lat="46.48934" lon="0.06095">
        <ele>141.42</ele>
        <time>2023-06-20T14:42:37.424Z</time>
      </trkpt>
      <trkpt lat="46.48946" lon="0.06085">
        <ele>141.86</ele>
        <time>2023-06-20T14:43:42.038Z</time>
      </trkpt>
      <trkpt lat="46.48953" lon="0.06078">
        <ele>142.12</ele>
        <time>2023-06-20T14:44:46.654Z</time>
      </trkpt>
      <trkpt lat="46.48961" lon="0.06071">
        <ele>142.33</ele>
        <time>2023-06-20T14:45:51.271Z</time>
      </trkpt>
      <trkpt lat="46.48965" lon="0.06068">
        <ele>142.41</ele>
        <time>2023-06-20T14:46:55.889Z</time>
      </trkpt>
      <trkpt lat="46.48972" lon="0.06061">
        <ele>142.49</ele>
        <time>2023-06-20T14:48:00.508Z</time>
      </trkpt>
      <trkpt lat="46.4898" lon="0.06054">
        <ele>142.51</ele>
        <time>2023-06-20T14:49:05.129Z</time>
      </trkpt>
      <trkpt lat="46.48984" lon="0.06051">
        <ele>142.5</ele>
        <time>2023-06-20T14:50:09.750Z</time>
      </trkpt>
      <trkpt lat="46.48991" lon="0.06044">
        <ele>142.42</ele>
        <time>2023-06-20T14:51:14.373Z</time>
      </trkpt>
      <trkpt lat="46.49007" lon="0.0603">
        <ele>142.13</ele>
        <time>2023-06-20T14:52:18.999Z</time>
      </trkpt>
      <trkpt lat="46.49018" lon="0.0602">
        <ele>141.95</ele>
        <time>2023-06-20T14:53:23.627Z</time>
      </trkpt>
      <trkpt lat="46.49025" lon="0.06014">
        <ele>141.87</ele>
        <time>2023-06-20T14:54:28.256Z</time>
      </trkpt>
      <trkpt lat="46.49025" lon="0.06013">
        <ele>141.87</ele>
        <time>2023-06-20T14:55:32.885Z</time>
      </trkpt>
      <trkpt lat="46.49024" lon="0.06006">
        <ele>141.85</ele>
        <time>2023-06-20T14:56:37.515Z</time>
      </trkpt>
      <trkpt lat="46.49023" lon="0.06">
        <ele>141.86</ele>
        <time>2023-06-20T14:57:42.146Z</time>
      </trkpt>
      <trkpt lat="46.49023" lon="0.05998">
        <ele>141.86</ele>
        <time>2023-06-20T14:58:46.777Z</time>
      </trkpt>
      <trkpt lat="46.49024" lon="0.05987">
        <ele>141.92</ele>
        <time>2023-06-20T14:59:51.409Z</time>
      </trkpt>
      <trkpt lat="46.49025" lon="0.05974">
        <ele>142.02</ele>
        <time>2023-06-20T15:00:56.043Z</time>
      </trkpt>
      <trkpt lat="46.49027" lon="0.05962">
        <ele>142.16</ele>
        <time>2023-06-20T15:02:00.678Z</time>
      </trkpt>
      <trkpt lat="46.49027" lon="0.05955">
        <ele>142.25</ele>
        <time>2023-06-20T15:03:05.314Z</time>
      </trkpt>
      <trkpt lat="46.49028" lon="0.05949">
        <ele>142.37</ele>
        <time>2023-06-20T15:04:09.950Z</time>
      </trkpt>
      <trkpt lat="46.49029" lon="0.05936">
        <ele>142.66</ele>
        <time>2023-06-20T15:05:14.588Z</time>
      </trkpt>
      <trkpt lat="46.4903" lon="0.05923">
        <ele>142.99</ele>
        <time>2023-06-20T15:06:19.227Z</time>
      </trkpt>
      <trkpt lat="46.49032" lon="0.0591">
        <ele>143.37</ele>
        <time>2023-06-20T15:07:23.868Z</time>
      </trkpt>
      <trkpt lat="46.49032" lon="0.05908">
        <ele>143.43</ele>
        <time>2023-06-20T15:08:28.509Z</time>
      </trkpt>
      <trkpt lat="46.49038" lon="0.05879">
        <ele>144.37</ele>
        <time>2023-06-20T15:09:33.153Z</time>
      </trkpt>
      <trkpt lat="46.49039" lon="0.05873">
        <ele>144.55</ele>
        <time>2023-06-20T15:10:37.798Z</time>
      </trkpt>
      <trkpt lat="46.49045" lon="0.05848">
        <ele>145.11</ele>
        <time>2023-06-20T15:11:42.446Z</time>
      </trkpt>
      <trkpt lat="46.49049" lon="0.05829">
        <ele>145.58</ele>
        <time>2023-06-20T15:12:47.096Z</time>
      </trkpt>
      <trkpt lat="46.4905" lon="0.05823">
        <ele>145.71</ele>
        <time>2023-06-20T15:13:51.747Z</time>
      </trkpt>
      <trkpt lat="46.49052" lon="0.05811">
        <ele>145.87</ele>
        <time>2023-06-20T15:14:56.399Z</time>
      </trkpt>
      <trkpt lat="46.49053" lon="0.05808">
        <ele>145.89</ele>
        <time>2023-06-20T15:16:01.051Z</time>
      </trkpt>
      <trkpt lat="46.49055" lon="0.05785">
        <ele>146.1</ele>
        <time>2023-06-20T15:17:05.706Z</time>
      </trkpt>
      <trkpt lat="46.49056" lon="0.05769">
        <ele>146.21</ele>
        <time>2023-06-20T15:18:10.363Z</time>
      </trkpt>
      <trkpt lat="46.49054" lon="0.05759">
        <ele>146.28</ele>
        <time>2023-06-20T15:19:15.021Z</time>
      </trkpt>
      <trkpt lat="46.49053" lon="0.05751">
        <ele>146.31</ele>
        <time>2023-06-20T15:20:19.680Z</time>
      </trkpt>
      <trkpt lat="46.49052" lon="0.05747">
        <ele>146.34</ele>
        <time>2023-06-20T15:21:24.339Z</time>
      </trkpt>
      <trkpt lat="46.49047" lon="0.05733">
        <ele>146.37</ele>
        <time>2023-06-20T15:22:29.000Z</time>
      </trkpt>
      <trkpt lat="46.49043" lon="0.05724">
        <ele>146.39</ele>
        <time>2023-06-20T15:23:33.662Z</time>
      </trkpt>
      <trkpt lat="46.49041" lon="0.05719">
        <ele>146.45</ele>
        <time>2023-06-20T15:24:38.325Z</time>
      </trkpt>
      <trkpt lat="46.49036" lon="0.05707">
        <ele>146.61</ele>
        <time>2023-06-20T15:25:42.989Z</time>
      </trkpt>
      <trkpt lat="46.49031" lon="0.05695">
        <ele>146.85</ele>
        <time>2023-06-20T15:26:47.655Z</time>
      </trkpt>
      <trkpt lat="46.49027" lon="0.05678">
        <ele>147.15</ele>
        <time>2023-06-20T15:27:52.323Z</time>
      </trkpt>
      <trkpt lat="46.49024" lon="0.05666">
        <ele>147.29</ele>
        <time>2023-06-20T15:28:56.992Z</time>
      </trkpt>
      <trkpt lat="46.49023" lon="0.05659">
        <ele>147.32</ele>
        <time>2023-06-20T15:30:01.662Z</time>
      </trkpt>
      <trkpt lat="46.49023" lon="0.05659">
        <ele>147.32</ele>
        <time>2023-06-20T15:31:06.332Z</time>
      </trkpt>
      <trkpt lat="46.49026" lon="0.05654">
        <ele>147.31</ele>
        <time>2023-06-20T15:32:11.003Z</time>
      </trkpt>
      <trkpt lat="46.49037" lon="0.05635">
        <ele>147.22</ele>
        <time>2023-06-20T15:33:15.677Z</time>
      </trkpt>
      <trkpt lat="46.4906" lon="0.05595">
        <ele>147.2</ele>
        <time>2023-06-20T15:34:20.356Z</time>
      </trkpt>
      <trkpt lat="46.49072" lon="0.05575">
        <ele>147.12</ele>
        <time>2023-06-20T15:35:25.038Z</time>
      </trkpt>
      <trkpt lat="46.49072" lon="0.05575">
        <ele>147.12</ele>
        <time>2023-06-20T15:36:29.720Z</time>
      </trkpt>
      <trkpt lat="46.49074" lon="0.0557">
        <ele>147.12</ele>
        <time>2023-06-20T15:37:34.403Z</time>
      </trkpt>
      <trkpt lat="46.49085" lon="0.05549">
        <ele>147.22</ele>
        <time>2023-06-20T15:38:39.089Z</time>
      </trkpt>
      <trkpt lat="46.49087" lon="0.05543">
        <ele>147.22</ele>
        <time>2023-06-20T15:39:43.776Z</time>
      </trkpt>
      <trkpt lat="46.49092" lon="0.05533">
        <ele>147.19</ele>
        <time>2023-06-20T15:40:48.464Z</time>
      </trkpt>
      <trkpt lat="46.49095" lon="0.0552">
        <ele>147.17</ele>
        <time>2023-06-20T15:41:53.154Z</time>
      </trkpt>
      <trkpt lat="46.49099" lon="0.05502">
        <ele>147.2</ele>
        <time>2023-06-20T15:42:57.846Z</time>
      </trkpt>
      <trkpt lat="46.49099" lon="0.05501">
        <ele>147.2</ele>
        <time>2023-06-20T15:44:02.538Z</time>
      </trkpt>
      <trkpt lat="46.49102" lon="0.05476">
        <ele>147.42</ele>
        <time>2023-06-20T15:45:07.233Z</time>
      </trkpt>
      <trkpt lat="46.49103" lon="0.05463">
        <ele>147.51</ele>
        <time>2023-06-20T15:46:11.929Z</time>
      </trkpt>
      <trkpt lat="46.49107" lon="0.05425">
        <ele>147.57</ele>
        <time>2023-06-20T15:47:16.629Z</time>
      </trkpt>
      <trkpt lat="46.49113" lon="0.05361">
        <ele>147.88</ele>
        <time>2023-06-20T15:48:21.336Z</time>
      </trkpt>
      <trkpt lat="46.49114" lon="0.05348">
        <ele>147.99</ele>
        <time>2023-06-20T15:49:26.045Z</time>
      </trkpt>
      <trkpt lat="46.49115" lon="0.05341">
        <ele>148.06</ele>
        <time>2023-06-20T15:50:30.755Z</time>
      </trkpt>
      <trkpt lat="46.49115" lon="0.05339">
        <ele>148.09</ele>
        <time>2023-06-20T15:51:35.465Z</time>
      </trkpt>
      <trkpt lat="46.49119" lon="0.05323">
        <ele>148.33</ele>
        <time>2023-06-20T15:52:40.177Z</time>
      </trkpt>
      <trkpt lat="46.49122" lon="0.05311">
        <ele>148.48</ele>
        <time>2023-06-20T15:53:44.890Z</time>
      </trkpt>
      <trkpt lat="46.49123" lon="0.05305">
        <ele>148.51</ele>
        <time>2023-06-20T15:54:49.604Z</time>
      </trkpt>
      <trkpt lat="46.49128" lon="0.05266">
        <ele>148.78</ele>
        <time>2023-06-20T15:55:54.322Z</time>
      </trkpt>
      <trkpt lat="46.4913" lon="0.05251">
        <ele>148.84</ele>
        <time>2023-06-20T15:56:59.042Z</time>
      </trkpt>
      <trkpt lat="46.4913" lon="0.05241">
        <ele>148.89</ele>
        <time>2023-06-20T15:58:03.763Z</time>
      </trkpt>
      <trkpt lat="46.49129" lon="0.05229">
        <ele>148.97</ele>
        <time>2023-06-20T15:59:08.485Z</time>
      </trkpt>
      <trkpt lat="46.49128" lon="0.05221">
        <ele>149.03</ele>
        <time>2023-06-20T16:00:13.208Z</time>
      </trkpt>
      <trkpt lat="46.49125" lon="0.05208">
        <ele>149.18</ele>
        <time>2023-06-20T16:01:17.933Z</time>
      </trkpt>
      <trkpt lat="46.49126" lon="0.05203">
        <ele>149.25</ele>
        <time>2023-06-20T16:02:22.658Z</time>
      </trkpt>
      <trkpt lat="46.49127" lon="0.05189">
        <ele>149.44</ele>
        <time>2023-06-20T16:03:27.385Z</time>
      </trkpt>
      <trkpt lat="46.49129" lon="0.05184">
        <ele>149.52</ele>
        <time>2023-06-20T16:04:32.112Z</time>
      </trkpt>
      <trkpt lat="46.49137" lon="0.05161">
        <ele>149.75</ele>
        <time>2023-06-20T16:05:36.842Z</time>
      </trkpt>
      <trkpt lat="46.49141" lon="0.05149">
        <ele>149.89</ele>
        <time>2023-06-20T16:06:41.574Z</time>
      </trkpt>
      <trkpt lat="46.49147" lon="0.05132">
        <ele>150.14</ele>
        <time>2023-06-20T16:07:46.308Z</time>
      </trkpt>
      <trkpt lat="46.49147" lon="0.05132">
        <ele>150.14</ele>
        <time>2023-06-20T16:08:51.042Z</time>
      </trkpt>
      <trkpt lat="46.49153" lon="0.05123">
        <ele>150.34</ele>
        <time>2023-06-20T16:09:55.777Z</time>
      </trkpt>
      <trkpt lat="46.49163" lon="0.05109">
        <ele>150.75</ele>
        <time>2023-06-20T16:11:00.514Z</time>
      </trkpt>
      <trkpt lat="46.49184" lon="0.05078">
        <ele>151.81</ele>
        <time>2023-06-20T16:12:05.256Z</time>
      </trkpt>
      <trkpt lat="46.49185" lon="0.0508">
        <ele>151.87</ele>
        <time>2023-06-20T16:13:09.999Z</time>
      </trkpt>
      <trkpt lat="46.4919" lon="0.05098">
        <ele>152.31</ele>
        <time>2023-06-20T16:14:14.744Z</time>
      </trkpt>
      <trkpt lat="46.49194" lon="0.05109">
        <ele>152.57</ele>
        <time>2023-06-20T16:15:19.490Z</time>
      </trkpt>
      <trkpt lat="46.49198" lon="0.05122">
        <ele>152.8</ele>
        <time>2023-06-20T16:16:24.238Z</time>
      </trkpt>
      <trkpt lat="46.49198" lon="0.05122">
        <ele>152.8</ele>
        <time>2023-06-20T16:17:28.986Z</time>
      </trkpt>
      <trkpt lat="46.49202" lon="0.05132">
        <ele>152.98</ele>
        <time>2023-06-20T16:18:33.735Z</time>
      </trkpt>
      <trkpt lat="46.49205" lon="0.05138">
        <ele>153.05</ele>
        <time>2023-06-20T16:19:38.485Z</time>
      </trkpt>
      <trkpt lat="46.49209" lon="0.05149">
        <ele>153.14</ele>
        <time>2023-06-20T16:20:43.236Z</time>
      </trkpt>
      <trkpt lat="46.4921" lon="0.0515">
        <ele>153.14</ele>
        <time>2023-06-20T16:21:47.987Z</time>
      </trkpt>
      <trkpt lat="46.49216" lon="0.05157">
        <ele>153.16</ele>
        <time>2023-06-20T16:22:52.740Z</time>
      </trkpt>
      <trkpt lat="46.49223" lon="0.05166">
        <ele>153.15</ele>
        <time>2023-06-20T16:23:57.494Z</time>
      </trkpt>
      <trkpt lat="46.49224" lon="0.05167">
        <ele>153.14</ele>
        <time>2023-06-20T16:25:02.248Z</time>
      </trkpt>
      <trkpt lat="46.49231" lon="0.0517">
        <ele>153.08</ele>
        <time>2023-06-20T16:26:07.003Z</time>
      </trkpt>
      <trkpt lat="46.49236" lon="0.05172">
        <ele>153.02</ele>
        <time>2023-06-20T16:27:11.759Z</time>
      </trkpt>
      <trkpt lat="46.49244" lon="0.05176">
        <ele>152.82</ele>
        <time>2023-06-20T16:28:16.517Z</time>
      </trkpt>
      <trkpt lat="46.49257" lon="0.05182">
        <ele>152.4</ele>
        <time>2023-06-20T16:29:21.277Z</time>
      </trkpt>
      <trkpt lat="46.49266" lon="0.05186">
        <ele>152.15</ele>
        <time>2023-06-20T16:30:26.038Z</time>
      </trkpt>
      <trkpt lat="46.49295" lon="0.052">
        <ele>151.46</ele>
        <time>2023-06-20T16:31:30.804Z</time>
      </trkpt>
      <trkpt lat="46.49308" lon="0.05206">
        <ele>151.07</ele>
        <time>2023-06-20T16:32:35.572Z</time>
      </trkpt>
      <trkpt lat="46.49317" lon="0.05209">
        <ele>150.92</ele>
        <time>2023-06-20T16:33:40.342Z</time>
      </trkpt>
      <trkpt lat="46.49325" lon="0.05213">
        <ele>150.8</ele>
        <time>2023-06-20T16:34:45.113Z</time>
      </trkpt>
      <trkpt lat="46.49331" lon="0.05216">
        <ele>150.73</ele>
        <time>2023-06-20T16:35:49.885Z</time>
      </trkpt>
      <trkpt lat="46.49338" lon="0.0522">
        <ele>150.66</ele>
        <time>2023-06-20T16:36:54.658Z</time>
      </trkpt>
      <trkpt lat="46.49356" lon="0.05229">
        <ele>150.52</ele>
        <time>2023-06-20T16:37:59.434Z</time>
      </trkpt>
      <trkpt lat="46.49359" lon="0.05231">
        <ele>150.5</ele>
        <time>2023-06-20T16:39:04.211Z</time>
      </trkpt>
      <trkpt lat="46.49383" lon="0.05248">
        <ele>150.38</ele>
        <time>2023-06-20T16:40:08.992Z</time>
      </trkpt>
      <trkpt lat="46.49412" lon="0.05267">
        <ele>150.16</ele>
        <time>2023-06-20T16:41:13.778Z</time>
      </trkpt>
      <trkpt lat="46.49419" lon="0.05272">
        <ele>150.06</ele>
        <time>2023-06-20T16:42:18.566Z</time>
      </trkpt>
      <trkpt lat="46.4942" lon="0.05273">
        <ele>150.06</ele>
        <time>2023-06-20T16:43:23.354Z</time>
      </trkpt>
      <trkpt lat="46.49435" lon="0.05289">
        <ele>149.81</ele>
        <time>2023-06-20T16:44:28.145Z</time>
      </trkpt>
      <trkpt lat="46.4944" lon="0.05298">
        <ele>149.71</ele>
        <time>2023-06-20T16:45:32.937Z</time>
      </trkpt>
      <trkpt lat="46.49441" lon="0.05301">
        <ele>149.68</ele>
        <time>2023-06-20T16:46:37.729Z</time>
      </trkpt>
      <trkpt lat="46.49444" lon="0.05316">
        <ele>149.57</ele>
        <time>2023-06-20T16:47:42.523Z</time>
      </trkpt>
      <trkpt lat="46.49445" lon="0.0532">
        <ele>149.55</ele>
        <time>2023-06-20T16:48:47.318Z</time>
      </trkpt>
      <trkpt lat="46.49445" lon="0.05329">
        <ele>149.53</ele>
        <time>2023-06-20T16:49:52.114Z</time>
      </trkpt>
      <trkpt lat="46.49445" lon="0.0534">
        <ele>149.51</ele>
        <time>2023-06-20T16:50:56.911Z</time>
      </trkpt>
      <trkpt lat="46.49443" lon="0.05348">
        <ele>149.5</ele>
        <time>2023-06-20T16:52:01.709Z</time>
      </trkpt>
      <trkpt lat="46.49442" lon="0.05355">
        <ele>149.47</ele>
        <time>2023-06-20T16:53:06.508Z</time>
      </trkpt>
      <trkpt lat="46.49435" lon="0.0537">
        <ele>149.42</ele>
        <time>2023-06-20T16:54:11.309Z</time>
      </trkpt>
      <trkpt lat="46.4943" lon="0.05381">
        <ele>149.36</ele>
        <time>2023-06-20T16:55:16.111Z</time>
      </trkpt>
      <trkpt lat="46.49424" lon="0.05392">
        <ele>149.27</ele>
        <time>2023-06-20T16:56:20.914Z</time>
      </trkpt>
      <trkpt lat="46.49422" lon="0.05397">
        <ele>149.2</ele>
        <time>2023-06-20T16:57:25.718Z</time>
      </trkpt>
      <trkpt lat="46.49419" lon="0.05403">
        <ele>149.1</ele>
        <time>2023-06-20T16:58:30.523Z</time>
      </trkpt>
      <trkpt lat="46.49414" lon="0.05413">
        <ele>148.84</ele>
        <time>2023-06-20T16:59:35.329Z</time>
      </trkpt>
      <trkpt lat="46.49407" lon="0.05429">
        <ele>148.33</ele>
        <time>2023-06-20T17:00:40.137Z</time>
      </trkpt>
      <trkpt lat="46.49403" lon="0.05437">
        <ele>148.03</ele>
        <time>2023-06-20T17:01:44.947Z</time>
      </trkpt>
      <trkpt lat="46.49403" lon="0.05441">
        <ele>147.93</ele>
        <time>2023-06-20T17:02:49.757Z</time>
      </trkpt>
      <trkpt lat="46.49403" lon="0.05447">
        <ele>147.7</ele>
        <time>2023-06-20T17:03:54.568Z</time>
      </trkpt>
      <trkpt lat="46.49403" lon="0.05455">
        <ele>147.37</ele>
        <time>2023-06-20T17:04:59.380Z</time>
      </trkpt>
      <trkpt lat="46.49405" lon="0.05459">
        <ele>147.17</ele>
        <time>2023-06-20T17:06:04.192Z</time>
      </trkpt>
      <trkpt lat="46.49409" lon="0.05471">
        <ele>146.58</ele>
        <time>2023-06-20T17:07:09.006Z</time>
      </trkpt>
      <trkpt lat="46.49414" lon="0.05482">
        <ele>145.93</ele>
        <time>2023-06-20T17:08:13.821Z</time>
      </trkpt>
      <trkpt lat="46.49418" lon="0.05493">
        <ele>145.18</ele>
        <time>2023-06-20T17:09:18.637Z</time>
      </trkpt>
      <trkpt lat="46.49419" lon="0.05495">
        <ele>145.03</ele>
        <time>2023-06-20T17:10:23.454Z</time>
      </trkpt>
      <trkpt lat="46.49423" lon="0.05504">
        <ele>144.32</ele>
        <time>2023-06-20T17:11:28.272Z</time>
      </trkpt>
      <trkpt lat="46.49428" lon="0.05515">
        <ele>143.34</ele>
        <time>2023-06-20T17:12:33.091Z</time>
      </trkpt>
      <trkpt lat="46.49431" lon="0.0552">
        <ele>142.77</ele>
        <time>2023-06-20T17:13:37.911Z</time>
      </trkpt>
      <trkpt lat="46.49433" lon="0.05526">
        <ele>142.14</ele>
        <time>2023-06-20T17:14:42.732Z</time>
      </trkpt>
      <trkpt lat="46.49436" lon="0.05531">
        <ele>141.43</ele>
        <time>2023-06-20T17:15:47.553Z</time>
      </trkpt>
      <trkpt lat="46.49438" lon="0.05536">
        <ele>140.64</ele>
        <time>2023-06-20T17:16:52.375Z</time>
      </trkpt>
      <trkpt lat="46.4944" lon="0.0554">
        <ele>140.06</ele>
        <time>2023-06-20T17:17:57.198Z</time>
      </trkpt>
      <trkpt lat="46.49441" lon="0.05542">
        <ele>139.81</ele>
        <time>2023-06-20T17:19:02.021Z</time>
      </trkpt>
      <trkpt lat="46.49446" lon="0.05552">
        <ele>138.01</ele>
        <time>2023-06-20T17:20:06.845Z</time>
      </trkpt>
      <trkpt lat="46.49454" lon="0.05567">
        <ele>135.11</ele>
        <time>2023-06-20T17:21:11.671Z</time>
      </trkpt>
      <trkpt lat="46.49457" lon="0.05573">
        <ele>134.21</ele>
        <time>2023-06-20T17:22:16.498Z</time>
      </trkpt>
      <trkpt lat="46.4946" lon="0.05578">
        <ele>133.36</ele>
        <time>2023-06-20T17:23:21.326Z</time>
      </trkpt>
      <trkpt lat="46.49471" lon="0.05598">
        <ele>130.13</ele>
        <time>2023-06-20T17:24:26.157Z</time>
      </trkpt>
      <trkpt lat="46.49476" lon="0.05608">
        <ele>128.78</ele>
        <time>2023-06-20T17:25:30.989Z</time>
      </trkpt>
      <trkpt lat="46.49478" lon="0.05613">
        <ele>128.13</ele>
        <time>2023-06-20T17:26:35.822Z</time>
      </trkpt>
      <trkpt lat="46.49481" lon="0.05618">
        <ele>127.51</ele>
        <time>2023-06-20T17:27:40.656Z</time>
      </trkpt>
      <trkpt lat="46.49486" lon="0.05628">
        <ele>126.34</ele>
        <time>2023-06-20T17:28:45.491Z</time>
      </trkpt>
      <trkpt lat="46.49497" lon="0.05648">
        <ele>124.19</ele>
        <time>2023-06-20T17:29:50.329Z</time>
      </trkpt>
      <trkpt lat="46.49506" lon="0.05666">
        <ele>122.44</ele>
        <time>2023-06-20T17:30:55.169Z</time>
      </trkpt>
      <trkpt lat="46.49507" lon="0.05668">
        <ele>122.26</ele>
        <time>2023-06-20T17:32:00.009Z</time>
      </trkpt>
      <trkpt lat="46.49512" lon="0.05686">
        <ele>122.64</ele>
        <time>2023-06-20T17:33:04.851Z</time>
      </trkpt>
      <trkpt lat="46.49515" lon="0.05698">
        <ele>122.95</ele>
        <time>2023-06-20T17:34:09.695Z</time>
      </trkpt>
      <trkpt lat="46.49517" lon="0.05704">
        <ele>123.13</ele>
        <time>2023-06-20T17:35:14.540Z</time>
      </trkpt>
      <trkpt lat="46.49517" lon="0.05705">
        <ele>123.17</ele>
        <time>2023-06-20T17:36:19.385Z</time>
      </trkpt>
      <trkpt lat="46.4952" lon="0.05722">
        <ele>123.74</ele>
        <time>2023-06-20T17:37:24.232Z</time>
      </trkpt>
      <trkpt lat="46.49525" lon="0.05746">
        <ele>124.51</ele>
        <time>2023-06-20T17:38:29.082Z</time>
      </trkpt>
      <trkpt lat="46.49526" lon="0.0575">
        <ele>124.62</ele>
        <time>2023-06-20T17:39:33.932Z</time>
      </trkpt>
      <trkpt lat="46.49532" lon="0.0577">
        <ele>125.32</ele>
        <time>2023-06-20T17:40:38.784Z</time>
      </trkpt>
      <trkpt lat="46.49536" lon="0.05785">
        <ele>126.14</ele>
        <time>2023-06-20T17:41:43.638Z</time>
      </trkpt>
      <trkpt lat="46.49537" lon="0.05788">
        <ele>126.32</ele>
        <time>2023-06-20T17:42:48.493Z</time>
      </trkpt>
      <trkpt lat="46.49543" lon="0.05805">
        <ele>127.28</ele>
        <time>2023-06-20T17:43:53.350Z</time>
      </trkpt>
      <trkpt lat="46.49547" lon="0.05817">
        <ele>127.96</ele>
        <time>2023-06-20T17:44:58.208Z</time>
      </trkpt>
      <trkpt lat="46.49549" lon="0.05823">
        <ele>128.33</ele>
        <time>2023-06-20T17:46:03.067Z</time>
      </trkpt>
      <trkpt lat="46.49557" lon="0.05845">
        <ele>129.88</ele>
        <time>2023-06-20T17:47:07.929Z</time>
      </trkpt>
      <trkpt lat="46.49557" lon="0.05846">
        <ele>129.88</ele>
        <time>2023-06-20T17:48:12.791Z</time>
      </trkpt>
      <trkpt lat="46.49575" lon="0.05903">
        <ele>133.49</ele>
        <time>2023-06-20T17:49:17.660Z</time>
      </trkpt>
      <trkpt lat="46.49584" lon="0.05942">
        <ele>135.88</ele>
        <time>2023-06-20T17:50:22.533Z</time>
      </trkpt>
      <trkpt lat="46.49585" lon="0.05949">
        <ele>136.28</ele>
        <time>2023-06-20T17:51:27.407Z</time>
      </trkpt>
      <trkpt lat="46.49588" lon="0.05961">
        <ele>137.14</ele>
        <time>2023-06-20T17:52:32.282Z</time>
      </trkpt>
      <trkpt lat="46.49589" lon="0.05967">
        <ele>137.56</ele>
        <time>2023-06-20T17:53:37.158Z</time>
      </trkpt>
      <trkpt lat="46.49591" lon="0.0598">
        <ele>138.35</ele>
        <time>2023-06-20T17:54:42.035Z</time>
      </trkpt>
      <trkpt lat="46.49592" lon="0.05993">
        <ele>139.07</ele>
        <time>2023-06-20T17:55:46.914Z</time>
      </trkpt>
      <trkpt lat="46.49594" lon="0.06006">
        <ele>139.74</ele>
        <time>2023-06-20T17:56:51.794Z</time>
      </trkpt>
      <trkpt lat="46.49596" lon="0.06025">
        <ele>140.91</ele>
        <time>2023-06-20T17:57:56.677Z</time>
      </trkpt>
      <trkpt lat="46.49602" lon="0.06063">
        <ele>143.4</ele>
        <time>2023-06-20T17:59:01.564Z</time>
      </trkpt>
      <trkpt lat="46.49602" lon="0.06066">
        <ele>143.6</ele>
        <time>2023-06-20T18:00:06.451Z</time>
      </trkpt>
      <trkpt lat="46.49605" lon="0.06082">
        <ele>144.74</ele>
        <time>2023-06-20T18:01:11.340Z</time>
      </trkpt>
      <trkpt lat="46.4961" lon="0.06105">
        <ele>146.46</ele>
        <time>2023-06-20T18:02:16.232Z</time>
      </trkpt>
      <trkpt lat="46.49612" lon="0.06112">
        <ele>147.06</ele>
        <time>2023-06-20T18:03:21.125Z</time>
      </trkpt>
      <trkpt lat="46.49618" lon="0.0613">
        <ele>148.4</ele>
        <time>2023-06-20T18:04:26.020Z</time>
      </trkpt>
      <trkpt lat="46.49621" lon="0.06139">
        <ele>149.04</ele>
        <time>2023-06-20T18:05:30.916Z</time>
      </trkpt>
      <trkpt lat="46.49622" lon="0.06142">
        <ele>149.26</ele>
        <time>2023-06-20T18:06:35.812Z</time>
      </trkpt>
      <trkpt lat="46.49625" lon="0.06154">
        <ele>150.07</ele>
        <time>2023-06-20T18:07:40.710Z</time>
      </trkpt>
      <trkpt lat="46.49626" lon="0.06161">
        <ele>150.45</ele>
        <time>2023-06-20T18:08:45.608Z</time>
      </trkpt>
      <trkpt lat="46.49629" lon="0.06173">
        <ele>151.15</ele>
        <time>2023-06-20T18:09:50.508Z</time>
      </trkpt>
      <trkpt lat="46.49636" lon="0.06204">
        <ele>152.75</ele>
        <time>2023-06-20T18:10:55.411Z</time>
      </trkpt>
      <trkpt lat="46.49639" lon="0.06216">
        <ele>153.34</ele>
        <time>2023-06-20T18:12:00.316Z</time>
      </trkpt>
      <trkpt lat="46.4964" lon="0.06222">
        <ele>153.61</ele>
        <time>2023-06-20T18:13:05.222Z</time>
      </trkpt>
      <trkpt lat="46.49642" lon="0.06229">
        <ele>153.85</ele>
        <time>2023-06-20T18:14:10.128Z</time>
      </trkpt>
      <trkpt lat="46.49644" lon="0.06241">
        <ele>154.29</ele>
        <time>2023-06-20T18:15:15.036Z</time>
      </trkpt>
      <trkpt lat="46.49647" lon="0.06253">
        <ele>154.52</ele>
        <time>2023-06-20T18:16:19.945Z</time>
      </trkpt>
      <trkpt lat="46.49649" lon="0.06259">
        <ele>154.61</ele>
        <time>2023-06-20T18:17:24.855Z</time>
      </trkpt>
      <trkpt lat="46.49653" lon="0.06278">
        <ele>154.8</ele>
        <time>2023-06-20T18:18:29.767Z</time>
      </trkpt>
      <trkpt lat="46.49654" lon="0.06283">
        <ele>154.84</ele>
        <time>2023-06-20T18:19:34.680Z</time>
      </trkpt>
      <trkpt lat="46.49658" lon="0.0631">
        <ele>155.07</ele>
        <time>2023-06-20T18:20:39.596Z</time>
      </trkpt>
      <trkpt lat="46.49659" lon="0.06322">
        <ele>155.11</ele>
        <time>2023-06-20T18:21:44.513Z</time>
      </trkpt>
      <trkpt lat="46.4966" lon="0.06329">
        <ele>155.09</ele>
        <time>2023-06-20T18:22:49.431Z</time>
      </trkpt>
      <trkpt lat="46.49662" lon="0.06342">
        <ele>155</ele>
        <time>2023-06-20T18:23:54.350Z</time>
      </trkpt>
      <trkpt lat="46.49665" lon="0.06361">
        <ele>154.8</ele>
        <time>2023-06-20T18:24:59.271Z</time>
      </trkpt>
      <trkpt lat="46.49667" lon="0.06379">
        <ele>154.53</ele>
        <time>2023-06-20T18:26:04.194Z</time>
      </trkpt>
      <trkpt lat="46.49668" lon="0.06406">
        <ele>154.15</ele>
        <time>2023-06-20T18:27:09.120Z</time>
      </trkpt>
      <trkpt lat="46.49668" lon="0.0642">
        <ele>153.98</ele>
        <time>2023-06-20T18:28:14.048Z</time>
      </trkpt>
      <trkpt lat="46.49667" lon="0.06432">
        <ele>153.83</ele>
        <time>2023-06-20T18:29:18.977Z</time>
      </trkpt>
      <trkpt lat="46.49665" lon="0.06459">
        <ele>153.58</ele>
        <time>2023-06-20T18:30:23.909Z</time>
      </trkpt>
      <trkpt lat="46.49665" lon="0.06465">
        <ele>153.53</ele>
        <time>2023-06-20T18:31:28.842Z</time>
      </trkpt>
      <trkpt lat="46.49667" lon="0.06491">
        <ele>153.15</ele>
        <time>2023-06-20T18:32:33.778Z</time>
      </trkpt>
      <trkpt lat="46.49667" lon="0.06491">
        <ele>153.15</ele>
        <time>2023-06-20T18:33:38.714Z</time>
      </trkpt>
      <trkpt lat="46.4967" lon="0.06503">
        <ele>153</ele>
        <time>2023-06-20T18:34:43.651Z</time>
      </trkpt>
      <trkpt lat="46.49675" lon="0.06521">
        <ele>152.82</ele>
        <time>2023-06-20T18:35:48.590Z</time>
      </trkpt>
      <trkpt lat="46.49678" lon="0.06533">
        <ele>152.72</ele>
        <time>2023-06-20T18:36:53.531Z</time>
      </trkpt>
      <trkpt lat="46.49685" lon="0.06557">
        <ele>152.59</ele>
        <time>2023-06-20T18:37:58.475Z</time>
      </trkpt>
      <trkpt lat="46.49686" lon="0.06564">
        <ele>152.53</ele>
        <time>2023-06-20T18:39:03.419Z</time>
      </trkpt>
      <trkpt lat="46.49691" lon="0.06582">
        <ele>152.31</ele>
        <time>2023-06-20T18:40:08.366Z</time>
      </trkpt>
      <trkpt lat="46.49694" lon="0.06594">
        <ele>152.21</ele>
        <time>2023-06-20T18:41:13.314Z</time>
      </trkpt>
      <trkpt lat="46.49695" lon="0.06596">
        <ele>152.19</ele>
        <time>2023-06-20T18:42:18.262Z</time>
      </trkpt>
      <trkpt lat="46.49697" lon="0.06606">
        <ele>152.15</ele>
        <time>2023-06-20T18:43:23.211Z</time>
      </trkpt>
      <trkpt lat="46.49699" lon="0.06618">
        <ele>152.13</ele>
        <time>2023-06-20T18:44:28.162Z</time>
      </trkpt>
      <trkpt lat="46.49699" lon="0.06619">
        <ele>152.13</ele>
        <time>2023-06-20T18:45:33.113Z</time>
      </trkpt>
      <trkpt lat="46.497" lon="0.06632">
        <ele>152.17</ele>
        <time>2023-06-20T18:46:38.065Z</time>
      </trkpt>
      <trkpt lat="46.49701" lon="0.06642">
        <ele>152.22</ele>
        <time>2023-06-20T18:47:43.018Z</time>
      </trkpt>
      <trkpt lat="46.49701" lon="0.06651">
        <ele>152.28</ele>
        <time>2023-06-20T18:48:47.973Z</time>
      </trkpt>
      <trkpt lat="46.497" lon="0.06665">
        <ele>152.33</ele>
        <time>2023-06-20T18:49:52.929Z</time>
      </trkpt>
      <trkpt lat="46.497" lon="0.06691">
        <ele>152.29</ele>
        <time>2023-06-20T18:50:57.888Z</time>
      </trkpt>
      <trkpt lat="46.49699" lon="0.06704">
        <ele>152.23</ele>
        <time>2023-06-20T18:52:02.848Z</time>
      </trkpt>
      <trkpt lat="46.49699" lon="0.0671">
        <ele>152.18</ele>
        <time>2023-06-20T18:53:07.809Z</time>
      </trkpt>
      <trkpt lat="46.49698" lon="0.0673">
        <ele>151.99</ele>
        <time>2023-06-20T18:54:12.772Z</time>
      </trkpt>
      <trkpt lat="46.49698" lon="0.06736">
        <ele>151.95</ele>
        <time>2023-06-20T18:55:17.736Z</time>
      </trkpt>
      <trkpt lat="46.49698" lon="0.06746">
        <ele>151.94</ele>
        <time>2023-06-20T18:56:22.701Z</time>
      </trkpt>
      <trkpt lat="46.49698" lon="0.06756">
        <ele>151.93</ele>
        <time>2023-06-20T18:57:27.667Z</time>
      </trkpt>
      <trkpt lat="46.49698" lon="0.06762">
        <ele>151.9</ele>
        <time>2023-06-20T18:58:32.634Z</time>
      </trkpt>
      <trkpt lat="46.49698" lon="0.06769">
        <ele>151.83</ele>
        <time>2023-06-20T18:59:37.601Z</time>
      </trkpt>
      <trkpt lat="46.49698" lon="0.06775">
        <ele>151.73</ele>
        <time>2023-06-20T19:00:42.569Z</time>
      </trkpt>
      <trkpt lat="46.49699" lon="0.06788">
        <ele>151.5</ele>
        <time>2023-06-20T19:01:47.539Z</time>
      </trkpt>
      <trkpt lat="46.49699" lon="0.06801">
        <ele>151.32</ele>
        <time>2023-06-20T19:02:52.510Z</time>
      </trkpt>
      <trkpt lat="46.49699" lon="0.06808">
        <ele>151.26</ele>
        <time>2023-06-20T19:03:57.482Z</time>
      </trkpt>
      <trkpt lat="46.49699" lon="0.06847">
        <ele>151.01</ele>
        <time>2023-06-20T19:05:02.458Z</time>
      </trkpt>
      <trkpt lat="46.497" lon="0.0688">
        <ele>150.9</ele>
        <time>2023-06-20T19:06:07.438Z</time>
      </trkpt>
      <trkpt lat="46.497" lon="0.06912">
        <ele>150.71</ele>
        <time>2023-06-20T19:07:12.421Z</time>
      </trkpt>
      <trkpt lat="46.49701" lon="0.06938">
        <ele>150.63</ele>
        <time>2023-06-20T19:08:17.407Z</time>
      </trkpt>
      <trkpt lat="46.49701" lon="0.06951">
        <ele>150.64</ele>
        <time>2023-06-20T19:09:22.395Z</time>
      </trkpt>
      <trkpt lat="46.49701" lon="0.06958">
        <ele>150.69</ele>
        <time>2023-06-20T19:10:27.383Z</time>
      </trkpt>
      <trkpt lat="46.49701" lon="0.06971">
        <ele>150.83</ele>
        <time>2023-06-20T19:11:32.373Z</time>
      </trkpt>
      <trkpt lat="46.49702" lon="0.07023">
        <ele>149.99</ele>
        <time>2023-06-20T19:12:37.369Z</time>
      </trkpt>
      <trkpt lat="46.49702" lon="0.07032">
        <ele>149.85</ele>
        <time>2023-06-20T19:13:42.366Z</time>
      </trkpt>
      <trkpt lat="46.49702" lon="0.07049">
        <ele>149.59</ele>
        <time>2023-06-20T19:14:47.364Z</time>
      </trkpt>
      <trkpt lat="46.49702" lon="0.07062">
        <ele>149.41</ele>
        <time>2023-06-20T19:15:52.364Z</time>
      </trkpt>
      <trkpt lat="46.49702" lon="0.07069">
        <ele>149.33</ele>
        <time>2023-06-20T19:16:57.365Z</time>
      </trkpt>
      <trkpt lat="46.49702" lon="0.07095">
        <ele>149.12</ele>
        <time>2023-06-20T19:18:02.369Z</time>
      </trkpt>
      <trkpt lat="46.49701" lon="0.07121">
        <ele>148.87</ele>
        <time>2023-06-20T19:19:07.375Z</time>
      </trkpt>
      <trkpt lat="46.49701" lon="0.07134">
        <ele>148.78</ele>
        <time>2023-06-20T19:20:12.383Z</time>
      </trkpt>
      <trkpt lat="46.49701" lon="0.07166">
        <ele>148.67</ele>
        <time>2023-06-20T19:21:17.394Z</time>
      </trkpt>
      <trkpt lat="46.49701" lon="0.0718">
        <ele>148.6</ele>
        <time>2023-06-20T19:22:22.407Z</time>
      </trkpt>
      <trkpt lat="46.49701" lon="0.07188">
        <ele>148.54</ele>
        <time>2023-06-20T19:23:27.421Z</time>
      </trkpt>
      <trkpt lat="46.497" lon="0.07199">
        <ele>148.47</ele>
        <time>2023-06-20T19:24:32.436Z</time>
      </trkpt>
      <trkpt lat="46.49699" lon="0.07205">
        <ele>148.45</ele>
        <time>2023-06-20T19:25:37.452Z</time>
      </trkpt>
      <trkpt lat="46.49695" lon="0.07237">
        <ele>148.47</ele>
        <time>2023-06-20T19:26:42.471Z</time>
      </trkpt>
      <trkpt lat="46.49693" lon="0.07257">
        <ele>148.41</ele>
        <time>2023-06-20T19:27:47.493Z</time>
      </trkpt>
      <trkpt lat="46.49692" lon="0.07263">
        <ele>148.41</ele>
        <time>2023-06-20T19:28:52.515Z</time>
      </trkpt>
      <trkpt lat="46.49691" lon="0.07276">
        <ele>148.46</ele>
        <time>2023-06-20T19:29:57.539Z</time>
      </trkpt>
      <trkpt lat="46.49686" lon="0.07315">
        <ele>148.7</ele>
        <time>2023-06-20T19:31:02.567Z</time>
      </trkpt>
      <trkpt lat="46.49685" lon="0.07327">
        <ele>148.83</ele>
        <time>2023-06-20T19:32:07.596Z</time>
      </trkpt>
      <trkpt lat="46.49683" lon="0.0734">
        <ele>149.04</ele>
        <time>2023-06-20T19:33:12.627Z</time>
      </trkpt>
      <trkpt lat="46.49682" lon="0.07351">
        <ele>149.25</ele>
        <time>2023-06-20T19:34:17.659Z</time>
      </trkpt>
      <trkpt lat="46.49676" lon="0.07385">
        <ele>149.97</ele>
        <time>2023-06-20T19:35:22.695Z</time>
      </trkpt>
      <trkpt lat="46.49674" lon="0.07397">
        <ele>150.26</ele>
        <time>2023-06-20T19:36:27.732Z</time>
      </trkpt>
      <trkpt lat="46.4967" lon="0.07416">
        <ele>150.78</ele>
        <time>2023-06-20T19:37:32.772Z</time>
      </trkpt>
      <trkpt lat="46.49668" lon="0.07428">
        <ele>151.18</ele>
        <time>2023-06-20T19:38:37.813Z</time>
      </trkpt>
      <trkpt lat="46.49668" lon="0.07429">
        <ele>151.18</ele>
        <time>2023-06-20T19:39:42.854Z</time>
      </trkpt>
      <trkpt lat="46.49665" lon="0.07461">
        <ele>152.29</ele>
        <time>2023-06-20T19:40:47.899Z</time>
      </trkpt>
      <trkpt lat="46.49664" lon="0.07474">
        <ele>152.68</ele>
        <time>2023-06-20T19:41:52.945Z</time>
      </trkpt>
      <trkpt lat="46.49663" lon="0.07487">
        <ele>153.01</ele>
        <time>2023-06-20T19:42:57.992Z</time>
      </trkpt>
      <trkpt lat="46.49662" lon="0.075">
        <ele>153.29</ele>
        <time>2023-06-20T19:44:03.041Z</time>
      </trkpt>
      <trkpt lat="46.4966" lon="0.07513">
        <ele>153.51</ele>
        <time>2023-06-20T19:45:08.091Z</time>
      </trkpt>
      <trkpt lat="46.4966" lon="0.07519">
        <ele>153.58</ele>
        <time>2023-06-20T19:46:13.142Z</time>
      </trkpt>
      <trkpt lat="46.49659" lon="0.07532">
        <ele>153.66</ele>
        <time>2023-06-20T19:47:18.195Z</time>
      </trkpt>
      <trkpt lat="46.49654" lon="0.07584">
        <ele>153.79</ele>
        <time>2023-06-20T19:48:23.253Z</time>
      </trkpt>
      <trkpt lat="46.49653" lon="0.07597">
        <ele>153.75</ele>
        <time>2023-06-20T19:49:28.313Z</time>
      </trkpt>
      <trkpt lat="46.49652" lon="0.07603">
        <ele>153.7</ele>
        <time>2023-06-20T19:50:33.373Z</time>
      </trkpt>
      <trkpt lat="46.49651" lon="0.07616">
        <ele>153.53</ele>
        <time>2023-06-20T19:51:38.435Z</time>
      </trkpt>
      <trkpt lat="46.4965" lon="0.07628">
        <ele>153.31</ele>
        <time>2023-06-20T19:52:43.498Z</time>
      </trkpt>
      <trkpt lat="46.4965" lon="0.07629">
        <ele>153.31</ele>
        <time>2023-06-20T19:53:48.561Z</time>
      </trkpt>
      <trkpt lat="46.49645" lon="0.07668">
        <ele>152.45</ele>
        <time>2023-06-20T19:54:53.629Z</time>
      </trkpt>
      <trkpt lat="46.49641" lon="0.07693">
        <ele>151.94</ele>
        <time>2023-06-20T19:55:58.700Z</time>
      </trkpt>
      <trkpt lat="46.49639" lon="0.07706">
        <ele>151.72</ele>
        <time>2023-06-20T19:57:03.772Z</time>
      </trkpt>
      <trkpt lat="46.49637" lon="0.07725">
        <ele>151.47</ele>
        <time>2023-06-20T19:58:08.846Z</time>
      </trkpt>
      <trkpt lat="46.49634" lon="0.07744">
        <ele>151.28</ele>
        <time>2023-06-20T19:59:13.922Z</time>
      </trkpt>
      <trkpt lat="46.4963" lon="0.0777">
        <ele>151.06</ele>
        <time>2023-06-20T20:00:19.001Z</time>
      </trkpt>
      <trkpt lat="46.49629" lon="0.07783">
        <ele>151</ele>
        <time>2023-06-20T20:01:24.082Z</time>
      </trkpt>
      <trkpt lat="46.49628" lon="0.07788">
        <ele>151</ele>
        <time>2023-06-20T20:02:29.163Z</time>
      </trkpt>
      <trkpt lat="46.49628" lon="0.07789">
        <ele>151</ele>
        <time>2023-06-20T20:03:34.244Z</time>
      </trkpt>
      <trkpt lat="46.49625" lon="0.07815">
        <ele>151.07</ele>
        <time>2023-06-20T20:04:39.328Z</time>
      </trkpt>
      <trkpt lat="46.49623" lon="0.07834">
        <ele>151.1</ele>
        <time>2023-06-20T20:05:44.414Z</time>
      </trkpt>
      <trkpt lat="46.49622" lon="0.07847">
        <ele>151.15</ele>
        <time>2023-06-20T20:06:49.502Z</time>
      </trkpt>
      <trkpt lat="46.49622" lon="0.07849">
        <ele>151.16</ele>
        <time>2023-06-20T20:07:54.590Z</time>
      </trkpt>
      <trkpt lat="46.49622" lon="0.0788">
        <ele>151.42</ele>
        <time>2023-06-20T20:08:59.681Z</time>
      </trkpt>
      <trkpt lat="46.49622" lon="0.07899">
        <ele>151.56</ele>
        <time>2023-06-20T20:10:04.775Z</time>
      </trkpt>
      <trkpt lat="46.49622" lon="0.07906">
        <ele>151.59</ele>
        <time>2023-06-20T20:11:09.869Z</time>
      </trkpt>
      <trkpt lat="46.49622" lon="0.07925">
        <ele>151.63</ele>
        <time>2023-06-20T20:12:14.966Z</time>
      </trkpt>
      <trkpt lat="46.49622" lon="0.07949">
        <ele>151.79</ele>
        <time>2023-06-20T20:13:20.065Z</time>
      </trkpt>
      <trkpt lat="46.49624" lon="0.07964">
        <ele>151.91</ele>
        <time>2023-06-20T20:14:25.166Z</time>
      </trkpt>
      <trkpt lat="46.49628" lon="0.07996">
        <ele>152</ele>
        <time>2023-06-20T20:15:30.270Z</time>
      </trkpt>
      <trkpt lat="46.49632" lon="0.08022">
        <ele>152.19</ele>
        <time>2023-06-20T20:16:35.377Z</time>
      </trkpt>
      <trkpt lat="46.49634" lon="0.08035">
        <ele>152.27</ele>
        <time>2023-06-20T20:17:40.486Z</time>
      </trkpt>
      <trkpt lat="46.49637" lon="0.0806">
        <ele>152.35</ele>
        <time>2023-06-20T20:18:45.598Z</time>
      </trkpt>
      <trkpt lat="46.49643" lon="0.08105">
        <ele>152.43</ele>
        <time>2023-06-20T20:19:50.715Z</time>
      </trkpt>
      <trkpt lat="46.49646" lon="0.08124">
        <ele>152.45</ele>
        <time>2023-06-20T20:20:55.834Z</time>
      </trkpt>
      <trkpt lat="46.49646" lon="0.08124">
        <ele>152.45</ele>
        <time>2023-06-20T20:22:00.953Z</time>
      </trkpt>
      <trkpt lat="46.49647" lon="0.08137">
        <ele>152.49</ele>
        <time>2023-06-20T20:23:06.073Z</time>
      </trkpt>
      <trkpt lat="46.49649" lon="0.08167">
        <ele>152.65</ele>
        <time>2023-06-20T20:24:11.197Z</time>
      </trkpt>
      <trkpt lat="46.49649" lon="0.08169">
        <ele>152.67</ele>
        <time>2023-06-20T20:25:16.321Z</time>
      </trkpt>
      <trkpt lat="46.49649" lon="0.08188">
        <ele>152.85</ele>
        <time>2023-06-20T20:26:21.447Z</time>
      </trkpt>
      <trkpt lat="46.49648" lon="0.08202">
        <ele>152.99</ele>
        <time>2023-06-20T20:27:26.574Z</time>
      </trkpt>
      <trkpt lat="46.49647" lon="0.08215">
        <ele>153.06</ele>
        <time>2023-06-20T20:28:31.703Z</time>
      </trkpt>
      <trkpt lat="46.49646" lon="0.08228">
        <ele>153.07</ele>
        <time>2023-06-20T20:29:36.833Z</time>
      </trkpt>
      <trkpt lat="46.49645" lon="0.08252">
        <ele>152.78</ele>
        <time>2023-06-20T20:30:41.966Z</time>
      </trkpt>
      <trkpt lat="46.49644" lon="0.08271">
        <ele>152.54</ele>
        <time>2023-06-20T20:31:47.101Z</time>
      </trkpt>
      <trkpt lat="46.49643" lon="0.08283">
        <ele>152.35</ele>
        <time>2023-06-20T20:32:52.237Z</time>
      </trkpt>
      <trkpt lat="46.49642" lon="0.08298">
        <ele>152.08</ele>
        <time>2023-06-20T20:33:57.375Z</time>
      </trkpt>
      <trkpt lat="46.49648" lon="0.08297">
        <ele>151.93</ele>
        <time>2023-06-20T20:35:02.514Z</time>
      </trkpt>
      <trkpt lat="46.49657" lon="0.08295">
        <ele>151.73</ele>
        <time>2023-06-20T20:36:07.655Z</time>
      </trkpt>
      <trkpt lat="46.49662" lon="0.08294">
        <ele>151.67</ele>
        <time>2023-06-20T20:37:12.796Z</time>
      </trkpt>
      <trkpt lat="46.49671" lon="0.08293">
        <ele>151.6</ele>
        <time>2023-06-20T20:38:17.939Z</time>
      </trkpt>
      <trkpt lat="46.49689" lon="0.08289">
        <ele>151.53</ele>
        <time>2023-06-20T20:39:23.085Z</time>
      </trkpt>
      <trkpt lat="46.49689" lon="0.08289">
        <ele>151.53</ele>
        <time>2023-06-20T20:40:28.231Z</time>
      </trkpt>
      <trkpt lat="46.49724" lon="0.08285">
        <ele>151.3</ele>
        <time>2023-06-20T20:41:33.382Z</time>
      </trkpt>
      <trkpt lat="46.49733" lon="0.08284">
        <ele>151.28</ele>
        <time>2023-06-20T20:42:38.535Z</time>
      </trkpt>
      <trkpt lat="46.49746" lon="0.08283">
        <ele>151.35</ele>
        <time>2023-06-20T20:43:43.690Z</time>
      </trkpt>
      <trkpt lat="46.49755" lon="0.08282">
        <ele>151.33</ele>
        <time>2023-06-20T20:44:48.846Z</time>
      </trkpt>
      <trkpt lat="46.49764" lon="0.08281">
        <ele>151.27</ele>
        <time>2023-06-20T20:45:54.004Z</time>
      </trkpt>
      <trkpt lat="46.49782" lon="0.08279">
        <ele>151.08</ele>
        <time>2023-06-20T20:46:59.165Z</time>
      </trkpt>
      <trkpt lat="46.49787" lon="0.08279">
        <ele>151.07</ele>
        <time>2023-06-20T20:48:04.326Z</time>
      </trkpt>
      <trkpt lat="46.49791" lon="0.08278">
        <ele>151.08</ele>
        <time>2023-06-20T20:49:09.488Z</time>
      </trkpt>
      <trkpt lat="46.49805" lon="0.08277">
        <ele>151.19</ele>
        <time>2023-06-20T20:50:14.652Z</time>
      </trkpt>
      <trkpt lat="46.49809" lon="0.08276">
        <ele>151.19</ele>
        <time>2023-06-20T20:51:19.817Z</time>
      </trkpt>
      <trkpt lat="46.49831" lon="0.08274">
        <ele>150.96</ele>
        <time>2023-06-20T20:52:24.986Z</time>
      </trkpt>
      <trkpt lat="46.49858" lon="0.08271">
        <ele>150.76</ele>
        <time>2023-06-20T20:53:30.159Z</time>
      </trkpt>
      <trkpt lat="46.49867" lon="0.0827">
        <ele>150.64</ele>
        <time>2023-06-20T20:54:35.333Z</time>
      </trkpt>
      <trkpt lat="46.49881" lon="0.08269">
        <ele>150.37</ele>
        <time>2023-06-20T20:55:40.510Z</time>
      </trkpt>
      <trkpt lat="46.49899" lon="0.08267">
        <ele>150.13</ele>
        <time>2023-06-20T20:56:45.689Z</time>
      </trkpt>
      <trkpt lat="46.49903" lon="0.08267">
        <ele>150.05</ele>
        <time>2023-06-20T20:57:50.869Z</time>
      </trkpt>
      <trkpt lat="46.49908" lon="0.08266">
        <ele>149.94</ele>
        <time>2023-06-20T20:58:56.050Z</time>
      </trkpt>
      <trkpt lat="46.49921" lon="0.08265">
        <ele>149.56</ele>
        <time>2023-06-20T21:00:01.233Z</time>
      </trkpt>
      <trkpt lat="46.49926" lon="0.08264">
        <ele>149.46</ele>
        <time>2023-06-20T21:01:06.417Z</time>
      </trkpt>
      <trkpt lat="46.49939" lon="0.08263">
        <ele>149.28</ele>
        <time>2023-06-20T21:02:11.603Z</time>
      </trkpt>
      <trkpt lat="46.49948" lon="0.08262">
        <ele>149.25</ele>
        <time>2023-06-20T21:03:16.790Z</time>
      </trkpt>
      <trkpt lat="46.49966" lon="0.0826">
        <ele>149.29</ele>
        <time>2023-06-20T21:04:21.980Z</time>
      </trkpt>
      <trkpt lat="46.49993" lon="0.08257">
        <ele>149.26</ele>
        <time>2023-06-20T21:05:27.174Z</time>
      </trkpt>
      <trkpt lat="46.50011" lon="0.08255">
        <ele>149.15</ele>
        <time>2023-06-20T21:06:32.371Z</time>
      </trkpt>
      <trkpt lat="46.50028" lon="0.08253">
        <ele>149.12</ele>
        <time>2023-06-20T21:07:37.571Z</time>
      </trkpt>
      <trkpt lat="46.50046" lon="0.08252">
        <ele>149.03</ele>
        <time>2023-06-20T21:08:42.774Z</time>
      </trkpt>
      <trkpt lat="46.50064" lon="0.0825">
        <ele>148.98</ele>
        <time>2023-06-20T21:09:47.980Z</time>
      </trkpt>
      <trkpt lat="46.50078" lon="0.08248">
        <ele>148.83</ele>
        <time>2023-06-20T21:10:53.188Z</time>
      </trkpt>
      <trkpt lat="46.50087" lon="0.08247">
        <ele>148.78</ele>
        <time>2023-06-20T21:11:58.398Z</time>
      </trkpt>
      <trkpt lat="46.50091" lon="0.08247">
        <ele>148.77</ele>
        <time>2023-06-20T21:13:03.608Z</time>
      </trkpt>
      <trkpt lat="46.501" lon="0.08246">
        <ele>148.78</ele>
        <time>2023-06-20T21:14:08.820Z</time>
      </trkpt>
      <trkpt lat="46.50118" lon="0.08244">
        <ele>148.86</ele>
        <time>2023-06-20T21:15:14.035Z</time>
      </trkpt>
      <trkpt lat="46.50122" lon="0.08244">
        <ele>148.85</ele>
        <time>2023-06-20T21:16:19.250Z</time>
      </trkpt>
      <trkpt lat="46.50136" lon="0.08242">
        <ele>148.77</ele>
        <time>2023-06-20T21:17:24.467Z</time>
      </trkpt>
      <trkpt lat="46.50149" lon="0.08241">
        <ele>148.78</ele>
        <time>2023-06-20T21:18:29.687Z</time>
      </trkpt>
      <trkpt lat="46.50154" lon="0.0824">
        <ele>148.77</ele>
        <time>2023-06-20T21:19:34.907Z</time>
      </trkpt>
      <trkpt lat="46.50176" lon="0.08238">
        <ele>148.63</ele>
        <time>2023-06-20T21:20:40.131Z</time>
      </trkpt>
      <trkpt lat="46.50194" lon="0.08236">
        <ele>148.33</ele>
        <time>2023-06-20T21:21:45.358Z</time>
      </trkpt>
      <trkpt lat="46.50203" lon="0.08235">
        <ele>148.24</ele>
        <time>2023-06-20T21:22:50.586Z</time>
      </trkpt>
      <trkpt lat="46.50212" lon="0.08234">
        <ele>148.19</ele>
        <time>2023-06-20T21:23:55.816Z</time>
      </trkpt>
      <trkpt lat="46.50225" lon="0.08233">
        <ele>148.16</ele>
        <time>2023-06-20T21:25:01.048Z</time>
      </trkpt>
      <trkpt lat="46.50234" lon="0.08232">
        <ele>148.19</ele>
        <time>2023-06-20T21:26:06.281Z</time>
      </trkpt>
      <trkpt lat="46.50243" lon="0.08231">
        <ele>148.25</ele>
        <time>2023-06-20T21:27:11.516Z</time>
      </trkpt>
      <trkpt lat="46.50252" lon="0.0823">
        <ele>148.35</ele>
        <time>2023-06-20T21:28:16.752Z</time>
      </trkpt>
      <trkpt lat="46.50261" lon="0.08229">
        <ele>148.3</ele>
        <time>2023-06-20T21:29:21.990Z</time>
      </trkpt>
      <trkpt lat="46.5027" lon="0.08228">
        <ele>148.29</ele>
        <time>2023-06-20T21:30:27.229Z</time>
      </trkpt>
      <trkpt lat="46.50279" lon="0.08227">
        <ele>148.32</ele>
        <time>2023-06-20T21:31:32.469Z</time>
      </trkpt>
      <trkpt lat="46.50288" lon="0.08226">
        <ele>148.4</ele>
        <time>2023-06-20T21:32:37.711Z</time>
      </trkpt>
      <trkpt lat="46.50341" lon="0.08221">
        <ele>149.05</ele>
        <time>2023-06-20T21:33:42.961Z</time>
      </trkpt>
      <trkpt lat="46.5039" lon="0.08216">
        <ele>149.79</ele>
        <time>2023-06-20T21:34:48.219Z</time>
      </trkpt>
      <trkpt lat="46.50405" lon="0.08214">
        <ele>149.96</ele>
        <time>2023-06-20T21:35:53.480Z</time>
      </trkpt>
      <trkpt lat="46.5045" lon="0.08207">
        <ele>150.5</ele>
        <time>2023-06-20T21:36:58.748Z</time>
      </trkpt>
      <trkpt lat="46.50452" lon="0.08206">
        <ele>150.53</ele>
        <time>2023-06-20T21:38:04.016Z</time>
      </trkpt>
      <trkpt lat="46.50465" lon="0.08202">
        <ele>150.63</ele>
        <time>2023-06-20T21:39:09.286Z</time>
      </trkpt>
      <trkpt lat="46.505" lon="0.0819">
        <ele>150.84</ele>
        <time>2023-06-20T21:40:14.562Z</time>
      </trkpt>
      <trkpt lat="46.50513" lon="0.08185">
        <ele>150.89</ele>
        <time>2023-06-20T21:41:19.840Z</time>
      </trkpt>
      <trkpt lat="46.50543" lon="0.08175">
        <ele>150.9</ele>
        <time>2023-06-20T21:42:25.123Z</time>
      </trkpt>
      <trkpt lat="46.50556" lon="0.0817">
        <ele>150.96</ele>
        <time>2023-06-20T21:43:30.408Z</time>
      </trkpt>
      <trkpt lat="46.50569" lon="0.08165">
        <ele>151.07</ele>
        <time>2023-06-20T21:44:35.696Z</time>
      </trkpt>
      <trkpt lat="46.50596" lon="0.08156">
        <ele>151.35</ele>
        <time>2023-06-20T21:45:40.988Z</time>
      </trkpt>
      <trkpt lat="46.50618" lon="0.08149">
        <ele>151.5</ele>
        <time>2023-06-20T21:46:46.283Z</time>
      </trkpt>
      <trkpt lat="46.50648" lon="0.08138">
        <ele>151.62</ele>
        <time>2023-06-20T21:47:51.584Z</time>
      </trkpt>
      <trkpt lat="46.50722" lon="0.08112">
        <ele>151.97</ele>
        <time>2023-06-20T21:48:56.897Z</time>
      </trkpt>
      <trkpt lat="46.5074" lon="0.08106">
        <ele>152.04</ele>
        <time>2023-06-20T21:50:02.213Z</time>
      </trkpt>
      <trkpt lat="46.50749" lon="0.08103">
        <ele>152.05</ele>
        <time>2023-06-20T21:51:07.530Z</time>
      </trkpt>
      <trkpt lat="46.50757" lon="0.081">
        <ele>151.98</ele>
        <time>2023-06-20T21:52:12.848Z</time>
      </trkpt>
      <trkpt lat="46.50766" lon="0.08097">
        <ele>151.95</ele>
        <time>2023-06-20T21:53:18.168Z</time>
      </trkpt>
      <trkpt lat="46.50775" lon="0.08094">
        <ele>151.95</ele>
        <time>2023-06-20T21:54:23.489Z</time>
      </trkpt>
      <trkpt lat="46.50783" lon="0.08091">
        <ele>151.99</ele>
        <time>2023-06-20T21:55:28.812Z</time>
      </trkpt>
      <trkpt lat="46.5081" lon="0.08082">
        <ele>152.19</ele>
        <time>2023-06-20T21:56:34.139Z</time>
      </trkpt>
      <trkpt lat="46.50845" lon="0.0807">
        <ele>152.53</ele>
        <time>2023-06-20T21:57:39.472Z</time>
      </trkpt>
      <trkpt lat="46.50862" lon="0.08064">
        <ele>152.68</ele>
        <time>2023-06-20T21:58:44.808Z</time>
      </trkpt>
      <trkpt lat="46.50901" lon="0.0805">
        <ele>152.88</ele>
        <time>2023-06-20T21:59:50.150Z</time>
      </trkpt>
      <trkpt lat="46.50941" lon="0.08036">
        <ele>153.19</ele>
        <time>2023-06-20T22:00:55.499Z</time>
      </trkpt>
      <trkpt lat="46.50954" lon="0.08032">
        <ele>153.28</ele>
        <time>2023-06-20T22:02:00.850Z</time>
      </trkpt>
      <trkpt lat="46.50963" lon="0.08029">
        <ele>153.32</ele>
        <time>2023-06-20T22:03:06.202Z</time>
      </trkpt>
      <trkpt lat="46.50979" lon="0.08023">
        <ele>153.35</ele>
        <time>2023-06-20T22:04:11.557Z</time>
      </trkpt>
      <trkpt lat="46.50989" lon="0.08019">
        <ele>153.38</ele>
        <time>2023-06-20T22:05:16.914Z</time>
      </trkpt>
      <trkpt lat="46.5101" lon="0.08009">
        <ele>153.4</ele>
        <time>2023-06-20T22:06:22.274Z</time>
      </trkpt>
      <trkpt lat="46.51034" lon="0.07998">
        <ele>153.48</ele>
        <time>2023-06-20T22:07:27.638Z</time>
      </trkpt>
      <trkpt lat="46.5104" lon="0.07995">
        <ele>153.5</ele>
        <time>2023-06-20T22:08:33.003Z</time>
      </trkpt>
      <trkpt lat="46.51078" lon="0.07975">
        <ele>153.57</ele>
        <time>2023-06-20T22:09:38.375Z</time>
      </trkpt>
      <trkpt lat="46.51086" lon="0.0797">
        <ele>153.57</ele>
        <time>2023-06-20T22:10:43.748Z</time>
      </trkpt>
      <trkpt lat="46.51124" lon="0.0795">
        <ele>153.48</ele>
        <time>2023-06-20T22:11:49.128Z</time>
      </trkpt>
      <trkpt lat="46.51137" lon="0.07944">
        <ele>153.48</ele>
        <time>2023-06-20T22:12:54.510Z</time>
      </trkpt>
      <trkpt lat="46.51188" lon="0.07917">
        <ele>153.61</ele>
        <time>2023-06-20T22:13:59.900Z</time>
      </trkpt>
      <trkpt lat="46.51191" lon="0.07915">
        <ele>153.62</ele>
        <time>2023-06-20T22:15:05.291Z</time>
      </trkpt>
      <trkpt lat="46.51209" lon="0.07906">
        <ele>153.69</ele>
        <time>2023-06-20T22:16:10.685Z</time>
      </trkpt>
      <trkpt lat="46.51238" lon="0.0789">
        <ele>153.7</ele>
        <time>2023-06-20T22:17:16.084Z</time>
      </trkpt>
      <trkpt lat="46.51255" lon="0.07881">
        <ele>153.78</ele>
        <time>2023-06-20T22:18:21.486Z</time>
      </trkpt>
      <trkpt lat="46.51263" lon="0.07876">
        <ele>153.8</ele>
        <time>2023-06-20T22:19:26.889Z</time>
      </trkpt>
      <trkpt lat="46.51272" lon="0.07872">
        <ele>153.77</ele>
        <time>2023-06-20T22:20:32.294Z</time>
      </trkpt>
      <trkpt lat="46.51314" lon="0.07849">
        <ele>153.5</ele>
        <time>2023-06-20T22:21:37.706Z</time>
      </trkpt>
      <trkpt lat="46.51348" lon="0.07832">
        <ele>153.13</ele>
        <time>2023-06-20T22:22:43.124Z</time>
      </trkpt>
      <trkpt lat="46.51382" lon="0.07814">
        <ele>152.73</ele>
        <time>2023-06-20T22:23:48.547Z</time>
      </trkpt>
      <trkpt lat="46.51398" lon="0.07805">
        <ele>152.57</ele>
        <time>2023-06-20T22:24:53.973Z</time>
      </trkpt>
      <trkpt lat="46.51411" lon="0.07798">
        <ele>152.5</ele>
        <time>2023-06-20T22:25:59.401Z</time>
      </trkpt>
      <trkpt lat="46.51439" lon="0.07783">
        <ele>152.4</ele>
        <time>2023-06-20T22:27:04.834Z</time>
      </trkpt>
      <trkpt lat="46.51441" lon="0.07782">
        <ele>152.4</ele>
        <time>2023-06-20T22:28:10.268Z</time>
      </trkpt>
      <trkpt lat="46.51462" lon="0.07772">
        <ele>152.3</ele>
        <time>2023-06-20T22:29:15.705Z</time>
      </trkpt>
      <trkpt lat="46.51492" lon="0.07758">
        <ele>152.24</ele>
        <time>2023-06-20T22:30:21.147Z</time>
      </trkpt>
      <trkpt lat="46.51505" lon="0.07752">
        <ele>152.17</ele>
        <time>2023-06-20T22:31:26.591Z</time>
      </trkpt>
      <trkpt lat="46.51513" lon="0.07748">
        <ele>152.15</ele>
        <time>2023-06-20T22:32:32.037Z</time>
      </trkpt>
      <trkpt lat="46.51522" lon="0.07744">
        <ele>152.18</ele>
        <time>2023-06-20T22:33:37.484Z</time>
      </trkpt>
      <trkpt lat="46.5153" lon="0.0774">
        <ele>152.23</ele>
        <time>2023-06-20T22:34:42.933Z</time>
      </trkpt>
      <trkpt lat="46.51535" lon="0.07738">
        <ele>152.26</ele>
        <time>2023-06-20T22:35:48.382Z</time>
      </trkpt>
      <trkpt lat="46.51556" lon="0.07729">
        <ele>152.35</ele>
        <time>2023-06-20T22:36:53.835Z</time>
      </trkpt>
      <trkpt lat="46.51591" lon="0.07715">
        <ele>152.33</ele>
        <time>2023-06-20T22:37:59.294Z</time>
      </trkpt>
      <trkpt lat="46.51625" lon="0.077">
        <ele>152.28</ele>
        <time>2023-06-20T22:39:04.758Z</time>
      </trkpt>
      <trkpt lat="46.51655" lon="0.07687">
        <ele>152.34</ele>
        <time>2023-06-20T22:40:10.227Z</time>
      </trkpt>
      <trkpt lat="46.5169" lon="0.07673">
        <ele>152.31</ele>
        <time>2023-06-20T22:41:15.702Z</time>
      </trkpt>
      <trkpt lat="46.5172" lon="0.0766">
        <ele>152.4</ele>
        <time>2023-06-20T22:42:21.182Z</time>
      </trkpt>
      <trkpt lat="46.51755" lon="0.07646">
        <ele>152.57</ele>
        <time>2023-06-20T22:43:26.668Z</time>
      </trkpt>
      <trkpt lat="46.51772" lon="0.07639">
        <ele>152.7</ele>
        <time>2023-06-20T22:44:32.157Z</time>
      </trkpt>
      <trkpt lat="46.51785" lon="0.07633">
        <ele>152.71</ele>
        <time>2023-06-20T22:45:37.648Z</time>
      </trkpt>
      <trkpt lat="46.51802" lon="0.07626">
        <ele>152.78</ele>
        <time>2023-06-20T22:46:43.142Z</time>
      </trkpt>
      <trkpt lat="46.5188" lon="0.07593">
        <ele>153.28</ele>
        <time>2023-06-20T22:47:48.649Z</time>
      </trkpt>
      <trkpt lat="46.51901" lon="0.07584">
        <ele>153.47</ele>
        <time>2023-06-20T22:48:54.159Z</time>
      </trkpt>
      <trkpt lat="46.51931" lon="0.07572">
        <ele>153.69</ele>
        <time>2023-06-20T22:49:59.674Z</time>
      </trkpt>
      <trkpt lat="46.51957" lon="0.07561">
        <ele>154</ele>
        <time>2023-06-20T22:51:05.194Z</time>
      </trkpt>
      <trkpt lat="46.51987" lon="0.07548">
        <ele>154.28</ele>
        <time>2023-06-20T22:52:10.719Z</time>
      </trkpt>
      <trkpt lat="46.51995" lon="0.07545">
        <ele>154.33</ele>
        <time>2023-06-20T22:53:16.245Z</time>
      </trkpt>
      <trkpt lat="46.51997" lon="0.07553">
        <ele>154.37</ele>
        <time>2023-06-20T22:54:21.772Z</time>
      </trkpt>
      <trkpt lat="46.52002" lon="0.07571">
        <ele>154.43</ele>
        <time>2023-06-20T22:55:27.301Z</time>
      </trkpt>
      <trkpt lat="46.52011" lon="0.07608">
        <ele>154.48</ele>
        <time>2023-06-20T22:56:32.834Z</time>
      </trkpt>
      <trkpt lat="46.5202" lon="0.07644">
        <ele>154.62</ele>
        <time>2023-06-20T22:57:38.372Z</time>
      </trkpt>
      <trkpt lat="46.52023" lon="0.07657">
        <ele>154.64</ele>
        <time>2023-06-20T22:58:43.911Z</time>
      </trkpt>
      <trkpt lat="46.52036" lon="0.07705">
        <ele>154.57</ele>
        <time>2023-06-20T22:59:49.456Z</time>
      </trkpt>
      <trkpt lat="46.52043" lon="0.07734">
        <ele>154.45</ele>
        <time>2023-06-20T23:00:55.004Z</time>
      </trkpt>
      <trkpt lat="46.52045" lon="0.07742">
        <ele>154.42</ele>
        <time>2023-06-20T23:02:00.553Z</time>
      </trkpt>
      <trkpt lat="46.52053" lon="0.0778">
        <ele>154.32</ele>
        <time>2023-06-20T23:03:06.107Z</time>
      </trkpt>
      <trkpt lat="46.52057" lon="0.078">
        <ele>154.24</ele>
        <time>2023-06-20T23:04:11.663Z</time>
      </trkpt>
      <trkpt lat="46.5206" lon="0.07817">
        <ele>154.18</ele>
        <time>2023-06-20T23:05:17.221Z</time>
      </trkpt>
      <trkpt lat="46.52068" lon="0.07864">
        <ele>154.13</ele>
        <time>2023-06-20T23:06:22.784Z</time>
      </trkpt>
      <trkpt lat="46.52072" lon="0.07894">
        <ele>154.11</ele>
        <time>2023-06-20T23:07:28.351Z</time>
      </trkpt>
      <trkpt lat="46.52074" lon="0.07913">
        <ele>154.07</ele>
        <time>2023-06-20T23:08:33.920Z</time>
      </trkpt>
      <trkpt lat="46.52077" lon="0.07933">
        <ele>153.97</ele>
        <time>2023-06-20T23:09:39.491Z</time>
      </trkpt>
      <trkpt lat="46.52079" lon="0.07951">
        <ele>153.89</ele>
        <time>2023-06-20T23:10:45.064Z</time>
      </trkpt>
      <trkpt lat="46.52082" lon="0.07997">
        <ele>153.61</ele>
        <time>2023-06-20T23:11:50.642Z</time>
      </trkpt>
      <trkpt lat="46.52085" lon="0.08029">
        <ele>153.43</ele>
        <time>2023-06-20T23:12:56.224Z</time>
      </trkpt>
      <trkpt lat="46.52087" lon="0.08055">
        <ele>153.25</ele>
        <time>2023-06-20T23:14:01.809Z</time>
      </trkpt>
      <trkpt lat="46.52088" lon="0.08068">
        <ele>153.18</ele>
        <time>2023-06-20T23:15:07.395Z</time>
      </trkpt>
      <trkpt lat="46.52094" lon="0.08139">
        <ele>152.99</ele>
        <time>2023-06-20T23:16:12.989Z</time>
      </trkpt>
      <trkpt lat="46.52098" lon="0.08184">
        <ele>152.84</ele>
        <time>2023-06-20T23:17:18.588Z</time>
      </trkpt>
      <trkpt lat="46.52104" lon="0.08255">
        <ele>152.68</ele>
        <time>2023-06-20T23:18:24.195Z</time>
      </trkpt>
      <trkpt lat="46.52105" lon="0.08268">
        <ele>152.68</ele>
        <time>2023-06-20T23:19:29.803Z</time>
      </trkpt>
      <trkpt lat="46.52106" lon="0.08281">
        <ele>152.7</ele>
        <time>2023-06-20T23:20:35.413Z</time>
      </trkpt>
      <trkpt lat="46.52108" lon="0.08301">
        <ele>152.77</ele>
        <time>2023-06-20T23:21:41.025Z</time>
      </trkpt>
      <trkpt lat="46.52109" lon="0.08314">
        <ele>152.84</ele>
        <time>2023-06-20T23:22:46.638Z</time>
      </trkpt>
      <trkpt lat="46.5211" lon="0.08324">
        <ele>152.92</ele>
        <time>2023-06-20T23:23:52.253Z</time>
      </trkpt>
      <trkpt lat="46.5211" lon="0.08333">
        <ele>152.99</ele>
        <time>2023-06-20T23:24:57.869Z</time>
      </trkpt>
      <trkpt lat="46.52113" lon="0.08372">
        <ele>153.37</ele>
        <time>2023-06-20T23:26:03.489Z</time>
      </trkpt>
      <trkpt lat="46.52114" lon="0.08398">
        <ele>153.55</ele>
        <time>2023-06-20T23:27:09.112Z</time>
      </trkpt>
      <trkpt lat="46.52121" lon="0.08405">
        <ele>153.65</ele>
        <time>2023-06-20T23:28:14.736Z</time>
      </trkpt>
      <trkpt lat="46.52133" lon="0.08416">
        <ele>153.68</ele>
        <time>2023-06-20T23:29:20.362Z</time>
      </trkpt>
      <trkpt lat="46.52178" lon="0.08458">
        <ele>154.02</ele>
        <time>2023-06-20T23:30:25.997Z</time>
      </trkpt>
      <trkpt lat="46.52186" lon="0.08465">
        <ele>154.1</ele>
        <time>2023-06-20T23:31:31.633Z</time>
      </trkpt>
      <trkpt lat="46.52205" lon="0.08482">
        <ele>154.37</ele>
        <time>2023-06-20T23:32:37.273Z</time>
      </trkpt>
      <trkpt lat="46.52216" lon="0.08493">
        <ele>154.48</ele>
        <time>2023-06-20T23:33:42.915Z</time>
      </trkpt>
      <trkpt lat="46.52281" lon="0.08553">
        <ele>154.82</ele>
        <time>2023-06-20T23:34:48.569Z</time>
      </trkpt>
      <trkpt lat="46.52292" lon="0.08563">
        <ele>154.84</ele>
        <time>2023-06-20T23:35:54.226Z</time>
      </trkpt>
      <trkpt lat="46.5231" lon="0.0858">
        <ele>154.82</ele>
        <time>2023-06-20T23:36:59.886Z</time>
      </trkpt>
      <trkpt lat="46.5231" lon="0.08579">
        <ele>154.82</ele>
        <time>2023-06-20T23:38:05.546Z</time>
      </trkpt>
      <trkpt lat="46.52323" lon="0.08544">
        <ele>154.75</ele>
        <time>2023-06-20T23:39:11.210Z</time>
      </trkpt>
      <trkpt lat="46.52337" lon="0.08503">
        <ele>154.63</ele>
        <time>2023-06-20T23:40:16.880Z</time>
      </trkpt>
      <trkpt lat="46.52343" lon="0.08486">
        <ele>154.54</ele>
        <time>2023-06-20T23:41:22.552Z</time>
      </trkpt>
      <trkpt lat="46.52357" lon="0.08445">
        <ele>154.25</ele>
        <time>2023-06-20T23:42:28.229Z</time>
      </trkpt>
      <trkpt lat="46.52365" lon="0.08423">
        <ele>154.07</ele>
        <time>2023-06-20T23:43:33.908Z</time>
      </trkpt>
      <trkpt lat="46.52377" lon="0.08394">
        <ele>153.83</ele>
        <time>2023-06-20T23:44:39.591Z</time>
      </trkpt>
      <trkpt lat="46.52389" lon="0.08366">
        <ele>153.53</ele>
        <time>2023-06-20T23:45:45.278Z</time>
      </trkpt>
      <trkpt lat="46.52392" lon="0.0836">
        <ele>153.47</ele>
        <time>2023-06-20T23:46:50.966Z</time>
      </trkpt>
      <trkpt lat="46.52402" lon="0.08353">
        <ele>153.35</ele>
        <time>2023-06-20T23:47:56.655Z</time>
      </trkpt>
      <trkpt lat="46.52417" lon="0.08358">
        <ele>153.18</ele>
        <time>2023-06-20T23:49:02.347Z</time>
      </trkpt>
      <trkpt lat="46.52426" lon="0.0836">
        <ele>153.06</ele>
        <time>2023-06-20T23:50:08.040Z</time>
      </trkpt>
      <trkpt lat="46.5247" lon="0.08373">
        <ele>152.34</ele>
        <time>2023-06-20T23:51:13.740Z</time>
      </trkpt>
      <trkpt lat="46.52496" lon="0.08381">
        <ele>151.98</ele>
        <time>2023-06-20T23:52:19.445Z</time>
      </trkpt>
      <trkpt lat="46.52518" lon="0.08388">
        <ele>151.65</ele>
        <time>2023-06-20T23:53:25.153Z</time>
      </trkpt>
      <trkpt lat="46.52562" lon="0.08401">
        <ele>151.12</ele>
        <time>2023-06-20T23:54:30.869Z</time>
      </trkpt>
      <trkpt lat="46.52593" lon="0.08411">
        <ele>150.83</ele>
        <time>2023-06-20T23:55:36.590Z</time>
      </trkpt>
      <trkpt lat="46.52619" lon="0.08419">
        <ele>150.89</ele>
        <time>2023-06-20T23:56:42.315Z</time>
      </trkpt>
      <trkpt lat="46.52646" lon="0.08426">
        <ele>151.05</ele>
        <time>2023-06-20T23:57:48.044Z</time>
      </trkpt>
      <trkpt lat="46.52655" lon="0.08429">
        <ele>151.14</ele>
        <time>2023-06-20T23:58:53.775Z</time>
      </trkpt>
      <trkpt lat="46.52672" lon="0.08434">
        <ele>151.4</ele>
        <time>2023-06-20T23:59:59.509Z</time>
      </trkpt>
      <trkpt lat="46.52694" lon="0.08441">
        <ele>151.77</ele>
        <time>2023-06-21T00:01:05.246Z</time>
      </trkpt>
      <trkpt lat="46.52703" lon="0.08444">
        <ele>151.95</ele>
        <time>2023-06-21T00:02:10.985Z</time>
      </trkpt>
      <trkpt lat="46.52737" lon="0.08454">
        <ele>152.7</ele>
        <time>2023-06-21T00:03:16.729Z</time>
      </trkpt>
      <trkpt lat="46.52738" lon="0.08454">
        <ele>152.73</ele>
        <time>2023-06-21T00:04:22.473Z</time>
      </trkpt>
      <trkpt lat="46.52747" lon="0.08451">
        <ele>152.9</ele>
        <time>2023-06-21T00:05:28.219Z</time>
      </trkpt>
      <trkpt lat="46.5276" lon="0.08447">
        <ele>153.07</ele>
        <time>2023-06-21T00:06:33.967Z</time>
      </trkpt>
      <trkpt lat="46.52773" lon="0.08443">
        <ele>153.2</ele>
        <time>2023-06-21T00:07:39.717Z</time>
      </trkpt>
      <trkpt lat="46.52782" lon="0.0844">
        <ele>153.26</ele>
        <time>2023-06-21T00:08:45.469Z</time>
      </trkpt>
      <trkpt lat="46.52795" lon="0.08435">
        <ele>153.36</ele>
        <time>2023-06-21T00:09:51.223Z</time>
      </trkpt>
      <trkpt lat="46.52821" lon="0.08425">
        <ele>153.59</ele>
        <time>2023-06-21T00:10:56.981Z</time>
      </trkpt>
      <trkpt lat="46.52838" lon="0.08419">
        <ele>153.76</ele>
        <time>2023-06-21T00:12:02.742Z</time>
      </trkpt>
      <trkpt lat="46.52838" lon="0.08419">
        <ele>153.76</ele>
        <time>2023-06-21T00:13:08.503Z</time>
      </trkpt>
      <trkpt lat="46.52861" lon="0.08419">
        <ele>153.87</ele>
        <time>2023-06-21T00:14:14.267Z</time>
      </trkpt>
      <trkpt lat="46.52874" lon="0.08419">
        <ele>153.89</ele>
        <time>2023-06-21T00:15:20.034Z</time>
      </trkpt>
      <trkpt lat="46.52896" lon="0.0842">
        <ele>153.87</ele>
        <time>2023-06-21T00:16:25.804Z</time>
      </trkpt>
      <trkpt lat="46.52911" lon="0.0842">
        <ele>153.94</ele>
        <time>2023-06-21T00:17:31.576Z</time>
      </trkpt>
      <trkpt lat="46.52945" lon="0.08412">
        <ele>154.14</ele>
        <time>2023-06-21T00:18:37.354Z</time>
      </trkpt>
      <trkpt lat="46.53029" lon="0.08393">
        <ele>154.32</ele>
        <time>2023-06-21T00:19:43.146Z</time>
      </trkpt>
      <trkpt lat="46.53051" lon="0.08388">
        <ele>154.23</ele>
        <time>2023-06-21T00:20:48.941Z</time>
      </trkpt>
      <trkpt lat="46.53065" lon="0.08385">
        <ele>154.21</ele>
        <time>2023-06-21T00:21:54.738Z</time>
      </trkpt>
      <trkpt lat="46.53082" lon="0.08381">
        <ele>154.14</ele>
        <time>2023-06-21T00:23:00.538Z</time>
      </trkpt>
      <trkpt lat="46.5311" lon="0.08375">
        <ele>154.09</ele>
        <time>2023-06-21T00:24:06.343Z</time>
      </trkpt>
      <trkpt lat="46.53131" lon="0.08376">
        <ele>154.06</ele>
        <time>2023-06-21T00:25:12.151Z</time>
      </trkpt>
      <trkpt lat="46.53171" lon="0.08377">
        <ele>153.78</ele>
        <time>2023-06-21T00:26:17.966Z</time>
      </trkpt>
      <trkpt lat="46.53185" lon="0.08377">
        <ele>153.74</ele>
        <time>2023-06-21T00:27:23.783Z</time>
      </trkpt>
      <trkpt lat="46.53203" lon="0.08377">
        <ele>153.66</ele>
        <time>2023-06-21T00:28:29.603Z</time>
      </trkpt>
      <trkpt lat="46.53216" lon="0.08378">
        <ele>153.64</ele>
        <time>2023-06-21T00:29:35.425Z</time>
      </trkpt>
      <trkpt lat="46.53225" lon="0.08378">
        <ele>153.6</ele>
        <time>2023-06-21T00:30:41.248Z</time>
      </trkpt>
      <trkpt lat="46.53243" lon="0.08379">
        <ele>153.42</ele>
        <time>2023-06-21T00:31:47.074Z</time>
      </trkpt>
      <trkpt lat="46.5327" lon="0.08379">
        <ele>153.18</ele>
        <time>2023-06-21T00:32:52.904Z</time>
      </trkpt>
      <trkpt lat="46.53301" lon="0.0838">
        <ele>152.77</ele>
        <time>2023-06-21T00:33:58.739Z</time>
      </trkpt>
      <trkpt lat="46.53306" lon="0.0838">
        <ele>152.73</ele>
        <time>2023-06-21T00:35:04.575Z</time>
      </trkpt>
      <trkpt lat="46.53314" lon="0.0838">
        <ele>152.69</ele>
        <time>2023-06-21T00:36:10.412Z</time>
      </trkpt>
      <trkpt lat="46.53337" lon="0.08381">
        <ele>152.69</ele>
        <time>2023-06-21T00:37:16.253Z</time>
      </trkpt>
      <trkpt lat="46.53343" lon="0.08391">
        <ele>152.7</ele>
        <time>2023-06-21T00:38:22.095Z</time>
      </trkpt>
      <trkpt lat="46.5337" lon="0.08439">
        <ele>152.57</ele>
        <time>2023-06-21T00:39:27.944Z</time>
      </trkpt>
      <trkpt lat="46.53371" lon="0.0844">
        <ele>152.57</ele>
        <time>2023-06-21T00:40:33.794Z</time>
      </trkpt>
      <trkpt lat="46.53379" lon="0.08448">
        <ele>152.58</ele>
        <time>2023-06-21T00:41:39.645Z</time>
      </trkpt>
      <trkpt lat="46.53386" lon="0.08455">
        <ele>152.66</ele>
        <time>2023-06-21T00:42:45.498Z</time>
      </trkpt>
      <trkpt lat="46.53401" lon="0.0847">
        <ele>152.91</ele>
        <time>2023-06-21T00:43:51.353Z</time>
      </trkpt>
      <trkpt lat="46.53408" lon="0.08478">
        <ele>153</ele>
        <time>2023-06-21T00:44:57.210Z</time>
      </trkpt>
      <trkpt lat="46.53415" lon="0.08485">
        <ele>153.03</ele>
        <time>2023-06-21T00:46:03.068Z</time>
      </trkpt>
      <trkpt lat="46.5343" lon="0.085">
        <ele>153.05</ele>
        <time>2023-06-21T00:47:08.929Z</time>
      </trkpt>
      <trkpt lat="46.53445" lon="0.08515">
        <ele>153.1</ele>
        <time>2023-06-21T00:48:14.793Z</time>
      </trkpt>
      <trkpt lat="46.53463" lon="0.08534">
        <ele>153.22</ele>
        <time>2023-06-21T00:49:20.661Z</time>
      </trkpt>
      <trkpt lat="46.53467" lon="0.08538">
        <ele>153.25</ele>
        <time>2023-06-21T00:50:26.529Z</time>
      </trkpt>
      <trkpt lat="46.53478" lon="0.08548">
        <ele>153.35</ele>
        <time>2023-06-21T00:51:32.399Z</time>
      </trkpt>
      <trkpt lat="46.53486" lon="0.08554">
        <ele>153.38</ele>
        <time>2023-06-21T00:52:38.271Z</time>
      </trkpt>
      <trkpt lat="46.53497" lon="0.08564">
        <ele>153.36</ele>
        <time>2023-06-21T00:53:44.145Z</time>
      </trkpt>
      <trkpt lat="46.53513" lon="0.08578">
        <ele>153.24</ele>
        <time>2023-06-21T00:54:50.022Z</time>
      </trkpt>
      <trkpt lat="46.5352" lon="0.08584">
        <ele>153.2</ele>
        <time>2023-06-21T00:55:55.900Z</time>
      </trkpt>
      <trkpt lat="46.5354" lon="0.08601">
        <ele>153.23</ele>
        <time>2023-06-21T00:57:01.782Z</time>
      </trkpt>
      <trkpt lat="46.53551" lon="0.08611">
        <ele>153.22</ele>
        <time>2023-06-21T00:58:07.666Z</time>
      </trkpt>
      <trkpt lat="46.53559" lon="0.08618">
        <ele>153.16</ele>
        <time>2023-06-21T00:59:13.551Z</time>
      </trkpt>
      <trkpt lat="46.53578" lon="0.08634">
        <ele>152.91</ele>
        <time>2023-06-21T01:00:19.440Z</time>
      </trkpt>
      <trkpt lat="46.53593" lon="0.08648">
        <ele>152.83</ele>
        <time>2023-06-21T01:01:25.332Z</time>
      </trkpt>
      <trkpt lat="46.53595" lon="0.08649">
        <ele>152.84</ele>
        <time>2023-06-21T01:02:31.224Z</time>
      </trkpt>
      <trkpt lat="46.53614" lon="0.08671">
        <ele>152.99</ele>
        <time>2023-06-21T01:03:37.120Z</time>
      </trkpt>
      <trkpt lat="46.5363" lon="0.08689">
        <ele>153.07</ele>
        <time>2023-06-21T01:04:43.019Z</time>
      </trkpt>
      <trkpt lat="46.53647" lon="0.08715">
        <ele>153.18</ele>
        <time>2023-06-21T01:05:48.922Z</time>
      </trkpt>
      <trkpt lat="46.53654" lon="0.08724">
        <ele>153.18</ele>
        <time>2023-06-21T01:06:54.827Z</time>
      </trkpt>
      <trkpt lat="46.53668" lon="0.08746">
        <ele>153.05</ele>
        <time>2023-06-21T01:08:00.735Z</time>
      </trkpt>
      <trkpt lat="46.53669" lon="0.08748">
        <ele>153.05</ele>
        <time>2023-06-21T01:09:06.643Z</time>
      </trkpt>
      <trkpt lat="46.53673" lon="0.08759">
        <ele>153.03</ele>
        <time>2023-06-21T01:10:12.553Z</time>
      </trkpt>
      <trkpt lat="46.5368" lon="0.08776">
        <ele>153.12</ele>
        <time>2023-06-21T01:11:18.465Z</time>
      </trkpt>
      <trkpt lat="46.53693" lon="0.0881">
        <ele>153.34</ele>
        <time>2023-06-21T01:12:24.381Z</time>
      </trkpt>
      <trkpt lat="46.53697" lon="0.08821">
        <ele>153.38</ele>
        <time>2023-06-21T01:13:30.299Z</time>
      </trkpt>
      <trkpt lat="46.53702" lon="0.08833">
        <ele>153.35</ele>
        <time>2023-06-21T01:14:36.218Z</time>
      </trkpt>
      <trkpt lat="46.53713" lon="0.08861">
        <ele>153.19</ele>
        <time>2023-06-21T01:15:42.141Z</time>
      </trkpt>
      <trkpt lat="46.53717" lon="0.08872">
        <ele>153.15</ele>
        <time>2023-06-21T01:16:48.065Z</time>
      </trkpt>
      <trkpt lat="46.53737" lon="0.08923">
        <ele>153.21</ele>
        <time>2023-06-21T01:17:53.996Z</time>
      </trkpt>
      <trkpt lat="46.53743" lon="0.0894">
        <ele>153.27</ele>
        <time>2023-06-21T01:18:59.929Z</time>
      </trkpt>
      <trkpt lat="46.53748" lon="0.08952">
        <ele>153.36</ele>
        <time>2023-06-21T01:20:05.863Z</time>
      </trkpt>
      <trkpt lat="46.53753" lon="0.08969">
        <ele>153.5</ele>
        <time>2023-06-21T01:21:11.799Z</time>
      </trkpt>
      <trkpt lat="46.53761" lon="0.08993">
        <ele>153.62</ele>
        <time>2023-06-21T01:22:17.738Z</time>
      </trkpt>
      <trkpt lat="46.53764" lon="0.09005">
        <ele>153.6</ele>
        <time>2023-06-21T01:23:23.679Z</time>
      </trkpt>
      <trkpt lat="46.53766" lon="0.0901">
        <ele>153.56</ele>
        <time>2023-06-21T01:24:29.620Z</time>
      </trkpt>
      <trkpt lat="46.53777" lon="0.09046">
        <ele>153.23</ele>
        <time>2023-06-21T01:25:35.566Z</time>
      </trkpt>
      <trkpt lat="46.53783" lon="0.09063">
        <ele>153.13</ele>
        <time>2023-06-21T01:26:41.514Z</time>
      </trkpt>
      <trkpt lat="46.5379" lon="0.09087">
        <ele>153.07</ele>
        <time>2023-06-21T01:27:47.465Z</time>
      </trkpt>
      <trkpt lat="46.53797" lon="0.09111">
        <ele>153.06</ele>
        <time>2023-06-21T01:28:53.418Z</time>
      </trkpt>
      <trkpt lat="46.538" lon="0.09119">
        <ele>153.03</ele>
        <time>2023-06-21T01:29:59.372Z</time>
      </trkpt>
      <trkpt lat="46.53801" lon="0.09123">
        <ele>153.02</ele>
        <time>2023-06-21T01:31:05.327Z</time>
      </trkpt>
      <trkpt lat="46.53806" lon="0.09141">
        <ele>152.92</ele>
        <time>2023-06-21T01:32:11.284Z</time>
      </trkpt>
      <trkpt lat="46.53813" lon="0.09167">
        <ele>152.86</ele>
        <time>2023-06-21T01:33:17.244Z</time>
      </trkpt>
      <trkpt lat="46.5382" lon="0.09161">
        <ele>152.83</ele>
        <time>2023-06-21T01:34:23.205Z</time>
      </trkpt>
      <trkpt lat="46.53825" lon="0.09145">
        <ele>152.8</ele>
        <time>2023-06-21T01:35:29.168Z</time>
      </trkpt>
      <trkpt lat="46.53829" lon="0.09132">
        <ele>152.79</ele>
        <time>2023-06-21T01:36:35.133Z</time>
      </trkpt>
      <trkpt lat="46.53846" lon="0.09128">
        <ele>152.78</ele>
        <time>2023-06-21T01:37:41.101Z</time>
      </trkpt>
      <trkpt lat="46.53855" lon="0.09125">
        <ele>152.75</ele>
        <time>2023-06-21T01:38:47.070Z</time>
      </trkpt>
      <trkpt lat="46.53863" lon="0.09123">
        <ele>152.7</ele>
        <time>2023-06-21T01:39:53.041Z</time>
      </trkpt>
      <trkpt lat="46.53885" lon="0.09117">
        <ele>152.49</ele>
        <time>2023-06-21T01:40:59.015Z</time>
      </trkpt>
      <trkpt lat="46.53925" lon="0.09107">
        <ele>152.29</ele>
        <time>2023-06-21T01:42:04.996Z</time>
      </trkpt>
      <trkpt lat="46.53928" lon="0.09106">
        <ele>152.25</ele>
        <time>2023-06-21T01:43:10.977Z</time>
      </trkpt>
      <trkpt lat="46.53934" lon="0.09106">
        <ele>152.2</ele>
        <time>2023-06-21T01:44:16.959Z</time>
      </trkpt>
      <trkpt lat="46.53951" lon="0.09107">
        <ele>151.92</ele>
        <time>2023-06-21T01:45:22.944Z</time>
      </trkpt>
      <trkpt lat="46.53969" lon="0.09107">
        <ele>151.71</ele>
        <time>2023-06-21T01:46:28.932Z</time>
      </trkpt>
      <trkpt lat="46.53987" lon="0.09108">
        <ele>151.43</ele>
        <time>2023-06-21T01:47:34.923Z</time>
      </trkpt>
      <trkpt lat="46.53995" lon="0.09112">
        <ele>151.29</ele>
        <time>2023-06-21T01:48:40.915Z</time>
      </trkpt>
      <trkpt lat="46.54029" lon="0.09129">
        <ele>150.8</ele>
        <time>2023-06-21T01:49:46.913Z</time>
      </trkpt>
      <trkpt lat="46.54037" lon="0.09133">
        <ele>150.7</ele>
        <time>2023-06-21T01:50:52.912Z</time>
      </trkpt>
      <trkpt lat="46.54042" lon="0.09135">
        <ele>150.65</ele>
        <time>2023-06-21T01:51:58.912Z</time>
      </trkpt>
      <trkpt lat="46.54057" lon="0.0914">
        <ele>150.52</ele>
        <time>2023-06-21T01:53:04.914Z</time>
      </trkpt>
      <trkpt lat="46.54064" lon="0.09141">
        <ele>150.47</ele>
        <time>2023-06-21T01:54:10.917Z</time>
      </trkpt>
      <trkpt lat="46.54073" lon="0.09142">
        <ele>150.34</ele>
        <time>2023-06-21T01:55:16.922Z</time>
      </trkpt>
      <trkpt lat="46.54073" lon="0.09142">
        <ele>150.34</ele>
        <time>2023-06-21T01:56:22.927Z</time>
      </trkpt>
      <trkpt lat="46.54081" lon="0.0914">
        <ele>150.17</ele>
        <time>2023-06-21T01:57:28.933Z</time>
      </trkpt>
      <trkpt lat="46.54112" lon="0.09135">
        <ele>149.81</ele>
        <time>2023-06-21T01:58:34.944Z</time>
      </trkpt>
      <trkpt lat="46.54133" lon="0.09131">
        <ele>149.65</ele>
        <time>2023-06-21T01:59:40.959Z</time>
      </trkpt>
      <trkpt lat="46.54139" lon="0.09132">
        <ele>149.61</ele>
        <time>2023-06-21T02:00:46.975Z</time>
      </trkpt>
      <trkpt lat="46.54152" lon="0.09133">
        <ele>149.39</ele>
        <time>2023-06-21T02:01:52.993Z</time>
      </trkpt>
      <trkpt lat="46.54161" lon="0.09134">
        <ele>149.28</ele>
        <time>2023-06-21T02:02:59.012Z</time>
      </trkpt>
      <trkpt lat="46.54188" lon="0.09137">
        <ele>149.06</ele>
        <time>2023-06-21T02:04:05.035Z</time>
      </trkpt>
      <trkpt lat="46.54192" lon="0.09137">
        <ele>149.03</ele>
        <time>2023-06-21T02:05:11.059Z</time>
      </trkpt>
      <trkpt lat="46.54197" lon="0.09138">
        <ele>149.01</ele>
        <time>2023-06-21T02:06:17.084Z</time>
      </trkpt>
      <trkpt lat="46.54205" lon="0.09139">
        <ele>149</ele>
        <time>2023-06-21T02:07:23.110Z</time>
      </trkpt>
      <trkpt lat="46.54223" lon="0.09142">
        <ele>149.04</ele>
        <time>2023-06-21T02:08:29.139Z</time>
      </trkpt>
      <trkpt lat="46.54229" lon="0.09143">
        <ele>149.06</ele>
        <time>2023-06-21T02:09:35.169Z</time>
      </trkpt>
      <trkpt lat="46.54243" lon="0.0915">
        <ele>149.11</ele>
        <time>2023-06-21T02:10:41.201Z</time>
      </trkpt>
      <trkpt lat="46.54256" lon="0.09164">
        <ele>149.17</ele>
        <time>2023-06-21T02:11:47.236Z</time>
      </trkpt>
      <trkpt lat="46.54261" lon="0.09172">
        <ele>149.2</ele>
        <time>2023-06-21T02:12:53.272Z</time>
      </trkpt>
      <trkpt lat="46.54268" lon="0.09184">
        <ele>149.2</ele>
        <time>2023-06-21T02:13:59.310Z</time>
      </trkpt>
      <trkpt lat="46.5427" lon="0.09187">
        <ele>149.2</ele>
        <time>2023-06-21T02:15:05.348Z</time>
      </trkpt>
      <trkpt lat="46.54279" lon="0.09204">
        <ele>149.17</ele>
        <time>2023-06-21T02:16:11.389Z</time>
      </trkpt>
      <trkpt lat="46.54282" lon="0.09213">
        <ele>149.17</ele>
        <time>2023-06-21T02:17:17.431Z</time>
      </trkpt>
      <trkpt lat="46.54288" lon="0.09227">
        <ele>149.18</ele>
        <time>2023-06-21T02:18:23.475Z</time>
      </trkpt>
      <trkpt lat="46.5429" lon="0.09236">
        <ele>149.19</ele>
        <time>2023-06-21T02:19:29.520Z</time>
      </trkpt>
      <trkpt lat="46.54293" lon="0.09245">
        <ele>149.18</ele>
        <time>2023-06-21T02:20:35.566Z</time>
      </trkpt>
      <trkpt lat="46.54294" lon="0.09267">
        <ele>149.16</ele>
        <time>2023-06-21T02:21:41.614Z</time>
      </trkpt>
      <trkpt lat="46.54294" lon="0.09287">
        <ele>149.11</ele>
        <time>2023-06-21T02:22:47.664Z</time>
      </trkpt>
      <trkpt lat="46.54294" lon="0.09287">
        <ele>149.11</ele>
        <time>2023-06-21T02:23:53.714Z</time>
      </trkpt>
      <trkpt lat="46.54298" lon="0.0931">
        <ele>149.04</ele>
        <time>2023-06-21T02:24:59.767Z</time>
      </trkpt>
      <trkpt lat="46.543" lon="0.09317">
        <ele>149.02</ele>
        <time>2023-06-21T02:26:05.821Z</time>
      </trkpt>
      <trkpt lat="46.54304" lon="0.09328">
        <ele>148.96</ele>
        <time>2023-06-21T02:27:11.876Z</time>
      </trkpt>
      <trkpt lat="46.54316" lon="0.09348">
        <ele>148.85</ele>
        <time>2023-06-21T02:28:17.934Z</time>
      </trkpt>
      <trkpt lat="46.54316" lon="0.09348">
        <ele>148.85</ele>
        <time>2023-06-21T02:29:23.992Z</time>
      </trkpt>
      <trkpt lat="46.5433" lon="0.09363">
        <ele>148.88</ele>
        <time>2023-06-21T02:30:30.053Z</time>
      </trkpt>
      <trkpt lat="46.5434" lon="0.09374">
        <ele>148.97</ele>
        <time>2023-06-21T02:31:36.116Z</time>
      </trkpt>
      <trkpt lat="46.54343" lon="0.09378">
        <ele>148.91</ele>
        <time>2023-06-21T02:32:42.180Z</time>
      </trkpt>
      <trkpt lat="46.5435" lon="0.09386">
        <ele>148.87</ele>
        <time>2023-06-21T02:33:48.245Z</time>
      </trkpt>
      <trkpt lat="46.54357" lon="0.09394">
        <ele>148.89</ele>
        <time>2023-06-21T02:34:54.312Z</time>
      </trkpt>
      <trkpt lat="46.54362" lon="0.09399">
        <ele>148.91</ele>
        <time>2023-06-21T02:36:00.379Z</time>
      </trkpt>
      <trkpt lat="46.5437" lon="0.09413">
        <ele>148.98</ele>
        <time>2023-06-21T02:37:06.448Z</time>
      </trkpt>
      <trkpt lat="46.54375" lon="0.09423">
        <ele>149</ele>
        <time>2023-06-21T02:38:12.519Z</time>
      </trkpt>
      <trkpt lat="46.54381" lon="0.09434">
        <ele>148.98</ele>
        <time>2023-06-21T02:39:18.591Z</time>
      </trkpt>
      <trkpt lat="46.54383" lon="0.09438">
        <ele>148.94</ele>
        <time>2023-06-21T02:40:24.664Z</time>
      </trkpt>
      <trkpt lat="46.54386" lon="0.09444">
        <ele>148.89</ele>
        <time>2023-06-21T02:41:30.738Z</time>
      </trkpt>
      <trkpt lat="46.54398" lon="0.09463">
        <ele>148.67</ele>
        <time>2023-06-21T02:42:36.815Z</time>
      </trkpt>
      <trkpt lat="46.54401" lon="0.09468">
        <ele>148.63</ele>
        <time>2023-06-21T02:43:42.892Z</time>
      </trkpt>
      <trkpt lat="46.5441" lon="0.09483">
        <ele>148.56</ele>
        <time>2023-06-21T02:44:48.971Z</time>
      </trkpt>
      <trkpt lat="46.54416" lon="0.09492">
        <ele>148.48</ele>
        <time>2023-06-21T02:45:55.052Z</time>
      </trkpt>
      <trkpt lat="46.54423" lon="0.09504">
        <ele>148.34</ele>
        <time>2023-06-21T02:47:01.135Z</time>
      </trkpt>
      <trkpt lat="46.5443" lon="0.09518">
        <ele>148.2</ele>
        <time>2023-06-21T02:48:07.220Z</time>
      </trkpt>
      <trkpt lat="46.54438" lon="0.09533">
        <ele>148.08</ele>
        <time>2023-06-21T02:49:13.307Z</time>
      </trkpt>
      <trkpt lat="46.54444" lon="0.09544">
        <ele>147.98</ele>
        <time>2023-06-21T02:50:19.395Z</time>
      </trkpt>
      <trkpt lat="46.54451" lon="0.09557">
        <ele>147.83</ele>
        <time>2023-06-21T02:51:25.485Z</time>
      </trkpt>
      <trkpt lat="46.54455" lon="0.09572">
        <ele>147.69</ele>
        <time>2023-06-21T02:52:31.577Z</time>
      </trkpt>
      <trkpt lat="46.54466" lon="0.09608">
        <ele>147.22</ele>
        <time>2023-06-21T02:53:37.673Z</time>
      </trkpt>
      <trkpt lat="46.54472" lon="0.0963">
        <ele>146.86</ele>
        <time>2023-06-21T02:54:43.772Z</time>
      </trkpt>
      <trkpt lat="46.54473" lon="0.09632">
        <ele>146.84</ele>
        <time>2023-06-21T02:55:49.871Z</time>
      </trkpt>
      <trkpt lat="46.54483" lon="0.09659">
        <ele>146.55</ele>
        <time>2023-06-21T02:56:55.973Z</time>
      </trkpt>
      <trkpt lat="46.5449" lon="0.09669">
        <ele>146.42</ele>
        <time>2023-06-21T02:58:02.077Z</time>
      </trkpt>
      <trkpt lat="46.54493" lon="0.09674">
        <ele>146.32</ele>
        <time>2023-06-21T02:59:08.182Z</time>
      </trkpt>
      <trkpt lat="46.54496" lon="0.09679">
        <ele>146.19</ele>
        <time>2023-06-21T03:00:14.287Z</time>
      </trkpt>
      <trkpt lat="46.54499" lon="0.09683">
        <ele>146.03</ele>
        <time>2023-06-21T03:01:20.393Z</time>
      </trkpt>
      <trkpt lat="46.54499" lon="0.09683">
        <ele>146.03</ele>
        <time>2023-06-21T03:02:26.499Z</time>
      </trkpt>
      <trkpt lat="46.54503" lon="0.09686">
        <ele>145.83</ele>
        <time>2023-06-21T03:03:32.606Z</time>
      </trkpt>
      <trkpt lat="46.54507" lon="0.09689">
        <ele>145.59</ele>
        <time>2023-06-21T03:04:38.714Z</time>
      </trkpt>
      <trkpt lat="46.54521" lon="0.09699">
        <ele>144.72</ele>
        <time>2023-06-21T03:05:44.824Z</time>
      </trkpt>
      <trkpt lat="46.54524" lon="0.09699">
        <ele>144.57</ele>
        <time>2023-06-21T03:06:50.934Z</time>
      </trkpt>
      <trkpt lat="46.54528" lon="0.097">
        <ele>144.35</ele>
        <time>2023-06-21T03:07:57.045Z</time>
      </trkpt>
      <trkpt lat="46.54533" lon="0.09701">
        <ele>144.16</ele>
        <time>2023-06-21T03:09:03.157Z</time>
      </trkpt>
      <trkpt lat="46.54537" lon="0.09701">
        <ele>144</ele>
        <time>2023-06-21T03:10:09.270Z</time>
      </trkpt>
      <trkpt lat="46.54546" lon="0.09703">
        <ele>143.72</ele>
        <time>2023-06-21T03:11:15.384Z</time>
      </trkpt>
      <trkpt lat="46.54551" lon="0.09703">
        <ele>143.56</ele>
        <time>2023-06-21T03:12:21.499Z</time>
      </trkpt>
      <trkpt lat="46.54555" lon="0.09704">
        <ele>143.37</ele>
        <time>2023-06-21T03:13:27.614Z</time>
      </trkpt>
      <trkpt lat="46.54559" lon="0.09705">
        <ele>143.15</ele>
        <time>2023-06-21T03:14:33.730Z</time>
      </trkpt>
      <trkpt lat="46.54564" lon="0.09705">
        <ele>142.89</ele>
        <time>2023-06-21T03:15:39.847Z</time>
      </trkpt>
      <trkpt lat="46.54568" lon="0.09706">
        <ele>142.57</ele>
        <time>2023-06-21T03:16:45.965Z</time>
      </trkpt>
      <trkpt lat="46.54573" lon="0.09706">
        <ele>142.21</ele>
        <time>2023-06-21T03:17:52.083Z</time>
      </trkpt>
      <trkpt lat="46.54577" lon="0.09707">
        <ele>141.81</ele>
        <time>2023-06-21T03:18:58.202Z</time>
      </trkpt>
      <trkpt lat="46.54591" lon="0.09709">
        <ele>140.55</ele>
        <time>2023-06-21T03:20:04.323Z</time>
      </trkpt>
      <trkpt lat="46.54604" lon="0.09711">
        <ele>139.39</ele>
        <time>2023-06-21T03:21:10.446Z</time>
      </trkpt>
      <trkpt lat="46.54609" lon="0.09712">
        <ele>138.96</ele>
        <time>2023-06-21T03:22:16.570Z</time>
      </trkpt>
      <trkpt lat="46.54611" lon="0.09712">
        <ele>138.69</ele>
        <time>2023-06-21T03:23:22.694Z</time>
      </trkpt>
      <trkpt lat="46.54613" lon="0.09713">
        <ele>138.46</ele>
        <time>2023-06-21T03:24:28.819Z</time>
      </trkpt>
      <trkpt lat="46.54617" lon="0.09714">
        <ele>137.9</ele>
        <time>2023-06-21T03:25:34.945Z</time>
      </trkpt>
      <trkpt lat="46.5463" lon="0.0972">
        <ele>136.12</ele>
        <time>2023-06-21T03:26:41.073Z</time>
      </trkpt>
      <trkpt lat="46.54639" lon="0.09723">
        <ele>135.01</ele>
        <time>2023-06-21T03:27:47.202Z</time>
      </trkpt>
      <trkpt lat="46.54661" lon="0.09731">
        <ele>132.42</ele>
        <time>2023-06-21T03:28:53.335Z</time>
      </trkpt>
      <trkpt lat="46.54665" lon="0.09733">
        <ele>131.92</ele>
        <time>2023-06-21T03:29:59.468Z</time>
      </trkpt>
      <trkpt lat="46.54669" lon="0.09735">
        <ele>131.46</ele>
        <time>2023-06-21T03:31:05.602Z</time>
      </trkpt>
      <trkpt lat="46.54674" lon="0.09737">
        <ele>131.04</ele>
        <time>2023-06-21T03:32:11.737Z</time>
      </trkpt>
      <trkpt lat="46.54678" lon="0.09738">
        <ele>130.71</ele>
        <time>2023-06-21T03:33:17.873Z</time>
      </trkpt>
      <trkpt lat="46.54682" lon="0.0974">
        <ele>130.44</ele>
        <time>2023-06-21T03:34:24.009Z</time>
      </trkpt>
      <trkpt lat="46.54685" lon="0.09741">
        <ele>130.32</ele>
        <time>2023-06-21T03:35:30.146Z</time>
      </trkpt>
      <trkpt lat="46.54687" lon="0.09741">
        <ele>130.25</ele>
        <time>2023-06-21T03:36:36.283Z</time>
      </trkpt>
      <trkpt lat="46.54691" lon="0.09742">
        <ele>130.12</ele>
        <time>2023-06-21T03:37:42.421Z</time>
      </trkpt>
      <trkpt lat="46.54696" lon="0.09742">
        <ele>130.04</ele>
        <time>2023-06-21T03:38:48.559Z</time>
      </trkpt>
      <trkpt lat="46.54705" lon="0.09743">
        <ele>129.94</ele>
        <time>2023-06-21T03:39:54.699Z</time>
      </trkpt>
      <trkpt lat="46.54721" lon="0.09745">
        <ele>129.83</ele>
        <time>2023-06-21T03:41:00.842Z</time>
      </trkpt>
      <trkpt lat="46.54722" lon="0.09743">
        <ele>129.82</ele>
        <time>2023-06-21T03:42:06.985Z</time>
      </trkpt>
      <trkpt lat="46.54724" lon="0.09738">
        <ele>129.81</ele>
        <time>2023-06-21T03:43:13.128Z</time>
      </trkpt>
      <trkpt lat="46.54727" lon="0.09732">
        <ele>129.82</ele>
        <time>2023-06-21T03:44:19.272Z</time>
      </trkpt>
      <trkpt lat="46.5474" lon="0.09705">
        <ele>130.06</ele>
        <time>2023-06-21T03:45:25.420Z</time>
      </trkpt>
      <trkpt lat="46.54742" lon="0.097">
        <ele>130.11</ele>
        <time>2023-06-21T03:46:31.569Z</time>
      </trkpt>
      <trkpt lat="46.54753" lon="0.09671">
        <ele>130.46</ele>
        <time>2023-06-21T03:47:37.721Z</time>
      </trkpt>
      <trkpt lat="46.54757" lon="0.09659">
        <ele>130.53</ele>
        <time>2023-06-21T03:48:43.875Z</time>
      </trkpt>
      <trkpt lat="46.54769" lon="0.0961">
        <ele>130.81</ele>
        <time>2023-06-21T03:49:50.034Z</time>
      </trkpt>
      <trkpt lat="46.54775" lon="0.09586">
        <ele>130.9</ele>
        <time>2023-06-21T03:50:56.196Z</time>
      </trkpt>
      <trkpt lat="46.54778" lon="0.09574">
        <ele>131.03</ele>
        <time>2023-06-21T03:52:02.360Z</time>
      </trkpt>
      <trkpt lat="46.54783" lon="0.09555">
        <ele>131.34</ele>
        <time>2023-06-21T03:53:08.526Z</time>
      </trkpt>
      <trkpt lat="46.54784" lon="0.0955">
        <ele>131.41</ele>
        <time>2023-06-21T03:54:14.692Z</time>
      </trkpt>
      <trkpt lat="46.54784" lon="0.09542">
        <ele>131.51</ele>
        <time>2023-06-21T03:55:20.859Z</time>
      </trkpt>
      <trkpt lat="46.54785" lon="0.09529">
        <ele>131.62</ele>
        <time>2023-06-21T03:56:27.028Z</time>
      </trkpt>
      <trkpt lat="46.54786" lon="0.09503">
        <ele>131.75</ele>
        <time>2023-06-21T03:57:33.200Z</time>
      </trkpt>
      <trkpt lat="46.54786" lon="0.0949">
        <ele>131.85</ele>
        <time>2023-06-21T03:58:39.373Z</time>
      </trkpt>
      <trkpt lat="46.54786" lon="0.09484">
        <ele>131.92</ele>
        <time>2023-06-21T03:59:45.547Z</time>
      </trkpt>
      <trkpt lat="46.54787" lon="0.09471">
        <ele>132.11</ele>
        <time>2023-06-21T04:00:51.722Z</time>
      </trkpt>
      <trkpt lat="46.54788" lon="0.09451">
        <ele>132.44</ele>
        <time>2023-06-21T04:01:57.899Z</time>
      </trkpt>
      <trkpt lat="46.54788" lon="0.09445">
        <ele>132.51</ele>
        <time>2023-06-21T04:03:04.077Z</time>
      </trkpt>
      <trkpt lat="46.54788" lon="0.09438">
        <ele>132.55</ele>
        <time>2023-06-21T04:04:10.256Z</time>
      </trkpt>
      <trkpt lat="46.54789" lon="0.09419">
        <ele>132.49</ele>
        <time>2023-06-21T04:05:16.437Z</time>
      </trkpt>
      <trkpt lat="46.54789" lon="0.09412">
        <ele>132.5</ele>
        <time>2023-06-21T04:06:22.619Z</time>
      </trkpt>
      <trkpt lat="46.54789" lon="0.09406">
        <ele>132.53</ele>
        <time>2023-06-21T04:07:28.801Z</time>
      </trkpt>
      <trkpt lat="46.5479" lon="0.09386">
        <ele>132.68</ele>
        <time>2023-06-21T04:08:34.986Z</time>
      </trkpt>
      <trkpt lat="46.5479" lon="0.0938">
        <ele>132.7</ele>
        <time>2023-06-21T04:09:41.171Z</time>
      </trkpt>
      <trkpt lat="46.54791" lon="0.09354">
        <ele>132.7</ele>
        <time>2023-06-21T04:10:47.359Z</time>
      </trkpt>
      <trkpt lat="46.54794" lon="0.09349">
        <ele>132.71</ele>
        <time>2023-06-21T04:11:53.548Z</time>
      </trkpt>
      <trkpt lat="46.548" lon="0.09339">
        <ele>132.67</ele>
        <time>2023-06-21T04:12:59.738Z</time>
      </trkpt>
      <trkpt lat="46.54808" lon="0.09325">
        <ele>132.55</ele>
        <time>2023-06-21T04:14:05.930Z</time>
      </trkpt>
      <trkpt lat="46.54809" lon="0.09324">
        <ele>132.54</ele>
        <time>2023-06-21T04:15:12.122Z</time>
      </trkpt>
      <trkpt lat="46.54813" lon="0.09312">
        <ele>132.51</ele>
        <time>2023-06-21T04:16:18.316Z</time>
      </trkpt>
      <trkpt lat="46.54815" lon="0.09306">
        <ele>132.54</ele>
        <time>2023-06-21T04:17:24.511Z</time>
      </trkpt>
      <trkpt lat="46.54817" lon="0.09301">
        <ele>132.61</ele>
        <time>2023-06-21T04:18:30.706Z</time>
      </trkpt>
      <trkpt lat="46.54819" lon="0.09295">
        <ele>132.72</ele>
        <time>2023-06-21T04:19:36.902Z</time>
      </trkpt>
      <trkpt lat="46.54821" lon="0.09289">
        <ele>132.88</ele>
        <time>2023-06-21T04:20:43.099Z</time>
      </trkpt>
      <trkpt lat="46.54823" lon="0.09283">
        <ele>133.07</ele>
        <time>2023-06-21T04:21:49.297Z</time>
      </trkpt>
      <trkpt lat="46.54825" lon="0.09278">
        <ele>133.32</ele>
        <time>2023-06-21T04:22:55.495Z</time>
      </trkpt>
      <trkpt lat="46.54826" lon="0.09276">
        <ele>133.39</ele>
        <time>2023-06-21T04:24:01.693Z</time>
      </trkpt>
      <trkpt lat="46.54828" lon="0.09272">
        <ele>133.61</ele>
        <time>2023-06-21T04:25:07.892Z</time>
      </trkpt>
      <trkpt lat="46.5483" lon="0.09267">
        <ele>133.94</ele>
        <time>2023-06-21T04:26:14.092Z</time>
      </trkpt>
      <trkpt lat="46.54833" lon="0.09261">
        <ele>134.3</ele>
        <time>2023-06-21T04:27:20.292Z</time>
      </trkpt>
      <trkpt lat="46.54838" lon="0.09249">
        <ele>135.17</ele>
        <time>2023-06-21T04:28:26.494Z</time>
      </trkpt>
      <trkpt lat="46.54847" lon="0.09237">
        <ele>136.3</ele>
        <time>2023-06-21T04:29:32.698Z</time>
      </trkpt>
      <trkpt lat="46.54857" lon="0.09225">
        <ele>130.9</ele>
        <time>2023-06-21T04:30:38.904Z</time>
      </trkpt>
      <trkpt lat="46.54866" lon="0.09212">
        <ele>125.73</ele>
        <time>2023-06-21T04:31:45.112Z</time>
      </trkpt>
      <trkpt lat="46.54869" lon="0.09209">
        <ele>126.15</ele>
        <time>2023-06-21T04:32:51.321Z</time>
      </trkpt>
      <trkpt lat="46.54873" lon="0.09204">
        <ele>126.77</ele>
        <time>2023-06-21T04:33:57.530Z</time>
      </trkpt>
      <trkpt lat="46.54876" lon="0.09199">
        <ele>127.36</ele>
        <time>2023-06-21T04:35:03.740Z</time>
      </trkpt>
      <trkpt lat="46.54885" lon="0.09186">
        <ele>129.3</ele>
        <time>2023-06-21T04:36:09.952Z</time>
      </trkpt>
      <trkpt lat="46.54889" lon="0.09181">
        <ele>129.89</ele>
        <time>2023-06-21T04:37:16.165Z</time>
      </trkpt>
      <trkpt lat="46.54892" lon="0.09177">
        <ele>130.43</ele>
        <time>2023-06-21T04:38:22.379Z</time>
      </trkpt>
      <trkpt lat="46.54898" lon="0.09168">
        <ele>131.44</ele>
        <time>2023-06-21T04:39:28.594Z</time>
      </trkpt>
      <trkpt lat="46.54901" lon="0.09164">
        <ele>131.89</ele>
        <time>2023-06-21T04:40:34.810Z</time>
      </trkpt>
      <trkpt lat="46.54904" lon="0.09159">
        <ele>132.3</ele>
        <time>2023-06-21T04:41:41.027Z</time>
      </trkpt>
      <trkpt lat="46.54908" lon="0.09155">
        <ele>132.64</ele>
        <time>2023-06-21T04:42:47.244Z</time>
      </trkpt>
      <trkpt lat="46.54911" lon="0.0915">
        <ele>132.92</ele>
        <time>2023-06-21T04:43:53.462Z</time>
      </trkpt>
      <trkpt lat="46.54913" lon="0.09147">
        <ele>133.08</ele>
        <time>2023-06-21T04:44:59.680Z</time>
      </trkpt>
      <trkpt lat="46.54914" lon="0.09146">
        <ele>133.14</ele>
        <time>2023-06-21T04:46:05.899Z</time>
      </trkpt>
      <trkpt lat="46.54916" lon="0.0914">
        <ele>133.3</ele>
        <time>2023-06-21T04:47:12.118Z</time>
      </trkpt>
      <trkpt lat="46.54918" lon="0.09135">
        <ele>133.43</ele>
        <time>2023-06-21T04:48:18.338Z</time>
      </trkpt>
      <trkpt lat="46.54921" lon="0.09129">
        <ele>133.53</ele>
        <time>2023-06-21T04:49:24.559Z</time>
      </trkpt>
      <trkpt lat="46.54923" lon="0.09124">
        <ele>133.58</ele>
        <time>2023-06-21T04:50:30.780Z</time>
      </trkpt>
      <trkpt lat="46.54928" lon="0.09113">
        <ele>133.62</ele>
        <time>2023-06-21T04:51:37.003Z</time>
      </trkpt>
      <trkpt lat="46.5494" lon="0.09087">
        <ele>133.62</ele>
        <time>2023-06-21T04:52:43.229Z</time>
      </trkpt>
      <trkpt lat="46.54945" lon="0.09076">
        <ele>133.6</ele>
        <time>2023-06-21T04:53:49.457Z</time>
      </trkpt>
      <trkpt lat="46.54955" lon="0.09054">
        <ele>133.48</ele>
        <time>2023-06-21T04:54:55.688Z</time>
      </trkpt>
      <trkpt lat="46.54964" lon="0.09033">
        <ele>133.42</ele>
        <time>2023-06-21T04:56:01.921Z</time>
      </trkpt>
      <trkpt lat="46.54974" lon="0.09011">
        <ele>133.31</ele>
        <time>2023-06-21T04:57:08.157Z</time>
      </trkpt>
      <trkpt lat="46.54989" lon="0.08979">
        <ele>133.25</ele>
        <time>2023-06-21T04:58:14.398Z</time>
      </trkpt>
      <trkpt lat="46.5499" lon="0.08976">
        <ele>133.28</ele>
        <time>2023-06-21T04:59:20.639Z</time>
      </trkpt>
      <trkpt lat="46.54995" lon="0.0897">
        <ele>133.38</ele>
        <time>2023-06-21T05:00:26.881Z</time>
      </trkpt>
      <trkpt lat="46.54997" lon="0.08967">
        <ele>133.43</ele>
        <time>2023-06-21T05:01:33.124Z</time>
      </trkpt>
      <trkpt lat="46.55003" lon="0.08963">
        <ele>133.55</ele>
        <time>2023-06-21T05:02:39.368Z</time>
      </trkpt>
      <trkpt lat="46.55003" lon="0.08963">
        <ele>133.55</ele>
        <time>2023-06-21T05:03:45.612Z</time>
      </trkpt>
      <trkpt lat="46.55007" lon="0.08964">
        <ele>133.66</ele>
        <time>2023-06-21T05:04:51.856Z</time>
      </trkpt>
      <trkpt lat="46.55009" lon="0.08964">
        <ele>133.74</ele>
        <time>2023-06-21T05:05:58.101Z</time>
      </trkpt>
      <trkpt lat="46.55015" lon="0.08967">
        <ele>134</ele>
        <time>2023-06-21T05:07:04.347Z</time>
      </trkpt>
      <trkpt lat="46.55015" lon="0.08967">
        <ele>134</ele>
        <time>2023-06-21T05:08:10.593Z</time>
      </trkpt>
      <trkpt lat="46.55027" lon="0.08977">
        <ele>134.6</ele>
        <time>2023-06-21T05:09:16.841Z</time>
      </trkpt>
      <trkpt lat="46.55038" lon="0.08987">
        <ele>135.16</ele>
        <time>2023-06-21T05:10:23.091Z</time>
      </trkpt>
      <trkpt lat="46.5505" lon="0.08997">
        <ele>135.79</ele>
        <time>2023-06-21T05:11:29.343Z</time>
      </trkpt>
      <trkpt lat="46.55054" lon="0.09">
        <ele>136.04</ele>
        <time>2023-06-21T05:12:35.596Z</time>
      </trkpt>
      <trkpt lat="46.55058" lon="0.09003">
        <ele>136.33</ele>
        <time>2023-06-21T05:13:41.849Z</time>
      </trkpt>
      <trkpt lat="46.55069" lon="0.09013">
        <ele>137.29</ele>
        <time>2023-06-21T05:14:48.105Z</time>
      </trkpt>
      <trkpt lat="46.55077" lon="0.09019">
        <ele>137.89</ele>
        <time>2023-06-21T05:15:54.362Z</time>
      </trkpt>
      <trkpt lat="46.55089" lon="0.09029">
        <ele>138.76</ele>
        <time>2023-06-21T05:17:00.621Z</time>
      </trkpt>
      <trkpt lat="46.55096" lon="0.09036">
        <ele>139.3</ele>
        <time>2023-06-21T05:18:06.882Z</time>
      </trkpt>
      <trkpt lat="46.55104" lon="0.09042">
        <ele>139.78</ele>
        <time>2023-06-21T05:19:13.144Z</time>
      </trkpt>
      <trkpt lat="46.55108" lon="0.09046">
        <ele>139.99</ele>
        <time>2023-06-21T05:20:19.407Z</time>
      </trkpt>
      <trkpt lat="46.55127" lon="0.09062">
        <ele>140.91</ele>
        <time>2023-06-21T05:21:25.673Z</time>
      </trkpt>
      <trkpt lat="46.55143" lon="0.09075">
        <ele>141.57</ele>
        <time>2023-06-21T05:22:31.942Z</time>
      </trkpt>
      <trkpt lat="46.5515" lon="0.09081">
        <ele>141.84</ele>
        <time>2023-06-21T05:23:38.213Z</time>
      </trkpt>
      <trkpt lat="46.55174" lon="0.09101">
        <ele>142.55</ele>
        <time>2023-06-21T05:24:44.488Z</time>
      </trkpt>
      <trkpt lat="46.55193" lon="0.09117">
        <ele>143.02</ele>
        <time>2023-06-21T05:25:50.767Z</time>
      </trkpt>
      <trkpt lat="46.55212" lon="0.09134">
        <ele>143.59</ele>
        <time>2023-06-21T05:26:57.049Z</time>
      </trkpt>
      <trkpt lat="46.55228" lon="0.09147">
        <ele>144.08</ele>
        <time>2023-06-21T05:28:03.334Z</time>
      </trkpt>
      <trkpt lat="46.55228" lon="0.09147">
        <ele>144.08</ele>
        <time>2023-06-21T05:29:09.619Z</time>
      </trkpt>
      <trkpt lat="46.55226" lon="0.09153">
        <ele>144.18</ele>
        <time>2023-06-21T05:30:15.905Z</time>
      </trkpt>
      <trkpt lat="46.55223" lon="0.09164">
        <ele>144.34</ele>
        <time>2023-06-21T05:31:22.192Z</time>
      </trkpt>
      <trkpt lat="46.55221" lon="0.0917">
        <ele>144.4</ele>
        <time>2023-06-21T05:32:28.480Z</time>
      </trkpt>
      <trkpt lat="46.55217" lon="0.09182">
        <ele>144.46</ele>
        <time>2023-06-21T05:33:34.769Z</time>
      </trkpt>
      <trkpt lat="46.5521" lon="0.09205">
        <ele>144.54</ele>
        <time>2023-06-21T05:34:41.061Z</time>
      </trkpt>
      <trkpt lat="46.5521" lon="0.09206">
        <ele>144.54</ele>
        <time>2023-06-21T05:35:47.353Z</time>
      </trkpt>
      <trkpt lat="46.55208" lon="0.09219">
        <ele>144.66</ele>
        <time>2023-06-21T05:36:53.647Z</time>
      </trkpt>
      <trkpt lat="46.55207" lon="0.09225">
        <ele>144.76</ele>
        <time>2023-06-21T05:37:59.941Z</time>
      </trkpt>
      <trkpt lat="46.55206" lon="0.09231">
        <ele>144.89</ele>
        <time>2023-06-21T05:39:06.236Z</time>
      </trkpt>
      <trkpt lat="46.55204" lon="0.09244">
        <ele>145.17</ele>
        <time>2023-06-21T05:40:12.532Z</time>
      </trkpt>
      <trkpt lat="46.55202" lon="0.09263">
        <ele>145.62</ele>
        <time>2023-06-21T05:41:18.831Z</time>
      </trkpt>
      <trkpt lat="46.55201" lon="0.09269">
        <ele>145.75</ele>
        <time>2023-06-21T05:42:25.130Z</time>
      </trkpt>
      <trkpt lat="46.55201" lon="0.09269">
        <ele>145.75</ele>
        <time>2023-06-21T05:43:31.429Z</time>
      </trkpt>
      <trkpt lat="46.55207" lon="0.09272">
        <ele>145.88</ele>
        <time>2023-06-21T05:44:37.729Z</time>
      </trkpt>
      <trkpt lat="46.55209" lon="0.09274">
        <ele>145.96</ele>
        <time>2023-06-21T05:45:44.030Z</time>
      </trkpt>
      <trkpt lat="46.55219" lon="0.09284">
        <ele>146.17</ele>
        <time>2023-06-21T05:46:50.333Z</time>
      </trkpt>
      <trkpt lat="46.55234" lon="0.09303">
        <ele>146.55</ele>
        <time>2023-06-21T05:47:56.639Z</time>
      </trkpt>
      <trkpt lat="46.55237" lon="0.09308">
        <ele>146.62</ele>
        <time>2023-06-21T05:49:02.945Z</time>
      </trkpt>
      <trkpt lat="46.55254" lon="0.09329">
        <ele>146.88</ele>
        <time>2023-06-21T05:50:09.255Z</time>
      </trkpt>
      <trkpt lat="46.55257" lon="0.09334">
        <ele>146.96</ele>
        <time>2023-06-21T05:51:15.566Z</time>
      </trkpt>
      <trkpt lat="46.55267" lon="0.09347">
        <ele>147.26</ele>
        <time>2023-06-21T05:52:21.879Z</time>
      </trkpt>
      <trkpt lat="46.55274" lon="0.09355">
        <ele>147.44</ele>
        <time>2023-06-21T05:53:28.193Z</time>
      </trkpt>
      <trkpt lat="46.5528" lon="0.09364">
        <ele>147.58</ele>
        <time>2023-06-21T05:54:34.509Z</time>
      </trkpt>
      <trkpt lat="46.55284" lon="0.09369">
        <ele>147.64</ele>
        <time>2023-06-21T05:55:40.826Z</time>
      </trkpt>
      <trkpt lat="46.55287" lon="0.09371">
        <ele>147.69</ele>
        <time>2023-06-21T05:56:47.143Z</time>
      </trkpt>
      <trkpt lat="46.55292" lon="0.09374">
        <ele>147.73</ele>
        <time>2023-06-21T05:57:53.461Z</time>
      </trkpt>
      <trkpt lat="46.55305" lon="0.09378">
        <ele>147.84</ele>
        <time>2023-06-21T05:58:59.781Z</time>
      </trkpt>
      <trkpt lat="46.55305" lon="0.09378">
        <ele>147.84</ele>
        <time>2023-06-21T06:00:06.101Z</time>
      </trkpt>
      <trkpt lat="46.55327" lon="0.0938">
        <ele>147.93</ele>
        <time>2023-06-21T06:01:12.425Z</time>
      </trkpt>
      <trkpt lat="46.55337" lon="0.09381">
        <ele>147.91</ele>
        <time>2023-06-21T06:02:18.750Z</time>
      </trkpt>
      <trkpt lat="46.55345" lon="0.09383">
        <ele>147.9</ele>
        <time>2023-06-21T06:03:25.077Z</time>
      </trkpt>
      <trkpt lat="46.55362" lon="0.09388">
        <ele>147.94</ele>
        <time>2023-06-21T06:04:31.406Z</time>
      </trkpt>
      <trkpt lat="46.55362" lon="0.09388">
        <ele>147.94</ele>
        <time>2023-06-21T06:05:37.735Z</time>
      </trkpt>
      <trkpt lat="46.5538" lon="0.09403">
        <ele>147.87</ele>
        <time>2023-06-21T06:06:44.068Z</time>
      </trkpt>
      <trkpt lat="46.55381" lon="0.09405">
        <ele>147.87</ele>
        <time>2023-06-21T06:07:50.401Z</time>
      </trkpt>
      <trkpt lat="46.55392" lon="0.09417">
        <ele>147.88</ele>
        <time>2023-06-21T06:08:56.736Z</time>
      </trkpt>
      <trkpt lat="46.55399" lon="0.09425">
        <ele>147.86</ele>
        <time>2023-06-21T06:10:03.073Z</time>
      </trkpt>
      <trkpt lat="46.55407" lon="0.09425">
        <ele>147.86</ele>
        <time>2023-06-21T06:11:09.411Z</time>
      </trkpt>
      <trkpt lat="46.55408" lon="0.09424">
        <ele>147.86</ele>
        <time>2023-06-21T06:12:15.749Z</time>
      </trkpt>
      <trkpt lat="46.55423" lon="0.09401">
        <ele>147.78</ele>
        <time>2023-06-21T06:13:22.091Z</time>
      </trkpt>
      <trkpt lat="46.55425" lon="0.09399">
        <ele>147.77</ele>
        <time>2023-06-21T06:14:28.433Z</time>
      </trkpt>
      <trkpt lat="46.55432" lon="0.09386">
        <ele>147.77</ele>
        <time>2023-06-21T06:15:34.777Z</time>
      </trkpt>
      <trkpt lat="46.55437" lon="0.09375">
        <ele>147.72</ele>
        <time>2023-06-21T06:16:41.122Z</time>
      </trkpt>
      <trkpt lat="46.55442" lon="0.09365">
        <ele>147.6</ele>
        <time>2023-06-21T06:17:47.469Z</time>
      </trkpt>
      <trkpt lat="46.55449" lon="0.09351">
        <ele>147.35</ele>
        <time>2023-06-21T06:18:53.817Z</time>
      </trkpt>
      <trkpt lat="46.5545" lon="0.09349">
        <ele>147.32</ele>
        <time>2023-06-21T06:20:00.166Z</time>
      </trkpt>
      <trkpt lat="46.5546" lon="0.09325">
        <ele>146.8</ele>
        <time>2023-06-21T06:21:06.518Z</time>
      </trkpt>
      <trkpt lat="46.55464" lon="0.09309">
        <ele>146.49</ele>
        <time>2023-06-21T06:22:12.872Z</time>
      </trkpt>
      <trkpt lat="46.55466" lon="0.09302">
        <ele>146.33</ele>
        <time>2023-06-21T06:23:19.227Z</time>
      </trkpt>
      <trkpt lat="46.55469" lon="0.09284">
        <ele>145.94</ele>
        <time>2023-06-21T06:24:25.584Z</time>
      </trkpt>
      <trkpt lat="46.55469" lon="0.09282">
        <ele>145.89</ele>
        <time>2023-06-21T06:25:31.941Z</time>
      </trkpt>
      <trkpt lat="46.5547" lon="0.09271">
        <ele>145.64</ele>
        <time>2023-06-21T06:26:38.299Z</time>
      </trkpt>
      <trkpt lat="46.55471" lon="0.09258">
        <ele>145.32</ele>
        <time>2023-06-21T06:27:44.658Z</time>
      </trkpt>
      <trkpt lat="46.55474" lon="0.09225">
        <ele>144.43</ele>
        <time>2023-06-21T06:28:51.021Z</time>
      </trkpt>
      <trkpt lat="46.55475" lon="0.0922">
        <ele>144.29</ele>
        <time>2023-06-21T06:29:57.385Z</time>
      </trkpt>
      <trkpt lat="46.55477" lon="0.09207">
        <ele>143.97</ele>
        <time>2023-06-21T06:31:03.750Z</time>
      </trkpt>
      <trkpt lat="46.55479" lon="0.09194">
        <ele>143.69</ele>
        <time>2023-06-21T06:32:10.117Z</time>
      </trkpt>
      <trkpt lat="46.55479" lon="0.09194">
        <ele>143.69</ele>
        <time>2023-06-21T06:33:16.484Z</time>
      </trkpt>
      <trkpt lat="46.55483" lon="0.09182">
        <ele>143.47</ele>
        <time>2023-06-21T06:34:22.852Z</time>
      </trkpt>
      <trkpt lat="46.55488" lon="0.09165">
        <ele>143.22</ele>
        <time>2023-06-21T06:35:29.222Z</time>
      </trkpt>
      <trkpt lat="46.55501" lon="0.09126">
        <ele>142.76</ele>
        <time>2023-06-21T06:36:35.597Z</time>
      </trkpt>
      <trkpt lat="46.55504" lon="0.09118">
        <ele>142.67</ele>
        <time>2023-06-21T06:37:41.973Z</time>
      </trkpt>
      <trkpt lat="46.55508" lon="0.09107">
        <ele>142.56</ele>
        <time>2023-06-21T06:38:48.350Z</time>
      </trkpt>
      <trkpt lat="46.55519" lon="0.09078">
        <ele>142.34</ele>
        <time>2023-06-21T06:39:54.731Z</time>
      </trkpt>
      <trkpt lat="46.55524" lon="0.09067">
        <ele>142.18</ele>
        <time>2023-06-21T06:41:01.113Z</time>
      </trkpt>
      <trkpt lat="46.55526" lon="0.09061">
        <ele>142.06</ele>
        <time>2023-06-21T06:42:07.496Z</time>
      </trkpt>
      <trkpt lat="46.55526" lon="0.09061">
        <ele>142.06</ele>
        <time>2023-06-21T06:43:13.879Z</time>
      </trkpt>
      <trkpt lat="46.55529" lon="0.0905">
        <ele>141.48</ele>
        <time>2023-06-21T06:44:20.264Z</time>
      </trkpt>
      <trkpt lat="46.55538" lon="0.09021">
        <ele>139.81</ele>
        <time>2023-06-21T06:45:26.652Z</time>
      </trkpt>
      <trkpt lat="46.55542" lon="0.09009">
        <ele>139.23</ele>
        <time>2023-06-21T06:46:33.041Z</time>
      </trkpt>
      <trkpt lat="46.55545" lon="0.08999">
        <ele>138.76</ele>
        <time>2023-06-21T06:47:39.432Z</time>
      </trkpt>
      <trkpt lat="46.55548" lon="0.08991">
        <ele>138.4</ele>
        <time>2023-06-21T06:48:45.824Z</time>
      </trkpt>
      <trkpt lat="46.55551" lon="0.0898">
        <ele>137.91</ele>
        <time>2023-06-21T06:49:52.217Z</time>
      </trkpt>
      <trkpt lat="46.55555" lon="0.08968">
        <ele>137.48</ele>
        <time>2023-06-21T06:50:58.611Z</time>
      </trkpt>
      <trkpt lat="46.55558" lon="0.0896">
        <ele>137.22</ele>
        <time>2023-06-21T06:52:05.006Z</time>
      </trkpt>
      <trkpt lat="46.55559" lon="0.08957">
        <ele>137.12</ele>
        <time>2023-06-21T06:53:11.402Z</time>
      </trkpt>
      <trkpt lat="46.55562" lon="0.08945">
        <ele>136.79</ele>
        <time>2023-06-21T06:54:17.799Z</time>
      </trkpt>
      <trkpt lat="46.55565" lon="0.08933">
        <ele>137.45</ele>
        <time>2023-06-21T06:55:24.198Z</time>
      </trkpt>
      <trkpt lat="46.55568" lon="0.0892">
        <ele>138.03</ele>
        <time>2023-06-21T06:56:30.598Z</time>
      </trkpt>
      <trkpt lat="46.55573" lon="0.08902">
        <ele>138.75</ele>
        <time>2023-06-21T06:57:37.000Z</time>
      </trkpt>
      <trkpt lat="46.55575" lon="0.08896">
        <ele>138.95</ele>
        <time>2023-06-21T06:58:43.403Z</time>
      </trkpt>
      <trkpt lat="46.55578" lon="0.08884">
        <ele>139.27</ele>
        <time>2023-06-21T06:59:49.807Z</time>
      </trkpt>
      <trkpt lat="46.5558" lon="0.08878">
        <ele>139.4</ele>
        <time>2023-06-21T07:00:56.212Z</time>
      </trkpt>
      <trkpt lat="46.55581" lon="0.08872">
        <ele>139.5</ele>
        <time>2023-06-21T07:02:02.618Z</time>
      </trkpt>
      <trkpt lat="46.55586" lon="0.08854">
        <ele>139.71</ele>
        <time>2023-06-21T07:03:09.026Z</time>
      </trkpt>
      <trkpt lat="46.55589" lon="0.08849">
        <ele>139.79</ele>
        <time>2023-06-21T07:04:15.435Z</time>
      </trkpt>
      <trkpt lat="46.55591" lon="0.08844">
        <ele>139.89</ele>
        <time>2023-06-21T07:05:21.844Z</time>
      </trkpt>
      <trkpt lat="46.556" lon="0.08829">
        <ele>140.24</ele>
        <time>2023-06-21T07:06:28.256Z</time>
      </trkpt>
      <trkpt lat="46.55608" lon="0.08813">
        <ele>140.53</ele>
        <time>2023-06-21T07:07:34.670Z</time>
      </trkpt>
      <trkpt lat="46.55608" lon="0.08813">
        <ele>140.53</ele>
        <time>2023-06-21T07:08:41.084Z</time>
      </trkpt>
      <trkpt lat="46.55616" lon="0.08798">
        <ele>140.94</ele>
        <time>2023-06-21T07:09:47.500Z</time>
      </trkpt>
      <trkpt lat="46.55619" lon="0.08794">
        <ele>141.06</ele>
        <time>2023-06-21T07:10:53.917Z</time>
      </trkpt>
      <trkpt lat="46.55634" lon="0.08769">
        <ele>141.42</ele>
        <time>2023-06-21T07:12:00.337Z</time>
      </trkpt>
      <trkpt lat="46.55645" lon="0.08749">
        <ele>141.66</ele>
        <time>2023-06-21T07:13:06.760Z</time>
      </trkpt>
      <trkpt lat="46.55654" lon="0.08734">
        <ele>141.93</ele>
        <time>2023-06-21T07:14:13.185Z</time>
      </trkpt>
      <trkpt lat="46.55656" lon="0.08729">
        <ele>142</ele>
        <time>2023-06-21T07:15:19.611Z</time>
      </trkpt>
      <trkpt lat="46.55662" lon="0.08719">
        <ele>142.08</ele>
        <time>2023-06-21T07:16:26.038Z</time>
      </trkpt>
      <trkpt lat="46.55663" lon="0.08718">
        <ele>142.08</ele>
        <time>2023-06-21T07:17:32.465Z</time>
      </trkpt>
      <trkpt lat="46.5567" lon="0.08704">
        <ele>142.09</ele>
        <time>2023-06-21T07:18:38.894Z</time>
      </trkpt>
      <trkpt lat="46.55676" lon="0.08694">
        <ele>142.13</ele>
        <time>2023-06-21T07:19:45.325Z</time>
      </trkpt>
      <trkpt lat="46.55677" lon="0.08691">
        <ele>142.18</ele>
        <time>2023-06-21T07:20:51.756Z</time>
      </trkpt>
      <trkpt lat="46.5569" lon="0.08661">
        <ele>142.77</ele>
        <time>2023-06-21T07:21:58.191Z</time>
      </trkpt>
      <trkpt lat="46.55699" lon="0.0864">
        <ele>143.14</ele>
        <time>2023-06-21T07:23:04.629Z</time>
      </trkpt>
      <trkpt lat="46.55701" lon="0.08633">
        <ele>143.25</ele>
        <time>2023-06-21T07:24:11.068Z</time>
      </trkpt>
      <trkpt lat="46.55703" lon="0.08621">
        <ele>143.46</ele>
        <time>2023-06-21T07:25:17.508Z</time>
      </trkpt>
      <trkpt lat="46.55705" lon="0.08615">
        <ele>143.59</ele>
        <time>2023-06-21T07:26:23.949Z</time>
      </trkpt>
      <trkpt lat="46.55705" lon="0.08615">
        <ele>143.59</ele>
        <time>2023-06-21T07:27:30.390Z</time>
      </trkpt>
      <trkpt lat="46.55707" lon="0.08603">
        <ele>143.89</ele>
        <time>2023-06-21T07:28:36.832Z</time>
      </trkpt>
      <trkpt lat="46.55713" lon="0.08572">
        <ele>144.71</ele>
        <time>2023-06-21T07:29:43.278Z</time>
      </trkpt>
      <trkpt lat="46.55716" lon="0.08553">
        <ele>145.1</ele>
        <time>2023-06-21T07:30:49.726Z</time>
      </trkpt>
      <trkpt lat="46.5572" lon="0.08535">
        <ele>145.4</ele>
        <time>2023-06-21T07:31:56.176Z</time>
      </trkpt>
      <trkpt lat="46.5572" lon="0.08533">
        <ele>145.41</ele>
        <time>2023-06-21T07:33:02.626Z</time>
      </trkpt>
      <trkpt lat="46.55728" lon="0.08517">
        <ele>145.65</ele>
        <time>2023-06-21T07:34:09.078Z</time>
      </trkpt>
      <trkpt lat="46.55731" lon="0.08508">
        <ele>145.78</ele>
        <time>2023-06-21T07:35:15.531Z</time>
      </trkpt>
      <trkpt lat="46.55735" lon="0.08496">
        <ele>145.95</ele>
        <time>2023-06-21T07:36:21.986Z</time>
      </trkpt>
      <trkpt lat="46.55739" lon="0.08486">
        <ele>146.16</ele>
        <time>2023-06-21T07:37:28.442Z</time>
      </trkpt>
      <trkpt lat="46.55739" lon="0.08485">
        <ele>146.19</ele>
        <time>2023-06-21T07:38:34.898Z</time>
      </trkpt>
      <trkpt lat="46.55748" lon="0.08448">
        <ele>146.97</ele>
        <time>2023-06-21T07:39:41.358Z</time>
      </trkpt>
      <trkpt lat="46.55752" lon="0.0843">
        <ele>147.3</ele>
        <time>2023-06-21T07:40:47.821Z</time>
      </trkpt>
      <trkpt lat="46.55755" lon="0.08419">
        <ele>147.47</ele>
        <time>2023-06-21T07:41:54.285Z</time>
      </trkpt>
      <trkpt lat="46.55756" lon="0.08412">
        <ele>147.59</ele>
        <time>2023-06-21T07:43:00.750Z</time>
      </trkpt>
      <trkpt lat="46.55764" lon="0.08362">
        <ele>147.61</ele>
        <time>2023-06-21T07:44:07.220Z</time>
      </trkpt>
      <trkpt lat="46.55766" lon="0.0835">
        <ele>147.6</ele>
        <time>2023-06-21T07:45:13.692Z</time>
      </trkpt>
      <trkpt lat="46.55766" lon="0.08349">
        <ele>147.6</ele>
        <time>2023-06-21T07:46:20.164Z</time>
      </trkpt>
      <trkpt lat="46.55768" lon="0.08344">
        <ele>147.57</ele>
        <time>2023-06-21T07:47:26.637Z</time>
      </trkpt>
      <trkpt lat="46.55773" lon="0.08326">
        <ele>147.4</ele>
        <time>2023-06-21T07:48:33.112Z</time>
      </trkpt>
      <trkpt lat="46.55778" lon="0.08308">
        <ele>147.26</ele>
        <time>2023-06-21T07:49:39.589Z</time>
      </trkpt>
      <trkpt lat="46.5578" lon="0.083">
        <ele>147.17</ele>
        <time>2023-06-21T07:50:46.067Z</time>
      </trkpt>
      <trkpt lat="46.55791" lon="0.08274">
        <ele>146.87</ele>
        <time>2023-06-21T07:51:52.548Z</time>
      </trkpt>
      <trkpt lat="46.55804" lon="0.08241">
        <ele>146.37</ele>
        <time>2023-06-21T07:52:59.033Z</time>
      </trkpt>
      <trkpt lat="46.55806" lon="0.08237">
        <ele>146.26</ele>
        <time>2023-06-21T07:54:05.519Z</time>
      </trkpt>
      <trkpt lat="46.55807" lon="0.08236">
        <ele>146.26</ele>
        <time>2023-06-21T07:55:12.005Z</time>
      </trkpt>
      <trkpt lat="46.55809" lon="0.08231">
        <ele>146.12</ele>
        <time>2023-06-21T07:56:18.492Z</time>
      </trkpt>
      <trkpt lat="46.55818" lon="0.08216">
        <ele>145.6</ele>
        <time>2023-06-21T07:57:24.981Z</time>
      </trkpt>
      <trkpt lat="46.55822" lon="0.08205">
        <ele>145.28</ele>
        <time>2023-06-21T07:58:31.471Z</time>
      </trkpt>
      <trkpt lat="46.55824" lon="0.082">
        <ele>145.13</ele>
        <time>2023-06-21T07:59:37.962Z</time>
      </trkpt>
      <trkpt lat="46.55824" lon="0.08199">
        <ele>145.13</ele>
        <time>2023-06-21T08:00:44.453Z</time>
      </trkpt>
      <trkpt lat="46.55833" lon="0.08169">
        <ele>144.52</ele>
        <time>2023-06-21T08:01:50.948Z</time>
      </trkpt>
      <trkpt lat="46.55837" lon="0.08157">
        <ele>144.16</ele>
        <time>2023-06-21T08:02:57.444Z</time>
      </trkpt>
      <trkpt lat="46.5584" lon="0.08145">
        <ele>143.71</ele>
        <time>2023-06-21T08:04:03.941Z</time>
      </trkpt>
      <trkpt lat="46.55841" lon="0.08142">
        <ele>143.56</ele>
        <time>2023-06-21T08:05:10.439Z</time>
      </trkpt>
      <trkpt lat="46.55844" lon="0.08133">
        <ele>143.15</ele>
        <time>2023-06-21T08:06:16.938Z</time>
      </trkpt>
      <trkpt lat="46.55846" lon="0.08128">
        <ele>142.81</ele>
        <time>2023-06-21T08:07:23.438Z</time>
      </trkpt>
      <trkpt lat="46.55848" lon="0.08122">
        <ele>142.44</ele>
        <time>2023-06-21T08:08:29.938Z</time>
      </trkpt>
      <trkpt lat="46.5585" lon="0.08116">
        <ele>142.04</ele>
        <time>2023-06-21T08:09:36.439Z</time>
      </trkpt>
      <trkpt lat="46.55852" lon="0.0811">
        <ele>141.61</ele>
        <time>2023-06-21T08:10:42.941Z</time>
      </trkpt>
      <trkpt lat="46.55856" lon="0.08099">
        <ele>140.69</ele>
        <time>2023-06-21T08:11:49.444Z</time>
      </trkpt>
      <trkpt lat="46.55861" lon="0.08087">
        <ele>139.74</ele>
        <time>2023-06-21T08:12:55.949Z</time>
      </trkpt>
      <trkpt lat="46.55863" lon="0.08081">
        <ele>139.22</ele>
        <time>2023-06-21T08:14:02.454Z</time>
      </trkpt>
      <trkpt lat="46.55869" lon="0.08064">
        <ele>137.6</ele>
        <time>2023-06-21T08:15:08.962Z</time>
      </trkpt>
      <trkpt lat="46.55871" lon="0.08058">
        <ele>137.1</ele>
        <time>2023-06-21T08:16:15.470Z</time>
      </trkpt>
      <trkpt lat="46.55873" lon="0.08052">
        <ele>136.64</ele>
        <time>2023-06-21T08:17:21.979Z</time>
      </trkpt>
      <trkpt lat="46.55875" lon="0.08047">
        <ele>136.24</ele>
        <time>2023-06-21T08:18:28.489Z</time>
      </trkpt>
      <trkpt lat="46.55877" lon="0.08041">
        <ele>135.9</ele>
        <time>2023-06-21T08:19:34.999Z</time>
      </trkpt>
      <trkpt lat="46.55879" lon="0.08035">
        <ele>135.65</ele>
        <time>2023-06-21T08:20:41.510Z</time>
      </trkpt>
      <trkpt lat="46.55881" lon="0.08029">
        <ele>135.52</ele>
        <time>2023-06-21T08:21:48.022Z</time>
      </trkpt>
      <trkpt lat="46.55883" lon="0.08023">
        <ele>135.51</ele>
        <time>2023-06-21T08:22:54.535Z</time>
      </trkpt>
      <trkpt lat="46.55885" lon="0.08018">
        <ele>135.61</ele>
        <time>2023-06-21T08:24:01.048Z</time>
      </trkpt>
      <trkpt lat="46.55888" lon="0.08012">
        <ele>135.8</ele>
        <time>2023-06-21T08:25:07.562Z</time>
      </trkpt>
      <trkpt lat="46.5589" lon="0.08006">
        <ele>136.07</ele>
        <time>2023-06-21T08:26:14.077Z</time>
      </trkpt>
      <trkpt lat="46.55892" lon="0.08">
        <ele>136.41</ele>
        <time>2023-06-21T08:27:20.592Z</time>
      </trkpt>
      <trkpt lat="46.55894" lon="0.07995">
        <ele>136.83</ele>
        <time>2023-06-21T08:28:27.108Z</time>
      </trkpt>
      <trkpt lat="46.55895" lon="0.07991">
        <ele>137.11</ele>
        <time>2023-06-21T08:29:33.625Z</time>
      </trkpt>
      <trkpt lat="46.55898" lon="0.07983">
        <ele>137.75</ele>
        <time>2023-06-21T08:30:40.143Z</time>
      </trkpt>
      <trkpt lat="46.559" lon="0.07977">
        <ele>138.13</ele>
        <time>2023-06-21T08:31:46.661Z</time>
      </trkpt>
      <trkpt lat="46.55901" lon="0.07971">
        <ele>138.45</ele>
        <time>2023-06-21T08:32:53.180Z</time>
      </trkpt>
      <trkpt lat="46.55903" lon="0.07965">
        <ele>138.71</ele>
        <time>2023-06-21T08:33:59.700Z</time>
      </trkpt>
      <trkpt lat="46.55905" lon="0.07959">
        <ele>138.94</ele>
        <time>2023-06-21T08:35:06.220Z</time>
      </trkpt>
      <trkpt lat="46.55907" lon="0.07953">
        <ele>139.14</ele>
        <time>2023-06-21T08:36:12.741Z</time>
      </trkpt>
      <trkpt lat="46.55911" lon="0.07941">
        <ele>139.47</ele>
        <time>2023-06-21T08:37:19.264Z</time>
      </trkpt>
      <trkpt lat="46.55915" lon="0.0793">
        <ele>139.77</ele>
        <time>2023-06-21T08:38:25.788Z</time>
      </trkpt>
      <trkpt lat="46.5592" lon="0.07912">
        <ele>140.27</ele>
        <time>2023-06-21T08:39:32.314Z</time>
      </trkpt>
      <trkpt lat="46.55922" lon="0.07906">
        <ele>140.4</ele>
        <time>2023-06-21T08:40:38.841Z</time>
      </trkpt>
      <trkpt lat="46.55926" lon="0.07894">
        <ele>140.55</ele>
        <time>2023-06-21T08:41:45.369Z</time>
      </trkpt>
      <trkpt lat="46.5593" lon="0.07882">
        <ele>140.64</ele>
        <time>2023-06-21T08:42:51.899Z</time>
      </trkpt>
      <trkpt lat="46.55934" lon="0.0787">
        <ele>140.69</ele>
        <time>2023-06-21T08:43:58.430Z</time>
      </trkpt>
      <trkpt lat="46.55935" lon="0.07866">
        <ele>140.69</ele>
        <time>2023-06-21T08:45:04.962Z</time>
      </trkpt>
      <trkpt lat="46.55938" lon="0.0788">
        <ele>140.72</ele>
        <time>2023-06-21T08:46:11.495Z</time>
      </trkpt>
      <trkpt lat="46.55939" lon="0.07887">
        <ele>140.7</ele>
        <time>2023-06-21T08:47:18.029Z</time>
      </trkpt>
      <trkpt lat="46.5594" lon="0.07893">
        <ele>140.64</ele>
        <time>2023-06-21T08:48:24.564Z</time>
      </trkpt>
      <trkpt lat="46.55941" lon="0.07896">
        <ele>140.59</ele>
        <time>2023-06-21T08:49:31.099Z</time>
      </trkpt>
      <trkpt lat="46.55944" lon="0.07905">
        <ele>140.46</ele>
        <time>2023-06-21T08:50:37.635Z</time>
      </trkpt>
      <trkpt lat="46.55946" lon="0.07911">
        <ele>140.33</ele>
        <time>2023-06-21T08:51:44.172Z</time>
      </trkpt>
      <trkpt lat="46.55947" lon="0.07914">
        <ele>140.23</ele>
        <time>2023-06-21T08:52:50.709Z</time>
      </trkpt>
      <trkpt lat="46.55948" lon="0.07916">
        <ele>140.17</ele>
        <time>2023-06-21T08:53:57.247Z</time>
      </trkpt>
      <trkpt lat="46.55958" lon="0.07927">
        <ele>139.62</ele>
        <time>2023-06-21T08:55:03.787Z</time>
      </trkpt>
      <trkpt lat="46.55959" lon="0.07928">
        <ele>139.57</ele>
        <time>2023-06-21T08:56:10.327Z</time>
      </trkpt>
      <trkpt lat="46.55963" lon="0.07931">
        <ele>139.39</ele>
        <time>2023-06-21T08:57:16.868Z</time>
      </trkpt>
      <trkpt lat="46.55967" lon="0.07935">
        <ele>139.25</ele>
        <time>2023-06-21T08:58:23.409Z</time>
      </trkpt>
      <trkpt lat="46.5597" lon="0.07938">
        <ele>139.14</ele>
        <time>2023-06-21T08:59:29.951Z</time>
      </trkpt>
      <trkpt lat="46.55978" lon="0.07945">
        <ele>138.97</ele>
        <time>2023-06-21T09:00:36.495Z</time>
      </trkpt>
      <trkpt lat="46.55982" lon="0.07949">
        <ele>138.91</ele>
        <time>2023-06-21T09:01:43.039Z</time>
      </trkpt>
      <trkpt lat="46.55983" lon="0.0795">
        <ele>138.89</ele>
        <time>2023-06-21T09:02:49.583Z</time>
      </trkpt>
      <trkpt lat="46.55986" lon="0.07952">
        <ele>138.87</ele>
        <time>2023-06-21T09:03:56.128Z</time>
      </trkpt>
      <trkpt lat="46.5599" lon="0.07954">
        <ele>138.86</ele>
        <time>2023-06-21T09:05:02.674Z</time>
      </trkpt>
      <trkpt lat="46.55998" lon="0.07959">
        <ele>138.88</ele>
        <time>2023-06-21T09:06:09.221Z</time>
      </trkpt>
      <trkpt lat="46.56002" lon="0.07962">
        <ele>138.91</ele>
        <time>2023-06-21T09:07:15.769Z</time>
      </trkpt>
      <trkpt lat="46.56011" lon="0.07967">
        <ele>139.05</ele>
        <time>2023-06-21T09:08:22.318Z</time>
      </trkpt>
      <trkpt lat="46.56015" lon="0.0797">
        <ele>139.17</ele>
        <time>2023-06-21T09:09:28.868Z</time>
      </trkpt>
      <trkpt lat="46.56019" lon="0.07972">
        <ele>139.33</ele>
        <time>2023-06-21T09:10:35.419Z</time>
      </trkpt>
      <trkpt lat="46.56022" lon="0.07974">
        <ele>139.47</ele>
        <time>2023-06-21T09:11:41.970Z</time>
      </trkpt>
      <trkpt lat="46.56031" lon="0.07981">
        <ele>139.91</ele>
        <time>2023-06-21T09:12:48.523Z</time>
      </trkpt>
      <trkpt lat="46.56043" lon="0.0799">
        <ele>140.39</ele>
        <time>2023-06-21T09:13:55.078Z</time>
      </trkpt>
      <trkpt lat="46.56043" lon="0.0799">
        <ele>140.39</ele>
        <time>2023-06-21T09:15:01.633Z</time>
      </trkpt>
      <trkpt lat="46.56046" lon="0.07994">
        <ele>140.53</ele>
        <time>2023-06-21T09:16:08.189Z</time>
      </trkpt>
      <trkpt lat="46.56049" lon="0.07999">
        <ele>140.64</ele>
        <time>2023-06-21T09:17:14.745Z</time>
      </trkpt>
      <trkpt lat="46.56052" lon="0.08003">
        <ele>140.68</ele>
        <time>2023-06-21T09:18:21.302Z</time>
      </trkpt>
      <trkpt lat="46.56055" lon="0.08007">
        <ele>140.65</ele>
        <time>2023-06-21T09:19:27.860Z</time>
      </trkpt>
      <trkpt lat="46.56055" lon="0.08008">
        <ele>140.65</ele>
        <time>2023-06-21T09:20:34.418Z</time>
      </trkpt>
      <trkpt lat="46.56057" lon="0.08015">
        <ele>140.57</ele>
        <time>2023-06-21T09:21:40.977Z</time>
      </trkpt>
      <trkpt lat="46.56058" lon="0.08021">
        <ele>140.44</ele>
        <time>2023-06-21T09:22:47.536Z</time>
      </trkpt>
      <trkpt lat="46.5606" lon="0.08027">
        <ele>140.25</ele>
        <time>2023-06-21T09:23:54.096Z</time>
      </trkpt>
      <trkpt lat="46.56061" lon="0.08033">
        <ele>140.02</ele>
        <time>2023-06-21T09:25:00.657Z</time>
      </trkpt>
      <trkpt lat="46.56062" lon="0.08036">
        <ele>139.89</ele>
        <time>2023-06-21T09:26:07.218Z</time>
      </trkpt>
      <trkpt lat="46.56064" lon="0.08052">
        <ele>139.26</ele>
        <time>2023-06-21T09:27:13.781Z</time>
      </trkpt>
      <trkpt lat="46.56066" lon="0.08065">
        <ele>138.79</ele>
        <time>2023-06-21T09:28:20.345Z</time>
      </trkpt>
      <trkpt lat="46.56067" lon="0.08073">
        <ele>138.51</ele>
        <time>2023-06-21T09:29:26.910Z</time>
      </trkpt>
      <trkpt lat="46.56072" lon="0.0809">
        <ele>137.93</ele>
        <time>2023-06-21T09:30:33.477Z</time>
      </trkpt>
      <trkpt lat="46.56079" lon="0.08114">
        <ele>137.15</ele>
        <time>2023-06-21T09:31:40.047Z</time>
      </trkpt>
      <trkpt lat="46.56082" lon="0.08126">
        <ele>136.68</ele>
        <time>2023-06-21T09:32:46.619Z</time>
      </trkpt>
      <trkpt lat="46.56084" lon="0.08132">
        <ele>136.48</ele>
        <time>2023-06-21T09:33:53.191Z</time>
      </trkpt>
      <trkpt lat="46.56084" lon="0.08133">
        <ele>136.45</ele>
        <time>2023-06-21T09:34:59.763Z</time>
      </trkpt>
      <trkpt lat="46.56084" lon="0.08138">
        <ele>136.34</ele>
        <time>2023-06-21T09:36:06.336Z</time>
      </trkpt>
      <trkpt lat="46.56085" lon="0.08145">
        <ele>136.26</ele>
        <time>2023-06-21T09:37:12.910Z</time>
      </trkpt>
      <trkpt lat="46.56085" lon="0.08151">
        <ele>136.24</ele>
        <time>2023-06-21T09:38:19.484Z</time>
      </trkpt>
      <trkpt lat="46.56086" lon="0.08158">
        <ele>136.26</ele>
        <time>2023-06-21T09:39:26.059Z</time>
      </trkpt>
      <trkpt lat="46.56086" lon="0.08158">
        <ele>136.26</ele>
        <time>2023-06-21T09:40:32.634Z</time>
      </trkpt>
      <trkpt lat="46.56084" lon="0.0817">
        <ele>136.39</ele>
        <time>2023-06-21T09:41:39.211Z</time>
      </trkpt>
      <trkpt lat="46.56083" lon="0.08177">
        <ele>136.49</ele>
        <time>2023-06-21T09:42:45.788Z</time>
      </trkpt>
      <trkpt lat="46.56082" lon="0.08183">
        <ele>136.62</ele>
        <time>2023-06-21T09:43:52.366Z</time>
      </trkpt>
      <trkpt lat="46.56081" lon="0.08189">
        <ele>136.78</ele>
        <time>2023-06-21T09:44:58.945Z</time>
      </trkpt>
      <trkpt lat="46.5608" lon="0.08196">
        <ele>136.98</ele>
        <time>2023-06-21T09:46:05.525Z</time>
      </trkpt>
      <trkpt lat="46.56079" lon="0.08202">
        <ele>137.21</ele>
        <time>2023-06-21T09:47:12.105Z</time>
      </trkpt>
      <trkpt lat="46.56078" lon="0.08207">
        <ele>137.41</ele>
        <time>2023-06-21T09:48:18.686Z</time>
      </trkpt>
      <trkpt lat="46.56079" lon="0.08208">
        <ele>137.48</ele>
        <time>2023-06-21T09:49:25.267Z</time>
      </trkpt>
      <trkpt lat="46.56083" lon="0.0821">
        <ele>137.79</ele>
        <time>2023-06-21T09:50:31.849Z</time>
      </trkpt>
      <trkpt lat="46.56087" lon="0.08212">
        <ele>138.15</ele>
        <time>2023-06-21T09:51:38.431Z</time>
      </trkpt>
      <trkpt lat="46.56093" lon="0.08215">
        <ele>138.65</ele>
        <time>2023-06-21T09:52:45.014Z</time>
      </trkpt>
      <trkpt lat="46.56105" lon="0.08217">
        <ele>139.66</ele>
        <time>2023-06-21T09:53:51.599Z</time>
      </trkpt>
      <trkpt lat="46.56109" lon="0.08218">
        <ele>139.99</ele>
        <time>2023-06-21T09:54:58.185Z</time>
      </trkpt>
      <trkpt lat="46.56111" lon="0.08218">
        <ele>140.1</ele>
        <time>2023-06-21T09:56:04.771Z</time>
      </trkpt>
      <trkpt lat="46.56114" lon="0.08217">
        <ele>140.29</ele>
        <time>2023-06-21T09:57:11.358Z</time>
      </trkpt>
      <trkpt lat="46.56118" lon="0.08216">
        <ele>140.52</ele>
        <time>2023-06-21T09:58:17.945Z</time>
      </trkpt>
      <trkpt lat="46.56138" lon="0.08212">
        <ele>141.43</ele>
        <time>2023-06-21T09:59:24.536Z</time>
      </trkpt>
      <trkpt lat="46.56145" lon="0.0821">
        <ele>141.76</ele>
        <time>2023-06-21T10:00:31.128Z</time>
      </trkpt>
      <trkpt lat="46.56158" lon="0.08206">
        <ele>142.45</ele>
        <time>2023-06-21T10:01:37.722Z</time>
      </trkpt>
      <trkpt lat="46.56162" lon="0.08205">
        <ele>142.63</ele>
        <time>2023-06-21T10:02:44.317Z</time>
      </trkpt>
      <trkpt lat="46.56164" lon="0.08204">
        <ele>142.67</ele>
        <time>2023-06-21T10:03:50.912Z</time>
      </trkpt>
      <trkpt lat="46.56167" lon="0.08204">
        <ele>142.76</ele>
        <time>2023-06-21T10:04:57.507Z</time>
      </trkpt>
      <trkpt lat="46.56184" lon="0.08201">
        <ele>143.2</ele>
        <time>2023-06-21T10:06:04.105Z</time>
      </trkpt>
      <trkpt lat="46.56185" lon="0.08201">
        <ele>143.2</ele>
        <time>2023-06-21T10:07:10.703Z</time>
      </trkpt>
      <trkpt lat="46.56189" lon="0.08201">
        <ele>143.28</ele>
        <time>2023-06-21T10:08:17.302Z</time>
      </trkpt>
      <trkpt lat="46.56194" lon="0.08201">
        <ele>143.33</ele>
        <time>2023-06-21T10:09:23.902Z</time>
      </trkpt>
      <trkpt lat="46.56198" lon="0.08202">
        <ele>143.35</ele>
        <time>2023-06-21T10:10:30.502Z</time>
      </trkpt>
      <trkpt lat="46.56203" lon="0.08202">
        <ele>143.34</ele>
        <time>2023-06-21T10:11:37.103Z</time>
      </trkpt>
      <trkpt lat="46.56204" lon="0.08202">
        <ele>143.33</ele>
        <time>2023-06-21T10:12:43.704Z</time>
      </trkpt>
      <trkpt lat="46.56208" lon="0.08204">
        <ele>143.3</ele>
        <time>2023-06-21T10:13:50.306Z</time>
      </trkpt>
      <trkpt lat="46.56209" lon="0.08204">
        <ele>143.29</ele>
        <time>2023-06-21T10:14:56.908Z</time>
      </trkpt>
      <trkpt lat="46.56206" lon="0.08213">
        <ele>143.25</ele>
        <time>2023-06-21T10:16:03.511Z</time>
      </trkpt>
      <trkpt lat="46.56201" lon="0.08231">
        <ele>143.2</ele>
        <time>2023-06-21T10:17:10.116Z</time>
      </trkpt>
      <trkpt lat="46.56198" lon="0.08243">
        <ele>143.12</ele>
        <time>2023-06-21T10:18:16.723Z</time>
      </trkpt>
      <trkpt lat="46.56196" lon="0.08249">
        <ele>143.1</ele>
        <time>2023-06-21T10:19:23.331Z</time>
      </trkpt>
      <trkpt lat="46.56195" lon="0.08252">
        <ele>143.11</ele>
        <time>2023-06-21T10:20:29.939Z</time>
      </trkpt>
      <trkpt lat="46.56194" lon="0.08255">
        <ele>143.13</ele>
        <time>2023-06-21T10:21:36.547Z</time>
      </trkpt>
      <trkpt lat="46.56193" lon="0.08262">
        <ele>143.22</ele>
        <time>2023-06-21T10:22:43.156Z</time>
      </trkpt>
      <trkpt lat="46.56191" lon="0.08274">
        <ele>143.56</ele>
        <time>2023-06-21T10:23:49.766Z</time>
      </trkpt>
      <trkpt lat="46.56186" lon="0.08299">
        <ele>144.36</ele>
        <time>2023-06-21T10:24:56.379Z</time>
      </trkpt>
      <trkpt lat="46.56183" lon="0.08312">
        <ele>144.84</ele>
        <time>2023-06-21T10:26:02.994Z</time>
      </trkpt>
      <trkpt lat="46.56178" lon="0.08337">
        <ele>145.86</ele>
        <time>2023-06-21T10:27:09.612Z</time>
      </trkpt>
      <trkpt lat="46.56177" lon="0.08343">
        <ele>146.08</ele>
        <time>2023-06-21T10:28:16.230Z</time>
      </trkpt>
      <trkpt lat="46.56174" lon="0.08356">
        <ele>146.47</ele>
        <time>2023-06-21T10:29:22.850Z</time>
      </trkpt>
      <trkpt lat="46.56172" lon="0.08368">
        <ele>146.79</ele>
        <time>2023-06-21T10:30:29.471Z</time>
      </trkpt>
      <trkpt lat="46.5617" lon="0.08374">
        <ele>146.91</ele>
        <time>2023-06-21T10:31:36.093Z</time>
      </trkpt>
      <trkpt lat="46.56164" lon="0.08406">
        <ele>147.46</ele>
        <time>2023-06-21T10:32:42.719Z</time>
      </trkpt>
      <trkpt lat="46.56159" lon="0.08431">
        <ele>147.86</ele>
        <time>2023-06-21T10:33:49.347Z</time>
      </trkpt>
      <trkpt lat="46.56158" lon="0.08437">
        <ele>148.02</ele>
        <time>2023-06-21T10:34:55.976Z</time>
      </trkpt>
      <trkpt lat="46.56157" lon="0.08443">
        <ele>148.22</ele>
        <time>2023-06-21T10:36:02.606Z</time>
      </trkpt>
      <trkpt lat="46.56153" lon="0.08462">
        <ele>147.89</ele>
        <time>2023-06-21T10:37:09.238Z</time>
      </trkpt>
      <trkpt lat="46.56147" lon="0.08493">
        <ele>147.25</ele>
        <time>2023-06-21T10:38:15.874Z</time>
      </trkpt>
      <trkpt lat="46.56145" lon="0.08499">
        <ele>147.1</ele>
        <time>2023-06-21T10:39:22.510Z</time>
      </trkpt>
      <trkpt lat="46.56143" lon="0.08512">
        <ele>146.75</ele>
        <time>2023-06-21T10:40:29.148Z</time>
      </trkpt>
      <trkpt lat="46.56139" lon="0.0853">
        <ele>146.15</ele>
        <time>2023-06-21T10:41:35.788Z</time>
      </trkpt>
      <trkpt lat="46.56137" lon="0.08543">
        <ele>145.67</ele>
        <time>2023-06-21T10:42:42.429Z</time>
      </trkpt>
      <trkpt lat="46.56135" lon="0.08549">
        <ele>145.41</ele>
        <time>2023-06-21T10:43:49.071Z</time>
      </trkpt>
      <trkpt lat="46.56133" lon="0.08561">
        <ele>144.85</ele>
        <time>2023-06-21T10:44:55.714Z</time>
      </trkpt>
      <trkpt lat="46.56124" lon="0.08605">
        <ele>142.74</ele>
        <time>2023-06-21T10:46:02.362Z</time>
      </trkpt>
      <trkpt lat="46.56122" lon="0.08617">
        <ele>142.1</ele>
        <time>2023-06-21T10:47:09.012Z</time>
      </trkpt>
      <trkpt lat="46.56121" lon="0.08623">
        <ele>141.75</ele>
        <time>2023-06-21T10:48:15.663Z</time>
      </trkpt>
      <trkpt lat="46.56119" lon="0.0863">
        <ele>141.36</ele>
        <time>2023-06-21T10:49:22.314Z</time>
      </trkpt>
      <trkpt lat="46.56118" lon="0.08636">
        <ele>140.94</ele>
        <time>2023-06-21T10:50:28.966Z</time>
      </trkpt>
      <trkpt lat="46.56117" lon="0.08642">
        <ele>140.49</ele>
        <time>2023-06-21T10:51:35.619Z</time>
      </trkpt>
      <trkpt lat="46.56114" lon="0.08655">
        <ele>139.52</ele>
        <time>2023-06-21T10:52:42.273Z</time>
      </trkpt>
      <trkpt lat="46.56113" lon="0.08661">
        <ele>138.95</ele>
        <time>2023-06-21T10:53:48.928Z</time>
      </trkpt>
      <trkpt lat="46.56112" lon="0.08667">
        <ele>138.42</ele>
        <time>2023-06-21T10:54:55.584Z</time>
      </trkpt>
      <trkpt lat="46.56111" lon="0.0868">
        <ele>137.22</ele>
        <time>2023-06-21T10:56:02.241Z</time>
      </trkpt>
      <trkpt lat="46.56109" lon="0.08699">
        <ele>135.37</ele>
        <time>2023-06-21T10:57:08.900Z</time>
      </trkpt>
      <trkpt lat="46.56107" lon="0.08712">
        <ele>134.2</ele>
        <time>2023-06-21T10:58:15.561Z</time>
      </trkpt>
      <trkpt lat="46.56106" lon="0.08725">
        <ele>133.15</ele>
        <time>2023-06-21T10:59:22.223Z</time>
      </trkpt>
      <trkpt lat="46.56105" lon="0.08738">
        <ele>132.19</ele>
        <time>2023-06-21T11:00:28.886Z</time>
      </trkpt>
      <trkpt lat="46.56101" lon="0.0877">
        <ele>132.22</ele>
        <time>2023-06-21T11:01:35.553Z</time>
      </trkpt>
      <trkpt lat="46.561" lon="0.08777">
        <ele>131.98</ele>
        <time>2023-06-21T11:02:42.221Z</time>
      </trkpt>
      <trkpt lat="46.561" lon="0.08783">
        <ele>131.78</ele>
        <time>2023-06-21T11:03:48.890Z</time>
      </trkpt>
      <trkpt lat="46.56099" lon="0.08789">
        <ele>131.64</ele>
        <time>2023-06-21T11:04:55.559Z</time>
      </trkpt>
      <trkpt lat="46.56098" lon="0.08795">
        <ele>131.55</ele>
        <time>2023-06-21T11:06:02.229Z</time>
      </trkpt>
      <trkpt lat="46.56097" lon="0.08808">
        <ele>131.46</ele>
        <time>2023-06-21T11:07:08.900Z</time>
      </trkpt>
      <trkpt lat="46.56095" lon="0.08826">
        <ele>131.45</ele>
        <time>2023-06-21T11:08:15.573Z</time>
      </trkpt>
      <trkpt lat="46.56093" lon="0.08845">
        <ele>131.53</ele>
        <time>2023-06-21T11:09:22.248Z</time>
      </trkpt>
      <trkpt lat="46.56091" lon="0.08857">
        <ele>131.62</ele>
        <time>2023-06-21T11:10:28.925Z</time>
      </trkpt>
      <trkpt lat="46.56091" lon="0.08863">
        <ele>131.69</ele>
        <time>2023-06-21T11:11:35.603Z</time>
      </trkpt>
      <trkpt lat="46.56089" lon="0.08876">
        <ele>131.89</ele>
        <time>2023-06-21T11:12:42.282Z</time>
      </trkpt>
      <trkpt lat="46.56088" lon="0.08888">
        <ele>131.97</ele>
        <time>2023-06-21T11:13:48.962Z</time>
      </trkpt>
      <trkpt lat="46.56087" lon="0.08895">
        <ele>132.07</ele>
        <time>2023-06-21T11:14:55.643Z</time>
      </trkpt>
      <trkpt lat="46.56087" lon="0.08901">
        <ele>132.2</ele>
        <time>2023-06-21T11:16:02.325Z</time>
      </trkpt>
      <trkpt lat="46.56086" lon="0.08907">
        <ele>132.37</ele>
        <time>2023-06-21T11:17:09.007Z</time>
      </trkpt>
      <trkpt lat="46.56086" lon="0.08907">
        <ele>132.37</ele>
        <time>2023-06-21T11:18:15.689Z</time>
      </trkpt>
      <trkpt lat="46.56085" lon="0.08914">
        <ele>132.59</ele>
        <time>2023-06-21T11:19:22.372Z</time>
      </trkpt>
      <trkpt lat="46.56084" lon="0.0892">
        <ele>132.84</ele>
        <time>2023-06-21T11:20:29.056Z</time>
      </trkpt>
      <trkpt lat="46.56083" lon="0.08926">
        <ele>133.13</ele>
        <time>2023-06-21T11:21:35.741Z</time>
      </trkpt>
      <trkpt lat="46.5608" lon="0.08945">
        <ele>134.07</ele>
        <time>2023-06-21T11:22:42.428Z</time>
      </trkpt>
      <trkpt lat="46.56077" lon="0.08965">
        <ele>134.97</ele>
        <time>2023-06-21T11:23:49.117Z</time>
      </trkpt>
      <trkpt lat="46.56077" lon="0.08965">
        <ele>134.97</ele>
        <time>2023-06-21T11:24:55.806Z</time>
      </trkpt>
      <trkpt lat="46.56074" lon="0.08976">
        <ele>135.62</ele>
        <time>2023-06-21T11:26:02.496Z</time>
      </trkpt>
      <trkpt lat="46.56072" lon="0.08982">
        <ele>135.97</ele>
        <time>2023-06-21T11:27:09.187Z</time>
      </trkpt>
      <trkpt lat="46.56069" lon="0.08994">
        <ele>136.72</ele>
        <time>2023-06-21T11:28:15.879Z</time>
      </trkpt>
      <trkpt lat="46.56065" lon="0.09009">
        <ele>137.7</ele>
        <time>2023-06-21T11:29:22.573Z</time>
      </trkpt>
      <trkpt lat="46.56062" lon="0.09018">
        <ele>138.31</ele>
        <time>2023-06-21T11:30:29.268Z</time>
      </trkpt>
      <trkpt lat="46.56055" lon="0.09035">
        <ele>139.46</ele>
        <time>2023-06-21T11:31:35.965Z</time>
      </trkpt>
      <trkpt lat="46.56051" lon="0.09046">
        <ele>140.21</ele>
        <time>2023-06-21T11:32:42.664Z</time>
      </trkpt>
      <trkpt lat="46.56047" lon="0.09057">
        <ele>140.89</ele>
        <time>2023-06-21T11:33:49.364Z</time>
      </trkpt>
      <trkpt lat="46.56047" lon="0.09057">
        <ele>140.91</ele>
        <time>2023-06-21T11:34:56.064Z</time>
      </trkpt>
      <trkpt lat="46.56043" lon="0.09066">
        <ele>140.92</ele>
        <time>2023-06-21T11:36:02.765Z</time>
      </trkpt>
      <trkpt lat="46.56025" lon="0.09105">
        <ele>141</ele>
        <time>2023-06-21T11:37:09.472Z</time>
      </trkpt>
      <trkpt lat="46.55999" lon="0.09164">
        <ele>141.26</ele>
        <time>2023-06-21T11:38:16.186Z</time>
      </trkpt>
      <trkpt lat="46.55999" lon="0.09164">
        <ele>141.26</ele>
        <time>2023-06-21T11:39:22.900Z</time>
      </trkpt>
      <trkpt lat="46.55994" lon="0.09182">
        <ele>141.29</ele>
        <time>2023-06-21T11:40:29.616Z</time>
      </trkpt>
      <trkpt lat="46.55986" lon="0.09207">
        <ele>141.29</ele>
        <time>2023-06-21T11:41:36.336Z</time>
      </trkpt>
      <trkpt lat="46.55985" lon="0.09224">
        <ele>141.29</ele>
        <time>2023-06-21T11:42:43.057Z</time>
      </trkpt>
      <trkpt lat="46.55985" lon="0.09234">
        <ele>141.28</ele>
        <time>2023-06-21T11:43:49.779Z</time>
      </trkpt>
      <trkpt lat="46.55991" lon="0.09268">
        <ele>141.25</ele>
        <time>2023-06-21T11:44:56.505Z</time>
      </trkpt>
      <trkpt lat="46.55995" lon="0.09281">
        <ele>141.24</ele>
        <time>2023-06-21T11:46:03.233Z</time>
      </trkpt>
      <trkpt lat="46.56003" lon="0.09304">
        <ele>141.26</ele>
        <time>2023-06-21T11:47:09.964Z</time>
      </trkpt>
      <trkpt lat="46.56007" lon="0.09316">
        <ele>141.29</ele>
        <time>2023-06-21T11:48:16.696Z</time>
      </trkpt>
      <trkpt lat="46.56018" lon="0.09345">
        <ele>141.42</ele>
        <time>2023-06-21T11:49:23.432Z</time>
      </trkpt>
      <trkpt lat="46.56026" lon="0.09369">
        <ele>141.49</ele>
        <time>2023-06-21T11:50:30.171Z</time>
      </trkpt>
      <trkpt lat="46.56027" lon="0.09374">
        <ele>141.51</ele>
        <time>2023-06-21T11:51:36.910Z</time>
      </trkpt>
      <trkpt lat="46.56033" lon="0.09401">
        <ele>141.62</ele>
        <time>2023-06-21T11:52:43.653Z</time>
      </trkpt>
      <trkpt lat="46.56033" lon="0.09405">
        <ele>141.64</ele>
        <time>2023-06-21T11:53:50.396Z</time>
      </trkpt>
      <trkpt lat="46.56035" lon="0.09418">
        <ele>141.67</ele>
        <time>2023-06-21T11:54:57.140Z</time>
      </trkpt>
      <trkpt lat="46.56036" lon="0.09431">
        <ele>141.68</ele>
        <time>2023-06-21T11:56:03.886Z</time>
      </trkpt>
      <trkpt lat="46.56037" lon="0.09437">
        <ele>141.66</ele>
        <time>2023-06-21T11:57:10.633Z</time>
      </trkpt>
      <trkpt lat="46.56036" lon="0.09457">
        <ele>141.63</ele>
        <time>2023-06-21T11:58:17.382Z</time>
      </trkpt>
      <trkpt lat="46.56034" lon="0.09489">
        <ele>141.53</ele>
        <time>2023-06-21T11:59:24.134Z</time>
      </trkpt>
      <trkpt lat="46.56031" lon="0.09535">
        <ele>141.33</ele>
        <time>2023-06-21T12:00:30.891Z</time>
      </trkpt>
      <trkpt lat="46.5603" lon="0.09548">
        <ele>141.25</ele>
        <time>2023-06-21T12:01:37.650Z</time>
      </trkpt>
      <trkpt lat="46.5603" lon="0.09548">
        <ele>141.25</ele>
        <time>2023-06-21T12:02:44.409Z</time>
      </trkpt>
      <trkpt lat="46.56029" lon="0.09561">
        <ele>141.13</ele>
        <time>2023-06-21T12:03:51.169Z</time>
      </trkpt>
      <trkpt lat="46.56027" lon="0.0958">
        <ele>140.89</ele>
        <time>2023-06-21T12:04:57.931Z</time>
      </trkpt>
      <trkpt lat="46.56026" lon="0.096">
        <ele>140.53</ele>
        <time>2023-06-21T12:06:04.696Z</time>
      </trkpt>
      <trkpt lat="46.56024" lon="0.09619">
        <ele>140.06</ele>
        <time>2023-06-21T12:07:11.463Z</time>
      </trkpt>
      <trkpt lat="46.56024" lon="0.09625">
        <ele>139.88</ele>
        <time>2023-06-21T12:08:18.231Z</time>
      </trkpt>
      <trkpt lat="46.56023" lon="0.09638">
        <ele>139.48</ele>
        <time>2023-06-21T12:09:25.000Z</time>
      </trkpt>
      <trkpt lat="46.56021" lon="0.09663">
        <ele>138.67</ele>
        <time>2023-06-21T12:10:31.772Z</time>
      </trkpt>
      <trkpt lat="46.56019" lon="0.09671">
        <ele>138.42</ele>
        <time>2023-06-21T12:11:38.545Z</time>
      </trkpt>
      <trkpt lat="46.56017" lon="0.09683">
        <ele>137.93</ele>
        <time>2023-06-21T12:12:45.319Z</time>
      </trkpt>
      <trkpt lat="46.56014" lon="0.09695">
        <ele>137.38</ele>
        <time>2023-06-21T12:13:52.094Z</time>
      </trkpt>
      <trkpt lat="46.56013" lon="0.09702">
        <ele>137.07</ele>
        <time>2023-06-21T12:14:58.870Z</time>
      </trkpt>
      <trkpt lat="46.56009" lon="0.09714">
        <ele>136.51</ele>
        <time>2023-06-21T12:16:05.648Z</time>
      </trkpt>
      <trkpt lat="46.55994" lon="0.09761">
        <ele>134.11</ele>
        <time>2023-06-21T12:17:12.431Z</time>
      </trkpt>
      <trkpt lat="46.5599" lon="0.09773">
        <ele>133.56</ele>
        <time>2023-06-21T12:18:19.216Z</time>
      </trkpt>
      <trkpt lat="46.55987" lon="0.09785">
        <ele>133.08</ele>
        <time>2023-06-21T12:19:26.002Z</time>
      </trkpt>
      <trkpt lat="46.55983" lon="0.09796">
        <ele>132.64</ele>
        <time>2023-06-21T12:20:32.790Z</time>
      </trkpt>
      <trkpt lat="46.55979" lon="0.09808">
        <ele>132.23</ele>
        <time>2023-06-21T12:21:39.579Z</time>
      </trkpt>
      <trkpt lat="46.55975" lon="0.0982">
        <ele>131.84</ele>
        <time>2023-06-21T12:22:46.370Z</time>
      </trkpt>
      <trkpt lat="46.55971" lon="0.09832">
        <ele>131.49</ele>
        <time>2023-06-21T12:23:53.162Z</time>
      </trkpt>
      <trkpt lat="46.55968" lon="0.09844">
        <ele>131.18</ele>
        <time>2023-06-21T12:24:59.955Z</time>
      </trkpt>
      <trkpt lat="46.55964" lon="0.09855">
        <ele>130.91</ele>
        <time>2023-06-21T12:26:06.750Z</time>
      </trkpt>
      <trkpt lat="46.5596" lon="0.09867">
        <ele>130.67</ele>
        <time>2023-06-21T12:27:13.546Z</time>
      </trkpt>
      <trkpt lat="46.55956" lon="0.09879">
        <ele>130.46</ele>
        <time>2023-06-21T12:28:20.344Z</time>
      </trkpt>
      <trkpt lat="46.55949" lon="0.09903">
        <ele>130.09</ele>
        <time>2023-06-21T12:29:27.145Z</time>
      </trkpt>
      <trkpt lat="46.55943" lon="0.0992">
        <ele>129.87</ele>
        <time>2023-06-21T12:30:33.948Z</time>
      </trkpt>
      <trkpt lat="46.55942" lon="0.09924">
        <ele>129.83</ele>
        <time>2023-06-21T12:31:40.751Z</time>
      </trkpt>
      <trkpt lat="46.55937" lon="0.09919">
        <ele>129.76</ele>
        <time>2023-06-21T12:32:47.555Z</time>
      </trkpt>
      <trkpt lat="46.55924" lon="0.09907">
        <ele>129.6</ele>
        <time>2023-06-21T12:33:54.362Z</time>
      </trkpt>
      <trkpt lat="46.55915" lon="0.09897">
        <ele>129.48</ele>
        <time>2023-06-21T12:35:01.171Z</time>
      </trkpt>
      <trkpt lat="46.55897" lon="0.09877">
        <ele>129.13</ele>
        <time>2023-06-21T12:36:07.983Z</time>
      </trkpt>
      <trkpt lat="46.5589" lon="0.09869">
        <ele>129.01</ele>
        <time>2023-06-21T12:37:14.797Z</time>
      </trkpt>
      <trkpt lat="46.55882" lon="0.09861">
        <ele>128.91</ele>
        <time>2023-06-21T12:38:21.612Z</time>
      </trkpt>
      <trkpt lat="46.55855" lon="0.09838">
        <ele>128.59</ele>
        <time>2023-06-21T12:39:28.432Z</time>
      </trkpt>
      <trkpt lat="46.55854" lon="0.09837">
        <ele>128.56</ele>
        <time>2023-06-21T12:40:35.252Z</time>
      </trkpt>
      <trkpt lat="46.55847" lon="0.09832">
        <ele>128.45</ele>
        <time>2023-06-21T12:41:42.073Z</time>
      </trkpt>
      <trkpt lat="46.55823" lon="0.09815">
        <ele>127.98</ele>
        <time>2023-06-21T12:42:48.899Z</time>
      </trkpt>
      <trkpt lat="46.5582" lon="0.09812">
        <ele>127.91</ele>
        <time>2023-06-21T12:43:55.725Z</time>
      </trkpt>
      <trkpt lat="46.55815" lon="0.09809">
        <ele>127.84</ele>
        <time>2023-06-21T12:45:02.552Z</time>
      </trkpt>
      <trkpt lat="46.55807" lon="0.09805">
        <ele>127.73</ele>
        <time>2023-06-21T12:46:09.381Z</time>
      </trkpt>
      <trkpt lat="46.55806" lon="0.09804">
        <ele>127.72</ele>
        <time>2023-06-21T12:47:16.210Z</time>
      </trkpt>
      <trkpt lat="46.55795" lon="0.09805">
        <ele>127.62</ele>
        <time>2023-06-21T12:48:23.041Z</time>
      </trkpt>
      <trkpt lat="46.55794" lon="0.09807">
        <ele>127.61</ele>
        <time>2023-06-21T12:49:29.872Z</time>
      </trkpt>
      <trkpt lat="46.55788" lon="0.09816">
        <ele>127.57</ele>
        <time>2023-06-21T12:50:36.704Z</time>
      </trkpt>
      <trkpt lat="46.55782" lon="0.09825">
        <ele>127.56</ele>
        <time>2023-06-21T12:51:43.538Z</time>
      </trkpt>
      <trkpt lat="46.55772" lon="0.0984">
        <ele>127.6</ele>
        <time>2023-06-21T12:52:50.374Z</time>
      </trkpt>
      <trkpt lat="46.55759" lon="0.0986">
        <ele>127.76</ele>
        <time>2023-06-21T12:53:57.213Z</time>
      </trkpt>
      <trkpt lat="46.55756" lon="0.09877">
        <ele>127.87</ele>
        <time>2023-06-21T12:55:04.054Z</time>
      </trkpt>
      <trkpt lat="46.55749" lon="0.09908">
        <ele>128.09</ele>
        <time>2023-06-21T12:56:10.898Z</time>
      </trkpt>
      <trkpt lat="46.55748" lon="0.09914">
        <ele>128.11</ele>
        <time>2023-06-21T12:57:17.743Z</time>
      </trkpt>
      <trkpt lat="46.55746" lon="0.0992">
        <ele>128.15</ele>
        <time>2023-06-21T12:58:24.589Z</time>
      </trkpt>
      <trkpt lat="46.55742" lon="0.09934">
        <ele>128.14</ele>
        <time>2023-06-21T12:59:31.437Z</time>
      </trkpt>
      <trkpt lat="46.55731" lon="0.0995">
        <ele>128.13</ele>
        <time>2023-06-21T13:00:38.287Z</time>
      </trkpt>
      <trkpt lat="46.55707" lon="0.0997">
        <ele>128.11</ele>
        <time>2023-06-21T13:01:45.141Z</time>
      </trkpt>
      <trkpt lat="46.55699" lon="0.09976">
        <ele>128.16</ele>
        <time>2023-06-21T13:02:51.997Z</time>
      </trkpt>
      <trkpt lat="46.55699" lon="0.09976">
        <ele>128.16</ele>
        <time>2023-06-21T13:03:58.853Z</time>
      </trkpt>
      <trkpt lat="46.55693" lon="0.0998">
        <ele>128.1</ele>
        <time>2023-06-21T13:05:05.710Z</time>
      </trkpt>
      <trkpt lat="46.55668" lon="0.09997">
        <ele>128.01</ele>
        <time>2023-06-21T13:06:12.571Z</time>
      </trkpt>
      <trkpt lat="46.55652" lon="0.10007">
        <ele>129.06</ele>
        <time>2023-06-21T13:07:19.435Z</time>
      </trkpt>
      <trkpt lat="46.55648" lon="0.1001">
        <ele>129.36</ele>
        <time>2023-06-21T13:08:26.300Z</time>
      </trkpt>
      <trkpt lat="46.55648" lon="0.1001">
        <ele>129.36</ele>
        <time>2023-06-21T13:09:33.165Z</time>
      </trkpt>
      <trkpt lat="46.5565" lon="0.10022">
        <ele>129.99</ele>
        <time>2023-06-21T13:10:40.031Z</time>
      </trkpt>
      <trkpt lat="46.55652" lon="0.10033">
        <ele>130.58</ele>
        <time>2023-06-21T13:11:46.898Z</time>
      </trkpt>
      <trkpt lat="46.55652" lon="0.10035">
        <ele>130.68</ele>
        <time>2023-06-21T13:12:53.766Z</time>
      </trkpt>
      <trkpt lat="46.55659" lon="0.10059">
        <ele>132.17</ele>
        <time>2023-06-21T13:14:00.637Z</time>
      </trkpt>
      <trkpt lat="46.55664" lon="0.10076">
        <ele>133.25</ele>
        <time>2023-06-21T13:15:07.510Z</time>
      </trkpt>
      <trkpt lat="46.55669" lon="0.10094">
        <ele>134.29</ele>
        <time>2023-06-21T13:16:14.385Z</time>
      </trkpt>
      <trkpt lat="46.5567" lon="0.10098">
        <ele>134.48</ele>
        <time>2023-06-21T13:17:21.260Z</time>
      </trkpt>
      <trkpt lat="46.55673" lon="0.10106">
        <ele>134.93</ele>
        <time>2023-06-21T13:18:28.136Z</time>
      </trkpt>
      <trkpt lat="46.55677" lon="0.10117">
        <ele>135.52</ele>
        <time>2023-06-21T13:19:35.014Z</time>
      </trkpt>
      <trkpt lat="46.55683" lon="0.10135">
        <ele>136.35</ele>
        <time>2023-06-21T13:20:41.894Z</time>
      </trkpt>
      <trkpt lat="46.55685" lon="0.10141">
        <ele>136.62</ele>
        <time>2023-06-21T13:21:48.774Z</time>
      </trkpt>
      <trkpt lat="46.5569" lon="0.10158">
        <ele>137.4</ele>
        <time>2023-06-21T13:22:55.657Z</time>
      </trkpt>
      <trkpt lat="46.55693" lon="0.1017">
        <ele>137.89</ele>
        <time>2023-06-21T13:24:02.541Z</time>
      </trkpt>
      <trkpt lat="46.55697" lon="0.10182">
        <ele>138.34</ele>
        <time>2023-06-21T13:25:09.426Z</time>
      </trkpt>
      <trkpt lat="46.55701" lon="0.10196">
        <ele>138.82</ele>
        <time>2023-06-21T13:26:16.313Z</time>
      </trkpt>
      <trkpt lat="46.55702" lon="0.102">
        <ele>138.96</ele>
        <time>2023-06-21T13:27:23.201Z</time>
      </trkpt>
      <trkpt lat="46.55708" lon="0.10217">
        <ele>139.51</ele>
        <time>2023-06-21T13:28:30.091Z</time>
      </trkpt>
      <trkpt lat="46.55712" lon="0.10229">
        <ele>139.81</ele>
        <time>2023-06-21T13:29:36.982Z</time>
      </trkpt>
      <trkpt lat="46.55716" lon="0.1024">
        <ele>140.06</ele>
        <time>2023-06-21T13:30:43.875Z</time>
      </trkpt>
      <trkpt lat="46.55718" lon="0.10247">
        <ele>140.19</ele>
        <time>2023-06-21T13:31:50.768Z</time>
      </trkpt>
      <trkpt lat="46.55721" lon="0.10262">
        <ele>140.47</ele>
        <time>2023-06-21T13:32:57.663Z</time>
      </trkpt>
      <trkpt lat="46.5572" lon="0.10277">
        <ele>140.75</ele>
        <time>2023-06-21T13:34:04.560Z</time>
      </trkpt>
      <trkpt lat="46.55718" lon="0.10297">
        <ele>141.05</ele>
        <time>2023-06-21T13:35:11.459Z</time>
      </trkpt>
      <trkpt lat="46.55717" lon="0.10309">
        <ele>141.22</ele>
        <time>2023-06-21T13:36:18.359Z</time>
      </trkpt>
      <trkpt lat="46.55716" lon="0.10315">
        <ele>141.32</ele>
        <time>2023-06-21T13:37:25.260Z</time>
      </trkpt>
      <trkpt lat="46.55712" lon="0.10334">
        <ele>141.52</ele>
        <time>2023-06-21T13:38:32.163Z</time>
      </trkpt>
      <trkpt lat="46.55703" lon="0.10385">
        <ele>141.99</ele>
        <time>2023-06-21T13:39:39.072Z</time>
      </trkpt>
      <trkpt lat="46.55697" lon="0.10423">
        <ele>142.53</ele>
        <time>2023-06-21T13:40:45.985Z</time>
      </trkpt>
      <trkpt lat="46.5569" lon="0.10461">
        <ele>142.96</ele>
        <time>2023-06-21T13:41:52.903Z</time>
      </trkpt>
      <trkpt lat="46.55686" lon="0.10483">
        <ele>143.15</ele>
        <time>2023-06-21T13:42:59.823Z</time>
      </trkpt>
      <trkpt lat="46.55686" lon="0.10486">
        <ele>143.18</ele>
        <time>2023-06-21T13:44:06.744Z</time>
      </trkpt>
      <trkpt lat="46.55683" lon="0.10512">
        <ele>143.45</ele>
        <time>2023-06-21T13:45:13.667Z</time>
      </trkpt>
      <trkpt lat="46.55683" lon="0.10516">
        <ele>143.47</ele>
        <time>2023-06-21T13:46:20.591Z</time>
      </trkpt>
      <trkpt lat="46.55683" lon="0.10525">
        <ele>143.54</ele>
        <time>2023-06-21T13:47:27.516Z</time>
      </trkpt>
      <trkpt lat="46.55684" lon="0.10538">
        <ele>143.56</ele>
        <time>2023-06-21T13:48:34.442Z</time>
      </trkpt>
      <trkpt lat="46.55684" lon="0.10545">
        <ele>143.54</ele>
        <time>2023-06-21T13:49:41.369Z</time>
      </trkpt>
      <trkpt lat="46.55684" lon="0.10557">
        <ele>143.45</ele>
        <time>2023-06-21T13:50:48.297Z</time>
      </trkpt>
      <trkpt lat="46.55685" lon="0.1057">
        <ele>143.47</ele>
        <time>2023-06-21T13:51:55.227Z</time>
      </trkpt>
      <trkpt lat="46.55685" lon="0.10595">
        <ele>143.56</ele>
        <time>2023-06-21T13:53:02.160Z</time>
      </trkpt>
      <trkpt lat="46.55686" lon="0.10633">
        <ele>143.63</ele>
        <time>2023-06-21T13:54:09.097Z</time>
      </trkpt>
      <trkpt lat="46.55687" lon="0.10653">
        <ele>143.65</ele>
        <time>2023-06-21T13:55:16.036Z</time>
      </trkpt>
      <trkpt lat="46.55686" lon="0.10658">
        <ele>143.66</ele>
        <time>2023-06-21T13:56:22.976Z</time>
      </trkpt>
      <trkpt lat="46.55684" lon="0.10674">
        <ele>143.72</ele>
        <time>2023-06-21T13:57:29.917Z</time>
      </trkpt>
      <trkpt lat="46.55677" lon="0.10694">
        <ele>143.82</ele>
        <time>2023-06-21T13:58:36.861Z</time>
      </trkpt>
      <trkpt lat="46.5566" lon="0.10745">
        <ele>143.96</ele>
        <time>2023-06-21T13:59:43.811Z</time>
      </trkpt>
      <trkpt lat="46.55658" lon="0.10751">
        <ele>144</ele>
        <time>2023-06-21T14:00:50.762Z</time>
      </trkpt>
      <trkpt lat="46.55653" lon="0.10766">
        <ele>144.14</ele>
        <time>2023-06-21T14:01:57.715Z</time>
      </trkpt>
      <trkpt lat="46.55652" lon="0.10768">
        <ele>144.17</ele>
        <time>2023-06-21T14:03:04.668Z</time>
      </trkpt>
      <trkpt lat="46.55647" lon="0.10786">
        <ele>144.29</ele>
        <time>2023-06-21T14:04:11.623Z</time>
      </trkpt>
      <trkpt lat="46.55644" lon="0.10798">
        <ele>144.39</ele>
        <time>2023-06-21T14:05:18.579Z</time>
      </trkpt>
      <trkpt lat="46.55635" lon="0.10831">
        <ele>144.78</ele>
        <time>2023-06-21T14:06:25.539Z</time>
      </trkpt>
      <trkpt lat="46.5563" lon="0.10852">
        <ele>145.03</ele>
        <time>2023-06-21T14:07:32.502Z</time>
      </trkpt>
      <trkpt lat="46.55621" lon="0.10895">
        <ele>145.33</ele>
        <time>2023-06-21T14:08:39.470Z</time>
      </trkpt>
      <trkpt lat="46.55617" lon="0.10913">
        <ele>145.42</ele>
        <time>2023-06-21T14:09:46.440Z</time>
      </trkpt>
      <trkpt lat="46.55614" lon="0.10926">
        <ele>145.44</ele>
        <time>2023-06-21T14:10:53.411Z</time>
      </trkpt>
      <trkpt lat="46.55612" lon="0.10938">
        <ele>145.42</ele>
        <time>2023-06-21T14:12:00.384Z</time>
      </trkpt>
      <trkpt lat="46.55605" lon="0.10969">
        <ele>145.22</ele>
        <time>2023-06-21T14:13:07.360Z</time>
      </trkpt>
      <trkpt lat="46.55598" lon="0.11">
        <ele>145.14</ele>
        <time>2023-06-21T14:14:14.340Z</time>
      </trkpt>
      <trkpt lat="46.55594" lon="0.11018">
        <ele>145.04</ele>
        <time>2023-06-21T14:15:21.322Z</time>
      </trkpt>
      <trkpt lat="46.55592" lon="0.11031">
        <ele>144.98</ele>
        <time>2023-06-21T14:16:28.306Z</time>
      </trkpt>
      <trkpt lat="46.55589" lon="0.11043">
        <ele>144.96</ele>
        <time>2023-06-21T14:17:35.291Z</time>
      </trkpt>
      <trkpt lat="46.55586" lon="0.11062">
        <ele>144.97</ele>
        <time>2023-06-21T14:18:42.278Z</time>
      </trkpt>
      <trkpt lat="46.55585" lon="0.11066">
        <ele>144.96</ele>
        <time>2023-06-21T14:19:49.266Z</time>
      </trkpt>
      <trkpt lat="46.55582" lon="0.11087">
        <ele>144.91</ele>
        <time>2023-06-21T14:20:56.256Z</time>
      </trkpt>
      <trkpt lat="46.5558" lon="0.111">
        <ele>144.91</ele>
        <time>2023-06-21T14:22:03.247Z</time>
      </trkpt>
      <trkpt lat="46.55573" lon="0.11151">
        <ele>145.07</ele>
        <time>2023-06-21T14:23:10.244Z</time>
      </trkpt>
      <trkpt lat="46.55571" lon="0.11163">
        <ele>145.15</ele>
        <time>2023-06-21T14:24:17.243Z</time>
      </trkpt>
      <trkpt lat="46.55571" lon="0.1117">
        <ele>145.2</ele>
        <time>2023-06-21T14:25:24.242Z</time>
      </trkpt>
      <trkpt lat="46.5557" lon="0.11189">
        <ele>145.37</ele>
        <time>2023-06-21T14:26:31.243Z</time>
      </trkpt>
      <trkpt lat="46.5557" lon="0.11202">
        <ele>145.51</ele>
        <time>2023-06-21T14:27:38.246Z</time>
      </trkpt>
      <trkpt lat="46.55568" lon="0.11248">
        <ele>146.1</ele>
        <time>2023-06-21T14:28:45.254Z</time>
      </trkpt>
      <trkpt lat="46.55568" lon="0.11248">
        <ele>146.1</ele>
        <time>2023-06-21T14:29:52.262Z</time>
      </trkpt>
      <trkpt lat="46.55568" lon="0.1126">
        <ele>146.25</ele>
        <time>2023-06-21T14:30:59.271Z</time>
      </trkpt>
      <trkpt lat="46.55568" lon="0.1128">
        <ele>146.42</ele>
        <time>2023-06-21T14:32:06.282Z</time>
      </trkpt>
      <trkpt lat="46.55568" lon="0.11293">
        <ele>146.49</ele>
        <time>2023-06-21T14:33:13.295Z</time>
      </trkpt>
      <trkpt lat="46.55568" lon="0.11319">
        <ele>146.55</ele>
        <time>2023-06-21T14:34:20.311Z</time>
      </trkpt>
      <trkpt lat="46.55568" lon="0.11332">
        <ele>146.56</ele>
        <time>2023-06-21T14:35:27.328Z</time>
      </trkpt>
      <trkpt lat="46.55568" lon="0.11338">
        <ele>146.55</ele>
        <time>2023-06-21T14:36:34.346Z</time>
      </trkpt>
      <trkpt lat="46.55568" lon="0.11377">
        <ele>146.4</ele>
        <time>2023-06-21T14:37:41.368Z</time>
      </trkpt>
      <trkpt lat="46.55568" lon="0.11416">
        <ele>146.34</ele>
        <time>2023-06-21T14:38:48.394Z</time>
      </trkpt>
      <trkpt lat="46.55568" lon="0.11446">
        <ele>146.27</ele>
        <time>2023-06-21T14:39:55.424Z</time>
      </trkpt>
      <trkpt lat="46.5557" lon="0.11461">
        <ele>146.24</ele>
        <time>2023-06-21T14:41:02.455Z</time>
      </trkpt>
      <trkpt lat="46.55572" lon="0.11474">
        <ele>146.27</ele>
        <time>2023-06-21T14:42:09.488Z</time>
      </trkpt>
      <trkpt lat="46.55575" lon="0.11499">
        <ele>146.37</ele>
        <time>2023-06-21T14:43:16.524Z</time>
      </trkpt>
      <trkpt lat="46.55579" lon="0.11531">
        <ele>146.39</ele>
        <time>2023-06-21T14:44:23.563Z</time>
      </trkpt>
      <trkpt lat="46.55581" lon="0.11542">
        <ele>146.35</ele>
        <time>2023-06-21T14:45:30.604Z</time>
      </trkpt>
      <trkpt lat="46.55582" lon="0.11576">
        <ele>146.23</ele>
        <time>2023-06-21T14:46:37.648Z</time>
      </trkpt>
      <trkpt lat="46.55584" lon="0.11615">
        <ele>146.18</ele>
        <time>2023-06-21T14:47:44.697Z</time>
      </trkpt>
      <trkpt lat="46.55586" lon="0.1166">
        <ele>146.3</ele>
        <time>2023-06-21T14:48:51.751Z</time>
      </trkpt>
      <trkpt lat="46.55588" lon="0.11698">
        <ele>146.36</ele>
        <time>2023-06-21T14:49:58.809Z</time>
      </trkpt>
      <trkpt lat="46.55588" lon="0.11711">
        <ele>146.42</ele>
        <time>2023-06-21T14:51:05.868Z</time>
      </trkpt>
      <trkpt lat="46.55589" lon="0.11731">
        <ele>146.54</ele>
        <time>2023-06-21T14:52:12.929Z</time>
      </trkpt>
      <trkpt lat="46.5559" lon="0.11746">
        <ele>146.65</ele>
        <time>2023-06-21T14:53:19.992Z</time>
      </trkpt>
      <trkpt lat="46.55601" lon="0.11751">
        <ele>146.78</ele>
        <time>2023-06-21T14:54:27.057Z</time>
      </trkpt>
      <trkpt lat="46.55601" lon="0.11751">
        <ele>146.78</ele>
        <time>2023-06-21T14:55:34.122Z</time>
      </trkpt>
      <trkpt lat="46.556" lon="0.11769">
        <ele>146.87</ele>
        <time>2023-06-21T14:56:41.189Z</time>
      </trkpt>
      <trkpt lat="46.55603" lon="0.11796">
        <ele>147.01</ele>
        <time>2023-06-21T14:57:48.259Z</time>
      </trkpt>
      <trkpt lat="46.55606" lon="0.11816">
        <ele>147.06</ele>
        <time>2023-06-21T14:58:55.331Z</time>
      </trkpt>
      <trkpt lat="46.55608" lon="0.11854">
        <ele>147.17</ele>
        <time>2023-06-21T15:00:02.407Z</time>
      </trkpt>
      <trkpt lat="46.55609" lon="0.1188">
        <ele>147.19</ele>
        <time>2023-06-21T15:01:09.486Z</time>
      </trkpt>
      <trkpt lat="46.5561" lon="0.11912">
        <ele>147.34</ele>
        <time>2023-06-21T15:02:16.569Z</time>
      </trkpt>
      <trkpt lat="46.5561" lon="0.11918">
        <ele>147.39</ele>
        <time>2023-06-21T15:03:23.653Z</time>
      </trkpt>
      <trkpt lat="46.55611" lon="0.11944">
        <ele>147.66</ele>
        <time>2023-06-21T15:04:30.739Z</time>
      </trkpt>
      <trkpt lat="46.55612" lon="0.11957">
        <ele>147.76</ele>
        <time>2023-06-21T15:05:37.827Z</time>
      </trkpt>
      <trkpt lat="46.55613" lon="0.11983">
        <ele>147.9</ele>
        <time>2023-06-21T15:06:44.918Z</time>
      </trkpt>
      <trkpt lat="46.55614" lon="0.12015">
        <ele>148.18</ele>
        <time>2023-06-21T15:07:52.012Z</time>
      </trkpt>
      <trkpt lat="46.55614" lon="0.12021">
        <ele>148.25</ele>
        <time>2023-06-21T15:08:59.107Z</time>
      </trkpt>
      <trkpt lat="46.55615" lon="0.12034">
        <ele>148.46</ele>
        <time>2023-06-21T15:10:06.203Z</time>
      </trkpt>
      <trkpt lat="46.55615" lon="0.12039">
        <ele>148.49</ele>
        <time>2023-06-21T15:11:13.300Z</time>
      </trkpt>
      <trkpt lat="46.55615" lon="0.12054">
        <ele>148.61</ele>
        <time>2023-06-21T15:12:20.399Z</time>
      </trkpt>
      <trkpt lat="46.55615" lon="0.12073">
        <ele>148.86</ele>
        <time>2023-06-21T15:13:27.500Z</time>
      </trkpt>
      <trkpt lat="46.55615" lon="0.12086">
        <ele>149</ele>
        <time>2023-06-21T15:14:34.602Z</time>
      </trkpt>
      <trkpt lat="46.55615" lon="0.12099">
        <ele>149.11</ele>
        <time>2023-06-21T15:15:41.706Z</time>
      </trkpt>
      <trkpt lat="46.55615" lon="0.12107">
        <ele>149.15</ele>
        <time>2023-06-21T15:16:48.810Z</time>
      </trkpt>
      <trkpt lat="46.55615" lon="0.12112">
        <ele>149.18</ele>
        <time>2023-06-21T15:17:55.915Z</time>
      </trkpt>
      <trkpt lat="46.55612" lon="0.12144">
        <ele>149.26</ele>
        <time>2023-06-21T15:19:03.024Z</time>
      </trkpt>
      <trkpt lat="46.55612" lon="0.1215">
        <ele>149.26</ele>
        <time>2023-06-21T15:20:10.133Z</time>
      </trkpt>
      <trkpt lat="46.55608" lon="0.12175">
        <ele>149.27</ele>
        <time>2023-06-21T15:21:17.245Z</time>
      </trkpt>
      <trkpt lat="46.55608" lon="0.12182">
        <ele>149.29</ele>
        <time>2023-06-21T15:22:24.358Z</time>
      </trkpt>
      <trkpt lat="46.55605" lon="0.12201">
        <ele>149.41</ele>
        <time>2023-06-21T15:23:31.473Z</time>
      </trkpt>
      <trkpt lat="46.55599" lon="0.12244">
        <ele>149.61</ele>
        <time>2023-06-21T15:24:38.593Z</time>
      </trkpt>
      <trkpt lat="46.55597" lon="0.1227">
        <ele>149.74</ele>
        <time>2023-06-21T15:25:45.716Z</time>
      </trkpt>
      <trkpt lat="46.55597" lon="0.12278">
        <ele>149.75</ele>
        <time>2023-06-21T15:26:52.840Z</time>
      </trkpt>
      <trkpt lat="46.55597" lon="0.12303">
        <ele>149.79</ele>
        <time>2023-06-21T15:27:59.966Z</time>
      </trkpt>
      <trkpt lat="46.55598" lon="0.12315">
        <ele>149.83</ele>
        <time>2023-06-21T15:29:07.094Z</time>
      </trkpt>
      <trkpt lat="46.55598" lon="0.12328">
        <ele>149.71</ele>
        <time>2023-06-21T15:30:14.223Z</time>
      </trkpt>
      <trkpt lat="46.55598" lon="0.12335">
        <ele>149.63</ele>
        <time>2023-06-21T15:31:21.353Z</time>
      </trkpt>
      <trkpt lat="46.55598" lon="0.1234">
        <ele>149.55</ele>
        <time>2023-06-21T15:32:28.483Z</time>
      </trkpt>
      <trkpt lat="46.55605" lon="0.12399">
        <ele>148.68</ele>
        <time>2023-06-21T15:33:35.620Z</time>
      </trkpt>
      <trkpt lat="46.55605" lon="0.12399">
        <ele>148.68</ele>
        <time>2023-06-21T15:34:42.757Z</time>
      </trkpt>
      <trkpt lat="46.55606" lon="0.12452">
        <ele>147.71</ele>
        <time>2023-06-21T15:35:49.900Z</time>
      </trkpt>
      <trkpt lat="46.55607" lon="0.12477">
        <ele>147.21</ele>
        <time>2023-06-21T15:36:57.046Z</time>
      </trkpt>
      <trkpt lat="46.55605" lon="0.12491">
        <ele>146.94</ele>
        <time>2023-06-21T15:38:04.193Z</time>
      </trkpt>
      <trkpt lat="46.55604" lon="0.12504">
        <ele>146.72</ele>
        <time>2023-06-21T15:39:11.342Z</time>
      </trkpt>
      <trkpt lat="46.55602" lon="0.12516">
        <ele>146.58</ele>
        <time>2023-06-21T15:40:18.492Z</time>
      </trkpt>
      <trkpt lat="46.55602" lon="0.1252">
        <ele>146.56</ele>
        <time>2023-06-21T15:41:25.642Z</time>
      </trkpt>
      <trkpt lat="46.556" lon="0.12529">
        <ele>146.51</ele>
        <time>2023-06-21T15:42:32.794Z</time>
      </trkpt>
      <trkpt lat="46.55596" lon="0.12554">
        <ele>146.43</ele>
        <time>2023-06-21T15:43:39.948Z</time>
      </trkpt>
      <trkpt lat="46.55594" lon="0.12567">
        <ele>146.41</ele>
        <time>2023-06-21T15:44:47.104Z</time>
      </trkpt>
      <trkpt lat="46.55593" lon="0.12573">
        <ele>146.43</ele>
        <time>2023-06-21T15:45:54.261Z</time>
      </trkpt>
      <trkpt lat="46.55591" lon="0.1258">
        <ele>146.48</ele>
        <time>2023-06-21T15:47:01.418Z</time>
      </trkpt>
      <trkpt lat="46.5559" lon="0.12586">
        <ele>146.56</ele>
        <time>2023-06-21T15:48:08.576Z</time>
      </trkpt>
      <trkpt lat="46.5559" lon="0.12588">
        <ele>146.59</ele>
        <time>2023-06-21T15:49:15.734Z</time>
      </trkpt>
      <trkpt lat="46.55588" lon="0.12599">
        <ele>146.79</ele>
        <time>2023-06-21T15:50:22.893Z</time>
      </trkpt>
      <trkpt lat="46.55585" lon="0.12613">
        <ele>146.74</ele>
        <time>2023-06-21T15:51:30.054Z</time>
      </trkpt>
      <trkpt lat="46.55581" lon="0.12629">
        <ele>146.81</ele>
        <time>2023-06-21T15:52:37.217Z</time>
      </trkpt>
      <trkpt lat="46.55578" lon="0.12645">
        <ele>146.69</ele>
        <time>2023-06-21T15:53:44.382Z</time>
      </trkpt>
      <trkpt lat="46.55576" lon="0.12651">
        <ele>146.64</ele>
        <time>2023-06-21T15:54:51.548Z</time>
      </trkpt>
      <trkpt lat="46.55572" lon="0.12662">
        <ele>146.61</ele>
        <time>2023-06-21T15:55:58.715Z</time>
      </trkpt>
      <trkpt lat="46.5557" lon="0.12667">
        <ele>146.62</ele>
        <time>2023-06-21T15:57:05.883Z</time>
      </trkpt>
      <trkpt lat="46.55567" lon="0.12678">
        <ele>146.7</ele>
        <time>2023-06-21T15:58:13.052Z</time>
      </trkpt>
      <trkpt lat="46.55564" lon="0.12685">
        <ele>146.8</ele>
        <time>2023-06-21T15:59:20.222Z</time>
      </trkpt>
      <trkpt lat="46.55563" lon="0.12688">
        <ele>146.85</ele>
        <time>2023-06-21T16:00:27.392Z</time>
      </trkpt>
      <trkpt lat="46.55558" lon="0.127">
        <ele>146.84</ele>
        <time>2023-06-21T16:01:34.564Z</time>
      </trkpt>
      <trkpt lat="46.55554" lon="0.12711">
        <ele>146.85</ele>
        <time>2023-06-21T16:02:41.737Z</time>
      </trkpt>
      <trkpt lat="46.55549" lon="0.12722">
        <ele>146.9</ele>
        <time>2023-06-21T16:03:48.911Z</time>
      </trkpt>
      <trkpt lat="46.55541" lon="0.12745">
        <ele>147.06</ele>
        <time>2023-06-21T16:04:56.088Z</time>
      </trkpt>
      <trkpt lat="46.55536" lon="0.12756">
        <ele>147.12</ele>
        <time>2023-06-21T16:06:03.267Z</time>
      </trkpt>
      <trkpt lat="46.55523" lon="0.1279">
        <ele>147.18</ele>
        <time>2023-06-21T16:07:10.450Z</time>
      </trkpt>
      <trkpt lat="46.55518" lon="0.12801">
        <ele>147.22</ele>
        <time>2023-06-21T16:08:17.634Z</time>
      </trkpt>
      <trkpt lat="46.55512" lon="0.12818">
        <ele>147.32</ele>
        <time>2023-06-21T16:09:24.821Z</time>
      </trkpt>
      <trkpt lat="46.55505" lon="0.12835">
        <ele>147.46</ele>
        <time>2023-06-21T16:10:32.010Z</time>
      </trkpt>
      <trkpt lat="46.55501" lon="0.12846">
        <ele>147.59</ele>
        <time>2023-06-21T16:11:39.200Z</time>
      </trkpt>
      <trkpt lat="46.55496" lon="0.12857">
        <ele>147.76</ele>
        <time>2023-06-21T16:12:46.392Z</time>
      </trkpt>
      <trkpt lat="46.55481" lon="0.12896">
        <ele>148.45</ele>
        <time>2023-06-21T16:13:53.589Z</time>
      </trkpt>
      <trkpt lat="46.55479" lon="0.12902">
        <ele>148.57</ele>
        <time>2023-06-21T16:15:00.786Z</time>
      </trkpt>
      <trkpt lat="46.55473" lon="0.1292">
        <ele>148.9</ele>
        <time>2023-06-21T16:16:07.986Z</time>
      </trkpt>
      <trkpt lat="46.55465" lon="0.12943">
        <ele>149.24</ele>
        <time>2023-06-21T16:17:15.188Z</time>
      </trkpt>
      <trkpt lat="46.55461" lon="0.12954">
        <ele>149.39</ele>
        <time>2023-06-21T16:18:22.392Z</time>
      </trkpt>
      <trkpt lat="46.55457" lon="0.12966">
        <ele>149.51</ele>
        <time>2023-06-21T16:19:29.597Z</time>
      </trkpt>
      <trkpt lat="46.55455" lon="0.12972">
        <ele>149.54</ele>
        <time>2023-06-21T16:20:36.803Z</time>
      </trkpt>
      <trkpt lat="46.55461" lon="0.12981">
        <ele>149.61</ele>
        <time>2023-06-21T16:21:44.010Z</time>
      </trkpt>
      <trkpt lat="46.55467" lon="0.1299">
        <ele>149.64</ele>
        <time>2023-06-21T16:22:51.219Z</time>
      </trkpt>
      <trkpt lat="46.55477" lon="0.13004">
        <ele>149.6</ele>
        <time>2023-06-21T16:23:58.430Z</time>
      </trkpt>
      <trkpt lat="46.55489" lon="0.13022">
        <ele>149.49</ele>
        <time>2023-06-21T16:25:05.644Z</time>
      </trkpt>
      <trkpt lat="46.55508" lon="0.13049">
        <ele>149.36</ele>
        <time>2023-06-21T16:26:12.862Z</time>
      </trkpt>
      <trkpt lat="46.55517" lon="0.13063">
        <ele>149.36</ele>
        <time>2023-06-21T16:27:20.082Z</time>
      </trkpt>
      <trkpt lat="46.55522" lon="0.1307">
        <ele>149.38</ele>
        <time>2023-06-21T16:28:27.303Z</time>
      </trkpt>
      <trkpt lat="46.55531" lon="0.13087">
        <ele>149.44</ele>
        <time>2023-06-21T16:29:34.527Z</time>
      </trkpt>
      <trkpt lat="46.55537" lon="0.13097">
        <ele>149.42</ele>
        <time>2023-06-21T16:30:41.752Z</time>
      </trkpt>
      <trkpt lat="46.5554" lon="0.13102">
        <ele>149.39</ele>
        <time>2023-06-21T16:31:48.978Z</time>
      </trkpt>
      <trkpt lat="46.55545" lon="0.13112">
        <ele>149.29</ele>
        <time>2023-06-21T16:32:56.205Z</time>
      </trkpt>
      <trkpt lat="46.5555" lon="0.13122">
        <ele>149.16</ele>
        <time>2023-06-21T16:34:03.434Z</time>
      </trkpt>
      <trkpt lat="46.55554" lon="0.13129">
        <ele>149.03</ele>
        <time>2023-06-21T16:35:10.663Z</time>
      </trkpt>
      <trkpt lat="46.55556" lon="0.13133">
        <ele>148.97</ele>
        <time>2023-06-21T16:36:17.893Z</time>
      </trkpt>
      <trkpt lat="46.5556" lon="0.13144">
        <ele>148.73</ele>
        <time>2023-06-21T16:37:25.124Z</time>
      </trkpt>
      <trkpt lat="46.55567" lon="0.13161">
        <ele>148.31</ele>
        <time>2023-06-21T16:38:32.358Z</time>
      </trkpt>
      <trkpt lat="46.55571" lon="0.13172">
        <ele>148.05</ele>
        <time>2023-06-21T16:39:39.593Z</time>
      </trkpt>
      <trkpt lat="46.55575" lon="0.13182">
        <ele>147.96</ele>
        <time>2023-06-21T16:40:46.829Z</time>
      </trkpt>
      <trkpt lat="46.55579" lon="0.13192">
        <ele>147.9</ele>
        <time>2023-06-21T16:41:54.067Z</time>
      </trkpt>
      <trkpt lat="46.55583" lon="0.13201">
        <ele>147.9</ele>
        <time>2023-06-21T16:43:01.306Z</time>
      </trkpt>
      <trkpt lat="46.55584" lon="0.13202">
        <ele>147.9</ele>
        <time>2023-06-21T16:44:08.545Z</time>
      </trkpt>
      <trkpt lat="46.55589" lon="0.13211">
        <ele>147.93</ele>
        <time>2023-06-21T16:45:15.785Z</time>
      </trkpt>
      <trkpt lat="46.55592" lon="0.13221">
        <ele>147.97</ele>
        <time>2023-06-21T16:46:23.026Z</time>
      </trkpt>
      <trkpt lat="46.55604" lon="0.13257">
        <ele>148.63</ele>
        <time>2023-06-21T16:47:30.272Z</time>
      </trkpt>
      <trkpt lat="46.55607" lon="0.13266">
        <ele>148.83</ele>
        <time>2023-06-21T16:48:37.519Z</time>
      </trkpt>
      <trkpt lat="46.5561" lon="0.13281">
        <ele>149.15</ele>
        <time>2023-06-21T16:49:44.768Z</time>
      </trkpt>
      <trkpt lat="46.55617" lon="0.13312">
        <ele>149.88</ele>
        <time>2023-06-21T16:50:52.020Z</time>
      </trkpt>
      <trkpt lat="46.55617" lon="0.13314">
        <ele>149.92</ele>
        <time>2023-06-21T16:51:59.272Z</time>
      </trkpt>
      <trkpt lat="46.55616" lon="0.13351">
        <ele>150.79</ele>
        <time>2023-06-21T16:53:06.528Z</time>
      </trkpt>
      <trkpt lat="46.55616" lon="0.13364">
        <ele>151.12</ele>
        <time>2023-06-21T16:54:13.786Z</time>
      </trkpt>
      <trkpt lat="46.55616" lon="0.13383">
        <ele>151.65</ele>
        <time>2023-06-21T16:55:21.046Z</time>
      </trkpt>
      <trkpt lat="46.55615" lon="0.13396">
        <ele>151.95</ele>
        <time>2023-06-21T16:56:28.307Z</time>
      </trkpt>
      <trkpt lat="46.55615" lon="0.13416">
        <ele>152.26</ele>
        <time>2023-06-21T16:57:35.571Z</time>
      </trkpt>
      <trkpt lat="46.55614" lon="0.13435">
        <ele>152.5</ele>
        <time>2023-06-21T16:58:42.837Z</time>
      </trkpt>
      <trkpt lat="46.55614" lon="0.13455">
        <ele>152.65</ele>
        <time>2023-06-21T16:59:50.105Z</time>
      </trkpt>
      <trkpt lat="46.55614" lon="0.13461">
        <ele>152.7</ele>
        <time>2023-06-21T17:00:57.374Z</time>
      </trkpt>
      <trkpt lat="46.55615" lon="0.13513">
        <ele>152.96</ele>
        <time>2023-06-21T17:02:04.648Z</time>
      </trkpt>
      <trkpt lat="46.55615" lon="0.13533">
        <ele>153.03</ele>
        <time>2023-06-21T17:03:11.925Z</time>
      </trkpt>
      <trkpt lat="46.55616" lon="0.13565">
        <ele>153.09</ele>
        <time>2023-06-21T17:04:19.205Z</time>
      </trkpt>
      <trkpt lat="46.55616" lon="0.13591">
        <ele>153.18</ele>
        <time>2023-06-21T17:05:26.488Z</time>
      </trkpt>
      <trkpt lat="46.55616" lon="0.13596">
        <ele>153.17</ele>
        <time>2023-06-21T17:06:33.772Z</time>
      </trkpt>
      <trkpt lat="46.55615" lon="0.13617">
        <ele>153.16</ele>
        <time>2023-06-21T17:07:41.058Z</time>
      </trkpt>
      <trkpt lat="46.55615" lon="0.13649">
        <ele>153</ele>
        <time>2023-06-21T17:08:48.347Z</time>
      </trkpt>
      <trkpt lat="46.55614" lon="0.13673">
        <ele>152.91</ele>
        <time>2023-06-21T17:09:55.639Z</time>
      </trkpt>
      <trkpt lat="46.55614" lon="0.13675">
        <ele>152.91</ele>
        <time>2023-06-21T17:11:02.931Z</time>
      </trkpt>
      <trkpt lat="46.55612" lon="0.13695">
        <ele>152.8</ele>
        <time>2023-06-21T17:12:10.225Z</time>
      </trkpt>
      <trkpt lat="46.55611" lon="0.13707">
        <ele>152.68</ele>
        <time>2023-06-21T17:13:17.521Z</time>
      </trkpt>
      <trkpt lat="46.5561" lon="0.13713">
        <ele>152.6</ele>
        <time>2023-06-21T17:14:24.817Z</time>
      </trkpt>
      <trkpt lat="46.5561" lon="0.13715">
        <ele>152.56</ele>
        <time>2023-06-21T17:15:32.114Z</time>
      </trkpt>
      <trkpt lat="46.55611" lon="0.13743">
        <ele>152.14</ele>
        <time>2023-06-21T17:16:39.414Z</time>
      </trkpt>
      <trkpt lat="46.55611" lon="0.13761">
        <ele>151.84</ele>
        <time>2023-06-21T17:17:46.716Z</time>
      </trkpt>
      <trkpt lat="46.55612" lon="0.1378">
        <ele>151.59</ele>
        <time>2023-06-21T17:18:54.020Z</time>
      </trkpt>
      <trkpt lat="46.55612" lon="0.13798">
        <ele>151.5</ele>
        <time>2023-06-21T17:20:01.326Z</time>
      </trkpt>
      <trkpt lat="46.55613" lon="0.13811">
        <ele>151.49</ele>
        <time>2023-06-21T17:21:08.633Z</time>
      </trkpt>
      <trkpt lat="46.55613" lon="0.13816">
        <ele>151.5</ele>
        <time>2023-06-21T17:22:15.941Z</time>
      </trkpt>
      <trkpt lat="46.55608" lon="0.13817">
        <ele>151.53</ele>
        <time>2023-06-21T17:23:23.250Z</time>
      </trkpt>
      <trkpt lat="46.55595" lon="0.1382">
        <ele>151.67</ele>
        <time>2023-06-21T17:24:30.561Z</time>
      </trkpt>
      <trkpt lat="46.55586" lon="0.13822">
        <ele>151.74</ele>
        <time>2023-06-21T17:25:37.873Z</time>
      </trkpt>
      <trkpt lat="46.55573" lon="0.13826">
        <ele>151.81</ele>
        <time>2023-06-21T17:26:45.187Z</time>
      </trkpt>
      <trkpt lat="46.55565" lon="0.13828">
        <ele>151.83</ele>
        <time>2023-06-21T17:27:52.503Z</time>
      </trkpt>
      <trkpt lat="46.55556" lon="0.1383">
        <ele>151.81</ele>
        <time>2023-06-21T17:28:59.820Z</time>
      </trkpt>
      <trkpt lat="46.55543" lon="0.13833">
        <ele>151.74</ele>
        <time>2023-06-21T17:30:07.139Z</time>
      </trkpt>
      <trkpt lat="46.55534" lon="0.13835">
        <ele>151.67</ele>
        <time>2023-06-21T17:31:14.460Z</time>
      </trkpt>
      <trkpt lat="46.55526" lon="0.13832">
        <ele>151.62</ele>
        <time>2023-06-21T17:32:21.782Z</time>
      </trkpt>
      <trkpt lat="46.55518" lon="0.1383">
        <ele>151.54</ele>
        <time>2023-06-21T17:33:29.105Z</time>
      </trkpt>
      <trkpt lat="46.55516" lon="0.13829">
        <ele>151.51</ele>
        <time>2023-06-21T17:34:36.429Z</time>
      </trkpt>
      <trkpt lat="46.55501" lon="0.13836">
        <ele>151.28</ele>
        <time>2023-06-21T17:35:43.755Z</time>
      </trkpt>
      <trkpt lat="46.55467" lon="0.13853">
        <ele>150.79</ele>
        <time>2023-06-21T17:36:51.087Z</time>
      </trkpt>
      <trkpt lat="46.55469" lon="0.13864">
        <ele>150.69</ele>
        <time>2023-06-21T17:37:58.420Z</time>
      </trkpt>
      <trkpt lat="46.55471" lon="0.13876">
        <ele>150.59</ele>
        <time>2023-06-21T17:39:05.755Z</time>
      </trkpt>
      <trkpt lat="46.55475" lon="0.13895">
        <ele>150.52</ele>
        <time>2023-06-21T17:40:13.092Z</time>
      </trkpt>
      <trkpt lat="46.55477" lon="0.13907">
        <ele>150.42</ele>
        <time>2023-06-21T17:41:20.430Z</time>
      </trkpt>
      <trkpt lat="46.55478" lon="0.13914">
        <ele>150.21</ele>
        <time>2023-06-21T17:42:27.769Z</time>
      </trkpt>
      <trkpt lat="46.55474" lon="0.13916">
        <ele>150.06</ele>
        <time>2023-06-21T17:43:35.109Z</time>
      </trkpt>
      <trkpt lat="46.55468" lon="0.13918">
        <ele>149.75</ele>
        <time>2023-06-21T17:44:42.450Z</time>
      </trkpt>
      <trkpt lat="46.55461" lon="0.13922">
        <ele>149.43</ele>
        <time>2023-06-21T17:45:49.792Z</time>
      </trkpt>
      <trkpt lat="46.55453" lon="0.13926">
        <ele>149.07</ele>
        <time>2023-06-21T17:46:57.135Z</time>
      </trkpt>
      <trkpt lat="46.55449" lon="0.13928">
        <ele>148.93</ele>
        <time>2023-06-21T17:48:04.479Z</time>
      </trkpt>
      <trkpt lat="46.5544" lon="0.13933">
        <ele>148.71</ele>
        <time>2023-06-21T17:49:11.824Z</time>
      </trkpt>
      <trkpt lat="46.55432" lon="0.13938">
        <ele>148.59</ele>
        <time>2023-06-21T17:50:19.171Z</time>
      </trkpt>
      <trkpt lat="46.55424" lon="0.13942">
        <ele>148.57</ele>
        <time>2023-06-21T17:51:26.519Z</time>
      </trkpt>
      <trkpt lat="46.55411" lon="0.13949">
        <ele>148.64</ele>
        <time>2023-06-21T17:52:33.869Z</time>
      </trkpt>
      <trkpt lat="46.55411" lon="0.13949">
        <ele>148.64</ele>
        <time>2023-06-21T17:53:41.219Z</time>
      </trkpt>
      <trkpt lat="46.55402" lon="0.13953">
        <ele>148.71</ele>
        <time>2023-06-21T17:54:48.571Z</time>
      </trkpt>
      <trkpt lat="46.55394" lon="0.13957">
        <ele>148.82</ele>
        <time>2023-06-21T17:55:55.924Z</time>
      </trkpt>
      <trkpt lat="46.55381" lon="0.13962">
        <ele>149.02</ele>
        <time>2023-06-21T17:57:03.279Z</time>
      </trkpt>
      <trkpt lat="46.55381" lon="0.13962">
        <ele>149.02</ele>
        <time>2023-06-21T17:58:10.634Z</time>
      </trkpt>
      <trkpt lat="46.55376" lon="0.13963">
        <ele>149.1</ele>
        <time>2023-06-21T17:59:17.990Z</time>
      </trkpt>
      <trkpt lat="46.55363" lon="0.13965">
        <ele>149.41</ele>
        <time>2023-06-21T18:00:25.348Z</time>
      </trkpt>
      <trkpt lat="46.55361" lon="0.13965">
        <ele>149.44</ele>
        <time>2023-06-21T18:01:32.707Z</time>
      </trkpt>
      <trkpt lat="46.55358" lon="0.13965">
        <ele>149.49</ele>
        <time>2023-06-21T18:02:40.066Z</time>
      </trkpt>
      <trkpt lat="46.55354" lon="0.13965">
        <ele>149.55</ele>
        <time>2023-06-21T18:03:47.426Z</time>
      </trkpt>
      <trkpt lat="46.55345" lon="0.13964">
        <ele>149.63</ele>
        <time>2023-06-21T18:04:54.787Z</time>
      </trkpt>
      <trkpt lat="46.55336" lon="0.13961">
        <ele>149.72</ele>
        <time>2023-06-21T18:06:02.150Z</time>
      </trkpt>
      <trkpt lat="46.55335" lon="0.1396">
        <ele>149.73</ele>
        <time>2023-06-21T18:07:09.513Z</time>
      </trkpt>
      <trkpt lat="46.55331" lon="0.13966">
        <ele>149.8</ele>
        <time>2023-06-21T18:08:16.877Z</time>
      </trkpt>
      <trkpt lat="46.55322" lon="0.13974">
        <ele>149.94</ele>
        <time>2023-06-21T18:09:24.242Z</time>
      </trkpt>
      <trkpt lat="46.55306" lon="0.13987">
        <ele>150.07</ele>
        <time>2023-06-21T18:10:31.610Z</time>
      </trkpt>
      <trkpt lat="46.55294" lon="0.13997">
        <ele>150.24</ele>
        <time>2023-06-21T18:11:38.981Z</time>
      </trkpt>
      <trkpt lat="46.55291" lon="0.14001">
        <ele>150.3</ele>
        <time>2023-06-21T18:12:46.352Z</time>
      </trkpt>
      <trkpt lat="46.55287" lon="0.14005">
        <ele>150.34</ele>
        <time>2023-06-21T18:13:53.724Z</time>
      </trkpt>
      <trkpt lat="46.5528" lon="0.14013">
        <ele>150.37</ele>
        <time>2023-06-21T18:15:01.097Z</time>
      </trkpt>
      <trkpt lat="46.55278" lon="0.14015">
        <ele>150.36</ele>
        <time>2023-06-21T18:16:08.471Z</time>
      </trkpt>
      <trkpt lat="46.55267" lon="0.14031">
        <ele>150.36</ele>
        <time>2023-06-21T18:17:15.847Z</time>
      </trkpt>
      <trkpt lat="46.55254" lon="0.14049">
        <ele>150.39</ele>
        <time>2023-06-21T18:18:23.226Z</time>
      </trkpt>
      <trkpt lat="46.55244" lon="0.14062">
        <ele>150.33</ele>
        <time>2023-06-21T18:19:30.607Z</time>
      </trkpt>
      <trkpt lat="46.55231" lon="0.14081">
        <ele>150.14</ele>
        <time>2023-06-21T18:20:37.991Z</time>
      </trkpt>
      <trkpt lat="46.55229" lon="0.14086">
        <ele>150.11</ele>
        <time>2023-06-21T18:21:45.376Z</time>
      </trkpt>
      <trkpt lat="46.55224" lon="0.14097">
        <ele>149.98</ele>
        <time>2023-06-21T18:22:52.762Z</time>
      </trkpt>
      <trkpt lat="46.55214" lon="0.14119">
        <ele>149.68</ele>
        <time>2023-06-21T18:24:00.151Z</time>
      </trkpt>
      <trkpt lat="46.55205" lon="0.1414">
        <ele>149.34</ele>
        <time>2023-06-21T18:25:07.543Z</time>
      </trkpt>
      <trkpt lat="46.55205" lon="0.14141">
        <ele>149.34</ele>
        <time>2023-06-21T18:26:14.935Z</time>
      </trkpt>
      <trkpt lat="46.55198" lon="0.14165">
        <ele>149.06</ele>
        <time>2023-06-21T18:27:22.330Z</time>
      </trkpt>
      <trkpt lat="46.55184" lon="0.14213">
        <ele>148.3</ele>
        <time>2023-06-21T18:28:29.731Z</time>
      </trkpt>
      <trkpt lat="46.55176" lon="0.14243">
        <ele>147.8</ele>
        <time>2023-06-21T18:29:37.135Z</time>
      </trkpt>
      <trkpt lat="46.5517" lon="0.14254">
        <ele>147.59</ele>
        <time>2023-06-21T18:30:44.541Z</time>
      </trkpt>
      <trkpt lat="46.55168" lon="0.14259">
        <ele>147.55</ele>
        <time>2023-06-21T18:31:51.947Z</time>
      </trkpt>
      <trkpt lat="46.55165" lon="0.14264">
        <ele>147.52</ele>
        <time>2023-06-21T18:32:59.354Z</time>
      </trkpt>
      <trkpt lat="46.55153" lon="0.14282">
        <ele>147.31</ele>
        <time>2023-06-21T18:34:06.764Z</time>
      </trkpt>
      <trkpt lat="46.55146" lon="0.14293">
        <ele>147.19</ele>
        <time>2023-06-21T18:35:14.176Z</time>
      </trkpt>
      <trkpt lat="46.55141" lon="0.14298">
        <ele>147.13</ele>
        <time>2023-06-21T18:36:21.589Z</time>
      </trkpt>
      <trkpt lat="46.55131" lon="0.14303">
        <ele>147.02</ele>
        <time>2023-06-21T18:37:29.003Z</time>
      </trkpt>
      <trkpt lat="46.55123" lon="0.14302">
        <ele>146.94</ele>
        <time>2023-06-21T18:38:36.418Z</time>
      </trkpt>
      <trkpt lat="46.55101" lon="0.14299">
        <ele>146.62</ele>
        <time>2023-06-21T18:39:43.837Z</time>
      </trkpt>
      <trkpt lat="46.55098" lon="0.14299">
        <ele>146.58</ele>
        <time>2023-06-21T18:40:51.257Z</time>
      </trkpt>
      <trkpt lat="46.55093" lon="0.143">
        <ele>146.54</ele>
        <time>2023-06-21T18:41:58.677Z</time>
      </trkpt>
      <trkpt lat="46.55085" lon="0.14301">
        <ele>146.55</ele>
        <time>2023-06-21T18:43:06.099Z</time>
      </trkpt>
      <trkpt lat="46.55083" lon="0.14301">
        <ele>146.52</ele>
        <time>2023-06-21T18:44:13.521Z</time>
      </trkpt>
      <trkpt lat="46.5508" lon="0.14305">
        <ele>146.48</ele>
        <time>2023-06-21T18:45:20.944Z</time>
      </trkpt>
      <trkpt lat="46.55079" lon="0.14309">
        <ele>146.45</ele>
        <time>2023-06-21T18:46:28.367Z</time>
      </trkpt>
      <trkpt lat="46.55075" lon="0.1432">
        <ele>146.33</ele>
        <time>2023-06-21T18:47:35.791Z</time>
      </trkpt>
      <trkpt lat="46.55068" lon="0.14343">
        <ele>145.97</ele>
        <time>2023-06-21T18:48:43.218Z</time>
      </trkpt>
      <trkpt lat="46.55058" lon="0.14363">
        <ele>145.64</ele>
        <time>2023-06-21T18:49:50.648Z</time>
      </trkpt>
      <trkpt lat="46.55057" lon="0.14365">
        <ele>145.5</ele>
        <time>2023-06-21T18:50:58.078Z</time>
      </trkpt>
      <trkpt lat="46.55053" lon="0.14367">
        <ele>145.21</ele>
        <time>2023-06-21T18:52:05.509Z</time>
      </trkpt>
      <trkpt lat="46.55049" lon="0.14365">
        <ele>144.93</ele>
        <time>2023-06-21T18:53:12.941Z</time>
      </trkpt>
      <trkpt lat="46.55044" lon="0.14358">
        <ele>144.46</ele>
        <time>2023-06-21T18:54:20.374Z</time>
      </trkpt>
      <trkpt lat="46.55031" lon="0.1434">
        <ele>143.32</ele>
        <time>2023-06-21T18:55:27.810Z</time>
      </trkpt>
      <trkpt lat="46.55029" lon="0.14337">
        <ele>143.07</ele>
        <time>2023-06-21T18:56:35.246Z</time>
      </trkpt>
      <trkpt lat="46.55024" lon="0.14335">
        <ele>142.68</ele>
        <time>2023-06-21T18:57:42.683Z</time>
      </trkpt>
      <trkpt lat="46.55022" lon="0.14334">
        <ele>142.56</ele>
        <time>2023-06-21T18:58:50.120Z</time>
      </trkpt>
      <trkpt lat="46.55006" lon="0.14337">
        <ele>141.66</ele>
        <time>2023-06-21T18:59:57.560Z</time>
      </trkpt>
      <trkpt lat="46.54998" lon="0.14338">
        <ele>141.16</ele>
        <time>2023-06-21T19:01:05.001Z</time>
      </trkpt>
      <trkpt lat="46.54989" lon="0.14337">
        <ele>140.61</ele>
        <time>2023-06-21T19:02:12.444Z</time>
      </trkpt>
      <trkpt lat="46.54974" lon="0.14336">
        <ele>139.68</ele>
        <time>2023-06-21T19:03:19.889Z</time>
      </trkpt>
      <trkpt lat="46.54962" lon="0.14382">
        <ele>137.58</ele>
        <time>2023-06-21T19:04:27.339Z</time>
      </trkpt>
      <trkpt lat="46.5496" lon="0.14389">
        <ele>137.23</ele>
        <time>2023-06-21T19:05:34.790Z</time>
      </trkpt>
      <trkpt lat="46.54955" lon="0.14397">
        <ele>136.74</ele>
        <time>2023-06-21T19:06:42.242Z</time>
      </trkpt>
      <trkpt lat="46.54942" lon="0.14419">
        <ele>135.41</ele>
        <time>2023-06-21T19:07:49.698Z</time>
      </trkpt>
      <trkpt lat="46.54933" lon="0.14437">
        <ele>134.42</ele>
        <time>2023-06-21T19:08:57.156Z</time>
      </trkpt>
      <trkpt lat="46.54923" lon="0.14457">
        <ele>133.23</ele>
        <time>2023-06-21T19:10:04.617Z</time>
      </trkpt>
      <trkpt lat="46.54922" lon="0.14459">
        <ele>133.29</ele>
        <time>2023-06-21T19:11:12.078Z</time>
      </trkpt>
      <trkpt lat="46.54915" lon="0.1448">
        <ele>133.85</ele>
        <time>2023-06-21T19:12:19.542Z</time>
      </trkpt>
      <trkpt lat="46.54906" lon="0.14502">
        <ele>134.5</ele>
        <time>2023-06-21T19:13:27.008Z</time>
      </trkpt>
      <trkpt lat="46.54902" lon="0.14514">
        <ele>134.86</ele>
        <time>2023-06-21T19:14:34.476Z</time>
      </trkpt>
      <trkpt lat="46.549" lon="0.1452">
        <ele>135.06</ele>
        <time>2023-06-21T19:15:41.945Z</time>
      </trkpt>
      <trkpt lat="46.54898" lon="0.14525">
        <ele>135.28</ele>
        <time>2023-06-21T19:16:49.414Z</time>
      </trkpt>
      <trkpt lat="46.54898" lon="0.14525">
        <ele>135.28</ele>
        <time>2023-06-21T19:17:56.883Z</time>
      </trkpt>
      <trkpt lat="46.54896" lon="0.14538">
        <ele>135.76</ele>
        <time>2023-06-21T19:19:04.354Z</time>
      </trkpt>
      <trkpt lat="46.54893" lon="0.14552">
        <ele>136.36</ele>
        <time>2023-06-21T19:20:11.826Z</time>
      </trkpt>
      <trkpt lat="46.54894" lon="0.14576">
        <ele>137.36</ele>
        <time>2023-06-21T19:21:19.301Z</time>
      </trkpt>
      <trkpt lat="46.54894" lon="0.14589">
        <ele>137.87</ele>
        <time>2023-06-21T19:22:26.777Z</time>
      </trkpt>
      <trkpt lat="46.54895" lon="0.14606">
        <ele>138.47</ele>
        <time>2023-06-21T19:23:34.255Z</time>
      </trkpt>
      <trkpt lat="46.54895" lon="0.14608">
        <ele>138.56</ele>
        <time>2023-06-21T19:24:41.734Z</time>
      </trkpt>
      <trkpt lat="46.54897" lon="0.14628">
        <ele>139.17</ele>
        <time>2023-06-21T19:25:49.215Z</time>
      </trkpt>
      <trkpt lat="46.54899" lon="0.14647">
        <ele>139.71</ele>
        <time>2023-06-21T19:26:56.698Z</time>
      </trkpt>
      <trkpt lat="46.54901" lon="0.14666">
        <ele>140.2</ele>
        <time>2023-06-21T19:28:04.183Z</time>
      </trkpt>
      <trkpt lat="46.54902" lon="0.14685">
        <ele>140.61</ele>
        <time>2023-06-21T19:29:11.670Z</time>
      </trkpt>
      <trkpt lat="46.54903" lon="0.14691">
        <ele>140.71</ele>
        <time>2023-06-21T19:30:19.158Z</time>
      </trkpt>
      <trkpt lat="46.54906" lon="0.14707">
        <ele>141.01</ele>
        <time>2023-06-21T19:31:26.648Z</time>
      </trkpt>
      <trkpt lat="46.54907" lon="0.1471">
        <ele>141.08</ele>
        <time>2023-06-21T19:32:34.138Z</time>
      </trkpt>
      <trkpt lat="46.54913" lon="0.14724">
        <ele>141.18</ele>
        <time>2023-06-21T19:33:41.630Z</time>
      </trkpt>
      <trkpt lat="46.54918" lon="0.14735">
        <ele>141.27</ele>
        <time>2023-06-21T19:34:49.123Z</time>
      </trkpt>
      <trkpt lat="46.54922" lon="0.14741">
        <ele>141.3</ele>
        <time>2023-06-21T19:35:56.617Z</time>
      </trkpt>
      <trkpt lat="46.54932" lon="0.14762">
        <ele>141.13</ele>
        <time>2023-06-21T19:37:04.114Z</time>
      </trkpt>
      <trkpt lat="46.54938" lon="0.14773">
        <ele>141.01</ele>
        <time>2023-06-21T19:38:11.613Z</time>
      </trkpt>
      <trkpt lat="46.54938" lon="0.14773">
        <ele>141.01</ele>
        <time>2023-06-21T19:39:19.112Z</time>
      </trkpt>
      <trkpt lat="46.54942" lon="0.14784">
        <ele>140.84</ele>
        <time>2023-06-21T19:40:26.612Z</time>
      </trkpt>
      <trkpt lat="46.54943" lon="0.14786">
        <ele>140.79</ele>
        <time>2023-06-21T19:41:34.112Z</time>
      </trkpt>
      <trkpt lat="46.54947" lon="0.14812">
        <ele>140.4</ele>
        <time>2023-06-21T19:42:41.615Z</time>
      </trkpt>
      <trkpt lat="46.54947" lon="0.14815">
        <ele>140.36</ele>
        <time>2023-06-21T19:43:49.119Z</time>
      </trkpt>
      <trkpt lat="46.54945" lon="0.14828">
        <ele>140.2</ele>
        <time>2023-06-21T19:44:56.624Z</time>
      </trkpt>
      <trkpt lat="46.54944" lon="0.14834">
        <ele>140.09</ele>
        <time>2023-06-21T19:46:04.130Z</time>
      </trkpt>
      <trkpt lat="46.54944" lon="0.14834">
        <ele>140.09</ele>
        <time>2023-06-21T19:47:11.636Z</time>
      </trkpt>
      <trkpt lat="46.5494" lon="0.14843">
        <ele>139.87</ele>
        <time>2023-06-21T19:48:19.143Z</time>
      </trkpt>
      <trkpt lat="46.54936" lon="0.1485">
        <ele>139.69</ele>
        <time>2023-06-21T19:49:26.651Z</time>
      </trkpt>
      <trkpt lat="46.54924" lon="0.14869">
        <ele>139.25</ele>
        <time>2023-06-21T19:50:34.162Z</time>
      </trkpt>
      <trkpt lat="46.54921" lon="0.14873">
        <ele>139.11</ele>
        <time>2023-06-21T19:51:41.673Z</time>
      </trkpt>
      <trkpt lat="46.54918" lon="0.14878">
        <ele>138.94</ele>
        <time>2023-06-21T19:52:49.185Z</time>
      </trkpt>
      <trkpt lat="46.54915" lon="0.14883">
        <ele>138.72</ele>
        <time>2023-06-21T19:53:56.698Z</time>
      </trkpt>
      <trkpt lat="46.54912" lon="0.14888">
        <ele>138.45</ele>
        <time>2023-06-21T19:55:04.212Z</time>
      </trkpt>
      <trkpt lat="46.54893" lon="0.14917">
        <ele>136.49</ele>
        <time>2023-06-21T19:56:11.730Z</time>
      </trkpt>
      <trkpt lat="46.54881" lon="0.14936">
        <ele>135.26</ele>
        <time>2023-06-21T19:57:19.251Z</time>
      </trkpt>
      <trkpt lat="46.54866" lon="0.1496">
        <ele>133.65</ele>
        <time>2023-06-21T19:58:26.775Z</time>
      </trkpt>
      <trkpt lat="46.5486" lon="0.14969">
        <ele>133.06</ele>
        <time>2023-06-21T19:59:34.301Z</time>
      </trkpt>
      <trkpt lat="46.54848" lon="0.14988">
        <ele>131.96</ele>
        <time>2023-06-21T20:00:41.830Z</time>
      </trkpt>
      <trkpt lat="46.54847" lon="0.1499">
        <ele>131.83</ele>
        <time>2023-06-21T20:01:49.359Z</time>
      </trkpt>
      <trkpt lat="46.54845" lon="0.14993">
        <ele>131.63</ele>
        <time>2023-06-21T20:02:56.888Z</time>
      </trkpt>
      <trkpt lat="46.54842" lon="0.14998">
        <ele>131.2</ele>
        <time>2023-06-21T20:04:04.418Z</time>
      </trkpt>
      <trkpt lat="46.5484" lon="0.15003">
        <ele>130.65</ele>
        <time>2023-06-21T20:05:11.949Z</time>
      </trkpt>
      <trkpt lat="46.54837" lon="0.15008">
        <ele>130.01</ele>
        <time>2023-06-21T20:06:19.480Z</time>
      </trkpt>
      <trkpt lat="46.54831" lon="0.15018">
        <ele>128.56</ele>
        <time>2023-06-21T20:07:27.013Z</time>
      </trkpt>
      <trkpt lat="46.54825" lon="0.15029">
        <ele>126.96</ele>
        <time>2023-06-21T20:08:34.547Z</time>
      </trkpt>
      <trkpt lat="46.54822" lon="0.15042">
        <ele>125.36</ele>
        <time>2023-06-21T20:09:42.083Z</time>
      </trkpt>
      <trkpt lat="46.54823" lon="0.1506">
        <ele>123.27</ele>
        <time>2023-06-21T20:10:49.621Z</time>
      </trkpt>
      <trkpt lat="46.54823" lon="0.15068">
        <ele>122.3</ele>
        <time>2023-06-21T20:11:57.160Z</time>
      </trkpt>
      <trkpt lat="46.54824" lon="0.15073">
        <ele>121.71</ele>
        <time>2023-06-21T20:13:04.699Z</time>
      </trkpt>
      <trkpt lat="46.54826" lon="0.15079">
        <ele>120.86</ele>
        <time>2023-06-21T20:14:12.239Z</time>
      </trkpt>
      <trkpt lat="46.54827" lon="0.15084">
        <ele>120.08</ele>
        <time>2023-06-21T20:15:19.780Z</time>
      </trkpt>
      <trkpt lat="46.54834" lon="0.15102">
        <ele>117.22</ele>
        <time>2023-06-21T20:16:27.323Z</time>
      </trkpt>
      <trkpt lat="46.54838" lon="0.15113">
        <ele>117.22</ele>
        <time>2023-06-21T20:17:34.867Z</time>
      </trkpt>
      <trkpt lat="46.54842" lon="0.15125">
        <ele>117.19</ele>
        <time>2023-06-21T20:18:42.413Z</time>
      </trkpt>
      <trkpt lat="46.54848" lon="0.15142">
        <ele>117.05</ele>
        <time>2023-06-21T20:19:49.961Z</time>
      </trkpt>
      <trkpt lat="46.54852" lon="0.15154">
        <ele>116.91</ele>
        <time>2023-06-21T20:20:57.510Z</time>
      </trkpt>
      <trkpt lat="46.54858" lon="0.15169">
        <ele>116.68</ele>
        <time>2023-06-21T20:22:05.061Z</time>
      </trkpt>
      <trkpt lat="46.54861" lon="0.15184">
        <ele>116.49</ele>
        <time>2023-06-21T20:23:12.614Z</time>
      </trkpt>
      <trkpt lat="46.54866" lon="0.15215">
        <ele>116.14</ele>
        <time>2023-06-21T20:24:20.171Z</time>
      </trkpt>
      <trkpt lat="46.54873" lon="0.15253">
        <ele>115.6</ele>
        <time>2023-06-21T20:25:27.732Z</time>
      </trkpt>
      <trkpt lat="46.54875" lon="0.15266">
        <ele>115.44</ele>
        <time>2023-06-21T20:26:35.294Z</time>
      </trkpt>
      <trkpt lat="46.54879" lon="0.15285">
        <ele>115.27</ele>
        <time>2023-06-21T20:27:42.858Z</time>
      </trkpt>
      <trkpt lat="46.54882" lon="0.15304">
        <ele>115.18</ele>
        <time>2023-06-21T20:28:50.425Z</time>
      </trkpt>
      <trkpt lat="46.54884" lon="0.15316">
        <ele>115.19</ele>
        <time>2023-06-21T20:29:57.993Z</time>
      </trkpt>
      <trkpt lat="46.54887" lon="0.15329">
        <ele>115.29</ele>
        <time>2023-06-21T20:31:05.563Z</time>
      </trkpt>
      <trkpt lat="46.54888" lon="0.15335">
        <ele>115.37</ele>
        <time>2023-06-21T20:32:13.133Z</time>
      </trkpt>
      <trkpt lat="46.54888" lon="0.15337">
        <ele>115.4</ele>
        <time>2023-06-21T20:33:20.703Z</time>
      </trkpt>
      <trkpt lat="46.54886" lon="0.15348">
        <ele>115.57</ele>
        <time>2023-06-21T20:34:28.275Z</time>
      </trkpt>
      <trkpt lat="46.54881" lon="0.15379">
        <ele>116.16</ele>
        <time>2023-06-21T20:35:35.850Z</time>
      </trkpt>
      <trkpt lat="46.54879" lon="0.15392">
        <ele>116.33</ele>
        <time>2023-06-21T20:36:43.427Z</time>
      </trkpt>
      <trkpt lat="46.54877" lon="0.15405">
        <ele>116.41</ele>
        <time>2023-06-21T20:37:51.005Z</time>
      </trkpt>
      <trkpt lat="46.54876" lon="0.15412">
        <ele>116.41</ele>
        <time>2023-06-21T20:38:58.584Z</time>
      </trkpt>
      <trkpt lat="46.54876" lon="0.15412">
        <ele>116.41</ele>
        <time>2023-06-21T20:40:06.163Z</time>
      </trkpt>
      <trkpt lat="46.54876" lon="0.15418">
        <ele>116.38</ele>
        <time>2023-06-21T20:41:13.743Z</time>
      </trkpt>
      <trkpt lat="46.54877" lon="0.15424">
        <ele>116.31</ele>
        <time>2023-06-21T20:42:21.323Z</time>
      </trkpt>
      <trkpt lat="46.54877" lon="0.1543">
        <ele>116.21</ele>
        <time>2023-06-21T20:43:28.904Z</time>
      </trkpt>
      <trkpt lat="46.54877" lon="0.15437">
        <ele>116.07</ele>
        <time>2023-06-21T20:44:36.486Z</time>
      </trkpt>
      <trkpt lat="46.54878" lon="0.1545">
        <ele>115.69</ele>
        <time>2023-06-21T20:45:44.069Z</time>
      </trkpt>
      <trkpt lat="46.54878" lon="0.15453">
        <ele>115.59</ele>
        <time>2023-06-21T20:46:51.653Z</time>
      </trkpt>
      <trkpt lat="46.54878" lon="0.15457">
        <ele>115.48</ele>
        <time>2023-06-21T20:47:59.237Z</time>
      </trkpt>
      <trkpt lat="46.54877" lon="0.1547">
        <ele>115.02</ele>
        <time>2023-06-21T20:49:06.822Z</time>
      </trkpt>
      <trkpt lat="46.54876" lon="0.15502">
        <ele>113.81</ele>
        <time>2023-06-21T20:50:14.411Z</time>
      </trkpt>
      <trkpt lat="46.54876" lon="0.15515">
        <ele>113.38</ele>
        <time>2023-06-21T20:51:22.001Z</time>
      </trkpt>
      <trkpt lat="46.54876" lon="0.15522">
        <ele>113.19</ele>
        <time>2023-06-21T20:52:29.592Z</time>
      </trkpt>
      <trkpt lat="46.54875" lon="0.15535">
        <ele>112.84</ele>
        <time>2023-06-21T20:53:37.185Z</time>
      </trkpt>
      <trkpt lat="46.54874" lon="0.15567">
        <ele>112.04</ele>
        <time>2023-06-21T20:54:44.781Z</time>
      </trkpt>
      <trkpt lat="46.54874" lon="0.15574">
        <ele>111.9</ele>
        <time>2023-06-21T20:55:52.378Z</time>
      </trkpt>
      <trkpt lat="46.54873" lon="0.15587">
        <ele>111.67</ele>
        <time>2023-06-21T20:56:59.976Z</time>
      </trkpt>
      <trkpt lat="46.54872" lon="0.15613">
        <ele>111.43</ele>
        <time>2023-06-21T20:58:07.577Z</time>
      </trkpt>
      <trkpt lat="46.54872" lon="0.1562">
        <ele>111.38</ele>
        <time>2023-06-21T20:59:15.179Z</time>
      </trkpt>
      <trkpt lat="46.54874" lon="0.15629">
        <ele>111.31</ele>
        <time>2023-06-21T21:00:22.782Z</time>
      </trkpt>
      <trkpt lat="46.54878" lon="0.15645">
        <ele>111.15</ele>
        <time>2023-06-21T21:01:30.387Z</time>
      </trkpt>
      <trkpt lat="46.54889" lon="0.15692">
        <ele>110.85</ele>
        <time>2023-06-21T21:02:37.997Z</time>
      </trkpt>
      <trkpt lat="46.5489" lon="0.15699">
        <ele>110.8</ele>
        <time>2023-06-21T21:03:45.608Z</time>
      </trkpt>
      <trkpt lat="46.54891" lon="0.15701">
        <ele>110.77</ele>
        <time>2023-06-21T21:04:53.219Z</time>
      </trkpt>
      <trkpt lat="46.54891" lon="0.15744">
        <ele>110.29</ele>
        <time>2023-06-21T21:06:00.835Z</time>
      </trkpt>
      <trkpt lat="46.54891" lon="0.15757">
        <ele>110.17</ele>
        <time>2023-06-21T21:07:08.453Z</time>
      </trkpt>
      <trkpt lat="46.54891" lon="0.1577">
        <ele>110.1</ele>
        <time>2023-06-21T21:08:16.072Z</time>
      </trkpt>
      <trkpt lat="46.54891" lon="0.15783">
        <ele>110.08</ele>
        <time>2023-06-21T21:09:23.692Z</time>
      </trkpt>
      <trkpt lat="46.54891" lon="0.15821">
        <ele>110.12</ele>
        <time>2023-06-21T21:10:31.317Z</time>
      </trkpt>
      <trkpt lat="46.54891" lon="0.15841">
        <ele>110.12</ele>
        <time>2023-06-21T21:11:38.944Z</time>
      </trkpt>
      <trkpt lat="46.54891" lon="0.15906">
        <ele>110.87</ele>
        <time>2023-06-21T21:12:46.578Z</time>
      </trkpt>
      <trkpt lat="46.54891" lon="0.15924">
        <ele>111.13</ele>
        <time>2023-06-21T21:13:54.214Z</time>
      </trkpt>
      <trkpt lat="46.54891" lon="0.15932">
        <ele>111.02</ele>
        <time>2023-06-21T21:15:01.851Z</time>
      </trkpt>
      <trkpt lat="46.54891" lon="0.15937">
        <ele>111.24</ele>
        <time>2023-06-21T21:16:09.488Z</time>
      </trkpt>
      <trkpt lat="46.54889" lon="0.15944">
        <ele>111.6</ele>
        <time>2023-06-21T21:17:17.126Z</time>
      </trkpt>
      <trkpt lat="46.54886" lon="0.15957">
        <ele>112.25</ele>
        <time>2023-06-21T21:18:24.766Z</time>
      </trkpt>
      <trkpt lat="46.54883" lon="0.15969">
        <ele>112.97</ele>
        <time>2023-06-21T21:19:32.407Z</time>
      </trkpt>
      <trkpt lat="46.54877" lon="0.15994">
        <ele>114.53</ele>
        <time>2023-06-21T21:20:40.051Z</time>
      </trkpt>
      <trkpt lat="46.54877" lon="0.15993">
        <ele>114.59</ele>
        <time>2023-06-21T21:21:47.695Z</time>
      </trkpt>
      <trkpt lat="46.5488" lon="0.16011">
        <ele>115.67</ele>
        <time>2023-06-21T21:22:55.341Z</time>
      </trkpt>
      <trkpt lat="46.54887" lon="0.16049">
        <ele>118.06</ele>
        <time>2023-06-21T21:24:02.992Z</time>
      </trkpt>
      <trkpt lat="46.54888" lon="0.16057">
        <ele>118.62</ele>
        <time>2023-06-21T21:25:10.644Z</time>
      </trkpt>
      <trkpt lat="46.54888" lon="0.16061">
        <ele>118.92</ele>
        <time>2023-06-21T21:26:18.296Z</time>
      </trkpt>
      <trkpt lat="46.54887" lon="0.16088">
        <ele>120.75</ele>
        <time>2023-06-21T21:27:25.951Z</time>
      </trkpt>
      <trkpt lat="46.54887" lon="0.16104">
        <ele>121.87</ele>
        <time>2023-06-21T21:28:33.608Z</time>
      </trkpt>
      <trkpt lat="46.54888" lon="0.16114">
        <ele>122.54</ele>
        <time>2023-06-21T21:29:41.266Z</time>
      </trkpt>
      <trkpt lat="46.5489" lon="0.16126">
        <ele>123.46</ele>
        <time>2023-06-21T21:30:48.925Z</time>
      </trkpt>
      <trkpt lat="46.54893" lon="0.16154">
        <ele>125.49</ele>
        <time>2023-06-21T21:31:56.587Z</time>
      </trkpt>
      <trkpt lat="46.54894" lon="0.16158">
        <ele>125.83</ele>
        <time>2023-06-21T21:33:04.250Z</time>
      </trkpt>
      <trkpt lat="46.54907" lon="0.16192">
        <ele>128.51</ele>
        <time>2023-06-21T21:34:11.917Z</time>
      </trkpt>
      <trkpt lat="46.54912" lon="0.16204">
        <ele>129.34</ele>
        <time>2023-06-21T21:35:19.586Z</time>
      </trkpt>
      <trkpt lat="46.54925" lon="0.16239">
        <ele>131.67</ele>
        <time>2023-06-21T21:36:27.259Z</time>
      </trkpt>
      <trkpt lat="46.54925" lon="0.16239">
        <ele>131.67</ele>
        <time>2023-06-21T21:37:34.932Z</time>
      </trkpt>
      <trkpt lat="46.54929" lon="0.16264">
        <ele>133.3</ele>
        <time>2023-06-21T21:38:42.608Z</time>
      </trkpt>
      <trkpt lat="46.54933" lon="0.16289">
        <ele>134.86</ele>
        <time>2023-06-21T21:39:50.287Z</time>
      </trkpt>
      <trkpt lat="46.54935" lon="0.16302">
        <ele>135.55</ele>
        <time>2023-06-21T21:40:57.967Z</time>
      </trkpt>
      <trkpt lat="46.54937" lon="0.16314">
        <ele>136.16</ele>
        <time>2023-06-21T21:42:05.649Z</time>
      </trkpt>
      <trkpt lat="46.54938" lon="0.16321">
        <ele>136.44</ele>
        <time>2023-06-21T21:43:13.331Z</time>
      </trkpt>
      <trkpt lat="46.54939" lon="0.16329">
        <ele>136.75</ele>
        <time>2023-06-21T21:44:21.014Z</time>
      </trkpt>
      <trkpt lat="46.54939" lon="0.16334">
        <ele>136.93</ele>
        <time>2023-06-21T21:45:28.698Z</time>
      </trkpt>
      <trkpt lat="46.54941" lon="0.16347">
        <ele>137.34</ele>
        <time>2023-06-21T21:46:36.383Z</time>
      </trkpt>
      <trkpt lat="46.54941" lon="0.16353">
        <ele>137.52</ele>
        <time>2023-06-21T21:47:44.069Z</time>
      </trkpt>
      <trkpt lat="46.54943" lon="0.16366">
        <ele>137.82</ele>
        <time>2023-06-21T21:48:51.756Z</time>
      </trkpt>
      <trkpt lat="46.54943" lon="0.16372">
        <ele>137.94</ele>
        <time>2023-06-21T21:49:59.444Z</time>
      </trkpt>
      <trkpt lat="46.54945" lon="0.16385">
        <ele>138.14</ele>
        <time>2023-06-21T21:51:07.134Z</time>
      </trkpt>
      <trkpt lat="46.54946" lon="0.16397">
        <ele>138.3</ele>
        <time>2023-06-21T21:52:14.825Z</time>
      </trkpt>
      <trkpt lat="46.54946" lon="0.16398">
        <ele>138.3</ele>
        <time>2023-06-21T21:53:22.516Z</time>
      </trkpt>
      <trkpt lat="46.54948" lon="0.16411">
        <ele>138.43</ele>
        <time>2023-06-21T21:54:30.208Z</time>
      </trkpt>
      <trkpt lat="46.54953" lon="0.16436">
        <ele>138.61</ele>
        <time>2023-06-21T21:55:37.903Z</time>
      </trkpt>
      <trkpt lat="46.5496" lon="0.16474">
        <ele>138.76</ele>
        <time>2023-06-21T21:56:45.603Z</time>
      </trkpt>
      <trkpt lat="46.54963" lon="0.16493">
        <ele>138.8</ele>
        <time>2023-06-21T21:57:53.305Z</time>
      </trkpt>
      <trkpt lat="46.54966" lon="0.16509">
        <ele>138.79</ele>
        <time>2023-06-21T21:59:01.009Z</time>
      </trkpt>
      <trkpt lat="46.54967" lon="0.16512">
        <ele>138.79</ele>
        <time>2023-06-21T22:00:08.713Z</time>
      </trkpt>
      <trkpt lat="46.54978" lon="0.1654">
        <ele>138.71</ele>
        <time>2023-06-21T22:01:16.421Z</time>
      </trkpt>
      <trkpt lat="46.5499" lon="0.16568">
        <ele>138.66</ele>
        <time>2023-06-21T22:02:24.132Z</time>
      </trkpt>
      <trkpt lat="46.55001" lon="0.16596">
        <ele>138.66</ele>
        <time>2023-06-21T22:03:31.847Z</time>
      </trkpt>
      <trkpt lat="46.55008" lon="0.16613">
        <ele>138.75</ele>
        <time>2023-06-21T22:04:39.564Z</time>
      </trkpt>
      <trkpt lat="46.55009" lon="0.16617">
        <ele>138.77</ele>
        <time>2023-06-21T22:05:47.281Z</time>
      </trkpt>
      <trkpt lat="46.55016" lon="0.16623">
        <ele>138.84</ele>
        <time>2023-06-21T22:06:55.000Z</time>
      </trkpt>
      <trkpt lat="46.55035" lon="0.16646">
        <ele>139.07</ele>
        <time>2023-06-21T22:08:02.723Z</time>
      </trkpt>
      <trkpt lat="46.55042" lon="0.16654">
        <ele>139.18</ele>
        <time>2023-06-21T22:09:10.447Z</time>
      </trkpt>
      <trkpt lat="46.55052" lon="0.16667">
        <ele>139.38</ele>
        <time>2023-06-21T22:10:18.173Z</time>
      </trkpt>
      <trkpt lat="46.55063" lon="0.1668">
        <ele>139.64</ele>
        <time>2023-06-21T22:11:25.902Z</time>
      </trkpt>
      <trkpt lat="46.5507" lon="0.16687">
        <ele>139.81</ele>
        <time>2023-06-21T22:12:33.632Z</time>
      </trkpt>
      <trkpt lat="46.55092" lon="0.16709">
        <ele>140.37</ele>
        <time>2023-06-21T22:13:41.366Z</time>
      </trkpt>
      <trkpt lat="46.55096" lon="0.16712">
        <ele>140.43</ele>
        <time>2023-06-21T22:14:49.101Z</time>
      </trkpt>
      <trkpt lat="46.55114" lon="0.16716">
        <ele>140.73</ele>
        <time>2023-06-21T22:15:56.839Z</time>
      </trkpt>
      <trkpt lat="46.55127" lon="0.1672">
        <ele>140.98</ele>
        <time>2023-06-21T22:17:04.579Z</time>
      </trkpt>
      <trkpt lat="46.55141" lon="0.16723">
        <ele>141.3</ele>
        <time>2023-06-21T22:18:12.321Z</time>
      </trkpt>
      <trkpt lat="46.55157" lon="0.16727">
        <ele>141.73</ele>
        <time>2023-06-21T22:19:20.066Z</time>
      </trkpt>
      <trkpt lat="46.5518" lon="0.16732">
        <ele>142.34</ele>
        <time>2023-06-21T22:20:27.815Z</time>
      </trkpt>
      <trkpt lat="46.55203" lon="0.16736">
        <ele>142.81</ele>
        <time>2023-06-21T22:21:35.567Z</time>
      </trkpt>
      <trkpt lat="46.55211" lon="0.16741">
        <ele>142.99</ele>
        <time>2023-06-21T22:22:43.321Z</time>
      </trkpt>
      <trkpt lat="46.55227" lon="0.16764">
        <ele>143.46</ele>
        <time>2023-06-21T22:23:51.078Z</time>
      </trkpt>
      <trkpt lat="46.55239" lon="0.16783">
        <ele>143.79</ele>
        <time>2023-06-21T22:24:58.838Z</time>
      </trkpt>
      <trkpt lat="46.55252" lon="0.16802">
        <ele>144.09</ele>
        <time>2023-06-21T22:26:06.601Z</time>
      </trkpt>
      <trkpt lat="46.55271" lon="0.1683">
        <ele>144.5</ele>
        <time>2023-06-21T22:27:14.368Z</time>
      </trkpt>
      <trkpt lat="46.55271" lon="0.1683">
        <ele>144.5</ele>
        <time>2023-06-21T22:28:22.135Z</time>
      </trkpt>
      <trkpt lat="46.55281" lon="0.16843">
        <ele>144.64</ele>
        <time>2023-06-21T22:29:29.904Z</time>
      </trkpt>
      <trkpt lat="46.553" lon="0.16868">
        <ele>144.84</ele>
        <time>2023-06-21T22:30:37.678Z</time>
      </trkpt>
      <trkpt lat="46.55301" lon="0.16869">
        <ele>144.85</ele>
        <time>2023-06-21T22:31:45.452Z</time>
      </trkpt>
      <trkpt lat="46.55308" lon="0.16877">
        <ele>144.94</ele>
        <time>2023-06-21T22:32:53.227Z</time>
      </trkpt>
      <trkpt lat="46.55337" lon="0.16908">
        <ele>145.4</ele>
        <time>2023-06-21T22:34:01.008Z</time>
      </trkpt>
      <trkpt lat="46.55342" lon="0.16914">
        <ele>145.52</ele>
        <time>2023-06-21T22:35:08.790Z</time>
      </trkpt>
      <trkpt lat="46.55356" lon="0.16934">
        <ele>145.88</ele>
        <time>2023-06-21T22:36:16.575Z</time>
      </trkpt>
      <trkpt lat="46.5536" lon="0.16939">
        <ele>145.97</ele>
        <time>2023-06-21T22:37:24.361Z</time>
      </trkpt>
      <trkpt lat="46.55407" lon="0.16996">
        <ele>147.15</ele>
        <time>2023-06-21T22:38:32.157Z</time>
      </trkpt>
      <trkpt lat="46.55411" lon="0.17">
        <ele>147.22</ele>
        <time>2023-06-21T22:39:39.954Z</time>
      </trkpt>
      <trkpt lat="46.55415" lon="0.17003">
        <ele>147.3</ele>
        <time>2023-06-21T22:40:47.751Z</time>
      </trkpt>
      <trkpt lat="46.55423" lon="0.17009">
        <ele>147.42</ele>
        <time>2023-06-21T22:41:55.550Z</time>
      </trkpt>
      <trkpt lat="46.55435" lon="0.17018">
        <ele>147.52</ele>
        <time>2023-06-21T22:43:03.351Z</time>
      </trkpt>
      <trkpt lat="46.55435" lon="0.17018">
        <ele>147.52</ele>
        <time>2023-06-21T22:44:11.152Z</time>
      </trkpt>
      <trkpt lat="46.55457" lon="0.17037">
        <ele>147.6</ele>
        <time>2023-06-21T22:45:18.957Z</time>
      </trkpt>
      <trkpt lat="46.55473" lon="0.17051">
        <ele>147.61</ele>
        <time>2023-06-21T22:46:26.765Z</time>
      </trkpt>
      <trkpt lat="46.55473" lon="0.17051">
        <ele>147.61</ele>
        <time>2023-06-21T22:47:34.573Z</time>
      </trkpt>
      <trkpt lat="46.55491" lon="0.17078">
        <ele>147.55</ele>
        <time>2023-06-21T22:48:42.385Z</time>
      </trkpt>
      <trkpt lat="46.55497" lon="0.17088">
        <ele>147.56</ele>
        <time>2023-06-21T22:49:50.199Z</time>
      </trkpt>
      <trkpt lat="46.55503" lon="0.17097">
        <ele>147.6</ele>
        <time>2023-06-21T22:50:58.014Z</time>
      </trkpt>
      <trkpt lat="46.55522" lon="0.17125">
        <ele>147.43</ele>
        <time>2023-06-21T22:52:05.833Z</time>
      </trkpt>
      <trkpt lat="46.55528" lon="0.17134">
        <ele>147.41</ele>
        <time>2023-06-21T22:53:13.654Z</time>
      </trkpt>
      <trkpt lat="46.55531" lon="0.17139">
        <ele>147.42</ele>
        <time>2023-06-21T22:54:21.475Z</time>
      </trkpt>
      <trkpt lat="46.5554" lon="0.17153">
        <ele>147.53</ele>
        <time>2023-06-21T22:55:29.299Z</time>
      </trkpt>
      <trkpt lat="46.55556" lon="0.17177">
        <ele>147.83</ele>
        <time>2023-06-21T22:56:37.126Z</time>
      </trkpt>
      <trkpt lat="46.55565" lon="0.17191">
        <ele>147.97</ele>
        <time>2023-06-21T22:57:44.955Z</time>
      </trkpt>
      <trkpt lat="46.55571" lon="0.172">
        <ele>148.02</ele>
        <time>2023-06-21T22:58:52.786Z</time>
      </trkpt>
      <trkpt lat="46.55578" lon="0.1721">
        <ele>148.01</ele>
        <time>2023-06-21T23:00:00.618Z</time>
      </trkpt>
      <trkpt lat="46.55584" lon="0.17219">
        <ele>147.98</ele>
        <time>2023-06-21T23:01:08.452Z</time>
      </trkpt>
      <trkpt lat="46.55593" lon="0.17233">
        <ele>147.89</ele>
        <time>2023-06-21T23:02:16.288Z</time>
      </trkpt>
      <trkpt lat="46.55593" lon="0.17233">
        <ele>147.89</ele>
        <time>2023-06-21T23:03:24.124Z</time>
      </trkpt>
      <trkpt lat="46.55601" lon="0.1724">
        <ele>147.81</ele>
        <time>2023-06-21T23:04:31.961Z</time>
      </trkpt>
      <trkpt lat="46.55612" lon="0.17251">
        <ele>147.66</ele>
        <time>2023-06-21T23:05:39.800Z</time>
      </trkpt>
      <trkpt lat="46.55627" lon="0.17265">
        <ele>147.4</ele>
        <time>2023-06-21T23:06:47.642Z</time>
      </trkpt>
      <trkpt lat="46.55628" lon="0.17266">
        <ele>147.37</ele>
        <time>2023-06-21T23:07:55.484Z</time>
      </trkpt>
      <trkpt lat="46.55627" lon="0.17281">
        <ele>147.18</ele>
        <time>2023-06-21T23:09:03.328Z</time>
      </trkpt>
      <trkpt lat="46.55634" lon="0.17299">
        <ele>146.9</ele>
        <time>2023-06-21T23:10:11.174Z</time>
      </trkpt>
      <trkpt lat="46.5564" lon="0.17301">
        <ele>146.8</ele>
        <time>2023-06-21T23:11:19.021Z</time>
      </trkpt>
      <trkpt lat="46.55648" lon="0.17304">
        <ele>146.67</ele>
        <time>2023-06-21T23:12:26.870Z</time>
      </trkpt>
      <trkpt lat="46.55651" lon="0.17305">
        <ele>146.64</ele>
        <time>2023-06-21T23:13:34.719Z</time>
      </trkpt>
      <trkpt lat="46.55657" lon="0.17305">
        <ele>146.6</ele>
        <time>2023-06-21T23:14:42.569Z</time>
      </trkpt>
      <trkpt lat="46.55669" lon="0.17305">
        <ele>146.55</ele>
        <time>2023-06-21T23:15:50.421Z</time>
      </trkpt>
      <trkpt lat="46.55684" lon="0.17304">
        <ele>146.49</ele>
        <time>2023-06-21T23:16:58.276Z</time>
      </trkpt>
      <trkpt lat="46.55693" lon="0.17303">
        <ele>146.48</ele>
        <time>2023-06-21T23:18:06.132Z</time>
      </trkpt>
      <trkpt lat="46.55701" lon="0.17302">
        <ele>146.49</ele>
        <time>2023-06-21T23:19:13.989Z</time>
      </trkpt>
      <trkpt lat="46.55702" lon="0.17303">
        <ele>146.5</ele>
        <time>2023-06-21T23:20:21.846Z</time>
      </trkpt>
      <trkpt lat="46.55709" lon="0.1731">
        <ele>146.55</ele>
        <time>2023-06-21T23:21:29.705Z</time>
      </trkpt>
      <trkpt lat="46.55716" lon="0.17317">
        <ele>146.62</ele>
        <time>2023-06-21T23:22:37.565Z</time>
      </trkpt>
      <trkpt lat="46.55717" lon="0.17318">
        <ele>146.62</ele>
        <time>2023-06-21T23:23:45.425Z</time>
      </trkpt>
      <trkpt lat="46.55726" lon="0.1733">
        <ele>146.74</ele>
        <time>2023-06-21T23:24:53.287Z</time>
      </trkpt>
      <trkpt lat="46.55725" lon="0.17338">
        <ele>146.79</ele>
        <time>2023-06-21T23:26:01.150Z</time>
      </trkpt>
      <trkpt lat="46.55725" lon="0.17338">
        <ele>146.79</ele>
        <time>2023-06-21T23:27:09.013Z</time>
      </trkpt>
      <trkpt lat="46.55728" lon="0.1735">
        <ele>146.84</ele>
        <time>2023-06-21T23:28:16.878Z</time>
      </trkpt>
      <trkpt lat="46.55732" lon="0.17369">
        <ele>146.81</ele>
        <time>2023-06-21T23:29:24.745Z</time>
      </trkpt>
      <trkpt lat="46.55737" lon="0.17393">
        <ele>146.72</ele>
        <time>2023-06-21T23:30:32.615Z</time>
      </trkpt>
      <trkpt lat="46.55746" lon="0.17437">
        <ele>146.44</ele>
        <time>2023-06-21T23:31:40.490Z</time>
      </trkpt>
      <trkpt lat="46.55749" lon="0.17449">
        <ele>146.32</ele>
        <time>2023-06-21T23:32:48.366Z</time>
      </trkpt>
      <trkpt lat="46.55749" lon="0.17449">
        <ele>146.32</ele>
        <time>2023-06-21T23:33:56.242Z</time>
      </trkpt>
      <trkpt lat="46.55753" lon="0.17461">
        <ele>146.17</ele>
        <time>2023-06-21T23:35:04.120Z</time>
      </trkpt>
      <trkpt lat="46.55761" lon="0.17481">
        <ele>145.8</ele>
        <time>2023-06-21T23:36:12.000Z</time>
      </trkpt>
      <trkpt lat="46.55776" lon="0.17501">
        <ele>145.33</ele>
        <time>2023-06-21T23:37:19.883Z</time>
      </trkpt>
      <trkpt lat="46.55793" lon="0.17526">
        <ele>144.66</ele>
        <time>2023-06-21T23:38:27.770Z</time>
      </trkpt>
      <trkpt lat="46.55795" lon="0.17542">
        <ele>144.35</ele>
        <time>2023-06-21T23:39:35.659Z</time>
      </trkpt>
      <trkpt lat="46.55798" lon="0.17561">
        <ele>144.06</ele>
        <time>2023-06-21T23:40:43.550Z</time>
      </trkpt>
      <trkpt lat="46.55799" lon="0.17566">
        <ele>144.01</ele>
        <time>2023-06-21T23:41:51.442Z</time>
      </trkpt>
      <trkpt lat="46.55799" lon="0.17568">
        <ele>143.99</ele>
        <time>2023-06-21T23:42:59.334Z</time>
      </trkpt>
      <trkpt lat="46.55799" lon="0.17581">
        <ele>143.89</ele>
        <time>2023-06-21T23:44:07.227Z</time>
      </trkpt>
      <trkpt lat="46.55799" lon="0.17601">
        <ele>143.77</ele>
        <time>2023-06-21T23:45:15.123Z</time>
      </trkpt>
      <trkpt lat="46.55805" lon="0.17624">
        <ele>143.63</ele>
        <time>2023-06-21T23:46:23.021Z</time>
      </trkpt>
      <trkpt lat="46.55813" lon="0.17617">
        <ele>143.56</ele>
        <time>2023-06-21T23:47:30.921Z</time>
      </trkpt>
      <trkpt lat="46.55825" lon="0.17607">
        <ele>143.37</ele>
        <time>2023-06-21T23:48:38.823Z</time>
      </trkpt>
      <trkpt lat="46.55833" lon="0.17601">
        <ele>143.18</ele>
        <time>2023-06-21T23:49:46.726Z</time>
      </trkpt>
      <trkpt lat="46.55838" lon="0.17597">
        <ele>143.03</ele>
        <time>2023-06-21T23:50:54.630Z</time>
      </trkpt>
      <trkpt lat="46.55844" lon="0.1759">
        <ele>142.84</ele>
        <time>2023-06-21T23:52:02.536Z</time>
      </trkpt>
      <trkpt lat="46.55854" lon="0.1758">
        <ele>142.47</ele>
        <time>2023-06-21T23:53:10.444Z</time>
      </trkpt>
      <trkpt lat="46.55864" lon="0.17564">
        <ele>142.04</ele>
        <time>2023-06-21T23:54:18.354Z</time>
      </trkpt>
      <trkpt lat="46.55876" lon="0.17545">
        <ele>141.56</ele>
        <time>2023-06-21T23:55:26.267Z</time>
      </trkpt>
      <trkpt lat="46.55881" lon="0.17537">
        <ele>141.34</ele>
        <time>2023-06-21T23:56:34.181Z</time>
      </trkpt>
      <trkpt lat="46.55885" lon="0.17531">
        <ele>141.17</ele>
        <time>2023-06-21T23:57:42.096Z</time>
      </trkpt>
      <trkpt lat="46.55894" lon="0.17519">
        <ele>140.77</ele>
        <time>2023-06-21T23:58:50.013Z</time>
      </trkpt>
      <trkpt lat="46.559" lon="0.17516">
        <ele>140.57</ele>
        <time>2023-06-21T23:59:57.931Z</time>
      </trkpt>
      <trkpt lat="46.55908" lon="0.17512">
        <ele>140.22</ele>
        <time>2023-06-22T00:01:05.850Z</time>
      </trkpt>
      <trkpt lat="46.55917" lon="0.17508">
        <ele>139.84</ele>
        <time>2023-06-22T00:02:13.771Z</time>
      </trkpt>
      <trkpt lat="46.55934" lon="0.175">
        <ele>138.98</ele>
        <time>2023-06-22T00:03:21.695Z</time>
      </trkpt>
      <trkpt lat="46.55955" lon="0.17489">
        <ele>137.78</ele>
        <time>2023-06-22T00:04:29.622Z</time>
      </trkpt>
      <trkpt lat="46.5596" lon="0.17487">
        <ele>137.47</ele>
        <time>2023-06-22T00:05:37.550Z</time>
      </trkpt>
      <trkpt lat="46.55964" lon="0.17485">
        <ele>137.25</ele>
        <time>2023-06-22T00:06:45.479Z</time>
      </trkpt>
      <trkpt lat="46.55984" lon="0.17472">
        <ele>135.83</ele>
        <time>2023-06-22T00:07:53.411Z</time>
      </trkpt>
      <trkpt lat="46.55986" lon="0.17471">
        <ele>135.7</ele>
        <time>2023-06-22T00:09:01.344Z</time>
      </trkpt>
      <trkpt lat="46.55999" lon="0.17501">
        <ele>134.16</ele>
        <time>2023-06-22T00:10:09.280Z</time>
      </trkpt>
      <trkpt lat="46.55999" lon="0.17502">
        <ele>134.16</ele>
        <time>2023-06-22T00:11:17.217Z</time>
      </trkpt>
      <trkpt lat="46.56001" lon="0.17515">
        <ele>133.66</ele>
        <time>2023-06-22T00:12:25.155Z</time>
      </trkpt>
      <trkpt lat="46.56004" lon="0.17534">
        <ele>133</ele>
        <time>2023-06-22T00:13:33.095Z</time>
      </trkpt>
      <trkpt lat="46.56006" lon="0.17546">
        <ele>132.38</ele>
        <time>2023-06-22T00:14:41.037Z</time>
      </trkpt>
      <trkpt lat="46.56007" lon="0.17553">
        <ele>132.06</ele>
        <time>2023-06-22T00:15:48.979Z</time>
      </trkpt>
      <trkpt lat="46.56008" lon="0.17558">
        <ele>131.81</ele>
        <time>2023-06-22T00:16:56.922Z</time>
      </trkpt>
      <trkpt lat="46.56012" lon="0.1757">
        <ele>131.33</ele>
        <time>2023-06-22T00:18:04.866Z</time>
      </trkpt>
      <trkpt lat="46.56012" lon="0.17572">
        <ele>131.27</ele>
        <time>2023-06-22T00:19:12.811Z</time>
      </trkpt>
      <trkpt lat="46.56018" lon="0.17579">
        <ele>130.95</ele>
        <time>2023-06-22T00:20:20.757Z</time>
      </trkpt>
      <trkpt lat="46.56018" lon="0.17579">
        <ele>130.95</ele>
        <time>2023-06-22T00:21:28.703Z</time>
      </trkpt>
      <trkpt lat="46.56023" lon="0.17589">
        <ele>130.66</ele>
        <time>2023-06-22T00:22:36.650Z</time>
      </trkpt>
      <trkpt lat="46.56028" lon="0.176">
        <ele>130.44</ele>
        <time>2023-06-22T00:23:44.599Z</time>
      </trkpt>
      <trkpt lat="46.56031" lon="0.17607">
        <ele>130.33</ele>
        <time>2023-06-22T00:24:52.549Z</time>
      </trkpt>
      <trkpt lat="46.56032" lon="0.17611">
        <ele>130.28</ele>
        <time>2023-06-22T00:26:00.499Z</time>
      </trkpt>
      <trkpt lat="46.56035" lon="0.17623">
        <ele>130.18</ele>
        <time>2023-06-22T00:27:08.450Z</time>
      </trkpt>
      <trkpt lat="46.56036" lon="0.17629">
        <ele>130.16</ele>
        <time>2023-06-22T00:28:16.402Z</time>
      </trkpt>
      <trkpt lat="46.56039" lon="0.17641">
        <ele>130.18</ele>
        <time>2023-06-22T00:29:24.356Z</time>
      </trkpt>
      <trkpt lat="46.56042" lon="0.17653">
        <ele>130.26</ele>
        <time>2023-06-22T00:30:32.311Z</time>
      </trkpt>
      <trkpt lat="46.56045" lon="0.17665">
        <ele>130.4</ele>
        <time>2023-06-22T00:31:40.267Z</time>
      </trkpt>
      <trkpt lat="46.56047" lon="0.17671">
        <ele>130.5</ele>
        <time>2023-06-22T00:32:48.224Z</time>
      </trkpt>
      <trkpt lat="46.5605" lon="0.17683">
        <ele>130.75</ele>
        <time>2023-06-22T00:33:56.182Z</time>
      </trkpt>
      <trkpt lat="46.56053" lon="0.17695">
        <ele>131.04</ele>
        <time>2023-06-22T00:35:04.142Z</time>
      </trkpt>
      <trkpt lat="46.56056" lon="0.17707">
        <ele>131.42</ele>
        <time>2023-06-22T00:36:12.103Z</time>
      </trkpt>
      <trkpt lat="46.56059" lon="0.17719">
        <ele>131.87</ele>
        <time>2023-06-22T00:37:20.066Z</time>
      </trkpt>
      <trkpt lat="46.5606" lon="0.17726">
        <ele>132.12</ele>
        <time>2023-06-22T00:38:28.029Z</time>
      </trkpt>
      <trkpt lat="46.56064" lon="0.1774">
        <ele>132.75</ele>
        <time>2023-06-22T00:39:35.994Z</time>
      </trkpt>
      <trkpt lat="46.56068" lon="0.17749">
        <ele>133.2</ele>
        <time>2023-06-22T00:40:43.960Z</time>
      </trkpt>
      <trkpt lat="46.56073" lon="0.1776">
        <ele>133.67</ele>
        <time>2023-06-22T00:41:51.928Z</time>
      </trkpt>
      <trkpt lat="46.56078" lon="0.17772">
        <ele>134.12</ele>
        <time>2023-06-22T00:42:59.897Z</time>
      </trkpt>
      <trkpt lat="46.56086" lon="0.17786">
        <ele>134.74</ele>
        <time>2023-06-22T00:44:07.868Z</time>
      </trkpt>
      <trkpt lat="46.56104" lon="0.17816">
        <ele>136.08</ele>
        <time>2023-06-22T00:45:15.844Z</time>
      </trkpt>
      <trkpt lat="46.56113" lon="0.17831">
        <ele>136.72</ele>
        <time>2023-06-22T00:46:23.822Z</time>
      </trkpt>
      <trkpt lat="46.56113" lon="0.17831">
        <ele>136.72</ele>
        <time>2023-06-22T00:47:31.800Z</time>
      </trkpt>
      <trkpt lat="46.56118" lon="0.17841">
        <ele>137.18</ele>
        <time>2023-06-22T00:48:39.779Z</time>
      </trkpt>
      <trkpt lat="46.56123" lon="0.17852">
        <ele>137.71</ele>
        <time>2023-06-22T00:49:47.760Z</time>
      </trkpt>
      <trkpt lat="46.56126" lon="0.17857">
        <ele>137.99</ele>
        <time>2023-06-22T00:50:55.741Z</time>
      </trkpt>
      <trkpt lat="46.56141" lon="0.17872">
        <ele>139.16</ele>
        <time>2023-06-22T00:52:03.725Z</time>
      </trkpt>
      <trkpt lat="46.56148" lon="0.1788">
        <ele>139.65</ele>
        <time>2023-06-22T00:53:11.711Z</time>
      </trkpt>
      <trkpt lat="46.56152" lon="0.17884">
        <ele>139.85</ele>
        <time>2023-06-22T00:54:19.698Z</time>
      </trkpt>
      <trkpt lat="46.56155" lon="0.17888">
        <ele>140.02</ele>
        <time>2023-06-22T00:55:27.685Z</time>
      </trkpt>
      <trkpt lat="46.56163" lon="0.17895">
        <ele>140.29</ele>
        <time>2023-06-22T00:56:35.674Z</time>
      </trkpt>
      <trkpt lat="46.56169" lon="0.17902">
        <ele>140.48</ele>
        <time>2023-06-22T00:57:43.664Z</time>
      </trkpt>
      <trkpt lat="46.56185" lon="0.17927">
        <ele>141.06</ele>
        <time>2023-06-22T00:58:51.658Z</time>
      </trkpt>
      <trkpt lat="46.56186" lon="0.17928">
        <ele>141.08</ele>
        <time>2023-06-22T00:59:59.652Z</time>
      </trkpt>
      <trkpt lat="46.56197" lon="0.17936">
        <ele>141.36</ele>
        <time>2023-06-22T01:01:07.648Z</time>
      </trkpt>
      <trkpt lat="46.562" lon="0.17938">
        <ele>141.28</ele>
        <time>2023-06-22T01:02:15.644Z</time>
      </trkpt>
      <trkpt lat="46.5621" lon="0.17944">
        <ele>141.05</ele>
        <time>2023-06-22T01:03:23.642Z</time>
      </trkpt>
      <trkpt lat="46.56239" lon="0.1796">
        <ele>140.47</ele>
        <time>2023-06-22T01:04:31.645Z</time>
      </trkpt>
      <trkpt lat="46.56251" lon="0.17967">
        <ele>140.17</ele>
        <time>2023-06-22T01:05:39.650Z</time>
      </trkpt>
      <trkpt lat="46.56257" lon="0.17971">
        <ele>139.99</ele>
        <time>2023-06-22T01:06:47.656Z</time>
      </trkpt>
      <trkpt lat="46.56259" lon="0.17972">
        <ele>139.93</ele>
        <time>2023-06-22T01:07:55.663Z</time>
      </trkpt>
      <trkpt lat="46.56272" lon="0.17978">
        <ele>139.51</ele>
        <time>2023-06-22T01:09:03.672Z</time>
      </trkpt>
      <trkpt lat="46.56281" lon="0.17981">
        <ele>139.17</ele>
        <time>2023-06-22T01:10:11.682Z</time>
      </trkpt>
      <trkpt lat="46.56289" lon="0.17985">
        <ele>138.76</ele>
        <time>2023-06-22T01:11:19.694Z</time>
      </trkpt>
      <trkpt lat="46.56289" lon="0.17985">
        <ele>138.76</ele>
        <time>2023-06-22T01:12:27.706Z</time>
      </trkpt>
      <trkpt lat="46.56298" lon="0.17987">
        <ele>138.29</ele>
        <time>2023-06-22T01:13:35.719Z</time>
      </trkpt>
      <trkpt lat="46.56307" lon="0.1799">
        <ele>137.74</ele>
        <time>2023-06-22T01:14:43.733Z</time>
      </trkpt>
      <trkpt lat="46.56311" lon="0.17991">
        <ele>137.43</ele>
        <time>2023-06-22T01:15:51.748Z</time>
      </trkpt>
      <trkpt lat="46.5632" lon="0.17993">
        <ele>136.75</ele>
        <time>2023-06-22T01:16:59.765Z</time>
      </trkpt>
      <trkpt lat="46.56329" lon="0.17995">
        <ele>135.97</ele>
        <time>2023-06-22T01:18:07.783Z</time>
      </trkpt>
      <trkpt lat="46.56338" lon="0.17998">
        <ele>135.11</ele>
        <time>2023-06-22T01:19:15.802Z</time>
      </trkpt>
      <trkpt lat="46.56339" lon="0.17998">
        <ele>134.95</ele>
        <time>2023-06-22T01:20:23.822Z</time>
      </trkpt>
      <trkpt lat="46.5636" lon="0.17998">
        <ele>132.79</ele>
        <time>2023-06-22T01:21:31.845Z</time>
      </trkpt>
      <trkpt lat="46.56369" lon="0.17999">
        <ele>131.9</ele>
        <time>2023-06-22T01:22:39.869Z</time>
      </trkpt>
      <trkpt lat="46.56378" lon="0.17999">
        <ele>131.07</ele>
        <time>2023-06-22T01:23:47.895Z</time>
      </trkpt>
      <trkpt lat="46.56396" lon="0.17999">
        <ele>129.48</ele>
        <time>2023-06-22T01:24:55.924Z</time>
      </trkpt>
      <trkpt lat="46.56396" lon="0.17999">
        <ele>129.48</ele>
        <time>2023-06-22T01:26:03.953Z</time>
      </trkpt>
      <trkpt lat="46.56404" lon="0.17998">
        <ele>128.62</ele>
        <time>2023-06-22T01:27:11.983Z</time>
      </trkpt>
      <trkpt lat="46.56413" lon="0.17997">
        <ele>128.69</ele>
        <time>2023-06-22T01:28:20.015Z</time>
      </trkpt>
      <trkpt lat="46.56415" lon="0.17997">
        <ele>128.68</ele>
        <time>2023-06-22T01:29:28.047Z</time>
      </trkpt>
      <trkpt lat="46.56427" lon="0.17998">
        <ele>128.68</ele>
        <time>2023-06-22T01:30:36.081Z</time>
      </trkpt>
      <trkpt lat="46.56436" lon="0.17998">
        <ele>128.71</ele>
        <time>2023-06-22T01:31:44.116Z</time>
      </trkpt>
      <trkpt lat="46.56453" lon="0.17999">
        <ele>128.85</ele>
        <time>2023-06-22T01:32:52.154Z</time>
      </trkpt>
      <trkpt lat="46.56476" lon="0.18">
        <ele>129.06</ele>
        <time>2023-06-22T01:34:00.196Z</time>
      </trkpt>
      <trkpt lat="46.56476" lon="0.18">
        <ele>129.06</ele>
        <time>2023-06-22T01:35:08.238Z</time>
      </trkpt>
      <trkpt lat="46.5648" lon="0.17999">
        <ele>129.09</ele>
        <time>2023-06-22T01:36:16.280Z</time>
      </trkpt>
      <trkpt lat="46.56502" lon="0.17994">
        <ele>129.13</ele>
        <time>2023-06-22T01:37:24.326Z</time>
      </trkpt>
      <trkpt lat="46.56515" lon="0.1799">
        <ele>129.21</ele>
        <time>2023-06-22T01:38:32.374Z</time>
      </trkpt>
      <trkpt lat="46.56524" lon="0.17988">
        <ele>129.29</ele>
        <time>2023-06-22T01:39:40.423Z</time>
      </trkpt>
      <trkpt lat="46.56533" lon="0.17986">
        <ele>129.41</ele>
        <time>2023-06-22T01:40:48.474Z</time>
      </trkpt>
      <trkpt lat="46.56542" lon="0.17984">
        <ele>129.84</ele>
        <time>2023-06-22T01:41:56.526Z</time>
      </trkpt>
      <trkpt lat="46.56546" lon="0.17983">
        <ele>130.1</ele>
        <time>2023-06-22T01:43:04.579Z</time>
      </trkpt>
      <trkpt lat="46.5655" lon="0.17982">
        <ele>130.39</ele>
        <time>2023-06-22T01:44:12.633Z</time>
      </trkpt>
      <trkpt lat="46.56555" lon="0.17981">
        <ele>130.74</ele>
        <time>2023-06-22T01:45:20.687Z</time>
      </trkpt>
      <trkpt lat="46.56557" lon="0.1798">
        <ele>130.94</ele>
        <time>2023-06-22T01:46:28.742Z</time>
      </trkpt>
      <trkpt lat="46.56559" lon="0.17981">
        <ele>131.13</ele>
        <time>2023-06-22T01:47:36.797Z</time>
      </trkpt>
      <trkpt lat="46.56563" lon="0.17984">
        <ele>131.56</ele>
        <time>2023-06-22T01:48:44.853Z</time>
      </trkpt>
      <trkpt lat="46.56579" lon="0.17995">
        <ele>133.34</ele>
        <time>2023-06-22T01:49:52.912Z</time>
      </trkpt>
      <trkpt lat="46.56581" lon="0.17996">
        <ele>133.5</ele>
        <time>2023-06-22T01:51:00.971Z</time>
      </trkpt>
      <trkpt lat="46.56588" lon="0.17999">
        <ele>134.16</ele>
        <time>2023-06-22T01:52:09.031Z</time>
      </trkpt>
      <trkpt lat="46.56592" lon="0.18">
        <ele>134.53</ele>
        <time>2023-06-22T01:53:17.092Z</time>
      </trkpt>
      <trkpt lat="46.56597" lon="0.18002">
        <ele>134.86</ele>
        <time>2023-06-22T01:54:25.154Z</time>
      </trkpt>
      <trkpt lat="46.56597" lon="0.18002">
        <ele>134.86</ele>
        <time>2023-06-22T01:55:33.216Z</time>
      </trkpt>
      <trkpt lat="46.56601" lon="0.18002">
        <ele>135.15</ele>
        <time>2023-06-22T01:56:41.278Z</time>
      </trkpt>
      <trkpt lat="46.56605" lon="0.18002">
        <ele>135.4</ele>
        <time>2023-06-22T01:57:49.341Z</time>
      </trkpt>
      <trkpt lat="46.5661" lon="0.18002">
        <ele>135.6</ele>
        <time>2023-06-22T01:58:57.405Z</time>
      </trkpt>
      <trkpt lat="46.56614" lon="0.18002">
        <ele>135.77</ele>
        <time>2023-06-22T02:00:05.469Z</time>
      </trkpt>
      <trkpt lat="46.56619" lon="0.18002">
        <ele>135.9</ele>
        <time>2023-06-22T02:01:13.534Z</time>
      </trkpt>
      <trkpt lat="46.56623" lon="0.18002">
        <ele>136</ele>
        <time>2023-06-22T02:02:21.600Z</time>
      </trkpt>
      <trkpt lat="46.56628" lon="0.18002">
        <ele>136.08</ele>
        <time>2023-06-22T02:03:29.667Z</time>
      </trkpt>
      <trkpt lat="46.56637" lon="0.18002">
        <ele>136.18</ele>
        <time>2023-06-22T02:04:37.735Z</time>
      </trkpt>
      <trkpt lat="46.56645" lon="0.18002">
        <ele>136.24</ele>
        <time>2023-06-22T02:05:45.804Z</time>
      </trkpt>
      <trkpt lat="46.56646" lon="0.18002">
        <ele>136.24</ele>
        <time>2023-06-22T02:06:53.873Z</time>
      </trkpt>
      <trkpt lat="46.56654" lon="0.17997">
        <ele>136.27</ele>
        <time>2023-06-22T02:08:01.944Z</time>
      </trkpt>
      <trkpt lat="46.56663" lon="0.17993">
        <ele>136.27</ele>
        <time>2023-06-22T02:09:10.016Z</time>
      </trkpt>
      <trkpt lat="46.56683" lon="0.18027">
        <ele>136.29</ele>
        <time>2023-06-22T02:10:18.093Z</time>
      </trkpt>
      <trkpt lat="46.56689" lon="0.18036">
        <ele>136.32</ele>
        <time>2023-06-22T02:11:26.172Z</time>
      </trkpt>
      <trkpt lat="46.56689" lon="0.18036">
        <ele>136.32</ele>
        <time>2023-06-22T02:12:34.251Z</time>
      </trkpt>
      <trkpt lat="46.56697" lon="0.18029">
        <ele>136.39</ele>
        <time>2023-06-22T02:13:42.331Z</time>
      </trkpt>
      <trkpt lat="46.567" lon="0.18027">
        <ele>136.43</ele>
        <time>2023-06-22T02:14:50.412Z</time>
      </trkpt>
      <trkpt lat="46.56708" lon="0.18018">
        <ele>136.6</ele>
        <time>2023-06-22T02:15:58.494Z</time>
      </trkpt>
      <trkpt lat="46.56711" lon="0.18013">
        <ele>136.69</ele>
        <time>2023-06-22T02:17:06.577Z</time>
      </trkpt>
      <trkpt lat="46.56718" lon="0.18005">
        <ele>136.92</ele>
        <time>2023-06-22T02:18:14.662Z</time>
      </trkpt>
      <trkpt lat="46.56725" lon="0.17997">
        <ele>137.21</ele>
        <time>2023-06-22T02:19:22.748Z</time>
      </trkpt>
      <trkpt lat="46.56729" lon="0.17993">
        <ele>137.37</ele>
        <time>2023-06-22T02:20:30.835Z</time>
      </trkpt>
      <trkpt lat="46.56736" lon="0.17985">
        <ele>137.74</ele>
        <time>2023-06-22T02:21:38.923Z</time>
      </trkpt>
      <trkpt lat="46.56739" lon="0.1798">
        <ele>137.95</ele>
        <time>2023-06-22T02:22:47.012Z</time>
      </trkpt>
      <trkpt lat="46.56748" lon="0.1797">
        <ele>138.52</ele>
        <time>2023-06-22T02:23:55.103Z</time>
      </trkpt>
      <trkpt lat="46.56752" lon="0.17962">
        <ele>138.86</ele>
        <time>2023-06-22T02:25:03.195Z</time>
      </trkpt>
      <trkpt lat="46.56757" lon="0.17952">
        <ele>139.22</ele>
        <time>2023-06-22T02:26:11.288Z</time>
      </trkpt>
      <trkpt lat="46.5676" lon="0.17946">
        <ele>139.34</ele>
        <time>2023-06-22T02:27:19.382Z</time>
      </trkpt>
      <trkpt lat="46.56762" lon="0.17941">
        <ele>139.43</ele>
        <time>2023-06-22T02:28:27.477Z</time>
      </trkpt>
      <trkpt lat="46.56765" lon="0.17936">
        <ele>139.48</ele>
        <time>2023-06-22T02:29:35.572Z</time>
      </trkpt>
      <trkpt lat="46.56767" lon="0.17931">
        <ele>139.49</ele>
        <time>2023-06-22T02:30:43.668Z</time>
      </trkpt>
      <trkpt lat="46.5677" lon="0.17925">
        <ele>139.47</ele>
        <time>2023-06-22T02:31:51.765Z</time>
      </trkpt>
      <trkpt lat="46.56775" lon="0.17915">
        <ele>139.35</ele>
        <time>2023-06-22T02:32:59.863Z</time>
      </trkpt>
      <trkpt lat="46.56778" lon="0.17909">
        <ele>139.24</ele>
        <time>2023-06-22T02:34:07.962Z</time>
      </trkpt>
      <trkpt lat="46.5678" lon="0.17904">
        <ele>139.15</ele>
        <time>2023-06-22T02:35:16.062Z</time>
      </trkpt>
      <trkpt lat="46.56791" lon="0.17875">
        <ele>138.53</ele>
        <time>2023-06-22T02:36:24.165Z</time>
      </trkpt>
      <trkpt lat="46.56802" lon="0.17847">
        <ele>137.88</ele>
        <time>2023-06-22T02:37:32.272Z</time>
      </trkpt>
      <trkpt lat="46.56807" lon="0.17834">
        <ele>137.61</ele>
        <time>2023-06-22T02:38:40.380Z</time>
      </trkpt>
      <trkpt lat="46.56812" lon="0.17818">
        <ele>137.3</ele>
        <time>2023-06-22T02:39:48.490Z</time>
      </trkpt>
      <trkpt lat="46.56817" lon="0.178">
        <ele>136.87</ele>
        <time>2023-06-22T02:40:56.603Z</time>
      </trkpt>
      <trkpt lat="46.56823" lon="0.17782">
        <ele>136.33</ele>
        <time>2023-06-22T02:42:04.718Z</time>
      </trkpt>
      <trkpt lat="46.56824" lon="0.17778">
        <ele>136.18</ele>
        <time>2023-06-22T02:43:12.833Z</time>
      </trkpt>
      <trkpt lat="46.56826" lon="0.17763">
        <ele>135.72</ele>
        <time>2023-06-22T02:44:20.950Z</time>
      </trkpt>
      <trkpt lat="46.56827" lon="0.17758">
        <ele>135.51</ele>
        <time>2023-06-22T02:45:29.067Z</time>
      </trkpt>
      <trkpt lat="46.56824" lon="0.17734">
        <ele>134.61</ele>
        <time>2023-06-22T02:46:37.187Z</time>
      </trkpt>
      <trkpt lat="46.56819" lon="0.1772">
        <ele>134.03</ele>
        <time>2023-06-22T02:47:45.309Z</time>
      </trkpt>
      <trkpt lat="46.56814" lon="0.17709">
        <ele>133.6</ele>
        <time>2023-06-22T02:48:53.432Z</time>
      </trkpt>
      <trkpt lat="46.56813" lon="0.17706">
        <ele>133.49</ele>
        <time>2023-06-22T02:50:01.556Z</time>
      </trkpt>
      <trkpt lat="46.56812" lon="0.17704">
        <ele>133.41</ele>
        <time>2023-06-22T02:51:09.680Z</time>
      </trkpt>
      <trkpt lat="46.56809" lon="0.17698">
        <ele>133.25</ele>
        <time>2023-06-22T02:52:17.805Z</time>
      </trkpt>
      <trkpt lat="46.56804" lon="0.17687">
        <ele>132.98</ele>
        <time>2023-06-22T02:53:25.931Z</time>
      </trkpt>
      <trkpt lat="46.56799" lon="0.17676">
        <ele>132.79</ele>
        <time>2023-06-22T02:54:34.059Z</time>
      </trkpt>
      <trkpt lat="46.56795" lon="0.17666">
        <ele>132.69</ele>
        <time>2023-06-22T02:55:42.188Z</time>
      </trkpt>
      <trkpt lat="46.56792" lon="0.1766">
        <ele>132.67</ele>
        <time>2023-06-22T02:56:50.318Z</time>
      </trkpt>
      <trkpt lat="46.56792" lon="0.1766">
        <ele>132.67</ele>
        <time>2023-06-22T02:57:58.448Z</time>
      </trkpt>
      <trkpt lat="46.56786" lon="0.17651">
        <ele>132.73</ele>
        <time>2023-06-22T02:59:06.579Z</time>
      </trkpt>
      <trkpt lat="46.56779" lon="0.17642">
        <ele>132.86</ele>
        <time>2023-06-22T03:00:14.712Z</time>
      </trkpt>
      <trkpt lat="46.56767" lon="0.17634">
        <ele>133.07</ele>
        <time>2023-06-22T03:01:22.847Z</time>
      </trkpt>
      <trkpt lat="46.56763" lon="0.17632">
        <ele>133.12</ele>
        <time>2023-06-22T03:02:30.982Z</time>
      </trkpt>
      <trkpt lat="46.56763" lon="0.17632">
        <ele>133.12</ele>
        <time>2023-06-22T03:03:39.118Z</time>
      </trkpt>
      <trkpt lat="46.56754" lon="0.1763">
        <ele>133.16</ele>
        <time>2023-06-22T03:04:47.255Z</time>
      </trkpt>
      <trkpt lat="46.56747" lon="0.17628">
        <ele>133.09</ele>
        <time>2023-06-22T03:05:55.393Z</time>
      </trkpt>
      <trkpt lat="46.56745" lon="0.17628">
        <ele>133.08</ele>
        <time>2023-06-22T03:07:03.531Z</time>
      </trkpt>
      <trkpt lat="46.56736" lon="0.17626">
        <ele>132.9</ele>
        <time>2023-06-22T03:08:11.671Z</time>
      </trkpt>
      <trkpt lat="46.56727" lon="0.17625">
        <ele>132.62</ele>
        <time>2023-06-22T03:09:19.812Z</time>
      </trkpt>
      <trkpt lat="46.56723" lon="0.17625">
        <ele>132.46</ele>
        <time>2023-06-22T03:10:27.954Z</time>
      </trkpt>
      <trkpt lat="46.56714" lon="0.17623">
        <ele>132.09</ele>
        <time>2023-06-22T03:11:36.097Z</time>
      </trkpt>
      <trkpt lat="46.56712" lon="0.17623">
        <ele>131.99</ele>
        <time>2023-06-22T03:12:44.241Z</time>
      </trkpt>
      <trkpt lat="46.56705" lon="0.17621">
        <ele>131.66</ele>
        <time>2023-06-22T03:13:52.386Z</time>
      </trkpt>
      <trkpt lat="46.567" lon="0.17619">
        <ele>131.39</ele>
        <time>2023-06-22T03:15:00.532Z</time>
      </trkpt>
      <trkpt lat="46.56697" lon="0.17615">
        <ele>131.2</ele>
        <time>2023-06-22T03:16:08.678Z</time>
      </trkpt>
      <trkpt lat="46.5669" lon="0.17604">
        <ele>130.6</ele>
        <time>2023-06-22T03:17:16.826Z</time>
      </trkpt>
      <trkpt lat="46.56684" lon="0.17583">
        <ele>129.71</ele>
        <time>2023-06-22T03:18:24.976Z</time>
      </trkpt>
      <trkpt lat="46.56683" lon="0.17563">
        <ele>128.93</ele>
        <time>2023-06-22T03:19:33.129Z</time>
      </trkpt>
      <trkpt lat="46.56683" lon="0.17563">
        <ele>128.93</ele>
        <time>2023-06-22T03:20:41.282Z</time>
      </trkpt>
      <trkpt lat="46.56698" lon="0.17538">
        <ele>127.71</ele>
        <time>2023-06-22T03:21:49.438Z</time>
      </trkpt>
      <trkpt lat="46.56713" lon="0.17514">
        <ele>126.36</ele>
        <time>2023-06-22T03:22:57.598Z</time>
      </trkpt>
      <trkpt lat="46.56718" lon="0.17504">
        <ele>125.85</ele>
        <time>2023-06-22T03:24:05.759Z</time>
      </trkpt>
      <trkpt lat="46.56721" lon="0.17499">
        <ele>125.62</ele>
        <time>2023-06-22T03:25:13.921Z</time>
      </trkpt>
      <trkpt lat="46.56724" lon="0.17494">
        <ele>125.4</ele>
        <time>2023-06-22T03:26:22.084Z</time>
      </trkpt>
      <trkpt lat="46.56728" lon="0.17488">
        <ele>125.15</ele>
        <time>2023-06-22T03:27:30.248Z</time>
      </trkpt>
      <trkpt lat="46.5673" lon="0.17484">
        <ele>125</ele>
        <time>2023-06-22T03:28:38.412Z</time>
      </trkpt>
      <trkpt lat="46.56743" lon="0.17458">
        <ele>124.11</ele>
        <time>2023-06-22T03:29:46.580Z</time>
      </trkpt>
      <trkpt lat="46.56749" lon="0.17448">
        <ele>123.73</ele>
        <time>2023-06-22T03:30:54.749Z</time>
      </trkpt>
      <trkpt lat="46.56752" lon="0.17442">
        <ele>123.51</ele>
        <time>2023-06-22T03:32:02.919Z</time>
      </trkpt>
      <trkpt lat="46.5676" lon="0.17427">
        <ele>122.78</ele>
        <time>2023-06-22T03:33:11.091Z</time>
      </trkpt>
      <trkpt lat="46.56762" lon="0.17421">
        <ele>122.57</ele>
        <time>2023-06-22T03:34:19.264Z</time>
      </trkpt>
      <trkpt lat="46.56768" lon="0.17411">
        <ele>122.21</ele>
        <time>2023-06-22T03:35:27.438Z</time>
      </trkpt>
      <trkpt lat="46.56776" lon="0.17396">
        <ele>121.74</ele>
        <time>2023-06-22T03:36:35.614Z</time>
      </trkpt>
      <trkpt lat="46.56781" lon="0.17385">
        <ele>121.25</ele>
        <time>2023-06-22T03:37:43.792Z</time>
      </trkpt>
      <trkpt lat="46.56798" lon="0.17382">
        <ele>120.32</ele>
        <time>2023-06-22T03:38:51.973Z</time>
      </trkpt>
      <trkpt lat="46.56812" lon="0.17379">
        <ele>119.55</ele>
        <time>2023-06-22T03:40:00.156Z</time>
      </trkpt>
      <trkpt lat="46.56838" lon="0.17386">
        <ele>118.07</ele>
        <time>2023-06-22T03:41:08.343Z</time>
      </trkpt>
      <trkpt lat="46.56847" lon="0.17389">
        <ele>117.55</ele>
        <time>2023-06-22T03:42:16.532Z</time>
      </trkpt>
      <trkpt lat="46.56852" lon="0.1739">
        <ele>117.22</ele>
        <time>2023-06-22T03:43:24.721Z</time>
      </trkpt>
      <trkpt lat="46.56864" lon="0.17391">
        <ele>116.46</ele>
        <time>2023-06-22T03:44:32.912Z</time>
      </trkpt>
      <trkpt lat="46.56882" lon="0.17393">
        <ele>115.41</ele>
        <time>2023-06-22T03:45:41.106Z</time>
      </trkpt>
      <trkpt lat="46.56904" lon="0.17395">
        <ele>113.99</ele>
        <time>2023-06-22T03:46:49.304Z</time>
      </trkpt>
      <trkpt lat="46.56913" lon="0.17395">
        <ele>113.38</ele>
        <time>2023-06-22T03:47:57.503Z</time>
      </trkpt>
      <trkpt lat="46.5692" lon="0.17396">
        <ele>112.88</ele>
        <time>2023-06-22T03:49:05.703Z</time>
      </trkpt>
      <trkpt lat="46.56931" lon="0.17399">
        <ele>112.07</ele>
        <time>2023-06-22T03:50:13.905Z</time>
      </trkpt>
      <trkpt lat="46.56936" lon="0.174">
        <ele>111.66</ele>
        <time>2023-06-22T03:51:22.108Z</time>
      </trkpt>
      <trkpt lat="46.56938" lon="0.17418">
        <ele>110.69</ele>
        <time>2023-06-22T03:52:30.313Z</time>
      </trkpt>
      <trkpt lat="46.5694" lon="0.1743">
        <ele>110.03</ele>
        <time>2023-06-22T03:53:38.519Z</time>
      </trkpt>
      <trkpt lat="46.5694" lon="0.17431">
        <ele>110.03</ele>
        <time>2023-06-22T03:54:46.725Z</time>
      </trkpt>
      <trkpt lat="46.56943" lon="0.17443">
        <ele>109.42</ele>
        <time>2023-06-22T03:55:54.933Z</time>
      </trkpt>
      <trkpt lat="46.56945" lon="0.17449">
        <ele>109.14</ele>
        <time>2023-06-22T03:57:03.141Z</time>
      </trkpt>
      <trkpt lat="46.56947" lon="0.17455">
        <ele>108.88</ele>
        <time>2023-06-22T03:58:11.350Z</time>
      </trkpt>
      <trkpt lat="46.5695" lon="0.17467">
        <ele>108.4</ele>
        <time>2023-06-22T03:59:19.561Z</time>
      </trkpt>
      <trkpt lat="46.5695" lon="0.17467">
        <ele>108.4</ele>
        <time>2023-06-22T04:00:27.772Z</time>
      </trkpt>
      <trkpt lat="46.56954" lon="0.17479">
        <ele>107.95</ele>
        <time>2023-06-22T04:01:35.984Z</time>
      </trkpt>
      <trkpt lat="46.56958" lon="0.1749">
        <ele>107.56</ele>
        <time>2023-06-22T04:02:44.197Z</time>
      </trkpt>
      <trkpt lat="46.56961" lon="0.17502">
        <ele>107.23</ele>
        <time>2023-06-22T04:03:52.412Z</time>
      </trkpt>
      <trkpt lat="46.56969" lon="0.17525">
        <ele>106.66</ele>
        <time>2023-06-22T04:05:00.630Z</time>
      </trkpt>
      <trkpt lat="46.56973" lon="0.17537">
        <ele>106.63</ele>
        <time>2023-06-22T04:06:08.849Z</time>
      </trkpt>
      <trkpt lat="46.56978" lon="0.17554">
        <ele>106.63</ele>
        <time>2023-06-22T04:07:17.070Z</time>
      </trkpt>
      <trkpt lat="46.56984" lon="0.17571">
        <ele>106.4</ele>
        <time>2023-06-22T04:08:25.293Z</time>
      </trkpt>
      <trkpt lat="46.56988" lon="0.17583">
        <ele>106.27</ele>
        <time>2023-06-22T04:09:33.518Z</time>
      </trkpt>
      <trkpt lat="46.56992" lon="0.17594">
        <ele>106.18</ele>
        <time>2023-06-22T04:10:41.744Z</time>
      </trkpt>
      <trkpt lat="46.56995" lon="0.17606">
        <ele>106.14</ele>
        <time>2023-06-22T04:11:49.972Z</time>
      </trkpt>
      <trkpt lat="46.56999" lon="0.17618">
        <ele>106.16</ele>
        <time>2023-06-22T04:12:58.201Z</time>
      </trkpt>
      <trkpt lat="46.57003" lon="0.17629">
        <ele>106.25</ele>
        <time>2023-06-22T04:14:06.431Z</time>
      </trkpt>
      <trkpt lat="46.57009" lon="0.17646">
        <ele>106.44</ele>
        <time>2023-06-22T04:15:14.664Z</time>
      </trkpt>
      <trkpt lat="46.57012" lon="0.17658">
        <ele>106.6</ele>
        <time>2023-06-22T04:16:22.898Z</time>
      </trkpt>
      <trkpt lat="46.5702" lon="0.17681">
        <ele>107</ele>
        <time>2023-06-22T04:17:31.135Z</time>
      </trkpt>
      <trkpt lat="46.57024" lon="0.17693">
        <ele>107.23</ele>
        <time>2023-06-22T04:18:39.373Z</time>
      </trkpt>
      <trkpt lat="46.57027" lon="0.17703">
        <ele>107.45</ele>
        <time>2023-06-22T04:19:47.612Z</time>
      </trkpt>
      <trkpt lat="46.57028" lon="0.17704">
        <ele>107.49</ele>
        <time>2023-06-22T04:20:55.852Z</time>
      </trkpt>
      <trkpt lat="46.57034" lon="0.17722">
        <ele>107.96</ele>
        <time>2023-06-22T04:22:04.094Z</time>
      </trkpt>
      <trkpt lat="46.57037" lon="0.17731">
        <ele>108.24</ele>
        <time>2023-06-22T04:23:12.337Z</time>
      </trkpt>
      <trkpt lat="46.57034" lon="0.17738">
        <ele>108.48</ele>
        <time>2023-06-22T04:24:20.581Z</time>
      </trkpt>
      <trkpt lat="46.57034" lon="0.17738">
        <ele>108.48</ele>
        <time>2023-06-22T04:25:28.825Z</time>
      </trkpt>
      <trkpt lat="46.57036" lon="0.17757">
        <ele>109.05</ele>
        <time>2023-06-22T04:26:37.071Z</time>
      </trkpt>
      <trkpt lat="46.57038" lon="0.17776">
        <ele>109.67</ele>
        <time>2023-06-22T04:27:45.319Z</time>
      </trkpt>
      <trkpt lat="46.57039" lon="0.17796">
        <ele>110.33</ele>
        <time>2023-06-22T04:28:53.569Z</time>
      </trkpt>
      <trkpt lat="46.5704" lon="0.17802">
        <ele>110.74</ele>
        <time>2023-06-22T04:30:01.820Z</time>
      </trkpt>
      <trkpt lat="46.57041" lon="0.17808">
        <ele>111.19</ele>
        <time>2023-06-22T04:31:10.072Z</time>
      </trkpt>
      <trkpt lat="46.57041" lon="0.17815">
        <ele>111.69</ele>
        <time>2023-06-22T04:32:18.324Z</time>
      </trkpt>
      <trkpt lat="46.57042" lon="0.17821">
        <ele>112.24</ele>
        <time>2023-06-22T04:33:26.577Z</time>
      </trkpt>
      <trkpt lat="46.57042" lon="0.17828">
        <ele>112.83</ele>
        <time>2023-06-22T04:34:34.831Z</time>
      </trkpt>
      <trkpt lat="46.57044" lon="0.17841">
        <ele>114.11</ele>
        <time>2023-06-22T04:35:43.086Z</time>
      </trkpt>
      <trkpt lat="46.57044" lon="0.17847">
        <ele>114.79</ele>
        <time>2023-06-22T04:36:51.342Z</time>
      </trkpt>
      <trkpt lat="46.57045" lon="0.17854">
        <ele>115.5</ele>
        <time>2023-06-22T04:37:59.599Z</time>
      </trkpt>
      <trkpt lat="46.57047" lon="0.17873">
        <ele>117.74</ele>
        <time>2023-06-22T04:39:07.858Z</time>
      </trkpt>
      <trkpt lat="46.57048" lon="0.17886">
        <ele>119.18</ele>
        <time>2023-06-22T04:40:16.118Z</time>
      </trkpt>
      <trkpt lat="46.57049" lon="0.17899">
        <ele>120.55</ele>
        <time>2023-06-22T04:41:24.380Z</time>
      </trkpt>
      <trkpt lat="46.5705" lon="0.17912">
        <ele>121.84</ele>
        <time>2023-06-22T04:42:32.643Z</time>
      </trkpt>
      <trkpt lat="46.57051" lon="0.17925">
        <ele>123.06</ele>
        <time>2023-06-22T04:43:40.908Z</time>
      </trkpt>
      <trkpt lat="46.57056" lon="0.1797">
        <ele>127.15</ele>
        <time>2023-06-22T04:44:49.178Z</time>
      </trkpt>
      <trkpt lat="46.57057" lon="0.17985">
        <ele>128.45</ele>
        <time>2023-06-22T04:45:57.449Z</time>
      </trkpt>
      <trkpt lat="46.57058" lon="0.18009">
        <ele>130.56</ele>
        <time>2023-06-22T04:47:05.723Z</time>
      </trkpt>
      <trkpt lat="46.57059" lon="0.18022">
        <ele>131.79</ele>
        <time>2023-06-22T04:48:13.998Z</time>
      </trkpt>
      <trkpt lat="46.57059" lon="0.18029">
        <ele>132.44</ele>
        <time>2023-06-22T04:49:22.274Z</time>
      </trkpt>
      <trkpt lat="46.5706" lon="0.18055">
        <ele>135.22</ele>
        <time>2023-06-22T04:50:30.553Z</time>
      </trkpt>
      <trkpt lat="46.57061" lon="0.18061">
        <ele>135.87</ele>
        <time>2023-06-22T04:51:38.833Z</time>
      </trkpt>
      <trkpt lat="46.57061" lon="0.18068">
        <ele>136.46</ele>
        <time>2023-06-22T04:52:47.113Z</time>
      </trkpt>
      <trkpt lat="46.57061" lon="0.18069">
        <ele>136.57</ele>
        <time>2023-06-22T04:53:55.394Z</time>
      </trkpt>
      <trkpt lat="46.57061" lon="0.18074">
        <ele>136.99</ele>
        <time>2023-06-22T04:55:03.675Z</time>
      </trkpt>
      <trkpt lat="46.57061" lon="0.18081">
        <ele>137.45</ele>
        <time>2023-06-22T04:56:11.957Z</time>
      </trkpt>
      <trkpt lat="46.57061" lon="0.18087">
        <ele>137.85</ele>
        <time>2023-06-22T04:57:20.240Z</time>
      </trkpt>
      <trkpt lat="46.5706" lon="0.181">
        <ele>138.52</ele>
        <time>2023-06-22T04:58:28.524Z</time>
      </trkpt>
      <trkpt lat="46.5706" lon="0.18113">
        <ele>139.1</ele>
        <time>2023-06-22T04:59:36.810Z</time>
      </trkpt>
      <trkpt lat="46.5706" lon="0.18133">
        <ele>139.9</ele>
        <time>2023-06-22T05:00:45.098Z</time>
      </trkpt>
      <trkpt lat="46.57059" lon="0.18146">
        <ele>140.37</ele>
        <time>2023-06-22T05:01:53.387Z</time>
      </trkpt>
      <trkpt lat="46.57059" lon="0.18152">
        <ele>140.57</ele>
        <time>2023-06-22T05:03:01.677Z</time>
      </trkpt>
      <trkpt lat="46.57059" lon="0.18165">
        <ele>140.91</ele>
        <time>2023-06-22T05:04:09.968Z</time>
      </trkpt>
      <trkpt lat="46.57059" lon="0.18179">
        <ele>141.18</ele>
        <time>2023-06-22T05:05:18.261Z</time>
      </trkpt>
      <trkpt lat="46.57058" lon="0.18192">
        <ele>141.41</ele>
        <time>2023-06-22T05:06:26.555Z</time>
      </trkpt>
      <trkpt lat="46.57058" lon="0.18218">
        <ele>141.77</ele>
        <time>2023-06-22T05:07:34.852Z</time>
      </trkpt>
      <trkpt lat="46.57057" lon="0.18224">
        <ele>141.88</ele>
        <time>2023-06-22T05:08:43.150Z</time>
      </trkpt>
      <trkpt lat="46.57057" lon="0.18237">
        <ele>142.15</ele>
        <time>2023-06-22T05:09:51.449Z</time>
      </trkpt>
      <trkpt lat="46.57057" lon="0.1825">
        <ele>142.48</ele>
        <time>2023-06-22T05:10:59.750Z</time>
      </trkpt>
      <trkpt lat="46.57056" lon="0.18283">
        <ele>142.46</ele>
        <time>2023-06-22T05:12:08.054Z</time>
      </trkpt>
      <trkpt lat="46.57056" lon="0.1829">
        <ele>142.44</ele>
        <time>2023-06-22T05:13:16.359Z</time>
      </trkpt>
      <trkpt lat="46.57055" lon="0.18302">
        <ele>142.42</ele>
        <time>2023-06-22T05:14:24.665Z</time>
      </trkpt>
      <trkpt lat="46.57054" lon="0.18328">
        <ele>142.31</ele>
        <time>2023-06-22T05:15:32.974Z</time>
      </trkpt>
      <trkpt lat="46.57051" lon="0.18373">
        <ele>142.08</ele>
        <time>2023-06-22T05:16:41.288Z</time>
      </trkpt>
      <trkpt lat="46.5705" lon="0.18398">
        <ele>141.92</ele>
        <time>2023-06-22T05:17:49.605Z</time>
      </trkpt>
      <trkpt lat="46.57048" lon="0.18424">
        <ele>141.7</ele>
        <time>2023-06-22T05:18:57.925Z</time>
      </trkpt>
      <trkpt lat="46.57046" lon="0.1845">
        <ele>141.49</ele>
        <time>2023-06-22T05:20:06.248Z</time>
      </trkpt>
      <trkpt lat="46.57044" lon="0.18469">
        <ele>141.3</ele>
        <time>2023-06-22T05:21:14.573Z</time>
      </trkpt>
      <trkpt lat="46.57042" lon="0.18495">
        <ele>141.15</ele>
        <time>2023-06-22T05:22:22.901Z</time>
      </trkpt>
      <trkpt lat="46.57041" lon="0.18501">
        <ele>141.09</ele>
        <time>2023-06-22T05:23:31.229Z</time>
      </trkpt>
      <trkpt lat="46.5704" lon="0.18507">
        <ele>141.05</ele>
        <time>2023-06-22T05:24:39.558Z</time>
      </trkpt>
      <trkpt lat="46.57033" lon="0.18565">
        <ele>140.52</ele>
        <time>2023-06-22T05:25:47.894Z</time>
      </trkpt>
      <trkpt lat="46.57027" lon="0.1861">
        <ele>140.23</ele>
        <time>2023-06-22T05:26:56.235Z</time>
      </trkpt>
      <trkpt lat="46.57025" lon="0.18622">
        <ele>139.98</ele>
        <time>2023-06-22T05:28:04.577Z</time>
      </trkpt>
      <trkpt lat="46.57021" lon="0.18648">
        <ele>139.4</ele>
        <time>2023-06-22T05:29:12.922Z</time>
      </trkpt>
      <trkpt lat="46.5702" lon="0.18661">
        <ele>139.18</ele>
        <time>2023-06-22T05:30:21.268Z</time>
      </trkpt>
      <trkpt lat="46.57019" lon="0.18667">
        <ele>139.1</ele>
        <time>2023-06-22T05:31:29.615Z</time>
      </trkpt>
      <trkpt lat="46.57018" lon="0.18674">
        <ele>139.03</ele>
        <time>2023-06-22T05:32:37.963Z</time>
      </trkpt>
      <trkpt lat="46.57016" lon="0.18693">
        <ele>138.87</ele>
        <time>2023-06-22T05:33:46.313Z</time>
      </trkpt>
      <trkpt lat="46.5701" lon="0.18758">
        <ele>138.23</ele>
        <time>2023-06-22T05:34:54.670Z</time>
      </trkpt>
      <trkpt lat="46.57007" lon="0.18784">
        <ele>138.03</ele>
        <time>2023-06-22T05:36:03.030Z</time>
      </trkpt>
      <trkpt lat="46.57002" lon="0.18829">
        <ele>137.79</ele>
        <time>2023-06-22T05:37:11.395Z</time>
      </trkpt>
      <trkpt lat="46.56996" lon="0.18887">
        <ele>137.58</ele>
        <time>2023-06-22T05:38:19.767Z</time>
      </trkpt>
      <trkpt lat="46.56994" lon="0.18913">
        <ele>137.46</ele>
        <time>2023-06-22T05:39:28.142Z</time>
      </trkpt>
      <trkpt lat="46.56992" lon="0.18926">
        <ele>137.42</ele>
        <time>2023-06-22T05:40:36.518Z</time>
      </trkpt>
      <trkpt lat="46.56991" lon="0.18939">
        <ele>137.43</ele>
        <time>2023-06-22T05:41:44.895Z</time>
      </trkpt>
      <trkpt lat="46.5699" lon="0.18952">
        <ele>137.49</ele>
        <time>2023-06-22T05:42:53.274Z</time>
      </trkpt>
      <trkpt lat="46.56987" lon="0.18978">
        <ele>137.7</ele>
        <time>2023-06-22T05:44:01.656Z</time>
      </trkpt>
      <trkpt lat="46.56984" lon="0.1901">
        <ele>138.02</ele>
        <time>2023-06-22T05:45:10.041Z</time>
      </trkpt>
      <trkpt lat="46.56982" lon="0.19029">
        <ele>138.18</ele>
        <time>2023-06-22T05:46:18.429Z</time>
      </trkpt>
      <trkpt lat="46.56978" lon="0.19068">
        <ele>138.34</ele>
        <time>2023-06-22T05:47:26.821Z</time>
      </trkpt>
      <trkpt lat="46.56977" lon="0.19081">
        <ele>138.34</ele>
        <time>2023-06-22T05:48:35.214Z</time>
      </trkpt>
      <trkpt lat="46.56974" lon="0.19107">
        <ele>138.27</ele>
        <time>2023-06-22T05:49:43.610Z</time>
      </trkpt>
      <trkpt lat="46.56973" lon="0.19118">
        <ele>138.25</ele>
        <time>2023-06-22T05:50:52.007Z</time>
      </trkpt>
      <trkpt lat="46.56972" lon="0.19127">
        <ele>138.24</ele>
        <time>2023-06-22T05:52:00.405Z</time>
      </trkpt>
      <trkpt lat="46.56971" lon="0.1914">
        <ele>138.26</ele>
        <time>2023-06-22T05:53:08.805Z</time>
      </trkpt>
      <trkpt lat="46.56969" lon="0.19172">
        <ele>138.38</ele>
        <time>2023-06-22T05:54:17.208Z</time>
      </trkpt>
      <trkpt lat="46.56966" lon="0.19204">
        <ele>138.38</ele>
        <time>2023-06-22T05:55:25.615Z</time>
      </trkpt>
      <trkpt lat="46.56965" lon="0.19224">
        <ele>138.34</ele>
        <time>2023-06-22T05:56:34.024Z</time>
      </trkpt>
      <trkpt lat="46.56962" lon="0.19256">
        <ele>138.15</ele>
        <time>2023-06-22T05:57:42.437Z</time>
      </trkpt>
      <trkpt lat="46.56961" lon="0.19269">
        <ele>138.1</ele>
        <time>2023-06-22T05:58:50.851Z</time>
      </trkpt>
      <trkpt lat="46.5696" lon="0.19282">
        <ele>138.07</ele>
        <time>2023-06-22T05:59:59.267Z</time>
      </trkpt>
      <trkpt lat="46.56958" lon="0.19302">
        <ele>138.04</ele>
        <time>2023-06-22T06:01:07.685Z</time>
      </trkpt>
      <trkpt lat="46.56956" lon="0.19315">
        <ele>138.04</ele>
        <time>2023-06-22T06:02:16.104Z</time>
      </trkpt>
      <trkpt lat="46.56951" lon="0.19354">
        <ele>138.13</ele>
        <time>2023-06-22T06:03:24.528Z</time>
      </trkpt>
      <trkpt lat="46.56945" lon="0.19391">
        <ele>138.22</ele>
        <time>2023-06-22T06:04:32.956Z</time>
      </trkpt>
      <trkpt lat="46.5694" lon="0.19423">
        <ele>138.27</ele>
        <time>2023-06-22T06:05:41.388Z</time>
      </trkpt>
      <trkpt lat="46.56938" lon="0.19436">
        <ele>138.33</ele>
        <time>2023-06-22T06:06:49.821Z</time>
      </trkpt>
      <trkpt lat="46.56934" lon="0.19461">
        <ele>138.48</ele>
        <time>2023-06-22T06:07:58.257Z</time>
      </trkpt>
      <trkpt lat="46.56935" lon="0.19467">
        <ele>138.53</ele>
        <time>2023-06-22T06:09:06.694Z</time>
      </trkpt>
      <trkpt lat="46.56935" lon="0.19468">
        <ele>138.53</ele>
        <time>2023-06-22T06:10:15.131Z</time>
      </trkpt>
      <trkpt lat="46.56943" lon="0.19483">
        <ele>138.63</ele>
        <time>2023-06-22T06:11:23.570Z</time>
      </trkpt>
      <trkpt lat="46.56943" lon="0.19483">
        <ele>138.63</ele>
        <time>2023-06-22T06:12:32.009Z</time>
      </trkpt>
      <trkpt lat="46.56932" lon="0.19495">
        <ele>138.68</ele>
        <time>2023-06-22T06:13:40.450Z</time>
      </trkpt>
      <trkpt lat="46.56932" lon="0.19495">
        <ele>138.68</ele>
        <time>2023-06-22T06:14:48.891Z</time>
      </trkpt>
      <trkpt lat="46.56921" lon="0.19512">
        <ele>138.69</ele>
        <time>2023-06-22T06:15:57.335Z</time>
      </trkpt>
      <trkpt lat="46.5692" lon="0.19514">
        <ele>138.7</ele>
        <time>2023-06-22T06:17:05.779Z</time>
      </trkpt>
      <trkpt lat="46.56912" lon="0.19539">
        <ele>138.65</ele>
        <time>2023-06-22T06:18:14.226Z</time>
      </trkpt>
      <trkpt lat="46.56912" lon="0.19557">
        <ele>138.63</ele>
        <time>2023-06-22T06:19:22.675Z</time>
      </trkpt>
      <trkpt lat="46.56912" lon="0.1957">
        <ele>138.61</ele>
        <time>2023-06-22T06:20:31.125Z</time>
      </trkpt>
      <trkpt lat="46.56915" lon="0.19595">
        <ele>138.59</ele>
        <time>2023-06-22T06:21:39.578Z</time>
      </trkpt>
      <trkpt lat="46.56919" lon="0.19633">
        <ele>138.52</ele>
        <time>2023-06-22T06:22:48.035Z</time>
      </trkpt>
      <trkpt lat="46.56921" lon="0.19649">
        <ele>138.52</ele>
        <time>2023-06-22T06:23:56.494Z</time>
      </trkpt>
      <trkpt lat="46.56923" lon="0.19679">
        <ele>138.53</ele>
        <time>2023-06-22T06:25:04.956Z</time>
      </trkpt>
      <trkpt lat="46.56926" lon="0.19736">
        <ele>138.64</ele>
        <time>2023-06-22T06:26:13.425Z</time>
      </trkpt>
      <trkpt lat="46.56929" lon="0.1978">
        <ele>138.8</ele>
        <time>2023-06-22T06:27:21.899Z</time>
      </trkpt>
      <trkpt lat="46.5693" lon="0.19794">
        <ele>138.86</ele>
        <time>2023-06-22T06:28:30.374Z</time>
      </trkpt>
      <trkpt lat="46.56933" lon="0.19826">
        <ele>139</ele>
        <time>2023-06-22T06:29:38.853Z</time>
      </trkpt>
      <trkpt lat="46.5694" lon="0.19897">
        <ele>139.13</ele>
        <time>2023-06-22T06:30:47.340Z</time>
      </trkpt>
      <trkpt lat="46.56943" lon="0.19923">
        <ele>139.1</ele>
        <time>2023-06-22T06:31:55.830Z</time>
      </trkpt>
      <trkpt lat="46.56947" lon="0.19974">
        <ele>138.91</ele>
        <time>2023-06-22T06:33:04.325Z</time>
      </trkpt>
      <trkpt lat="46.56955" lon="0.20051">
        <ele>138.91</ele>
        <time>2023-06-22T06:34:12.829Z</time>
      </trkpt>
      <trkpt lat="46.56956" lon="0.20065">
        <ele>138.87</ele>
        <time>2023-06-22T06:35:21.334Z</time>
      </trkpt>
      <trkpt lat="46.56956" lon="0.20089">
        <ele>138.82</ele>
        <time>2023-06-22T06:36:29.842Z</time>
      </trkpt>
      <trkpt lat="46.56957" lon="0.20121">
        <ele>138.72</ele>
        <time>2023-06-22T06:37:38.354Z</time>
      </trkpt>
      <trkpt lat="46.56956" lon="0.20147">
        <ele>138.64</ele>
        <time>2023-06-22T06:38:46.868Z</time>
      </trkpt>
      <trkpt lat="46.56955" lon="0.20167">
        <ele>138.56</ele>
        <time>2023-06-22T06:39:55.385Z</time>
      </trkpt>
      <trkpt lat="46.56955" lon="0.20186">
        <ele>138.45</ele>
        <time>2023-06-22T06:41:03.904Z</time>
      </trkpt>
      <trkpt lat="46.56954" lon="0.20211">
        <ele>138.24</ele>
        <time>2023-06-22T06:42:12.426Z</time>
      </trkpt>
      <trkpt lat="46.56952" lon="0.20256">
        <ele>137.78</ele>
        <time>2023-06-22T06:43:20.953Z</time>
      </trkpt>
      <trkpt lat="46.56951" lon="0.20288">
        <ele>137.5</ele>
        <time>2023-06-22T06:44:29.483Z</time>
      </trkpt>
      <trkpt lat="46.5695" lon="0.20314">
        <ele>137.15</ele>
        <time>2023-06-22T06:45:38.016Z</time>
      </trkpt>
      <trkpt lat="46.56949" lon="0.20327">
        <ele>137.01</ele>
        <time>2023-06-22T06:46:46.550Z</time>
      </trkpt>
      <trkpt lat="46.56949" lon="0.20335">
        <ele>136.93</ele>
        <time>2023-06-22T06:47:55.085Z</time>
      </trkpt>
      <trkpt lat="46.56948" lon="0.20346">
        <ele>136.83</ele>
        <time>2023-06-22T06:49:03.622Z</time>
      </trkpt>
      <trkpt lat="46.56946" lon="0.20364">
        <ele>136.84</ele>
        <time>2023-06-22T06:50:12.160Z</time>
      </trkpt>
      <trkpt lat="46.56944" lon="0.2037">
        <ele>136.85</ele>
        <time>2023-06-22T06:51:20.699Z</time>
      </trkpt>
      <trkpt lat="46.5694" lon="0.20381">
        <ele>136.88</ele>
        <time>2023-06-22T06:52:29.240Z</time>
      </trkpt>
      <trkpt lat="46.56937" lon="0.20392">
        <ele>136.93</ele>
        <time>2023-06-22T06:53:37.782Z</time>
      </trkpt>
      <trkpt lat="46.56928" lon="0.20414">
        <ele>137.05</ele>
        <time>2023-06-22T06:54:46.327Z</time>
      </trkpt>
      <trkpt lat="46.56922" lon="0.20431">
        <ele>137.17</ele>
        <time>2023-06-22T06:55:54.874Z</time>
      </trkpt>
      <trkpt lat="46.56906" lon="0.2047">
        <ele>137.52</ele>
        <time>2023-06-22T06:57:03.426Z</time>
      </trkpt>
      <trkpt lat="46.56902" lon="0.2048">
        <ele>137.63</ele>
        <time>2023-06-22T06:58:11.979Z</time>
      </trkpt>
      <trkpt lat="46.56883" lon="0.20521">
        <ele>138.12</ele>
        <time>2023-06-22T06:59:20.538Z</time>
      </trkpt>
      <trkpt lat="46.56879" lon="0.20528">
        <ele>138.21</ele>
        <time>2023-06-22T07:00:29.098Z</time>
      </trkpt>
      <trkpt lat="46.56868" lon="0.20547">
        <ele>138.47</ele>
        <time>2023-06-22T07:01:37.660Z</time>
      </trkpt>
      <trkpt lat="46.56864" lon="0.20557">
        <ele>138.61</ele>
        <time>2023-06-22T07:02:46.224Z</time>
      </trkpt>
      <trkpt lat="46.56857" lon="0.20574">
        <ele>138.78</ele>
        <time>2023-06-22T07:03:54.790Z</time>
      </trkpt>
      <trkpt lat="46.56845" lon="0.20601">
        <ele>139.1</ele>
        <time>2023-06-22T07:05:03.359Z</time>
      </trkpt>
      <trkpt lat="46.56836" lon="0.20622">
        <ele>139.28</ele>
        <time>2023-06-22T07:06:11.931Z</time>
      </trkpt>
      <trkpt lat="46.56831" lon="0.20629">
        <ele>139.35</ele>
        <time>2023-06-22T07:07:20.504Z</time>
      </trkpt>
      <trkpt lat="46.56829" lon="0.2063">
        <ele>139.38</ele>
        <time>2023-06-22T07:08:29.078Z</time>
      </trkpt>
      <trkpt lat="46.5682" lon="0.20636">
        <ele>139.43</ele>
        <time>2023-06-22T07:09:37.653Z</time>
      </trkpt>
      <trkpt lat="46.5682" lon="0.20636">
        <ele>139.43</ele>
        <time>2023-06-22T07:10:46.228Z</time>
      </trkpt>
      <trkpt lat="46.56807" lon="0.20641">
        <ele>139.46</ele>
        <time>2023-06-22T07:11:54.805Z</time>
      </trkpt>
      <trkpt lat="46.56785" lon="0.20646">
        <ele>139.52</ele>
        <time>2023-06-22T07:13:03.386Z</time>
      </trkpt>
      <trkpt lat="46.56776" lon="0.20647">
        <ele>139.55</ele>
        <time>2023-06-22T07:14:11.968Z</time>
      </trkpt>
      <trkpt lat="46.56763" lon="0.20648">
        <ele>139.51</ele>
        <time>2023-06-22T07:15:20.552Z</time>
      </trkpt>
      <trkpt lat="46.56757" lon="0.20648">
        <ele>139.47</ele>
        <time>2023-06-22T07:16:29.137Z</time>
      </trkpt>
      <trkpt lat="46.56753" lon="0.20653">
        <ele>139.44</ele>
        <time>2023-06-22T07:17:37.723Z</time>
      </trkpt>
      <trkpt lat="46.56751" lon="0.2066">
        <ele>139.41</ele>
        <time>2023-06-22T07:18:46.310Z</time>
      </trkpt>
      <trkpt lat="46.56758" lon="0.20687">
        <ele>139.3</ele>
        <time>2023-06-22T07:19:54.900Z</time>
      </trkpt>
      <trkpt lat="46.56763" lon="0.20705">
        <ele>139.18</ele>
        <time>2023-06-22T07:21:03.492Z</time>
      </trkpt>
      <trkpt lat="46.5677" lon="0.20733">
        <ele>138.96</ele>
        <time>2023-06-22T07:22:12.088Z</time>
      </trkpt>
      <trkpt lat="46.56771" lon="0.20742">
        <ele>138.9</ele>
        <time>2023-06-22T07:23:20.685Z</time>
      </trkpt>
      <trkpt lat="46.56773" lon="0.20755">
        <ele>138.79</ele>
        <time>2023-06-22T07:24:29.283Z</time>
      </trkpt>
      <trkpt lat="46.56774" lon="0.2076">
        <ele>138.72</ele>
        <time>2023-06-22T07:25:37.882Z</time>
      </trkpt>
      <trkpt lat="46.56774" lon="0.20768">
        <ele>138.63</ele>
        <time>2023-06-22T07:26:46.481Z</time>
      </trkpt>
      <trkpt lat="46.56775" lon="0.208">
        <ele>138.02</ele>
        <time>2023-06-22T07:27:55.084Z</time>
      </trkpt>
      <trkpt lat="46.56776" lon="0.20823">
        <ele>137.5</ele>
        <time>2023-06-22T07:29:03.690Z</time>
      </trkpt>
      <trkpt lat="46.56772" lon="0.20852">
        <ele>136.83</ele>
        <time>2023-06-22T07:30:12.299Z</time>
      </trkpt>
      <trkpt lat="46.56772" lon="0.20856">
        <ele>136.72</ele>
        <time>2023-06-22T07:31:20.908Z</time>
      </trkpt>
      <trkpt lat="46.56766" lon="0.20876">
        <ele>136.18</ele>
        <time>2023-06-22T07:32:29.520Z</time>
      </trkpt>
      <trkpt lat="46.56764" lon="0.20883">
        <ele>135.95</ele>
        <time>2023-06-22T07:33:38.133Z</time>
      </trkpt>
      <trkpt lat="46.56759" lon="0.20893">
        <ele>135.6</ele>
        <time>2023-06-22T07:34:46.747Z</time>
      </trkpt>
      <trkpt lat="46.56748" lon="0.20918">
        <ele>134.63</ele>
        <time>2023-06-22T07:35:55.364Z</time>
      </trkpt>
      <trkpt lat="46.56745" lon="0.2093">
        <ele>134.22</ele>
        <time>2023-06-22T07:37:03.983Z</time>
      </trkpt>
      <trkpt lat="46.56746" lon="0.20946">
        <ele>133.72</ele>
        <time>2023-06-22T07:38:12.603Z</time>
      </trkpt>
      <trkpt lat="46.56747" lon="0.20952">
        <ele>133.49</ele>
        <time>2023-06-22T07:39:21.224Z</time>
      </trkpt>
      <trkpt lat="46.56751" lon="0.20956">
        <ele>133.26</ele>
        <time>2023-06-22T07:40:29.846Z</time>
      </trkpt>
      <trkpt lat="46.56758" lon="0.20964">
        <ele>132.77</ele>
        <time>2023-06-22T07:41:38.469Z</time>
      </trkpt>
      <trkpt lat="46.56763" lon="0.2097">
        <ele>132.36</ele>
        <time>2023-06-22T07:42:47.093Z</time>
      </trkpt>
      <trkpt lat="46.56775" lon="0.20978">
        <ele>131.57</ele>
        <time>2023-06-22T07:43:55.719Z</time>
      </trkpt>
      <trkpt lat="46.56778" lon="0.20978">
        <ele>131.42</ele>
        <time>2023-06-22T07:45:04.346Z</time>
      </trkpt>
      <trkpt lat="46.56789" lon="0.20978">
        <ele>130.64</ele>
        <time>2023-06-22T07:46:12.975Z</time>
      </trkpt>
      <trkpt lat="46.56791" lon="0.20977">
        <ele>130.52</ele>
        <time>2023-06-22T07:47:21.604Z</time>
      </trkpt>
      <trkpt lat="46.56801" lon="0.20974">
        <ele>129.77</ele>
        <time>2023-06-22T07:48:30.235Z</time>
      </trkpt>
      <trkpt lat="46.56815" lon="0.20976">
        <ele>128.77</ele>
        <time>2023-06-22T07:49:38.868Z</time>
      </trkpt>
      <trkpt lat="46.56817" lon="0.20978">
        <ele>128.6</ele>
        <time>2023-06-22T07:50:47.501Z</time>
      </trkpt>
      <trkpt lat="46.5682" lon="0.20982">
        <ele>128.32</ele>
        <time>2023-06-22T07:51:56.135Z</time>
      </trkpt>
      <trkpt lat="46.56822" lon="0.2099">
        <ele>127.92</ele>
        <time>2023-06-22T07:53:04.770Z</time>
      </trkpt>
      <trkpt lat="46.56821" lon="0.20995">
        <ele>127.69</ele>
        <time>2023-06-22T07:54:13.405Z</time>
      </trkpt>
      <trkpt lat="46.5682" lon="0.20999">
        <ele>127.49</ele>
        <time>2023-06-22T07:55:22.041Z</time>
      </trkpt>
      <trkpt lat="46.56813" lon="0.21005">
        <ele>126.96</ele>
        <time>2023-06-22T07:56:30.678Z</time>
      </trkpt>
      <trkpt lat="46.56807" lon="0.21007">
        <ele>126.53</ele>
        <time>2023-06-22T07:57:39.316Z</time>
      </trkpt>
      <trkpt lat="46.56806" lon="0.21007">
        <ele>126.53</ele>
        <time>2023-06-22T07:58:47.954Z</time>
      </trkpt>
      <trkpt lat="46.56793" lon="0.21007">
        <ele>125.73</ele>
        <time>2023-06-22T07:59:56.594Z</time>
      </trkpt>
      <trkpt lat="46.56784" lon="0.21007">
        <ele>125.26</ele>
        <time>2023-06-22T08:01:05.236Z</time>
      </trkpt>
      <trkpt lat="46.56779" lon="0.21007">
        <ele>125.05</ele>
        <time>2023-06-22T08:02:13.879Z</time>
      </trkpt>
      <trkpt lat="46.5677" lon="0.21007">
        <ele>124.7</ele>
        <time>2023-06-22T08:03:22.523Z</time>
      </trkpt>
      <trkpt lat="46.56762" lon="0.21008">
        <ele>124.41</ele>
        <time>2023-06-22T08:04:31.168Z</time>
      </trkpt>
      <trkpt lat="46.56757" lon="0.21008">
        <ele>124.28</ele>
        <time>2023-06-22T08:05:39.814Z</time>
      </trkpt>
      <trkpt lat="46.56753" lon="0.21008">
        <ele>124.17</ele>
        <time>2023-06-22T08:06:48.461Z</time>
      </trkpt>
      <trkpt lat="46.56748" lon="0.21008">
        <ele>124.09</ele>
        <time>2023-06-22T08:07:57.109Z</time>
      </trkpt>
      <trkpt lat="46.56744" lon="0.21008">
        <ele>124.03</ele>
        <time>2023-06-22T08:09:05.757Z</time>
      </trkpt>
      <trkpt lat="46.56735" lon="0.21008">
        <ele>123.96</ele>
        <time>2023-06-22T08:10:14.407Z</time>
      </trkpt>
      <trkpt lat="46.56726" lon="0.21008">
        <ele>123.96</ele>
        <time>2023-06-22T08:11:23.058Z</time>
      </trkpt>
      <trkpt lat="46.56726" lon="0.21008">
        <ele>123.96</ele>
        <time>2023-06-22T08:12:31.709Z</time>
      </trkpt>
      <trkpt lat="46.56717" lon="0.2101">
        <ele>124.02</ele>
        <time>2023-06-22T08:13:40.362Z</time>
      </trkpt>
      <trkpt lat="46.56717" lon="0.2101">
        <ele>124.02</ele>
        <time>2023-06-22T08:14:49.015Z</time>
      </trkpt>
      <trkpt lat="46.5671" lon="0.21014">
        <ele>124.12</ele>
        <time>2023-06-22T08:15:57.669Z</time>
      </trkpt>
      <trkpt lat="46.56705" lon="0.21019">
        <ele>124.21</ele>
        <time>2023-06-22T08:17:06.324Z</time>
      </trkpt>
      <trkpt lat="46.56705" lon="0.21019">
        <ele>124.21</ele>
        <time>2023-06-22T08:18:14.979Z</time>
      </trkpt>
      <trkpt lat="46.56695" lon="0.21032">
        <ele>124.45</ele>
        <time>2023-06-22T08:19:23.636Z</time>
      </trkpt>
      <trkpt lat="46.56685" lon="0.21044">
        <ele>124.75</ele>
        <time>2023-06-22T08:20:32.295Z</time>
      </trkpt>
      <trkpt lat="46.56678" lon="0.21053">
        <ele>125.01</ele>
        <time>2023-06-22T08:21:40.955Z</time>
      </trkpt>
      <trkpt lat="46.56674" lon="0.21057">
        <ele>125.16</ele>
        <time>2023-06-22T08:22:49.616Z</time>
      </trkpt>
      <trkpt lat="46.56673" lon="0.21059">
        <ele>125.23</ele>
        <time>2023-06-22T08:23:58.278Z</time>
      </trkpt>
      <trkpt lat="46.56668" lon="0.21066">
        <ele>125.5</ele>
        <time>2023-06-22T08:25:06.941Z</time>
      </trkpt>
      <trkpt lat="46.56664" lon="0.2107">
        <ele>125.69</ele>
        <time>2023-06-22T08:26:15.604Z</time>
      </trkpt>
      <trkpt lat="46.56658" lon="0.21078">
        <ele>126.1</ele>
        <time>2023-06-22T08:27:24.269Z</time>
      </trkpt>
      <trkpt lat="46.56658" lon="0.21078">
        <ele>126.1</ele>
        <time>2023-06-22T08:28:32.934Z</time>
      </trkpt>
      <trkpt lat="46.5665" lon="0.21085">
        <ele>126.56</ele>
        <time>2023-06-22T08:29:41.600Z</time>
      </trkpt>
      <trkpt lat="46.56646" lon="0.21089">
        <ele>126.81</ele>
        <time>2023-06-22T08:30:50.267Z</time>
      </trkpt>
      <trkpt lat="46.56635" lon="0.21094">
        <ele>127.42</ele>
        <time>2023-06-22T08:31:58.936Z</time>
      </trkpt>
      <trkpt lat="46.56617" lon="0.21099">
        <ele>128.41</ele>
        <time>2023-06-22T08:33:07.608Z</time>
      </trkpt>
      <trkpt lat="46.56607" lon="0.211">
        <ele>128.96</ele>
        <time>2023-06-22T08:34:16.281Z</time>
      </trkpt>
      <trkpt lat="46.56604" lon="0.211">
        <ele>129.09</ele>
        <time>2023-06-22T08:35:24.955Z</time>
      </trkpt>
      <trkpt lat="46.56598" lon="0.211">
        <ele>129.41</ele>
        <time>2023-06-22T08:36:33.630Z</time>
      </trkpt>
      <trkpt lat="46.56589" lon="0.21099">
        <ele>129.81</ele>
        <time>2023-06-22T08:37:42.306Z</time>
      </trkpt>
      <trkpt lat="46.56584" lon="0.21098">
        <ele>129.99</ele>
        <time>2023-06-22T08:38:50.983Z</time>
      </trkpt>
      <trkpt lat="46.56578" lon="0.21098">
        <ele>130.18</ele>
        <time>2023-06-22T08:39:59.661Z</time>
      </trkpt>
      <trkpt lat="46.56575" lon="0.21098">
        <ele>130.27</ele>
        <time>2023-06-22T08:41:08.339Z</time>
      </trkpt>
      <trkpt lat="46.56567" lon="0.21096">
        <ele>130.47</ele>
        <time>2023-06-22T08:42:17.019Z</time>
      </trkpt>
      <trkpt lat="46.56553" lon="0.21094">
        <ele>130.71</ele>
        <time>2023-06-22T08:43:25.701Z</time>
      </trkpt>
      <trkpt lat="46.56537" lon="0.21092">
        <ele>130.87</ele>
        <time>2023-06-22T08:44:34.386Z</time>
      </trkpt>
      <trkpt lat="46.56537" lon="0.21092">
        <ele>130.87</ele>
        <time>2023-06-22T08:45:43.071Z</time>
      </trkpt>
      <trkpt lat="46.56524" lon="0.21094">
        <ele>130.15</ele>
        <time>2023-06-22T08:46:51.758Z</time>
      </trkpt>
      <trkpt lat="46.56511" lon="0.21097">
        <ele>129.35</ele>
        <time>2023-06-22T08:48:00.447Z</time>
      </trkpt>
      <trkpt lat="46.56504" lon="0.21098">
        <ele>128.91</ele>
        <time>2023-06-22T08:49:09.137Z</time>
      </trkpt>
      <trkpt lat="46.56482" lon="0.21113">
        <ele>127.4</ele>
        <time>2023-06-22T08:50:17.831Z</time>
      </trkpt>
      <trkpt lat="46.5648" lon="0.21114">
        <ele>127.23</ele>
        <time>2023-06-22T08:51:26.525Z</time>
      </trkpt>
      <trkpt lat="46.56469" lon="0.21124">
        <ele>126.34</ele>
        <time>2023-06-22T08:52:35.221Z</time>
      </trkpt>
      <trkpt lat="46.56464" lon="0.2113">
        <ele>125.88</ele>
        <time>2023-06-22T08:53:43.918Z</time>
      </trkpt>
      <trkpt lat="46.56456" lon="0.21139">
        <ele>125.17</ele>
        <time>2023-06-22T08:54:52.617Z</time>
      </trkpt>
      <trkpt lat="46.56451" lon="0.21148">
        <ele>124.6</ele>
        <time>2023-06-22T08:56:01.317Z</time>
      </trkpt>
      <trkpt lat="46.56439" lon="0.21167">
        <ele>123.27</ele>
        <time>2023-06-22T08:57:10.020Z</time>
      </trkpt>
      <trkpt lat="46.56438" lon="0.21169">
        <ele>123.13</ele>
        <time>2023-06-22T08:58:18.723Z</time>
      </trkpt>
      <trkpt lat="46.5642" lon="0.21195">
        <ele>121.16</ele>
        <time>2023-06-22T08:59:27.430Z</time>
      </trkpt>
      <trkpt lat="46.56408" lon="0.21213">
        <ele>119.66</ele>
        <time>2023-06-22T09:00:36.140Z</time>
      </trkpt>
      <trkpt lat="46.56389" lon="0.21241">
        <ele>117.63</ele>
        <time>2023-06-22T09:01:44.854Z</time>
      </trkpt>
      <trkpt lat="46.56377" lon="0.21259">
        <ele>116.18</ele>
        <time>2023-06-22T09:02:53.571Z</time>
      </trkpt>
      <trkpt lat="46.5637" lon="0.21269">
        <ele>115.16</ele>
        <time>2023-06-22T09:04:02.290Z</time>
      </trkpt>
      <trkpt lat="46.56366" lon="0.21279">
        <ele>114.28</ele>
        <time>2023-06-22T09:05:11.010Z</time>
      </trkpt>
      <trkpt lat="46.56361" lon="0.2129">
        <ele>113.38</ele>
        <time>2023-06-22T09:06:19.732Z</time>
      </trkpt>
      <trkpt lat="46.56359" lon="0.21294">
        <ele>113.08</ele>
        <time>2023-06-22T09:07:28.454Z</time>
      </trkpt>
      <trkpt lat="46.56357" lon="0.21302">
        <ele>112.54</ele>
        <time>2023-06-22T09:08:37.177Z</time>
      </trkpt>
      <trkpt lat="46.56353" lon="0.21326">
        <ele>111.05</ele>
        <time>2023-06-22T09:09:45.903Z</time>
      </trkpt>
      <trkpt lat="46.56352" lon="0.21333">
        <ele>110.6</ele>
        <time>2023-06-22T09:10:54.630Z</time>
      </trkpt>
      <trkpt lat="46.5635" lon="0.21353">
        <ele>109.38</ele>
        <time>2023-06-22T09:12:03.359Z</time>
      </trkpt>
      <trkpt lat="46.56348" lon="0.21365">
        <ele>108.5</ele>
        <time>2023-06-22T09:13:12.089Z</time>
      </trkpt>
      <trkpt lat="46.56347" lon="0.21372">
        <ele>108.03</ele>
        <time>2023-06-22T09:14:20.820Z</time>
      </trkpt>
      <trkpt lat="46.56346" lon="0.21384">
        <ele>107.03</ele>
        <time>2023-06-22T09:15:29.552Z</time>
      </trkpt>
      <trkpt lat="46.56345" lon="0.2139">
        <ele>106.72</ele>
        <time>2023-06-22T09:16:38.285Z</time>
      </trkpt>
      <trkpt lat="46.5634" lon="0.2141">
        <ele>105.56</ele>
        <time>2023-06-22T09:17:47.020Z</time>
      </trkpt>
      <trkpt lat="46.56338" lon="0.21415">
        <ele>105.27</ele>
        <time>2023-06-22T09:18:55.756Z</time>
      </trkpt>
      <trkpt lat="46.56334" lon="0.21428">
        <ele>104.41</ele>
        <time>2023-06-22T09:20:04.493Z</time>
      </trkpt>
      <trkpt lat="46.56324" lon="0.21447">
        <ele>103.01</ele>
        <time>2023-06-22T09:21:13.233Z</time>
      </trkpt>
      <trkpt lat="46.56319" lon="0.21458">
        <ele>102.31</ele>
        <time>2023-06-22T09:22:21.975Z</time>
      </trkpt>
      <trkpt lat="46.56314" lon="0.21468">
        <ele>101.69</ele>
        <time>2023-06-22T09:23:30.718Z</time>
      </trkpt>
      <trkpt lat="46.56309" lon="0.21479">
        <ele>101.12</ele>
        <time>2023-06-22T09:24:39.462Z</time>
      </trkpt>
      <trkpt lat="46.56306" lon="0.21484">
        <ele>100.86</ele>
        <time>2023-06-22T09:25:48.207Z</time>
      </trkpt>
      <trkpt lat="46.56301" lon="0.21495">
        <ele>100.4</ele>
        <time>2023-06-22T09:26:56.954Z</time>
      </trkpt>
      <trkpt lat="46.56299" lon="0.21498">
        <ele>100.27</ele>
        <time>2023-06-22T09:28:05.701Z</time>
      </trkpt>
      <trkpt lat="46.56295" lon="0.21505">
        <ele>100.03</ele>
        <time>2023-06-22T09:29:14.449Z</time>
      </trkpt>
      <trkpt lat="46.56292" lon="0.2151">
        <ele>99.87</ele>
        <time>2023-06-22T09:30:23.198Z</time>
      </trkpt>
      <trkpt lat="46.56287" lon="0.21519">
        <ele>99.59</ele>
        <time>2023-06-22T09:31:31.948Z</time>
      </trkpt>
      <trkpt lat="46.56281" lon="0.21529">
        <ele>99.44</ele>
        <time>2023-06-22T09:32:40.699Z</time>
      </trkpt>
      <trkpt lat="46.56276" lon="0.21539">
        <ele>99.31</ele>
        <time>2023-06-22T09:33:49.452Z</time>
      </trkpt>
      <trkpt lat="46.56269" lon="0.2155">
        <ele>99.2</ele>
        <time>2023-06-22T09:34:58.206Z</time>
      </trkpt>
      <trkpt lat="46.56264" lon="0.21557">
        <ele>99.14</ele>
        <time>2023-06-22T09:36:06.962Z</time>
      </trkpt>
      <trkpt lat="46.5625" lon="0.2158">
        <ele>99.11</ele>
        <time>2023-06-22T09:37:15.721Z</time>
      </trkpt>
      <trkpt lat="46.56244" lon="0.21589">
        <ele>99.04</ele>
        <time>2023-06-22T09:38:24.481Z</time>
      </trkpt>
      <trkpt lat="46.56238" lon="0.21598">
        <ele>99.01</ele>
        <time>2023-06-22T09:39:33.243Z</time>
      </trkpt>
      <trkpt lat="46.56238" lon="0.21598">
        <ele>99.01</ele>
        <time>2023-06-22T09:40:42.005Z</time>
      </trkpt>
      <trkpt lat="46.56233" lon="0.21608">
        <ele>99.01</ele>
        <time>2023-06-22T09:41:50.768Z</time>
      </trkpt>
      <trkpt lat="46.56228" lon="0.21617">
        <ele>99.07</ele>
        <time>2023-06-22T09:42:59.532Z</time>
      </trkpt>
      <trkpt lat="46.56223" lon="0.21627">
        <ele>99.2</ele>
        <time>2023-06-22T09:44:08.298Z</time>
      </trkpt>
      <trkpt lat="46.56218" lon="0.21637">
        <ele>99.38</ele>
        <time>2023-06-22T09:45:17.065Z</time>
      </trkpt>
      <trkpt lat="46.56216" lon="0.2164">
        <ele>99.44</ele>
        <time>2023-06-22T09:46:25.833Z</time>
      </trkpt>
      <trkpt lat="46.56208" lon="0.2165">
        <ele>99.71</ele>
        <time>2023-06-22T09:47:34.602Z</time>
      </trkpt>
      <trkpt lat="46.56198" lon="0.21661">
        <ele>100.1</ele>
        <time>2023-06-22T09:48:43.373Z</time>
      </trkpt>
      <trkpt lat="46.56196" lon="0.21664">
        <ele>100.12</ele>
        <time>2023-06-22T09:49:52.145Z</time>
      </trkpt>
      <trkpt lat="46.56193" lon="0.21666">
        <ele>100.15</ele>
        <time>2023-06-22T09:51:00.917Z</time>
      </trkpt>
      <trkpt lat="46.56174" lon="0.21681">
        <ele>100.59</ele>
        <time>2023-06-22T09:52:09.693Z</time>
      </trkpt>
      <trkpt lat="46.56166" lon="0.21687">
        <ele>100.73</ele>
        <time>2023-06-22T09:53:18.470Z</time>
      </trkpt>
      <trkpt lat="46.56156" lon="0.21695">
        <ele>100.86</ele>
        <time>2023-06-22T09:54:27.249Z</time>
      </trkpt>
      <trkpt lat="46.56154" lon="0.21697">
        <ele>100.89</ele>
        <time>2023-06-22T09:55:36.028Z</time>
      </trkpt>
      <trkpt lat="46.56142" lon="0.21711">
        <ele>101.02</ele>
        <time>2023-06-22T09:56:44.810Z</time>
      </trkpt>
      <trkpt lat="46.56137" lon="0.21718">
        <ele>101.08</ele>
        <time>2023-06-22T09:57:53.593Z</time>
      </trkpt>
      <trkpt lat="46.56131" lon="0.21727">
        <ele>101.18</ele>
        <time>2023-06-22T09:59:02.377Z</time>
      </trkpt>
      <trkpt lat="46.56122" lon="0.21741">
        <ele>101.39</ele>
        <time>2023-06-22T10:00:11.163Z</time>
      </trkpt>
      <trkpt lat="46.56119" lon="0.21745">
        <ele>101.46</ele>
        <time>2023-06-22T10:01:19.950Z</time>
      </trkpt>
      <trkpt lat="46.56108" lon="0.21766">
        <ele>101.79</ele>
        <time>2023-06-22T10:02:28.740Z</time>
      </trkpt>
      <trkpt lat="46.561" lon="0.21781">
        <ele>101.97</ele>
        <time>2023-06-22T10:03:37.532Z</time>
      </trkpt>
      <trkpt lat="46.56096" lon="0.21789">
        <ele>102.07</ele>
        <time>2023-06-22T10:04:46.325Z</time>
      </trkpt>
      <trkpt lat="46.56095" lon="0.21792">
        <ele>102.11</ele>
        <time>2023-06-22T10:05:55.119Z</time>
      </trkpt>
      <trkpt lat="46.5609" lon="0.21803">
        <ele>102.29</ele>
        <time>2023-06-22T10:07:03.914Z</time>
      </trkpt>
      <trkpt lat="46.56088" lon="0.21809">
        <ele>102.4</ele>
        <time>2023-06-22T10:08:12.710Z</time>
      </trkpt>
      <trkpt lat="46.56083" lon="0.2182">
        <ele>102.66</ele>
        <time>2023-06-22T10:09:21.507Z</time>
      </trkpt>
      <trkpt lat="46.56079" lon="0.21831">
        <ele>102.97</ele>
        <time>2023-06-22T10:10:30.306Z</time>
      </trkpt>
      <trkpt lat="46.56072" lon="0.21848">
        <ele>103.5</ele>
        <time>2023-06-22T10:11:39.107Z</time>
      </trkpt>
      <trkpt lat="46.56065" lon="0.21864">
        <ele>104.21</ele>
        <time>2023-06-22T10:12:47.910Z</time>
      </trkpt>
      <trkpt lat="46.56061" lon="0.21876">
        <ele>104.72</ele>
        <time>2023-06-22T10:13:56.714Z</time>
      </trkpt>
      <trkpt lat="46.56054" lon="0.21892">
        <ele>105.53</ele>
        <time>2023-06-22T10:15:05.520Z</time>
      </trkpt>
      <trkpt lat="46.56053" lon="0.21894">
        <ele>105.61</ele>
        <time>2023-06-22T10:16:14.327Z</time>
      </trkpt>
      <trkpt lat="46.56069" lon="0.21893">
        <ele>106.68</ele>
        <time>2023-06-22T10:17:23.136Z</time>
      </trkpt>
      <trkpt lat="46.56074" lon="0.21893">
        <ele>106.94</ele>
        <time>2023-06-22T10:18:31.946Z</time>
      </trkpt>
      <trkpt lat="46.56083" lon="0.2189">
        <ele>107.47</ele>
        <time>2023-06-22T10:19:40.757Z</time>
      </trkpt>
      <trkpt lat="46.56085" lon="0.21889">
        <ele>107.6</ele>
        <time>2023-06-22T10:20:49.569Z</time>
      </trkpt>
      <trkpt lat="46.56091" lon="0.21885">
        <ele>107.96</ele>
        <time>2023-06-22T10:21:58.382Z</time>
      </trkpt>
      <trkpt lat="46.56095" lon="0.21883">
        <ele>108.16</ele>
        <time>2023-06-22T10:23:07.196Z</time>
      </trkpt>
      <trkpt lat="46.56106" lon="0.21872">
        <ele>108.84</ele>
        <time>2023-06-22T10:24:16.012Z</time>
      </trkpt>
      <trkpt lat="46.56113" lon="0.21864">
        <ele>109.34</ele>
        <time>2023-06-22T10:25:24.829Z</time>
      </trkpt>
      <trkpt lat="46.56134" lon="0.21843">
        <ele>110.96</ele>
        <time>2023-06-22T10:26:33.650Z</time>
      </trkpt>
      <trkpt lat="46.56164" lon="0.2181">
        <ele>113.39</ele>
        <time>2023-06-22T10:27:42.477Z</time>
      </trkpt>
      <trkpt lat="46.56182" lon="0.2179">
        <ele>114.78</ele>
        <time>2023-06-22T10:28:51.308Z</time>
      </trkpt>
      <trkpt lat="46.56192" lon="0.21778">
        <ele>115.59</ele>
        <time>2023-06-22T10:30:00.141Z</time>
      </trkpt>
      <trkpt lat="46.56203" lon="0.21766">
        <ele>116.35</ele>
        <time>2023-06-22T10:31:08.976Z</time>
      </trkpt>
      <trkpt lat="46.56235" lon="0.2173">
        <ele>118.49</ele>
        <time>2023-06-22T10:32:17.818Z</time>
      </trkpt>
      <trkpt lat="46.56241" lon="0.21723">
        <ele>118.95</ele>
        <time>2023-06-22T10:33:26.661Z</time>
      </trkpt>
      <trkpt lat="46.56257" lon="0.21708">
        <ele>120.09</ele>
        <time>2023-06-22T10:34:35.507Z</time>
      </trkpt>
      <trkpt lat="46.56272" lon="0.21695">
        <ele>121.11</ele>
        <time>2023-06-22T10:35:44.356Z</time>
      </trkpt>
      <trkpt lat="46.56284" lon="0.21684">
        <ele>121.82</ele>
        <time>2023-06-22T10:36:53.207Z</time>
      </trkpt>
      <trkpt lat="46.56299" lon="0.21671">
        <ele>122.66</ele>
        <time>2023-06-22T10:38:02.061Z</time>
      </trkpt>
      <trkpt lat="46.56307" lon="0.21664">
        <ele>123.03</ele>
        <time>2023-06-22T10:39:10.916Z</time>
      </trkpt>
      <trkpt lat="46.56311" lon="0.2166">
        <ele>123.22</ele>
        <time>2023-06-22T10:40:19.772Z</time>
      </trkpt>
      <trkpt lat="46.56315" lon="0.2166">
        <ele>123.37</ele>
        <time>2023-06-22T10:41:28.629Z</time>
      </trkpt>
      <trkpt lat="46.5632" lon="0.21659">
        <ele>123.55</ele>
        <time>2023-06-22T10:42:37.487Z</time>
      </trkpt>
      <trkpt lat="46.56344" lon="0.21673">
        <ele>124.51</ele>
        <time>2023-06-22T10:43:46.349Z</time>
      </trkpt>
      <trkpt lat="46.56357" lon="0.2168">
        <ele>125.02</ele>
        <time>2023-06-22T10:44:55.213Z</time>
      </trkpt>
      <trkpt lat="46.56369" lon="0.21687">
        <ele>125.58</ele>
        <time>2023-06-22T10:46:04.079Z</time>
      </trkpt>
      <trkpt lat="46.56382" lon="0.21694">
        <ele>126.24</ele>
        <time>2023-06-22T10:47:12.947Z</time>
      </trkpt>
      <trkpt lat="46.56395" lon="0.21701">
        <ele>126.98</ele>
        <time>2023-06-22T10:48:21.817Z</time>
      </trkpt>
      <trkpt lat="46.56407" lon="0.21708">
        <ele>127.78</ele>
        <time>2023-06-22T10:49:30.689Z</time>
      </trkpt>
      <trkpt lat="46.56415" lon="0.21712">
        <ele>128.37</ele>
        <time>2023-06-22T10:50:39.563Z</time>
      </trkpt>
      <trkpt lat="46.56429" lon="0.2172">
        <ele>129.37</ele>
        <time>2023-06-22T10:51:48.439Z</time>
      </trkpt>
      <trkpt lat="46.56436" lon="0.21724">
        <ele>129.92</ele>
        <time>2023-06-22T10:52:57.316Z</time>
      </trkpt>
      <trkpt lat="46.56472" lon="0.21741">
        <ele>132.34</ele>
        <time>2023-06-22T10:54:06.199Z</time>
      </trkpt>
      <trkpt lat="46.56471" lon="0.21745">
        <ele>132.53</ele>
        <time>2023-06-22T10:55:15.083Z</time>
      </trkpt>
      <trkpt lat="46.56465" lon="0.21776">
        <ele>134.04</ele>
        <time>2023-06-22T10:56:23.971Z</time>
      </trkpt>
      <trkpt lat="46.56465" lon="0.21776">
        <ele>134.04</ele>
        <time>2023-06-22T10:57:32.859Z</time>
      </trkpt>
      <trkpt lat="46.56463" lon="0.21796">
        <ele>134.89</ele>
        <time>2023-06-22T10:58:41.749Z</time>
      </trkpt>
      <trkpt lat="46.56459" lon="0.21828">
        <ele>136.24</ele>
        <time>2023-06-22T10:59:50.642Z</time>
      </trkpt>
      <trkpt lat="46.56457" lon="0.21844">
        <ele>136.88</ele>
        <time>2023-06-22T11:00:59.537Z</time>
      </trkpt>
      <trkpt lat="46.56457" lon="0.21853">
        <ele>137.26</ele>
        <time>2023-06-22T11:02:08.433Z</time>
      </trkpt>
      <trkpt lat="46.56458" lon="0.21873">
        <ele>137.94</ele>
        <time>2023-06-22T11:03:17.331Z</time>
      </trkpt>
      <trkpt lat="46.56458" lon="0.21886">
        <ele>138.36</ele>
        <time>2023-06-22T11:04:26.231Z</time>
      </trkpt>
      <trkpt lat="46.56458" lon="0.21899">
        <ele>138.75</ele>
        <time>2023-06-22T11:05:35.132Z</time>
      </trkpt>
      <trkpt lat="46.56459" lon="0.21925">
        <ele>139.47</ele>
        <time>2023-06-22T11:06:44.036Z</time>
      </trkpt>
      <trkpt lat="46.56459" lon="0.21939">
        <ele>139.53</ele>
        <time>2023-06-22T11:07:52.942Z</time>
      </trkpt>
      <trkpt lat="46.56459" lon="0.21939">
        <ele>139.53</ele>
        <time>2023-06-22T11:09:01.848Z</time>
      </trkpt>
      <trkpt lat="46.56459" lon="0.21945">
        <ele>139.53</ele>
        <time>2023-06-22T11:10:10.754Z</time>
      </trkpt>
      <trkpt lat="46.56458" lon="0.21958">
        <ele>139.47</ele>
        <time>2023-06-22T11:11:19.662Z</time>
      </trkpt>
      <trkpt lat="46.56458" lon="0.21984">
        <ele>139.19</ele>
        <time>2023-06-22T11:12:28.573Z</time>
      </trkpt>
      <trkpt lat="46.56457" lon="0.21999">
        <ele>139.03</ele>
        <time>2023-06-22T11:13:37.485Z</time>
      </trkpt>
      <trkpt lat="46.56458" lon="0.22016">
        <ele>138.87</ele>
        <time>2023-06-22T11:14:46.399Z</time>
      </trkpt>
      <trkpt lat="46.5646" lon="0.22029">
        <ele>138.71</ele>
        <time>2023-06-22T11:15:55.315Z</time>
      </trkpt>
      <trkpt lat="46.56461" lon="0.22042">
        <ele>138.52</ele>
        <time>2023-06-22T11:17:04.232Z</time>
      </trkpt>
      <trkpt lat="46.56462" lon="0.22055">
        <ele>138.3</ele>
        <time>2023-06-22T11:18:13.150Z</time>
      </trkpt>
      <trkpt lat="46.56463" lon="0.22067">
        <ele>138.02</ele>
        <time>2023-06-22T11:19:22.070Z</time>
      </trkpt>
      <trkpt lat="46.56464" lon="0.2208">
        <ele>137.69</ele>
        <time>2023-06-22T11:20:30.991Z</time>
      </trkpt>
      <trkpt lat="46.56467" lon="0.22119">
        <ele>136.62</ele>
        <time>2023-06-22T11:21:39.917Z</time>
      </trkpt>
      <trkpt lat="46.56468" lon="0.22125">
        <ele>136.45</ele>
        <time>2023-06-22T11:22:48.843Z</time>
      </trkpt>
      <trkpt lat="46.56468" lon="0.22132">
        <ele>136.32</ele>
        <time>2023-06-22T11:23:57.770Z</time>
      </trkpt>
      <trkpt lat="46.56469" lon="0.22138">
        <ele>136.27</ele>
        <time>2023-06-22T11:25:06.698Z</time>
      </trkpt>
      <trkpt lat="46.56469" lon="0.22145">
        <ele>136.3</ele>
        <time>2023-06-22T11:26:15.626Z</time>
      </trkpt>
      <trkpt lat="46.5647" lon="0.22151">
        <ele>136.4</ele>
        <time>2023-06-22T11:27:24.555Z</time>
      </trkpt>
      <trkpt lat="46.56471" lon="0.22164">
        <ele>136.66</ele>
        <time>2023-06-22T11:28:33.486Z</time>
      </trkpt>
      <trkpt lat="46.56472" lon="0.2217">
        <ele>136.77</ele>
        <time>2023-06-22T11:29:42.417Z</time>
      </trkpt>
      <trkpt lat="46.56472" lon="0.22177">
        <ele>136.84</ele>
        <time>2023-06-22T11:30:51.349Z</time>
      </trkpt>
      <trkpt lat="46.56473" lon="0.22183">
        <ele>136.88</ele>
        <time>2023-06-22T11:32:00.282Z</time>
      </trkpt>
      <trkpt lat="46.56473" lon="0.2219">
        <ele>136.88</ele>
        <time>2023-06-22T11:33:09.215Z</time>
      </trkpt>
      <trkpt lat="46.56474" lon="0.22196">
        <ele>136.85</ele>
        <time>2023-06-22T11:34:18.149Z</time>
      </trkpt>
      <trkpt lat="46.56475" lon="0.22209">
        <ele>136.71</ele>
        <time>2023-06-22T11:35:27.085Z</time>
      </trkpt>
      <trkpt lat="46.56478" lon="0.22245">
        <ele>136.14</ele>
        <time>2023-06-22T11:36:36.025Z</time>
      </trkpt>
      <trkpt lat="46.56478" lon="0.22248">
        <ele>136.1</ele>
        <time>2023-06-22T11:37:44.965Z</time>
      </trkpt>
      <trkpt lat="46.56474" lon="0.22273">
        <ele>135.75</ele>
        <time>2023-06-22T11:38:53.908Z</time>
      </trkpt>
      <trkpt lat="46.56472" lon="0.22284">
        <ele>135.57</ele>
        <time>2023-06-22T11:40:02.852Z</time>
      </trkpt>
      <trkpt lat="46.56461" lon="0.22314">
        <ele>135.06</ele>
        <time>2023-06-22T11:41:11.800Z</time>
      </trkpt>
      <trkpt lat="46.5646" lon="0.22318">
        <ele>135.01</ele>
        <time>2023-06-22T11:42:20.748Z</time>
      </trkpt>
      <trkpt lat="46.56457" lon="0.22326">
        <ele>134.91</ele>
        <time>2023-06-22T11:43:29.697Z</time>
      </trkpt>
      <trkpt lat="46.56454" lon="0.22331">
        <ele>134.86</ele>
        <time>2023-06-22T11:44:38.647Z</time>
      </trkpt>
      <trkpt lat="46.56452" lon="0.22337">
        <ele>134.83</ele>
        <time>2023-06-22T11:45:47.598Z</time>
      </trkpt>
      <trkpt lat="46.5645" lon="0.22342">
        <ele>134.84</ele>
        <time>2023-06-22T11:46:56.549Z</time>
      </trkpt>
      <trkpt lat="46.56447" lon="0.22348">
        <ele>134.88</ele>
        <time>2023-06-22T11:48:05.501Z</time>
      </trkpt>
      <trkpt lat="46.56445" lon="0.22353">
        <ele>134.95</ele>
        <time>2023-06-22T11:49:14.454Z</time>
      </trkpt>
      <trkpt lat="46.56445" lon="0.22353">
        <ele>134.95</ele>
        <time>2023-06-22T11:50:23.407Z</time>
      </trkpt>
      <trkpt lat="46.56443" lon="0.22359">
        <ele>135.04</ele>
        <time>2023-06-22T11:51:32.361Z</time>
      </trkpt>
      <trkpt lat="46.5644" lon="0.22371">
        <ele>135.44</ele>
        <time>2023-06-22T11:52:41.316Z</time>
      </trkpt>
      <trkpt lat="46.56436" lon="0.22382">
        <ele>135.8</ele>
        <time>2023-06-22T11:53:50.272Z</time>
      </trkpt>
      <trkpt lat="46.56432" lon="0.22396">
        <ele>136.16</ele>
        <time>2023-06-22T11:54:59.230Z</time>
      </trkpt>
      <trkpt lat="46.56427" lon="0.22421">
        <ele>136.8</ele>
        <time>2023-06-22T11:56:08.191Z</time>
      </trkpt>
      <trkpt lat="46.56427" lon="0.22425">
        <ele>136.9</ele>
        <time>2023-06-22T11:57:17.152Z</time>
      </trkpt>
      <trkpt lat="46.56428" lon="0.22463">
        <ele>137.74</ele>
        <time>2023-06-22T11:58:26.118Z</time>
      </trkpt>
      <trkpt lat="46.56428" lon="0.22482">
        <ele>138.09</ele>
        <time>2023-06-22T11:59:35.086Z</time>
      </trkpt>
      <trkpt lat="46.56429" lon="0.22495">
        <ele>138.27</ele>
        <time>2023-06-22T12:00:44.055Z</time>
      </trkpt>
      <trkpt lat="46.56429" lon="0.22509">
        <ele>138.41</ele>
        <time>2023-06-22T12:01:53.026Z</time>
      </trkpt>
      <trkpt lat="46.56429" lon="0.22509">
        <ele>138.41</ele>
        <time>2023-06-22T12:03:01.997Z</time>
      </trkpt>
      <trkpt lat="46.56428" lon="0.22521">
        <ele>138.51</ele>
        <time>2023-06-22T12:04:10.969Z</time>
      </trkpt>
      <trkpt lat="46.56426" lon="0.22546">
        <ele>138.66</ele>
        <time>2023-06-22T12:05:19.944Z</time>
      </trkpt>
      <trkpt lat="46.56426" lon="0.22552">
        <ele>138.7</ele>
        <time>2023-06-22T12:06:28.919Z</time>
      </trkpt>
      <trkpt lat="46.56421" lon="0.22564">
        <ele>138.8</ele>
        <time>2023-06-22T12:07:37.896Z</time>
      </trkpt>
      <trkpt lat="46.56417" lon="0.22574">
        <ele>138.91</ele>
        <time>2023-06-22T12:08:46.874Z</time>
      </trkpt>
      <trkpt lat="46.564" lon="0.22604">
        <ele>139.28</ele>
        <time>2023-06-22T12:09:55.856Z</time>
      </trkpt>
      <trkpt lat="46.56394" lon="0.22615">
        <ele>139.34</ele>
        <time>2023-06-22T12:11:04.840Z</time>
      </trkpt>
      <trkpt lat="46.56383" lon="0.22635">
        <ele>139.33</ele>
        <time>2023-06-22T12:12:13.827Z</time>
      </trkpt>
      <trkpt lat="46.56375" lon="0.2265">
        <ele>139.28</ele>
        <time>2023-06-22T12:13:22.816Z</time>
      </trkpt>
      <trkpt lat="46.56366" lon="0.22665">
        <ele>139.15</ele>
        <time>2023-06-22T12:14:31.807Z</time>
      </trkpt>
      <trkpt lat="46.56352" lon="0.22691">
        <ele>138.86</ele>
        <time>2023-06-22T12:15:40.802Z</time>
      </trkpt>
      <trkpt lat="46.56347" lon="0.22701">
        <ele>138.67</ele>
        <time>2023-06-22T12:16:49.798Z</time>
      </trkpt>
      <trkpt lat="46.56344" lon="0.22706">
        <ele>138.54</ele>
        <time>2023-06-22T12:17:58.795Z</time>
      </trkpt>
      <trkpt lat="46.56338" lon="0.22716">
        <ele>138.21</ele>
        <time>2023-06-22T12:19:07.793Z</time>
      </trkpt>
      <trkpt lat="46.5633" lon="0.22731">
        <ele>137.61</ele>
        <time>2023-06-22T12:20:16.793Z</time>
      </trkpt>
      <trkpt lat="46.56324" lon="0.22741">
        <ele>137.16</ele>
        <time>2023-06-22T12:21:25.795Z</time>
      </trkpt>
      <trkpt lat="46.56318" lon="0.22751">
        <ele>136.65</ele>
        <time>2023-06-22T12:22:34.798Z</time>
      </trkpt>
      <trkpt lat="46.56316" lon="0.22756">
        <ele>136.36</ele>
        <time>2023-06-22T12:23:43.802Z</time>
      </trkpt>
      <trkpt lat="46.5631" lon="0.22767">
        <ele>135.72</ele>
        <time>2023-06-22T12:24:52.807Z</time>
      </trkpt>
      <trkpt lat="46.56299" lon="0.22787">
        <ele>134.29</ele>
        <time>2023-06-22T12:26:01.815Z</time>
      </trkpt>
      <trkpt lat="46.56293" lon="0.22797">
        <ele>133.6</ele>
        <time>2023-06-22T12:27:10.825Z</time>
      </trkpt>
      <trkpt lat="46.5629" lon="0.22802">
        <ele>133.29</ele>
        <time>2023-06-22T12:28:19.836Z</time>
      </trkpt>
      <trkpt lat="46.56287" lon="0.22807">
        <ele>133.01</ele>
        <time>2023-06-22T12:29:28.847Z</time>
      </trkpt>
      <trkpt lat="46.56285" lon="0.22812">
        <ele>132.77</ele>
        <time>2023-06-22T12:30:37.859Z</time>
      </trkpt>
      <trkpt lat="46.56279" lon="0.22822">
        <ele>132.37</ele>
        <time>2023-06-22T12:31:46.872Z</time>
      </trkpt>
      <trkpt lat="46.56273" lon="0.22832">
        <ele>132.09</ele>
        <time>2023-06-22T12:32:55.887Z</time>
      </trkpt>
      <trkpt lat="46.5627" lon="0.22838">
        <ele>131.99</ele>
        <time>2023-06-22T12:34:04.903Z</time>
      </trkpt>
      <trkpt lat="46.56268" lon="0.22843">
        <ele>131.92</ele>
        <time>2023-06-22T12:35:13.919Z</time>
      </trkpt>
      <trkpt lat="46.56262" lon="0.22853">
        <ele>131.88</ele>
        <time>2023-06-22T12:36:22.937Z</time>
      </trkpt>
      <trkpt lat="46.56259" lon="0.22858">
        <ele>131.9</ele>
        <time>2023-06-22T12:37:31.955Z</time>
      </trkpt>
      <trkpt lat="46.56256" lon="0.22863">
        <ele>131.95</ele>
        <time>2023-06-22T12:38:40.974Z</time>
      </trkpt>
      <trkpt lat="46.56251" lon="0.22873">
        <ele>132.09</ele>
        <time>2023-06-22T12:39:49.995Z</time>
      </trkpt>
      <trkpt lat="46.56248" lon="0.22878">
        <ele>132.19</ele>
        <time>2023-06-22T12:40:59.016Z</time>
      </trkpt>
      <trkpt lat="46.56248" lon="0.22878">
        <ele>132.19</ele>
        <time>2023-06-22T12:42:08.037Z</time>
      </trkpt>
      <trkpt lat="46.56245" lon="0.22883">
        <ele>132.32</ele>
        <time>2023-06-22T12:43:17.059Z</time>
      </trkpt>
      <trkpt lat="46.56242" lon="0.22888">
        <ele>132.48</ele>
        <time>2023-06-22T12:44:26.082Z</time>
      </trkpt>
      <trkpt lat="46.5624" lon="0.22893">
        <ele>132.68</ele>
        <time>2023-06-22T12:45:35.105Z</time>
      </trkpt>
      <trkpt lat="46.56237" lon="0.22898">
        <ele>132.91</ele>
        <time>2023-06-22T12:46:44.129Z</time>
      </trkpt>
      <trkpt lat="46.56234" lon="0.22904">
        <ele>133.18</ele>
        <time>2023-06-22T12:47:53.154Z</time>
      </trkpt>
      <trkpt lat="46.56226" lon="0.22919">
        <ele>134.04</ele>
        <time>2023-06-22T12:49:02.181Z</time>
      </trkpt>
      <trkpt lat="46.56223" lon="0.22924">
        <ele>134.3</ele>
        <time>2023-06-22T12:50:11.209Z</time>
      </trkpt>
      <trkpt lat="46.5622" lon="0.22929">
        <ele>134.53</ele>
        <time>2023-06-22T12:51:20.237Z</time>
      </trkpt>
      <trkpt lat="46.56217" lon="0.22934">
        <ele>134.73</ele>
        <time>2023-06-22T12:52:29.266Z</time>
      </trkpt>
      <trkpt lat="46.56212" lon="0.22945">
        <ele>135.05</ele>
        <time>2023-06-22T12:53:38.297Z</time>
      </trkpt>
      <trkpt lat="46.56206" lon="0.22955">
        <ele>135.3</ele>
        <time>2023-06-22T12:54:47.329Z</time>
      </trkpt>
      <trkpt lat="46.56195" lon="0.22975">
        <ele>135.68</ele>
        <time>2023-06-22T12:55:56.364Z</time>
      </trkpt>
      <trkpt lat="46.5619" lon="0.22986">
        <ele>135.83</ele>
        <time>2023-06-22T12:57:05.400Z</time>
      </trkpt>
      <trkpt lat="46.56184" lon="0.22996">
        <ele>135.92</ele>
        <time>2023-06-22T12:58:14.438Z</time>
      </trkpt>
      <trkpt lat="46.56176" lon="0.23011">
        <ele>135.97</ele>
        <time>2023-06-22T12:59:23.478Z</time>
      </trkpt>
      <trkpt lat="46.56165" lon="0.23032">
        <ele>135.92</ele>
        <time>2023-06-22T13:00:32.521Z</time>
      </trkpt>
      <trkpt lat="46.56154" lon="0.23052">
        <ele>135.91</ele>
        <time>2023-06-22T13:01:41.567Z</time>
      </trkpt>
      <trkpt lat="46.56151" lon="0.23057">
        <ele>135.89</ele>
        <time>2023-06-22T13:02:50.613Z</time>
      </trkpt>
      <trkpt lat="46.56145" lon="0.23067">
        <ele>135.79</ele>
        <time>2023-06-22T13:03:59.661Z</time>
      </trkpt>
      <trkpt lat="46.56143" lon="0.23072">
        <ele>135.71</ele>
        <time>2023-06-22T13:05:08.710Z</time>
      </trkpt>
      <trkpt lat="46.56129" lon="0.23098">
        <ele>135.17</ele>
        <time>2023-06-22T13:06:17.762Z</time>
      </trkpt>
      <trkpt lat="46.56123" lon="0.23108">
        <ele>135.01</ele>
        <time>2023-06-22T13:07:26.816Z</time>
      </trkpt>
      <trkpt lat="46.56118" lon="0.23119">
        <ele>134.89</ele>
        <time>2023-06-22T13:08:35.871Z</time>
      </trkpt>
      <trkpt lat="46.56115" lon="0.23124">
        <ele>134.85</ele>
        <time>2023-06-22T13:09:44.927Z</time>
      </trkpt>
      <trkpt lat="46.56109" lon="0.23134">
        <ele>134.85</ele>
        <time>2023-06-22T13:10:53.984Z</time>
      </trkpt>
      <trkpt lat="46.56104" lon="0.23144">
        <ele>134.93</ele>
        <time>2023-06-22T13:12:03.043Z</time>
      </trkpt>
      <trkpt lat="46.56101" lon="0.23149">
        <ele>134.99</ele>
        <time>2023-06-22T13:13:12.102Z</time>
      </trkpt>
      <trkpt lat="46.56096" lon="0.2316">
        <ele>135.17</ele>
        <time>2023-06-22T13:14:21.163Z</time>
      </trkpt>
      <trkpt lat="46.56084" lon="0.23181">
        <ele>135.65</ele>
        <time>2023-06-22T13:15:30.227Z</time>
      </trkpt>
      <trkpt lat="46.56084" lon="0.23181">
        <ele>135.65</ele>
        <time>2023-06-22T13:16:39.291Z</time>
      </trkpt>
      <trkpt lat="46.56078" lon="0.2319">
        <ele>135.94</ele>
        <time>2023-06-22T13:17:48.356Z</time>
      </trkpt>
      <trkpt lat="46.56072" lon="0.23199">
        <ele>136.28</ele>
        <time>2023-06-22T13:18:57.423Z</time>
      </trkpt>
      <trkpt lat="46.56066" lon="0.23209">
        <ele>136.66</ele>
        <time>2023-06-22T13:20:06.491Z</time>
      </trkpt>
      <trkpt lat="46.56052" lon="0.23232">
        <ele>137.13</ele>
        <time>2023-06-22T13:21:15.562Z</time>
      </trkpt>
      <trkpt lat="46.56046" lon="0.23241">
        <ele>137.29</ele>
        <time>2023-06-22T13:22:24.635Z</time>
      </trkpt>
      <trkpt lat="46.56044" lon="0.23244">
        <ele>137.39</ele>
        <time>2023-06-22T13:23:33.708Z</time>
      </trkpt>
      <trkpt lat="46.56023" lon="0.23281">
        <ele>138.6</ele>
        <time>2023-06-22T13:24:42.787Z</time>
      </trkpt>
      <trkpt lat="46.56015" lon="0.23295">
        <ele>139.05</ele>
        <time>2023-06-22T13:25:51.868Z</time>
      </trkpt>
      <trkpt lat="46.56007" lon="0.23312">
        <ele>139.55</ele>
        <time>2023-06-22T13:27:00.951Z</time>
      </trkpt>
      <trkpt lat="46.56002" lon="0.23322">
        <ele>139.89</ele>
        <time>2023-06-22T13:28:10.035Z</time>
      </trkpt>
      <trkpt lat="46.55989" lon="0.23349">
        <ele>140.82</ele>
        <time>2023-06-22T13:29:19.123Z</time>
      </trkpt>
      <trkpt lat="46.55984" lon="0.2336">
        <ele>141.16</ele>
        <time>2023-06-22T13:30:28.212Z</time>
      </trkpt>
      <trkpt lat="46.55979" lon="0.2337">
        <ele>141.47</ele>
        <time>2023-06-22T13:31:37.303Z</time>
      </trkpt>
      <trkpt lat="46.55974" lon="0.23381">
        <ele>141.73</ele>
        <time>2023-06-22T13:32:46.395Z</time>
      </trkpt>
      <trkpt lat="46.55971" lon="0.23386">
        <ele>141.88</ele>
        <time>2023-06-22T13:33:55.488Z</time>
      </trkpt>
      <trkpt lat="46.55965" lon="0.23396">
        <ele>142.13</ele>
        <time>2023-06-22T13:35:04.582Z</time>
      </trkpt>
      <trkpt lat="46.5596" lon="0.23406">
        <ele>142.35</ele>
        <time>2023-06-22T13:36:13.678Z</time>
      </trkpt>
      <trkpt lat="46.55951" lon="0.23421">
        <ele>142.61</ele>
        <time>2023-06-22T13:37:22.776Z</time>
      </trkpt>
      <trkpt lat="46.55945" lon="0.23431">
        <ele>142.76</ele>
        <time>2023-06-22T13:38:31.875Z</time>
      </trkpt>
      <trkpt lat="46.55928" lon="0.23461">
        <ele>143.09</ele>
        <time>2023-06-22T13:39:40.979Z</time>
      </trkpt>
      <trkpt lat="46.55919" lon="0.23475">
        <ele>143.22</ele>
        <time>2023-06-22T13:40:50.085Z</time>
      </trkpt>
      <trkpt lat="46.55917" lon="0.23479">
        <ele>143.24</ele>
        <time>2023-06-22T13:41:59.191Z</time>
      </trkpt>
      <trkpt lat="46.55911" lon="0.23491">
        <ele>143.31</ele>
        <time>2023-06-22T13:43:08.299Z</time>
      </trkpt>
      <trkpt lat="46.55902" lon="0.23506">
        <ele>143.37</ele>
        <time>2023-06-22T13:44:17.409Z</time>
      </trkpt>
      <trkpt lat="46.55886" lon="0.23536">
        <ele>143.38</ele>
        <time>2023-06-22T13:45:26.523Z</time>
      </trkpt>
      <trkpt lat="46.55886" lon="0.23537">
        <ele>143.38</ele>
        <time>2023-06-22T13:46:35.637Z</time>
      </trkpt>
      <trkpt lat="46.55869" lon="0.23567">
        <ele>143.49</ele>
        <time>2023-06-22T13:47:44.756Z</time>
      </trkpt>
      <trkpt lat="46.55858" lon="0.23587">
        <ele>143.34</ele>
        <time>2023-06-22T13:48:53.877Z</time>
      </trkpt>
      <trkpt lat="46.55849" lon="0.23601">
        <ele>143.27</ele>
        <time>2023-06-22T13:50:03.001Z</time>
      </trkpt>
      <trkpt lat="46.55838" lon="0.23621">
        <ele>143.24</ele>
        <time>2023-06-22T13:51:12.127Z</time>
      </trkpt>
      <trkpt lat="46.55828" lon="0.23639">
        <ele>143.19</ele>
        <time>2023-06-22T13:52:21.256Z</time>
      </trkpt>
      <trkpt lat="46.5582" lon="0.23658">
        <ele>143.15</ele>
        <time>2023-06-22T13:53:30.387Z</time>
      </trkpt>
      <trkpt lat="46.55808" lon="0.23685">
        <ele>143.16</ele>
        <time>2023-06-22T13:54:39.522Z</time>
      </trkpt>
      <trkpt lat="46.55807" lon="0.23687">
        <ele>143.15</ele>
        <time>2023-06-22T13:55:48.657Z</time>
      </trkpt>
      <trkpt lat="46.55807" lon="0.23736">
        <ele>143.09</ele>
        <time>2023-06-22T13:56:57.798Z</time>
      </trkpt>
      <trkpt lat="46.55807" lon="0.23762">
        <ele>142.99</ele>
        <time>2023-06-22T13:58:06.941Z</time>
      </trkpt>
      <trkpt lat="46.55806" lon="0.23833">
        <ele>142.65</ele>
        <time>2023-06-22T13:59:16.092Z</time>
      </trkpt>
      <trkpt lat="46.55806" lon="0.23865">
        <ele>142.45</ele>
        <time>2023-06-22T14:00:25.247Z</time>
      </trkpt>
      <trkpt lat="46.55806" lon="0.23884">
        <ele>142.28</ele>
        <time>2023-06-22T14:01:34.404Z</time>
      </trkpt>
      <trkpt lat="46.55806" lon="0.23923">
        <ele>141.81</ele>
        <time>2023-06-22T14:02:43.565Z</time>
      </trkpt>
      <trkpt lat="46.55806" lon="0.23925">
        <ele>141.76</ele>
        <time>2023-06-22T14:03:52.727Z</time>
      </trkpt>
      <trkpt lat="46.55806" lon="0.23936">
        <ele>141.53</ele>
        <time>2023-06-22T14:05:01.890Z</time>
      </trkpt>
      <trkpt lat="46.55805" lon="0.23949">
        <ele>141.2</ele>
        <time>2023-06-22T14:06:11.054Z</time>
      </trkpt>
      <trkpt lat="46.55805" lon="0.23962">
        <ele>140.79</ele>
        <time>2023-06-22T14:07:20.220Z</time>
      </trkpt>
      <trkpt lat="46.55804" lon="0.23975">
        <ele>140.29</ele>
        <time>2023-06-22T14:08:29.387Z</time>
      </trkpt>
      <trkpt lat="46.55804" lon="0.23977">
        <ele>140.19</ele>
        <time>2023-06-22T14:09:38.554Z</time>
      </trkpt>
      <trkpt lat="46.55804" lon="0.23981">
        <ele>139.99</ele>
        <time>2023-06-22T14:10:47.722Z</time>
      </trkpt>
      <trkpt lat="46.55805" lon="0.23988">
        <ele>139.66</ele>
        <time>2023-06-22T14:11:56.890Z</time>
      </trkpt>
      <trkpt lat="46.55805" lon="0.23994">
        <ele>139.3</ele>
        <time>2023-06-22T14:13:06.059Z</time>
      </trkpt>
      <trkpt lat="46.55806" lon="0.24001">
        <ele>138.9</ele>
        <time>2023-06-22T14:14:15.229Z</time>
      </trkpt>
      <trkpt lat="46.55806" lon="0.24014">
        <ele>138.03</ele>
        <time>2023-06-22T14:15:24.400Z</time>
      </trkpt>
      <trkpt lat="46.55807" lon="0.24024">
        <ele>137.31</ele>
        <time>2023-06-22T14:16:33.572Z</time>
      </trkpt>
      <trkpt lat="46.55807" lon="0.24033">
        <ele>136.64</ele>
        <time>2023-06-22T14:17:42.746Z</time>
      </trkpt>
      <trkpt lat="46.55807" lon="0.2404">
        <ele>136.21</ele>
        <time>2023-06-22T14:18:51.920Z</time>
      </trkpt>
      <trkpt lat="46.55807" lon="0.24047">
        <ele>135.81</ele>
        <time>2023-06-22T14:20:01.095Z</time>
      </trkpt>
      <trkpt lat="46.55808" lon="0.24053">
        <ele>135.45</ele>
        <time>2023-06-22T14:21:10.271Z</time>
      </trkpt>
      <trkpt lat="46.55808" lon="0.2406">
        <ele>135.14</ele>
        <time>2023-06-22T14:22:19.447Z</time>
      </trkpt>
      <trkpt lat="46.55808" lon="0.24066">
        <ele>134.87</ele>
        <time>2023-06-22T14:23:28.624Z</time>
      </trkpt>
      <trkpt lat="46.55808" lon="0.24073">
        <ele>134.66</ele>
        <time>2023-06-22T14:24:37.802Z</time>
      </trkpt>
      <trkpt lat="46.55808" lon="0.24079">
        <ele>134.52</ele>
        <time>2023-06-22T14:25:46.981Z</time>
      </trkpt>
      <trkpt lat="46.55808" lon="0.24086">
        <ele>134.45</ele>
        <time>2023-06-22T14:26:56.160Z</time>
      </trkpt>
      <trkpt lat="46.55808" lon="0.24092">
        <ele>134.45</ele>
        <time>2023-06-22T14:28:05.340Z</time>
      </trkpt>
      <trkpt lat="46.55808" lon="0.24099">
        <ele>134.52</ele>
        <time>2023-06-22T14:29:14.521Z</time>
      </trkpt>
      <trkpt lat="46.55808" lon="0.24105">
        <ele>134.65</ele>
        <time>2023-06-22T14:30:23.702Z</time>
      </trkpt>
      <trkpt lat="46.55809" lon="0.24112">
        <ele>134.86</ele>
        <time>2023-06-22T14:31:32.884Z</time>
      </trkpt>
      <trkpt lat="46.55809" lon="0.24118">
        <ele>135.12</ele>
        <time>2023-06-22T14:32:42.067Z</time>
      </trkpt>
      <trkpt lat="46.55809" lon="0.24125">
        <ele>135.45</ele>
        <time>2023-06-22T14:33:51.251Z</time>
      </trkpt>
      <trkpt lat="46.55809" lon="0.24138">
        <ele>136.25</ele>
        <time>2023-06-22T14:35:00.436Z</time>
      </trkpt>
      <trkpt lat="46.5581" lon="0.24164">
        <ele>138.13</ele>
        <time>2023-06-22T14:36:09.624Z</time>
      </trkpt>
      <trkpt lat="46.5581" lon="0.2417">
        <ele>138.58</ele>
        <time>2023-06-22T14:37:18.813Z</time>
      </trkpt>
      <trkpt lat="46.5581" lon="0.24184">
        <ele>139.38</ele>
        <time>2023-06-22T14:38:28.003Z</time>
      </trkpt>
      <trkpt lat="46.5581" lon="0.2419">
        <ele>139.73</ele>
        <time>2023-06-22T14:39:37.194Z</time>
      </trkpt>
      <trkpt lat="46.5581" lon="0.24197">
        <ele>140.04</ele>
        <time>2023-06-22T14:40:46.386Z</time>
      </trkpt>
      <trkpt lat="46.5581" lon="0.2421">
        <ele>140.58</ele>
        <time>2023-06-22T14:41:55.579Z</time>
      </trkpt>
      <trkpt lat="46.5581" lon="0.24216">
        <ele>140.81</ele>
        <time>2023-06-22T14:43:04.773Z</time>
      </trkpt>
      <trkpt lat="46.55811" lon="0.24223">
        <ele>141.02</ele>
        <time>2023-06-22T14:44:13.967Z</time>
      </trkpt>
      <trkpt lat="46.55811" lon="0.24229">
        <ele>141.2</ele>
        <time>2023-06-22T14:45:23.162Z</time>
      </trkpt>
      <trkpt lat="46.55811" lon="0.24242">
        <ele>141.52</ele>
        <time>2023-06-22T14:46:32.359Z</time>
      </trkpt>
      <trkpt lat="46.55811" lon="0.24262">
        <ele>141.9</ele>
        <time>2023-06-22T14:47:41.558Z</time>
      </trkpt>
      <trkpt lat="46.55812" lon="0.24281">
        <ele>142.23</ele>
        <time>2023-06-22T14:48:50.759Z</time>
      </trkpt>
      <trkpt lat="46.55812" lon="0.24294">
        <ele>142.41</ele>
        <time>2023-06-22T14:49:59.961Z</time>
      </trkpt>
      <trkpt lat="46.55812" lon="0.24301">
        <ele>142.48</ele>
        <time>2023-06-22T14:51:09.164Z</time>
      </trkpt>
      <trkpt lat="46.55812" lon="0.2432">
        <ele>142.61</ele>
        <time>2023-06-22T14:52:18.369Z</time>
      </trkpt>
      <trkpt lat="46.55813" lon="0.2434">
        <ele>142.68</ele>
        <time>2023-06-22T14:53:27.576Z</time>
      </trkpt>
      <trkpt lat="46.55813" lon="0.24353">
        <ele>142.67</ele>
        <time>2023-06-22T14:54:36.785Z</time>
      </trkpt>
      <trkpt lat="46.55813" lon="0.24359">
        <ele>142.65</ele>
        <time>2023-06-22T14:55:45.994Z</time>
      </trkpt>
      <trkpt lat="46.55813" lon="0.2436">
        <ele>142.65</ele>
        <time>2023-06-22T14:56:55.204Z</time>
      </trkpt>
      <trkpt lat="46.55814" lon="0.24379">
        <ele>142.53</ele>
        <time>2023-06-22T14:58:04.416Z</time>
      </trkpt>
      <trkpt lat="46.55816" lon="0.24405">
        <ele>142.16</ele>
        <time>2023-06-22T14:59:13.631Z</time>
      </trkpt>
      <trkpt lat="46.55816" lon="0.24417">
        <ele>142.03</ele>
        <time>2023-06-22T15:00:22.847Z</time>
      </trkpt>
      <trkpt lat="46.55817" lon="0.2443">
        <ele>141.97</ele>
        <time>2023-06-22T15:01:32.064Z</time>
      </trkpt>
      <trkpt lat="46.55817" lon="0.24436">
        <ele>141.97</ele>
        <time>2023-06-22T15:02:41.282Z</time>
      </trkpt>
      <trkpt lat="46.55818" lon="0.24442">
        <ele>141.98</ele>
        <time>2023-06-22T15:03:50.501Z</time>
      </trkpt>
      <trkpt lat="46.55818" lon="0.24447">
        <ele>142</ele>
        <time>2023-06-22T15:04:59.720Z</time>
      </trkpt>
      <trkpt lat="46.55819" lon="0.24455">
        <ele>142.06</ele>
        <time>2023-06-22T15:06:08.940Z</time>
      </trkpt>
      <trkpt lat="46.5582" lon="0.24467">
        <ele>142.18</ele>
        <time>2023-06-22T15:07:18.162Z</time>
      </trkpt>
      <trkpt lat="46.55823" lon="0.24493">
        <ele>142.46</ele>
        <time>2023-06-22T15:08:27.386Z</time>
      </trkpt>
      <trkpt lat="46.55824" lon="0.24505">
        <ele>142.62</ele>
        <time>2023-06-22T15:09:36.612Z</time>
      </trkpt>
      <trkpt lat="46.55825" lon="0.24514">
        <ele>142.76</ele>
        <time>2023-06-22T15:10:45.839Z</time>
      </trkpt>
      <trkpt lat="46.55825" lon="0.24517">
        <ele>142.82</ele>
        <time>2023-06-22T15:11:55.066Z</time>
      </trkpt>
      <trkpt lat="46.55826" lon="0.24524">
        <ele>142.94</ele>
        <time>2023-06-22T15:13:04.294Z</time>
      </trkpt>
      <trkpt lat="46.55827" lon="0.24536">
        <ele>143.25</ele>
        <time>2023-06-22T15:14:13.523Z</time>
      </trkpt>
      <trkpt lat="46.55829" lon="0.24568">
        <ele>144.15</ele>
        <time>2023-06-22T15:15:22.756Z</time>
      </trkpt>
      <trkpt lat="46.5583" lon="0.24587">
        <ele>144.55</ele>
        <time>2023-06-22T15:16:31.991Z</time>
      </trkpt>
      <trkpt lat="46.55832" lon="0.24609">
        <ele>144.93</ele>
        <time>2023-06-22T15:17:41.228Z</time>
      </trkpt>
      <trkpt lat="46.55832" lon="0.24632">
        <ele>145.34</ele>
        <time>2023-06-22T15:18:50.468Z</time>
      </trkpt>
      <trkpt lat="46.55833" lon="0.24652">
        <ele>145.64</ele>
        <time>2023-06-22T15:19:59.710Z</time>
      </trkpt>
      <trkpt lat="46.55833" lon="0.24665">
        <ele>145.78</ele>
        <time>2023-06-22T15:21:08.953Z</time>
      </trkpt>
      <trkpt lat="46.55833" lon="0.24685">
        <ele>145.91</ele>
        <time>2023-06-22T15:22:18.199Z</time>
      </trkpt>
      <trkpt lat="46.55834" lon="0.24704">
        <ele>145.96</ele>
        <time>2023-06-22T15:23:27.447Z</time>
      </trkpt>
      <trkpt lat="46.55834" lon="0.24717">
        <ele>145.94</ele>
        <time>2023-06-22T15:24:36.696Z</time>
      </trkpt>
      <trkpt lat="46.55834" lon="0.2472">
        <ele>145.92</ele>
        <time>2023-06-22T15:25:45.946Z</time>
      </trkpt>
      <trkpt lat="46.55834" lon="0.24724">
        <ele>145.91</ele>
        <time>2023-06-22T15:26:55.196Z</time>
      </trkpt>
      <trkpt lat="46.55835" lon="0.24737">
        <ele>145.79</ele>
        <time>2023-06-22T15:28:04.447Z</time>
      </trkpt>
      <trkpt lat="46.55835" lon="0.24743">
        <ele>145.71</ele>
        <time>2023-06-22T15:29:13.699Z</time>
      </trkpt>
      <trkpt lat="46.55836" lon="0.24756">
        <ele>145.49</ele>
        <time>2023-06-22T15:30:22.953Z</time>
      </trkpt>
      <trkpt lat="46.55837" lon="0.24769">
        <ele>145.22</ele>
        <time>2023-06-22T15:31:32.208Z</time>
      </trkpt>
      <trkpt lat="46.55838" lon="0.24782">
        <ele>144.9</ele>
        <time>2023-06-22T15:32:41.464Z</time>
      </trkpt>
      <trkpt lat="46.5584" lon="0.24795">
        <ele>144.58</ele>
        <time>2023-06-22T15:33:50.722Z</time>
      </trkpt>
      <trkpt lat="46.55844" lon="0.2482">
        <ele>143.89</ele>
        <time>2023-06-22T15:34:59.983Z</time>
      </trkpt>
      <trkpt lat="46.55846" lon="0.24833">
        <ele>143.51</ele>
        <time>2023-06-22T15:36:09.245Z</time>
      </trkpt>
      <trkpt lat="46.55849" lon="0.24852">
        <ele>142.84</ele>
        <time>2023-06-22T15:37:18.509Z</time>
      </trkpt>
      <trkpt lat="46.55852" lon="0.24864">
        <ele>142.28</ele>
        <time>2023-06-22T15:38:27.775Z</time>
      </trkpt>
      <trkpt lat="46.55854" lon="0.24879">
        <ele>141.49</ele>
        <time>2023-06-22T15:39:37.042Z</time>
      </trkpt>
      <trkpt lat="46.55856" lon="0.24903">
        <ele>140.23</ele>
        <time>2023-06-22T15:40:46.312Z</time>
      </trkpt>
      <trkpt lat="46.55857" lon="0.24909">
        <ele>139.95</ele>
        <time>2023-06-22T15:41:55.583Z</time>
      </trkpt>
      <trkpt lat="46.55857" lon="0.24916">
        <ele>139.71</ele>
        <time>2023-06-22T15:43:04.854Z</time>
      </trkpt>
      <trkpt lat="46.55858" lon="0.24922">
        <ele>139.52</ele>
        <time>2023-06-22T15:44:14.126Z</time>
      </trkpt>
      <trkpt lat="46.55858" lon="0.24929">
        <ele>139.37</ele>
        <time>2023-06-22T15:45:23.399Z</time>
      </trkpt>
      <trkpt lat="46.55859" lon="0.24936">
        <ele>139.27</ele>
        <time>2023-06-22T15:46:32.673Z</time>
      </trkpt>
      <trkpt lat="46.55859" lon="0.24936">
        <ele>139.27</ele>
        <time>2023-06-22T15:47:41.947Z</time>
      </trkpt>
      <trkpt lat="46.55863" lon="0.24938">
        <ele>139.2</ele>
        <time>2023-06-22T15:48:51.221Z</time>
      </trkpt>
      <trkpt lat="46.55867" lon="0.2494">
        <ele>139.17</ele>
        <time>2023-06-22T15:50:00.496Z</time>
      </trkpt>
      <trkpt lat="46.55871" lon="0.24942">
        <ele>139.18</ele>
        <time>2023-06-22T15:51:09.772Z</time>
      </trkpt>
      <trkpt lat="46.55884" lon="0.24948">
        <ele>139.3</ele>
        <time>2023-06-22T15:52:19.050Z</time>
      </trkpt>
      <trkpt lat="46.55888" lon="0.2495">
        <ele>139.32</ele>
        <time>2023-06-22T15:53:28.329Z</time>
      </trkpt>
      <trkpt lat="46.55888" lon="0.2495">
        <ele>139.32</ele>
        <time>2023-06-22T15:54:37.608Z</time>
      </trkpt>
      <trkpt lat="46.55893" lon="0.24951">
        <ele>139.3</ele>
        <time>2023-06-22T15:55:46.887Z</time>
      </trkpt>
      <trkpt lat="46.55897" lon="0.24951">
        <ele>139.24</ele>
        <time>2023-06-22T15:56:56.167Z</time>
      </trkpt>
      <trkpt lat="46.55911" lon="0.24953">
        <ele>138.95</ele>
        <time>2023-06-22T15:58:05.449Z</time>
      </trkpt>
      <trkpt lat="46.55915" lon="0.24954">
        <ele>138.87</ele>
        <time>2023-06-22T15:59:14.732Z</time>
      </trkpt>
      <trkpt lat="46.55924" lon="0.24955">
        <ele>138.75</ele>
        <time>2023-06-22T16:00:24.016Z</time>
      </trkpt>
      <trkpt lat="46.55937" lon="0.24956">
        <ele>138.84</ele>
        <time>2023-06-22T16:01:33.302Z</time>
      </trkpt>
      <trkpt lat="46.55941" lon="0.24957">
        <ele>138.91</ele>
        <time>2023-06-22T16:02:42.589Z</time>
      </trkpt>
      <trkpt lat="46.55946" lon="0.24958">
        <ele>139</ele>
        <time>2023-06-22T16:03:51.877Z</time>
      </trkpt>
      <trkpt lat="46.5595" lon="0.24958">
        <ele>139.13</ele>
        <time>2023-06-22T16:05:01.166Z</time>
      </trkpt>
      <trkpt lat="46.55954" lon="0.24959">
        <ele>139.3</ele>
        <time>2023-06-22T16:06:10.455Z</time>
      </trkpt>
      <trkpt lat="46.55959" lon="0.24959">
        <ele>139.51</ele>
        <time>2023-06-22T16:07:19.745Z</time>
      </trkpt>
      <trkpt lat="46.55963" lon="0.2496">
        <ele>139.75</ele>
        <time>2023-06-22T16:08:29.036Z</time>
      </trkpt>
      <trkpt lat="46.55967" lon="0.2496">
        <ele>140.03</ele>
        <time>2023-06-22T16:09:38.327Z</time>
      </trkpt>
      <trkpt lat="46.55985" lon="0.24963">
        <ele>141.25</ele>
        <time>2023-06-22T16:10:47.621Z</time>
      </trkpt>
      <trkpt lat="46.55994" lon="0.24964">
        <ele>141.78</ele>
        <time>2023-06-22T16:11:56.917Z</time>
      </trkpt>
      <trkpt lat="46.56002" lon="0.24965">
        <ele>142.22</ele>
        <time>2023-06-22T16:13:06.214Z</time>
      </trkpt>
      <trkpt lat="46.56011" lon="0.24966">
        <ele>142.57</ele>
        <time>2023-06-22T16:14:15.512Z</time>
      </trkpt>
      <trkpt lat="46.5602" lon="0.24967">
        <ele>142.86</ele>
        <time>2023-06-22T16:15:24.812Z</time>
      </trkpt>
      <trkpt lat="46.56033" lon="0.24969">
        <ele>143.23</ele>
        <time>2023-06-22T16:16:34.114Z</time>
      </trkpt>
      <trkpt lat="46.56046" lon="0.24971">
        <ele>143.52</ele>
        <time>2023-06-22T16:17:43.418Z</time>
      </trkpt>
      <trkpt lat="46.56063" lon="0.24973">
        <ele>143.84</ele>
        <time>2023-06-22T16:18:52.725Z</time>
      </trkpt>
      <trkpt lat="46.56072" lon="0.24974">
        <ele>143.87</ele>
        <time>2023-06-22T16:20:02.033Z</time>
      </trkpt>
      <trkpt lat="46.56081" lon="0.24975">
        <ele>143.85</ele>
        <time>2023-06-22T16:21:11.343Z</time>
      </trkpt>
      <trkpt lat="46.5609" lon="0.24976">
        <ele>143.77</ele>
        <time>2023-06-22T16:22:20.654Z</time>
      </trkpt>
      <trkpt lat="46.56121" lon="0.2498">
        <ele>143.36</ele>
        <time>2023-06-22T16:23:29.970Z</time>
      </trkpt>
      <trkpt lat="46.56153" lon="0.24985">
        <ele>143.02</ele>
        <time>2023-06-22T16:24:39.291Z</time>
      </trkpt>
      <trkpt lat="46.56171" lon="0.24987">
        <ele>142.76</ele>
        <time>2023-06-22T16:25:48.615Z</time>
      </trkpt>
      <trkpt lat="46.56171" lon="0.24987">
        <ele>142.76</ele>
        <time>2023-06-22T16:26:57.939Z</time>
      </trkpt>
      <trkpt lat="46.56183" lon="0.24992">
        <ele>142.52</ele>
        <time>2023-06-22T16:28:07.265Z</time>
      </trkpt>
      <trkpt lat="46.56183" lon="0.24993">
        <ele>142.52</ele>
        <time>2023-06-22T16:29:16.591Z</time>
      </trkpt>
      <trkpt lat="46.56184" lon="0.25012">
        <ele>142.25</ele>
        <time>2023-06-22T16:30:25.919Z</time>
      </trkpt>
      <trkpt lat="46.56185" lon="0.25026">
        <ele>142.05</ele>
        <time>2023-06-22T16:31:35.249Z</time>
      </trkpt>
      <trkpt lat="46.56189" lon="0.2511">
        <ele>140.64</ele>
        <time>2023-06-22T16:32:44.588Z</time>
      </trkpt>
      <trkpt lat="46.5619" lon="0.25123">
        <ele>140.45</ele>
        <time>2023-06-22T16:33:53.929Z</time>
      </trkpt>
      <trkpt lat="46.5619" lon="0.25136">
        <ele>140.31</ele>
        <time>2023-06-22T16:35:03.271Z</time>
      </trkpt>
      <trkpt lat="46.56191" lon="0.25156">
        <ele>140.17</ele>
        <time>2023-06-22T16:36:12.615Z</time>
      </trkpt>
      <trkpt lat="46.56194" lon="0.25208">
        <ele>139.86</ele>
        <time>2023-06-22T16:37:21.965Z</time>
      </trkpt>
      <trkpt lat="46.56195" lon="0.25221">
        <ele>139.81</ele>
        <time>2023-06-22T16:38:31.316Z</time>
      </trkpt>
      <trkpt lat="46.56196" lon="0.25241">
        <ele>139.79</ele>
        <time>2023-06-22T16:39:40.670Z</time>
      </trkpt>
      <trkpt lat="46.56197" lon="0.25273">
        <ele>140.13</ele>
        <time>2023-06-22T16:40:50.027Z</time>
      </trkpt>
      <trkpt lat="46.56198" lon="0.25293">
        <ele>140.41</ele>
        <time>2023-06-22T16:41:59.386Z</time>
      </trkpt>
      <trkpt lat="46.56199" lon="0.25312">
        <ele>140.77</ele>
        <time>2023-06-22T16:43:08.748Z</time>
      </trkpt>
      <trkpt lat="46.56201" lon="0.25338">
        <ele>141.32</ele>
        <time>2023-06-22T16:44:18.112Z</time>
      </trkpt>
      <trkpt lat="46.56201" lon="0.25351">
        <ele>141.58</ele>
        <time>2023-06-22T16:45:27.478Z</time>
      </trkpt>
      <trkpt lat="46.56202" lon="0.25371">
        <ele>141.94</ele>
        <time>2023-06-22T16:46:36.846Z</time>
      </trkpt>
      <trkpt lat="46.56203" lon="0.25382">
        <ele>142.11</ele>
        <time>2023-06-22T16:47:46.215Z</time>
      </trkpt>
      <trkpt lat="46.56204" lon="0.25383">
        <ele>142.14</ele>
        <time>2023-06-22T16:48:55.585Z</time>
      </trkpt>
      <trkpt lat="46.56208" lon="0.25385">
        <ele>142.23</ele>
        <time>2023-06-22T16:50:04.955Z</time>
      </trkpt>
      <trkpt lat="46.56217" lon="0.2539">
        <ele>142.31</ele>
        <time>2023-06-22T16:51:14.327Z</time>
      </trkpt>
      <trkpt lat="46.56225" lon="0.25395">
        <ele>142.25</ele>
        <time>2023-06-22T16:52:23.700Z</time>
      </trkpt>
      <trkpt lat="46.56233" lon="0.25399">
        <ele>142.07</ele>
        <time>2023-06-22T16:53:33.075Z</time>
      </trkpt>
      <trkpt lat="46.56242" lon="0.25404">
        <ele>141.84</ele>
        <time>2023-06-22T16:54:42.451Z</time>
      </trkpt>
      <trkpt lat="46.56263" lon="0.25416">
        <ele>141.2</ele>
        <time>2023-06-22T16:55:51.831Z</time>
      </trkpt>
      <trkpt lat="46.56268" lon="0.25419">
        <ele>141.05</ele>
        <time>2023-06-22T16:57:01.211Z</time>
      </trkpt>
      <trkpt lat="46.56271" lon="0.25421">
        <ele>140.97</ele>
        <time>2023-06-22T16:58:10.592Z</time>
      </trkpt>
      <trkpt lat="46.56279" lon="0.25426">
        <ele>140.79</ele>
        <time>2023-06-22T16:59:19.974Z</time>
      </trkpt>
      <trkpt lat="46.56292" lon="0.25434">
        <ele>140.58</ele>
        <time>2023-06-22T17:00:29.359Z</time>
      </trkpt>
      <trkpt lat="46.56321" lon="0.25452">
        <ele>140.24</ele>
        <time>2023-06-22T17:01:38.749Z</time>
      </trkpt>
      <trkpt lat="46.56333" lon="0.25459">
        <ele>140.04</ele>
        <time>2023-06-22T17:02:48.141Z</time>
      </trkpt>
      <trkpt lat="46.56337" lon="0.25462">
        <ele>139.95</ele>
        <time>2023-06-22T17:03:57.534Z</time>
      </trkpt>
      <trkpt lat="46.56345" lon="0.25468">
        <ele>139.78</ele>
        <time>2023-06-22T17:05:06.928Z</time>
      </trkpt>
      <trkpt lat="46.56369" lon="0.25485">
        <ele>139.16</ele>
        <time>2023-06-22T17:06:16.326Z</time>
      </trkpt>
      <trkpt lat="46.56388" lon="0.25498">
        <ele>138.74</ele>
        <time>2023-06-22T17:07:25.728Z</time>
      </trkpt>
      <trkpt lat="46.56389" lon="0.25499">
        <ele>138.71</ele>
        <time>2023-06-22T17:08:35.130Z</time>
      </trkpt>
      <trkpt lat="46.56401" lon="0.2551">
        <ele>138.46</ele>
        <time>2023-06-22T17:09:44.534Z</time>
      </trkpt>
      <trkpt lat="46.56439" lon="0.25546">
        <ele>137.65</ele>
        <time>2023-06-22T17:10:53.945Z</time>
      </trkpt>
      <trkpt lat="46.56442" lon="0.25549">
        <ele>137.59</ele>
        <time>2023-06-22T17:12:03.357Z</time>
      </trkpt>
      <trkpt lat="46.56453" lon="0.25561">
        <ele>137.4</ele>
        <time>2023-06-22T17:13:12.771Z</time>
      </trkpt>
      <trkpt lat="46.5647" lon="0.25581">
        <ele>137.12</ele>
        <time>2023-06-22T17:14:22.189Z</time>
      </trkpt>
      <trkpt lat="46.56476" lon="0.25592">
        <ele>137.01</ele>
        <time>2023-06-22T17:15:31.608Z</time>
      </trkpt>
      <trkpt lat="46.56479" lon="0.25597">
        <ele>136.97</ele>
        <time>2023-06-22T17:16:41.028Z</time>
      </trkpt>
      <trkpt lat="46.56484" lon="0.25607">
        <ele>136.95</ele>
        <time>2023-06-22T17:17:50.449Z</time>
      </trkpt>
      <trkpt lat="46.56487" lon="0.25612">
        <ele>136.96</ele>
        <time>2023-06-22T17:18:59.871Z</time>
      </trkpt>
      <trkpt lat="46.56493" lon="0.25622">
        <ele>137.02</ele>
        <time>2023-06-22T17:20:09.294Z</time>
      </trkpt>
      <trkpt lat="46.56507" lon="0.25648">
        <ele>136.96</ele>
        <time>2023-06-22T17:21:18.721Z</time>
      </trkpt>
      <trkpt lat="46.56515" lon="0.25663">
        <ele>136.9</ele>
        <time>2023-06-22T17:22:28.150Z</time>
      </trkpt>
      <trkpt lat="46.56524" lon="0.25678">
        <ele>136.79</ele>
        <time>2023-06-22T17:23:37.581Z</time>
      </trkpt>
      <trkpt lat="46.56531" lon="0.25692">
        <ele>136.66</ele>
        <time>2023-06-22T17:24:47.014Z</time>
      </trkpt>
      <trkpt lat="46.56537" lon="0.25704">
        <ele>136.55</ele>
        <time>2023-06-22T17:25:56.449Z</time>
      </trkpt>
      <trkpt lat="46.56542" lon="0.25715">
        <ele>136.47</ele>
        <time>2023-06-22T17:27:05.885Z</time>
      </trkpt>
      <trkpt lat="46.5655" lon="0.25731">
        <ele>136.44</ele>
        <time>2023-06-22T17:28:15.324Z</time>
      </trkpt>
      <trkpt lat="46.56558" lon="0.25747">
        <ele>136.46</ele>
        <time>2023-06-22T17:29:24.765Z</time>
      </trkpt>
      <trkpt lat="46.56566" lon="0.25763">
        <ele>136.58</ele>
        <time>2023-06-22T17:30:34.208Z</time>
      </trkpt>
      <trkpt lat="46.56579" lon="0.25789">
        <ele>136.86</ele>
        <time>2023-06-22T17:31:43.654Z</time>
      </trkpt>
      <trkpt lat="46.56586" lon="0.25803">
        <ele>137.06</ele>
        <time>2023-06-22T17:32:53.102Z</time>
      </trkpt>
      <trkpt lat="46.56587" lon="0.25805">
        <ele>137.1</ele>
        <time>2023-06-22T17:34:02.551Z</time>
      </trkpt>
      <trkpt lat="46.56598" lon="0.25817">
        <ele>137.4</ele>
        <time>2023-06-22T17:35:12.002Z</time>
      </trkpt>
      <trkpt lat="46.56605" lon="0.25825">
        <ele>137.57</ele>
        <time>2023-06-22T17:36:21.454Z</time>
      </trkpt>
      <trkpt lat="46.56615" lon="0.25838">
        <ele>137.76</ele>
        <time>2023-06-22T17:37:30.908Z</time>
      </trkpt>
      <trkpt lat="46.56622" lon="0.25846">
        <ele>137.85</ele>
        <time>2023-06-22T17:38:40.364Z</time>
      </trkpt>
      <trkpt lat="46.56633" lon="0.25858">
        <ele>137.95</ele>
        <time>2023-06-22T17:39:49.822Z</time>
      </trkpt>
      <trkpt lat="46.56634" lon="0.2586">
        <ele>137.95</ele>
        <time>2023-06-22T17:40:59.280Z</time>
      </trkpt>
      <trkpt lat="46.56644" lon="0.25878">
        <ele>138.04</ele>
        <time>2023-06-22T17:42:08.741Z</time>
      </trkpt>
      <trkpt lat="46.56658" lon="0.25904">
        <ele>138.01</ele>
        <time>2023-06-22T17:43:18.205Z</time>
      </trkpt>
      <trkpt lat="46.56662" lon="0.25911">
        <ele>138.02</ele>
        <time>2023-06-22T17:44:27.670Z</time>
      </trkpt>
      <trkpt lat="46.56666" lon="0.2592">
        <ele>138.04</ele>
        <time>2023-06-22T17:45:37.137Z</time>
      </trkpt>
      <trkpt lat="46.56677" lon="0.25947">
        <ele>137.81</ele>
        <time>2023-06-22T17:46:46.607Z</time>
      </trkpt>
      <trkpt lat="46.56682" lon="0.25958">
        <ele>137.69</ele>
        <time>2023-06-22T17:47:56.079Z</time>
      </trkpt>
      <trkpt lat="46.56702" lon="0.26005">
        <ele>137.01</ele>
        <time>2023-06-22T17:49:05.557Z</time>
      </trkpt>
      <trkpt lat="46.56716" lon="0.26031">
        <ele>136.6</ele>
        <time>2023-06-22T17:50:15.038Z</time>
      </trkpt>
      <trkpt lat="46.56718" lon="0.26033">
        <ele>136.57</ele>
        <time>2023-06-22T17:51:24.520Z</time>
      </trkpt>
      <trkpt lat="46.5675" lon="0.26068">
        <ele>135.91</ele>
        <time>2023-06-22T17:52:34.008Z</time>
      </trkpt>
      <trkpt lat="46.56775" lon="0.26096">
        <ele>135.31</ele>
        <time>2023-06-22T17:53:43.501Z</time>
      </trkpt>
      <trkpt lat="46.56782" lon="0.26104">
        <ele>135.17</ele>
        <time>2023-06-22T17:54:52.996Z</time>
      </trkpt>
      <trkpt lat="46.56823" lon="0.26149">
        <ele>134.52</ele>
        <time>2023-06-22T17:56:02.499Z</time>
      </trkpt>
      <trkpt lat="46.56824" lon="0.26151">
        <ele>134.5</ele>
        <time>2023-06-22T17:57:12.002Z</time>
      </trkpt>
      <trkpt lat="46.56841" lon="0.26172">
        <ele>134.26</ele>
        <time>2023-06-22T17:58:21.509Z</time>
      </trkpt>
      <trkpt lat="46.56858" lon="0.26194">
        <ele>134.09</ele>
        <time>2023-06-22T17:59:31.019Z</time>
      </trkpt>
      <trkpt lat="46.56868" lon="0.26206">
        <ele>133.95</ele>
        <time>2023-06-22T18:00:40.531Z</time>
      </trkpt>
      <trkpt lat="46.56882" lon="0.26223">
        <ele>133.71</ele>
        <time>2023-06-22T18:01:50.046Z</time>
      </trkpt>
      <trkpt lat="46.56909" lon="0.26257">
        <ele>133.29</ele>
        <time>2023-06-22T18:02:59.567Z</time>
      </trkpt>
      <trkpt lat="46.56922" lon="0.26274">
        <ele>133.05</ele>
        <time>2023-06-22T18:04:09.091Z</time>
      </trkpt>
      <trkpt lat="46.56933" lon="0.26286">
        <ele>132.86</ele>
        <time>2023-06-22T18:05:18.617Z</time>
      </trkpt>
      <trkpt lat="46.56947" lon="0.26302">
        <ele>132.55</ele>
        <time>2023-06-22T18:06:28.146Z</time>
      </trkpt>
      <trkpt lat="46.56955" lon="0.26311">
        <ele>132.48</ele>
        <time>2023-06-22T18:07:37.677Z</time>
      </trkpt>
      <trkpt lat="46.56955" lon="0.26311">
        <ele>132.48</ele>
        <time>2023-06-22T18:08:47.208Z</time>
      </trkpt>
      <trkpt lat="46.56984" lon="0.26329">
        <ele>131.92</ele>
        <time>2023-06-22T18:09:56.744Z</time>
      </trkpt>
      <trkpt lat="46.56988" lon="0.26331">
        <ele>131.85</ele>
        <time>2023-06-22T18:11:06.280Z</time>
      </trkpt>
      <trkpt lat="46.57037" lon="0.26346">
        <ele>131.08</ele>
        <time>2023-06-22T18:12:15.824Z</time>
      </trkpt>
      <trkpt lat="46.57046" lon="0.26348">
        <ele>130.92</ele>
        <time>2023-06-22T18:13:25.370Z</time>
      </trkpt>
      <trkpt lat="46.57067" lon="0.26355">
        <ele>130.35</ele>
        <time>2023-06-22T18:14:34.919Z</time>
      </trkpt>
      <trkpt lat="46.57076" lon="0.26357">
        <ele>130.1</ele>
        <time>2023-06-22T18:15:44.470Z</time>
      </trkpt>
      <trkpt lat="46.57081" lon="0.26359">
        <ele>129.96</ele>
        <time>2023-06-22T18:16:54.021Z</time>
      </trkpt>
      <trkpt lat="46.57094" lon="0.26363">
        <ele>129.46</ele>
        <time>2023-06-22T18:18:03.575Z</time>
      </trkpt>
      <trkpt lat="46.57098" lon="0.26364">
        <ele>129.25</ele>
        <time>2023-06-22T18:19:13.129Z</time>
      </trkpt>
      <trkpt lat="46.57102" lon="0.26365">
        <ele>129.06</ele>
        <time>2023-06-22T18:20:22.684Z</time>
      </trkpt>
      <trkpt lat="46.57107" lon="0.26366">
        <ele>128.83</ele>
        <time>2023-06-22T18:21:32.240Z</time>
      </trkpt>
      <trkpt lat="46.57111" lon="0.26367">
        <ele>128.58</ele>
        <time>2023-06-22T18:22:41.796Z</time>
      </trkpt>
      <trkpt lat="46.5712" lon="0.26369">
        <ele>128.01</ele>
        <time>2023-06-22T18:23:51.354Z</time>
      </trkpt>
      <trkpt lat="46.57129" lon="0.26371">
        <ele>127.36</ele>
        <time>2023-06-22T18:25:00.913Z</time>
      </trkpt>
      <trkpt lat="46.57138" lon="0.26373">
        <ele>126.61</ele>
        <time>2023-06-22T18:26:10.474Z</time>
      </trkpt>
      <trkpt lat="46.57142" lon="0.26374">
        <ele>126.21</ele>
        <time>2023-06-22T18:27:20.035Z</time>
      </trkpt>
      <trkpt lat="46.57155" lon="0.26376">
        <ele>124.98</ele>
        <time>2023-06-22T18:28:29.599Z</time>
      </trkpt>
      <trkpt lat="46.57164" lon="0.26377">
        <ele>124.27</ele>
        <time>2023-06-22T18:29:39.164Z</time>
      </trkpt>
      <trkpt lat="46.57169" lon="0.26378">
        <ele>123.98</ele>
        <time>2023-06-22T18:30:48.730Z</time>
      </trkpt>
      <trkpt lat="46.57173" lon="0.26378">
        <ele>123.73</ele>
        <time>2023-06-22T18:31:58.296Z</time>
      </trkpt>
      <trkpt lat="46.57178" lon="0.26379">
        <ele>123.51</ele>
        <time>2023-06-22T18:33:07.863Z</time>
      </trkpt>
      <trkpt lat="46.57186" lon="0.2638">
        <ele>123.15</ele>
        <time>2023-06-22T18:34:17.432Z</time>
      </trkpt>
      <trkpt lat="46.57195" lon="0.26381">
        <ele>123.12</ele>
        <time>2023-06-22T18:35:27.002Z</time>
      </trkpt>
      <trkpt lat="46.572" lon="0.26382">
        <ele>123.14</ele>
        <time>2023-06-22T18:36:36.573Z</time>
      </trkpt>
      <trkpt lat="46.572" lon="0.26382">
        <ele>123.14</ele>
        <time>2023-06-22T18:37:46.144Z</time>
      </trkpt>
      <trkpt lat="46.57204" lon="0.26382">
        <ele>123.19</ele>
        <time>2023-06-22T18:38:55.715Z</time>
      </trkpt>
      <trkpt lat="46.57213" lon="0.26381">
        <ele>123.39</ele>
        <time>2023-06-22T18:40:05.288Z</time>
      </trkpt>
      <trkpt lat="46.57217" lon="0.26381">
        <ele>123.54</ele>
        <time>2023-06-22T18:41:14.862Z</time>
      </trkpt>
      <trkpt lat="46.57222" lon="0.26381">
        <ele>123.73</ele>
        <time>2023-06-22T18:42:24.436Z</time>
      </trkpt>
      <trkpt lat="46.57226" lon="0.2638">
        <ele>123.94</ele>
        <time>2023-06-22T18:43:34.011Z</time>
      </trkpt>
      <trkpt lat="46.57231" lon="0.2638">
        <ele>124.18</ele>
        <time>2023-06-22T18:44:43.587Z</time>
      </trkpt>
      <trkpt lat="46.57235" lon="0.2638">
        <ele>124.45</ele>
        <time>2023-06-22T18:45:53.163Z</time>
      </trkpt>
      <trkpt lat="46.57246" lon="0.26379">
        <ele>125.16</ele>
        <time>2023-06-22T18:47:02.741Z</time>
      </trkpt>
      <trkpt lat="46.57253" lon="0.26381">
        <ele>125.64</ele>
        <time>2023-06-22T18:48:12.320Z</time>
      </trkpt>
      <trkpt lat="46.57262" lon="0.26384">
        <ele>126.19</ele>
        <time>2023-06-22T18:49:21.901Z</time>
      </trkpt>
      <trkpt lat="46.57262" lon="0.26384">
        <ele>126.19</ele>
        <time>2023-06-22T18:50:31.482Z</time>
      </trkpt>
      <trkpt lat="46.5727" lon="0.26388">
        <ele>126.69</ele>
        <time>2023-06-22T18:51:41.064Z</time>
      </trkpt>
      <trkpt lat="46.57287" lon="0.26397">
        <ele>127.64</ele>
        <time>2023-06-22T18:52:50.649Z</time>
      </trkpt>
      <trkpt lat="46.57291" lon="0.26399">
        <ele>127.9</ele>
        <time>2023-06-22T18:54:00.235Z</time>
      </trkpt>
      <trkpt lat="46.57304" lon="0.26413">
        <ele>128.86</ele>
        <time>2023-06-22T18:55:09.823Z</time>
      </trkpt>
      <trkpt lat="46.57312" lon="0.26431">
        <ele>129.76</ele>
        <time>2023-06-22T18:56:19.414Z</time>
      </trkpt>
      <trkpt lat="46.57313" lon="0.26433">
        <ele>129.84</ele>
        <time>2023-06-22T18:57:29.005Z</time>
      </trkpt>
      <trkpt lat="46.57314" lon="0.26437">
        <ele>130.01</ele>
        <time>2023-06-22T18:58:38.596Z</time>
      </trkpt>
      <trkpt lat="46.57317" lon="0.26449">
        <ele>130.46</ele>
        <time>2023-06-22T18:59:48.189Z</time>
      </trkpt>
      <trkpt lat="46.57319" lon="0.26456">
        <ele>130.68</ele>
        <time>2023-06-22T19:00:57.783Z</time>
      </trkpt>
      <trkpt lat="46.57324" lon="0.26473">
        <ele>131.28</ele>
        <time>2023-06-22T19:02:07.379Z</time>
      </trkpt>
      <trkpt lat="46.57327" lon="0.26485">
        <ele>131.65</ele>
        <time>2023-06-22T19:03:16.976Z</time>
      </trkpt>
      <trkpt lat="46.5733" lon="0.26497">
        <ele>131.98</ele>
        <time>2023-06-22T19:04:26.574Z</time>
      </trkpt>
      <trkpt lat="46.57335" lon="0.26516">
        <ele>132.41</ele>
        <time>2023-06-22T19:05:36.175Z</time>
      </trkpt>
      <trkpt lat="46.57339" lon="0.26528">
        <ele>132.64</ele>
        <time>2023-06-22T19:06:45.777Z</time>
      </trkpt>
      <trkpt lat="46.57343" lon="0.26544">
        <ele>132.91</ele>
        <time>2023-06-22T19:07:55.381Z</time>
      </trkpt>
      <trkpt lat="46.57347" lon="0.26571">
        <ele>133.36</ele>
        <time>2023-06-22T19:09:04.988Z</time>
      </trkpt>
      <trkpt lat="46.57348" lon="0.26574">
        <ele>133.4</ele>
        <time>2023-06-22T19:10:14.595Z</time>
      </trkpt>
      <trkpt lat="46.57348" lon="0.26584">
        <ele>133.52</ele>
        <time>2023-06-22T19:11:24.203Z</time>
      </trkpt>
      <trkpt lat="46.57349" lon="0.2659">
        <ele>133.58</ele>
        <time>2023-06-22T19:12:33.812Z</time>
      </trkpt>
      <trkpt lat="46.57349" lon="0.26603">
        <ele>133.66</ele>
        <time>2023-06-22T19:13:43.423Z</time>
      </trkpt>
      <trkpt lat="46.5735" lon="0.2661">
        <ele>133.66</ele>
        <time>2023-06-22T19:14:53.034Z</time>
      </trkpt>
      <trkpt lat="46.5735" lon="0.26622">
        <ele>133.62</ele>
        <time>2023-06-22T19:16:02.647Z</time>
      </trkpt>
      <trkpt lat="46.57352" lon="0.26661">
        <ele>133.42</ele>
        <time>2023-06-22T19:17:12.264Z</time>
      </trkpt>
      <trkpt lat="46.57353" lon="0.26681">
        <ele>133.23</ele>
        <time>2023-06-22T19:18:21.883Z</time>
      </trkpt>
      <trkpt lat="46.57355" lon="0.26723">
        <ele>132.71</ele>
        <time>2023-06-22T19:19:31.507Z</time>
      </trkpt>
      <trkpt lat="46.57355" lon="0.26726">
        <ele>132.68</ele>
        <time>2023-06-22T19:20:41.131Z</time>
      </trkpt>
      <trkpt lat="46.57354" lon="0.26739">
        <ele>132.55</ele>
        <time>2023-06-22T19:21:50.757Z</time>
      </trkpt>
      <trkpt lat="46.57354" lon="0.26754">
        <ele>132.43</ele>
        <time>2023-06-22T19:23:00.384Z</time>
      </trkpt>
      <trkpt lat="46.57349" lon="0.26763">
        <ele>132.35</ele>
        <time>2023-06-22T19:24:10.013Z</time>
      </trkpt>
      <trkpt lat="46.57351" lon="0.26776">
        <ele>132.26</ele>
        <time>2023-06-22T19:25:19.643Z</time>
      </trkpt>
      <trkpt lat="46.57351" lon="0.26776">
        <ele>132.26</ele>
        <time>2023-06-22T19:26:29.273Z</time>
      </trkpt>
      <trkpt lat="46.57351" lon="0.26788">
        <ele>132.13</ele>
        <time>2023-06-22T19:27:38.904Z</time>
      </trkpt>
      <trkpt lat="46.57352" lon="0.26807">
        <ele>131.88</ele>
        <time>2023-06-22T19:28:48.538Z</time>
      </trkpt>
      <trkpt lat="46.57353" lon="0.26831">
        <ele>131.6</ele>
        <time>2023-06-22T19:29:58.174Z</time>
      </trkpt>
      <trkpt lat="46.57354" lon="0.26886">
        <ele>130.83</ele>
        <time>2023-06-22T19:31:07.816Z</time>
      </trkpt>
      <trkpt lat="46.57355" lon="0.26925">
        <ele>130.41</ele>
        <time>2023-06-22T19:32:17.463Z</time>
      </trkpt>
      <trkpt lat="46.57357" lon="0.2697">
        <ele>130.13</ele>
        <time>2023-06-22T19:33:27.114Z</time>
      </trkpt>
      <trkpt lat="46.57357" lon="0.26979">
        <ele>130.15</ele>
        <time>2023-06-22T19:34:36.767Z</time>
      </trkpt>
      <trkpt lat="46.57356" lon="0.26996">
        <ele>130.19</ele>
        <time>2023-06-22T19:35:46.421Z</time>
      </trkpt>
      <trkpt lat="46.57355" lon="0.27015">
        <ele>130.27</ele>
        <time>2023-06-22T19:36:56.078Z</time>
      </trkpt>
      <trkpt lat="46.57354" lon="0.27024">
        <ele>130.32</ele>
        <time>2023-06-22T19:38:05.735Z</time>
      </trkpt>
      <trkpt lat="46.57361" lon="0.27022">
        <ele>130.39</ele>
        <time>2023-06-22T19:39:15.394Z</time>
      </trkpt>
      <trkpt lat="46.57367" lon="0.27021">
        <ele>130.45</ele>
        <time>2023-06-22T19:40:25.054Z</time>
      </trkpt>
      <trkpt lat="46.57392" lon="0.27022">
        <ele>130.74</ele>
        <time>2023-06-22T19:41:34.718Z</time>
      </trkpt>
      <trkpt lat="46.57401" lon="0.27022">
        <ele>130.79</ele>
        <time>2023-06-22T19:42:44.383Z</time>
      </trkpt>
      <trkpt lat="46.57405" lon="0.27022">
        <ele>130.8</ele>
        <time>2023-06-22T19:43:54.049Z</time>
      </trkpt>
      <trkpt lat="46.57415" lon="0.27021">
        <ele>130.84</ele>
        <time>2023-06-22T19:45:03.716Z</time>
      </trkpt>
      <trkpt lat="46.57433" lon="0.2702">
        <ele>130.81</ele>
        <time>2023-06-22T19:46:13.386Z</time>
      </trkpt>
      <trkpt lat="46.5744" lon="0.27019">
        <ele>130.75</ele>
        <time>2023-06-22T19:47:23.057Z</time>
      </trkpt>
      <trkpt lat="46.57455" lon="0.27023">
        <ele>130.65</ele>
        <time>2023-06-22T19:48:32.731Z</time>
      </trkpt>
      <trkpt lat="46.57463" lon="0.27026">
        <ele>130.52</ele>
        <time>2023-06-22T19:49:42.406Z</time>
      </trkpt>
      <trkpt lat="46.57463" lon="0.27026">
        <ele>130.52</ele>
        <time>2023-06-22T19:50:52.081Z</time>
      </trkpt>
      <trkpt lat="46.57479" lon="0.27039">
        <ele>130.19</ele>
        <time>2023-06-22T19:52:01.759Z</time>
      </trkpt>
      <trkpt lat="46.57495" lon="0.27053">
        <ele>130.08</ele>
        <time>2023-06-22T19:53:11.440Z</time>
      </trkpt>
      <trkpt lat="46.57509" lon="0.27067">
        <ele>129.98</ele>
        <time>2023-06-22T19:54:21.124Z</time>
      </trkpt>
      <trkpt lat="46.5752" lon="0.27078">
        <ele>129.92</ele>
        <time>2023-06-22T19:55:30.810Z</time>
      </trkpt>
      <trkpt lat="46.57521" lon="0.27079">
        <ele>129.92</ele>
        <time>2023-06-22T19:56:40.496Z</time>
      </trkpt>
      <trkpt lat="46.57527" lon="0.27087">
        <ele>129.92</ele>
        <time>2023-06-22T19:57:50.183Z</time>
      </trkpt>
      <trkpt lat="46.57544" lon="0.27109">
        <ele>129.99</ele>
        <time>2023-06-22T19:58:59.874Z</time>
      </trkpt>
      <trkpt lat="46.57556" lon="0.27125">
        <ele>130.09</ele>
        <time>2023-06-22T20:00:09.568Z</time>
      </trkpt>
      <trkpt lat="46.57561" lon="0.27129">
        <ele>130.13</ele>
        <time>2023-06-22T20:01:19.262Z</time>
      </trkpt>
      <trkpt lat="46.57587" lon="0.27153">
        <ele>130.35</ele>
        <time>2023-06-22T20:02:28.961Z</time>
      </trkpt>
      <trkpt lat="46.57599" lon="0.27163">
        <ele>130.39</ele>
        <time>2023-06-22T20:03:38.663Z</time>
      </trkpt>
      <trkpt lat="46.5761" lon="0.27174">
        <ele>130.39</ele>
        <time>2023-06-22T20:04:48.367Z</time>
      </trkpt>
      <trkpt lat="46.57648" lon="0.27208">
        <ele>130.31</ele>
        <time>2023-06-22T20:05:58.078Z</time>
      </trkpt>
      <trkpt lat="46.57656" lon="0.27215">
        <ele>130.33</ele>
        <time>2023-06-22T20:07:07.790Z</time>
      </trkpt>
      <trkpt lat="46.57666" lon="0.27224">
        <ele>130.4</ele>
        <time>2023-06-22T20:08:17.504Z</time>
      </trkpt>
      <trkpt lat="46.57675" lon="0.27229">
        <ele>130.46</ele>
        <time>2023-06-22T20:09:27.220Z</time>
      </trkpt>
      <trkpt lat="46.57684" lon="0.27234">
        <ele>130.49</ele>
        <time>2023-06-22T20:10:36.937Z</time>
      </trkpt>
      <trkpt lat="46.57692" lon="0.27238">
        <ele>130.44</ele>
        <time>2023-06-22T20:11:46.656Z</time>
      </trkpt>
      <trkpt lat="46.57705" lon="0.27243">
        <ele>130.38</ele>
        <time>2023-06-22T20:12:56.377Z</time>
      </trkpt>
      <trkpt lat="46.57726" lon="0.27253">
        <ele>130.33</ele>
        <time>2023-06-22T20:14:06.102Z</time>
      </trkpt>
      <trkpt lat="46.57732" lon="0.27255">
        <ele>130.29</ele>
        <time>2023-06-22T20:15:15.827Z</time>
      </trkpt>
      <trkpt lat="46.57734" lon="0.27257">
        <ele>130.27</ele>
        <time>2023-06-22T20:16:25.553Z</time>
      </trkpt>
      <trkpt lat="46.57737" lon="0.2726">
        <ele>130.19</ele>
        <time>2023-06-22T20:17:35.279Z</time>
      </trkpt>
      <trkpt lat="46.57741" lon="0.27267">
        <ele>130.05</ele>
        <time>2023-06-22T20:18:45.006Z</time>
      </trkpt>
      <trkpt lat="46.57747" lon="0.27297">
        <ele>129.55</ele>
        <time>2023-06-22T20:19:54.737Z</time>
      </trkpt>
      <trkpt lat="46.57752" lon="0.27323">
        <ele>129.14</ele>
        <time>2023-06-22T20:21:04.471Z</time>
      </trkpt>
      <trkpt lat="46.57752" lon="0.27328">
        <ele>129.07</ele>
        <time>2023-06-22T20:22:14.205Z</time>
      </trkpt>
      <trkpt lat="46.5775" lon="0.27341">
        <ele>128.85</ele>
        <time>2023-06-22T20:23:23.941Z</time>
      </trkpt>
      <trkpt lat="46.5775" lon="0.27346">
        <ele>128.73</ele>
        <time>2023-06-22T20:24:33.677Z</time>
      </trkpt>
      <trkpt lat="46.57755" lon="0.27351">
        <ele>128.55</ele>
        <time>2023-06-22T20:25:43.414Z</time>
      </trkpt>
      <trkpt lat="46.57756" lon="0.27356">
        <ele>128.45</ele>
        <time>2023-06-22T20:26:53.152Z</time>
      </trkpt>
      <trkpt lat="46.57756" lon="0.27359">
        <ele>128.37</ele>
        <time>2023-06-22T20:28:02.890Z</time>
      </trkpt>
      <trkpt lat="46.57752" lon="0.27366">
        <ele>128.16</ele>
        <time>2023-06-22T20:29:12.629Z</time>
      </trkpt>
      <trkpt lat="46.5775" lon="0.27369">
        <ele>128.06</ele>
        <time>2023-06-22T20:30:22.369Z</time>
      </trkpt>
      <trkpt lat="46.57748" lon="0.2737">
        <ele>127.98</ele>
        <time>2023-06-22T20:31:32.109Z</time>
      </trkpt>
      <trkpt lat="46.57746" lon="0.27375">
        <ele>127.83</ele>
        <time>2023-06-22T20:32:41.850Z</time>
      </trkpt>
      <trkpt lat="46.57741" lon="0.27386">
        <ele>127.47</ele>
        <time>2023-06-22T20:33:51.592Z</time>
      </trkpt>
      <trkpt lat="46.57737" lon="0.27397">
        <ele>127.03</ele>
        <time>2023-06-22T20:35:01.336Z</time>
      </trkpt>
      <trkpt lat="46.57728" lon="0.27417">
        <ele>126.13</ele>
        <time>2023-06-22T20:36:11.082Z</time>
      </trkpt>
      <trkpt lat="46.57726" lon="0.27431">
        <ele>125.59</ele>
        <time>2023-06-22T20:37:20.830Z</time>
      </trkpt>
      <trkpt lat="46.57718" lon="0.27475">
        <ele>123.98</ele>
        <time>2023-06-22T20:38:30.583Z</time>
      </trkpt>
      <trkpt lat="46.57715" lon="0.27493">
        <ele>123.26</ele>
        <time>2023-06-22T20:39:40.338Z</time>
      </trkpt>
      <trkpt lat="46.57714" lon="0.275">
        <ele>123.15</ele>
        <time>2023-06-22T20:40:50.094Z</time>
      </trkpt>
      <trkpt lat="46.57714" lon="0.27511">
        <ele>122.98</ele>
        <time>2023-06-22T20:41:59.851Z</time>
      </trkpt>
      <trkpt lat="46.57714" lon="0.27522">
        <ele>122.78</ele>
        <time>2023-06-22T20:43:09.609Z</time>
      </trkpt>
      <trkpt lat="46.5771" lon="0.27524">
        <ele>122.66</ele>
        <time>2023-06-22T20:44:19.368Z</time>
      </trkpt>
      <trkpt lat="46.57709" lon="0.27529">
        <ele>122.56</ele>
        <time>2023-06-22T20:45:29.127Z</time>
      </trkpt>
      <trkpt lat="46.57711" lon="0.27534">
        <ele>122.46</ele>
        <time>2023-06-22T20:46:38.887Z</time>
      </trkpt>
      <trkpt lat="46.5771" lon="0.27536">
        <ele>122.41</ele>
        <time>2023-06-22T20:47:48.647Z</time>
      </trkpt>
      <trkpt lat="46.57707" lon="0.27544">
        <ele>122.12</ele>
        <time>2023-06-22T20:48:58.408Z</time>
      </trkpt>
      <trkpt lat="46.57704" lon="0.2756">
        <ele>121.57</ele>
        <time>2023-06-22T20:50:08.171Z</time>
      </trkpt>
      <trkpt lat="46.577" lon="0.27579">
        <ele>120.86</ele>
        <time>2023-06-22T20:51:17.936Z</time>
      </trkpt>
      <trkpt lat="46.57698" lon="0.27588">
        <ele>120.48</ele>
        <time>2023-06-22T20:52:27.702Z</time>
      </trkpt>
      <trkpt lat="46.57697" lon="0.27591">
        <ele>120.33</ele>
        <time>2023-06-22T20:53:37.469Z</time>
      </trkpt>
      <trkpt lat="46.57691" lon="0.27607">
        <ele>119.54</ele>
        <time>2023-06-22T20:54:47.238Z</time>
      </trkpt>
      <trkpt lat="46.57685" lon="0.27612">
        <ele>119.09</ele>
        <time>2023-06-22T20:55:57.008Z</time>
      </trkpt>
      <trkpt lat="46.57682" lon="0.27613">
        <ele>118.87</ele>
        <time>2023-06-22T20:57:06.778Z</time>
      </trkpt>
      <trkpt lat="46.57679" lon="0.27613">
        <ele>118.7</ele>
        <time>2023-06-22T20:58:16.549Z</time>
      </trkpt>
      <trkpt lat="46.57669" lon="0.27608">
        <ele>118.03</ele>
        <time>2023-06-22T20:59:26.321Z</time>
      </trkpt>
      <trkpt lat="46.57648" lon="0.27597">
        <ele>116.86</ele>
        <time>2023-06-22T21:00:36.097Z</time>
      </trkpt>
      <trkpt lat="46.57639" lon="0.27593">
        <ele>116.42</ele>
        <time>2023-06-22T21:01:45.874Z</time>
      </trkpt>
      <trkpt lat="46.57633" lon="0.2759">
        <ele>116.11</ele>
        <time>2023-06-22T21:02:55.653Z</time>
      </trkpt>
      <trkpt lat="46.57626" lon="0.27588">
        <ele>115.78</ele>
        <time>2023-06-22T21:04:05.433Z</time>
      </trkpt>
      <trkpt lat="46.57619" lon="0.27585">
        <ele>115.45</ele>
        <time>2023-06-22T21:05:15.214Z</time>
      </trkpt>
      <trkpt lat="46.57614" lon="0.27585">
        <ele>115.23</ele>
        <time>2023-06-22T21:06:24.996Z</time>
      </trkpt>
      <trkpt lat="46.57613" lon="0.27586">
        <ele>115.19</ele>
        <time>2023-06-22T21:07:34.778Z</time>
      </trkpt>
      <trkpt lat="46.57603" lon="0.27598">
        <ele>114.89</ele>
        <time>2023-06-22T21:08:44.562Z</time>
      </trkpt>
      <trkpt lat="46.5759" lon="0.27628">
        <ele>114.34</ele>
        <time>2023-06-22T21:09:54.350Z</time>
      </trkpt>
      <trkpt lat="46.57588" lon="0.27634">
        <ele>114.28</ele>
        <time>2023-06-22T21:11:04.139Z</time>
      </trkpt>
      <trkpt lat="46.57579" lon="0.27647">
        <ele>114.11</ele>
        <time>2023-06-22T21:12:13.930Z</time>
      </trkpt>
      <trkpt lat="46.57565" lon="0.27659">
        <ele>113.9</ele>
        <time>2023-06-22T21:13:23.723Z</time>
      </trkpt>
      <trkpt lat="46.57555" lon="0.27675">
        <ele>113.71</ele>
        <time>2023-06-22T21:14:33.519Z</time>
      </trkpt>
      <trkpt lat="46.57556" lon="0.27673">
        <ele>113.69</ele>
        <time>2023-06-22T21:15:43.315Z</time>
      </trkpt>
      <trkpt lat="46.57565" lon="0.27659">
        <ele>113.48</ele>
        <time>2023-06-22T21:16:53.113Z</time>
      </trkpt>
      <trkpt lat="46.57579" lon="0.27647">
        <ele>113.23</ele>
        <time>2023-06-22T21:18:02.914Z</time>
      </trkpt>
      <trkpt lat="46.57586" lon="0.27637">
        <ele>113.07</ele>
        <time>2023-06-22T21:19:12.716Z</time>
      </trkpt>
      <trkpt lat="46.57588" lon="0.27634">
        <ele>113.02</ele>
        <time>2023-06-22T21:20:22.519Z</time>
      </trkpt>
      <trkpt lat="46.57598" lon="0.2761">
        <ele>112.67</ele>
        <time>2023-06-22T21:21:32.325Z</time>
      </trkpt>
      <trkpt lat="46.57603" lon="0.27598">
        <ele>112.46</ele>
        <time>2023-06-22T21:22:42.132Z</time>
      </trkpt>
      <trkpt lat="46.57613" lon="0.27586">
        <ele>112.18</ele>
        <time>2023-06-22T21:23:51.941Z</time>
      </trkpt>
      <trkpt lat="46.57614" lon="0.27585">
        <ele>112.14</ele>
        <time>2023-06-22T21:25:01.750Z</time>
      </trkpt>
      <trkpt lat="46.57619" lon="0.27585">
        <ele>112.01</ele>
        <time>2023-06-22T21:26:11.560Z</time>
      </trkpt>
      <trkpt lat="46.57621" lon="0.27586">
        <ele>111.96</ele>
        <time>2023-06-22T21:27:21.371Z</time>
      </trkpt>
      <trkpt lat="46.5763" lon="0.27589">
        <ele>111.71</ele>
        <time>2023-06-22T21:28:31.183Z</time>
      </trkpt>
      <trkpt lat="46.57633" lon="0.2759">
        <ele>111.59</ele>
        <time>2023-06-22T21:29:40.996Z</time>
      </trkpt>
      <trkpt lat="46.57642" lon="0.27594">
        <ele>111.3</ele>
        <time>2023-06-22T21:30:50.810Z</time>
      </trkpt>
      <trkpt lat="46.57654" lon="0.27601">
        <ele>110.86</ele>
        <time>2023-06-22T21:32:00.626Z</time>
      </trkpt>
      <trkpt lat="46.57667" lon="0.27607">
        <ele>110.33</ele>
        <time>2023-06-22T21:33:10.444Z</time>
      </trkpt>
      <trkpt lat="46.57679" lon="0.27613">
        <ele>109.76</ele>
        <time>2023-06-22T21:34:20.264Z</time>
      </trkpt>
      <trkpt lat="46.5768" lon="0.27613">
        <ele>109.76</ele>
        <time>2023-06-22T21:35:30.084Z</time>
      </trkpt>
      <trkpt lat="46.57685" lon="0.27612">
        <ele>109.5</ele>
        <time>2023-06-22T21:36:39.905Z</time>
      </trkpt>
      <trkpt lat="46.57691" lon="0.27607">
        <ele>109.19</ele>
        <time>2023-06-22T21:37:49.727Z</time>
      </trkpt>
      <trkpt lat="46.57692" lon="0.27606">
        <ele>109.14</ele>
        <time>2023-06-22T21:38:59.550Z</time>
      </trkpt>
      <trkpt lat="46.57698" lon="0.27588">
        <ele>108.46</ele>
        <time>2023-06-22T21:40:09.375Z</time>
      </trkpt>
      <trkpt lat="46.57698" lon="0.27588">
        <ele>108.46</ele>
        <time>2023-06-22T21:41:19.200Z</time>
      </trkpt>
      <trkpt lat="46.577" lon="0.27578">
        <ele>108.31</ele>
        <time>2023-06-22T21:42:29.026Z</time>
      </trkpt>
      <trkpt lat="46.57707" lon="0.27544">
        <ele>106.86</ele>
        <time>2023-06-22T21:43:38.856Z</time>
      </trkpt>
      <trkpt lat="46.5771" lon="0.27536">
        <ele>106.5</ele>
        <time>2023-06-22T21:44:48.687Z</time>
      </trkpt>
      <trkpt lat="46.57711" lon="0.27534">
        <ele>106.38</ele>
        <time>2023-06-22T21:45:58.518Z</time>
      </trkpt>
      <trkpt lat="46.57714" lon="0.27535">
        <ele>106.19</ele>
        <time>2023-06-22T21:47:08.350Z</time>
      </trkpt>
      <trkpt lat="46.57718" lon="0.27532">
        <ele>105.91</ele>
        <time>2023-06-22T21:48:18.182Z</time>
      </trkpt>
      <trkpt lat="46.57717" lon="0.27524">
        <ele>105.56</ele>
        <time>2023-06-22T21:49:28.015Z</time>
      </trkpt>
      <trkpt lat="46.57714" lon="0.27522">
        <ele>105.4</ele>
        <time>2023-06-22T21:50:37.849Z</time>
      </trkpt>
      <trkpt lat="46.57714" lon="0.27522">
        <ele>105.4</ele>
        <time>2023-06-22T21:51:47.683Z</time>
      </trkpt>
      <trkpt lat="46.57714" lon="0.27506">
        <ele>105.32</ele>
        <time>2023-06-22T21:52:57.519Z</time>
      </trkpt>
      <trkpt lat="46.57714" lon="0.275">
        <ele>105.57</ele>
        <time>2023-06-22T21:54:07.355Z</time>
      </trkpt>
      <trkpt lat="46.57715" lon="0.27492">
        <ele>105.94</ele>
        <time>2023-06-22T21:55:17.192Z</time>
      </trkpt>
      <trkpt lat="46.57716" lon="0.27488">
        <ele>106.02</ele>
        <time>2023-06-22T21:56:27.030Z</time>
      </trkpt>
      <trkpt lat="46.57718" lon="0.27477">
        <ele>105.22</ele>
        <time>2023-06-22T21:57:36.869Z</time>
      </trkpt>
      <trkpt lat="46.57721" lon="0.2746">
        <ele>103.96</ele>
        <time>2023-06-22T21:58:46.710Z</time>
      </trkpt>
      <trkpt lat="46.57726" lon="0.27429">
        <ele>102.19</ele>
        <time>2023-06-22T21:59:56.554Z</time>
      </trkpt>
      <trkpt lat="46.57728" lon="0.27417">
        <ele>101.46</ele>
        <time>2023-06-22T22:01:06.400Z</time>
      </trkpt>
      <trkpt lat="46.57748" lon="0.2737">
        <ele>98.17</ele>
        <time>2023-06-22T22:02:16.252Z</time>
      </trkpt>
      <trkpt lat="46.5775" lon="0.27369">
        <ele>98.05</ele>
        <time>2023-06-22T22:03:26.104Z</time>
      </trkpt>
      <trkpt lat="46.5775" lon="0.27369">
        <ele>98.05</ele>
        <time>2023-06-22T22:04:35.956Z</time>
      </trkpt>
      <trkpt lat="46.57755" lon="0.2736">
        <ele>97.33</ele>
        <time>2023-06-22T22:05:45.809Z</time>
      </trkpt>
      <trkpt lat="46.57756" lon="0.27359">
        <ele>97.25</ele>
        <time>2023-06-22T22:06:55.663Z</time>
      </trkpt>
      <trkpt lat="46.57768" lon="0.27361">
        <ele>96.32</ele>
        <time>2023-06-22T22:08:05.519Z</time>
      </trkpt>
      <trkpt lat="46.57772" lon="0.27361">
        <ele>96.29</ele>
        <time>2023-06-22T22:09:15.375Z</time>
      </trkpt>
      <trkpt lat="46.57779" lon="0.27364">
        <ele>96.26</ele>
        <time>2023-06-22T22:10:25.232Z</time>
      </trkpt>
      <trkpt lat="46.57796" lon="0.27371">
        <ele>95.07</ele>
        <time>2023-06-22T22:11:35.092Z</time>
      </trkpt>
      <trkpt lat="46.57809" lon="0.27376">
        <ele>94.26</ele>
        <time>2023-06-22T22:12:44.954Z</time>
      </trkpt>
      <trkpt lat="46.57822" lon="0.27381">
        <ele>93.57</ele>
        <time>2023-06-22T22:13:54.818Z</time>
      </trkpt>
      <trkpt lat="46.5783" lon="0.27384">
        <ele>93.16</ele>
        <time>2023-06-22T22:15:04.684Z</time>
      </trkpt>
      <trkpt lat="46.57832" lon="0.27385">
        <ele>93.08</ele>
        <time>2023-06-22T22:16:14.550Z</time>
      </trkpt>
      <trkpt lat="46.57839" lon="0.27386">
        <ele>92.79</ele>
        <time>2023-06-22T22:17:24.417Z</time>
      </trkpt>
      <trkpt lat="46.57845" lon="0.27386">
        <ele>92.6</ele>
        <time>2023-06-22T22:18:34.285Z</time>
      </trkpt>
      <trkpt lat="46.57861" lon="0.27384">
        <ele>92.1</ele>
        <time>2023-06-22T22:19:44.156Z</time>
      </trkpt>
      <trkpt lat="46.57863" lon="0.27384">
        <ele>92.05</ele>
        <time>2023-06-22T22:20:54.027Z</time>
      </trkpt>
      <trkpt lat="46.5787" lon="0.27382">
        <ele>91.87</ele>
        <time>2023-06-22T22:22:03.899Z</time>
      </trkpt>
      <trkpt lat="46.57887" lon="0.27378">
        <ele>91.47</ele>
        <time>2023-06-22T22:23:13.774Z</time>
      </trkpt>
      <trkpt lat="46.57892" lon="0.27376">
        <ele>91.35</ele>
        <time>2023-06-22T22:24:23.650Z</time>
      </trkpt>
      <trkpt lat="46.57896" lon="0.27375">
        <ele>91.2</ele>
        <time>2023-06-22T22:25:33.526Z</time>
      </trkpt>
      <trkpt lat="46.57905" lon="0.27373">
        <ele>90.82</ele>
        <time>2023-06-22T22:26:43.404Z</time>
      </trkpt>
      <trkpt lat="46.57909" lon="0.27372">
        <ele>90.59</ele>
        <time>2023-06-22T22:27:53.283Z</time>
      </trkpt>
      <trkpt lat="46.57918" lon="0.2737">
        <ele>90.09</ele>
        <time>2023-06-22T22:29:03.163Z</time>
      </trkpt>
      <trkpt lat="46.57927" lon="0.27367">
        <ele>89.43</ele>
        <time>2023-06-22T22:30:13.044Z</time>
      </trkpt>
      <trkpt lat="46.57931" lon="0.27366">
        <ele>89.13</ele>
        <time>2023-06-22T22:31:22.926Z</time>
      </trkpt>
      <trkpt lat="46.5794" lon="0.27364">
        <ele>88.58</ele>
        <time>2023-06-22T22:32:32.810Z</time>
      </trkpt>
      <trkpt lat="46.57943" lon="0.27363">
        <ele>88.38</ele>
        <time>2023-06-22T22:33:42.694Z</time>
      </trkpt>
      <trkpt lat="46.57944" lon="0.27371">
        <ele>88.1</ele>
        <time>2023-06-22T22:34:52.579Z</time>
      </trkpt>
      <trkpt lat="46.57945" lon="0.27377">
        <ele>87.89</ele>
        <time>2023-06-22T22:36:02.465Z</time>
      </trkpt>
      <trkpt lat="46.57947" lon="0.27389">
        <ele>87.5</ele>
        <time>2023-06-22T22:37:12.352Z</time>
      </trkpt>
      <trkpt lat="46.57949" lon="0.27398">
        <ele>87.24</ele>
        <time>2023-06-22T22:38:22.240Z</time>
      </trkpt>
      <trkpt lat="46.57949" lon="0.27402">
        <ele>87.15</ele>
        <time>2023-06-22T22:39:32.128Z</time>
      </trkpt>
      <trkpt lat="46.57949" lon="0.27408">
        <ele>87</ele>
        <time>2023-06-22T22:40:42.017Z</time>
      </trkpt>
      <trkpt lat="46.57948" lon="0.2742">
        <ele>86.75</ele>
        <time>2023-06-22T22:41:51.908Z</time>
      </trkpt>
      <trkpt lat="46.57948" lon="0.2742">
        <ele>86.75</ele>
        <time>2023-06-22T22:43:01.799Z</time>
      </trkpt>
      <trkpt lat="46.57955" lon="0.27429">
        <ele>86.58</ele>
        <time>2023-06-22T22:44:11.691Z</time>
      </trkpt>
      <trkpt lat="46.57959" lon="0.27433">
        <ele>86.51</ele>
        <time>2023-06-22T22:45:21.584Z</time>
      </trkpt>
      <trkpt lat="46.57959" lon="0.27434">
        <ele>86.5</ele>
        <time>2023-06-22T22:46:31.477Z</time>
      </trkpt>
      <trkpt lat="46.57959" lon="0.27434">
        <ele>89.81</ele>
        <time>2023-06-22T22:47:41.370Z</time>
      </trkpt>
      <trkpt lat="46.57961" lon="0.27447">
        <ele>89.67</ele>
        <time>2023-06-22T22:48:51.264Z</time>
      </trkpt>
      <trkpt lat="46.57961" lon="0.27447">
        <ele>86.64</ele>
        <time>2023-06-22T22:50:01.158Z</time>
      </trkpt>
      <trkpt lat="46.57962" lon="0.27451">
        <ele>86.69</ele>
        <time>2023-06-22T22:51:11.053Z</time>
      </trkpt>
      <trkpt lat="46.57962" lon="0.27455">
        <ele>86.75</ele>
        <time>2023-06-22T22:52:20.948Z</time>
      </trkpt>
      <trkpt lat="46.57963" lon="0.27468">
        <ele>87</ele>
        <time>2023-06-22T22:53:30.845Z</time>
      </trkpt>
      <trkpt lat="46.57964" lon="0.27474">
        <ele>87.15</ele>
        <time>2023-06-22T22:54:40.742Z</time>
      </trkpt>
      <trkpt lat="46.57965" lon="0.27487">
        <ele>87.5</ele>
        <time>2023-06-22T22:55:50.641Z</time>
      </trkpt>
      <trkpt lat="46.57966" lon="0.27499">
        <ele>87.89</ele>
        <time>2023-06-22T22:57:00.541Z</time>
      </trkpt>
      <trkpt lat="46.57967" lon="0.27506">
        <ele>88.1</ele>
        <time>2023-06-22T22:58:10.442Z</time>
      </trkpt>
      <trkpt lat="46.57967" lon="0.27509">
        <ele>88.22</ele>
        <time>2023-06-22T22:59:20.343Z</time>
      </trkpt>
      <trkpt lat="46.57967" lon="0.27518">
        <ele>88.58</ele>
        <time>2023-06-22T23:00:30.245Z</time>
      </trkpt>
      <trkpt lat="46.57966" lon="0.27531">
        <ele>89.13</ele>
        <time>2023-06-22T23:01:40.149Z</time>
      </trkpt>
      <trkpt lat="46.57966" lon="0.27538">
        <ele>89.43</ele>
        <time>2023-06-22T23:02:50.053Z</time>
      </trkpt>
      <trkpt lat="46.57966" lon="0.27543">
        <ele>89.7</ele>
        <time>2023-06-22T23:03:59.958Z</time>
      </trkpt>
      <trkpt lat="46.57963" lon="0.27549">
        <ele>90.09</ele>
        <time>2023-06-22T23:05:09.864Z</time>
      </trkpt>
      <trkpt lat="46.57961" lon="0.27553">
        <ele>90.28</ele>
        <time>2023-06-22T23:06:19.770Z</time>
      </trkpt>
      <trkpt lat="46.57965" lon="0.27557">
        <ele>90.59</ele>
        <time>2023-06-22T23:07:29.677Z</time>
      </trkpt>
      <trkpt lat="46.57969" lon="0.27561">
        <ele>90.82</ele>
        <time>2023-06-22T23:08:39.585Z</time>
      </trkpt>
      <trkpt lat="46.57974" lon="0.27566">
        <ele>91.07</ele>
        <time>2023-06-22T23:09:49.494Z</time>
      </trkpt>
      <trkpt lat="46.57974" lon="0.2757">
        <ele>91.2</ele>
        <time>2023-06-22T23:10:59.403Z</time>
      </trkpt>
      <trkpt lat="46.57975" lon="0.27577">
        <ele>91.35</ele>
        <time>2023-06-22T23:12:09.313Z</time>
      </trkpt>
      <trkpt lat="46.57976" lon="0.27583">
        <ele>91.47</ele>
        <time>2023-06-22T23:13:19.224Z</time>
      </trkpt>
      <trkpt lat="46.57977" lon="0.27599">
        <ele>91.71</ele>
        <time>2023-06-22T23:14:29.137Z</time>
      </trkpt>
      <trkpt lat="46.57975" lon="0.27608">
        <ele>91.87</ele>
        <time>2023-06-22T23:15:39.051Z</time>
      </trkpt>
      <trkpt lat="46.57973" lon="0.27621">
        <ele>92.1</ele>
        <time>2023-06-22T23:16:48.966Z</time>
      </trkpt>
      <trkpt lat="46.57972" lon="0.27626">
        <ele>92.21</ele>
        <time>2023-06-22T23:17:58.882Z</time>
      </trkpt>
      <trkpt lat="46.57975" lon="0.27641">
        <ele>92.54</ele>
        <time>2023-06-22T23:19:08.799Z</time>
      </trkpt>
      <trkpt lat="46.5798" lon="0.2765">
        <ele>92.79</ele>
        <time>2023-06-22T23:20:18.718Z</time>
      </trkpt>
      <trkpt lat="46.57981" lon="0.27652">
        <ele>92.86</ele>
        <time>2023-06-22T23:21:28.637Z</time>
      </trkpt>
      <trkpt lat="46.57983" lon="0.27662">
        <ele>93.16</ele>
        <time>2023-06-22T23:22:38.557Z</time>
      </trkpt>
      <trkpt lat="46.57984" lon="0.27666">
        <ele>93.3</ele>
        <time>2023-06-22T23:23:48.478Z</time>
      </trkpt>
      <trkpt lat="46.57982" lon="0.27674">
        <ele>93.57</ele>
        <time>2023-06-22T23:24:58.399Z</time>
      </trkpt>
      <trkpt lat="46.5798" lon="0.2768">
        <ele>93.81</ele>
        <time>2023-06-22T23:26:08.321Z</time>
      </trkpt>
      <trkpt lat="46.57975" lon="0.2769">
        <ele>94.26</ele>
        <time>2023-06-22T23:27:18.245Z</time>
      </trkpt>
      <trkpt lat="46.57968" lon="0.27707">
        <ele>95.07</ele>
        <time>2023-06-22T23:28:28.171Z</time>
      </trkpt>
      <trkpt lat="46.57968" lon="0.27708">
        <ele>95.13</ele>
        <time>2023-06-22T23:29:38.097Z</time>
      </trkpt>
      <trkpt lat="46.5796" lon="0.2772">
        <ele>95.9</ele>
        <time>2023-06-22T23:30:48.025Z</time>
      </trkpt>
      <trkpt lat="46.57956" lon="0.27725">
        <ele>96.26</ele>
        <time>2023-06-22T23:31:57.954Z</time>
      </trkpt>
      <trkpt lat="46.57951" lon="0.27734">
        <ele>96.37</ele>
        <time>2023-06-22T23:33:07.884Z</time>
      </trkpt>
      <trkpt lat="46.57944" lon="0.27743">
        <ele>96.32</ele>
        <time>2023-06-22T23:34:17.815Z</time>
      </trkpt>
      <trkpt lat="46.57935" lon="0.27756">
        <ele>97.33</ele>
        <time>2023-06-22T23:35:27.748Z</time>
      </trkpt>
      <trkpt lat="46.57931" lon="0.27762">
        <ele>97.77</ele>
        <time>2023-06-22T23:36:37.682Z</time>
      </trkpt>
      <trkpt lat="46.57928" lon="0.27765">
        <ele>98.05</ele>
        <time>2023-06-22T23:37:47.617Z</time>
      </trkpt>
      <trkpt lat="46.57909" lon="0.27788">
        <ele>100.21</ele>
        <time>2023-06-22T23:38:57.556Z</time>
      </trkpt>
      <trkpt lat="46.57893" lon="0.27812">
        <ele>102.19</ele>
        <time>2023-06-22T23:40:07.498Z</time>
      </trkpt>
      <trkpt lat="46.57888" lon="0.2782">
        <ele>102.8</ele>
        <time>2023-06-22T23:41:17.442Z</time>
      </trkpt>
      <trkpt lat="46.57877" lon="0.27833">
        <ele>103.96</ele>
        <time>2023-06-22T23:42:27.388Z</time>
      </trkpt>
      <trkpt lat="46.57867" lon="0.27844">
        <ele>105.22</ele>
        <time>2023-06-22T23:43:37.336Z</time>
      </trkpt>
      <trkpt lat="46.57865" lon="0.27847">
        <ele>105.53</ele>
        <time>2023-06-22T23:44:47.284Z</time>
      </trkpt>
      <trkpt lat="46.57861" lon="0.27851">
        <ele>106.02</ele>
        <time>2023-06-22T23:45:57.233Z</time>
      </trkpt>
      <trkpt lat="46.57859" lon="0.27853">
        <ele>105.94</ele>
        <time>2023-06-22T23:47:07.183Z</time>
      </trkpt>
      <trkpt lat="46.5785" lon="0.2786">
        <ele>105.32</ele>
        <time>2023-06-22T23:48:17.134Z</time>
      </trkpt>
      <trkpt lat="46.57849" lon="0.27861">
        <ele>105.26</ele>
        <time>2023-06-22T23:49:27.085Z</time>
      </trkpt>
      <trkpt lat="46.57843" lon="0.27864">
        <ele>104.97</ele>
        <time>2023-06-22T23:50:37.037Z</time>
      </trkpt>
      <trkpt lat="46.5783" lon="0.27871">
        <ele>104.1</ele>
        <time>2023-06-22T23:51:46.992Z</time>
      </trkpt>
      <trkpt lat="46.57826" lon="0.27872">
        <ele>103.86</ele>
        <time>2023-06-22T23:52:56.947Z</time>
      </trkpt>
      <trkpt lat="46.57813" lon="0.27875">
        <ele>102.99</ele>
        <time>2023-06-22T23:54:06.904Z</time>
      </trkpt>
      <trkpt lat="46.57807" lon="0.27877">
        <ele>102.54</ele>
        <time>2023-06-22T23:55:16.862Z</time>
      </trkpt>
      <trkpt lat="46.578" lon="0.27877">
        <ele>102.07</ele>
        <time>2023-06-22T23:56:26.821Z</time>
      </trkpt>
      <trkpt lat="46.57787" lon="0.27878">
        <ele>101.1</ele>
        <time>2023-06-22T23:57:36.783Z</time>
      </trkpt>
      <trkpt lat="46.57787" lon="0.27878">
        <ele>101.1</ele>
        <time>2023-06-22T23:58:46.745Z</time>
      </trkpt>
      <trkpt lat="46.57778" lon="0.27876">
        <ele>100.41</ele>
        <time>2023-06-22T23:59:56.708Z</time>
      </trkpt>
      <trkpt lat="46.5777" lon="0.27874">
        <ele>99.67</ele>
        <time>2023-06-23T00:01:06.672Z</time>
      </trkpt>
      <trkpt lat="46.57761" lon="0.27871">
        <ele>98.88</ele>
        <time>2023-06-23T00:02:16.638Z</time>
      </trkpt>
      <trkpt lat="46.57748" lon="0.27868">
        <ele>97.64</ele>
        <time>2023-06-23T00:03:26.606Z</time>
      </trkpt>
      <trkpt lat="46.57744" lon="0.27869">
        <ele>97.25</ele>
        <time>2023-06-23T00:04:36.575Z</time>
      </trkpt>
      <trkpt lat="46.57736" lon="0.27871">
        <ele>96.84</ele>
        <time>2023-06-23T00:05:46.545Z</time>
      </trkpt>
      <trkpt lat="46.5773" lon="0.27871">
        <ele>96.55</ele>
        <time>2023-06-23T00:06:56.516Z</time>
      </trkpt>
      <trkpt lat="46.57725" lon="0.27871">
        <ele>96.08</ele>
        <time>2023-06-23T00:08:06.488Z</time>
      </trkpt>
      <trkpt lat="46.57715" lon="0.27869">
        <ele>95.21</ele>
        <time>2023-06-23T00:09:16.461Z</time>
      </trkpt>
      <trkpt lat="46.57714" lon="0.27868">
        <ele>95.12</ele>
        <time>2023-06-23T00:10:26.434Z</time>
      </trkpt>
      <trkpt lat="46.57705" lon="0.27864">
        <ele>94.04</ele>
        <time>2023-06-23T00:11:36.409Z</time>
      </trkpt>
      <trkpt lat="46.57703" lon="0.27862">
        <ele>93.72</ele>
        <time>2023-06-23T00:12:46.384Z</time>
      </trkpt>
      <trkpt lat="46.57695" lon="0.27856">
        <ele>92.84</ele>
        <time>2023-06-23T00:13:56.361Z</time>
      </trkpt>
      <trkpt lat="46.57695" lon="0.27856">
        <ele>92.84</ele>
        <time>2023-06-23T00:15:06.338Z</time>
      </trkpt>
      <trkpt lat="46.57691" lon="0.27854">
        <ele>92.44</ele>
        <time>2023-06-23T00:16:16.315Z</time>
      </trkpt>
      <trkpt lat="46.57688" lon="0.27853">
        <ele>92.08</ele>
        <time>2023-06-23T00:17:26.293Z</time>
      </trkpt>
      <trkpt lat="46.5768" lon="0.27849">
        <ele>91.45</ele>
        <time>2023-06-23T00:18:36.272Z</time>
      </trkpt>
      <trkpt lat="46.57666" lon="0.27843">
        <ele>91</ele>
        <time>2023-06-23T00:19:46.254Z</time>
      </trkpt>
      <trkpt lat="46.57648" lon="0.27834">
        <ele>90.77</ele>
        <time>2023-06-23T00:20:56.239Z</time>
      </trkpt>
      <trkpt lat="46.57645" lon="0.27833">
        <ele>90.74</ele>
        <time>2023-06-23T00:22:06.224Z</time>
      </trkpt>
      <trkpt lat="46.57644" lon="0.27832">
        <ele>90.74</ele>
        <time>2023-06-23T00:23:16.209Z</time>
      </trkpt>
      <trkpt lat="46.57636" lon="0.27827">
        <ele>90.73</ele>
        <time>2023-06-23T00:24:26.196Z</time>
      </trkpt>
      <trkpt lat="46.57629" lon="0.27823">
        <ele>90.76</ele>
        <time>2023-06-23T00:25:36.184Z</time>
      </trkpt>
      <trkpt lat="46.57626" lon="0.27821">
        <ele>90.58</ele>
        <time>2023-06-23T00:26:46.173Z</time>
      </trkpt>
      <trkpt lat="46.57621" lon="0.27816">
        <ele>90.21</ele>
        <time>2023-06-23T00:27:56.163Z</time>
      </trkpt>
      <trkpt lat="46.57617" lon="0.27813">
        <ele>89.98</ele>
        <time>2023-06-23T00:29:06.153Z</time>
      </trkpt>
      <trkpt lat="46.57613" lon="0.2781">
        <ele>89.79</ele>
        <time>2023-06-23T00:30:16.144Z</time>
      </trkpt>
      <trkpt lat="46.57609" lon="0.27807">
        <ele>89.63</ele>
        <time>2023-06-23T00:31:26.136Z</time>
      </trkpt>
      <trkpt lat="46.57605" lon="0.27803">
        <ele>89.49</ele>
        <time>2023-06-23T00:32:36.128Z</time>
      </trkpt>
      <trkpt lat="46.57598" lon="0.27797">
        <ele>89.3</ele>
        <time>2023-06-23T00:33:46.122Z</time>
      </trkpt>
      <trkpt lat="46.57594" lon="0.27794">
        <ele>89.24</ele>
        <time>2023-06-23T00:34:56.117Z</time>
      </trkpt>
      <trkpt lat="46.5759" lon="0.2779">
        <ele>89.21</ele>
        <time>2023-06-23T00:36:06.112Z</time>
      </trkpt>
      <trkpt lat="46.57582" lon="0.27784">
        <ele>89.22</ele>
        <time>2023-06-23T00:37:16.109Z</time>
      </trkpt>
      <trkpt lat="46.57574" lon="0.27777">
        <ele>89.32</ele>
        <time>2023-06-23T00:38:26.107Z</time>
      </trkpt>
      <trkpt lat="46.57567" lon="0.27771">
        <ele>89.47</ele>
        <time>2023-06-23T00:39:36.106Z</time>
      </trkpt>
      <trkpt lat="46.57567" lon="0.27771">
        <ele>89.47</ele>
        <time>2023-06-23T00:40:46.106Z</time>
      </trkpt>
      <trkpt lat="46.57558" lon="0.27756">
        <ele>89.76</ele>
        <time>2023-06-23T00:41:56.108Z</time>
      </trkpt>
      <trkpt lat="46.57552" lon="0.27747">
        <ele>89.9</ele>
        <time>2023-06-23T00:43:06.111Z</time>
      </trkpt>
      <trkpt lat="46.57549" lon="0.27742">
        <ele>90.01</ele>
        <time>2023-06-23T00:44:16.115Z</time>
      </trkpt>
      <trkpt lat="46.57548" lon="0.2774">
        <ele>90.07</ele>
        <time>2023-06-23T00:45:26.119Z</time>
      </trkpt>
      <trkpt lat="46.57548" lon="0.2774">
        <ele>93.81</ele>
        <time>2023-06-23T00:46:36.123Z</time>
      </trkpt>
      <trkpt lat="46.57547" lon="0.27739">
        <ele>93.93</ele>
        <time>2023-06-23T00:47:46.127Z</time>
      </trkpt>
      <trkpt lat="46.5754" lon="0.27719">
        <ele>95.78</ele>
        <time>2023-06-23T00:48:56.134Z</time>
      </trkpt>
      <trkpt lat="46.57535" lon="0.27704">
        <ele>96.84</ele>
        <time>2023-06-23T00:50:06.143Z</time>
      </trkpt>
      <trkpt lat="46.57535" lon="0.27704">
        <ele>96.84</ele>
        <time>2023-06-23T00:51:16.152Z</time>
      </trkpt>
      <trkpt lat="46.57526" lon="0.27708">
        <ele>97.77</ele>
        <time>2023-06-23T00:52:26.162Z</time>
      </trkpt>
      <trkpt lat="46.57525" lon="0.27708">
        <ele>97.91</ele>
        <time>2023-06-23T00:53:36.172Z</time>
      </trkpt>
      <trkpt lat="46.57517" lon="0.27705">
        <ele>97.28</ele>
        <time>2023-06-23T00:54:46.184Z</time>
      </trkpt>
      <trkpt lat="46.57514" lon="0.27704">
        <ele>97.06</ele>
        <time>2023-06-23T00:55:56.196Z</time>
      </trkpt>
      <trkpt lat="46.57506" lon="0.27699">
        <ele>96.46</ele>
        <time>2023-06-23T00:57:06.209Z</time>
      </trkpt>
      <trkpt lat="46.57496" lon="0.27694">
        <ele>98.31</ele>
        <time>2023-06-23T00:58:16.224Z</time>
      </trkpt>
      <trkpt lat="46.57487" lon="0.27689">
        <ele>100.6</ele>
        <time>2023-06-23T00:59:26.241Z</time>
      </trkpt>
      <trkpt lat="46.57483" lon="0.27687">
        <ele>101.17</ele>
        <time>2023-06-23T01:00:36.258Z</time>
      </trkpt>
      <trkpt lat="46.57477" lon="0.27687">
        <ele>102.02</ele>
        <time>2023-06-23T01:01:46.276Z</time>
      </trkpt>
      <trkpt lat="46.5747" lon="0.27688">
        <ele>102.4</ele>
        <time>2023-06-23T01:02:56.295Z</time>
      </trkpt>
      <trkpt lat="46.57467" lon="0.27691">
        <ele>102.6</ele>
        <time>2023-06-23T01:04:06.315Z</time>
      </trkpt>
      <trkpt lat="46.57457" lon="0.27699">
        <ele>102.75</ele>
        <time>2023-06-23T01:05:16.337Z</time>
      </trkpt>
      <trkpt lat="46.57456" lon="0.277">
        <ele>102.75</ele>
        <time>2023-06-23T01:06:26.359Z</time>
      </trkpt>
      <trkpt lat="46.5745" lon="0.27712">
        <ele>102.84</ele>
        <time>2023-06-23T01:07:36.383Z</time>
      </trkpt>
      <trkpt lat="46.57449" lon="0.27713">
        <ele>102.87</ele>
        <time>2023-06-23T01:08:46.407Z</time>
      </trkpt>
      <trkpt lat="46.57444" lon="0.27725">
        <ele>103.11</ele>
        <time>2023-06-23T01:09:56.432Z</time>
      </trkpt>
      <trkpt lat="46.57442" lon="0.27731">
        <ele>102.79</ele>
        <time>2023-06-23T01:11:06.458Z</time>
      </trkpt>
      <trkpt lat="46.57441" lon="0.27739">
        <ele>102.41</ele>
        <time>2023-06-23T01:12:16.485Z</time>
      </trkpt>
      <trkpt lat="46.5744" lon="0.27747">
        <ele>102.31</ele>
        <time>2023-06-23T01:13:26.513Z</time>
      </trkpt>
      <trkpt lat="46.5744" lon="0.27754">
        <ele>102.24</ele>
        <time>2023-06-23T01:14:36.542Z</time>
      </trkpt>
      <trkpt lat="46.5744" lon="0.2777">
        <ele>101.06</ele>
        <time>2023-06-23T01:15:46.572Z</time>
      </trkpt>
      <trkpt lat="46.5744" lon="0.27783">
        <ele>100.73</ele>
        <time>2023-06-23T01:16:56.604Z</time>
      </trkpt>
      <trkpt lat="46.5744" lon="0.27797">
        <ele>98.96</ele>
        <time>2023-06-23T01:18:06.637Z</time>
      </trkpt>
      <trkpt lat="46.5744" lon="0.278">
        <ele>98.69</ele>
        <time>2023-06-23T01:19:16.671Z</time>
      </trkpt>
      <trkpt lat="46.57441" lon="0.27811">
        <ele>97.57</ele>
        <time>2023-06-23T01:20:26.706Z</time>
      </trkpt>
      <trkpt lat="46.57442" lon="0.27825">
        <ele>95.51</ele>
        <time>2023-06-23T01:21:36.743Z</time>
      </trkpt>
      <trkpt lat="46.57443" lon="0.27838">
        <ele>95.2</ele>
        <time>2023-06-23T01:22:46.781Z</time>
      </trkpt>
      <trkpt lat="46.57444" lon="0.27856">
        <ele>95.79</ele>
        <time>2023-06-23T01:23:56.821Z</time>
      </trkpt>
      <trkpt lat="46.57445" lon="0.27867">
        <ele>96.09</ele>
        <time>2023-06-23T01:25:06.862Z</time>
      </trkpt>
      <trkpt lat="46.57446" lon="0.27869">
        <ele>96.17</ele>
        <time>2023-06-23T01:26:16.903Z</time>
      </trkpt>
      <trkpt lat="46.5745" lon="0.27883">
        <ele>96.45</ele>
        <time>2023-06-23T01:27:26.946Z</time>
      </trkpt>
      <trkpt lat="46.57452" lon="0.27891">
        <ele>97.1</ele>
        <time>2023-06-23T01:28:36.990Z</time>
      </trkpt>
      <trkpt lat="46.57454" lon="0.27895">
        <ele>97.46</ele>
        <time>2023-06-23T01:29:47.035Z</time>
      </trkpt>
      <trkpt lat="46.57459" lon="0.27908">
        <ele>98.3</ele>
        <time>2023-06-23T01:30:57.081Z</time>
      </trkpt>
      <trkpt lat="46.57463" lon="0.27919">
        <ele>99.16</ele>
        <time>2023-06-23T01:32:07.129Z</time>
      </trkpt>
      <trkpt lat="46.57468" lon="0.27931">
        <ele>99.6</ele>
        <time>2023-06-23T01:33:17.178Z</time>
      </trkpt>
      <trkpt lat="46.57472" lon="0.27941">
        <ele>99.49</ele>
        <time>2023-06-23T01:34:27.228Z</time>
      </trkpt>
      <trkpt lat="46.57473" lon="0.27943">
        <ele>99.47</ele>
        <time>2023-06-23T01:35:37.279Z</time>
      </trkpt>
      <trkpt lat="46.5748" lon="0.27955">
        <ele>98.79</ele>
        <time>2023-06-23T01:36:47.331Z</time>
      </trkpt>
      <trkpt lat="46.57485" lon="0.27964">
        <ele>98.4</ele>
        <time>2023-06-23T01:37:57.385Z</time>
      </trkpt>
      <trkpt lat="46.57488" lon="0.27967">
        <ele>98.21</ele>
        <time>2023-06-23T01:39:07.439Z</time>
      </trkpt>
      <trkpt lat="46.57498" lon="0.27977">
        <ele>97.4</ele>
        <time>2023-06-23T01:40:17.495Z</time>
      </trkpt>
      <trkpt lat="46.57506" lon="0.27985">
        <ele>96.75</ele>
        <time>2023-06-23T01:41:27.553Z</time>
      </trkpt>
      <trkpt lat="46.57514" lon="0.27993">
        <ele>95.86</ele>
        <time>2023-06-23T01:42:37.612Z</time>
      </trkpt>
      <trkpt lat="46.57516" lon="0.27995">
        <ele>95.5</ele>
        <time>2023-06-23T01:43:47.672Z</time>
      </trkpt>
      <trkpt lat="46.57523" lon="0.28001">
        <ele>94.49</ele>
        <time>2023-06-23T01:44:57.733Z</time>
      </trkpt>
      <trkpt lat="46.57531" lon="0.28009">
        <ele>93.88</ele>
        <time>2023-06-23T01:46:07.796Z</time>
      </trkpt>
      <trkpt lat="46.5754" lon="0.28016">
        <ele>93.46</ele>
        <time>2023-06-23T01:47:17.860Z</time>
      </trkpt>
      <trkpt lat="46.57548" lon="0.28023">
        <ele>93.58</ele>
        <time>2023-06-23T01:48:27.926Z</time>
      </trkpt>
      <trkpt lat="46.57558" lon="0.28032">
        <ele>95.73</ele>
        <time>2023-06-23T01:49:37.994Z</time>
      </trkpt>
      <trkpt lat="46.57567" lon="0.2804">
        <ele>97.42</ele>
        <time>2023-06-23T01:50:48.063Z</time>
      </trkpt>
      <trkpt lat="46.57576" lon="0.28048">
        <ele>98.11</ele>
        <time>2023-06-23T01:51:58.134Z</time>
      </trkpt>
      <trkpt lat="46.57585" lon="0.28056">
        <ele>99</ele>
        <time>2023-06-23T01:53:08.207Z</time>
      </trkpt>
      <trkpt lat="46.57595" lon="0.28064">
        <ele>99.25</ele>
        <time>2023-06-23T01:54:18.281Z</time>
      </trkpt>
      <trkpt lat="46.57603" lon="0.28072">
        <ele>99.35</ele>
        <time>2023-06-23T01:55:28.357Z</time>
      </trkpt>
      <trkpt lat="46.57606" lon="0.28074">
        <ele>99.36</ele>
        <time>2023-06-23T01:56:38.434Z</time>
      </trkpt>
      <trkpt lat="46.57613" lon="0.28079">
        <ele>99.42</ele>
        <time>2023-06-23T01:57:48.512Z</time>
      </trkpt>
      <trkpt lat="46.57622" lon="0.28086">
        <ele>98.5</ele>
        <time>2023-06-23T01:58:58.592Z</time>
      </trkpt>
      <trkpt lat="46.57632" lon="0.28093">
        <ele>98.58</ele>
        <time>2023-06-23T02:00:08.673Z</time>
      </trkpt>
      <trkpt lat="46.57641" lon="0.28101">
        <ele>98.36</ele>
        <time>2023-06-23T02:01:18.756Z</time>
      </trkpt>
      <trkpt lat="46.5765" lon="0.28107">
        <ele>98.28</ele>
        <time>2023-06-23T02:02:28.841Z</time>
      </trkpt>
      <trkpt lat="46.5766" lon="0.28114">
        <ele>98.31</ele>
        <time>2023-06-23T02:03:38.927Z</time>
      </trkpt>
      <trkpt lat="46.57668" lon="0.28121">
        <ele>98.57</ele>
        <time>2023-06-23T02:04:49.015Z</time>
      </trkpt>
      <trkpt lat="46.57676" lon="0.28127">
        <ele>98.92</ele>
        <time>2023-06-23T02:05:59.104Z</time>
      </trkpt>
      <trkpt lat="46.57685" lon="0.28133">
        <ele>99.1</ele>
        <time>2023-06-23T02:07:09.195Z</time>
      </trkpt>
      <trkpt lat="46.57686" lon="0.28134">
        <ele>99.14</ele>
        <time>2023-06-23T02:08:19.286Z</time>
      </trkpt>
      <trkpt lat="46.57692" lon="0.28142">
        <ele>99.42</ele>
        <time>2023-06-23T02:09:29.378Z</time>
      </trkpt>
      <trkpt lat="46.57699" lon="0.28152">
        <ele>99.06</ele>
        <time>2023-06-23T02:10:39.472Z</time>
      </trkpt>
      <trkpt lat="46.57706" lon="0.28161">
        <ele>99.12</ele>
        <time>2023-06-23T02:11:49.567Z</time>
      </trkpt>
      <trkpt lat="46.57715" lon="0.28172">
        <ele>100.06</ele>
        <time>2023-06-23T02:12:59.664Z</time>
      </trkpt>
      <trkpt lat="46.57722" lon="0.28182">
        <ele>99.1</ele>
        <time>2023-06-23T02:14:09.763Z</time>
      </trkpt>
      <trkpt lat="46.57729" lon="0.28191">
        <ele>98.41</ele>
        <time>2023-06-23T02:15:19.863Z</time>
      </trkpt>
      <trkpt lat="46.57737" lon="0.28201">
        <ele>96.94</ele>
        <time>2023-06-23T02:16:29.965Z</time>
      </trkpt>
      <trkpt lat="46.57746" lon="0.28214">
        <ele>95.01</ele>
        <time>2023-06-23T02:17:40.069Z</time>
      </trkpt>
      <trkpt lat="46.57747" lon="0.28215">
        <ele>94.81</ele>
        <time>2023-06-23T02:18:50.173Z</time>
      </trkpt>
      <trkpt lat="46.57755" lon="0.28228">
        <ele>93.16</ele>
        <time>2023-06-23T02:20:00.279Z</time>
      </trkpt>
      <trkpt lat="46.57755" lon="0.28228">
        <ele>86.37</ele>
        <time>2023-06-23T02:21:10.385Z</time>
      </trkpt>
      <trkpt lat="46.5777" lon="0.28252">
        <ele>86.1</ele>
        <time>2023-06-23T02:22:20.495Z</time>
      </trkpt>
      <trkpt lat="46.57776" lon="0.28261">
        <ele>86.04</ele>
        <time>2023-06-23T02:23:30.606Z</time>
      </trkpt>
      <trkpt lat="46.57796" lon="0.28293">
        <ele>86</ele>
        <time>2023-06-23T02:24:40.722Z</time>
      </trkpt>
      <trkpt lat="46.57808" lon="0.28315">
        <ele>85.98</ele>
        <time>2023-06-23T02:25:50.841Z</time>
      </trkpt>
      <trkpt lat="46.57822" lon="0.2834">
        <ele>86.05</ele>
        <time>2023-06-23T02:27:00.964Z</time>
      </trkpt>
      <trkpt lat="46.57827" lon="0.28349">
        <ele>86.1</ele>
        <time>2023-06-23T02:28:11.088Z</time>
      </trkpt>
      <trkpt lat="46.5783" lon="0.28356">
        <ele>86.14</ele>
        <time>2023-06-23T02:29:21.213Z</time>
      </trkpt>
      <trkpt lat="46.57835" lon="0.28367">
        <ele>86.23</ele>
        <time>2023-06-23T02:30:31.339Z</time>
      </trkpt>
      <trkpt lat="46.57839" lon="0.28378">
        <ele>86.34</ele>
        <time>2023-06-23T02:31:41.467Z</time>
      </trkpt>
      <trkpt lat="46.57841" lon="0.28384">
        <ele>86.41</ele>
        <time>2023-06-23T02:32:51.595Z</time>
      </trkpt>
      <trkpt lat="46.57847" lon="0.28402">
        <ele>86.62</ele>
        <time>2023-06-23T02:34:01.725Z</time>
      </trkpt>
      <trkpt lat="46.57851" lon="0.28413">
        <ele>86.81</ele>
        <time>2023-06-23T02:35:11.857Z</time>
      </trkpt>
      <trkpt lat="46.57853" lon="0.28419">
        <ele>86.93</ele>
        <time>2023-06-23T02:36:21.990Z</time>
      </trkpt>
      <trkpt lat="46.5786" lon="0.28442">
        <ele>87.46</ele>
        <time>2023-06-23T02:37:32.125Z</time>
      </trkpt>
      <trkpt lat="46.57864" lon="0.28454">
        <ele>87.65</ele>
        <time>2023-06-23T02:38:42.262Z</time>
      </trkpt>
      <trkpt lat="46.57868" lon="0.28466">
        <ele>87.79</ele>
        <time>2023-06-23T02:39:52.400Z</time>
      </trkpt>
      <trkpt lat="46.57872" lon="0.28477">
        <ele>87.84</ele>
        <time>2023-06-23T02:41:02.540Z</time>
      </trkpt>
      <trkpt lat="46.57872" lon="0.28477">
        <ele>87.84</ele>
        <time>2023-06-23T02:42:12.680Z</time>
      </trkpt>
      <trkpt lat="46.57876" lon="0.28496">
        <ele>87.83</ele>
        <time>2023-06-23T02:43:22.822Z</time>
      </trkpt>
      <trkpt lat="46.57881" lon="0.28514">
        <ele>87.78</ele>
        <time>2023-06-23T02:44:32.966Z</time>
      </trkpt>
      <trkpt lat="46.57884" lon="0.28527">
        <ele>87.72</ele>
        <time>2023-06-23T02:45:43.111Z</time>
      </trkpt>
      <trkpt lat="46.57884" lon="0.28528">
        <ele>87.7</ele>
        <time>2023-06-23T02:46:53.257Z</time>
      </trkpt>
      <trkpt lat="46.57885" lon="0.28539">
        <ele>87.6</ele>
        <time>2023-06-23T02:48:03.404Z</time>
      </trkpt>
      <trkpt lat="46.57889" lon="0.28565">
        <ele>87.3</ele>
        <time>2023-06-23T02:49:13.554Z</time>
      </trkpt>
      <trkpt lat="46.57889" lon="0.28568">
        <ele>87.27</ele>
        <time>2023-06-23T02:50:23.704Z</time>
      </trkpt>
      <trkpt lat="46.57889" lon="0.28578">
        <ele>87.19</ele>
        <time>2023-06-23T02:51:33.855Z</time>
      </trkpt>
      <trkpt lat="46.5789" lon="0.28591">
        <ele>87.11</ele>
        <time>2023-06-23T02:52:44.008Z</time>
      </trkpt>
      <trkpt lat="46.5789" lon="0.2861">
        <ele>87.07</ele>
        <time>2023-06-23T02:53:54.163Z</time>
      </trkpt>
      <trkpt lat="46.57891" lon="0.28636">
        <ele>87.09</ele>
        <time>2023-06-23T02:55:04.321Z</time>
      </trkpt>
      <trkpt lat="46.57891" lon="0.28639">
        <ele>87.1</ele>
        <time>2023-06-23T02:56:14.479Z</time>
      </trkpt>
      <trkpt lat="46.57891" lon="0.28656">
        <ele>87.23</ele>
        <time>2023-06-23T02:57:24.639Z</time>
      </trkpt>
      <trkpt lat="46.5789" lon="0.28675">
        <ele>87.47</ele>
        <time>2023-06-23T02:58:34.801Z</time>
      </trkpt>
      <trkpt lat="46.5789" lon="0.28682">
        <ele>87.53</ele>
        <time>2023-06-23T02:59:44.964Z</time>
      </trkpt>
      <trkpt lat="46.5789" lon="0.28688">
        <ele>87.57</ele>
        <time>2023-06-23T03:00:55.127Z</time>
      </trkpt>
      <trkpt lat="46.5789" lon="0.28693">
        <ele>87.58</ele>
        <time>2023-06-23T03:02:05.291Z</time>
      </trkpt>
      <trkpt lat="46.57889" lon="0.28701">
        <ele>87.61</ele>
        <time>2023-06-23T03:03:15.456Z</time>
      </trkpt>
      <trkpt lat="46.57886" lon="0.28714">
        <ele>87.59</ele>
        <time>2023-06-23T03:04:25.622Z</time>
      </trkpt>
      <trkpt lat="46.57884" lon="0.28726">
        <ele>87.52</ele>
        <time>2023-06-23T03:05:35.790Z</time>
      </trkpt>
      <trkpt lat="46.57882" lon="0.28739">
        <ele>87.42</ele>
        <time>2023-06-23T03:06:45.959Z</time>
      </trkpt>
      <trkpt lat="46.57877" lon="0.28764">
        <ele>87.18</ele>
        <time>2023-06-23T03:07:56.131Z</time>
      </trkpt>
      <trkpt lat="46.57875" lon="0.2877">
        <ele>87.13</ele>
        <time>2023-06-23T03:09:06.304Z</time>
      </trkpt>
      <trkpt lat="46.5787" lon="0.28788">
        <ele>87.01</ele>
        <time>2023-06-23T03:10:16.479Z</time>
      </trkpt>
      <trkpt lat="46.57862" lon="0.28818">
        <ele>86.99</ele>
        <time>2023-06-23T03:11:26.658Z</time>
      </trkpt>
      <trkpt lat="46.57859" lon="0.28828">
        <ele>87</ele>
        <time>2023-06-23T03:12:36.838Z</time>
      </trkpt>
      <trkpt lat="46.57847" lon="0.28859">
        <ele>87.06</ele>
        <time>2023-06-23T03:13:47.022Z</time>
      </trkpt>
      <trkpt lat="46.57846" lon="0.28862">
        <ele>87.05</ele>
        <time>2023-06-23T03:14:57.206Z</time>
      </trkpt>
      <trkpt lat="46.57842" lon="0.28869">
        <ele>87.05</ele>
        <time>2023-06-23T03:16:07.391Z</time>
      </trkpt>
      <trkpt lat="46.57836" lon="0.28878">
        <ele>86.99</ele>
        <time>2023-06-23T03:17:17.577Z</time>
      </trkpt>
      <trkpt lat="46.57829" lon="0.28888">
        <ele>86.87</ele>
        <time>2023-06-23T03:18:27.765Z</time>
      </trkpt>
      <trkpt lat="46.57828" lon="0.2889">
        <ele>86.82</ele>
        <time>2023-06-23T03:19:37.953Z</time>
      </trkpt>
      <trkpt lat="46.57815" lon="0.28903">
        <ele>86.54</ele>
        <time>2023-06-23T03:20:48.144Z</time>
      </trkpt>
      <trkpt lat="46.57789" lon="0.28929">
        <ele>86</ele>
        <time>2023-06-23T03:21:58.340Z</time>
      </trkpt>
      <trkpt lat="46.57785" lon="0.28934">
        <ele>85.91</ele>
        <time>2023-06-23T03:23:08.537Z</time>
      </trkpt>
      <trkpt lat="46.57782" lon="0.28935">
        <ele>85.86</ele>
        <time>2023-06-23T03:24:18.734Z</time>
      </trkpt>
      <trkpt lat="46.57777" lon="0.28936">
        <ele>85.81</ele>
        <time>2023-06-23T03:25:28.932Z</time>
      </trkpt>
      <trkpt lat="46.5777" lon="0.28938">
        <ele>85.76</ele>
        <time>2023-06-23T03:26:39.131Z</time>
      </trkpt>
      <trkpt lat="46.57768" lon="0.28938">
        <ele>85.76</ele>
        <time>2023-06-23T03:27:49.330Z</time>
      </trkpt>
      <trkpt lat="46.57741" lon="0.2894">
        <ele>85.71</ele>
        <time>2023-06-23T03:28:59.534Z</time>
      </trkpt>
      <trkpt lat="46.57737" lon="0.28939">
        <ele>85.71</ele>
        <time>2023-06-23T03:30:09.738Z</time>
      </trkpt>
      <trkpt lat="46.57717" lon="0.28935">
        <ele>85.72</ele>
        <time>2023-06-23T03:31:19.946Z</time>
      </trkpt>
      <trkpt lat="46.57715" lon="0.28934">
        <ele>85.73</ele>
        <time>2023-06-23T03:32:30.154Z</time>
      </trkpt>
      <trkpt lat="46.57689" lon="0.28925">
        <ele>85.79</ele>
        <time>2023-06-23T03:33:40.366Z</time>
      </trkpt>
      <trkpt lat="46.57676" lon="0.28921">
        <ele>85.91</ele>
        <time>2023-06-23T03:34:50.580Z</time>
      </trkpt>
      <trkpt lat="46.57645" lon="0.2891">
        <ele>86.31</ele>
        <time>2023-06-23T03:36:00.799Z</time>
      </trkpt>
      <trkpt lat="46.57645" lon="0.2891">
        <ele>86.31</ele>
        <time>2023-06-23T03:37:11.018Z</time>
      </trkpt>
      <trkpt lat="46.57637" lon="0.28907">
        <ele>86.39</ele>
        <time>2023-06-23T03:38:21.239Z</time>
      </trkpt>
      <trkpt lat="46.57628" lon="0.28903">
        <ele>86.42</ele>
        <time>2023-06-23T03:39:31.461Z</time>
      </trkpt>
      <trkpt lat="46.57619" lon="0.289">
        <ele>86.41</ele>
        <time>2023-06-23T03:40:41.685Z</time>
      </trkpt>
      <trkpt lat="46.57611" lon="0.28897">
        <ele>86.36</ele>
        <time>2023-06-23T03:41:51.910Z</time>
      </trkpt>
      <trkpt lat="46.5758" lon="0.28885">
        <ele>86.09</ele>
        <time>2023-06-23T03:43:02.140Z</time>
      </trkpt>
      <trkpt lat="46.57572" lon="0.28881">
        <ele>86.02</ele>
        <time>2023-06-23T03:44:12.372Z</time>
      </trkpt>
      <trkpt lat="46.57555" lon="0.28873">
        <ele>85.83</ele>
        <time>2023-06-23T03:45:22.606Z</time>
      </trkpt>
      <trkpt lat="46.57544" lon="0.28868">
        <ele>85.67</ele>
        <time>2023-06-23T03:46:32.842Z</time>
      </trkpt>
      <trkpt lat="46.57534" lon="0.2886">
        <ele>85.52</ele>
        <time>2023-06-23T03:47:43.080Z</time>
      </trkpt>
      <trkpt lat="46.57527" lon="0.28854">
        <ele>85.46</ele>
        <time>2023-06-23T03:48:53.319Z</time>
      </trkpt>
      <trkpt lat="46.57519" lon="0.28848">
        <ele>85.48</ele>
        <time>2023-06-23T03:50:03.560Z</time>
      </trkpt>
      <trkpt lat="46.57507" lon="0.28838">
        <ele>85.55</ele>
        <time>2023-06-23T03:51:13.803Z</time>
      </trkpt>
      <trkpt lat="46.57499" lon="0.28832">
        <ele>85.62</ele>
        <time>2023-06-23T03:52:24.047Z</time>
      </trkpt>
      <trkpt lat="46.57488" lon="0.28822">
        <ele>85.76</ele>
        <time>2023-06-23T03:53:34.294Z</time>
      </trkpt>
      <trkpt lat="46.5748" lon="0.28816">
        <ele>85.82</ele>
        <time>2023-06-23T03:54:44.542Z</time>
      </trkpt>
      <trkpt lat="46.5746" lon="0.288">
        <ele>85.82</ele>
        <time>2023-06-23T03:55:54.794Z</time>
      </trkpt>
      <trkpt lat="46.57429" lon="0.28775">
        <ele>85.9</ele>
        <time>2023-06-23T03:57:05.051Z</time>
      </trkpt>
      <trkpt lat="46.57422" lon="0.28769">
        <ele>85.93</ele>
        <time>2023-06-23T03:58:15.310Z</time>
      </trkpt>
      <trkpt lat="46.57397" lon="0.28752">
        <ele>86.06</ele>
        <time>2023-06-23T03:59:25.573Z</time>
      </trkpt>
      <trkpt lat="46.57389" lon="0.28746">
        <ele>86.06</ele>
        <time>2023-06-23T04:00:35.838Z</time>
      </trkpt>
      <trkpt lat="46.57368" lon="0.28732">
        <ele>86.02</ele>
        <time>2023-06-23T04:01:46.106Z</time>
      </trkpt>
      <trkpt lat="46.57352" lon="0.28721">
        <ele>86.05</ele>
        <time>2023-06-23T04:02:56.377Z</time>
      </trkpt>
      <trkpt lat="46.57349" lon="0.28719">
        <ele>86.06</ele>
        <time>2023-06-23T04:04:06.649Z</time>
      </trkpt>
      <trkpt lat="46.57344" lon="0.28718">
        <ele>86.08</ele>
        <time>2023-06-23T04:05:16.921Z</time>
      </trkpt>
      <trkpt lat="46.57321" lon="0.28714">
        <ele>86.22</ele>
        <time>2023-06-23T04:06:27.197Z</time>
      </trkpt>
      <trkpt lat="46.57316" lon="0.28713">
        <ele>86.22</ele>
        <time>2023-06-23T04:07:37.474Z</time>
      </trkpt>
      <trkpt lat="46.57313" lon="0.28715">
        <ele>86.22</ele>
        <time>2023-06-23T04:08:47.751Z</time>
      </trkpt>
      <trkpt lat="46.57303" lon="0.2872">
        <ele>86.18</ele>
        <time>2023-06-23T04:09:58.030Z</time>
      </trkpt>
      <trkpt lat="46.57296" lon="0.28726">
        <ele>86.15</ele>
        <time>2023-06-23T04:11:08.310Z</time>
      </trkpt>
      <trkpt lat="46.5729" lon="0.28735">
        <ele>86.13</ele>
        <time>2023-06-23T04:12:18.592Z</time>
      </trkpt>
      <trkpt lat="46.57282" lon="0.28747">
        <ele>86.06</ele>
        <time>2023-06-23T04:13:28.876Z</time>
      </trkpt>
      <trkpt lat="46.57281" lon="0.28749">
        <ele>86.06</ele>
        <time>2023-06-23T04:14:39.160Z</time>
      </trkpt>
      <trkpt lat="46.57273" lon="0.2878">
        <ele>85.84</ele>
        <time>2023-06-23T04:15:49.448Z</time>
      </trkpt>
      <trkpt lat="46.5727" lon="0.2879">
        <ele>85.78</ele>
        <time>2023-06-23T04:16:59.737Z</time>
      </trkpt>
      <trkpt lat="46.5727" lon="0.28792">
        <ele>85.78</ele>
        <time>2023-06-23T04:18:10.026Z</time>
      </trkpt>
      <trkpt lat="46.57268" lon="0.28811">
        <ele>85.73</ele>
        <time>2023-06-23T04:19:20.317Z</time>
      </trkpt>
      <trkpt lat="46.57268" lon="0.28818">
        <ele>85.72</ele>
        <time>2023-06-23T04:20:30.609Z</time>
      </trkpt>
      <trkpt lat="46.57268" lon="0.28844">
        <ele>85.7</ele>
        <time>2023-06-23T04:21:40.904Z</time>
      </trkpt>
      <trkpt lat="46.57267" lon="0.28877">
        <ele>85.65</ele>
        <time>2023-06-23T04:22:51.202Z</time>
      </trkpt>
      <trkpt lat="46.57267" lon="0.28903">
        <ele>85.58</ele>
        <time>2023-06-23T04:24:01.503Z</time>
      </trkpt>
      <trkpt lat="46.57267" lon="0.28908">
        <ele>85.54</ele>
        <time>2023-06-23T04:25:11.805Z</time>
      </trkpt>
      <trkpt lat="46.57267" lon="0.2891">
        <ele>85.54</ele>
        <time>2023-06-23T04:26:22.107Z</time>
      </trkpt>
      <trkpt lat="46.57268" lon="0.28923">
        <ele>85.41</ele>
        <time>2023-06-23T04:27:32.410Z</time>
      </trkpt>
      <trkpt lat="46.57268" lon="0.28934">
        <ele>85.24</ele>
        <time>2023-06-23T04:28:42.715Z</time>
      </trkpt>
      <trkpt lat="46.57258" lon="0.28932">
        <ele>85.02</ele>
        <time>2023-06-23T04:29:53.021Z</time>
      </trkpt>
      <trkpt lat="46.57249" lon="0.28929">
        <ele>84.86</ele>
        <time>2023-06-23T04:31:03.329Z</time>
      </trkpt>
      <trkpt lat="46.5724" lon="0.28927">
        <ele>84.77</ele>
        <time>2023-06-23T04:32:13.638Z</time>
      </trkpt>
      <trkpt lat="46.57227" lon="0.28924">
        <ele>84.68</ele>
        <time>2023-06-23T04:33:23.949Z</time>
      </trkpt>
      <trkpt lat="46.57218" lon="0.28922">
        <ele>84.65</ele>
        <time>2023-06-23T04:34:34.262Z</time>
      </trkpt>
      <trkpt lat="46.57209" lon="0.2892">
        <ele>84.66</ele>
        <time>2023-06-23T04:35:44.576Z</time>
      </trkpt>
      <trkpt lat="46.57174" lon="0.28911">
        <ele>84.85</ele>
        <time>2023-06-23T04:36:54.896Z</time>
      </trkpt>
      <trkpt lat="46.57172" lon="0.28911">
        <ele>84.85</ele>
        <time>2023-06-23T04:38:05.216Z</time>
      </trkpt>
      <trkpt lat="46.57164" lon="0.28912">
        <ele>84.85</ele>
        <time>2023-06-23T04:39:15.538Z</time>
      </trkpt>
      <trkpt lat="46.57161" lon="0.28923">
        <ele>84.85</ele>
        <time>2023-06-23T04:40:25.861Z</time>
      </trkpt>
      <trkpt lat="46.57159" lon="0.28932">
        <ele>84.86</ele>
        <time>2023-06-23T04:41:36.185Z</time>
      </trkpt>
      <trkpt lat="46.57155" lon="0.28936">
        <ele>84.88</ele>
        <time>2023-06-23T04:42:46.510Z</time>
      </trkpt>
      <trkpt lat="46.57146" lon="0.28936">
        <ele>84.91</ele>
        <time>2023-06-23T04:43:56.836Z</time>
      </trkpt>
      <trkpt lat="46.57144" lon="0.28938">
        <ele>84.92</ele>
        <time>2023-06-23T04:45:07.162Z</time>
      </trkpt>
      <trkpt lat="46.57142" lon="0.2894">
        <ele>84.91</ele>
        <time>2023-06-23T04:46:17.489Z</time>
      </trkpt>
      <trkpt lat="46.57141" lon="0.28949">
        <ele>84.91</ele>
        <time>2023-06-23T04:47:27.817Z</time>
      </trkpt>
      <trkpt lat="46.57141" lon="0.28951">
        <ele>84.9</ele>
        <time>2023-06-23T04:48:38.145Z</time>
      </trkpt>
      <trkpt lat="46.57146" lon="0.28981">
        <ele>84.81</ele>
        <time>2023-06-23T04:49:48.477Z</time>
      </trkpt>
      <trkpt lat="46.5715" lon="0.29006">
        <ele>84.69</ele>
        <time>2023-06-23T04:50:58.811Z</time>
      </trkpt>
      <trkpt lat="46.57152" lon="0.29016">
        <ele>84.65</ele>
        <time>2023-06-23T04:52:09.146Z</time>
      </trkpt>
      <trkpt lat="46.57153" lon="0.29019">
        <ele>84.65</ele>
        <time>2023-06-23T04:53:19.482Z</time>
      </trkpt>
      <trkpt lat="46.57163" lon="0.29055">
        <ele>84.67</ele>
        <time>2023-06-23T04:54:29.822Z</time>
      </trkpt>
      <trkpt lat="46.5717" lon="0.29079">
        <ele>84.61</ele>
        <time>2023-06-23T04:55:40.165Z</time>
      </trkpt>
      <trkpt lat="46.57174" lon="0.29091">
        <ele>84.53</ele>
        <time>2023-06-23T04:56:50.510Z</time>
      </trkpt>
      <trkpt lat="46.57179" lon="0.29109">
        <ele>84.35</ele>
        <time>2023-06-23T04:58:00.857Z</time>
      </trkpt>
      <trkpt lat="46.57183" lon="0.29121">
        <ele>84.25</ele>
        <time>2023-06-23T04:59:11.205Z</time>
      </trkpt>
      <trkpt lat="46.57189" lon="0.29143">
        <ele>84.16</ele>
        <time>2023-06-23T05:00:21.556Z</time>
      </trkpt>
      <trkpt lat="46.5719" lon="0.29145">
        <ele>84.15</ele>
        <time>2023-06-23T05:01:31.907Z</time>
      </trkpt>
      <trkpt lat="46.572" lon="0.29174">
        <ele>84.13</ele>
        <time>2023-06-23T05:02:42.262Z</time>
      </trkpt>
      <trkpt lat="46.57217" lon="0.29221">
        <ele>84.21</ele>
        <time>2023-06-23T05:03:52.622Z</time>
      </trkpt>
      <trkpt lat="46.57221" lon="0.29232">
        <ele>84.2</ele>
        <time>2023-06-23T05:05:02.984Z</time>
      </trkpt>
      <trkpt lat="46.57227" lon="0.2925">
        <ele>84.1</ele>
        <time>2023-06-23T05:06:13.348Z</time>
      </trkpt>
      <trkpt lat="46.57238" lon="0.29279">
        <ele>83.85</ele>
        <time>2023-06-23T05:07:23.716Z</time>
      </trkpt>
      <trkpt lat="46.57242" lon="0.2929">
        <ele>83.77</ele>
        <time>2023-06-23T05:08:34.085Z</time>
      </trkpt>
      <trkpt lat="46.57246" lon="0.29302">
        <ele>83.75</ele>
        <time>2023-06-23T05:09:44.455Z</time>
      </trkpt>
      <trkpt lat="46.57251" lon="0.29316">
        <ele>83.74</ele>
        <time>2023-06-23T05:10:54.827Z</time>
      </trkpt>
      <trkpt lat="46.57257" lon="0.2933">
        <ele>83.74</ele>
        <time>2023-06-23T05:12:05.201Z</time>
      </trkpt>
      <trkpt lat="46.57269" lon="0.29358">
        <ele>83.76</ele>
        <time>2023-06-23T05:13:15.579Z</time>
      </trkpt>
      <trkpt lat="46.57274" lon="0.29369">
        <ele>83.72</ele>
        <time>2023-06-23T05:14:25.958Z</time>
      </trkpt>
      <trkpt lat="46.57278" lon="0.2938">
        <ele>83.65</ele>
        <time>2023-06-23T05:15:36.339Z</time>
      </trkpt>
      <trkpt lat="46.57288" lon="0.29402">
        <ele>83.57</ele>
        <time>2023-06-23T05:16:46.722Z</time>
      </trkpt>
      <trkpt lat="46.57291" lon="0.2941">
        <ele>83.56</ele>
        <time>2023-06-23T05:17:57.106Z</time>
      </trkpt>
      <trkpt lat="46.57297" lon="0.29441">
        <ele>83.54</ele>
        <time>2023-06-23T05:19:07.494Z</time>
      </trkpt>
      <trkpt lat="46.57299" lon="0.29444">
        <ele>83.54</ele>
        <time>2023-06-23T05:20:17.882Z</time>
      </trkpt>
      <trkpt lat="46.57318" lon="0.29479">
        <ele>83.41</ele>
        <time>2023-06-23T05:21:28.275Z</time>
      </trkpt>
      <trkpt lat="46.57325" lon="0.29493">
        <ele>83.42</ele>
        <time>2023-06-23T05:22:38.670Z</time>
      </trkpt>
      <trkpt lat="46.57326" lon="0.29495">
        <ele>83.43</ele>
        <time>2023-06-23T05:23:49.065Z</time>
      </trkpt>
      <trkpt lat="46.57343" lon="0.29524">
        <ele>83.52</ele>
        <time>2023-06-23T05:24:59.465Z</time>
      </trkpt>
      <trkpt lat="46.57347" lon="0.2953">
        <ele>83.52</ele>
        <time>2023-06-23T05:26:09.866Z</time>
      </trkpt>
      <trkpt lat="46.57358" lon="0.29557">
        <ele>83.52</ele>
        <time>2023-06-23T05:27:20.270Z</time>
      </trkpt>
      <trkpt lat="46.57367" lon="0.29579">
        <ele>83.21</ele>
        <time>2023-06-23T05:28:30.677Z</time>
      </trkpt>
      <trkpt lat="46.57374" lon="0.29596">
        <ele>83.01</ele>
        <time>2023-06-23T05:29:41.086Z</time>
      </trkpt>
      <trkpt lat="46.57381" lon="0.29613">
        <ele>82.9</ele>
        <time>2023-06-23T05:30:51.497Z</time>
      </trkpt>
      <trkpt lat="46.57383" lon="0.29617">
        <ele>82.89</ele>
        <time>2023-06-23T05:32:01.909Z</time>
      </trkpt>
      <trkpt lat="46.57388" lon="0.2963">
        <ele>82.89</ele>
        <time>2023-06-23T05:33:12.322Z</time>
      </trkpt>
      <trkpt lat="46.57396" lon="0.29652">
        <ele>82.95</ele>
        <time>2023-06-23T05:34:22.738Z</time>
      </trkpt>
      <trkpt lat="46.57401" lon="0.29664">
        <ele>83.02</ele>
        <time>2023-06-23T05:35:33.156Z</time>
      </trkpt>
      <trkpt lat="46.57407" lon="0.29681">
        <ele>83.21</ele>
        <time>2023-06-23T05:36:43.576Z</time>
      </trkpt>
      <trkpt lat="46.5742" lon="0.29715">
        <ele>83.69</ele>
        <time>2023-06-23T05:37:54.000Z</time>
      </trkpt>
      <trkpt lat="46.57427" lon="0.29732">
        <ele>83.7</ele>
        <time>2023-06-23T05:39:04.426Z</time>
      </trkpt>
      <trkpt lat="46.57429" lon="0.29738">
        <ele>83.69</ele>
        <time>2023-06-23T05:40:14.853Z</time>
      </trkpt>
      <trkpt lat="46.57437" lon="0.29761">
        <ele>83.57</ele>
        <time>2023-06-23T05:41:25.283Z</time>
      </trkpt>
      <trkpt lat="46.57439" lon="0.29765">
        <ele>83.57</ele>
        <time>2023-06-23T05:42:35.713Z</time>
      </trkpt>
      <trkpt lat="46.5744" lon="0.29773">
        <ele>83.58</ele>
        <time>2023-06-23T05:43:46.144Z</time>
      </trkpt>
      <trkpt lat="46.57443" lon="0.29786">
        <ele>83.62</ele>
        <time>2023-06-23T05:44:56.577Z</time>
      </trkpt>
      <trkpt lat="46.57447" lon="0.29811">
        <ele>83.75</ele>
        <time>2023-06-23T05:46:07.013Z</time>
      </trkpt>
      <trkpt lat="46.57453" lon="0.29842">
        <ele>83.87</ele>
        <time>2023-06-23T05:47:17.452Z</time>
      </trkpt>
      <trkpt lat="46.57455" lon="0.29853">
        <ele>83.92</ele>
        <time>2023-06-23T05:48:27.893Z</time>
      </trkpt>
      <trkpt lat="46.57453" lon="0.29856">
        <ele>83.94</ele>
        <time>2023-06-23T05:49:38.334Z</time>
      </trkpt>
      <trkpt lat="46.57452" lon="0.29863">
        <ele>83.98</ele>
        <time>2023-06-23T05:50:48.776Z</time>
      </trkpt>
      <trkpt lat="46.57454" lon="0.29873">
        <ele>84.04</ele>
        <time>2023-06-23T05:51:59.219Z</time>
      </trkpt>
      <trkpt lat="46.57456" lon="0.29879">
        <ele>84.05</ele>
        <time>2023-06-23T05:53:09.663Z</time>
      </trkpt>
      <trkpt lat="46.57457" lon="0.29885">
        <ele>84.03</ele>
        <time>2023-06-23T05:54:20.107Z</time>
      </trkpt>
      <trkpt lat="46.57462" lon="0.29907">
        <ele>83.91</ele>
        <time>2023-06-23T05:55:30.554Z</time>
      </trkpt>
      <trkpt lat="46.57463" lon="0.2991">
        <ele>83.9</ele>
        <time>2023-06-23T05:56:41.001Z</time>
      </trkpt>
      <trkpt lat="46.57469" lon="0.29927">
        <ele>83.85</ele>
        <time>2023-06-23T05:57:51.450Z</time>
      </trkpt>
      <trkpt lat="46.57475" lon="0.29936">
        <ele>83.83</ele>
        <time>2023-06-23T05:59:01.901Z</time>
      </trkpt>
      <trkpt lat="46.57485" lon="0.29951">
        <ele>83.7</ele>
        <time>2023-06-23T06:00:12.354Z</time>
      </trkpt>
      <trkpt lat="46.57495" lon="0.29987">
        <ele>83.47</ele>
        <time>2023-06-23T06:01:22.811Z</time>
      </trkpt>
      <trkpt lat="46.575" lon="0.30005">
        <ele>83.3</ele>
        <time>2023-06-23T06:02:33.270Z</time>
      </trkpt>
      <trkpt lat="46.57501" lon="0.30009">
        <ele>83.24</ele>
        <time>2023-06-23T06:03:43.730Z</time>
      </trkpt>
      <trkpt lat="46.57505" lon="0.3003">
        <ele>83</ele>
        <time>2023-06-23T06:04:54.192Z</time>
      </trkpt>
      <trkpt lat="46.57505" lon="0.30032">
        <ele>82.98</ele>
        <time>2023-06-23T06:06:04.655Z</time>
      </trkpt>
      <trkpt lat="46.57504" lon="0.30049">
        <ele>82.85</ele>
        <time>2023-06-23T06:07:15.119Z</time>
      </trkpt>
      <trkpt lat="46.57503" lon="0.30069">
        <ele>82.79</ele>
        <time>2023-06-23T06:08:25.586Z</time>
      </trkpt>
      <trkpt lat="46.57501" lon="0.30114">
        <ele>82.82</ele>
        <time>2023-06-23T06:09:36.058Z</time>
      </trkpt>
      <trkpt lat="46.57501" lon="0.30117">
        <ele>82.83</ele>
        <time>2023-06-23T06:10:46.530Z</time>
      </trkpt>
      <trkpt lat="46.57494" lon="0.3013">
        <ele>82.91</ele>
        <time>2023-06-23T06:11:57.004Z</time>
      </trkpt>
      <trkpt lat="46.57493" lon="0.30132">
        <ele>82.92</ele>
        <time>2023-06-23T06:13:07.478Z</time>
      </trkpt>
      <trkpt lat="46.57484" lon="0.30144">
        <ele>83.08</ele>
        <time>2023-06-23T06:14:17.954Z</time>
      </trkpt>
      <trkpt lat="46.57475" lon="0.30158">
        <ele>83.29</ele>
        <time>2023-06-23T06:15:28.432Z</time>
      </trkpt>
      <trkpt lat="46.57469" lon="0.30167">
        <ele>83.45</ele>
        <time>2023-06-23T06:16:38.912Z</time>
      </trkpt>
      <trkpt lat="46.57459" lon="0.30181">
        <ele>83.73</ele>
        <time>2023-06-23T06:17:49.394Z</time>
      </trkpt>
      <trkpt lat="46.57455" lon="0.30183">
        <ele>83.83</ele>
        <time>2023-06-23T06:18:59.876Z</time>
      </trkpt>
      <trkpt lat="46.57451" lon="0.30185">
        <ele>83.91</ele>
        <time>2023-06-23T06:20:10.359Z</time>
      </trkpt>
      <trkpt lat="46.57433" lon="0.30193">
        <ele>84.13</ele>
        <time>2023-06-23T06:21:20.845Z</time>
      </trkpt>
      <trkpt lat="46.57428" lon="0.30196">
        <ele>84.24</ele>
        <time>2023-06-23T06:22:31.332Z</time>
      </trkpt>
      <trkpt lat="46.57425" lon="0.30198">
        <ele>84.31</ele>
        <time>2023-06-23T06:23:41.819Z</time>
      </trkpt>
      <trkpt lat="46.57421" lon="0.302">
        <ele>84.45</ele>
        <time>2023-06-23T06:24:52.307Z</time>
      </trkpt>
      <trkpt lat="46.57414" lon="0.30205">
        <ele>84.73</ele>
        <time>2023-06-23T06:26:02.796Z</time>
      </trkpt>
      <trkpt lat="46.57408" lon="0.30206">
        <ele>84.95</ele>
        <time>2023-06-23T06:27:13.286Z</time>
      </trkpt>
      <trkpt lat="46.57404" lon="0.30206">
        <ele>85.09</ele>
        <time>2023-06-23T06:28:23.777Z</time>
      </trkpt>
      <trkpt lat="46.57399" lon="0.30206">
        <ele>85.2</ele>
        <time>2023-06-23T06:29:34.269Z</time>
      </trkpt>
      <trkpt lat="46.57395" lon="0.30207">
        <ele>85.27</ele>
        <time>2023-06-23T06:30:44.762Z</time>
      </trkpt>
      <trkpt lat="46.5739" lon="0.30207">
        <ele>85.3</ele>
        <time>2023-06-23T06:31:55.255Z</time>
      </trkpt>
      <trkpt lat="46.57386" lon="0.30208">
        <ele>85.3</ele>
        <time>2023-06-23T06:33:05.749Z</time>
      </trkpt>
      <trkpt lat="46.57383" lon="0.30208">
        <ele>85.28</ele>
        <time>2023-06-23T06:34:16.243Z</time>
      </trkpt>
      <trkpt lat="46.57382" lon="0.30209">
        <ele>85.27</ele>
        <time>2023-06-23T06:35:26.738Z</time>
      </trkpt>
      <trkpt lat="46.57379" lon="0.30212">
        <ele>85.21</ele>
        <time>2023-06-23T06:36:37.233Z</time>
      </trkpt>
      <trkpt lat="46.57379" lon="0.30214">
        <ele>85.2</ele>
        <time>2023-06-23T06:37:47.728Z</time>
      </trkpt>
      <trkpt lat="46.57378" lon="0.30232">
        <ele>84.92</ele>
        <time>2023-06-23T06:38:58.225Z</time>
      </trkpt>
      <trkpt lat="46.57379" lon="0.3024">
        <ele>84.81</ele>
        <time>2023-06-23T06:40:08.723Z</time>
      </trkpt>
      <trkpt lat="46.57379" lon="0.30246">
        <ele>84.74</ele>
        <time>2023-06-23T06:41:19.222Z</time>
      </trkpt>
      <trkpt lat="46.5738" lon="0.30259">
        <ele>84.65</ele>
        <time>2023-06-23T06:42:29.722Z</time>
      </trkpt>
      <trkpt lat="46.57381" lon="0.30267">
        <ele>84.62</ele>
        <time>2023-06-23T06:43:40.223Z</time>
      </trkpt>
      <trkpt lat="46.57373" lon="0.30266">
        <ele>84.58</ele>
        <time>2023-06-23T06:44:50.726Z</time>
      </trkpt>
      <trkpt lat="46.57364" lon="0.30264">
        <ele>84.46</ele>
        <time>2023-06-23T06:46:01.230Z</time>
      </trkpt>
      <trkpt lat="46.5736" lon="0.30264">
        <ele>84.36</ele>
        <time>2023-06-23T06:47:11.735Z</time>
      </trkpt>
      <trkpt lat="46.57355" lon="0.30263">
        <ele>84.23</ele>
        <time>2023-06-23T06:48:22.240Z</time>
      </trkpt>
      <trkpt lat="46.57337" lon="0.3026">
        <ele>83.54</ele>
        <time>2023-06-23T06:49:32.748Z</time>
      </trkpt>
      <trkpt lat="46.57328" lon="0.30259">
        <ele>83.24</ele>
        <time>2023-06-23T06:50:43.258Z</time>
      </trkpt>
      <trkpt lat="46.5732" lon="0.30258">
        <ele>82.98</ele>
        <time>2023-06-23T06:51:53.769Z</time>
      </trkpt>
      <trkpt lat="46.57316" lon="0.30257">
        <ele>82.87</ele>
        <time>2023-06-23T06:53:04.281Z</time>
      </trkpt>
      <trkpt lat="46.57315" lon="0.30257">
        <ele>82.87</ele>
        <time>2023-06-23T06:54:14.793Z</time>
      </trkpt>
      <trkpt lat="46.57306" lon="0.30254">
        <ele>82.71</ele>
        <time>2023-06-23T06:55:25.306Z</time>
      </trkpt>
      <trkpt lat="46.57298" lon="0.30252">
        <ele>82.63</ele>
        <time>2023-06-23T06:56:35.821Z</time>
      </trkpt>
      <trkpt lat="46.57271" lon="0.30244">
        <ele>82.61</ele>
        <time>2023-06-23T06:57:46.340Z</time>
      </trkpt>
      <trkpt lat="46.57262" lon="0.30241">
        <ele>82.57</ele>
        <time>2023-06-23T06:58:56.861Z</time>
      </trkpt>
      <trkpt lat="46.57258" lon="0.3024">
        <ele>82.54</ele>
        <time>2023-06-23T07:00:07.382Z</time>
      </trkpt>
      <trkpt lat="46.57241" lon="0.30232">
        <ele>82.43</ele>
        <time>2023-06-23T07:01:17.906Z</time>
      </trkpt>
      <trkpt lat="46.57199" lon="0.30211">
        <ele>82.28</ele>
        <time>2023-06-23T07:02:28.437Z</time>
      </trkpt>
      <trkpt lat="46.57193" lon="0.30208">
        <ele>82.23</ele>
        <time>2023-06-23T07:03:38.969Z</time>
      </trkpt>
      <trkpt lat="46.57177" lon="0.30202">
        <ele>82.11</ele>
        <time>2023-06-23T07:04:49.504Z</time>
      </trkpt>
      <trkpt lat="46.57169" lon="0.30198">
        <ele>82.09</ele>
        <time>2023-06-23T07:06:00.040Z</time>
      </trkpt>
      <trkpt lat="46.57161" lon="0.30195">
        <ele>82.11</ele>
        <time>2023-06-23T07:07:10.578Z</time>
      </trkpt>
      <trkpt lat="46.57156" lon="0.30193">
        <ele>82.14</ele>
        <time>2023-06-23T07:08:21.116Z</time>
      </trkpt>
      <trkpt lat="46.57148" lon="0.30191">
        <ele>82.15</ele>
        <time>2023-06-23T07:09:31.656Z</time>
      </trkpt>
      <trkpt lat="46.57139" lon="0.30188">
        <ele>82.07</ele>
        <time>2023-06-23T07:10:42.197Z</time>
      </trkpt>
      <trkpt lat="46.57131" lon="0.30187">
        <ele>82.01</ele>
        <time>2023-06-23T07:11:52.739Z</time>
      </trkpt>
      <trkpt lat="46.57122" lon="0.30186">
        <ele>81.99</ele>
        <time>2023-06-23T07:13:03.283Z</time>
      </trkpt>
      <trkpt lat="46.57118" lon="0.30186">
        <ele>82.02</ele>
        <time>2023-06-23T07:14:13.827Z</time>
      </trkpt>
      <trkpt lat="46.57117" lon="0.30186">
        <ele>82.03</ele>
        <time>2023-06-23T07:15:24.372Z</time>
      </trkpt>
      <trkpt lat="46.57114" lon="0.30186">
        <ele>82.08</ele>
        <time>2023-06-23T07:16:34.917Z</time>
      </trkpt>
      <trkpt lat="46.57109" lon="0.30186">
        <ele>82.16</ele>
        <time>2023-06-23T07:17:45.463Z</time>
      </trkpt>
      <trkpt lat="46.57101" lon="0.30187">
        <ele>82.39</ele>
        <time>2023-06-23T07:18:56.010Z</time>
      </trkpt>
      <trkpt lat="46.57092" lon="0.30188">
        <ele>82.34</ele>
        <time>2023-06-23T07:20:06.559Z</time>
      </trkpt>
      <trkpt lat="46.57087" lon="0.30188">
        <ele>82.28</ele>
        <time>2023-06-23T07:21:17.108Z</time>
      </trkpt>
      <trkpt lat="46.57072" lon="0.30189">
        <ele>81.96</ele>
        <time>2023-06-23T07:22:27.660Z</time>
      </trkpt>
      <trkpt lat="46.57061" lon="0.30193">
        <ele>81.74</ele>
        <time>2023-06-23T07:23:38.214Z</time>
      </trkpt>
      <trkpt lat="46.57052" lon="0.30195">
        <ele>81.6</ele>
        <time>2023-06-23T07:24:48.769Z</time>
      </trkpt>
      <trkpt lat="46.57043" lon="0.30198">
        <ele>81.51</ele>
        <time>2023-06-23T07:25:59.326Z</time>
      </trkpt>
      <trkpt lat="46.57041" lon="0.30199">
        <ele>81.49</ele>
        <time>2023-06-23T07:27:09.883Z</time>
      </trkpt>
      <trkpt lat="46.57035" lon="0.30203">
        <ele>81.45</ele>
        <time>2023-06-23T07:28:20.441Z</time>
      </trkpt>
      <trkpt lat="46.57007" lon="0.30224">
        <ele>81.27</ele>
        <time>2023-06-23T07:29:31.004Z</time>
      </trkpt>
      <trkpt lat="46.57005" lon="0.30226">
        <ele>81.26</ele>
        <time>2023-06-23T07:30:41.567Z</time>
      </trkpt>
      <trkpt lat="46.56984" lon="0.30244">
        <ele>81.23</ele>
        <time>2023-06-23T07:31:52.134Z</time>
      </trkpt>
      <trkpt lat="46.56976" lon="0.30252">
        <ele>81.23</ele>
        <time>2023-06-23T07:33:02.703Z</time>
      </trkpt>
      <trkpt lat="46.56962" lon="0.30266">
        <ele>81.24</ele>
        <time>2023-06-23T07:34:13.275Z</time>
      </trkpt>
      <trkpt lat="46.5696" lon="0.30269">
        <ele>81.23</ele>
        <time>2023-06-23T07:35:23.847Z</time>
      </trkpt>
      <trkpt lat="46.56952" lon="0.30279">
        <ele>81.22</ele>
        <time>2023-06-23T07:36:34.421Z</time>
      </trkpt>
      <trkpt lat="46.56944" lon="0.3029">
        <ele>81.19</ele>
        <time>2023-06-23T07:37:44.997Z</time>
      </trkpt>
      <trkpt lat="46.56937" lon="0.30303">
        <ele>81.16</ele>
        <time>2023-06-23T07:38:55.574Z</time>
      </trkpt>
      <trkpt lat="46.56927" lon="0.30323">
        <ele>81.05</ele>
        <time>2023-06-23T07:40:06.154Z</time>
      </trkpt>
      <trkpt lat="46.56922" lon="0.30321">
        <ele>81.02</ele>
        <time>2023-06-23T07:41:16.735Z</time>
      </trkpt>
      <trkpt lat="46.56909" lon="0.30315">
        <ele>80.98</ele>
        <time>2023-06-23T07:42:27.318Z</time>
      </trkpt>
      <trkpt lat="46.56906" lon="0.30314">
        <ele>80.97</ele>
        <time>2023-06-23T07:43:37.902Z</time>
      </trkpt>
      <trkpt lat="46.56892" lon="0.30294">
        <ele>80.97</ele>
        <time>2023-06-23T07:44:48.489Z</time>
      </trkpt>
      <trkpt lat="46.56886" lon="0.30285">
        <ele>81.01</ele>
        <time>2023-06-23T07:45:59.077Z</time>
      </trkpt>
      <trkpt lat="46.5688" lon="0.30276">
        <ele>81.13</ele>
        <time>2023-06-23T07:47:09.667Z</time>
      </trkpt>
      <trkpt lat="46.56873" lon="0.30267">
        <ele>81.29</ele>
        <time>2023-06-23T07:48:20.258Z</time>
      </trkpt>
      <trkpt lat="46.56854" lon="0.3024">
        <ele>81.9</ele>
        <time>2023-06-23T07:49:30.853Z</time>
      </trkpt>
      <trkpt lat="46.56845" lon="0.30226">
        <ele>81.86</ele>
        <time>2023-06-23T07:50:41.450Z</time>
      </trkpt>
      <trkpt lat="46.56837" lon="0.30215">
        <ele>81.8</ele>
        <time>2023-06-23T07:51:52.049Z</time>
      </trkpt>
      <trkpt lat="46.56829" lon="0.30204">
        <ele>81.73</ele>
        <time>2023-06-23T07:53:02.650Z</time>
      </trkpt>
      <trkpt lat="46.56827" lon="0.30207">
        <ele>81.72</ele>
        <time>2023-06-23T07:54:13.251Z</time>
      </trkpt>
      <trkpt lat="46.56816" lon="0.30227">
        <ele>81.58</ele>
        <time>2023-06-23T07:55:23.855Z</time>
      </trkpt>
      <trkpt lat="46.56814" lon="0.30231">
        <ele>81.56</ele>
        <time>2023-06-23T07:56:34.460Z</time>
      </trkpt>
      <trkpt lat="46.5681" lon="0.30265">
        <ele>81.44</ele>
        <time>2023-06-23T07:57:45.068Z</time>
      </trkpt>
      <trkpt lat="46.56803" lon="0.30331">
        <ele>81.32</ele>
        <time>2023-06-23T07:58:55.684Z</time>
      </trkpt>
      <trkpt lat="46.56803" lon="0.30335">
        <ele>81.32</ele>
        <time>2023-06-23T08:00:06.300Z</time>
      </trkpt>
      <trkpt lat="46.56801" lon="0.30348">
        <ele>81.32</ele>
        <time>2023-06-23T08:01:16.918Z</time>
      </trkpt>
      <trkpt lat="46.56799" lon="0.3038">
        <ele>81.39</ele>
        <time>2023-06-23T08:02:27.539Z</time>
      </trkpt>
      <trkpt lat="46.56795" lon="0.30419">
        <ele>81.42</ele>
        <time>2023-06-23T08:03:38.165Z</time>
      </trkpt>
      <trkpt lat="46.56792" lon="0.30458">
        <ele>81.41</ele>
        <time>2023-06-23T08:04:48.795Z</time>
      </trkpt>
      <trkpt lat="46.56789" lon="0.3049">
        <ele>81.37</ele>
        <time>2023-06-23T08:05:59.429Z</time>
      </trkpt>
      <trkpt lat="46.56787" lon="0.30516">
        <ele>81.37</ele>
        <time>2023-06-23T08:07:10.066Z</time>
      </trkpt>
      <trkpt lat="46.56785" lon="0.30535">
        <ele>81.43</ele>
        <time>2023-06-23T08:08:20.705Z</time>
      </trkpt>
      <trkpt lat="46.56784" lon="0.30545">
        <ele>81.49</ele>
        <time>2023-06-23T08:09:31.345Z</time>
      </trkpt>
      <trkpt lat="46.56785" lon="0.30548">
        <ele>81.51</ele>
        <time>2023-06-23T08:10:41.985Z</time>
      </trkpt>
      <trkpt lat="46.56794" lon="0.30592">
        <ele>81.9</ele>
        <time>2023-06-23T08:11:52.630Z</time>
      </trkpt>
      <trkpt lat="46.56802" lon="0.30635">
        <ele>82.22</ele>
        <time>2023-06-23T08:13:03.280Z</time>
      </trkpt>
      <trkpt lat="46.56803" lon="0.30638">
        <ele>82.23</ele>
        <time>2023-06-23T08:14:13.930Z</time>
      </trkpt>
      <trkpt lat="46.56806" lon="0.30647">
        <ele>82.28</ele>
        <time>2023-06-23T08:15:24.582Z</time>
      </trkpt>
      <trkpt lat="46.5681" lon="0.30657">
        <ele>82.29</ele>
        <time>2023-06-23T08:16:35.235Z</time>
      </trkpt>
      <trkpt lat="46.56811" lon="0.30658">
        <ele>82.3</ele>
        <time>2023-06-23T08:17:45.888Z</time>
      </trkpt>
      <trkpt lat="46.56824" lon="0.30664">
        <ele>82.26</ele>
        <time>2023-06-23T08:18:56.543Z</time>
      </trkpt>
      <trkpt lat="46.56832" lon="0.30668">
        <ele>82.19</ele>
        <time>2023-06-23T08:20:07.200Z</time>
      </trkpt>
      <trkpt lat="46.56835" lon="0.30669">
        <ele>82.16</ele>
        <time>2023-06-23T08:21:17.857Z</time>
      </trkpt>
      <trkpt lat="46.5684" lon="0.30675">
        <ele>82.1</ele>
        <time>2023-06-23T08:22:28.515Z</time>
      </trkpt>
      <trkpt lat="46.56853" lon="0.30692">
        <ele>81.86</ele>
        <time>2023-06-23T08:23:39.176Z</time>
      </trkpt>
      <trkpt lat="46.5686" lon="0.30701">
        <ele>81.76</ele>
        <time>2023-06-23T08:24:49.838Z</time>
      </trkpt>
      <trkpt lat="46.56873" lon="0.30718">
        <ele>81.62</ele>
        <time>2023-06-23T08:26:00.503Z</time>
      </trkpt>
      <trkpt lat="46.56876" lon="0.30722">
        <ele>81.6</ele>
        <time>2023-06-23T08:27:11.169Z</time>
      </trkpt>
      <trkpt lat="46.56883" lon="0.30731">
        <ele>81.6</ele>
        <time>2023-06-23T08:28:21.836Z</time>
      </trkpt>
      <trkpt lat="46.56887" lon="0.30736">
        <ele>81.62</ele>
        <time>2023-06-23T08:29:32.504Z</time>
      </trkpt>
      <trkpt lat="46.56905" lon="0.30754">
        <ele>81.72</ele>
        <time>2023-06-23T08:30:43.176Z</time>
      </trkpt>
      <trkpt lat="46.56908" lon="0.30758">
        <ele>81.72</ele>
        <time>2023-06-23T08:31:53.848Z</time>
      </trkpt>
      <trkpt lat="46.56911" lon="0.30763">
        <ele>81.72</ele>
        <time>2023-06-23T08:33:04.521Z</time>
      </trkpt>
      <trkpt lat="46.56921" lon="0.30777">
        <ele>81.64</ele>
        <time>2023-06-23T08:34:15.196Z</time>
      </trkpt>
      <trkpt lat="46.56933" lon="0.30796">
        <ele>81.48</ele>
        <time>2023-06-23T08:35:25.874Z</time>
      </trkpt>
      <trkpt lat="46.56939" lon="0.30805">
        <ele>81.39</ele>
        <time>2023-06-23T08:36:36.553Z</time>
      </trkpt>
      <trkpt lat="46.56948" lon="0.30819">
        <ele>81.3</ele>
        <time>2023-06-23T08:37:47.235Z</time>
      </trkpt>
      <trkpt lat="46.56958" lon="0.30833">
        <ele>81.06</ele>
        <time>2023-06-23T08:38:57.919Z</time>
      </trkpt>
      <trkpt lat="46.5697" lon="0.30852">
        <ele>80.7</ele>
        <time>2023-06-23T08:40:08.606Z</time>
      </trkpt>
      <trkpt lat="46.56976" lon="0.30861">
        <ele>80.56</ele>
        <time>2023-06-23T08:41:19.294Z</time>
      </trkpt>
      <trkpt lat="46.56983" lon="0.30871">
        <ele>80.47</ele>
        <time>2023-06-23T08:42:29.984Z</time>
      </trkpt>
      <trkpt lat="46.56986" lon="0.30876">
        <ele>80.43</ele>
        <time>2023-06-23T08:43:40.674Z</time>
      </trkpt>
      <trkpt lat="46.56991" lon="0.30885">
        <ele>80.38</ele>
        <time>2023-06-23T08:44:51.366Z</time>
      </trkpt>
      <trkpt lat="46.57006" lon="0.3091">
        <ele>80.3</ele>
        <time>2023-06-23T08:46:02.061Z</time>
      </trkpt>
      <trkpt lat="46.57012" lon="0.3092">
        <ele>80.3</ele>
        <time>2023-06-23T08:47:12.758Z</time>
      </trkpt>
      <trkpt lat="46.57017" lon="0.3093">
        <ele>80.32</ele>
        <time>2023-06-23T08:48:23.456Z</time>
      </trkpt>
      <trkpt lat="46.57021" lon="0.30935">
        <ele>80.34</ele>
        <time>2023-06-23T08:49:34.155Z</time>
      </trkpt>
      <trkpt lat="46.57024" lon="0.30938">
        <ele>80.49</ele>
        <time>2023-06-23T08:50:44.855Z</time>
      </trkpt>
      <trkpt lat="46.57027" lon="0.30943">
        <ele>80.59</ele>
        <time>2023-06-23T08:51:55.555Z</time>
      </trkpt>
      <trkpt lat="46.57039" lon="0.30957">
        <ele>80.78</ele>
        <time>2023-06-23T08:53:06.258Z</time>
      </trkpt>
      <trkpt lat="46.57049" lon="0.30969">
        <ele>80.68</ele>
        <time>2023-06-23T08:54:16.963Z</time>
      </trkpt>
      <trkpt lat="46.57063" lon="0.30986">
        <ele>80.6</ele>
        <time>2023-06-23T08:55:27.671Z</time>
      </trkpt>
      <trkpt lat="46.57066" lon="0.30991">
        <ele>80.58</ele>
        <time>2023-06-23T08:56:38.379Z</time>
      </trkpt>
      <trkpt lat="46.57086" lon="0.31017">
        <ele>80.38</ele>
        <time>2023-06-23T08:57:49.092Z</time>
      </trkpt>
      <trkpt lat="46.57093" lon="0.31026">
        <ele>80.36</ele>
        <time>2023-06-23T08:58:59.806Z</time>
      </trkpt>
      <trkpt lat="46.5711" lon="0.31048">
        <ele>80.37</ele>
        <time>2023-06-23T09:00:10.524Z</time>
      </trkpt>
      <trkpt lat="46.5711" lon="0.31048">
        <ele>80.37</ele>
        <time>2023-06-23T09:01:21.242Z</time>
      </trkpt>
      <trkpt lat="46.57127" lon="0.31067">
        <ele>80.33</ele>
        <time>2023-06-23T09:02:31.963Z</time>
      </trkpt>
      <trkpt lat="46.57134" lon="0.31043">
        <ele>80.3</ele>
        <time>2023-06-23T09:03:42.687Z</time>
      </trkpt>
      <trkpt lat="46.57136" lon="0.31037">
        <ele>80.3</ele>
        <time>2023-06-23T09:04:53.412Z</time>
      </trkpt>
      <trkpt lat="46.57139" lon="0.31018">
        <ele>80.3</ele>
        <time>2023-06-23T09:06:04.139Z</time>
      </trkpt>
      <trkpt lat="46.5714" lon="0.31014">
        <ele>80.3</ele>
        <time>2023-06-23T09:07:14.867Z</time>
      </trkpt>
      <trkpt lat="46.5714" lon="0.30968">
        <ele>80.37</ele>
        <time>2023-06-23T09:08:25.600Z</time>
      </trkpt>
      <trkpt lat="46.57141" lon="0.3097">
        <ele>80.38</ele>
        <time>2023-06-23T09:09:36.333Z</time>
      </trkpt>
      <trkpt lat="46.57147" lon="0.3098">
        <ele>80.43</ele>
        <time>2023-06-23T09:10:47.067Z</time>
      </trkpt>
      <trkpt lat="46.57155" lon="0.30995">
        <ele>80.56</ele>
        <time>2023-06-23T09:11:57.803Z</time>
      </trkpt>
      <trkpt lat="46.57156" lon="0.30997">
        <ele>80.56</ele>
        <time>2023-06-23T09:13:08.540Z</time>
      </trkpt>
      <trkpt lat="46.57158" lon="0.31">
        <ele>80.58</ele>
        <time>2023-06-23T09:14:19.277Z</time>
      </trkpt>
      <trkpt lat="46.57164" lon="0.31009">
        <ele>80.56</ele>
        <time>2023-06-23T09:15:30.016Z</time>
      </trkpt>
      <trkpt lat="46.57174" lon="0.31023">
        <ele>80.44</ele>
        <time>2023-06-23T09:16:40.757Z</time>
      </trkpt>
      <trkpt lat="46.57175" lon="0.31025">
        <ele>80.43</ele>
        <time>2023-06-23T09:17:51.498Z</time>
      </trkpt>
      <trkpt lat="46.5718" lon="0.31032">
        <ele>80.39</ele>
        <time>2023-06-23T09:19:02.240Z</time>
      </trkpt>
      <trkpt lat="46.57187" lon="0.31041">
        <ele>80.35</ele>
        <time>2023-06-23T09:20:12.984Z</time>
      </trkpt>
      <trkpt lat="46.57194" lon="0.31049">
        <ele>80.33</ele>
        <time>2023-06-23T09:21:23.729Z</time>
      </trkpt>
      <trkpt lat="46.57204" lon="0.31062">
        <ele>80.38</ele>
        <time>2023-06-23T09:22:34.476Z</time>
      </trkpt>
      <trkpt lat="46.57214" lon="0.31075">
        <ele>80.52</ele>
        <time>2023-06-23T09:23:45.225Z</time>
      </trkpt>
      <trkpt lat="46.5722" lon="0.31083">
        <ele>80.53</ele>
        <time>2023-06-23T09:24:55.976Z</time>
      </trkpt>
      <trkpt lat="46.5723" lon="0.31095">
        <ele>80.43</ele>
        <time>2023-06-23T09:26:06.729Z</time>
      </trkpt>
      <trkpt lat="46.57237" lon="0.31104">
        <ele>80.39</ele>
        <time>2023-06-23T09:27:17.483Z</time>
      </trkpt>
      <trkpt lat="46.57243" lon="0.31112">
        <ele>80.4</ele>
        <time>2023-06-23T09:28:28.239Z</time>
      </trkpt>
      <trkpt lat="46.57251" lon="0.31122">
        <ele>80.44</ele>
        <time>2023-06-23T09:29:38.996Z</time>
      </trkpt>
      <trkpt lat="46.57258" lon="0.31134">
        <ele>80.5</ele>
        <time>2023-06-23T09:30:49.755Z</time>
      </trkpt>
      <trkpt lat="46.57275" lon="0.31161">
        <ele>80.48</ele>
        <time>2023-06-23T09:32:00.518Z</time>
      </trkpt>
      <trkpt lat="46.57276" lon="0.31162">
        <ele>80.48</ele>
        <time>2023-06-23T09:33:11.281Z</time>
      </trkpt>
      <trkpt lat="46.57281" lon="0.31172">
        <ele>80.49</ele>
        <time>2023-06-23T09:34:22.046Z</time>
      </trkpt>
      <trkpt lat="46.57286" lon="0.31182">
        <ele>80.55</ele>
        <time>2023-06-23T09:35:32.812Z</time>
      </trkpt>
      <trkpt lat="46.57289" lon="0.31187">
        <ele>80.6</ele>
        <time>2023-06-23T09:36:43.579Z</time>
      </trkpt>
      <trkpt lat="46.57294" lon="0.31197">
        <ele>80.75</ele>
        <time>2023-06-23T09:37:54.347Z</time>
      </trkpt>
      <trkpt lat="46.57302" lon="0.31212">
        <ele>81.04</ele>
        <time>2023-06-23T09:39:05.117Z</time>
      </trkpt>
      <trkpt lat="46.57313" lon="0.31233">
        <ele>81.25</ele>
        <time>2023-06-23T09:40:15.890Z</time>
      </trkpt>
      <trkpt lat="46.57316" lon="0.31239">
        <ele>81.29</ele>
        <time>2023-06-23T09:41:26.664Z</time>
      </trkpt>
      <trkpt lat="46.57321" lon="0.31248">
        <ele>81.31</ele>
        <time>2023-06-23T09:42:37.439Z</time>
      </trkpt>
      <trkpt lat="46.57322" lon="0.31249">
        <ele>81.32</ele>
        <time>2023-06-23T09:43:48.214Z</time>
      </trkpt>
      <trkpt lat="46.57324" lon="0.31254">
        <ele>81.32</ele>
        <time>2023-06-23T09:44:58.990Z</time>
      </trkpt>
      <trkpt lat="46.57329" lon="0.31265">
        <ele>81.27</ele>
        <time>2023-06-23T09:46:09.767Z</time>
      </trkpt>
      <trkpt lat="46.57337" lon="0.31282">
        <ele>81.15</ele>
        <time>2023-06-23T09:47:20.547Z</time>
      </trkpt>
      <trkpt lat="46.57346" lon="0.31302">
        <ele>80.93</ele>
        <time>2023-06-23T09:48:31.329Z</time>
      </trkpt>
      <trkpt lat="46.57348" lon="0.31309">
        <ele>80.86</ele>
        <time>2023-06-23T09:49:42.112Z</time>
      </trkpt>
      <trkpt lat="46.57352" lon="0.31321">
        <ele>80.77</ele>
        <time>2023-06-23T09:50:52.897Z</time>
      </trkpt>
      <trkpt lat="46.57356" lon="0.31333">
        <ele>80.77</ele>
        <time>2023-06-23T09:52:03.683Z</time>
      </trkpt>
      <trkpt lat="46.5736" lon="0.31346">
        <ele>80.83</ele>
        <time>2023-06-23T09:53:14.471Z</time>
      </trkpt>
      <trkpt lat="46.57361" lon="0.31351">
        <ele>80.86</ele>
        <time>2023-06-23T09:54:25.259Z</time>
      </trkpt>
      <trkpt lat="46.57379" lon="0.31432">
        <ele>80.67</ele>
        <time>2023-06-23T09:55:36.057Z</time>
      </trkpt>
      <trkpt lat="46.57379" lon="0.31434">
        <ele>80.66</ele>
        <time>2023-06-23T09:56:46.855Z</time>
      </trkpt>
      <trkpt lat="46.5737" lon="0.31441">
        <ele>80.6</ele>
        <time>2023-06-23T09:57:57.654Z</time>
      </trkpt>
      <trkpt lat="46.57359" lon="0.3144">
        <ele>80.55</ele>
        <time>2023-06-23T09:59:08.455Z</time>
      </trkpt>
      <trkpt lat="46.5735" lon="0.3144">
        <ele>80.54</ele>
        <time>2023-06-23T10:00:19.258Z</time>
      </trkpt>
      <trkpt lat="46.57335" lon="0.31439">
        <ele>80.58</ele>
        <time>2023-06-23T10:01:30.063Z</time>
      </trkpt>
      <trkpt lat="46.5731" lon="0.31445">
        <ele>80.67</ele>
        <time>2023-06-23T10:02:40.872Z</time>
      </trkpt>
      <trkpt lat="46.57293" lon="0.31449">
        <ele>80.76</ele>
        <time>2023-06-23T10:03:51.684Z</time>
      </trkpt>
      <trkpt lat="46.57275" lon="0.31445">
        <ele>80.86</ele>
        <time>2023-06-23T10:05:02.499Z</time>
      </trkpt>
      <trkpt lat="46.5727" lon="0.31446">
        <ele>80.89</ele>
        <time>2023-06-23T10:06:13.315Z</time>
      </trkpt>
      <trkpt lat="46.57268" lon="0.31447">
        <ele>80.89</ele>
        <time>2023-06-23T10:07:24.131Z</time>
      </trkpt>
      <trkpt lat="46.57262" lon="0.31453">
        <ele>80.89</ele>
        <time>2023-06-23T10:08:34.948Z</time>
      </trkpt>
      <trkpt lat="46.57251" lon="0.31464">
        <ele>80.83</ele>
        <time>2023-06-23T10:09:45.767Z</time>
      </trkpt>
      <trkpt lat="46.57237" lon="0.31478">
        <ele>80.92</ele>
        <time>2023-06-23T10:10:56.589Z</time>
      </trkpt>
      <trkpt lat="46.57237" lon="0.31478">
        <ele>80.92</ele>
        <time>2023-06-23T10:12:07.411Z</time>
      </trkpt>
      <trkpt lat="46.57244" lon="0.31495">
        <ele>81.07</ele>
        <time>2023-06-23T10:13:18.235Z</time>
      </trkpt>
      <trkpt lat="46.5725" lon="0.31512">
        <ele>81.31</ele>
        <time>2023-06-23T10:14:29.061Z</time>
      </trkpt>
      <trkpt lat="46.57256" lon="0.31529">
        <ele>81.62</ele>
        <time>2023-06-23T10:15:39.889Z</time>
      </trkpt>
      <trkpt lat="46.57261" lon="0.31541">
        <ele>81.66</ele>
        <time>2023-06-23T10:16:50.719Z</time>
      </trkpt>
      <trkpt lat="46.57271" lon="0.31567">
        <ele>81.46</ele>
        <time>2023-06-23T10:18:01.552Z</time>
      </trkpt>
      <trkpt lat="46.57274" lon="0.31575">
        <ele>81.4</ele>
        <time>2023-06-23T10:19:12.386Z</time>
      </trkpt>
      <trkpt lat="46.57281" lon="0.31609">
        <ele>81.21</ele>
        <time>2023-06-23T10:20:23.224Z</time>
      </trkpt>
      <trkpt lat="46.57288" lon="0.31641">
        <ele>80.96</ele>
        <time>2023-06-23T10:21:34.066Z</time>
      </trkpt>
      <trkpt lat="46.5729" lon="0.31658">
        <ele>80.84</ele>
        <time>2023-06-23T10:22:44.910Z</time>
      </trkpt>
      <trkpt lat="46.57291" lon="0.31664">
        <ele>80.81</ele>
        <time>2023-06-23T10:23:55.754Z</time>
      </trkpt>
      <trkpt lat="46.57292" lon="0.31721">
        <ele>80.63</ele>
        <time>2023-06-23T10:25:06.605Z</time>
      </trkpt>
      <trkpt lat="46.57292" lon="0.3176">
        <ele>80.53</ele>
        <time>2023-06-23T10:26:17.460Z</time>
      </trkpt>
      <trkpt lat="46.57292" lon="0.31779">
        <ele>80.42</ele>
        <time>2023-06-23T10:27:28.317Z</time>
      </trkpt>
      <trkpt lat="46.57292" lon="0.31798">
        <ele>80.35</ele>
        <time>2023-06-23T10:28:39.176Z</time>
      </trkpt>
      <trkpt lat="46.57293" lon="0.31837">
        <ele>80.3</ele>
        <time>2023-06-23T10:29:50.040Z</time>
      </trkpt>
      <trkpt lat="46.57293" lon="0.31863">
        <ele>80.32</ele>
        <time>2023-06-23T10:31:00.906Z</time>
      </trkpt>
      <trkpt lat="46.57294" lon="0.31869">
        <ele>80.33</ele>
        <time>2023-06-23T10:32:11.773Z</time>
      </trkpt>
      <trkpt lat="46.57301" lon="0.319">
        <ele>80.46</ele>
        <time>2023-06-23T10:33:22.644Z</time>
      </trkpt>
      <trkpt lat="46.57304" lon="0.31912">
        <ele>80.49</ele>
        <time>2023-06-23T10:34:33.516Z</time>
      </trkpt>
      <trkpt lat="46.57311" lon="0.31943">
        <ele>80.51</ele>
        <time>2023-06-23T10:35:44.392Z</time>
      </trkpt>
      <trkpt lat="46.57321" lon="0.31973">
        <ele>80.54</ele>
        <time>2023-06-23T10:36:55.271Z</time>
      </trkpt>
      <trkpt lat="46.57324" lon="0.31984">
        <ele>80.52</ele>
        <time>2023-06-23T10:38:06.152Z</time>
      </trkpt>
      <trkpt lat="46.57332" lon="0.32008">
        <ele>80.44</ele>
        <time>2023-06-23T10:39:17.036Z</time>
      </trkpt>
      <trkpt lat="46.57341" lon="0.32036">
        <ele>80.39</ele>
        <time>2023-06-23T10:40:27.923Z</time>
      </trkpt>
      <trkpt lat="46.57344" lon="0.32049">
        <ele>80.38</ele>
        <time>2023-06-23T10:41:38.812Z</time>
      </trkpt>
      <trkpt lat="46.57352" lon="0.32079">
        <ele>80.5</ele>
        <time>2023-06-23T10:42:49.704Z</time>
      </trkpt>
      <trkpt lat="46.57358" lon="0.32102">
        <ele>80.51</ele>
        <time>2023-06-23T10:44:00.599Z</time>
      </trkpt>
      <trkpt lat="46.57358" lon="0.32103">
        <ele>80.51</ele>
        <time>2023-06-23T10:45:11.494Z</time>
      </trkpt>
      <trkpt lat="46.5736" lon="0.32108">
        <ele>80.57</ele>
        <time>2023-06-23T10:46:22.390Z</time>
      </trkpt>
      <trkpt lat="46.57362" lon="0.3212">
        <ele>80.75</ele>
        <time>2023-06-23T10:47:33.287Z</time>
      </trkpt>
      <trkpt lat="46.57366" lon="0.32135">
        <ele>80.91</ele>
        <time>2023-06-23T10:48:44.186Z</time>
      </trkpt>
      <trkpt lat="46.57373" lon="0.32164">
        <ele>81.6</ele>
        <time>2023-06-23T10:49:55.088Z</time>
      </trkpt>
      <trkpt lat="46.57375" lon="0.3217">
        <ele>81.72</ele>
        <time>2023-06-23T10:51:05.991Z</time>
      </trkpt>
      <trkpt lat="46.57376" lon="0.32176">
        <ele>81.8</ele>
        <time>2023-06-23T10:52:16.895Z</time>
      </trkpt>
      <trkpt lat="46.57378" lon="0.32182">
        <ele>81.85</ele>
        <time>2023-06-23T10:53:27.799Z</time>
      </trkpt>
      <trkpt lat="46.57379" lon="0.32188">
        <ele>81.86</ele>
        <time>2023-06-23T10:54:38.704Z</time>
      </trkpt>
      <trkpt lat="46.5738" lon="0.32194">
        <ele>81.81</ele>
        <time>2023-06-23T10:55:49.610Z</time>
      </trkpt>
      <trkpt lat="46.57382" lon="0.322">
        <ele>81.72</ele>
        <time>2023-06-23T10:57:00.516Z</time>
      </trkpt>
      <trkpt lat="46.57385" lon="0.32212">
        <ele>81.46</ele>
        <time>2023-06-23T10:58:11.424Z</time>
      </trkpt>
      <trkpt lat="46.57388" lon="0.32224">
        <ele>81.15</ele>
        <time>2023-06-23T10:59:22.333Z</time>
      </trkpt>
      <trkpt lat="46.57389" lon="0.32229">
        <ele>81.14</ele>
        <time>2023-06-23T11:00:33.243Z</time>
      </trkpt>
      <trkpt lat="46.57393" lon="0.32244">
        <ele>81.06</ele>
        <time>2023-06-23T11:01:44.154Z</time>
      </trkpt>
      <trkpt lat="46.57395" lon="0.32255">
        <ele>80.98</ele>
        <time>2023-06-23T11:02:55.067Z</time>
      </trkpt>
      <trkpt lat="46.57398" lon="0.32266">
        <ele>80.93</ele>
        <time>2023-06-23T11:04:05.981Z</time>
      </trkpt>
      <trkpt lat="46.57402" lon="0.32282">
        <ele>80.92</ele>
        <time>2023-06-23T11:05:16.897Z</time>
      </trkpt>
      <trkpt lat="46.57406" lon="0.32297">
        <ele>81.04</ele>
        <time>2023-06-23T11:06:27.815Z</time>
      </trkpt>
      <trkpt lat="46.57411" lon="0.32319">
        <ele>81.39</ele>
        <time>2023-06-23T11:07:38.735Z</time>
      </trkpt>
      <trkpt lat="46.57416" lon="0.32338">
        <ele>81.33</ele>
        <time>2023-06-23T11:08:49.657Z</time>
      </trkpt>
      <trkpt lat="46.57423" lon="0.32368">
        <ele>81.3</ele>
        <time>2023-06-23T11:10:00.583Z</time>
      </trkpt>
      <trkpt lat="46.57429" lon="0.32392">
        <ele>81.3</ele>
        <time>2023-06-23T11:11:11.512Z</time>
      </trkpt>
      <trkpt lat="46.57432" lon="0.32405">
        <ele>81.27</ele>
        <time>2023-06-23T11:12:22.442Z</time>
      </trkpt>
      <trkpt lat="46.57433" lon="0.32411">
        <ele>81.26</ele>
        <time>2023-06-23T11:13:33.373Z</time>
      </trkpt>
      <trkpt lat="46.5744" lon="0.32442">
        <ele>81.1</ele>
        <time>2023-06-23T11:14:44.308Z</time>
      </trkpt>
      <trkpt lat="46.57451" lon="0.32491">
        <ele>80.88</ele>
        <time>2023-06-23T11:15:55.248Z</time>
      </trkpt>
      <trkpt lat="46.57458" lon="0.32522">
        <ele>80.66</ele>
        <time>2023-06-23T11:17:06.192Z</time>
      </trkpt>
      <trkpt lat="46.57462" lon="0.3254">
        <ele>80.55</ele>
        <time>2023-06-23T11:18:17.138Z</time>
      </trkpt>
      <trkpt lat="46.57466" lon="0.32559">
        <ele>80.5</ele>
        <time>2023-06-23T11:19:28.086Z</time>
      </trkpt>
      <trkpt lat="46.57467" lon="0.32563">
        <ele>80.51</ele>
        <time>2023-06-23T11:20:39.035Z</time>
      </trkpt>
      <trkpt lat="46.57468" lon="0.32571">
        <ele>80.54</ele>
        <time>2023-06-23T11:21:49.985Z</time>
      </trkpt>
      <trkpt lat="46.5747" lon="0.32597">
        <ele>80.76</ele>
        <time>2023-06-23T11:23:00.937Z</time>
      </trkpt>
      <trkpt lat="46.57471" lon="0.32609">
        <ele>80.93</ele>
        <time>2023-06-23T11:24:11.891Z</time>
      </trkpt>
      <trkpt lat="46.57471" lon="0.3261">
        <ele>80.93</ele>
        <time>2023-06-23T11:25:22.845Z</time>
      </trkpt>
      <trkpt lat="46.57478" lon="0.32634">
        <ele>81.39</ele>
        <time>2023-06-23T11:26:33.802Z</time>
      </trkpt>
      <trkpt lat="46.5748" lon="0.3264">
        <ele>81.49</ele>
        <time>2023-06-23T11:27:44.759Z</time>
      </trkpt>
      <trkpt lat="46.57483" lon="0.32652">
        <ele>81.63</ele>
        <time>2023-06-23T11:28:55.718Z</time>
      </trkpt>
      <trkpt lat="46.57488" lon="0.3267">
        <ele>81.77</ele>
        <time>2023-06-23T11:30:06.679Z</time>
      </trkpt>
      <trkpt lat="46.57488" lon="0.3267">
        <ele>81.77</ele>
        <time>2023-06-23T11:31:17.640Z</time>
      </trkpt>
      <trkpt lat="46.57503" lon="0.32702">
        <ele>81.95</ele>
        <time>2023-06-23T11:32:28.605Z</time>
      </trkpt>
      <trkpt lat="46.5751" lon="0.32718">
        <ele>81.98</ele>
        <time>2023-06-23T11:33:39.572Z</time>
      </trkpt>
      <trkpt lat="46.57515" lon="0.32729">
        <ele>81.96</ele>
        <time>2023-06-23T11:34:50.541Z</time>
      </trkpt>
      <trkpt lat="46.57527" lon="0.32756">
        <ele>81.85</ele>
        <time>2023-06-23T11:36:01.513Z</time>
      </trkpt>
      <trkpt lat="46.57541" lon="0.32786">
        <ele>81.83</ele>
        <time>2023-06-23T11:37:12.489Z</time>
      </trkpt>
      <trkpt lat="46.5755" lon="0.32804">
        <ele>81.83</ele>
        <time>2023-06-23T11:38:23.468Z</time>
      </trkpt>
      <trkpt lat="46.57562" lon="0.32829">
        <ele>81.77</ele>
        <time>2023-06-23T11:39:34.450Z</time>
      </trkpt>
      <trkpt lat="46.57569" lon="0.32841">
        <ele>81.75</ele>
        <time>2023-06-23T11:40:45.434Z</time>
      </trkpt>
      <trkpt lat="46.57565" lon="0.32842">
        <ele>81.74</ele>
        <time>2023-06-23T11:41:56.419Z</time>
      </trkpt>
      <trkpt lat="46.57545" lon="0.32847">
        <ele>81.8</ele>
        <time>2023-06-23T11:43:07.407Z</time>
      </trkpt>
      <trkpt lat="46.57543" lon="0.32847">
        <ele>81.81</ele>
        <time>2023-06-23T11:44:18.395Z</time>
      </trkpt>
      <trkpt lat="46.57524" lon="0.32848">
        <ele>81.85</ele>
        <time>2023-06-23T11:45:29.386Z</time>
      </trkpt>
      <trkpt lat="46.57516" lon="0.32849">
        <ele>81.87</ele>
        <time>2023-06-23T11:46:40.378Z</time>
      </trkpt>
      <trkpt lat="46.57503" lon="0.32851">
        <ele>82.04</ele>
        <time>2023-06-23T11:47:51.373Z</time>
      </trkpt>
      <trkpt lat="46.57494" lon="0.32853">
        <ele>82.1</ele>
        <time>2023-06-23T11:49:02.369Z</time>
      </trkpt>
      <trkpt lat="46.57493" lon="0.32853">
        <ele>82.1</ele>
        <time>2023-06-23T11:50:13.365Z</time>
      </trkpt>
      <trkpt lat="46.57485" lon="0.32856">
        <ele>82.12</ele>
        <time>2023-06-23T11:51:24.362Z</time>
      </trkpt>
      <trkpt lat="46.57467" lon="0.32863">
        <ele>82.11</ele>
        <time>2023-06-23T11:52:35.362Z</time>
      </trkpt>
      <trkpt lat="46.57459" lon="0.32873">
        <ele>82.11</ele>
        <time>2023-06-23T11:53:46.364Z</time>
      </trkpt>
      <trkpt lat="46.57454" lon="0.32878">
        <ele>82.11</ele>
        <time>2023-06-23T11:54:57.367Z</time>
      </trkpt>
      <trkpt lat="46.57446" lon="0.32884">
        <ele>82.15</ele>
        <time>2023-06-23T11:56:08.372Z</time>
      </trkpt>
      <trkpt lat="46.57446" lon="0.32884">
        <ele>82.15</ele>
        <time>2023-06-23T11:57:19.377Z</time>
      </trkpt>
      <trkpt lat="46.57442" lon="0.32881">
        <ele>82.2</ele>
        <time>2023-06-23T11:58:30.382Z</time>
      </trkpt>
      <trkpt lat="46.57442" lon="0.32881">
        <ele>82.2</ele>
        <time>2023-06-23T11:59:41.387Z</time>
      </trkpt>
      <trkpt lat="46.57435" lon="0.3289">
        <ele>82.34</ele>
        <time>2023-06-23T12:00:52.394Z</time>
      </trkpt>
      <trkpt lat="46.57434" lon="0.32891">
        <ele>82.36</ele>
        <time>2023-06-23T12:02:03.401Z</time>
      </trkpt>
      <trkpt lat="46.57411" lon="0.32906">
        <ele>82.86</ele>
        <time>2023-06-23T12:03:14.412Z</time>
      </trkpt>
      <trkpt lat="46.5741" lon="0.32907">
        <ele>82.88</ele>
        <time>2023-06-23T12:04:25.423Z</time>
      </trkpt>
      <trkpt lat="46.57404" lon="0.32909">
        <ele>83.02</ele>
        <time>2023-06-23T12:05:36.435Z</time>
      </trkpt>
      <trkpt lat="46.57399" lon="0.32907">
        <ele>83.14</ele>
        <time>2023-06-23T12:06:47.448Z</time>
      </trkpt>
      <trkpt lat="46.57398" lon="0.32906">
        <ele>83.17</ele>
        <time>2023-06-23T12:07:58.461Z</time>
      </trkpt>
      <trkpt lat="46.57386" lon="0.32896">
        <ele>83.55</ele>
        <time>2023-06-23T12:09:09.476Z</time>
      </trkpt>
      <trkpt lat="46.57384" lon="0.32894">
        <ele>83.63</ele>
        <time>2023-06-23T12:10:20.492Z</time>
      </trkpt>
      <trkpt lat="46.57374" lon="0.3291">
        <ele>84.11</ele>
        <time>2023-06-23T12:11:31.510Z</time>
      </trkpt>
      <trkpt lat="46.57374" lon="0.3291">
        <ele>84.11</ele>
        <time>2023-06-23T12:12:42.528Z</time>
      </trkpt>
      <trkpt lat="46.57385" lon="0.32924">
        <ele>84.58</ele>
        <time>2023-06-23T12:13:53.549Z</time>
      </trkpt>
      <trkpt lat="46.57381" lon="0.32928">
        <ele>84.74</ele>
        <time>2023-06-23T12:15:04.570Z</time>
      </trkpt>
      <trkpt lat="46.57383" lon="0.32931">
        <ele>84.85</ele>
        <time>2023-06-23T12:16:15.592Z</time>
      </trkpt>
      <trkpt lat="46.5739" lon="0.3294">
        <ele>85.19</ele>
        <time>2023-06-23T12:17:26.615Z</time>
      </trkpt>
      <trkpt lat="46.57393" lon="0.32944">
        <ele>85.39</ele>
        <time>2023-06-23T12:18:37.639Z</time>
      </trkpt>
      <trkpt lat="46.57393" lon="0.32944">
        <ele>85.39</ele>
        <time>2023-06-23T12:19:48.663Z</time>
      </trkpt>
      <trkpt lat="46.57402" lon="0.32962">
        <ele>86.12</ele>
        <time>2023-06-23T12:20:59.689Z</time>
      </trkpt>
      <trkpt lat="46.57404" lon="0.32965">
        <ele>86.27</ele>
        <time>2023-06-23T12:22:10.716Z</time>
      </trkpt>
      <trkpt lat="46.57407" lon="0.3297">
        <ele>86.46</ele>
        <time>2023-06-23T12:23:21.744Z</time>
      </trkpt>
      <trkpt lat="46.5741" lon="0.32975">
        <ele>86.62</ele>
        <time>2023-06-23T12:24:32.772Z</time>
      </trkpt>
      <trkpt lat="46.57413" lon="0.3298">
        <ele>86.75</ele>
        <time>2023-06-23T12:25:43.801Z</time>
      </trkpt>
      <trkpt lat="46.57416" lon="0.32985">
        <ele>86.84</ele>
        <time>2023-06-23T12:26:54.831Z</time>
      </trkpt>
      <trkpt lat="46.57419" lon="0.3299">
        <ele>86.9</ele>
        <time>2023-06-23T12:28:05.861Z</time>
      </trkpt>
      <trkpt lat="46.5743" lon="0.33009">
        <ele>87.09</ele>
        <time>2023-06-23T12:29:16.894Z</time>
      </trkpt>
      <trkpt lat="46.57437" lon="0.3302">
        <ele>87.2</ele>
        <time>2023-06-23T12:30:27.929Z</time>
      </trkpt>
      <trkpt lat="46.57437" lon="0.3302">
        <ele>87.2</ele>
        <time>2023-06-23T12:31:38.964Z</time>
      </trkpt>
      <trkpt lat="46.57441" lon="0.3303">
        <ele>87.36</ele>
        <time>2023-06-23T12:32:50.000Z</time>
      </trkpt>
      <trkpt lat="46.57446" lon="0.33041">
        <ele>87.57</ele>
        <time>2023-06-23T12:34:01.038Z</time>
      </trkpt>
      <trkpt lat="46.57452" lon="0.33056">
        <ele>87.87</ele>
        <time>2023-06-23T12:35:12.078Z</time>
      </trkpt>
      <trkpt lat="46.57453" lon="0.33058">
        <ele>87.92</ele>
        <time>2023-06-23T12:36:23.118Z</time>
      </trkpt>
      <trkpt lat="46.57463" lon="0.33079">
        <ele>88.45</ele>
        <time>2023-06-23T12:37:34.161Z</time>
      </trkpt>
      <trkpt lat="46.57473" lon="0.33101">
        <ele>89.02</ele>
        <time>2023-06-23T12:38:45.207Z</time>
      </trkpt>
      <trkpt lat="46.57477" lon="0.33109">
        <ele>89.25</ele>
        <time>2023-06-23T12:39:56.254Z</time>
      </trkpt>
      <trkpt lat="46.57484" lon="0.33121">
        <ele>89.65</ele>
        <time>2023-06-23T12:41:07.302Z</time>
      </trkpt>
      <trkpt lat="46.57487" lon="0.33126">
        <ele>89.77</ele>
        <time>2023-06-23T12:42:18.351Z</time>
      </trkpt>
      <trkpt lat="46.5749" lon="0.33131">
        <ele>89.86</ele>
        <time>2023-06-23T12:43:29.401Z</time>
      </trkpt>
      <trkpt lat="46.57496" lon="0.33141">
        <ele>89.98</ele>
        <time>2023-06-23T12:44:40.452Z</time>
      </trkpt>
      <trkpt lat="46.57505" lon="0.33154">
        <ele>89.86</ele>
        <time>2023-06-23T12:45:51.505Z</time>
      </trkpt>
      <trkpt lat="46.57518" lon="0.33176">
        <ele>89.53</ele>
        <time>2023-06-23T12:47:02.562Z</time>
      </trkpt>
      <trkpt lat="46.57527" lon="0.3319">
        <ele>89.37</ele>
        <time>2023-06-23T12:48:13.621Z</time>
      </trkpt>
      <trkpt lat="46.57539" lon="0.3321">
        <ele>88.75</ele>
        <time>2023-06-23T12:49:24.683Z</time>
      </trkpt>
      <trkpt lat="46.57545" lon="0.33217">
        <ele>88.51</ele>
        <time>2023-06-23T12:50:35.746Z</time>
      </trkpt>
      <trkpt lat="46.57551" lon="0.33225">
        <ele>88.24</ele>
        <time>2023-06-23T12:51:46.810Z</time>
      </trkpt>
      <trkpt lat="46.57558" lon="0.33232">
        <ele>88.03</ele>
        <time>2023-06-23T12:52:57.875Z</time>
      </trkpt>
      <trkpt lat="46.57568" lon="0.33244">
        <ele>87.81</ele>
        <time>2023-06-23T12:54:08.943Z</time>
      </trkpt>
      <trkpt lat="46.57575" lon="0.33252">
        <ele>87.7</ele>
        <time>2023-06-23T12:55:20.012Z</time>
      </trkpt>
      <trkpt lat="46.57598" lon="0.3328">
        <ele>87.4</ele>
        <time>2023-06-23T12:56:31.086Z</time>
      </trkpt>
      <trkpt lat="46.57617" lon="0.33302">
        <ele>87.12</ele>
        <time>2023-06-23T12:57:42.164Z</time>
      </trkpt>
      <trkpt lat="46.57618" lon="0.33303">
        <ele>87.1</ele>
        <time>2023-06-23T12:58:53.242Z</time>
      </trkpt>
      <trkpt lat="46.57626" lon="0.33311">
        <ele>87.01</ele>
        <time>2023-06-23T13:00:04.321Z</time>
      </trkpt>
      <trkpt lat="46.57627" lon="0.33312">
        <ele>87</ele>
        <time>2023-06-23T13:01:15.401Z</time>
      </trkpt>
      <trkpt lat="46.57634" lon="0.33326">
        <ele>86.78</ele>
        <time>2023-06-23T13:02:26.482Z</time>
      </trkpt>
      <trkpt lat="46.57636" lon="0.33331">
        <ele>87.54</ele>
        <time>2023-06-23T13:03:37.564Z</time>
      </trkpt>
      <trkpt lat="46.57639" lon="0.33336">
        <ele>88.34</ele>
        <time>2023-06-23T13:04:48.647Z</time>
      </trkpt>
      <trkpt lat="46.57642" lon="0.33341">
        <ele>89.22</ele>
        <time>2023-06-23T13:05:59.731Z</time>
      </trkpt>
      <trkpt lat="46.57645" lon="0.33346">
        <ele>90.17</ele>
        <time>2023-06-23T13:07:10.815Z</time>
      </trkpt>
      <trkpt lat="46.5765" lon="0.33357">
        <ele>92.16</ele>
        <time>2023-06-23T13:08:21.901Z</time>
      </trkpt>
      <trkpt lat="46.57653" lon="0.33362">
        <ele>93.09</ele>
        <time>2023-06-23T13:09:32.987Z</time>
      </trkpt>
      <trkpt lat="46.57655" lon="0.33366">
        <ele>93.74</ele>
        <time>2023-06-23T13:10:44.074Z</time>
      </trkpt>
      <trkpt lat="46.57656" lon="0.33367">
        <ele>93.92</ele>
        <time>2023-06-23T13:11:55.161Z</time>
      </trkpt>
      <trkpt lat="46.57659" lon="0.33371">
        <ele>94.66</ele>
        <time>2023-06-23T13:13:06.249Z</time>
      </trkpt>
      <trkpt lat="46.57662" lon="0.33376">
        <ele>95.31</ele>
        <time>2023-06-23T13:14:17.338Z</time>
      </trkpt>
      <trkpt lat="46.57666" lon="0.3338">
        <ele>95.9</ele>
        <time>2023-06-23T13:15:28.427Z</time>
      </trkpt>
      <trkpt lat="46.57671" lon="0.33387">
        <ele>96.79</ele>
        <time>2023-06-23T13:16:39.517Z</time>
      </trkpt>
      <trkpt lat="46.57678" lon="0.33398">
        <ele>98.15</ele>
        <time>2023-06-23T13:17:50.609Z</time>
      </trkpt>
      <trkpt lat="46.57687" lon="0.33411">
        <ele>99.84</ele>
        <time>2023-06-23T13:19:01.703Z</time>
      </trkpt>
      <trkpt lat="46.5769" lon="0.33418">
        <ele>100.64</ele>
        <time>2023-06-23T13:20:12.798Z</time>
      </trkpt>
      <trkpt lat="46.57694" lon="0.3343">
        <ele>101.82</ele>
        <time>2023-06-23T13:21:23.895Z</time>
      </trkpt>
      <trkpt lat="46.57698" lon="0.3344">
        <ele>102.81</ele>
        <time>2023-06-23T13:22:34.993Z</time>
      </trkpt>
      <trkpt lat="46.57702" lon="0.33453">
        <ele>104.03</ele>
        <time>2023-06-23T13:23:46.092Z</time>
      </trkpt>
      <trkpt lat="46.57703" lon="0.33458">
        <ele>104.45</ele>
        <time>2023-06-23T13:24:57.192Z</time>
      </trkpt>
      <trkpt lat="46.57704" lon="0.33466">
        <ele>105.1</ele>
        <time>2023-06-23T13:26:08.293Z</time>
      </trkpt>
      <trkpt lat="46.57708" lon="0.33485">
        <ele>106.61</ele>
        <time>2023-06-23T13:27:19.396Z</time>
      </trkpt>
      <trkpt lat="46.5771" lon="0.33497">
        <ele>107.34</ele>
        <time>2023-06-23T13:28:30.500Z</time>
      </trkpt>
      <trkpt lat="46.57711" lon="0.33504">
        <ele>107.72</ele>
        <time>2023-06-23T13:29:41.605Z</time>
      </trkpt>
      <trkpt lat="46.57719" lon="0.33526">
        <ele>108.99</ele>
        <time>2023-06-23T13:30:52.713Z</time>
      </trkpt>
      <trkpt lat="46.57723" lon="0.33538">
        <ele>109.62</ele>
        <time>2023-06-23T13:32:03.822Z</time>
      </trkpt>
      <trkpt lat="46.57723" lon="0.33538">
        <ele>109.62</ele>
        <time>2023-06-23T13:33:14.931Z</time>
      </trkpt>
      <trkpt lat="46.57728" lon="0.33547">
        <ele>110.16</ele>
        <time>2023-06-23T13:34:26.042Z</time>
      </trkpt>
      <trkpt lat="46.57733" lon="0.33557">
        <ele>110.6</ele>
        <time>2023-06-23T13:35:37.154Z</time>
      </trkpt>
      <trkpt lat="46.57738" lon="0.33567">
        <ele>110.92</ele>
        <time>2023-06-23T13:36:48.268Z</time>
      </trkpt>
      <trkpt lat="46.57744" lon="0.33578">
        <ele>110.84</ele>
        <time>2023-06-23T13:37:59.383Z</time>
      </trkpt>
      <trkpt lat="46.57751" lon="0.33592">
        <ele>111.18</ele>
        <time>2023-06-23T13:39:10.500Z</time>
      </trkpt>
      <trkpt lat="46.57759" lon="0.33606">
        <ele>111.46</ele>
        <time>2023-06-23T13:40:21.619Z</time>
      </trkpt>
      <trkpt lat="46.57761" lon="0.33611">
        <ele>111.43</ele>
        <time>2023-06-23T13:41:32.739Z</time>
      </trkpt>
      <trkpt lat="46.57769" lon="0.33624">
        <ele>111.37</ele>
        <time>2023-06-23T13:42:43.860Z</time>
      </trkpt>
      <trkpt lat="46.57777" lon="0.33637">
        <ele>111.78</ele>
        <time>2023-06-23T13:43:54.983Z</time>
      </trkpt>
      <trkpt lat="46.57779" lon="0.3364">
        <ele>111.92</ele>
        <time>2023-06-23T13:45:06.107Z</time>
      </trkpt>
      <trkpt lat="46.57785" lon="0.33649">
        <ele>112.07</ele>
        <time>2023-06-23T13:46:17.232Z</time>
      </trkpt>
      <trkpt lat="46.57794" lon="0.33664">
        <ele>112.36</ele>
        <time>2023-06-23T13:47:28.359Z</time>
      </trkpt>
      <trkpt lat="46.57804" lon="0.3368">
        <ele>112.71</ele>
        <time>2023-06-23T13:48:39.489Z</time>
      </trkpt>
      <trkpt lat="46.57806" lon="0.33684">
        <ele>112.79</ele>
        <time>2023-06-23T13:49:50.619Z</time>
      </trkpt>
      <trkpt lat="46.57817" lon="0.33712">
        <ele>113.42</ele>
        <time>2023-06-23T13:51:01.753Z</time>
      </trkpt>
      <trkpt lat="46.57826" lon="0.33735">
        <ele>114</ele>
        <time>2023-06-23T13:52:12.890Z</time>
      </trkpt>
      <trkpt lat="46.57835" lon="0.33758">
        <ele>114.66</ele>
        <time>2023-06-23T13:53:24.030Z</time>
      </trkpt>
      <trkpt lat="46.57848" lon="0.33792">
        <ele>115.55</ele>
        <time>2023-06-23T13:54:35.174Z</time>
      </trkpt>
      <trkpt lat="46.5785" lon="0.33797">
        <ele>115.68</ele>
        <time>2023-06-23T13:55:46.319Z</time>
      </trkpt>
      <trkpt lat="46.57853" lon="0.33803">
        <ele>115.83</ele>
        <time>2023-06-23T13:56:57.464Z</time>
      </trkpt>
      <trkpt lat="46.5786" lon="0.33819">
        <ele>116.22</ele>
        <time>2023-06-23T13:58:08.612Z</time>
      </trkpt>
      <trkpt lat="46.57862" lon="0.33823">
        <ele>116.32</ele>
        <time>2023-06-23T13:59:19.760Z</time>
      </trkpt>
      <trkpt lat="46.57871" lon="0.3384">
        <ele>116.78</ele>
        <time>2023-06-23T14:00:30.910Z</time>
      </trkpt>
      <trkpt lat="46.57873" lon="0.33843">
        <ele>116.86</ele>
        <time>2023-06-23T14:01:42.061Z</time>
      </trkpt>
      <trkpt lat="46.57898" lon="0.33874">
        <ele>117.78</ele>
        <time>2023-06-23T14:02:53.217Z</time>
      </trkpt>
      <trkpt lat="46.57904" lon="0.33881">
        <ele>117.96</ele>
        <time>2023-06-23T14:04:04.374Z</time>
      </trkpt>
      <trkpt lat="46.57909" lon="0.33886">
        <ele>118.1</ele>
        <time>2023-06-23T14:05:15.532Z</time>
      </trkpt>
      <trkpt lat="46.5792" lon="0.33898">
        <ele>118.4</ele>
        <time>2023-06-23T14:06:26.693Z</time>
      </trkpt>
      <trkpt lat="46.57921" lon="0.33899">
        <ele>118.42</ele>
        <time>2023-06-23T14:07:37.854Z</time>
      </trkpt>
      <trkpt lat="46.57931" lon="0.33906">
        <ele>118.6</ele>
        <time>2023-06-23T14:08:49.017Z</time>
      </trkpt>
      <trkpt lat="46.57947" lon="0.33917">
        <ele>118.93</ele>
        <time>2023-06-23T14:10:00.182Z</time>
      </trkpt>
      <trkpt lat="46.57955" lon="0.33923">
        <ele>119.08</ele>
        <time>2023-06-23T14:11:11.349Z</time>
      </trkpt>
      <trkpt lat="46.57964" lon="0.33929">
        <ele>119.2</ele>
        <time>2023-06-23T14:12:22.517Z</time>
      </trkpt>
      <trkpt lat="46.57967" lon="0.33931">
        <ele>119.25</ele>
        <time>2023-06-23T14:13:33.686Z</time>
      </trkpt>
      <trkpt lat="46.57976" lon="0.33935">
        <ele>119.31</ele>
        <time>2023-06-23T14:14:44.856Z</time>
      </trkpt>
      <trkpt lat="46.57984" lon="0.3394">
        <ele>119.34</ele>
        <time>2023-06-23T14:15:56.028Z</time>
      </trkpt>
      <trkpt lat="46.57988" lon="0.33941">
        <ele>119.36</ele>
        <time>2023-06-23T14:17:07.201Z</time>
      </trkpt>
      <trkpt lat="46.57997" lon="0.33943">
        <ele>119.35</ele>
        <time>2023-06-23T14:18:18.375Z</time>
      </trkpt>
      <trkpt lat="46.58007" lon="0.33946">
        <ele>119.31</ele>
        <time>2023-06-23T14:19:29.551Z</time>
      </trkpt>
      <trkpt lat="46.58006" lon="0.33957">
        <ele>119.29</ele>
        <time>2023-06-23T14:20:40.728Z</time>
      </trkpt>
      <trkpt lat="46.58004" lon="0.33969">
        <ele>119.35</ele>
        <time>2023-06-23T14:21:51.906Z</time>
      </trkpt>
      <trkpt lat="46.58002" lon="0.33982">
        <ele>119.45</ele>
        <time>2023-06-23T14:23:03.086Z</time>
      </trkpt>
      <trkpt lat="46.57999" lon="0.34007">
        <ele>119.68</ele>
        <time>2023-06-23T14:24:14.268Z</time>
      </trkpt>
      <trkpt lat="46.57997" lon="0.34026">
        <ele>119.9</ele>
        <time>2023-06-23T14:25:25.453Z</time>
      </trkpt>
      <trkpt lat="46.57996" lon="0.34031">
        <ele>119.93</ele>
        <time>2023-06-23T14:26:36.638Z</time>
      </trkpt>
      <trkpt lat="46.58009" lon="0.34034">
        <ele>120.06</ele>
        <time>2023-06-23T14:27:47.825Z</time>
      </trkpt>
      <trkpt lat="46.58013" lon="0.34036">
        <ele>120.1</ele>
        <time>2023-06-23T14:28:59.013Z</time>
      </trkpt>
      <trkpt lat="46.58032" lon="0.34044">
        <ele>120.34</ele>
        <time>2023-06-23T14:30:10.204Z</time>
      </trkpt>
      <trkpt lat="46.58037" lon="0.34047">
        <ele>120.42</ele>
        <time>2023-06-23T14:31:21.396Z</time>
      </trkpt>
      <trkpt lat="46.58041" lon="0.34049">
        <ele>120.46</ele>
        <time>2023-06-23T14:32:32.589Z</time>
      </trkpt>
      <trkpt lat="46.58044" lon="0.34053">
        <ele>120.51</ele>
        <time>2023-06-23T14:33:43.782Z</time>
      </trkpt>
      <trkpt lat="46.58047" lon="0.34056">
        <ele>120.53</ele>
        <time>2023-06-23T14:34:54.976Z</time>
      </trkpt>
      <trkpt lat="46.58065" lon="0.34065">
        <ele>120.65</ele>
        <time>2023-06-23T14:36:06.173Z</time>
      </trkpt>
      <trkpt lat="46.58068" lon="0.34067">
        <ele>120.67</ele>
        <time>2023-06-23T14:37:17.370Z</time>
      </trkpt>
      <trkpt lat="46.58083" lon="0.3408">
        <ele>120.58</ele>
        <time>2023-06-23T14:38:28.570Z</time>
      </trkpt>
      <trkpt lat="46.58093" lon="0.34088">
        <ele>120.5</ele>
        <time>2023-06-23T14:39:39.772Z</time>
      </trkpt>
      <trkpt lat="46.58102" lon="0.34093">
        <ele>120.44</ele>
        <time>2023-06-23T14:40:50.976Z</time>
      </trkpt>
      <trkpt lat="46.58137" lon="0.3411">
        <ele>120.1</ele>
        <time>2023-06-23T14:42:02.186Z</time>
      </trkpt>
      <trkpt lat="46.58139" lon="0.34111">
        <ele>120.08</ele>
        <time>2023-06-23T14:43:13.396Z</time>
      </trkpt>
      <trkpt lat="46.5816" lon="0.34123">
        <ele>119.9</ele>
        <time>2023-06-23T14:44:24.609Z</time>
      </trkpt>
      <trkpt lat="46.58164" lon="0.34125">
        <ele>119.88</ele>
        <time>2023-06-23T14:45:35.823Z</time>
      </trkpt>
      <trkpt lat="46.58175" lon="0.3413">
        <ele>119.84</ele>
        <time>2023-06-23T14:46:47.039Z</time>
      </trkpt>
      <trkpt lat="46.5818" lon="0.34131">
        <ele>119.82</ele>
        <time>2023-06-23T14:47:58.256Z</time>
      </trkpt>
      <trkpt lat="46.58189" lon="0.34132">
        <ele>119.85</ele>
        <time>2023-06-23T14:49:09.474Z</time>
      </trkpt>
      <trkpt lat="46.58198" lon="0.34133">
        <ele>119.91</ele>
        <time>2023-06-23T14:50:20.694Z</time>
      </trkpt>
      <trkpt lat="46.58214" lon="0.34136">
        <ele>120.11</ele>
        <time>2023-06-23T14:51:31.916Z</time>
      </trkpt>
      <trkpt lat="46.58223" lon="0.34136">
        <ele>120.23</ele>
        <time>2023-06-23T14:52:43.140Z</time>
      </trkpt>
      <trkpt lat="46.58233" lon="0.34137">
        <ele>120.32</ele>
        <time>2023-06-23T14:53:54.365Z</time>
      </trkpt>
      <trkpt lat="46.58237" lon="0.34134">
        <ele>120.36</ele>
        <time>2023-06-23T14:55:05.591Z</time>
      </trkpt>
      <trkpt lat="46.5824" lon="0.34137">
        <ele>120.4</ele>
        <time>2023-06-23T14:56:16.818Z</time>
      </trkpt>
      <trkpt lat="46.58234" lon="0.34165">
        <ele>120.59</ele>
        <time>2023-06-23T14:57:28.048Z</time>
      </trkpt>
      <trkpt lat="46.58231" lon="0.34198">
        <ele>120.82</ele>
        <time>2023-06-23T14:58:39.282Z</time>
      </trkpt>
      <trkpt lat="46.58229" lon="0.34214">
        <ele>120.88</ele>
        <time>2023-06-23T14:59:50.517Z</time>
      </trkpt>
      <trkpt lat="46.58229" lon="0.34223">
        <ele>120.93</ele>
        <time>2023-06-23T15:01:01.753Z</time>
      </trkpt>
      <trkpt lat="46.58228" lon="0.34236">
        <ele>120.96</ele>
        <time>2023-06-23T15:02:12.991Z</time>
      </trkpt>
      <trkpt lat="46.58228" lon="0.34249">
        <ele>120.94</ele>
        <time>2023-06-23T15:03:24.230Z</time>
      </trkpt>
      <trkpt lat="46.58227" lon="0.34264">
        <ele>120.88</ele>
        <time>2023-06-23T15:04:35.471Z</time>
      </trkpt>
      <trkpt lat="46.58227" lon="0.34268">
        <ele>120.87</ele>
        <time>2023-06-23T15:05:46.712Z</time>
      </trkpt>
      <trkpt lat="46.58228" lon="0.34286">
        <ele>120.75</ele>
        <time>2023-06-23T15:06:57.955Z</time>
      </trkpt>
      <trkpt lat="46.58231" lon="0.34295">
        <ele>120.68</ele>
        <time>2023-06-23T15:08:09.199Z</time>
      </trkpt>
      <trkpt lat="46.5824" lon="0.34306">
        <ele>120.58</ele>
        <time>2023-06-23T15:09:20.445Z</time>
      </trkpt>
      <trkpt lat="46.58249" lon="0.3432">
        <ele>120.48</ele>
        <time>2023-06-23T15:10:31.693Z</time>
      </trkpt>
      <trkpt lat="46.58254" lon="0.34326">
        <ele>120.47</ele>
        <time>2023-06-23T15:11:42.942Z</time>
      </trkpt>
      <trkpt lat="46.58263" lon="0.34333">
        <ele>120.45</ele>
        <time>2023-06-23T15:12:54.193Z</time>
      </trkpt>
      <trkpt lat="46.58261" lon="0.34338">
        <ele>120.45</ele>
        <time>2023-06-23T15:14:05.445Z</time>
      </trkpt>
      <trkpt lat="46.58251" lon="0.34361">
        <ele>120.3</ele>
        <time>2023-06-23T15:15:16.700Z</time>
      </trkpt>
      <trkpt lat="46.58239" lon="0.34388">
        <ele>120.07</ele>
        <time>2023-06-23T15:16:27.958Z</time>
      </trkpt>
      <trkpt lat="46.5823" lon="0.34409">
        <ele>119.87</ele>
        <time>2023-06-23T15:17:39.219Z</time>
      </trkpt>
      <trkpt lat="46.58219" lon="0.34434">
        <ele>119.76</ele>
        <time>2023-06-23T15:18:50.483Z</time>
      </trkpt>
      <trkpt lat="46.58214" lon="0.34447">
        <ele>119.71</ele>
        <time>2023-06-23T15:20:01.749Z</time>
      </trkpt>
      <trkpt lat="46.58212" lon="0.34453">
        <ele>119.65</ele>
        <time>2023-06-23T15:21:13.016Z</time>
      </trkpt>
      <trkpt lat="46.58194" lon="0.34498">
        <ele>119.49</ele>
        <time>2023-06-23T15:22:24.288Z</time>
      </trkpt>
      <trkpt lat="46.58133" lon="0.34636">
        <ele>105.03</ele>
        <time>2023-06-07T19:27:25.602Z</time>
      </trkpt>
      <trkpt lat="46.58133" lon="0.34636">
        <ele>105.03</ele>
        <time>2023-06-07T19:27:27.525Z</time>
      </trkpt>
      <trkpt lat="46.58142" lon="0.34615">
        <ele>106.23</ele>
        <time>2023-06-07T19:27:29.451Z</time>
      </trkpt>
      <trkpt lat="46.58148" lon="0.34602">
        <ele>106.34</ele>
        <time>2023-06-07T19:27:31.379Z</time>
      </trkpt>
      <trkpt lat="46.5815" lon="0.34596">
        <ele>106.63</ele>
        <time>2023-06-07T19:27:33.308Z</time>
      </trkpt>
      <trkpt lat="46.58155" lon="0.34586">
        <ele>107.2</ele>
        <time>2023-06-07T19:27:35.238Z</time>
      </trkpt>
      <trkpt lat="46.58178" lon="0.34538">
        <ele>109.94</ele>
        <time>2023-06-07T19:27:37.175Z</time>
      </trkpt>
      <trkpt lat="46.58181" lon="0.34532">
        <ele>110.02</ele>
        <time>2023-06-07T19:27:39.112Z</time>
      </trkpt>
      <trkpt lat="46.58189" lon="0.34536">
        <ele>110.17</ele>
        <time>2023-06-07T19:27:41.051Z</time>
      </trkpt>
      <trkpt lat="46.58205" lon="0.34543">
        <ele>110.43</ele>
        <time>2023-06-07T19:27:42.992Z</time>
      </trkpt>
      <trkpt lat="46.58218" lon="0.34548">
        <ele>110.59</ele>
        <time>2023-06-07T19:27:44.935Z</time>
      </trkpt>
      <trkpt lat="46.58226" lon="0.34552">
        <ele>110.66</ele>
        <time>2023-06-07T19:27:46.880Z</time>
      </trkpt>
      <trkpt lat="46.58235" lon="0.34556">
        <ele>110.7</ele>
        <time>2023-06-07T19:27:48.826Z</time>
      </trkpt>
      <trkpt lat="46.58243" lon="0.3456">
        <ele>110.69</ele>
        <time>2023-06-07T19:27:50.774Z</time>
      </trkpt>
      <trkpt lat="46.58251" lon="0.34563">
        <ele>110.64</ele>
        <time>2023-06-07T19:27:52.723Z</time>
      </trkpt>
      <trkpt lat="46.5826" lon="0.34567">
        <ele>110.54</ele>
        <time>2023-06-07T19:27:54.673Z</time>
      </trkpt>
      <trkpt lat="46.58264" lon="0.34569">
        <ele>110.52</ele>
        <time>2023-06-07T19:27:56.624Z</time>
      </trkpt>
      <trkpt lat="46.58309" lon="0.34588">
        <ele>110.33</ele>
        <time>2023-06-07T19:27:58.583Z</time>
      </trkpt>
      <trkpt lat="46.58326" lon="0.34595">
        <ele>110.21</ele>
        <time>2023-06-07T19:28:00.544Z</time>
      </trkpt>
      <trkpt lat="46.58342" lon="0.34602">
        <ele>109.95</ele>
        <time>2023-06-07T19:28:02.508Z</time>
      </trkpt>
      <trkpt lat="46.58346" lon="0.34604">
        <ele>109.87</ele>
        <time>2023-06-07T19:28:04.473Z</time>
      </trkpt>
      <trkpt lat="46.5835" lon="0.34606">
        <ele>109.78</ele>
        <time>2023-06-07T19:28:06.439Z</time>
      </trkpt>
      <trkpt lat="46.58358" lon="0.34611">
        <ele>109.58</ele>
        <time>2023-06-07T19:28:08.406Z</time>
      </trkpt>
      <trkpt lat="46.58366" lon="0.34615">
        <ele>109.34</ele>
        <time>2023-06-07T19:28:10.374Z</time>
      </trkpt>
      <trkpt lat="46.58371" lon="0.34617">
        <ele>109.2</ele>
        <time>2023-06-07T19:28:12.343Z</time>
      </trkpt>
      <trkpt lat="46.58383" lon="0.34624">
        <ele>108.71</ele>
        <time>2023-06-07T19:28:14.314Z</time>
      </trkpt>
      <trkpt lat="46.58387" lon="0.34626">
        <ele>108.97</ele>
        <time>2023-06-07T19:28:16.286Z</time>
      </trkpt>
      <trkpt lat="46.58384" lon="0.34594">
        <ele>110.26</ele>
        <time>2023-06-07T19:28:18.261Z</time>
      </trkpt>
      <trkpt lat="46.58382" lon="0.34582">
        <ele>110.75</ele>
        <time>2023-06-07T19:28:20.238Z</time>
      </trkpt>
      <trkpt lat="46.5838" lon="0.34562">
        <ele>111.26</ele>
        <time>2023-06-07T19:28:22.217Z</time>
      </trkpt>
      <trkpt lat="46.58377" lon="0.34537">
        <ele>111.89</ele>
        <time>2023-06-07T19:28:24.199Z</time>
      </trkpt>
      <trkpt lat="46.58377" lon="0.34533">
        <ele>111.97</ele>
        <time>2023-06-07T19:28:26.181Z</time>
      </trkpt>
      <trkpt lat="46.58377" lon="0.3453">
        <ele>112.03</ele>
        <time>2023-06-07T19:28:28.164Z</time>
      </trkpt>
      <trkpt lat="46.58378" lon="0.34518">
        <ele>112.26</ele>
        <time>2023-06-07T19:28:30.148Z</time>
      </trkpt>
      <trkpt lat="46.58379" lon="0.34512">
        <ele>112.32</ele>
        <time>2023-06-07T19:28:32.133Z</time>
      </trkpt>
      <trkpt lat="46.58382" lon="0.34495">
        <ele>112.53</ele>
        <time>2023-06-07T19:28:34.119Z</time>
      </trkpt>
      <trkpt lat="46.58383" lon="0.34489">
        <ele>112.57</ele>
        <time>2023-06-07T19:28:36.106Z</time>
      </trkpt>
      <trkpt lat="46.5839" lon="0.34475">
        <ele>112.69</ele>
        <time>2023-06-07T19:28:38.095Z</time>
      </trkpt>
      <trkpt lat="46.58404" lon="0.34445">
        <ele>113.03</ele>
        <time>2023-06-07T19:28:40.088Z</time>
      </trkpt>
      <trkpt lat="46.58406" lon="0.3444">
        <ele>113.06</ele>
        <time>2023-06-07T19:28:42.082Z</time>
      </trkpt>
      <trkpt lat="46.5841" lon="0.34428">
        <ele>113.14</ele>
        <time>2023-06-07T19:28:44.077Z</time>
      </trkpt>
      <trkpt lat="46.58412" lon="0.34422">
        <ele>113.16</ele>
        <time>2023-06-07T19:28:46.073Z</time>
      </trkpt>
      <trkpt lat="46.58423" lon="0.34434">
        <ele>113.25</ele>
        <time>2023-06-07T19:28:48.071Z</time>
      </trkpt>
      <trkpt lat="46.58434" lon="0.34445">
        <ele>112.38</ele>
        <time>2023-06-07T19:28:50.071Z</time>
      </trkpt>
      <trkpt lat="46.58441" lon="0.34452">
        <ele>111.83</ele>
        <time>2023-06-07T19:28:52.073Z</time>
      </trkpt>
      <trkpt lat="46.58448" lon="0.3446">
        <ele>111.33</ele>
        <time>2023-06-07T19:28:54.076Z</time>
      </trkpt>
      <trkpt lat="46.58455" lon="0.34467">
        <ele>110.87</ele>
        <time>2023-06-07T19:28:56.081Z</time>
      </trkpt>
      <trkpt lat="46.58459" lon="0.34471">
        <ele>110.73</ele>
        <time>2023-06-07T19:28:58.086Z</time>
      </trkpt>
      <trkpt lat="46.58467" lon="0.34488">
        <ele>110.29</ele>
        <time>2023-06-07T19:29:00.094Z</time>
      </trkpt>
      <trkpt lat="46.58468" lon="0.34497">
        <ele>110.09</ele>
        <time>2023-06-07T19:29:02.103Z</time>
      </trkpt>
      <trkpt lat="46.58469" lon="0.3451">
        <ele>109.79</ele>
        <time>2023-06-07T19:29:04.113Z</time>
      </trkpt>
      <trkpt lat="46.58468" lon="0.34528">
        <ele>109.39</ele>
        <time>2023-06-07T19:29:06.125Z</time>
      </trkpt>
      <trkpt lat="46.58467" lon="0.3454">
        <ele>109.15</ele>
        <time>2023-06-07T19:29:08.138Z</time>
      </trkpt>
      <trkpt lat="46.58466" lon="0.34552">
        <ele>108.84</ele>
        <time>2023-06-07T19:29:10.153Z</time>
      </trkpt>
      <trkpt lat="46.58465" lon="0.34558">
        <ele>108.66</ele>
        <time>2023-06-07T19:29:12.168Z</time>
      </trkpt>
      <trkpt lat="46.58464" lon="0.3457">
        <ele>108.27</ele>
        <time>2023-06-07T19:29:14.185Z</time>
      </trkpt>
      <trkpt lat="46.58464" lon="0.3458">
        <ele>108.05</ele>
        <time>2023-06-07T19:29:16.203Z</time>
      </trkpt>
      <trkpt lat="46.58463" lon="0.34587">
        <ele>107.72</ele>
        <time>2023-06-07T19:29:18.222Z</time>
      </trkpt>
      <trkpt lat="46.58458" lon="0.34605">
        <ele>106.8</ele>
        <time>2023-06-07T19:29:20.243Z</time>
      </trkpt>
      <trkpt lat="46.58458" lon="0.34605">
        <ele>106.8</ele>
        <time>2023-06-07T19:29:22.264Z</time>
      </trkpt>
      <trkpt lat="46.58453" lon="0.34615">
        <ele>106.22</ele>
        <time>2023-06-07T19:29:24.286Z</time>
      </trkpt>
      <trkpt lat="46.58448" lon="0.34625">
        <ele>105.7</ele>
        <time>2023-06-07T19:29:26.309Z</time>
      </trkpt>
      <trkpt lat="46.5844" lon="0.34641">
        <ele>104.99</ele>
        <time>2023-06-07T19:29:28.335Z</time>
      </trkpt>
      <trkpt lat="46.58447" lon="0.34643">
        <ele>104.6</ele>
        <time>2023-06-07T19:29:30.362Z</time>
      </trkpt>
      <trkpt lat="46.58459" lon="0.34646">
        <ele>103.87</ele>
        <time>2023-06-07T19:29:32.391Z</time>
      </trkpt>
      <trkpt lat="46.58463" lon="0.34647">
        <ele>103.57</ele>
        <time>2023-06-07T19:29:34.420Z</time>
      </trkpt>
      <trkpt lat="46.58468" lon="0.34648">
        <ele>103.24</ele>
        <time>2023-06-07T19:29:36.450Z</time>
      </trkpt>
      <trkpt lat="46.58472" lon="0.34649">
        <ele>102.86</ele>
        <time>2023-06-07T19:29:38.481Z</time>
      </trkpt>
      <trkpt lat="46.58484" lon="0.34652">
        <ele>101.59</ele>
        <time>2023-06-07T19:29:40.514Z</time>
      </trkpt>
      <trkpt lat="46.58487" lon="0.34653">
        <ele>101.33</ele>
        <time>2023-06-07T19:29:42.547Z</time>
      </trkpt>
      <trkpt lat="46.58492" lon="0.34649">
        <ele>100.8</ele>
        <time>2023-06-07T19:29:44.581Z</time>
      </trkpt>
      <trkpt lat="46.58496" lon="0.34645">
        <ele>100.45</ele>
        <time>2023-06-07T19:29:46.616Z</time>
      </trkpt>
      <trkpt lat="46.58501" lon="0.34654">
        <ele>99.87</ele>
        <time>2023-06-07T19:29:48.652Z</time>
      </trkpt>
      <trkpt lat="46.58506" lon="0.34664">
        <ele>99.22</ele>
        <time>2023-06-07T19:29:50.690Z</time>
      </trkpt>
      <trkpt lat="46.58512" lon="0.34676">
        <ele>98.41</ele>
        <time>2023-06-07T19:29:52.729Z</time>
      </trkpt>
      <trkpt lat="46.58517" lon="0.34682">
        <ele>97.86</ele>
        <time>2023-06-07T19:29:54.769Z</time>
      </trkpt>
      <trkpt lat="46.58531" lon="0.34698">
        <ele>96.55</ele>
        <time>2023-06-07T19:29:56.812Z</time>
      </trkpt>
      <trkpt lat="46.58535" lon="0.34703">
        <ele>96.31</ele>
        <time>2023-06-07T19:29:58.856Z</time>
      </trkpt>
      <trkpt lat="46.5854" lon="0.34708">
        <ele>96.06</ele>
        <time>2023-06-07T19:30:00.901Z</time>
      </trkpt>
      <trkpt lat="46.58549" lon="0.34718">
        <ele>95.48</ele>
        <time>2023-06-07T19:30:02.948Z</time>
      </trkpt>
      <trkpt lat="46.58553" lon="0.34722">
        <ele>95.18</ele>
        <time>2023-06-07T19:30:04.995Z</time>
      </trkpt>
      <trkpt lat="46.58554" lon="0.34732">
        <ele>94.77</ele>
        <time>2023-06-07T19:30:07.044Z</time>
      </trkpt>
      <trkpt lat="46.58557" lon="0.34735">
        <ele>94.55</ele>
        <time>2023-06-07T19:30:09.093Z</time>
      </trkpt>
      <trkpt lat="46.58574" lon="0.34755">
        <ele>92.06</ele>
        <time>2023-06-07T19:30:11.146Z</time>
      </trkpt>
      <trkpt lat="46.58592" lon="0.34775">
        <ele>89.52</ele>
        <time>2023-06-07T19:30:13.202Z</time>
      </trkpt>
      <trkpt lat="46.58626" lon="0.34815">
        <ele>84.59</ele>
        <time>2023-06-07T19:30:15.265Z</time>
      </trkpt>
      <trkpt lat="46.58644" lon="0.34835">
        <ele>82.1</ele>
        <time>2023-06-07T19:30:17.332Z</time>
      </trkpt>
      <trkpt lat="46.58649" lon="0.34845">
        <ele>81.2</ele>
        <time>2023-06-07T19:30:19.400Z</time>
      </trkpt>
      <trkpt lat="46.5865" lon="0.34848">
        <ele>80.92</ele>
        <time>2023-06-07T19:30:21.469Z</time>
      </trkpt>
      <trkpt lat="46.58656" lon="0.34871">
        <ele>79.11</ele>
        <time>2023-06-07T19:30:23.540Z</time>
      </trkpt>
      <trkpt lat="46.58656" lon="0.34875">
        <ele>78.83</ele>
        <time>2023-06-07T19:30:25.612Z</time>
      </trkpt>
      <trkpt lat="46.58658" lon="0.34894">
        <ele>77.31</ele>
        <time>2023-06-07T19:30:27.686Z</time>
      </trkpt>
      <trkpt lat="46.5866" lon="0.34906">
        <ele>76.91</ele>
        <time>2023-06-07T19:30:29.761Z</time>
      </trkpt>
      <trkpt lat="46.5866" lon="0.34912">
        <ele>76.67</ele>
        <time>2023-06-07T19:30:31.837Z</time>
      </trkpt>
      <trkpt lat="46.58661" lon="0.34918">
        <ele>76.39</ele>
        <time>2023-06-07T19:30:33.914Z</time>
      </trkpt>
      <trkpt lat="46.58662" lon="0.34924">
        <ele>76.07</ele>
        <time>2023-06-07T19:30:35.991Z</time>
      </trkpt>
      <trkpt lat="46.58662" lon="0.3493">
        <ele>75.69</ele>
        <time>2023-06-07T19:30:38.069Z</time>
      </trkpt>
      <trkpt lat="46.58663" lon="0.34936">
        <ele>75.26</ele>
        <time>2023-06-07T19:30:40.148Z</time>
      </trkpt>
      <trkpt lat="46.58663" lon="0.34936">
        <ele>75.26</ele>
        <time>2023-06-07T19:30:42.227Z</time>
      </trkpt>
      <trkpt lat="46.58666" lon="0.34941">
        <ele>74.78</ele>
        <time>2023-06-07T19:30:44.306Z</time>
      </trkpt>
      <trkpt lat="46.58667" lon="0.34943">
        <ele>74.57</ele>
        <time>2023-06-07T19:30:46.386Z</time>
      </trkpt>
      <trkpt lat="46.58669" lon="0.34945">
        <ele>74.26</ele>
        <time>2023-06-07T19:30:48.466Z</time>
      </trkpt>
      <trkpt lat="46.58673" lon="0.34948">
        <ele>74.07</ele>
        <time>2023-06-07T19:30:50.547Z</time>
      </trkpt>
      <trkpt lat="46.58685" lon="0.3495">
        <ele>73.55</ele>
        <time>2023-06-07T19:30:52.630Z</time>
      </trkpt>
      <trkpt lat="46.58693" lon="0.34951">
        <ele>73.61</ele>
        <time>2023-06-07T19:30:54.714Z</time>
      </trkpt>
      <trkpt lat="46.58705" lon="0.34952">
        <ele>73.74</ele>
        <time>2023-06-07T19:30:56.800Z</time>
      </trkpt>
      <trkpt lat="46.5871" lon="0.34953">
        <ele>73.74</ele>
        <time>2023-06-07T19:30:58.887Z</time>
      </trkpt>
      <trkpt lat="46.58717" lon="0.34945">
        <ele>73.76</ele>
        <time>2023-06-07T19:31:00.975Z</time>
      </trkpt>
      <trkpt lat="46.58731" lon="0.34931">
        <ele>73.81</ele>
        <time>2023-06-07T19:31:03.066Z</time>
      </trkpt>
      <trkpt lat="46.58745" lon="0.34917">
        <ele>73.89</ele>
        <time>2023-06-07T19:31:05.160Z</time>
      </trkpt>
      <trkpt lat="46.58759" lon="0.34903">
        <ele>73.81</ele>
        <time>2023-06-07T19:31:07.256Z</time>
      </trkpt>
      <trkpt lat="46.58763" lon="0.34899">
        <ele>73.81</ele>
        <time>2023-06-07T19:31:09.353Z</time>
      </trkpt>
      <trkpt lat="46.58776" lon="0.34884">
        <ele>73.84</ele>
        <time>2023-06-07T19:31:11.453Z</time>
      </trkpt>
      <trkpt lat="46.58796" lon="0.34862">
        <ele>73.85</ele>
        <time>2023-06-07T19:31:13.557Z</time>
      </trkpt>
      <trkpt lat="46.58801" lon="0.34856">
        <ele>73.9</ele>
        <time>2023-06-07T19:31:15.662Z</time>
      </trkpt>
      <trkpt lat="46.58805" lon="0.34852">
        <ele>73.91</ele>
        <time>2023-06-07T19:31:17.768Z</time>
      </trkpt>
      <trkpt lat="46.58814" lon="0.34866">
        <ele>73.94</ele>
        <time>2023-06-07T19:31:19.876Z</time>
      </trkpt>
      <trkpt lat="46.58823" lon="0.3488">
        <ele>74.02</ele>
        <time>2023-06-07T19:31:21.986Z</time>
      </trkpt>
      <trkpt lat="46.58826" lon="0.34884">
        <ele>74.07</ele>
        <time>2023-06-07T19:31:24.096Z</time>
      </trkpt>
      <trkpt lat="46.58832" lon="0.34894">
        <ele>74.21</ele>
        <time>2023-06-07T19:31:26.208Z</time>
      </trkpt>
      <trkpt lat="46.58844" lon="0.34912">
        <ele>74.57</ele>
        <time>2023-06-07T19:31:28.323Z</time>
      </trkpt>
      <trkpt lat="46.58847" lon="0.34917">
        <ele>74.55</ele>
        <time>2023-06-07T19:31:30.438Z</time>
      </trkpt>
      <trkpt lat="46.58834" lon="0.34934">
        <ele>74.5</ele>
        <time>2023-06-07T19:31:32.556Z</time>
      </trkpt>
      <trkpt lat="46.58824" lon="0.34946">
        <ele>74.43</ele>
        <time>2023-06-07T19:31:34.676Z</time>
      </trkpt>
      <trkpt lat="46.58819" lon="0.34952">
        <ele>74.38</ele>
        <time>2023-06-07T19:31:36.797Z</time>
      </trkpt>
      <trkpt lat="46.58806" lon="0.34964">
        <ele>74.28</ele>
        <time>2023-06-07T19:31:38.921Z</time>
      </trkpt>
      <trkpt lat="46.58788" lon="0.34982">
        <ele>74.07</ele>
        <time>2023-06-07T19:31:41.048Z</time>
      </trkpt>
      <trkpt lat="46.58784" lon="0.34985">
        <ele>74.02</ele>
        <time>2023-06-07T19:31:43.176Z</time>
      </trkpt>
      <trkpt lat="46.58777" lon="0.34994">
        <ele>73.92</ele>
        <time>2023-06-07T19:31:45.305Z</time>
      </trkpt>
      <trkpt lat="46.58771" lon="0.35011">
        <ele>73.79</ele>
        <time>2023-06-07T19:31:47.437Z</time>
      </trkpt>
      <trkpt lat="46.58765" lon="0.35029">
        <ele>73.68</ele>
        <time>2023-06-07T19:31:49.571Z</time>
      </trkpt>
      <trkpt lat="46.58765" lon="0.35029">
        <ele>73.68</ele>
        <time>2023-06-07T19:31:51.705Z</time>
      </trkpt>
      <trkpt lat="46.58756" lon="0.35043">
        <ele>73.64</ele>
        <time>2023-06-07T19:31:53.841Z</time>
      </trkpt>
      <trkpt lat="46.58746" lon="0.35057">
        <ele>73.63</ele>
        <time>2023-06-07T19:31:55.979Z</time>
      </trkpt>
      <trkpt lat="46.58731" lon="0.35081">
        <ele>73.62</ele>
        <time>2023-06-07T19:31:58.121Z</time>
      </trkpt>
      <trkpt lat="46.58717" lon="0.35105">
        <ele>73.53</ele>
        <time>2023-06-07T19:32:00.266Z</time>
      </trkpt>
      <trkpt lat="46.58711" lon="0.35114">
        <ele>73.55</ele>
        <time>2023-06-07T19:32:02.413Z</time>
      </trkpt>
      <trkpt lat="46.58705" lon="0.35124">
        <ele>73.61</ele>
        <time>2023-06-07T19:32:04.561Z</time>
      </trkpt>
      <trkpt lat="46.58699" lon="0.35134">
        <ele>73.72</ele>
        <time>2023-06-07T19:32:06.711Z</time>
      </trkpt>
      <trkpt lat="46.58696" lon="0.35138">
        <ele>73.79</ele>
        <time>2023-06-07T19:32:08.861Z</time>
      </trkpt>
      <trkpt lat="46.5869" lon="0.35149">
        <ele>73.96</ele>
        <time>2023-06-07T19:32:11.013Z</time>
      </trkpt>
      <trkpt lat="46.58685" lon="0.3516">
        <ele>74.07</ele>
        <time>2023-06-07T19:32:13.166Z</time>
      </trkpt>
      <trkpt lat="46.58677" lon="0.35176">
        <ele>74.16</ele>
        <time>2023-06-07T19:32:15.321Z</time>
      </trkpt>
      <trkpt lat="46.5867" lon="0.35191">
        <ele>74.21</ele>
        <time>2023-06-07T19:32:17.478Z</time>
      </trkpt>
      <trkpt lat="46.58662" lon="0.35207">
        <ele>74.21</ele>
        <time>2023-06-07T19:32:19.637Z</time>
      </trkpt>
      <trkpt lat="46.58653" lon="0.35222">
        <ele>74.23</ele>
        <time>2023-06-07T19:32:21.799Z</time>
      </trkpt>
      <trkpt lat="46.58644" lon="0.35236">
        <ele>74.21</ele>
        <time>2023-06-07T19:32:23.963Z</time>
      </trkpt>
      <trkpt lat="46.58625" lon="0.35265">
        <ele>74.08</ele>
        <time>2023-06-07T19:32:26.131Z</time>
      </trkpt>
      <trkpt lat="46.5861" lon="0.35289">
        <ele>73.93</ele>
        <time>2023-06-07T19:32:28.303Z</time>
      </trkpt>
      <trkpt lat="46.58605" lon="0.35297">
        <ele>73.91</ele>
        <time>2023-06-07T19:32:30.476Z</time>
      </trkpt>
      <trkpt lat="46.58604" lon="0.35298">
        <ele>73.91</ele>
        <time>2023-06-07T19:32:32.649Z</time>
      </trkpt>
      <trkpt lat="46.58585" lon="0.35314">
        <ele>73.95</ele>
        <time>2023-06-07T19:32:34.826Z</time>
      </trkpt>
      <trkpt lat="46.58571" lon="0.35325">
        <ele>74.02</ele>
        <time>2023-06-07T19:32:37.005Z</time>
      </trkpt>
      <trkpt lat="46.5856" lon="0.35331">
        <ele>74.07</ele>
        <time>2023-06-07T19:32:39.186Z</time>
      </trkpt>
      <trkpt lat="46.58556" lon="0.35332">
        <ele>74.09</ele>
        <time>2023-06-07T19:32:41.368Z</time>
      </trkpt>
      <trkpt lat="46.58543" lon="0.35336">
        <ele>74.12</ele>
        <time>2023-06-07T19:32:43.552Z</time>
      </trkpt>
      <trkpt lat="46.58539" lon="0.35337">
        <ele>74.14</ele>
        <time>2023-06-07T19:32:45.737Z</time>
      </trkpt>
      <trkpt lat="46.58526" lon="0.35335">
        <ele>74.23</ele>
        <time>2023-06-07T19:32:47.924Z</time>
      </trkpt>
      <trkpt lat="46.58525" lon="0.35335">
        <ele>74.23</ele>
        <time>2023-06-07T19:32:50.111Z</time>
      </trkpt>
      <trkpt lat="46.58513" lon="0.3533">
        <ele>74.36</ele>
        <time>2023-06-07T19:32:52.300Z</time>
      </trkpt>
      <trkpt lat="46.58501" lon="0.3533">
        <ele>74.48</ele>
        <time>2023-06-07T19:32:54.491Z</time>
      </trkpt>
      <trkpt lat="46.58496" lon="0.3533">
        <ele>74.58</ele>
        <time>2023-06-07T19:32:56.683Z</time>
      </trkpt>
      <trkpt lat="46.58484" lon="0.35319">
        <ele>74.88</ele>
        <time>2023-06-07T19:32:58.877Z</time>
      </trkpt>
      <trkpt lat="46.58465" lon="0.35297">
        <ele>75.39</ele>
        <time>2023-06-07T19:33:01.075Z</time>
      </trkpt>
      <trkpt lat="46.58464" lon="0.35296">
        <ele>75.42</ele>
        <time>2023-06-07T19:33:03.273Z</time>
      </trkpt>
      <trkpt lat="46.58446" lon="0.35272">
        <ele>75.99</ele>
        <time>2023-06-07T19:33:05.475Z</time>
      </trkpt>
      <trkpt lat="46.58445" lon="0.3527">
        <ele>76.01</ele>
        <time>2023-06-07T19:33:07.677Z</time>
      </trkpt>
      <trkpt lat="46.58443" lon="0.35268">
        <ele>76.05</ele>
        <time>2023-06-07T19:33:09.879Z</time>
      </trkpt>
      <trkpt lat="46.58441" lon="0.35276">
        <ele>76.18</ele>
        <time>2023-06-07T19:33:12.082Z</time>
      </trkpt>
      <trkpt lat="46.5844" lon="0.35282">
        <ele>76.25</ele>
        <time>2023-06-07T19:33:14.286Z</time>
      </trkpt>
      <trkpt lat="46.58439" lon="0.35288">
        <ele>76.29</ele>
        <time>2023-06-07T19:33:16.491Z</time>
      </trkpt>
      <trkpt lat="46.58437" lon="0.353">
        <ele>76.29</ele>
        <time>2023-06-07T19:33:18.697Z</time>
      </trkpt>
      <trkpt lat="46.58436" lon="0.35306">
        <ele>76.24</ele>
        <time>2023-06-07T19:33:20.904Z</time>
      </trkpt>
      <trkpt lat="46.58434" lon="0.35318">
        <ele>76.08</ele>
        <time>2023-06-07T19:33:23.112Z</time>
      </trkpt>
      <trkpt lat="46.58429" lon="0.35342">
        <ele>75.65</ele>
        <time>2023-06-07T19:33:25.323Z</time>
      </trkpt>
      <trkpt lat="46.58426" lon="0.3536">
        <ele>75.41</ele>
        <time>2023-06-07T19:33:27.536Z</time>
      </trkpt>
      <trkpt lat="46.58424" lon="0.35372">
        <ele>75.29</ele>
        <time>2023-06-07T19:33:29.750Z</time>
      </trkpt>
      <trkpt lat="46.58421" lon="0.35384">
        <ele>75.23</ele>
        <time>2023-06-07T19:33:31.966Z</time>
      </trkpt>
      <trkpt lat="46.58413" lon="0.35426">
        <ele>75.16</ele>
        <time>2023-06-07T19:33:34.187Z</time>
      </trkpt>
      <trkpt lat="46.58412" lon="0.35433">
        <ele>75.17</ele>
        <time>2023-06-07T19:33:36.408Z</time>
      </trkpt>
      <trkpt lat="46.58409" lon="0.35431">
        <ele>75.19</ele>
        <time>2023-06-07T19:33:38.630Z</time>
      </trkpt>
      <trkpt lat="46.58404" lon="0.35429">
        <ele>75.21</ele>
        <time>2023-06-07T19:33:40.853Z</time>
      </trkpt>
      <trkpt lat="46.58408" lon="0.35444">
        <ele>75.28</ele>
        <time>2023-06-07T19:33:43.077Z</time>
      </trkpt>
      <trkpt lat="46.58411" lon="0.35452">
        <ele>75.32</ele>
        <time>2023-06-07T19:33:45.302Z</time>
      </trkpt>
      <trkpt lat="46.58415" lon="0.35463">
        <ele>75.35</ele>
        <time>2023-06-07T19:33:47.529Z</time>
      </trkpt>
      <trkpt lat="46.58417" lon="0.35469">
        <ele>75.45</ele>
        <time>2023-06-07T19:33:49.757Z</time>
      </trkpt>
      <trkpt lat="46.5842" lon="0.35481">
        <ele>75.67</ele>
        <time>2023-06-07T19:33:51.986Z</time>
      </trkpt>
      <trkpt lat="46.58423" lon="0.35499">
        <ele>76.03</ele>
        <time>2023-06-07T19:33:54.217Z</time>
      </trkpt>
      <trkpt lat="46.58426" lon="0.35511">
        <ele>76.3</ele>
        <time>2023-06-07T19:33:56.449Z</time>
      </trkpt>
      <trkpt lat="46.58428" lon="0.35521">
        <ele>76.52</ele>
        <time>2023-06-07T19:33:58.683Z</time>
      </trkpt>
      <trkpt lat="46.58429" lon="0.3553">
        <ele>76.73</ele>
        <time>2023-06-07T19:34:00.918Z</time>
      </trkpt>
      <trkpt lat="46.58429" lon="0.35537">
        <ele>77.39</ele>
        <time>2023-06-07T19:34:03.153Z</time>
      </trkpt>
      <trkpt lat="46.58437" lon="0.35538">
        <ele>78.51</ele>
        <time>2023-06-07T19:34:05.390Z</time>
      </trkpt>
      <trkpt lat="46.58443" lon="0.35538">
        <ele>79.37</ele>
        <time>2023-06-07T19:34:07.628Z</time>
      </trkpt>
      <trkpt lat="46.58446" lon="0.35539">
        <ele>79.83</ele>
        <time>2023-06-07T19:34:09.866Z</time>
      </trkpt>
      <trkpt lat="46.5845" lon="0.35539">
        <ele>80.53</ele>
        <time>2023-06-07T19:34:12.105Z</time>
      </trkpt>
      <trkpt lat="46.58459" lon="0.35541">
        <ele>82.04</ele>
        <time>2023-06-07T19:34:14.345Z</time>
      </trkpt>
      <trkpt lat="46.58472" lon="0.35544">
        <ele>84.52</ele>
        <time>2023-06-07T19:34:16.587Z</time>
      </trkpt>
      <trkpt lat="46.58481" lon="0.35545">
        <ele>86.31</ele>
        <time>2023-06-07T19:34:18.831Z</time>
      </trkpt>
      <trkpt lat="46.58484" lon="0.35546">
        <ele>86.98</ele>
        <time>2023-06-07T19:34:21.075Z</time>
      </trkpt>
      <trkpt lat="46.5849" lon="0.35548">
        <ele>88.18</ele>
        <time>2023-06-07T19:34:23.320Z</time>
      </trkpt>
      <trkpt lat="46.58502" lon="0.35551">
        <ele>91.13</ele>
        <time>2023-06-07T19:34:25.567Z</time>
      </trkpt>
      <trkpt lat="46.58515" lon="0.35555">
        <ele>94.24</ele>
        <time>2023-06-07T19:34:27.816Z</time>
      </trkpt>
      <trkpt lat="46.58518" lon="0.35556">
        <ele>94.89</ele>
        <time>2023-06-07T19:34:30.066Z</time>
      </trkpt>
      <trkpt lat="46.58536" lon="0.35567">
        <ele>99.62</ele>
        <time>2023-06-07T19:34:32.319Z</time>
      </trkpt>
      <trkpt lat="46.5854" lon="0.3557">
        <ele>100.55</ele>
        <time>2023-06-07T19:34:34.573Z</time>
      </trkpt>
      <trkpt lat="46.5855" lon="0.35582">
        <ele>103.07</ele>
        <time>2023-06-07T19:34:36.829Z</time>
      </trkpt>
      <trkpt lat="46.58553" lon="0.35587">
        <ele>103.89</ele>
        <time>2023-06-07T19:34:39.085Z</time>
      </trkpt>
      <trkpt lat="46.58559" lon="0.35595">
        <ele>105.45</ele>
        <time>2023-06-07T19:34:41.343Z</time>
      </trkpt>
      <trkpt lat="46.58566" lon="0.35604">
        <ele>106.9</ele>
        <time>2023-06-07T19:34:43.602Z</time>
      </trkpt>
      <trkpt lat="46.5857" lon="0.35609">
        <ele>107.71</ele>
        <time>2023-06-07T19:34:45.862Z</time>
      </trkpt>
      <trkpt lat="46.58584" lon="0.35621">
        <ele>110.29</ele>
        <time>2023-06-07T19:34:48.125Z</time>
      </trkpt>
      <trkpt lat="46.58592" lon="0.35628">
        <ele>111.71</ele>
        <time>2023-06-07T19:34:50.389Z</time>
      </trkpt>
      <trkpt lat="46.58596" lon="0.35631">
        <ele>111.94</ele>
        <time>2023-06-07T19:34:52.654Z</time>
      </trkpt>
      <trkpt lat="46.58599" lon="0.35633">
        <ele>112.12</ele>
        <time>2023-06-07T19:34:54.919Z</time>
      </trkpt>
      <trkpt lat="46.58603" lon="0.35635">
        <ele>112.3</ele>
        <time>2023-06-07T19:34:57.185Z</time>
      </trkpt>
      <trkpt lat="46.58608" lon="0.35637">
        <ele>112.49</ele>
        <time>2023-06-07T19:34:59.452Z</time>
      </trkpt>
      <trkpt lat="46.5862" lon="0.3564">
        <ele>112.94</ele>
        <time>2023-06-07T19:35:01.721Z</time>
      </trkpt>
      <trkpt lat="46.58625" lon="0.35641">
        <ele>112.97</ele>
        <time>2023-06-07T19:35:03.991Z</time>
      </trkpt>
      <trkpt lat="46.58627" lon="0.35629">
        <ele>113.03</ele>
        <time>2023-06-07T19:35:06.262Z</time>
      </trkpt>
      <trkpt lat="46.58629" lon="0.3561">
        <ele>112.66</ele>
        <time>2023-06-07T19:35:08.535Z</time>
      </trkpt>
      <trkpt lat="46.58631" lon="0.35598">
        <ele>112.47</ele>
        <time>2023-06-07T19:35:10.810Z</time>
      </trkpt>
      <trkpt lat="46.58632" lon="0.35592">
        <ele>112.41</ele>
        <time>2023-06-07T19:35:13.085Z</time>
      </trkpt>
      <trkpt lat="46.58634" lon="0.3558">
        <ele>112.37</ele>
        <time>2023-06-07T19:35:15.362Z</time>
      </trkpt>
      <trkpt lat="46.58636" lon="0.35567">
        <ele>112.44</ele>
        <time>2023-06-07T19:35:17.640Z</time>
      </trkpt>
      <trkpt lat="46.58637" lon="0.35555">
        <ele>112.61</ele>
        <time>2023-06-07T19:35:19.919Z</time>
      </trkpt>
      <trkpt lat="46.5864" lon="0.35537">
        <ele>113</ele>
        <time>2023-06-07T19:35:22.200Z</time>
      </trkpt>
      <trkpt lat="46.58641" lon="0.35529">
        <ele>113.34</ele>
        <time>2023-06-07T19:35:24.482Z</time>
      </trkpt>
      <trkpt lat="46.58644" lon="0.35528">
        <ele>113.54</ele>
        <time>2023-06-07T19:35:26.765Z</time>
      </trkpt>
      <trkpt lat="46.58652" lon="0.35527">
        <ele>114.05</ele>
        <time>2023-06-07T19:35:29.049Z</time>
      </trkpt>
      <trkpt lat="46.58661" lon="0.35525">
        <ele>114.5</ele>
        <time>2023-06-07T19:35:31.334Z</time>
      </trkpt>
      <trkpt lat="46.58678" lon="0.35522">
        <ele>115.34</ele>
        <time>2023-06-07T19:35:33.622Z</time>
      </trkpt>
      <trkpt lat="46.58683" lon="0.35521">
        <ele>115.43</ele>
        <time>2023-06-07T19:35:35.911Z</time>
      </trkpt>
      <trkpt lat="46.58682" lon="0.35516">
        <ele>115.5</ele>
        <time>2023-06-07T19:35:38.201Z</time>
      </trkpt>
      <trkpt lat="46.58682" lon="0.3551">
        <ele>115.55</ele>
        <time>2023-06-07T19:35:40.491Z</time>
      </trkpt>
      <trkpt lat="46.5868" lon="0.35497">
        <ele>115.59</ele>
        <time>2023-06-07T19:35:42.783Z</time>
      </trkpt>
      <trkpt lat="46.58678" lon="0.35475">
        <ele>115.61</ele>
        <time>2023-06-07T19:35:45.077Z</time>
      </trkpt>
      <trkpt lat="46.58678" lon="0.35472">
        <ele>115.62</ele>
        <time>2023-06-07T19:35:47.372Z</time>
      </trkpt>
      <trkpt lat="46.58679" lon="0.35463">
        <ele>115.66</ele>
        <time>2023-06-07T19:35:49.668Z</time>
      </trkpt>
      <trkpt lat="46.58681" lon="0.35459">
        <ele>115.69</ele>
        <time>2023-06-07T19:35:51.964Z</time>
      </trkpt>
      <trkpt lat="46.58681" lon="0.35459">
        <ele>115.69</ele>
        <time>2023-06-07T19:35:54.260Z</time>
      </trkpt>
      <trkpt lat="46.58688" lon="0.35453">
        <ele>115.79</ele>
        <time>2023-06-07T19:35:56.557Z</time>
      </trkpt>
      <trkpt lat="46.58699" lon="0.35443">
        <ele>115.99</ele>
        <time>2023-06-07T19:35:58.857Z</time>
      </trkpt>
      <trkpt lat="46.58707" lon="0.35436">
        <ele>116.13</ele>
        <time>2023-06-07T19:36:01.158Z</time>
      </trkpt>
      <trkpt lat="46.58708" lon="0.35435">
        <ele>116.15</ele>
        <time>2023-06-07T19:36:03.459Z</time>
      </trkpt>
      <trkpt lat="46.58715" lon="0.35431">
        <ele>116.3</ele>
        <time>2023-06-07T19:36:05.761Z</time>
      </trkpt>
      <trkpt lat="46.58723" lon="0.35425">
        <ele>116.51</ele>
        <time>2023-06-07T19:36:08.065Z</time>
      </trkpt>
      <trkpt lat="46.58731" lon="0.3542">
        <ele>116.75</ele>
        <time>2023-06-07T19:36:10.370Z</time>
      </trkpt>
      <trkpt lat="46.58743" lon="0.35412">
        <ele>117.15</ele>
        <time>2023-06-07T19:36:12.677Z</time>
      </trkpt>
      <trkpt lat="46.58758" lon="0.35402">
        <ele>117.75</ele>
        <time>2023-06-07T19:36:14.987Z</time>
      </trkpt>
      <trkpt lat="46.58759" lon="0.35401">
        <ele>117.79</ele>
        <time>2023-06-07T19:36:17.297Z</time>
      </trkpt>
      <trkpt lat="46.58777" lon="0.35378">
        <ele>118.76</ele>
        <time>2023-06-07T19:36:19.611Z</time>
      </trkpt>
      <trkpt lat="46.58783" lon="0.35374">
        <ele>119.04</ele>
        <time>2023-06-07T19:36:21.926Z</time>
      </trkpt>
      <trkpt lat="46.58788" lon="0.35371">
        <ele>119.2</ele>
        <time>2023-06-07T19:36:24.242Z</time>
      </trkpt>
      <trkpt lat="46.58791" lon="0.35362">
        <ele>119.41</ele>
        <time>2023-06-07T19:36:26.559Z</time>
      </trkpt>
      <trkpt lat="46.58792" lon="0.35361">
        <ele>119.45</ele>
        <time>2023-06-07T19:36:28.876Z</time>
      </trkpt>
      <trkpt lat="46.58799" lon="0.35353">
        <ele>119.7</ele>
        <time>2023-06-07T19:36:31.195Z</time>
      </trkpt>
      <trkpt lat="46.58823" lon="0.35323">
        <ele>120.51</ele>
        <time>2023-06-07T19:36:33.519Z</time>
      </trkpt>
      <trkpt lat="46.58833" lon="0.35311">
        <ele>120.84</ele>
        <time>2023-06-07T19:36:35.845Z</time>
      </trkpt>
      <trkpt lat="46.58836" lon="0.35307">
        <ele>120.92</ele>
        <time>2023-06-07T19:36:38.171Z</time>
      </trkpt>
      <trkpt lat="46.58841" lon="0.35296">
        <ele>121.1</ele>
        <time>2023-06-07T19:36:40.499Z</time>
      </trkpt>
      <trkpt lat="46.58846" lon="0.35286">
        <ele>121.21</ele>
        <time>2023-06-07T19:36:42.828Z</time>
      </trkpt>
      <trkpt lat="46.58851" lon="0.35275">
        <ele>121.27</ele>
        <time>2023-06-07T19:36:45.159Z</time>
      </trkpt>
      <trkpt lat="46.58859" lon="0.35259">
        <ele>121.44</ele>
        <time>2023-06-07T19:36:47.492Z</time>
      </trkpt>
      <trkpt lat="46.58863" lon="0.35251">
        <ele>121.55</ele>
        <time>2023-06-07T19:36:49.826Z</time>
      </trkpt>
      <trkpt lat="46.58868" lon="0.35246">
        <ele>121.66</ele>
        <time>2023-06-07T19:36:52.161Z</time>
      </trkpt>
      <trkpt lat="46.58872" lon="0.35244">
        <ele>121.73</ele>
        <time>2023-06-07T19:36:54.497Z</time>
      </trkpt>
      <trkpt lat="46.58876" lon="0.35241">
        <ele>121.78</ele>
        <time>2023-06-07T19:36:56.833Z</time>
      </trkpt>
      <trkpt lat="46.58886" lon="0.35246">
        <ele>121.91</ele>
        <time>2023-06-07T19:36:59.171Z</time>
      </trkpt>
      <trkpt lat="46.58902" lon="0.35254">
        <ele>122.19</ele>
        <time>2023-06-07T19:37:01.512Z</time>
      </trkpt>
      <trkpt lat="46.58904" lon="0.35249">
        <ele>122.26</ele>
        <time>2023-06-07T19:37:03.853Z</time>
      </trkpt>
      <trkpt lat="46.58907" lon="0.35244">
        <ele>122.3</ele>
        <time>2023-06-07T19:37:06.195Z</time>
      </trkpt>
      <trkpt lat="46.58913" lon="0.35234">
        <ele>122.34</ele>
        <time>2023-06-07T19:37:08.539Z</time>
      </trkpt>
      <trkpt lat="46.58918" lon="0.35223">
        <ele>122.32</ele>
        <time>2023-06-07T19:37:10.884Z</time>
      </trkpt>
      <trkpt lat="46.58923" lon="0.35213">
        <ele>122.27</ele>
        <time>2023-06-07T19:37:13.230Z</time>
      </trkpt>
      <trkpt lat="46.58927" lon="0.35206">
        <ele>122.21</ele>
        <time>2023-06-07T19:37:15.577Z</time>
      </trkpt>
      <trkpt lat="46.58929" lon="0.35202">
        <ele>122.18</ele>
        <time>2023-06-07T19:37:17.925Z</time>
      </trkpt>
      <trkpt lat="46.5894" lon="0.35174">
        <ele>121.93</ele>
        <time>2023-06-07T19:37:20.276Z</time>
      </trkpt>
      <trkpt lat="46.58944" lon="0.35165">
        <ele>121.82</ele>
        <time>2023-06-07T19:37:22.629Z</time>
      </trkpt>
      <trkpt lat="46.58946" lon="0.35157">
        <ele>121.74</ele>
        <time>2023-06-07T19:37:24.983Z</time>
      </trkpt>
      <trkpt lat="46.58948" lon="0.35144">
        <ele>121.57</ele>
        <time>2023-06-07T19:37:27.338Z</time>
      </trkpt>
      <trkpt lat="46.58951" lon="0.35131">
        <ele>121.34</ele>
        <time>2023-06-07T19:37:29.695Z</time>
      </trkpt>
      <trkpt lat="46.58953" lon="0.35119">
        <ele>121.05</ele>
        <time>2023-06-07T19:37:32.053Z</time>
      </trkpt>
      <trkpt lat="46.5896" lon="0.35086">
        <ele>120.19</ele>
        <time>2023-06-07T19:37:34.415Z</time>
      </trkpt>
      <trkpt lat="46.58962" lon="0.35082">
        <ele>120.08</ele>
        <time>2023-06-07T19:37:36.777Z</time>
      </trkpt>
      <trkpt lat="46.58968" lon="0.35073">
        <ele>119.83</ele>
        <time>2023-06-07T19:37:39.141Z</time>
      </trkpt>
      <trkpt lat="46.58974" lon="0.35063">
        <ele>119.61</ele>
        <time>2023-06-07T19:37:41.506Z</time>
      </trkpt>
      <trkpt lat="46.58977" lon="0.35059">
        <ele>119.53</ele>
        <time>2023-06-07T19:37:43.872Z</time>
      </trkpt>
      <trkpt lat="46.58982" lon="0.35056">
        <ele>119.43</ele>
        <time>2023-06-07T19:37:46.239Z</time>
      </trkpt>
      <trkpt lat="46.59002" lon="0.35043">
        <ele>119.08</ele>
        <time>2023-06-07T19:37:48.609Z</time>
      </trkpt>
      <trkpt lat="46.59011" lon="0.35038">
        <ele>118.9</ele>
        <time>2023-06-07T19:37:50.981Z</time>
      </trkpt>
      <trkpt lat="46.59015" lon="0.35039">
        <ele>118.83</ele>
        <time>2023-06-07T19:37:53.353Z</time>
      </trkpt>
      <trkpt lat="46.5902" lon="0.3504">
        <ele>118.69</ele>
        <time>2023-06-07T19:37:55.726Z</time>
      </trkpt>
      <trkpt lat="46.59024" lon="0.35032">
        <ele>118.53</ele>
        <time>2023-06-07T19:37:58.100Z</time>
      </trkpt>
      <trkpt lat="46.5903" lon="0.35018">
        <ele>118.17</ele>
        <time>2023-06-07T19:38:00.476Z</time>
      </trkpt>
      <trkpt lat="46.59033" lon="0.35012">
        <ele>117.94</ele>
        <time>2023-06-07T19:38:02.853Z</time>
      </trkpt>
      <trkpt lat="46.59035" lon="0.34987">
        <ele>117.15</ele>
        <time>2023-06-07T19:38:05.233Z</time>
      </trkpt>
      <trkpt lat="46.59036" lon="0.34967">
        <ele>116.54</ele>
        <time>2023-06-07T19:38:07.615Z</time>
      </trkpt>
      <trkpt lat="46.59041" lon="0.34958">
        <ele>116.19</ele>
        <time>2023-06-07T19:38:09.998Z</time>
      </trkpt>
      <trkpt lat="46.59061" lon="0.34924">
        <ele>114.75</ele>
        <time>2023-06-07T19:38:12.386Z</time>
      </trkpt>
      <trkpt lat="46.59064" lon="0.34919">
        <ele>114.68</ele>
        <time>2023-06-07T19:38:14.775Z</time>
      </trkpt>
      <trkpt lat="46.59066" lon="0.34913">
        <ele>114.61</ele>
        <time>2023-06-07T19:38:17.165Z</time>
      </trkpt>
      <trkpt lat="46.59074" lon="0.34879">
        <ele>114.03</ele>
        <time>2023-06-07T19:38:19.558Z</time>
      </trkpt>
      <trkpt lat="46.59076" lon="0.34873">
        <ele>113.93</ele>
        <time>2023-06-07T19:38:21.952Z</time>
      </trkpt>
      <trkpt lat="46.59083" lon="0.3486">
        <ele>113.71</ele>
        <time>2023-06-07T19:38:24.348Z</time>
      </trkpt>
      <trkpt lat="46.59091" lon="0.34845">
        <ele>113.13</ele>
        <time>2023-06-07T19:38:26.746Z</time>
      </trkpt>
      <trkpt lat="46.59102" lon="0.34824">
        <ele>112.31</ele>
        <time>2023-06-07T19:38:29.147Z</time>
      </trkpt>
      <trkpt lat="46.59107" lon="0.34814">
        <ele>111.94</ele>
        <time>2023-06-07T19:38:31.549Z</time>
      </trkpt>
      <trkpt lat="46.59115" lon="0.34798">
        <ele>111.44</ele>
        <time>2023-06-07T19:38:33.954Z</time>
      </trkpt>
      <trkpt lat="46.59123" lon="0.34783">
        <ele>110.99</ele>
        <time>2023-06-07T19:38:36.361Z</time>
      </trkpt>
      <trkpt lat="46.59131" lon="0.34759">
        <ele>110.36</ele>
        <time>2023-06-07T19:38:38.771Z</time>
      </trkpt>
      <trkpt lat="46.59137" lon="0.34741">
        <ele>110.04</ele>
        <time>2023-06-07T19:38:41.183Z</time>
      </trkpt>
      <trkpt lat="46.59139" lon="0.34731">
        <ele>109.89</ele>
        <time>2023-06-07T19:38:43.596Z</time>
      </trkpt>
      <trkpt lat="46.5914" lon="0.34724">
        <ele>109.81</ele>
        <time>2023-06-07T19:38:46.010Z</time>
      </trkpt>
      <trkpt lat="46.59141" lon="0.34706">
        <ele>109.63</ele>
        <time>2023-06-07T19:38:48.426Z</time>
      </trkpt>
      <trkpt lat="46.59143" lon="0.34687">
        <ele>109.34</ele>
        <time>2023-06-07T19:38:50.844Z</time>
      </trkpt>
      <trkpt lat="46.59143" lon="0.3468">
        <ele>109.28</ele>
        <time>2023-06-07T19:38:53.263Z</time>
      </trkpt>
      <trkpt lat="46.59147" lon="0.34669">
        <ele>109.2</ele>
        <time>2023-06-07T19:38:55.683Z</time>
      </trkpt>
      <trkpt lat="46.59157" lon="0.34646">
        <ele>108.58</ele>
        <time>2023-06-07T19:38:58.106Z</time>
      </trkpt>
      <trkpt lat="46.59157" lon="0.34635">
        <ele>108.33</ele>
        <time>2023-06-07T19:39:00.530Z</time>
      </trkpt>
      <trkpt lat="46.59158" lon="0.34623">
        <ele>108.01</ele>
        <time>2023-06-07T19:39:02.956Z</time>
      </trkpt>
      <trkpt lat="46.59158" lon="0.34622">
        <ele>108.01</ele>
        <time>2023-06-07T19:39:05.382Z</time>
      </trkpt>
      <trkpt lat="46.59155" lon="0.3461">
        <ele>107.65</ele>
        <time>2023-06-07T19:39:07.809Z</time>
      </trkpt>
      <trkpt lat="46.59151" lon="0.34591">
        <ele>107.05</ele>
        <time>2023-06-07T19:39:10.238Z</time>
      </trkpt>
      <trkpt lat="46.59151" lon="0.34591">
        <ele>107.05</ele>
        <time>2023-06-07T19:39:12.667Z</time>
      </trkpt>
      <trkpt lat="46.5915" lon="0.34573">
        <ele>106.4</ele>
        <time>2023-06-07T19:39:15.098Z</time>
      </trkpt>
      <trkpt lat="46.59149" lon="0.34559">
        <ele>105.89</ele>
        <time>2023-06-07T19:39:17.531Z</time>
      </trkpt>
      <trkpt lat="46.59153" lon="0.34543">
        <ele>105.27</ele>
        <time>2023-06-07T19:39:19.966Z</time>
      </trkpt>
      <trkpt lat="46.59156" lon="0.34537">
        <ele>105</ele>
        <time>2023-06-07T19:39:22.402Z</time>
      </trkpt>
      <trkpt lat="46.59161" lon="0.34529">
        <ele>104.56</ele>
        <time>2023-06-07T19:39:24.839Z</time>
      </trkpt>
      <trkpt lat="46.59161" lon="0.34527">
        <ele>104.48</ele>
        <time>2023-06-07T19:39:27.276Z</time>
      </trkpt>
      <trkpt lat="46.59165" lon="0.34511">
        <ele>103.71</ele>
        <time>2023-06-07T19:39:29.715Z</time>
      </trkpt>
      <trkpt lat="46.59166" lon="0.34502">
        <ele>103.33</ele>
        <time>2023-06-07T19:39:32.155Z</time>
      </trkpt>
      <trkpt lat="46.59166" lon="0.34496">
        <ele>103.07</ele>
        <time>2023-06-07T19:39:34.595Z</time>
      </trkpt>
      <trkpt lat="46.59166" lon="0.3449">
        <ele>102.84</ele>
        <time>2023-06-07T19:39:37.036Z</time>
      </trkpt>
      <trkpt lat="46.59167" lon="0.34477">
        <ele>102.43</ele>
        <time>2023-06-07T19:39:39.479Z</time>
      </trkpt>
      <trkpt lat="46.59168" lon="0.34464">
        <ele>102.06</ele>
        <time>2023-06-07T19:39:41.923Z</time>
      </trkpt>
      <trkpt lat="46.59168" lon="0.34458">
        <ele>101.89</ele>
        <time>2023-06-07T19:39:44.368Z</time>
      </trkpt>
      <trkpt lat="46.59169" lon="0.34445">
        <ele>101.59</ele>
        <time>2023-06-07T19:39:46.814Z</time>
      </trkpt>
      <trkpt lat="46.5917" lon="0.34432">
        <ele>101.54</ele>
        <time>2023-06-07T19:39:49.262Z</time>
      </trkpt>
      <trkpt lat="46.5917" lon="0.34432">
        <ele>101.54</ele>
        <time>2023-06-07T19:39:51.710Z</time>
      </trkpt>
      <trkpt lat="46.59173" lon="0.34429">
        <ele>101.54</ele>
        <time>2023-06-07T19:39:54.158Z</time>
      </trkpt>
      <trkpt lat="46.59173" lon="0.34429">
        <ele>101.54</ele>
        <time>2023-06-07T19:39:56.606Z</time>
      </trkpt>
      <trkpt lat="46.59195" lon="0.34426">
        <ele>101.67</ele>
        <time>2023-06-07T19:39:59.058Z</time>
      </trkpt>
      <trkpt lat="46.59202" lon="0.34425">
        <ele>101.67</ele>
        <time>2023-06-07T19:40:01.511Z</time>
      </trkpt>
      <trkpt lat="46.59204" lon="0.34425">
        <ele>101.67</ele>
        <time>2023-06-07T19:40:03.964Z</time>
      </trkpt>
      <trkpt lat="46.59217" lon="0.34428">
        <ele>101.61</ele>
        <time>2023-06-07T19:40:06.419Z</time>
      </trkpt>
      <trkpt lat="46.59234" lon="0.34431">
        <ele>101.41</ele>
        <time>2023-06-07T19:40:08.877Z</time>
      </trkpt>
      <trkpt lat="46.59239" lon="0.34432">
        <ele>101.3</ele>
        <time>2023-06-07T19:40:11.336Z</time>
      </trkpt>
      <trkpt lat="46.5924" lon="0.34417">
        <ele>101.09</ele>
        <time>2023-06-07T19:40:13.796Z</time>
      </trkpt>
      <trkpt lat="46.59241" lon="0.34404">
        <ele>100.41</ele>
        <time>2023-06-07T19:40:16.258Z</time>
      </trkpt>
      <trkpt lat="46.59242" lon="0.34391">
        <ele>99.7</ele>
        <time>2023-06-07T19:40:18.721Z</time>
      </trkpt>
      <trkpt lat="46.59242" lon="0.34379">
        <ele>98.95</ele>
        <time>2023-06-07T19:40:21.186Z</time>
      </trkpt>
      <trkpt lat="46.59243" lon="0.34366">
        <ele>98.16</ele>
        <time>2023-06-07T19:40:23.652Z</time>
      </trkpt>
      <trkpt lat="46.59244" lon="0.3436">
        <ele>97.74</ele>
        <time>2023-06-07T19:40:26.119Z</time>
      </trkpt>
      <trkpt lat="46.59244" lon="0.34347">
        <ele>96.84</ele>
        <time>2023-06-07T19:40:28.587Z</time>
      </trkpt>
      <trkpt lat="46.59245" lon="0.34336">
        <ele>96.02</ele>
        <time>2023-06-07T19:40:31.056Z</time>
      </trkpt>
      <trkpt lat="46.59247" lon="0.34315">
        <ele>94.5</ele>
        <time>2023-06-07T19:40:33.528Z</time>
      </trkpt>
      <trkpt lat="46.5925" lon="0.34294">
        <ele>93.8</ele>
        <time>2023-06-07T19:40:36.002Z</time>
      </trkpt>
      <trkpt lat="46.59252" lon="0.34275">
        <ele>92.42</ele>
        <time>2023-06-07T19:40:38.478Z</time>
      </trkpt>
      <trkpt lat="46.59253" lon="0.34263">
        <ele>91.47</ele>
        <time>2023-06-07T19:40:40.956Z</time>
      </trkpt>
      <trkpt lat="46.59261" lon="0.34186">
        <ele>85.53</ele>
        <time>2023-06-07T19:40:43.442Z</time>
      </trkpt>
      <trkpt lat="46.59265" lon="0.34155">
        <ele>82.96</ele>
        <time>2023-06-07T19:40:45.932Z</time>
      </trkpt>
      <trkpt lat="46.59266" lon="0.34143">
        <ele>81.98</ele>
        <time>2023-06-07T19:40:48.423Z</time>
      </trkpt>
      <trkpt lat="46.59264" lon="0.34103">
        <ele>78.65</ele>
        <time>2023-06-07T19:40:50.918Z</time>
      </trkpt>
      <trkpt lat="46.59264" lon="0.34096">
        <ele>78.65</ele>
        <time>2023-06-07T19:40:53.414Z</time>
      </trkpt>
      <trkpt lat="46.59261" lon="0.34079">
        <ele>78.68</ele>
        <time>2023-06-07T19:40:55.912Z</time>
      </trkpt>
      <trkpt lat="46.5926" lon="0.34071">
        <ele>77.57</ele>
        <time>2023-06-07T19:40:58.411Z</time>
      </trkpt>
      <trkpt lat="46.59257" lon="0.34057">
        <ele>75.51</ele>
        <time>2023-06-07T19:41:00.912Z</time>
      </trkpt>
      <trkpt lat="46.59256" lon="0.3405">
        <ele>75.41</ele>
        <time>2023-06-07T19:41:03.413Z</time>
      </trkpt>
      <trkpt lat="46.59251" lon="0.34039">
        <ele>75.25</ele>
        <time>2023-06-07T19:41:05.916Z</time>
      </trkpt>
      <trkpt lat="46.59249" lon="0.34033">
        <ele>74.96</ele>
        <time>2023-06-07T19:41:08.420Z</time>
      </trkpt>
      <trkpt lat="46.5925" lon="0.34024">
        <ele>74.57</ele>
        <time>2023-06-07T19:41:10.925Z</time>
      </trkpt>
      <trkpt lat="46.59252" lon="0.34013">
        <ele>74.07</ele>
        <time>2023-06-07T19:41:13.431Z</time>
      </trkpt>
      <trkpt lat="46.59253" lon="0.34006">
        <ele>73.83</ele>
        <time>2023-06-07T19:41:15.938Z</time>
      </trkpt>
      <trkpt lat="46.59253" lon="0.34002">
        <ele>73.7</ele>
        <time>2023-06-07T19:41:18.445Z</time>
      </trkpt>
      <trkpt lat="46.59254" lon="0.33983">
        <ele>73.24</ele>
        <time>2023-06-07T19:41:20.954Z</time>
      </trkpt>
      <trkpt lat="46.59255" lon="0.33963">
        <ele>72.87</ele>
        <time>2023-06-07T19:41:23.465Z</time>
      </trkpt>
      <trkpt lat="46.5926" lon="0.33939">
        <ele>72.41</ele>
        <time>2023-06-07T19:41:25.979Z</time>
      </trkpt>
      <trkpt lat="46.59262" lon="0.33932">
        <ele>72.31</ele>
        <time>2023-06-07T19:41:28.494Z</time>
      </trkpt>
      <trkpt lat="46.59269" lon="0.33919">
        <ele>72.1</ele>
        <time>2023-06-07T19:41:31.011Z</time>
      </trkpt>
      <trkpt lat="46.59278" lon="0.33898">
        <ele>71.9</ele>
        <time>2023-06-07T19:41:33.531Z</time>
      </trkpt>
      <trkpt lat="46.59291" lon="0.33873">
        <ele>71.73</ele>
        <time>2023-06-07T19:41:36.054Z</time>
      </trkpt>
      <trkpt lat="46.59291" lon="0.33873">
        <ele>71.73</ele>
        <time>2023-06-07T19:41:38.577Z</time>
      </trkpt>
      <trkpt lat="46.59297" lon="0.33865">
        <ele>71.68</ele>
        <time>2023-06-07T19:41:41.101Z</time>
      </trkpt>
      <trkpt lat="46.59315" lon="0.33843">
        <ele>71.58</ele>
        <time>2023-06-07T19:41:43.629Z</time>
      </trkpt>
      <trkpt lat="46.59321" lon="0.33839">
        <ele>71.56</ele>
        <time>2023-06-07T19:41:46.158Z</time>
      </trkpt>
      <trkpt lat="46.59357" lon="0.33816">
        <ele>71.46</ele>
        <time>2023-06-07T19:41:48.693Z</time>
      </trkpt>
      <trkpt lat="46.59394" lon="0.33798">
        <ele>71.38</ele>
        <time>2023-06-07T19:41:51.235Z</time>
      </trkpt>
      <trkpt lat="46.59395" lon="0.33797">
        <ele>71.38</ele>
        <time>2023-06-07T19:41:53.777Z</time>
      </trkpt>
      <trkpt lat="46.59402" lon="0.33795">
        <ele>71.43</ele>
        <time>2023-06-07T19:41:56.320Z</time>
      </trkpt>
      <trkpt lat="46.59424" lon="0.33791">
        <ele>71.63</ele>
        <time>2023-06-07T19:41:58.866Z</time>
      </trkpt>
      <trkpt lat="46.59429" lon="0.3379">
        <ele>71.64</ele>
        <time>2023-06-07T19:42:01.413Z</time>
      </trkpt>
      <trkpt lat="46.59442" lon="0.33789">
        <ele>71.68</ele>
        <time>2023-06-07T19:42:03.962Z</time>
      </trkpt>
      <trkpt lat="46.59445" lon="0.33789">
        <ele>71.69</ele>
        <time>2023-06-07T19:42:06.512Z</time>
      </trkpt>
      <trkpt lat="46.59454" lon="0.33789">
        <ele>71.68</ele>
        <time>2023-06-07T19:42:09.063Z</time>
      </trkpt>
      <trkpt lat="46.5948" lon="0.3379">
        <ele>71.56</ele>
        <time>2023-06-07T19:42:11.618Z</time>
      </trkpt>
      <trkpt lat="46.5949" lon="0.33788">
        <ele>71.52</ele>
        <time>2023-06-07T19:42:14.175Z</time>
      </trkpt>
      <trkpt lat="46.59504" lon="0.33777">
        <ele>71.45</ele>
        <time>2023-06-07T19:42:16.735Z</time>
      </trkpt>
      <trkpt lat="46.59507" lon="0.33762">
        <ele>71.41</ele>
        <time>2023-06-07T19:42:19.296Z</time>
      </trkpt>
      <trkpt lat="46.59514" lon="0.33732">
        <ele>71.44</ele>
        <time>2023-06-07T19:42:21.861Z</time>
      </trkpt>
      <trkpt lat="46.59514" lon="0.33732">
        <ele>71.44</ele>
        <time>2023-06-07T19:42:24.426Z</time>
      </trkpt>
      <trkpt lat="46.59522" lon="0.33721">
        <ele>71.46</ele>
        <time>2023-06-07T19:42:26.993Z</time>
      </trkpt>
      <trkpt lat="46.5953" lon="0.33724">
        <ele>71.48</ele>
        <time>2023-06-07T19:42:29.561Z</time>
      </trkpt>
      <trkpt lat="46.59547" lon="0.33728">
        <ele>71.52</ele>
        <time>2023-06-07T19:42:32.132Z</time>
      </trkpt>
      <trkpt lat="46.5956" lon="0.3373">
        <ele>71.52</ele>
        <time>2023-06-07T19:42:34.705Z</time>
      </trkpt>
      <trkpt lat="46.59573" lon="0.33733">
        <ele>71.47</ele>
        <time>2023-06-07T19:42:37.280Z</time>
      </trkpt>
      <trkpt lat="46.59596" lon="0.33738">
        <ele>71.24</ele>
        <time>2023-06-07T19:42:39.859Z</time>
      </trkpt>
      <trkpt lat="46.59596" lon="0.33738">
        <ele>71.24</ele>
        <time>2023-06-07T19:42:42.438Z</time>
      </trkpt>
      <trkpt lat="46.59608" lon="0.33743">
        <ele>71.2</ele>
        <time>2023-06-07T19:42:45.019Z</time>
      </trkpt>
      <trkpt lat="46.59614" lon="0.33745">
        <ele>71.2</ele>
        <time>2023-06-07T19:42:47.601Z</time>
      </trkpt>
      <trkpt lat="46.59633" lon="0.33749">
        <ele>71.21</ele>
        <time>2023-06-07T19:42:50.186Z</time>
      </trkpt>
      <trkpt lat="46.59639" lon="0.33751">
        <ele>71.22</ele>
        <time>2023-06-07T19:42:52.772Z</time>
      </trkpt>
      <trkpt lat="46.59665" lon="0.33761">
        <ele>71.26</ele>
        <time>2023-06-07T19:42:55.362Z</time>
      </trkpt>
      <trkpt lat="46.59667" lon="0.33762">
        <ele>71.27</ele>
        <time>2023-06-07T19:42:57.952Z</time>
      </trkpt>
      <trkpt lat="46.59687" lon="0.33767">
        <ele>71.38</ele>
        <time>2023-06-07T19:43:00.546Z</time>
      </trkpt>
      <trkpt lat="46.59692" lon="0.33768">
        <ele>71.4</ele>
        <time>2023-06-07T19:43:03.140Z</time>
      </trkpt>
      <trkpt lat="46.59695" lon="0.3377">
        <ele>71.43</ele>
        <time>2023-06-07T19:43:05.735Z</time>
      </trkpt>
      <trkpt lat="46.59712" lon="0.3378">
        <ele>71.45</ele>
        <time>2023-06-07T19:43:08.333Z</time>
      </trkpt>
      <trkpt lat="46.59714" lon="0.33781">
        <ele>71.44</ele>
        <time>2023-06-07T19:43:10.931Z</time>
      </trkpt>
      <trkpt lat="46.5972" lon="0.33785">
        <ele>71.43</ele>
        <time>2023-06-07T19:43:13.530Z</time>
      </trkpt>
      <trkpt lat="46.59736" lon="0.33796">
        <ele>71.33</ele>
        <time>2023-06-07T19:43:16.132Z</time>
      </trkpt>
      <trkpt lat="46.59751" lon="0.33807">
        <ele>71.27</ele>
        <time>2023-06-07T19:43:18.737Z</time>
      </trkpt>
      <trkpt lat="46.5976" lon="0.33812">
        <ele>71.25</ele>
        <time>2023-06-07T19:43:21.343Z</time>
      </trkpt>
      <trkpt lat="46.59773" lon="0.33818">
        <ele>71.19</ele>
        <time>2023-06-07T19:43:23.951Z</time>
      </trkpt>
      <trkpt lat="46.59777" lon="0.3382">
        <ele>71.18</ele>
        <time>2023-06-07T19:43:26.560Z</time>
      </trkpt>
      <trkpt lat="46.59796" lon="0.33838">
        <ele>71.17</ele>
        <time>2023-06-07T19:43:29.173Z</time>
      </trkpt>
      <trkpt lat="46.59826" lon="0.33866">
        <ele>71.06</ele>
        <time>2023-06-07T19:43:31.791Z</time>
      </trkpt>
      <trkpt lat="46.59841" lon="0.3388">
        <ele>71.03</ele>
        <time>2023-06-07T19:43:34.412Z</time>
      </trkpt>
      <trkpt lat="46.59852" lon="0.33891">
        <ele>71.01</ele>
        <time>2023-06-07T19:43:37.035Z</time>
      </trkpt>
      <trkpt lat="46.59856" lon="0.33896">
        <ele>71.01</ele>
        <time>2023-06-07T19:43:39.659Z</time>
      </trkpt>
      <trkpt lat="46.59863" lon="0.33901">
        <ele>71.02</ele>
        <time>2023-06-07T19:43:42.285Z</time>
      </trkpt>
      <trkpt lat="46.59871" lon="0.33906">
        <ele>71.03</ele>
        <time>2023-06-07T19:43:44.912Z</time>
      </trkpt>
      <trkpt lat="46.59879" lon="0.33914">
        <ele>71.06</ele>
        <time>2023-06-07T19:43:47.540Z</time>
      </trkpt>
      <trkpt lat="46.59894" lon="0.33929">
        <ele>71.05</ele>
        <time>2023-06-07T19:43:50.171Z</time>
      </trkpt>
      <trkpt lat="46.59902" lon="0.33933">
        <ele>71.05</ele>
        <time>2023-06-07T19:43:52.804Z</time>
      </trkpt>
      <trkpt lat="46.59906" lon="0.33936">
        <ele>71.05</ele>
        <time>2023-06-07T19:43:55.438Z</time>
      </trkpt>
      <trkpt lat="46.59913" lon="0.33943">
        <ele>71.06</ele>
        <time>2023-06-07T19:43:58.073Z</time>
      </trkpt>
      <trkpt lat="46.5992" lon="0.33949">
        <ele>71.09</ele>
        <time>2023-06-07T19:44:00.709Z</time>
      </trkpt>
      <trkpt lat="46.59927" lon="0.33959">
        <ele>71.14</ele>
        <time>2023-06-07T19:44:03.347Z</time>
      </trkpt>
      <trkpt lat="46.59929" lon="0.33963">
        <ele>71.16</ele>
        <time>2023-06-07T19:44:05.985Z</time>
      </trkpt>
      <trkpt lat="46.59941" lon="0.33974">
        <ele>71.26</ele>
        <time>2023-06-07T19:44:08.626Z</time>
      </trkpt>
      <trkpt lat="46.59946" lon="0.33978">
        <ele>71.31</ele>
        <time>2023-06-07T19:44:11.267Z</time>
      </trkpt>
      <trkpt lat="46.59955" lon="0.3399">
        <ele>71.44</ele>
        <time>2023-06-07T19:44:13.910Z</time>
      </trkpt>
      <trkpt lat="46.59961" lon="0.33999">
        <ele>71.47</ele>
        <time>2023-06-07T19:44:16.555Z</time>
      </trkpt>
      <trkpt lat="46.59964" lon="0.34003">
        <ele>71.47</ele>
        <time>2023-06-07T19:44:19.200Z</time>
      </trkpt>
      <trkpt lat="46.59965" lon="0.34004">
        <ele>71.47</ele>
        <time>2023-06-07T19:44:21.846Z</time>
      </trkpt>
      <trkpt lat="46.59983" lon="0.34023">
        <ele>71.38</ele>
        <time>2023-06-07T19:44:24.495Z</time>
      </trkpt>
      <trkpt lat="46.59987" lon="0.34027">
        <ele>71.37</ele>
        <time>2023-06-07T19:44:27.145Z</time>
      </trkpt>
      <trkpt lat="46.59998" lon="0.34036">
        <ele>71.35</ele>
        <time>2023-06-07T19:44:29.797Z</time>
      </trkpt>
      <trkpt lat="46.60001" lon="0.34039">
        <ele>71.35</ele>
        <time>2023-06-07T19:44:32.450Z</time>
      </trkpt>
      <trkpt lat="46.60005" lon="0.34044">
        <ele>71.36</ele>
        <time>2023-06-07T19:44:35.103Z</time>
      </trkpt>
      <trkpt lat="46.60009" lon="0.3405">
        <ele>71.39</ele>
        <time>2023-06-07T19:44:37.757Z</time>
      </trkpt>
      <trkpt lat="46.60016" lon="0.34064">
        <ele>71.46</ele>
        <time>2023-06-07T19:44:40.413Z</time>
      </trkpt>
      <trkpt lat="46.60022" lon="0.34074">
        <ele>71.47</ele>
        <time>2023-06-07T19:44:43.071Z</time>
      </trkpt>
      <trkpt lat="46.60028" lon="0.34084">
        <ele>71.44</ele>
        <time>2023-06-07T19:44:45.730Z</time>
      </trkpt>
      <trkpt lat="46.60039" lon="0.34104">
        <ele>71.35</ele>
        <time>2023-06-07T19:44:48.392Z</time>
      </trkpt>
      <trkpt lat="46.60057" lon="0.34137">
        <ele>71.15</ele>
        <time>2023-06-07T19:44:51.059Z</time>
      </trkpt>
      <trkpt lat="46.60058" lon="0.34139">
        <ele>71.14</ele>
        <time>2023-06-07T19:44:53.726Z</time>
      </trkpt>
      <trkpt lat="46.60068" lon="0.34151">
        <ele>71.09</ele>
        <time>2023-06-07T19:44:56.395Z</time>
      </trkpt>
      <trkpt lat="46.60075" lon="0.3416">
        <ele>71.09</ele>
        <time>2023-06-07T19:44:59.066Z</time>
      </trkpt>
      <trkpt lat="46.60093" lon="0.34182">
        <ele>71.15</ele>
        <time>2023-06-07T19:45:01.740Z</time>
      </trkpt>
      <trkpt lat="46.60095" lon="0.34185">
        <ele>71.17</ele>
        <time>2023-06-07T19:45:04.415Z</time>
      </trkpt>
      <trkpt lat="46.60112" lon="0.34208">
        <ele>71.15</ele>
        <time>2023-06-07T19:45:07.093Z</time>
      </trkpt>
      <trkpt lat="46.60117" lon="0.34215">
        <ele>71.16</ele>
        <time>2023-06-07T19:45:09.773Z</time>
      </trkpt>
      <trkpt lat="46.6012" lon="0.34223">
        <ele>71.17</ele>
        <time>2023-06-07T19:45:12.454Z</time>
      </trkpt>
      <trkpt lat="46.6012" lon="0.34224">
        <ele>71.17</ele>
        <time>2023-06-07T19:45:15.135Z</time>
      </trkpt>
      <trkpt lat="46.60118" lon="0.34234">
        <ele>71.19</ele>
        <time>2023-06-07T19:45:17.817Z</time>
      </trkpt>
      <trkpt lat="46.60112" lon="0.34245">
        <ele>71.23</ele>
        <time>2023-06-07T19:45:20.500Z</time>
      </trkpt>
      <trkpt lat="46.60106" lon="0.34255">
        <ele>71.33</ele>
        <time>2023-06-07T19:45:23.185Z</time>
      </trkpt>
      <trkpt lat="46.60095" lon="0.34274">
        <ele>71.63</ele>
        <time>2023-06-07T19:45:25.873Z</time>
      </trkpt>
      <trkpt lat="46.60095" lon="0.34275">
        <ele>71.63</ele>
        <time>2023-06-07T19:45:28.561Z</time>
      </trkpt>
      <trkpt lat="46.60096" lon="0.34281">
        <ele>71.73</ele>
        <time>2023-06-07T19:45:31.249Z</time>
      </trkpt>
      <trkpt lat="46.60096" lon="0.34294">
        <ele>71.96</ele>
        <time>2023-06-07T19:45:33.939Z</time>
      </trkpt>
      <trkpt lat="46.60097" lon="0.34302">
        <ele>72.07</ele>
        <time>2023-06-07T19:45:36.630Z</time>
      </trkpt>
      <trkpt lat="46.6009" lon="0.34305">
        <ele>72.23</ele>
        <time>2023-06-07T19:45:39.322Z</time>
      </trkpt>
      <trkpt lat="46.60081" lon="0.34301">
        <ele>72.43</ele>
        <time>2023-06-07T19:45:42.015Z</time>
      </trkpt>
      <trkpt lat="46.60079" lon="0.343">
        <ele>72.46</ele>
        <time>2023-06-07T19:45:44.709Z</time>
      </trkpt>
      <trkpt lat="46.60073" lon="0.34294">
        <ele>72.56</ele>
        <time>2023-06-07T19:45:47.404Z</time>
      </trkpt>
      <trkpt lat="46.60065" lon="0.34286">
        <ele>72.65</ele>
        <time>2023-06-07T19:45:50.100Z</time>
      </trkpt>
      <trkpt lat="46.60062" lon="0.34283">
        <ele>72.69</ele>
        <time>2023-06-07T19:45:52.797Z</time>
      </trkpt>
      <trkpt lat="46.60034" lon="0.34252">
        <ele>72.91</ele>
        <time>2023-06-07T19:45:55.500Z</time>
      </trkpt>
      <trkpt lat="46.60027" lon="0.34244">
        <ele>72.94</ele>
        <time>2023-06-07T19:45:58.204Z</time>
      </trkpt>
      <trkpt lat="46.60023" lon="0.3424">
        <ele>72.93</ele>
        <time>2023-06-07T19:46:00.909Z</time>
      </trkpt>
      <trkpt lat="46.6002" lon="0.34236">
        <ele>72.9</ele>
        <time>2023-06-07T19:46:03.614Z</time>
      </trkpt>
      <trkpt lat="46.60002" lon="0.34217">
        <ele>72.6</ele>
        <time>2023-06-07T19:46:06.323Z</time>
      </trkpt>
      <trkpt lat="46.59995" lon="0.34209">
        <ele>72.53</ele>
        <time>2023-06-07T19:46:09.033Z</time>
      </trkpt>
      <trkpt lat="46.59973" lon="0.34186">
        <ele>72.5</ele>
        <time>2023-06-07T19:46:11.748Z</time>
      </trkpt>
      <trkpt lat="46.59959" lon="0.3417">
        <ele>72.5</ele>
        <time>2023-06-07T19:46:14.466Z</time>
      </trkpt>
      <trkpt lat="46.59952" lon="0.34162">
        <ele>72.56</ele>
        <time>2023-06-07T19:46:17.185Z</time>
      </trkpt>
      <trkpt lat="46.59947" lon="0.34157">
        <ele>72.62</ele>
        <time>2023-06-07T19:46:19.905Z</time>
      </trkpt>
      <trkpt lat="46.59937" lon="0.34148">
        <ele>72.75</ele>
        <time>2023-06-07T19:46:22.627Z</time>
      </trkpt>
      <trkpt lat="46.59927" lon="0.3414">
        <ele>72.92</ele>
        <time>2023-06-07T19:46:25.351Z</time>
      </trkpt>
      <trkpt lat="46.59925" lon="0.34139">
        <ele>72.95</ele>
        <time>2023-06-07T19:46:28.075Z</time>
      </trkpt>
      <trkpt lat="46.59909" lon="0.34129">
        <ele>73.25</ele>
        <time>2023-06-07T19:46:30.802Z</time>
      </trkpt>
      <trkpt lat="46.59903" lon="0.34126">
        <ele>73.39</ele>
        <time>2023-06-07T19:46:33.530Z</time>
      </trkpt>
      <trkpt lat="46.59865" lon="0.34096">
        <ele>74.38</ele>
        <time>2023-06-07T19:46:36.265Z</time>
      </trkpt>
      <trkpt lat="46.59861" lon="0.34092">
        <ele>74.48</ele>
        <time>2023-06-07T19:46:39.001Z</time>
      </trkpt>
      <trkpt lat="46.59844" lon="0.34085">
        <ele>74.84</ele>
        <time>2023-06-07T19:46:41.739Z</time>
      </trkpt>
      <trkpt lat="46.5984" lon="0.34083">
        <ele>74.96</ele>
        <time>2023-06-07T19:46:44.478Z</time>
      </trkpt>
      <trkpt lat="46.59836" lon="0.34081">
        <ele>75.11</ele>
        <time>2023-06-07T19:46:47.218Z</time>
      </trkpt>
      <trkpt lat="46.59831" lon="0.3408">
        <ele>75.28</ele>
        <time>2023-06-07T19:46:49.959Z</time>
      </trkpt>
      <trkpt lat="46.59827" lon="0.34078">
        <ele>75.5</ele>
        <time>2023-06-07T19:46:52.700Z</time>
      </trkpt>
      <trkpt lat="46.59823" lon="0.34076">
        <ele>75.74</ele>
        <time>2023-06-07T19:46:55.442Z</time>
      </trkpt>
      <trkpt lat="46.5981" lon="0.34071">
        <ele>76.54</ele>
        <time>2023-06-07T19:46:58.186Z</time>
      </trkpt>
      <trkpt lat="46.59801" lon="0.34067">
        <ele>77.01</ele>
        <time>2023-06-07T19:47:00.932Z</time>
      </trkpt>
      <trkpt lat="46.59794" lon="0.34064">
        <ele>77.33</ele>
        <time>2023-06-07T19:47:03.679Z</time>
      </trkpt>
      <trkpt lat="46.59793" lon="0.34063">
        <ele>77.39</ele>
        <time>2023-06-07T19:47:06.426Z</time>
      </trkpt>
      <trkpt lat="46.59789" lon="0.34061">
        <ele>77.55</ele>
        <time>2023-06-07T19:47:09.174Z</time>
      </trkpt>
      <trkpt lat="46.5978" lon="0.34055">
        <ele>77.82</ele>
        <time>2023-06-07T19:47:11.923Z</time>
      </trkpt>
      <trkpt lat="46.59772" lon="0.3405">
        <ele>78.04</ele>
        <time>2023-06-07T19:47:14.674Z</time>
      </trkpt>
      <trkpt lat="46.59764" lon="0.34045">
        <ele>78.22</ele>
        <time>2023-06-07T19:47:17.426Z</time>
      </trkpt>
      <trkpt lat="46.59756" lon="0.3404">
        <ele>78.34</ele>
        <time>2023-06-07T19:47:20.179Z</time>
      </trkpt>
      <trkpt lat="46.59756" lon="0.3404">
        <ele>78.34</ele>
        <time>2023-06-07T19:47:22.932Z</time>
      </trkpt>
      <trkpt lat="46.59739" lon="0.34031">
        <ele>78.54</ele>
        <time>2023-06-07T19:47:25.688Z</time>
      </trkpt>
      <trkpt lat="46.59731" lon="0.34027">
        <ele>78.66</ele>
        <time>2023-06-07T19:47:28.446Z</time>
      </trkpt>
      <trkpt lat="46.59726" lon="0.34025">
        <ele>78.74</ele>
        <time>2023-06-07T19:47:31.204Z</time>
      </trkpt>
      <trkpt lat="46.59713" lon="0.3402">
        <ele>78.97</ele>
        <time>2023-06-07T19:47:33.965Z</time>
      </trkpt>
      <trkpt lat="46.597" lon="0.34016">
        <ele>79.26</ele>
        <time>2023-06-07T19:47:36.728Z</time>
      </trkpt>
      <trkpt lat="46.59691" lon="0.34012">
        <ele>79.5</ele>
        <time>2023-06-07T19:47:39.492Z</time>
      </trkpt>
      <trkpt lat="46.5969" lon="0.34012">
        <ele>79.54</ele>
        <time>2023-06-07T19:47:42.256Z</time>
      </trkpt>
      <trkpt lat="46.59687" lon="0.34011">
        <ele>79.64</ele>
        <time>2023-06-07T19:47:45.021Z</time>
      </trkpt>
      <trkpt lat="46.59683" lon="0.34009">
        <ele>79.8</ele>
        <time>2023-06-07T19:47:47.787Z</time>
      </trkpt>
      <trkpt lat="46.59679" lon="0.34007">
        <ele>79.99</ele>
        <time>2023-06-07T19:47:50.553Z</time>
      </trkpt>
      <trkpt lat="46.59666" lon="0.34001">
        <ele>80.62</ele>
        <time>2023-06-07T19:47:53.322Z</time>
      </trkpt>
      <trkpt lat="46.59656" lon="0.33997">
        <ele>81.13</ele>
        <time>2023-06-07T19:47:56.092Z</time>
      </trkpt>
      <trkpt lat="46.59653" lon="0.33996">
        <ele>81.31</ele>
        <time>2023-06-07T19:47:58.863Z</time>
      </trkpt>
      <trkpt lat="46.59631" lon="0.3399">
        <ele>82.5</ele>
        <time>2023-06-07T19:48:01.637Z</time>
      </trkpt>
      <trkpt lat="46.59621" lon="0.33988">
        <ele>82.95</ele>
        <time>2023-06-07T19:48:04.413Z</time>
      </trkpt>
      <trkpt lat="46.59621" lon="0.33988">
        <ele>82.95</ele>
        <time>2023-06-07T19:48:07.189Z</time>
      </trkpt>
      <trkpt lat="46.59609" lon="0.33983">
        <ele>83.59</ele>
        <time>2023-06-07T19:48:09.967Z</time>
      </trkpt>
      <trkpt lat="46.59599" lon="0.33978">
        <ele>83.84</ele>
        <time>2023-06-07T19:48:12.747Z</time>
      </trkpt>
      <trkpt lat="46.59597" lon="0.33978">
        <ele>83.9</ele>
        <time>2023-06-07T19:48:15.527Z</time>
      </trkpt>
      <trkpt lat="46.59592" lon="0.33978">
        <ele>84</ele>
        <time>2023-06-07T19:48:18.308Z</time>
      </trkpt>
      <trkpt lat="46.59589" lon="0.3398">
        <ele>84.08</ele>
        <time>2023-06-07T19:48:21.089Z</time>
      </trkpt>
      <trkpt lat="46.59589" lon="0.3398">
        <ele>84.08</ele>
        <time>2023-06-07T19:48:23.870Z</time>
      </trkpt>
      <trkpt lat="46.59588" lon="0.33983">
        <ele>84.21</ele>
        <time>2023-06-07T19:48:26.652Z</time>
      </trkpt>
      <trkpt lat="46.59586" lon="0.33987">
        <ele>84.27</ele>
        <time>2023-06-07T19:48:29.434Z</time>
      </trkpt>
      <trkpt lat="46.59585" lon="0.33993">
        <ele>84.36</ele>
        <time>2023-06-07T19:48:32.217Z</time>
      </trkpt>
      <trkpt lat="46.59584" lon="0.3401">
        <ele>84.52</ele>
        <time>2023-06-07T19:48:35.002Z</time>
      </trkpt>
      <trkpt lat="46.59584" lon="0.34012">
        <ele>84.59</ele>
        <time>2023-06-07T19:48:37.787Z</time>
      </trkpt>
      <trkpt lat="46.59582" lon="0.34031">
        <ele>84.63</ele>
        <time>2023-06-07T19:48:40.574Z</time>
      </trkpt>
      <trkpt lat="46.59582" lon="0.34033">
        <ele>84.64</ele>
        <time>2023-06-07T19:48:43.361Z</time>
      </trkpt>
      <trkpt lat="46.5958" lon="0.34044">
        <ele>84.72</ele>
        <time>2023-06-07T19:48:46.149Z</time>
      </trkpt>
      <trkpt lat="46.59578" lon="0.3405">
        <ele>84.82</ele>
        <time>2023-06-07T19:48:48.938Z</time>
      </trkpt>
      <trkpt lat="46.59577" lon="0.34056">
        <ele>84.95</ele>
        <time>2023-06-07T19:48:51.728Z</time>
      </trkpt>
      <trkpt lat="46.59576" lon="0.34062">
        <ele>85.11</ele>
        <time>2023-06-07T19:48:54.519Z</time>
      </trkpt>
      <trkpt lat="46.59573" lon="0.34075">
        <ele>85.53</ele>
        <time>2023-06-07T19:48:57.311Z</time>
      </trkpt>
      <trkpt lat="46.59567" lon="0.34105">
        <ele>86.69</ele>
        <time>2023-06-07T19:49:00.106Z</time>
      </trkpt>
      <trkpt lat="46.59563" lon="0.34124">
        <ele>87.47</ele>
        <time>2023-06-07T19:49:02.904Z</time>
      </trkpt>
      <trkpt lat="46.5956" lon="0.34142">
        <ele>88.29</ele>
        <time>2023-06-07T19:49:05.704Z</time>
      </trkpt>
      <trkpt lat="46.59558" lon="0.3415">
        <ele>88.27</ele>
        <time>2023-06-07T19:49:08.505Z</time>
      </trkpt>
      <trkpt lat="46.59561" lon="0.34151">
        <ele>88.27</ele>
        <time>2023-06-07T19:49:11.306Z</time>
      </trkpt>
      <trkpt lat="46.59569" lon="0.34155">
        <ele>88.22</ele>
        <time>2023-06-07T19:49:14.109Z</time>
      </trkpt>
      <trkpt lat="46.59594" lon="0.34166">
        <ele>88.03</ele>
        <time>2023-06-07T19:49:16.916Z</time>
      </trkpt>
      <trkpt lat="46.59607" lon="0.34171">
        <ele>87.91</ele>
        <time>2023-06-07T19:49:19.725Z</time>
      </trkpt>
      <trkpt lat="46.59619" lon="0.34177">
        <ele>87.75</ele>
        <time>2023-06-07T19:49:22.536Z</time>
      </trkpt>
      <trkpt lat="46.59649" lon="0.34189">
        <ele>87.31</ele>
        <time>2023-06-07T19:49:25.352Z</time>
      </trkpt>
      <trkpt lat="46.59665" lon="0.34197">
        <ele>87.11</ele>
        <time>2023-06-07T19:49:28.171Z</time>
      </trkpt>
      <trkpt lat="46.59686" lon="0.34206">
        <ele>86.82</ele>
        <time>2023-06-07T19:49:30.993Z</time>
      </trkpt>
      <trkpt lat="46.59698" lon="0.34211">
        <ele>86.75</ele>
        <time>2023-06-07T19:49:33.817Z</time>
      </trkpt>
      <trkpt lat="46.59709" lon="0.34216">
        <ele>86.71</ele>
        <time>2023-06-07T19:49:36.643Z</time>
      </trkpt>
      <trkpt lat="46.59714" lon="0.34218">
        <ele>87.06</ele>
        <time>2023-06-07T19:49:39.470Z</time>
      </trkpt>
      <trkpt lat="46.59714" lon="0.34219">
        <ele>87.06</ele>
        <time>2023-06-07T19:49:42.297Z</time>
      </trkpt>
      <trkpt lat="46.59713" lon="0.34237">
        <ele>87.42</ele>
        <time>2023-06-07T19:49:45.126Z</time>
      </trkpt>
      <trkpt lat="46.59712" lon="0.34245">
        <ele>87.82</ele>
        <time>2023-06-07T19:49:47.956Z</time>
      </trkpt>
      <trkpt lat="46.59709" lon="0.34254">
        <ele>88.33</ele>
        <time>2023-06-07T19:49:50.787Z</time>
      </trkpt>
      <trkpt lat="46.59706" lon="0.34266">
        <ele>89</ele>
        <time>2023-06-07T19:49:53.619Z</time>
      </trkpt>
      <trkpt lat="46.59701" lon="0.34282">
        <ele>90.08</ele>
        <time>2023-06-07T19:49:56.453Z</time>
      </trkpt>
      <trkpt lat="46.59696" lon="0.34299">
        <ele>91.25</ele>
        <time>2023-06-07T19:49:59.289Z</time>
      </trkpt>
      <trkpt lat="46.59691" lon="0.34317">
        <ele>92.38</ele>
        <time>2023-06-07T19:50:02.127Z</time>
      </trkpt>
      <trkpt lat="46.59682" lon="0.34349">
        <ele>94.35</ele>
        <time>2023-06-07T19:50:04.969Z</time>
      </trkpt>
      <trkpt lat="46.59678" lon="0.34357">
        <ele>94.9</ele>
        <time>2023-06-07T19:50:07.812Z</time>
      </trkpt>
      <trkpt lat="46.59673" lon="0.34368">
        <ele>95.58</ele>
        <time>2023-06-07T19:50:10.657Z</time>
      </trkpt>
      <trkpt lat="46.59666" lon="0.34384">
        <ele>96.5</ele>
        <time>2023-06-07T19:50:13.504Z</time>
      </trkpt>
      <trkpt lat="46.59659" lon="0.34399">
        <ele>97.34</ele>
        <time>2023-06-07T19:50:16.353Z</time>
      </trkpt>
      <trkpt lat="46.59652" lon="0.34415">
        <ele>98.15</ele>
        <time>2023-06-07T19:50:19.204Z</time>
      </trkpt>
      <trkpt lat="46.59639" lon="0.34442">
        <ele>99.45</ele>
        <time>2023-06-07T19:50:22.058Z</time>
      </trkpt>
      <trkpt lat="46.59632" lon="0.34457">
        <ele>100.02</ele>
        <time>2023-06-07T19:50:24.914Z</time>
      </trkpt>
      <trkpt lat="46.59628" lon="0.34467">
        <ele>100.43</ele>
        <time>2023-06-07T19:50:27.772Z</time>
      </trkpt>
      <trkpt lat="46.59614" lon="0.34498">
        <ele>101.7</ele>
        <time>2023-06-07T19:50:30.634Z</time>
      </trkpt>
      <trkpt lat="46.59611" lon="0.34504">
        <ele>101.84</ele>
        <time>2023-06-07T19:50:33.497Z</time>
      </trkpt>
      <trkpt lat="46.59613" lon="0.34507">
        <ele>101.94</ele>
        <time>2023-06-07T19:50:36.360Z</time>
      </trkpt>
      <trkpt lat="46.59625" lon="0.34525">
        <ele>102.5</ele>
        <time>2023-06-07T19:50:39.226Z</time>
      </trkpt>
      <trkpt lat="46.5964" lon="0.34546">
        <ele>103.11</ele>
        <time>2023-06-07T19:50:42.095Z</time>
      </trkpt>
      <trkpt lat="46.59687" lon="0.34614">
        <ele>104.77</ele>
        <time>2023-06-07T19:50:44.975Z</time>
      </trkpt>
      <trkpt lat="46.59682" lon="0.34622">
        <ele>104.96</ele>
        <time>2023-06-07T19:50:47.856Z</time>
      </trkpt>
      <trkpt lat="46.59677" lon="0.34632">
        <ele>105.21</ele>
        <time>2023-06-07T19:50:50.738Z</time>
      </trkpt>
      <trkpt lat="46.59646" lon="0.34683">
        <ele>106.68</ele>
        <time>2023-06-07T19:50:53.628Z</time>
      </trkpt>
      <trkpt lat="46.59643" lon="0.34689">
        <ele>106.43</ele>
        <time>2023-06-07T19:50:56.519Z</time>
      </trkpt>
      <trkpt lat="46.5964" lon="0.34686">
        <ele>106.27</ele>
        <time>2023-06-07T19:50:59.410Z</time>
      </trkpt>
      <trkpt lat="46.59637" lon="0.34682">
        <ele>106.1</ele>
        <time>2023-06-07T19:51:02.302Z</time>
      </trkpt>
      <trkpt lat="46.59634" lon="0.34678">
        <ele>105.95</ele>
        <time>2023-06-07T19:51:05.195Z</time>
      </trkpt>
      <trkpt lat="46.5963" lon="0.34674">
        <ele>105.84</ele>
        <time>2023-06-07T19:51:08.088Z</time>
      </trkpt>
      <trkpt lat="46.59627" lon="0.3467">
        <ele>105.76</ele>
        <time>2023-06-07T19:51:10.982Z</time>
      </trkpt>
      <trkpt lat="46.5962" lon="0.34662">
        <ele>105.65</ele>
        <time>2023-06-07T19:51:13.877Z</time>
      </trkpt>
      <trkpt lat="46.59604" lon="0.34643">
        <ele>105.42</ele>
        <time>2023-06-07T19:51:16.776Z</time>
      </trkpt>
      <trkpt lat="46.59597" lon="0.34635">
        <ele>105.38</ele>
        <time>2023-06-07T19:51:19.676Z</time>
      </trkpt>
      <trkpt lat="46.59594" lon="0.34632">
        <ele>105.38</ele>
        <time>2023-06-07T19:51:22.577Z</time>
      </trkpt>
      <trkpt lat="46.59594" lon="0.34632">
        <ele>105.22</ele>
        <time>2023-06-07T19:51:25.478Z</time>
      </trkpt>
      <trkpt lat="46.59587" lon="0.34623">
        <ele>105.03</ele>
        <time>2023-06-07T19:51:28.380Z</time>
      </trkpt>
      <trkpt lat="46.59587" lon="0.34623">
        <ele>105.4</ele>
        <time>2023-06-07T19:51:31.282Z</time>
      </trkpt>
      <trkpt lat="46.59583" lon="0.34619">
        <ele>105.39</ele>
        <time>2023-06-07T19:51:34.185Z</time>
      </trkpt>
      <trkpt lat="46.59589" lon="0.34626">
        <ele>105.38</ele>
        <time>2023-06-07T19:51:37.089Z</time>
      </trkpt>
      <trkpt lat="46.59596" lon="0.34634">
        <ele>105.42</ele>
        <time>2023-06-07T19:51:39.995Z</time>
      </trkpt>
      <trkpt lat="46.59613" lon="0.34653">
        <ele>105.65</ele>
        <time>2023-06-07T19:51:42.904Z</time>
      </trkpt>
      <trkpt lat="46.59619" lon="0.34661">
        <ele>105.76</ele>
        <time>2023-06-07T19:51:45.815Z</time>
      </trkpt>
      <trkpt lat="46.59623" lon="0.34665">
        <ele>105.84</ele>
        <time>2023-06-07T19:51:48.726Z</time>
      </trkpt>
      <trkpt lat="46.59626" lon="0.34669">
        <ele>105.95</ele>
        <time>2023-06-07T19:51:51.638Z</time>
      </trkpt>
      <trkpt lat="46.59629" lon="0.34673">
        <ele>106.1</ele>
        <time>2023-06-07T19:51:54.551Z</time>
      </trkpt>
      <trkpt lat="46.59632" lon="0.34677">
        <ele>106.27</ele>
        <time>2023-06-07T19:51:57.464Z</time>
      </trkpt>
      <trkpt lat="46.59639" lon="0.34685">
        <ele>106.68</ele>
        <time>2023-06-07T19:52:00.379Z</time>
      </trkpt>
      <trkpt lat="46.59643" lon="0.34689">
        <ele>106.79</ele>
        <time>2023-06-07T19:52:03.294Z</time>
      </trkpt>
      <trkpt lat="46.59635" lon="0.34702">
        <ele>107.07</ele>
        <time>2023-06-07T19:52:06.211Z</time>
      </trkpt>
      <trkpt lat="46.59632" lon="0.34707">
        <ele>106.96</ele>
        <time>2023-06-07T19:52:09.129Z</time>
      </trkpt>
      <trkpt lat="46.59629" lon="0.34704">
        <ele>106.89</ele>
        <time>2023-06-07T19:52:12.048Z</time>
      </trkpt>
      <trkpt lat="46.59621" lon="0.34698">
        <ele>106.76</ele>
        <time>2023-06-07T19:52:14.968Z</time>
      </trkpt>
      <trkpt lat="46.59602" lon="0.34682">
        <ele>106.5</ele>
        <time>2023-06-07T19:52:17.892Z</time>
      </trkpt>
      <trkpt lat="46.5959" lon="0.34673">
        <ele>106.4</ele>
        <time>2023-06-07T19:52:20.818Z</time>
      </trkpt>
      <trkpt lat="46.59579" lon="0.34663">
        <ele>106.26</ele>
        <time>2023-06-07T19:52:23.746Z</time>
      </trkpt>
      <trkpt lat="46.59563" lon="0.34651">
        <ele>106.12</ele>
        <time>2023-06-07T19:52:26.677Z</time>
      </trkpt>
      <trkpt lat="46.59542" lon="0.34633">
        <ele>105.76</ele>
        <time>2023-06-07T19:52:29.612Z</time>
      </trkpt>
      <trkpt lat="46.5954" lon="0.34632">
        <ele>105.74</ele>
        <time>2023-06-07T19:52:32.547Z</time>
      </trkpt>
      <trkpt lat="46.59532" lon="0.34628">
        <ele>105.69</ele>
        <time>2023-06-07T19:52:35.483Z</time>
      </trkpt>
      <trkpt lat="46.59527" lon="0.34626">
        <ele>105.69</ele>
        <time>2023-06-07T19:52:38.420Z</time>
      </trkpt>
      <trkpt lat="46.59515" lon="0.34624">
        <ele>105.69</ele>
        <time>2023-06-07T19:52:41.359Z</time>
      </trkpt>
      <trkpt lat="46.59506" lon="0.34623">
        <ele>105.66</ele>
        <time>2023-06-07T19:52:44.300Z</time>
      </trkpt>
      <trkpt lat="46.59501" lon="0.34622">
        <ele>105.66</ele>
        <time>2023-06-07T19:52:47.241Z</time>
      </trkpt>
      <trkpt lat="46.59476" lon="0.34612">
        <ele>105.71</ele>
        <time>2023-06-07T19:52:50.186Z</time>
      </trkpt>
      <trkpt lat="46.59468" lon="0.34608">
        <ele>105.68</ele>
        <time>2023-06-07T19:52:53.133Z</time>
      </trkpt>
      <trkpt lat="46.59463" lon="0.34606">
        <ele>105.64</ele>
        <time>2023-06-07T19:52:56.081Z</time>
      </trkpt>
      <trkpt lat="46.59455" lon="0.34608">
        <ele>105.6</ele>
        <time>2023-06-07T19:52:59.030Z</time>
      </trkpt>
      <trkpt lat="46.5945" lon="0.34609">
        <ele>105.84</ele>
        <time>2023-06-07T19:53:01.980Z</time>
      </trkpt>
      <trkpt lat="46.59449" lon="0.34614">
        <ele>106.04</ele>
        <time>2023-06-07T19:53:04.930Z</time>
      </trkpt>
      <trkpt lat="46.59446" lon="0.34627">
        <ele>106.42</ele>
        <time>2023-06-07T19:53:07.882Z</time>
      </trkpt>
      <trkpt lat="46.59444" lon="0.34633">
        <ele>106.57</ele>
        <time>2023-06-07T19:53:10.835Z</time>
      </trkpt>
      <trkpt lat="46.59442" lon="0.34645">
        <ele>106.81</ele>
        <time>2023-06-07T19:53:13.789Z</time>
      </trkpt>
      <trkpt lat="46.5944" lon="0.34652">
        <ele>106.91</ele>
        <time>2023-06-07T19:53:16.744Z</time>
      </trkpt>
      <trkpt lat="46.59437" lon="0.34664">
        <ele>107.07</ele>
        <time>2023-06-07T19:53:19.700Z</time>
      </trkpt>
      <trkpt lat="46.59427" lon="0.34707">
        <ele>107.46</ele>
        <time>2023-06-07T19:53:22.661Z</time>
      </trkpt>
      <trkpt lat="46.59422" lon="0.34729">
        <ele>107.69</ele>
        <time>2023-06-07T19:53:25.625Z</time>
      </trkpt>
      <trkpt lat="46.59422" lon="0.34732">
        <ele>107.73</ele>
        <time>2023-06-07T19:53:28.589Z</time>
      </trkpt>
      <trkpt lat="46.5942" lon="0.34751">
        <ele>107.69</ele>
        <time>2023-06-07T19:53:31.555Z</time>
      </trkpt>
      <trkpt lat="46.59418" lon="0.34756">
        <ele>107.68</ele>
        <time>2023-06-07T19:53:34.522Z</time>
      </trkpt>
      <trkpt lat="46.59413" lon="0.34772">
        <ele>107.58</ele>
        <time>2023-06-07T19:53:37.491Z</time>
      </trkpt>
      <trkpt lat="46.59408" lon="0.34789">
        <ele>107.41</ele>
        <time>2023-06-07T19:53:40.462Z</time>
      </trkpt>
      <trkpt lat="46.59403" lon="0.34806">
        <ele>107.15</ele>
        <time>2023-06-07T19:53:43.435Z</time>
      </trkpt>
      <trkpt lat="46.59401" lon="0.34812">
        <ele>106.95</ele>
        <time>2023-06-07T19:53:46.409Z</time>
      </trkpt>
      <trkpt lat="46.59389" lon="0.34804">
        <ele>106.43</ele>
        <time>2023-06-07T19:53:49.385Z</time>
      </trkpt>
      <trkpt lat="46.59364" lon="0.34789">
        <ele>105.2</ele>
        <time>2023-06-07T19:53:52.365Z</time>
      </trkpt>
      <trkpt lat="46.59363" lon="0.34788">
        <ele>105.14</ele>
        <time>2023-06-07T19:53:55.345Z</time>
      </trkpt>
      <trkpt lat="46.59356" lon="0.34786">
        <ele>104.84</ele>
        <time>2023-06-07T19:53:58.326Z</time>
      </trkpt>
      <trkpt lat="46.59356" lon="0.34786">
        <ele>104.84</ele>
        <time>2023-06-07T19:54:01.307Z</time>
      </trkpt>
      <trkpt lat="46.59351" lon="0.34787">
        <ele>104.7</ele>
        <time>2023-06-07T19:54:04.289Z</time>
      </trkpt>
      <trkpt lat="46.59349" lon="0.34787">
        <ele>104.63</ele>
        <time>2023-06-07T19:54:07.271Z</time>
      </trkpt>
      <trkpt lat="46.59347" lon="0.34788">
        <ele>104.58</ele>
        <time>2023-06-07T19:54:10.254Z</time>
      </trkpt>
      <trkpt lat="46.59339" lon="0.34793">
        <ele>104.43</ele>
        <time>2023-06-07T19:54:13.238Z</time>
      </trkpt>
      <trkpt lat="46.5933" lon="0.34798">
        <ele>104.35</ele>
        <time>2023-06-07T19:54:16.224Z</time>
      </trkpt>
      <trkpt lat="46.59326" lon="0.34801">
        <ele>104.4</ele>
        <time>2023-06-07T19:54:19.210Z</time>
      </trkpt>
      <trkpt lat="46.59328" lon="0.34804">
        <ele>104.44</ele>
        <time>2023-06-07T19:54:22.197Z</time>
      </trkpt>
      <trkpt lat="46.59339" lon="0.34824">
        <ele>104.85</ele>
        <time>2023-06-07T19:54:25.187Z</time>
      </trkpt>
      <trkpt lat="46.59347" lon="0.34839">
        <ele>105.18</ele>
        <time>2023-06-07T19:54:28.179Z</time>
      </trkpt>
      <trkpt lat="46.59356" lon="0.34853">
        <ele>105.57</ele>
        <time>2023-06-07T19:54:31.173Z</time>
      </trkpt>
      <trkpt lat="46.59367" lon="0.34873">
        <ele>106.15</ele>
        <time>2023-06-07T19:54:34.170Z</time>
      </trkpt>
      <trkpt lat="46.59372" lon="0.34883">
        <ele>106.46</ele>
        <time>2023-06-07T19:54:37.168Z</time>
      </trkpt>
      <trkpt lat="46.59378" lon="0.34893">
        <ele>106.8</ele>
        <time>2023-06-07T19:54:40.168Z</time>
      </trkpt>
      <trkpt lat="46.59385" lon="0.34905">
        <ele>107.27</ele>
        <time>2023-06-07T19:54:43.169Z</time>
      </trkpt>
      <trkpt lat="46.59386" lon="0.34908">
        <ele>107.37</ele>
        <time>2023-06-07T19:54:46.171Z</time>
      </trkpt>
      <trkpt lat="46.59397" lon="0.34936">
        <ele>108.36</ele>
        <time>2023-06-07T19:54:49.176Z</time>
      </trkpt>
      <trkpt lat="46.59403" lon="0.34951">
        <ele>108.72</ele>
        <time>2023-06-07T19:54:52.183Z</time>
      </trkpt>
      <trkpt lat="46.59409" lon="0.34967">
        <ele>109.12</ele>
        <time>2023-06-07T19:54:55.192Z</time>
      </trkpt>
      <trkpt lat="46.59411" lon="0.34973">
        <ele>109.32</ele>
        <time>2023-06-07T19:54:58.202Z</time>
      </trkpt>
      <trkpt lat="46.59408" lon="0.34977">
        <ele>109.48</ele>
        <time>2023-06-07T19:55:01.213Z</time>
      </trkpt>
      <trkpt lat="46.59405" lon="0.34981">
        <ele>109.64</ele>
        <time>2023-06-07T19:55:04.224Z</time>
      </trkpt>
      <trkpt lat="46.59403" lon="0.34984">
        <ele>109.72</ele>
        <time>2023-06-07T19:55:07.236Z</time>
      </trkpt>
      <trkpt lat="46.59402" lon="0.35005">
        <ele>110.17</ele>
        <time>2023-06-07T19:55:10.250Z</time>
      </trkpt>
      <trkpt lat="46.59401" lon="0.35018">
        <ele>110.48</ele>
        <time>2023-06-07T19:55:13.265Z</time>
      </trkpt>
      <trkpt lat="46.59397" lon="0.35068">
        <ele>111.87</ele>
        <time>2023-06-07T19:55:16.286Z</time>
      </trkpt>
      <trkpt lat="46.59396" lon="0.35087">
        <ele>112.47</ele>
        <time>2023-06-07T19:55:19.309Z</time>
      </trkpt>
      <trkpt lat="46.59393" lon="0.35125">
        <ele>113.82</ele>
        <time>2023-06-07T19:55:22.336Z</time>
      </trkpt>
      <trkpt lat="46.59391" lon="0.3515">
        <ele>114.67</ele>
        <time>2023-06-07T19:55:25.366Z</time>
      </trkpt>
      <trkpt lat="46.59391" lon="0.35157">
        <ele>114.88</ele>
        <time>2023-06-07T19:55:28.397Z</time>
      </trkpt>
      <trkpt lat="46.5939" lon="0.35169">
        <ele>115.26</ele>
        <time>2023-06-07T19:55:31.429Z</time>
      </trkpt>
      <trkpt lat="46.59389" lon="0.35188">
        <ele>115.79</ele>
        <time>2023-06-07T19:55:34.463Z</time>
      </trkpt>
      <trkpt lat="46.59387" lon="0.35213">
        <ele>116.43</ele>
        <time>2023-06-07T19:55:37.500Z</time>
      </trkpt>
      <trkpt lat="46.59383" lon="0.35257">
        <ele>117.5</ele>
        <time>2023-06-07T19:55:40.542Z</time>
      </trkpt>
      <trkpt lat="46.59382" lon="0.35274">
        <ele>117.81</ele>
        <time>2023-06-07T19:55:43.586Z</time>
      </trkpt>
      <trkpt lat="46.59379" lon="0.35309">
        <ele>118.48</ele>
        <time>2023-06-07T19:55:46.634Z</time>
      </trkpt>
      <trkpt lat="46.59375" lon="0.35363">
        <ele>119.4</ele>
        <time>2023-06-07T19:55:49.688Z</time>
      </trkpt>
      <trkpt lat="46.59374" lon="0.35381">
        <ele>119.68</ele>
        <time>2023-06-07T19:55:52.744Z</time>
      </trkpt>
      <trkpt lat="46.59373" lon="0.35388">
        <ele>119.81</ele>
        <time>2023-06-07T19:55:55.801Z</time>
      </trkpt>
      <trkpt lat="46.59369" lon="0.35406">
        <ele>120.2</ele>
        <time>2023-06-07T19:55:58.860Z</time>
      </trkpt>
      <trkpt lat="46.59354" lon="0.35481">
        <ele>121.66</ele>
        <time>2023-06-07T19:56:01.927Z</time>
      </trkpt>
      <trkpt lat="46.59352" lon="0.35493">
        <ele>121.92</ele>
        <time>2023-06-07T19:56:04.996Z</time>
      </trkpt>
      <trkpt lat="46.59348" lon="0.35512">
        <ele>122.34</ele>
        <time>2023-06-07T19:56:08.067Z</time>
      </trkpt>
      <trkpt lat="46.59342" lon="0.35543">
        <ele>123.09</ele>
        <time>2023-06-07T19:56:11.141Z</time>
      </trkpt>
      <trkpt lat="46.59339" lon="0.35555">
        <ele>123.36</ele>
        <time>2023-06-07T19:56:14.217Z</time>
      </trkpt>
      <trkpt lat="46.59338" lon="0.35562">
        <ele>123.42</ele>
        <time>2023-06-07T19:56:17.294Z</time>
      </trkpt>
      <trkpt lat="46.59336" lon="0.35567">
        <ele>123.47</ele>
        <time>2023-06-07T19:56:20.371Z</time>
      </trkpt>
      <trkpt lat="46.59329" lon="0.3559">
        <ele>123.75</ele>
        <time>2023-06-07T19:56:23.451Z</time>
      </trkpt>
      <trkpt lat="46.59325" lon="0.35601">
        <ele>123.86</ele>
        <time>2023-06-07T19:56:26.532Z</time>
      </trkpt>
      <trkpt lat="46.59317" lon="0.35623">
        <ele>124.01</ele>
        <time>2023-06-07T19:56:29.616Z</time>
      </trkpt>
      <trkpt lat="46.59308" lon="0.35652">
        <ele>124.15</ele>
        <time>2023-06-07T19:56:32.704Z</time>
      </trkpt>
      <trkpt lat="46.59294" lon="0.35693">
        <ele>124.49</ele>
        <time>2023-06-07T19:56:35.797Z</time>
      </trkpt>
      <trkpt lat="46.59292" lon="0.35703">
        <ele>124.57</ele>
        <time>2023-06-07T19:56:38.891Z</time>
      </trkpt>
      <trkpt lat="46.59286" lon="0.35745">
        <ele>124.91</ele>
        <time>2023-06-07T19:56:41.989Z</time>
      </trkpt>
      <trkpt lat="46.59281" lon="0.35782">
        <ele>125.26</ele>
        <time>2023-06-07T19:56:45.092Z</time>
      </trkpt>
      <trkpt lat="46.59278" lon="0.35803">
        <ele>125.48</ele>
        <time>2023-06-07T19:56:48.197Z</time>
      </trkpt>
      <trkpt lat="46.5928" lon="0.3582">
        <ele>125.66</ele>
        <time>2023-06-07T19:56:51.304Z</time>
      </trkpt>
      <trkpt lat="46.59281" lon="0.35827">
        <ele>125.71</ele>
        <time>2023-06-07T19:56:54.412Z</time>
      </trkpt>
      <trkpt lat="46.59291" lon="0.35854">
        <ele>125.96</ele>
        <time>2023-06-07T19:56:57.523Z</time>
      </trkpt>
      <trkpt lat="46.59301" lon="0.35882">
        <ele>126.12</ele>
        <time>2023-06-07T19:57:00.638Z</time>
      </trkpt>
      <trkpt lat="46.59307" lon="0.35899">
        <ele>126.15</ele>
        <time>2023-06-07T19:57:03.755Z</time>
      </trkpt>
      <trkpt lat="46.59309" lon="0.35905">
        <ele>126.13</ele>
        <time>2023-06-07T19:57:06.872Z</time>
      </trkpt>
      <trkpt lat="46.59315" lon="0.35928">
        <ele>126.08</ele>
        <time>2023-06-07T19:57:09.992Z</time>
      </trkpt>
      <trkpt lat="46.59317" lon="0.35935">
        <ele>126.05</ele>
        <time>2023-06-07T19:57:13.113Z</time>
      </trkpt>
      <trkpt lat="46.59321" lon="0.35965">
        <ele>125.97</ele>
        <time>2023-06-07T19:57:16.237Z</time>
      </trkpt>
      <trkpt lat="46.59328" lon="0.36008">
        <ele>125.77</ele>
        <time>2023-06-07T19:57:19.366Z</time>
      </trkpt>
      <trkpt lat="46.59329" lon="0.36015">
        <ele>125.75</ele>
        <time>2023-06-07T19:57:22.496Z</time>
      </trkpt>
      <trkpt lat="46.5933" lon="0.36027">
        <ele>125.73</ele>
        <time>2023-06-07T19:57:25.627Z</time>
      </trkpt>
      <trkpt lat="46.59331" lon="0.36045">
        <ele>125.65</ele>
        <time>2023-06-07T19:57:28.760Z</time>
      </trkpt>
      <trkpt lat="46.59334" lon="0.36089">
        <ele>125.35</ele>
        <time>2023-06-07T19:57:31.898Z</time>
      </trkpt>
      <trkpt lat="46.59335" lon="0.36096">
        <ele>125.23</ele>
        <time>2023-06-07T19:57:35.037Z</time>
      </trkpt>
      <trkpt lat="46.59335" lon="0.36115">
        <ele>124.94</ele>
        <time>2023-06-07T19:57:38.178Z</time>
      </trkpt>
      <trkpt lat="46.59336" lon="0.36141">
        <ele>124.48</ele>
        <time>2023-06-07T19:57:41.322Z</time>
      </trkpt>
      <trkpt lat="46.59337" lon="0.36186">
        <ele>123.59</ele>
        <time>2023-06-07T19:57:44.471Z</time>
      </trkpt>
      <trkpt lat="46.59338" lon="0.36219">
        <ele>123</ele>
        <time>2023-06-07T19:57:47.624Z</time>
      </trkpt>
      <trkpt lat="46.59338" lon="0.36234">
        <ele>122.7</ele>
        <time>2023-06-07T19:57:50.778Z</time>
      </trkpt>
      <trkpt lat="46.5934" lon="0.36245">
        <ele>122.49</ele>
        <time>2023-06-07T19:57:53.933Z</time>
      </trkpt>
      <trkpt lat="46.59348" lon="0.36302">
        <ele>121.38</ele>
        <time>2023-06-07T19:57:57.095Z</time>
      </trkpt>
      <trkpt lat="46.59349" lon="0.36309">
        <ele>121.44</ele>
        <time>2023-06-07T19:58:00.258Z</time>
      </trkpt>
      <trkpt lat="46.59344" lon="0.36313">
        <ele>121.52</ele>
        <time>2023-06-07T19:58:03.422Z</time>
      </trkpt>
      <trkpt lat="46.59342" lon="0.36317">
        <ele>121.57</ele>
        <time>2023-06-07T19:58:06.586Z</time>
      </trkpt>
      <trkpt lat="46.5934" lon="0.36323">
        <ele>121.4</ele>
        <time>2023-06-07T19:58:09.751Z</time>
      </trkpt>
      <trkpt lat="46.59343" lon="0.36335">
        <ele>121.07</ele>
        <time>2023-06-07T19:58:12.917Z</time>
      </trkpt>
      <trkpt lat="46.59346" lon="0.36338">
        <ele>120.93</ele>
        <time>2023-06-07T19:58:16.084Z</time>
      </trkpt>
      <trkpt lat="46.59347" lon="0.36338">
        <ele>120.89</ele>
        <time>2023-06-07T19:58:19.251Z</time>
      </trkpt>
      <trkpt lat="46.59352" lon="0.3634">
        <ele>120.76</ele>
        <time>2023-06-07T19:58:22.419Z</time>
      </trkpt>
      <trkpt lat="46.59353" lon="0.36391">
        <ele>119.88</ele>
        <time>2023-06-07T19:58:25.592Z</time>
      </trkpt>
      <trkpt lat="46.59354" lon="0.36423">
        <ele>119.29</ele>
        <time>2023-06-07T19:58:28.769Z</time>
      </trkpt>
      <trkpt lat="46.59356" lon="0.36488">
        <ele>118.21</ele>
        <time>2023-06-07T19:58:31.953Z</time>
      </trkpt>
      <trkpt lat="46.59357" lon="0.36514">
        <ele>117.85</ele>
        <time>2023-06-07T19:58:35.140Z</time>
      </trkpt>
      <trkpt lat="46.59357" lon="0.36514">
        <ele>123.5</ele>
        <time>2023-06-07T19:58:38.327Z</time>
      </trkpt>
      <trkpt lat="46.59357" lon="0.36521">
        <ele>122.69</ele>
        <time>2023-06-07T19:58:41.515Z</time>
      </trkpt>
      <trkpt lat="46.59363" lon="0.36521">
        <ele>121.7</ele>
        <time>2023-06-07T19:58:44.704Z</time>
      </trkpt>
      <trkpt lat="46.59367" lon="0.36521">
        <ele>121.32</ele>
        <time>2023-06-07T19:58:47.893Z</time>
      </trkpt>
      <trkpt lat="46.5937" lon="0.3653">
        <ele>120.74</ele>
        <time>2023-06-07T19:58:51.083Z</time>
      </trkpt>
      <trkpt lat="46.59374" lon="0.36544">
        <ele>119.05</ele>
        <time>2023-06-07T19:58:54.275Z</time>
      </trkpt>
      <trkpt lat="46.59376" lon="0.36549">
        <ele>118.46</ele>
        <time>2023-06-07T19:58:57.468Z</time>
      </trkpt>
      <trkpt lat="46.5938" lon="0.36557">
        <ele>117.41</ele>
        <time>2023-06-07T19:59:00.662Z</time>
      </trkpt>
      <trkpt lat="46.59383" lon="0.36562">
        <ele>116.75</ele>
        <time>2023-06-07T19:59:03.857Z</time>
      </trkpt>
      <trkpt lat="46.59389" lon="0.36568">
        <ele>115.61</ele>
        <time>2023-06-07T19:59:07.053Z</time>
      </trkpt>
      <trkpt lat="46.59392" lon="0.36572">
        <ele>115.23</ele>
        <time>2023-06-07T19:59:10.249Z</time>
      </trkpt>
      <trkpt lat="46.59397" lon="0.36575">
        <ele>114.73</ele>
        <time>2023-06-07T19:59:13.446Z</time>
      </trkpt>
      <trkpt lat="46.59397" lon="0.36575">
        <ele>116.14</ele>
        <time>2023-06-07T19:59:16.643Z</time>
      </trkpt>
      <trkpt lat="46.59401" lon="0.36578">
        <ele>115.99</ele>
        <time>2023-06-07T19:59:19.841Z</time>
      </trkpt>
      <trkpt lat="46.5941" lon="0.36578">
        <ele>115.7</ele>
        <time>2023-06-07T19:59:23.041Z</time>
      </trkpt>
      <trkpt lat="46.59419" lon="0.36579">
        <ele>115.44</ele>
        <time>2023-06-07T19:59:26.242Z</time>
      </trkpt>
      <trkpt lat="46.59419" lon="0.36579">
        <ele>115.44</ele>
        <time>2023-06-07T19:59:29.443Z</time>
      </trkpt>
      <trkpt lat="46.59428" lon="0.36581">
        <ele>115.23</ele>
        <time>2023-06-07T19:59:32.645Z</time>
      </trkpt>
      <trkpt lat="46.59432" lon="0.36582">
        <ele>115.15</ele>
        <time>2023-06-07T19:59:35.848Z</time>
      </trkpt>
      <trkpt lat="46.59441" lon="0.36584">
        <ele>115.04</ele>
        <time>2023-06-07T19:59:39.053Z</time>
      </trkpt>
      <trkpt lat="46.5945" lon="0.36586">
        <ele>114.97</ele>
        <time>2023-06-07T19:59:42.259Z</time>
      </trkpt>
      <trkpt lat="46.59454" lon="0.36587">
        <ele>114.95</ele>
        <time>2023-06-07T19:59:45.466Z</time>
      </trkpt>
      <trkpt lat="46.59463" lon="0.3659">
        <ele>114.91</ele>
        <time>2023-06-07T19:59:48.674Z</time>
      </trkpt>
      <trkpt lat="46.59511" lon="0.36606">
        <ele>114.78</ele>
        <time>2023-06-07T19:59:51.890Z</time>
      </trkpt>
      <trkpt lat="46.59539" lon="0.36615">
        <ele>114.66</ele>
        <time>2023-06-07T19:59:55.111Z</time>
      </trkpt>
      <trkpt lat="46.59543" lon="0.36618">
        <ele>114.65</ele>
        <time>2023-06-07T19:59:58.332Z</time>
      </trkpt>
      <trkpt lat="46.59544" lon="0.36621">
        <ele>114.64</ele>
        <time>2023-06-07T20:00:01.554Z</time>
      </trkpt>
      <trkpt lat="46.59557" lon="0.36647">
        <ele>114.59</ele>
        <time>2023-06-07T20:00:04.779Z</time>
      </trkpt>
      <trkpt lat="46.5956" lon="0.36652">
        <ele>114.58</ele>
        <time>2023-06-07T20:00:08.005Z</time>
      </trkpt>
      <trkpt lat="46.59563" lon="0.36656">
        <ele>114.59</ele>
        <time>2023-06-07T20:00:11.232Z</time>
      </trkpt>
      <trkpt lat="46.59572" lon="0.36659">
        <ele>114.62</ele>
        <time>2023-06-07T20:00:14.460Z</time>
      </trkpt>
      <trkpt lat="46.59581" lon="0.36661">
        <ele>114.61</ele>
        <time>2023-06-07T20:00:17.690Z</time>
      </trkpt>
      <trkpt lat="46.5962" lon="0.36673">
        <ele>114.49</ele>
        <time>2023-06-07T20:00:20.926Z</time>
      </trkpt>
      <trkpt lat="46.59637" lon="0.36678">
        <ele>114.4</ele>
        <time>2023-06-07T20:00:24.165Z</time>
      </trkpt>
      <trkpt lat="46.59654" lon="0.36684">
        <ele>114.25</ele>
        <time>2023-06-07T20:00:27.407Z</time>
      </trkpt>
      <trkpt lat="46.59679" lon="0.36691">
        <ele>114.01</ele>
        <time>2023-06-07T20:00:30.653Z</time>
      </trkpt>
      <trkpt lat="46.59682" lon="0.36694">
        <ele>113.97</ele>
        <time>2023-06-07T20:00:33.899Z</time>
      </trkpt>
      <trkpt lat="46.59685" lon="0.3671">
        <ele>113.87</ele>
        <time>2023-06-07T20:00:37.147Z</time>
      </trkpt>
      <trkpt lat="46.59689" lon="0.36734">
        <ele>113.67</ele>
        <time>2023-06-07T20:00:40.398Z</time>
      </trkpt>
      <trkpt lat="46.5969" lon="0.36737">
        <ele>113.63</ele>
        <time>2023-06-07T20:00:43.649Z</time>
      </trkpt>
      <trkpt lat="46.59701" lon="0.36743">
        <ele>113.46</ele>
        <time>2023-06-07T20:00:46.902Z</time>
      </trkpt>
      <trkpt lat="46.5973" lon="0.36758">
        <ele>112.92</ele>
        <time>2023-06-07T20:00:50.160Z</time>
      </trkpt>
      <trkpt lat="46.59742" lon="0.36765">
        <ele>112.72</ele>
        <time>2023-06-07T20:00:53.420Z</time>
      </trkpt>
      <trkpt lat="46.59766" lon="0.36777">
        <ele>112.42</ele>
        <time>2023-06-07T20:00:56.684Z</time>
      </trkpt>
      <trkpt lat="46.59778" lon="0.36784">
        <ele>112.31</ele>
        <time>2023-06-07T20:00:59.950Z</time>
      </trkpt>
      <trkpt lat="46.59782" lon="0.36786">
        <ele>112.22</ele>
        <time>2023-06-07T20:01:03.217Z</time>
      </trkpt>
      <trkpt lat="46.59778" lon="0.368">
        <ele>112.01</ele>
        <time>2023-06-07T20:01:06.485Z</time>
      </trkpt>
      <trkpt lat="46.59776" lon="0.36806">
        <ele>111.87</ele>
        <time>2023-06-07T20:01:09.754Z</time>
      </trkpt>
      <trkpt lat="46.59779" lon="0.36807">
        <ele>111.78</ele>
        <time>2023-06-07T20:01:13.024Z</time>
      </trkpt>
      <trkpt lat="46.59784" lon="0.3681">
        <ele>111.86</ele>
        <time>2023-06-07T20:01:16.294Z</time>
      </trkpt>
      <trkpt lat="46.59788" lon="0.36795">
        <ele>112.05</ele>
        <time>2023-06-07T20:01:19.566Z</time>
      </trkpt>
      <trkpt lat="46.5979" lon="0.36788">
        <ele>112.1</ele>
        <time>2023-06-07T20:01:22.839Z</time>
      </trkpt>
      <trkpt lat="46.59812" lon="0.368">
        <ele>112.34</ele>
        <time>2023-06-07T20:01:26.116Z</time>
      </trkpt>
      <trkpt lat="46.5982" lon="0.36804">
        <ele>112.46</ele>
        <time>2023-06-07T20:01:29.394Z</time>
      </trkpt>
      <trkpt lat="46.59827" lon="0.36808">
        <ele>112.61</ele>
        <time>2023-06-07T20:01:32.674Z</time>
      </trkpt>
      <trkpt lat="46.59832" lon="0.36811">
        <ele>112.65</ele>
        <time>2023-06-07T20:01:35.954Z</time>
      </trkpt>
      <trkpt lat="46.59842" lon="0.36824">
        <ele>112.78</ele>
        <time>2023-06-07T20:01:39.236Z</time>
      </trkpt>
      <trkpt lat="46.59843" lon="0.36828">
        <ele>112.81</ele>
        <time>2023-06-07T20:01:42.519Z</time>
      </trkpt>
      <trkpt lat="46.59845" lon="0.3684">
        <ele>112.91</ele>
        <time>2023-06-07T20:01:45.803Z</time>
      </trkpt>
      <trkpt lat="46.59848" lon="0.36845">
        <ele>112.96</ele>
        <time>2023-06-07T20:01:49.088Z</time>
      </trkpt>
      <trkpt lat="46.59873" lon="0.3687">
        <ele>113.34</ele>
        <time>2023-06-07T20:01:52.378Z</time>
      </trkpt>
      <trkpt lat="46.5988" lon="0.36877">
        <ele>113.41</ele>
        <time>2023-06-07T20:01:55.669Z</time>
      </trkpt>
      <trkpt lat="46.5989" lon="0.36887">
        <ele>113.46</ele>
        <time>2023-06-07T20:01:58.962Z</time>
      </trkpt>
      <trkpt lat="46.59898" lon="0.36895">
        <ele>113.45</ele>
        <time>2023-06-07T20:02:02.257Z</time>
      </trkpt>
      <trkpt lat="46.59912" lon="0.36909">
        <ele>113.38</ele>
        <time>2023-06-07T20:02:05.555Z</time>
      </trkpt>
      <trkpt lat="46.59915" lon="0.36912">
        <ele>113.37</ele>
        <time>2023-06-07T20:02:08.853Z</time>
      </trkpt>
      <trkpt lat="46.59931" lon="0.36937">
        <ele>113.34</ele>
        <time>2023-06-07T20:02:12.155Z</time>
      </trkpt>
      <trkpt lat="46.59938" lon="0.36947">
        <ele>113.28</ele>
        <time>2023-06-07T20:02:15.458Z</time>
      </trkpt>
      <trkpt lat="46.5995" lon="0.36965">
        <ele>113.12</ele>
        <time>2023-06-07T20:02:18.764Z</time>
      </trkpt>
      <trkpt lat="46.59951" lon="0.36967">
        <ele>113.11</ele>
        <time>2023-06-07T20:02:22.070Z</time>
      </trkpt>
      <trkpt lat="46.59968" lon="0.36985">
        <ele>112.98</ele>
        <time>2023-06-07T20:02:25.380Z</time>
      </trkpt>
      <trkpt lat="46.59974" lon="0.36992">
        <ele>112.88</ele>
        <time>2023-06-07T20:02:28.691Z</time>
      </trkpt>
      <trkpt lat="46.59975" lon="0.36993">
        <ele>112.87</ele>
        <time>2023-06-07T20:02:32.002Z</time>
      </trkpt>
      <trkpt lat="46.59983" lon="0.37">
        <ele>112.73</ele>
        <time>2023-06-07T20:02:35.315Z</time>
      </trkpt>
      <trkpt lat="46.5999" lon="0.37007">
        <ele>112.54</ele>
        <time>2023-06-07T20:02:38.629Z</time>
      </trkpt>
      <trkpt lat="46.60032" lon="0.37046">
        <ele>111.28</ele>
        <time>2023-06-07T20:02:41.951Z</time>
      </trkpt>
      <trkpt lat="46.60043" lon="0.37057">
        <ele>110.97</ele>
        <time>2023-06-07T20:02:45.275Z</time>
      </trkpt>
      <trkpt lat="46.6005" lon="0.37063">
        <ele>110.8</ele>
        <time>2023-06-07T20:02:48.600Z</time>
      </trkpt>
      <trkpt lat="46.60051" lon="0.37063">
        <ele>110.8</ele>
        <time>2023-06-07T20:02:51.926Z</time>
      </trkpt>
      <trkpt lat="46.60058" lon="0.3707">
        <ele>110.67</ele>
        <time>2023-06-07T20:02:55.253Z</time>
      </trkpt>
      <trkpt lat="46.60062" lon="0.37073">
        <ele>110.62</ele>
        <time>2023-06-07T20:02:58.581Z</time>
      </trkpt>
      <trkpt lat="46.6007" lon="0.3708">
        <ele>110.56</ele>
        <time>2023-06-07T20:03:01.910Z</time>
      </trkpt>
      <trkpt lat="46.60086" lon="0.37092">
        <ele>110.56</ele>
        <time>2023-06-07T20:03:05.242Z</time>
      </trkpt>
      <trkpt lat="46.60097" lon="0.37102">
        <ele>110.61</ele>
        <time>2023-06-07T20:03:08.576Z</time>
      </trkpt>
      <trkpt lat="46.60109" lon="0.37112">
        <ele>110.72</ele>
        <time>2023-06-07T20:03:11.912Z</time>
      </trkpt>
      <trkpt lat="46.60125" lon="0.37125">
        <ele>110.9</ele>
        <time>2023-06-07T20:03:15.251Z</time>
      </trkpt>
      <trkpt lat="46.60133" lon="0.37131">
        <ele>111.03</ele>
        <time>2023-06-07T20:03:18.592Z</time>
      </trkpt>
      <trkpt lat="46.60144" lon="0.37141">
        <ele>111.3</ele>
        <time>2023-06-07T20:03:21.935Z</time>
      </trkpt>
      <trkpt lat="46.60158" lon="0.37152">
        <ele>111.7</ele>
        <time>2023-06-07T20:03:25.280Z</time>
      </trkpt>
      <trkpt lat="46.60168" lon="0.37159">
        <ele>111.99</ele>
        <time>2023-06-07T20:03:28.627Z</time>
      </trkpt>
      <trkpt lat="46.60176" lon="0.37166">
        <ele>112.19</ele>
        <time>2023-06-07T20:03:31.976Z</time>
      </trkpt>
      <trkpt lat="46.60184" lon="0.37172">
        <ele>112.32</ele>
        <time>2023-06-07T20:03:35.326Z</time>
      </trkpt>
      <trkpt lat="46.60188" lon="0.37175">
        <ele>112.36</ele>
        <time>2023-06-07T20:03:38.677Z</time>
      </trkpt>
      <trkpt lat="46.60196" lon="0.37181">
        <ele>112.4</ele>
        <time>2023-06-07T20:03:42.029Z</time>
      </trkpt>
      <trkpt lat="46.60203" lon="0.37186">
        <ele>112.39</ele>
        <time>2023-06-07T20:03:45.382Z</time>
      </trkpt>
      <trkpt lat="46.60212" lon="0.37192">
        <ele>112.38</ele>
        <time>2023-06-07T20:03:48.737Z</time>
      </trkpt>
      <trkpt lat="46.6022" lon="0.37197">
        <ele>112.33</ele>
        <time>2023-06-07T20:03:52.093Z</time>
      </trkpt>
      <trkpt lat="46.60228" lon="0.37202">
        <ele>112.26</ele>
        <time>2023-06-07T20:03:55.451Z</time>
      </trkpt>
      <trkpt lat="46.60241" lon="0.3721">
        <ele>112.13</ele>
        <time>2023-06-07T20:03:58.811Z</time>
      </trkpt>
      <trkpt lat="46.60282" lon="0.37237">
        <ele>111.59</ele>
        <time>2023-06-07T20:04:02.178Z</time>
      </trkpt>
      <trkpt lat="46.60311" lon="0.37256">
        <ele>111.27</ele>
        <time>2023-06-07T20:04:05.550Z</time>
      </trkpt>
      <trkpt lat="46.60315" lon="0.37258">
        <ele>111.24</ele>
        <time>2023-06-07T20:04:08.923Z</time>
      </trkpt>
      <trkpt lat="46.60327" lon="0.37264">
        <ele>111.15</ele>
        <time>2023-06-07T20:04:12.298Z</time>
      </trkpt>
      <trkpt lat="46.60336" lon="0.37268">
        <ele>111.15</ele>
        <time>2023-06-07T20:04:15.675Z</time>
      </trkpt>
      <trkpt lat="46.60349" lon="0.37274">
        <ele>111.2</ele>
        <time>2023-06-07T20:04:19.054Z</time>
      </trkpt>
      <trkpt lat="46.60356" lon="0.37278">
        <ele>111.25</ele>
        <time>2023-06-07T20:04:22.434Z</time>
      </trkpt>
      <trkpt lat="46.60361" lon="0.37283">
        <ele>111.3</ele>
        <time>2023-06-07T20:04:25.815Z</time>
      </trkpt>
      <trkpt lat="46.60381" lon="0.37305">
        <ele>111.53</ele>
        <time>2023-06-07T20:04:29.200Z</time>
      </trkpt>
      <trkpt lat="46.60385" lon="0.37311">
        <ele>111.59</ele>
        <time>2023-06-07T20:04:32.586Z</time>
      </trkpt>
      <trkpt lat="46.60394" lon="0.37325">
        <ele>111.66</ele>
        <time>2023-06-07T20:04:35.974Z</time>
      </trkpt>
      <trkpt lat="46.604" lon="0.37334">
        <ele>111.66</ele>
        <time>2023-06-07T20:04:39.363Z</time>
      </trkpt>
      <trkpt lat="46.60406" lon="0.3734">
        <ele>111.66</ele>
        <time>2023-06-07T20:04:42.754Z</time>
      </trkpt>
      <trkpt lat="46.60421" lon="0.37349">
        <ele>111.67</ele>
        <time>2023-06-07T20:04:46.147Z</time>
      </trkpt>
      <trkpt lat="46.60439" lon="0.3736">
        <ele>111.63</ele>
        <time>2023-06-07T20:04:49.543Z</time>
      </trkpt>
      <trkpt lat="46.60442" lon="0.37361">
        <ele>111.63</ele>
        <time>2023-06-07T20:04:52.940Z</time>
      </trkpt>
      <trkpt lat="46.60459" lon="0.37369">
        <ele>111.56</ele>
        <time>2023-06-07T20:04:56.340Z</time>
      </trkpt>
      <trkpt lat="46.60463" lon="0.37371">
        <ele>111.57</ele>
        <time>2023-06-07T20:04:59.740Z</time>
      </trkpt>
      <trkpt lat="46.60491" lon="0.37395">
        <ele>111.68</ele>
        <time>2023-06-07T20:05:03.146Z</time>
      </trkpt>
      <trkpt lat="46.60501" lon="0.37406">
        <ele>111.72</ele>
        <time>2023-06-07T20:05:06.554Z</time>
      </trkpt>
      <trkpt lat="46.60504" lon="0.3741">
        <ele>111.64</ele>
        <time>2023-06-07T20:05:09.962Z</time>
      </trkpt>
      <trkpt lat="46.60504" lon="0.3741">
        <ele>111.64</ele>
        <time>2023-06-07T20:05:13.370Z</time>
      </trkpt>
      <trkpt lat="46.60507" lon="0.37406">
        <ele>111.67</ele>
        <time>2023-06-07T20:05:16.779Z</time>
      </trkpt>
      <trkpt lat="46.60514" lon="0.37412">
        <ele>111.73</ele>
        <time>2023-06-07T20:05:20.189Z</time>
      </trkpt>
      <trkpt lat="46.60533" lon="0.37429">
        <ele>112.04</ele>
        <time>2023-06-07T20:05:23.603Z</time>
      </trkpt>
      <trkpt lat="46.60541" lon="0.37436">
        <ele>112.13</ele>
        <time>2023-06-07T20:05:27.018Z</time>
      </trkpt>
      <trkpt lat="46.60545" lon="0.3744">
        <ele>112.15</ele>
        <time>2023-06-07T20:05:30.434Z</time>
      </trkpt>
      <trkpt lat="46.60553" lon="0.37446">
        <ele>112.15</ele>
        <time>2023-06-07T20:05:33.851Z</time>
      </trkpt>
      <trkpt lat="46.60576" lon="0.37467">
        <ele>112.09</ele>
        <time>2023-06-07T20:05:37.273Z</time>
      </trkpt>
      <trkpt lat="46.60576" lon="0.37467">
        <ele>112.09</ele>
        <time>2023-06-07T20:05:40.695Z</time>
      </trkpt>
      <trkpt lat="46.6059" lon="0.37483">
        <ele>112.14</ele>
        <time>2023-06-07T20:05:44.120Z</time>
      </trkpt>
      <trkpt lat="46.60593" lon="0.37487">
        <ele>112.13</ele>
        <time>2023-06-07T20:05:47.545Z</time>
      </trkpt>
      <trkpt lat="46.606" lon="0.37495">
        <ele>112.05</ele>
        <time>2023-06-07T20:05:50.972Z</time>
      </trkpt>
      <trkpt lat="46.60611" lon="0.37507">
        <ele>111.85</ele>
        <time>2023-06-07T20:05:54.401Z</time>
      </trkpt>
      <trkpt lat="46.60622" lon="0.37519">
        <ele>111.6</ele>
        <time>2023-06-07T20:05:57.832Z</time>
      </trkpt>
      <trkpt lat="46.60628" lon="0.37526">
        <ele>111.42</ele>
        <time>2023-06-07T20:06:01.264Z</time>
      </trkpt>
      <trkpt lat="46.60641" lon="0.37536">
        <ele>111.13</ele>
        <time>2023-06-07T20:06:04.699Z</time>
      </trkpt>
      <trkpt lat="46.60652" lon="0.37545">
        <ele>110.78</ele>
        <time>2023-06-07T20:06:08.136Z</time>
      </trkpt>
      <trkpt lat="46.60661" lon="0.37552">
        <ele>110.48</ele>
        <time>2023-06-07T20:06:11.574Z</time>
      </trkpt>
      <trkpt lat="46.60677" lon="0.3756">
        <ele>109.97</ele>
        <time>2023-06-07T20:06:15.015Z</time>
      </trkpt>
      <trkpt lat="46.60694" lon="0.37569">
        <ele>109.46</ele>
        <time>2023-06-07T20:06:18.459Z</time>
      </trkpt>
      <trkpt lat="46.60701" lon="0.37573">
        <ele>109.23</ele>
        <time>2023-06-07T20:06:21.904Z</time>
      </trkpt>
      <trkpt lat="46.60733" lon="0.37581">
        <ele>108.25</ele>
        <time>2023-06-07T20:06:25.354Z</time>
      </trkpt>
      <trkpt lat="46.60747" lon="0.37584">
        <ele>107.81</ele>
        <time>2023-06-07T20:06:28.807Z</time>
      </trkpt>
      <trkpt lat="46.60755" lon="0.37586">
        <ele>107.54</ele>
        <time>2023-06-07T20:06:32.261Z</time>
      </trkpt>
      <trkpt lat="46.60778" lon="0.37592">
        <ele>106.95</ele>
        <time>2023-06-07T20:06:35.719Z</time>
      </trkpt>
      <trkpt lat="46.60809" lon="0.376">
        <ele>106.08</ele>
        <time>2023-06-07T20:06:39.182Z</time>
      </trkpt>
      <trkpt lat="46.6081" lon="0.376">
        <ele>106.04</ele>
        <time>2023-06-07T20:06:42.645Z</time>
      </trkpt>
      <trkpt lat="46.6083" lon="0.37609">
        <ele>105.5</ele>
        <time>2023-06-07T20:06:46.111Z</time>
      </trkpt>
      <trkpt lat="46.60843" lon="0.37615">
        <ele>105.1</ele>
        <time>2023-06-07T20:06:49.579Z</time>
      </trkpt>
      <trkpt lat="46.60851" lon="0.37619">
        <ele>104.77</ele>
        <time>2023-06-07T20:06:53.049Z</time>
      </trkpt>
      <trkpt lat="46.6086" lon="0.37623">
        <ele>104.41</ele>
        <time>2023-06-07T20:06:56.520Z</time>
      </trkpt>
      <trkpt lat="46.60862" lon="0.37624">
        <ele>104.31</ele>
        <time>2023-06-07T20:06:59.992Z</time>
      </trkpt>
      <trkpt lat="46.60874" lon="0.37627">
        <ele>103.79</ele>
        <time>2023-06-07T20:07:03.466Z</time>
      </trkpt>
      <trkpt lat="46.60879" lon="0.37627">
        <ele>103.58</ele>
        <time>2023-06-07T20:07:06.940Z</time>
      </trkpt>
      <trkpt lat="46.60886" lon="0.37625">
        <ele>103.26</ele>
        <time>2023-06-07T20:07:10.416Z</time>
      </trkpt>
      <trkpt lat="46.60895" lon="0.37622">
        <ele>102.86</ele>
        <time>2023-06-07T20:07:13.893Z</time>
      </trkpt>
      <trkpt lat="46.60904" lon="0.37619">
        <ele>102.41</ele>
        <time>2023-06-07T20:07:17.371Z</time>
      </trkpt>
      <trkpt lat="46.60905" lon="0.37619">
        <ele>102.34</ele>
        <time>2023-06-07T20:07:20.850Z</time>
      </trkpt>
      <trkpt lat="46.60931" lon="0.37618">
        <ele>100.86</ele>
        <time>2023-06-07T20:07:24.333Z</time>
      </trkpt>
      <trkpt lat="46.6094" lon="0.37618">
        <ele>100.41</ele>
        <time>2023-06-07T20:07:27.817Z</time>
      </trkpt>
      <trkpt lat="46.60945" lon="0.37618">
        <ele>100.08</ele>
        <time>2023-06-07T20:07:31.302Z</time>
      </trkpt>
      <trkpt lat="46.60957" lon="0.37598">
        <ele>98.93</ele>
        <time>2023-06-07T20:07:34.790Z</time>
      </trkpt>
      <trkpt lat="46.60967" lon="0.37593">
        <ele>98.27</ele>
        <time>2023-06-07T20:07:38.280Z</time>
      </trkpt>
      <trkpt lat="46.60968" lon="0.37593">
        <ele>98.2</ele>
        <time>2023-06-07T20:07:41.770Z</time>
      </trkpt>
      <trkpt lat="46.60977" lon="0.37594">
        <ele>97.71</ele>
        <time>2023-06-07T20:07:45.261Z</time>
      </trkpt>
      <trkpt lat="46.60986" lon="0.37596">
        <ele>97.26</ele>
        <time>2023-06-07T20:07:48.754Z</time>
      </trkpt>
      <trkpt lat="46.60995" lon="0.37597">
        <ele>96.87</ele>
        <time>2023-06-07T20:07:52.248Z</time>
      </trkpt>
      <trkpt lat="46.61008" lon="0.37599">
        <ele>96.37</ele>
        <time>2023-06-07T20:07:55.744Z</time>
      </trkpt>
      <trkpt lat="46.61012" lon="0.37599">
        <ele>96.22</ele>
        <time>2023-06-07T20:07:59.241Z</time>
      </trkpt>
      <trkpt lat="46.61021" lon="0.376">
        <ele>95.97</ele>
        <time>2023-06-07T20:08:02.739Z</time>
      </trkpt>
      <trkpt lat="46.61034" lon="0.37602">
        <ele>95.66</ele>
        <time>2023-06-07T20:08:06.239Z</time>
      </trkpt>
      <trkpt lat="46.6104" lon="0.37603">
        <ele>95.34</ele>
        <time>2023-06-07T20:08:09.740Z</time>
      </trkpt>
      <trkpt lat="46.61048" lon="0.37614">
        <ele>94.72</ele>
        <time>2023-06-07T20:08:13.243Z</time>
      </trkpt>
      <trkpt lat="46.61055" lon="0.37623">
        <ele>94.31</ele>
        <time>2023-06-07T20:08:16.748Z</time>
      </trkpt>
      <trkpt lat="46.61061" lon="0.37631">
        <ele>93.96</ele>
        <time>2023-06-07T20:08:20.254Z</time>
      </trkpt>
      <trkpt lat="46.6108" lon="0.37656">
        <ele>93.12</ele>
        <time>2023-06-07T20:08:23.764Z</time>
      </trkpt>
      <trkpt lat="46.61084" lon="0.37662">
        <ele>92.33</ele>
        <time>2023-06-07T20:08:27.275Z</time>
      </trkpt>
      <trkpt lat="46.61087" lon="0.37663">
        <ele>91.96</ele>
        <time>2023-06-07T20:08:30.786Z</time>
      </trkpt>
      <trkpt lat="46.61091" lon="0.37665">
        <ele>91.34</ele>
        <time>2023-06-07T20:08:34.298Z</time>
      </trkpt>
      <trkpt lat="46.611" lon="0.37669">
        <ele>89.86</ele>
        <time>2023-06-07T20:08:37.812Z</time>
      </trkpt>
      <trkpt lat="46.61107" lon="0.37669">
        <ele>88.73</ele>
        <time>2023-06-07T20:08:41.327Z</time>
      </trkpt>
      <trkpt lat="46.61116" lon="0.3767">
        <ele>87.36</ele>
        <time>2023-06-07T20:08:44.843Z</time>
      </trkpt>
      <trkpt lat="46.61117" lon="0.3767">
        <ele>87.19</ele>
        <time>2023-06-07T20:08:48.359Z</time>
      </trkpt>
      <trkpt lat="46.61124" lon="0.37667">
        <ele>85.89</ele>
        <time>2023-06-07T20:08:51.877Z</time>
      </trkpt>
      <trkpt lat="46.61149" lon="0.37657">
        <ele>81.25</ele>
        <time>2023-06-07T20:08:55.399Z</time>
      </trkpt>
      <trkpt lat="46.61153" lon="0.37656">
        <ele>80.52</ele>
        <time>2023-06-07T20:08:58.921Z</time>
      </trkpt>
      <trkpt lat="46.61155" lon="0.37655">
        <ele>80.22</ele>
        <time>2023-06-07T20:09:02.444Z</time>
      </trkpt>
      <trkpt lat="46.61162" lon="0.37654">
        <ele>79.14</ele>
        <time>2023-06-07T20:09:05.968Z</time>
      </trkpt>
      <trkpt lat="46.61167" lon="0.37654">
        <ele>78.84</ele>
        <time>2023-06-07T20:09:09.493Z</time>
      </trkpt>
      <trkpt lat="46.61178" lon="0.37641">
        <ele>78.04</ele>
        <time>2023-06-07T20:09:13.020Z</time>
      </trkpt>
      <trkpt lat="46.61188" lon="0.37635">
        <ele>77.42</ele>
        <time>2023-06-07T20:09:16.549Z</time>
      </trkpt>
      <trkpt lat="46.61188" lon="0.37635">
        <ele>77.42</ele>
        <time>2023-06-07T20:09:20.078Z</time>
      </trkpt>
      <trkpt lat="46.61193" lon="0.37624">
        <ele>77.02</ele>
        <time>2023-06-07T20:09:23.608Z</time>
      </trkpt>
      <trkpt lat="46.61195" lon="0.37621">
        <ele>76.92</ele>
        <time>2023-06-07T20:09:27.138Z</time>
      </trkpt>
      <trkpt lat="46.61195" lon="0.37619">
        <ele>76.88</ele>
        <time>2023-06-07T20:09:30.669Z</time>
      </trkpt>
      <trkpt lat="46.61197" lon="0.37613">
        <ele>76.76</ele>
        <time>2023-06-07T20:09:34.200Z</time>
      </trkpt>
      <trkpt lat="46.61198" lon="0.37607">
        <ele>76.67</ele>
        <time>2023-06-07T20:09:37.732Z</time>
      </trkpt>
      <trkpt lat="46.61201" lon="0.37595">
        <ele>76.54</ele>
        <time>2023-06-07T20:09:41.266Z</time>
      </trkpt>
      <trkpt lat="46.61205" lon="0.37577">
        <ele>76.39</ele>
        <time>2023-06-07T20:09:44.802Z</time>
      </trkpt>
      <trkpt lat="46.61207" lon="0.37569">
        <ele>76.38</ele>
        <time>2023-06-07T20:09:48.339Z</time>
      </trkpt>
      <trkpt lat="46.61212" lon="0.3756">
        <ele>76.37</ele>
        <time>2023-06-07T20:09:51.877Z</time>
      </trkpt>
      <trkpt lat="46.61226" lon="0.37531">
        <ele>76.45</ele>
        <time>2023-06-07T20:09:55.419Z</time>
      </trkpt>
      <trkpt lat="46.61234" lon="0.37521">
        <ele>76.49</ele>
        <time>2023-06-07T20:09:58.962Z</time>
      </trkpt>
      <trkpt lat="46.61242" lon="0.3751">
        <ele>76.49</ele>
        <time>2023-06-07T20:10:02.507Z</time>
      </trkpt>
      <trkpt lat="46.61244" lon="0.37508">
        <ele>76.49</ele>
        <time>2023-06-07T20:10:06.053Z</time>
      </trkpt>
      <trkpt lat="46.61251" lon="0.375">
        <ele>76.45</ele>
        <time>2023-06-07T20:10:09.600Z</time>
      </trkpt>
      <trkpt lat="46.61254" lon="0.37496">
        <ele>76.41</ele>
        <time>2023-06-07T20:10:13.148Z</time>
      </trkpt>
      <trkpt lat="46.61259" lon="0.37491">
        <ele>76.32</ele>
        <time>2023-06-07T20:10:16.697Z</time>
      </trkpt>
      <trkpt lat="46.61269" lon="0.37483">
        <ele>76.16</ele>
        <time>2023-06-07T20:10:20.247Z</time>
      </trkpt>
      <trkpt lat="46.61274" lon="0.37479">
        <ele>76.1</ele>
        <time>2023-06-07T20:10:23.798Z</time>
      </trkpt>
      <trkpt lat="46.61285" lon="0.37473">
        <ele>75.99</ele>
        <time>2023-06-07T20:10:27.351Z</time>
      </trkpt>
      <trkpt lat="46.61287" lon="0.37472">
        <ele>75.97</ele>
        <time>2023-06-07T20:10:30.905Z</time>
      </trkpt>
      <trkpt lat="46.61293" lon="0.3747">
        <ele>75.94</ele>
        <time>2023-06-07T20:10:34.459Z</time>
      </trkpt>
      <trkpt lat="46.61309" lon="0.37466">
        <ele>75.88</ele>
        <time>2023-06-07T20:10:38.016Z</time>
      </trkpt>
      <trkpt lat="46.61318" lon="0.37464">
        <ele>75.82</ele>
        <time>2023-06-07T20:10:41.575Z</time>
      </trkpt>
      <trkpt lat="46.61326" lon="0.37462">
        <ele>75.73</ele>
        <time>2023-06-07T20:10:45.135Z</time>
      </trkpt>
      <trkpt lat="46.61339" lon="0.37458">
        <ele>75.52</ele>
        <time>2023-06-07T20:10:48.697Z</time>
      </trkpt>
      <trkpt lat="46.61352" lon="0.37455">
        <ele>75.35</ele>
        <time>2023-06-07T20:10:52.261Z</time>
      </trkpt>
      <trkpt lat="46.61365" lon="0.37451">
        <ele>75.26</ele>
        <time>2023-06-07T20:10:55.827Z</time>
      </trkpt>
      <trkpt lat="46.61397" lon="0.37443">
        <ele>75.07</ele>
        <time>2023-06-07T20:10:59.398Z</time>
      </trkpt>
      <trkpt lat="46.61404" lon="0.37442">
        <ele>75.04</ele>
        <time>2023-06-07T20:11:02.971Z</time>
      </trkpt>
      <trkpt lat="46.61417" lon="0.37442">
        <ele>75.06</ele>
        <time>2023-06-07T20:11:06.546Z</time>
      </trkpt>
      <trkpt lat="46.61425" lon="0.37441">
        <ele>75.09</ele>
        <time>2023-06-07T20:11:10.122Z</time>
      </trkpt>
      <trkpt lat="46.61448" lon="0.37437">
        <ele>75.22</ele>
        <time>2023-06-07T20:11:13.702Z</time>
      </trkpt>
      <trkpt lat="46.6145" lon="0.37437">
        <ele>75.23</ele>
        <time>2023-06-07T20:11:17.282Z</time>
      </trkpt>
      <trkpt lat="46.61461" lon="0.37438">
        <ele>75.31</ele>
        <time>2023-06-07T20:11:20.864Z</time>
      </trkpt>
      <trkpt lat="46.61467" lon="0.37439">
        <ele>75.37</ele>
        <time>2023-06-07T20:11:24.447Z</time>
      </trkpt>
      <trkpt lat="46.61474" lon="0.37441">
        <ele>75.45</ele>
        <time>2023-06-07T20:11:28.031Z</time>
      </trkpt>
      <trkpt lat="46.61482" lon="0.37443">
        <ele>75.59</ele>
        <time>2023-06-07T20:11:31.616Z</time>
      </trkpt>
      <trkpt lat="46.61492" lon="0.37445">
        <ele>75.79</ele>
        <time>2023-06-07T20:11:35.203Z</time>
      </trkpt>
      <trkpt lat="46.61494" lon="0.37444">
        <ele>75.84</ele>
        <time>2023-06-07T20:11:38.790Z</time>
      </trkpt>
      <trkpt lat="46.61499" lon="0.3744">
        <ele>75.57</ele>
        <time>2023-06-07T20:11:42.378Z</time>
      </trkpt>
      <trkpt lat="46.615" lon="0.3744">
        <ele>75.57</ele>
        <time>2023-06-07T20:11:45.966Z</time>
      </trkpt>
      <trkpt lat="46.61502" lon="0.37437">
        <ele>75.48</ele>
        <time>2023-06-07T20:11:49.555Z</time>
      </trkpt>
      <trkpt lat="46.61513" lon="0.37428">
        <ele>75.35</ele>
        <time>2023-06-07T20:11:53.146Z</time>
      </trkpt>
      <trkpt lat="46.61525" lon="0.37419">
        <ele>75.15</ele>
        <time>2023-06-07T20:11:56.739Z</time>
      </trkpt>
      <trkpt lat="46.61536" lon="0.3741">
        <ele>74.88</ele>
        <time>2023-06-07T20:12:00.334Z</time>
      </trkpt>
      <trkpt lat="46.61551" lon="0.37398">
        <ele>74.46</ele>
        <time>2023-06-07T20:12:03.932Z</time>
      </trkpt>
      <trkpt lat="46.61556" lon="0.37394">
        <ele>74.34</ele>
        <time>2023-06-07T20:12:07.530Z</time>
      </trkpt>
      <trkpt lat="46.61562" lon="0.37391">
        <ele>74.2</ele>
        <time>2023-06-07T20:12:11.129Z</time>
      </trkpt>
      <trkpt lat="46.61566" lon="0.37386">
        <ele>74.1</ele>
        <time>2023-06-07T20:12:14.729Z</time>
      </trkpt>
      <trkpt lat="46.61572" lon="0.37359">
        <ele>73.7</ele>
        <time>2023-06-07T20:12:18.332Z</time>
      </trkpt>
      <trkpt lat="46.61573" lon="0.37356">
        <ele>73.66</ele>
        <time>2023-06-07T20:12:21.936Z</time>
      </trkpt>
      <trkpt lat="46.61579" lon="0.37351">
        <ele>73.57</ele>
        <time>2023-06-07T20:12:25.541Z</time>
      </trkpt>
      <trkpt lat="46.61583" lon="0.37347">
        <ele>73.54</ele>
        <time>2023-06-07T20:12:29.147Z</time>
      </trkpt>
      <trkpt lat="46.61583" lon="0.37347">
        <ele>73.54</ele>
        <time>2023-06-07T20:12:32.753Z</time>
      </trkpt>
      <trkpt lat="46.61587" lon="0.37345">
        <ele>73.53</ele>
        <time>2023-06-07T20:12:36.359Z</time>
      </trkpt>
      <trkpt lat="46.61591" lon="0.37343">
        <ele>73.54</ele>
        <time>2023-06-07T20:12:39.966Z</time>
      </trkpt>
      <trkpt lat="46.61599" lon="0.3734">
        <ele>73.61</ele>
        <time>2023-06-07T20:12:43.574Z</time>
      </trkpt>
      <trkpt lat="46.61608" lon="0.37336">
        <ele>73.74</ele>
        <time>2023-06-07T20:12:47.184Z</time>
      </trkpt>
      <trkpt lat="46.61612" lon="0.37334">
        <ele>73.83</ele>
        <time>2023-06-07T20:12:50.795Z</time>
      </trkpt>
      <trkpt lat="46.61617" lon="0.37332">
        <ele>73.95</ele>
        <time>2023-06-07T20:12:54.406Z</time>
      </trkpt>
      <trkpt lat="46.61625" lon="0.37328">
        <ele>74.25</ele>
        <time>2023-06-07T20:12:58.019Z</time>
      </trkpt>
      <trkpt lat="46.61625" lon="0.37328">
        <ele>74.25</ele>
        <time>2023-06-07T20:13:01.632Z</time>
      </trkpt>
      <trkpt lat="46.6163" lon="0.3732">
        <ele>74.54</ele>
        <time>2023-06-07T20:13:05.246Z</time>
      </trkpt>
      <trkpt lat="46.61633" lon="0.37312">
        <ele>74.79</ele>
        <time>2023-06-07T20:13:08.861Z</time>
      </trkpt>
      <trkpt lat="46.61635" lon="0.37305">
        <ele>74.94</ele>
        <time>2023-06-07T20:13:12.477Z</time>
      </trkpt>
      <trkpt lat="46.61635" lon="0.37305">
        <ele>74.94</ele>
        <time>2023-06-07T20:13:16.093Z</time>
      </trkpt>
      <trkpt lat="46.61639" lon="0.37304">
        <ele>75.05</ele>
        <time>2023-06-07T20:13:19.709Z</time>
      </trkpt>
      <trkpt lat="46.61643" lon="0.37303">
        <ele>75.1</ele>
        <time>2023-06-07T20:13:23.326Z</time>
      </trkpt>
      <trkpt lat="46.61647" lon="0.37302">
        <ele>75.11</ele>
        <time>2023-06-07T20:13:26.944Z</time>
      </trkpt>
      <trkpt lat="46.61652" lon="0.37301">
        <ele>75.08</ele>
        <time>2023-06-07T20:13:30.562Z</time>
      </trkpt>
      <trkpt lat="46.61661" lon="0.37298">
        <ele>74.95</ele>
        <time>2023-06-07T20:13:34.182Z</time>
      </trkpt>
      <trkpt lat="46.61687" lon="0.37291">
        <ele>74.42</ele>
        <time>2023-06-07T20:13:37.806Z</time>
      </trkpt>
      <trkpt lat="46.61705" lon="0.37287">
        <ele>74.02</ele>
        <time>2023-06-07T20:13:41.433Z</time>
      </trkpt>
      <trkpt lat="46.61718" lon="0.37283">
        <ele>73.81</ele>
        <time>2023-06-07T20:13:45.062Z</time>
      </trkpt>
      <trkpt lat="46.61731" lon="0.3728">
        <ele>73.72</ele>
        <time>2023-06-07T20:13:48.693Z</time>
      </trkpt>
      <trkpt lat="46.61744" lon="0.37276">
        <ele>73.7</ele>
        <time>2023-06-07T20:13:52.327Z</time>
      </trkpt>
      <trkpt lat="46.61758" lon="0.37273">
        <ele>73.71</ele>
        <time>2023-06-07T20:13:55.963Z</time>
      </trkpt>
      <trkpt lat="46.61762" lon="0.37271">
        <ele>73.73</ele>
        <time>2023-06-07T20:13:59.599Z</time>
      </trkpt>
      <trkpt lat="46.61766" lon="0.3727">
        <ele>73.78</ele>
        <time>2023-06-07T20:14:03.236Z</time>
      </trkpt>
      <trkpt lat="46.61771" lon="0.37269">
        <ele>73.86</ele>
        <time>2023-06-07T20:14:06.874Z</time>
      </trkpt>
      <trkpt lat="46.61771" lon="0.37269">
        <ele>73.86</ele>
        <time>2023-06-07T20:14:10.512Z</time>
      </trkpt>
      <trkpt lat="46.61774" lon="0.37265">
        <ele>73.97</ele>
        <time>2023-06-07T20:14:14.151Z</time>
      </trkpt>
      <trkpt lat="46.61777" lon="0.3726">
        <ele>74.12</ele>
        <time>2023-06-07T20:14:17.790Z</time>
      </trkpt>
      <trkpt lat="46.6178" lon="0.37256">
        <ele>74.31</ele>
        <time>2023-06-07T20:14:21.430Z</time>
      </trkpt>
      <trkpt lat="46.61784" lon="0.37251">
        <ele>74.53</ele>
        <time>2023-06-07T20:14:25.071Z</time>
      </trkpt>
      <trkpt lat="46.61787" lon="0.37247">
        <ele>74.78</ele>
        <time>2023-06-07T20:14:28.712Z</time>
      </trkpt>
      <trkpt lat="46.61788" lon="0.37245">
        <ele>74.88</ele>
        <time>2023-06-07T20:14:32.354Z</time>
      </trkpt>
      <trkpt lat="46.61794" lon="0.37239">
        <ele>75.35</ele>
        <time>2023-06-07T20:14:35.997Z</time>
      </trkpt>
      <trkpt lat="46.61799" lon="0.37233">
        <ele>75.28</ele>
        <time>2023-06-07T20:14:39.641Z</time>
      </trkpt>
      <trkpt lat="46.618" lon="0.37236">
        <ele>75.26</ele>
        <time>2023-06-07T20:14:43.285Z</time>
      </trkpt>
      <trkpt lat="46.61807" lon="0.37253">
        <ele>75.08</ele>
        <time>2023-06-07T20:14:46.931Z</time>
      </trkpt>
      <trkpt lat="46.61812" lon="0.37264">
        <ele>75</ele>
        <time>2023-06-07T20:14:50.579Z</time>
      </trkpt>
      <trkpt lat="46.61815" lon="0.3727">
        <ele>74.97</ele>
        <time>2023-06-07T20:14:54.228Z</time>
      </trkpt>
      <trkpt lat="46.61818" lon="0.37274">
        <ele>74.95</ele>
        <time>2023-06-07T20:14:57.877Z</time>
      </trkpt>
      <trkpt lat="46.61818" lon="0.37274">
        <ele>74.95</ele>
        <time>2023-06-07T20:15:01.526Z</time>
      </trkpt>
      <trkpt lat="46.61831" lon="0.37278">
        <ele>74.91</ele>
        <time>2023-06-07T20:15:05.177Z</time>
      </trkpt>
      <trkpt lat="46.61849" lon="0.37274">
        <ele>74.86</ele>
        <time>2023-06-07T20:15:08.831Z</time>
      </trkpt>
      <trkpt lat="46.61858" lon="0.37273">
        <ele>74.9</ele>
        <time>2023-06-07T20:15:12.487Z</time>
      </trkpt>
      <trkpt lat="46.61871" lon="0.3727">
        <ele>75.04</ele>
        <time>2023-06-07T20:15:16.145Z</time>
      </trkpt>
      <trkpt lat="46.61885" lon="0.37267">
        <ele>75.24</ele>
        <time>2023-06-07T20:15:19.805Z</time>
      </trkpt>
      <trkpt lat="46.61885" lon="0.37267">
        <ele>75.24</ele>
        <time>2023-06-07T20:15:23.465Z</time>
      </trkpt>
      <trkpt lat="46.61902" lon="0.37268">
        <ele>75.56</ele>
        <time>2023-06-07T20:15:27.128Z</time>
      </trkpt>
      <trkpt lat="46.6191" lon="0.37268">
        <ele>75.72</ele>
        <time>2023-06-07T20:15:30.792Z</time>
      </trkpt>
      <trkpt lat="46.61911" lon="0.37268">
        <ele>75.75</ele>
        <time>2023-06-07T20:15:34.456Z</time>
      </trkpt>
      <trkpt lat="46.61924" lon="0.37273">
        <ele>76.08</ele>
        <time>2023-06-07T20:15:38.123Z</time>
      </trkpt>
      <trkpt lat="46.61929" lon="0.37275">
        <ele>76.21</ele>
        <time>2023-06-07T20:15:41.790Z</time>
      </trkpt>
      <trkpt lat="46.61949" lon="0.3729">
        <ele>76.84</ele>
        <time>2023-06-07T20:15:45.461Z</time>
      </trkpt>
      <trkpt lat="46.6196" lon="0.373">
        <ele>77.25</ele>
        <time>2023-06-07T20:15:49.134Z</time>
      </trkpt>
      <trkpt lat="46.6197" lon="0.37307">
        <ele>77.63</ele>
        <time>2023-06-07T20:15:52.809Z</time>
      </trkpt>
      <trkpt lat="46.61976" lon="0.37313">
        <ele>77.89</ele>
        <time>2023-06-07T20:15:56.485Z</time>
      </trkpt>
      <trkpt lat="46.61987" lon="0.37323">
        <ele>78.42</ele>
        <time>2023-06-07T20:16:00.163Z</time>
      </trkpt>
      <trkpt lat="46.61999" lon="0.37333">
        <ele>79.03</ele>
        <time>2023-06-07T20:16:03.843Z</time>
      </trkpt>
      <trkpt lat="46.62002" lon="0.37337">
        <ele>79.26</ele>
        <time>2023-06-07T20:16:07.524Z</time>
      </trkpt>
      <trkpt lat="46.6201" lon="0.37344">
        <ele>79.76</ele>
        <time>2023-06-07T20:16:11.206Z</time>
      </trkpt>
      <trkpt lat="46.62021" lon="0.37355">
        <ele>80.57</ele>
        <time>2023-06-07T20:16:14.891Z</time>
      </trkpt>
      <trkpt lat="46.62029" lon="0.37362">
        <ele>81.16</ele>
        <time>2023-06-07T20:16:18.577Z</time>
      </trkpt>
      <trkpt lat="46.6204" lon="0.37372">
        <ele>82.12</ele>
        <time>2023-06-07T20:16:22.265Z</time>
      </trkpt>
      <trkpt lat="46.62048" lon="0.37379">
        <ele>82.82</ele>
        <time>2023-06-07T20:16:25.955Z</time>
      </trkpt>
      <trkpt lat="46.62048" lon="0.37379">
        <ele>82.82</ele>
        <time>2023-06-07T20:16:29.645Z</time>
      </trkpt>
      <trkpt lat="46.62055" lon="0.37388">
        <ele>83.59</ele>
        <time>2023-06-07T20:16:33.336Z</time>
      </trkpt>
      <trkpt lat="46.62075" lon="0.37414">
        <ele>86.15</ele>
        <time>2023-06-07T20:16:37.031Z</time>
      </trkpt>
      <trkpt lat="46.62088" lon="0.37432">
        <ele>87.83</ele>
        <time>2023-06-07T20:16:40.729Z</time>
      </trkpt>
      <trkpt lat="46.62108" lon="0.37458">
        <ele>90.44</ele>
        <time>2023-06-07T20:16:44.432Z</time>
      </trkpt>
      <trkpt lat="46.6212" lon="0.37471">
        <ele>91.9</ele>
        <time>2023-06-07T20:16:48.137Z</time>
      </trkpt>
      <trkpt lat="46.62138" lon="0.37486">
        <ele>93.94</ele>
        <time>2023-06-07T20:16:51.845Z</time>
      </trkpt>
      <trkpt lat="46.6217" lon="0.37512">
        <ele>97.27</ele>
        <time>2023-06-07T20:16:55.559Z</time>
      </trkpt>
      <trkpt lat="46.62189" lon="0.37528">
        <ele>99.45</ele>
        <time>2023-06-07T20:16:59.277Z</time>
      </trkpt>
      <trkpt lat="46.62201" lon="0.37537">
        <ele>100.66</ele>
        <time>2023-06-07T20:17:02.997Z</time>
      </trkpt>
      <trkpt lat="46.62209" lon="0.37544">
        <ele>101.55</ele>
        <time>2023-06-07T20:17:06.718Z</time>
      </trkpt>
      <trkpt lat="46.62213" lon="0.37546">
        <ele>101.95</ele>
        <time>2023-06-07T20:17:10.440Z</time>
      </trkpt>
      <trkpt lat="46.62221" lon="0.37551">
        <ele>102.89</ele>
        <time>2023-06-07T20:17:14.163Z</time>
      </trkpt>
      <trkpt lat="46.6223" lon="0.37556">
        <ele>103.87</ele>
        <time>2023-06-07T20:17:17.888Z</time>
      </trkpt>
      <trkpt lat="46.62242" lon="0.37563">
        <ele>105.5</ele>
        <time>2023-06-07T20:17:21.615Z</time>
      </trkpt>
      <trkpt lat="46.62259" lon="0.37573">
        <ele>107.88</ele>
        <time>2023-06-07T20:17:25.345Z</time>
      </trkpt>
      <trkpt lat="46.62261" lon="0.37574">
        <ele>108.18</ele>
        <time>2023-06-07T20:17:29.075Z</time>
      </trkpt>
      <trkpt lat="46.6227" lon="0.37582">
        <ele>109.54</ele>
        <time>2023-06-07T20:17:32.807Z</time>
      </trkpt>
      <trkpt lat="46.62278" lon="0.37589">
        <ele>110.59</ele>
        <time>2023-06-07T20:17:36.541Z</time>
      </trkpt>
      <trkpt lat="46.62286" lon="0.37596">
        <ele>111.59</ele>
        <time>2023-06-07T20:17:40.276Z</time>
      </trkpt>
      <trkpt lat="46.6229" lon="0.376">
        <ele>112.05</ele>
        <time>2023-06-07T20:17:44.012Z</time>
      </trkpt>
      <trkpt lat="46.62297" lon="0.37607">
        <ele>112.93</ele>
        <time>2023-06-07T20:17:47.749Z</time>
      </trkpt>
      <trkpt lat="46.62305" lon="0.37613">
        <ele>113.78</ele>
        <time>2023-06-07T20:17:51.488Z</time>
      </trkpt>
      <trkpt lat="46.6231" lon="0.37618">
        <ele>114.02</ele>
        <time>2023-06-07T20:17:55.228Z</time>
      </trkpt>
      <trkpt lat="46.62317" lon="0.37622">
        <ele>114.32</ele>
        <time>2023-06-07T20:17:58.969Z</time>
      </trkpt>
      <trkpt lat="46.62334" lon="0.37631">
        <ele>114.96</ele>
        <time>2023-06-07T20:18:02.713Z</time>
      </trkpt>
      <trkpt lat="46.62355" lon="0.37643">
        <ele>115.71</ele>
        <time>2023-06-07T20:18:06.460Z</time>
      </trkpt>
      <trkpt lat="46.62384" lon="0.37659">
        <ele>116.92</ele>
        <time>2023-06-07T20:18:10.212Z</time>
      </trkpt>
      <trkpt lat="46.62392" lon="0.37663">
        <ele>117.21</ele>
        <time>2023-06-07T20:18:13.966Z</time>
      </trkpt>
      <trkpt lat="46.62409" lon="0.37672">
        <ele>117.73</ele>
        <time>2023-06-07T20:18:17.722Z</time>
      </trkpt>
      <trkpt lat="46.62422" lon="0.37679">
        <ele>118.18</ele>
        <time>2023-06-07T20:18:21.481Z</time>
      </trkpt>
      <trkpt lat="46.62434" lon="0.37686">
        <ele>118.67</ele>
        <time>2023-06-07T20:18:25.242Z</time>
      </trkpt>
      <trkpt lat="46.62447" lon="0.37693">
        <ele>119.22</ele>
        <time>2023-06-07T20:18:29.005Z</time>
      </trkpt>
      <trkpt lat="46.6246" lon="0.377">
        <ele>119.73</ele>
        <time>2023-06-07T20:18:32.770Z</time>
      </trkpt>
      <trkpt lat="46.62472" lon="0.37707">
        <ele>120.18</ele>
        <time>2023-06-07T20:18:36.537Z</time>
      </trkpt>
      <trkpt lat="46.62483" lon="0.37713">
        <ele>120.51</ele>
        <time>2023-06-07T20:18:40.306Z</time>
      </trkpt>
      <trkpt lat="46.62485" lon="0.37714">
        <ele>120.57</ele>
        <time>2023-06-07T20:18:44.075Z</time>
      </trkpt>
      <trkpt lat="46.62502" lon="0.37722">
        <ele>121</ele>
        <time>2023-06-07T20:18:47.847Z</time>
      </trkpt>
      <trkpt lat="46.6251" lon="0.37726">
        <ele>121.17</ele>
        <time>2023-06-07T20:18:51.621Z</time>
      </trkpt>
      <trkpt lat="46.62527" lon="0.37734">
        <ele>121.47</ele>
        <time>2023-06-07T20:18:55.398Z</time>
      </trkpt>
      <trkpt lat="46.62553" lon="0.37747">
        <ele>121.99</ele>
        <time>2023-06-07T20:18:59.179Z</time>
      </trkpt>
      <trkpt lat="46.62561" lon="0.37751">
        <ele>122.13</ele>
        <time>2023-06-07T20:19:02.961Z</time>
      </trkpt>
      <trkpt lat="46.6257" lon="0.37755">
        <ele>122.23</ele>
        <time>2023-06-07T20:19:06.745Z</time>
      </trkpt>
      <trkpt lat="46.626" lon="0.3777">
        <ele>122.42</ele>
        <time>2023-06-07T20:19:10.534Z</time>
      </trkpt>
      <trkpt lat="46.62621" lon="0.3778">
        <ele>122.64</ele>
        <time>2023-06-07T20:19:14.326Z</time>
      </trkpt>
      <trkpt lat="46.62627" lon="0.37783">
        <ele>122.66</ele>
        <time>2023-06-07T20:19:18.119Z</time>
      </trkpt>
      <trkpt lat="46.62629" lon="0.37784">
        <ele>122.68</ele>
        <time>2023-06-07T20:19:21.913Z</time>
      </trkpt>
      <trkpt lat="46.62634" lon="0.37786">
        <ele>122.68</ele>
        <time>2023-06-07T20:19:25.708Z</time>
      </trkpt>
      <trkpt lat="46.62673" lon="0.378">
        <ele>122.47</ele>
        <time>2023-06-07T20:19:29.509Z</time>
      </trkpt>
      <trkpt lat="46.62703" lon="0.37812">
        <ele>122.25</ele>
        <time>2023-06-07T20:19:33.315Z</time>
      </trkpt>
      <trkpt lat="46.62729" lon="0.37822">
        <ele>122.13</ele>
        <time>2023-06-07T20:19:37.125Z</time>
      </trkpt>
      <trkpt lat="46.62755" lon="0.37832">
        <ele>121.93</ele>
        <time>2023-06-07T20:19:40.940Z</time>
      </trkpt>
      <trkpt lat="46.62794" lon="0.37847">
        <ele>121.72</ele>
        <time>2023-06-07T20:19:44.761Z</time>
      </trkpt>
      <trkpt lat="46.62803" lon="0.3785">
        <ele>121.73</ele>
        <time>2023-06-07T20:19:48.584Z</time>
      </trkpt>
      <trkpt lat="46.62833" lon="0.37862">
        <ele>121.83</ele>
        <time>2023-06-07T20:19:52.412Z</time>
      </trkpt>
      <trkpt lat="46.62839" lon="0.37864">
        <ele>121.82</ele>
        <time>2023-06-07T20:19:56.241Z</time>
      </trkpt>
      <trkpt lat="46.62855" lon="0.37871">
        <ele>121.82</ele>
        <time>2023-06-07T20:20:00.072Z</time>
      </trkpt>
      <trkpt lat="46.62909" lon="0.37894">
        <ele>121.91</ele>
        <time>2023-06-07T20:20:03.912Z</time>
      </trkpt>
      <trkpt lat="46.6291" lon="0.37895">
        <ele>121.92</ele>
        <time>2023-06-07T20:20:07.752Z</time>
      </trkpt>
      <trkpt lat="46.62919" lon="0.37899">
        <ele>121.97</ele>
        <time>2023-06-07T20:20:11.594Z</time>
      </trkpt>
      <trkpt lat="46.62953" lon="0.37915">
        <ele>122.26</ele>
        <time>2023-06-07T20:20:15.442Z</time>
      </trkpt>
      <trkpt lat="46.62958" lon="0.37917">
        <ele>122.28</ele>
        <time>2023-06-07T20:20:19.290Z</time>
      </trkpt>
      <trkpt lat="46.62962" lon="0.37919">
        <ele>122.31</ele>
        <time>2023-06-07T20:20:23.139Z</time>
      </trkpt>
      <trkpt lat="46.62974" lon="0.37925">
        <ele>122.31</ele>
        <time>2023-06-07T20:20:26.990Z</time>
      </trkpt>
      <trkpt lat="46.62983" lon="0.3793">
        <ele>122.24</ele>
        <time>2023-06-07T20:20:30.843Z</time>
      </trkpt>
      <trkpt lat="46.63016" lon="0.37947">
        <ele>121.75</ele>
        <time>2023-06-07T20:20:34.701Z</time>
      </trkpt>
      <trkpt lat="46.63025" lon="0.37951">
        <ele>121.66</ele>
        <time>2023-06-07T20:20:38.561Z</time>
      </trkpt>
      <trkpt lat="46.63033" lon="0.37956">
        <ele>121.6</ele>
        <time>2023-06-07T20:20:42.422Z</time>
      </trkpt>
      <trkpt lat="46.63067" lon="0.37973">
        <ele>121.57</ele>
        <time>2023-06-07T20:20:46.289Z</time>
      </trkpt>
      <trkpt lat="46.63093" lon="0.37986">
        <ele>121.46</ele>
        <time>2023-06-07T20:20:50.160Z</time>
      </trkpt>
      <trkpt lat="46.63101" lon="0.3799">
        <ele>121.46</ele>
        <time>2023-06-07T20:20:54.033Z</time>
      </trkpt>
      <trkpt lat="46.63102" lon="0.37991">
        <ele>121.46</ele>
        <time>2023-06-07T20:20:57.906Z</time>
      </trkpt>
      <trkpt lat="46.63118" lon="0.38">
        <ele>121.49</ele>
        <time>2023-06-07T20:21:01.782Z</time>
      </trkpt>
      <trkpt lat="46.63135" lon="0.38009">
        <ele>121.47</ele>
        <time>2023-06-07T20:21:05.660Z</time>
      </trkpt>
      <trkpt lat="46.63143" lon="0.38013">
        <ele>121.43</ele>
        <time>2023-06-07T20:21:09.540Z</time>
      </trkpt>
      <trkpt lat="46.63168" lon="0.38027">
        <ele>121.23</ele>
        <time>2023-06-07T20:21:13.424Z</time>
      </trkpt>
      <trkpt lat="46.63177" lon="0.38032">
        <ele>121.18</ele>
        <time>2023-06-07T20:21:17.310Z</time>
      </trkpt>
      <trkpt lat="46.63185" lon="0.38035">
        <ele>121.15</ele>
        <time>2023-06-07T20:21:21.197Z</time>
      </trkpt>
      <trkpt lat="46.63194" lon="0.38039">
        <ele>121.06</ele>
        <time>2023-06-07T20:21:25.086Z</time>
      </trkpt>
      <trkpt lat="46.63198" lon="0.3804">
        <ele>120.99</ele>
        <time>2023-06-07T20:21:28.975Z</time>
      </trkpt>
      <trkpt lat="46.63207" lon="0.38044">
        <ele>120.79</ele>
        <time>2023-06-07T20:21:32.866Z</time>
      </trkpt>
      <trkpt lat="46.63224" lon="0.3805">
        <ele>120.33</ele>
        <time>2023-06-07T20:21:36.760Z</time>
      </trkpt>
      <trkpt lat="46.63233" lon="0.38054">
        <ele>120.13</ele>
        <time>2023-06-07T20:21:40.655Z</time>
      </trkpt>
      <trkpt lat="46.63241" lon="0.38057">
        <ele>119.95</ele>
        <time>2023-06-07T20:21:44.551Z</time>
      </trkpt>
      <trkpt lat="46.63251" lon="0.38061">
        <ele>119.79</ele>
        <time>2023-06-07T20:21:48.449Z</time>
      </trkpt>
      <trkpt lat="46.63259" lon="0.38064">
        <ele>119.68</ele>
        <time>2023-06-07T20:21:52.348Z</time>
      </trkpt>
      <trkpt lat="46.63267" lon="0.38067">
        <ele>119.52</ele>
        <time>2023-06-07T20:21:56.249Z</time>
      </trkpt>
      <trkpt lat="46.63281" lon="0.38071">
        <ele>119.19</ele>
        <time>2023-06-07T20:22:00.152Z</time>
      </trkpt>
      <trkpt lat="46.63294" lon="0.38076">
        <ele>118.83</ele>
        <time>2023-06-07T20:22:04.057Z</time>
      </trkpt>
      <trkpt lat="46.63307" lon="0.3808">
        <ele>118.44</ele>
        <time>2023-06-07T20:22:07.964Z</time>
      </trkpt>
      <trkpt lat="46.6332" lon="0.38085">
        <ele>118.11</ele>
        <time>2023-06-07T20:22:11.873Z</time>
      </trkpt>
      <trkpt lat="46.63326" lon="0.38087">
        <ele>117.91</ele>
        <time>2023-06-07T20:22:15.783Z</time>
      </trkpt>
      <trkpt lat="46.63333" lon="0.3809">
        <ele>117.71</ele>
        <time>2023-06-07T20:22:19.694Z</time>
      </trkpt>
      <trkpt lat="46.63363" lon="0.38102">
        <ele>116.74</ele>
        <time>2023-06-07T20:22:23.610Z</time>
      </trkpt>
      <trkpt lat="46.63376" lon="0.38107">
        <ele>116.35</ele>
        <time>2023-06-07T20:22:27.529Z</time>
      </trkpt>
      <trkpt lat="46.6338" lon="0.38109">
        <ele>116.2</ele>
        <time>2023-06-07T20:22:31.448Z</time>
      </trkpt>
      <trkpt lat="46.63389" lon="0.38112">
        <ele>115.85</ele>
        <time>2023-06-07T20:22:35.369Z</time>
      </trkpt>
      <trkpt lat="46.6341" lon="0.38121">
        <ele>114.92</ele>
        <time>2023-06-07T20:22:39.293Z</time>
      </trkpt>
      <trkpt lat="46.63428" lon="0.38128">
        <ele>114.24</ele>
        <time>2023-06-07T20:22:43.220Z</time>
      </trkpt>
      <trkpt lat="46.63437" lon="0.38131">
        <ele>113.92</ele>
        <time>2023-06-07T20:22:47.149Z</time>
      </trkpt>
      <trkpt lat="46.63458" lon="0.3814">
        <ele>113.24</ele>
        <time>2023-06-07T20:22:51.081Z</time>
      </trkpt>
      <trkpt lat="46.63488" lon="0.38152">
        <ele>112.21</ele>
        <time>2023-06-07T20:22:55.018Z</time>
      </trkpt>
      <trkpt lat="46.63501" lon="0.38157">
        <ele>111.75</ele>
        <time>2023-06-07T20:22:58.957Z</time>
      </trkpt>
      <trkpt lat="46.63517" lon="0.38163">
        <ele>111.17</ele>
        <time>2023-06-07T20:23:02.899Z</time>
      </trkpt>
      <trkpt lat="46.63527" lon="0.38166">
        <ele>110.79</ele>
        <time>2023-06-07T20:23:06.843Z</time>
      </trkpt>
      <trkpt lat="46.63545" lon="0.38172">
        <ele>110.28</ele>
        <time>2023-06-07T20:23:10.790Z</time>
      </trkpt>
      <trkpt lat="46.63554" lon="0.38175">
        <ele>110.01</ele>
        <time>2023-06-07T20:23:14.738Z</time>
      </trkpt>
      <trkpt lat="46.63563" lon="0.38178">
        <ele>109.68</ele>
        <time>2023-06-07T20:23:18.688Z</time>
      </trkpt>
      <trkpt lat="46.63584" lon="0.38187">
        <ele>108.96</ele>
        <time>2023-06-07T20:23:22.641Z</time>
      </trkpt>
      <trkpt lat="46.63605" lon="0.38196">
        <ele>108.11</ele>
        <time>2023-06-07T20:23:26.598Z</time>
      </trkpt>
      <trkpt lat="46.63624" lon="0.38204">
        <ele>107.31</ele>
        <time>2023-06-07T20:23:30.558Z</time>
      </trkpt>
      <trkpt lat="46.63631" lon="0.38207">
        <ele>107</ele>
        <time>2023-06-07T20:23:34.519Z</time>
      </trkpt>
      <trkpt lat="46.63662" lon="0.38218">
        <ele>105.81</ele>
        <time>2023-06-07T20:23:38.485Z</time>
      </trkpt>
      <trkpt lat="46.6367" lon="0.38221">
        <ele>105.5</ele>
        <time>2023-06-07T20:23:42.452Z</time>
      </trkpt>
      <trkpt lat="46.63688" lon="0.38228">
        <ele>104.93</ele>
        <time>2023-06-07T20:23:46.422Z</time>
      </trkpt>
      <trkpt lat="46.63696" lon="0.38231">
        <ele>104.61</ele>
        <time>2023-06-07T20:23:50.394Z</time>
      </trkpt>
      <trkpt lat="46.63709" lon="0.38236">
        <ele>104.08</ele>
        <time>2023-06-07T20:23:54.368Z</time>
      </trkpt>
      <trkpt lat="46.63735" lon="0.38246">
        <ele>103.21</ele>
        <time>2023-06-07T20:23:58.346Z</time>
      </trkpt>
      <trkpt lat="46.63749" lon="0.38251">
        <ele>102.75</ele>
        <time>2023-06-07T20:24:02.326Z</time>
      </trkpt>
      <trkpt lat="46.63749" lon="0.38251">
        <ele>102.75</ele>
        <time>2023-06-07T20:24:06.306Z</time>
      </trkpt>
      <trkpt lat="46.63757" lon="0.38253">
        <ele>102.38</ele>
        <time>2023-06-07T20:24:10.288Z</time>
      </trkpt>
      <trkpt lat="46.6378" lon="0.38257">
        <ele>101.34</ele>
        <time>2023-06-07T20:24:14.273Z</time>
      </trkpt>
      <trkpt lat="46.63793" lon="0.3826">
        <ele>100.75</ele>
        <time>2023-06-07T20:24:18.261Z</time>
      </trkpt>
      <trkpt lat="46.63804" lon="0.38262">
        <ele>100.31</ele>
        <time>2023-06-07T20:24:22.250Z</time>
      </trkpt>
      <trkpt lat="46.63842" lon="0.38264">
        <ele>98.83</ele>
        <time>2023-06-07T20:24:26.245Z</time>
      </trkpt>
      <trkpt lat="46.63855" lon="0.38264">
        <ele>98.35</ele>
        <time>2023-06-07T20:24:30.243Z</time>
      </trkpt>
      <trkpt lat="46.63864" lon="0.38265">
        <ele>98.06</ele>
        <time>2023-06-07T20:24:34.242Z</time>
      </trkpt>
      <trkpt lat="46.63874" lon="0.38265">
        <ele>97.8</ele>
        <time>2023-06-07T20:24:38.243Z</time>
      </trkpt>
      <trkpt lat="46.63874" lon="0.38265">
        <ele>97.8</ele>
        <time>2023-06-07T20:24:42.244Z</time>
      </trkpt>
      <trkpt lat="46.63887" lon="0.38267">
        <ele>97.44</ele>
        <time>2023-06-07T20:24:46.247Z</time>
      </trkpt>
      <trkpt lat="46.63896" lon="0.38269">
        <ele>97.22</ele>
        <time>2023-06-07T20:24:50.251Z</time>
      </trkpt>
      <trkpt lat="46.63905" lon="0.3827">
        <ele>97.04</ele>
        <time>2023-06-07T20:24:54.256Z</time>
      </trkpt>
      <trkpt lat="46.63914" lon="0.38272">
        <ele>96.87</ele>
        <time>2023-06-07T20:24:58.263Z</time>
      </trkpt>
      <trkpt lat="46.63926" lon="0.38278">
        <ele>96.64</ele>
        <time>2023-06-07T20:25:02.272Z</time>
      </trkpt>
      <trkpt lat="46.63945" lon="0.38286">
        <ele>96.2</ele>
        <time>2023-06-07T20:25:06.284Z</time>
      </trkpt>
      <trkpt lat="46.63956" lon="0.3829">
        <ele>95.95</ele>
        <time>2023-06-07T20:25:10.298Z</time>
      </trkpt>
      <trkpt lat="46.63969" lon="0.38296">
        <ele>95.63</ele>
        <time>2023-06-07T20:25:14.314Z</time>
      </trkpt>
      <trkpt lat="46.63974" lon="0.38297">
        <ele>95.5</ele>
        <time>2023-06-07T20:25:18.331Z</time>
      </trkpt>
      <trkpt lat="46.63982" lon="0.38301">
        <ele>95.2</ele>
        <time>2023-06-07T20:25:22.349Z</time>
      </trkpt>
      <trkpt lat="46.64004" lon="0.38309">
        <ele>94.33</ele>
        <time>2023-06-07T20:25:26.371Z</time>
      </trkpt>
      <trkpt lat="46.64013" lon="0.38313">
        <ele>93.96</ele>
        <time>2023-06-07T20:25:30.394Z</time>
      </trkpt>
      <trkpt lat="46.64021" lon="0.38316">
        <ele>93.51</ele>
        <time>2023-06-07T20:25:34.419Z</time>
      </trkpt>
      <trkpt lat="46.6403" lon="0.38319">
        <ele>93.01</ele>
        <time>2023-06-07T20:25:38.445Z</time>
      </trkpt>
      <trkpt lat="46.64034" lon="0.38321">
        <ele>92.73</ele>
        <time>2023-06-07T20:25:42.472Z</time>
      </trkpt>
      <trkpt lat="46.64043" lon="0.38325">
        <ele>92.12</ele>
        <time>2023-06-07T20:25:46.500Z</time>
      </trkpt>
      <trkpt lat="46.64056" lon="0.3833">
        <ele>91.12</ele>
        <time>2023-06-07T20:25:50.531Z</time>
      </trkpt>
      <trkpt lat="46.6406" lon="0.38331">
        <ele>90.77</ele>
        <time>2023-06-07T20:25:54.562Z</time>
      </trkpt>
      <trkpt lat="46.64069" lon="0.38335">
        <ele>90.01</ele>
        <time>2023-06-07T20:25:58.595Z</time>
      </trkpt>
      <trkpt lat="46.64077" lon="0.38338">
        <ele>89.23</ele>
        <time>2023-06-07T20:26:02.629Z</time>
      </trkpt>
      <trkpt lat="46.64082" lon="0.38341">
        <ele>88.77</ele>
        <time>2023-06-07T20:26:06.664Z</time>
      </trkpt>
      <trkpt lat="46.6409" lon="0.38346">
        <ele>87.89</ele>
        <time>2023-06-07T20:26:10.700Z</time>
      </trkpt>
      <trkpt lat="46.6411" lon="0.3836">
        <ele>85.57</ele>
        <time>2023-06-07T20:26:14.740Z</time>
      </trkpt>
      <trkpt lat="46.64116" lon="0.38364">
        <ele>85</ele>
        <time>2023-06-07T20:26:18.781Z</time>
      </trkpt>
      <trkpt lat="46.64127" lon="0.3837">
        <ele>84.02</ele>
        <time>2023-06-07T20:26:22.824Z</time>
      </trkpt>
      <trkpt lat="46.64143" lon="0.38378">
        <ele>82.52</ele>
        <time>2023-06-07T20:26:26.870Z</time>
      </trkpt>
      <trkpt lat="46.64152" lon="0.38383">
        <ele>81.75</ele>
        <time>2023-06-07T20:26:30.917Z</time>
      </trkpt>
      <trkpt lat="46.6416" lon="0.38387">
        <ele>80.9</ele>
        <time>2023-06-07T20:26:34.965Z</time>
      </trkpt>
      <trkpt lat="46.64193" lon="0.38405">
        <ele>77.35</ele>
        <time>2023-06-07T20:26:39.019Z</time>
      </trkpt>
      <trkpt lat="46.64202" lon="0.38409">
        <ele>76.56</ele>
        <time>2023-06-07T20:26:43.075Z</time>
      </trkpt>
      <trkpt lat="46.6421" lon="0.38413">
        <ele>75.81</ele>
        <time>2023-06-07T20:26:47.132Z</time>
      </trkpt>
      <trkpt lat="46.64218" lon="0.38418">
        <ele>75.09</ele>
        <time>2023-06-07T20:26:51.190Z</time>
      </trkpt>
      <trkpt lat="46.64231" lon="0.38424">
        <ele>74.07</ele>
        <time>2023-06-07T20:26:55.251Z</time>
      </trkpt>
      <trkpt lat="46.64235" lon="0.38426">
        <ele>73.76</ele>
        <time>2023-06-07T20:26:59.312Z</time>
      </trkpt>
      <trkpt lat="46.64239" lon="0.38429">
        <ele>73.48</ele>
        <time>2023-06-07T20:27:03.374Z</time>
      </trkpt>
      <trkpt lat="46.64244" lon="0.38431">
        <ele>73.2</ele>
        <time>2023-06-07T20:27:07.437Z</time>
      </trkpt>
      <trkpt lat="46.64248" lon="0.38433">
        <ele>72.99</ele>
        <time>2023-06-07T20:27:11.500Z</time>
      </trkpt>
      <trkpt lat="46.64256" lon="0.38439">
        <ele>72.57</ele>
        <time>2023-06-07T20:27:15.565Z</time>
      </trkpt>
      <trkpt lat="46.64264" lon="0.38444">
        <ele>72.19</ele>
        <time>2023-06-07T20:27:19.631Z</time>
      </trkpt>
      <trkpt lat="46.64272" lon="0.3845">
        <ele>71.85</ele>
        <time>2023-06-07T20:27:23.699Z</time>
      </trkpt>
      <trkpt lat="46.6428" lon="0.38455">
        <ele>71.56</ele>
        <time>2023-06-07T20:27:27.768Z</time>
      </trkpt>
      <trkpt lat="46.64288" lon="0.38461">
        <ele>71.33</ele>
        <time>2023-06-07T20:27:31.838Z</time>
      </trkpt>
      <trkpt lat="46.643" lon="0.38469">
        <ele>71.05</ele>
        <time>2023-06-07T20:27:35.911Z</time>
      </trkpt>
      <trkpt lat="46.64308" lon="0.38474">
        <ele>70.89</ele>
        <time>2023-06-07T20:27:39.985Z</time>
      </trkpt>
      <trkpt lat="46.64315" lon="0.38479">
        <ele>70.77</ele>
        <time>2023-06-07T20:27:44.060Z</time>
      </trkpt>
      <trkpt lat="46.6432" lon="0.38482">
        <ele>70.7</ele>
        <time>2023-06-07T20:27:48.136Z</time>
      </trkpt>
      <trkpt lat="46.64341" lon="0.38495">
        <ele>70.46</ele>
        <time>2023-06-07T20:27:52.216Z</time>
      </trkpt>
      <trkpt lat="46.64361" lon="0.38508">
        <ele>70.25</ele>
        <time>2023-06-07T20:27:56.299Z</time>
      </trkpt>
      <trkpt lat="46.64373" lon="0.38515">
        <ele>70.07</ele>
        <time>2023-06-07T20:28:00.384Z</time>
      </trkpt>
      <trkpt lat="46.64377" lon="0.38519">
        <ele>70.01</ele>
        <time>2023-06-07T20:28:04.470Z</time>
      </trkpt>
      <trkpt lat="46.64385" lon="0.38525">
        <ele>69.93</ele>
        <time>2023-06-07T20:28:08.558Z</time>
      </trkpt>
      <trkpt lat="46.6439" lon="0.3853">
        <ele>69.89</ele>
        <time>2023-06-07T20:28:12.647Z</time>
      </trkpt>
      <trkpt lat="46.64399" lon="0.3854">
        <ele>69.84</ele>
        <time>2023-06-07T20:28:16.737Z</time>
      </trkpt>
      <trkpt lat="46.64404" lon="0.38546">
        <ele>69.5</ele>
        <time>2023-06-07T20:28:20.828Z</time>
      </trkpt>
      <trkpt lat="46.64402" lon="0.38547">
        <ele>69.38</ele>
        <time>2023-06-07T20:28:24.920Z</time>
      </trkpt>
      <trkpt lat="46.64397" lon="0.38549">
        <ele>69.18</ele>
        <time>2023-06-07T20:28:29.013Z</time>
      </trkpt>
      <trkpt lat="46.64393" lon="0.38551">
        <ele>69</ele>
        <time>2023-06-07T20:28:33.106Z</time>
      </trkpt>
      <trkpt lat="46.64389" lon="0.38552">
        <ele>68.85</ele>
        <time>2023-06-07T20:28:37.200Z</time>
      </trkpt>
      <trkpt lat="46.6438" lon="0.38556">
        <ele>68.6</ele>
        <time>2023-06-07T20:28:41.295Z</time>
      </trkpt>
      <trkpt lat="46.64372" lon="0.3856">
        <ele>68.42</ele>
        <time>2023-06-07T20:28:45.392Z</time>
      </trkpt>
      <trkpt lat="46.64363" lon="0.38563">
        <ele>68.29</ele>
        <time>2023-06-07T20:28:49.490Z</time>
      </trkpt>
      <trkpt lat="46.64359" lon="0.38565">
        <ele>68.24</ele>
        <time>2023-06-07T20:28:53.589Z</time>
      </trkpt>
      <trkpt lat="46.64353" lon="0.38573">
        <ele>68.16</ele>
        <time>2023-06-07T20:28:57.689Z</time>
      </trkpt>
      <trkpt lat="46.64353" lon="0.38574">
        <ele>68.16</ele>
        <time>2023-06-07T20:29:01.789Z</time>
      </trkpt>
      <trkpt lat="46.64348" lon="0.38586">
        <ele>68.1</ele>
        <time>2023-06-07T20:29:05.891Z</time>
      </trkpt>
      <trkpt lat="46.64341" lon="0.38606">
        <ele>68.11</ele>
        <time>2023-06-07T20:29:09.995Z</time>
      </trkpt>
      <trkpt lat="46.64335" lon="0.38612">
        <ele>68.12</ele>
        <time>2023-06-07T20:29:14.100Z</time>
      </trkpt>
      <trkpt lat="46.64331" lon="0.38613">
        <ele>68.13</ele>
        <time>2023-06-07T20:29:18.206Z</time>
      </trkpt>
      <trkpt lat="46.64327" lon="0.38615">
        <ele>68.12</ele>
        <time>2023-06-07T20:29:22.313Z</time>
      </trkpt>
      <trkpt lat="46.6431" lon="0.38615">
        <ele>68.1</ele>
        <time>2023-06-07T20:29:26.423Z</time>
      </trkpt>
      <trkpt lat="46.64309" lon="0.38615">
        <ele>68.1</ele>
        <time>2023-06-07T20:29:30.533Z</time>
      </trkpt>
      <trkpt lat="46.64278" lon="0.38609">
        <ele>68.14</ele>
        <time>2023-06-07T20:29:34.648Z</time>
      </trkpt>
      <trkpt lat="46.64265" lon="0.38606">
        <ele>68.13</ele>
        <time>2023-06-07T20:29:38.765Z</time>
      </trkpt>
      <trkpt lat="46.64241" lon="0.38601">
        <ele>68.07</ele>
        <time>2023-06-07T20:29:42.886Z</time>
      </trkpt>
      <trkpt lat="46.6423" lon="0.38598">
        <ele>68.05</ele>
        <time>2023-06-07T20:29:47.008Z</time>
      </trkpt>
      <trkpt lat="46.642" lon="0.38588">
        <ele>67.9</ele>
        <time>2023-06-07T20:29:51.135Z</time>
      </trkpt>
      <trkpt lat="46.64182" lon="0.38583">
        <ele>67.86</ele>
        <time>2023-06-07T20:29:55.265Z</time>
      </trkpt>
      <trkpt lat="46.64173" lon="0.3858">
        <ele>67.87</ele>
        <time>2023-06-07T20:29:59.397Z</time>
      </trkpt>
      <trkpt lat="46.64162" lon="0.38577">
        <ele>67.92</ele>
        <time>2023-06-07T20:30:03.531Z</time>
      </trkpt>
      <trkpt lat="46.64152" lon="0.38572">
        <ele>67.98</ele>
        <time>2023-06-07T20:30:07.666Z</time>
      </trkpt>
      <trkpt lat="46.64148" lon="0.3857">
        <ele>67.99</ele>
        <time>2023-06-07T20:30:11.802Z</time>
      </trkpt>
      <trkpt lat="46.64129" lon="0.38562">
        <ele>67.94</ele>
        <time>2023-06-07T20:30:15.941Z</time>
      </trkpt>
      <trkpt lat="46.64126" lon="0.38561">
        <ele>67.94</ele>
        <time>2023-06-07T20:30:20.081Z</time>
      </trkpt>
      <trkpt lat="46.6411" lon="0.38552">
        <ele>67.94</ele>
        <time>2023-06-07T20:30:24.223Z</time>
      </trkpt>
      <trkpt lat="46.64085" lon="0.38538">
        <ele>68.07</ele>
        <time>2023-06-07T20:30:28.370Z</time>
      </trkpt>
      <trkpt lat="46.64072" lon="0.38531">
        <ele>68.1</ele>
        <time>2023-06-07T20:30:32.519Z</time>
      </trkpt>
      <trkpt lat="46.64047" lon="0.38518">
        <ele>68.1</ele>
        <time>2023-06-07T20:30:36.672Z</time>
      </trkpt>
      <trkpt lat="46.64038" lon="0.38515">
        <ele>68.1</ele>
        <time>2023-06-07T20:30:40.827Z</time>
      </trkpt>
      <trkpt lat="46.64036" lon="0.38514">
        <ele>68.09</ele>
        <time>2023-06-07T20:30:44.982Z</time>
      </trkpt>
      <trkpt lat="46.6402" lon="0.3851">
        <ele>68.04</ele>
        <time>2023-06-07T20:30:49.140Z</time>
      </trkpt>
      <trkpt lat="46.64014" lon="0.38508">
        <ele>68.01</ele>
        <time>2023-06-07T20:30:53.299Z</time>
      </trkpt>
      <trkpt lat="46.6398" lon="0.38505">
        <ele>67.85</ele>
        <time>2023-06-07T20:30:57.463Z</time>
      </trkpt>
      <trkpt lat="46.6397" lon="0.38504">
        <ele>67.81</ele>
        <time>2023-06-07T20:31:01.629Z</time>
      </trkpt>
      <trkpt lat="46.63954" lon="0.38505">
        <ele>67.76</ele>
        <time>2023-06-07T20:31:05.797Z</time>
      </trkpt>
      <trkpt lat="46.63948" lon="0.38505">
        <ele>67.73</ele>
        <time>2023-06-07T20:31:09.966Z</time>
      </trkpt>
      <trkpt lat="46.63938" lon="0.38507">
        <ele>67.67</ele>
        <time>2023-06-07T20:31:14.137Z</time>
      </trkpt>
      <trkpt lat="46.63924" lon="0.38513">
        <ele>67.59</ele>
        <time>2023-06-07T20:31:18.310Z</time>
      </trkpt>
      <trkpt lat="46.63915" lon="0.38522">
        <ele>67.53</ele>
        <time>2023-06-07T20:31:22.485Z</time>
      </trkpt>
      <trkpt lat="46.63913" lon="0.38526">
        <ele>67.52</ele>
        <time>2023-06-07T20:31:26.660Z</time>
      </trkpt>
      <trkpt lat="46.63907" lon="0.38536">
        <ele>67.5</ele>
        <time>2023-06-07T20:31:30.837Z</time>
      </trkpt>
      <trkpt lat="46.63903" lon="0.38544">
        <ele>67.51</ele>
        <time>2023-06-07T20:31:35.015Z</time>
      </trkpt>
      <trkpt lat="46.639" lon="0.38559">
        <ele>67.55</ele>
        <time>2023-06-07T20:31:39.195Z</time>
      </trkpt>
      <trkpt lat="46.63899" lon="0.38565">
        <ele>67.57</ele>
        <time>2023-06-07T20:31:43.375Z</time>
      </trkpt>
      <trkpt lat="46.63901" lon="0.38588">
        <ele>67.66</ele>
        <time>2023-06-07T20:31:47.558Z</time>
      </trkpt>
      <trkpt lat="46.63906" lon="0.38616">
        <ele>67.78</ele>
        <time>2023-06-07T20:31:51.744Z</time>
      </trkpt>
      <trkpt lat="46.63909" lon="0.38635">
        <ele>67.84</ele>
        <time>2023-06-07T20:31:55.932Z</time>
      </trkpt>
      <trkpt lat="46.63914" lon="0.38666">
        <ele>67.9</ele>
        <time>2023-06-07T20:32:00.124Z</time>
      </trkpt>
      <trkpt lat="46.63921" lon="0.38704">
        <ele>67.93</ele>
        <time>2023-06-07T20:32:04.320Z</time>
      </trkpt>
      <trkpt lat="46.63922" lon="0.38713">
        <ele>67.87</ele>
        <time>2023-06-07T20:32:08.517Z</time>
      </trkpt>
      <trkpt lat="46.63925" lon="0.38747">
        <ele>67.67</ele>
        <time>2023-06-07T20:32:12.718Z</time>
      </trkpt>
      <trkpt lat="46.63925" lon="0.38749">
        <ele>67.66</ele>
        <time>2023-06-07T20:32:16.919Z</time>
      </trkpt>
      <trkpt lat="46.63923" lon="0.38758">
        <ele>67.63</ele>
        <time>2023-06-07T20:32:21.121Z</time>
      </trkpt>
      <trkpt lat="46.63922" lon="0.38762">
        <ele>67.63</ele>
        <time>2023-06-07T20:32:25.324Z</time>
      </trkpt>
      <trkpt lat="46.63919" lon="0.38768">
        <ele>67.64</ele>
        <time>2023-06-07T20:32:29.527Z</time>
      </trkpt>
      <trkpt lat="46.63916" lon="0.38772">
        <ele>67.65</ele>
        <time>2023-06-07T20:32:33.731Z</time>
      </trkpt>
      <trkpt lat="46.63913" lon="0.38775">
        <ele>67.67</ele>
        <time>2023-06-07T20:32:37.936Z</time>
      </trkpt>
      <trkpt lat="46.63904" lon="0.38782">
        <ele>67.74</ele>
        <time>2023-06-07T20:32:42.142Z</time>
      </trkpt>
      <trkpt lat="46.63904" lon="0.38782">
        <ele>67.74</ele>
        <time>2023-06-07T20:32:46.348Z</time>
      </trkpt>
      <trkpt lat="46.63879" lon="0.38794">
        <ele>67.99</ele>
        <time>2023-06-07T20:32:50.558Z</time>
      </trkpt>
      <trkpt lat="46.6387" lon="0.38799">
        <ele>68.06</ele>
        <time>2023-06-07T20:32:54.770Z</time>
      </trkpt>
      <trkpt lat="46.6386" lon="0.38808">
        <ele>68.15</ele>
        <time>2023-06-07T20:32:58.984Z</time>
      </trkpt>
      <trkpt lat="46.63859" lon="0.38809">
        <ele>68.16</ele>
        <time>2023-06-07T20:33:03.198Z</time>
      </trkpt>
      <trkpt lat="46.63851" lon="0.3882">
        <ele>68.27</ele>
        <time>2023-06-07T20:33:07.414Z</time>
      </trkpt>
      <trkpt lat="46.63843" lon="0.38834">
        <ele>68.39</ele>
        <time>2023-06-07T20:33:11.632Z</time>
      </trkpt>
      <trkpt lat="46.63841" lon="0.38838">
        <ele>68.43</ele>
        <time>2023-06-07T20:33:15.850Z</time>
      </trkpt>
      <trkpt lat="46.63837" lon="0.3885">
        <ele>68.55</ele>
        <time>2023-06-07T20:33:20.070Z</time>
      </trkpt>
      <trkpt lat="46.63835" lon="0.38855">
        <ele>68.63</ele>
        <time>2023-06-07T20:33:24.291Z</time>
      </trkpt>
      <trkpt lat="46.63834" lon="0.38858">
        <ele>68.67</ele>
        <time>2023-06-07T20:33:28.512Z</time>
      </trkpt>
      <trkpt lat="46.63831" lon="0.38867">
        <ele>68.84</ele>
        <time>2023-06-07T20:33:32.734Z</time>
      </trkpt>
      <trkpt lat="46.63828" lon="0.3888">
        <ele>69.1</ele>
        <time>2023-06-07T20:33:36.957Z</time>
      </trkpt>
      <trkpt lat="46.63826" lon="0.38886">
        <ele>69.26</ele>
        <time>2023-06-07T20:33:41.181Z</time>
      </trkpt>
      <trkpt lat="46.63823" lon="0.38898">
        <ele>69.65</ele>
        <time>2023-06-07T20:33:45.407Z</time>
      </trkpt>
      <trkpt lat="46.63821" lon="0.38904">
        <ele>69.87</ele>
        <time>2023-06-07T20:33:49.633Z</time>
      </trkpt>
      <trkpt lat="46.63816" lon="0.38922">
        <ele>70.61</ele>
        <time>2023-06-07T20:33:53.861Z</time>
      </trkpt>
      <trkpt lat="46.63814" lon="0.38929">
        <ele>70.82</ele>
        <time>2023-06-07T20:33:58.090Z</time>
      </trkpt>
      <trkpt lat="46.63814" lon="0.38929">
        <ele>70.82</ele>
        <time>2023-06-07T20:34:02.319Z</time>
      </trkpt>
      <trkpt lat="46.63812" lon="0.38933">
        <ele>70.99</ele>
        <time>2023-06-07T20:34:06.549Z</time>
      </trkpt>
      <trkpt lat="46.63809" lon="0.38938">
        <ele>71.11</ele>
        <time>2023-06-07T20:34:10.780Z</time>
      </trkpt>
      <trkpt lat="46.63806" lon="0.38943">
        <ele>71.2</ele>
        <time>2023-06-07T20:34:15.011Z</time>
      </trkpt>
      <trkpt lat="46.63802" lon="0.38951">
        <ele>70.91</ele>
        <time>2023-06-07T20:34:19.243Z</time>
      </trkpt>
      <trkpt lat="46.63796" lon="0.38956">
        <ele>70.63</ele>
        <time>2023-06-07T20:34:23.476Z</time>
      </trkpt>
      <trkpt lat="46.63781" lon="0.38969">
        <ele>69.81</ele>
        <time>2023-06-07T20:34:27.712Z</time>
      </trkpt>
      <trkpt lat="46.63781" lon="0.38969">
        <ele>69.81</ele>
        <time>2023-06-07T20:34:31.948Z</time>
      </trkpt>
      <trkpt lat="46.63777" lon="0.38971">
        <ele>69.63</ele>
        <time>2023-06-07T20:34:36.185Z</time>
      </trkpt>
      <trkpt lat="46.63764" lon="0.38978">
        <ele>69.21</ele>
        <time>2023-06-07T20:34:40.424Z</time>
      </trkpt>
      <trkpt lat="46.63755" lon="0.38982">
        <ele>69.01</ele>
        <time>2023-06-07T20:34:44.665Z</time>
      </trkpt>
      <trkpt lat="46.63751" lon="0.38984">
        <ele>68.93</ele>
        <time>2023-06-07T20:34:48.906Z</time>
      </trkpt>
      <trkpt lat="46.63743" lon="0.38988">
        <ele>68.8</ele>
        <time>2023-06-07T20:34:53.149Z</time>
      </trkpt>
      <trkpt lat="46.63727" lon="0.38996">
        <ele>68.61</ele>
        <time>2023-06-07T20:34:57.394Z</time>
      </trkpt>
      <trkpt lat="46.63726" lon="0.38997">
        <ele>68.6</ele>
        <time>2023-06-07T20:35:01.640Z</time>
      </trkpt>
      <trkpt lat="46.63718" lon="0.39002">
        <ele>68.54</ele>
        <time>2023-06-07T20:35:05.887Z</time>
      </trkpt>
      <trkpt lat="46.63714" lon="0.39005">
        <ele>68.53</ele>
        <time>2023-06-07T20:35:10.135Z</time>
      </trkpt>
      <trkpt lat="46.6371" lon="0.39007">
        <ele>68.54</ele>
        <time>2023-06-07T20:35:14.383Z</time>
      </trkpt>
      <trkpt lat="46.63693" lon="0.39018">
        <ele>68.65</ele>
        <time>2023-06-07T20:35:18.634Z</time>
      </trkpt>
      <trkpt lat="46.6368" lon="0.39027">
        <ele>68.69</ele>
        <time>2023-06-07T20:35:22.888Z</time>
      </trkpt>
      <trkpt lat="46.63648" lon="0.39046">
        <ele>68.8</ele>
        <time>2023-06-07T20:35:27.147Z</time>
      </trkpt>
      <trkpt lat="46.63632" lon="0.39056">
        <ele>68.94</ele>
        <time>2023-06-07T20:35:31.409Z</time>
      </trkpt>
      <trkpt lat="46.63615" lon="0.39066">
        <ele>69.16</ele>
        <time>2023-06-07T20:35:35.674Z</time>
      </trkpt>
      <trkpt lat="46.63607" lon="0.3907">
        <ele>69.3</ele>
        <time>2023-06-07T20:35:39.940Z</time>
      </trkpt>
      <trkpt lat="46.63594" lon="0.39078">
        <ele>69.59</ele>
        <time>2023-06-07T20:35:44.209Z</time>
      </trkpt>
      <trkpt lat="46.63578" lon="0.39088">
        <ele>70.03</ele>
        <time>2023-06-07T20:35:48.480Z</time>
      </trkpt>
      <trkpt lat="46.63557" lon="0.391">
        <ele>70.65</ele>
        <time>2023-06-07T20:35:52.755Z</time>
      </trkpt>
      <trkpt lat="46.6355" lon="0.39104">
        <ele>70.81</ele>
        <time>2023-06-07T20:35:57.031Z</time>
      </trkpt>
      <trkpt lat="46.63541" lon="0.39112">
        <ele>71.05</ele>
        <time>2023-06-07T20:36:01.309Z</time>
      </trkpt>
      <trkpt lat="46.63537" lon="0.39116">
        <ele>71.14</ele>
        <time>2023-06-07T20:36:05.588Z</time>
      </trkpt>
      <trkpt lat="46.6353" lon="0.39124">
        <ele>71.29</ele>
        <time>2023-06-07T20:36:09.868Z</time>
      </trkpt>
      <trkpt lat="46.63523" lon="0.39132">
        <ele>71.42</ele>
        <time>2023-06-07T20:36:14.149Z</time>
      </trkpt>
      <trkpt lat="46.63515" lon="0.39146">
        <ele>71.6</ele>
        <time>2023-06-07T20:36:18.433Z</time>
      </trkpt>
      <trkpt lat="46.6351" lon="0.39154">
        <ele>71.7</ele>
        <time>2023-06-07T20:36:22.718Z</time>
      </trkpt>
      <trkpt lat="46.63501" lon="0.39172">
        <ele>71.94</ele>
        <time>2023-06-07T20:36:27.005Z</time>
      </trkpt>
      <trkpt lat="46.63497" lon="0.3918">
        <ele>71.77</ele>
        <time>2023-06-07T20:36:31.293Z</time>
      </trkpt>
      <trkpt lat="46.63494" lon="0.39189">
        <ele>71.61</ele>
        <time>2023-06-07T20:36:35.582Z</time>
      </trkpt>
      <trkpt lat="46.6349" lon="0.392">
        <ele>71.47</ele>
        <time>2023-06-07T20:36:39.873Z</time>
      </trkpt>
      <trkpt lat="46.63486" lon="0.39212">
        <ele>71.38</ele>
        <time>2023-06-07T20:36:44.165Z</time>
      </trkpt>
      <trkpt lat="46.63484" lon="0.3922">
        <ele>71.35</ele>
        <time>2023-06-07T20:36:48.458Z</time>
      </trkpt>
      <trkpt lat="46.63478" lon="0.3925">
        <ele>71.27</ele>
        <time>2023-06-07T20:36:52.755Z</time>
      </trkpt>
      <trkpt lat="46.63475" lon="0.39262">
        <ele>71.27</ele>
        <time>2023-06-07T20:36:57.053Z</time>
      </trkpt>
      <trkpt lat="46.6347" lon="0.39287">
        <ele>71.31</ele>
        <time>2023-06-07T20:37:01.354Z</time>
      </trkpt>
      <trkpt lat="46.63468" lon="0.39299">
        <ele>71.29</ele>
        <time>2023-06-07T20:37:05.656Z</time>
      </trkpt>
      <trkpt lat="46.63468" lon="0.393">
        <ele>71.29</ele>
        <time>2023-06-07T20:37:09.958Z</time>
      </trkpt>
      <trkpt lat="46.63465" lon="0.39326">
        <ele>71.21</ele>
        <time>2023-06-07T20:37:14.263Z</time>
      </trkpt>
      <trkpt lat="46.63464" lon="0.39335">
        <ele>71.2</ele>
        <time>2023-06-07T20:37:18.569Z</time>
      </trkpt>
      <trkpt lat="46.63464" lon="0.39358">
        <ele>71.2</ele>
        <time>2023-06-07T20:37:22.878Z</time>
      </trkpt>
      <trkpt lat="46.63464" lon="0.39386">
        <ele>71.27</ele>
        <time>2023-06-07T20:37:27.190Z</time>
      </trkpt>
      <trkpt lat="46.63468" lon="0.39423">
        <ele>71.38</ele>
        <time>2023-06-07T20:37:31.506Z</time>
      </trkpt>
      <trkpt lat="46.6347" lon="0.39442">
        <ele>71.38</ele>
        <time>2023-06-07T20:37:35.824Z</time>
      </trkpt>
      <trkpt lat="46.63471" lon="0.39455">
        <ele>71.37</ele>
        <time>2023-06-07T20:37:40.144Z</time>
      </trkpt>
      <trkpt lat="46.63472" lon="0.39462">
        <ele>71.34</ele>
        <time>2023-06-07T20:37:44.464Z</time>
      </trkpt>
      <trkpt lat="46.63476" lon="0.39494">
        <ele>71.12</ele>
        <time>2023-06-07T20:37:48.788Z</time>
      </trkpt>
      <trkpt lat="46.63477" lon="0.39507">
        <ele>71.09</ele>
        <time>2023-06-07T20:37:53.113Z</time>
      </trkpt>
      <trkpt lat="46.63479" lon="0.39526">
        <ele>71.14</ele>
        <time>2023-06-07T20:37:57.441Z</time>
      </trkpt>
      <trkpt lat="46.63481" lon="0.39539">
        <ele>71.2</ele>
        <time>2023-06-07T20:38:01.770Z</time>
      </trkpt>
      <trkpt lat="46.63483" lon="0.39565">
        <ele>71.38</ele>
        <time>2023-06-07T20:38:06.102Z</time>
      </trkpt>
      <trkpt lat="46.63485" lon="0.39578">
        <ele>71.56</ele>
        <time>2023-06-07T20:38:10.435Z</time>
      </trkpt>
      <trkpt lat="46.63486" lon="0.39591">
        <ele>71.8</ele>
        <time>2023-06-07T20:38:14.770Z</time>
      </trkpt>
      <trkpt lat="46.63487" lon="0.39598">
        <ele>71.95</ele>
        <time>2023-06-07T20:38:19.105Z</time>
      </trkpt>
      <trkpt lat="46.63487" lon="0.39604">
        <ele>72.13</ele>
        <time>2023-06-07T20:38:23.441Z</time>
      </trkpt>
      <trkpt lat="46.63488" lon="0.39609">
        <ele>72.28</ele>
        <time>2023-06-07T20:38:27.778Z</time>
      </trkpt>
      <trkpt lat="46.63488" lon="0.3961">
        <ele>72.33</ele>
        <time>2023-06-07T20:38:32.115Z</time>
      </trkpt>
      <trkpt lat="46.63492" lon="0.39623">
        <ele>72.83</ele>
        <time>2023-06-07T20:38:36.453Z</time>
      </trkpt>
      <trkpt lat="46.63495" lon="0.39636">
        <ele>73.45</ele>
        <time>2023-06-07T20:38:40.793Z</time>
      </trkpt>
      <trkpt lat="46.63495" lon="0.39636">
        <ele>73.45</ele>
        <time>2023-06-07T20:38:45.133Z</time>
      </trkpt>
      <trkpt lat="46.63497" lon="0.3964">
        <ele>73.79</ele>
        <time>2023-06-07T20:38:49.473Z</time>
      </trkpt>
      <trkpt lat="46.63503" lon="0.39651">
        <ele>74.55</ele>
        <time>2023-06-07T20:38:53.815Z</time>
      </trkpt>
      <trkpt lat="46.63503" lon="0.39651">
        <ele>74.55</ele>
        <time>2023-06-07T20:38:58.157Z</time>
      </trkpt>
      <trkpt lat="46.63512" lon="0.39664">
        <ele>75.74</ele>
        <time>2023-06-07T20:39:02.501Z</time>
      </trkpt>
      <trkpt lat="46.63519" lon="0.39673">
        <ele>76.48</ele>
        <time>2023-06-07T20:39:06.847Z</time>
      </trkpt>
      <trkpt lat="46.63522" lon="0.39678">
        <ele>76.8</ele>
        <time>2023-06-07T20:39:11.193Z</time>
      </trkpt>
      <trkpt lat="46.63523" lon="0.39679">
        <ele>76.87</ele>
        <time>2023-06-07T20:39:15.539Z</time>
      </trkpt>
      <trkpt lat="46.63526" lon="0.39681">
        <ele>77.07</ele>
        <time>2023-06-07T20:39:19.886Z</time>
      </trkpt>
      <trkpt lat="46.6353" lon="0.39684">
        <ele>77.3</ele>
        <time>2023-06-07T20:39:24.234Z</time>
      </trkpt>
      <trkpt lat="46.63541" lon="0.39693">
        <ele>77.04</ele>
        <time>2023-06-07T20:39:28.584Z</time>
      </trkpt>
      <trkpt lat="46.63562" lon="0.3971">
        <ele>76.64</ele>
        <time>2023-06-07T20:39:32.938Z</time>
      </trkpt>
      <trkpt lat="46.63556" lon="0.3972">
        <ele>76.49</ele>
        <time>2023-06-07T20:39:37.293Z</time>
      </trkpt>
      <trkpt lat="46.63555" lon="0.39723">
        <ele>76.45</ele>
        <time>2023-06-07T20:39:41.648Z</time>
      </trkpt>
      <trkpt lat="46.63551" lon="0.39735">
        <ele>76.21</ele>
        <time>2023-06-07T20:39:46.005Z</time>
      </trkpt>
      <trkpt lat="46.63549" lon="0.39741">
        <ele>76.05</ele>
        <time>2023-06-07T20:39:50.363Z</time>
      </trkpt>
      <trkpt lat="46.63546" lon="0.39753">
        <ele>75.63</ele>
        <time>2023-06-07T20:39:54.722Z</time>
      </trkpt>
      <trkpt lat="46.63538" lon="0.39777">
        <ele>74.61</ele>
        <time>2023-06-07T20:39:59.084Z</time>
      </trkpt>
      <trkpt lat="46.63535" lon="0.39789">
        <ele>74.16</ele>
        <time>2023-06-07T20:40:03.447Z</time>
      </trkpt>
      <trkpt lat="46.63531" lon="0.39801">
        <ele>73.78</ele>
        <time>2023-06-07T20:40:07.812Z</time>
      </trkpt>
      <trkpt lat="46.63527" lon="0.39813">
        <ele>73.49</ele>
        <time>2023-06-07T20:40:12.178Z</time>
      </trkpt>
      <trkpt lat="46.63526" lon="0.39819">
        <ele>73.37</ele>
        <time>2023-06-07T20:40:16.545Z</time>
      </trkpt>
      <trkpt lat="46.63524" lon="0.39825">
        <ele>73.27</ele>
        <time>2023-06-07T20:40:20.913Z</time>
      </trkpt>
      <trkpt lat="46.6352" lon="0.39837">
        <ele>73.12</ele>
        <time>2023-06-07T20:40:25.282Z</time>
      </trkpt>
      <trkpt lat="46.63519" lon="0.3984">
        <ele>73.09</ele>
        <time>2023-06-07T20:40:29.652Z</time>
      </trkpt>
      <trkpt lat="46.63515" lon="0.39849">
        <ele>73</ele>
        <time>2023-06-07T20:40:34.023Z</time>
      </trkpt>
      <trkpt lat="46.63508" lon="0.39855">
        <ele>72.91</ele>
        <time>2023-06-07T20:40:38.395Z</time>
      </trkpt>
      <trkpt lat="46.63501" lon="0.39863">
        <ele>72.85</ele>
        <time>2023-06-07T20:40:42.768Z</time>
      </trkpt>
      <trkpt lat="46.63493" lon="0.3987">
        <ele>72.85</ele>
        <time>2023-06-07T20:40:47.143Z</time>
      </trkpt>
      <trkpt lat="46.63491" lon="0.39872">
        <ele>72.86</ele>
        <time>2023-06-07T20:40:51.518Z</time>
      </trkpt>
      <trkpt lat="46.6349" lon="0.39874">
        <ele>72.88</ele>
        <time>2023-06-07T20:40:55.894Z</time>
      </trkpt>
      <trkpt lat="46.63486" lon="0.39878">
        <ele>72.95</ele>
        <time>2023-06-07T20:41:00.270Z</time>
      </trkpt>
      <trkpt lat="46.63483" lon="0.39882">
        <ele>73.05</ele>
        <time>2023-06-07T20:41:04.647Z</time>
      </trkpt>
      <trkpt lat="46.63479" lon="0.39886">
        <ele>73.18</ele>
        <time>2023-06-07T20:41:09.025Z</time>
      </trkpt>
      <trkpt lat="46.63472" lon="0.39894">
        <ele>73.51</ele>
        <time>2023-06-07T20:41:13.404Z</time>
      </trkpt>
      <trkpt lat="46.63462" lon="0.39907">
        <ele>74.14</ele>
        <time>2023-06-07T20:41:17.785Z</time>
      </trkpt>
      <trkpt lat="46.63455" lon="0.39915">
        <ele>74.63</ele>
        <time>2023-06-07T20:41:22.168Z</time>
      </trkpt>
      <trkpt lat="46.63448" lon="0.39924">
        <ele>75.17</ele>
        <time>2023-06-07T20:41:26.552Z</time>
      </trkpt>
      <trkpt lat="46.63441" lon="0.39932">
        <ele>75.75</ele>
        <time>2023-06-07T20:41:30.938Z</time>
      </trkpt>
      <trkpt lat="46.63436" lon="0.39938">
        <ele>76.2</ele>
        <time>2023-06-07T20:41:35.325Z</time>
      </trkpt>
      <trkpt lat="46.63434" lon="0.3994">
        <ele>76.37</ele>
        <time>2023-06-07T20:41:39.712Z</time>
      </trkpt>
      <trkpt lat="46.63428" lon="0.3995">
        <ele>77.09</ele>
        <time>2023-06-07T20:41:44.101Z</time>
      </trkpt>
      <trkpt lat="46.63422" lon="0.39959">
        <ele>77.89</ele>
        <time>2023-06-07T20:41:48.491Z</time>
      </trkpt>
      <trkpt lat="46.63403" lon="0.39988">
        <ele>80.46</ele>
        <time>2023-06-07T20:41:52.885Z</time>
      </trkpt>
      <trkpt lat="46.63391" lon="0.40006">
        <ele>82.21</ele>
        <time>2023-06-07T20:41:57.282Z</time>
      </trkpt>
      <trkpt lat="46.63385" lon="0.40016">
        <ele>83.04</ele>
        <time>2023-06-07T20:42:01.681Z</time>
      </trkpt>
      <trkpt lat="46.63378" lon="0.40025">
        <ele>83.79</ele>
        <time>2023-06-07T20:42:06.081Z</time>
      </trkpt>
      <trkpt lat="46.63375" lon="0.4003">
        <ele>84.14</ele>
        <time>2023-06-07T20:42:10.482Z</time>
      </trkpt>
      <trkpt lat="46.63372" lon="0.40035">
        <ele>84.46</ele>
        <time>2023-06-07T20:42:14.884Z</time>
      </trkpt>
      <trkpt lat="46.63369" lon="0.40039">
        <ele>84.75</ele>
        <time>2023-06-07T20:42:19.286Z</time>
      </trkpt>
      <trkpt lat="46.63366" lon="0.40044">
        <ele>85</ele>
        <time>2023-06-07T20:42:23.689Z</time>
      </trkpt>
      <trkpt lat="46.63363" lon="0.40049">
        <ele>85.22</ele>
        <time>2023-06-07T20:42:28.093Z</time>
      </trkpt>
      <trkpt lat="46.6336" lon="0.40053">
        <ele>85.41</ele>
        <time>2023-06-07T20:42:32.497Z</time>
      </trkpt>
      <trkpt lat="46.63356" lon="0.40058">
        <ele>85.56</ele>
        <time>2023-06-07T20:42:36.902Z</time>
      </trkpt>
      <trkpt lat="46.63353" lon="0.40063">
        <ele>85.68</ele>
        <time>2023-06-07T20:42:41.308Z</time>
      </trkpt>
      <trkpt lat="46.6335" lon="0.40067">
        <ele>85.76</ele>
        <time>2023-06-07T20:42:45.715Z</time>
      </trkpt>
      <trkpt lat="46.63347" lon="0.40072">
        <ele>85.79</ele>
        <time>2023-06-07T20:42:50.122Z</time>
      </trkpt>
      <trkpt lat="46.63344" lon="0.40077">
        <ele>85.76</ele>
        <time>2023-06-07T20:42:54.530Z</time>
      </trkpt>
      <trkpt lat="46.63341" lon="0.40082">
        <ele>85.68</ele>
        <time>2023-06-07T20:42:58.939Z</time>
      </trkpt>
      <trkpt lat="46.63335" lon="0.40091">
        <ele>85.38</ele>
        <time>2023-06-07T20:43:03.349Z</time>
      </trkpt>
      <trkpt lat="46.6333" lon="0.40098">
        <ele>86.15</ele>
        <time>2023-06-07T20:43:07.760Z</time>
      </trkpt>
      <trkpt lat="46.63332" lon="0.40099">
        <ele>86.41</ele>
        <time>2023-06-07T20:43:12.172Z</time>
      </trkpt>
      <trkpt lat="46.63336" lon="0.40102">
        <ele>86.89</ele>
        <time>2023-06-07T20:43:16.584Z</time>
      </trkpt>
      <trkpt lat="46.6334" lon="0.40105">
        <ele>87.34</ele>
        <time>2023-06-07T20:43:20.997Z</time>
      </trkpt>
      <trkpt lat="46.63352" lon="0.40114">
        <ele>88.56</ele>
        <time>2023-06-07T20:43:25.412Z</time>
      </trkpt>
      <trkpt lat="46.63354" lon="0.40115">
        <ele>88.73</ele>
        <time>2023-06-07T20:43:29.827Z</time>
      </trkpt>
      <trkpt lat="46.63356" lon="0.40116">
        <ele>88.95</ele>
        <time>2023-06-07T20:43:34.243Z</time>
      </trkpt>
      <trkpt lat="46.63374" lon="0.40122">
        <ele>90.43</ele>
        <time>2023-06-07T20:43:38.662Z</time>
      </trkpt>
      <trkpt lat="46.63387" lon="0.40126">
        <ele>91.61</ele>
        <time>2023-06-07T20:43:43.083Z</time>
      </trkpt>
      <trkpt lat="46.634" lon="0.4013">
        <ele>92.87</ele>
        <time>2023-06-07T20:43:47.506Z</time>
      </trkpt>
      <trkpt lat="46.63417" lon="0.40136">
        <ele>94.65</ele>
        <time>2023-06-07T20:43:51.932Z</time>
      </trkpt>
      <trkpt lat="46.63422" lon="0.40138">
        <ele>95.07</ele>
        <time>2023-06-07T20:43:56.359Z</time>
      </trkpt>
      <trkpt lat="46.63426" lon="0.40139">
        <ele>95.46</ele>
        <time>2023-06-07T20:44:00.786Z</time>
      </trkpt>
      <trkpt lat="46.63431" lon="0.40141">
        <ele>95.82</ele>
        <time>2023-06-07T20:44:05.214Z</time>
      </trkpt>
      <trkpt lat="46.63435" lon="0.40142">
        <ele>96.14</ele>
        <time>2023-06-07T20:44:09.643Z</time>
      </trkpt>
      <trkpt lat="46.63439" lon="0.40144">
        <ele>96.42</ele>
        <time>2023-06-07T20:44:14.072Z</time>
      </trkpt>
      <trkpt lat="46.63448" lon="0.40147">
        <ele>96.88</ele>
        <time>2023-06-07T20:44:18.503Z</time>
      </trkpt>
      <trkpt lat="46.63458" lon="0.4015">
        <ele>97.31</ele>
        <time>2023-06-07T20:44:22.936Z</time>
      </trkpt>
      <trkpt lat="46.63461" lon="0.40152">
        <ele>97.44</ele>
        <time>2023-06-07T20:44:27.369Z</time>
      </trkpt>
      <trkpt lat="46.63468" lon="0.40159">
        <ele>97.75</ele>
        <time>2023-06-07T20:44:31.804Z</time>
      </trkpt>
      <trkpt lat="46.63476" lon="0.40166">
        <ele>97.98</ele>
        <time>2023-06-07T20:44:36.240Z</time>
      </trkpt>
      <trkpt lat="46.6349" lon="0.40179">
        <ele>98.32</ele>
        <time>2023-06-07T20:44:40.679Z</time>
      </trkpt>
      <trkpt lat="46.63494" lon="0.40185">
        <ele>98.44</ele>
        <time>2023-06-07T20:44:45.119Z</time>
      </trkpt>
      <trkpt lat="46.6351" lon="0.40209">
        <ele>98.84</ele>
        <time>2023-06-07T20:44:49.562Z</time>
      </trkpt>
      <trkpt lat="46.6351" lon="0.40209">
        <ele>98.84</ele>
        <time>2023-06-07T20:44:54.005Z</time>
      </trkpt>
      <trkpt lat="46.63523" lon="0.40234">
        <ele>99.18</ele>
        <time>2023-06-07T20:44:58.452Z</time>
      </trkpt>
      <trkpt lat="46.63532" lon="0.40249">
        <ele>99.41</ele>
        <time>2023-06-07T20:45:02.901Z</time>
      </trkpt>
      <trkpt lat="46.63537" lon="0.4026">
        <ele>99.59</ele>
        <time>2023-06-07T20:45:07.351Z</time>
      </trkpt>
      <trkpt lat="46.63546" lon="0.40275">
        <ele>99.89</ele>
        <time>2023-06-07T20:45:11.803Z</time>
      </trkpt>
      <trkpt lat="46.63551" lon="0.40285">
        <ele>100.06</ele>
        <time>2023-06-07T20:45:16.257Z</time>
      </trkpt>
      <trkpt lat="46.63557" lon="0.40295">
        <ele>100.2</ele>
        <time>2023-06-07T20:45:20.712Z</time>
      </trkpt>
      <trkpt lat="46.63579" lon="0.40336">
        <ele>100.62</ele>
        <time>2023-06-07T20:45:25.173Z</time>
      </trkpt>
      <trkpt lat="46.63595" lon="0.40367">
        <ele>100.98</ele>
        <time>2023-06-07T20:45:29.638Z</time>
      </trkpt>
      <trkpt lat="46.63605" lon="0.40385">
        <ele>101.24</ele>
        <time>2023-06-07T20:45:34.106Z</time>
      </trkpt>
      <trkpt lat="46.63607" lon="0.40387">
        <ele>101.28</ele>
        <time>2023-06-07T20:45:38.574Z</time>
      </trkpt>
      <trkpt lat="46.63613" lon="0.40397">
        <ele>101.47</ele>
        <time>2023-06-07T20:45:43.044Z</time>
      </trkpt>
      <trkpt lat="46.63616" lon="0.40401">
        <ele>101.6</ele>
        <time>2023-06-07T20:45:47.514Z</time>
      </trkpt>
      <trkpt lat="46.6362" lon="0.40407">
        <ele>101.79</ele>
        <time>2023-06-07T20:45:51.985Z</time>
      </trkpt>
      <trkpt lat="46.63623" lon="0.4041">
        <ele>101.91</ele>
        <time>2023-06-07T20:45:56.457Z</time>
      </trkpt>
      <trkpt lat="46.63647" lon="0.40438">
        <ele>103.11</ele>
        <time>2023-06-07T20:46:00.934Z</time>
      </trkpt>
      <trkpt lat="46.63654" lon="0.40447">
        <ele>103.47</ele>
        <time>2023-06-07T20:46:05.412Z</time>
      </trkpt>
      <trkpt lat="46.63661" lon="0.40455">
        <ele>103.9</ele>
        <time>2023-06-07T20:46:09.892Z</time>
      </trkpt>
      <trkpt lat="46.63668" lon="0.40463">
        <ele>104.42</ele>
        <time>2023-06-07T20:46:14.373Z</time>
      </trkpt>
      <trkpt lat="46.63672" lon="0.40467">
        <ele>104.72</ele>
        <time>2023-06-07T20:46:18.855Z</time>
      </trkpt>
      <trkpt lat="46.63676" lon="0.40472">
        <ele>105.12</ele>
        <time>2023-06-07T20:46:23.338Z</time>
      </trkpt>
      <trkpt lat="46.63698" lon="0.40502">
        <ele>107.3</ele>
        <time>2023-06-07T20:46:27.826Z</time>
      </trkpt>
      <trkpt lat="46.63698" lon="0.40502">
        <ele>107.3</ele>
        <time>2023-06-07T20:46:32.314Z</time>
      </trkpt>
      <trkpt lat="46.63705" lon="0.40503">
        <ele>107.19</ele>
        <time>2023-06-07T20:46:36.803Z</time>
      </trkpt>
      <trkpt lat="46.63705" lon="0.40507">
        <ele>107.16</ele>
        <time>2023-06-07T20:46:41.292Z</time>
      </trkpt>
      <trkpt lat="46.63701" lon="0.40545">
        <ele>106.04</ele>
        <time>2023-06-07T20:46:45.785Z</time>
      </trkpt>
      <trkpt lat="46.63699" lon="0.40565">
        <ele>105.41</ele>
        <time>2023-06-07T20:46:50.281Z</time>
      </trkpt>
      <trkpt lat="46.63698" lon="0.40578">
        <ele>104.9</ele>
        <time>2023-06-07T20:46:54.778Z</time>
      </trkpt>
      <trkpt lat="46.63694" lon="0.40623">
        <ele>102.98</ele>
        <time>2023-06-07T20:46:59.280Z</time>
      </trkpt>
      <trkpt lat="46.63692" lon="0.40643">
        <ele>102.11</ele>
        <time>2023-06-07T20:47:03.784Z</time>
      </trkpt>
      <trkpt lat="46.63691" lon="0.40656">
        <ele>101.47</ele>
        <time>2023-06-07T20:47:08.290Z</time>
      </trkpt>
      <trkpt lat="46.6369" lon="0.40668">
        <ele>100.79</ele>
        <time>2023-06-07T20:47:12.797Z</time>
      </trkpt>
      <trkpt lat="46.63688" lon="0.40694">
        <ele>99.37</ele>
        <time>2023-06-07T20:47:17.307Z</time>
      </trkpt>
      <trkpt lat="46.63686" lon="0.40707">
        <ele>98.71</ele>
        <time>2023-06-07T20:47:21.818Z</time>
      </trkpt>
      <trkpt lat="46.63682" lon="0.40759">
        <ele>96.23</ele>
        <time>2023-06-07T20:47:26.335Z</time>
      </trkpt>
      <trkpt lat="46.63679" lon="0.40785">
        <ele>95.05</ele>
        <time>2023-06-07T20:47:30.855Z</time>
      </trkpt>
      <trkpt lat="46.63679" lon="0.40792">
        <ele>94.77</ele>
        <time>2023-06-07T20:47:35.376Z</time>
      </trkpt>
      <trkpt lat="46.63678" lon="0.40798">
        <ele>94.52</ele>
        <time>2023-06-07T20:47:39.898Z</time>
      </trkpt>
      <trkpt lat="46.63678" lon="0.40805">
        <ele>94.3</ele>
        <time>2023-06-07T20:47:44.420Z</time>
      </trkpt>
      <trkpt lat="46.63677" lon="0.40811">
        <ele>94.11</ele>
        <time>2023-06-07T20:47:48.943Z</time>
      </trkpt>
      <trkpt lat="46.63676" lon="0.40824">
        <ele>93.83</ele>
        <time>2023-06-07T20:47:53.467Z</time>
      </trkpt>
      <trkpt lat="46.63675" lon="0.40831">
        <ele>93.73</ele>
        <time>2023-06-07T20:47:57.992Z</time>
      </trkpt>
      <trkpt lat="46.63674" lon="0.40843">
        <ele>93.64</ele>
        <time>2023-06-07T20:48:02.519Z</time>
      </trkpt>
      <trkpt lat="46.63673" lon="0.4085">
        <ele>93.63</ele>
        <time>2023-06-07T20:48:07.046Z</time>
      </trkpt>
      <trkpt lat="46.63672" lon="0.40863">
        <ele>93.67</ele>
        <time>2023-06-07T20:48:11.575Z</time>
      </trkpt>
      <trkpt lat="46.63672" lon="0.40869">
        <ele>93.72</ele>
        <time>2023-06-07T20:48:16.104Z</time>
      </trkpt>
      <trkpt lat="46.63671" lon="0.40876">
        <ele>93.79</ele>
        <time>2023-06-07T20:48:20.634Z</time>
      </trkpt>
      <trkpt lat="46.6367" lon="0.40889">
        <ele>93.99</ele>
        <time>2023-06-07T20:48:25.166Z</time>
      </trkpt>
      <trkpt lat="46.63669" lon="0.40902">
        <ele>94.24</ele>
        <time>2023-06-07T20:48:29.699Z</time>
      </trkpt>
      <trkpt lat="46.63668" lon="0.40908">
        <ele>94.38</ele>
        <time>2023-06-07T20:48:34.233Z</time>
      </trkpt>
      <trkpt lat="46.63667" lon="0.40921">
        <ele>94.7</ele>
        <time>2023-06-07T20:48:38.768Z</time>
      </trkpt>
      <trkpt lat="46.63666" lon="0.40928">
        <ele>94.89</ele>
        <time>2023-06-07T20:48:43.304Z</time>
      </trkpt>
      <trkpt lat="46.63665" lon="0.40941">
        <ele>95.32</ele>
        <time>2023-06-07T20:48:47.841Z</time>
      </trkpt>
      <trkpt lat="46.63665" lon="0.40947">
        <ele>95.56</ele>
        <time>2023-06-07T20:48:52.379Z</time>
      </trkpt>
      <trkpt lat="46.63662" lon="0.4098">
        <ele>96.99</ele>
        <time>2023-06-07T20:48:56.921Z</time>
      </trkpt>
      <trkpt lat="46.63658" lon="0.41019">
        <ele>98.67</ele>
        <time>2023-06-07T20:49:01.467Z</time>
      </trkpt>
      <trkpt lat="46.63658" lon="0.4102">
        <ele>98.74</ele>
        <time>2023-06-07T20:49:06.013Z</time>
      </trkpt>
      <trkpt lat="46.63653" lon="0.41051">
        <ele>100.24</ele>
        <time>2023-06-07T20:49:10.563Z</time>
      </trkpt>
      <trkpt lat="46.63649" lon="0.41079">
        <ele>101.52</ele>
        <time>2023-06-07T20:49:15.116Z</time>
      </trkpt>
      <trkpt lat="46.63648" lon="0.41082">
        <ele>101.68</ele>
        <time>2023-06-07T20:49:19.669Z</time>
      </trkpt>
      <trkpt lat="46.63641" lon="0.41106">
        <ele>102.95</ele>
        <time>2023-06-07T20:49:24.225Z</time>
      </trkpt>
      <trkpt lat="46.63638" lon="0.41119">
        <ele>103.53</ele>
        <time>2023-06-07T20:49:28.783Z</time>
      </trkpt>
      <trkpt lat="46.63636" lon="0.41125">
        <ele>103.8</ele>
        <time>2023-06-07T20:49:33.341Z</time>
      </trkpt>
      <trkpt lat="46.63632" lon="0.4114">
        <ele>104.43</ele>
        <time>2023-06-07T20:49:37.901Z</time>
      </trkpt>
      <trkpt lat="46.63628" lon="0.41148">
        <ele>104.8</ele>
        <time>2023-06-07T20:49:42.462Z</time>
      </trkpt>
      <trkpt lat="46.63614" lon="0.41181">
        <ele>106.38</ele>
        <time>2023-06-07T20:49:47.028Z</time>
      </trkpt>
      <trkpt lat="46.63604" lon="0.41203">
        <ele>107.39</ele>
        <time>2023-06-07T20:49:51.596Z</time>
      </trkpt>
      <trkpt lat="46.63599" lon="0.41214">
        <ele>107.88</ele>
        <time>2023-06-07T20:49:56.166Z</time>
      </trkpt>
      <trkpt lat="46.63584" lon="0.41247">
        <ele>109.28</ele>
        <time>2023-06-07T20:50:00.740Z</time>
      </trkpt>
      <trkpt lat="46.63575" lon="0.41269">
        <ele>110.15</ele>
        <time>2023-06-07T20:50:05.317Z</time>
      </trkpt>
      <trkpt lat="46.63562" lon="0.41296">
        <ele>111.33</ele>
        <time>2023-06-07T20:50:09.898Z</time>
      </trkpt>
      <trkpt lat="46.63555" lon="0.41313">
        <ele>112</ele>
        <time>2023-06-07T20:50:14.481Z</time>
      </trkpt>
      <trkpt lat="46.63548" lon="0.41329">
        <ele>112.64</ele>
        <time>2023-06-07T20:50:19.066Z</time>
      </trkpt>
      <trkpt lat="46.63542" lon="0.41342">
        <ele>113.09</ele>
        <time>2023-06-07T20:50:23.653Z</time>
      </trkpt>
      <trkpt lat="46.63537" lon="0.4135">
        <ele>113.41</ele>
        <time>2023-06-07T20:50:28.241Z</time>
      </trkpt>
      <trkpt lat="46.63529" lon="0.41366">
        <ele>113.95</ele>
        <time>2023-06-07T20:50:32.831Z</time>
      </trkpt>
      <trkpt lat="46.63524" lon="0.41376">
        <ele>114.26</ele>
        <time>2023-06-07T20:50:37.422Z</time>
      </trkpt>
      <trkpt lat="46.63521" lon="0.41381">
        <ele>114.38</ele>
        <time>2023-06-07T20:50:42.014Z</time>
      </trkpt>
      <trkpt lat="46.63507" lon="0.41399">
        <ele>114.93</ele>
        <time>2023-06-07T20:50:46.609Z</time>
      </trkpt>
      <trkpt lat="46.63497" lon="0.41412">
        <ele>115.28</ele>
        <time>2023-06-07T20:50:51.206Z</time>
      </trkpt>
      <trkpt lat="46.63492" lon="0.41419">
        <ele>115.38</ele>
        <time>2023-06-07T20:50:55.804Z</time>
      </trkpt>
      <trkpt lat="46.63491" lon="0.41433">
        <ele>115.53</ele>
        <time>2023-06-07T20:51:00.404Z</time>
      </trkpt>
      <trkpt lat="46.63477" lon="0.41483">
        <ele>116.08</ele>
        <time>2023-06-07T20:51:05.010Z</time>
      </trkpt>
      <trkpt lat="46.63473" lon="0.41495">
        <ele>116.29</ele>
        <time>2023-06-07T20:51:09.617Z</time>
      </trkpt>
      <trkpt lat="46.63468" lon="0.41513">
        <ele>116.66</ele>
        <time>2023-06-07T20:51:14.226Z</time>
      </trkpt>
      <trkpt lat="46.63465" lon="0.41525">
        <ele>116.87</ele>
        <time>2023-06-07T20:51:18.837Z</time>
      </trkpt>
      <trkpt lat="46.63456" lon="0.41555">
        <ele>117.26</ele>
        <time>2023-06-07T20:51:23.452Z</time>
      </trkpt>
      <trkpt lat="46.63449" lon="0.41579">
        <ele>117.7</ele>
        <time>2023-06-07T20:51:28.069Z</time>
      </trkpt>
      <trkpt lat="46.63437" lon="0.41622">
        <ele>118.26</ele>
        <time>2023-06-07T20:51:32.691Z</time>
      </trkpt>
      <trkpt lat="46.63427" lon="0.41658">
        <ele>118.89</ele>
        <time>2023-06-07T20:51:37.318Z</time>
      </trkpt>
      <trkpt lat="46.63425" lon="0.41665">
        <ele>118.97</ele>
        <time>2023-06-07T20:51:41.946Z</time>
      </trkpt>
      <trkpt lat="46.63424" lon="0.4167">
        <ele>119.04</ele>
        <time>2023-06-07T20:51:46.574Z</time>
      </trkpt>
      <trkpt lat="46.63414" lon="0.41707">
        <ele>119.35</ele>
        <time>2023-06-07T20:51:51.207Z</time>
      </trkpt>
      <trkpt lat="46.63412" lon="0.41717">
        <ele>119.33</ele>
        <time>2023-06-07T20:51:55.841Z</time>
      </trkpt>
      <trkpt lat="46.63412" lon="0.41719">
        <ele>119.33</ele>
        <time>2023-06-07T20:52:00.475Z</time>
      </trkpt>
      <trkpt lat="46.6341" lon="0.41726">
        <ele>119.35</ele>
        <time>2023-06-07T20:52:05.110Z</time>
      </trkpt>
      <trkpt lat="46.63406" lon="0.41745">
        <ele>119.5</ele>
        <time>2023-06-07T20:52:09.747Z</time>
      </trkpt>
      <trkpt lat="46.63405" lon="0.41751">
        <ele>119.53</ele>
        <time>2023-06-07T20:52:14.385Z</time>
      </trkpt>
      <trkpt lat="46.63404" lon="0.41757">
        <ele>119.53</ele>
        <time>2023-06-07T20:52:19.023Z</time>
      </trkpt>
      <trkpt lat="46.634" lon="0.41776">
        <ele>119.46</ele>
        <time>2023-06-07T20:52:23.663Z</time>
      </trkpt>
      <trkpt lat="46.63399" lon="0.41782">
        <ele>119.46</ele>
        <time>2023-06-07T20:52:28.304Z</time>
      </trkpt>
      <trkpt lat="46.63395" lon="0.41801">
        <ele>119.55</ele>
        <time>2023-06-07T20:52:32.947Z</time>
      </trkpt>
      <trkpt lat="46.63393" lon="0.41814">
        <ele>119.58</ele>
        <time>2023-06-07T20:52:37.592Z</time>
      </trkpt>
      <trkpt lat="46.63392" lon="0.4182">
        <ele>119.57</ele>
        <time>2023-06-07T20:52:42.238Z</time>
      </trkpt>
      <trkpt lat="46.63386" lon="0.41845">
        <ele>119.45</ele>
        <time>2023-06-07T20:52:46.886Z</time>
      </trkpt>
      <trkpt lat="46.63384" lon="0.41857">
        <ele>119.46</ele>
        <time>2023-06-07T20:52:51.536Z</time>
      </trkpt>
      <trkpt lat="46.6338" lon="0.41876">
        <ele>119.56</ele>
        <time>2023-06-07T20:52:56.188Z</time>
      </trkpt>
      <trkpt lat="46.63374" lon="0.41908">
        <ele>119.86</ele>
        <time>2023-06-07T20:53:00.844Z</time>
      </trkpt>
      <trkpt lat="46.63373" lon="0.41914">
        <ele>119.9</ele>
        <time>2023-06-07T20:53:05.500Z</time>
      </trkpt>
      <trkpt lat="46.63368" lon="0.41939">
        <ele>120</ele>
        <time>2023-06-07T20:53:10.159Z</time>
      </trkpt>
      <trkpt lat="46.63363" lon="0.41964">
        <ele>120.24</ele>
        <time>2023-06-07T20:53:14.821Z</time>
      </trkpt>
      <trkpt lat="46.63361" lon="0.41973">
        <ele>120.35</ele>
        <time>2023-06-07T20:53:19.484Z</time>
      </trkpt>
      <trkpt lat="46.6336" lon="0.41977">
        <ele>120.4</ele>
        <time>2023-06-07T20:53:24.148Z</time>
      </trkpt>
      <trkpt lat="46.63352" lon="0.42007">
        <ele>120.9</ele>
        <time>2023-06-07T20:53:28.815Z</time>
      </trkpt>
      <trkpt lat="46.63352" lon="0.42009">
        <ele>120.92</ele>
        <time>2023-06-07T20:53:33.482Z</time>
      </trkpt>
      <trkpt lat="46.63349" lon="0.42019">
        <ele>121.07</ele>
        <time>2023-06-07T20:53:38.151Z</time>
      </trkpt>
      <trkpt lat="46.6334" lon="0.4205">
        <ele>121.44</ele>
        <time>2023-06-07T20:53:42.823Z</time>
      </trkpt>
      <trkpt lat="46.63332" lon="0.4208">
        <ele>121.89</ele>
        <time>2023-06-07T20:53:47.499Z</time>
      </trkpt>
      <trkpt lat="46.63325" lon="0.42104">
        <ele>122.3</ele>
        <time>2023-06-07T20:53:52.178Z</time>
      </trkpt>
      <trkpt lat="46.63321" lon="0.42116">
        <ele>122.45</ele>
        <time>2023-06-07T20:53:56.858Z</time>
      </trkpt>
      <trkpt lat="46.63319" lon="0.42123">
        <ele>122.5</ele>
        <time>2023-06-07T20:54:01.539Z</time>
      </trkpt>
      <trkpt lat="46.63313" lon="0.42146">
        <ele>122.68</ele>
        <time>2023-06-07T20:54:06.223Z</time>
      </trkpt>
      <trkpt lat="46.63301" lon="0.42195">
        <ele>123.09</ele>
        <time>2023-06-07T20:54:10.912Z</time>
      </trkpt>
      <trkpt lat="46.63298" lon="0.42208">
        <ele>123.13</ele>
        <time>2023-06-07T20:54:15.603Z</time>
      </trkpt>
      <trkpt lat="46.63293" lon="0.42226">
        <ele>123.13</ele>
        <time>2023-06-07T20:54:20.296Z</time>
      </trkpt>
      <trkpt lat="46.63292" lon="0.42231">
        <ele>123.16</ele>
        <time>2023-06-07T20:54:24.990Z</time>
      </trkpt>
      <trkpt lat="46.63292" lon="0.42232">
        <ele>123.17</ele>
        <time>2023-06-07T20:54:29.684Z</time>
      </trkpt>
      <trkpt lat="46.63291" lon="0.42239">
        <ele>123.23</ele>
        <time>2023-06-07T20:54:34.378Z</time>
      </trkpt>
      <trkpt lat="46.63288" lon="0.42255">
        <ele>123.44</ele>
        <time>2023-06-07T20:54:39.074Z</time>
      </trkpt>
      <trkpt lat="46.63287" lon="0.42264">
        <ele>123.57</ele>
        <time>2023-06-07T20:54:43.771Z</time>
      </trkpt>
      <trkpt lat="46.63286" lon="0.42277">
        <ele>123.68</ele>
        <time>2023-06-07T20:54:48.470Z</time>
      </trkpt>
      <trkpt lat="46.63285" lon="0.42297">
        <ele>123.81</ele>
        <time>2023-06-07T20:54:53.171Z</time>
      </trkpt>
      <trkpt lat="46.63284" lon="0.42303">
        <ele>123.82</ele>
        <time>2023-06-07T20:54:57.873Z</time>
      </trkpt>
      <trkpt lat="46.63284" lon="0.4231">
        <ele>123.81</ele>
        <time>2023-06-07T20:55:02.575Z</time>
      </trkpt>
      <trkpt lat="46.63283" lon="0.42316">
        <ele>123.77</ele>
        <time>2023-06-07T20:55:07.278Z</time>
      </trkpt>
      <trkpt lat="46.63282" lon="0.42336">
        <ele>123.57</ele>
        <time>2023-06-07T20:55:11.983Z</time>
      </trkpt>
      <trkpt lat="46.63281" lon="0.42349">
        <ele>123.49</ele>
        <time>2023-06-07T20:55:16.690Z</time>
      </trkpt>
      <trkpt lat="46.63278" lon="0.42381">
        <ele>123.45</ele>
        <time>2023-06-07T20:55:21.400Z</time>
      </trkpt>
      <trkpt lat="46.63277" lon="0.42401">
        <ele>123.36</ele>
        <time>2023-06-07T20:55:26.112Z</time>
      </trkpt>
      <trkpt lat="46.63276" lon="0.42407">
        <ele>123.29</ele>
        <time>2023-06-07T20:55:30.825Z</time>
      </trkpt>
      <trkpt lat="46.63275" lon="0.42427">
        <ele>123.01</ele>
        <time>2023-06-07T20:55:35.540Z</time>
      </trkpt>
      <trkpt lat="46.63274" lon="0.42433">
        <ele>122.94</ele>
        <time>2023-06-07T20:55:40.256Z</time>
      </trkpt>
      <trkpt lat="46.63274" lon="0.42438">
        <ele>122.9</ele>
        <time>2023-06-07T20:55:44.973Z</time>
      </trkpt>
      <trkpt lat="46.63274" lon="0.4244">
        <ele>122.9</ele>
        <time>2023-06-07T20:55:49.690Z</time>
      </trkpt>
      <trkpt lat="46.63271" lon="0.42459">
        <ele>122.86</ele>
        <time>2023-06-07T20:55:54.409Z</time>
      </trkpt>
      <trkpt lat="46.63269" lon="0.42471">
        <ele>122.81</ele>
        <time>2023-06-07T20:55:59.129Z</time>
      </trkpt>
      <trkpt lat="46.63268" lon="0.42478">
        <ele>122.77</ele>
        <time>2023-06-07T20:56:03.850Z</time>
      </trkpt>
      <trkpt lat="46.63264" lon="0.42503">
        <ele>122.52</ele>
        <time>2023-06-07T20:56:08.574Z</time>
      </trkpt>
      <trkpt lat="46.63264" lon="0.4251">
        <ele>122.48</ele>
        <time>2023-06-07T20:56:13.299Z</time>
      </trkpt>
      <trkpt lat="46.63262" lon="0.42522">
        <ele>122.46</ele>
        <time>2023-06-07T20:56:18.025Z</time>
      </trkpt>
      <trkpt lat="46.63258" lon="0.42548">
        <ele>122.48</ele>
        <time>2023-06-07T20:56:22.754Z</time>
      </trkpt>
      <trkpt lat="46.63255" lon="0.42567">
        <ele>122.54</ele>
        <time>2023-06-07T20:56:27.485Z</time>
      </trkpt>
      <trkpt lat="46.63253" lon="0.4258">
        <ele>122.6</ele>
        <time>2023-06-07T20:56:32.218Z</time>
      </trkpt>
      <trkpt lat="46.63253" lon="0.42582">
        <ele>122.61</ele>
        <time>2023-06-07T20:56:36.951Z</time>
      </trkpt>
      <trkpt lat="46.63252" lon="0.42593">
        <ele>122.7</ele>
        <time>2023-06-07T20:56:41.685Z</time>
      </trkpt>
      <trkpt lat="46.6325" lon="0.42606">
        <ele>122.84</ele>
        <time>2023-06-07T20:56:46.421Z</time>
      </trkpt>
      <trkpt lat="46.63246" lon="0.42645">
        <ele>123.55</ele>
        <time>2023-06-07T20:56:51.161Z</time>
      </trkpt>
      <trkpt lat="46.63242" lon="0.42677">
        <ele>123.99</ele>
        <time>2023-06-07T20:56:55.904Z</time>
      </trkpt>
      <trkpt lat="46.63239" lon="0.42703">
        <ele>124.38</ele>
        <time>2023-06-07T20:57:00.650Z</time>
      </trkpt>
      <trkpt lat="46.63239" lon="0.42709">
        <ele>124.45</ele>
        <time>2023-06-07T20:57:05.397Z</time>
      </trkpt>
      <trkpt lat="46.63236" lon="0.42733">
        <ele>124.61</ele>
        <time>2023-06-07T20:57:10.147Z</time>
      </trkpt>
      <trkpt lat="46.63236" lon="0.42735">
        <ele>124.63</ele>
        <time>2023-06-07T20:57:14.897Z</time>
      </trkpt>
      <trkpt lat="46.63236" lon="0.42748">
        <ele>124.77</ele>
        <time>2023-06-07T20:57:19.648Z</time>
      </trkpt>
      <trkpt lat="46.63235" lon="0.42761">
        <ele>124.96</ele>
        <time>2023-06-07T20:57:24.401Z</time>
      </trkpt>
      <trkpt lat="46.63235" lon="0.42773">
        <ele>125.18</ele>
        <time>2023-06-07T20:57:29.155Z</time>
      </trkpt>
      <trkpt lat="46.63236" lon="0.42787">
        <ele>125.44</ele>
        <time>2023-06-07T20:57:33.911Z</time>
      </trkpt>
      <trkpt lat="46.63237" lon="0.42794">
        <ele>125.54</ele>
        <time>2023-06-07T20:57:38.667Z</time>
      </trkpt>
      <trkpt lat="46.63238" lon="0.42806">
        <ele>125.69</ele>
        <time>2023-06-07T20:57:43.425Z</time>
      </trkpt>
      <trkpt lat="46.63242" lon="0.42852">
        <ele>126.07</ele>
        <time>2023-06-07T20:57:48.188Z</time>
      </trkpt>
      <trkpt lat="46.63243" lon="0.42865">
        <ele>126.17</ele>
        <time>2023-06-07T20:57:52.952Z</time>
      </trkpt>
      <trkpt lat="46.63244" lon="0.42884">
        <ele>126.28</ele>
        <time>2023-06-07T20:57:57.719Z</time>
      </trkpt>
      <trkpt lat="46.63246" lon="0.42904">
        <ele>126.44</ele>
        <time>2023-06-07T20:58:02.488Z</time>
      </trkpt>
      <trkpt lat="46.63246" lon="0.42923">
        <ele>126.6</ele>
        <time>2023-06-07T20:58:07.259Z</time>
      </trkpt>
      <trkpt lat="46.63246" lon="0.42936">
        <ele>126.66</ele>
        <time>2023-06-07T20:58:12.031Z</time>
      </trkpt>
      <trkpt lat="46.63247" lon="0.42976">
        <ele>126.78</ele>
        <time>2023-06-07T20:58:16.808Z</time>
      </trkpt>
      <trkpt lat="46.63247" lon="0.42978">
        <ele>126.8</ele>
        <time>2023-06-07T20:58:21.585Z</time>
      </trkpt>
      <trkpt lat="46.63247" lon="0.42986">
        <ele>126.71</ele>
        <time>2023-06-07T20:58:26.363Z</time>
      </trkpt>
      <trkpt lat="46.63248" lon="0.42986">
        <ele>126.7</ele>
        <time>2023-06-07T20:58:31.141Z</time>
      </trkpt>
      <trkpt lat="46.63248" lon="0.4299">
        <ele>126.67</ele>
        <time>2023-06-07T20:58:35.919Z</time>
      </trkpt>
      <trkpt lat="46.63247" lon="0.42996">
        <ele>126.63</ele>
        <time>2023-06-07T20:58:40.698Z</time>
      </trkpt>
      <trkpt lat="46.63247" lon="0.42996">
        <ele>126.63</ele>
        <time>2023-06-07T20:58:45.477Z</time>
      </trkpt>
      <trkpt lat="46.63247" lon="0.43002">
        <ele>126.63</ele>
        <time>2023-06-07T20:58:50.257Z</time>
      </trkpt>
      <trkpt lat="46.63248" lon="0.43015">
        <ele>126.68</ele>
        <time>2023-06-07T20:58:55.038Z</time>
      </trkpt>
      <trkpt lat="46.6325" lon="0.43035">
        <ele>126.85</ele>
        <time>2023-06-07T20:58:59.821Z</time>
      </trkpt>
      <trkpt lat="46.63251" lon="0.43061">
        <ele>127.16</ele>
        <time>2023-06-07T20:59:04.607Z</time>
      </trkpt>
      <trkpt lat="46.63255" lon="0.43113">
        <ele>127.7</ele>
        <time>2023-06-07T20:59:09.399Z</time>
      </trkpt>
      <trkpt lat="46.63256" lon="0.43126">
        <ele>127.79</ele>
        <time>2023-06-07T20:59:14.192Z</time>
      </trkpt>
      <trkpt lat="46.6326" lon="0.43178">
        <ele>128.03</ele>
        <time>2023-06-07T20:59:18.991Z</time>
      </trkpt>
      <trkpt lat="46.6326" lon="0.43191">
        <ele>128.11</ele>
        <time>2023-06-07T20:59:23.792Z</time>
      </trkpt>
      <trkpt lat="46.63261" lon="0.43204">
        <ele>128.22</ele>
        <time>2023-06-07T20:59:28.594Z</time>
      </trkpt>
      <trkpt lat="46.63263" lon="0.43228">
        <ele>128.51</ele>
        <time>2023-06-07T20:59:33.399Z</time>
      </trkpt>
      <trkpt lat="46.63263" lon="0.4323">
        <ele>128.54</ele>
        <time>2023-06-07T20:59:38.204Z</time>
      </trkpt>
      <trkpt lat="46.63267" lon="0.43249">
        <ele>128.73</ele>
        <time>2023-06-07T20:59:43.011Z</time>
      </trkpt>
      <trkpt lat="46.63268" lon="0.43255">
        <ele>128.81</ele>
        <time>2023-06-07T20:59:47.819Z</time>
      </trkpt>
      <trkpt lat="46.63269" lon="0.43261">
        <ele>128.92</ele>
        <time>2023-06-07T20:59:52.628Z</time>
      </trkpt>
      <trkpt lat="46.6327" lon="0.43267">
        <ele>129.06</ele>
        <time>2023-06-07T20:59:57.437Z</time>
      </trkpt>
      <trkpt lat="46.63273" lon="0.4328">
        <ele>129.39</ele>
        <time>2023-06-07T21:00:02.248Z</time>
      </trkpt>
      <trkpt lat="46.63275" lon="0.43293">
        <ele>129.69</ele>
        <time>2023-06-07T21:00:07.060Z</time>
      </trkpt>
      <trkpt lat="46.63277" lon="0.43305">
        <ele>129.95</ele>
        <time>2023-06-07T21:00:11.874Z</time>
      </trkpt>
      <trkpt lat="46.63281" lon="0.43324">
        <ele>130.31</ele>
        <time>2023-06-07T21:00:16.690Z</time>
      </trkpt>
      <trkpt lat="46.63285" lon="0.43343">
        <ele>130.61</ele>
        <time>2023-06-07T21:00:21.508Z</time>
      </trkpt>
      <trkpt lat="46.63286" lon="0.43349">
        <ele>130.68</ele>
        <time>2023-06-07T21:00:26.327Z</time>
      </trkpt>
      <trkpt lat="46.63288" lon="0.43362">
        <ele>130.76</ele>
        <time>2023-06-07T21:00:31.147Z</time>
      </trkpt>
      <trkpt lat="46.63289" lon="0.43368">
        <ele>130.78</ele>
        <time>2023-06-07T21:00:35.968Z</time>
      </trkpt>
      <trkpt lat="46.63293" lon="0.43387">
        <ele>130.77</ele>
        <time>2023-06-07T21:00:40.791Z</time>
      </trkpt>
      <trkpt lat="46.63294" lon="0.43393">
        <ele>130.78</ele>
        <time>2023-06-07T21:00:45.615Z</time>
      </trkpt>
      <trkpt lat="46.63296" lon="0.43406">
        <ele>130.85</ele>
        <time>2023-06-07T21:00:50.440Z</time>
      </trkpt>
      <trkpt lat="46.63301" lon="0.43431">
        <ele>131.06</ele>
        <time>2023-06-07T21:00:55.268Z</time>
      </trkpt>
      <trkpt lat="46.63303" lon="0.43444">
        <ele>131.12</ele>
        <time>2023-06-07T21:01:00.097Z</time>
      </trkpt>
      <trkpt lat="46.63311" lon="0.43482">
        <ele>131.16</ele>
        <time>2023-06-07T21:01:04.931Z</time>
      </trkpt>
      <trkpt lat="46.6332" lon="0.43532">
        <ele>131.37</ele>
        <time>2023-06-07T21:01:09.770Z</time>
      </trkpt>
      <trkpt lat="46.63329" lon="0.43582">
        <ele>131.4</ele>
        <time>2023-06-07T21:01:14.615Z</time>
      </trkpt>
      <trkpt lat="46.63332" lon="0.43595">
        <ele>131.44</ele>
        <time>2023-06-07T21:01:19.462Z</time>
      </trkpt>
      <trkpt lat="46.63334" lon="0.43607">
        <ele>131.51</ele>
        <time>2023-06-07T21:01:24.310Z</time>
      </trkpt>
      <trkpt lat="46.63336" lon="0.4362">
        <ele>131.54</ele>
        <time>2023-06-07T21:01:29.160Z</time>
      </trkpt>
      <trkpt lat="46.63338" lon="0.43628">
        <ele>131.52</ele>
        <time>2023-06-07T21:01:34.010Z</time>
      </trkpt>
      <trkpt lat="46.63342" lon="0.43658">
        <ele>131.49</ele>
        <time>2023-06-07T21:01:38.864Z</time>
      </trkpt>
      <trkpt lat="46.63346" lon="0.43684">
        <ele>131.36</ele>
        <time>2023-06-07T21:01:43.721Z</time>
      </trkpt>
      <trkpt lat="46.63348" lon="0.43696">
        <ele>131.27</ele>
        <time>2023-06-07T21:01:48.579Z</time>
      </trkpt>
      <trkpt lat="46.6335" lon="0.43709">
        <ele>131.1</ele>
        <time>2023-06-07T21:01:53.439Z</time>
      </trkpt>
      <trkpt lat="46.63352" lon="0.43722">
        <ele>130.88</ele>
        <time>2023-06-07T21:01:58.300Z</time>
      </trkpt>
      <trkpt lat="46.63353" lon="0.43731">
        <ele>130.76</ele>
        <time>2023-06-07T21:02:03.162Z</time>
      </trkpt>
      <trkpt lat="46.63354" lon="0.43734">
        <ele>130.72</ele>
        <time>2023-06-07T21:02:08.024Z</time>
      </trkpt>
      <trkpt lat="46.63362" lon="0.43758">
        <ele>130.47</ele>
        <time>2023-06-07T21:02:12.889Z</time>
      </trkpt>
      <trkpt lat="46.63367" lon="0.43776">
        <ele>130.18</ele>
        <time>2023-06-07T21:02:17.756Z</time>
      </trkpt>
      <trkpt lat="46.63371" lon="0.43788">
        <ele>129.91</ele>
        <time>2023-06-07T21:02:22.625Z</time>
      </trkpt>
      <trkpt lat="46.63378" lon="0.43811">
        <ele>129.28</ele>
        <time>2023-06-07T21:02:27.497Z</time>
      </trkpt>
      <trkpt lat="46.63378" lon="0.43811">
        <ele>132.12</ele>
        <time>2023-06-07T21:02:32.369Z</time>
      </trkpt>
      <trkpt lat="46.63381" lon="0.4382">
        <ele>132.26</ele>
        <time>2023-06-07T21:02:37.242Z</time>
      </trkpt>
      <trkpt lat="46.63366" lon="0.4383">
        <ele>132.61</ele>
        <time>2023-06-07T21:02:42.117Z</time>
      </trkpt>
      <trkpt lat="46.63364" lon="0.43835">
        <ele>132.71</ele>
        <time>2023-06-07T21:02:46.993Z</time>
      </trkpt>
      <trkpt lat="46.63361" lon="0.43844">
        <ele>132.82</ele>
        <time>2023-06-07T21:02:51.870Z</time>
      </trkpt>
      <trkpt lat="46.6336" lon="0.43848">
        <ele>132.88</ele>
        <time>2023-06-07T21:02:56.748Z</time>
      </trkpt>
      <trkpt lat="46.63357" lon="0.43862">
        <ele>133</ele>
        <time>2023-06-07T21:03:01.627Z</time>
      </trkpt>
      <trkpt lat="46.63353" lon="0.43878">
        <ele>133.08</ele>
        <time>2023-06-07T21:03:06.508Z</time>
      </trkpt>
      <trkpt lat="46.6335" lon="0.43893">
        <ele>132.93</ele>
        <time>2023-06-07T21:03:11.391Z</time>
      </trkpt>
      <trkpt lat="46.63348" lon="0.43902">
        <ele>132.76</ele>
        <time>2023-06-07T21:03:16.275Z</time>
      </trkpt>
      <trkpt lat="46.63346" lon="0.4391">
        <ele>132.6</ele>
        <time>2023-06-07T21:03:21.160Z</time>
      </trkpt>
      <trkpt lat="46.6334" lon="0.43927">
        <ele>132</ele>
        <time>2023-06-07T21:03:26.047Z</time>
      </trkpt>
      <trkpt lat="46.63335" lon="0.43944">
        <ele>131.09</ele>
        <time>2023-06-07T21:03:30.936Z</time>
      </trkpt>
      <trkpt lat="46.6333" lon="0.4396">
        <ele>130.17</ele>
        <time>2023-06-07T21:03:35.827Z</time>
      </trkpt>
      <trkpt lat="46.63325" lon="0.43978">
        <ele>129.39</ele>
        <time>2023-06-07T21:03:40.720Z</time>
      </trkpt>
      <trkpt lat="46.63322" lon="0.43986">
        <ele>129.11</ele>
        <time>2023-06-07T21:03:45.614Z</time>
      </trkpt>
      <trkpt lat="46.63319" lon="0.43996">
        <ele>128.78</ele>
        <time>2023-06-07T21:03:50.509Z</time>
      </trkpt>
      <trkpt lat="46.6331" lon="0.4403">
        <ele>128.11</ele>
        <time>2023-06-07T21:03:55.408Z</time>
      </trkpt>
      <trkpt lat="46.63305" lon="0.44048">
        <ele>127.78</ele>
        <time>2023-06-07T21:04:00.309Z</time>
      </trkpt>
      <trkpt lat="46.63303" lon="0.44057">
        <ele>127.63</ele>
        <time>2023-06-07T21:04:05.212Z</time>
      </trkpt>
      <trkpt lat="46.63301" lon="0.44065">
        <ele>127.5</ele>
        <time>2023-06-07T21:04:10.115Z</time>
      </trkpt>
      <trkpt lat="46.6329" lon="0.44101">
        <ele>126.74</ele>
        <time>2023-06-07T21:04:15.023Z</time>
      </trkpt>
      <trkpt lat="46.63284" lon="0.44118">
        <ele>126.42</ele>
        <time>2023-06-07T21:04:19.933Z</time>
      </trkpt>
      <trkpt lat="46.63279" lon="0.44135">
        <ele>126.07</ele>
        <time>2023-06-07T21:04:24.845Z</time>
      </trkpt>
      <trkpt lat="46.63274" lon="0.44153">
        <ele>125.76</ele>
        <time>2023-06-07T21:04:29.759Z</time>
      </trkpt>
      <trkpt lat="46.63269" lon="0.4417">
        <ele>125.43</ele>
        <time>2023-06-07T21:04:34.675Z</time>
      </trkpt>
      <trkpt lat="46.63258" lon="0.44206">
        <ele>124.81</ele>
        <time>2023-06-07T21:04:39.595Z</time>
      </trkpt>
      <trkpt lat="46.63253" lon="0.44223">
        <ele>124.55</ele>
        <time>2023-06-07T21:04:44.517Z</time>
      </trkpt>
      <trkpt lat="46.6325" lon="0.44232">
        <ele>124.43</ele>
        <time>2023-06-07T21:04:49.441Z</time>
      </trkpt>
      <trkpt lat="46.63247" lon="0.44242">
        <ele>124.32</ele>
        <time>2023-06-07T21:04:54.366Z</time>
      </trkpt>
      <trkpt lat="46.63242" lon="0.4426">
        <ele>124.12</ele>
        <time>2023-06-07T21:04:59.293Z</time>
      </trkpt>
      <trkpt lat="46.63237" lon="0.44279">
        <ele>123.97</ele>
        <time>2023-06-07T21:05:04.222Z</time>
      </trkpt>
      <trkpt lat="46.63232" lon="0.44298">
        <ele>123.72</ele>
        <time>2023-06-07T21:05:09.153Z</time>
      </trkpt>
      <trkpt lat="46.63227" lon="0.44316">
        <ele>123.61</ele>
        <time>2023-06-07T21:05:14.086Z</time>
      </trkpt>
      <trkpt lat="46.63222" lon="0.44335">
        <ele>123.65</ele>
        <time>2023-06-07T21:05:19.022Z</time>
      </trkpt>
      <trkpt lat="46.63217" lon="0.44354">
        <ele>123.97</ele>
        <time>2023-06-07T21:05:23.960Z</time>
      </trkpt>
      <trkpt lat="46.63211" lon="0.44375">
        <ele>124.55</ele>
        <time>2023-06-07T21:05:28.901Z</time>
      </trkpt>
      <trkpt lat="46.63209" lon="0.44383">
        <ele>124.88</ele>
        <time>2023-06-07T21:05:33.842Z</time>
      </trkpt>
      <trkpt lat="46.63207" lon="0.44395">
        <ele>125.38</ele>
        <time>2023-06-07T21:05:38.785Z</time>
      </trkpt>
      <trkpt lat="46.63205" lon="0.44404">
        <ele>125.65</ele>
        <time>2023-06-07T21:05:43.729Z</time>
      </trkpt>
      <trkpt lat="46.63204" lon="0.44417">
        <ele>126.06</ele>
        <time>2023-06-07T21:05:48.674Z</time>
      </trkpt>
      <trkpt lat="46.63201" lon="0.4444">
        <ele>126.67</ele>
        <time>2023-06-07T21:05:53.622Z</time>
      </trkpt>
      <trkpt lat="46.63199" lon="0.44465">
        <ele>127.24</ele>
        <time>2023-06-07T21:05:58.573Z</time>
      </trkpt>
      <trkpt lat="46.63198" lon="0.44474">
        <ele>127.37</ele>
        <time>2023-06-07T21:06:03.525Z</time>
      </trkpt>
      <trkpt lat="46.63185" lon="0.44495">
        <ele>127.81</ele>
        <time>2023-06-07T21:06:08.480Z</time>
      </trkpt>
      <trkpt lat="46.63185" lon="0.44495">
        <ele>116.02</ele>
        <time>2023-06-07T21:06:13.435Z</time>
      </trkpt>
      <trkpt lat="46.63181" lon="0.44502">
        <ele>115.87</ele>
        <time>2023-06-07T21:06:18.391Z</time>
      </trkpt>
      <trkpt lat="46.63182" lon="0.44504">
        <ele>115.84</ele>
        <time>2023-06-07T21:06:23.347Z</time>
      </trkpt>
      <trkpt lat="46.63188" lon="0.44511">
        <ele>115.68</ele>
        <time>2023-06-07T21:06:28.304Z</time>
      </trkpt>
      <trkpt lat="46.63189" lon="0.44526">
        <ele>115.48</ele>
        <time>2023-06-07T21:06:33.263Z</time>
      </trkpt>
      <trkpt lat="46.6319" lon="0.44536">
        <ele>115.38</ele>
        <time>2023-06-07T21:06:38.223Z</time>
      </trkpt>
      <trkpt lat="46.6319" lon="0.44539">
        <ele>115.36</ele>
        <time>2023-06-07T21:06:43.183Z</time>
      </trkpt>
      <trkpt lat="46.6319" lon="0.44545">
        <ele>115.34</ele>
        <time>2023-06-07T21:06:48.144Z</time>
      </trkpt>
      <trkpt lat="46.6319" lon="0.44552">
        <ele>115.35</ele>
        <time>2023-06-07T21:06:53.106Z</time>
      </trkpt>
      <trkpt lat="46.6319" lon="0.44558">
        <ele>115.39</ele>
        <time>2023-06-07T21:06:58.069Z</time>
      </trkpt>
      <trkpt lat="46.6319" lon="0.44565">
        <ele>115.47</ele>
        <time>2023-06-07T21:07:03.032Z</time>
      </trkpt>
      <trkpt lat="46.6319" lon="0.44571">
        <ele>115.6</ele>
        <time>2023-06-07T21:07:07.996Z</time>
      </trkpt>
      <trkpt lat="46.6319" lon="0.44578">
        <ele>115.77</ele>
        <time>2023-06-07T21:07:12.961Z</time>
      </trkpt>
      <trkpt lat="46.6319" lon="0.44584">
        <ele>115.96</ele>
        <time>2023-06-07T21:07:17.926Z</time>
      </trkpt>
      <trkpt lat="46.6319" lon="0.44597">
        <ele>116.39</ele>
        <time>2023-06-07T21:07:22.893Z</time>
      </trkpt>
      <trkpt lat="46.6319" lon="0.4461">
        <ele>116.75</ele>
        <time>2023-06-07T21:07:27.861Z</time>
      </trkpt>
      <trkpt lat="46.6319" lon="0.4461">
        <ele>116.75</ele>
        <time>2023-06-07T21:07:32.829Z</time>
      </trkpt>
      <trkpt lat="46.63189" lon="0.44617">
        <ele>116.89</ele>
        <time>2023-06-07T21:07:37.798Z</time>
      </trkpt>
      <trkpt lat="46.63189" lon="0.44623">
        <ele>116.99</ele>
        <time>2023-06-07T21:07:42.768Z</time>
      </trkpt>
      <trkpt lat="46.63188" lon="0.44636">
        <ele>117.09</ele>
        <time>2023-06-07T21:07:47.739Z</time>
      </trkpt>
      <trkpt lat="46.63187" lon="0.44656">
        <ele>117.09</ele>
        <time>2023-06-07T21:07:52.712Z</time>
      </trkpt>
      <trkpt lat="46.63185" lon="0.44675">
        <ele>117</ele>
        <time>2023-06-07T21:07:57.687Z</time>
      </trkpt>
      <trkpt lat="46.63184" lon="0.44695">
        <ele>116.86</ele>
        <time>2023-06-07T21:08:02.665Z</time>
      </trkpt>
      <trkpt lat="46.63182" lon="0.44714">
        <ele>116.63</ele>
        <time>2023-06-07T21:08:07.645Z</time>
      </trkpt>
      <trkpt lat="46.63179" lon="0.44753">
        <ele>116.11</ele>
        <time>2023-06-07T21:08:12.629Z</time>
      </trkpt>
      <trkpt lat="46.63178" lon="0.44766">
        <ele>115.87</ele>
        <time>2023-06-07T21:08:17.615Z</time>
      </trkpt>
      <trkpt lat="46.63178" lon="0.44772">
        <ele>115.7</ele>
        <time>2023-06-07T21:08:22.601Z</time>
      </trkpt>
      <trkpt lat="46.63176" lon="0.44792">
        <ele>115.13</ele>
        <time>2023-06-07T21:08:27.589Z</time>
      </trkpt>
      <trkpt lat="46.63175" lon="0.44805">
        <ele>114.79</ele>
        <time>2023-06-07T21:08:32.579Z</time>
      </trkpt>
      <trkpt lat="46.63175" lon="0.44811">
        <ele>114.67</ele>
        <time>2023-06-07T21:08:37.570Z</time>
      </trkpt>
      <trkpt lat="46.63174" lon="0.44818">
        <ele>114.58</ele>
        <time>2023-06-07T21:08:42.561Z</time>
      </trkpt>
      <trkpt lat="46.63174" lon="0.44824">
        <ele>114.53</ele>
        <time>2023-06-07T21:08:47.553Z</time>
      </trkpt>
      <trkpt lat="46.63174" lon="0.44831">
        <ele>114.52</ele>
        <time>2023-06-07T21:08:52.546Z</time>
      </trkpt>
      <trkpt lat="46.63173" lon="0.44837">
        <ele>114.56</ele>
        <time>2023-06-07T21:08:57.539Z</time>
      </trkpt>
      <trkpt lat="46.63173" lon="0.44843">
        <ele>114.65</ele>
        <time>2023-06-07T21:09:02.533Z</time>
      </trkpt>
      <trkpt lat="46.63172" lon="0.4485">
        <ele>114.78</ele>
        <time>2023-06-07T21:09:07.528Z</time>
      </trkpt>
      <trkpt lat="46.63172" lon="0.44856">
        <ele>114.97</ele>
        <time>2023-06-07T21:09:12.524Z</time>
      </trkpt>
      <trkpt lat="46.63171" lon="0.44863">
        <ele>115.2</ele>
        <time>2023-06-07T21:09:17.520Z</time>
      </trkpt>
      <trkpt lat="46.63171" lon="0.44869">
        <ele>115.48</ele>
        <time>2023-06-07T21:09:22.517Z</time>
      </trkpt>
      <trkpt lat="46.6317" lon="0.44876">
        <ele>115.82</ele>
        <time>2023-06-07T21:09:27.515Z</time>
      </trkpt>
      <trkpt lat="46.6317" lon="0.44882">
        <ele>116.19</ele>
        <time>2023-06-07T21:09:32.513Z</time>
      </trkpt>
      <trkpt lat="46.63169" lon="0.44891">
        <ele>116.58</ele>
        <time>2023-06-07T21:09:37.512Z</time>
      </trkpt>
      <trkpt lat="46.63184" lon="0.44911">
        <ele>117.91</ele>
        <time>2023-06-07T21:09:42.515Z</time>
      </trkpt>
      <trkpt lat="46.63191" lon="0.44919">
        <ele>118.44</ele>
        <time>2023-06-07T21:09:47.519Z</time>
      </trkpt>
      <trkpt lat="46.63195" lon="0.44923">
        <ele>118.68</ele>
        <time>2023-06-07T21:09:52.524Z</time>
      </trkpt>
      <trkpt lat="46.63201" lon="0.44932">
        <ele>119.11</ele>
        <time>2023-06-07T21:09:57.530Z</time>
      </trkpt>
      <trkpt lat="46.63208" lon="0.4494">
        <ele>119.5</ele>
        <time>2023-06-07T21:10:02.538Z</time>
      </trkpt>
      <trkpt lat="46.63215" lon="0.44949">
        <ele>119.87</ele>
        <time>2023-06-07T21:10:07.547Z</time>
      </trkpt>
      <trkpt lat="46.63221" lon="0.44957">
        <ele>120.21</ele>
        <time>2023-06-07T21:10:12.557Z</time>
      </trkpt>
      <trkpt lat="46.63221" lon="0.44957">
        <ele>120.21</ele>
        <time>2023-06-07T21:10:17.568Z</time>
      </trkpt>
      <trkpt lat="46.63228" lon="0.44965">
        <ele>120.51</ele>
        <time>2023-06-07T21:10:22.580Z</time>
      </trkpt>
      <trkpt lat="46.63235" lon="0.44973">
        <ele>120.76</ele>
        <time>2023-06-07T21:10:27.593Z</time>
      </trkpt>
      <trkpt lat="46.63242" lon="0.44981">
        <ele>120.99</ele>
        <time>2023-06-07T21:10:32.608Z</time>
      </trkpt>
      <trkpt lat="46.6325" lon="0.44989">
        <ele>121.18</ele>
        <time>2023-06-07T21:10:37.624Z</time>
      </trkpt>
      <trkpt lat="46.63267" lon="0.45008">
        <ele>121.6</ele>
        <time>2023-06-07T21:10:42.644Z</time>
      </trkpt>
      <trkpt lat="46.63283" lon="0.45026">
        <ele>121.93</ele>
        <time>2023-06-07T21:10:47.667Z</time>
      </trkpt>
      <trkpt lat="46.63288" lon="0.4504">
        <ele>122.13</ele>
        <time>2023-06-07T21:10:52.692Z</time>
      </trkpt>
      <trkpt lat="46.63293" lon="0.45052">
        <ele>122.26</ele>
        <time>2023-06-07T21:10:57.718Z</time>
      </trkpt>
      <trkpt lat="46.63296" lon="0.4506">
        <ele>122.3</ele>
        <time>2023-06-07T21:11:02.745Z</time>
      </trkpt>
      <trkpt lat="46.63299" lon="0.45076">
        <ele>122.38</ele>
        <time>2023-06-07T21:11:07.774Z</time>
      </trkpt>
      <trkpt lat="46.63305" lon="0.45114">
        <ele>122.59</ele>
        <time>2023-06-07T21:11:12.807Z</time>
      </trkpt>
      <trkpt lat="46.63307" lon="0.45127">
        <ele>122.63</ele>
        <time>2023-06-07T21:11:17.842Z</time>
      </trkpt>
      <trkpt lat="46.63308" lon="0.45133">
        <ele>122.62</ele>
        <time>2023-06-07T21:11:22.878Z</time>
      </trkpt>
      <trkpt lat="46.63309" lon="0.4514">
        <ele>122.59</ele>
        <time>2023-06-07T21:11:27.914Z</time>
      </trkpt>
      <trkpt lat="46.63313" lon="0.45151">
        <ele>122.54</ele>
        <time>2023-06-07T21:11:32.952Z</time>
      </trkpt>
      <trkpt lat="46.63319" lon="0.45169">
        <ele>122.4</ele>
        <time>2023-06-07T21:11:37.992Z</time>
      </trkpt>
      <trkpt lat="46.63323" lon="0.4518">
        <ele>122.25</ele>
        <time>2023-06-07T21:11:43.033Z</time>
      </trkpt>
      <trkpt lat="46.63325" lon="0.45186">
        <ele>122.14</ele>
        <time>2023-06-07T21:11:48.075Z</time>
      </trkpt>
      <trkpt lat="46.63329" lon="0.45198">
        <ele>121.84</ele>
        <time>2023-06-07T21:11:53.118Z</time>
      </trkpt>
      <trkpt lat="46.63333" lon="0.4521">
        <ele>121.44</ele>
        <time>2023-06-07T21:11:58.163Z</time>
      </trkpt>
      <trkpt lat="46.63339" lon="0.45228">
        <ele>120.68</ele>
        <time>2023-06-07T21:12:03.210Z</time>
      </trkpt>
      <trkpt lat="46.63351" lon="0.45254">
        <ele>119.52</ele>
        <time>2023-06-07T21:12:08.261Z</time>
      </trkpt>
      <trkpt lat="46.63359" lon="0.4527">
        <ele>118.86</ele>
        <time>2023-06-07T21:12:13.314Z</time>
      </trkpt>
      <trkpt lat="46.63364" lon="0.45281">
        <ele>118.39</ele>
        <time>2023-06-07T21:12:18.368Z</time>
      </trkpt>
      <trkpt lat="46.6337" lon="0.45295">
        <ele>117.77</ele>
        <time>2023-06-07T21:12:23.424Z</time>
      </trkpt>
      <trkpt lat="46.63375" lon="0.45309">
        <ele>117.17</ele>
        <time>2023-06-07T21:12:28.482Z</time>
      </trkpt>
      <trkpt lat="46.63386" lon="0.45338">
        <ele>116.1</ele>
        <time>2023-06-07T21:12:33.543Z</time>
      </trkpt>
      <trkpt lat="46.63395" lon="0.45361">
        <ele>115.34</ele>
        <time>2023-06-07T21:12:38.607Z</time>
      </trkpt>
      <trkpt lat="46.63407" lon="0.45395">
        <ele>114.32</ele>
        <time>2023-06-07T21:12:43.676Z</time>
      </trkpt>
      <trkpt lat="46.63418" lon="0.45424">
        <ele>113.38</ele>
        <time>2023-06-07T21:12:48.748Z</time>
      </trkpt>
      <trkpt lat="46.63422" lon="0.45435">
        <ele>113.03</ele>
        <time>2023-06-07T21:12:53.822Z</time>
      </trkpt>
      <trkpt lat="46.63427" lon="0.45447">
        <ele>112.74</ele>
        <time>2023-06-07T21:12:58.897Z</time>
      </trkpt>
      <trkpt lat="46.63431" lon="0.45458">
        <ele>112.54</ele>
        <time>2023-06-07T21:13:03.974Z</time>
      </trkpt>
      <trkpt lat="46.63432" lon="0.45461">
        <ele>112.51</ele>
        <time>2023-06-07T21:13:09.051Z</time>
      </trkpt>
      <trkpt lat="46.63428" lon="0.4547">
        <ele>112.44</ele>
        <time>2023-06-07T21:13:14.129Z</time>
      </trkpt>
      <trkpt lat="46.63426" lon="0.45475">
        <ele>112.42</ele>
        <time>2023-06-07T21:13:19.208Z</time>
      </trkpt>
      <trkpt lat="46.63424" lon="0.45481">
        <ele>112.43</ele>
        <time>2023-06-07T21:13:24.287Z</time>
      </trkpt>
      <trkpt lat="46.63419" lon="0.45492">
        <ele>112.54</ele>
        <time>2023-06-07T21:13:29.368Z</time>
      </trkpt>
      <trkpt lat="46.63417" lon="0.45498">
        <ele>112.63</ele>
        <time>2023-06-07T21:13:34.450Z</time>
      </trkpt>
      <trkpt lat="46.63409" lon="0.45517">
        <ele>113</ele>
        <time>2023-06-07T21:13:39.534Z</time>
      </trkpt>
      <trkpt lat="46.63405" lon="0.45533">
        <ele>113.28</ele>
        <time>2023-06-07T21:13:44.620Z</time>
      </trkpt>
      <trkpt lat="46.63402" lon="0.45545">
        <ele>113.43</ele>
        <time>2023-06-07T21:13:49.707Z</time>
      </trkpt>
      <trkpt lat="46.63394" lon="0.45582">
        <ele>113.74</ele>
        <time>2023-06-07T21:13:54.799Z</time>
      </trkpt>
      <trkpt lat="46.63391" lon="0.45594">
        <ele>113.82</ele>
        <time>2023-06-07T21:13:59.892Z</time>
      </trkpt>
      <trkpt lat="46.63388" lon="0.45607">
        <ele>113.86</ele>
        <time>2023-06-07T21:14:04.987Z</time>
      </trkpt>
      <trkpt lat="46.63386" lon="0.45615">
        <ele>113.85</ele>
        <time>2023-06-07T21:14:10.082Z</time>
      </trkpt>
      <trkpt lat="46.63387" lon="0.45619">
        <ele>113.85</ele>
        <time>2023-06-07T21:14:15.178Z</time>
      </trkpt>
      <trkpt lat="46.63388" lon="0.45632">
        <ele>113.77</ele>
        <time>2023-06-07T21:14:20.275Z</time>
      </trkpt>
      <trkpt lat="46.63392" lon="0.45664">
        <ele>113.48</ele>
        <time>2023-06-07T21:14:25.376Z</time>
      </trkpt>
      <trkpt lat="46.63394" lon="0.45677">
        <ele>113.39</ele>
        <time>2023-06-07T21:14:30.478Z</time>
      </trkpt>
      <trkpt lat="46.63399" lon="0.45714">
        <ele>113.2</ele>
        <time>2023-06-07T21:14:35.585Z</time>
      </trkpt>
      <trkpt lat="46.63399" lon="0.45715">
        <ele>113.2</ele>
        <time>2023-06-07T21:14:40.692Z</time>
      </trkpt>
      <trkpt lat="46.63409" lon="0.45738">
        <ele>113.12</ele>
        <time>2023-06-07T21:14:45.802Z</time>
      </trkpt>
      <trkpt lat="46.63413" lon="0.45749">
        <ele>113.06</ele>
        <time>2023-06-07T21:14:50.913Z</time>
      </trkpt>
      <trkpt lat="46.63419" lon="0.45764">
        <ele>112.95</ele>
        <time>2023-06-07T21:14:56.026Z</time>
      </trkpt>
      <trkpt lat="46.63423" lon="0.45785">
        <ele>112.82</ele>
        <time>2023-06-07T21:15:01.141Z</time>
      </trkpt>
      <trkpt lat="46.63425" lon="0.45798">
        <ele>112.72</ele>
        <time>2023-06-07T21:15:06.258Z</time>
      </trkpt>
      <trkpt lat="46.63428" lon="0.45817">
        <ele>112.53</ele>
        <time>2023-06-07T21:15:11.377Z</time>
      </trkpt>
      <trkpt lat="46.63435" lon="0.45855">
        <ele>112.11</ele>
        <time>2023-06-07T21:15:16.500Z</time>
      </trkpt>
      <trkpt lat="46.63437" lon="0.45866">
        <ele>111.95</ele>
        <time>2023-06-07T21:15:21.625Z</time>
      </trkpt>
      <trkpt lat="46.63437" lon="0.45867">
        <ele>111.94</ele>
        <time>2023-06-07T21:15:26.750Z</time>
      </trkpt>
      <trkpt lat="46.63434" lon="0.45913">
        <ele>111.28</ele>
        <time>2023-06-07T21:15:31.880Z</time>
      </trkpt>
      <trkpt lat="46.63434" lon="0.45919">
        <ele>111.21</ele>
        <time>2023-06-07T21:15:37.010Z</time>
      </trkpt>
      <trkpt lat="46.63435" lon="0.45952">
        <ele>110.87</ele>
        <time>2023-06-07T21:15:42.144Z</time>
      </trkpt>
      <trkpt lat="46.63435" lon="0.45978">
        <ele>110.56</ele>
        <time>2023-06-07T21:15:47.281Z</time>
      </trkpt>
      <trkpt lat="46.63436" lon="0.45991">
        <ele>110.34</ele>
        <time>2023-06-07T21:15:52.419Z</time>
      </trkpt>
      <trkpt lat="46.63436" lon="0.45999">
        <ele>110.18</ele>
        <time>2023-06-07T21:15:57.558Z</time>
      </trkpt>
      <trkpt lat="46.63437" lon="0.46004">
        <ele>110.08</ele>
        <time>2023-06-07T21:16:02.698Z</time>
      </trkpt>
      <trkpt lat="46.63439" lon="0.46023">
        <ele>109.6</ele>
        <time>2023-06-07T21:16:07.840Z</time>
      </trkpt>
      <trkpt lat="46.63441" lon="0.46043">
        <ele>109.09</ele>
        <time>2023-06-07T21:16:12.984Z</time>
      </trkpt>
      <trkpt lat="46.63442" lon="0.46049">
        <ele>108.89</ele>
        <time>2023-06-07T21:16:18.129Z</time>
      </trkpt>
      <trkpt lat="46.63444" lon="0.46062">
        <ele>108.44</ele>
        <time>2023-06-07T21:16:23.275Z</time>
      </trkpt>
      <trkpt lat="46.63446" lon="0.46081">
        <ele>107.68</ele>
        <time>2023-06-07T21:16:28.423Z</time>
      </trkpt>
      <trkpt lat="46.63448" lon="0.46094">
        <ele>107.21</ele>
        <time>2023-06-07T21:16:33.573Z</time>
      </trkpt>
      <trkpt lat="46.63451" lon="0.4612">
        <ele>106.34</ele>
        <time>2023-06-07T21:16:38.726Z</time>
      </trkpt>
      <trkpt lat="46.63452" lon="0.46133">
        <ele>105.95</ele>
        <time>2023-06-07T21:16:43.880Z</time>
      </trkpt>
      <trkpt lat="46.63453" lon="0.46139">
        <ele>105.78</ele>
        <time>2023-06-07T21:16:49.035Z</time>
      </trkpt>
      <trkpt lat="46.63455" lon="0.46152">
        <ele>105.47</ele>
        <time>2023-06-07T21:16:54.191Z</time>
      </trkpt>
      <trkpt lat="46.63457" lon="0.46171">
        <ele>105.05</ele>
        <time>2023-06-07T21:16:59.350Z</time>
      </trkpt>
      <trkpt lat="46.63459" lon="0.46191">
        <ele>104.69</ele>
        <time>2023-06-07T21:17:04.511Z</time>
      </trkpt>
      <trkpt lat="46.6346" lon="0.46197">
        <ele>104.58</ele>
        <time>2023-06-07T21:17:09.672Z</time>
      </trkpt>
      <trkpt lat="46.63461" lon="0.46217">
        <ele>104.26</ele>
        <time>2023-06-07T21:17:14.836Z</time>
      </trkpt>
      <trkpt lat="46.63462" lon="0.4623">
        <ele>104.02</ele>
        <time>2023-06-07T21:17:20.001Z</time>
      </trkpt>
      <trkpt lat="46.63462" lon="0.46243">
        <ele>103.75</ele>
        <time>2023-06-07T21:17:25.167Z</time>
      </trkpt>
      <trkpt lat="46.63463" lon="0.46262">
        <ele>103.32</ele>
        <time>2023-06-07T21:17:30.336Z</time>
      </trkpt>
      <trkpt lat="46.63464" lon="0.46275">
        <ele>103.07</ele>
        <time>2023-06-07T21:17:35.506Z</time>
      </trkpt>
      <trkpt lat="46.63466" lon="0.46314">
        <ele>102.22</ele>
        <time>2023-06-07T21:17:40.680Z</time>
      </trkpt>
      <trkpt lat="46.63467" lon="0.46346">
        <ele>101.45</ele>
        <time>2023-06-07T21:17:45.858Z</time>
      </trkpt>
      <trkpt lat="46.63471" lon="0.46418">
        <ele>99.87</ele>
        <time>2023-06-07T21:17:51.044Z</time>
      </trkpt>
      <trkpt lat="46.63471" lon="0.46431">
        <ele>99.63</ele>
        <time>2023-06-07T21:17:56.231Z</time>
      </trkpt>
      <trkpt lat="46.63473" lon="0.46457">
        <ele>99.19</ele>
        <time>2023-06-07T21:18:01.421Z</time>
      </trkpt>
      <trkpt lat="46.63474" lon="0.46489">
        <ele>98.72</ele>
        <time>2023-06-07T21:18:06.615Z</time>
      </trkpt>
      <trkpt lat="46.63475" lon="0.46502">
        <ele>98.55</ele>
        <time>2023-06-07T21:18:11.810Z</time>
      </trkpt>
      <trkpt lat="46.63476" lon="0.46528">
        <ele>98.26</ele>
        <time>2023-06-07T21:18:17.008Z</time>
      </trkpt>
      <trkpt lat="46.63477" lon="0.46543">
        <ele>98.05</ele>
        <time>2023-06-07T21:18:22.208Z</time>
      </trkpt>
      <trkpt lat="46.6348" lon="0.46544">
        <ele>98</ele>
        <time>2023-06-07T21:18:27.408Z</time>
      </trkpt>
      <trkpt lat="46.63488" lon="0.46549">
        <ele>97.87</ele>
        <time>2023-06-07T21:18:32.610Z</time>
      </trkpt>
      <trkpt lat="46.63501" lon="0.46556">
        <ele>97.76</ele>
        <time>2023-06-07T21:18:37.814Z</time>
      </trkpt>
      <trkpt lat="46.63509" lon="0.4656">
        <ele>97.74</ele>
        <time>2023-06-07T21:18:43.019Z</time>
      </trkpt>
      <trkpt lat="46.63509" lon="0.4656">
        <ele>97.74</ele>
        <time>2023-06-07T21:18:48.224Z</time>
      </trkpt>
      <trkpt lat="46.63517" lon="0.46566">
        <ele>97.79</ele>
        <time>2023-06-07T21:18:53.431Z</time>
      </trkpt>
      <trkpt lat="46.63518" lon="0.46567">
        <ele>97.8</ele>
        <time>2023-06-07T21:18:58.638Z</time>
      </trkpt>
      <trkpt lat="46.63528" lon="0.46578">
        <ele>97.91</ele>
        <time>2023-06-07T21:19:03.847Z</time>
      </trkpt>
      <trkpt lat="46.6353" lon="0.4658">
        <ele>97.93</ele>
        <time>2023-06-07T21:19:09.056Z</time>
      </trkpt>
      <trkpt lat="46.63535" lon="0.46594">
        <ele>98.01</ele>
        <time>2023-06-07T21:19:14.267Z</time>
      </trkpt>
      <trkpt lat="46.63539" lon="0.46606">
        <ele>98.05</ele>
        <time>2023-06-07T21:19:19.479Z</time>
      </trkpt>
      <trkpt lat="46.63539" lon="0.46606">
        <ele>98.05</ele>
        <time>2023-06-07T21:19:24.691Z</time>
      </trkpt>
      <trkpt lat="46.6354" lon="0.46612">
        <ele>98.05</ele>
        <time>2023-06-07T21:19:29.904Z</time>
      </trkpt>
      <trkpt lat="46.63543" lon="0.46624">
        <ele>98.02</ele>
        <time>2023-06-07T21:19:35.118Z</time>
      </trkpt>
      <trkpt lat="46.6355" lon="0.46655">
        <ele>97.91</ele>
        <time>2023-06-07T21:19:40.336Z</time>
      </trkpt>
      <trkpt lat="46.63555" lon="0.46673">
        <ele>97.88</ele>
        <time>2023-06-07T21:19:45.556Z</time>
      </trkpt>
      <trkpt lat="46.63558" lon="0.46685">
        <ele>97.89</ele>
        <time>2023-06-07T21:19:50.778Z</time>
      </trkpt>
      <trkpt lat="46.6356" lon="0.46698">
        <ele>97.98</ele>
        <time>2023-06-07T21:19:56.001Z</time>
      </trkpt>
      <trkpt lat="46.63562" lon="0.46704">
        <ele>98.07</ele>
        <time>2023-06-07T21:20:01.225Z</time>
      </trkpt>
      <trkpt lat="46.63563" lon="0.4671">
        <ele>98.18</ele>
        <time>2023-06-07T21:20:06.449Z</time>
      </trkpt>
      <trkpt lat="46.63564" lon="0.46713">
        <ele>98.24</ele>
        <time>2023-06-07T21:20:11.674Z</time>
      </trkpt>
      <trkpt lat="46.63567" lon="0.46721">
        <ele>98.46</ele>
        <time>2023-06-07T21:20:16.900Z</time>
      </trkpt>
      <trkpt lat="46.6357" lon="0.46728">
        <ele>99.04</ele>
        <time>2023-06-07T21:20:22.127Z</time>
      </trkpt>
      <trkpt lat="46.63574" lon="0.46728">
        <ele>99.46</ele>
        <time>2023-06-07T21:20:27.354Z</time>
      </trkpt>
      <trkpt lat="46.63578" lon="0.46728">
        <ele>100.02</ele>
        <time>2023-06-07T21:20:32.582Z</time>
      </trkpt>
      <trkpt lat="46.63587" lon="0.46729">
        <ele>101.25</ele>
        <time>2023-06-07T21:20:37.811Z</time>
      </trkpt>
      <trkpt lat="46.63605" lon="0.4673">
        <ele>103.82</ele>
        <time>2023-06-07T21:20:43.043Z</time>
      </trkpt>
      <trkpt lat="46.63614" lon="0.4673">
        <ele>104.99</ele>
        <time>2023-06-07T21:20:48.277Z</time>
      </trkpt>
      <trkpt lat="46.63618" lon="0.46731">
        <ele>105.53</ele>
        <time>2023-06-07T21:20:53.511Z</time>
      </trkpt>
      <trkpt lat="46.63623" lon="0.46731">
        <ele>106.03</ele>
        <time>2023-06-07T21:20:58.746Z</time>
      </trkpt>
      <trkpt lat="46.63632" lon="0.46731">
        <ele>106.96</ele>
        <time>2023-06-07T21:21:03.983Z</time>
      </trkpt>
      <trkpt lat="46.63645" lon="0.46732">
        <ele>108.25</ele>
        <time>2023-06-07T21:21:09.222Z</time>
      </trkpt>
      <trkpt lat="46.63654" lon="0.46733">
        <ele>109.07</ele>
        <time>2023-06-07T21:21:14.462Z</time>
      </trkpt>
      <trkpt lat="46.63663" lon="0.46733">
        <ele>109.83</ele>
        <time>2023-06-07T21:21:19.704Z</time>
      </trkpt>
      <trkpt lat="46.63672" lon="0.46733">
        <ele>110.53</ele>
        <time>2023-06-07T21:21:24.947Z</time>
      </trkpt>
      <trkpt lat="46.63685" lon="0.46734">
        <ele>111.5</ele>
        <time>2023-06-07T21:21:30.192Z</time>
      </trkpt>
      <trkpt lat="46.63694" lon="0.46735">
        <ele>112.08</ele>
        <time>2023-06-07T21:21:35.439Z</time>
      </trkpt>
      <trkpt lat="46.637" lon="0.46735">
        <ele>112.4</ele>
        <time>2023-06-07T21:21:40.687Z</time>
      </trkpt>
      <trkpt lat="46.63703" lon="0.46734">
        <ele>112.58</ele>
        <time>2023-06-07T21:21:45.935Z</time>
      </trkpt>
      <trkpt lat="46.63712" lon="0.46733">
        <ele>113.02</ele>
        <time>2023-06-07T21:21:51.185Z</time>
      </trkpt>
      <trkpt lat="46.63719" lon="0.46732">
        <ele>113.32</ele>
        <time>2023-06-07T21:21:56.436Z</time>
      </trkpt>
      <trkpt lat="46.63725" lon="0.46729">
        <ele>113.61</ele>
        <time>2023-06-07T21:22:01.688Z</time>
      </trkpt>
      <trkpt lat="46.63734" lon="0.46726">
        <ele>113.94</ele>
        <time>2023-06-07T21:22:06.941Z</time>
      </trkpt>
      <trkpt lat="46.63745" lon="0.46721">
        <ele>114.33</ele>
        <time>2023-06-07T21:22:12.196Z</time>
      </trkpt>
      <trkpt lat="46.63747" lon="0.4672">
        <ele>114.39</ele>
        <time>2023-06-07T21:22:17.451Z</time>
      </trkpt>
      <trkpt lat="46.63755" lon="0.46717">
        <ele>114.67</ele>
        <time>2023-06-07T21:22:22.708Z</time>
      </trkpt>
      <trkpt lat="46.6376" lon="0.46716">
        <ele>114.79</ele>
        <time>2023-06-07T21:22:27.965Z</time>
      </trkpt>
      <trkpt lat="46.63768" lon="0.46713">
        <ele>114.98</ele>
        <time>2023-06-07T21:22:33.224Z</time>
      </trkpt>
      <trkpt lat="46.63777" lon="0.4671">
        <ele>115.13</ele>
        <time>2023-06-07T21:22:38.484Z</time>
      </trkpt>
      <trkpt lat="46.6379" lon="0.46705">
        <ele>115.3</ele>
        <time>2023-06-07T21:22:43.746Z</time>
      </trkpt>
      <trkpt lat="46.63833" lon="0.4669">
        <ele>115.74</ele>
        <time>2023-06-07T21:22:49.015Z</time>
      </trkpt>
      <trkpt lat="46.63851" lon="0.46684">
        <ele>115.93</ele>
        <time>2023-06-07T21:22:54.287Z</time>
      </trkpt>
      <trkpt lat="46.63877" lon="0.46676">
        <ele>116.35</ele>
        <time>2023-06-07T21:22:59.564Z</time>
      </trkpt>
      <trkpt lat="46.6389" lon="0.46672">
        <ele>116.63</ele>
        <time>2023-06-07T21:23:04.843Z</time>
      </trkpt>
      <trkpt lat="46.63912" lon="0.46665">
        <ele>117.21</ele>
        <time>2023-06-07T21:23:10.125Z</time>
      </trkpt>
      <trkpt lat="46.63938" lon="0.46656">
        <ele>118.07</ele>
        <time>2023-06-07T21:23:15.412Z</time>
      </trkpt>
      <trkpt lat="46.63951" lon="0.46652">
        <ele>118.54</ele>
        <time>2023-06-07T21:23:20.701Z</time>
      </trkpt>
      <trkpt lat="46.63965" lon="0.46649">
        <ele>119.04</ele>
        <time>2023-06-07T21:23:25.992Z</time>
      </trkpt>
      <trkpt lat="46.63974" lon="0.46647">
        <ele>119.42</ele>
        <time>2023-06-07T21:23:31.285Z</time>
      </trkpt>
      <trkpt lat="46.63982" lon="0.46646">
        <ele>119.76</ele>
        <time>2023-06-07T21:23:36.579Z</time>
      </trkpt>
      <trkpt lat="46.63991" lon="0.46645">
        <ele>120.07</ele>
        <time>2023-06-07T21:23:41.874Z</time>
      </trkpt>
      <trkpt lat="46.63999" lon="0.46644">
        <ele>120.28</ele>
        <time>2023-06-07T21:23:47.171Z</time>
      </trkpt>
      <trkpt lat="46.64" lon="0.46644">
        <ele>120.31</ele>
        <time>2023-06-07T21:23:52.468Z</time>
      </trkpt>
      <trkpt lat="46.64031" lon="0.46644">
        <ele>121.05</ele>
        <time>2023-06-07T21:23:57.770Z</time>
      </trkpt>
      <trkpt lat="46.64036" lon="0.46644">
        <ele>121.12</ele>
        <time>2023-06-07T21:24:03.072Z</time>
      </trkpt>
      <trkpt lat="46.64049" lon="0.46649">
        <ele>121.34</ele>
        <time>2023-06-07T21:24:08.377Z</time>
      </trkpt>
      <trkpt lat="46.64057" lon="0.46653">
        <ele>121.46</ele>
        <time>2023-06-07T21:24:13.683Z</time>
      </trkpt>
      <trkpt lat="46.64066" lon="0.46656">
        <ele>121.56</ele>
        <time>2023-06-07T21:24:18.990Z</time>
      </trkpt>
      <trkpt lat="46.64074" lon="0.4666">
        <ele>121.64</ele>
        <time>2023-06-07T21:24:24.299Z</time>
      </trkpt>
      <trkpt lat="46.64104" lon="0.46672">
        <ele>121.87</ele>
        <time>2023-06-07T21:24:29.613Z</time>
      </trkpt>
      <trkpt lat="46.64105" lon="0.46672">
        <ele>121.87</ele>
        <time>2023-06-07T21:24:34.927Z</time>
      </trkpt>
      <trkpt lat="46.64113" lon="0.46674">
        <ele>121.9</ele>
        <time>2023-06-07T21:24:40.242Z</time>
      </trkpt>
      <trkpt lat="46.64118" lon="0.46675">
        <ele>121.89</ele>
        <time>2023-06-07T21:24:45.558Z</time>
      </trkpt>
      <trkpt lat="46.64135" lon="0.46679">
        <ele>121.78</ele>
        <time>2023-06-07T21:24:50.877Z</time>
      </trkpt>
      <trkpt lat="46.64145" lon="0.46681">
        <ele>121.73</ele>
        <time>2023-06-07T21:24:56.197Z</time>
      </trkpt>
      <trkpt lat="46.64162" lon="0.46683">
        <ele>121.65</ele>
        <time>2023-06-07T21:25:01.520Z</time>
      </trkpt>
      <trkpt lat="46.64167" lon="0.46683">
        <ele>121.63</ele>
        <time>2023-06-07T21:25:06.844Z</time>
      </trkpt>
      <trkpt lat="46.64183" lon="0.46682">
        <ele>121.6</ele>
        <time>2023-06-07T21:25:12.171Z</time>
      </trkpt>
      <trkpt lat="46.64189" lon="0.46681">
        <ele>121.59</ele>
        <time>2023-06-07T21:25:17.498Z</time>
      </trkpt>
      <trkpt lat="46.64211" lon="0.46675">
        <ele>121.48</ele>
        <time>2023-06-07T21:25:22.829Z</time>
      </trkpt>
      <trkpt lat="46.64212" lon="0.46675">
        <ele>121.46</ele>
        <time>2023-06-07T21:25:28.160Z</time>
      </trkpt>
      <trkpt lat="46.64223" lon="0.46669">
        <ele>121.34</ele>
        <time>2023-06-07T21:25:33.493Z</time>
      </trkpt>
      <trkpt lat="46.64249" lon="0.46656">
        <ele>120.9</ele>
        <time>2023-06-07T21:25:38.830Z</time>
      </trkpt>
      <trkpt lat="46.6427" lon="0.46646">
        <ele>120.67</ele>
        <time>2023-06-07T21:25:44.171Z</time>
      </trkpt>
      <trkpt lat="46.64278" lon="0.46641">
        <ele>120.55</ele>
        <time>2023-06-07T21:25:49.513Z</time>
      </trkpt>
      <trkpt lat="46.64283" lon="0.46639">
        <ele>120.71</ele>
        <time>2023-06-07T21:25:54.856Z</time>
      </trkpt>
      <trkpt lat="46.643" lon="0.46633">
        <ele>121.31</ele>
        <time>2023-06-07T21:26:00.202Z</time>
      </trkpt>
      <trkpt lat="46.64326" lon="0.46623">
        <ele>122.3</ele>
        <time>2023-06-07T21:26:05.552Z</time>
      </trkpt>
      <trkpt lat="46.64335" lon="0.4662">
        <ele>122.59</ele>
        <time>2023-06-07T21:26:10.904Z</time>
      </trkpt>
      <trkpt lat="46.64343" lon="0.46617">
        <ele>122.83</ele>
        <time>2023-06-07T21:26:16.257Z</time>
      </trkpt>
      <trkpt lat="46.64356" lon="0.46612">
        <ele>123.15</ele>
        <time>2023-06-07T21:26:21.612Z</time>
      </trkpt>
      <trkpt lat="46.64365" lon="0.46609">
        <ele>123.33</ele>
        <time>2023-06-07T21:26:26.969Z</time>
      </trkpt>
      <trkpt lat="46.64382" lon="0.46603">
        <ele>123.65</ele>
        <time>2023-06-07T21:26:32.329Z</time>
      </trkpt>
      <trkpt lat="46.64395" lon="0.46598">
        <ele>123.91</ele>
        <time>2023-06-07T21:26:37.691Z</time>
      </trkpt>
      <trkpt lat="46.64404" lon="0.46595">
        <ele>124.05</ele>
        <time>2023-06-07T21:26:43.054Z</time>
      </trkpt>
      <trkpt lat="46.64417" lon="0.4659">
        <ele>124.18</ele>
        <time>2023-06-07T21:26:48.419Z</time>
      </trkpt>
      <trkpt lat="46.64452" lon="0.46577">
        <ele>124.35</ele>
        <time>2023-06-07T21:26:53.790Z</time>
      </trkpt>
      <trkpt lat="46.64473" lon="0.46569">
        <ele>124.42</ele>
        <time>2023-06-07T21:26:59.165Z</time>
      </trkpt>
      <trkpt lat="46.64482" lon="0.46566">
        <ele>124.48</ele>
        <time>2023-06-07T21:27:04.541Z</time>
      </trkpt>
      <trkpt lat="46.64495" lon="0.46561">
        <ele>124.62</ele>
        <time>2023-06-07T21:27:09.919Z</time>
      </trkpt>
      <trkpt lat="46.64543" lon="0.46543">
        <ele>125.25</ele>
        <time>2023-06-07T21:27:15.305Z</time>
      </trkpt>
      <trkpt lat="46.64556" lon="0.46539">
        <ele>125.38</ele>
        <time>2023-06-07T21:27:20.693Z</time>
      </trkpt>
      <trkpt lat="46.64569" lon="0.46534">
        <ele>125.49</ele>
        <time>2023-06-07T21:27:26.083Z</time>
      </trkpt>
      <trkpt lat="46.64574" lon="0.46532">
        <ele>125.46</ele>
        <time>2023-06-07T21:27:31.474Z</time>
      </trkpt>
      <trkpt lat="46.64576" lon="0.46536">
        <ele>125.45</ele>
        <time>2023-06-07T21:27:36.866Z</time>
      </trkpt>
      <trkpt lat="46.6459" lon="0.46561">
        <ele>125.22</ele>
        <time>2023-06-07T21:27:42.261Z</time>
      </trkpt>
      <trkpt lat="46.64595" lon="0.46571">
        <ele>125.16</ele>
        <time>2023-06-07T21:27:47.658Z</time>
      </trkpt>
      <trkpt lat="46.64609" lon="0.46596">
        <ele>125.13</ele>
        <time>2023-06-07T21:27:53.058Z</time>
      </trkpt>
      <trkpt lat="46.64614" lon="0.46606">
        <ele>125.06</ele>
        <time>2023-06-07T21:27:58.460Z</time>
      </trkpt>
      <trkpt lat="46.64617" lon="0.46611">
        <ele>124.99</ele>
        <time>2023-06-07T21:28:03.862Z</time>
      </trkpt>
      <trkpt lat="46.64628" lon="0.46631">
        <ele>124.64</ele>
        <time>2023-06-07T21:28:09.267Z</time>
      </trkpt>
      <trkpt lat="46.64641" lon="0.46656">
        <ele>124.33</ele>
        <time>2023-06-07T21:28:14.676Z</time>
      </trkpt>
      <trkpt lat="46.64647" lon="0.46666">
        <ele>124.15</ele>
        <time>2023-06-07T21:28:20.086Z</time>
      </trkpt>
      <trkpt lat="46.6465" lon="0.46672">
        <ele>124.05</ele>
        <time>2023-06-07T21:28:25.497Z</time>
      </trkpt>
      <trkpt lat="46.64655" lon="0.46681">
        <ele>123.92</ele>
        <time>2023-06-07T21:28:30.909Z</time>
      </trkpt>
      <trkpt lat="46.6467" lon="0.46705">
        <ele>123.45</ele>
        <time>2023-06-07T21:28:36.325Z</time>
      </trkpt>
      <trkpt lat="46.64673" lon="0.46709">
        <ele>123.34</ele>
        <time>2023-06-07T21:28:41.741Z</time>
      </trkpt>
      <trkpt lat="46.64676" lon="0.46715">
        <ele>123.22</ele>
        <time>2023-06-07T21:28:47.158Z</time>
      </trkpt>
      <trkpt lat="46.64687" lon="0.46736">
        <ele>122.68</ele>
        <time>2023-06-07T21:28:52.578Z</time>
      </trkpt>
      <trkpt lat="46.64689" lon="0.46741">
        <ele>122.57</ele>
        <time>2023-06-07T21:28:57.999Z</time>
      </trkpt>
      <trkpt lat="46.64695" lon="0.46751">
        <ele>122.39</ele>
        <time>2023-06-07T21:29:03.421Z</time>
      </trkpt>
      <trkpt lat="46.647" lon="0.46762">
        <ele>122.28</ele>
        <time>2023-06-07T21:29:08.845Z</time>
      </trkpt>
      <trkpt lat="46.64708" lon="0.46777">
        <ele>122.19</ele>
        <time>2023-06-07T21:29:14.271Z</time>
      </trkpt>
      <trkpt lat="46.64719" lon="0.46798">
        <ele>122.12</ele>
        <time>2023-06-07T21:29:19.700Z</time>
      </trkpt>
      <trkpt lat="46.64724" lon="0.46808">
        <ele>122.12</ele>
        <time>2023-06-07T21:29:25.130Z</time>
      </trkpt>
      <trkpt lat="46.64727" lon="0.46814">
        <ele>122.14</ele>
        <time>2023-06-07T21:29:30.561Z</time>
      </trkpt>
      <trkpt lat="46.64732" lon="0.46824">
        <ele>122.21</ele>
        <time>2023-06-07T21:29:35.993Z</time>
      </trkpt>
      <trkpt lat="46.64738" lon="0.46834">
        <ele>122.36</ele>
        <time>2023-06-07T21:29:41.427Z</time>
      </trkpt>
      <trkpt lat="46.64743" lon="0.46845">
        <ele>122.59</ele>
        <time>2023-06-07T21:29:46.862Z</time>
      </trkpt>
      <trkpt lat="46.64749" lon="0.46855">
        <ele>122.87</ele>
        <time>2023-06-07T21:29:52.299Z</time>
      </trkpt>
      <trkpt lat="46.64754" lon="0.46866">
        <ele>123.18</ele>
        <time>2023-06-07T21:29:57.737Z</time>
      </trkpt>
      <trkpt lat="46.64759" lon="0.46876">
        <ele>123.54</ele>
        <time>2023-06-07T21:30:03.176Z</time>
      </trkpt>
      <trkpt lat="46.64773" lon="0.46902">
        <ele>124.5</ele>
        <time>2023-06-07T21:30:08.619Z</time>
      </trkpt>
      <trkpt lat="46.64778" lon="0.46912">
        <ele>124.87</ele>
        <time>2023-06-07T21:30:14.064Z</time>
      </trkpt>
      <trkpt lat="46.64789" lon="0.46933">
        <ele>125.54</ele>
        <time>2023-06-07T21:30:19.511Z</time>
      </trkpt>
      <trkpt lat="46.64797" lon="0.46949">
        <ele>125.8</ele>
        <time>2023-06-07T21:30:24.960Z</time>
      </trkpt>
      <trkpt lat="46.6481" lon="0.46975">
        <ele>126.34</ele>
        <time>2023-06-07T21:30:30.413Z</time>
      </trkpt>
      <trkpt lat="46.64818" lon="0.4699">
        <ele>126.64</ele>
        <time>2023-06-07T21:30:35.868Z</time>
      </trkpt>
      <trkpt lat="46.64824" lon="0.47001">
        <ele>126.8</ele>
        <time>2023-06-07T21:30:41.325Z</time>
      </trkpt>
      <trkpt lat="46.64829" lon="0.47011">
        <ele>126.92</ele>
        <time>2023-06-07T21:30:46.783Z</time>
      </trkpt>
      <trkpt lat="46.6484" lon="0.47032">
        <ele>127.08</ele>
        <time>2023-06-07T21:30:52.244Z</time>
      </trkpt>
      <trkpt lat="46.64851" lon="0.47053">
        <ele>127.37</ele>
        <time>2023-06-07T21:30:57.708Z</time>
      </trkpt>
      <trkpt lat="46.64864" lon="0.47078">
        <ele>127.68</ele>
        <time>2023-06-07T21:31:03.175Z</time>
      </trkpt>
      <trkpt lat="46.64875" lon="0.47099">
        <ele>127.9</ele>
        <time>2023-06-07T21:31:08.645Z</time>
      </trkpt>
      <trkpt lat="46.64885" lon="0.4712">
        <ele>128.18</ele>
        <time>2023-06-07T21:31:14.118Z</time>
      </trkpt>
      <trkpt lat="46.64902" lon="0.47151">
        <ele>128.56</ele>
        <time>2023-06-07T21:31:19.595Z</time>
      </trkpt>
      <trkpt lat="46.6491" lon="0.47167">
        <ele>128.81</ele>
        <time>2023-06-07T21:31:25.075Z</time>
      </trkpt>
      <trkpt lat="46.64918" lon="0.47182">
        <ele>129.17</ele>
        <time>2023-06-07T21:31:30.557Z</time>
      </trkpt>
      <trkpt lat="46.64931" lon="0.47208">
        <ele>129.81</ele>
        <time>2023-06-07T21:31:36.042Z</time>
      </trkpt>
      <trkpt lat="46.64936" lon="0.47219">
        <ele>130.1</ele>
        <time>2023-06-07T21:31:41.529Z</time>
      </trkpt>
      <trkpt lat="46.64947" lon="0.47239">
        <ele>130.79</ele>
        <time>2023-06-07T21:31:47.019Z</time>
      </trkpt>
      <trkpt lat="46.64958" lon="0.4726">
        <ele>131.51</ele>
        <time>2023-06-07T21:31:52.511Z</time>
      </trkpt>
      <trkpt lat="46.64963" lon="0.4727">
        <ele>131.92</ele>
        <time>2023-06-07T21:31:58.005Z</time>
      </trkpt>
      <trkpt lat="46.64969" lon="0.47281">
        <ele>132.38</ele>
        <time>2023-06-07T21:32:03.500Z</time>
      </trkpt>
      <trkpt lat="46.64985" lon="0.47312">
        <ele>133.97</ele>
        <time>2023-06-07T21:32:09.000Z</time>
      </trkpt>
      <trkpt lat="46.64987" lon="0.47317">
        <ele>134.21</ele>
        <time>2023-06-07T21:32:14.500Z</time>
      </trkpt>
      <trkpt lat="46.6499" lon="0.47322">
        <ele>134.42</ele>
        <time>2023-06-07T21:32:20.001Z</time>
      </trkpt>
      <trkpt lat="46.64993" lon="0.47328">
        <ele>134.61</ele>
        <time>2023-06-07T21:32:25.503Z</time>
      </trkpt>
      <trkpt lat="46.64998" lon="0.47338">
        <ele>134.94</ele>
        <time>2023-06-07T21:32:31.006Z</time>
      </trkpt>
      <trkpt lat="46.65017" lon="0.47374">
        <ele>136.04</ele>
        <time>2023-06-07T21:32:36.514Z</time>
      </trkpt>
      <trkpt lat="46.65025" lon="0.4739">
        <ele>136.46</ele>
        <time>2023-06-07T21:32:42.024Z</time>
      </trkpt>
      <trkpt lat="46.65033" lon="0.47405">
        <ele>136.91</ele>
        <time>2023-06-07T21:32:47.536Z</time>
      </trkpt>
      <trkpt lat="46.65036" lon="0.47411">
        <ele>137.04</ele>
        <time>2023-06-07T21:32:53.049Z</time>
      </trkpt>
      <trkpt lat="46.65038" lon="0.47416">
        <ele>137.15</ele>
        <time>2023-06-07T21:32:58.563Z</time>
      </trkpt>
      <trkpt lat="46.65044" lon="0.47426">
        <ele>137.28</ele>
        <time>2023-06-07T21:33:04.078Z</time>
      </trkpt>
      <trkpt lat="46.65057" lon="0.47452">
        <ele>137.51</ele>
        <time>2023-06-07T21:33:09.597Z</time>
      </trkpt>
      <trkpt lat="46.65063" lon="0.47462">
        <ele>137.57</ele>
        <time>2023-06-07T21:33:15.117Z</time>
      </trkpt>
      <trkpt lat="46.65065" lon="0.47468">
        <ele>137.58</ele>
        <time>2023-06-07T21:33:20.638Z</time>
      </trkpt>
      <trkpt lat="46.65079" lon="0.47494">
        <ele>137.46</ele>
        <time>2023-06-07T21:33:26.163Z</time>
      </trkpt>
      <trkpt lat="46.65092" lon="0.4752">
        <ele>137.2</ele>
        <time>2023-06-07T21:33:31.691Z</time>
      </trkpt>
      <trkpt lat="46.651" lon="0.47535">
        <ele>137.08</ele>
        <time>2023-06-07T21:33:37.221Z</time>
      </trkpt>
      <trkpt lat="46.65105" lon="0.47545">
        <ele>137.04</ele>
        <time>2023-06-07T21:33:42.753Z</time>
      </trkpt>
      <trkpt lat="46.65111" lon="0.47556">
        <ele>137.06</ele>
        <time>2023-06-07T21:33:48.286Z</time>
      </trkpt>
      <trkpt lat="46.65114" lon="0.47562">
        <ele>136.92</ele>
        <time>2023-06-07T21:33:53.820Z</time>
      </trkpt>
      <trkpt lat="46.65119" lon="0.47572">
        <ele>136.72</ele>
        <time>2023-06-07T21:33:59.355Z</time>
      </trkpt>
      <trkpt lat="46.65129" lon="0.47593">
        <ele>136.21</ele>
        <time>2023-06-07T21:34:04.893Z</time>
      </trkpt>
      <trkpt lat="46.65134" lon="0.47604">
        <ele>135.87</ele>
        <time>2023-06-07T21:34:10.433Z</time>
      </trkpt>
      <trkpt lat="46.65137" lon="0.47609">
        <ele>135.64</ele>
        <time>2023-06-07T21:34:15.973Z</time>
      </trkpt>
      <trkpt lat="46.65139" lon="0.47615">
        <ele>135.37</ele>
        <time>2023-06-07T21:34:21.514Z</time>
      </trkpt>
      <trkpt lat="46.65144" lon="0.47625">
        <ele>134.78</ele>
        <time>2023-06-07T21:34:27.057Z</time>
      </trkpt>
      <trkpt lat="46.65155" lon="0.47647">
        <ele>133.55</ele>
        <time>2023-06-07T21:34:32.602Z</time>
      </trkpt>
      <trkpt lat="46.65183" lon="0.47706">
        <ele>129.82</ele>
        <time>2023-06-07T21:34:38.155Z</time>
      </trkpt>
      <trkpt lat="46.65188" lon="0.47716">
        <ele>129.2</ele>
        <time>2023-06-07T21:34:43.710Z</time>
      </trkpt>
      <trkpt lat="46.65193" lon="0.47727">
        <ele>128.67</ele>
        <time>2023-06-07T21:34:49.266Z</time>
      </trkpt>
      <trkpt lat="46.65198" lon="0.47738">
        <ele>128.23</ele>
        <time>2023-06-07T21:34:54.824Z</time>
      </trkpt>
      <trkpt lat="46.65204" lon="0.47749">
        <ele>127.84</ele>
        <time>2023-06-07T21:35:00.383Z</time>
      </trkpt>
      <trkpt lat="46.65209" lon="0.47759">
        <ele>127.5</ele>
        <time>2023-06-07T21:35:05.944Z</time>
      </trkpt>
      <trkpt lat="46.65214" lon="0.4777">
        <ele>127.24</ele>
        <time>2023-06-07T21:35:11.506Z</time>
      </trkpt>
      <trkpt lat="46.65229" lon="0.47802">
        <ele>126.64</ele>
        <time>2023-06-07T21:35:17.072Z</time>
      </trkpt>
      <trkpt lat="46.65234" lon="0.47813">
        <ele>126.42</ele>
        <time>2023-06-07T21:35:22.640Z</time>
      </trkpt>
      <trkpt lat="46.65252" lon="0.4785">
        <ele>125.59</ele>
        <time>2023-06-07T21:35:28.213Z</time>
      </trkpt>
      <trkpt lat="46.65263" lon="0.47872">
        <ele>125.07</ele>
        <time>2023-06-07T21:35:33.789Z</time>
      </trkpt>
      <trkpt lat="46.65268" lon="0.47882">
        <ele>124.83</ele>
        <time>2023-06-07T21:35:39.366Z</time>
      </trkpt>
      <trkpt lat="46.65291" lon="0.47931">
        <ele>123.87</ele>
        <time>2023-06-07T21:35:44.950Z</time>
      </trkpt>
      <trkpt lat="46.65304" lon="0.47958">
        <ele>123.39</ele>
        <time>2023-06-07T21:35:50.537Z</time>
      </trkpt>
      <trkpt lat="46.65309" lon="0.47968">
        <ele>123.22</ele>
        <time>2023-06-07T21:35:56.126Z</time>
      </trkpt>
      <trkpt lat="46.65314" lon="0.47979">
        <ele>123.09</ele>
        <time>2023-06-07T21:36:01.716Z</time>
      </trkpt>
      <trkpt lat="46.65332" lon="0.48016">
        <ele>122.75</ele>
        <time>2023-06-07T21:36:07.311Z</time>
      </trkpt>
      <trkpt lat="46.65337" lon="0.48027">
        <ele>122.68</ele>
        <time>2023-06-07T21:36:12.908Z</time>
      </trkpt>
      <trkpt lat="46.65353" lon="0.48059">
        <ele>122.55</ele>
        <time>2023-06-07T21:36:18.509Z</time>
      </trkpt>
      <trkpt lat="46.65356" lon="0.48066">
        <ele>122.39</ele>
        <time>2023-06-07T21:36:24.111Z</time>
      </trkpt>
      <trkpt lat="46.65348" lon="0.48088">
        <ele>121.93</ele>
        <time>2023-06-07T21:36:29.715Z</time>
      </trkpt>
      <trkpt lat="46.65342" lon="0.48105">
        <ele>121.62</ele>
        <time>2023-06-07T21:36:35.322Z</time>
      </trkpt>
      <trkpt lat="46.65336" lon="0.48123">
        <ele>121.35</ele>
        <time>2023-06-07T21:36:40.931Z</time>
      </trkpt>
      <trkpt lat="46.65332" lon="0.48135">
        <ele>121.21</ele>
        <time>2023-06-07T21:36:46.541Z</time>
      </trkpt>
      <trkpt lat="46.65324" lon="0.48158">
        <ele>120.98</ele>
        <time>2023-06-07T21:36:52.154Z</time>
      </trkpt>
      <trkpt lat="46.65314" lon="0.48187">
        <ele>120.61</ele>
        <time>2023-06-07T21:36:57.771Z</time>
      </trkpt>
      <trkpt lat="46.65298" lon="0.48234">
        <ele>120.07</ele>
        <time>2023-06-07T21:37:03.393Z</time>
      </trkpt>
      <trkpt lat="46.6529" lon="0.48257">
        <ele>119.85</ele>
        <time>2023-06-07T21:37:09.018Z</time>
      </trkpt>
      <trkpt lat="46.65284" lon="0.48275">
        <ele>119.74</ele>
        <time>2023-06-07T21:37:14.645Z</time>
      </trkpt>
      <trkpt lat="46.6528" lon="0.48287">
        <ele>119.7</ele>
        <time>2023-06-07T21:37:20.274Z</time>
      </trkpt>
      <trkpt lat="46.65274" lon="0.48304">
        <ele>119.72</ele>
        <time>2023-06-07T21:37:25.905Z</time>
      </trkpt>
      <trkpt lat="46.6527" lon="0.48316">
        <ele>119.79</ele>
        <time>2023-06-07T21:37:31.538Z</time>
      </trkpt>
      <trkpt lat="46.65266" lon="0.48327">
        <ele>119.93</ele>
        <time>2023-06-07T21:37:37.172Z</time>
      </trkpt>
      <trkpt lat="46.65264" lon="0.48334">
        <ele>120.03</ele>
        <time>2023-06-07T21:37:42.807Z</time>
      </trkpt>
      <trkpt lat="46.65264" lon="0.48334">
        <ele>120.03</ele>
        <time>2023-06-07T21:37:48.442Z</time>
      </trkpt>
      <trkpt lat="46.65265" lon="0.48346">
        <ele>120.28</ele>
        <time>2023-06-07T21:37:54.078Z</time>
      </trkpt>
      <trkpt lat="46.65266" lon="0.48392">
        <ele>121.37</ele>
        <time>2023-06-07T21:37:59.719Z</time>
      </trkpt>
      <trkpt lat="46.65267" lon="0.48405">
        <ele>121.63</ele>
        <time>2023-06-07T21:38:05.362Z</time>
      </trkpt>
      <trkpt lat="46.65267" lon="0.48411">
        <ele>121.74</ele>
        <time>2023-06-07T21:38:11.005Z</time>
      </trkpt>
      <trkpt lat="46.65268" lon="0.48418">
        <ele>121.84</ele>
        <time>2023-06-07T21:38:16.649Z</time>
      </trkpt>
      <trkpt lat="46.65268" lon="0.48431">
        <ele>121.97</ele>
        <time>2023-06-07T21:38:22.294Z</time>
      </trkpt>
      <trkpt lat="46.65269" lon="0.48444">
        <ele>122.06</ele>
        <time>2023-06-07T21:38:27.941Z</time>
      </trkpt>
      <trkpt lat="46.65269" lon="0.48457">
        <ele>122.11</ele>
        <time>2023-06-07T21:38:33.589Z</time>
      </trkpt>
      <trkpt lat="46.6527" lon="0.4847">
        <ele>122.12</ele>
        <time>2023-06-07T21:38:39.239Z</time>
      </trkpt>
      <trkpt lat="46.6527" lon="0.48483">
        <ele>122.09</ele>
        <time>2023-06-07T21:38:44.890Z</time>
      </trkpt>
      <trkpt lat="46.65271" lon="0.48496">
        <ele>122</ele>
        <time>2023-06-07T21:38:50.543Z</time>
      </trkpt>
      <trkpt lat="46.65271" lon="0.48509">
        <ele>121.83</ele>
        <time>2023-06-07T21:38:56.197Z</time>
      </trkpt>
      <trkpt lat="46.65272" lon="0.48522">
        <ele>121.59</ele>
        <time>2023-06-07T21:39:01.853Z</time>
      </trkpt>
      <trkpt lat="46.65273" lon="0.48535">
        <ele>121.31</ele>
        <time>2023-06-07T21:39:07.510Z</time>
      </trkpt>
      <trkpt lat="46.65273" lon="0.48545">
        <ele>121.08</ele>
        <time>2023-06-07T21:39:13.168Z</time>
      </trkpt>
      <trkpt lat="46.65274" lon="0.48561">
        <ele>120.72</ele>
        <time>2023-06-07T21:39:18.828Z</time>
      </trkpt>
      <trkpt lat="46.65275" lon="0.48574">
        <ele>120.47</ele>
        <time>2023-06-07T21:39:24.489Z</time>
      </trkpt>
      <trkpt lat="46.65275" lon="0.48581">
        <ele>120.37</ele>
        <time>2023-06-07T21:39:30.151Z</time>
      </trkpt>
      <trkpt lat="46.65275" lon="0.48587">
        <ele>120.31</ele>
        <time>2023-06-07T21:39:35.814Z</time>
      </trkpt>
      <trkpt lat="46.65276" lon="0.486">
        <ele>120.25</ele>
        <time>2023-06-07T21:39:41.478Z</time>
      </trkpt>
      <trkpt lat="46.65277" lon="0.48607">
        <ele>120.27</ele>
        <time>2023-06-07T21:39:47.143Z</time>
      </trkpt>
      <trkpt lat="46.65277" lon="0.4862">
        <ele>120.37</ele>
        <time>2023-06-07T21:39:52.809Z</time>
      </trkpt>
      <trkpt lat="46.65278" lon="0.48633">
        <ele>120.57</ele>
        <time>2023-06-07T21:39:58.477Z</time>
      </trkpt>
      <trkpt lat="46.65278" lon="0.48639">
        <ele>120.71</ele>
        <time>2023-06-07T21:40:04.146Z</time>
      </trkpt>
      <trkpt lat="46.65279" lon="0.48646">
        <ele>120.88</ele>
        <time>2023-06-07T21:40:09.815Z</time>
      </trkpt>
      <trkpt lat="46.65279" lon="0.48652">
        <ele>121.08</ele>
        <time>2023-06-07T21:40:15.485Z</time>
      </trkpt>
      <trkpt lat="46.6528" lon="0.48659">
        <ele>121.33</ele>
        <time>2023-06-07T21:40:21.156Z</time>
      </trkpt>
      <trkpt lat="46.6528" lon="0.48665">
        <ele>121.62</ele>
        <time>2023-06-07T21:40:26.827Z</time>
      </trkpt>
      <trkpt lat="46.6528" lon="0.48672">
        <ele>121.94</ele>
        <time>2023-06-07T21:40:32.499Z</time>
      </trkpt>
      <trkpt lat="46.65283" lon="0.48717">
        <ele>124.21</ele>
        <time>2023-06-07T21:40:38.176Z</time>
      </trkpt>
      <trkpt lat="46.65284" lon="0.48737">
        <ele>125.1</ele>
        <time>2023-06-07T21:40:43.855Z</time>
      </trkpt>
      <trkpt lat="46.65287" lon="0.48789">
        <ele>127.27</ele>
        <time>2023-06-07T21:40:49.540Z</time>
      </trkpt>
      <trkpt lat="46.6529" lon="0.48839">
        <ele>129.24</ele>
        <time>2023-06-07T21:40:55.231Z</time>
      </trkpt>
      <trkpt lat="46.6529" lon="0.48854">
        <ele>129.84</ele>
        <time>2023-06-07T21:41:00.923Z</time>
      </trkpt>
      <trkpt lat="46.6529" lon="0.48867">
        <ele>130.31</ele>
        <time>2023-06-07T21:41:06.617Z</time>
      </trkpt>
      <trkpt lat="46.6529" lon="0.489">
        <ele>131.4</ele>
        <time>2023-06-07T21:41:12.314Z</time>
      </trkpt>
      <trkpt lat="46.6529" lon="0.48913">
        <ele>131.78</ele>
        <time>2023-06-07T21:41:18.013Z</time>
      </trkpt>
      <trkpt lat="46.65289" lon="0.48952">
        <ele>132.82</ele>
        <time>2023-06-07T21:41:23.716Z</time>
      </trkpt>
      <trkpt lat="46.65289" lon="0.48965">
        <ele>133.14</ele>
        <time>2023-06-07T21:41:29.420Z</time>
      </trkpt>
      <trkpt lat="46.65289" lon="0.48991">
        <ele>133.74</ele>
        <time>2023-06-07T21:41:35.127Z</time>
      </trkpt>
      <trkpt lat="46.65289" lon="0.49017">
        <ele>134.42</ele>
        <time>2023-06-07T21:41:40.837Z</time>
      </trkpt>
      <trkpt lat="46.65289" lon="0.4903">
        <ele>134.74</ele>
        <time>2023-06-07T21:41:46.549Z</time>
      </trkpt>
      <trkpt lat="46.65288" lon="0.49076">
        <ele>135.7</ele>
        <time>2023-06-07T21:41:52.266Z</time>
      </trkpt>
      <trkpt lat="46.65288" lon="0.49115">
        <ele>136.59</ele>
        <time>2023-06-07T21:41:57.987Z</time>
      </trkpt>
      <trkpt lat="46.65288" lon="0.49128">
        <ele>136.83</ele>
        <time>2023-06-07T21:42:03.709Z</time>
      </trkpt>
      <trkpt lat="46.65288" lon="0.49141">
        <ele>136.99</ele>
        <time>2023-06-07T21:42:09.433Z</time>
      </trkpt>
      <trkpt lat="46.65288" lon="0.49151">
        <ele>137.04</ele>
        <time>2023-06-07T21:42:15.158Z</time>
      </trkpt>
      <trkpt lat="46.65288" lon="0.49154">
        <ele>137.07</ele>
        <time>2023-06-07T21:42:20.883Z</time>
      </trkpt>
      <trkpt lat="46.65283" lon="0.49186">
        <ele>137.1</ele>
        <time>2023-06-07T21:42:26.612Z</time>
      </trkpt>
      <trkpt lat="46.65277" lon="0.49238">
        <ele>137.28</ele>
        <time>2023-06-07T21:42:32.347Z</time>
      </trkpt>
      <trkpt lat="46.65275" lon="0.49251">
        <ele>137.29</ele>
        <time>2023-06-07T21:42:38.083Z</time>
      </trkpt>
      <trkpt lat="46.65273" lon="0.49263">
        <ele>137.24</ele>
        <time>2023-06-07T21:42:43.821Z</time>
      </trkpt>
      <trkpt lat="46.65269" lon="0.49301">
        <ele>135.84</ele>
        <time>2023-06-07T21:42:49.563Z</time>
      </trkpt>
      <trkpt lat="46.65266" lon="0.4932">
        <ele>135.19</ele>
        <time>2023-06-07T21:42:55.307Z</time>
      </trkpt>
      <trkpt lat="46.65264" lon="0.49333">
        <ele>134.8</ele>
        <time>2023-06-07T21:43:01.052Z</time>
      </trkpt>
      <trkpt lat="46.65262" lon="0.49352">
        <ele>134.26</ele>
        <time>2023-06-07T21:43:06.799Z</time>
      </trkpt>
      <trkpt lat="46.6526" lon="0.49364">
        <ele>133.94</ele>
        <time>2023-06-07T21:43:12.548Z</time>
      </trkpt>
      <trkpt lat="46.6526" lon="0.4937">
        <ele>133.8</ele>
        <time>2023-06-07T21:43:18.298Z</time>
      </trkpt>
      <trkpt lat="46.65258" lon="0.49383">
        <ele>133.57</ele>
        <time>2023-06-07T21:43:24.049Z</time>
      </trkpt>
      <trkpt lat="46.65257" lon="0.4939">
        <ele>133.45</ele>
        <time>2023-06-07T21:43:29.801Z</time>
      </trkpt>
      <trkpt lat="46.65255" lon="0.49395">
        <ele>133.37</ele>
        <time>2023-06-07T21:43:35.553Z</time>
      </trkpt>
      <trkpt lat="46.65244" lon="0.49415">
        <ele>133.02</ele>
        <time>2023-06-07T21:43:41.308Z</time>
      </trkpt>
      <trkpt lat="46.65224" lon="0.49457">
        <ele>132.48</ele>
        <time>2023-06-07T21:43:47.069Z</time>
      </trkpt>
      <trkpt lat="46.65211" lon="0.49483">
        <ele>132.16</ele>
        <time>2023-06-07T21:43:52.833Z</time>
      </trkpt>
      <trkpt lat="46.65206" lon="0.49493">
        <ele>131.98</ele>
        <time>2023-06-07T21:43:58.599Z</time>
      </trkpt>
      <trkpt lat="46.65198" lon="0.49509">
        <ele>131.63</ele>
        <time>2023-06-07T21:44:04.367Z</time>
      </trkpt>
      <trkpt lat="46.65195" lon="0.49515">
        <ele>131.69</ele>
        <time>2023-06-07T21:44:10.136Z</time>
      </trkpt>
      <trkpt lat="46.65193" lon="0.4952">
        <ele>131.74</ele>
        <time>2023-06-07T21:44:15.905Z</time>
      </trkpt>
      <trkpt lat="46.65189" lon="0.49531">
        <ele>131.81</ele>
        <time>2023-06-07T21:44:21.676Z</time>
      </trkpt>
      <trkpt lat="46.65186" lon="0.49543">
        <ele>131.83</ele>
        <time>2023-06-07T21:44:27.448Z</time>
      </trkpt>
      <trkpt lat="46.65182" lon="0.49555">
        <ele>131.82</ele>
        <time>2023-06-07T21:44:33.222Z</time>
      </trkpt>
      <trkpt lat="46.65174" lon="0.49578">
        <ele>131.74</ele>
        <time>2023-06-07T21:44:38.999Z</time>
      </trkpt>
      <trkpt lat="46.65162" lon="0.49613">
        <ele>131.67</ele>
        <time>2023-06-07T21:44:44.780Z</time>
      </trkpt>
      <trkpt lat="46.65156" lon="0.49631">
        <ele>131.54</ele>
        <time>2023-06-07T21:44:50.563Z</time>
      </trkpt>
      <trkpt lat="46.65152" lon="0.49642">
        <ele>131.43</ele>
        <time>2023-06-07T21:44:56.347Z</time>
      </trkpt>
      <trkpt lat="46.6515" lon="0.49648">
        <ele>131.35</ele>
        <time>2023-06-07T21:45:02.132Z</time>
      </trkpt>
      <trkpt lat="46.65148" lon="0.49654">
        <ele>131.24</ele>
        <time>2023-06-07T21:45:07.918Z</time>
      </trkpt>
      <trkpt lat="46.65146" lon="0.4966">
        <ele>131.11</ele>
        <time>2023-06-07T21:45:13.705Z</time>
      </trkpt>
      <trkpt lat="46.6514" lon="0.49677">
        <ele>130.68</ele>
        <time>2023-06-07T21:45:19.494Z</time>
      </trkpt>
      <trkpt lat="46.65136" lon="0.49689">
        <ele>130.36</ele>
        <time>2023-06-07T21:45:25.284Z</time>
      </trkpt>
      <trkpt lat="46.65132" lon="0.49701">
        <ele>129.97</ele>
        <time>2023-06-07T21:45:31.076Z</time>
      </trkpt>
      <trkpt lat="46.6513" lon="0.49707">
        <ele>129.75</ele>
        <time>2023-06-07T21:45:36.868Z</time>
      </trkpt>
      <trkpt lat="46.65122" lon="0.4973">
        <ele>128.78</ele>
        <time>2023-06-07T21:45:42.663Z</time>
      </trkpt>
      <trkpt lat="46.65116" lon="0.49747">
        <ele>128.15</ele>
        <time>2023-06-07T21:45:48.460Z</time>
      </trkpt>
      <trkpt lat="46.65113" lon="0.49759">
        <ele>127.8</ele>
        <time>2023-06-07T21:45:54.259Z</time>
      </trkpt>
      <trkpt lat="46.65111" lon="0.49765">
        <ele>127.64</ele>
        <time>2023-06-07T21:46:00.058Z</time>
      </trkpt>
      <trkpt lat="46.65107" lon="0.49777">
        <ele>127.36</ele>
        <time>2023-06-07T21:46:05.859Z</time>
      </trkpt>
      <trkpt lat="46.65103" lon="0.49788">
        <ele>127.12</ele>
        <time>2023-06-07T21:46:11.661Z</time>
      </trkpt>
      <trkpt lat="46.65099" lon="0.498">
        <ele>126.93</ele>
        <time>2023-06-07T21:46:17.465Z</time>
      </trkpt>
      <trkpt lat="46.65085" lon="0.49841">
        <ele>126.42</ele>
        <time>2023-06-07T21:46:23.274Z</time>
      </trkpt>
      <trkpt lat="46.65079" lon="0.49858">
        <ele>126.28</ele>
        <time>2023-06-07T21:46:29.085Z</time>
      </trkpt>
      <trkpt lat="46.65071" lon="0.49882">
        <ele>126.22</ele>
        <time>2023-06-07T21:46:34.899Z</time>
      </trkpt>
      <trkpt lat="46.65069" lon="0.49888">
        <ele>125.98</ele>
        <time>2023-06-07T21:46:40.714Z</time>
      </trkpt>
      <trkpt lat="46.65067" lon="0.499">
        <ele>125.59</ele>
        <time>2023-06-07T21:46:46.530Z</time>
      </trkpt>
      <trkpt lat="46.65062" lon="0.49924">
        <ele>124.82</ele>
        <time>2023-06-07T21:46:52.349Z</time>
      </trkpt>
      <trkpt lat="46.65057" lon="0.49949">
        <ele>124.13</ele>
        <time>2023-06-07T21:46:58.171Z</time>
      </trkpt>
      <trkpt lat="46.6505" lon="0.49986">
        <ele>123.2</ele>
        <time>2023-06-07T21:47:03.997Z</time>
      </trkpt>
      <trkpt lat="46.65043" lon="0.50023">
        <ele>122.19</ele>
        <time>2023-06-07T21:47:09.827Z</time>
      </trkpt>
      <trkpt lat="46.65038" lon="0.50048">
        <ele>121.44</ele>
        <time>2023-06-07T21:47:15.660Z</time>
      </trkpt>
      <trkpt lat="46.65035" lon="0.50066">
        <ele>120.8</ele>
        <time>2023-06-07T21:47:21.495Z</time>
      </trkpt>
      <trkpt lat="46.65026" lon="0.5011">
        <ele>120.38</ele>
        <time>2023-06-07T21:47:27.335Z</time>
      </trkpt>
      <trkpt lat="46.65023" lon="0.50129">
        <ele>120.16</ele>
        <time>2023-06-07T21:47:33.177Z</time>
      </trkpt>
      <trkpt lat="46.65017" lon="0.5016">
        <ele>119.72</ele>
        <time>2023-06-07T21:47:39.023Z</time>
      </trkpt>
      <trkpt lat="46.65016" lon="0.50163">
        <ele>119.69</ele>
        <time>2023-06-07T21:47:44.869Z</time>
      </trkpt>
      <trkpt lat="46.65014" lon="0.50179">
        <ele>119.54</ele>
        <time>2023-06-07T21:47:50.717Z</time>
      </trkpt>
      <trkpt lat="46.65013" lon="0.50192">
        <ele>119.49</ele>
        <time>2023-06-07T21:47:56.566Z</time>
      </trkpt>
      <trkpt lat="46.65011" lon="0.50205">
        <ele>119.48</ele>
        <time>2023-06-07T21:48:02.417Z</time>
      </trkpt>
      <trkpt lat="46.65009" lon="0.50224">
        <ele>119.53</ele>
        <time>2023-06-07T21:48:08.270Z</time>
      </trkpt>
      <trkpt lat="46.65006" lon="0.50256">
        <ele>119.57</ele>
        <time>2023-06-07T21:48:14.126Z</time>
      </trkpt>
      <trkpt lat="46.65005" lon="0.50264">
        <ele>119.75</ele>
        <time>2023-06-07T21:48:19.983Z</time>
      </trkpt>
      <trkpt lat="46.64995" lon="0.50275">
        <ele>120.17</ele>
        <time>2023-06-07T21:48:25.842Z</time>
      </trkpt>
      <trkpt lat="46.6495" lon="0.50328">
        <ele>122.01</ele>
        <time>2023-06-07T21:48:31.711Z</time>
      </trkpt>
      <trkpt lat="46.64939" lon="0.50341">
        <ele>122.37</ele>
        <time>2023-06-07T21:48:37.582Z</time>
      </trkpt>
      <trkpt lat="46.64933" lon="0.50349">
        <ele>122.52</ele>
        <time>2023-06-07T21:48:43.454Z</time>
      </trkpt>
      <trkpt lat="46.64912" lon="0.50373">
        <ele>122.88</ele>
        <time>2023-06-07T21:48:49.331Z</time>
      </trkpt>
      <trkpt lat="46.64905" lon="0.50381">
        <ele>122.98</ele>
        <time>2023-06-07T21:48:55.209Z</time>
      </trkpt>
      <trkpt lat="46.64891" lon="0.50398">
        <ele>123.13</ele>
        <time>2023-06-07T21:49:01.090Z</time>
      </trkpt>
      <trkpt lat="46.64884" lon="0.50406">
        <ele>123.18</ele>
        <time>2023-06-07T21:49:06.972Z</time>
      </trkpt>
      <trkpt lat="46.64873" lon="0.50418">
        <ele>123.21</ele>
        <time>2023-06-07T21:49:12.856Z</time>
      </trkpt>
      <trkpt lat="46.64866" lon="0.50426">
        <ele>123.21</ele>
        <time>2023-06-07T21:49:18.742Z</time>
      </trkpt>
      <trkpt lat="46.64863" lon="0.5043">
        <ele>123.19</ele>
        <time>2023-06-07T21:49:24.629Z</time>
      </trkpt>
      <trkpt lat="46.64859" lon="0.50434">
        <ele>123.18</ele>
        <time>2023-06-07T21:49:30.516Z</time>
      </trkpt>
      <trkpt lat="46.64845" lon="0.5045">
        <ele>123.06</ele>
        <time>2023-06-07T21:49:36.406Z</time>
      </trkpt>
      <trkpt lat="46.64838" lon="0.50457">
        <ele>123.03</ele>
        <time>2023-06-07T21:49:42.298Z</time>
      </trkpt>
      <trkpt lat="46.64812" lon="0.50485">
        <ele>123.03</ele>
        <time>2023-06-07T21:49:48.195Z</time>
      </trkpt>
      <trkpt lat="46.64809" lon="0.50488">
        <ele>123.01</ele>
        <time>2023-06-07T21:49:54.092Z</time>
      </trkpt>
      <trkpt lat="46.64802" lon="0.50496">
        <ele>122.91</ele>
        <time>2023-06-07T21:49:59.991Z</time>
      </trkpt>
      <trkpt lat="46.64797" lon="0.50501">
        <ele>122.89</ele>
        <time>2023-06-07T21:50:05.891Z</time>
      </trkpt>
      <trkpt lat="46.64791" lon="0.50508">
        <ele>122.88</ele>
        <time>2023-06-07T21:50:11.792Z</time>
      </trkpt>
      <trkpt lat="46.64773" lon="0.50527">
        <ele>122.68</ele>
        <time>2023-06-07T21:50:17.697Z</time>
      </trkpt>
      <trkpt lat="46.64755" lon="0.50546">
        <ele>122.56</ele>
        <time>2023-06-07T21:50:23.605Z</time>
      </trkpt>
      <trkpt lat="46.64736" lon="0.50566">
        <ele>122.41</ele>
        <time>2023-06-07T21:50:29.517Z</time>
      </trkpt>
      <trkpt lat="46.64707" lon="0.50597">
        <ele>122.23</ele>
        <time>2023-06-07T21:50:35.434Z</time>
      </trkpt>
      <trkpt lat="46.647" lon="0.50605">
        <ele>122.15</ele>
        <time>2023-06-07T21:50:41.353Z</time>
      </trkpt>
      <trkpt lat="46.64689" lon="0.50616">
        <ele>121.99</ele>
        <time>2023-06-07T21:50:47.274Z</time>
      </trkpt>
      <trkpt lat="46.64675" lon="0.50632">
        <ele>121.84</ele>
        <time>2023-06-07T21:50:53.198Z</time>
      </trkpt>
      <trkpt lat="46.64664" lon="0.50644">
        <ele>121.79</ele>
        <time>2023-06-07T21:50:59.124Z</time>
      </trkpt>
      <trkpt lat="46.64653" lon="0.50655">
        <ele>121.79</ele>
        <time>2023-06-07T21:51:05.052Z</time>
      </trkpt>
      <trkpt lat="46.64646" lon="0.50663">
        <ele>121.83</ele>
        <time>2023-06-07T21:51:10.982Z</time>
      </trkpt>
      <trkpt lat="46.64635" lon="0.50675">
        <ele>121.92</ele>
        <time>2023-06-07T21:51:16.914Z</time>
      </trkpt>
      <trkpt lat="46.64631" lon="0.50679">
        <ele>121.97</ele>
        <time>2023-06-07T21:51:22.847Z</time>
      </trkpt>
      <trkpt lat="46.64624" lon="0.50686">
        <ele>122.11</ele>
        <time>2023-06-07T21:51:28.781Z</time>
      </trkpt>
      <trkpt lat="46.64613" lon="0.50698">
        <ele>122.4</ele>
        <time>2023-06-07T21:51:34.717Z</time>
      </trkpt>
      <trkpt lat="46.64603" lon="0.5071">
        <ele>122.59</ele>
        <time>2023-06-07T21:51:40.655Z</time>
      </trkpt>
      <trkpt lat="46.64595" lon="0.50717">
        <ele>122.77</ele>
        <time>2023-06-07T21:51:46.595Z</time>
      </trkpt>
      <trkpt lat="46.64588" lon="0.50725">
        <ele>123</ele>
        <time>2023-06-07T21:51:52.536Z</time>
      </trkpt>
      <trkpt lat="46.64577" lon="0.50737">
        <ele>123.4</ele>
        <time>2023-06-07T21:51:58.479Z</time>
      </trkpt>
      <trkpt lat="46.6457" lon="0.50744">
        <ele>123.64</ele>
        <time>2023-06-07T21:52:04.424Z</time>
      </trkpt>
      <trkpt lat="46.64563" lon="0.50752">
        <ele>123.84</ele>
        <time>2023-06-07T21:52:10.370Z</time>
      </trkpt>
      <trkpt lat="46.64556" lon="0.5076">
        <ele>124.01</ele>
        <time>2023-06-07T21:52:16.318Z</time>
      </trkpt>
      <trkpt lat="46.64545" lon="0.50771">
        <ele>124.17</ele>
        <time>2023-06-07T21:52:22.268Z</time>
      </trkpt>
      <trkpt lat="46.64534" lon="0.50783">
        <ele>124.25</ele>
        <time>2023-06-07T21:52:28.220Z</time>
      </trkpt>
      <trkpt lat="46.64523" lon="0.50795">
        <ele>124.26</ele>
        <time>2023-06-07T21:52:34.174Z</time>
      </trkpt>
      <trkpt lat="46.64513" lon="0.50806">
        <ele>124.24</ele>
        <time>2023-06-07T21:52:40.130Z</time>
      </trkpt>
      <trkpt lat="46.64508" lon="0.50811">
        <ele>124.3</ele>
        <time>2023-06-07T21:52:46.087Z</time>
      </trkpt>
      <trkpt lat="46.6452" lon="0.50836">
        <ele>124.53</ele>
        <time>2023-06-07T21:52:52.048Z</time>
      </trkpt>
      <trkpt lat="46.64528" lon="0.50852">
        <ele>124.73</ele>
        <time>2023-06-07T21:52:58.011Z</time>
      </trkpt>
      <trkpt lat="46.64533" lon="0.50862">
        <ele>124.9</ele>
        <time>2023-06-07T21:53:03.975Z</time>
      </trkpt>
      <trkpt lat="46.64539" lon="0.50873">
        <ele>125.11</ele>
        <time>2023-06-07T21:53:09.941Z</time>
      </trkpt>
      <trkpt lat="46.64557" lon="0.5091">
        <ele>125.94</ele>
        <time>2023-06-07T21:53:15.912Z</time>
      </trkpt>
      <trkpt lat="46.64573" lon="0.50941">
        <ele>126.6</ele>
        <time>2023-06-07T21:53:21.887Z</time>
      </trkpt>
      <trkpt lat="46.64578" lon="0.50952">
        <ele>126.8</ele>
        <time>2023-06-07T21:53:27.863Z</time>
      </trkpt>
      <trkpt lat="46.64586" lon="0.50968">
        <ele>127.06</ele>
        <time>2023-06-07T21:53:33.841Z</time>
      </trkpt>
      <trkpt lat="46.64591" lon="0.50978">
        <ele>127.25</ele>
        <time>2023-06-07T21:53:39.821Z</time>
      </trkpt>
      <trkpt lat="46.64615" lon="0.51026">
        <ele>128.23</ele>
        <time>2023-06-07T21:53:45.807Z</time>
      </trkpt>
      <trkpt lat="46.64628" lon="0.51052">
        <ele>128.71</ele>
        <time>2023-06-07T21:53:51.797Z</time>
      </trkpt>
      <trkpt lat="46.64641" lon="0.51078">
        <ele>129.23</ele>
        <time>2023-06-07T21:53:57.790Z</time>
      </trkpt>
      <trkpt lat="46.64646" lon="0.51089">
        <ele>129.39</ele>
        <time>2023-06-07T21:54:03.785Z</time>
      </trkpt>
      <trkpt lat="46.64656" lon="0.5111">
        <ele>129.65</ele>
        <time>2023-06-07T21:54:09.783Z</time>
      </trkpt>
      <trkpt lat="46.64664" lon="0.51126">
        <ele>129.81</ele>
        <time>2023-06-07T21:54:15.783Z</time>
      </trkpt>
      <trkpt lat="46.6467" lon="0.51136">
        <ele>129.95</ele>
        <time>2023-06-07T21:54:21.784Z</time>
      </trkpt>
      <trkpt lat="46.64701" lon="0.512">
        <ele>130.94</ele>
        <time>2023-06-07T21:54:27.794Z</time>
      </trkpt>
      <trkpt lat="46.64712" lon="0.51221">
        <ele>131.24</ele>
        <time>2023-06-07T21:54:33.807Z</time>
      </trkpt>
      <trkpt lat="46.64743" lon="0.51284">
        <ele>131.87</ele>
        <time>2023-06-07T21:54:39.829Z</time>
      </trkpt>
      <trkpt lat="46.64756" lon="0.51311">
        <ele>132.2</ele>
        <time>2023-06-07T21:54:45.854Z</time>
      </trkpt>
      <trkpt lat="46.64764" lon="0.51327">
        <ele>132.43</ele>
        <time>2023-06-07T21:54:51.881Z</time>
      </trkpt>
      <trkpt lat="46.64772" lon="0.51342">
        <ele>132.68</ele>
        <time>2023-06-07T21:54:57.910Z</time>
      </trkpt>
      <trkpt lat="46.64798" lon="0.51395">
        <ele>133.6</ele>
        <time>2023-06-07T21:55:03.947Z</time>
      </trkpt>
      <trkpt lat="46.64804" lon="0.51406">
        <ele>133.75</ele>
        <time>2023-06-07T21:55:09.985Z</time>
      </trkpt>
      <trkpt lat="46.64811" lon="0.51422">
        <ele>133.89</ele>
        <time>2023-06-07T21:55:16.025Z</time>
      </trkpt>
      <trkpt lat="46.64815" lon="0.51429">
        <ele>133.97</ele>
        <time>2023-06-07T21:55:22.066Z</time>
      </trkpt>
      <trkpt lat="46.64813" lon="0.51439">
        <ele>134.08</ele>
        <time>2023-06-07T21:55:28.108Z</time>
      </trkpt>
      <trkpt lat="46.64809" lon="0.51458">
        <ele>134.21</ele>
        <time>2023-06-07T21:55:34.152Z</time>
      </trkpt>
      <trkpt lat="46.64794" lon="0.51532">
        <ele>134.53</ele>
        <time>2023-06-07T21:55:40.205Z</time>
      </trkpt>
      <trkpt lat="46.6479" lon="0.51551">
        <ele>134.62</ele>
        <time>2023-06-07T21:55:46.260Z</time>
      </trkpt>
      <trkpt lat="46.64785" lon="0.51589">
        <ele>134.8</ele>
        <time>2023-06-07T21:55:52.319Z</time>
      </trkpt>
      <trkpt lat="46.64782" lon="0.51607">
        <ele>134.91</ele>
        <time>2023-06-07T21:55:58.381Z</time>
      </trkpt>
      <trkpt lat="46.64773" lon="0.5163">
        <ele>135.07</ele>
        <time>2023-06-07T21:56:04.445Z</time>
      </trkpt>
      <trkpt lat="46.64755" lon="0.51675">
        <ele>135.41</ele>
        <time>2023-06-07T21:56:10.515Z</time>
      </trkpt>
      <trkpt lat="46.64742" lon="0.51709">
        <ele>135.55</ele>
        <time>2023-06-07T21:56:16.589Z</time>
      </trkpt>
      <trkpt lat="46.64738" lon="0.5172">
        <ele>135.64</ele>
        <time>2023-06-07T21:56:22.665Z</time>
      </trkpt>
      <trkpt lat="46.64726" lon="0.5175">
        <ele>135.92</ele>
        <time>2023-06-07T21:56:28.745Z</time>
      </trkpt>
      <trkpt lat="46.64725" lon="0.51755">
        <ele>135.97</ele>
        <time>2023-06-07T21:56:34.825Z</time>
      </trkpt>
      <trkpt lat="46.64722" lon="0.51774">
        <ele>136.08</ele>
        <time>2023-06-07T21:56:40.907Z</time>
      </trkpt>
      <trkpt lat="46.64719" lon="0.51792">
        <ele>136.16</ele>
        <time>2023-06-07T21:56:46.991Z</time>
      </trkpt>
      <trkpt lat="46.64714" lon="0.51824">
        <ele>136.22</ele>
        <time>2023-06-07T21:56:53.079Z</time>
      </trkpt>
      <trkpt lat="46.64711" lon="0.51843">
        <ele>136.21</ele>
        <time>2023-06-07T21:56:59.169Z</time>
      </trkpt>
      <trkpt lat="46.64707" lon="0.51867">
        <ele>136.12</ele>
        <time>2023-06-07T21:57:05.262Z</time>
      </trkpt>
      <trkpt lat="46.64703" lon="0.5188">
        <ele>136.08</ele>
        <time>2023-06-07T21:57:11.356Z</time>
      </trkpt>
      <trkpt lat="46.64686" lon="0.51926">
        <ele>135.83</ele>
        <time>2023-06-07T21:57:17.456Z</time>
      </trkpt>
      <trkpt lat="46.6468" lon="0.51943">
        <ele>135.76</ele>
        <time>2023-06-07T21:57:23.558Z</time>
      </trkpt>
      <trkpt lat="46.64676" lon="0.51955">
        <ele>135.75</ele>
        <time>2023-06-07T21:57:29.662Z</time>
      </trkpt>
      <trkpt lat="46.6467" lon="0.51972">
        <ele>135.79</ele>
        <time>2023-06-07T21:57:35.768Z</time>
      </trkpt>
      <trkpt lat="46.64667" lon="0.5198">
        <ele>135.75</ele>
        <time>2023-06-07T21:57:41.875Z</time>
      </trkpt>
      <trkpt lat="46.64653" lon="0.52024">
        <ele>135.58</ele>
        <time>2023-06-07T21:57:47.987Z</time>
      </trkpt>
      <trkpt lat="46.64645" lon="0.52048">
        <ele>135.57</ele>
        <time>2023-06-07T21:57:54.102Z</time>
      </trkpt>
      <trkpt lat="46.6464" lon="0.52064">
        <ele>135.59</ele>
        <time>2023-06-07T21:58:00.219Z</time>
      </trkpt>
      <trkpt lat="46.6464" lon="0.52066">
        <ele>135.6</ele>
        <time>2023-06-07T21:58:06.336Z</time>
      </trkpt>
      <trkpt lat="46.64638" lon="0.52078">
        <ele>135.65</ele>
        <time>2023-06-07T21:58:12.455Z</time>
      </trkpt>
      <trkpt lat="46.64634" lon="0.52117">
        <ele>135.88</ele>
        <time>2023-06-07T21:58:18.578Z</time>
      </trkpt>
      <trkpt lat="46.6463" lon="0.52157">
        <ele>135.96</ele>
        <time>2023-06-07T21:58:24.705Z</time>
      </trkpt>
      <trkpt lat="46.6463" lon="0.52162">
        <ele>135.98</ele>
        <time>2023-06-07T21:58:30.833Z</time>
      </trkpt>
      <trkpt lat="46.64631" lon="0.52201">
        <ele>136.18</ele>
        <time>2023-06-07T21:58:36.965Z</time>
      </trkpt>
      <trkpt lat="46.64632" lon="0.5224">
        <ele>136.29</ele>
        <time>2023-06-07T21:58:43.102Z</time>
      </trkpt>
      <trkpt lat="46.64632" lon="0.52259">
        <ele>136.37</ele>
        <time>2023-06-07T21:58:49.241Z</time>
      </trkpt>
      <trkpt lat="46.64634" lon="0.52324">
        <ele>136.81</ele>
        <time>2023-06-07T21:58:55.387Z</time>
      </trkpt>
      <trkpt lat="46.64634" lon="0.52333">
        <ele>136.69</ele>
        <time>2023-06-07T21:59:01.534Z</time>
      </trkpt>
      <trkpt lat="46.64631" lon="0.52349">
        <ele>136.48</ele>
        <time>2023-06-07T21:59:07.683Z</time>
      </trkpt>
      <trkpt lat="46.64628" lon="0.52362">
        <ele>136.26</ele>
        <time>2023-06-07T21:59:13.833Z</time>
      </trkpt>
      <trkpt lat="46.64622" lon="0.52393">
        <ele>135.62</ele>
        <time>2023-06-07T21:59:19.987Z</time>
      </trkpt>
      <trkpt lat="46.64617" lon="0.52418">
        <ele>135.04</ele>
        <time>2023-06-07T21:59:26.144Z</time>
      </trkpt>
      <trkpt lat="46.64615" lon="0.52431">
        <ele>134.77</ele>
        <time>2023-06-07T21:59:32.302Z</time>
      </trkpt>
      <trkpt lat="46.64611" lon="0.5245">
        <ele>134.44</ele>
        <time>2023-06-07T21:59:38.462Z</time>
      </trkpt>
      <trkpt lat="46.64609" lon="0.52462">
        <ele>134.26</ele>
        <time>2023-06-07T21:59:44.624Z</time>
      </trkpt>
      <trkpt lat="46.64607" lon="0.52469">
        <ele>134.19</ele>
        <time>2023-06-07T21:59:50.786Z</time>
      </trkpt>
      <trkpt lat="46.64605" lon="0.52481">
        <ele>134.11</ele>
        <time>2023-06-07T21:59:56.950Z</time>
      </trkpt>
      <trkpt lat="46.64601" lon="0.525">
        <ele>134.04</ele>
        <time>2023-06-07T22:00:03.116Z</time>
      </trkpt>
      <trkpt lat="46.64596" lon="0.52525">
        <ele>133.91</ele>
        <time>2023-06-07T22:00:09.285Z</time>
      </trkpt>
      <trkpt lat="46.64589" lon="0.52563">
        <ele>133.76</ele>
        <time>2023-06-07T22:00:15.458Z</time>
      </trkpt>
      <trkpt lat="46.64585" lon="0.52582">
        <ele>133.74</ele>
        <time>2023-06-07T22:00:21.633Z</time>
      </trkpt>
      <trkpt lat="46.64582" lon="0.52597">
        <ele>133.74</ele>
        <time>2023-06-07T22:00:27.810Z</time>
      </trkpt>
      <trkpt lat="46.64577" lon="0.52639">
        <ele>133.74</ele>
        <time>2023-06-07T22:00:33.992Z</time>
      </trkpt>
      <trkpt lat="46.64573" lon="0.52665">
        <ele>133.68</ele>
        <time>2023-06-07T22:00:40.177Z</time>
      </trkpt>
      <trkpt lat="46.64572" lon="0.52674">
        <ele>133.74</ele>
        <time>2023-06-07T22:00:46.363Z</time>
      </trkpt>
      <trkpt lat="46.6457" lon="0.52676">
        <ele>133.77</ele>
        <time>2023-06-07T22:00:52.549Z</time>
      </trkpt>
      <trkpt lat="46.6456" lon="0.52687">
        <ele>133.86</ele>
        <time>2023-06-07T22:00:58.737Z</time>
      </trkpt>
      <trkpt lat="46.64549" lon="0.52699">
        <ele>133.91</ele>
        <time>2023-06-07T22:01:04.927Z</time>
      </trkpt>
      <trkpt lat="46.64538" lon="0.52711">
        <ele>133.93</ele>
        <time>2023-06-07T22:01:11.120Z</time>
      </trkpt>
      <trkpt lat="46.64506" lon="0.52745">
        <ele>133.87</ele>
        <time>2023-06-07T22:01:17.319Z</time>
      </trkpt>
      <trkpt lat="46.6446" lon="0.52795">
        <ele>133.74</ele>
        <time>2023-06-07T22:01:23.527Z</time>
      </trkpt>
      <trkpt lat="46.64455" lon="0.52801">
        <ele>133.71</ele>
        <time>2023-06-07T22:01:29.736Z</time>
      </trkpt>
      <trkpt lat="46.64446" lon="0.5281">
        <ele>133.68</ele>
        <time>2023-06-07T22:01:35.947Z</time>
      </trkpt>
      <trkpt lat="46.64435" lon="0.52822">
        <ele>133.52</ele>
        <time>2023-06-07T22:01:42.160Z</time>
      </trkpt>
      <trkpt lat="46.64428" lon="0.52829">
        <ele>133.34</ele>
        <time>2023-06-07T22:01:48.375Z</time>
      </trkpt>
      <trkpt lat="46.6441" lon="0.52848">
        <ele>132.78</ele>
        <time>2023-06-07T22:01:54.593Z</time>
      </trkpt>
      <trkpt lat="46.64402" lon="0.52856">
        <ele>132.53</ele>
        <time>2023-06-07T22:02:00.813Z</time>
      </trkpt>
      <trkpt lat="46.64395" lon="0.52863">
        <ele>132.24</ele>
        <time>2023-06-07T22:02:07.034Z</time>
      </trkpt>
      <trkpt lat="46.64373" lon="0.52886">
        <ele>131.25</ele>
        <time>2023-06-07T22:02:13.259Z</time>
      </trkpt>
      <trkpt lat="46.64359" lon="0.52901">
        <ele>130.51</ele>
        <time>2023-06-07T22:02:19.487Z</time>
      </trkpt>
      <trkpt lat="46.64344" lon="0.52916">
        <ele>129.68</ele>
        <time>2023-06-07T22:02:25.718Z</time>
      </trkpt>
      <trkpt lat="46.64337" lon="0.52924">
        <ele>129.29</ele>
        <time>2023-06-07T22:02:31.950Z</time>
      </trkpt>
      <trkpt lat="46.64322" lon="0.52939">
        <ele>128.57</ele>
        <time>2023-06-07T22:02:38.185Z</time>
      </trkpt>
      <trkpt lat="46.64304" lon="0.52958">
        <ele>127.63</ele>
        <time>2023-06-07T22:02:44.424Z</time>
      </trkpt>
      <trkpt lat="46.64282" lon="0.5298">
        <ele>126.6</ele>
        <time>2023-06-07T22:02:50.667Z</time>
      </trkpt>
      <trkpt lat="46.64275" lon="0.52988">
        <ele>126.3</ele>
        <time>2023-06-07T22:02:56.912Z</time>
      </trkpt>
      <trkpt lat="46.64264" lon="0.52999">
        <ele>125.94</ele>
        <time>2023-06-07T22:03:03.159Z</time>
      </trkpt>
      <trkpt lat="46.64246" lon="0.53018">
        <ele>125.43</ele>
        <time>2023-06-07T22:03:09.409Z</time>
      </trkpt>
      <trkpt lat="46.64235" lon="0.53029">
        <ele>125.19</ele>
        <time>2023-06-07T22:03:15.661Z</time>
      </trkpt>
      <trkpt lat="46.64228" lon="0.53037">
        <ele>125.07</ele>
        <time>2023-06-07T22:03:21.915Z</time>
      </trkpt>
      <trkpt lat="46.64217" lon="0.53048">
        <ele>124.93</ele>
        <time>2023-06-07T22:03:28.171Z</time>
      </trkpt>
      <trkpt lat="46.6421" lon="0.53056">
        <ele>124.86</ele>
        <time>2023-06-07T22:03:34.428Z</time>
      </trkpt>
      <trkpt lat="46.64192" lon="0.53075">
        <ele>124.73</ele>
        <time>2023-06-07T22:03:40.689Z</time>
      </trkpt>
      <trkpt lat="46.64163" lon="0.53105">
        <ele>124.42</ele>
        <time>2023-06-07T22:03:46.956Z</time>
      </trkpt>
      <trkpt lat="46.64137" lon="0.53131">
        <ele>124.25</ele>
        <time>2023-06-07T22:03:53.228Z</time>
      </trkpt>
      <trkpt lat="46.64123" lon="0.53146">
        <ele>124.09</ele>
        <time>2023-06-07T22:03:59.503Z</time>
      </trkpt>
      <trkpt lat="46.64097" lon="0.53173">
        <ele>123.76</ele>
        <time>2023-06-07T22:04:05.783Z</time>
      </trkpt>
      <trkpt lat="46.6409" lon="0.5318">
        <ele>123.65</ele>
        <time>2023-06-07T22:04:12.064Z</time>
      </trkpt>
      <trkpt lat="46.64083" lon="0.53188">
        <ele>123.49</ele>
        <time>2023-06-07T22:04:18.346Z</time>
      </trkpt>
      <trkpt lat="46.6407" lon="0.53201">
        <ele>123.12</ele>
        <time>2023-06-07T22:04:24.631Z</time>
      </trkpt>
      <trkpt lat="46.64069" lon="0.53219">
        <ele>122.84</ele>
        <time>2023-06-07T22:04:30.918Z</time>
      </trkpt>
      <trkpt lat="46.64069" lon="0.53219">
        <ele>125.31</ele>
        <time>2023-06-07T22:04:37.205Z</time>
      </trkpt>
      <trkpt lat="46.64068" lon="0.53229">
        <ele>125.29</ele>
        <time>2023-06-07T22:04:43.493Z</time>
      </trkpt>
      <trkpt lat="46.64072" lon="0.53229">
        <ele>125.28</ele>
        <time>2023-06-07T22:04:49.782Z</time>
      </trkpt>
      <trkpt lat="46.64079" lon="0.5323">
        <ele>125.37</ele>
        <time>2023-06-07T22:04:56.072Z</time>
      </trkpt>
      <trkpt lat="46.64094" lon="0.5326">
        <ele>125.75</ele>
        <time>2023-06-07T22:05:02.366Z</time>
      </trkpt>
      <trkpt lat="46.64101" lon="0.53274">
        <ele>125.85</ele>
        <time>2023-06-07T22:05:08.662Z</time>
      </trkpt>
      <trkpt lat="46.64109" lon="0.5329">
        <ele>125.91</ele>
        <time>2023-06-07T22:05:14.960Z</time>
      </trkpt>
      <trkpt lat="46.64117" lon="0.53305">
        <ele>125.87</ele>
        <time>2023-06-07T22:05:21.260Z</time>
      </trkpt>
      <trkpt lat="46.64125" lon="0.5332">
        <ele>125.77</ele>
        <time>2023-06-07T22:05:27.562Z</time>
      </trkpt>
      <trkpt lat="46.64132" lon="0.53335">
        <ele>125.5</ele>
        <time>2023-06-07T22:05:33.866Z</time>
      </trkpt>
      <trkpt lat="46.64141" lon="0.53352">
        <ele>125.25</ele>
        <time>2023-06-07T22:05:40.173Z</time>
      </trkpt>
      <trkpt lat="46.6415" lon="0.53369">
        <ele>124.96</ele>
        <time>2023-06-07T22:05:46.482Z</time>
      </trkpt>
      <trkpt lat="46.64176" lon="0.5342">
        <ele>123.88</ele>
        <time>2023-06-07T22:05:52.798Z</time>
      </trkpt>
      <trkpt lat="46.64184" lon="0.53437">
        <ele>123.55</ele>
        <time>2023-06-07T22:05:59.116Z</time>
      </trkpt>
      <trkpt lat="46.64192" lon="0.53453">
        <ele>123.34</ele>
        <time>2023-06-07T22:06:05.436Z</time>
      </trkpt>
      <trkpt lat="46.64201" lon="0.5347">
        <ele>123.29</ele>
        <time>2023-06-07T22:06:11.759Z</time>
      </trkpt>
      <trkpt lat="46.64208" lon="0.53485">
        <ele>123.23</ele>
        <time>2023-06-07T22:06:18.084Z</time>
      </trkpt>
      <trkpt lat="46.64216" lon="0.53499">
        <ele>123.13</ele>
        <time>2023-06-07T22:06:24.411Z</time>
      </trkpt>
      <trkpt lat="46.64222" lon="0.53512">
        <ele>123.1</ele>
        <time>2023-06-07T22:06:30.739Z</time>
      </trkpt>
      <trkpt lat="46.64229" lon="0.53525">
        <ele>123.16</ele>
        <time>2023-06-07T22:06:37.069Z</time>
      </trkpt>
      <trkpt lat="46.64236" lon="0.53538">
        <ele>123.12</ele>
        <time>2023-06-07T22:06:43.401Z</time>
      </trkpt>
      <trkpt lat="46.64244" lon="0.53554">
        <ele>122.91</ele>
        <time>2023-06-07T22:06:49.735Z</time>
      </trkpt>
      <trkpt lat="46.64251" lon="0.53568">
        <ele>122.41</ele>
        <time>2023-06-07T22:06:56.071Z</time>
      </trkpt>
      <trkpt lat="46.64258" lon="0.53582">
        <ele>121.99</ele>
        <time>2023-06-07T22:07:02.409Z</time>
      </trkpt>
      <trkpt lat="46.64262" lon="0.5359">
        <ele>121.81</ele>
        <time>2023-06-07T22:07:08.748Z</time>
      </trkpt>
      <trkpt lat="46.64272" lon="0.53609">
        <ele>121.41</ele>
        <time>2023-06-07T22:07:15.090Z</time>
      </trkpt>
      <trkpt lat="46.6428" lon="0.53625">
        <ele>121.3</ele>
        <time>2023-06-07T22:07:21.434Z</time>
      </trkpt>
      <trkpt lat="46.64288" lon="0.5364">
        <ele>121.33</ele>
        <time>2023-06-07T22:07:27.780Z</time>
      </trkpt>
      <trkpt lat="46.64295" lon="0.53654">
        <ele>121.3</ele>
        <time>2023-06-07T22:07:34.128Z</time>
      </trkpt>
      <trkpt lat="46.64302" lon="0.53667">
        <ele>121.19</ele>
        <time>2023-06-07T22:07:40.478Z</time>
      </trkpt>
      <trkpt lat="46.64308" lon="0.5368">
        <ele>121</ele>
        <time>2023-06-07T22:07:46.830Z</time>
      </trkpt>
      <trkpt lat="46.64314" lon="0.53691">
        <ele>120.78</ele>
        <time>2023-06-07T22:07:53.183Z</time>
      </trkpt>
      <trkpt lat="46.6432" lon="0.53702">
        <ele>120.26</ele>
        <time>2023-06-07T22:07:59.538Z</time>
      </trkpt>
      <trkpt lat="46.64324" lon="0.5371">
        <ele>119.82</ele>
        <time>2023-06-07T22:08:05.894Z</time>
      </trkpt>
      <trkpt lat="46.64326" lon="0.53715">
        <ele>119.56</ele>
        <time>2023-06-07T22:08:12.250Z</time>
      </trkpt>
      <trkpt lat="46.6433" lon="0.53723">
        <ele>119.1</ele>
        <time>2023-06-07T22:08:18.607Z</time>
      </trkpt>
      <trkpt lat="46.64332" lon="0.53726">
        <ele>118.92</ele>
        <time>2023-06-07T22:08:24.965Z</time>
      </trkpt>
      <trkpt lat="46.64337" lon="0.53732">
        <ele>118.83</ele>
        <time>2023-06-07T22:08:31.324Z</time>
      </trkpt>
      <trkpt lat="46.64342" lon="0.5373">
        <ele>118.77</ele>
        <time>2023-06-07T22:08:37.684Z</time>
      </trkpt>
      <trkpt lat="46.64348" lon="0.53728">
        <ele>118.71</ele>
        <time>2023-06-07T22:08:44.045Z</time>
      </trkpt>
      <trkpt lat="46.64354" lon="0.53724">
        <ele>118.65</ele>
        <time>2023-06-07T22:08:50.407Z</time>
      </trkpt>
      <trkpt lat="46.64364" lon="0.53719">
        <ele>118.89</ele>
        <time>2023-06-07T22:08:56.770Z</time>
      </trkpt>
      <trkpt lat="46.64372" lon="0.53714">
        <ele>119.03</ele>
        <time>2023-06-07T22:09:03.135Z</time>
      </trkpt>
      <trkpt lat="46.64382" lon="0.53708">
        <ele>119.28</ele>
        <time>2023-06-07T22:09:09.502Z</time>
      </trkpt>
      <trkpt lat="46.64391" lon="0.53703">
        <ele>119.94</ele>
        <time>2023-06-07T22:09:15.870Z</time>
      </trkpt>
      <trkpt lat="46.64399" lon="0.53698">
        <ele>120.32</ele>
        <time>2023-06-07T22:09:22.240Z</time>
      </trkpt>
      <trkpt lat="46.64409" lon="0.53693">
        <ele>120.72</ele>
        <time>2023-06-07T22:09:28.611Z</time>
      </trkpt>
      <trkpt lat="46.64428" lon="0.53682">
        <ele>121.35</ele>
        <time>2023-06-07T22:09:34.985Z</time>
      </trkpt>
      <trkpt lat="46.64434" lon="0.53678">
        <ele>121.51</ele>
        <time>2023-06-07T22:09:41.361Z</time>
      </trkpt>
      <trkpt lat="46.64436" lon="0.53677">
        <ele>121.56</ele>
        <time>2023-06-07T22:09:47.737Z</time>
      </trkpt>
      <trkpt lat="46.64446" lon="0.53674">
        <ele>121.73</ele>
        <time>2023-06-07T22:09:54.115Z</time>
      </trkpt>
      <trkpt lat="46.64453" lon="0.53672">
        <ele>121.76</ele>
        <time>2023-06-07T22:10:00.494Z</time>
      </trkpt>
      <trkpt lat="46.64456" lon="0.53672">
        <ele>121.78</ele>
        <time>2023-06-07T22:10:06.873Z</time>
      </trkpt>
      <trkpt lat="46.64466" lon="0.53671">
        <ele>121.96</ele>
        <time>2023-06-07T22:10:13.254Z</time>
      </trkpt>
      <trkpt lat="46.64472" lon="0.53671">
        <ele>122.12</ele>
        <time>2023-06-07T22:10:19.636Z</time>
      </trkpt>
      <trkpt lat="46.64475" lon="0.5367">
        <ele>122.21</ele>
        <time>2023-06-07T22:10:26.018Z</time>
      </trkpt>
      <trkpt lat="46.64482" lon="0.53669">
        <ele>122.43</ele>
        <time>2023-06-07T22:10:32.401Z</time>
      </trkpt>
      <trkpt lat="46.64484" lon="0.5367">
        <ele>122.52</ele>
        <time>2023-06-07T22:10:38.785Z</time>
      </trkpt>
      <trkpt lat="46.64491" lon="0.53672">
        <ele>122.73</ele>
        <time>2023-06-07T22:10:45.170Z</time>
      </trkpt>
      <trkpt lat="46.64496" lon="0.53677">
        <ele>122.91</ele>
        <time>2023-06-07T22:10:51.556Z</time>
      </trkpt>
      <trkpt lat="46.64501" lon="0.53683">
        <ele>123.26</ele>
        <time>2023-06-07T22:10:57.943Z</time>
      </trkpt>
      <trkpt lat="46.64527" lon="0.5368">
        <ele>124.62</ele>
        <time>2023-06-07T22:11:04.334Z</time>
      </trkpt>
      <trkpt lat="46.64527" lon="0.5368">
        <ele>120.47</ele>
        <time>2023-06-07T22:11:10.725Z</time>
      </trkpt>
      <trkpt lat="46.64534" lon="0.53679">
        <ele>120.64</ele>
        <time>2023-06-07T22:11:17.117Z</time>
      </trkpt>
      <trkpt lat="46.64535" lon="0.537">
        <ele>121.02</ele>
        <time>2023-06-07T22:11:23.511Z</time>
      </trkpt>
      <trkpt lat="46.64536" lon="0.53713">
        <ele>121.19</ele>
        <time>2023-06-07T22:11:29.907Z</time>
      </trkpt>
      <trkpt lat="46.64537" lon="0.53726">
        <ele>121.27</ele>
        <time>2023-06-07T22:11:36.304Z</time>
      </trkpt>
      <trkpt lat="46.64537" lon="0.53733">
        <ele>121.28</ele>
        <time>2023-06-07T22:11:42.702Z</time>
      </trkpt>
      <trkpt lat="46.64538" lon="0.53759">
        <ele>121.25</ele>
        <time>2023-06-07T22:11:49.103Z</time>
      </trkpt>
      <trkpt lat="46.64541" lon="0.53804">
        <ele>121.26</ele>
        <time>2023-06-07T22:11:55.509Z</time>
      </trkpt>
      <trkpt lat="46.64541" lon="0.53811">
        <ele>121.24</ele>
        <time>2023-06-07T22:12:01.916Z</time>
      </trkpt>
      <trkpt lat="46.64542" lon="0.53817">
        <ele>121.2</ele>
        <time>2023-06-07T22:12:08.323Z</time>
      </trkpt>
      <trkpt lat="46.64543" lon="0.53843">
        <ele>120.96</ele>
        <time>2023-06-07T22:12:14.733Z</time>
      </trkpt>
      <trkpt lat="46.64544" lon="0.53863">
        <ele>120.83</ele>
        <time>2023-06-07T22:12:21.146Z</time>
      </trkpt>
      <trkpt lat="46.64545" lon="0.53876">
        <ele>120.77</ele>
        <time>2023-06-07T22:12:27.560Z</time>
      </trkpt>
      <trkpt lat="46.64546" lon="0.53896">
        <ele>120.71</ele>
        <time>2023-06-07T22:12:33.976Z</time>
      </trkpt>
      <trkpt lat="46.64547" lon="0.53922">
        <ele>120.58</ele>
        <time>2023-06-07T22:12:40.395Z</time>
      </trkpt>
      <trkpt lat="46.64548" lon="0.53941">
        <ele>120.54</ele>
        <time>2023-06-07T22:12:46.816Z</time>
      </trkpt>
      <trkpt lat="46.64549" lon="0.53951">
        <ele>120.56</ele>
        <time>2023-06-07T22:12:53.238Z</time>
      </trkpt>
      <trkpt lat="46.64551" lon="0.53952">
        <ele>120.57</ele>
        <time>2023-06-07T22:12:59.661Z</time>
      </trkpt>
      <trkpt lat="46.64559" lon="0.53957">
        <ele>120.66</ele>
        <time>2023-06-07T22:13:06.085Z</time>
      </trkpt>
      <trkpt lat="46.64576" lon="0.53967">
        <ele>120.93</ele>
        <time>2023-06-07T22:13:12.512Z</time>
      </trkpt>
      <trkpt lat="46.64593" lon="0.53976">
        <ele>121.26</ele>
        <time>2023-06-07T22:13:18.942Z</time>
      </trkpt>
      <trkpt lat="46.64597" lon="0.53978">
        <ele>121.32</ele>
        <time>2023-06-07T22:13:25.373Z</time>
      </trkpt>
      <trkpt lat="46.64605" lon="0.53983">
        <ele>121.38</ele>
        <time>2023-06-07T22:13:31.805Z</time>
      </trkpt>
      <trkpt lat="46.64612" lon="0.53987">
        <ele>121.29</ele>
        <time>2023-06-07T22:13:38.238Z</time>
      </trkpt>
      <trkpt lat="46.64607" lon="0.54011">
        <ele>121.09</ele>
        <time>2023-06-07T22:13:44.674Z</time>
      </trkpt>
      <trkpt lat="46.64607" lon="0.54014">
        <ele>121.07</ele>
        <time>2023-06-07T22:13:51.110Z</time>
      </trkpt>
      <trkpt lat="46.64608" lon="0.5406">
        <ele>120.73</ele>
        <time>2023-06-07T22:13:57.551Z</time>
      </trkpt>
      <trkpt lat="46.64608" lon="0.54075">
        <ele>120.59</ele>
        <time>2023-06-07T22:14:03.994Z</time>
      </trkpt>
      <trkpt lat="46.64612" lon="0.54098">
        <ele>120.38</ele>
        <time>2023-06-07T22:14:10.439Z</time>
      </trkpt>
      <trkpt lat="46.64618" lon="0.54129">
        <ele>120.01</ele>
        <time>2023-06-07T22:14:16.888Z</time>
      </trkpt>
      <trkpt lat="46.64623" lon="0.54155">
        <ele>119.73</ele>
        <time>2023-06-07T22:14:23.340Z</time>
      </trkpt>
      <trkpt lat="46.64622" lon="0.5416">
        <ele>119.68</ele>
        <time>2023-06-07T22:14:29.793Z</time>
      </trkpt>
      <trkpt lat="46.64616" lon="0.54198">
        <ele>119.14</ele>
        <time>2023-06-07T22:14:36.250Z</time>
      </trkpt>
      <trkpt lat="46.64614" lon="0.54217">
        <ele>118.9</ele>
        <time>2023-06-07T22:14:42.709Z</time>
      </trkpt>
      <trkpt lat="46.64612" lon="0.54227">
        <ele>118.83</ele>
        <time>2023-06-07T22:14:49.169Z</time>
      </trkpt>
      <trkpt lat="46.64615" lon="0.5423">
        <ele>118.79</ele>
        <time>2023-06-07T22:14:55.630Z</time>
      </trkpt>
      <trkpt lat="46.64637" lon="0.54284">
        <ele>118.39</ele>
        <time>2023-06-07T22:15:02.098Z</time>
      </trkpt>
      <trkpt lat="46.64659" lon="0.54341">
        <ele>118.06</ele>
        <time>2023-06-07T22:15:08.573Z</time>
      </trkpt>
      <trkpt lat="46.64666" lon="0.54358">
        <ele>117.98</ele>
        <time>2023-06-07T22:15:15.050Z</time>
      </trkpt>
      <trkpt lat="46.64668" lon="0.54363">
        <ele>117.96</ele>
        <time>2023-06-07T22:15:21.528Z</time>
      </trkpt>
      <trkpt lat="46.64672" lon="0.54383">
        <ele>117.91</ele>
        <time>2023-06-07T22:15:28.008Z</time>
      </trkpt>
      <trkpt lat="46.64674" lon="0.54395">
        <ele>117.84</ele>
        <time>2023-06-07T22:15:34.489Z</time>
      </trkpt>
      <trkpt lat="46.6468" lon="0.54427">
        <ele>117.58</ele>
        <time>2023-06-07T22:15:40.974Z</time>
      </trkpt>
      <trkpt lat="46.64699" lon="0.54521">
        <ele>117.01</ele>
        <time>2023-06-07T22:15:47.470Z</time>
      </trkpt>
      <trkpt lat="46.64703" lon="0.5454">
        <ele>116.88</ele>
        <time>2023-06-07T22:15:53.968Z</time>
      </trkpt>
      <trkpt lat="46.64706" lon="0.54557">
        <ele>116.73</ele>
        <time>2023-06-07T22:16:00.468Z</time>
      </trkpt>
      <trkpt lat="46.64712" lon="0.54576">
        <ele>116.57</ele>
        <time>2023-06-07T22:16:06.970Z</time>
      </trkpt>
      <trkpt lat="46.64729" lon="0.54629">
        <ele>116.2</ele>
        <time>2023-06-07T22:16:13.479Z</time>
      </trkpt>
      <trkpt lat="46.64735" lon="0.5464">
        <ele>116.12</ele>
        <time>2023-06-07T22:16:19.989Z</time>
      </trkpt>
      <trkpt lat="46.64746" lon="0.5466">
        <ele>115.92</ele>
        <time>2023-06-07T22:16:26.502Z</time>
      </trkpt>
      <trkpt lat="46.64769" lon="0.54701">
        <ele>115.44</ele>
        <time>2023-06-07T22:16:33.021Z</time>
      </trkpt>
      <trkpt lat="46.64777" lon="0.54716">
        <ele>115.29</ele>
        <time>2023-06-07T22:16:39.542Z</time>
      </trkpt>
      <trkpt lat="46.64791" lon="0.54742">
        <ele>115.09</ele>
        <time>2023-06-07T22:16:46.067Z</time>
      </trkpt>
      <trkpt lat="46.648" lon="0.54757">
        <ele>115.04</ele>
        <time>2023-06-07T22:16:52.594Z</time>
      </trkpt>
      <trkpt lat="46.64807" lon="0.54771">
        <ele>114.94</ele>
        <time>2023-06-07T22:16:59.123Z</time>
      </trkpt>
      <trkpt lat="46.64814" lon="0.54797">
        <ele>114.8</ele>
        <time>2023-06-07T22:17:05.655Z</time>
      </trkpt>
      <trkpt lat="46.64817" lon="0.54807">
        <ele>114.78</ele>
        <time>2023-06-07T22:17:12.188Z</time>
      </trkpt>
      <trkpt lat="46.64819" lon="0.54821">
        <ele>114.76</ele>
        <time>2023-06-07T22:17:18.723Z</time>
      </trkpt>
      <trkpt lat="46.64824" lon="0.54852">
        <ele>114.85</ele>
        <time>2023-06-07T22:17:25.261Z</time>
      </trkpt>
      <trkpt lat="46.6483" lon="0.54896">
        <ele>114.85</ele>
        <time>2023-06-07T22:17:31.804Z</time>
      </trkpt>
      <trkpt lat="46.64839" lon="0.54953">
        <ele>115.07</ele>
        <time>2023-06-07T22:17:38.353Z</time>
      </trkpt>
      <trkpt lat="46.64841" lon="0.54965">
        <ele>115.16</ele>
        <time>2023-06-07T22:17:44.904Z</time>
      </trkpt>
      <trkpt lat="46.64842" lon="0.54978">
        <ele>115.28</ele>
        <time>2023-06-07T22:17:51.456Z</time>
      </trkpt>
      <trkpt lat="46.64844" lon="0.54989">
        <ele>115.32</ele>
        <time>2023-06-07T22:17:58.009Z</time>
      </trkpt>
      <trkpt lat="46.64855" lon="0.55011">
        <ele>115.43</ele>
        <time>2023-06-07T22:18:04.565Z</time>
      </trkpt>
      <trkpt lat="46.64865" lon="0.55031">
        <ele>115.5</ele>
        <time>2023-06-07T22:18:11.124Z</time>
      </trkpt>
      <trkpt lat="46.64873" lon="0.55047">
        <ele>115.53</ele>
        <time>2023-06-07T22:18:17.685Z</time>
      </trkpt>
      <trkpt lat="46.64878" lon="0.55057">
        <ele>115.51</ele>
        <time>2023-06-07T22:18:24.248Z</time>
      </trkpt>
      <trkpt lat="46.64885" lon="0.5507">
        <ele>115.55</ele>
        <time>2023-06-07T22:18:30.813Z</time>
      </trkpt>
      <trkpt lat="46.64886" lon="0.55074">
        <ele>115.57</ele>
        <time>2023-06-07T22:18:37.378Z</time>
      </trkpt>
      <trkpt lat="46.64907" lon="0.55146">
        <ele>116.14</ele>
        <time>2023-06-07T22:18:43.952Z</time>
      </trkpt>
      <trkpt lat="46.64918" lon="0.55182">
        <ele>116.57</ele>
        <time>2023-06-07T22:18:50.530Z</time>
      </trkpt>
      <trkpt lat="46.64927" lon="0.55212">
        <ele>116.88</ele>
        <time>2023-06-07T22:18:57.112Z</time>
      </trkpt>
      <trkpt lat="46.64938" lon="0.55248">
        <ele>117.29</ele>
        <time>2023-06-07T22:19:03.698Z</time>
      </trkpt>
      <trkpt lat="46.64939" lon="0.55252">
        <ele>117.34</ele>
        <time>2023-06-07T22:19:10.284Z</time>
      </trkpt>
      <trkpt lat="46.64939" lon="0.5526">
        <ele>117.44</ele>
        <time>2023-06-07T22:19:16.871Z</time>
      </trkpt>
      <trkpt lat="46.64941" lon="0.55293">
        <ele>117.86</ele>
        <time>2023-06-07T22:19:23.462Z</time>
      </trkpt>
      <trkpt lat="46.64942" lon="0.55312">
        <ele>118.06</ele>
        <time>2023-06-07T22:19:30.055Z</time>
      </trkpt>
      <trkpt lat="46.64942" lon="0.55325">
        <ele>118.13</ele>
        <time>2023-06-07T22:19:36.650Z</time>
      </trkpt>
      <trkpt lat="46.64942" lon="0.55332">
        <ele>118.14</ele>
        <time>2023-06-07T22:19:43.245Z</time>
      </trkpt>
      <trkpt lat="46.64943" lon="0.55345">
        <ele>118.1</ele>
        <time>2023-06-07T22:19:49.842Z</time>
      </trkpt>
      <trkpt lat="46.64944" lon="0.55365">
        <ele>118.01</ele>
        <time>2023-06-07T22:19:56.441Z</time>
      </trkpt>
      <trkpt lat="46.64945" lon="0.55384">
        <ele>117.89</ele>
        <time>2023-06-07T22:20:03.042Z</time>
      </trkpt>
      <trkpt lat="46.64945" lon="0.55397">
        <ele>117.77</ele>
        <time>2023-06-07T22:20:09.644Z</time>
      </trkpt>
      <trkpt lat="46.64947" lon="0.55437">
        <ele>117.32</ele>
        <time>2023-06-07T22:20:16.251Z</time>
      </trkpt>
      <trkpt lat="46.64948" lon="0.5545">
        <ele>117.15</ele>
        <time>2023-06-07T22:20:22.859Z</time>
      </trkpt>
      <trkpt lat="46.64948" lon="0.55456">
        <ele>117.04</ele>
        <time>2023-06-07T22:20:29.468Z</time>
      </trkpt>
      <trkpt lat="46.64948" lon="0.55458">
        <ele>117</ele>
        <time>2023-06-07T22:20:36.077Z</time>
      </trkpt>
      <trkpt lat="46.6495" lon="0.55469">
        <ele>116.79</ele>
        <time>2023-06-07T22:20:42.687Z</time>
      </trkpt>
      <trkpt lat="46.64952" lon="0.55482">
        <ele>116.47</ele>
        <time>2023-06-07T22:20:49.299Z</time>
      </trkpt>
      <trkpt lat="46.64954" lon="0.55494">
        <ele>116.11</ele>
        <time>2023-06-07T22:20:55.912Z</time>
      </trkpt>
      <trkpt lat="46.64956" lon="0.55514">
        <ele>115.52</ele>
        <time>2023-06-07T22:21:02.527Z</time>
      </trkpt>
      <trkpt lat="46.64959" lon="0.55533">
        <ele>114.99</ele>
        <time>2023-06-07T22:21:09.145Z</time>
      </trkpt>
      <trkpt lat="46.64962" lon="0.55552">
        <ele>114.53</ele>
        <time>2023-06-07T22:21:15.765Z</time>
      </trkpt>
      <trkpt lat="46.64965" lon="0.55571">
        <ele>114.11</ele>
        <time>2023-06-07T22:21:22.387Z</time>
      </trkpt>
      <trkpt lat="46.64967" lon="0.55584">
        <ele>113.87</ele>
        <time>2023-06-07T22:21:29.010Z</time>
      </trkpt>
      <trkpt lat="46.64969" lon="0.55596">
        <ele>113.67</ele>
        <time>2023-06-07T22:21:35.635Z</time>
      </trkpt>
      <trkpt lat="46.64974" lon="0.55622">
        <ele>113.25</ele>
        <time>2023-06-07T22:21:42.263Z</time>
      </trkpt>
      <trkpt lat="46.64979" lon="0.55647">
        <ele>112.74</ele>
        <time>2023-06-07T22:21:48.894Z</time>
      </trkpt>
      <trkpt lat="46.64981" lon="0.55653">
        <ele>112.64</ele>
        <time>2023-06-07T22:21:55.525Z</time>
      </trkpt>
      <trkpt lat="46.64984" lon="0.55672">
        <ele>112.38</ele>
        <time>2023-06-07T22:22:02.158Z</time>
      </trkpt>
      <trkpt lat="46.64992" lon="0.5571">
        <ele>111.96</ele>
        <time>2023-06-07T22:22:08.796Z</time>
      </trkpt>
      <trkpt lat="46.64994" lon="0.5572">
        <ele>111.79</ele>
        <time>2023-06-07T22:22:15.435Z</time>
      </trkpt>
      <trkpt lat="46.64994" lon="0.55741">
        <ele>111.48</ele>
        <time>2023-06-07T22:22:22.076Z</time>
      </trkpt>
      <trkpt lat="46.64995" lon="0.55768">
        <ele>111.13</ele>
        <time>2023-06-07T22:22:28.720Z</time>
      </trkpt>
      <trkpt lat="46.64995" lon="0.55787">
        <ele>110.81</ele>
        <time>2023-06-07T22:22:35.366Z</time>
      </trkpt>
      <trkpt lat="46.64996" lon="0.55813">
        <ele>110.31</ele>
        <time>2023-06-07T22:22:42.015Z</time>
      </trkpt>
      <trkpt lat="46.64997" lon="0.55857">
        <ele>109.38</ele>
        <time>2023-06-07T22:22:48.669Z</time>
      </trkpt>
      <trkpt lat="46.64997" lon="0.55858">
        <ele>109.38</ele>
        <time>2023-06-07T22:22:55.323Z</time>
      </trkpt>
      <trkpt lat="46.64998" lon="0.55871">
        <ele>109.09</ele>
        <time>2023-06-07T22:23:01.979Z</time>
      </trkpt>
      <trkpt lat="46.64998" lon="0.55884">
        <ele>108.77</ele>
        <time>2023-06-07T22:23:08.636Z</time>
      </trkpt>
      <trkpt lat="46.64999" lon="0.55897">
        <ele>108.41</ele>
        <time>2023-06-07T22:23:15.295Z</time>
      </trkpt>
      <trkpt lat="46.64999" lon="0.5591">
        <ele>108.01</ele>
        <time>2023-06-07T22:23:21.955Z</time>
      </trkpt>
      <trkpt lat="46.65" lon="0.55923">
        <ele>107.57</ele>
        <time>2023-06-07T22:23:28.616Z</time>
      </trkpt>
      <trkpt lat="46.65001" lon="0.55945">
        <ele>106.78</ele>
        <time>2023-06-07T22:23:35.280Z</time>
      </trkpt>
      <trkpt lat="46.65006" lon="0.5596">
        <ele>106.18</ele>
        <time>2023-06-07T22:23:41.946Z</time>
      </trkpt>
      <trkpt lat="46.65009" lon="0.55972">
        <ele>105.69</ele>
        <time>2023-06-07T22:23:48.613Z</time>
      </trkpt>
      <trkpt lat="46.65013" lon="0.55984">
        <ele>105.17</ele>
        <time>2023-06-07T22:23:55.282Z</time>
      </trkpt>
      <trkpt lat="46.6502" lon="0.56008">
        <ele>104.06</ele>
        <time>2023-06-07T22:24:01.953Z</time>
      </trkpt>
      <trkpt lat="46.65024" lon="0.5602">
        <ele>103.53</ele>
        <time>2023-06-07T22:24:08.626Z</time>
      </trkpt>
      <trkpt lat="46.65035" lon="0.56055">
        <ele>101.7</ele>
        <time>2023-06-07T22:24:15.303Z</time>
      </trkpt>
      <trkpt lat="46.6504" lon="0.56073">
        <ele>100.75</ele>
        <time>2023-06-07T22:24:21.982Z</time>
      </trkpt>
      <trkpt lat="46.65044" lon="0.56084">
        <ele>100.07</ele>
        <time>2023-06-07T22:24:28.663Z</time>
      </trkpt>
      <trkpt lat="46.65047" lon="0.56096">
        <ele>99.32</ele>
        <time>2023-06-07T22:24:35.345Z</time>
      </trkpt>
      <trkpt lat="46.65051" lon="0.56108">
        <ele>98.52</ele>
        <time>2023-06-07T22:24:42.029Z</time>
      </trkpt>
      <trkpt lat="46.65052" lon="0.56111">
        <ele>98.31</ele>
        <time>2023-06-07T22:24:48.713Z</time>
      </trkpt>
      <trkpt lat="46.65074" lon="0.56139">
        <ele>95.62</ele>
        <time>2023-06-07T22:24:55.401Z</time>
      </trkpt>
      <trkpt lat="46.65076" lon="0.56142">
        <ele>95.35</ele>
        <time>2023-06-07T22:25:02.090Z</time>
      </trkpt>
      <trkpt lat="46.65078" lon="0.5615">
        <ele>94.88</ele>
        <time>2023-06-07T22:25:08.780Z</time>
      </trkpt>
      <trkpt lat="46.6508" lon="0.56156">
        <ele>94.56</ele>
        <time>2023-06-07T22:25:15.471Z</time>
      </trkpt>
      <trkpt lat="46.6508" lon="0.56157">
        <ele>94.5</ele>
        <time>2023-06-07T22:25:22.162Z</time>
      </trkpt>
      <trkpt lat="46.6508" lon="0.56162">
        <ele>94.27</ele>
        <time>2023-06-07T22:25:28.853Z</time>
      </trkpt>
      <trkpt lat="46.65079" lon="0.56169">
        <ele>94.02</ele>
        <time>2023-06-07T22:25:35.545Z</time>
      </trkpt>
      <trkpt lat="46.65079" lon="0.56175">
        <ele>93.82</ele>
        <time>2023-06-07T22:25:42.238Z</time>
      </trkpt>
      <trkpt lat="46.65079" lon="0.56178">
        <ele>93.75</ele>
        <time>2023-06-07T22:25:48.931Z</time>
      </trkpt>
      <trkpt lat="46.65078" lon="0.56181">
        <ele>93.67</ele>
        <time>2023-06-07T22:25:55.624Z</time>
      </trkpt>
      <trkpt lat="46.65077" lon="0.56188">
        <ele>93.56</ele>
        <time>2023-06-07T22:26:02.318Z</time>
      </trkpt>
      <trkpt lat="46.65076" lon="0.56194">
        <ele>93.48</ele>
        <time>2023-06-07T22:26:09.013Z</time>
      </trkpt>
      <trkpt lat="46.65075" lon="0.562">
        <ele>93.43</ele>
        <time>2023-06-07T22:26:15.709Z</time>
      </trkpt>
      <trkpt lat="46.65074" lon="0.56207">
        <ele>93.42</ele>
        <time>2023-06-07T22:26:22.405Z</time>
      </trkpt>
      <trkpt lat="46.65073" lon="0.56213">
        <ele>93.44</ele>
        <time>2023-06-07T22:26:29.102Z</time>
      </trkpt>
      <trkpt lat="46.65072" lon="0.56219">
        <ele>93.5</ele>
        <time>2023-06-07T22:26:35.800Z</time>
      </trkpt>
      <trkpt lat="46.65071" lon="0.56225">
        <ele>93.61</ele>
        <time>2023-06-07T22:26:42.498Z</time>
      </trkpt>
      <trkpt lat="46.6507" lon="0.56232">
        <ele>93.76</ele>
        <time>2023-06-07T22:26:49.197Z</time>
      </trkpt>
      <trkpt lat="46.6507" lon="0.56233">
        <ele>93.79</ele>
        <time>2023-06-07T22:26:55.896Z</time>
      </trkpt>
      <trkpt lat="46.65071" lon="0.56238">
        <ele>93.94</ele>
        <time>2023-06-07T22:27:02.596Z</time>
      </trkpt>
      <trkpt lat="46.65074" lon="0.5625">
        <ele>94.39</ele>
        <time>2023-06-07T22:27:09.297Z</time>
      </trkpt>
      <trkpt lat="46.65082" lon="0.5628">
        <ele>95.62</ele>
        <time>2023-06-07T22:27:16.002Z</time>
      </trkpt>
      <trkpt lat="46.65083" lon="0.56287">
        <ele>95.89</ele>
        <time>2023-06-07T22:27:22.708Z</time>
      </trkpt>
      <trkpt lat="46.65086" lon="0.56299">
        <ele>96.47</ele>
        <time>2023-06-07T22:27:29.415Z</time>
      </trkpt>
      <trkpt lat="46.65092" lon="0.56323">
        <ele>97.72</ele>
        <time>2023-06-07T22:27:36.125Z</time>
      </trkpt>
      <trkpt lat="46.65093" lon="0.56326">
        <ele>97.89</ele>
        <time>2023-06-07T22:27:42.835Z</time>
      </trkpt>
      <trkpt lat="46.65095" lon="0.56342">
        <ele>98.76</ele>
        <time>2023-06-07T22:27:49.547Z</time>
      </trkpt>
      <trkpt lat="46.65098" lon="0.56365">
        <ele>100.08</ele>
        <time>2023-06-07T22:27:56.262Z</time>
      </trkpt>
      <trkpt lat="46.65098" lon="0.56387">
        <ele>101.31</ele>
        <time>2023-06-07T22:28:02.979Z</time>
      </trkpt>
      <trkpt lat="46.65098" lon="0.56398">
        <ele>101.07</ele>
        <time>2023-06-07T22:28:09.697Z</time>
      </trkpt>
      <trkpt lat="46.65113" lon="0.56403">
        <ele>100.61</ele>
        <time>2023-06-07T22:28:16.418Z</time>
      </trkpt>
      <trkpt lat="46.65116" lon="0.56405">
        <ele>100.52</ele>
        <time>2023-06-07T22:28:23.139Z</time>
      </trkpt>
      <trkpt lat="46.65137" lon="0.56416">
        <ele>99.95</ele>
        <time>2023-06-07T22:28:29.864Z</time>
      </trkpt>
      <trkpt lat="46.65145" lon="0.5642">
        <ele>99.75</ele>
        <time>2023-06-07T22:28:36.590Z</time>
      </trkpt>
      <trkpt lat="46.65157" lon="0.56427">
        <ele>99.54</ele>
        <time>2023-06-07T22:28:43.318Z</time>
      </trkpt>
      <trkpt lat="46.65166" lon="0.56431">
        <ele>99.45</ele>
        <time>2023-06-07T22:28:50.048Z</time>
      </trkpt>
      <trkpt lat="46.65174" lon="0.56436">
        <ele>99.39</ele>
        <time>2023-06-07T22:28:56.779Z</time>
      </trkpt>
      <trkpt lat="46.65186" lon="0.56442">
        <ele>99.36</ele>
        <time>2023-06-07T22:29:03.512Z</time>
      </trkpt>
      <trkpt lat="46.65194" lon="0.56447">
        <ele>99.39</ele>
        <time>2023-06-07T22:29:10.247Z</time>
      </trkpt>
      <trkpt lat="46.65207" lon="0.56454">
        <ele>99.47</ele>
        <time>2023-06-07T22:29:16.984Z</time>
      </trkpt>
      <trkpt lat="46.65213" lon="0.56457">
        <ele>99.51</ele>
        <time>2023-06-07T22:29:23.722Z</time>
      </trkpt>
      <trkpt lat="46.65224" lon="0.5646">
        <ele>99.6</ele>
        <time>2023-06-07T22:29:30.462Z</time>
      </trkpt>
      <trkpt lat="46.65232" lon="0.56463">
        <ele>100.01</ele>
        <time>2023-06-07T22:29:37.203Z</time>
      </trkpt>
      <trkpt lat="46.65237" lon="0.56475">
        <ele>100.46</ele>
        <time>2023-06-07T22:29:43.945Z</time>
      </trkpt>
      <trkpt lat="46.65239" lon="0.5648">
        <ele>100.69</ele>
        <time>2023-06-07T22:29:50.688Z</time>
      </trkpt>
      <trkpt lat="46.6525" lon="0.56509">
        <ele>101.96</ele>
        <time>2023-06-07T22:29:57.435Z</time>
      </trkpt>
      <trkpt lat="46.65254" lon="0.5652">
        <ele>102.42</ele>
        <time>2023-06-07T22:30:04.183Z</time>
      </trkpt>
      <trkpt lat="46.65261" lon="0.56538">
        <ele>103.08</ele>
        <time>2023-06-07T22:30:10.933Z</time>
      </trkpt>
      <trkpt lat="46.65264" lon="0.56542">
        <ele>103.26</ele>
        <time>2023-06-07T22:30:17.684Z</time>
      </trkpt>
      <trkpt lat="46.6527" lon="0.56551">
        <ele>103.64</ele>
        <time>2023-06-07T22:30:24.436Z</time>
      </trkpt>
      <trkpt lat="46.65273" lon="0.56556">
        <ele>103.8</ele>
        <time>2023-06-07T22:30:31.189Z</time>
      </trkpt>
      <trkpt lat="46.65276" lon="0.56561">
        <ele>103.93</ele>
        <time>2023-06-07T22:30:37.943Z</time>
      </trkpt>
      <trkpt lat="46.65279" lon="0.56566">
        <ele>104.02</ele>
        <time>2023-06-07T22:30:44.698Z</time>
      </trkpt>
      <trkpt lat="46.65282" lon="0.5657">
        <ele>104.09</ele>
        <time>2023-06-07T22:30:51.453Z</time>
      </trkpt>
      <trkpt lat="46.65285" lon="0.56575">
        <ele>104.14</ele>
        <time>2023-06-07T22:30:58.209Z</time>
      </trkpt>
      <trkpt lat="46.65291" lon="0.56584">
        <ele>104.19</ele>
        <time>2023-06-07T22:31:04.966Z</time>
      </trkpt>
      <trkpt lat="46.653" lon="0.56598">
        <ele>104.18</ele>
        <time>2023-06-07T22:31:11.726Z</time>
      </trkpt>
      <trkpt lat="46.65306" lon="0.56607">
        <ele>104.1</ele>
        <time>2023-06-07T22:31:18.487Z</time>
      </trkpt>
      <trkpt lat="46.65313" lon="0.56617">
        <ele>104.02</ele>
        <time>2023-06-07T22:31:25.249Z</time>
      </trkpt>
      <trkpt lat="46.65326" lon="0.56635">
        <ele>103.76</ele>
        <time>2023-06-07T22:31:32.014Z</time>
      </trkpt>
      <trkpt lat="46.65336" lon="0.56649">
        <ele>103.48</ele>
        <time>2023-06-07T22:31:38.781Z</time>
      </trkpt>
      <trkpt lat="46.65352" lon="0.56671">
        <ele>102.94</ele>
        <time>2023-06-07T22:31:45.552Z</time>
      </trkpt>
      <trkpt lat="46.65358" lon="0.5668">
        <ele>102.7</ele>
        <time>2023-06-07T22:31:52.325Z</time>
      </trkpt>
      <trkpt lat="46.65362" lon="0.56685">
        <ele>102.55</ele>
        <time>2023-06-07T22:31:59.098Z</time>
      </trkpt>
      <trkpt lat="46.65368" lon="0.56694">
        <ele>102.19</ele>
        <time>2023-06-07T22:32:05.873Z</time>
      </trkpt>
      <trkpt lat="46.65378" lon="0.56708">
        <ele>101.56</ele>
        <time>2023-06-07T22:32:12.650Z</time>
      </trkpt>
      <trkpt lat="46.65391" lon="0.56726">
        <ele>100.76</ele>
        <time>2023-06-07T22:32:19.430Z</time>
      </trkpt>
      <trkpt lat="46.65393" lon="0.56729">
        <ele>100.6</ele>
        <time>2023-06-07T22:32:26.210Z</time>
      </trkpt>
      <trkpt lat="46.65396" lon="0.56736">
        <ele>100.32</ele>
        <time>2023-06-07T22:32:32.991Z</time>
      </trkpt>
      <trkpt lat="46.65406" lon="0.56765">
        <ele>99.17</ele>
        <time>2023-06-07T22:32:39.776Z</time>
      </trkpt>
      <trkpt lat="46.65411" lon="0.56776">
        <ele>98.76</ele>
        <time>2023-06-07T22:32:46.562Z</time>
      </trkpt>
      <trkpt lat="46.65417" lon="0.56794">
        <ele>98.2</ele>
        <time>2023-06-07T22:32:53.350Z</time>
      </trkpt>
      <trkpt lat="46.65422" lon="0.56805">
        <ele>97.85</ele>
        <time>2023-06-07T22:33:00.140Z</time>
      </trkpt>
      <trkpt lat="46.65423" lon="0.56809">
        <ele>97.73</ele>
        <time>2023-06-07T22:33:06.930Z</time>
      </trkpt>
      <trkpt lat="46.65426" lon="0.56823">
        <ele>97.36</ele>
        <time>2023-06-07T22:33:13.722Z</time>
      </trkpt>
      <trkpt lat="46.65432" lon="0.56848">
        <ele>96.76</ele>
        <time>2023-06-07T22:33:20.517Z</time>
      </trkpt>
      <trkpt lat="46.65434" lon="0.56854">
        <ele>96.62</ele>
        <time>2023-06-07T22:33:27.313Z</time>
      </trkpt>
      <trkpt lat="46.65436" lon="0.56867">
        <ele>96.34</ele>
        <time>2023-06-07T22:33:34.110Z</time>
      </trkpt>
      <trkpt lat="46.65441" lon="0.56899">
        <ele>95.72</ele>
        <time>2023-06-07T22:33:40.911Z</time>
      </trkpt>
      <trkpt lat="46.65447" lon="0.56937">
        <ele>95.15</ele>
        <time>2023-06-07T22:33:47.716Z</time>
      </trkpt>
      <trkpt lat="46.65451" lon="0.56962">
        <ele>94.75</ele>
        <time>2023-06-07T22:33:54.524Z</time>
      </trkpt>
      <trkpt lat="46.65459" lon="0.57013">
        <ele>94.09</ele>
        <time>2023-06-07T22:34:01.338Z</time>
      </trkpt>
      <trkpt lat="46.65465" lon="0.57052">
        <ele>93.64</ele>
        <time>2023-06-07T22:34:08.156Z</time>
      </trkpt>
      <trkpt lat="46.65471" lon="0.5709">
        <ele>93.26</ele>
        <time>2023-06-07T22:34:14.978Z</time>
      </trkpt>
      <trkpt lat="46.65472" lon="0.57096">
        <ele>93.21</ele>
        <time>2023-06-07T22:34:21.801Z</time>
      </trkpt>
      <trkpt lat="46.6548" lon="0.57127">
        <ele>92.8</ele>
        <time>2023-06-07T22:34:28.627Z</time>
      </trkpt>
      <trkpt lat="46.65485" lon="0.57151">
        <ele>92.43</ele>
        <time>2023-06-07T22:34:35.456Z</time>
      </trkpt>
      <trkpt lat="46.65493" lon="0.57182">
        <ele>91.91</ele>
        <time>2023-06-07T22:34:42.289Z</time>
      </trkpt>
      <trkpt lat="46.65496" lon="0.57195">
        <ele>91.72</ele>
        <time>2023-06-07T22:34:49.123Z</time>
      </trkpt>
      <trkpt lat="46.65496" lon="0.57196">
        <ele>91.7</ele>
        <time>2023-06-07T22:34:55.958Z</time>
      </trkpt>
      <trkpt lat="46.65516" lon="0.57245">
        <ele>90.95</ele>
        <time>2023-06-07T22:35:02.799Z</time>
      </trkpt>
      <trkpt lat="46.65543" lon="0.57313">
        <ele>89.88</ele>
        <time>2023-06-07T22:35:09.648Z</time>
      </trkpt>
      <trkpt lat="46.65553" lon="0.57335">
        <ele>89.56</ele>
        <time>2023-06-07T22:35:16.500Z</time>
      </trkpt>
      <trkpt lat="46.65559" lon="0.57352">
        <ele>89.27</ele>
        <time>2023-06-07T22:35:23.355Z</time>
      </trkpt>
      <trkpt lat="46.65565" lon="0.57366">
        <ele>89.14</ele>
        <time>2023-06-07T22:35:30.211Z</time>
      </trkpt>
      <trkpt lat="46.65569" lon="0.57376">
        <ele>88.81</ele>
        <time>2023-06-07T22:35:37.069Z</time>
      </trkpt>
      <trkpt lat="46.65575" lon="0.57394">
        <ele>88.27</ele>
        <time>2023-06-07T22:35:43.929Z</time>
      </trkpt>
      <trkpt lat="46.65579" lon="0.57406">
        <ele>87.87</ele>
        <time>2023-06-07T22:35:50.790Z</time>
      </trkpt>
      <trkpt lat="46.65583" lon="0.57417">
        <ele>87.42</ele>
        <time>2023-06-07T22:35:57.653Z</time>
      </trkpt>
      <trkpt lat="46.65585" lon="0.57423">
        <ele>87.18</ele>
        <time>2023-06-07T22:36:04.516Z</time>
      </trkpt>
      <trkpt lat="46.65589" lon="0.57435">
        <ele>86.65</ele>
        <time>2023-06-07T22:36:11.381Z</time>
      </trkpt>
      <trkpt lat="46.65594" lon="0.57451">
        <ele>85.86</ele>
        <time>2023-06-07T22:36:18.248Z</time>
      </trkpt>
      <trkpt lat="46.65599" lon="0.5747">
        <ele>84.97</ele>
        <time>2023-06-07T22:36:25.117Z</time>
      </trkpt>
      <trkpt lat="46.65602" lon="0.57482">
        <ele>84.44</ele>
        <time>2023-06-07T22:36:31.987Z</time>
      </trkpt>
      <trkpt lat="46.65617" lon="0.57536">
        <ele>82.24</ele>
        <time>2023-06-07T22:36:38.864Z</time>
      </trkpt>
      <trkpt lat="46.65619" lon="0.57543">
        <ele>81.93</ele>
        <time>2023-06-07T22:36:45.742Z</time>
      </trkpt>
      <trkpt lat="46.6562" lon="0.57555">
        <ele>81.47</ele>
        <time>2023-06-07T22:36:52.621Z</time>
      </trkpt>
      <trkpt lat="46.65621" lon="0.57565">
        <ele>81</ele>
        <time>2023-06-07T22:36:59.501Z</time>
      </trkpt>
      <trkpt lat="46.65619" lon="0.57574">
        <ele>80.61</ele>
        <time>2023-06-07T22:37:06.382Z</time>
      </trkpt>
      <trkpt lat="46.65617" lon="0.57585">
        <ele>79.99</ele>
        <time>2023-06-07T22:37:13.264Z</time>
      </trkpt>
      <trkpt lat="46.65617" lon="0.57586">
        <ele>79.99</ele>
        <time>2023-06-07T22:37:20.147Z</time>
      </trkpt>
      <trkpt lat="46.65612" lon="0.57596">
        <ele>79.33</ele>
        <time>2023-06-07T22:37:27.031Z</time>
      </trkpt>
      <trkpt lat="46.65606" lon="0.57608">
        <ele>78.56</ele>
        <time>2023-06-07T22:37:33.916Z</time>
      </trkpt>
      <trkpt lat="46.65587" lon="0.57633">
        <ele>76.56</ele>
        <time>2023-06-07T22:37:40.806Z</time>
      </trkpt>
      <trkpt lat="46.65586" lon="0.57635">
        <ele>76.4</ele>
        <time>2023-06-07T22:37:47.696Z</time>
      </trkpt>
      <trkpt lat="46.65583" lon="0.57644">
        <ele>75.74</ele>
        <time>2023-06-07T22:37:54.587Z</time>
      </trkpt>
      <trkpt lat="46.65583" lon="0.57651">
        <ele>75.28</ele>
        <time>2023-06-07T22:38:01.479Z</time>
      </trkpt>
      <trkpt lat="46.65587" lon="0.57663">
        <ele>74.42</ele>
        <time>2023-06-07T22:38:08.372Z</time>
      </trkpt>
      <trkpt lat="46.65594" lon="0.57686">
        <ele>72.63</ele>
        <time>2023-06-07T22:38:15.268Z</time>
      </trkpt>
      <trkpt lat="46.65596" lon="0.57692">
        <ele>72.16</ele>
        <time>2023-06-07T22:38:22.165Z</time>
      </trkpt>
      <trkpt lat="46.65594" lon="0.57698">
        <ele>71.65</ele>
        <time>2023-06-07T22:38:29.062Z</time>
      </trkpt>
      <trkpt lat="46.6559" lon="0.5771">
        <ele>70.58</ele>
        <time>2023-06-07T22:38:35.961Z</time>
      </trkpt>
      <trkpt lat="46.65587" lon="0.57714">
        <ele>70.09</ele>
        <time>2023-06-07T22:38:42.861Z</time>
      </trkpt>
      <trkpt lat="46.6558" lon="0.57722">
        <ele>69.16</ele>
        <time>2023-06-07T22:38:49.762Z</time>
      </trkpt>
      <trkpt lat="46.6557" lon="0.57735">
        <ele>67.86</ele>
        <time>2023-06-07T22:38:56.665Z</time>
      </trkpt>
      <trkpt lat="46.65556" lon="0.57752">
        <ele>66.24</ele>
        <time>2023-06-07T22:39:03.571Z</time>
      </trkpt>
      <trkpt lat="46.65549" lon="0.5776">
        <ele>65.41</ele>
        <time>2023-06-07T22:39:10.478Z</time>
      </trkpt>
      <trkpt lat="46.65532" lon="0.57781">
        <ele>63.26</ele>
        <time>2023-06-07T22:39:17.389Z</time>
      </trkpt>
      <trkpt lat="46.65526" lon="0.5779">
        <ele>62.45</ele>
        <time>2023-06-07T22:39:24.301Z</time>
      </trkpt>
      <trkpt lat="46.65522" lon="0.57794">
        <ele>62.08</ele>
        <time>2023-06-07T22:39:31.214Z</time>
      </trkpt>
      <trkpt lat="46.65515" lon="0.57802">
        <ele>61.39</ele>
        <time>2023-06-07T22:39:38.129Z</time>
      </trkpt>
      <trkpt lat="46.65512" lon="0.57806">
        <ele>61.09</ele>
        <time>2023-06-07T22:39:45.044Z</time>
      </trkpt>
      <trkpt lat="46.65509" lon="0.5781">
        <ele>60.82</ele>
        <time>2023-06-07T22:39:51.960Z</time>
      </trkpt>
      <trkpt lat="46.65508" lon="0.5781">
        <ele>60.82</ele>
        <time>2023-06-07T22:39:58.876Z</time>
      </trkpt>
      <trkpt lat="46.65504" lon="0.57812">
        <ele>60.6</ele>
        <time>2023-06-07T22:40:05.793Z</time>
      </trkpt>
      <trkpt lat="46.655" lon="0.57814">
        <ele>60.44</ele>
        <time>2023-06-07T22:40:12.710Z</time>
      </trkpt>
      <trkpt lat="46.65496" lon="0.57817">
        <ele>60.33</ele>
        <time>2023-06-07T22:40:19.628Z</time>
      </trkpt>
      <trkpt lat="46.65492" lon="0.57819">
        <ele>60.26</ele>
        <time>2023-06-07T22:40:26.547Z</time>
      </trkpt>
      <trkpt lat="46.65487" lon="0.57821">
        <ele>60.23</ele>
        <time>2023-06-07T22:40:33.467Z</time>
      </trkpt>
      <trkpt lat="46.65466" lon="0.57831">
        <ele>60.3</ele>
        <time>2023-06-07T22:40:40.390Z</time>
      </trkpt>
      <trkpt lat="46.65458" lon="0.57835">
        <ele>60.36</ele>
        <time>2023-06-07T22:40:47.315Z</time>
      </trkpt>
      <trkpt lat="46.65428" lon="0.5785">
        <ele>60.64</ele>
        <time>2023-06-07T22:40:54.245Z</time>
      </trkpt>
      <trkpt lat="46.65407" lon="0.5786">
        <ele>60.88</ele>
        <time>2023-06-07T22:41:01.178Z</time>
      </trkpt>
      <trkpt lat="46.6539" lon="0.57869">
        <ele>61.1</ele>
        <time>2023-06-07T22:41:08.114Z</time>
      </trkpt>
      <trkpt lat="46.65348" lon="0.5789">
        <ele>61.52</ele>
        <time>2023-06-07T22:41:15.057Z</time>
      </trkpt>
      <trkpt lat="46.65331" lon="0.57898">
        <ele>61.62</ele>
        <time>2023-06-07T22:41:22.003Z</time>
      </trkpt>
      <trkpt lat="46.65319" lon="0.57904">
        <ele>61.8</ele>
        <time>2023-06-07T22:41:28.951Z</time>
      </trkpt>
      <trkpt lat="46.65302" lon="0.57913">
        <ele>62.1</ele>
        <time>2023-06-07T22:41:35.902Z</time>
      </trkpt>
      <trkpt lat="46.65294" lon="0.57917">
        <ele>62.22</ele>
        <time>2023-06-07T22:41:42.854Z</time>
      </trkpt>
      <trkpt lat="46.65285" lon="0.57921">
        <ele>62.3</ele>
        <time>2023-06-07T22:41:49.808Z</time>
      </trkpt>
      <trkpt lat="46.65268" lon="0.57929">
        <ele>62.4</ele>
        <time>2023-06-07T22:41:56.765Z</time>
      </trkpt>
      <trkpt lat="46.65261" lon="0.57933">
        <ele>62.46</ele>
        <time>2023-06-07T22:42:03.723Z</time>
      </trkpt>
      <trkpt lat="46.6526" lon="0.57934">
        <ele>62.48</ele>
        <time>2023-06-07T22:42:10.681Z</time>
      </trkpt>
      <trkpt lat="46.65251" lon="0.57938">
        <ele>62.51</ele>
        <time>2023-06-07T22:42:17.641Z</time>
      </trkpt>
      <trkpt lat="46.65243" lon="0.57943">
        <ele>62.48</ele>
        <time>2023-06-07T22:42:24.602Z</time>
      </trkpt>
      <trkpt lat="46.65226" lon="0.57953">
        <ele>62.36</ele>
        <time>2023-06-07T22:42:31.566Z</time>
      </trkpt>
      <trkpt lat="46.65214" lon="0.5796">
        <ele>62.21</ele>
        <time>2023-06-07T22:42:38.532Z</time>
      </trkpt>
      <trkpt lat="46.65197" lon="0.57969">
        <ele>61.91</ele>
        <time>2023-06-07T22:42:45.501Z</time>
      </trkpt>
      <trkpt lat="46.65189" lon="0.57974">
        <ele>61.81</ele>
        <time>2023-06-07T22:42:52.471Z</time>
      </trkpt>
      <trkpt lat="46.65184" lon="0.57976">
        <ele>61.78</ele>
        <time>2023-06-07T22:42:59.442Z</time>
      </trkpt>
      <trkpt lat="46.65176" lon="0.57981">
        <ele>61.78</ele>
        <time>2023-06-07T22:43:06.414Z</time>
      </trkpt>
      <trkpt lat="46.65163" lon="0.57988">
        <ele>61.84</ele>
        <time>2023-06-07T22:43:13.389Z</time>
      </trkpt>
      <trkpt lat="46.65155" lon="0.57993">
        <ele>61.93</ele>
        <time>2023-06-07T22:43:20.365Z</time>
      </trkpt>
      <trkpt lat="46.65142" lon="0.58">
        <ele>62.1</ele>
        <time>2023-06-07T22:43:27.343Z</time>
      </trkpt>
      <trkpt lat="46.65134" lon="0.58004">
        <ele>62.16</ele>
        <time>2023-06-07T22:43:34.323Z</time>
      </trkpt>
      <trkpt lat="46.65126" lon="0.58009">
        <ele>62.15</ele>
        <time>2023-06-07T22:43:41.304Z</time>
      </trkpt>
      <trkpt lat="46.65119" lon="0.58013">
        <ele>62.07</ele>
        <time>2023-06-07T22:43:48.286Z</time>
      </trkpt>
      <trkpt lat="46.65117" lon="0.58014">
        <ele>62.06</ele>
        <time>2023-06-07T22:43:55.269Z</time>
      </trkpt>
      <trkpt lat="46.65109" lon="0.58018">
        <ele>61.93</ele>
        <time>2023-06-07T22:44:02.253Z</time>
      </trkpt>
      <trkpt lat="46.651" lon="0.58022">
        <ele>61.74</ele>
        <time>2023-06-07T22:44:09.238Z</time>
      </trkpt>
      <trkpt lat="46.65092" lon="0.58026">
        <ele>61.48</ele>
        <time>2023-06-07T22:44:16.225Z</time>
      </trkpt>
      <trkpt lat="46.65079" lon="0.58033">
        <ele>61.01</ele>
        <time>2023-06-07T22:44:23.214Z</time>
      </trkpt>
      <trkpt lat="46.65075" lon="0.58035">
        <ele>60.87</ele>
        <time>2023-06-07T22:44:30.204Z</time>
      </trkpt>
      <trkpt lat="46.65071" lon="0.58037">
        <ele>60.76</ele>
        <time>2023-06-07T22:44:37.194Z</time>
      </trkpt>
      <trkpt lat="46.65054" lon="0.58045">
        <ele>60.46</ele>
        <time>2023-06-07T22:44:44.187Z</time>
      </trkpt>
      <trkpt lat="46.65045" lon="0.5805">
        <ele>60.27</ele>
        <time>2023-06-07T22:44:51.182Z</time>
      </trkpt>
      <trkpt lat="46.65038" lon="0.58053">
        <ele>60.05</ele>
        <time>2023-06-07T22:44:58.178Z</time>
      </trkpt>
      <trkpt lat="46.65037" lon="0.58054">
        <ele>60.01</ele>
        <time>2023-06-07T22:45:05.174Z</time>
      </trkpt>
      <trkpt lat="46.65026" lon="0.58065">
        <ele>59.54</ele>
        <time>2023-06-07T22:45:12.172Z</time>
      </trkpt>
      <trkpt lat="46.65018" lon="0.58073">
        <ele>59.26</ele>
        <time>2023-06-07T22:45:19.172Z</time>
      </trkpt>
      <trkpt lat="46.65015" lon="0.58076">
        <ele>59.16</ele>
        <time>2023-06-07T22:45:26.172Z</time>
      </trkpt>
      <trkpt lat="46.65014" lon="0.58076">
        <ele>59.16</ele>
        <time>2023-06-07T22:45:33.173Z</time>
      </trkpt>
      <trkpt lat="46.6501" lon="0.58079">
        <ele>59.09</ele>
        <time>2023-06-07T22:45:40.174Z</time>
      </trkpt>
      <trkpt lat="46.65002" lon="0.58084">
        <ele>59</ele>
        <time>2023-06-07T22:45:47.177Z</time>
      </trkpt>
      <trkpt lat="46.64977" lon="0.58099">
        <ele>58.92</ele>
        <time>2023-06-07T22:45:54.184Z</time>
      </trkpt>
      <trkpt lat="46.6496" lon="0.58108">
        <ele>58.98</ele>
        <time>2023-06-07T22:46:01.194Z</time>
      </trkpt>
      <trkpt lat="46.64952" lon="0.58113">
        <ele>58.99</ele>
        <time>2023-06-07T22:46:08.205Z</time>
      </trkpt>
      <trkpt lat="46.64927" lon="0.58128">
        <ele>58.88</ele>
        <time>2023-06-07T22:46:15.221Z</time>
      </trkpt>
      <trkpt lat="46.64917" lon="0.58134">
        <ele>58.87</ele>
        <time>2023-06-07T22:46:22.238Z</time>
      </trkpt>
      <trkpt lat="46.64906" lon="0.58139">
        <ele>58.86</ele>
        <time>2023-06-07T22:46:29.257Z</time>
      </trkpt>
      <trkpt lat="46.6488" lon="0.58151">
        <ele>58.9</ele>
        <time>2023-06-07T22:46:36.281Z</time>
      </trkpt>
      <trkpt lat="46.64859" lon="0.58161">
        <ele>59.04</ele>
        <time>2023-06-07T22:46:43.308Z</time>
      </trkpt>
      <trkpt lat="46.64846" lon="0.58166">
        <ele>59.06</ele>
        <time>2023-06-07T22:46:50.337Z</time>
      </trkpt>
      <trkpt lat="46.6484" lon="0.58169">
        <ele>59.03</ele>
        <time>2023-06-07T22:46:57.367Z</time>
      </trkpt>
      <trkpt lat="46.64837" lon="0.5817">
        <ele>59.02</ele>
        <time>2023-06-07T22:47:04.398Z</time>
      </trkpt>
      <trkpt lat="46.64812" lon="0.58183">
        <ele>58.78</ele>
        <time>2023-06-07T22:47:11.433Z</time>
      </trkpt>
      <trkpt lat="46.64803" lon="0.58187">
        <ele>58.77</ele>
        <time>2023-06-07T22:47:18.469Z</time>
      </trkpt>
      <trkpt lat="46.64795" lon="0.58191">
        <ele>58.83</ele>
        <time>2023-06-07T22:47:25.507Z</time>
      </trkpt>
      <trkpt lat="46.6479" lon="0.58193">
        <ele>58.9</ele>
        <time>2023-06-07T22:47:32.546Z</time>
      </trkpt>
      <trkpt lat="46.64786" lon="0.58196">
        <ele>58.99</ele>
        <time>2023-06-07T22:47:39.585Z</time>
      </trkpt>
      <trkpt lat="46.64765" lon="0.58206">
        <ele>59.55</ele>
        <time>2023-06-07T22:47:46.628Z</time>
      </trkpt>
      <trkpt lat="46.64765" lon="0.58206">
        <ele>59.55</ele>
        <time>2023-06-07T22:47:53.671Z</time>
      </trkpt>
      <trkpt lat="46.64752" lon="0.58211">
        <ele>59.73</ele>
        <time>2023-06-07T22:48:00.716Z</time>
      </trkpt>
      <trkpt lat="46.64743" lon="0.58214">
        <ele>59.77</ele>
        <time>2023-06-07T22:48:07.763Z</time>
      </trkpt>
      <trkpt lat="46.64726" lon="0.5822">
        <ele>59.73</ele>
        <time>2023-06-07T22:48:14.812Z</time>
      </trkpt>
      <trkpt lat="46.64717" lon="0.58223">
        <ele>59.75</ele>
        <time>2023-06-07T22:48:21.863Z</time>
      </trkpt>
      <trkpt lat="46.64678" lon="0.58236">
        <ele>60.11</ele>
        <time>2023-06-07T22:48:28.920Z</time>
      </trkpt>
      <trkpt lat="46.6466" lon="0.58242">
        <ele>60.2</ele>
        <time>2023-06-07T22:48:35.980Z</time>
      </trkpt>
      <trkpt lat="46.64647" lon="0.58247">
        <ele>60.29</ele>
        <time>2023-06-07T22:48:43.042Z</time>
      </trkpt>
      <trkpt lat="46.64638" lon="0.5825">
        <ele>60.31</ele>
        <time>2023-06-07T22:48:50.106Z</time>
      </trkpt>
      <trkpt lat="46.64634" lon="0.58251">
        <ele>60.29</ele>
        <time>2023-06-07T22:48:57.171Z</time>
      </trkpt>
      <trkpt lat="46.64629" lon="0.58253">
        <ele>60.24</ele>
        <time>2023-06-07T22:49:04.236Z</time>
      </trkpt>
      <trkpt lat="46.64625" lon="0.58254">
        <ele>60.16</ele>
        <time>2023-06-07T22:49:11.302Z</time>
      </trkpt>
      <trkpt lat="46.64616" lon="0.58257">
        <ele>59.94</ele>
        <time>2023-06-07T22:49:18.369Z</time>
      </trkpt>
      <trkpt lat="46.64612" lon="0.58259">
        <ele>59.79</ele>
        <time>2023-06-07T22:49:25.437Z</time>
      </trkpt>
      <trkpt lat="46.64608" lon="0.58261">
        <ele>59.64</ele>
        <time>2023-06-07T22:49:32.506Z</time>
      </trkpt>
      <trkpt lat="46.64591" lon="0.58269">
        <ele>58.99</ele>
        <time>2023-06-07T22:49:39.578Z</time>
      </trkpt>
      <trkpt lat="46.64586" lon="0.5827">
        <ele>58.84</ele>
        <time>2023-06-07T22:49:46.650Z</time>
      </trkpt>
      <trkpt lat="46.64585" lon="0.58271">
        <ele>58.8</ele>
        <time>2023-06-07T22:49:53.723Z</time>
      </trkpt>
      <trkpt lat="46.64582" lon="0.58273">
        <ele>58.72</ele>
        <time>2023-06-07T22:50:00.796Z</time>
      </trkpt>
      <trkpt lat="46.64574" lon="0.58278">
        <ele>58.56</ele>
        <time>2023-06-07T22:50:07.871Z</time>
      </trkpt>
      <trkpt lat="46.6457" lon="0.5828">
        <ele>58.53</ele>
        <time>2023-06-07T22:50:14.946Z</time>
      </trkpt>
      <trkpt lat="46.64565" lon="0.58283">
        <ele>58.54</ele>
        <time>2023-06-07T22:50:22.022Z</time>
      </trkpt>
      <trkpt lat="46.64561" lon="0.58284">
        <ele>58.55</ele>
        <time>2023-06-07T22:50:29.099Z</time>
      </trkpt>
      <trkpt lat="46.64557" lon="0.58286">
        <ele>58.61</ele>
        <time>2023-06-07T22:50:36.176Z</time>
      </trkpt>
      <trkpt lat="46.64554" lon="0.58287">
        <ele>58.67</ele>
        <time>2023-06-07T22:50:43.254Z</time>
      </trkpt>
      <trkpt lat="46.64552" lon="0.58287">
        <ele>58.71</ele>
        <time>2023-06-07T22:50:50.332Z</time>
      </trkpt>
      <trkpt lat="46.64548" lon="0.58287">
        <ele>58.86</ele>
        <time>2023-06-07T22:50:57.411Z</time>
      </trkpt>
      <trkpt lat="46.64543" lon="0.58286">
        <ele>59.05</ele>
        <time>2023-06-07T22:51:04.491Z</time>
      </trkpt>
      <trkpt lat="46.64534" lon="0.58285">
        <ele>59.53</ele>
        <time>2023-06-07T22:51:11.572Z</time>
      </trkpt>
      <trkpt lat="46.64528" lon="0.58285">
        <ele>59.93</ele>
        <time>2023-06-07T22:51:18.654Z</time>
      </trkpt>
      <trkpt lat="46.64526" lon="0.58282">
        <ele>60.1</ele>
        <time>2023-06-07T22:51:25.737Z</time>
      </trkpt>
      <trkpt lat="46.64524" lon="0.58279">
        <ele>60.31</ele>
        <time>2023-06-07T22:51:32.820Z</time>
      </trkpt>
      <trkpt lat="46.64522" lon="0.5825">
        <ele>61.73</ele>
        <time>2023-06-07T22:51:39.906Z</time>
      </trkpt>
      <trkpt lat="46.64522" lon="0.58245">
        <ele>62</ele>
        <time>2023-06-07T22:51:46.993Z</time>
      </trkpt>
      <trkpt lat="46.64524" lon="0.58225">
        <ele>62.9</ele>
        <time>2023-06-07T22:51:54.082Z</time>
      </trkpt>
      <trkpt lat="46.64525" lon="0.58205">
        <ele>63.77</ele>
        <time>2023-06-07T22:52:01.173Z</time>
      </trkpt>
      <trkpt lat="46.64526" lon="0.58192">
        <ele>64.41</ele>
        <time>2023-06-07T22:52:08.266Z</time>
      </trkpt>
      <trkpt lat="46.64526" lon="0.58188">
        <ele>64.64</ele>
        <time>2023-06-07T22:52:15.359Z</time>
      </trkpt>
      <trkpt lat="46.64526" lon="0.58179">
        <ele>65.12</ele>
        <time>2023-06-07T22:52:22.453Z</time>
      </trkpt>
      <trkpt lat="46.64527" lon="0.58153">
        <ele>66.67</ele>
        <time>2023-06-07T22:52:29.550Z</time>
      </trkpt>
      <trkpt lat="46.64527" lon="0.58145">
        <ele>67.12</ele>
        <time>2023-06-07T22:52:36.648Z</time>
      </trkpt>
      <trkpt lat="46.64523" lon="0.58133">
        <ele>67.87</ele>
        <time>2023-06-07T22:52:43.747Z</time>
      </trkpt>
      <trkpt lat="46.6452" lon="0.5813">
        <ele>68.14</ele>
        <time>2023-06-07T22:52:50.847Z</time>
      </trkpt>
      <trkpt lat="46.64514" lon="0.58124">
        <ele>67.84</ele>
        <time>2023-06-07T22:52:57.948Z</time>
      </trkpt>
      <trkpt lat="46.64514" lon="0.58158">
        <ele>66.94</ele>
        <time>2023-06-07T22:53:05.053Z</time>
      </trkpt>
      <trkpt lat="46.64511" lon="0.58191">
        <ele>66.06</ele>
        <time>2023-06-07T22:53:12.161Z</time>
      </trkpt>
      <trkpt lat="46.6451" lon="0.5821">
        <ele>65.59</ele>
        <time>2023-06-07T22:53:19.272Z</time>
      </trkpt>
      <trkpt lat="46.64508" lon="0.58223">
        <ele>65.32</ele>
        <time>2023-06-07T22:53:26.384Z</time>
      </trkpt>
      <trkpt lat="46.64507" lon="0.58236">
        <ele>65.1</ele>
        <time>2023-06-07T22:53:33.498Z</time>
      </trkpt>
      <trkpt lat="46.64507" lon="0.58241">
        <ele>65.03</ele>
        <time>2023-06-07T22:53:40.612Z</time>
      </trkpt>
      <trkpt lat="46.64507" lon="0.58249">
        <ele>64.92</ele>
        <time>2023-06-07T22:53:47.727Z</time>
      </trkpt>
      <trkpt lat="46.64508" lon="0.58269">
        <ele>64.72</ele>
        <time>2023-06-07T22:53:54.844Z</time>
      </trkpt>
      <trkpt lat="46.64509" lon="0.5828">
        <ele>64.72</ele>
        <time>2023-06-07T22:54:01.962Z</time>
      </trkpt>
      <trkpt lat="46.64514" lon="0.5832">
        <ele>64.72</ele>
        <time>2023-06-07T22:54:09.085Z</time>
      </trkpt>
      <trkpt lat="46.6452" lon="0.58365">
        <ele>64.64</ele>
        <time>2023-06-07T22:54:16.213Z</time>
      </trkpt>
      <trkpt lat="46.64523" lon="0.58384">
        <ele>64.56</ele>
        <time>2023-06-07T22:54:23.343Z</time>
      </trkpt>
      <trkpt lat="46.64533" lon="0.58457">
        <ele>64.08</ele>
        <time>2023-06-07T22:54:30.481Z</time>
      </trkpt>
      <trkpt lat="46.64535" lon="0.58476">
        <ele>63.51</ele>
        <time>2023-06-07T22:54:37.621Z</time>
      </trkpt>
      <trkpt lat="46.6454" lon="0.58507">
        <ele>62.6</ele>
        <time>2023-06-07T22:54:44.765Z</time>
      </trkpt>
      <trkpt lat="46.64543" lon="0.58533">
        <ele>61.91</ele>
        <time>2023-06-07T22:54:51.912Z</time>
      </trkpt>
      <trkpt lat="46.64546" lon="0.58552">
        <ele>61.43</ele>
        <time>2023-06-07T22:54:59.061Z</time>
      </trkpt>
      <trkpt lat="46.64548" lon="0.58571">
        <ele>61.01</ele>
        <time>2023-06-07T22:55:06.212Z</time>
      </trkpt>
      <trkpt lat="46.6455" lon="0.58583">
        <ele>60.77</ele>
        <time>2023-06-07T22:55:13.364Z</time>
      </trkpt>
      <trkpt lat="46.64552" lon="0.58602">
        <ele>60.46</ele>
        <time>2023-06-07T22:55:20.519Z</time>
      </trkpt>
      <trkpt lat="46.64554" lon="0.58615">
        <ele>60.31</ele>
        <time>2023-06-07T22:55:27.675Z</time>
      </trkpt>
      <trkpt lat="46.64557" lon="0.58634">
        <ele>60.17</ele>
        <time>2023-06-07T22:55:34.833Z</time>
      </trkpt>
      <trkpt lat="46.64559" lon="0.58653">
        <ele>60.09</ele>
        <time>2023-06-07T22:55:41.993Z</time>
      </trkpt>
      <trkpt lat="46.64562" lon="0.58671">
        <ele>60.07</ele>
        <time>2023-06-07T22:55:49.155Z</time>
      </trkpt>
      <trkpt lat="46.64564" lon="0.5869">
        <ele>60.1</ele>
        <time>2023-06-07T22:55:56.319Z</time>
      </trkpt>
      <trkpt lat="46.64566" lon="0.58703">
        <ele>60.17</ele>
        <time>2023-06-07T22:56:03.485Z</time>
      </trkpt>
      <trkpt lat="46.64567" lon="0.58709">
        <ele>60.23</ele>
        <time>2023-06-07T22:56:10.652Z</time>
      </trkpt>
      <trkpt lat="46.64572" lon="0.58747">
        <ele>60.71</ele>
        <time>2023-06-07T22:56:17.823Z</time>
      </trkpt>
      <trkpt lat="46.64574" lon="0.5876">
        <ele>60.83</ele>
        <time>2023-06-07T22:56:24.995Z</time>
      </trkpt>
      <trkpt lat="46.64575" lon="0.58772">
        <ele>60.92</ele>
        <time>2023-06-07T22:56:32.169Z</time>
      </trkpt>
      <trkpt lat="46.64577" lon="0.58784">
        <ele>60.67</ele>
        <time>2023-06-07T22:56:39.344Z</time>
      </trkpt>
      <trkpt lat="46.64586" lon="0.5878">
        <ele>60.38</ele>
        <time>2023-06-07T22:56:46.521Z</time>
      </trkpt>
      <trkpt lat="46.64591" lon="0.58778">
        <ele>60.27</ele>
        <time>2023-06-07T22:56:53.698Z</time>
      </trkpt>
      <trkpt lat="46.64599" lon="0.58774">
        <ele>60.11</ele>
        <time>2023-06-07T22:57:00.877Z</time>
      </trkpt>
      <trkpt lat="46.64608" lon="0.58771">
        <ele>59.98</ele>
        <time>2023-06-07T22:57:08.057Z</time>
      </trkpt>
      <trkpt lat="46.64621" lon="0.58765">
        <ele>59.84</ele>
        <time>2023-06-07T22:57:15.239Z</time>
      </trkpt>
      <trkpt lat="46.64634" lon="0.5876">
        <ele>59.75</ele>
        <time>2023-06-07T22:57:22.423Z</time>
      </trkpt>
      <trkpt lat="46.64646" lon="0.58754">
        <ele>59.71</ele>
        <time>2023-06-07T22:57:29.610Z</time>
      </trkpt>
      <trkpt lat="46.64659" lon="0.58749">
        <ele>59.73</ele>
        <time>2023-06-07T22:57:36.799Z</time>
      </trkpt>
      <trkpt lat="46.64685" lon="0.58737">
        <ele>59.88</ele>
        <time>2023-06-07T22:57:43.992Z</time>
      </trkpt>
      <trkpt lat="46.64694" lon="0.58734">
        <ele>59.97</ele>
        <time>2023-06-07T22:57:51.186Z</time>
      </trkpt>
      <trkpt lat="46.64702" lon="0.5873">
        <ele>60.1</ele>
        <time>2023-06-07T22:57:58.382Z</time>
      </trkpt>
      <trkpt lat="46.64711" lon="0.58726">
        <ele>60.28</ele>
        <time>2023-06-07T22:58:05.579Z</time>
      </trkpt>
      <trkpt lat="46.64737" lon="0.58715">
        <ele>60.88</ele>
        <time>2023-06-07T22:58:12.781Z</time>
      </trkpt>
      <trkpt lat="46.64744" lon="0.58712">
        <ele>60.73</ele>
        <time>2023-06-07T22:58:19.984Z</time>
      </trkpt>
      <trkpt lat="46.6475" lon="0.58731">
        <ele>60.46</ele>
        <time>2023-06-07T22:58:27.189Z</time>
      </trkpt>
      <trkpt lat="46.64754" lon="0.58742">
        <ele>60.32</ele>
        <time>2023-06-07T22:58:34.396Z</time>
      </trkpt>
      <trkpt lat="46.64756" lon="0.58748">
        <ele>60.27</ele>
        <time>2023-06-07T22:58:41.603Z</time>
      </trkpt>
      <trkpt lat="46.6476" lon="0.5876">
        <ele>60.21</ele>
        <time>2023-06-07T22:58:48.812Z</time>
      </trkpt>
      <trkpt lat="46.64766" lon="0.58777">
        <ele>60.22</ele>
        <time>2023-06-07T22:58:56.023Z</time>
      </trkpt>
      <trkpt lat="46.64769" lon="0.58788">
        <ele>60.28</ele>
        <time>2023-06-07T22:59:03.235Z</time>
      </trkpt>
      <trkpt lat="46.64773" lon="0.588">
        <ele>60.37</ele>
        <time>2023-06-07T22:59:10.449Z</time>
      </trkpt>
      <trkpt lat="46.64779" lon="0.58817">
        <ele>60.54</ele>
        <time>2023-06-07T22:59:17.665Z</time>
      </trkpt>
      <trkpt lat="46.64783" lon="0.58829">
        <ele>60.72</ele>
        <time>2023-06-07T22:59:24.882Z</time>
      </trkpt>
      <trkpt lat="46.64784" lon="0.58835">
        <ele>60.81</ele>
        <time>2023-06-07T22:59:32.100Z</time>
      </trkpt>
      <trkpt lat="46.64787" lon="0.5886">
        <ele>61.27</ele>
        <time>2023-06-07T22:59:39.321Z</time>
      </trkpt>
      <trkpt lat="46.6479" lon="0.58884">
        <ele>61.62</ele>
        <time>2023-06-07T22:59:46.544Z</time>
      </trkpt>
      <trkpt lat="46.64791" lon="0.58896">
        <ele>61.86</ele>
        <time>2023-06-07T22:59:53.769Z</time>
      </trkpt>
      <trkpt lat="46.64792" lon="0.58902">
        <ele>62.01</ele>
        <time>2023-06-07T23:00:00.994Z</time>
      </trkpt>
      <trkpt lat="46.64792" lon="0.58902">
        <ele>62.01</ele>
        <time>2023-06-07T23:00:08.219Z</time>
      </trkpt>
      <trkpt lat="46.64792" lon="0.58908">
        <ele>62.19</ele>
        <time>2023-06-07T23:00:15.445Z</time>
      </trkpt>
      <trkpt lat="46.64791" lon="0.58918">
        <ele>62.55</ele>
        <time>2023-06-07T23:00:22.672Z</time>
      </trkpt>
      <trkpt lat="46.64789" lon="0.58926">
        <ele>62.87</ele>
        <time>2023-06-07T23:00:29.900Z</time>
      </trkpt>
      <trkpt lat="46.64787" lon="0.58932">
        <ele>63.16</ele>
        <time>2023-06-07T23:00:37.129Z</time>
      </trkpt>
      <trkpt lat="46.64785" lon="0.58936">
        <ele>63.4</ele>
        <time>2023-06-07T23:00:44.358Z</time>
      </trkpt>
      <trkpt lat="46.64779" lon="0.58945">
        <ele>64.09</ele>
        <time>2023-06-07T23:00:51.589Z</time>
      </trkpt>
      <trkpt lat="46.64764" lon="0.58952">
        <ele>65.39</ele>
        <time>2023-06-07T23:00:58.822Z</time>
      </trkpt>
      <trkpt lat="46.64746" lon="0.58958">
        <ele>66.92</ele>
        <time>2023-06-07T23:01:06.058Z</time>
      </trkpt>
      <trkpt lat="46.64717" lon="0.58967">
        <ele>69.31</ele>
        <time>2023-06-07T23:01:13.299Z</time>
      </trkpt>
      <trkpt lat="46.647" lon="0.58972">
        <ele>70.54</ele>
        <time>2023-06-07T23:01:20.543Z</time>
      </trkpt>
      <trkpt lat="46.64695" lon="0.58974">
        <ele>70.89</ele>
        <time>2023-06-07T23:01:27.787Z</time>
      </trkpt>
      <trkpt lat="46.64687" lon="0.58978">
        <ele>71.49</ele>
        <time>2023-06-07T23:01:35.033Z</time>
      </trkpt>
      <trkpt lat="46.64679" lon="0.58983">
        <ele>72.04</ele>
        <time>2023-06-07T23:01:42.280Z</time>
      </trkpt>
      <trkpt lat="46.64662" lon="0.58991">
        <ele>73.11</ele>
        <time>2023-06-07T23:01:49.530Z</time>
      </trkpt>
      <trkpt lat="46.64645" lon="0.58999">
        <ele>74.23</ele>
        <time>2023-06-07T23:01:56.783Z</time>
      </trkpt>
      <trkpt lat="46.64624" lon="0.5901">
        <ele>75.71</ele>
        <time>2023-06-07T23:02:04.040Z</time>
      </trkpt>
      <trkpt lat="46.64603" lon="0.5902">
        <ele>77.25</ele>
        <time>2023-06-07T23:02:11.300Z</time>
      </trkpt>
      <trkpt lat="46.64595" lon="0.59024">
        <ele>77.9</ele>
        <time>2023-06-07T23:02:18.561Z</time>
      </trkpt>
      <trkpt lat="46.64578" lon="0.59031">
        <ele>79.25</ele>
        <time>2023-06-07T23:02:25.825Z</time>
      </trkpt>
      <trkpt lat="46.64561" lon="0.59039">
        <ele>80.65</ele>
        <time>2023-06-07T23:02:33.092Z</time>
      </trkpt>
      <trkpt lat="46.64536" lon="0.5905">
        <ele>82.84</ele>
        <time>2023-06-07T23:02:40.363Z</time>
      </trkpt>
      <trkpt lat="46.64531" lon="0.59052">
        <ele>83.28</ele>
        <time>2023-06-07T23:02:47.635Z</time>
      </trkpt>
      <trkpt lat="46.64524" lon="0.59059">
        <ele>84.01</ele>
        <time>2023-06-07T23:02:54.909Z</time>
      </trkpt>
      <trkpt lat="46.64517" lon="0.59074">
        <ele>85.11</ele>
        <time>2023-06-07T23:03:02.185Z</time>
      </trkpt>
      <trkpt lat="46.64517" lon="0.59074">
        <ele>85.11</ele>
        <time>2023-06-07T23:03:09.461Z</time>
      </trkpt>
      <trkpt lat="46.64514" lon="0.59094">
        <ele>86.31</ele>
        <time>2023-06-07T23:03:16.739Z</time>
      </trkpt>
      <trkpt lat="46.64514" lon="0.59094">
        <ele>86.31</ele>
        <time>2023-06-07T23:03:24.017Z</time>
      </trkpt>
      <trkpt lat="46.64516" lon="0.59105">
        <ele>87.17</ele>
        <time>2023-06-07T23:03:31.296Z</time>
      </trkpt>
      <trkpt lat="46.6452" lon="0.5911">
        <ele>87.68</ele>
        <time>2023-06-07T23:03:38.576Z</time>
      </trkpt>
      <trkpt lat="46.64526" lon="0.59117">
        <ele>88.47</ele>
        <time>2023-06-07T23:03:45.857Z</time>
      </trkpt>
      <trkpt lat="46.64531" lon="0.59119">
        <ele>89.02</ele>
        <time>2023-06-07T23:03:53.139Z</time>
      </trkpt>
      <trkpt lat="46.6454" lon="0.59123">
        <ele>89.88</ele>
        <time>2023-06-07T23:04:00.422Z</time>
      </trkpt>
      <trkpt lat="46.64544" lon="0.59125">
        <ele>90.28</ele>
        <time>2023-06-07T23:04:07.706Z</time>
      </trkpt>
      <trkpt lat="46.64557" lon="0.59131">
        <ele>91.42</ele>
        <time>2023-06-07T23:04:14.992Z</time>
      </trkpt>
      <trkpt lat="46.64565" lon="0.59135">
        <ele>92.15</ele>
        <time>2023-06-07T23:04:22.280Z</time>
      </trkpt>
      <trkpt lat="46.64578" lon="0.59141">
        <ele>93.17</ele>
        <time>2023-06-07T23:04:29.570Z</time>
      </trkpt>
      <trkpt lat="46.64586" lon="0.59145">
        <ele>93.81</ele>
        <time>2023-06-07T23:04:36.861Z</time>
      </trkpt>
      <trkpt lat="46.64591" lon="0.59147">
        <ele>94.1</ele>
        <time>2023-06-07T23:04:44.153Z</time>
      </trkpt>
      <trkpt lat="46.64599" lon="0.59151">
        <ele>94.62</ele>
        <time>2023-06-07T23:04:51.446Z</time>
      </trkpt>
      <trkpt lat="46.64608" lon="0.59155">
        <ele>95.07</ele>
        <time>2023-06-07T23:04:58.741Z</time>
      </trkpt>
      <trkpt lat="46.64616" lon="0.59159">
        <ele>95.48</ele>
        <time>2023-06-07T23:05:06.037Z</time>
      </trkpt>
      <trkpt lat="46.64625" lon="0.59163">
        <ele>95.86</ele>
        <time>2023-06-07T23:05:13.335Z</time>
      </trkpt>
      <trkpt lat="46.64633" lon="0.59167">
        <ele>96.21</ele>
        <time>2023-06-07T23:05:20.634Z</time>
      </trkpt>
      <trkpt lat="46.6465" lon="0.59174">
        <ele>96.78</ele>
        <time>2023-06-07T23:05:27.936Z</time>
      </trkpt>
      <trkpt lat="46.64667" lon="0.59182">
        <ele>97.13</ele>
        <time>2023-06-07T23:05:35.241Z</time>
      </trkpt>
      <trkpt lat="46.64673" lon="0.59185">
        <ele>97.24</ele>
        <time>2023-06-07T23:05:42.547Z</time>
      </trkpt>
      <trkpt lat="46.64678" lon="0.59191">
        <ele>97.36</ele>
        <time>2023-06-07T23:05:49.854Z</time>
      </trkpt>
      <trkpt lat="46.64685" lon="0.59198">
        <ele>97.66</ele>
        <time>2023-06-07T23:05:57.162Z</time>
      </trkpt>
      <trkpt lat="46.64687" lon="0.59204">
        <ele>97.81</ele>
        <time>2023-06-07T23:06:04.471Z</time>
      </trkpt>
      <trkpt lat="46.64692" lon="0.59221">
        <ele>98.31</ele>
        <time>2023-06-07T23:06:11.782Z</time>
      </trkpt>
      <trkpt lat="46.64697" lon="0.59238">
        <ele>98.88</ele>
        <time>2023-06-07T23:06:19.095Z</time>
      </trkpt>
      <trkpt lat="46.64705" lon="0.59266">
        <ele>99.94</ele>
        <time>2023-06-07T23:06:26.411Z</time>
      </trkpt>
      <trkpt lat="46.64719" lon="0.59262">
        <ele>100.66</ele>
        <time>2023-06-07T23:06:33.730Z</time>
      </trkpt>
      <trkpt lat="46.64728" lon="0.59259">
        <ele>101.04</ele>
        <time>2023-06-07T23:06:41.050Z</time>
      </trkpt>
      <trkpt lat="46.64754" lon="0.59251">
        <ele>101.95</ele>
        <time>2023-06-07T23:06:48.374Z</time>
      </trkpt>
      <trkpt lat="46.64763" lon="0.59249">
        <ele>102.19</ele>
        <time>2023-06-07T23:06:55.700Z</time>
      </trkpt>
      <trkpt lat="46.64772" lon="0.59246">
        <ele>102.35</ele>
        <time>2023-06-07T23:07:03.027Z</time>
      </trkpt>
      <trkpt lat="46.64779" lon="0.59244">
        <ele>102.38</ele>
        <time>2023-06-07T23:07:10.355Z</time>
      </trkpt>
      <trkpt lat="46.6478" lon="0.59243">
        <ele>102.39</ele>
        <time>2023-06-07T23:07:17.684Z</time>
      </trkpt>
      <trkpt lat="46.64801" lon="0.59231">
        <ele>102.19</ele>
        <time>2023-06-07T23:07:25.016Z</time>
      </trkpt>
      <trkpt lat="46.64822" lon="0.59219">
        <ele>102.02</ele>
        <time>2023-06-07T23:07:32.352Z</time>
      </trkpt>
      <trkpt lat="46.6483" lon="0.59214">
        <ele>102</ele>
        <time>2023-06-07T23:07:39.689Z</time>
      </trkpt>
      <trkpt lat="46.64834" lon="0.59211">
        <ele>102.04</ele>
        <time>2023-06-07T23:07:47.027Z</time>
      </trkpt>
      <trkpt lat="46.64843" lon="0.59206">
        <ele>102.16</ele>
        <time>2023-06-07T23:07:54.366Z</time>
      </trkpt>
      <trkpt lat="46.64855" lon="0.59199">
        <ele>102.38</ele>
        <time>2023-06-07T23:08:01.708Z</time>
      </trkpt>
      <trkpt lat="46.64867" lon="0.59192">
        <ele>102.92</ele>
        <time>2023-06-07T23:08:09.052Z</time>
      </trkpt>
      <trkpt lat="46.64888" lon="0.59179">
        <ele>103.68</ele>
        <time>2023-06-07T23:08:16.399Z</time>
      </trkpt>
      <trkpt lat="46.64896" lon="0.59174">
        <ele>104.02</ele>
        <time>2023-06-07T23:08:23.748Z</time>
      </trkpt>
      <trkpt lat="46.649" lon="0.59172">
        <ele>104.21</ele>
        <time>2023-06-07T23:08:31.097Z</time>
      </trkpt>
      <trkpt lat="46.64909" lon="0.59167">
        <ele>104.67</ele>
        <time>2023-06-07T23:08:38.448Z</time>
      </trkpt>
      <trkpt lat="46.64921" lon="0.5916">
        <ele>105.43</ele>
        <time>2023-06-07T23:08:45.801Z</time>
      </trkpt>
      <trkpt lat="46.64924" lon="0.59158">
        <ele>105.59</ele>
        <time>2023-06-07T23:08:53.155Z</time>
      </trkpt>
      <trkpt lat="46.64934" lon="0.59155">
        <ele>106.13</ele>
        <time>2023-06-07T23:09:00.510Z</time>
      </trkpt>
      <trkpt lat="46.6496" lon="0.59146">
        <ele>107.46</ele>
        <time>2023-06-07T23:09:07.869Z</time>
      </trkpt>
      <trkpt lat="46.64964" lon="0.59144">
        <ele>107.66</ele>
        <time>2023-06-07T23:09:15.229Z</time>
      </trkpt>
      <trkpt lat="46.64968" lon="0.59143">
        <ele>107.83</ele>
        <time>2023-06-07T23:09:22.590Z</time>
      </trkpt>
      <trkpt lat="46.6497" lon="0.59142">
        <ele>107.87</ele>
        <time>2023-06-07T23:09:29.951Z</time>
      </trkpt>
      <trkpt lat="46.64973" lon="0.59141">
        <ele>107.96</ele>
        <time>2023-06-07T23:09:37.313Z</time>
      </trkpt>
      <trkpt lat="46.64981" lon="0.59137">
        <ele>108.18</ele>
        <time>2023-06-07T23:09:44.676Z</time>
      </trkpt>
      <trkpt lat="46.64985" lon="0.59135">
        <ele>108.26</ele>
        <time>2023-06-07T23:09:52.040Z</time>
      </trkpt>
      <trkpt lat="46.6499" lon="0.59133">
        <ele>108.31</ele>
        <time>2023-06-07T23:09:59.404Z</time>
      </trkpt>
      <trkpt lat="46.64994" lon="0.59131">
        <ele>108.32</ele>
        <time>2023-06-07T23:10:06.769Z</time>
      </trkpt>
      <trkpt lat="46.64998" lon="0.59129">
        <ele>108.29</ele>
        <time>2023-06-07T23:10:14.135Z</time>
      </trkpt>
      <trkpt lat="46.65003" lon="0.59127">
        <ele>108.2</ele>
        <time>2023-06-07T23:10:21.502Z</time>
      </trkpt>
      <trkpt lat="46.65007" lon="0.59126">
        <ele>108.07</ele>
        <time>2023-06-07T23:10:28.869Z</time>
      </trkpt>
      <trkpt lat="46.65011" lon="0.59124">
        <ele>107.89</ele>
        <time>2023-06-07T23:10:36.237Z</time>
      </trkpt>
      <trkpt lat="46.65015" lon="0.59122">
        <ele>107.68</ele>
        <time>2023-06-07T23:10:43.606Z</time>
      </trkpt>
      <trkpt lat="46.65024" lon="0.59118">
        <ele>107.18</ele>
        <time>2023-06-07T23:10:50.976Z</time>
      </trkpt>
      <trkpt lat="46.65041" lon="0.5911">
        <ele>106.1</ele>
        <time>2023-06-07T23:10:58.349Z</time>
      </trkpt>
      <trkpt lat="46.65045" lon="0.59109">
        <ele>105.8</ele>
        <time>2023-06-07T23:11:05.723Z</time>
      </trkpt>
      <trkpt lat="46.65054" lon="0.59105">
        <ele>105.14</ele>
        <time>2023-06-07T23:11:13.098Z</time>
      </trkpt>
      <trkpt lat="46.65062" lon="0.59101">
        <ele>104.42</ele>
        <time>2023-06-07T23:11:20.475Z</time>
      </trkpt>
      <trkpt lat="46.6508" lon="0.59093">
        <ele>102.81</ele>
        <time>2023-06-07T23:11:27.855Z</time>
      </trkpt>
      <trkpt lat="46.6508" lon="0.59093">
        <ele>102.81</ele>
        <time>2023-06-07T23:11:35.235Z</time>
      </trkpt>
      <trkpt lat="46.6509" lon="0.59082">
        <ele>101.52</ele>
        <time>2023-06-07T23:11:42.617Z</time>
      </trkpt>
      <trkpt lat="46.65097" lon="0.59074">
        <ele>100.56</ele>
        <time>2023-06-07T23:11:50.000Z</time>
      </trkpt>
      <trkpt lat="46.65115" lon="0.59055">
        <ele>98</ele>
        <time>2023-06-07T23:11:57.387Z</time>
      </trkpt>
      <trkpt lat="46.65126" lon="0.59043">
        <ele>96.54</ele>
        <time>2023-06-07T23:12:04.776Z</time>
      </trkpt>
      <trkpt lat="46.65127" lon="0.59042">
        <ele>96.37</ele>
        <time>2023-06-07T23:12:12.165Z</time>
      </trkpt>
      <trkpt lat="46.65132" lon="0.59034">
        <ele>95.63</ele>
        <time>2023-06-07T23:12:19.555Z</time>
      </trkpt>
      <trkpt lat="46.65135" lon="0.5903">
        <ele>95.2</ele>
        <time>2023-06-07T23:12:26.946Z</time>
      </trkpt>
      <trkpt lat="46.65144" lon="0.59016">
        <ele>94.01</ele>
        <time>2023-06-07T23:12:34.339Z</time>
      </trkpt>
      <trkpt lat="46.65147" lon="0.59011">
        <ele>93.87</ele>
        <time>2023-06-07T23:12:41.733Z</time>
      </trkpt>
      <trkpt lat="46.6515" lon="0.59006">
        <ele>93.76</ele>
        <time>2023-06-07T23:12:49.127Z</time>
      </trkpt>
      <trkpt lat="46.65153" lon="0.59002">
        <ele>93.7</ele>
        <time>2023-06-07T23:12:56.522Z</time>
      </trkpt>
      <trkpt lat="46.65156" lon="0.58997">
        <ele>93.7</ele>
        <time>2023-06-07T23:13:03.918Z</time>
      </trkpt>
      <trkpt lat="46.65159" lon="0.58992">
        <ele>93.78</ele>
        <time>2023-06-07T23:13:11.314Z</time>
      </trkpt>
      <trkpt lat="46.65162" lon="0.58988">
        <ele>93.91</ele>
        <time>2023-06-07T23:13:18.711Z</time>
      </trkpt>
      <trkpt lat="46.65165" lon="0.58983">
        <ele>94.08</ele>
        <time>2023-06-07T23:13:26.109Z</time>
      </trkpt>
      <trkpt lat="46.65168" lon="0.58979">
        <ele>94.29</ele>
        <time>2023-06-07T23:13:33.508Z</time>
      </trkpt>
      <trkpt lat="46.65178" lon="0.58964">
        <ele>95.4</ele>
        <time>2023-06-07T23:13:40.909Z</time>
      </trkpt>
      <trkpt lat="46.65184" lon="0.58955">
        <ele>96.08</ele>
        <time>2023-06-07T23:13:48.311Z</time>
      </trkpt>
      <trkpt lat="46.65185" lon="0.58953">
        <ele>96.21</ele>
        <time>2023-06-07T23:13:55.713Z</time>
      </trkpt>
      <trkpt lat="46.65191" lon="0.58948">
        <ele>96.71</ele>
        <time>2023-06-07T23:14:03.117Z</time>
      </trkpt>
      <trkpt lat="46.6521" lon="0.58934">
        <ele>98.14</ele>
        <time>2023-06-07T23:14:10.524Z</time>
      </trkpt>
      <trkpt lat="46.65216" lon="0.58934">
        <ele>98.53</ele>
        <time>2023-06-07T23:14:17.932Z</time>
      </trkpt>
      <trkpt lat="46.65225" lon="0.58934">
        <ele>99.16</ele>
        <time>2023-06-07T23:14:25.341Z</time>
      </trkpt>
      <trkpt lat="46.65225" lon="0.58934">
        <ele>99.16</ele>
        <time>2023-06-07T23:14:32.750Z</time>
      </trkpt>
      <trkpt lat="46.65233" lon="0.58938">
        <ele>99.83</ele>
        <time>2023-06-07T23:14:40.161Z</time>
      </trkpt>
      <trkpt lat="46.65251" lon="0.58948">
        <ele>101.32</ele>
        <time>2023-06-07T23:14:47.575Z</time>
      </trkpt>
      <trkpt lat="46.65264" lon="0.5898">
        <ele>103.3</ele>
        <time>2023-06-07T23:14:54.993Z</time>
      </trkpt>
      <trkpt lat="46.65267" lon="0.58988">
        <ele>103.77</ele>
        <time>2023-06-07T23:15:02.412Z</time>
      </trkpt>
      <trkpt lat="46.65276" lon="0.59007">
        <ele>105</ele>
        <time>2023-06-07T23:15:09.833Z</time>
      </trkpt>
      <trkpt lat="46.65294" lon="0.59044">
        <ele>107.51</ele>
        <time>2023-06-07T23:15:17.259Z</time>
      </trkpt>
      <trkpt lat="46.65299" lon="0.59055">
        <ele>108.07</ele>
        <time>2023-06-07T23:15:24.687Z</time>
      </trkpt>
      <trkpt lat="46.65299" lon="0.59055">
        <ele>108.07</ele>
        <time>2023-06-07T23:15:32.115Z</time>
      </trkpt>
      <trkpt lat="46.65303" lon="0.59067">
        <ele>108.67</ele>
        <time>2023-06-07T23:15:39.544Z</time>
      </trkpt>
      <trkpt lat="46.65305" lon="0.59072">
        <ele>108.97</ele>
        <time>2023-06-07T23:15:46.974Z</time>
      </trkpt>
      <trkpt lat="46.65307" lon="0.59079">
        <ele>109.34</ele>
        <time>2023-06-07T23:15:54.405Z</time>
      </trkpt>
      <trkpt lat="46.65314" lon="0.59109">
        <ele>111.17</ele>
        <time>2023-06-07T23:16:01.839Z</time>
      </trkpt>
      <trkpt lat="46.65317" lon="0.59122">
        <ele>111.82</ele>
        <time>2023-06-07T23:16:09.275Z</time>
      </trkpt>
      <trkpt lat="46.6532" lon="0.59134">
        <ele>112.38</ele>
        <time>2023-06-07T23:16:16.712Z</time>
      </trkpt>
      <trkpt lat="46.65321" lon="0.5914">
        <ele>112.63</ele>
        <time>2023-06-07T23:16:24.150Z</time>
      </trkpt>
      <trkpt lat="46.65328" lon="0.59171">
        <ele>113.79</ele>
        <time>2023-06-07T23:16:31.591Z</time>
      </trkpt>
      <trkpt lat="46.65331" lon="0.59183">
        <ele>114.22</ele>
        <time>2023-06-07T23:16:39.034Z</time>
      </trkpt>
      <trkpt lat="46.65334" lon="0.59195">
        <ele>114.62</ele>
        <time>2023-06-07T23:16:46.478Z</time>
      </trkpt>
      <trkpt lat="46.65343" lon="0.59232">
        <ele>115.7</ele>
        <time>2023-06-07T23:16:53.927Z</time>
      </trkpt>
      <trkpt lat="46.65345" lon="0.59244">
        <ele>116.08</ele>
        <time>2023-06-07T23:17:01.377Z</time>
      </trkpt>
      <trkpt lat="46.65347" lon="0.59251">
        <ele>116.3</ele>
        <time>2023-06-07T23:17:08.828Z</time>
      </trkpt>
      <trkpt lat="46.65347" lon="0.59257">
        <ele>116.49</ele>
        <time>2023-06-07T23:17:16.279Z</time>
      </trkpt>
      <trkpt lat="46.65348" lon="0.59276">
        <ele>117.16</ele>
        <time>2023-06-07T23:17:23.733Z</time>
      </trkpt>
      <trkpt lat="46.65348" lon="0.59289">
        <ele>117.63</ele>
        <time>2023-06-07T23:17:31.188Z</time>
      </trkpt>
      <trkpt lat="46.65349" lon="0.59302">
        <ele>118.14</ele>
        <time>2023-06-07T23:17:38.644Z</time>
      </trkpt>
      <trkpt lat="46.65349" lon="0.59308">
        <ele>118.36</ele>
        <time>2023-06-07T23:17:46.101Z</time>
      </trkpt>
      <trkpt lat="46.65355" lon="0.59333">
        <ele>119.44</ele>
        <time>2023-06-07T23:17:53.561Z</time>
      </trkpt>
      <trkpt lat="46.65368" lon="0.59389">
        <ele>121.71</ele>
        <time>2023-06-07T23:18:01.027Z</time>
      </trkpt>
      <trkpt lat="46.65369" lon="0.59393">
        <ele>121.9</ele>
        <time>2023-06-07T23:18:08.494Z</time>
      </trkpt>
      <trkpt lat="46.6537" lon="0.59401">
        <ele>122.24</ele>
        <time>2023-06-07T23:18:15.962Z</time>
      </trkpt>
      <trkpt lat="46.65371" lon="0.59407">
        <ele>122.53</ele>
        <time>2023-06-07T23:18:23.431Z</time>
      </trkpt>
      <trkpt lat="46.65372" lon="0.59414">
        <ele>122.85</ele>
        <time>2023-06-07T23:18:30.900Z</time>
      </trkpt>
      <trkpt lat="46.65373" lon="0.59427">
        <ele>123.6</ele>
        <time>2023-06-07T23:18:38.371Z</time>
      </trkpt>
      <trkpt lat="46.65378" lon="0.59458">
        <ele>125.72</ele>
        <time>2023-06-07T23:18:45.845Z</time>
      </trkpt>
      <trkpt lat="46.65379" lon="0.59471">
        <ele>126.52</ele>
        <time>2023-06-07T23:18:53.321Z</time>
      </trkpt>
      <trkpt lat="46.65381" lon="0.59484">
        <ele>127.25</ele>
        <time>2023-06-07T23:19:00.798Z</time>
      </trkpt>
      <trkpt lat="46.65383" lon="0.59497">
        <ele>127.88</ele>
        <time>2023-06-07T23:19:08.277Z</time>
      </trkpt>
      <trkpt lat="46.65384" lon="0.59503">
        <ele>128.16</ele>
        <time>2023-06-07T23:19:15.756Z</time>
      </trkpt>
      <trkpt lat="46.65384" lon="0.59509">
        <ele>128.41</ele>
        <time>2023-06-07T23:19:23.236Z</time>
      </trkpt>
      <trkpt lat="46.65386" lon="0.59522">
        <ele>128.84</ele>
        <time>2023-06-07T23:19:30.717Z</time>
      </trkpt>
      <trkpt lat="46.65387" lon="0.59528">
        <ele>129</ele>
        <time>2023-06-07T23:19:38.199Z</time>
      </trkpt>
      <trkpt lat="46.65389" lon="0.59534">
        <ele>129.18</ele>
        <time>2023-06-07T23:19:45.682Z</time>
      </trkpt>
      <trkpt lat="46.65393" lon="0.59546">
        <ele>129.42</ele>
        <time>2023-06-07T23:19:53.166Z</time>
      </trkpt>
      <trkpt lat="46.65396" lon="0.59558">
        <ele>129.59</ele>
        <time>2023-06-07T23:20:00.652Z</time>
      </trkpt>
      <trkpt lat="46.65404" lon="0.59581">
        <ele>129.82</ele>
        <time>2023-06-07T23:20:08.141Z</time>
      </trkpt>
      <trkpt lat="46.6541" lon="0.59599">
        <ele>129.73</ele>
        <time>2023-06-07T23:20:15.632Z</time>
      </trkpt>
      <trkpt lat="46.65413" lon="0.59611">
        <ele>129.7</ele>
        <time>2023-06-07T23:20:23.124Z</time>
      </trkpt>
      <trkpt lat="46.65417" lon="0.59623">
        <ele>129.71</ele>
        <time>2023-06-07T23:20:30.618Z</time>
      </trkpt>
      <trkpt lat="46.65421" lon="0.59635">
        <ele>129.75</ele>
        <time>2023-06-07T23:20:38.113Z</time>
      </trkpt>
      <trkpt lat="46.65423" lon="0.59641">
        <ele>129.79</ele>
        <time>2023-06-07T23:20:45.609Z</time>
      </trkpt>
      <trkpt lat="46.65439" lon="0.59663">
        <ele>130</ele>
        <time>2023-06-07T23:20:53.108Z</time>
      </trkpt>
      <trkpt lat="46.65451" lon="0.5968">
        <ele>130.11</ele>
        <time>2023-06-07T23:21:00.610Z</time>
      </trkpt>
      <trkpt lat="46.65451" lon="0.59681">
        <ele>130.12</ele>
        <time>2023-06-07T23:21:08.112Z</time>
      </trkpt>
      <trkpt lat="46.65458" lon="0.59699">
        <ele>130.24</ele>
        <time>2023-06-07T23:21:15.616Z</time>
      </trkpt>
      <trkpt lat="46.65461" lon="0.59708">
        <ele>130.31</ele>
        <time>2023-06-07T23:21:23.122Z</time>
      </trkpt>
      <trkpt lat="46.65464" lon="0.59716">
        <ele>130.38</ele>
        <time>2023-06-07T23:21:30.629Z</time>
      </trkpt>
      <trkpt lat="46.65472" lon="0.59732">
        <ele>130.56</ele>
        <time>2023-06-07T23:21:38.138Z</time>
      </trkpt>
      <trkpt lat="46.65479" lon="0.59748">
        <ele>130.79</ele>
        <time>2023-06-07T23:21:45.649Z</time>
      </trkpt>
      <trkpt lat="46.65494" lon="0.59781">
        <ele>131.46</ele>
        <time>2023-06-07T23:21:53.164Z</time>
      </trkpt>
      <trkpt lat="46.65502" lon="0.59798">
        <ele>131.77</ele>
        <time>2023-06-07T23:22:00.681Z</time>
      </trkpt>
      <trkpt lat="46.65512" lon="0.59826">
        <ele>132.26</ele>
        <time>2023-06-07T23:22:08.202Z</time>
      </trkpt>
      <trkpt lat="46.65522" lon="0.59855">
        <ele>132.73</ele>
        <time>2023-06-07T23:22:15.727Z</time>
      </trkpt>
      <trkpt lat="46.6553" lon="0.59878">
        <ele>133.13</ele>
        <time>2023-06-07T23:22:23.254Z</time>
      </trkpt>
      <trkpt lat="46.65536" lon="0.59896">
        <ele>133.4</ele>
        <time>2023-06-07T23:22:30.784Z</time>
      </trkpt>
      <trkpt lat="46.65544" lon="0.59919">
        <ele>133.72</ele>
        <time>2023-06-07T23:22:38.316Z</time>
      </trkpt>
      <trkpt lat="46.65548" lon="0.5993">
        <ele>133.84</ele>
        <time>2023-06-07T23:22:45.850Z</time>
      </trkpt>
      <trkpt lat="46.65558" lon="0.59959">
        <ele>134.17</ele>
        <time>2023-06-07T23:22:53.387Z</time>
      </trkpt>
      <trkpt lat="46.65564" lon="0.59977">
        <ele>134.33</ele>
        <time>2023-06-07T23:23:00.927Z</time>
      </trkpt>
      <trkpt lat="46.6557" lon="0.59994">
        <ele>134.45</ele>
        <time>2023-06-07T23:23:08.469Z</time>
      </trkpt>
      <trkpt lat="46.6558" lon="0.60023">
        <ele>134.61</ele>
        <time>2023-06-07T23:23:16.014Z</time>
      </trkpt>
      <trkpt lat="46.65605" lon="0.60098">
        <ele>135.13</ele>
        <time>2023-06-07T23:23:23.568Z</time>
      </trkpt>
      <trkpt lat="46.65615" lon="0.60127">
        <ele>135.29</ele>
        <time>2023-06-07T23:23:31.126Z</time>
      </trkpt>
      <trkpt lat="46.65625" lon="0.60156">
        <ele>135.5</ele>
        <time>2023-06-07T23:23:38.688Z</time>
      </trkpt>
      <trkpt lat="46.65629" lon="0.60167">
        <ele>135.54</ele>
        <time>2023-06-07T23:23:46.251Z</time>
      </trkpt>
      <trkpt lat="46.65638" lon="0.60196">
        <ele>135.5</ele>
        <time>2023-06-07T23:23:53.817Z</time>
      </trkpt>
      <trkpt lat="46.65642" lon="0.60208">
        <ele>135.51</ele>
        <time>2023-06-07T23:24:01.385Z</time>
      </trkpt>
      <trkpt lat="46.65662" lon="0.60266">
        <ele>135.65</ele>
        <time>2023-06-07T23:24:08.960Z</time>
      </trkpt>
      <trkpt lat="46.65668" lon="0.60283">
        <ele>135.74</ele>
        <time>2023-06-07T23:24:16.537Z</time>
      </trkpt>
      <trkpt lat="46.65672" lon="0.60295">
        <ele>135.75</ele>
        <time>2023-06-07T23:24:24.116Z</time>
      </trkpt>
      <trkpt lat="46.65676" lon="0.60306">
        <ele>135.73</ele>
        <time>2023-06-07T23:24:31.696Z</time>
      </trkpt>
      <trkpt lat="46.65681" lon="0.60323">
        <ele>135.67</ele>
        <time>2023-06-07T23:24:39.278Z</time>
      </trkpt>
      <trkpt lat="46.65697" lon="0.6037">
        <ele>135.43</ele>
        <time>2023-06-07T23:24:46.866Z</time>
      </trkpt>
      <trkpt lat="46.65715" lon="0.60422">
        <ele>135.32</ele>
        <time>2023-06-07T23:24:54.460Z</time>
      </trkpt>
      <trkpt lat="46.65739" lon="0.60492">
        <ele>135.05</ele>
        <time>2023-06-07T23:25:02.063Z</time>
      </trkpt>
      <trkpt lat="46.65752" lon="0.60532">
        <ele>134.97</ele>
        <time>2023-06-07T23:25:09.671Z</time>
      </trkpt>
      <trkpt lat="46.65764" lon="0.60567">
        <ele>134.98</ele>
        <time>2023-06-07T23:25:17.283Z</time>
      </trkpt>
      <trkpt lat="46.65788" lon="0.60636">
        <ele>134.91</ele>
        <time>2023-06-07T23:25:24.904Z</time>
      </trkpt>
      <trkpt lat="46.65799" lon="0.60671">
        <ele>134.85</ele>
        <time>2023-06-07T23:25:32.529Z</time>
      </trkpt>
      <trkpt lat="46.65805" lon="0.60689">
        <ele>134.79</ele>
        <time>2023-06-07T23:25:40.156Z</time>
      </trkpt>
      <trkpt lat="46.65811" lon="0.60706">
        <ele>134.8</ele>
        <time>2023-06-07T23:25:47.785Z</time>
      </trkpt>
      <trkpt lat="46.65825" lon="0.60746">
        <ele>134.92</ele>
        <time>2023-06-07T23:25:55.419Z</time>
      </trkpt>
      <trkpt lat="46.65843" lon="0.60798">
        <ele>134.97</ele>
        <time>2023-06-07T23:26:03.059Z</time>
      </trkpt>
      <trkpt lat="46.65852" lon="0.60827">
        <ele>134.95</ele>
        <time>2023-06-07T23:26:10.703Z</time>
      </trkpt>
      <trkpt lat="46.65862" lon="0.60856">
        <ele>134.88</ele>
        <time>2023-06-07T23:26:18.351Z</time>
      </trkpt>
      <trkpt lat="46.6589" lon="0.60937">
        <ele>134.63</ele>
        <time>2023-06-07T23:26:26.009Z</time>
      </trkpt>
      <trkpt lat="46.65913" lon="0.61006">
        <ele>134.49</ele>
        <time>2023-06-07T23:26:33.675Z</time>
      </trkpt>
      <trkpt lat="46.65917" lon="0.61018">
        <ele>134.44</ele>
        <time>2023-06-07T23:26:41.342Z</time>
      </trkpt>
      <trkpt lat="46.65929" lon="0.61053">
        <ele>134.22</ele>
        <time>2023-06-07T23:26:49.014Z</time>
      </trkpt>
      <trkpt lat="46.65932" lon="0.61065">
        <ele>134.15</ele>
        <time>2023-06-07T23:26:56.687Z</time>
      </trkpt>
      <trkpt lat="46.65945" lon="0.61113">
        <ele>133.72</ele>
        <time>2023-06-07T23:27:04.366Z</time>
      </trkpt>
      <trkpt lat="46.65963" lon="0.61179">
        <ele>133.25</ele>
        <time>2023-06-07T23:27:12.053Z</time>
      </trkpt>
      <trkpt lat="46.65973" lon="0.61216">
        <ele>133.1</ele>
        <time>2023-06-07T23:27:19.744Z</time>
      </trkpt>
      <trkpt lat="46.65982" lon="0.61252">
        <ele>132.9</ele>
        <time>2023-06-07T23:27:27.439Z</time>
      </trkpt>
      <trkpt lat="46.65992" lon="0.61288">
        <ele>132.76</ele>
        <time>2023-06-07T23:27:35.139Z</time>
      </trkpt>
      <trkpt lat="46.66004" lon="0.6133">
        <ele>132.51</ele>
        <time>2023-06-07T23:27:42.844Z</time>
      </trkpt>
      <trkpt lat="46.66026" lon="0.61415">
        <ele>132.17</ele>
        <time>2023-06-07T23:27:50.559Z</time>
      </trkpt>
      <trkpt lat="46.66038" lon="0.61457">
        <ele>132.08</ele>
        <time>2023-06-07T23:27:58.279Z</time>
      </trkpt>
      <trkpt lat="46.66064" lon="0.61555">
        <ele>131.96</ele>
        <time>2023-06-07T23:28:06.010Z</time>
      </trkpt>
      <trkpt lat="46.66067" lon="0.61567">
        <ele>131.9</ele>
        <time>2023-06-07T23:28:13.743Z</time>
      </trkpt>
      <trkpt lat="46.66075" lon="0.61597">
        <ele>131.67</ele>
        <time>2023-06-07T23:28:21.479Z</time>
      </trkpt>
      <trkpt lat="46.6609" lon="0.61652">
        <ele>131.33</ele>
        <time>2023-06-07T23:28:29.222Z</time>
      </trkpt>
      <trkpt lat="46.66105" lon="0.61707">
        <ele>131.1</ele>
        <time>2023-06-07T23:28:36.971Z</time>
      </trkpt>
      <trkpt lat="46.66115" lon="0.61744">
        <ele>130.9</ele>
        <time>2023-06-07T23:28:44.724Z</time>
      </trkpt>
      <trkpt lat="46.66125" lon="0.6178">
        <ele>130.79</ele>
        <time>2023-06-07T23:28:52.482Z</time>
      </trkpt>
      <trkpt lat="46.66131" lon="0.61804">
        <ele>130.78</ele>
        <time>2023-06-07T23:29:00.243Z</time>
      </trkpt>
      <trkpt lat="46.66134" lon="0.61817">
        <ele>130.79</ele>
        <time>2023-06-07T23:29:08.005Z</time>
      </trkpt>
      <trkpt lat="46.66139" lon="0.61835">
        <ele>130.89</ele>
        <time>2023-06-07T23:29:15.769Z</time>
      </trkpt>
      <trkpt lat="46.66144" lon="0.61853">
        <ele>131.03</ele>
        <time>2023-06-07T23:29:23.535Z</time>
      </trkpt>
      <trkpt lat="46.66151" lon="0.61878">
        <ele>131.31</ele>
        <time>2023-06-07T23:29:31.304Z</time>
      </trkpt>
      <trkpt lat="46.66161" lon="0.61914">
        <ele>131.81</ele>
        <time>2023-06-07T23:29:39.078Z</time>
      </trkpt>
      <trkpt lat="46.66167" lon="0.61938">
        <ele>132.12</ele>
        <time>2023-06-07T23:29:46.855Z</time>
      </trkpt>
      <trkpt lat="46.66169" lon="0.61945">
        <ele>132.18</ele>
        <time>2023-06-07T23:29:54.632Z</time>
      </trkpt>
      <trkpt lat="46.66174" lon="0.61963">
        <ele>132.29</ele>
        <time>2023-06-07T23:30:02.411Z</time>
      </trkpt>
      <trkpt lat="46.66177" lon="0.61975">
        <ele>132.39</ele>
        <time>2023-06-07T23:30:10.192Z</time>
      </trkpt>
      <trkpt lat="46.66187" lon="0.62012">
        <ele>132.76</ele>
        <time>2023-06-07T23:30:17.977Z</time>
      </trkpt>
      <trkpt lat="46.66197" lon="0.62048">
        <ele>133.07</ele>
        <time>2023-06-07T23:30:25.767Z</time>
      </trkpt>
      <trkpt lat="46.66216" lon="0.62121">
        <ele>133.95</ele>
        <time>2023-06-07T23:30:33.565Z</time>
      </trkpt>
      <trkpt lat="46.66226" lon="0.62158">
        <ele>134.37</ele>
        <time>2023-06-07T23:30:41.367Z</time>
      </trkpt>
      <trkpt lat="46.66238" lon="0.62201">
        <ele>134.94</ele>
        <time>2023-06-07T23:30:49.175Z</time>
      </trkpt>
      <trkpt lat="46.66241" lon="0.62213">
        <ele>135.07</ele>
        <time>2023-06-07T23:30:56.984Z</time>
      </trkpt>
      <trkpt lat="46.66249" lon="0.62243">
        <ele>135.23</ele>
        <time>2023-06-07T23:31:04.797Z</time>
      </trkpt>
      <trkpt lat="46.66257" lon="0.62274">
        <ele>135.45</ele>
        <time>2023-06-07T23:31:12.613Z</time>
      </trkpt>
      <trkpt lat="46.66274" lon="0.62335">
        <ele>135.74</ele>
        <time>2023-06-07T23:31:20.436Z</time>
      </trkpt>
      <trkpt lat="46.66277" lon="0.62347">
        <ele>135.78</ele>
        <time>2023-06-07T23:31:28.261Z</time>
      </trkpt>
      <trkpt lat="46.66285" lon="0.62377">
        <ele>135.79</ele>
        <time>2023-06-07T23:31:36.089Z</time>
      </trkpt>
      <trkpt lat="46.66302" lon="0.62438">
        <ele>135.89</ele>
        <time>2023-06-07T23:31:43.925Z</time>
      </trkpt>
      <trkpt lat="46.66313" lon="0.62481">
        <ele>135.82</ele>
        <time>2023-06-07T23:31:51.766Z</time>
      </trkpt>
      <trkpt lat="46.66338" lon="0.62572">
        <ele>135.52</ele>
        <time>2023-06-07T23:31:59.618Z</time>
      </trkpt>
      <trkpt lat="46.66358" lon="0.62648">
        <ele>135.2</ele>
        <time>2023-06-07T23:32:07.479Z</time>
      </trkpt>
      <trkpt lat="46.66361" lon="0.6266">
        <ele>135.18</ele>
        <time>2023-06-07T23:32:15.341Z</time>
      </trkpt>
      <trkpt lat="46.66371" lon="0.62696">
        <ele>135.24</ele>
        <time>2023-06-07T23:32:23.207Z</time>
      </trkpt>
      <trkpt lat="46.66378" lon="0.62713">
        <ele>135.27</ele>
        <time>2023-06-07T23:32:31.075Z</time>
      </trkpt>
      <trkpt lat="46.66388" lon="0.62739">
        <ele>135.45</ele>
        <time>2023-06-07T23:32:38.947Z</time>
      </trkpt>
      <trkpt lat="46.66389" lon="0.62741">
        <ele>135.47</ele>
        <time>2023-06-07T23:32:46.819Z</time>
      </trkpt>
      <trkpt lat="46.66396" lon="0.62757">
        <ele>135.73</ele>
        <time>2023-06-07T23:32:54.693Z</time>
      </trkpt>
      <trkpt lat="46.66398" lon="0.62763">
        <ele>135.78</ele>
        <time>2023-06-07T23:33:02.568Z</time>
      </trkpt>
      <trkpt lat="46.66405" lon="0.6278">
        <ele>135.84</ele>
        <time>2023-06-07T23:33:10.445Z</time>
      </trkpt>
      <trkpt lat="46.6641" lon="0.62791">
        <ele>135.92</ele>
        <time>2023-06-07T23:33:18.323Z</time>
      </trkpt>
      <trkpt lat="46.66417" lon="0.62807">
        <ele>136.09</ele>
        <time>2023-06-07T23:33:26.203Z</time>
      </trkpt>
      <trkpt lat="46.66421" lon="0.62819">
        <ele>136.15</ele>
        <time>2023-06-07T23:33:34.085Z</time>
      </trkpt>
      <trkpt lat="46.66435" lon="0.62852">
        <ele>136.14</ele>
        <time>2023-06-07T23:33:41.971Z</time>
      </trkpt>
      <trkpt lat="46.66452" lon="0.62891">
        <ele>136.08</ele>
        <time>2023-06-07T23:33:49.862Z</time>
      </trkpt>
      <trkpt lat="46.66456" lon="0.62902">
        <ele>136.03</ele>
        <time>2023-06-07T23:33:57.755Z</time>
      </trkpt>
      <trkpt lat="46.66463" lon="0.62919">
        <ele>135.91</ele>
        <time>2023-06-07T23:34:05.650Z</time>
      </trkpt>
      <trkpt lat="46.66466" lon="0.62924">
        <ele>135.9</ele>
        <time>2023-06-07T23:34:13.546Z</time>
      </trkpt>
      <trkpt lat="46.66468" lon="0.6293">
        <ele>135.93</ele>
        <time>2023-06-07T23:34:21.442Z</time>
      </trkpt>
      <trkpt lat="46.66473" lon="0.62941">
        <ele>136.03</ele>
        <time>2023-06-07T23:34:29.340Z</time>
      </trkpt>
      <trkpt lat="46.66475" lon="0.62947">
        <ele>136.02</ele>
        <time>2023-06-07T23:34:37.238Z</time>
      </trkpt>
      <trkpt lat="46.66477" lon="0.62952">
        <ele>135.96</ele>
        <time>2023-06-07T23:34:45.137Z</time>
      </trkpt>
      <trkpt lat="46.66478" lon="0.62954">
        <ele>135.92</ele>
        <time>2023-06-07T23:34:53.036Z</time>
      </trkpt>
      <trkpt lat="46.66479" lon="0.62958">
        <ele>135.87</ele>
        <time>2023-06-07T23:35:00.936Z</time>
      </trkpt>
      <trkpt lat="46.66481" lon="0.62977">
        <ele>135.52</ele>
        <time>2023-06-07T23:35:08.838Z</time>
      </trkpt>
      <trkpt lat="46.66482" lon="0.62984">
        <ele>135.43</ele>
        <time>2023-06-07T23:35:16.741Z</time>
      </trkpt>
      <trkpt lat="46.66484" lon="0.62994">
        <ele>135.32</ele>
        <time>2023-06-07T23:35:24.645Z</time>
      </trkpt>
      <trkpt lat="46.66484" lon="0.63003">
        <ele>135.23</ele>
        <time>2023-06-07T23:35:32.550Z</time>
      </trkpt>
      <trkpt lat="46.66484" lon="0.63016">
        <ele>135.15</ele>
        <time>2023-06-07T23:35:40.456Z</time>
      </trkpt>
      <trkpt lat="46.66483" lon="0.63042">
        <ele>135.08</ele>
        <time>2023-06-07T23:35:48.365Z</time>
      </trkpt>
      <trkpt lat="46.66482" lon="0.63075">
        <ele>134.94</ele>
        <time>2023-06-07T23:35:56.278Z</time>
      </trkpt>
      <trkpt lat="46.66482" lon="0.63081">
        <ele>134.91</ele>
        <time>2023-06-07T23:36:04.191Z</time>
      </trkpt>
      <trkpt lat="46.66482" lon="0.63088">
        <ele>134.85</ele>
        <time>2023-06-07T23:36:12.105Z</time>
      </trkpt>
      <trkpt lat="46.66482" lon="0.63095">
        <ele>134.75</ele>
        <time>2023-06-07T23:36:20.020Z</time>
      </trkpt>
      <trkpt lat="46.66482" lon="0.63095">
        <ele>134.75</ele>
        <time>2023-06-07T23:36:27.935Z</time>
      </trkpt>
      <trkpt lat="46.66483" lon="0.63101">
        <ele>134.61</ele>
        <time>2023-06-07T23:36:35.851Z</time>
      </trkpt>
      <trkpt lat="46.66485" lon="0.63113">
        <ele>134.27</ele>
        <time>2023-06-07T23:36:43.768Z</time>
      </trkpt>
      <trkpt lat="46.66486" lon="0.63126">
        <ele>133.96</ele>
        <time>2023-06-07T23:36:51.687Z</time>
      </trkpt>
      <trkpt lat="46.66488" lon="0.63139">
        <ele>133.58</ele>
        <time>2023-06-07T23:36:59.607Z</time>
      </trkpt>
      <trkpt lat="46.66489" lon="0.63145">
        <ele>133.43</ele>
        <time>2023-06-07T23:37:07.528Z</time>
      </trkpt>
      <trkpt lat="46.6649" lon="0.63152">
        <ele>133.31</ele>
        <time>2023-06-07T23:37:15.449Z</time>
      </trkpt>
      <trkpt lat="46.66491" lon="0.63158">
        <ele>133.46</ele>
        <time>2023-06-07T23:37:23.371Z</time>
      </trkpt>
      <trkpt lat="46.66492" lon="0.63165">
        <ele>133.57</ele>
        <time>2023-06-07T23:37:31.294Z</time>
      </trkpt>
      <trkpt lat="46.66492" lon="0.63165">
        <ele>133.57</ele>
        <time>2023-06-07T23:37:39.217Z</time>
      </trkpt>
      <trkpt lat="46.66492" lon="0.63171">
        <ele>133.65</ele>
        <time>2023-06-07T23:37:47.141Z</time>
      </trkpt>
      <trkpt lat="46.66493" lon="0.63177">
        <ele>133.68</ele>
        <time>2023-06-07T23:37:55.065Z</time>
      </trkpt>
      <trkpt lat="46.66493" lon="0.63184">
        <ele>133.66</ele>
        <time>2023-06-07T23:38:02.990Z</time>
      </trkpt>
      <trkpt lat="46.66494" lon="0.63191">
        <ele>133.59</ele>
        <time>2023-06-07T23:38:10.916Z</time>
      </trkpt>
      <trkpt lat="46.66494" lon="0.63191">
        <ele>133.59</ele>
        <time>2023-06-07T23:38:18.842Z</time>
      </trkpt>
      <trkpt lat="46.66491" lon="0.63195">
        <ele>133.46</ele>
        <time>2023-06-07T23:38:26.768Z</time>
      </trkpt>
      <trkpt lat="46.66488" lon="0.632">
        <ele>133.29</ele>
        <time>2023-06-07T23:38:34.695Z</time>
      </trkpt>
      <trkpt lat="46.66485" lon="0.63205">
        <ele>133.07</ele>
        <time>2023-06-07T23:38:42.623Z</time>
      </trkpt>
      <trkpt lat="46.66482" lon="0.6321">
        <ele>132.79</ele>
        <time>2023-06-07T23:38:50.552Z</time>
      </trkpt>
      <trkpt lat="46.66479" lon="0.63215">
        <ele>132.46</ele>
        <time>2023-06-07T23:38:58.481Z</time>
      </trkpt>
      <trkpt lat="46.66479" lon="0.63215">
        <ele>132.46</ele>
        <time>2023-06-07T23:39:06.410Z</time>
      </trkpt>
      <trkpt lat="46.66479" lon="0.63221">
        <ele>132.08</ele>
        <time>2023-06-07T23:39:14.340Z</time>
      </trkpt>
      <trkpt lat="46.66478" lon="0.63234">
        <ele>131.25</ele>
        <time>2023-06-07T23:39:22.271Z</time>
      </trkpt>
      <trkpt lat="46.66477" lon="0.63241">
        <ele>130.74</ele>
        <time>2023-06-07T23:39:30.203Z</time>
      </trkpt>
      <trkpt lat="46.66479" lon="0.6326">
        <ele>129.35</ele>
        <time>2023-06-07T23:39:38.137Z</time>
      </trkpt>
      <trkpt lat="46.6648" lon="0.63266">
        <ele>128.92</ele>
        <time>2023-06-07T23:39:46.072Z</time>
      </trkpt>
      <trkpt lat="46.66482" lon="0.63279">
        <ele>128.13</ele>
        <time>2023-06-07T23:39:54.009Z</time>
      </trkpt>
      <trkpt lat="46.66485" lon="0.63305">
        <ele>126.66</ele>
        <time>2023-06-07T23:40:01.948Z</time>
      </trkpt>
      <trkpt lat="46.66487" lon="0.63318">
        <ele>125.9</ele>
        <time>2023-06-07T23:40:09.889Z</time>
      </trkpt>
      <trkpt lat="46.66489" lon="0.63331">
        <ele>125.07</ele>
        <time>2023-06-07T23:40:17.831Z</time>
      </trkpt>
      <trkpt lat="46.6649" lon="0.63343">
        <ele>124.2</ele>
        <time>2023-06-07T23:40:25.775Z</time>
      </trkpt>
      <trkpt lat="46.66491" lon="0.63349">
        <ele>123.78</ele>
        <time>2023-06-07T23:40:33.719Z</time>
      </trkpt>
      <trkpt lat="46.6649" lon="0.63356">
        <ele>123.27</ele>
        <time>2023-06-07T23:40:41.664Z</time>
      </trkpt>
      <trkpt lat="46.6649" lon="0.63363">
        <ele>122.75</ele>
        <time>2023-06-07T23:40:49.610Z</time>
      </trkpt>
      <trkpt lat="46.66489" lon="0.63368">
        <ele>122.16</ele>
        <time>2023-06-07T23:40:57.556Z</time>
      </trkpt>
      <trkpt lat="46.66489" lon="0.63369">
        <ele>122.16</ele>
        <time>2023-06-07T23:41:05.503Z</time>
      </trkpt>
      <trkpt lat="46.66483" lon="0.63387">
        <ele>120.25</ele>
        <time>2023-06-07T23:41:13.452Z</time>
      </trkpt>
      <trkpt lat="46.6648" lon="0.63399">
        <ele>119.02</ele>
        <time>2023-06-07T23:41:21.402Z</time>
      </trkpt>
      <trkpt lat="46.66476" lon="0.63411">
        <ele>117.89</ele>
        <time>2023-06-07T23:41:29.354Z</time>
      </trkpt>
      <trkpt lat="46.66475" lon="0.63415">
        <ele>117.52</ele>
        <time>2023-06-07T23:41:37.306Z</time>
      </trkpt>
      <trkpt lat="46.66477" lon="0.63437">
        <ele>115.71</ele>
        <time>2023-06-07T23:41:45.260Z</time>
      </trkpt>
      <trkpt lat="46.66478" lon="0.6345">
        <ele>114.7</ele>
        <time>2023-06-07T23:41:53.216Z</time>
      </trkpt>
      <trkpt lat="46.66478" lon="0.63451">
        <ele>114.59</ele>
        <time>2023-06-07T23:42:01.172Z</time>
      </trkpt>
      <trkpt lat="46.66482" lon="0.63461">
        <ele>113.74</ele>
        <time>2023-06-07T23:42:09.129Z</time>
      </trkpt>
      <trkpt lat="46.66486" lon="0.63473">
        <ele>112.83</ele>
        <time>2023-06-07T23:42:17.088Z</time>
      </trkpt>
      <trkpt lat="46.66495" lon="0.63496">
        <ele>111.09</ele>
        <time>2023-06-07T23:42:25.050Z</time>
      </trkpt>
      <trkpt lat="46.66495" lon="0.63497">
        <ele>110.99</ele>
        <time>2023-06-07T23:42:33.012Z</time>
      </trkpt>
      <trkpt lat="46.66496" lon="0.63502">
        <ele>110.62</ele>
        <time>2023-06-07T23:42:40.974Z</time>
      </trkpt>
      <trkpt lat="46.66503" lon="0.6354">
        <ele>107.44</ele>
        <time>2023-06-07T23:42:48.941Z</time>
      </trkpt>
      <trkpt lat="46.66504" lon="0.63546">
        <ele>106.89</ele>
        <time>2023-06-07T23:42:56.908Z</time>
      </trkpt>
      <trkpt lat="46.66507" lon="0.63559">
        <ele>105.68</ele>
        <time>2023-06-07T23:43:04.877Z</time>
      </trkpt>
      <trkpt lat="46.66508" lon="0.63565">
        <ele>105.02</ele>
        <time>2023-06-07T23:43:12.847Z</time>
      </trkpt>
      <trkpt lat="46.66513" lon="0.6359">
        <ele>102.17</ele>
        <time>2023-06-07T23:43:20.819Z</time>
      </trkpt>
      <trkpt lat="46.66514" lon="0.63596">
        <ele>101.52</ele>
        <time>2023-06-07T23:43:28.792Z</time>
      </trkpt>
      <trkpt lat="46.66515" lon="0.63603">
        <ele>100.93</ele>
        <time>2023-06-07T23:43:36.766Z</time>
      </trkpt>
      <trkpt lat="46.66518" lon="0.63615">
        <ele>99.92</ele>
        <time>2023-06-07T23:43:44.741Z</time>
      </trkpt>
      <trkpt lat="46.66519" lon="0.63621">
        <ele>99.49</ele>
        <time>2023-06-07T23:43:52.717Z</time>
      </trkpt>
      <trkpt lat="46.66519" lon="0.63628">
        <ele>99.01</ele>
        <time>2023-06-07T23:44:00.694Z</time>
      </trkpt>
      <trkpt lat="46.66519" lon="0.63635">
        <ele>98.61</ele>
        <time>2023-06-07T23:44:08.672Z</time>
      </trkpt>
      <trkpt lat="46.66518" lon="0.63641">
        <ele>98.24</ele>
        <time>2023-06-07T23:44:16.650Z</time>
      </trkpt>
      <trkpt lat="46.66518" lon="0.63648">
        <ele>97.92</ele>
        <time>2023-06-07T23:44:24.629Z</time>
      </trkpt>
      <trkpt lat="46.66518" lon="0.63654">
        <ele>97.63</ele>
        <time>2023-06-07T23:44:32.609Z</time>
      </trkpt>
      <trkpt lat="46.66516" lon="0.63693">
        <ele>96.14</ele>
        <time>2023-06-07T23:44:40.593Z</time>
      </trkpt>
      <trkpt lat="46.66516" lon="0.637">
        <ele>95.92</ele>
        <time>2023-06-07T23:44:48.578Z</time>
      </trkpt>
      <trkpt lat="46.66516" lon="0.63706">
        <ele>95.75</ele>
        <time>2023-06-07T23:44:56.563Z</time>
      </trkpt>
      <trkpt lat="46.66516" lon="0.63713">
        <ele>95.62</ele>
        <time>2023-06-07T23:45:04.549Z</time>
      </trkpt>
      <trkpt lat="46.66515" lon="0.63739">
        <ele>95.23</ele>
        <time>2023-06-07T23:45:12.538Z</time>
      </trkpt>
      <trkpt lat="46.66514" lon="0.63759">
        <ele>94.83</ele>
        <time>2023-06-07T23:45:20.529Z</time>
      </trkpt>
      <trkpt lat="46.66513" lon="0.63772">
        <ele>94.6</ele>
        <time>2023-06-07T23:45:28.522Z</time>
      </trkpt>
      <trkpt lat="46.66513" lon="0.63785">
        <ele>93.93</ele>
        <time>2023-06-07T23:45:36.516Z</time>
      </trkpt>
      <trkpt lat="46.66513" lon="0.63785">
        <ele>93.93</ele>
        <time>2023-06-07T23:45:44.510Z</time>
      </trkpt>
      <trkpt lat="46.66514" lon="0.63791">
        <ele>93.65</ele>
        <time>2023-06-07T23:45:52.505Z</time>
      </trkpt>
      <trkpt lat="46.66517" lon="0.63803">
        <ele>93.14</ele>
        <time>2023-06-07T23:46:00.501Z</time>
      </trkpt>
      <trkpt lat="46.66522" lon="0.63821">
        <ele>92.43</ele>
        <time>2023-06-07T23:46:08.499Z</time>
      </trkpt>
      <trkpt lat="46.66523" lon="0.63828">
        <ele>92.18</ele>
        <time>2023-06-07T23:46:16.498Z</time>
      </trkpt>
      <trkpt lat="46.66528" lon="0.63873">
        <ele>90.64</ele>
        <time>2023-06-07T23:46:24.502Z</time>
      </trkpt>
      <trkpt lat="46.6653" lon="0.63886">
        <ele>90.16</ele>
        <time>2023-06-07T23:46:32.508Z</time>
      </trkpt>
      <trkpt lat="46.6653" lon="0.63892">
        <ele>89.89</ele>
        <time>2023-06-07T23:46:40.514Z</time>
      </trkpt>
      <trkpt lat="46.66531" lon="0.63898">
        <ele>89.59</ele>
        <time>2023-06-07T23:46:48.521Z</time>
      </trkpt>
      <trkpt lat="46.66531" lon="0.63898">
        <ele>89.59</ele>
        <time>2023-06-07T23:46:56.528Z</time>
      </trkpt>
      <trkpt lat="46.6653" lon="0.63918">
        <ele>88.63</ele>
        <time>2023-06-07T23:47:04.537Z</time>
      </trkpt>
      <trkpt lat="46.66529" lon="0.63931">
        <ele>88.04</ele>
        <time>2023-06-07T23:47:12.548Z</time>
      </trkpt>
      <trkpt lat="46.66528" lon="0.6394">
        <ele>87.64</ele>
        <time>2023-06-07T23:47:20.560Z</time>
      </trkpt>
      <trkpt lat="46.66523" lon="0.63962">
        <ele>86.64</ele>
        <time>2023-06-07T23:47:28.574Z</time>
      </trkpt>
      <trkpt lat="46.6652" lon="0.63974">
        <ele>86.13</ele>
        <time>2023-06-07T23:47:36.590Z</time>
      </trkpt>
      <trkpt lat="46.66518" lon="0.63981">
        <ele>85.9</ele>
        <time>2023-06-07T23:47:44.606Z</time>
      </trkpt>
      <trkpt lat="46.66515" lon="0.63993">
        <ele>85.49</ele>
        <time>2023-06-07T23:47:52.624Z</time>
      </trkpt>
      <trkpt lat="46.66507" lon="0.6403">
        <ele>84.44</ele>
        <time>2023-06-07T23:48:00.646Z</time>
      </trkpt>
      <trkpt lat="46.66499" lon="0.6406">
        <ele>83.62</ele>
        <time>2023-06-07T23:48:08.672Z</time>
      </trkpt>
      <trkpt lat="46.66497" lon="0.6407">
        <ele>83.42</ele>
        <time>2023-06-07T23:48:16.699Z</time>
      </trkpt>
      <trkpt lat="46.66496" lon="0.64073">
        <ele>83.36</ele>
        <time>2023-06-07T23:48:24.726Z</time>
      </trkpt>
      <trkpt lat="46.66492" lon="0.64084">
        <ele>83.13</ele>
        <time>2023-06-07T23:48:32.755Z</time>
      </trkpt>
      <trkpt lat="46.66485" lon="0.64101">
        <ele>82.86</ele>
        <time>2023-06-07T23:48:40.786Z</time>
      </trkpt>
      <trkpt lat="46.66483" lon="0.64107">
        <ele>82.81</ele>
        <time>2023-06-07T23:48:48.817Z</time>
      </trkpt>
      <trkpt lat="46.66474" lon="0.64129">
        <ele>82.69</ele>
        <time>2023-06-07T23:48:56.851Z</time>
      </trkpt>
      <trkpt lat="46.66456" lon="0.64175">
        <ele>82.41</ele>
        <time>2023-06-07T23:49:04.891Z</time>
      </trkpt>
      <trkpt lat="46.66456" lon="0.64176">
        <ele>82.4</ele>
        <time>2023-06-07T23:49:12.931Z</time>
      </trkpt>
      <trkpt lat="46.66455" lon="0.64191">
        <ele>82.33</ele>
        <time>2023-06-07T23:49:20.973Z</time>
      </trkpt>
      <trkpt lat="46.66463" lon="0.64211">
        <ele>82.24</ele>
        <time>2023-06-07T23:49:29.017Z</time>
      </trkpt>
      <trkpt lat="46.66467" lon="0.64221">
        <ele>82.19</ele>
        <time>2023-06-07T23:49:37.063Z</time>
      </trkpt>
      <trkpt lat="46.66467" lon="0.64222">
        <ele>82.19</ele>
        <time>2023-06-07T23:49:45.109Z</time>
      </trkpt>
      <trkpt lat="46.66471" lon="0.64247">
        <ele>82.13</ele>
        <time>2023-06-07T23:49:53.158Z</time>
      </trkpt>
      <trkpt lat="46.66473" lon="0.6426">
        <ele>82.13</ele>
        <time>2023-06-07T23:50:01.208Z</time>
      </trkpt>
      <trkpt lat="46.66476" lon="0.64279">
        <ele>82.16</ele>
        <time>2023-06-07T23:50:09.260Z</time>
      </trkpt>
      <trkpt lat="46.66479" lon="0.64298">
        <ele>82.15</ele>
        <time>2023-06-07T23:50:17.314Z</time>
      </trkpt>
      <trkpt lat="46.66481" lon="0.64311">
        <ele>82.21</ele>
        <time>2023-06-07T23:50:25.370Z</time>
      </trkpt>
      <trkpt lat="46.66485" lon="0.64336">
        <ele>82.37</ele>
        <time>2023-06-07T23:50:33.429Z</time>
      </trkpt>
      <trkpt lat="46.66487" lon="0.64349">
        <ele>82.42</ele>
        <time>2023-06-07T23:50:41.489Z</time>
      </trkpt>
      <trkpt lat="46.66492" lon="0.64381">
        <ele>82.41</ele>
        <time>2023-06-07T23:50:49.553Z</time>
      </trkpt>
      <trkpt lat="46.66493" lon="0.6439">
        <ele>82.43</ele>
        <time>2023-06-07T23:50:57.618Z</time>
      </trkpt>
      <trkpt lat="46.66497" lon="0.64398">
        <ele>82.47</ele>
        <time>2023-06-07T23:51:05.684Z</time>
      </trkpt>
      <trkpt lat="46.66508" lon="0.64418">
        <ele>82.52</ele>
        <time>2023-06-07T23:51:13.753Z</time>
      </trkpt>
      <trkpt lat="46.66517" lon="0.64434">
        <ele>82.61</ele>
        <time>2023-06-07T23:51:21.824Z</time>
      </trkpt>
      <trkpt lat="46.6652" lon="0.6444">
        <ele>82.67</ele>
        <time>2023-06-07T23:51:29.896Z</time>
      </trkpt>
      <trkpt lat="46.66524" lon="0.6445">
        <ele>82.76</ele>
        <time>2023-06-07T23:51:37.969Z</time>
      </trkpt>
      <trkpt lat="46.66528" lon="0.64462">
        <ele>82.43</ele>
        <time>2023-06-07T23:51:46.043Z</time>
      </trkpt>
      <trkpt lat="46.66528" lon="0.64462">
        <ele>82.43</ele>
        <time>2023-06-07T23:51:54.117Z</time>
      </trkpt>
      <trkpt lat="46.66532" lon="0.64464">
        <ele>82.29</ele>
        <time>2023-06-07T23:52:02.192Z</time>
      </trkpt>
      <trkpt lat="46.66536" lon="0.64467">
        <ele>82.2</ele>
        <time>2023-06-07T23:52:10.268Z</time>
      </trkpt>
      <trkpt lat="46.6654" lon="0.64469">
        <ele>82.15</ele>
        <time>2023-06-07T23:52:18.345Z</time>
      </trkpt>
      <trkpt lat="46.66544" lon="0.64471">
        <ele>82.15</ele>
        <time>2023-06-07T23:52:26.422Z</time>
      </trkpt>
      <trkpt lat="46.66553" lon="0.64476">
        <ele>82.25</ele>
        <time>2023-06-07T23:52:34.501Z</time>
      </trkpt>
      <trkpt lat="46.66557" lon="0.64479">
        <ele>82.33</ele>
        <time>2023-06-07T23:52:42.580Z</time>
      </trkpt>
      <trkpt lat="46.66565" lon="0.64484">
        <ele>82.53</ele>
        <time>2023-06-07T23:52:50.661Z</time>
      </trkpt>
      <trkpt lat="46.6659" lon="0.64498">
        <ele>83.23</ele>
        <time>2023-06-07T23:52:58.746Z</time>
      </trkpt>
      <trkpt lat="46.66599" lon="0.64503">
        <ele>83.51</ele>
        <time>2023-06-07T23:53:06.833Z</time>
      </trkpt>
      <trkpt lat="46.66619" lon="0.64515">
        <ele>84.28</ele>
        <time>2023-06-07T23:53:14.923Z</time>
      </trkpt>
      <trkpt lat="46.66632" lon="0.64522">
        <ele>84.71</ele>
        <time>2023-06-07T23:53:23.015Z</time>
      </trkpt>
      <trkpt lat="46.6664" lon="0.64527">
        <ele>85.02</ele>
        <time>2023-06-07T23:53:31.109Z</time>
      </trkpt>
      <trkpt lat="46.66653" lon="0.64534">
        <ele>85.57</ele>
        <time>2023-06-07T23:53:39.205Z</time>
      </trkpt>
      <trkpt lat="46.66657" lon="0.64536">
        <ele>85.79</ele>
        <time>2023-06-07T23:53:47.302Z</time>
      </trkpt>
      <trkpt lat="46.66665" lon="0.64541">
        <ele>86.28</ele>
        <time>2023-06-07T23:53:55.400Z</time>
      </trkpt>
      <trkpt lat="46.66678" lon="0.64548">
        <ele>87.15</ele>
        <time>2023-06-07T23:54:03.500Z</time>
      </trkpt>
      <trkpt lat="46.66686" lon="0.64553">
        <ele>87.78</ele>
        <time>2023-06-07T23:54:11.602Z</time>
      </trkpt>
      <trkpt lat="46.66689" lon="0.64555">
        <ele>88.02</ele>
        <time>2023-06-07T23:54:19.704Z</time>
      </trkpt>
      <trkpt lat="46.66698" lon="0.64562">
        <ele>88.77</ele>
        <time>2023-06-07T23:54:27.808Z</time>
      </trkpt>
      <trkpt lat="46.66702" lon="0.64565">
        <ele>89.07</ele>
        <time>2023-06-07T23:54:35.913Z</time>
      </trkpt>
      <trkpt lat="46.66706" lon="0.64569">
        <ele>89.35</ele>
        <time>2023-06-07T23:54:44.018Z</time>
      </trkpt>
      <trkpt lat="46.66706" lon="0.64569">
        <ele>89.35</ele>
        <time>2023-06-07T23:54:52.123Z</time>
      </trkpt>
      <trkpt lat="46.66709" lon="0.64573">
        <ele>89.59</ele>
        <time>2023-06-07T23:55:00.229Z</time>
      </trkpt>
      <trkpt lat="46.66719" lon="0.64585">
        <ele>90.25</ele>
        <time>2023-06-07T23:55:08.337Z</time>
      </trkpt>
      <trkpt lat="46.66726" lon="0.64593">
        <ele>90.75</ele>
        <time>2023-06-07T23:55:16.447Z</time>
      </trkpt>
      <trkpt lat="46.6673" lon="0.64598">
        <ele>91.04</ele>
        <time>2023-06-07T23:55:24.557Z</time>
      </trkpt>
      <trkpt lat="46.66747" lon="0.64618">
        <ele>92.68</ele>
        <time>2023-06-07T23:55:32.671Z</time>
      </trkpt>
      <trkpt lat="46.66754" lon="0.64627">
        <ele>93.26</ele>
        <time>2023-06-07T23:55:40.786Z</time>
      </trkpt>
      <trkpt lat="46.66764" lon="0.64639">
        <ele>94.06</ele>
        <time>2023-06-07T23:55:48.903Z</time>
      </trkpt>
      <trkpt lat="46.66778" lon="0.64656">
        <ele>95.17</ele>
        <time>2023-06-07T23:55:57.023Z</time>
      </trkpt>
      <trkpt lat="46.66785" lon="0.64664">
        <ele>95.65</ele>
        <time>2023-06-07T23:56:05.145Z</time>
      </trkpt>
      <trkpt lat="46.66795" lon="0.64676">
        <ele>96.28</ele>
        <time>2023-06-07T23:56:13.269Z</time>
      </trkpt>
      <trkpt lat="46.66802" lon="0.64685">
        <ele>96.65</ele>
        <time>2023-06-07T23:56:21.394Z</time>
      </trkpt>
      <trkpt lat="46.66805" lon="0.64688">
        <ele>96.77</ele>
        <time>2023-06-07T23:56:29.520Z</time>
      </trkpt>
      <trkpt lat="46.66814" lon="0.64694">
        <ele>97.12</ele>
        <time>2023-06-07T23:56:37.648Z</time>
      </trkpt>
      <trkpt lat="46.66816" lon="0.64696">
        <ele>97.18</ele>
        <time>2023-06-07T23:56:45.776Z</time>
      </trkpt>
      <trkpt lat="46.66823" lon="0.64697">
        <ele>97.36</ele>
        <time>2023-06-07T23:56:53.905Z</time>
      </trkpt>
      <trkpt lat="46.66836" lon="0.64699">
        <ele>97.61</ele>
        <time>2023-06-07T23:57:02.036Z</time>
      </trkpt>
      <trkpt lat="46.66837" lon="0.64699">
        <ele>97.62</ele>
        <time>2023-06-07T23:57:10.167Z</time>
      </trkpt>
      <trkpt lat="46.66845" lon="0.64696">
        <ele>97.74</ele>
        <time>2023-06-07T23:57:18.300Z</time>
      </trkpt>
      <trkpt lat="46.66858" lon="0.64692">
        <ele>97.88</ele>
        <time>2023-06-07T23:57:26.435Z</time>
      </trkpt>
      <trkpt lat="46.66867" lon="0.64689">
        <ele>97.93</ele>
        <time>2023-06-07T23:57:34.571Z</time>
      </trkpt>
      <trkpt lat="46.66888" lon="0.64682">
        <ele>97.92</ele>
        <time>2023-06-07T23:57:42.711Z</time>
      </trkpt>
      <trkpt lat="46.66897" lon="0.6468">
        <ele>98</ele>
        <time>2023-06-07T23:57:50.852Z</time>
      </trkpt>
      <trkpt lat="46.66902" lon="0.64678">
        <ele>98.09</ele>
        <time>2023-06-07T23:57:58.994Z</time>
      </trkpt>
      <trkpt lat="46.66905" lon="0.64677">
        <ele>98.21</ele>
        <time>2023-06-07T23:58:07.136Z</time>
      </trkpt>
      <trkpt lat="46.66906" lon="0.64677">
        <ele>98.21</ele>
        <time>2023-06-07T23:58:15.279Z</time>
      </trkpt>
      <trkpt lat="46.6691" lon="0.64676">
        <ele>98.37</ele>
        <time>2023-06-07T23:58:23.422Z</time>
      </trkpt>
      <trkpt lat="46.66915" lon="0.64675">
        <ele>98.57</ele>
        <time>2023-06-07T23:58:31.566Z</time>
      </trkpt>
      <trkpt lat="46.66928" lon="0.64672">
        <ele>99.29</ele>
        <time>2023-06-07T23:58:39.712Z</time>
      </trkpt>
      <trkpt lat="46.66932" lon="0.6467">
        <ele>99.51</ele>
        <time>2023-06-07T23:58:47.859Z</time>
      </trkpt>
      <trkpt lat="46.66937" lon="0.64669">
        <ele>99.69</ele>
        <time>2023-06-07T23:58:56.007Z</time>
      </trkpt>
      <trkpt lat="46.6695" lon="0.64666">
        <ele>100.17</ele>
        <time>2023-06-07T23:59:04.157Z</time>
      </trkpt>
      <trkpt lat="46.66955" lon="0.64665">
        <ele>100.37</ele>
        <time>2023-06-07T23:59:12.307Z</time>
      </trkpt>
      <trkpt lat="46.66959" lon="0.64664">
        <ele>100.6</ele>
        <time>2023-06-07T23:59:20.458Z</time>
      </trkpt>
      <trkpt lat="46.66963" lon="0.64663">
        <ele>100.87</ele>
        <time>2023-06-07T23:59:28.610Z</time>
      </trkpt>
      <trkpt lat="46.66972" lon="0.64661">
        <ele>101.51</ele>
        <time>2023-06-07T23:59:36.763Z</time>
      </trkpt>
      <trkpt lat="46.66985" lon="0.64658">
        <ele>102.59</ele>
        <time>2023-06-07T23:59:44.918Z</time>
      </trkpt>
      <trkpt lat="46.67003" lon="0.64654">
        <ele>104.14</ele>
        <time>2023-06-07T23:59:53.076Z</time>
      </trkpt>
      <trkpt lat="46.67006" lon="0.64653">
        <ele>104.35</ele>
        <time>2023-06-08T00:00:01.235Z</time>
      </trkpt>
      <trkpt lat="46.67016" lon="0.64658">
        <ele>105.1</ele>
        <time>2023-06-08T00:00:09.395Z</time>
      </trkpt>
      <trkpt lat="46.67018" lon="0.64659">
        <ele>105.24</ele>
        <time>2023-06-08T00:00:17.556Z</time>
      </trkpt>
      <trkpt lat="46.6702" lon="0.64661">
        <ele>105.41</ele>
        <time>2023-06-08T00:00:25.717Z</time>
      </trkpt>
      <trkpt lat="46.67025" lon="0.64667">
        <ele>105.82</ele>
        <time>2023-06-08T00:00:33.879Z</time>
      </trkpt>
      <trkpt lat="46.67029" lon="0.64675">
        <ele>106.25</ele>
        <time>2023-06-08T00:00:42.042Z</time>
      </trkpt>
      <trkpt lat="46.67033" lon="0.64683">
        <ele>106.64</ele>
        <time>2023-06-08T00:00:50.206Z</time>
      </trkpt>
      <trkpt lat="46.67036" lon="0.64699">
        <ele>107.29</ele>
        <time>2023-06-08T00:00:58.372Z</time>
      </trkpt>
      <trkpt lat="46.67039" lon="0.64714">
        <ele>107.99</ele>
        <time>2023-06-08T00:01:06.540Z</time>
      </trkpt>
      <trkpt lat="46.6704" lon="0.64724">
        <ele>108.44</ele>
        <time>2023-06-08T00:01:14.709Z</time>
      </trkpt>
      <trkpt lat="46.67041" lon="0.6473">
        <ele>108.76</ele>
        <time>2023-06-08T00:01:22.879Z</time>
      </trkpt>
      <trkpt lat="46.67042" lon="0.64737">
        <ele>109.12</ele>
        <time>2023-06-08T00:01:31.050Z</time>
      </trkpt>
      <trkpt lat="46.67042" lon="0.64741">
        <ele>109.38</ele>
        <time>2023-06-08T00:01:39.221Z</time>
      </trkpt>
      <trkpt lat="46.67043" lon="0.64763">
        <ele>110.82</ele>
        <time>2023-06-08T00:01:47.394Z</time>
      </trkpt>
      <trkpt lat="46.67043" lon="0.64776">
        <ele>111.63</ele>
        <time>2023-06-08T00:01:55.569Z</time>
      </trkpt>
      <trkpt lat="46.67044" lon="0.64802">
        <ele>113.2</ele>
        <time>2023-06-08T00:02:03.747Z</time>
      </trkpt>
      <trkpt lat="46.67045" lon="0.64835">
        <ele>115.11</ele>
        <time>2023-06-08T00:02:11.928Z</time>
      </trkpt>
      <trkpt lat="46.67046" lon="0.64874">
        <ele>117.52</ele>
        <time>2023-06-08T00:02:20.114Z</time>
      </trkpt>
      <trkpt lat="46.67047" lon="0.64887">
        <ele>118.25</ele>
        <time>2023-06-08T00:02:28.301Z</time>
      </trkpt>
      <trkpt lat="46.67047" lon="0.64893">
        <ele>118.57</ele>
        <time>2023-06-08T00:02:36.489Z</time>
      </trkpt>
      <trkpt lat="46.67047" lon="0.649">
        <ele>118.84</ele>
        <time>2023-06-08T00:02:44.678Z</time>
      </trkpt>
      <trkpt lat="46.67048" lon="0.64927">
        <ele>119.81</ele>
        <time>2023-06-08T00:02:52.870Z</time>
      </trkpt>
      <trkpt lat="46.67048" lon="0.64927">
        <ele>119.81</ele>
        <time>2023-06-08T00:03:01.062Z</time>
      </trkpt>
      <trkpt lat="46.67053" lon="0.64937">
        <ele>120.38</ele>
        <time>2023-06-08T00:03:09.255Z</time>
      </trkpt>
      <trkpt lat="46.67061" lon="0.64943">
        <ele>120.92</ele>
        <time>2023-06-08T00:03:17.449Z</time>
      </trkpt>
      <trkpt lat="46.67062" lon="0.64944">
        <ele>121.01</ele>
        <time>2023-06-08T00:03:25.644Z</time>
      </trkpt>
      <trkpt lat="46.67065" lon="0.64944">
        <ele>121.18</ele>
        <time>2023-06-08T00:03:33.839Z</time>
      </trkpt>
      <trkpt lat="46.67074" lon="0.64945">
        <ele>121.64</ele>
        <time>2023-06-08T00:03:42.035Z</time>
      </trkpt>
      <trkpt lat="46.67082" lon="0.64946">
        <ele>122.27</ele>
        <time>2023-06-08T00:03:50.233Z</time>
      </trkpt>
      <trkpt lat="46.67096" lon="0.64945">
        <ele>123.34</ele>
        <time>2023-06-08T00:03:58.433Z</time>
      </trkpt>
      <trkpt lat="46.67109" lon="0.64944">
        <ele>124.32</ele>
        <time>2023-06-08T00:04:06.635Z</time>
      </trkpt>
      <trkpt lat="46.67127" lon="0.64942">
        <ele>125.5</ele>
        <time>2023-06-08T00:04:14.840Z</time>
      </trkpt>
      <trkpt lat="46.67136" lon="0.64942">
        <ele>126.05</ele>
        <time>2023-06-08T00:04:23.046Z</time>
      </trkpt>
      <trkpt lat="46.6714" lon="0.64941">
        <ele>126.3</ele>
        <time>2023-06-08T00:04:31.253Z</time>
      </trkpt>
      <trkpt lat="46.67144" lon="0.64941">
        <ele>126.49</ele>
        <time>2023-06-08T00:04:39.461Z</time>
      </trkpt>
      <trkpt lat="46.67149" lon="0.64942">
        <ele>126.74</ele>
        <time>2023-06-08T00:04:47.669Z</time>
      </trkpt>
      <trkpt lat="46.67162" lon="0.64944">
        <ele>127.35</ele>
        <time>2023-06-08T00:04:55.880Z</time>
      </trkpt>
      <trkpt lat="46.67171" lon="0.64946">
        <ele>127.74</ele>
        <time>2023-06-08T00:05:04.092Z</time>
      </trkpt>
      <trkpt lat="46.67175" lon="0.64946">
        <ele>127.91</ele>
        <time>2023-06-08T00:05:12.305Z</time>
      </trkpt>
      <trkpt lat="46.67184" lon="0.64948">
        <ele>128.21</ele>
        <time>2023-06-08T00:05:20.519Z</time>
      </trkpt>
      <trkpt lat="46.67188" lon="0.64949">
        <ele>128.34</ele>
        <time>2023-06-08T00:05:28.734Z</time>
      </trkpt>
      <trkpt lat="46.67193" lon="0.64949">
        <ele>128.44</ele>
        <time>2023-06-08T00:05:36.950Z</time>
      </trkpt>
      <trkpt lat="46.67197" lon="0.6495">
        <ele>128.51</ele>
        <time>2023-06-08T00:05:45.166Z</time>
      </trkpt>
      <trkpt lat="46.67201" lon="0.64953">
        <ele>128.6</ele>
        <time>2023-06-08T00:05:53.383Z</time>
      </trkpt>
      <trkpt lat="46.67208" lon="0.64959">
        <ele>128.72</ele>
        <time>2023-06-08T00:06:01.601Z</time>
      </trkpt>
      <trkpt lat="46.67215" lon="0.64978">
        <ele>128.95</ele>
        <time>2023-06-08T00:06:09.822Z</time>
      </trkpt>
      <trkpt lat="46.67216" lon="0.64981">
        <ele>128.99</ele>
        <time>2023-06-08T00:06:18.043Z</time>
      </trkpt>
      <trkpt lat="46.6722" lon="0.65011">
        <ele>129.24</ele>
        <time>2023-06-08T00:06:26.267Z</time>
      </trkpt>
      <trkpt lat="46.67222" lon="0.65023">
        <ele>129.28</ele>
        <time>2023-06-08T00:06:34.493Z</time>
      </trkpt>
      <trkpt lat="46.67223" lon="0.65023">
        <ele>129.28</ele>
        <time>2023-06-08T00:06:42.719Z</time>
      </trkpt>
      <trkpt lat="46.67231" lon="0.65022">
        <ele>129.36</ele>
        <time>2023-06-08T00:06:50.946Z</time>
      </trkpt>
      <trkpt lat="46.6724" lon="0.6502">
        <ele>129.52</ele>
        <time>2023-06-08T00:06:59.175Z</time>
      </trkpt>
      <trkpt lat="46.67262" lon="0.65017">
        <ele>129.99</ele>
        <time>2023-06-08T00:07:07.407Z</time>
      </trkpt>
      <trkpt lat="46.67271" lon="0.65016">
        <ele>129.97</ele>
        <time>2023-06-08T00:07:15.641Z</time>
      </trkpt>
      <trkpt lat="46.67276" lon="0.6504">
        <ele>129.95</ele>
        <time>2023-06-08T00:07:23.877Z</time>
      </trkpt>
      <trkpt lat="46.67284" lon="0.65074">
        <ele>129.94</ele>
        <time>2023-06-08T00:07:32.117Z</time>
      </trkpt>
      <trkpt lat="46.67284" lon="0.65076">
        <ele>129.94</ele>
        <time>2023-06-08T00:07:40.357Z</time>
      </trkpt>
      <trkpt lat="46.67284" lon="0.65095">
        <ele>129.96</ele>
        <time>2023-06-08T00:07:48.600Z</time>
      </trkpt>
      <trkpt lat="46.67284" lon="0.65107">
        <ele>129.93</ele>
        <time>2023-06-08T00:07:56.844Z</time>
      </trkpt>
      <trkpt lat="46.67291" lon="0.65145">
        <ele>129.87</ele>
        <time>2023-06-08T00:08:05.092Z</time>
      </trkpt>
      <trkpt lat="46.67293" lon="0.65157">
        <ele>129.62</ele>
        <time>2023-06-08T00:08:13.342Z</time>
      </trkpt>
      <trkpt lat="46.67297" lon="0.65156">
        <ele>129.5</ele>
        <time>2023-06-08T00:08:21.592Z</time>
      </trkpt>
      <trkpt lat="46.67306" lon="0.65154">
        <ele>129.43</ele>
        <time>2023-06-08T00:08:29.844Z</time>
      </trkpt>
      <trkpt lat="46.6731" lon="0.65172">
        <ele>129.34</ele>
        <time>2023-06-08T00:08:38.098Z</time>
      </trkpt>
      <trkpt lat="46.67314" lon="0.65196">
        <ele>129.16</ele>
        <time>2023-06-08T00:08:46.355Z</time>
      </trkpt>
      <trkpt lat="46.67318" lon="0.65215">
        <ele>129.06</ele>
        <time>2023-06-08T00:08:54.614Z</time>
      </trkpt>
      <trkpt lat="46.67323" lon="0.65245">
        <ele>129.53</ele>
        <time>2023-06-08T00:09:02.876Z</time>
      </trkpt>
      <trkpt lat="46.67326" lon="0.65257">
        <ele>129.7</ele>
        <time>2023-06-08T00:09:11.139Z</time>
      </trkpt>
      <trkpt lat="46.67333" lon="0.65293">
        <ele>130.12</ele>
        <time>2023-06-08T00:09:19.407Z</time>
      </trkpt>
      <trkpt lat="46.67333" lon="0.65293">
        <ele>130.4</ele>
        <time>2023-06-08T00:09:27.675Z</time>
      </trkpt>
      <trkpt lat="46.67335" lon="0.65303">
        <ele>130.34</ele>
        <time>2023-06-08T00:09:35.944Z</time>
      </trkpt>
      <trkpt lat="46.67335" lon="0.65303">
        <ele>129.99</ele>
        <time>2023-06-08T00:09:44.213Z</time>
      </trkpt>
      <trkpt lat="46.67337" lon="0.65313">
        <ele>130.12</ele>
        <time>2023-06-08T00:09:52.483Z</time>
      </trkpt>
      <trkpt lat="46.67337" lon="0.65315">
        <ele>130.09</ele>
        <time>2023-06-08T00:10:00.753Z</time>
      </trkpt>
      <trkpt lat="46.6733" lon="0.65281">
        <ele>129.7</ele>
        <time>2023-06-08T00:10:09.027Z</time>
      </trkpt>
      <trkpt lat="46.67328" lon="0.65269">
        <ele>129.53</ele>
        <time>2023-06-08T00:10:17.302Z</time>
      </trkpt>
      <trkpt lat="46.67322" lon="0.65239">
        <ele>129.06</ele>
        <time>2023-06-08T00:10:25.581Z</time>
      </trkpt>
      <trkpt lat="46.67319" lon="0.65227">
        <ele>128.7</ele>
        <time>2023-06-08T00:10:33.861Z</time>
      </trkpt>
      <trkpt lat="46.67331" lon="0.65223">
        <ele>128.2</ele>
        <time>2023-06-08T00:10:42.143Z</time>
      </trkpt>
      <trkpt lat="46.67344" lon="0.65218">
        <ele>127.81</ele>
        <time>2023-06-08T00:10:50.427Z</time>
      </trkpt>
      <trkpt lat="46.67349" lon="0.65216">
        <ele>127.61</ele>
        <time>2023-06-08T00:10:58.712Z</time>
      </trkpt>
      <trkpt lat="46.67361" lon="0.65214">
        <ele>127.19</ele>
        <time>2023-06-08T00:11:06.999Z</time>
      </trkpt>
      <trkpt lat="46.67374" lon="0.65213">
        <ele>126.63</ele>
        <time>2023-06-08T00:11:15.288Z</time>
      </trkpt>
      <trkpt lat="46.67382" lon="0.65212">
        <ele>126.22</ele>
        <time>2023-06-08T00:11:23.579Z</time>
      </trkpt>
      <trkpt lat="46.67396" lon="0.6521">
        <ele>125.53</ele>
        <time>2023-06-08T00:11:31.872Z</time>
      </trkpt>
      <trkpt lat="46.67399" lon="0.65208">
        <ele>125.37</ele>
        <time>2023-06-08T00:11:40.165Z</time>
      </trkpt>
      <trkpt lat="46.67407" lon="0.65202">
        <ele>124.9</ele>
        <time>2023-06-08T00:11:48.460Z</time>
      </trkpt>
      <trkpt lat="46.67414" lon="0.65196">
        <ele>124.38</ele>
        <time>2023-06-08T00:11:56.756Z</time>
      </trkpt>
      <trkpt lat="46.67418" lon="0.65193">
        <ele>124.09</ele>
        <time>2023-06-08T00:12:05.053Z</time>
      </trkpt>
      <trkpt lat="46.67429" lon="0.65185">
        <ele>123.05</ele>
        <time>2023-06-08T00:12:13.352Z</time>
      </trkpt>
      <trkpt lat="46.67437" lon="0.65179">
        <ele>121.85</ele>
        <time>2023-06-08T00:12:21.652Z</time>
      </trkpt>
      <trkpt lat="46.6744" lon="0.65175">
        <ele>121.25</ele>
        <time>2023-06-08T00:12:29.953Z</time>
      </trkpt>
      <trkpt lat="46.67464" lon="0.65146">
        <ele>116.89</ele>
        <time>2023-06-08T00:12:38.259Z</time>
      </trkpt>
      <trkpt lat="46.67477" lon="0.6513">
        <ele>114.49</ele>
        <time>2023-06-08T00:12:46.568Z</time>
      </trkpt>
      <trkpt lat="46.67494" lon="0.6511">
        <ele>111.62</ele>
        <time>2023-06-08T00:12:54.880Z</time>
      </trkpt>
      <trkpt lat="46.67501" lon="0.65102">
        <ele>110.55</ele>
        <time>2023-06-08T00:13:03.193Z</time>
      </trkpt>
      <trkpt lat="46.67508" lon="0.65094">
        <ele>109.56</ele>
        <time>2023-06-08T00:13:11.508Z</time>
      </trkpt>
      <trkpt lat="46.67514" lon="0.65086">
        <ele>108.98</ele>
        <time>2023-06-08T00:13:19.824Z</time>
      </trkpt>
      <trkpt lat="46.67518" lon="0.65082">
        <ele>108.71</ele>
        <time>2023-06-08T00:13:28.141Z</time>
      </trkpt>
      <trkpt lat="46.67524" lon="0.65073">
        <ele>108.21</ele>
        <time>2023-06-08T00:13:36.459Z</time>
      </trkpt>
      <trkpt lat="46.67528" lon="0.65069">
        <ele>107.99</ele>
        <time>2023-06-08T00:13:44.778Z</time>
      </trkpt>
      <trkpt lat="46.67534" lon="0.65061">
        <ele>107.61</ele>
        <time>2023-06-08T00:13:53.098Z</time>
      </trkpt>
      <trkpt lat="46.67541" lon="0.65053">
        <ele>107.28</ele>
        <time>2023-06-08T00:14:01.420Z</time>
      </trkpt>
      <trkpt lat="46.67548" lon="0.65045">
        <ele>107.03</ele>
        <time>2023-06-08T00:14:09.743Z</time>
      </trkpt>
      <trkpt lat="46.67554" lon="0.65037">
        <ele>106.83</ele>
        <time>2023-06-08T00:14:18.068Z</time>
      </trkpt>
      <trkpt lat="46.67561" lon="0.65029">
        <ele>106.66</ele>
        <time>2023-06-08T00:14:26.394Z</time>
      </trkpt>
      <trkpt lat="46.67568" lon="0.65021">
        <ele>106.52</ele>
        <time>2023-06-08T00:14:34.721Z</time>
      </trkpt>
      <trkpt lat="46.67574" lon="0.65013">
        <ele>106.41</ele>
        <time>2023-06-08T00:14:43.050Z</time>
      </trkpt>
      <trkpt lat="46.67584" lon="0.65001">
        <ele>106.31</ele>
        <time>2023-06-08T00:14:51.381Z</time>
      </trkpt>
      <trkpt lat="46.67622" lon="0.64956">
        <ele>105.63</ele>
        <time>2023-06-08T00:14:59.720Z</time>
      </trkpt>
      <trkpt lat="46.67629" lon="0.64947">
        <ele>105.46</ele>
        <time>2023-06-08T00:15:08.060Z</time>
      </trkpt>
      <trkpt lat="46.67636" lon="0.64939">
        <ele>105.21</ele>
        <time>2023-06-08T00:15:16.402Z</time>
      </trkpt>
      <trkpt lat="46.67643" lon="0.64931">
        <ele>104.87</ele>
        <time>2023-06-08T00:15:24.745Z</time>
      </trkpt>
      <trkpt lat="46.67646" lon="0.64926">
        <ele>104.68</ele>
        <time>2023-06-08T00:15:33.089Z</time>
      </trkpt>
      <trkpt lat="46.67648" lon="0.64924">
        <ele>104.54</ele>
        <time>2023-06-08T00:15:41.433Z</time>
      </trkpt>
      <trkpt lat="46.67652" lon="0.64917">
        <ele>104.2</ele>
        <time>2023-06-08T00:15:49.778Z</time>
      </trkpt>
      <trkpt lat="46.67654" lon="0.64912">
        <ele>103.96</ele>
        <time>2023-06-08T00:15:58.124Z</time>
      </trkpt>
      <trkpt lat="46.67654" lon="0.64912">
        <ele>110.03</ele>
        <time>2023-06-08T00:16:06.470Z</time>
      </trkpt>
      <trkpt lat="46.67659" lon="0.64903">
        <ele>110.85</ele>
        <time>2023-06-08T00:16:14.817Z</time>
      </trkpt>
      <trkpt lat="46.67667" lon="0.64906">
        <ele>111.71</ele>
        <time>2023-06-08T00:16:23.165Z</time>
      </trkpt>
      <trkpt lat="46.67675" lon="0.64909">
        <ele>112.03</ele>
        <time>2023-06-08T00:16:31.515Z</time>
      </trkpt>
      <trkpt lat="46.67676" lon="0.64909">
        <ele>112.07</ele>
        <time>2023-06-08T00:16:39.865Z</time>
      </trkpt>
      <trkpt lat="46.67684" lon="0.64906">
        <ele>112.65</ele>
        <time>2023-06-08T00:16:48.216Z</time>
      </trkpt>
      <trkpt lat="46.67685" lon="0.64906">
        <ele>112.65</ele>
        <time>2023-06-08T00:16:56.567Z</time>
      </trkpt>
      <trkpt lat="46.67695" lon="0.64908">
        <ele>113.6</ele>
        <time>2023-06-08T00:17:04.920Z</time>
      </trkpt>
      <trkpt lat="46.67705" lon="0.64909">
        <ele>114.3</ele>
        <time>2023-06-08T00:17:13.275Z</time>
      </trkpt>
      <trkpt lat="46.67713" lon="0.6491">
        <ele>115.36</ele>
        <time>2023-06-08T00:17:21.631Z</time>
      </trkpt>
      <trkpt lat="46.67717" lon="0.64911">
        <ele>115.85</ele>
        <time>2023-06-08T00:17:29.987Z</time>
      </trkpt>
      <trkpt lat="46.67725" lon="0.64914">
        <ele>116.89</ele>
        <time>2023-06-08T00:17:38.345Z</time>
      </trkpt>
      <trkpt lat="46.67727" lon="0.64914">
        <ele>117.11</ele>
        <time>2023-06-08T00:17:46.703Z</time>
      </trkpt>
      <trkpt lat="46.67737" lon="0.64916">
        <ele>118.35</ele>
        <time>2023-06-08T00:17:55.063Z</time>
      </trkpt>
      <trkpt lat="46.67749" lon="0.64917">
        <ele>119.23</ele>
        <time>2023-06-08T00:18:03.425Z</time>
      </trkpt>
      <trkpt lat="46.67757" lon="0.64918">
        <ele>119.66</ele>
        <time>2023-06-08T00:18:11.788Z</time>
      </trkpt>
      <trkpt lat="46.67761" lon="0.64919">
        <ele>119.87</ele>
        <time>2023-06-08T00:18:20.152Z</time>
      </trkpt>
      <trkpt lat="46.67769" lon="0.64921">
        <ele>120.46</ele>
        <time>2023-06-08T00:18:28.517Z</time>
      </trkpt>
      <trkpt lat="46.6777" lon="0.64921">
        <ele>120.55</ele>
        <time>2023-06-08T00:18:36.882Z</time>
      </trkpt>
      <trkpt lat="46.67781" lon="0.64924">
        <ele>121.35</ele>
        <time>2023-06-08T00:18:45.249Z</time>
      </trkpt>
      <trkpt lat="46.6779" lon="0.64926">
        <ele>121.94</ele>
        <time>2023-06-08T00:18:53.617Z</time>
      </trkpt>
      <trkpt lat="46.67802" lon="0.64928">
        <ele>122.55</ele>
        <time>2023-06-08T00:19:01.987Z</time>
      </trkpt>
      <trkpt lat="46.6781" lon="0.6493">
        <ele>123.28</ele>
        <time>2023-06-08T00:19:10.359Z</time>
      </trkpt>
      <trkpt lat="46.67814" lon="0.64933">
        <ele>123.64</ele>
        <time>2023-06-08T00:19:18.731Z</time>
      </trkpt>
      <trkpt lat="46.67821" lon="0.64939">
        <ele>124.35</ele>
        <time>2023-06-08T00:19:27.105Z</time>
      </trkpt>
      <trkpt lat="46.6783" lon="0.64951">
        <ele>125.33</ele>
        <time>2023-06-08T00:19:35.480Z</time>
      </trkpt>
      <trkpt lat="46.67836" lon="0.64959">
        <ele>125.62</ele>
        <time>2023-06-08T00:19:43.857Z</time>
      </trkpt>
      <trkpt lat="46.67837" lon="0.64961">
        <ele>125.69</ele>
        <time>2023-06-08T00:19:52.234Z</time>
      </trkpt>
      <trkpt lat="46.67843" lon="0.64972">
        <ele>125.71</ele>
        <time>2023-06-08T00:20:00.613Z</time>
      </trkpt>
      <trkpt lat="46.67849" lon="0.64984">
        <ele>125.51</ele>
        <time>2023-06-08T00:20:08.993Z</time>
      </trkpt>
      <trkpt lat="46.67854" lon="0.64994">
        <ele>125.3</ele>
        <time>2023-06-08T00:20:17.375Z</time>
      </trkpt>
      <trkpt lat="46.67855" lon="0.64995">
        <ele>125.28</ele>
        <time>2023-06-08T00:20:25.757Z</time>
      </trkpt>
      <trkpt lat="46.67859" lon="0.65009">
        <ele>124.86</ele>
        <time>2023-06-08T00:20:34.140Z</time>
      </trkpt>
      <trkpt lat="46.67868" lon="0.65033">
        <ele>124.18</ele>
        <time>2023-06-08T00:20:42.526Z</time>
      </trkpt>
      <trkpt lat="46.6787" lon="0.65036">
        <ele>124.09</ele>
        <time>2023-06-08T00:20:50.913Z</time>
      </trkpt>
      <trkpt lat="46.67877" lon="0.65046">
        <ele>124.01</ele>
        <time>2023-06-08T00:20:59.301Z</time>
      </trkpt>
      <trkpt lat="46.67883" lon="0.65054">
        <ele>123.99</ele>
        <time>2023-06-08T00:21:07.691Z</time>
      </trkpt>
      <trkpt lat="46.67884" lon="0.65055">
        <ele>123.99</ele>
        <time>2023-06-08T00:21:16.081Z</time>
      </trkpt>
      <trkpt lat="46.67891" lon="0.65061">
        <ele>124.27</ele>
        <time>2023-06-08T00:21:24.472Z</time>
      </trkpt>
      <trkpt lat="46.67892" lon="0.65062">
        <ele>124.33</ele>
        <time>2023-06-08T00:21:32.864Z</time>
      </trkpt>
      <trkpt lat="46.679" lon="0.65067">
        <ele>124.69</ele>
        <time>2023-06-08T00:21:41.257Z</time>
      </trkpt>
      <trkpt lat="46.67902" lon="0.65068">
        <ele>124.78</ele>
        <time>2023-06-08T00:21:49.650Z</time>
      </trkpt>
      <trkpt lat="46.67912" lon="0.65072">
        <ele>125.13</ele>
        <time>2023-06-08T00:21:58.045Z</time>
      </trkpt>
      <trkpt lat="46.67921" lon="0.65076">
        <ele>125.37</ele>
        <time>2023-06-08T00:22:06.441Z</time>
      </trkpt>
      <trkpt lat="46.67929" lon="0.65079">
        <ele>125.54</ele>
        <time>2023-06-08T00:22:14.839Z</time>
      </trkpt>
      <trkpt lat="46.67932" lon="0.65079">
        <ele>125.6</ele>
        <time>2023-06-08T00:22:23.237Z</time>
      </trkpt>
      <trkpt lat="46.67953" lon="0.6508">
        <ele>126.14</ele>
        <time>2023-06-08T00:22:31.639Z</time>
      </trkpt>
      <trkpt lat="46.67961" lon="0.65081">
        <ele>126.3</ele>
        <time>2023-06-08T00:22:40.042Z</time>
      </trkpt>
      <trkpt lat="46.67962" lon="0.65081">
        <ele>126.32</ele>
        <time>2023-06-08T00:22:48.445Z</time>
      </trkpt>
      <trkpt lat="46.67971" lon="0.65083">
        <ele>126.47</ele>
        <time>2023-06-08T00:22:56.849Z</time>
      </trkpt>
      <trkpt lat="46.6798" lon="0.65084">
        <ele>126.42</ele>
        <time>2023-06-08T00:23:05.255Z</time>
      </trkpt>
      <trkpt lat="46.67992" lon="0.65086">
        <ele>126.46</ele>
        <time>2023-06-08T00:23:13.663Z</time>
      </trkpt>
      <trkpt lat="46.68001" lon="0.65088">
        <ele>126.42</ele>
        <time>2023-06-08T00:23:22.072Z</time>
      </trkpt>
      <trkpt lat="46.68009" lon="0.65089">
        <ele>126.23</ele>
        <time>2023-06-08T00:23:30.483Z</time>
      </trkpt>
      <trkpt lat="46.68011" lon="0.6509">
        <ele>126.19</ele>
        <time>2023-06-08T00:23:38.894Z</time>
      </trkpt>
      <trkpt lat="46.6803" lon="0.65096">
        <ele>125.83</ele>
        <time>2023-06-08T00:23:47.308Z</time>
      </trkpt>
      <trkpt lat="46.68046" lon="0.65102">
        <ele>125.7</ele>
        <time>2023-06-08T00:23:55.725Z</time>
      </trkpt>
      <trkpt lat="46.68046" lon="0.65102">
        <ele>125.75</ele>
        <time>2023-06-08T00:24:04.142Z</time>
      </trkpt>
      <trkpt lat="46.68051" lon="0.65104">
        <ele>125.72</ele>
        <time>2023-06-08T00:24:12.560Z</time>
      </trkpt>
      <trkpt lat="46.68054" lon="0.65105">
        <ele>125.78</ele>
        <time>2023-06-08T00:24:20.978Z</time>
      </trkpt>
      <trkpt lat="46.68047" lon="0.65132">
        <ele>126.24</ele>
        <time>2023-06-08T00:24:29.399Z</time>
      </trkpt>
      <trkpt lat="46.68046" lon="0.65146">
        <ele>126.47</ele>
        <time>2023-06-08T00:24:37.822Z</time>
      </trkpt>
      <trkpt lat="46.68049" lon="0.65177">
        <ele>126.97</ele>
        <time>2023-06-08T00:24:46.248Z</time>
      </trkpt>
      <trkpt lat="46.68047" lon="0.65276">
        <ele>128.56</ele>
        <time>2023-06-08T00:24:54.685Z</time>
      </trkpt>
      <trkpt lat="46.68055" lon="0.65305">
        <ele>129.06</ele>
        <time>2023-06-08T00:25:03.125Z</time>
      </trkpt>
      <trkpt lat="46.68103" lon="0.65424">
        <ele>131.28</ele>
        <time>2023-06-08T00:25:11.581Z</time>
      </trkpt>
      <trkpt lat="46.68107" lon="0.65434">
        <ele>131.34</ele>
        <time>2023-06-08T00:25:20.038Z</time>
      </trkpt>
      <trkpt lat="46.68097" lon="0.65447">
        <ele>131.44</ele>
        <time>2023-06-08T00:25:28.497Z</time>
      </trkpt>
      <trkpt lat="46.68079" lon="0.65472">
        <ele>131.54</ele>
        <time>2023-06-08T00:25:36.960Z</time>
      </trkpt>
      <trkpt lat="46.68071" lon="0.6548">
        <ele>131.58</ele>
        <time>2023-06-08T00:25:45.425Z</time>
      </trkpt>
      <trkpt lat="46.68066" lon="0.65486">
        <ele>131.56</ele>
        <time>2023-06-08T00:25:53.891Z</time>
      </trkpt>
      <trkpt lat="46.6806" lon="0.6549">
        <ele>131.56</ele>
        <time>2023-06-08T00:26:02.358Z</time>
      </trkpt>
      <trkpt lat="46.6804" lon="0.65501">
        <ele>131.45</ele>
        <time>2023-06-08T00:26:10.828Z</time>
      </trkpt>
      <trkpt lat="46.68032" lon="0.65506">
        <ele>131.29</ele>
        <time>2023-06-08T00:26:19.300Z</time>
      </trkpt>
      <trkpt lat="46.68023" lon="0.65511">
        <ele>131.13</ele>
        <time>2023-06-08T00:26:27.773Z</time>
      </trkpt>
      <trkpt lat="46.68015" lon="0.65515">
        <ele>131.02</ele>
        <time>2023-06-08T00:26:36.247Z</time>
      </trkpt>
      <trkpt lat="46.68007" lon="0.6552">
        <ele>130.94</ele>
        <time>2023-06-08T00:26:44.723Z</time>
      </trkpt>
      <trkpt lat="46.67989" lon="0.6553">
        <ele>130.8</ele>
        <time>2023-06-08T00:26:53.202Z</time>
      </trkpt>
      <trkpt lat="46.67974" lon="0.6554">
        <ele>130.69</ele>
        <time>2023-06-08T00:27:01.684Z</time>
      </trkpt>
      <trkpt lat="46.67954" lon="0.65554">
        <ele>130.49</ele>
        <time>2023-06-08T00:27:10.169Z</time>
      </trkpt>
      <trkpt lat="46.67929" lon="0.6557">
        <ele>130.08</ele>
        <time>2023-06-08T00:27:18.658Z</time>
      </trkpt>
      <trkpt lat="46.67901" lon="0.65589">
        <ele>129.69</ele>
        <time>2023-06-08T00:27:27.152Z</time>
      </trkpt>
      <trkpt lat="46.67878" lon="0.65605">
        <ele>129.24</ele>
        <time>2023-06-08T00:27:35.651Z</time>
      </trkpt>
      <trkpt lat="46.67865" lon="0.65615">
        <ele>128.99</ele>
        <time>2023-06-08T00:27:44.152Z</time>
      </trkpt>
      <trkpt lat="46.67857" lon="0.65622">
        <ele>128.84</ele>
        <time>2023-06-08T00:27:52.654Z</time>
      </trkpt>
      <trkpt lat="46.67843" lon="0.65638">
        <ele>128.56</ele>
        <time>2023-06-08T00:28:01.159Z</time>
      </trkpt>
      <trkpt lat="46.67837" lon="0.65645">
        <ele>128.4</ele>
        <time>2023-06-08T00:28:09.665Z</time>
      </trkpt>
      <trkpt lat="46.67836" lon="0.65646">
        <ele>128.39</ele>
        <time>2023-06-08T00:28:18.172Z</time>
      </trkpt>
      <trkpt lat="46.67817" lon="0.65674">
        <ele>127.76</ele>
        <time>2023-06-08T00:28:26.683Z</time>
      </trkpt>
      <trkpt lat="46.67799" lon="0.65701">
        <ele>127.01</ele>
        <time>2023-06-08T00:28:35.198Z</time>
      </trkpt>
      <trkpt lat="46.67792" lon="0.65711">
        <ele>126.8</ele>
        <time>2023-06-08T00:28:43.715Z</time>
      </trkpt>
      <trkpt lat="46.67786" lon="0.6572">
        <ele>126.64</ele>
        <time>2023-06-08T00:28:52.233Z</time>
      </trkpt>
      <trkpt lat="46.67767" lon="0.65748">
        <ele>126.21</ele>
        <time>2023-06-08T00:29:00.755Z</time>
      </trkpt>
      <trkpt lat="46.67758" lon="0.65761">
        <ele>126.06</ele>
        <time>2023-06-08T00:29:09.279Z</time>
      </trkpt>
      <trkpt lat="46.67752" lon="0.6577">
        <ele>125.99</ele>
        <time>2023-06-08T00:29:17.805Z</time>
      </trkpt>
      <trkpt lat="46.67749" lon="0.65773">
        <ele>125.96</ele>
        <time>2023-06-08T00:29:26.331Z</time>
      </trkpt>
      <trkpt lat="46.67747" lon="0.65775">
        <ele>126</ele>
        <time>2023-06-08T00:29:34.858Z</time>
      </trkpt>
      <trkpt lat="46.67741" lon="0.65776">
        <ele>126.12</ele>
        <time>2023-06-08T00:29:43.386Z</time>
      </trkpt>
      <trkpt lat="46.67742" lon="0.65781">
        <ele>126.2</ele>
        <time>2023-06-08T00:29:51.914Z</time>
      </trkpt>
      <trkpt lat="46.6774" lon="0.65789">
        <ele>126.32</ele>
        <time>2023-06-08T00:30:00.443Z</time>
      </trkpt>
      <trkpt lat="46.67683" lon="0.65902">
        <ele>128.27</ele>
        <time>2023-06-08T00:30:08.988Z</time>
      </trkpt>
      <trkpt lat="46.67673" lon="0.65934">
        <ele>128.76</ele>
        <time>2023-06-08T00:30:17.537Z</time>
      </trkpt>
      <trkpt lat="46.67654" lon="0.66006">
        <ele>129.84</ele>
        <time>2023-06-08T00:30:26.094Z</time>
      </trkpt>
      <trkpt lat="46.67642" lon="0.66037">
        <ele>130.33</ele>
        <time>2023-06-08T00:30:34.655Z</time>
      </trkpt>
      <trkpt lat="46.67597" lon="0.66136">
        <ele>131.99</ele>
        <time>2023-06-08T00:30:43.229Z</time>
      </trkpt>
      <trkpt lat="46.67568" lon="0.66188">
        <ele>132.92</ele>
        <time>2023-06-08T00:30:51.810Z</time>
      </trkpt>
      <trkpt lat="46.67557" lon="0.66213">
        <ele>133.34</ele>
        <time>2023-06-08T00:31:00.395Z</time>
      </trkpt>
      <trkpt lat="46.67543" lon="0.66253">
        <ele>133.96</ele>
        <time>2023-06-08T00:31:08.985Z</time>
      </trkpt>
      <trkpt lat="46.67534" lon="0.66272">
        <ele>134.28</ele>
        <time>2023-06-08T00:31:17.577Z</time>
      </trkpt>
      <trkpt lat="46.67529" lon="0.66278">
        <ele>134.42</ele>
        <time>2023-06-08T00:31:26.170Z</time>
      </trkpt>
      <trkpt lat="46.67522" lon="0.66286">
        <ele>134.46</ele>
        <time>2023-06-08T00:31:34.765Z</time>
      </trkpt>
      <trkpt lat="46.6753" lon="0.66311">
        <ele>134.56</ele>
        <time>2023-06-08T00:31:43.363Z</time>
      </trkpt>
      <trkpt lat="46.67549" lon="0.6637">
        <ele>134.75</ele>
        <time>2023-06-08T00:31:51.968Z</time>
      </trkpt>
      <trkpt lat="46.67562" lon="0.66411">
        <ele>134.86</ele>
        <time>2023-06-08T00:32:00.578Z</time>
      </trkpt>
      <trkpt lat="46.67575" lon="0.66452">
        <ele>135.06</ele>
        <time>2023-06-08T00:32:09.193Z</time>
      </trkpt>
      <trkpt lat="46.67592" lon="0.66506">
        <ele>135.25</ele>
        <time>2023-06-08T00:32:17.814Z</time>
      </trkpt>
      <trkpt lat="46.67596" lon="0.66517">
        <ele>135.33</ele>
        <time>2023-06-08T00:32:26.437Z</time>
      </trkpt>
      <trkpt lat="46.67601" lon="0.66535">
        <ele>135.48</ele>
        <time>2023-06-08T00:32:35.062Z</time>
      </trkpt>
      <trkpt lat="46.67613" lon="0.66571">
        <ele>135.71</ele>
        <time>2023-06-08T00:32:43.691Z</time>
      </trkpt>
      <trkpt lat="46.67618" lon="0.66588">
        <ele>135.85</ele>
        <time>2023-06-08T00:32:52.322Z</time>
      </trkpt>
      <trkpt lat="46.67624" lon="0.66606">
        <ele>136.01</ele>
        <time>2023-06-08T00:33:00.956Z</time>
      </trkpt>
      <trkpt lat="46.67631" lon="0.6663">
        <ele>136.25</ele>
        <time>2023-06-08T00:33:09.592Z</time>
      </trkpt>
      <trkpt lat="46.67637" lon="0.66648">
        <ele>136.4</ele>
        <time>2023-06-08T00:33:18.231Z</time>
      </trkpt>
      <trkpt lat="46.67643" lon="0.66665">
        <ele>136.52</ele>
        <time>2023-06-08T00:33:26.872Z</time>
      </trkpt>
      <trkpt lat="46.67648" lon="0.66683">
        <ele>136.6</ele>
        <time>2023-06-08T00:33:35.515Z</time>
      </trkpt>
      <trkpt lat="46.67652" lon="0.66695">
        <ele>136.63</ele>
        <time>2023-06-08T00:33:44.159Z</time>
      </trkpt>
      <trkpt lat="46.67663" lon="0.6673">
        <ele>136.66</ele>
        <time>2023-06-08T00:33:52.808Z</time>
      </trkpt>
      <trkpt lat="46.67668" lon="0.66745">
        <ele>136.69</ele>
        <time>2023-06-08T00:34:01.458Z</time>
      </trkpt>
      <trkpt lat="46.67674" lon="0.66759">
        <ele>136.74</ele>
        <time>2023-06-08T00:34:10.110Z</time>
      </trkpt>
      <trkpt lat="46.6768" lon="0.66775">
        <ele>136.72</ele>
        <time>2023-06-08T00:34:18.764Z</time>
      </trkpt>
      <trkpt lat="46.67686" lon="0.66786">
        <ele>136.71</ele>
        <time>2023-06-08T00:34:27.420Z</time>
      </trkpt>
      <trkpt lat="46.67698" lon="0.66806">
        <ele>136.71</ele>
        <time>2023-06-08T00:34:36.079Z</time>
      </trkpt>
      <trkpt lat="46.67701" lon="0.6681">
        <ele>136.71</ele>
        <time>2023-06-08T00:34:44.738Z</time>
      </trkpt>
      <trkpt lat="46.67708" lon="0.66819">
        <ele>136.73</ele>
        <time>2023-06-08T00:34:53.399Z</time>
      </trkpt>
      <trkpt lat="46.67725" lon="0.6684">
        <ele>136.82</ele>
        <time>2023-06-08T00:35:02.063Z</time>
      </trkpt>
      <trkpt lat="46.67749" lon="0.6687">
        <ele>136.82</ele>
        <time>2023-06-08T00:35:10.732Z</time>
      </trkpt>
      <trkpt lat="46.67769" lon="0.66895">
        <ele>136.94</ele>
        <time>2023-06-08T00:35:19.406Z</time>
      </trkpt>
      <trkpt lat="46.67776" lon="0.66904">
        <ele>136.96</ele>
        <time>2023-06-08T00:35:28.081Z</time>
      </trkpt>
      <trkpt lat="46.67779" lon="0.66908">
        <ele>136.98</ele>
        <time>2023-06-08T00:35:36.757Z</time>
      </trkpt>
      <trkpt lat="46.67791" lon="0.66925">
        <ele>136.97</ele>
        <time>2023-06-08T00:35:45.436Z</time>
      </trkpt>
      <trkpt lat="46.678" lon="0.66942">
        <ele>136.97</ele>
        <time>2023-06-08T00:35:54.117Z</time>
      </trkpt>
      <trkpt lat="46.67805" lon="0.6695">
        <ele>136.97</ele>
        <time>2023-06-08T00:36:02.799Z</time>
      </trkpt>
      <trkpt lat="46.67821" lon="0.66992">
        <ele>136.99</ele>
        <time>2023-06-08T00:36:11.486Z</time>
      </trkpt>
      <trkpt lat="46.6783" lon="0.67014">
        <ele>137.1</ele>
        <time>2023-06-08T00:36:20.176Z</time>
      </trkpt>
      <trkpt lat="46.67853" lon="0.67071">
        <ele>137.46</ele>
        <time>2023-06-08T00:36:28.873Z</time>
      </trkpt>
      <trkpt lat="46.67873" lon="0.67122">
        <ele>137.81</ele>
        <time>2023-06-08T00:36:37.577Z</time>
      </trkpt>
      <trkpt lat="46.67888" lon="0.67162">
        <ele>138.12</ele>
        <time>2023-06-08T00:36:46.286Z</time>
      </trkpt>
      <trkpt lat="46.67895" lon="0.67179">
        <ele>138.22</ele>
        <time>2023-06-08T00:36:54.997Z</time>
      </trkpt>
      <trkpt lat="46.6791" lon="0.67218">
        <ele>138.36</ele>
        <time>2023-06-08T00:37:03.713Z</time>
      </trkpt>
      <trkpt lat="46.67926" lon="0.67258">
        <ele>138.44</ele>
        <time>2023-06-08T00:37:12.434Z</time>
      </trkpt>
      <trkpt lat="46.67948" lon="0.67315">
        <ele>138.62</ele>
        <time>2023-06-08T00:37:21.162Z</time>
      </trkpt>
      <trkpt lat="46.67961" lon="0.67347">
        <ele>138.67</ele>
        <time>2023-06-08T00:37:29.894Z</time>
      </trkpt>
      <trkpt lat="46.67967" lon="0.67359">
        <ele>138.7</ele>
        <time>2023-06-08T00:37:38.628Z</time>
      </trkpt>
      <trkpt lat="46.67973" lon="0.67369">
        <ele>138.76</ele>
        <time>2023-06-08T00:37:47.363Z</time>
      </trkpt>
      <trkpt lat="46.67981" lon="0.67385">
        <ele>138.9</ele>
        <time>2023-06-08T00:37:56.101Z</time>
      </trkpt>
      <trkpt lat="46.67986" lon="0.67395">
        <ele>138.88</ele>
        <time>2023-06-08T00:38:04.840Z</time>
      </trkpt>
      <trkpt lat="46.67989" lon="0.674">
        <ele>138.87</ele>
        <time>2023-06-08T00:38:13.580Z</time>
      </trkpt>
      <trkpt lat="46.68005" lon="0.67423">
        <ele>138.79</ele>
        <time>2023-06-08T00:38:22.323Z</time>
      </trkpt>
      <trkpt lat="46.68024" lon="0.67451">
        <ele>138.77</ele>
        <time>2023-06-08T00:38:31.071Z</time>
      </trkpt>
      <trkpt lat="46.68036" lon="0.6747">
        <ele>138.67</ele>
        <time>2023-06-08T00:38:39.822Z</time>
      </trkpt>
      <trkpt lat="46.68055" lon="0.67498">
        <ele>138.56</ele>
        <time>2023-06-08T00:38:48.577Z</time>
      </trkpt>
      <trkpt lat="46.68071" lon="0.67521">
        <ele>138.4</ele>
        <time>2023-06-08T00:38:57.336Z</time>
      </trkpt>
      <trkpt lat="46.68096" lon="0.67558">
        <ele>138.21</ele>
        <time>2023-06-08T00:39:06.100Z</time>
      </trkpt>
      <trkpt lat="46.68112" lon="0.67582">
        <ele>137.98</ele>
        <time>2023-06-08T00:39:14.868Z</time>
      </trkpt>
      <trkpt lat="46.6814" lon="0.67624">
        <ele>137.68</ele>
        <time>2023-06-08T00:39:23.642Z</time>
      </trkpt>
      <trkpt lat="46.68166" lon="0.67661">
        <ele>137.39</ele>
        <time>2023-06-08T00:39:32.422Z</time>
      </trkpt>
      <trkpt lat="46.68191" lon="0.67698">
        <ele>137.02</ele>
        <time>2023-06-08T00:39:41.208Z</time>
      </trkpt>
      <trkpt lat="46.68197" lon="0.67708">
        <ele>136.94</ele>
        <time>2023-06-08T00:39:49.995Z</time>
      </trkpt>
      <trkpt lat="46.68229" lon="0.67754">
        <ele>136.67</ele>
        <time>2023-06-08T00:39:58.790Z</time>
      </trkpt>
      <trkpt lat="46.68257" lon="0.67796">
        <ele>136.58</ele>
        <time>2023-06-08T00:40:07.591Z</time>
      </trkpt>
      <trkpt lat="46.68266" lon="0.6781">
        <ele>136.6</ele>
        <time>2023-06-08T00:40:16.394Z</time>
      </trkpt>
      <trkpt lat="46.68282" lon="0.67834">
        <ele>136.68</ele>
        <time>2023-06-08T00:40:25.201Z</time>
      </trkpt>
      <trkpt lat="46.68314" lon="0.6788">
        <ele>137.01</ele>
        <time>2023-06-08T00:40:34.015Z</time>
      </trkpt>
      <trkpt lat="46.68329" lon="0.67904">
        <ele>137.26</ele>
        <time>2023-06-08T00:40:42.833Z</time>
      </trkpt>
      <trkpt lat="46.68336" lon="0.67913">
        <ele>137.34</ele>
        <time>2023-06-08T00:40:51.652Z</time>
      </trkpt>
      <trkpt lat="46.68352" lon="0.67937">
        <ele>137.44</ele>
        <time>2023-06-08T00:41:00.475Z</time>
      </trkpt>
      <trkpt lat="46.6837" lon="0.67965">
        <ele>137.57</ele>
        <time>2023-06-08T00:41:09.302Z</time>
      </trkpt>
      <trkpt lat="46.68383" lon="0.67985">
        <ele>137.63</ele>
        <time>2023-06-08T00:41:18.132Z</time>
      </trkpt>
      <trkpt lat="46.68385" lon="0.67989">
        <ele>137.65</ele>
        <time>2023-06-08T00:41:26.963Z</time>
      </trkpt>
      <trkpt lat="46.68402" lon="0.68019">
        <ele>137.83</ele>
        <time>2023-06-08T00:41:35.798Z</time>
      </trkpt>
      <trkpt lat="46.68408" lon="0.6803">
        <ele>137.87</ele>
        <time>2023-06-08T00:41:44.634Z</time>
      </trkpt>
      <trkpt lat="46.68443" lon="0.68093">
        <ele>138.07</ele>
        <time>2023-06-08T00:41:53.479Z</time>
      </trkpt>
      <trkpt lat="46.68444" lon="0.68096">
        <ele>138.08</ele>
        <time>2023-06-08T00:42:02.325Z</time>
      </trkpt>
      <trkpt lat="46.6846" lon="0.68128">
        <ele>138.09</ele>
        <time>2023-06-08T00:42:11.175Z</time>
      </trkpt>
      <trkpt lat="46.68478" lon="0.68166">
        <ele>138.14</ele>
        <time>2023-06-08T00:42:20.030Z</time>
      </trkpt>
      <trkpt lat="46.68496" lon="0.68203">
        <ele>138.1</ele>
        <time>2023-06-08T00:42:28.890Z</time>
      </trkpt>
      <trkpt lat="46.68501" lon="0.68214">
        <ele>138.12</ele>
        <time>2023-06-08T00:42:37.752Z</time>
      </trkpt>
      <trkpt lat="46.68512" lon="0.68235">
        <ele>138.2</ele>
        <time>2023-06-08T00:42:46.616Z</time>
      </trkpt>
      <trkpt lat="46.68527" lon="0.68268">
        <ele>138.21</ele>
        <time>2023-06-08T00:42:55.485Z</time>
      </trkpt>
      <trkpt lat="46.68542" lon="0.68299">
        <ele>138.09</ele>
        <time>2023-06-08T00:43:04.358Z</time>
      </trkpt>
      <trkpt lat="46.68547" lon="0.68309">
        <ele>137.98</ele>
        <time>2023-06-08T00:43:13.232Z</time>
      </trkpt>
      <trkpt lat="46.68553" lon="0.6828">
        <ele>137.74</ele>
        <time>2023-06-08T00:43:22.110Z</time>
      </trkpt>
      <trkpt lat="46.68556" lon="0.68268">
        <ele>137.49</ele>
        <time>2023-06-08T00:43:30.989Z</time>
      </trkpt>
      <trkpt lat="46.68556" lon="0.68267">
        <ele>137.49</ele>
        <time>2023-06-08T00:43:39.868Z</time>
      </trkpt>
      <trkpt lat="46.68557" lon="0.68254">
        <ele>137.28</ele>
        <time>2023-06-08T00:43:48.749Z</time>
      </trkpt>
      <trkpt lat="46.6856" lon="0.68222">
        <ele>136.92</ele>
        <time>2023-06-08T00:43:57.633Z</time>
      </trkpt>
      <trkpt lat="46.68562" lon="0.68189">
        <ele>136.52</ele>
        <time>2023-06-08T00:44:06.521Z</time>
      </trkpt>
      <trkpt lat="46.68563" lon="0.68178">
        <ele>136.43</ele>
        <time>2023-06-08T00:44:15.410Z</time>
      </trkpt>
      <trkpt lat="46.68564" lon="0.6817">
        <ele>136.37</ele>
        <time>2023-06-08T00:44:24.300Z</time>
      </trkpt>
      <trkpt lat="46.68566" lon="0.68159">
        <ele>136.3</ele>
        <time>2023-06-08T00:44:33.191Z</time>
      </trkpt>
      <trkpt lat="46.68571" lon="0.68142">
        <ele>136.2</ele>
        <time>2023-06-08T00:44:42.084Z</time>
      </trkpt>
      <trkpt lat="46.68577" lon="0.68129">
        <ele>136.12</ele>
        <time>2023-06-08T00:44:50.979Z</time>
      </trkpt>
      <trkpt lat="46.68582" lon="0.68118">
        <ele>136.06</ele>
        <time>2023-06-08T00:44:59.875Z</time>
      </trkpt>
      <trkpt lat="46.68587" lon="0.68107">
        <ele>136.05</ele>
        <time>2023-06-08T00:45:08.773Z</time>
      </trkpt>
      <trkpt lat="46.68594" lon="0.6809">
        <ele>136.06</ele>
        <time>2023-06-08T00:45:17.673Z</time>
      </trkpt>
      <trkpt lat="46.68608" lon="0.68057">
        <ele>136.14</ele>
        <time>2023-06-08T00:45:26.577Z</time>
      </trkpt>
      <trkpt lat="46.68616" lon="0.68041">
        <ele>136.16</ele>
        <time>2023-06-08T00:45:35.483Z</time>
      </trkpt>
      <trkpt lat="46.6863" lon="0.68008">
        <ele>136.08</ele>
        <time>2023-06-08T00:45:44.394Z</time>
      </trkpt>
      <trkpt lat="46.68635" lon="0.67997">
        <ele>136.07</ele>
        <time>2023-06-08T00:45:53.306Z</time>
      </trkpt>
      <trkpt lat="46.68642" lon="0.6798">
        <ele>136.12</ele>
        <time>2023-06-08T00:46:02.220Z</time>
      </trkpt>
      <trkpt lat="46.68652" lon="0.67958">
        <ele>136.23</ele>
        <time>2023-06-08T00:46:11.137Z</time>
      </trkpt>
      <trkpt lat="46.68657" lon="0.67947">
        <ele>136.31</ele>
        <time>2023-06-08T00:46:20.056Z</time>
      </trkpt>
      <trkpt lat="46.68662" lon="0.67936">
        <ele>136.42</ele>
        <time>2023-06-08T00:46:28.976Z</time>
      </trkpt>
      <trkpt lat="46.68669" lon="0.6792">
        <ele>136.67</ele>
        <time>2023-06-08T00:46:37.898Z</time>
      </trkpt>
      <trkpt lat="46.68693" lon="0.67865">
        <ele>137.6</ele>
        <time>2023-06-08T00:46:46.827Z</time>
      </trkpt>
      <trkpt lat="46.68698" lon="0.67854">
        <ele>137.76</ele>
        <time>2023-06-08T00:46:55.758Z</time>
      </trkpt>
      <trkpt lat="46.68703" lon="0.67843">
        <ele>137.88</ele>
        <time>2023-06-08T00:47:04.690Z</time>
      </trkpt>
      <trkpt lat="46.6871" lon="0.67826">
        <ele>138.02</ele>
        <time>2023-06-08T00:47:13.625Z</time>
      </trkpt>
      <trkpt lat="46.68715" lon="0.67815">
        <ele>138.08</ele>
        <time>2023-06-08T00:47:22.561Z</time>
      </trkpt>
      <trkpt lat="46.6872" lon="0.67804">
        <ele>138.09</ele>
        <time>2023-06-08T00:47:31.498Z</time>
      </trkpt>
      <trkpt lat="46.68725" lon="0.67793">
        <ele>138.06</ele>
        <time>2023-06-08T00:47:40.437Z</time>
      </trkpt>
      <trkpt lat="46.68735" lon="0.67771">
        <ele>137.95</ele>
        <time>2023-06-08T00:47:49.379Z</time>
      </trkpt>
      <trkpt lat="46.6874" lon="0.6776">
        <ele>137.87</ele>
        <time>2023-06-08T00:47:58.322Z</time>
      </trkpt>
      <trkpt lat="46.68744" lon="0.67749">
        <ele>137.76</ele>
        <time>2023-06-08T00:48:07.267Z</time>
      </trkpt>
      <trkpt lat="46.68754" lon="0.67727">
        <ele>137.5</ele>
        <time>2023-06-08T00:48:16.214Z</time>
      </trkpt>
      <trkpt lat="46.68761" lon="0.67711">
        <ele>137.33</ele>
        <time>2023-06-08T00:48:25.164Z</time>
      </trkpt>
      <trkpt lat="46.68771" lon="0.67689">
        <ele>137.14</ele>
        <time>2023-06-08T00:48:34.117Z</time>
      </trkpt>
      <trkpt lat="46.68783" lon="0.67661">
        <ele>136.83</ele>
        <time>2023-06-08T00:48:43.073Z</time>
      </trkpt>
      <trkpt lat="46.68805" lon="0.67612">
        <ele>136.15</ele>
        <time>2023-06-08T00:48:52.036Z</time>
      </trkpt>
      <trkpt lat="46.6882" lon="0.67579">
        <ele>135.75</ele>
        <time>2023-06-08T00:49:01.003Z</time>
      </trkpt>
      <trkpt lat="46.68858" lon="0.67491">
        <ele>134.57</ele>
        <time>2023-06-08T00:49:09.981Z</time>
      </trkpt>
      <trkpt lat="46.68866" lon="0.67474">
        <ele>134.3</ele>
        <time>2023-06-08T00:49:18.962Z</time>
      </trkpt>
      <trkpt lat="46.68871" lon="0.67463">
        <ele>134.05</ele>
        <time>2023-06-08T00:49:27.944Z</time>
      </trkpt>
      <trkpt lat="46.6888" lon="0.67442">
        <ele>133.61</ele>
        <time>2023-06-08T00:49:36.929Z</time>
      </trkpt>
      <trkpt lat="46.68914" lon="0.67365">
        <ele>131.87</ele>
        <time>2023-06-08T00:49:45.924Z</time>
      </trkpt>
      <trkpt lat="46.68921" lon="0.67348">
        <ele>131.56</ele>
        <time>2023-06-08T00:49:54.921Z</time>
      </trkpt>
      <trkpt lat="46.68926" lon="0.67338">
        <ele>131.38</ele>
        <time>2023-06-08T00:50:03.919Z</time>
      </trkpt>
      <trkpt lat="46.6894" lon="0.67311">
        <ele>130.9</ele>
        <time>2023-06-08T00:50:12.921Z</time>
      </trkpt>
      <trkpt lat="46.68953" lon="0.67285">
        <ele>130.36</ele>
        <time>2023-06-08T00:50:21.927Z</time>
      </trkpt>
      <trkpt lat="46.68954" lon="0.67283">
        <ele>130.32</ele>
        <time>2023-06-08T00:50:30.933Z</time>
      </trkpt>
      <trkpt lat="46.68959" lon="0.67275">
        <ele>130.18</ele>
        <time>2023-06-08T00:50:39.940Z</time>
      </trkpt>
      <trkpt lat="46.68972" lon="0.67254">
        <ele>129.89</ele>
        <time>2023-06-08T00:50:48.950Z</time>
      </trkpt>
      <trkpt lat="46.6899" lon="0.67229">
        <ele>129.53</ele>
        <time>2023-06-08T00:50:57.964Z</time>
      </trkpt>
      <trkpt lat="46.68996" lon="0.67219">
        <ele>129.43</ele>
        <time>2023-06-08T00:51:06.980Z</time>
      </trkpt>
      <trkpt lat="46.69" lon="0.67215">
        <ele>129.4</ele>
        <time>2023-06-08T00:51:15.996Z</time>
      </trkpt>
      <trkpt lat="46.69009" lon="0.67201">
        <ele>129.37</ele>
        <time>2023-06-08T00:51:25.015Z</time>
      </trkpt>
      <trkpt lat="46.69019" lon="0.67188">
        <ele>129.39</ele>
        <time>2023-06-08T00:51:34.036Z</time>
      </trkpt>
      <trkpt lat="46.69028" lon="0.67174">
        <ele>129.49</ele>
        <time>2023-06-08T00:51:43.059Z</time>
      </trkpt>
      <trkpt lat="46.69035" lon="0.67165">
        <ele>129.62</ele>
        <time>2023-06-08T00:51:52.083Z</time>
      </trkpt>
      <trkpt lat="46.69041" lon="0.67156">
        <ele>129.5</ele>
        <time>2023-06-08T00:52:01.109Z</time>
      </trkpt>
      <trkpt lat="46.6905" lon="0.67171">
        <ele>129.33</ele>
        <time>2023-06-08T00:52:10.137Z</time>
      </trkpt>
      <trkpt lat="46.69055" lon="0.67181">
        <ele>129.24</ele>
        <time>2023-06-08T00:52:19.166Z</time>
      </trkpt>
      <trkpt lat="46.69069" lon="0.67206">
        <ele>129.12</ele>
        <time>2023-06-08T00:52:28.199Z</time>
      </trkpt>
      <trkpt lat="46.69096" lon="0.67231">
        <ele>128.95</ele>
        <time>2023-06-08T00:52:37.237Z</time>
      </trkpt>
      <trkpt lat="46.69109" lon="0.67244">
        <ele>128.89</ele>
        <time>2023-06-08T00:52:46.277Z</time>
      </trkpt>
      <trkpt lat="46.69115" lon="0.67247">
        <ele>128.87</ele>
        <time>2023-06-08T00:52:55.319Z</time>
      </trkpt>
      <trkpt lat="46.69136" lon="0.67259">
        <ele>128.76</ele>
        <time>2023-06-08T00:53:04.364Z</time>
      </trkpt>
      <trkpt lat="46.69157" lon="0.6727">
        <ele>128.59</ele>
        <time>2023-06-08T00:53:13.413Z</time>
      </trkpt>
      <trkpt lat="46.69182" lon="0.67284">
        <ele>128.42</ele>
        <time>2023-06-08T00:53:22.466Z</time>
      </trkpt>
      <trkpt lat="46.69203" lon="0.67295">
        <ele>128.15</ele>
        <time>2023-06-08T00:53:31.523Z</time>
      </trkpt>
      <trkpt lat="46.69216" lon="0.67302">
        <ele>128.05</ele>
        <time>2023-06-08T00:53:40.582Z</time>
      </trkpt>
      <trkpt lat="46.69237" lon="0.67314">
        <ele>127.85</ele>
        <time>2023-06-08T00:53:49.644Z</time>
      </trkpt>
      <trkpt lat="46.6925" lon="0.67321">
        <ele>127.77</ele>
        <time>2023-06-08T00:53:58.709Z</time>
      </trkpt>
      <trkpt lat="46.69256" lon="0.67324">
        <ele>127.75</ele>
        <time>2023-06-08T00:54:07.775Z</time>
      </trkpt>
      <trkpt lat="46.69273" lon="0.67367">
        <ele>127.66</ele>
        <time>2023-06-08T00:54:16.846Z</time>
      </trkpt>
      <trkpt lat="46.69273" lon="0.67367">
        <ele>127.66</ele>
        <time>2023-06-08T00:54:25.917Z</time>
      </trkpt>
      <trkpt lat="46.69301" lon="0.67386">
        <ele>127.68</ele>
        <time>2023-06-08T00:54:34.993Z</time>
      </trkpt>
      <trkpt lat="46.69321" lon="0.67401">
        <ele>127.57</ele>
        <time>2023-06-08T00:54:44.073Z</time>
      </trkpt>
      <trkpt lat="46.69333" lon="0.67409">
        <ele>127.55</ele>
        <time>2023-06-08T00:54:53.155Z</time>
      </trkpt>
      <trkpt lat="46.69341" lon="0.67414">
        <ele>127.54</ele>
        <time>2023-06-08T00:55:02.238Z</time>
      </trkpt>
      <trkpt lat="46.69354" lon="0.67423">
        <ele>127.57</ele>
        <time>2023-06-08T00:55:11.323Z</time>
      </trkpt>
      <trkpt lat="46.69366" lon="0.67431">
        <ele>127.62</ele>
        <time>2023-06-08T00:55:20.410Z</time>
      </trkpt>
      <trkpt lat="46.69374" lon="0.67436">
        <ele>127.69</ele>
        <time>2023-06-08T00:55:29.499Z</time>
      </trkpt>
      <trkpt lat="46.69386" lon="0.67444">
        <ele>127.83</ele>
        <time>2023-06-08T00:55:38.590Z</time>
      </trkpt>
      <trkpt lat="46.69394" lon="0.67449">
        <ele>127.86</ele>
        <time>2023-06-08T00:55:47.683Z</time>
      </trkpt>
      <trkpt lat="46.69399" lon="0.67452">
        <ele>127.84</ele>
        <time>2023-06-08T00:55:56.776Z</time>
      </trkpt>
      <trkpt lat="46.69403" lon="0.67455">
        <ele>127.79</ele>
        <time>2023-06-08T00:56:05.870Z</time>
      </trkpt>
      <trkpt lat="46.69435" lon="0.67476">
        <ele>127.21</ele>
        <time>2023-06-08T00:56:14.970Z</time>
      </trkpt>
      <trkpt lat="46.69444" lon="0.67481">
        <ele>127.11</ele>
        <time>2023-06-08T00:56:24.071Z</time>
      </trkpt>
      <trkpt lat="46.69452" lon="0.67487">
        <ele>127.07</ele>
        <time>2023-06-08T00:56:33.174Z</time>
      </trkpt>
      <trkpt lat="46.69452" lon="0.67487">
        <ele>127.07</ele>
        <time>2023-06-08T00:56:42.277Z</time>
      </trkpt>
      <trkpt lat="46.69456" lon="0.67488">
        <ele>127.09</ele>
        <time>2023-06-08T00:56:51.380Z</time>
      </trkpt>
      <trkpt lat="46.69469" lon="0.67493">
        <ele>127.19</ele>
        <time>2023-06-08T00:57:00.485Z</time>
      </trkpt>
      <trkpt lat="46.69469" lon="0.67493">
        <ele>127.19</ele>
        <time>2023-06-08T00:57:09.590Z</time>
      </trkpt>
      <trkpt lat="46.69473" lon="0.67512">
        <ele>127.26</ele>
        <time>2023-06-08T00:57:18.698Z</time>
      </trkpt>
      <trkpt lat="46.69475" lon="0.67522">
        <ele>127.31</ele>
        <time>2023-06-08T00:57:27.807Z</time>
      </trkpt>
      <trkpt lat="46.69483" lon="0.67532">
        <ele>127.39</ele>
        <time>2023-06-08T00:57:36.917Z</time>
      </trkpt>
      <trkpt lat="46.69494" lon="0.67545">
        <ele>127.44</ele>
        <time>2023-06-08T00:57:46.030Z</time>
      </trkpt>
      <trkpt lat="46.69494" lon="0.67545">
        <ele>127.44</ele>
        <time>2023-06-08T00:57:55.143Z</time>
      </trkpt>
      <trkpt lat="46.69501" lon="0.67551">
        <ele>127.43</ele>
        <time>2023-06-08T00:58:04.257Z</time>
      </trkpt>
      <trkpt lat="46.69505" lon="0.67554">
        <ele>127.39</ele>
        <time>2023-06-08T00:58:13.372Z</time>
      </trkpt>
      <trkpt lat="46.69513" lon="0.6756">
        <ele>127.26</ele>
        <time>2023-06-08T00:58:22.488Z</time>
      </trkpt>
      <trkpt lat="46.69529" lon="0.67573">
        <ele>126.86</ele>
        <time>2023-06-08T00:58:31.607Z</time>
      </trkpt>
      <trkpt lat="46.69541" lon="0.67582">
        <ele>126.63</ele>
        <time>2023-06-08T00:58:40.728Z</time>
      </trkpt>
      <trkpt lat="46.69569" lon="0.67604">
        <ele>126.26</ele>
        <time>2023-06-08T00:58:49.854Z</time>
      </trkpt>
      <trkpt lat="46.6958" lon="0.67614">
        <ele>126.12</ele>
        <time>2023-06-08T00:58:58.982Z</time>
      </trkpt>
      <trkpt lat="46.69587" lon="0.67622">
        <ele>126.04</ele>
        <time>2023-06-08T00:59:08.112Z</time>
      </trkpt>
      <trkpt lat="46.69606" lon="0.6764">
        <ele>125.92</ele>
        <time>2023-06-08T00:59:17.245Z</time>
      </trkpt>
      <trkpt lat="46.69634" lon="0.67668">
        <ele>125.67</ele>
        <time>2023-06-08T00:59:26.384Z</time>
      </trkpt>
      <trkpt lat="46.69649" lon="0.67686">
        <ele>125.53</ele>
        <time>2023-06-08T00:59:35.526Z</time>
      </trkpt>
      <trkpt lat="46.69656" lon="0.67694">
        <ele>125.5</ele>
        <time>2023-06-08T00:59:44.670Z</time>
      </trkpt>
      <trkpt lat="46.69666" lon="0.67707">
        <ele>125.5</ele>
        <time>2023-06-08T00:59:53.816Z</time>
      </trkpt>
      <trkpt lat="46.69673" lon="0.67715">
        <ele>125.47</ele>
        <time>2023-06-08T01:00:02.963Z</time>
      </trkpt>
      <trkpt lat="46.69687" lon="0.67732">
        <ele>125.35</ele>
        <time>2023-06-08T01:00:12.113Z</time>
      </trkpt>
      <trkpt lat="46.69698" lon="0.67744">
        <ele>125.23</ele>
        <time>2023-06-08T01:00:21.265Z</time>
      </trkpt>
      <trkpt lat="46.69705" lon="0.67753">
        <ele>125.18</ele>
        <time>2023-06-08T01:00:30.419Z</time>
      </trkpt>
      <trkpt lat="46.6972" lon="0.67771">
        <ele>125.18</ele>
        <time>2023-06-08T01:00:39.576Z</time>
      </trkpt>
      <trkpt lat="46.69726" lon="0.67776">
        <ele>125.18</ele>
        <time>2023-06-08T01:00:48.734Z</time>
      </trkpt>
      <trkpt lat="46.6975" lon="0.67793">
        <ele>125.15</ele>
        <time>2023-06-08T01:00:57.896Z</time>
      </trkpt>
      <trkpt lat="46.69778" lon="0.67814">
        <ele>125.29</ele>
        <time>2023-06-08T01:01:07.063Z</time>
      </trkpt>
      <trkpt lat="46.6979" lon="0.67823">
        <ele>125.44</ele>
        <time>2023-06-08T01:01:16.232Z</time>
      </trkpt>
      <trkpt lat="46.69798" lon="0.67829">
        <ele>125.59</ele>
        <time>2023-06-08T01:01:25.403Z</time>
      </trkpt>
      <trkpt lat="46.69818" lon="0.67843">
        <ele>126.01</ele>
        <time>2023-06-08T01:01:34.577Z</time>
      </trkpt>
      <trkpt lat="46.69826" lon="0.67849">
        <ele>126.21</ele>
        <time>2023-06-08T01:01:43.753Z</time>
      </trkpt>
      <trkpt lat="46.6983" lon="0.67852">
        <ele>126.34</ele>
        <time>2023-06-08T01:01:52.929Z</time>
      </trkpt>
      <trkpt lat="46.69835" lon="0.67856">
        <ele>126.55</ele>
        <time>2023-06-08T01:02:02.106Z</time>
      </trkpt>
      <trkpt lat="46.69837" lon="0.67859">
        <ele>126.66</ele>
        <time>2023-06-08T01:02:11.284Z</time>
      </trkpt>
      <trkpt lat="46.6985" lon="0.67883">
        <ele>127.56</ele>
        <time>2023-06-08T01:02:20.465Z</time>
      </trkpt>
      <trkpt lat="46.69852" lon="0.67891">
        <ele>127.81</ele>
        <time>2023-06-08T01:02:29.647Z</time>
      </trkpt>
      <trkpt lat="46.69862" lon="0.6792">
        <ele>128.86</ele>
        <time>2023-06-08T01:02:38.833Z</time>
      </trkpt>
      <trkpt lat="46.69864" lon="0.67926">
        <ele>129.03</ele>
        <time>2023-06-08T01:02:48.019Z</time>
      </trkpt>
      <trkpt lat="46.69865" lon="0.67932">
        <ele>129.17</ele>
        <time>2023-06-08T01:02:57.206Z</time>
      </trkpt>
      <trkpt lat="46.69869" lon="0.67943">
        <ele>129.36</ele>
        <time>2023-06-08T01:03:06.395Z</time>
      </trkpt>
      <trkpt lat="46.69869" lon="0.67943">
        <ele>129.36</ele>
        <time>2023-06-08T01:03:15.584Z</time>
      </trkpt>
      <trkpt lat="46.69876" lon="0.67952">
        <ele>129.48</ele>
        <time>2023-06-08T01:03:24.774Z</time>
      </trkpt>
      <trkpt lat="46.69885" lon="0.67965">
        <ele>129.61</ele>
        <time>2023-06-08T01:03:33.966Z</time>
      </trkpt>
      <trkpt lat="46.69886" lon="0.67965">
        <ele>129.61</ele>
        <time>2023-06-08T01:03:43.158Z</time>
      </trkpt>
      <trkpt lat="46.69917" lon="0.6799">
        <ele>129.81</ele>
        <time>2023-06-08T01:03:52.356Z</time>
      </trkpt>
      <trkpt lat="46.6994" lon="0.68009">
        <ele>130.01</ele>
        <time>2023-06-08T01:04:01.558Z</time>
      </trkpt>
      <trkpt lat="46.69968" lon="0.68031">
        <ele>130.22</ele>
        <time>2023-06-08T01:04:10.765Z</time>
      </trkpt>
      <trkpt lat="46.69975" lon="0.68037">
        <ele>130.32</ele>
        <time>2023-06-08T01:04:19.974Z</time>
      </trkpt>
      <trkpt lat="46.69987" lon="0.68046">
        <ele>130.54</ele>
        <time>2023-06-08T01:04:29.185Z</time>
      </trkpt>
      <trkpt lat="46.69988" lon="0.68047">
        <ele>130.55</ele>
        <time>2023-06-08T01:04:38.396Z</time>
      </trkpt>
      <trkpt lat="46.69996" lon="0.68048">
        <ele>130.66</ele>
        <time>2023-06-08T01:04:47.608Z</time>
      </trkpt>
      <trkpt lat="46.70014" lon="0.6805">
        <ele>130.85</ele>
        <time>2023-06-08T01:04:56.823Z</time>
      </trkpt>
      <trkpt lat="46.70024" lon="0.68051">
        <ele>130.92</ele>
        <time>2023-06-08T01:05:06.040Z</time>
      </trkpt>
      <trkpt lat="46.70027" lon="0.6805">
        <ele>130.95</ele>
        <time>2023-06-08T01:05:15.257Z</time>
      </trkpt>
      <trkpt lat="46.70035" lon="0.68046">
        <ele>130.9</ele>
        <time>2023-06-08T01:05:24.475Z</time>
      </trkpt>
      <trkpt lat="46.70028" lon="0.68063">
        <ele>130.83</ele>
        <time>2023-06-08T01:05:33.696Z</time>
      </trkpt>
      <trkpt lat="46.70025" lon="0.68071">
        <ele>130.81</ele>
        <time>2023-06-08T01:05:42.918Z</time>
      </trkpt>
      <trkpt lat="46.70026" lon="0.68088">
        <ele>130.79</ele>
        <time>2023-06-08T01:05:52.142Z</time>
      </trkpt>
      <trkpt lat="46.70026" lon="0.68101">
        <ele>130.72</ele>
        <time>2023-06-08T01:06:01.367Z</time>
      </trkpt>
      <trkpt lat="46.70027" lon="0.68119">
        <ele>130.57</ele>
        <time>2023-06-08T01:06:10.594Z</time>
      </trkpt>
      <trkpt lat="46.70027" lon="0.6812">
        <ele>130.56</ele>
        <time>2023-06-08T01:06:19.821Z</time>
      </trkpt>
      <trkpt lat="46.70025" lon="0.68133">
        <ele>130.51</ele>
        <time>2023-06-08T01:06:29.050Z</time>
      </trkpt>
      <trkpt lat="46.70021" lon="0.68158">
        <ele>130.51</ele>
        <time>2023-06-08T01:06:38.281Z</time>
      </trkpt>
      <trkpt lat="46.70014" lon="0.68209">
        <ele>130.4</ele>
        <time>2023-06-08T01:06:47.518Z</time>
      </trkpt>
      <trkpt lat="46.70008" lon="0.68248">
        <ele>130.43</ele>
        <time>2023-06-08T01:06:56.759Z</time>
      </trkpt>
      <trkpt lat="46.70006" lon="0.6826">
        <ele>130.4</ele>
        <time>2023-06-08T01:07:06.002Z</time>
      </trkpt>
      <trkpt lat="46.70005" lon="0.68273">
        <ele>130.34</ele>
        <time>2023-06-08T01:07:15.246Z</time>
      </trkpt>
      <trkpt lat="46.70001" lon="0.68298">
        <ele>130.13</ele>
        <time>2023-06-08T01:07:24.493Z</time>
      </trkpt>
      <trkpt lat="46.70001" lon="0.68311">
        <ele>130.03</ele>
        <time>2023-06-08T01:07:33.742Z</time>
      </trkpt>
      <trkpt lat="46.70002" lon="0.68337">
        <ele>129.88</ele>
        <time>2023-06-08T01:07:42.993Z</time>
      </trkpt>
      <trkpt lat="46.70002" lon="0.6835">
        <ele>129.82</ele>
        <time>2023-06-08T01:07:52.246Z</time>
      </trkpt>
      <trkpt lat="46.70002" lon="0.6837">
        <ele>129.76</ele>
        <time>2023-06-08T01:08:01.501Z</time>
      </trkpt>
      <trkpt lat="46.70002" lon="0.68375">
        <ele>129.73</ele>
        <time>2023-06-08T01:08:10.757Z</time>
      </trkpt>
      <trkpt lat="46.7" lon="0.68389">
        <ele>129.66</ele>
        <time>2023-06-08T01:08:20.014Z</time>
      </trkpt>
      <trkpt lat="46.69999" lon="0.68393">
        <ele>129.55</ele>
        <time>2023-06-08T01:08:29.272Z</time>
      </trkpt>
      <trkpt lat="46.69995" lon="0.68399">
        <ele>129.33</ele>
        <time>2023-06-08T01:08:38.531Z</time>
      </trkpt>
      <trkpt lat="46.70002" lon="0.68423">
        <ele>128.65</ele>
        <time>2023-06-08T01:08:47.792Z</time>
      </trkpt>
      <trkpt lat="46.70002" lon="0.68423">
        <ele>128.65</ele>
        <time>2023-06-08T01:08:57.053Z</time>
      </trkpt>
      <trkpt lat="46.7001" lon="0.6843">
        <ele>128.38</ele>
        <time>2023-06-08T01:09:06.316Z</time>
      </trkpt>
      <trkpt lat="46.70024" lon="0.68444">
        <ele>127.89</ele>
        <time>2023-06-08T01:09:15.582Z</time>
      </trkpt>
      <trkpt lat="46.70036" lon="0.68455">
        <ele>127.54</ele>
        <time>2023-06-08T01:09:24.850Z</time>
      </trkpt>
      <trkpt lat="46.70042" lon="0.68464">
        <ele>127.34</ele>
        <time>2023-06-08T01:09:34.119Z</time>
      </trkpt>
      <trkpt lat="46.70047" lon="0.68473">
        <ele>127.12</ele>
        <time>2023-06-08T01:09:43.390Z</time>
      </trkpt>
      <trkpt lat="46.70049" lon="0.68487">
        <ele>126.86</ele>
        <time>2023-06-08T01:09:52.662Z</time>
      </trkpt>
      <trkpt lat="46.70055" lon="0.68531">
        <ele>126.09</ele>
        <time>2023-06-08T01:10:01.939Z</time>
      </trkpt>
      <trkpt lat="46.70055" lon="0.68534">
        <ele>126.03</ele>
        <time>2023-06-08T01:10:11.216Z</time>
      </trkpt>
      <trkpt lat="46.70062" lon="0.68547">
        <ele>125.71</ele>
        <time>2023-06-08T01:10:20.495Z</time>
      </trkpt>
      <trkpt lat="46.70066" lon="0.68549">
        <ele>125.59</ele>
        <time>2023-06-08T01:10:29.775Z</time>
      </trkpt>
      <trkpt lat="46.7011" lon="0.68567">
        <ele>122.27</ele>
        <time>2023-06-08T01:10:39.062Z</time>
      </trkpt>
      <trkpt lat="46.7016" lon="0.686">
        <ele>118.27</ele>
        <time>2023-06-08T01:10:48.358Z</time>
      </trkpt>
      <trkpt lat="46.70206" lon="0.68685">
        <ele>112.86</ele>
        <time>2023-06-08T01:10:57.666Z</time>
      </trkpt>
      <trkpt lat="46.70305" lon="0.68812">
        <ele>103.26</ele>
        <time>2023-06-08T01:11:06.995Z</time>
      </trkpt>
      <trkpt lat="46.70318" lon="0.68828">
        <ele>103.6</ele>
        <time>2023-06-08T01:11:16.327Z</time>
      </trkpt>
      <trkpt lat="46.7033" lon="0.68831">
        <ele>103.84</ele>
        <time>2023-06-08T01:11:25.661Z</time>
      </trkpt>
      <trkpt lat="46.70399" lon="0.68838">
        <ele>105.23</ele>
        <time>2023-06-08T01:11:35.006Z</time>
      </trkpt>
      <trkpt lat="46.70426" lon="0.6883">
        <ele>105.79</ele>
        <time>2023-06-08T01:11:44.355Z</time>
      </trkpt>
      <trkpt lat="46.70488" lon="0.68785">
        <ele>107.18</ele>
        <time>2023-06-08T01:11:53.715Z</time>
      </trkpt>
      <trkpt lat="46.70511" lon="0.68755">
        <ele>107.81</ele>
        <time>2023-06-08T01:12:03.080Z</time>
      </trkpt>
      <trkpt lat="46.70532" lon="0.68722">
        <ele>108.43</ele>
        <time>2023-06-08T01:12:12.450Z</time>
      </trkpt>
      <trkpt lat="46.70548" lon="0.68702">
        <ele>108.85</ele>
        <time>2023-06-08T01:12:21.824Z</time>
      </trkpt>
      <trkpt lat="46.70561" lon="0.68694">
        <ele>109.14</ele>
        <time>2023-06-08T01:12:31.200Z</time>
      </trkpt>
      <trkpt lat="46.70576" lon="0.6869">
        <ele>109.44</ele>
        <time>2023-06-08T01:12:40.578Z</time>
      </trkpt>
      <trkpt lat="46.70591" lon="0.68697">
        <ele>109.76</ele>
        <time>2023-06-08T01:12:49.959Z</time>
      </trkpt>
      <trkpt lat="46.7062" lon="0.68741">
        <ele>110.6</ele>
        <time>2023-06-08T01:12:59.346Z</time>
      </trkpt>
      <trkpt lat="46.70671" lon="0.68787">
        <ele>111.81</ele>
        <time>2023-06-08T01:13:08.743Z</time>
      </trkpt>
      <trkpt lat="46.70692" lon="0.68816">
        <ele>112.4</ele>
        <time>2023-06-08T01:13:18.145Z</time>
      </trkpt>
      <trkpt lat="46.70701" lon="0.68835">
        <ele>112.71</ele>
        <time>2023-06-08T01:13:27.549Z</time>
      </trkpt>
      <trkpt lat="46.70717" lon="0.68883">
        <ele>113.45</ele>
        <time>2023-06-08T01:13:36.959Z</time>
      </trkpt>
      <trkpt lat="46.70726" lon="0.68894">
        <ele>113.69</ele>
        <time>2023-06-08T01:13:46.371Z</time>
      </trkpt>
      <trkpt lat="46.70733" lon="0.68896">
        <ele>113.83</ele>
        <time>2023-06-08T01:13:55.784Z</time>
      </trkpt>
      <trkpt lat="46.70742" lon="0.68895">
        <ele>114.01</ele>
        <time>2023-06-08T01:14:05.199Z</time>
      </trkpt>
      <trkpt lat="46.70747" lon="0.68893">
        <ele>114.12</ele>
        <time>2023-06-08T01:14:14.614Z</time>
      </trkpt>
      <trkpt lat="46.70758" lon="0.68883">
        <ele>114.38</ele>
        <time>2023-06-08T01:14:24.032Z</time>
      </trkpt>
      <trkpt lat="46.70827" lon="0.68816">
        <ele>116.05</ele>
        <time>2023-06-08T01:14:33.463Z</time>
      </trkpt>
      <trkpt lat="46.70848" lon="0.688">
        <ele>116.53</ele>
        <time>2023-06-08T01:14:42.898Z</time>
      </trkpt>
      <trkpt lat="46.70853" lon="0.68797">
        <ele>116.64</ele>
        <time>2023-06-08T01:14:52.333Z</time>
      </trkpt>
      <trkpt lat="46.70913" lon="0.68784">
        <ele>117.86</ele>
        <time>2023-06-08T01:15:01.778Z</time>
      </trkpt>
      <trkpt lat="46.7093" lon="0.68773">
        <ele>118.23</ele>
        <time>2023-06-08T01:15:11.226Z</time>
      </trkpt>
      <trkpt lat="46.70955" lon="0.68721">
        <ele>119.11</ele>
        <time>2023-06-08T01:15:20.681Z</time>
      </trkpt>
      <trkpt lat="46.70998" lon="0.68649">
        <ele>120.43</ele>
        <time>2023-06-08T01:15:30.147Z</time>
      </trkpt>
      <trkpt lat="46.71007" lon="0.68639">
        <ele>120.66</ele>
        <time>2023-06-08T01:15:39.614Z</time>
      </trkpt>
      <trkpt lat="46.71024" lon="0.68627">
        <ele>121.04</ele>
        <time>2023-06-08T01:15:49.084Z</time>
      </trkpt>
      <trkpt lat="46.71035" lon="0.68623">
        <ele>121.27</ele>
        <time>2023-06-08T01:15:58.556Z</time>
      </trkpt>
      <trkpt lat="46.71039" lon="0.68624">
        <ele>121.35</ele>
        <time>2023-06-08T01:16:08.029Z</time>
      </trkpt>
      <trkpt lat="46.71047" lon="0.68625">
        <ele>121.74</ele>
        <time>2023-06-08T01:16:17.503Z</time>
      </trkpt>
      <trkpt lat="46.71048" lon="0.68626">
        <ele>121.74</ele>
        <time>2023-06-08T01:16:26.977Z</time>
      </trkpt>
      <trkpt lat="46.71052" lon="0.68629">
        <ele>121.89</ele>
        <time>2023-06-08T01:16:36.452Z</time>
      </trkpt>
      <trkpt lat="46.71056" lon="0.68633">
        <ele>122.03</ele>
        <time>2023-06-08T01:16:45.928Z</time>
      </trkpt>
      <trkpt lat="46.71062" lon="0.68641">
        <ele>122.28</ele>
        <time>2023-06-08T01:16:55.405Z</time>
      </trkpt>
      <trkpt lat="46.71069" lon="0.68649">
        <ele>122.61</ele>
        <time>2023-06-08T01:17:04.884Z</time>
      </trkpt>
      <trkpt lat="46.71073" lon="0.68653">
        <ele>122.74</ele>
        <time>2023-06-08T01:17:14.363Z</time>
      </trkpt>
      <trkpt lat="46.71076" lon="0.68658">
        <ele>122.84</ele>
        <time>2023-06-08T01:17:23.843Z</time>
      </trkpt>
      <trkpt lat="46.71083" lon="0.68666">
        <ele>122.98</ele>
        <time>2023-06-08T01:17:33.325Z</time>
      </trkpt>
      <trkpt lat="46.71086" lon="0.6867">
        <ele>123.07</ele>
        <time>2023-06-08T01:17:42.807Z</time>
      </trkpt>
      <trkpt lat="46.71097" lon="0.68683">
        <ele>123.47</ele>
        <time>2023-06-08T01:17:52.291Z</time>
      </trkpt>
      <trkpt lat="46.71099" lon="0.68686">
        <ele>123.52</ele>
        <time>2023-06-08T01:18:01.776Z</time>
      </trkpt>
      <trkpt lat="46.71104" lon="0.6869">
        <ele>123.64</ele>
        <time>2023-06-08T01:18:11.262Z</time>
      </trkpt>
      <trkpt lat="46.71108" lon="0.68692">
        <ele>123.75</ele>
        <time>2023-06-08T01:18:20.749Z</time>
      </trkpt>
      <trkpt lat="46.71112" lon="0.68695">
        <ele>123.88</ele>
        <time>2023-06-08T01:18:30.236Z</time>
      </trkpt>
      <trkpt lat="46.71121" lon="0.68701">
        <ele>124.2</ele>
        <time>2023-06-08T01:18:39.725Z</time>
      </trkpt>
      <trkpt lat="46.71125" lon="0.68703">
        <ele>124.34</ele>
        <time>2023-06-08T01:18:49.214Z</time>
      </trkpt>
      <trkpt lat="46.71129" lon="0.68706">
        <ele>124.45</ele>
        <time>2023-06-08T01:18:58.704Z</time>
      </trkpt>
      <trkpt lat="46.71133" lon="0.68709">
        <ele>124.52</ele>
        <time>2023-06-08T01:19:08.195Z</time>
      </trkpt>
      <trkpt lat="46.71137" lon="0.68712">
        <ele>124.56</ele>
        <time>2023-06-08T01:19:17.687Z</time>
      </trkpt>
      <trkpt lat="46.71161" lon="0.68728">
        <ele>124.74</ele>
        <time>2023-06-08T01:19:27.183Z</time>
      </trkpt>
      <trkpt lat="46.71169" lon="0.68734">
        <ele>124.83</ele>
        <time>2023-06-08T01:19:36.680Z</time>
      </trkpt>
      <trkpt lat="46.71173" lon="0.68737">
        <ele>124.92</ele>
        <time>2023-06-08T01:19:46.178Z</time>
      </trkpt>
      <trkpt lat="46.71177" lon="0.6874">
        <ele>125.05</ele>
        <time>2023-06-08T01:19:55.677Z</time>
      </trkpt>
      <trkpt lat="46.71186" lon="0.68745">
        <ele>125.35</ele>
        <time>2023-06-08T01:20:05.177Z</time>
      </trkpt>
      <trkpt lat="46.7119" lon="0.68748">
        <ele>125.48</ele>
        <time>2023-06-08T01:20:14.678Z</time>
      </trkpt>
      <trkpt lat="46.71202" lon="0.68756">
        <ele>125.79</ele>
        <time>2023-06-08T01:20:24.181Z</time>
      </trkpt>
      <trkpt lat="46.71206" lon="0.68759">
        <ele>125.93</ele>
        <time>2023-06-08T01:20:33.685Z</time>
      </trkpt>
      <trkpt lat="46.71218" lon="0.68767">
        <ele>126.5</ele>
        <time>2023-06-08T01:20:43.191Z</time>
      </trkpt>
      <trkpt lat="46.71222" lon="0.6877">
        <ele>126.65</ele>
        <time>2023-06-08T01:20:52.698Z</time>
      </trkpt>
      <trkpt lat="46.71226" lon="0.68773">
        <ele>126.76</ele>
        <time>2023-06-08T01:21:02.205Z</time>
      </trkpt>
      <trkpt lat="46.71234" lon="0.68778">
        <ele>126.95</ele>
        <time>2023-06-08T01:21:11.714Z</time>
      </trkpt>
      <trkpt lat="46.71238" lon="0.68781">
        <ele>127.07</ele>
        <time>2023-06-08T01:21:21.224Z</time>
      </trkpt>
      <trkpt lat="46.71243" lon="0.68784">
        <ele>127.23</ele>
        <time>2023-06-08T01:21:30.734Z</time>
      </trkpt>
      <trkpt lat="46.71247" lon="0.68787">
        <ele>127.43</ele>
        <time>2023-06-08T01:21:40.245Z</time>
      </trkpt>
      <trkpt lat="46.71255" lon="0.68792">
        <ele>127.88</ele>
        <time>2023-06-08T01:21:49.757Z</time>
      </trkpt>
      <trkpt lat="46.71259" lon="0.68795">
        <ele>128.08</ele>
        <time>2023-06-08T01:21:59.270Z</time>
      </trkpt>
      <trkpt lat="46.71263" lon="0.68798">
        <ele>128.24</ele>
        <time>2023-06-08T01:22:08.784Z</time>
      </trkpt>
      <trkpt lat="46.71275" lon="0.68806">
        <ele>128.58</ele>
        <time>2023-06-08T01:22:18.300Z</time>
      </trkpt>
      <trkpt lat="46.71279" lon="0.68809">
        <ele>128.74</ele>
        <time>2023-06-08T01:22:27.817Z</time>
      </trkpt>
      <trkpt lat="46.71283" lon="0.68812">
        <ele>128.93</ele>
        <time>2023-06-08T01:22:37.334Z</time>
      </trkpt>
      <trkpt lat="46.71291" lon="0.68817">
        <ele>129.37</ele>
        <time>2023-06-08T01:22:46.853Z</time>
      </trkpt>
      <trkpt lat="46.71295" lon="0.6882">
        <ele>129.56</ele>
        <time>2023-06-08T01:22:56.373Z</time>
      </trkpt>
      <trkpt lat="46.713" lon="0.68823">
        <ele>129.69</ele>
        <time>2023-06-08T01:23:05.893Z</time>
      </trkpt>
      <trkpt lat="46.713" lon="0.68823">
        <ele>129.69</ele>
        <time>2023-06-08T01:23:15.413Z</time>
      </trkpt>
      <trkpt lat="46.71303" lon="0.68827">
        <ele>129.77</ele>
        <time>2023-06-08T01:23:24.934Z</time>
      </trkpt>
      <trkpt lat="46.71313" lon="0.68839">
        <ele>129.92</ele>
        <time>2023-06-08T01:23:34.457Z</time>
      </trkpt>
      <trkpt lat="46.71317" lon="0.68843">
        <ele>130.03</ele>
        <time>2023-06-08T01:23:43.981Z</time>
      </trkpt>
      <trkpt lat="46.71327" lon="0.68856">
        <ele>130.54</ele>
        <time>2023-06-08T01:23:53.507Z</time>
      </trkpt>
      <trkpt lat="46.71337" lon="0.68869">
        <ele>130.91</ele>
        <time>2023-06-08T01:24:03.035Z</time>
      </trkpt>
      <trkpt lat="46.71341" lon="0.68873">
        <ele>131.09</ele>
        <time>2023-06-08T01:24:12.564Z</time>
      </trkpt>
      <trkpt lat="46.71351" lon="0.68886">
        <ele>131.77</ele>
        <time>2023-06-08T01:24:22.095Z</time>
      </trkpt>
      <trkpt lat="46.71354" lon="0.6889">
        <ele>131.94</ele>
        <time>2023-06-08T01:24:31.627Z</time>
      </trkpt>
      <trkpt lat="46.71365" lon="0.68902">
        <ele>132.26</ele>
        <time>2023-06-08T01:24:41.161Z</time>
      </trkpt>
      <trkpt lat="46.71368" lon="0.68907">
        <ele>132.41</ele>
        <time>2023-06-08T01:24:50.696Z</time>
      </trkpt>
      <trkpt lat="46.71372" lon="0.68911">
        <ele>132.59</ele>
        <time>2023-06-08T01:25:00.231Z</time>
      </trkpt>
      <trkpt lat="46.71375" lon="0.68915">
        <ele>132.81</ele>
        <time>2023-06-08T01:25:09.767Z</time>
      </trkpt>
      <trkpt lat="46.71375" lon="0.68915">
        <ele>132.81</ele>
        <time>2023-06-08T01:25:19.303Z</time>
      </trkpt>
      <trkpt lat="46.71383" lon="0.68922">
        <ele>133.32</ele>
        <time>2023-06-08T01:25:28.841Z</time>
      </trkpt>
      <trkpt lat="46.71386" lon="0.68926">
        <ele>133.55</ele>
        <time>2023-06-08T01:25:38.379Z</time>
      </trkpt>
      <trkpt lat="46.7139" lon="0.68929">
        <ele>133.72</ele>
        <time>2023-06-08T01:25:47.918Z</time>
      </trkpt>
      <trkpt lat="46.7139" lon="0.68929">
        <ele>133.72</ele>
        <time>2023-06-08T01:25:57.457Z</time>
      </trkpt>
      <trkpt lat="46.71407" lon="0.68937">
        <ele>134.22</ele>
        <time>2023-06-08T01:26:06.999Z</time>
      </trkpt>
      <trkpt lat="46.71416" lon="0.68942">
        <ele>134.43</ele>
        <time>2023-06-08T01:26:16.542Z</time>
      </trkpt>
      <trkpt lat="46.71437" lon="0.68952">
        <ele>134.81</ele>
        <time>2023-06-08T01:26:26.089Z</time>
      </trkpt>
      <trkpt lat="46.7145" lon="0.68958">
        <ele>135.08</ele>
        <time>2023-06-08T01:26:35.638Z</time>
      </trkpt>
      <trkpt lat="46.71458" lon="0.68962">
        <ele>135.16</ele>
        <time>2023-06-08T01:26:45.189Z</time>
      </trkpt>
      <trkpt lat="46.71462" lon="0.68964">
        <ele>135.16</ele>
        <time>2023-06-08T01:26:54.740Z</time>
      </trkpt>
      <trkpt lat="46.71466" lon="0.68966">
        <ele>135</ele>
        <time>2023-06-08T01:27:04.292Z</time>
      </trkpt>
      <trkpt lat="46.71493" lon="0.68876">
        <ele>132.69</ele>
        <time>2023-06-08T01:27:13.855Z</time>
      </trkpt>
      <trkpt lat="46.71496" lon="0.68865">
        <ele>132.33</ele>
        <time>2023-06-08T01:27:23.419Z</time>
      </trkpt>
      <trkpt lat="46.71502" lon="0.68847">
        <ele>131.7</ele>
        <time>2023-06-08T01:27:32.985Z</time>
      </trkpt>
      <trkpt lat="46.71505" lon="0.68835">
        <ele>131.32</ele>
        <time>2023-06-08T01:27:42.553Z</time>
      </trkpt>
      <trkpt lat="46.71511" lon="0.68817">
        <ele>130.79</ele>
        <time>2023-06-08T01:27:52.123Z</time>
      </trkpt>
      <trkpt lat="46.71514" lon="0.68805">
        <ele>130.5</ele>
        <time>2023-06-08T01:28:01.694Z</time>
      </trkpt>
      <trkpt lat="46.71518" lon="0.68793">
        <ele>130.24</ele>
        <time>2023-06-08T01:28:11.267Z</time>
      </trkpt>
      <trkpt lat="46.71536" lon="0.68733">
        <ele>129.03</ele>
        <time>2023-06-08T01:28:20.847Z</time>
      </trkpt>
      <trkpt lat="46.71537" lon="0.68727">
        <ele>128.93</ele>
        <time>2023-06-08T01:28:30.428Z</time>
      </trkpt>
      <trkpt lat="46.71539" lon="0.68721">
        <ele>128.86</ele>
        <time>2023-06-08T01:28:40.009Z</time>
      </trkpt>
      <trkpt lat="46.71541" lon="0.68715">
        <ele>128.81</ele>
        <time>2023-06-08T01:28:49.591Z</time>
      </trkpt>
      <trkpt lat="46.71545" lon="0.68703">
        <ele>128.76</ele>
        <time>2023-06-08T01:28:59.174Z</time>
      </trkpt>
      <trkpt lat="46.71548" lon="0.68692">
        <ele>128.67</ele>
        <time>2023-06-08T01:29:08.759Z</time>
      </trkpt>
      <trkpt lat="46.71548" lon="0.68692">
        <ele>128.67</ele>
        <time>2023-06-08T01:29:18.344Z</time>
      </trkpt>
      <trkpt lat="46.71552" lon="0.68681">
        <ele>128.67</ele>
        <time>2023-06-08T01:29:27.930Z</time>
      </trkpt>
      <trkpt lat="46.71563" lon="0.68647">
        <ele>128.82</ele>
        <time>2023-06-08T01:29:37.520Z</time>
      </trkpt>
      <trkpt lat="46.7157" lon="0.68625">
        <ele>128.98</ele>
        <time>2023-06-08T01:29:47.113Z</time>
      </trkpt>
      <trkpt lat="46.71574" lon="0.68614">
        <ele>129.24</ele>
        <time>2023-06-08T01:29:56.707Z</time>
      </trkpt>
      <trkpt lat="46.71669" lon="0.68592">
        <ele>132.16</ele>
        <time>2023-06-08T01:30:06.317Z</time>
      </trkpt>
      <trkpt lat="46.71698" lon="0.68583">
        <ele>133.06</ele>
        <time>2023-06-08T01:30:15.931Z</time>
      </trkpt>
      <trkpt lat="46.71757" lon="0.68618">
        <ele>135</ele>
        <time>2023-06-08T01:30:25.556Z</time>
      </trkpt>
      <trkpt lat="46.71876" lon="0.68639">
        <ele>138.64</ele>
        <time>2023-06-08T01:30:35.200Z</time>
      </trkpt>
      <trkpt lat="46.71921" lon="0.68681">
        <ele>140.26</ele>
        <time>2023-06-08T01:30:44.852Z</time>
      </trkpt>
      <trkpt lat="46.71928" lon="0.68687">
        <ele>140.27</ele>
        <time>2023-06-08T01:30:54.506Z</time>
      </trkpt>
      <trkpt lat="46.7194" lon="0.68685">
        <ele>140.3</ele>
        <time>2023-06-08T01:31:04.162Z</time>
      </trkpt>
      <trkpt lat="46.71953" lon="0.68679">
        <ele>140.34</ele>
        <time>2023-06-08T01:31:13.820Z</time>
      </trkpt>
      <trkpt lat="46.71962" lon="0.6867">
        <ele>140.36</ele>
        <time>2023-06-08T01:31:23.480Z</time>
      </trkpt>
      <trkpt lat="46.71973" lon="0.6867">
        <ele>140.39</ele>
        <time>2023-06-08T01:31:33.141Z</time>
      </trkpt>
      <trkpt lat="46.72144" lon="0.68716">
        <ele>140.81</ele>
        <time>2023-06-08T01:31:42.830Z</time>
      </trkpt>
      <trkpt lat="46.72152" lon="0.68718">
        <ele>140.81</ele>
        <time>2023-06-08T01:31:52.520Z</time>
      </trkpt>
      <trkpt lat="46.72222" lon="0.68791">
        <ele>140.87</ele>
        <time>2023-06-08T01:32:02.224Z</time>
      </trkpt>
      <trkpt lat="46.72409" lon="0.69007">
        <ele>141.03</ele>
        <time>2023-06-08T01:32:11.966Z</time>
      </trkpt>
      <trkpt lat="46.72523" lon="0.69156">
        <ele>141.13</ele>
        <time>2023-06-08T01:32:21.733Z</time>
      </trkpt>
      <trkpt lat="46.72654" lon="0.69283">
        <ele>141.24</ele>
        <time>2023-06-08T01:32:31.525Z</time>
      </trkpt>
      <trkpt lat="46.72732" lon="0.69291">
        <ele>141.29</ele>
        <time>2023-06-08T01:32:41.330Z</time>
      </trkpt>
      <trkpt lat="46.72732" lon="0.69285">
        <ele>141.3</ele>
        <time>2023-06-08T01:32:51.135Z</time>
      </trkpt>
      <trkpt lat="46.7273" lon="0.69259">
        <ele>141.24</ele>
        <time>2023-06-08T01:33:00.943Z</time>
      </trkpt>
      <trkpt lat="46.72728" lon="0.69227">
        <ele>141.22</ele>
        <time>2023-06-08T01:33:10.755Z</time>
      </trkpt>
      <trkpt lat="46.72727" lon="0.69208">
        <ele>141.19</ele>
        <time>2023-06-08T01:33:20.569Z</time>
      </trkpt>
      <trkpt lat="46.72726" lon="0.69195">
        <ele>141.13</ele>
        <time>2023-06-08T01:33:30.384Z</time>
      </trkpt>
      <trkpt lat="46.72725" lon="0.69163">
        <ele>140.94</ele>
        <time>2023-06-08T01:33:40.203Z</time>
      </trkpt>
      <trkpt lat="46.72723" lon="0.69131">
        <ele>140.89</ele>
        <time>2023-06-08T01:33:50.025Z</time>
      </trkpt>
      <trkpt lat="46.7272" lon="0.69092">
        <ele>140.79</ele>
        <time>2023-06-08T01:33:59.852Z</time>
      </trkpt>
      <trkpt lat="46.72719" lon="0.69073">
        <ele>140.69</ele>
        <time>2023-06-08T01:34:09.681Z</time>
      </trkpt>
      <trkpt lat="46.72718" lon="0.69047">
        <ele>140.5</ele>
        <time>2023-06-08T01:34:19.513Z</time>
      </trkpt>
      <trkpt lat="46.72716" lon="0.69021">
        <ele>140.38</ele>
        <time>2023-06-08T01:34:29.348Z</time>
      </trkpt>
      <trkpt lat="46.72715" lon="0.68996">
        <ele>140.33</ele>
        <time>2023-06-08T01:34:39.185Z</time>
      </trkpt>
      <trkpt lat="46.72714" lon="0.68976">
        <ele>140.25</ele>
        <time>2023-06-08T01:34:49.024Z</time>
      </trkpt>
      <trkpt lat="46.72713" lon="0.68964">
        <ele>140.24</ele>
        <time>2023-06-08T01:34:58.865Z</time>
      </trkpt>
      <trkpt lat="46.72712" lon="0.68938">
        <ele>140.27</ele>
        <time>2023-06-08T01:35:08.709Z</time>
      </trkpt>
      <trkpt lat="46.72711" lon="0.68925">
        <ele>140.34</ele>
        <time>2023-06-08T01:35:18.554Z</time>
      </trkpt>
      <trkpt lat="46.7271" lon="0.68912">
        <ele>140.35</ele>
        <time>2023-06-08T01:35:28.401Z</time>
      </trkpt>
      <trkpt lat="46.72817" lon="0.69169">
        <ele>140.8</ele>
        <time>2023-06-08T01:35:38.281Z</time>
      </trkpt>
      <trkpt lat="46.72908" lon="0.69293">
        <ele>141.06</ele>
        <time>2023-06-08T01:35:48.181Z</time>
      </trkpt>
      <trkpt lat="46.72945" lon="0.69348">
        <ele>141.18</ele>
        <time>2023-06-08T01:35:58.089Z</time>
      </trkpt>
      <trkpt lat="46.72951" lon="0.69357">
        <ele>141.19</ele>
        <time>2023-06-08T01:36:07.998Z</time>
      </trkpt>
      <trkpt lat="46.73033" lon="0.69362">
        <ele>141.35</ele>
        <time>2023-06-08T01:36:17.921Z</time>
      </trkpt>
      <trkpt lat="46.7312" lon="0.69401">
        <ele>141.53</ele>
        <time>2023-06-08T01:36:27.858Z</time>
      </trkpt>
      <trkpt lat="46.73204" lon="0.69449">
        <ele>141.7</ele>
        <time>2023-06-08T01:36:37.810Z</time>
      </trkpt>
      <trkpt lat="46.73209" lon="0.69451">
        <ele>141.72</ele>
        <time>2023-06-08T01:36:47.762Z</time>
      </trkpt>
      <trkpt lat="46.73218" lon="0.69454">
        <ele>141.64</ele>
        <time>2023-06-08T01:36:57.716Z</time>
      </trkpt>
      <trkpt lat="46.73283" lon="0.69469">
        <ele>141.12</ele>
        <time>2023-06-08T01:37:07.680Z</time>
      </trkpt>
      <trkpt lat="46.73472" lon="0.69401">
        <ele>139.57</ele>
        <time>2023-06-08T01:37:17.676Z</time>
      </trkpt>
      <trkpt lat="46.73707" lon="0.69358">
        <ele>137.69</ele>
        <time>2023-06-08T01:37:27.710Z</time>
      </trkpt>
      <trkpt lat="46.73717" lon="0.69356">
        <ele>137.66</ele>
        <time>2023-06-08T01:37:37.745Z</time>
      </trkpt>
      <trkpt lat="46.73689" lon="0.69419">
        <ele>137.54</ele>
        <time>2023-06-08T01:37:47.789Z</time>
      </trkpt>
      <trkpt lat="46.73683" lon="0.69432">
        <ele>137.57</ele>
        <time>2023-06-08T01:37:57.834Z</time>
      </trkpt>
      <trkpt lat="46.7381" lon="0.69469">
        <ele>137.96</ele>
        <time>2023-06-08T01:38:07.900Z</time>
      </trkpt>
      <trkpt lat="46.7382" lon="0.69472">
        <ele>137.99</ele>
        <time>2023-06-08T01:38:17.968Z</time>
      </trkpt>
      <trkpt lat="46.73816" lon="0.69501">
        <ele>138.06</ele>
        <time>2023-06-08T01:38:28.039Z</time>
      </trkpt>
      <trkpt lat="46.73864" lon="0.69516">
        <ele>138.24</ele>
        <time>2023-06-08T01:38:38.118Z</time>
      </trkpt>
      <trkpt lat="46.73921" lon="0.69534">
        <ele>138.22</ele>
        <time>2023-06-08T01:38:48.206Z</time>
      </trkpt>
      <trkpt lat="46.73925" lon="0.69534">
        <ele>138.22</ele>
        <time>2023-06-08T01:38:58.295Z</time>
      </trkpt>
      <trkpt lat="46.73936" lon="0.69535">
        <ele>138.18</ele>
        <time>2023-06-08T01:39:08.385Z</time>
      </trkpt>
      <trkpt lat="46.74194" lon="0.69628">
        <ele>137.23</ele>
        <time>2023-06-08T01:39:18.518Z</time>
      </trkpt>
      <trkpt lat="46.74165" lon="0.698">
        <ele>136.8</ele>
        <time>2023-06-08T01:39:28.670Z</time>
      </trkpt>
      <trkpt lat="46.74163" lon="0.69815">
        <ele>136.89</ele>
        <time>2023-06-08T01:39:38.824Z</time>
      </trkpt>
      <trkpt lat="46.74427" lon="0.69898">
        <ele>139.4</ele>
        <time>2023-06-08T01:39:49.021Z</time>
      </trkpt>
      <trkpt lat="46.74437" lon="0.69898">
        <ele>139.5</ele>
        <time>2023-06-08T01:39:59.220Z</time>
      </trkpt>
      <trkpt lat="46.74448" lon="0.69898">
        <ele>139.49</ele>
        <time>2023-06-08T01:40:09.421Z</time>
      </trkpt>
      <trkpt lat="46.7447" lon="0.69906">
        <ele>139.47</ele>
        <time>2023-06-08T01:40:19.625Z</time>
      </trkpt>
      <trkpt lat="46.74506" lon="0.69921">
        <ele>139.44</ele>
        <time>2023-06-08T01:40:29.835Z</time>
      </trkpt>
      <trkpt lat="46.74561" lon="0.69938">
        <ele>139.41</ele>
        <time>2023-06-08T01:40:40.054Z</time>
      </trkpt>
      <trkpt lat="46.74571" lon="0.69941">
        <ele>139.33</ele>
        <time>2023-06-08T01:40:50.275Z</time>
      </trkpt>
      <trkpt lat="46.74743" lon="0.69898">
        <ele>138.04</ele>
        <time>2023-06-08T01:41:00.524Z</time>
      </trkpt>
      <trkpt lat="46.74766" lon="0.69908">
        <ele>137.86</ele>
        <time>2023-06-08T01:41:10.777Z</time>
      </trkpt>
      <trkpt lat="46.74788" lon="0.69935">
        <ele>137.65</ele>
        <time>2023-06-08T01:41:21.034Z</time>
      </trkpt>
      <trkpt lat="46.74797" lon="0.69945">
        <ele>137.58</ele>
        <time>2023-06-08T01:41:31.293Z</time>
      </trkpt>
      <trkpt lat="46.74815" lon="0.69958">
        <ele>137.46</ele>
        <time>2023-06-08T01:41:41.555Z</time>
      </trkpt>
      <trkpt lat="46.74829" lon="0.69964">
        <ele>137.38</ele>
        <time>2023-06-08T01:41:51.820Z</time>
      </trkpt>
      <trkpt lat="46.74854" lon="0.69968">
        <ele>137.24</ele>
        <time>2023-06-08T01:42:02.089Z</time>
      </trkpt>
      <trkpt lat="46.74918" lon="0.69973">
        <ele>136.87</ele>
        <time>2023-06-08T01:42:12.368Z</time>
      </trkpt>
      <trkpt lat="46.74927" lon="0.69978">
        <ele>136.81</ele>
        <time>2023-06-08T01:42:22.649Z</time>
      </trkpt>
      <trkpt lat="46.7497" lon="0.70024">
        <ele>136.5</ele>
        <time>2023-06-08T01:42:32.938Z</time>
      </trkpt>
      <trkpt lat="46.74983" lon="0.70035">
        <ele>136.41</ele>
        <time>2023-06-08T01:42:43.229Z</time>
      </trkpt>
      <trkpt lat="46.75035" lon="0.70058">
        <ele>136.1</ele>
        <time>2023-06-08T01:42:53.529Z</time>
      </trkpt>
      <trkpt lat="46.75043" lon="0.70057">
        <ele>136.05</ele>
        <time>2023-06-08T01:43:03.830Z</time>
      </trkpt>
      <trkpt lat="46.75071" lon="0.70041">
        <ele>135.88</ele>
        <time>2023-06-08T01:43:14.136Z</time>
      </trkpt>
      <trkpt lat="46.75083" lon="0.70041">
        <ele>135.81</ele>
        <time>2023-06-08T01:43:24.444Z</time>
      </trkpt>
      <trkpt lat="46.75236" lon="0.70081">
        <ele>134.91</ele>
        <time>2023-06-08T01:43:34.777Z</time>
      </trkpt>
      <trkpt lat="46.75252" lon="0.70083">
        <ele>134.82</ele>
        <time>2023-06-08T01:43:45.113Z</time>
      </trkpt>
      <trkpt lat="46.75281" lon="0.70073">
        <ele>134.65</ele>
        <time>2023-06-08T01:43:55.453Z</time>
      </trkpt>
      <trkpt lat="46.75293" lon="0.70073">
        <ele>134.58</ele>
        <time>2023-06-08T01:44:05.795Z</time>
      </trkpt>
      <trkpt lat="46.75355" lon="0.70095">
        <ele>134.21</ele>
        <time>2023-06-08T01:44:16.148Z</time>
      </trkpt>
      <trkpt lat="46.75372" lon="0.70104">
        <ele>134.11</ele>
        <time>2023-06-08T01:44:26.503Z</time>
      </trkpt>
      <trkpt lat="46.75386" lon="0.70121">
        <ele>134</ele>
        <time>2023-06-08T01:44:36.861Z</time>
      </trkpt>
      <trkpt lat="46.754" lon="0.70142">
        <ele>133.89</ele>
        <time>2023-06-08T01:44:47.223Z</time>
      </trkpt>
      <trkpt lat="46.75439" lon="0.70215">
        <ele>133.52</ele>
        <time>2023-06-08T01:44:57.595Z</time>
      </trkpt>
      <trkpt lat="46.75446" lon="0.70223">
        <ele>133.47</ele>
        <time>2023-06-08T01:45:07.968Z</time>
      </trkpt>
      <trkpt lat="46.75452" lon="0.70223">
        <ele>133.43</ele>
        <time>2023-06-08T01:45:18.342Z</time>
      </trkpt>
      <trkpt lat="46.75457" lon="0.7022">
        <ele>133.41</ele>
        <time>2023-06-08T01:45:28.717Z</time>
      </trkpt>
      <trkpt lat="46.75457" lon="0.7022">
        <ele>133.41</ele>
        <time>2023-06-08T01:45:39.092Z</time>
      </trkpt>
      <trkpt lat="46.75463" lon="0.70212">
        <ele>133.74</ele>
        <time>2023-06-08T01:45:49.468Z</time>
      </trkpt>
      <trkpt lat="46.75464" lon="0.7021">
        <ele>133.79</ele>
        <time>2023-06-08T01:45:59.845Z</time>
      </trkpt>
      <trkpt lat="46.75466" lon="0.70206">
        <ele>133.89</ele>
        <time>2023-06-08T01:46:10.222Z</time>
      </trkpt>
      <trkpt lat="46.75468" lon="0.70201">
        <ele>134</ele>
        <time>2023-06-08T01:46:20.600Z</time>
      </trkpt>
      <trkpt lat="46.7547" lon="0.70196">
        <ele>134.08</ele>
        <time>2023-06-08T01:46:30.978Z</time>
      </trkpt>
      <trkpt lat="46.75477" lon="0.70179">
        <ele>134.27</ele>
        <time>2023-06-08T01:46:41.359Z</time>
      </trkpt>
      <trkpt lat="46.7548" lon="0.70174">
        <ele>134.37</ele>
        <time>2023-06-08T01:46:51.740Z</time>
      </trkpt>
      <trkpt lat="46.75482" lon="0.70169">
        <ele>134.48</ele>
        <time>2023-06-08T01:47:02.122Z</time>
      </trkpt>
      <trkpt lat="46.75485" lon="0.70163">
        <ele>134.62</ele>
        <time>2023-06-08T01:47:12.505Z</time>
      </trkpt>
      <trkpt lat="46.75492" lon="0.70147">
        <ele>135.08</ele>
        <time>2023-06-08T01:47:22.890Z</time>
      </trkpt>
      <trkpt lat="46.75494" lon="0.70142">
        <ele>135.21</ele>
        <time>2023-06-08T01:47:33.276Z</time>
      </trkpt>
      <trkpt lat="46.75496" lon="0.70137">
        <ele>135.28</ele>
        <time>2023-06-08T01:47:43.662Z</time>
      </trkpt>
      <trkpt lat="46.75499" lon="0.70131">
        <ele>135.39</ele>
        <time>2023-06-08T01:47:54.049Z</time>
      </trkpt>
      <trkpt lat="46.75502" lon="0.70126">
        <ele>135.43</ele>
        <time>2023-06-08T01:48:04.437Z</time>
      </trkpt>
      <trkpt lat="46.7551" lon="0.70111">
        <ele>135.48</ele>
        <time>2023-06-08T01:48:14.827Z</time>
      </trkpt>
      <trkpt lat="46.75522" lon="0.70092">
        <ele>135.6</ele>
        <time>2023-06-08T01:48:25.220Z</time>
      </trkpt>
      <trkpt lat="46.75527" lon="0.70082">
        <ele>135.62</ele>
        <time>2023-06-08T01:48:35.614Z</time>
      </trkpt>
      <trkpt lat="46.75528" lon="0.7008">
        <ele>135.62</ele>
        <time>2023-06-08T01:48:46.008Z</time>
      </trkpt>
      <trkpt lat="46.7553" lon="0.70077">
        <ele>135.65</ele>
        <time>2023-06-08T01:48:56.403Z</time>
      </trkpt>
      <trkpt lat="46.75533" lon="0.70072">
        <ele>135.72</ele>
        <time>2023-06-08T01:49:06.798Z</time>
      </trkpt>
      <trkpt lat="46.75537" lon="0.70067">
        <ele>135.82</ele>
        <time>2023-06-08T01:49:17.194Z</time>
      </trkpt>
      <trkpt lat="46.7554" lon="0.70064">
        <ele>135.9</ele>
        <time>2023-06-08T01:49:27.591Z</time>
      </trkpt>
      <trkpt lat="46.75543" lon="0.7006">
        <ele>135.96</ele>
        <time>2023-06-08T01:49:37.989Z</time>
      </trkpt>
      <trkpt lat="46.7555" lon="0.70052">
        <ele>136.04</ele>
        <time>2023-06-08T01:49:48.388Z</time>
      </trkpt>
      <trkpt lat="46.75553" lon="0.70049">
        <ele>136.05</ele>
        <time>2023-06-08T01:49:58.788Z</time>
      </trkpt>
      <trkpt lat="46.75558" lon="0.70045">
        <ele>136.09</ele>
        <time>2023-06-08T01:50:09.188Z</time>
      </trkpt>
      <trkpt lat="46.75561" lon="0.70042">
        <ele>136.09</ele>
        <time>2023-06-08T01:50:19.589Z</time>
      </trkpt>
      <trkpt lat="46.75565" lon="0.70038">
        <ele>136.04</ele>
        <time>2023-06-08T01:50:29.991Z</time>
      </trkpt>
      <trkpt lat="46.75569" lon="0.70035">
        <ele>135.96</ele>
        <time>2023-06-08T01:50:40.393Z</time>
      </trkpt>
      <trkpt lat="46.75573" lon="0.70032">
        <ele>135.85</ele>
        <time>2023-06-08T01:50:50.796Z</time>
      </trkpt>
      <trkpt lat="46.75576" lon="0.70029">
        <ele>135.78</ele>
        <time>2023-06-08T01:51:01.200Z</time>
      </trkpt>
      <trkpt lat="46.75582" lon="0.70026">
        <ele>135.68</ele>
        <time>2023-06-08T01:51:11.605Z</time>
      </trkpt>
      <trkpt lat="46.75587" lon="0.70034">
        <ele>135.57</ele>
        <time>2023-06-08T01:51:22.011Z</time>
      </trkpt>
      <trkpt lat="46.75594" lon="0.70043">
        <ele>135.45</ele>
        <time>2023-06-08T01:51:32.418Z</time>
      </trkpt>
      <trkpt lat="46.756" lon="0.70052">
        <ele>135.38</ele>
        <time>2023-06-08T01:51:42.827Z</time>
      </trkpt>
      <trkpt lat="46.75613" lon="0.70071">
        <ele>135.33</ele>
        <time>2023-06-08T01:51:53.239Z</time>
      </trkpt>
      <trkpt lat="46.75618" lon="0.70079">
        <ele>135.26</ele>
        <time>2023-06-08T01:52:03.652Z</time>
      </trkpt>
      <trkpt lat="46.75619" lon="0.7008">
        <ele>135.26</ele>
        <time>2023-06-08T01:52:14.065Z</time>
      </trkpt>
      <trkpt lat="46.75642" lon="0.70111">
        <ele>134.94</ele>
        <time>2023-06-08T01:52:24.483Z</time>
      </trkpt>
      <trkpt lat="46.75652" lon="0.70125">
        <ele>134.78</ele>
        <time>2023-06-08T01:52:34.903Z</time>
      </trkpt>
      <trkpt lat="46.75661" lon="0.70139">
        <ele>134.63</ele>
        <time>2023-06-08T01:52:45.326Z</time>
      </trkpt>
      <trkpt lat="46.75663" lon="0.70143">
        <ele>134.59</ele>
        <time>2023-06-08T01:52:55.749Z</time>
      </trkpt>
      <trkpt lat="46.75666" lon="0.7015">
        <ele>134.55</ele>
        <time>2023-06-08T01:53:06.173Z</time>
      </trkpt>
      <trkpt lat="46.75671" lon="0.70162">
        <ele>134.5</ele>
        <time>2023-06-08T01:53:16.599Z</time>
      </trkpt>
      <trkpt lat="46.75679" lon="0.70187">
        <ele>134.4</ele>
        <time>2023-06-08T01:53:27.028Z</time>
      </trkpt>
      <trkpt lat="46.7569" lon="0.70234">
        <ele>134.23</ele>
        <time>2023-06-08T01:53:37.462Z</time>
      </trkpt>
      <trkpt lat="46.75699" lon="0.70277">
        <ele>133.99</ele>
        <time>2023-06-08T01:53:47.901Z</time>
      </trkpt>
      <trkpt lat="46.75708" lon="0.70315">
        <ele>133.88</ele>
        <time>2023-06-08T01:53:58.344Z</time>
      </trkpt>
      <trkpt lat="46.75714" lon="0.70342">
        <ele>133.71</ele>
        <time>2023-06-08T01:54:08.791Z</time>
      </trkpt>
      <trkpt lat="46.75717" lon="0.70352">
        <ele>133.66</ele>
        <time>2023-06-08T01:54:19.239Z</time>
      </trkpt>
      <trkpt lat="46.75724" lon="0.70376">
        <ele>133.48</ele>
        <time>2023-06-08T01:54:29.690Z</time>
      </trkpt>
      <trkpt lat="46.75725" lon="0.7038">
        <ele>133.45</ele>
        <time>2023-06-08T01:54:40.141Z</time>
      </trkpt>
      <trkpt lat="46.75728" lon="0.70387">
        <ele>133.42</ele>
        <time>2023-06-08T01:54:50.593Z</time>
      </trkpt>
      <trkpt lat="46.75732" lon="0.70399">
        <ele>133.4</ele>
        <time>2023-06-08T01:55:01.046Z</time>
      </trkpt>
      <trkpt lat="46.7575" lon="0.70447">
        <ele>133.39</ele>
        <time>2023-06-08T01:55:11.505Z</time>
      </trkpt>
      <trkpt lat="46.75752" lon="0.7045">
        <ele>133.39</ele>
        <time>2023-06-08T01:55:21.965Z</time>
      </trkpt>
      <trkpt lat="46.75766" lon="0.70474">
        <ele>133.35</ele>
        <time>2023-06-08T01:55:32.428Z</time>
      </trkpt>
      <trkpt lat="46.75772" lon="0.70484">
        <ele>133.3</ele>
        <time>2023-06-08T01:55:42.893Z</time>
      </trkpt>
      <trkpt lat="46.75779" lon="0.70494">
        <ele>133.26</ele>
        <time>2023-06-08T01:55:53.359Z</time>
      </trkpt>
      <trkpt lat="46.75798" lon="0.70522">
        <ele>132.66</ele>
        <time>2023-06-08T01:56:03.830Z</time>
      </trkpt>
      <trkpt lat="46.758" lon="0.70526">
        <ele>132.6</ele>
        <time>2023-06-08T01:56:14.301Z</time>
      </trkpt>
      <trkpt lat="46.75825" lon="0.70579">
        <ele>131.78</ele>
        <time>2023-06-08T01:56:24.779Z</time>
      </trkpt>
      <trkpt lat="46.75844" lon="0.70621">
        <ele>131.03</ele>
        <time>2023-06-08T01:56:35.263Z</time>
      </trkpt>
      <trkpt lat="46.75852" lon="0.70637">
        <ele>130.82</ele>
        <time>2023-06-08T01:56:45.749Z</time>
      </trkpt>
      <trkpt lat="46.75857" lon="0.70648">
        <ele>130.73</ele>
        <time>2023-06-08T01:56:56.236Z</time>
      </trkpt>
      <trkpt lat="46.75859" lon="0.70653">
        <ele>130.71</ele>
        <time>2023-06-08T01:57:06.724Z</time>
      </trkpt>
      <trkpt lat="46.75865" lon="0.70665">
        <ele>130.72</ele>
        <time>2023-06-08T01:57:17.214Z</time>
      </trkpt>
      <trkpt lat="46.75867" lon="0.70668">
        <ele>130.73</ele>
        <time>2023-06-08T01:57:27.704Z</time>
      </trkpt>
      <trkpt lat="46.75872" lon="0.70676">
        <ele>130.79</ele>
        <time>2023-06-08T01:57:38.195Z</time>
      </trkpt>
      <trkpt lat="46.75877" lon="0.70681">
        <ele>130.85</ele>
        <time>2023-06-08T01:57:48.687Z</time>
      </trkpt>
      <trkpt lat="46.7588" lon="0.70684">
        <ele>130.9</ele>
        <time>2023-06-08T01:57:59.180Z</time>
      </trkpt>
      <trkpt lat="46.75889" lon="0.7069">
        <ele>131.07</ele>
        <time>2023-06-08T01:58:09.675Z</time>
      </trkpt>
      <trkpt lat="46.75897" lon="0.70695">
        <ele>131.15</ele>
        <time>2023-06-08T01:58:20.171Z</time>
      </trkpt>
      <trkpt lat="46.75906" lon="0.70701">
        <ele>131.39</ele>
        <time>2023-06-08T01:58:30.669Z</time>
      </trkpt>
      <trkpt lat="46.75914" lon="0.70682">
        <ele>131.78</ele>
        <time>2023-06-08T01:58:41.169Z</time>
      </trkpt>
      <trkpt lat="46.75925" lon="0.70655">
        <ele>132.24</ele>
        <time>2023-06-08T01:58:51.672Z</time>
      </trkpt>
      <trkpt lat="46.7593" lon="0.70642">
        <ele>132.3</ele>
        <time>2023-06-08T01:59:02.177Z</time>
      </trkpt>
      <trkpt lat="46.75932" lon="0.70633">
        <ele>132.34</ele>
        <time>2023-06-08T01:59:12.683Z</time>
      </trkpt>
      <trkpt lat="46.75935" lon="0.70618">
        <ele>132.45</ele>
        <time>2023-06-08T01:59:23.191Z</time>
      </trkpt>
      <trkpt lat="46.75938" lon="0.70597">
        <ele>132.63</ele>
        <time>2023-06-08T01:59:33.701Z</time>
      </trkpt>
      <trkpt lat="46.7595" lon="0.70525">
        <ele>132.91</ele>
        <time>2023-06-08T01:59:44.219Z</time>
      </trkpt>
      <trkpt lat="46.75958" lon="0.70477">
        <ele>132.99</ele>
        <time>2023-06-08T01:59:54.743Z</time>
      </trkpt>
      <trkpt lat="46.75964" lon="0.70439">
        <ele>132.93</ele>
        <time>2023-06-08T02:00:05.271Z</time>
      </trkpt>
      <trkpt lat="46.7597" lon="0.70402">
        <ele>132.94</ele>
        <time>2023-06-08T02:00:15.803Z</time>
      </trkpt>
      <trkpt lat="46.75972" lon="0.7039">
        <ele>132.92</ele>
        <time>2023-06-08T02:00:26.337Z</time>
      </trkpt>
      <trkpt lat="46.75978" lon="0.70358">
        <ele>132.8</ele>
        <time>2023-06-08T02:00:36.874Z</time>
      </trkpt>
      <trkpt lat="46.7598" lon="0.70346">
        <ele>132.79</ele>
        <time>2023-06-08T02:00:47.413Z</time>
      </trkpt>
      <trkpt lat="46.75982" lon="0.70334">
        <ele>132.81</ele>
        <time>2023-06-08T02:00:57.953Z</time>
      </trkpt>
      <trkpt lat="46.75984" lon="0.70319">
        <ele>132.75</ele>
        <time>2023-06-08T02:01:08.495Z</time>
      </trkpt>
      <trkpt lat="46.75989" lon="0.70323">
        <ele>132.71</ele>
        <time>2023-06-08T02:01:19.038Z</time>
      </trkpt>
      <trkpt lat="46.7599" lon="0.70325">
        <ele>132.71</ele>
        <time>2023-06-08T02:01:29.581Z</time>
      </trkpt>
      <trkpt lat="46.75996" lon="0.70338">
        <ele>132.71</ele>
        <time>2023-06-08T02:01:40.126Z</time>
      </trkpt>
      <trkpt lat="46.76001" lon="0.70344">
        <ele>132.71</ele>
        <time>2023-06-08T02:01:50.672Z</time>
      </trkpt>
      <trkpt lat="46.76003" lon="0.70347">
        <ele>132.68</ele>
        <time>2023-06-08T02:02:01.218Z</time>
      </trkpt>
      <trkpt lat="46.76021" lon="0.70367">
        <ele>132.52</ele>
        <time>2023-06-08T02:02:11.768Z</time>
      </trkpt>
      <trkpt lat="46.76028" lon="0.70374">
        <ele>132.39</ele>
        <time>2023-06-08T02:02:22.319Z</time>
      </trkpt>
      <trkpt lat="46.76035" lon="0.70382">
        <ele>132.22</ele>
        <time>2023-06-08T02:02:32.871Z</time>
      </trkpt>
      <trkpt lat="46.76042" lon="0.70389">
        <ele>132.03</ele>
        <time>2023-06-08T02:02:43.425Z</time>
      </trkpt>
      <trkpt lat="46.76056" lon="0.70404">
        <ele>131.59</ele>
        <time>2023-06-08T02:02:53.982Z</time>
      </trkpt>
      <trkpt lat="46.76063" lon="0.70412">
        <ele>131.45</ele>
        <time>2023-06-08T02:03:04.540Z</time>
      </trkpt>
      <trkpt lat="46.76081" lon="0.70431">
        <ele>131.24</ele>
        <time>2023-06-08T02:03:15.102Z</time>
      </trkpt>
      <trkpt lat="46.76092" lon="0.70442">
        <ele>131.15</ele>
        <time>2023-06-08T02:03:25.666Z</time>
      </trkpt>
      <trkpt lat="46.761" lon="0.70451">
        <ele>131.21</ele>
        <time>2023-06-08T02:03:36.231Z</time>
      </trkpt>
      <trkpt lat="46.76103" lon="0.70443">
        <ele>131.25</ele>
        <time>2023-06-08T02:03:46.797Z</time>
      </trkpt>
      <trkpt lat="46.76106" lon="0.70438">
        <ele>131.32</ele>
        <time>2023-06-08T02:03:57.364Z</time>
      </trkpt>
      <trkpt lat="46.76109" lon="0.7043">
        <ele>131.39</ele>
        <time>2023-06-08T02:04:07.932Z</time>
      </trkpt>
      <trkpt lat="46.76112" lon="0.70421">
        <ele>131.48</ele>
        <time>2023-06-08T02:04:18.501Z</time>
      </trkpt>
      <trkpt lat="46.76114" lon="0.70415">
        <ele>131.56</ele>
        <time>2023-06-08T02:04:29.071Z</time>
      </trkpt>
      <trkpt lat="46.76119" lon="0.70401">
        <ele>131.85</ele>
        <time>2023-06-08T02:04:39.643Z</time>
      </trkpt>
      <trkpt lat="46.76123" lon="0.70386">
        <ele>132.15</ele>
        <time>2023-06-08T02:04:50.216Z</time>
      </trkpt>
      <trkpt lat="46.76134" lon="0.70344">
        <ele>133.06</ele>
        <time>2023-06-08T02:05:00.794Z</time>
      </trkpt>
      <trkpt lat="46.76143" lon="0.70311">
        <ele>133.59</ele>
        <time>2023-06-08T02:05:11.376Z</time>
      </trkpt>
      <trkpt lat="46.76145" lon="0.70302">
        <ele>133.74</ele>
        <time>2023-06-08T02:05:21.959Z</time>
      </trkpt>
      <trkpt lat="46.76148" lon="0.7029">
        <ele>133.89</ele>
        <time>2023-06-08T02:05:32.544Z</time>
      </trkpt>
      <trkpt lat="46.76151" lon="0.70278">
        <ele>134.01</ele>
        <time>2023-06-08T02:05:43.130Z</time>
      </trkpt>
      <trkpt lat="46.76154" lon="0.70266">
        <ele>134.1</ele>
        <time>2023-06-08T02:05:53.718Z</time>
      </trkpt>
      <trkpt lat="46.76157" lon="0.70254">
        <ele>134.15</ele>
        <time>2023-06-08T02:06:04.307Z</time>
      </trkpt>
      <trkpt lat="46.7616" lon="0.70242">
        <ele>134.16</ele>
        <time>2023-06-08T02:06:14.897Z</time>
      </trkpt>
      <trkpt lat="46.76162" lon="0.70229">
        <ele>134.14</ele>
        <time>2023-06-08T02:06:25.489Z</time>
      </trkpt>
      <trkpt lat="46.76163" lon="0.70227">
        <ele>134.12</ele>
        <time>2023-06-08T02:06:36.081Z</time>
      </trkpt>
      <trkpt lat="46.76168" lon="0.70212">
        <ele>134.06</ele>
        <time>2023-06-08T02:06:46.675Z</time>
      </trkpt>
      <trkpt lat="46.7617" lon="0.70208">
        <ele>134.02</ele>
        <time>2023-06-08T02:06:57.269Z</time>
      </trkpt>
      <trkpt lat="46.76174" lon="0.70202">
        <ele>133.96</ele>
        <time>2023-06-08T02:07:07.864Z</time>
      </trkpt>
      <trkpt lat="46.76175" lon="0.702">
        <ele>133.92</ele>
        <time>2023-06-08T02:07:18.460Z</time>
      </trkpt>
      <trkpt lat="46.76177" lon="0.70198">
        <ele>133.88</ele>
        <time>2023-06-08T02:07:29.056Z</time>
      </trkpt>
      <trkpt lat="46.76182" lon="0.70194">
        <ele>133.79</ele>
        <time>2023-06-08T02:07:39.653Z</time>
      </trkpt>
      <trkpt lat="46.76187" lon="0.70194">
        <ele>133.72</ele>
        <time>2023-06-08T02:07:50.251Z</time>
      </trkpt>
      <trkpt lat="46.76195" lon="0.70181">
        <ele>133.55</ele>
        <time>2023-06-08T02:08:00.851Z</time>
      </trkpt>
      <trkpt lat="46.76198" lon="0.70175">
        <ele>133.45</ele>
        <time>2023-06-08T02:08:11.451Z</time>
      </trkpt>
      <trkpt lat="46.76202" lon="0.70158">
        <ele>133.23</ele>
        <time>2023-06-08T02:08:22.053Z</time>
      </trkpt>
      <trkpt lat="46.76204" lon="0.70152">
        <ele>133.18</ele>
        <time>2023-06-08T02:08:32.656Z</time>
      </trkpt>
      <trkpt lat="46.76205" lon="0.70145">
        <ele>133.16</ele>
        <time>2023-06-08T02:08:43.260Z</time>
      </trkpt>
      <trkpt lat="46.7621" lon="0.70127">
        <ele>133.15</ele>
        <time>2023-06-08T02:08:53.866Z</time>
      </trkpt>
      <trkpt lat="46.76214" lon="0.70108">
        <ele>133.09</ele>
        <time>2023-06-08T02:09:04.474Z</time>
      </trkpt>
      <trkpt lat="46.76216" lon="0.70102">
        <ele>133.05</ele>
        <time>2023-06-08T02:09:15.083Z</time>
      </trkpt>
      <trkpt lat="46.76217" lon="0.70097">
        <ele>132.99</ele>
        <time>2023-06-08T02:09:25.693Z</time>
      </trkpt>
      <trkpt lat="46.76221" lon="0.70084">
        <ele>132.85</ele>
        <time>2023-06-08T02:09:36.304Z</time>
      </trkpt>
      <trkpt lat="46.76224" lon="0.70072">
        <ele>132.74</ele>
        <time>2023-06-08T02:09:46.917Z</time>
      </trkpt>
      <trkpt lat="46.76231" lon="0.70047">
        <ele>132.64</ele>
        <time>2023-06-08T02:09:57.532Z</time>
      </trkpt>
      <trkpt lat="46.76238" lon="0.70023">
        <ele>132.42</ele>
        <time>2023-06-08T02:10:08.150Z</time>
      </trkpt>
      <trkpt lat="46.7624" lon="0.70017">
        <ele>132.38</ele>
        <time>2023-06-08T02:10:18.769Z</time>
      </trkpt>
      <trkpt lat="46.76248" lon="0.69989">
        <ele>132.2</ele>
        <time>2023-06-08T02:10:29.391Z</time>
      </trkpt>
      <trkpt lat="46.76248" lon="0.69987">
        <ele>132.19</ele>
        <time>2023-06-08T02:10:40.014Z</time>
      </trkpt>
      <trkpt lat="46.76255" lon="0.69949">
        <ele>132.01</ele>
        <time>2023-06-08T02:10:50.641Z</time>
      </trkpt>
      <trkpt lat="46.76258" lon="0.69929">
        <ele>131.89</ele>
        <time>2023-06-08T02:11:01.270Z</time>
      </trkpt>
      <trkpt lat="46.76261" lon="0.6991">
        <ele>131.68</ele>
        <time>2023-06-08T02:11:11.901Z</time>
      </trkpt>
      <trkpt lat="46.76263" lon="0.699">
        <ele>131.57</ele>
        <time>2023-06-08T02:11:22.533Z</time>
      </trkpt>
      <trkpt lat="46.76268" lon="0.69886">
        <ele>131.43</ele>
        <time>2023-06-08T02:11:33.167Z</time>
      </trkpt>
      <trkpt lat="46.7627" lon="0.6988">
        <ele>131.33</ele>
        <time>2023-06-08T02:11:43.802Z</time>
      </trkpt>
      <trkpt lat="46.76272" lon="0.69874">
        <ele>131.18</ele>
        <time>2023-06-08T02:11:54.438Z</time>
      </trkpt>
      <trkpt lat="46.76274" lon="0.69867">
        <ele>130.94</ele>
        <time>2023-06-08T02:12:05.075Z</time>
      </trkpt>
      <trkpt lat="46.76279" lon="0.69858">
        <ele>130.61</ele>
        <time>2023-06-08T02:12:15.713Z</time>
      </trkpt>
      <trkpt lat="46.76281" lon="0.69852">
        <ele>130.48</ele>
        <time>2023-06-08T02:12:26.352Z</time>
      </trkpt>
      <trkpt lat="46.76284" lon="0.69847">
        <ele>130.41</ele>
        <time>2023-06-08T02:12:36.991Z</time>
      </trkpt>
      <trkpt lat="46.76287" lon="0.69842">
        <ele>130.4</ele>
        <time>2023-06-08T02:12:47.631Z</time>
      </trkpt>
      <trkpt lat="46.76289" lon="0.69836">
        <ele>130.42</ele>
        <time>2023-06-08T02:12:58.272Z</time>
      </trkpt>
      <trkpt lat="46.76294" lon="0.69827">
        <ele>130.48</ele>
        <time>2023-06-08T02:13:08.914Z</time>
      </trkpt>
      <trkpt lat="46.76295" lon="0.69819">
        <ele>130.52</ele>
        <time>2023-06-08T02:13:19.557Z</time>
      </trkpt>
      <trkpt lat="46.76295" lon="0.69806">
        <ele>130.59</ele>
        <time>2023-06-08T02:13:30.201Z</time>
      </trkpt>
      <trkpt lat="46.76294" lon="0.6978">
        <ele>130.83</ele>
        <time>2023-06-08T02:13:40.848Z</time>
      </trkpt>
      <trkpt lat="46.76294" lon="0.6978">
        <ele>130.83</ele>
        <time>2023-06-08T02:13:51.495Z</time>
      </trkpt>
      <trkpt lat="46.76295" lon="0.69773">
        <ele>130.93</ele>
        <time>2023-06-08T02:14:02.143Z</time>
      </trkpt>
      <trkpt lat="46.76299" lon="0.69748">
        <ele>131.4</ele>
        <time>2023-06-08T02:14:12.794Z</time>
      </trkpt>
      <trkpt lat="46.76299" lon="0.69748">
        <ele>131.4</ele>
        <time>2023-06-08T02:14:23.445Z</time>
      </trkpt>
      <trkpt lat="46.76308" lon="0.69719">
        <ele>132.05</ele>
        <time>2023-06-08T02:14:34.099Z</time>
      </trkpt>
      <trkpt lat="46.76313" lon="0.69707">
        <ele>132.35</ele>
        <time>2023-06-08T02:14:44.755Z</time>
      </trkpt>
      <trkpt lat="46.76315" lon="0.69701">
        <ele>132.45</ele>
        <time>2023-06-08T02:14:55.412Z</time>
      </trkpt>
      <trkpt lat="46.76325" lon="0.69679">
        <ele>132.71</ele>
        <time>2023-06-08T02:15:06.071Z</time>
      </trkpt>
      <trkpt lat="46.76334" lon="0.69656">
        <ele>133.01</ele>
        <time>2023-06-08T02:15:16.733Z</time>
      </trkpt>
      <trkpt lat="46.76343" lon="0.69634">
        <ele>133.38</ele>
        <time>2023-06-08T02:15:27.398Z</time>
      </trkpt>
      <trkpt lat="46.76346" lon="0.69628">
        <ele>133.46</ele>
        <time>2023-06-08T02:15:38.064Z</time>
      </trkpt>
      <trkpt lat="46.7635" lon="0.69617">
        <ele>133.54</ele>
        <time>2023-06-08T02:15:48.731Z</time>
      </trkpt>
      <trkpt lat="46.76352" lon="0.69613">
        <ele>133.55</ele>
        <time>2023-06-08T02:15:59.399Z</time>
      </trkpt>
      <trkpt lat="46.7636" lon="0.69595">
        <ele>133.61</ele>
        <time>2023-06-08T02:16:10.069Z</time>
      </trkpt>
      <trkpt lat="46.76374" lon="0.69561">
        <ele>133.56</ele>
        <time>2023-06-08T02:16:20.744Z</time>
      </trkpt>
      <trkpt lat="46.76394" lon="0.69517">
        <ele>133.7</ele>
        <time>2023-06-08T02:16:31.424Z</time>
      </trkpt>
      <trkpt lat="46.76398" lon="0.69506">
        <ele>133.72</ele>
        <time>2023-06-08T02:16:42.106Z</time>
      </trkpt>
      <trkpt lat="46.76404" lon="0.69493">
        <ele>133.81</ele>
        <time>2023-06-08T02:16:52.789Z</time>
      </trkpt>
      <trkpt lat="46.76397" lon="0.69488">
        <ele>133.88</ele>
        <time>2023-06-08T02:17:03.474Z</time>
      </trkpt>
      <trkpt lat="46.76386" lon="0.69479">
        <ele>133.96</ele>
        <time>2023-06-08T02:17:14.161Z</time>
      </trkpt>
      <trkpt lat="46.76378" lon="0.69473">
        <ele>133.96</ele>
        <time>2023-06-08T02:17:24.849Z</time>
      </trkpt>
      <trkpt lat="46.76365" lon="0.69463">
        <ele>133.91</ele>
        <time>2023-06-08T02:17:35.540Z</time>
      </trkpt>
      <trkpt lat="46.76351" lon="0.69449">
        <ele>133.86</ele>
        <time>2023-06-08T02:17:46.233Z</time>
      </trkpt>
      <trkpt lat="46.76346" lon="0.69444">
        <ele>133.86</ele>
        <time>2023-06-08T02:17:56.927Z</time>
      </trkpt>
      <trkpt lat="46.76344" lon="0.69441">
        <ele>133.86</ele>
        <time>2023-06-08T02:18:07.622Z</time>
      </trkpt>
      <trkpt lat="46.76328" lon="0.69418">
        <ele>133.94</ele>
        <time>2023-06-08T02:18:18.320Z</time>
      </trkpt>
      <trkpt lat="46.76315" lon="0.69399">
        <ele>134.04</ele>
        <time>2023-06-08T02:18:29.021Z</time>
      </trkpt>
      <trkpt lat="46.76309" lon="0.6939">
        <ele>134.04</ele>
        <time>2023-06-08T02:18:39.724Z</time>
      </trkpt>
      <trkpt lat="46.7629" lon="0.69362">
        <ele>133.99</ele>
        <time>2023-06-08T02:18:50.431Z</time>
      </trkpt>
      <trkpt lat="46.76283" lon="0.69353">
        <ele>134</ele>
        <time>2023-06-08T02:19:01.139Z</time>
      </trkpt>
      <trkpt lat="46.76277" lon="0.69344">
        <ele>134.04</ele>
        <time>2023-06-08T02:19:11.849Z</time>
      </trkpt>
      <trkpt lat="46.76252" lon="0.69307">
        <ele>134.27</ele>
        <time>2023-06-08T02:19:22.565Z</time>
      </trkpt>
      <trkpt lat="46.76248" lon="0.69302">
        <ele>134.27</ele>
        <time>2023-06-08T02:19:33.281Z</time>
      </trkpt>
      <trkpt lat="46.76236" lon="0.69284">
        <ele>134.18</ele>
        <time>2023-06-08T02:19:44.000Z</time>
      </trkpt>
      <trkpt lat="46.76233" lon="0.69279">
        <ele>134.18</ele>
        <time>2023-06-08T02:19:54.720Z</time>
      </trkpt>
      <trkpt lat="46.76213" lon="0.69252">
        <ele>134.3</ele>
        <time>2023-06-08T02:20:05.444Z</time>
      </trkpt>
      <trkpt lat="46.76211" lon="0.69248">
        <ele>134.3</ele>
        <time>2023-06-08T02:20:16.169Z</time>
      </trkpt>
      <trkpt lat="46.76208" lon="0.69241">
        <ele>134.31</ele>
        <time>2023-06-08T02:20:26.895Z</time>
      </trkpt>
      <trkpt lat="46.762" lon="0.69225">
        <ele>134.27</ele>
        <time>2023-06-08T02:20:37.623Z</time>
      </trkpt>
      <trkpt lat="46.76193" lon="0.69209">
        <ele>134.2</ele>
        <time>2023-06-08T02:20:48.353Z</time>
      </trkpt>
      <trkpt lat="46.76193" lon="0.69209">
        <ele>134.2</ele>
        <time>2023-06-08T02:20:59.083Z</time>
      </trkpt>
      <trkpt lat="46.76185" lon="0.69185">
        <ele>134.22</ele>
        <time>2023-06-08T02:21:09.816Z</time>
      </trkpt>
      <trkpt lat="46.76183" lon="0.69179">
        <ele>134.19</ele>
        <time>2023-06-08T02:21:20.550Z</time>
      </trkpt>
      <trkpt lat="46.76182" lon="0.69176">
        <ele>134.15</ele>
        <time>2023-06-08T02:21:31.284Z</time>
      </trkpt>
      <trkpt lat="46.7618" lon="0.69167">
        <ele>134.06</ele>
        <time>2023-06-08T02:21:42.019Z</time>
      </trkpt>
      <trkpt lat="46.76177" lon="0.69149">
        <ele>133.81</ele>
        <time>2023-06-08T02:21:52.756Z</time>
      </trkpt>
      <trkpt lat="46.76176" lon="0.69141">
        <ele>133.72</ele>
        <time>2023-06-08T02:22:03.494Z</time>
      </trkpt>
      <trkpt lat="46.76174" lon="0.69115">
        <ele>133.35</ele>
        <time>2023-06-08T02:22:14.235Z</time>
      </trkpt>
      <trkpt lat="46.76174" lon="0.69109">
        <ele>133.27</ele>
        <time>2023-06-08T02:22:24.976Z</time>
      </trkpt>
      <trkpt lat="46.76172" lon="0.69083">
        <ele>133.08</ele>
        <time>2023-06-08T02:22:35.720Z</time>
      </trkpt>
      <trkpt lat="46.76168" lon="0.6907">
        <ele>132.98</ele>
        <time>2023-06-08T02:22:46.466Z</time>
      </trkpt>
      <trkpt lat="46.76175" lon="0.69057">
        <ele>132.86</ele>
        <time>2023-06-08T02:22:57.214Z</time>
      </trkpt>
      <trkpt lat="46.7618" lon="0.69047">
        <ele>132.8</ele>
        <time>2023-06-08T02:23:07.963Z</time>
      </trkpt>
      <trkpt lat="46.76191" lon="0.69028">
        <ele>132.74</ele>
        <time>2023-06-08T02:23:18.715Z</time>
      </trkpt>
      <trkpt lat="46.76191" lon="0.69028">
        <ele>132.74</ele>
        <time>2023-06-08T02:23:29.467Z</time>
      </trkpt>
      <trkpt lat="46.76195" lon="0.69015">
        <ele>132.64</ele>
        <time>2023-06-08T02:23:40.220Z</time>
      </trkpt>
      <trkpt lat="46.76198" lon="0.69014">
        <ele>132.61</ele>
        <time>2023-06-08T02:23:50.974Z</time>
      </trkpt>
      <trkpt lat="46.76201" lon="0.69014">
        <ele>132.57</ele>
        <time>2023-06-08T02:24:01.728Z</time>
      </trkpt>
      <trkpt lat="46.76208" lon="0.69009">
        <ele>132.47</ele>
        <time>2023-06-08T02:24:12.484Z</time>
      </trkpt>
      <trkpt lat="46.7621" lon="0.69006">
        <ele>132.44</ele>
        <time>2023-06-08T02:24:23.240Z</time>
      </trkpt>
      <trkpt lat="46.76216" lon="0.68997">
        <ele>132.36</ele>
        <time>2023-06-08T02:24:33.997Z</time>
      </trkpt>
      <trkpt lat="46.76225" lon="0.68982">
        <ele>132.31</ele>
        <time>2023-06-08T02:24:44.757Z</time>
      </trkpt>
      <trkpt lat="46.76237" lon="0.68964">
        <ele>132.3</ele>
        <time>2023-06-08T02:24:55.519Z</time>
      </trkpt>
      <trkpt lat="46.76246" lon="0.68949">
        <ele>132.33</ele>
        <time>2023-06-08T02:25:06.284Z</time>
      </trkpt>
      <trkpt lat="46.76252" lon="0.68941">
        <ele>132.35</ele>
        <time>2023-06-08T02:25:17.050Z</time>
      </trkpt>
      <trkpt lat="46.76254" lon="0.68939">
        <ele>132.35</ele>
        <time>2023-06-08T02:25:27.816Z</time>
      </trkpt>
      <trkpt lat="46.76274" lon="0.6892">
        <ele>132.36</ele>
        <time>2023-06-08T02:25:38.586Z</time>
      </trkpt>
      <trkpt lat="46.76282" lon="0.68913">
        <ele>132.39</ele>
        <time>2023-06-08T02:25:49.358Z</time>
      </trkpt>
      <trkpt lat="46.76297" lon="0.68899">
        <ele>132.53</ele>
        <time>2023-06-08T02:26:00.132Z</time>
      </trkpt>
      <trkpt lat="46.76315" lon="0.68882">
        <ele>132.76</ele>
        <time>2023-06-08T02:26:10.910Z</time>
      </trkpt>
      <trkpt lat="46.7633" lon="0.68868">
        <ele>132.86</ele>
        <time>2023-06-08T02:26:21.691Z</time>
      </trkpt>
      <trkpt lat="46.76338" lon="0.68862">
        <ele>132.73</ele>
        <time>2023-06-08T02:26:32.473Z</time>
      </trkpt>
      <trkpt lat="46.76368" lon="0.68833">
        <ele>132.32</ele>
        <time>2023-06-08T02:26:43.261Z</time>
      </trkpt>
      <trkpt lat="46.76378" lon="0.68824">
        <ele>132.22</ele>
        <time>2023-06-08T02:26:54.051Z</time>
      </trkpt>
      <trkpt lat="46.76384" lon="0.68821">
        <ele>132.17</ele>
        <time>2023-06-08T02:27:04.842Z</time>
      </trkpt>
      <trkpt lat="46.76399" lon="0.68812">
        <ele>131.91</ele>
        <time>2023-06-08T02:27:15.635Z</time>
      </trkpt>
      <trkpt lat="46.76415" lon="0.68807">
        <ele>131.65</ele>
        <time>2023-06-08T02:27:26.431Z</time>
      </trkpt>
      <trkpt lat="46.76436" lon="0.68803">
        <ele>131.33</ele>
        <time>2023-06-08T02:27:37.230Z</time>
      </trkpt>
      <trkpt lat="46.76449" lon="0.688">
        <ele>131.02</ele>
        <time>2023-06-08T02:27:48.032Z</time>
      </trkpt>
      <trkpt lat="46.76454" lon="0.68799">
        <ele>130.88</ele>
        <time>2023-06-08T02:27:58.834Z</time>
      </trkpt>
      <trkpt lat="46.76458" lon="0.68799">
        <ele>130.77</ele>
        <time>2023-06-08T02:28:09.637Z</time>
      </trkpt>
      <trkpt lat="46.76463" lon="0.688">
        <ele>130.62</ele>
        <time>2023-06-08T02:28:20.441Z</time>
      </trkpt>
      <trkpt lat="46.76472" lon="0.68801">
        <ele>130.26</ele>
        <time>2023-06-08T02:28:31.246Z</time>
      </trkpt>
      <trkpt lat="46.76481" lon="0.68802">
        <ele>129.82</ele>
        <time>2023-06-08T02:28:42.053Z</time>
      </trkpt>
      <trkpt lat="46.76494" lon="0.68804">
        <ele>128.99</ele>
        <time>2023-06-08T02:28:52.862Z</time>
      </trkpt>
      <trkpt lat="46.76512" lon="0.68806">
        <ele>127.93</ele>
        <time>2023-06-08T02:29:03.674Z</time>
      </trkpt>
      <trkpt lat="46.76521" lon="0.68807">
        <ele>127.35</ele>
        <time>2023-06-08T02:29:14.487Z</time>
      </trkpt>
      <trkpt lat="46.7653" lon="0.68808">
        <ele>126.72</ele>
        <time>2023-06-08T02:29:25.302Z</time>
      </trkpt>
      <trkpt lat="46.76539" lon="0.68809">
        <ele>126.04</ele>
        <time>2023-06-08T02:29:36.118Z</time>
      </trkpt>
      <trkpt lat="46.76543" lon="0.68809">
        <ele>125.69</ele>
        <time>2023-06-08T02:29:46.935Z</time>
      </trkpt>
      <trkpt lat="46.76548" lon="0.6881">
        <ele>125.31</ele>
        <time>2023-06-08T02:29:57.752Z</time>
      </trkpt>
      <trkpt lat="46.7655" lon="0.6881">
        <ele>125.11</ele>
        <time>2023-06-08T02:30:08.570Z</time>
      </trkpt>
      <trkpt lat="46.76552" lon="0.6881">
        <ele>124.9</ele>
        <time>2023-06-08T02:30:19.388Z</time>
      </trkpt>
      <trkpt lat="46.7656" lon="0.6881">
        <ele>124.16</ele>
        <time>2023-06-08T02:30:30.207Z</time>
      </trkpt>
      <trkpt lat="46.76568" lon="0.68808">
        <ele>123.38</ele>
        <time>2023-06-08T02:30:41.028Z</time>
      </trkpt>
      <trkpt lat="46.76578" lon="0.68802">
        <ele>122.32</ele>
        <time>2023-06-08T02:30:51.850Z</time>
      </trkpt>
      <trkpt lat="46.76583" lon="0.688">
        <ele>121.87</ele>
        <time>2023-06-08T02:31:02.673Z</time>
      </trkpt>
      <trkpt lat="46.7659" lon="0.68792">
        <ele>121.07</ele>
        <time>2023-06-08T02:31:13.498Z</time>
      </trkpt>
      <trkpt lat="46.76593" lon="0.68787">
        <ele>120.69</ele>
        <time>2023-06-08T02:31:24.323Z</time>
      </trkpt>
      <trkpt lat="46.76599" lon="0.68778">
        <ele>119.84</ele>
        <time>2023-06-08T02:31:35.150Z</time>
      </trkpt>
      <trkpt lat="46.76608" lon="0.68763">
        <ele>118.53</ele>
        <time>2023-06-08T02:31:45.979Z</time>
      </trkpt>
      <trkpt lat="46.76611" lon="0.68759">
        <ele>118.07</ele>
        <time>2023-06-08T02:31:56.809Z</time>
      </trkpt>
      <trkpt lat="46.7663" lon="0.6873">
        <ele>115.17</ele>
        <time>2023-06-08T02:32:07.643Z</time>
      </trkpt>
      <trkpt lat="46.76639" lon="0.68715">
        <ele>113.55</ele>
        <time>2023-06-08T02:32:18.479Z</time>
      </trkpt>
      <trkpt lat="46.76642" lon="0.6871">
        <ele>113.03</ele>
        <time>2023-06-08T02:32:29.316Z</time>
      </trkpt>
      <trkpt lat="46.76642" lon="0.6871">
        <ele>113.03</ele>
        <time>2023-06-08T02:32:40.153Z</time>
      </trkpt>
      <trkpt lat="46.76648" lon="0.68702">
        <ele>112.06</ele>
        <time>2023-06-08T02:32:50.991Z</time>
      </trkpt>
      <trkpt lat="46.76655" lon="0.68693">
        <ele>111.17</ele>
        <time>2023-06-08T02:33:01.831Z</time>
      </trkpt>
      <trkpt lat="46.76665" lon="0.6868">
        <ele>109.9</ele>
        <time>2023-06-08T02:33:12.673Z</time>
      </trkpt>
      <trkpt lat="46.76675" lon="0.68667">
        <ele>108.56</ele>
        <time>2023-06-08T02:33:23.517Z</time>
      </trkpt>
      <trkpt lat="46.76682" lon="0.68658">
        <ele>107.74</ele>
        <time>2023-06-08T02:33:34.363Z</time>
      </trkpt>
      <trkpt lat="46.76685" lon="0.68653">
        <ele>107.37</ele>
        <time>2023-06-08T02:33:45.209Z</time>
      </trkpt>
      <trkpt lat="46.76692" lon="0.68645">
        <ele>106.71</ele>
        <time>2023-06-08T02:33:56.057Z</time>
      </trkpt>
      <trkpt lat="46.76699" lon="0.68636">
        <ele>106.11</ele>
        <time>2023-06-08T02:34:06.906Z</time>
      </trkpt>
      <trkpt lat="46.76702" lon="0.68632">
        <ele>105.78</ele>
        <time>2023-06-08T02:34:17.756Z</time>
      </trkpt>
      <trkpt lat="46.76712" lon="0.68618">
        <ele>104.73</ele>
        <time>2023-06-08T02:34:28.608Z</time>
      </trkpt>
      <trkpt lat="46.76716" lon="0.68614">
        <ele>104.44</ele>
        <time>2023-06-08T02:34:39.461Z</time>
      </trkpt>
      <trkpt lat="46.76719" lon="0.6861">
        <ele>104.22</ele>
        <time>2023-06-08T02:34:50.314Z</time>
      </trkpt>
      <trkpt lat="46.76722" lon="0.68605">
        <ele>104.06</ele>
        <time>2023-06-08T02:35:01.168Z</time>
      </trkpt>
      <trkpt lat="46.76726" lon="0.68601">
        <ele>103.96</ele>
        <time>2023-06-08T02:35:12.023Z</time>
      </trkpt>
      <trkpt lat="46.76736" lon="0.68588">
        <ele>103.78</ele>
        <time>2023-06-08T02:35:22.880Z</time>
      </trkpt>
      <trkpt lat="46.76746" lon="0.68575">
        <ele>103.66</ele>
        <time>2023-06-08T02:35:33.739Z</time>
      </trkpt>
      <trkpt lat="46.76752" lon="0.68566">
        <ele>103.64</ele>
        <time>2023-06-08T02:35:44.600Z</time>
      </trkpt>
      <trkpt lat="46.76763" lon="0.68553">
        <ele>103.73</ele>
        <time>2023-06-08T02:35:55.463Z</time>
      </trkpt>
      <trkpt lat="46.76766" lon="0.68548">
        <ele>103.78</ele>
        <time>2023-06-08T02:36:06.327Z</time>
      </trkpt>
      <trkpt lat="46.76776" lon="0.68535">
        <ele>104.03</ele>
        <time>2023-06-08T02:36:17.193Z</time>
      </trkpt>
      <trkpt lat="46.76779" lon="0.68531">
        <ele>104.13</ele>
        <time>2023-06-08T02:36:28.059Z</time>
      </trkpt>
      <trkpt lat="46.76786" lon="0.68522">
        <ele>104.41</ele>
        <time>2023-06-08T02:36:38.927Z</time>
      </trkpt>
      <trkpt lat="46.76793" lon="0.68513">
        <ele>104.77</ele>
        <time>2023-06-08T02:36:49.796Z</time>
      </trkpt>
      <trkpt lat="46.76796" lon="0.68509">
        <ele>104.97</ele>
        <time>2023-06-08T02:37:00.666Z</time>
      </trkpt>
      <trkpt lat="46.76803" lon="0.685">
        <ele>105.45</ele>
        <time>2023-06-08T02:37:11.537Z</time>
      </trkpt>
      <trkpt lat="46.76806" lon="0.68496">
        <ele>105.75</ele>
        <time>2023-06-08T02:37:22.409Z</time>
      </trkpt>
      <trkpt lat="46.7682" lon="0.68478">
        <ele>107.07</ele>
        <time>2023-06-08T02:37:33.284Z</time>
      </trkpt>
      <trkpt lat="46.7684" lon="0.68452">
        <ele>108.93</ele>
        <time>2023-06-08T02:37:44.163Z</time>
      </trkpt>
      <trkpt lat="46.76853" lon="0.68435">
        <ele>110.22</ele>
        <time>2023-06-08T02:37:55.045Z</time>
      </trkpt>
      <trkpt lat="46.76856" lon="0.6843">
        <ele>110.52</ele>
        <time>2023-06-08T02:38:05.928Z</time>
      </trkpt>
      <trkpt lat="46.7686" lon="0.68426">
        <ele>110.79</ele>
        <time>2023-06-08T02:38:16.812Z</time>
      </trkpt>
      <trkpt lat="46.7687" lon="0.68413">
        <ele>111.55</ele>
        <time>2023-06-08T02:38:27.698Z</time>
      </trkpt>
      <trkpt lat="46.7688" lon="0.684">
        <ele>112.37</ele>
        <time>2023-06-08T02:38:38.586Z</time>
      </trkpt>
      <trkpt lat="46.76883" lon="0.68395">
        <ele>112.62</ele>
        <time>2023-06-08T02:38:49.475Z</time>
      </trkpt>
      <trkpt lat="46.7689" lon="0.68387">
        <ele>113.06</ele>
        <time>2023-06-08T02:39:00.365Z</time>
      </trkpt>
      <trkpt lat="46.769" lon="0.68374">
        <ele>113.66</ele>
        <time>2023-06-08T02:39:11.257Z</time>
      </trkpt>
      <trkpt lat="46.76903" lon="0.68369">
        <ele>113.88</ele>
        <time>2023-06-08T02:39:22.150Z</time>
      </trkpt>
      <trkpt lat="46.76907" lon="0.68365">
        <ele>114.14</ele>
        <time>2023-06-08T02:39:33.044Z</time>
      </trkpt>
      <trkpt lat="46.7691" lon="0.68361">
        <ele>114.43</ele>
        <time>2023-06-08T02:39:43.939Z</time>
      </trkpt>
      <trkpt lat="46.76913" lon="0.68356">
        <ele>114.76</ele>
        <time>2023-06-08T02:39:54.834Z</time>
      </trkpt>
      <trkpt lat="46.76915" lon="0.68354">
        <ele>114.92</ele>
        <time>2023-06-08T02:40:05.730Z</time>
      </trkpt>
      <trkpt lat="46.76924" lon="0.68344">
        <ele>115.8</ele>
        <time>2023-06-08T02:40:16.627Z</time>
      </trkpt>
      <trkpt lat="46.76931" lon="0.68336">
        <ele>116.4</ele>
        <time>2023-06-08T02:40:27.526Z</time>
      </trkpt>
      <trkpt lat="46.76935" lon="0.68332">
        <ele>116.66</ele>
        <time>2023-06-08T02:40:38.426Z</time>
      </trkpt>
      <trkpt lat="46.76938" lon="0.68328">
        <ele>116.9</ele>
        <time>2023-06-08T02:40:49.326Z</time>
      </trkpt>
      <trkpt lat="46.76946" lon="0.6832">
        <ele>117.34</ele>
        <time>2023-06-08T02:41:00.228Z</time>
      </trkpt>
      <trkpt lat="46.7696" lon="0.68305">
        <ele>118.12</ele>
        <time>2023-06-08T02:41:11.133Z</time>
      </trkpt>
      <trkpt lat="46.76964" lon="0.68301">
        <ele>118.29</ele>
        <time>2023-06-08T02:41:22.038Z</time>
      </trkpt>
      <trkpt lat="46.76971" lon="0.68293">
        <ele>118.57</ele>
        <time>2023-06-08T02:41:32.945Z</time>
      </trkpt>
      <trkpt lat="46.76975" lon="0.68288">
        <ele>118.69</ele>
        <time>2023-06-08T02:41:43.853Z</time>
      </trkpt>
      <trkpt lat="46.76987" lon="0.68282">
        <ele>118.98</ele>
        <time>2023-06-08T02:41:54.763Z</time>
      </trkpt>
      <trkpt lat="46.76995" lon="0.68277">
        <ele>119.26</ele>
        <time>2023-06-08T02:42:05.674Z</time>
      </trkpt>
      <trkpt lat="46.77004" lon="0.68273">
        <ele>119.61</ele>
        <time>2023-06-08T02:42:16.587Z</time>
      </trkpt>
      <trkpt lat="46.77008" lon="0.68271">
        <ele>119.81</ele>
        <time>2023-06-08T02:42:27.500Z</time>
      </trkpt>
      <trkpt lat="46.77015" lon="0.68267">
        <ele>120.23</ele>
        <time>2023-06-08T02:42:38.414Z</time>
      </trkpt>
      <trkpt lat="46.77016" lon="0.68266">
        <ele>120.33</ele>
        <time>2023-06-08T02:42:49.329Z</time>
      </trkpt>
      <trkpt lat="46.77021" lon="0.68263">
        <ele>120.63</ele>
        <time>2023-06-08T02:43:00.244Z</time>
      </trkpt>
      <trkpt lat="46.77025" lon="0.68261">
        <ele>120.96</ele>
        <time>2023-06-08T02:43:11.160Z</time>
      </trkpt>
      <trkpt lat="46.77029" lon="0.68258">
        <ele>121.33</ele>
        <time>2023-06-08T02:43:22.077Z</time>
      </trkpt>
      <trkpt lat="46.77033" lon="0.68255">
        <ele>121.75</ele>
        <time>2023-06-08T02:43:32.995Z</time>
      </trkpt>
      <trkpt lat="46.77041" lon="0.6825">
        <ele>122.66</ele>
        <time>2023-06-08T02:43:43.914Z</time>
      </trkpt>
      <trkpt lat="46.77044" lon="0.68246">
        <ele>123.14</ele>
        <time>2023-06-08T02:43:54.834Z</time>
      </trkpt>
      <trkpt lat="46.77051" lon="0.68237">
        <ele>123.98</ele>
        <time>2023-06-08T02:44:05.755Z</time>
      </trkpt>
      <trkpt lat="46.77057" lon="0.6823">
        <ele>124.58</ele>
        <time>2023-06-08T02:44:16.677Z</time>
      </trkpt>
      <trkpt lat="46.77066" lon="0.68213">
        <ele>125.8</ele>
        <time>2023-06-08T02:44:27.602Z</time>
      </trkpt>
      <trkpt lat="46.77076" lon="0.68195">
        <ele>126.44</ele>
        <time>2023-06-08T02:44:38.529Z</time>
      </trkpt>
      <trkpt lat="46.77082" lon="0.68184">
        <ele>127.12</ele>
        <time>2023-06-08T02:44:49.458Z</time>
      </trkpt>
      <trkpt lat="46.77082" lon="0.68184">
        <ele>127.12</ele>
        <time>2023-06-08T02:45:00.387Z</time>
      </trkpt>
      <trkpt lat="46.7709" lon="0.68164">
        <ele>128.45</ele>
        <time>2023-06-08T02:45:11.318Z</time>
      </trkpt>
      <trkpt lat="46.77091" lon="0.68162">
        <ele>128.59</ele>
        <time>2023-06-08T02:45:22.250Z</time>
      </trkpt>
      <trkpt lat="46.77103" lon="0.68143">
        <ele>129.97</ele>
        <time>2023-06-08T02:45:33.185Z</time>
      </trkpt>
      <trkpt lat="46.77112" lon="0.68128">
        <ele>131.09</ele>
        <time>2023-06-08T02:45:44.122Z</time>
      </trkpt>
      <trkpt lat="46.77119" lon="0.6812">
        <ele>131.83</ele>
        <time>2023-06-08T02:45:55.060Z</time>
      </trkpt>
      <trkpt lat="46.77122" lon="0.68115">
        <ele>132.16</ele>
        <time>2023-06-08T02:46:05.999Z</time>
      </trkpt>
      <trkpt lat="46.77125" lon="0.68111">
        <ele>132.45</ele>
        <time>2023-06-08T02:46:16.939Z</time>
      </trkpt>
      <trkpt lat="46.77129" lon="0.68107">
        <ele>132.7</ele>
        <time>2023-06-08T02:46:27.879Z</time>
      </trkpt>
      <trkpt lat="46.77131" lon="0.68104">
        <ele>132.82</ele>
        <time>2023-06-08T02:46:38.820Z</time>
      </trkpt>
      <trkpt lat="46.77133" lon="0.68103">
        <ele>132.91</ele>
        <time>2023-06-08T02:46:49.761Z</time>
      </trkpt>
      <trkpt lat="46.77137" lon="0.681">
        <ele>133.09</ele>
        <time>2023-06-08T02:47:00.703Z</time>
      </trkpt>
      <trkpt lat="46.77145" lon="0.68094">
        <ele>133.39</ele>
        <time>2023-06-08T02:47:11.646Z</time>
      </trkpt>
      <trkpt lat="46.77149" lon="0.68092">
        <ele>133.52</ele>
        <time>2023-06-08T02:47:22.590Z</time>
      </trkpt>
      <trkpt lat="46.77157" lon="0.68086">
        <ele>133.71</ele>
        <time>2023-06-08T02:47:33.535Z</time>
      </trkpt>
      <trkpt lat="46.77161" lon="0.68083">
        <ele>133.76</ele>
        <time>2023-06-08T02:47:44.481Z</time>
      </trkpt>
      <trkpt lat="46.77177" lon="0.68072">
        <ele>133.88</ele>
        <time>2023-06-08T02:47:55.430Z</time>
      </trkpt>
      <trkpt lat="46.77193" lon="0.6806">
        <ele>134.17</ele>
        <time>2023-06-08T02:48:06.382Z</time>
      </trkpt>
      <trkpt lat="46.77201" lon="0.68055">
        <ele>134.25</ele>
        <time>2023-06-08T02:48:17.335Z</time>
      </trkpt>
      <trkpt lat="46.77213" lon="0.68046">
        <ele>134.31</ele>
        <time>2023-06-08T02:48:28.290Z</time>
      </trkpt>
      <trkpt lat="46.7729" lon="0.67992">
        <ele>134.53</ele>
        <time>2023-06-08T02:48:39.259Z</time>
      </trkpt>
      <trkpt lat="46.77298" lon="0.67987">
        <ele>134.59</ele>
        <time>2023-06-08T02:48:50.229Z</time>
      </trkpt>
      <trkpt lat="46.77306" lon="0.67981">
        <ele>134.69</ele>
        <time>2023-06-08T02:49:01.201Z</time>
      </trkpt>
      <trkpt lat="46.77309" lon="0.67979">
        <ele>134.74</ele>
        <time>2023-06-08T02:49:12.173Z</time>
      </trkpt>
      <trkpt lat="46.7731" lon="0.67978">
        <ele>134.77</ele>
        <time>2023-06-08T02:49:23.146Z</time>
      </trkpt>
      <trkpt lat="46.77314" lon="0.67975">
        <ele>134.87</ele>
        <time>2023-06-08T02:49:34.119Z</time>
      </trkpt>
      <trkpt lat="46.77326" lon="0.67966">
        <ele>135.21</ele>
        <time>2023-06-08T02:49:45.094Z</time>
      </trkpt>
      <trkpt lat="46.77334" lon="0.6796">
        <ele>135.39</ele>
        <time>2023-06-08T02:49:56.071Z</time>
      </trkpt>
      <trkpt lat="46.77338" lon="0.67957">
        <ele>135.46</ele>
        <time>2023-06-08T02:50:07.049Z</time>
      </trkpt>
      <trkpt lat="46.77344" lon="0.67952">
        <ele>135.53</ele>
        <time>2023-06-08T02:50:18.028Z</time>
      </trkpt>
      <trkpt lat="46.77346" lon="0.6795">
        <ele>135.56</ele>
        <time>2023-06-08T02:50:29.007Z</time>
      </trkpt>
      <trkpt lat="46.77355" lon="0.67936">
        <ele>135.63</ele>
        <time>2023-06-08T02:50:39.988Z</time>
      </trkpt>
      <trkpt lat="46.77362" lon="0.67927">
        <ele>135.64</ele>
        <time>2023-06-08T02:50:50.971Z</time>
      </trkpt>
      <trkpt lat="46.77365" lon="0.67922">
        <ele>135.63</ele>
        <time>2023-06-08T02:51:01.954Z</time>
      </trkpt>
      <trkpt lat="46.77371" lon="0.67913">
        <ele>135.57</ele>
        <time>2023-06-08T02:51:12.939Z</time>
      </trkpt>
      <trkpt lat="46.77378" lon="0.67904">
        <ele>135.47</ele>
        <time>2023-06-08T02:51:23.925Z</time>
      </trkpt>
      <trkpt lat="46.77387" lon="0.6789">
        <ele>135.29</ele>
        <time>2023-06-08T02:51:34.913Z</time>
      </trkpt>
      <trkpt lat="46.77394" lon="0.67881">
        <ele>135.13</ele>
        <time>2023-06-08T02:51:45.903Z</time>
      </trkpt>
      <trkpt lat="46.774" lon="0.67872">
        <ele>134.95</ele>
        <time>2023-06-08T02:51:56.894Z</time>
      </trkpt>
      <trkpt lat="46.77406" lon="0.67862">
        <ele>134.77</ele>
        <time>2023-06-08T02:52:07.887Z</time>
      </trkpt>
      <trkpt lat="46.77418" lon="0.67842">
        <ele>134.51</ele>
        <time>2023-06-08T02:52:18.883Z</time>
      </trkpt>
      <trkpt lat="46.77432" lon="0.67819">
        <ele>134.42</ele>
        <time>2023-06-08T02:52:29.882Z</time>
      </trkpt>
      <trkpt lat="46.7744" lon="0.67804">
        <ele>134.42</ele>
        <time>2023-06-08T02:52:40.883Z</time>
      </trkpt>
      <trkpt lat="46.77449" lon="0.6779">
        <ele>134.46</ele>
        <time>2023-06-08T02:52:51.886Z</time>
      </trkpt>
      <trkpt lat="46.77454" lon="0.6778">
        <ele>134.51</ele>
        <time>2023-06-08T02:53:02.891Z</time>
      </trkpt>
      <trkpt lat="46.77466" lon="0.67762">
        <ele>134.66</ele>
        <time>2023-06-08T02:53:13.898Z</time>
      </trkpt>
      <trkpt lat="46.77472" lon="0.67751">
        <ele>134.68</ele>
        <time>2023-06-08T02:53:24.907Z</time>
      </trkpt>
      <trkpt lat="46.77472" lon="0.67751">
        <ele>134.68</ele>
        <time>2023-06-08T02:53:35.916Z</time>
      </trkpt>
      <trkpt lat="46.77478" lon="0.67742">
        <ele>134.66</ele>
        <time>2023-06-08T02:53:46.926Z</time>
      </trkpt>
      <trkpt lat="46.77484" lon="0.67733">
        <ele>134.7</ele>
        <time>2023-06-08T02:53:57.938Z</time>
      </trkpt>
      <trkpt lat="46.77494" lon="0.67719">
        <ele>134.85</ele>
        <time>2023-06-08T02:54:08.952Z</time>
      </trkpt>
      <trkpt lat="46.77519" lon="0.67681">
        <ele>135.37</ele>
        <time>2023-06-08T02:54:19.972Z</time>
      </trkpt>
      <trkpt lat="46.77537" lon="0.67653">
        <ele>135.87</ele>
        <time>2023-06-08T02:54:30.996Z</time>
      </trkpt>
      <trkpt lat="46.77556" lon="0.67625">
        <ele>136.43</ele>
        <time>2023-06-08T02:54:42.024Z</time>
      </trkpt>
      <trkpt lat="46.77562" lon="0.67616">
        <ele>136.56</ele>
        <time>2023-06-08T02:54:53.054Z</time>
      </trkpt>
      <trkpt lat="46.77579" lon="0.67604">
        <ele>136.86</ele>
        <time>2023-06-08T02:55:04.087Z</time>
      </trkpt>
      <trkpt lat="46.77611" lon="0.67582">
        <ele>137.37</ele>
        <time>2023-06-08T02:55:15.125Z</time>
      </trkpt>
      <trkpt lat="46.7762" lon="0.67576">
        <ele>137.52</ele>
        <time>2023-06-08T02:55:26.165Z</time>
      </trkpt>
      <trkpt lat="46.77636" lon="0.67565">
        <ele>137.86</ele>
        <time>2023-06-08T02:55:37.208Z</time>
      </trkpt>
      <trkpt lat="46.77644" lon="0.67559">
        <ele>137.99</ele>
        <time>2023-06-08T02:55:48.252Z</time>
      </trkpt>
      <trkpt lat="46.77647" lon="0.67557">
        <ele>138.02</ele>
        <time>2023-06-08T02:55:59.297Z</time>
      </trkpt>
      <trkpt lat="46.77651" lon="0.67551">
        <ele>138.08</ele>
        <time>2023-06-08T02:56:10.343Z</time>
      </trkpt>
      <trkpt lat="46.77656" lon="0.67541">
        <ele>138.11</ele>
        <time>2023-06-08T02:56:21.390Z</time>
      </trkpt>
      <trkpt lat="46.77674" lon="0.6751">
        <ele>138.13</ele>
        <time>2023-06-08T02:56:32.441Z</time>
      </trkpt>
      <trkpt lat="46.77674" lon="0.6751">
        <ele>138.13</ele>
        <time>2023-06-08T02:56:43.492Z</time>
      </trkpt>
      <trkpt lat="46.77704" lon="0.67482">
        <ele>138.24</ele>
        <time>2023-06-08T02:56:54.549Z</time>
      </trkpt>
      <trkpt lat="46.77712" lon="0.67475">
        <ele>138.23</ele>
        <time>2023-06-08T02:57:05.607Z</time>
      </trkpt>
      <trkpt lat="46.77719" lon="0.67468">
        <ele>138.14</ele>
        <time>2023-06-08T02:57:16.667Z</time>
      </trkpt>
      <trkpt lat="46.77731" lon="0.67458">
        <ele>137.97</ele>
        <time>2023-06-08T02:57:27.729Z</time>
      </trkpt>
      <trkpt lat="46.7775" lon="0.6744">
        <ele>137.83</ele>
        <time>2023-06-08T02:57:38.795Z</time>
      </trkpt>
      <trkpt lat="46.77769" lon="0.67423">
        <ele>137.64</ele>
        <time>2023-06-08T02:57:49.864Z</time>
      </trkpt>
      <trkpt lat="46.77776" lon="0.67416">
        <ele>137.54</ele>
        <time>2023-06-08T02:58:00.935Z</time>
      </trkpt>
      <trkpt lat="46.7778" lon="0.67412">
        <ele>137.46</ele>
        <time>2023-06-08T02:58:12.006Z</time>
      </trkpt>
      <trkpt lat="46.77791" lon="0.67402">
        <ele>137.1</ele>
        <time>2023-06-08T02:58:23.080Z</time>
      </trkpt>
      <trkpt lat="46.778" lon="0.67394">
        <ele>136.86</ele>
        <time>2023-06-08T02:58:34.155Z</time>
      </trkpt>
      <trkpt lat="46.7783" lon="0.67388">
        <ele>136.15</ele>
        <time>2023-06-08T02:58:45.235Z</time>
      </trkpt>
      <trkpt lat="46.7787" lon="0.67379">
        <ele>135.13</ele>
        <time>2023-06-08T02:58:56.322Z</time>
      </trkpt>
      <trkpt lat="46.77879" lon="0.67377">
        <ele>134.93</ele>
        <time>2023-06-08T02:59:07.410Z</time>
      </trkpt>
      <trkpt lat="46.77897" lon="0.67374">
        <ele>134.61</ele>
        <time>2023-06-08T02:59:18.501Z</time>
      </trkpt>
      <trkpt lat="46.77906" lon="0.67372">
        <ele>134.49</ele>
        <time>2023-06-08T02:59:29.593Z</time>
      </trkpt>
      <trkpt lat="46.77923" lon="0.67368">
        <ele>134.3</ele>
        <time>2023-06-08T02:59:40.688Z</time>
      </trkpt>
      <trkpt lat="46.77927" lon="0.67364">
        <ele>134.25</ele>
        <time>2023-06-08T02:59:51.784Z</time>
      </trkpt>
      <trkpt lat="46.77931" lon="0.6736">
        <ele>134.18</ele>
        <time>2023-06-08T03:00:02.881Z</time>
      </trkpt>
      <trkpt lat="46.77934" lon="0.67356">
        <ele>134.09</ele>
        <time>2023-06-08T03:00:13.978Z</time>
      </trkpt>
      <trkpt lat="46.77938" lon="0.67353">
        <ele>133.97</ele>
        <time>2023-06-08T03:00:25.076Z</time>
      </trkpt>
      <trkpt lat="46.77949" lon="0.67341">
        <ele>133.5</ele>
        <time>2023-06-08T03:00:36.176Z</time>
      </trkpt>
      <trkpt lat="46.77957" lon="0.67334">
        <ele>133.25</ele>
        <time>2023-06-08T03:00:47.278Z</time>
      </trkpt>
      <trkpt lat="46.77964" lon="0.67326">
        <ele>133.05</ele>
        <time>2023-06-08T03:00:58.381Z</time>
      </trkpt>
      <trkpt lat="46.77975" lon="0.67315">
        <ele>132.81</ele>
        <time>2023-06-08T03:01:09.486Z</time>
      </trkpt>
      <trkpt lat="46.77983" lon="0.67308">
        <ele>132.62</ele>
        <time>2023-06-08T03:01:20.593Z</time>
      </trkpt>
      <trkpt lat="46.77997" lon="0.67293">
        <ele>132.15</ele>
        <time>2023-06-08T03:01:31.703Z</time>
      </trkpt>
      <trkpt lat="46.78012" lon="0.67278">
        <ele>131.73</ele>
        <time>2023-06-08T03:01:42.815Z</time>
      </trkpt>
      <trkpt lat="46.78016" lon="0.67274">
        <ele>131.64</ele>
        <time>2023-06-08T03:01:53.928Z</time>
      </trkpt>
      <trkpt lat="46.78018" lon="0.67272">
        <ele>131.61</ele>
        <time>2023-06-08T03:02:05.042Z</time>
      </trkpt>
      <trkpt lat="46.78024" lon="0.6727">
        <ele>131.54</ele>
        <time>2023-06-08T03:02:16.157Z</time>
      </trkpt>
      <trkpt lat="46.78055" lon="0.67259">
        <ele>131.49</ele>
        <time>2023-06-08T03:02:27.277Z</time>
      </trkpt>
      <trkpt lat="46.78063" lon="0.67256">
        <ele>131.55</ele>
        <time>2023-06-08T03:02:38.398Z</time>
      </trkpt>
      <trkpt lat="46.78068" lon="0.67254">
        <ele>131.62</ele>
        <time>2023-06-08T03:02:49.520Z</time>
      </trkpt>
      <trkpt lat="46.78072" lon="0.67253">
        <ele>131.72</ele>
        <time>2023-06-08T03:03:00.643Z</time>
      </trkpt>
      <trkpt lat="46.78077" lon="0.67251">
        <ele>131.86</ele>
        <time>2023-06-08T03:03:11.766Z</time>
      </trkpt>
      <trkpt lat="46.7808" lon="0.6725">
        <ele>132</ele>
        <time>2023-06-08T03:03:22.890Z</time>
      </trkpt>
      <trkpt lat="46.78081" lon="0.6725">
        <ele>132.04</ele>
        <time>2023-06-08T03:03:34.014Z</time>
      </trkpt>
      <trkpt lat="46.7809" lon="0.67251">
        <ele>132.45</ele>
        <time>2023-06-08T03:03:45.139Z</time>
      </trkpt>
      <trkpt lat="46.78103" lon="0.67254">
        <ele>133.13</ele>
        <time>2023-06-08T03:03:56.267Z</time>
      </trkpt>
      <trkpt lat="46.7813" lon="0.67258">
        <ele>134.72</ele>
        <time>2023-06-08T03:04:07.399Z</time>
      </trkpt>
      <trkpt lat="46.78139" lon="0.67259">
        <ele>135.19</ele>
        <time>2023-06-08T03:04:18.532Z</time>
      </trkpt>
      <trkpt lat="46.78143" lon="0.67261">
        <ele>135.43</ele>
        <time>2023-06-08T03:04:29.666Z</time>
      </trkpt>
      <trkpt lat="46.78152" lon="0.67265">
        <ele>135.84</ele>
        <time>2023-06-08T03:04:40.802Z</time>
      </trkpt>
      <trkpt lat="46.7816" lon="0.6727">
        <ele>136.16</ele>
        <time>2023-06-08T03:04:51.939Z</time>
      </trkpt>
      <trkpt lat="46.78169" lon="0.67274">
        <ele>136.38</ele>
        <time>2023-06-08T03:05:03.077Z</time>
      </trkpt>
      <trkpt lat="46.78173" lon="0.67276">
        <ele>136.44</ele>
        <time>2023-06-08T03:05:14.216Z</time>
      </trkpt>
      <trkpt lat="46.78173" lon="0.67276">
        <ele>136.44</ele>
        <time>2023-06-08T03:05:25.355Z</time>
      </trkpt>
      <trkpt lat="46.78177" lon="0.67274">
        <ele>136.47</ele>
        <time>2023-06-08T03:05:36.495Z</time>
      </trkpt>
      <trkpt lat="46.7819" lon="0.67269">
        <ele>136.49</ele>
        <time>2023-06-08T03:05:47.637Z</time>
      </trkpt>
      <trkpt lat="46.78199" lon="0.67265">
        <ele>136.47</ele>
        <time>2023-06-08T03:05:58.780Z</time>
      </trkpt>
      <trkpt lat="46.78213" lon="0.67259">
        <ele>136.39</ele>
        <time>2023-06-08T03:06:09.926Z</time>
      </trkpt>
      <trkpt lat="46.78225" lon="0.67262">
        <ele>136.34</ele>
        <time>2023-06-08T03:06:21.074Z</time>
      </trkpt>
      <trkpt lat="46.78234" lon="0.67264">
        <ele>136.2</ele>
        <time>2023-06-08T03:06:32.223Z</time>
      </trkpt>
      <trkpt lat="46.78265" lon="0.67271">
        <ele>136.33</ele>
        <time>2023-06-08T03:06:43.377Z</time>
      </trkpt>
      <trkpt lat="46.78291" lon="0.67278">
        <ele>136.31</ele>
        <time>2023-06-08T03:06:54.535Z</time>
      </trkpt>
      <trkpt lat="46.783" lon="0.6728">
        <ele>136.35</ele>
        <time>2023-06-08T03:07:05.695Z</time>
      </trkpt>
      <trkpt lat="46.78305" lon="0.67281">
        <ele>136.4</ele>
        <time>2023-06-08T03:07:16.856Z</time>
      </trkpt>
      <trkpt lat="46.78309" lon="0.67281">
        <ele>136.44</ele>
        <time>2023-06-08T03:07:28.017Z</time>
      </trkpt>
      <trkpt lat="46.78335" lon="0.67283">
        <ele>136.79</ele>
        <time>2023-06-08T03:07:39.183Z</time>
      </trkpt>
      <trkpt lat="46.78339" lon="0.67283">
        <ele>136.82</ele>
        <time>2023-06-08T03:07:50.349Z</time>
      </trkpt>
      <trkpt lat="46.78357" lon="0.67272">
        <ele>137.01</ele>
        <time>2023-06-08T03:08:01.518Z</time>
      </trkpt>
      <trkpt lat="46.78357" lon="0.67272">
        <ele>137.01</ele>
        <time>2023-06-08T03:08:12.687Z</time>
      </trkpt>
      <trkpt lat="46.78383" lon="0.6725">
        <ele>137.45</ele>
        <time>2023-06-08T03:08:23.861Z</time>
      </trkpt>
      <trkpt lat="46.78395" lon="0.6724">
        <ele>137.55</ele>
        <time>2023-06-08T03:08:35.037Z</time>
      </trkpt>
      <trkpt lat="46.78406" lon="0.6723">
        <ele>137.58</ele>
        <time>2023-06-08T03:08:46.215Z</time>
      </trkpt>
      <trkpt lat="46.78422" lon="0.67217">
        <ele>137.35</ele>
        <time>2023-06-08T03:08:57.396Z</time>
      </trkpt>
      <trkpt lat="46.7843" lon="0.6721">
        <ele>137.27</ele>
        <time>2023-06-08T03:09:08.579Z</time>
      </trkpt>
      <trkpt lat="46.78437" lon="0.67204">
        <ele>137.23</ele>
        <time>2023-06-08T03:09:19.763Z</time>
      </trkpt>
      <trkpt lat="46.78461" lon="0.67184">
        <ele>137.17</ele>
        <time>2023-06-08T03:09:30.951Z</time>
      </trkpt>
      <trkpt lat="46.78468" lon="0.67178">
        <ele>137.2</ele>
        <time>2023-06-08T03:09:42.141Z</time>
      </trkpt>
      <trkpt lat="46.78484" lon="0.67164">
        <ele>137.38</ele>
        <time>2023-06-08T03:09:53.334Z</time>
      </trkpt>
      <trkpt lat="46.78492" lon="0.67158">
        <ele>137.44</ele>
        <time>2023-06-08T03:10:04.528Z</time>
      </trkpt>
      <trkpt lat="46.785" lon="0.67151">
        <ele>137.45</ele>
        <time>2023-06-08T03:10:15.724Z</time>
      </trkpt>
      <trkpt lat="46.78511" lon="0.67142">
        <ele>137.42</ele>
        <time>2023-06-08T03:10:26.922Z</time>
      </trkpt>
      <trkpt lat="46.78519" lon="0.67135">
        <ele>137.43</ele>
        <time>2023-06-08T03:10:38.121Z</time>
      </trkpt>
      <trkpt lat="46.78542" lon="0.67115">
        <ele>137.49</ele>
        <time>2023-06-08T03:10:49.325Z</time>
      </trkpt>
      <trkpt lat="46.78554" lon="0.67105">
        <ele>137.56</ele>
        <time>2023-06-08T03:11:00.531Z</time>
      </trkpt>
      <trkpt lat="46.78566" lon="0.67095">
        <ele>137.68</ele>
        <time>2023-06-08T03:11:11.739Z</time>
      </trkpt>
      <trkpt lat="46.78572" lon="0.6709">
        <ele>137.76</ele>
        <time>2023-06-08T03:11:22.948Z</time>
      </trkpt>
      <trkpt lat="46.78573" lon="0.67088">
        <ele>137.78</ele>
        <time>2023-06-08T03:11:34.157Z</time>
      </trkpt>
      <trkpt lat="46.7859" lon="0.67058">
        <ele>138.19</ele>
        <time>2023-06-08T03:11:45.371Z</time>
      </trkpt>
      <trkpt lat="46.78598" lon="0.67044">
        <ele>138.35</ele>
        <time>2023-06-08T03:11:56.587Z</time>
      </trkpt>
      <trkpt lat="46.78625" lon="0.66975">
        <ele>139.07</ele>
        <time>2023-06-08T03:12:07.811Z</time>
      </trkpt>
      <trkpt lat="46.78643" lon="0.66929">
        <ele>139.61</ele>
        <time>2023-06-08T03:12:19.041Z</time>
      </trkpt>
      <trkpt lat="46.78661" lon="0.66884">
        <ele>140.09</ele>
        <time>2023-06-08T03:12:30.277Z</time>
      </trkpt>
      <trkpt lat="46.78666" lon="0.66872">
        <ele>140.17</ele>
        <time>2023-06-08T03:12:41.514Z</time>
      </trkpt>
      <trkpt lat="46.78684" lon="0.66827">
        <ele>140.32</ele>
        <time>2023-06-08T03:12:52.757Z</time>
      </trkpt>
      <trkpt lat="46.78688" lon="0.66816">
        <ele>140.43</ele>
        <time>2023-06-08T03:13:04.002Z</time>
      </trkpt>
      <trkpt lat="46.78693" lon="0.66804">
        <ele>140.49</ele>
        <time>2023-06-08T03:13:15.248Z</time>
      </trkpt>
      <trkpt lat="46.78724" lon="0.66725">
        <ele>140.52</ele>
        <time>2023-06-08T03:13:26.504Z</time>
      </trkpt>
      <trkpt lat="46.78747" lon="0.66669">
        <ele>140.41</ele>
        <time>2023-06-08T03:13:37.767Z</time>
      </trkpt>
      <trkpt lat="46.78753" lon="0.66651">
        <ele>140.32</ele>
        <time>2023-06-08T03:13:49.032Z</time>
      </trkpt>
      <trkpt lat="46.78762" lon="0.66629">
        <ele>140.14</ele>
        <time>2023-06-08T03:14:00.300Z</time>
      </trkpt>
      <trkpt lat="46.78767" lon="0.66617">
        <ele>140.09</ele>
        <time>2023-06-08T03:14:11.570Z</time>
      </trkpt>
      <trkpt lat="46.78769" lon="0.66612">
        <ele>140.09</ele>
        <time>2023-06-08T03:14:22.840Z</time>
      </trkpt>
      <trkpt lat="46.78771" lon="0.66606">
        <ele>140.1</ele>
        <time>2023-06-08T03:14:34.111Z</time>
      </trkpt>
      <trkpt lat="46.78776" lon="0.66595">
        <ele>140.17</ele>
        <time>2023-06-08T03:14:45.384Z</time>
      </trkpt>
      <trkpt lat="46.78785" lon="0.66572">
        <ele>140.39</ele>
        <time>2023-06-08T03:14:56.660Z</time>
      </trkpt>
      <trkpt lat="46.78789" lon="0.66561">
        <ele>140.48</ele>
        <time>2023-06-08T03:15:07.937Z</time>
      </trkpt>
      <trkpt lat="46.78794" lon="0.6655">
        <ele>140.53</ele>
        <time>2023-06-08T03:15:19.215Z</time>
      </trkpt>
      <trkpt lat="46.78805" lon="0.66521">
        <ele>140.61</ele>
        <time>2023-06-08T03:15:30.497Z</time>
      </trkpt>
      <trkpt lat="46.78818" lon="0.66487">
        <ele>140.73</ele>
        <time>2023-06-08T03:15:41.783Z</time>
      </trkpt>
      <trkpt lat="46.78827" lon="0.66465">
        <ele>140.77</ele>
        <time>2023-06-08T03:15:53.072Z</time>
      </trkpt>
      <trkpt lat="46.78834" lon="0.66448">
        <ele>140.82</ele>
        <time>2023-06-08T03:16:04.363Z</time>
      </trkpt>
      <trkpt lat="46.78845" lon="0.66419">
        <ele>140.79</ele>
        <time>2023-06-08T03:16:15.658Z</time>
      </trkpt>
      <trkpt lat="46.78856" lon="0.66391">
        <ele>140.85</ele>
        <time>2023-06-08T03:16:26.956Z</time>
      </trkpt>
      <trkpt lat="46.78863" lon="0.66374">
        <ele>140.84</ele>
        <time>2023-06-08T03:16:38.257Z</time>
      </trkpt>
      <trkpt lat="46.78869" lon="0.66359">
        <ele>140.78</ele>
        <time>2023-06-08T03:16:49.560Z</time>
      </trkpt>
      <trkpt lat="46.7887" lon="0.66357">
        <ele>140.78</ele>
        <time>2023-06-08T03:17:00.863Z</time>
      </trkpt>
      <trkpt lat="46.78873" lon="0.66344">
        <ele>140.99</ele>
        <time>2023-06-08T03:17:12.167Z</time>
      </trkpt>
      <trkpt lat="46.78914" lon="0.66379">
        <ele>142.08</ele>
        <time>2023-06-08T03:17:23.479Z</time>
      </trkpt>
      <trkpt lat="46.78951" lon="0.66427">
        <ele>143.21</ele>
        <time>2023-06-08T03:17:34.799Z</time>
      </trkpt>
      <trkpt lat="46.78961" lon="0.66439">
        <ele>143.51</ele>
        <time>2023-06-08T03:17:46.121Z</time>
      </trkpt>
      <trkpt lat="46.78965" lon="0.66443">
        <ele>143.59</ele>
        <time>2023-06-08T03:17:57.444Z</time>
      </trkpt>
      <trkpt lat="46.78972" lon="0.66451">
        <ele>143.67</ele>
        <time>2023-06-08T03:18:08.768Z</time>
      </trkpt>
      <trkpt lat="46.78975" lon="0.66455">
        <ele>143.67</ele>
        <time>2023-06-08T03:18:20.093Z</time>
      </trkpt>
      <trkpt lat="46.78975" lon="0.66455">
        <ele>143.67</ele>
        <time>2023-06-08T03:18:31.418Z</time>
      </trkpt>
      <trkpt lat="46.78979" lon="0.66457">
        <ele>143.64</ele>
        <time>2023-06-08T03:18:42.743Z</time>
      </trkpt>
      <trkpt lat="46.78996" lon="0.66466">
        <ele>143.46</ele>
        <time>2023-06-08T03:18:54.071Z</time>
      </trkpt>
      <trkpt lat="46.79004" lon="0.6647">
        <ele>143.46</ele>
        <time>2023-06-08T03:19:05.401Z</time>
      </trkpt>
      <trkpt lat="46.79012" lon="0.66475">
        <ele>143.55</ele>
        <time>2023-06-08T03:19:16.732Z</time>
      </trkpt>
      <trkpt lat="46.79025" lon="0.66482">
        <ele>143.72</ele>
        <time>2023-06-08T03:19:28.065Z</time>
      </trkpt>
      <trkpt lat="46.79029" lon="0.66484">
        <ele>143.75</ele>
        <time>2023-06-08T03:19:39.399Z</time>
      </trkpt>
      <trkpt lat="46.79042" lon="0.6649">
        <ele>143.77</ele>
        <time>2023-06-08T03:19:50.735Z</time>
      </trkpt>
      <trkpt lat="46.79046" lon="0.66493">
        <ele>143.82</ele>
        <time>2023-06-08T03:20:02.072Z</time>
      </trkpt>
      <trkpt lat="46.79058" lon="0.66499">
        <ele>144.09</ele>
        <time>2023-06-08T03:20:13.411Z</time>
      </trkpt>
      <trkpt lat="46.79062" lon="0.66501">
        <ele>144.15</ele>
        <time>2023-06-08T03:20:24.751Z</time>
      </trkpt>
      <trkpt lat="46.79075" lon="0.66508">
        <ele>144.22</ele>
        <time>2023-06-08T03:20:36.093Z</time>
      </trkpt>
      <trkpt lat="46.79079" lon="0.6651">
        <ele>144.27</ele>
        <time>2023-06-08T03:20:47.435Z</time>
      </trkpt>
      <trkpt lat="46.79083" lon="0.66513">
        <ele>144.35</ele>
        <time>2023-06-08T03:20:58.778Z</time>
      </trkpt>
      <trkpt lat="46.79087" lon="0.66515">
        <ele>144.46</ele>
        <time>2023-06-08T03:21:10.122Z</time>
      </trkpt>
      <trkpt lat="46.79095" lon="0.66519">
        <ele>144.72</ele>
        <time>2023-06-08T03:21:21.467Z</time>
      </trkpt>
      <trkpt lat="46.791" lon="0.66521">
        <ele>144.87</ele>
        <time>2023-06-08T03:21:32.813Z</time>
      </trkpt>
      <trkpt lat="46.79108" lon="0.66526">
        <ele>145.27</ele>
        <time>2023-06-08T03:21:44.160Z</time>
      </trkpt>
      <trkpt lat="46.79112" lon="0.66528">
        <ele>145.5</ele>
        <time>2023-06-08T03:21:55.508Z</time>
      </trkpt>
      <trkpt lat="46.79116" lon="0.66529">
        <ele>145.76</ele>
        <time>2023-06-08T03:22:06.857Z</time>
      </trkpt>
      <trkpt lat="46.7912" lon="0.66529">
        <ele>145.78</ele>
        <time>2023-06-08T03:22:18.206Z</time>
      </trkpt>
      <trkpt lat="46.79124" lon="0.6653">
        <ele>145.78</ele>
        <time>2023-06-08T03:22:29.556Z</time>
      </trkpt>
      <trkpt lat="46.79132" lon="0.66531">
        <ele>145.68</ele>
        <time>2023-06-08T03:22:40.907Z</time>
      </trkpt>
      <trkpt lat="46.79132" lon="0.66531">
        <ele>145.68</ele>
        <time>2023-06-08T03:22:52.258Z</time>
      </trkpt>
      <trkpt lat="46.79144" lon="0.66526">
        <ele>145.43</ele>
        <time>2023-06-08T03:23:03.611Z</time>
      </trkpt>
      <trkpt lat="46.79153" lon="0.66522">
        <ele>145.26</ele>
        <time>2023-06-08T03:23:14.966Z</time>
      </trkpt>
      <trkpt lat="46.79251" lon="0.66437">
        <ele>143.28</ele>
        <time>2023-06-08T03:23:26.339Z</time>
      </trkpt>
      <trkpt lat="46.79354" lon="0.66357">
        <ele>141.26</ele>
        <time>2023-06-08T03:23:37.731Z</time>
      </trkpt>
      <trkpt lat="46.7948" lon="0.66243">
        <ele>138.69</ele>
        <time>2023-06-08T03:23:49.147Z</time>
      </trkpt>
      <trkpt lat="46.79488" lon="0.66236">
        <ele>139.05</ele>
        <time>2023-06-08T03:24:00.564Z</time>
      </trkpt>
      <trkpt lat="46.79495" lon="0.6623">
        <ele>139.36</ele>
        <time>2023-06-08T03:24:11.982Z</time>
      </trkpt>
      <trkpt lat="46.79506" lon="0.66219">
        <ele>139.91</ele>
        <time>2023-06-08T03:24:23.402Z</time>
      </trkpt>
      <trkpt lat="46.79509" lon="0.66216">
        <ele>140.07</ele>
        <time>2023-06-08T03:24:34.823Z</time>
      </trkpt>
      <trkpt lat="46.7952" lon="0.66206">
        <ele>140.44</ele>
        <time>2023-06-08T03:24:46.246Z</time>
      </trkpt>
      <trkpt lat="46.79521" lon="0.66205">
        <ele>140.47</ele>
        <time>2023-06-08T03:24:57.669Z</time>
      </trkpt>
      <trkpt lat="46.79536" lon="0.66195">
        <ele>141.01</ele>
        <time>2023-06-08T03:25:09.095Z</time>
      </trkpt>
      <trkpt lat="46.7954" lon="0.66192">
        <ele>141.11</ele>
        <time>2023-06-08T03:25:20.522Z</time>
      </trkpt>
      <trkpt lat="46.79548" lon="0.66187">
        <ele>141.26</ele>
        <time>2023-06-08T03:25:31.950Z</time>
      </trkpt>
      <trkpt lat="46.79556" lon="0.66181">
        <ele>141.24</ele>
        <time>2023-06-08T03:25:43.380Z</time>
      </trkpt>
      <trkpt lat="46.79564" lon="0.66177">
        <ele>141.24</ele>
        <time>2023-06-08T03:25:54.811Z</time>
      </trkpt>
      <trkpt lat="46.79568" lon="0.66176">
        <ele>141.21</ele>
        <time>2023-06-08T03:26:06.243Z</time>
      </trkpt>
      <trkpt lat="46.79572" lon="0.66174">
        <ele>141.12</ele>
        <time>2023-06-08T03:26:17.675Z</time>
      </trkpt>
      <trkpt lat="46.79573" lon="0.66174">
        <ele>141.12</ele>
        <time>2023-06-08T03:26:29.107Z</time>
      </trkpt>
      <trkpt lat="46.79577" lon="0.66175">
        <ele>140.95</ele>
        <time>2023-06-08T03:26:40.540Z</time>
      </trkpt>
      <trkpt lat="46.79581" lon="0.66175">
        <ele>140.76</ele>
        <time>2023-06-08T03:26:51.974Z</time>
      </trkpt>
      <trkpt lat="46.79586" lon="0.66177">
        <ele>140.53</ele>
        <time>2023-06-08T03:27:03.408Z</time>
      </trkpt>
      <trkpt lat="46.7959" lon="0.6618">
        <ele>140.36</ele>
        <time>2023-06-08T03:27:14.843Z</time>
      </trkpt>
      <trkpt lat="46.79594" lon="0.66182">
        <ele>140.24</ele>
        <time>2023-06-08T03:27:26.279Z</time>
      </trkpt>
      <trkpt lat="46.79598" lon="0.66184">
        <ele>140.16</ele>
        <time>2023-06-08T03:27:37.716Z</time>
      </trkpt>
      <trkpt lat="46.79606" lon="0.66188">
        <ele>140.1</ele>
        <time>2023-06-08T03:27:49.154Z</time>
      </trkpt>
      <trkpt lat="46.79611" lon="0.66191">
        <ele>140.11</ele>
        <time>2023-06-08T03:28:00.593Z</time>
      </trkpt>
      <trkpt lat="46.79627" lon="0.66199">
        <ele>140.27</ele>
        <time>2023-06-08T03:28:12.035Z</time>
      </trkpt>
      <trkpt lat="46.79631" lon="0.66202">
        <ele>140.28</ele>
        <time>2023-06-08T03:28:23.477Z</time>
      </trkpt>
      <trkpt lat="46.79636" lon="0.66204">
        <ele>140.26</ele>
        <time>2023-06-08T03:28:34.920Z</time>
      </trkpt>
      <trkpt lat="46.7964" lon="0.66206">
        <ele>140.21</ele>
        <time>2023-06-08T03:28:46.364Z</time>
      </trkpt>
      <trkpt lat="46.79648" lon="0.6621">
        <ele>140.05</ele>
        <time>2023-06-08T03:28:57.809Z</time>
      </trkpt>
      <trkpt lat="46.79657" lon="0.66215">
        <ele>139.89</ele>
        <time>2023-06-08T03:29:09.256Z</time>
      </trkpt>
      <trkpt lat="46.79665" lon="0.66219">
        <ele>139.76</ele>
        <time>2023-06-08T03:29:20.704Z</time>
      </trkpt>
      <trkpt lat="46.79682" lon="0.66227">
        <ele>139.54</ele>
        <time>2023-06-08T03:29:32.155Z</time>
      </trkpt>
      <trkpt lat="46.7969" lon="0.66231">
        <ele>139.46</ele>
        <time>2023-06-08T03:29:43.607Z</time>
      </trkpt>
      <trkpt lat="46.79711" lon="0.66242">
        <ele>139.33</ele>
        <time>2023-06-08T03:29:55.063Z</time>
      </trkpt>
      <trkpt lat="46.79716" lon="0.66244">
        <ele>139.27</ele>
        <time>2023-06-08T03:30:06.520Z</time>
      </trkpt>
      <trkpt lat="46.7972" lon="0.66246">
        <ele>139.22</ele>
        <time>2023-06-08T03:30:17.977Z</time>
      </trkpt>
      <trkpt lat="46.79757" lon="0.66268">
        <ele>138.5</ele>
        <time>2023-06-08T03:30:29.441Z</time>
      </trkpt>
      <trkpt lat="46.79767" lon="0.66274">
        <ele>138.35</ele>
        <time>2023-06-08T03:30:40.906Z</time>
      </trkpt>
      <trkpt lat="46.79773" lon="0.66279">
        <ele>138.25</ele>
        <time>2023-06-08T03:30:52.372Z</time>
      </trkpt>
      <trkpt lat="46.79789" lon="0.66291">
        <ele>137.95</ele>
        <time>2023-06-08T03:31:03.841Z</time>
      </trkpt>
      <trkpt lat="46.79792" lon="0.66293">
        <ele>137.88</ele>
        <time>2023-06-08T03:31:15.311Z</time>
      </trkpt>
      <trkpt lat="46.79808" lon="0.66309">
        <ele>137.47</ele>
        <time>2023-06-08T03:31:26.784Z</time>
      </trkpt>
      <trkpt lat="46.79815" lon="0.66316">
        <ele>137.36</ele>
        <time>2023-06-08T03:31:38.258Z</time>
      </trkpt>
      <trkpt lat="46.79822" lon="0.66323">
        <ele>137.33</ele>
        <time>2023-06-08T03:31:49.734Z</time>
      </trkpt>
      <trkpt lat="46.79833" lon="0.66336">
        <ele>137.28</ele>
        <time>2023-06-08T03:32:01.212Z</time>
      </trkpt>
      <trkpt lat="46.7984" lon="0.66344">
        <ele>137.28</ele>
        <time>2023-06-08T03:32:12.691Z</time>
      </trkpt>
      <trkpt lat="46.79857" lon="0.66365">
        <ele>137.43</ele>
        <time>2023-06-08T03:32:24.174Z</time>
      </trkpt>
      <trkpt lat="46.79874" lon="0.66386">
        <ele>137.51</ele>
        <time>2023-06-08T03:32:35.661Z</time>
      </trkpt>
      <trkpt lat="46.79888" lon="0.66402">
        <ele>137.63</ele>
        <time>2023-06-08T03:32:47.150Z</time>
      </trkpt>
      <trkpt lat="46.79894" lon="0.66409">
        <ele>137.62</ele>
        <time>2023-06-08T03:32:58.641Z</time>
      </trkpt>
      <trkpt lat="46.79895" lon="0.6641">
        <ele>137.62</ele>
        <time>2023-06-08T03:33:10.132Z</time>
      </trkpt>
      <trkpt lat="46.79899" lon="0.66413">
        <ele>137.58</ele>
        <time>2023-06-08T03:33:21.624Z</time>
      </trkpt>
      <trkpt lat="46.79907" lon="0.6642">
        <ele>137.44</ele>
        <time>2023-06-08T03:33:33.117Z</time>
      </trkpt>
      <trkpt lat="46.79941" lon="0.6645">
        <ele>136.6</ele>
        <time>2023-06-08T03:33:44.616Z</time>
      </trkpt>
      <trkpt lat="46.79944" lon="0.66452">
        <ele>136.56</ele>
        <time>2023-06-08T03:33:56.116Z</time>
      </trkpt>
      <trkpt lat="46.79949" lon="0.66457">
        <ele>136.48</ele>
        <time>2023-06-08T03:34:07.617Z</time>
      </trkpt>
      <trkpt lat="46.79953" lon="0.6646">
        <ele>136.45</ele>
        <time>2023-06-08T03:34:19.119Z</time>
      </trkpt>
      <trkpt lat="46.79957" lon="0.66464">
        <ele>136.44</ele>
        <time>2023-06-08T03:34:30.621Z</time>
      </trkpt>
      <trkpt lat="46.7996" lon="0.66467">
        <ele>136.45</ele>
        <time>2023-06-08T03:34:42.124Z</time>
      </trkpt>
      <trkpt lat="46.79968" lon="0.66475">
        <ele>136.53</ele>
        <time>2023-06-08T03:34:53.628Z</time>
      </trkpt>
      <trkpt lat="46.79971" lon="0.66478">
        <ele>136.58</ele>
        <time>2023-06-08T03:35:05.133Z</time>
      </trkpt>
      <trkpt lat="46.79979" lon="0.66485">
        <ele>136.73</ele>
        <time>2023-06-08T03:35:16.640Z</time>
      </trkpt>
      <trkpt lat="46.80009" lon="0.66514">
        <ele>137.48</ele>
        <time>2023-06-08T03:35:28.152Z</time>
      </trkpt>
      <trkpt lat="46.80024" lon="0.66528">
        <ele>137.93</ele>
        <time>2023-06-08T03:35:39.667Z</time>
      </trkpt>
      <trkpt lat="46.80035" lon="0.66538">
        <ele>138.23</ele>
        <time>2023-06-08T03:35:51.184Z</time>
      </trkpt>
      <trkpt lat="46.80043" lon="0.66545">
        <ele>138.4</ele>
        <time>2023-06-08T03:36:02.703Z</time>
      </trkpt>
      <trkpt lat="46.80061" lon="0.66563">
        <ele>138.76</ele>
        <time>2023-06-08T03:36:14.225Z</time>
      </trkpt>
      <trkpt lat="46.80077" lon="0.66577">
        <ele>139.11</ele>
        <time>2023-06-08T03:36:25.750Z</time>
      </trkpt>
      <trkpt lat="46.80084" lon="0.66584">
        <ele>139.26</ele>
        <time>2023-06-08T03:36:37.277Z</time>
      </trkpt>
      <trkpt lat="46.8009" lon="0.6659">
        <ele>139.35</ele>
        <time>2023-06-08T03:36:48.805Z</time>
      </trkpt>
      <trkpt lat="46.80091" lon="0.66591">
        <ele>139.38</ele>
        <time>2023-06-08T03:37:00.333Z</time>
      </trkpt>
      <trkpt lat="46.80099" lon="0.66598">
        <ele>139.47</ele>
        <time>2023-06-08T03:37:11.862Z</time>
      </trkpt>
      <trkpt lat="46.80119" lon="0.66614">
        <ele>139.59</ele>
        <time>2023-06-08T03:37:23.395Z</time>
      </trkpt>
      <trkpt lat="46.80126" lon="0.66621">
        <ele>139.66</ele>
        <time>2023-06-08T03:37:34.929Z</time>
      </trkpt>
      <trkpt lat="46.80134" lon="0.66628">
        <ele>139.78</ele>
        <time>2023-06-08T03:37:46.465Z</time>
      </trkpt>
      <trkpt lat="46.80157" lon="0.66647">
        <ele>140.19</ele>
        <time>2023-06-08T03:37:58.005Z</time>
      </trkpt>
      <trkpt lat="46.80165" lon="0.66654">
        <ele>140.28</ele>
        <time>2023-06-08T03:38:09.547Z</time>
      </trkpt>
      <trkpt lat="46.80165" lon="0.66654">
        <ele>140.28</ele>
        <time>2023-06-08T03:38:21.089Z</time>
      </trkpt>
      <trkpt lat="46.80173" lon="0.6666">
        <ele>140.34</ele>
        <time>2023-06-08T03:38:32.632Z</time>
      </trkpt>
      <trkpt lat="46.80193" lon="0.66674">
        <ele>140.39</ele>
        <time>2023-06-08T03:38:44.179Z</time>
      </trkpt>
      <trkpt lat="46.80209" lon="0.66685">
        <ele>140.45</ele>
        <time>2023-06-08T03:38:55.728Z</time>
      </trkpt>
      <trkpt lat="46.80233" lon="0.66702">
        <ele>140.66</ele>
        <time>2023-06-08T03:39:07.282Z</time>
      </trkpt>
      <trkpt lat="46.80257" lon="0.6672">
        <ele>140.81</ele>
        <time>2023-06-08T03:39:18.840Z</time>
      </trkpt>
      <trkpt lat="46.80269" lon="0.66728">
        <ele>140.86</ele>
        <time>2023-06-08T03:39:30.400Z</time>
      </trkpt>
      <trkpt lat="46.80293" lon="0.66745">
        <ele>140.9</ele>
        <time>2023-06-08T03:39:41.964Z</time>
      </trkpt>
      <trkpt lat="46.80316" lon="0.66762">
        <ele>141.02</ele>
        <time>2023-06-08T03:39:53.533Z</time>
      </trkpt>
      <trkpt lat="46.80329" lon="0.66771">
        <ele>141.04</ele>
        <time>2023-06-08T03:40:05.104Z</time>
      </trkpt>
      <trkpt lat="46.80349" lon="0.66785">
        <ele>141.12</ele>
        <time>2023-06-08T03:40:16.678Z</time>
      </trkpt>
      <trkpt lat="46.80365" lon="0.66797">
        <ele>141.23</ele>
        <time>2023-06-08T03:40:28.255Z</time>
      </trkpt>
      <trkpt lat="46.80377" lon="0.66806">
        <ele>141.29</ele>
        <time>2023-06-08T03:40:39.834Z</time>
      </trkpt>
      <trkpt lat="46.80393" lon="0.66817">
        <ele>141.32</ele>
        <time>2023-06-08T03:40:51.416Z</time>
      </trkpt>
      <trkpt lat="46.80425" lon="0.6684">
        <ele>141.32</ele>
        <time>2023-06-08T03:41:03.004Z</time>
      </trkpt>
      <trkpt lat="46.80449" lon="0.66858">
        <ele>141.47</ele>
        <time>2023-06-08T03:41:14.596Z</time>
      </trkpt>
      <trkpt lat="46.80473" lon="0.66875">
        <ele>141.5</ele>
        <time>2023-06-08T03:41:26.193Z</time>
      </trkpt>
      <trkpt lat="46.80502" lon="0.66895">
        <ele>141.59</ele>
        <time>2023-06-08T03:41:37.795Z</time>
      </trkpt>
      <trkpt lat="46.80518" lon="0.66907">
        <ele>141.58</ele>
        <time>2023-06-08T03:41:49.400Z</time>
      </trkpt>
      <trkpt lat="46.80546" lon="0.66927">
        <ele>141.72</ele>
        <time>2023-06-08T03:42:01.010Z</time>
      </trkpt>
      <trkpt lat="46.80554" lon="0.66933">
        <ele>141.79</ele>
        <time>2023-06-08T03:42:12.621Z</time>
      </trkpt>
      <trkpt lat="46.8057" lon="0.66944">
        <ele>141.97</ele>
        <time>2023-06-08T03:42:24.235Z</time>
      </trkpt>
      <trkpt lat="46.80595" lon="0.66962">
        <ele>142.12</ele>
        <time>2023-06-08T03:42:35.853Z</time>
      </trkpt>
      <trkpt lat="46.80599" lon="0.66963">
        <ele>142.15</ele>
        <time>2023-06-08T03:42:47.472Z</time>
      </trkpt>
      <trkpt lat="46.8061" lon="0.66967">
        <ele>142.25</ele>
        <time>2023-06-08T03:42:59.093Z</time>
      </trkpt>
      <trkpt lat="46.80629" lon="0.66969">
        <ele>142.44</ele>
        <time>2023-06-08T03:43:10.717Z</time>
      </trkpt>
      <trkpt lat="46.80643" lon="0.6697">
        <ele>142.62</ele>
        <time>2023-06-08T03:43:22.343Z</time>
      </trkpt>
      <trkpt lat="46.80656" lon="0.66971">
        <ele>142.86</ele>
        <time>2023-06-08T03:43:33.971Z</time>
      </trkpt>
      <trkpt lat="46.80666" lon="0.66972">
        <ele>142.82</ele>
        <time>2023-06-08T03:43:45.601Z</time>
      </trkpt>
      <trkpt lat="46.80666" lon="0.66972">
        <ele>142.82</ele>
        <time>2023-06-08T03:43:57.231Z</time>
      </trkpt>
      <trkpt lat="46.80668" lon="0.6694">
        <ele>142.76</ele>
        <time>2023-06-08T03:44:08.864Z</time>
      </trkpt>
      <trkpt lat="46.80669" lon="0.66927">
        <ele>142.71</ele>
        <time>2023-06-08T03:44:20.499Z</time>
      </trkpt>
      <trkpt lat="46.80671" lon="0.66895">
        <ele>142.52</ele>
        <time>2023-06-08T03:44:32.137Z</time>
      </trkpt>
      <trkpt lat="46.80673" lon="0.66862">
        <ele>142.35</ele>
        <time>2023-06-08T03:44:43.779Z</time>
      </trkpt>
      <trkpt lat="46.80675" lon="0.66823">
        <ele>142.2</ele>
        <time>2023-06-08T03:44:55.425Z</time>
      </trkpt>
      <trkpt lat="46.80676" lon="0.66803">
        <ele>142.05</ele>
        <time>2023-06-08T03:45:07.073Z</time>
      </trkpt>
      <trkpt lat="46.80679" lon="0.66757">
        <ele>141.62</ele>
        <time>2023-06-08T03:45:18.726Z</time>
      </trkpt>
      <trkpt lat="46.8068" lon="0.66744">
        <ele>141.48</ele>
        <time>2023-06-08T03:45:30.381Z</time>
      </trkpt>
      <trkpt lat="46.80681" lon="0.66725">
        <ele>141.23</ele>
        <time>2023-06-08T03:45:42.038Z</time>
      </trkpt>
      <trkpt lat="46.80682" lon="0.66714">
        <ele>141.07</ele>
        <time>2023-06-08T03:45:53.696Z</time>
      </trkpt>
      <trkpt lat="46.80682" lon="0.66699">
        <ele>140.85</ele>
        <time>2023-06-08T03:46:05.356Z</time>
      </trkpt>
      <trkpt lat="46.80681" lon="0.66666">
        <ele>140.45</ele>
        <time>2023-06-08T03:46:17.020Z</time>
      </trkpt>
      <trkpt lat="46.80681" lon="0.66655">
        <ele>140.29</ele>
        <time>2023-06-08T03:46:28.685Z</time>
      </trkpt>
      <trkpt lat="46.80677" lon="0.66614">
        <ele>139.69</ele>
        <time>2023-06-08T03:46:40.354Z</time>
      </trkpt>
      <trkpt lat="46.80676" lon="0.66609">
        <ele>139.61</ele>
        <time>2023-06-08T03:46:52.024Z</time>
      </trkpt>
      <trkpt lat="46.80661" lon="0.66538">
        <ele>138.44</ele>
        <time>2023-06-08T03:47:03.702Z</time>
      </trkpt>
      <trkpt lat="46.80658" lon="0.6652">
        <ele>138.07</ele>
        <time>2023-06-08T03:47:15.382Z</time>
      </trkpt>
      <trkpt lat="46.80651" lon="0.66488">
        <ele>137.4</ele>
        <time>2023-06-08T03:47:27.066Z</time>
      </trkpt>
      <trkpt lat="46.80651" lon="0.66488">
        <ele>137.4</ele>
        <time>2023-06-08T03:47:38.750Z</time>
      </trkpt>
      <trkpt lat="46.80645" lon="0.66464">
        <ele>136.84</ele>
        <time>2023-06-08T03:47:50.437Z</time>
      </trkpt>
      <trkpt lat="46.80642" lon="0.66451">
        <ele>136.59</ele>
        <time>2023-06-08T03:48:02.125Z</time>
      </trkpt>
      <trkpt lat="46.80638" lon="0.66439">
        <ele>136.36</ele>
        <time>2023-06-08T03:48:13.815Z</time>
      </trkpt>
      <trkpt lat="46.80634" lon="0.66428">
        <ele>136.09</ele>
        <time>2023-06-08T03:48:25.506Z</time>
      </trkpt>
      <trkpt lat="46.80624" lon="0.66398">
        <ele>135.37</ele>
        <time>2023-06-08T03:48:37.201Z</time>
      </trkpt>
      <trkpt lat="46.80614" lon="0.66369">
        <ele>134.59</ele>
        <time>2023-06-08T03:48:48.899Z</time>
      </trkpt>
      <trkpt lat="46.8061" lon="0.66357">
        <ele>134.31</ele>
        <time>2023-06-08T03:49:00.599Z</time>
      </trkpt>
      <trkpt lat="46.80606" lon="0.66345">
        <ele>134.07</ele>
        <time>2023-06-08T03:49:12.300Z</time>
      </trkpt>
      <trkpt lat="46.80598" lon="0.66322">
        <ele>133.63</ele>
        <time>2023-06-08T03:49:24.004Z</time>
      </trkpt>
      <trkpt lat="46.80593" lon="0.66304">
        <ele>133.33</ele>
        <time>2023-06-08T03:49:35.710Z</time>
      </trkpt>
      <trkpt lat="46.80577" lon="0.66258">
        <ele>132.73</ele>
        <time>2023-06-08T03:49:47.422Z</time>
      </trkpt>
      <trkpt lat="46.80577" lon="0.66258">
        <ele>133.23</ele>
        <time>2023-06-08T03:49:59.134Z</time>
      </trkpt>
      <trkpt lat="46.80573" lon="0.66246">
        <ele>133.09</ele>
        <time>2023-06-08T03:50:10.847Z</time>
      </trkpt>
      <trkpt lat="46.80608" lon="0.66221">
        <ele>132.53</ele>
        <time>2023-06-08T03:50:22.566Z</time>
      </trkpt>
      <trkpt lat="46.80617" lon="0.66215">
        <ele>132.48</ele>
        <time>2023-06-08T03:50:34.287Z</time>
      </trkpt>
      <trkpt lat="46.80617" lon="0.66215">
        <ele>132.48</ele>
        <time>2023-06-08T03:50:46.008Z</time>
      </trkpt>
      <trkpt lat="46.80616" lon="0.66199">
        <ele>132.37</ele>
        <time>2023-06-08T03:50:57.731Z</time>
      </trkpt>
      <trkpt lat="46.80615" lon="0.66184">
        <ele>132.21</ele>
        <time>2023-06-08T03:51:09.455Z</time>
      </trkpt>
      <trkpt lat="46.80614" lon="0.66169">
        <ele>132.15</ele>
        <time>2023-06-08T03:51:21.181Z</time>
      </trkpt>
      <trkpt lat="46.80614" lon="0.66169">
        <ele>132.15</ele>
        <time>2023-06-08T03:51:32.907Z</time>
      </trkpt>
      <trkpt lat="46.80612" lon="0.66155">
        <ele>132.01</ele>
        <time>2023-06-08T03:51:44.635Z</time>
      </trkpt>
      <trkpt lat="46.80609" lon="0.66142">
        <ele>131.85</ele>
        <time>2023-06-08T03:51:56.364Z</time>
      </trkpt>
      <trkpt lat="46.80609" lon="0.6614">
        <ele>131.84</ele>
        <time>2023-06-08T03:52:08.093Z</time>
      </trkpt>
      <trkpt lat="46.80608" lon="0.66127">
        <ele>131.82</ele>
        <time>2023-06-08T03:52:19.824Z</time>
      </trkpt>
      <trkpt lat="46.80606" lon="0.66109">
        <ele>131.84</ele>
        <time>2023-06-08T03:52:31.557Z</time>
      </trkpt>
      <trkpt lat="46.80604" lon="0.66091">
        <ele>131.98</ele>
        <time>2023-06-08T03:52:43.292Z</time>
      </trkpt>
      <trkpt lat="46.80603" lon="0.66076">
        <ele>132.14</ele>
        <time>2023-06-08T03:52:55.028Z</time>
      </trkpt>
      <trkpt lat="46.80603" lon="0.66076">
        <ele>132.14</ele>
        <time>2023-06-08T03:53:06.764Z</time>
      </trkpt>
      <trkpt lat="46.80603" lon="0.66061">
        <ele>132.34</ele>
        <time>2023-06-08T03:53:18.502Z</time>
      </trkpt>
      <trkpt lat="46.80604" lon="0.66047">
        <ele>132.58</ele>
        <time>2023-06-08T03:53:30.242Z</time>
      </trkpt>
      <trkpt lat="46.80604" lon="0.66034">
        <ele>132.71</ele>
        <time>2023-06-08T03:53:41.983Z</time>
      </trkpt>
      <trkpt lat="46.80605" lon="0.66018">
        <ele>132.83</ele>
        <time>2023-06-08T03:53:53.726Z</time>
      </trkpt>
      <trkpt lat="46.80605" lon="0.66005">
        <ele>132.89</ele>
        <time>2023-06-08T03:54:05.470Z</time>
      </trkpt>
      <trkpt lat="46.80606" lon="0.65984">
        <ele>132.91</ele>
        <time>2023-06-08T03:54:17.217Z</time>
      </trkpt>
      <trkpt lat="46.80606" lon="0.65984">
        <ele>133.08</ele>
        <time>2023-06-08T03:54:28.964Z</time>
      </trkpt>
      <trkpt lat="46.80606" lon="0.6597">
        <ele>133.02</ele>
        <time>2023-06-08T03:54:40.712Z</time>
      </trkpt>
      <trkpt lat="46.80606" lon="0.6517">
        <ele>130.05</ele>
        <time>2023-06-08T03:54:52.548Z</time>
      </trkpt>
      <trkpt lat="46.80663" lon="0.65141">
        <ele>129.72</ele>
        <time>2023-06-08T03:55:04.394Z</time>
      </trkpt>
      <trkpt lat="46.80652" lon="0.64861">
        <ele>128.68</ele>
        <time>2023-06-08T03:55:16.271Z</time>
      </trkpt>
      <trkpt lat="46.80658" lon="0.64779">
        <ele>128.38</ele>
        <time>2023-06-08T03:55:28.157Z</time>
      </trkpt>
      <trkpt lat="46.80665" lon="0.64668">
        <ele>127.12</ele>
        <time>2023-06-08T03:55:40.055Z</time>
      </trkpt>
      <trkpt lat="46.8065" lon="0.64554">
        <ele>125.82</ele>
        <time>2023-06-08T03:55:51.966Z</time>
      </trkpt>
      <trkpt lat="46.80642" lon="0.64454">
        <ele>124.69</ele>
        <time>2023-06-08T03:56:03.888Z</time>
      </trkpt>
      <trkpt lat="46.80642" lon="0.64219">
        <ele>122.06</ele>
        <time>2023-06-08T03:56:15.836Z</time>
      </trkpt>
      <trkpt lat="46.80647" lon="0.6412">
        <ele>120.94</ele>
        <time>2023-06-08T03:56:27.794Z</time>
      </trkpt>
      <trkpt lat="46.80642" lon="0.6404">
        <ele>120.05</ele>
        <time>2023-06-08T03:56:39.761Z</time>
      </trkpt>
      <trkpt lat="46.80642" lon="0.64034">
        <ele>119.83</ele>
        <time>2023-06-08T03:56:51.729Z</time>
      </trkpt>
      <trkpt lat="46.80641" lon="0.64027">
        <ele>119.57</ele>
        <time>2023-06-08T03:57:03.698Z</time>
      </trkpt>
      <trkpt lat="46.80641" lon="0.64026">
        <ele>119.5</ele>
        <time>2023-06-08T03:57:15.667Z</time>
      </trkpt>
      <trkpt lat="46.80641" lon="0.64021">
        <ele>119.27</ele>
        <time>2023-06-08T03:57:27.636Z</time>
      </trkpt>
      <trkpt lat="46.80642" lon="0.64001">
        <ele>118.21</ele>
        <time>2023-06-08T03:57:39.608Z</time>
      </trkpt>
      <trkpt lat="46.80643" lon="0.6399">
        <ele>117.64</ele>
        <time>2023-06-08T03:57:51.581Z</time>
      </trkpt>
      <trkpt lat="46.80647" lon="0.63983">
        <ele>117.22</ele>
        <time>2023-06-08T03:58:03.555Z</time>
      </trkpt>
      <trkpt lat="46.80649" lon="0.63978">
        <ele>116.87</ele>
        <time>2023-06-08T03:58:15.529Z</time>
      </trkpt>
      <trkpt lat="46.80663" lon="0.63953">
        <ele>114.96</ele>
        <time>2023-06-08T03:58:27.507Z</time>
      </trkpt>
      <trkpt lat="46.80669" lon="0.63942">
        <ele>114.27</ele>
        <time>2023-06-08T03:58:39.486Z</time>
      </trkpt>
      <trkpt lat="46.80675" lon="0.63932">
        <ele>113.68</ele>
        <time>2023-06-08T03:58:51.467Z</time>
      </trkpt>
      <trkpt lat="46.8068" lon="0.63922">
        <ele>113.16</ele>
        <time>2023-06-08T03:59:03.449Z</time>
      </trkpt>
      <trkpt lat="46.80686" lon="0.63911">
        <ele>112.68</ele>
        <time>2023-06-08T03:59:15.433Z</time>
      </trkpt>
      <trkpt lat="46.80691" lon="0.63901">
        <ele>112.26</ele>
        <time>2023-06-08T03:59:27.418Z</time>
      </trkpt>
      <trkpt lat="46.80697" lon="0.63891">
        <ele>111.9</ele>
        <time>2023-06-08T03:59:39.405Z</time>
      </trkpt>
      <trkpt lat="46.80697" lon="0.63891">
        <ele>111.9</ele>
        <time>2023-06-08T03:59:51.392Z</time>
      </trkpt>
      <trkpt lat="46.80702" lon="0.6388">
        <ele>111.58</ele>
        <time>2023-06-08T04:00:03.380Z</time>
      </trkpt>
      <trkpt lat="46.80706" lon="0.63868">
        <ele>111.29</ele>
        <time>2023-06-08T04:00:15.370Z</time>
      </trkpt>
      <trkpt lat="46.80718" lon="0.6384">
        <ele>110.64</ele>
        <time>2023-06-08T04:00:27.363Z</time>
      </trkpt>
      <trkpt lat="46.80723" lon="0.63829">
        <ele>110.33</ele>
        <time>2023-06-08T04:00:39.358Z</time>
      </trkpt>
      <trkpt lat="46.80731" lon="0.63809">
        <ele>109.73</ele>
        <time>2023-06-08T04:00:51.355Z</time>
      </trkpt>
      <trkpt lat="46.80731" lon="0.63806">
        <ele>109.67</ele>
        <time>2023-06-08T04:01:03.353Z</time>
      </trkpt>
      <trkpt lat="46.80732" lon="0.63793">
        <ele>109.37</ele>
        <time>2023-06-08T04:01:15.352Z</time>
      </trkpt>
      <trkpt lat="46.80733" lon="0.63786">
        <ele>109.23</ele>
        <time>2023-06-08T04:01:27.352Z</time>
      </trkpt>
      <trkpt lat="46.8073" lon="0.63768">
        <ele>108.87</ele>
        <time>2023-06-08T04:01:39.354Z</time>
      </trkpt>
      <trkpt lat="46.80729" lon="0.63759">
        <ele>108.71</ele>
        <time>2023-06-08T04:01:51.357Z</time>
      </trkpt>
      <trkpt lat="46.80723" lon="0.63736">
        <ele>108.3</ele>
        <time>2023-06-08T04:02:03.362Z</time>
      </trkpt>
      <trkpt lat="46.80718" lon="0.63718">
        <ele>107.89</ele>
        <time>2023-06-08T04:02:15.370Z</time>
      </trkpt>
      <trkpt lat="46.80715" lon="0.63706">
        <ele>107.55</ele>
        <time>2023-06-08T04:02:27.379Z</time>
      </trkpt>
      <trkpt lat="46.80711" lon="0.63687">
        <ele>106.97</ele>
        <time>2023-06-08T04:02:39.390Z</time>
      </trkpt>
      <trkpt lat="46.8071" lon="0.63685">
        <ele>106.9</ele>
        <time>2023-06-08T04:02:51.401Z</time>
      </trkpt>
      <trkpt lat="46.80706" lon="0.63649">
        <ele>105.97</ele>
        <time>2023-06-08T04:03:03.417Z</time>
      </trkpt>
      <trkpt lat="46.80704" lon="0.63636">
        <ele>105.59</ele>
        <time>2023-06-08T04:03:15.434Z</time>
      </trkpt>
      <trkpt lat="46.80702" lon="0.63619">
        <ele>105.07</ele>
        <time>2023-06-08T04:03:27.453Z</time>
      </trkpt>
      <trkpt lat="46.80702" lon="0.63616">
        <ele>104.99</ele>
        <time>2023-06-08T04:03:39.472Z</time>
      </trkpt>
      <trkpt lat="46.80703" lon="0.63597">
        <ele>104.44</ele>
        <time>2023-06-08T04:03:51.493Z</time>
      </trkpt>
      <trkpt lat="46.80704" lon="0.63583">
        <ele>104.15</ele>
        <time>2023-06-08T04:04:03.516Z</time>
      </trkpt>
      <trkpt lat="46.80705" lon="0.63563">
        <ele>103.76</ele>
        <time>2023-06-08T04:04:15.541Z</time>
      </trkpt>
      <trkpt lat="46.80707" lon="0.63551">
        <ele>103.54</ele>
        <time>2023-06-08T04:04:27.567Z</time>
      </trkpt>
      <trkpt lat="46.80709" lon="0.63538">
        <ele>103.32</ele>
        <time>2023-06-08T04:04:39.595Z</time>
      </trkpt>
      <trkpt lat="46.80712" lon="0.63523">
        <ele>103.09</ele>
        <time>2023-06-08T04:04:51.625Z</time>
      </trkpt>
      <trkpt lat="46.80716" lon="0.63514">
        <ele>102.94</ele>
        <time>2023-06-08T04:05:03.656Z</time>
      </trkpt>
      <trkpt lat="46.80721" lon="0.63503">
        <ele>102.68</ele>
        <time>2023-06-08T04:05:15.688Z</time>
      </trkpt>
      <trkpt lat="46.80726" lon="0.63492">
        <ele>102.36</ele>
        <time>2023-06-08T04:05:27.722Z</time>
      </trkpt>
      <trkpt lat="46.80745" lon="0.63448">
        <ele>100.97</ele>
        <time>2023-06-08T04:05:39.761Z</time>
      </trkpt>
      <trkpt lat="46.80761" lon="0.63387">
        <ele>99.25</ele>
        <time>2023-06-08T04:05:51.808Z</time>
      </trkpt>
      <trkpt lat="46.80764" lon="0.63374">
        <ele>98.95</ele>
        <time>2023-06-08T04:06:03.856Z</time>
      </trkpt>
      <trkpt lat="46.80765" lon="0.63372">
        <ele>98.9</ele>
        <time>2023-06-08T04:06:15.904Z</time>
      </trkpt>
      <trkpt lat="46.80766" lon="0.63368">
        <ele>98.83</ele>
        <time>2023-06-08T04:06:27.953Z</time>
      </trkpt>
      <trkpt lat="46.80771" lon="0.63357">
        <ele>98.65</ele>
        <time>2023-06-08T04:06:40.003Z</time>
      </trkpt>
      <trkpt lat="46.80773" lon="0.63351">
        <ele>98.62</ele>
        <time>2023-06-08T04:06:52.054Z</time>
      </trkpt>
      <trkpt lat="46.80775" lon="0.63345">
        <ele>98.64</ele>
        <time>2023-06-08T04:07:04.106Z</time>
      </trkpt>
      <trkpt lat="46.80777" lon="0.6334">
        <ele>98.7</ele>
        <time>2023-06-08T04:07:16.158Z</time>
      </trkpt>
      <trkpt lat="46.80786" lon="0.63315">
        <ele>99.13</ele>
        <time>2023-06-08T04:07:28.213Z</time>
      </trkpt>
      <trkpt lat="46.80788" lon="0.63304">
        <ele>99.31</ele>
        <time>2023-06-08T04:07:40.270Z</time>
      </trkpt>
      <trkpt lat="46.80792" lon="0.63278">
        <ele>99.75</ele>
        <time>2023-06-08T04:07:52.330Z</time>
      </trkpt>
      <trkpt lat="46.80793" lon="0.63273">
        <ele>99.82</ele>
        <time>2023-06-08T04:08:04.390Z</time>
      </trkpt>
      <trkpt lat="46.8079" lon="0.63252">
        <ele>100.12</ele>
        <time>2023-06-08T04:08:16.452Z</time>
      </trkpt>
      <trkpt lat="46.8079" lon="0.63246">
        <ele>100.18</ele>
        <time>2023-06-08T04:08:28.515Z</time>
      </trkpt>
      <trkpt lat="46.80788" lon="0.63233">
        <ele>100.26</ele>
        <time>2023-06-08T04:08:40.580Z</time>
      </trkpt>
      <trkpt lat="46.80785" lon="0.63207">
        <ele>100.31</ele>
        <time>2023-06-08T04:08:52.648Z</time>
      </trkpt>
      <trkpt lat="46.8078" lon="0.63175">
        <ele>100.42</ele>
        <time>2023-06-08T04:09:04.719Z</time>
      </trkpt>
      <trkpt lat="46.80779" lon="0.63162">
        <ele>100.44</ele>
        <time>2023-06-08T04:09:16.792Z</time>
      </trkpt>
      <trkpt lat="46.80778" lon="0.63156">
        <ele>100.42</ele>
        <time>2023-06-08T04:09:28.865Z</time>
      </trkpt>
      <trkpt lat="46.80776" lon="0.63143">
        <ele>100.36</ele>
        <time>2023-06-08T04:09:40.940Z</time>
      </trkpt>
      <trkpt lat="46.80776" lon="0.63141">
        <ele>100.34</ele>
        <time>2023-06-08T04:09:53.015Z</time>
      </trkpt>
      <trkpt lat="46.80777" lon="0.6313">
        <ele>100.27</ele>
        <time>2023-06-08T04:10:05.091Z</time>
      </trkpt>
      <trkpt lat="46.80778" lon="0.6311">
        <ele>100.06</ele>
        <time>2023-06-08T04:10:17.169Z</time>
      </trkpt>
      <trkpt lat="46.80779" lon="0.63097">
        <ele>99.8</ele>
        <time>2023-06-08T04:10:29.249Z</time>
      </trkpt>
      <trkpt lat="46.80781" lon="0.63078">
        <ele>99.32</ele>
        <time>2023-06-08T04:10:41.331Z</time>
      </trkpt>
      <trkpt lat="46.80785" lon="0.63019">
        <ele>98.12</ele>
        <time>2023-06-08T04:10:53.419Z</time>
      </trkpt>
      <trkpt lat="46.80786" lon="0.63006">
        <ele>97.9</ele>
        <time>2023-06-08T04:11:05.509Z</time>
      </trkpt>
      <trkpt lat="46.80786" lon="0.62999">
        <ele>97.81</ele>
        <time>2023-06-08T04:11:17.600Z</time>
      </trkpt>
      <trkpt lat="46.80787" lon="0.62988">
        <ele>97.68</ele>
        <time>2023-06-08T04:11:29.692Z</time>
      </trkpt>
      <trkpt lat="46.80789" lon="0.62967">
        <ele>97.44</ele>
        <time>2023-06-08T04:11:41.786Z</time>
      </trkpt>
      <trkpt lat="46.80791" lon="0.62952">
        <ele>97.33</ele>
        <time>2023-06-08T04:11:53.882Z</time>
      </trkpt>
      <trkpt lat="46.80799" lon="0.62954">
        <ele>97.25</ele>
        <time>2023-06-08T04:12:05.979Z</time>
      </trkpt>
      <trkpt lat="46.80799" lon="0.62954">
        <ele>96.83</ele>
        <time>2023-06-08T04:12:18.076Z</time>
      </trkpt>
      <trkpt lat="46.80801" lon="0.62954">
        <ele>96.81</ele>
        <time>2023-06-08T04:12:30.173Z</time>
      </trkpt>
      <trkpt lat="46.80804" lon="0.62942">
        <ele>96.76</ele>
        <time>2023-06-08T04:12:42.272Z</time>
      </trkpt>
      <trkpt lat="46.80822" lon="0.62951">
        <ele>96.64</ele>
        <time>2023-06-08T04:12:54.374Z</time>
      </trkpt>
      <trkpt lat="46.80822" lon="0.62951">
        <ele>96.54</ele>
        <time>2023-06-08T04:13:06.476Z</time>
      </trkpt>
      <trkpt lat="46.8083" lon="0.62956">
        <ele>96.27</ele>
        <time>2023-06-08T04:13:18.579Z</time>
      </trkpt>
      <trkpt lat="46.80832" lon="0.62957">
        <ele>96.21</ele>
        <time>2023-06-08T04:13:30.683Z</time>
      </trkpt>
      <trkpt lat="46.80839" lon="0.62958">
        <ele>96.05</ele>
        <time>2023-06-08T04:13:42.788Z</time>
      </trkpt>
      <trkpt lat="46.80842" lon="0.62958">
        <ele>95.98</ele>
        <time>2023-06-08T04:13:54.893Z</time>
      </trkpt>
      <trkpt lat="46.80847" lon="0.62961">
        <ele>95.88</ele>
        <time>2023-06-08T04:14:06.999Z</time>
      </trkpt>
      <trkpt lat="46.80851" lon="0.62963">
        <ele>95.82</ele>
        <time>2023-06-08T04:14:19.106Z</time>
      </trkpt>
      <trkpt lat="46.80859" lon="0.62968">
        <ele>95.76</ele>
        <time>2023-06-08T04:14:31.214Z</time>
      </trkpt>
      <trkpt lat="46.80867" lon="0.62973">
        <ele>95.75</ele>
        <time>2023-06-08T04:14:43.324Z</time>
      </trkpt>
      <trkpt lat="46.80871" lon="0.62975">
        <ele>95.75</ele>
        <time>2023-06-08T04:14:55.434Z</time>
      </trkpt>
      <trkpt lat="46.80875" lon="0.62977">
        <ele>95.77</ele>
        <time>2023-06-08T04:15:07.545Z</time>
      </trkpt>
      <trkpt lat="46.80884" lon="0.62981">
        <ele>95.85</ele>
        <time>2023-06-08T04:15:19.657Z</time>
      </trkpt>
      <trkpt lat="46.80888" lon="0.62983">
        <ele>95.92</ele>
        <time>2023-06-08T04:15:31.770Z</time>
      </trkpt>
      <trkpt lat="46.80892" lon="0.62985">
        <ele>96.02</ele>
        <time>2023-06-08T04:15:43.884Z</time>
      </trkpt>
      <trkpt lat="46.809" lon="0.6299">
        <ele>96.3</ele>
        <time>2023-06-08T04:15:55.999Z</time>
      </trkpt>
      <trkpt lat="46.80917" lon="0.62998">
        <ele>96.94</ele>
        <time>2023-06-08T04:16:08.117Z</time>
      </trkpt>
      <trkpt lat="46.80927" lon="0.63003">
        <ele>97.16</ele>
        <time>2023-06-08T04:16:20.237Z</time>
      </trkpt>
      <trkpt lat="46.80933" lon="0.62998">
        <ele>97.32</ele>
        <time>2023-06-08T04:16:32.358Z</time>
      </trkpt>
      <trkpt lat="46.80939" lon="0.62994">
        <ele>97.41</ele>
        <time>2023-06-08T04:16:44.480Z</time>
      </trkpt>
      <trkpt lat="46.80941" lon="0.62992">
        <ele>97.45</ele>
        <time>2023-06-08T04:16:56.602Z</time>
      </trkpt>
      <trkpt lat="46.80945" lon="0.62988">
        <ele>97.49</ele>
        <time>2023-06-08T04:17:08.725Z</time>
      </trkpt>
      <trkpt lat="46.80948" lon="0.62984">
        <ele>97.49</ele>
        <time>2023-06-08T04:17:20.849Z</time>
      </trkpt>
      <trkpt lat="46.80952" lon="0.6298">
        <ele>97.47</ele>
        <time>2023-06-08T04:17:32.973Z</time>
      </trkpt>
      <trkpt lat="46.80956" lon="0.62976">
        <ele>97.4</ele>
        <time>2023-06-08T04:17:45.098Z</time>
      </trkpt>
      <trkpt lat="46.80959" lon="0.62973">
        <ele>97.29</ele>
        <time>2023-06-08T04:17:57.224Z</time>
      </trkpt>
      <trkpt lat="46.80963" lon="0.62969">
        <ele>97.15</ele>
        <time>2023-06-08T04:18:09.351Z</time>
      </trkpt>
      <trkpt lat="46.8097" lon="0.62961">
        <ele>96.81</ele>
        <time>2023-06-08T04:18:21.479Z</time>
      </trkpt>
      <trkpt lat="46.80978" lon="0.62953">
        <ele>96.41</ele>
        <time>2023-06-08T04:18:33.609Z</time>
      </trkpt>
      <trkpt lat="46.80989" lon="0.62942">
        <ele>95.77</ele>
        <time>2023-06-08T04:18:45.741Z</time>
      </trkpt>
      <trkpt lat="46.80992" lon="0.62938">
        <ele>95.59</ele>
        <time>2023-06-08T04:18:57.873Z</time>
      </trkpt>
      <trkpt lat="46.80995" lon="0.62935">
        <ele>95.48</ele>
        <time>2023-06-08T04:19:10.006Z</time>
      </trkpt>
      <trkpt lat="46.80996" lon="0.62934">
        <ele>95.46</ele>
        <time>2023-06-08T04:19:22.139Z</time>
      </trkpt>
      <trkpt lat="46.80999" lon="0.6293">
        <ele>95.38</ele>
        <time>2023-06-08T04:19:34.273Z</time>
      </trkpt>
      <trkpt lat="46.81001" lon="0.62927">
        <ele>95.35</ele>
        <time>2023-06-08T04:19:46.407Z</time>
      </trkpt>
      <trkpt lat="46.81002" lon="0.62925">
        <ele>95.34</ele>
        <time>2023-06-08T04:19:58.542Z</time>
      </trkpt>
      <trkpt lat="46.81007" lon="0.62914">
        <ele>95.34</ele>
        <time>2023-06-08T04:20:10.678Z</time>
      </trkpt>
      <trkpt lat="46.81009" lon="0.62908">
        <ele>95.39</ele>
        <time>2023-06-08T04:20:22.815Z</time>
      </trkpt>
      <trkpt lat="46.81011" lon="0.62905">
        <ele>95.44</ele>
        <time>2023-06-08T04:20:34.952Z</time>
      </trkpt>
      <trkpt lat="46.81012" lon="0.62903">
        <ele>95.48</ele>
        <time>2023-06-08T04:20:47.089Z</time>
      </trkpt>
      <trkpt lat="46.81013" lon="0.62897">
        <ele>95.61</ele>
        <time>2023-06-08T04:20:59.227Z</time>
      </trkpt>
      <trkpt lat="46.81015" lon="0.6289">
        <ele>95.78</ele>
        <time>2023-06-08T04:21:11.366Z</time>
      </trkpt>
      <trkpt lat="46.81017" lon="0.62884">
        <ele>95.98</ele>
        <time>2023-06-08T04:21:23.506Z</time>
      </trkpt>
      <trkpt lat="46.81018" lon="0.62878">
        <ele>96.21</ele>
        <time>2023-06-08T04:21:35.646Z</time>
      </trkpt>
      <trkpt lat="46.8102" lon="0.62872">
        <ele>96.45</ele>
        <time>2023-06-08T04:21:47.787Z</time>
      </trkpt>
      <trkpt lat="46.81023" lon="0.6286">
        <ele>96.99</ele>
        <time>2023-06-08T04:21:59.929Z</time>
      </trkpt>
      <trkpt lat="46.81023" lon="0.6286">
        <ele>96.99</ele>
        <time>2023-06-08T04:22:12.071Z</time>
      </trkpt>
      <trkpt lat="46.81024" lon="0.62844">
        <ele>97.35</ele>
        <time>2023-06-08T04:22:24.215Z</time>
      </trkpt>
      <trkpt lat="46.81037" lon="0.62834">
        <ele>97.85</ele>
        <time>2023-06-08T04:22:36.362Z</time>
      </trkpt>
      <trkpt lat="46.81046" lon="0.62828">
        <ele>98.2</ele>
        <time>2023-06-08T04:22:48.510Z</time>
      </trkpt>
      <trkpt lat="46.81056" lon="0.62818">
        <ele>98.65</ele>
        <time>2023-06-08T04:23:00.660Z</time>
      </trkpt>
      <trkpt lat="46.81084" lon="0.62788">
        <ele>99.87</ele>
        <time>2023-06-08T04:23:12.816Z</time>
      </trkpt>
      <trkpt lat="46.81091" lon="0.6278">
        <ele>100.16</ele>
        <time>2023-06-08T04:23:24.973Z</time>
      </trkpt>
      <trkpt lat="46.81094" lon="0.62777">
        <ele>100.68</ele>
        <time>2023-06-08T04:23:37.131Z</time>
      </trkpt>
      <trkpt lat="46.81097" lon="0.62773">
        <ele>101.15</ele>
        <time>2023-06-08T04:23:49.289Z</time>
      </trkpt>
      <trkpt lat="46.81099" lon="0.62771">
        <ele>101.41</ele>
        <time>2023-06-08T04:24:01.448Z</time>
      </trkpt>
      <trkpt lat="46.81098" lon="0.6277">
        <ele>101.57</ele>
        <time>2023-06-08T04:24:13.607Z</time>
      </trkpt>
      <trkpt lat="46.81094" lon="0.62767">
        <ele>101.92</ele>
        <time>2023-06-08T04:24:25.767Z</time>
      </trkpt>
      <trkpt lat="46.81091" lon="0.62765">
        <ele>102.22</ele>
        <time>2023-06-08T04:24:37.927Z</time>
      </trkpt>
      <trkpt lat="46.8108" lon="0.62757">
        <ele>103</ele>
        <time>2023-06-08T04:24:50.089Z</time>
      </trkpt>
      <trkpt lat="46.81071" lon="0.6275">
        <ele>103.04</ele>
        <time>2023-06-08T04:25:02.253Z</time>
      </trkpt>
      <trkpt lat="46.81055" lon="0.62742">
        <ele>103.12</ele>
        <time>2023-06-08T04:25:14.419Z</time>
      </trkpt>
      <trkpt lat="46.8105" lon="0.62739">
        <ele>103.13</ele>
        <time>2023-06-08T04:25:26.586Z</time>
      </trkpt>
      <trkpt lat="46.81047" lon="0.62737">
        <ele>103.14</ele>
        <time>2023-06-08T04:25:38.754Z</time>
      </trkpt>
      <trkpt lat="46.8104" lon="0.6273">
        <ele>103.12</ele>
        <time>2023-06-08T04:25:50.923Z</time>
      </trkpt>
      <trkpt lat="46.81029" lon="0.62721">
        <ele>103.03</ele>
        <time>2023-06-08T04:26:03.094Z</time>
      </trkpt>
      <trkpt lat="46.81022" lon="0.62712">
        <ele>102.96</ele>
        <time>2023-06-08T04:26:15.267Z</time>
      </trkpt>
      <trkpt lat="46.81019" lon="0.62707">
        <ele>102.93</ele>
        <time>2023-06-08T04:26:27.441Z</time>
      </trkpt>
      <trkpt lat="46.81013" lon="0.62697">
        <ele>102.82</ele>
        <time>2023-06-08T04:26:39.616Z</time>
      </trkpt>
      <trkpt lat="46.8101" lon="0.62692">
        <ele>102.74</ele>
        <time>2023-06-08T04:26:51.792Z</time>
      </trkpt>
      <trkpt lat="46.81007" lon="0.62687">
        <ele>102.64</ele>
        <time>2023-06-08T04:27:03.968Z</time>
      </trkpt>
      <trkpt lat="46.81004" lon="0.62682">
        <ele>102.51</ele>
        <time>2023-06-08T04:27:16.145Z</time>
      </trkpt>
      <trkpt lat="46.81001" lon="0.62677">
        <ele>102.35</ele>
        <time>2023-06-08T04:27:28.323Z</time>
      </trkpt>
      <trkpt lat="46.80998" lon="0.62673">
        <ele>102.16</ele>
        <time>2023-06-08T04:27:40.502Z</time>
      </trkpt>
      <trkpt lat="46.80995" lon="0.62668">
        <ele>101.94</ele>
        <time>2023-06-08T04:27:52.681Z</time>
      </trkpt>
      <trkpt lat="46.80992" lon="0.62663">
        <ele>101.68</ele>
        <time>2023-06-08T04:28:04.861Z</time>
      </trkpt>
      <trkpt lat="46.80991" lon="0.62661">
        <ele>101.56</ele>
        <time>2023-06-08T04:28:17.041Z</time>
      </trkpt>
      <trkpt lat="46.80989" lon="0.62658">
        <ele>101.39</ele>
        <time>2023-06-08T04:28:29.222Z</time>
      </trkpt>
      <trkpt lat="46.80984" lon="0.62647">
        <ele>100.74</ele>
        <time>2023-06-08T04:28:41.404Z</time>
      </trkpt>
      <trkpt lat="46.80974" lon="0.62626">
        <ele>99.33</ele>
        <time>2023-06-08T04:28:53.589Z</time>
      </trkpt>
      <trkpt lat="46.80959" lon="0.62594">
        <ele>97.28</ele>
        <time>2023-06-08T04:29:05.778Z</time>
      </trkpt>
      <trkpt lat="46.80954" lon="0.62583">
        <ele>96.66</ele>
        <time>2023-06-08T04:29:17.969Z</time>
      </trkpt>
      <trkpt lat="46.80939" lon="0.62551">
        <ele>94.85</ele>
        <time>2023-06-08T04:29:30.164Z</time>
      </trkpt>
      <trkpt lat="46.80934" lon="0.62541">
        <ele>94.27</ele>
        <time>2023-06-08T04:29:42.360Z</time>
      </trkpt>
      <trkpt lat="46.80931" lon="0.62535">
        <ele>94.01</ele>
        <time>2023-06-08T04:29:54.557Z</time>
      </trkpt>
      <trkpt lat="46.80926" lon="0.62525">
        <ele>93.54</ele>
        <time>2023-06-08T04:30:06.755Z</time>
      </trkpt>
      <trkpt lat="46.80925" lon="0.62522">
        <ele>93.43</ele>
        <time>2023-06-08T04:30:18.954Z</time>
      </trkpt>
      <trkpt lat="46.80921" lon="0.62515">
        <ele>93.14</ele>
        <time>2023-06-08T04:30:31.154Z</time>
      </trkpt>
      <trkpt lat="46.80919" lon="0.62512">
        <ele>93.13</ele>
        <time>2023-06-08T04:30:43.354Z</time>
      </trkpt>
      <trkpt lat="46.80912" lon="0.62506">
        <ele>93.1</ele>
        <time>2023-06-08T04:30:55.556Z</time>
      </trkpt>
      <trkpt lat="46.80911" lon="0.62495">
        <ele>93.08</ele>
        <time>2023-06-08T04:31:07.759Z</time>
      </trkpt>
      <trkpt lat="46.80909" lon="0.62484">
        <ele>93.09</ele>
        <time>2023-06-08T04:31:19.963Z</time>
      </trkpt>
      <trkpt lat="46.80909" lon="0.62483">
        <ele>93.1</ele>
        <time>2023-06-08T04:31:32.167Z</time>
      </trkpt>
      <trkpt lat="46.80904" lon="0.62471">
        <ele>93.16</ele>
        <time>2023-06-08T04:31:44.373Z</time>
      </trkpt>
      <trkpt lat="46.80904" lon="0.6247">
        <ele>93.17</ele>
        <time>2023-06-08T04:31:56.579Z</time>
      </trkpt>
      <trkpt lat="46.80897" lon="0.62455">
        <ele>93.37</ele>
        <time>2023-06-08T04:32:08.787Z</time>
      </trkpt>
      <trkpt lat="46.80892" lon="0.62444">
        <ele>93.57</ele>
        <time>2023-06-08T04:32:20.996Z</time>
      </trkpt>
      <trkpt lat="46.80887" lon="0.62433">
        <ele>93.83</ele>
        <time>2023-06-08T04:32:33.207Z</time>
      </trkpt>
      <trkpt lat="46.80882" lon="0.62422">
        <ele>94.13</ele>
        <time>2023-06-08T04:32:45.419Z</time>
      </trkpt>
      <trkpt lat="46.8087" lon="0.62395">
        <ele>94.95</ele>
        <time>2023-06-08T04:32:57.635Z</time>
      </trkpt>
      <trkpt lat="46.80865" lon="0.62385">
        <ele>95.23</ele>
        <time>2023-06-08T04:33:09.852Z</time>
      </trkpt>
      <trkpt lat="46.80862" lon="0.62378">
        <ele>95.42</ele>
        <time>2023-06-08T04:33:22.070Z</time>
      </trkpt>
      <trkpt lat="46.80858" lon="0.62366">
        <ele>95.69</ele>
        <time>2023-06-08T04:33:34.289Z</time>
      </trkpt>
      <trkpt lat="46.80854" lon="0.62355">
        <ele>95.91</ele>
        <time>2023-06-08T04:33:46.510Z</time>
      </trkpt>
      <trkpt lat="46.80849" lon="0.62341">
        <ele>96.89</ele>
        <time>2023-06-08T04:33:58.732Z</time>
      </trkpt>
      <trkpt lat="46.8085" lon="0.62338">
        <ele>97.12</ele>
        <time>2023-06-08T04:34:10.955Z</time>
      </trkpt>
      <trkpt lat="46.80852" lon="0.62331">
        <ele>97.56</ele>
        <time>2023-06-08T04:34:23.179Z</time>
      </trkpt>
      <trkpt lat="46.80853" lon="0.62325">
        <ele>98.04</ele>
        <time>2023-06-08T04:34:35.403Z</time>
      </trkpt>
      <trkpt lat="46.80855" lon="0.62319">
        <ele>98.57</ele>
        <time>2023-06-08T04:34:47.628Z</time>
      </trkpt>
      <trkpt lat="46.80856" lon="0.62313">
        <ele>99.15</ele>
        <time>2023-06-08T04:34:59.854Z</time>
      </trkpt>
      <trkpt lat="46.80858" lon="0.62307">
        <ele>99.76</ele>
        <time>2023-06-08T04:35:12.080Z</time>
      </trkpt>
      <trkpt lat="46.80859" lon="0.62304">
        <ele>100.11</ele>
        <time>2023-06-08T04:35:24.307Z</time>
      </trkpt>
      <trkpt lat="46.80863" lon="0.62282">
        <ele>102.36</ele>
        <time>2023-06-08T04:35:36.536Z</time>
      </trkpt>
      <trkpt lat="46.80866" lon="0.62264">
        <ele>104.32</ele>
        <time>2023-06-08T04:35:48.767Z</time>
      </trkpt>
      <trkpt lat="46.80868" lon="0.62258">
        <ele>105.08</ele>
        <time>2023-06-08T04:36:00.999Z</time>
      </trkpt>
      <trkpt lat="46.8087" lon="0.62252">
        <ele>105.73</ele>
        <time>2023-06-08T04:36:13.232Z</time>
      </trkpt>
      <trkpt lat="46.80874" lon="0.62241">
        <ele>106.9</ele>
        <time>2023-06-08T04:36:25.466Z</time>
      </trkpt>
      <trkpt lat="46.80883" lon="0.6223">
        <ele>108.55</ele>
        <time>2023-06-08T04:36:37.702Z</time>
      </trkpt>
      <trkpt lat="46.80889" lon="0.62225">
        <ele>109.5</ele>
        <time>2023-06-08T04:36:49.939Z</time>
      </trkpt>
      <trkpt lat="46.80908" lon="0.6221">
        <ele>112.74</ele>
        <time>2023-06-08T04:37:02.180Z</time>
      </trkpt>
      <trkpt lat="46.80912" lon="0.62207">
        <ele>113.36</ele>
        <time>2023-06-08T04:37:14.421Z</time>
      </trkpt>
      <trkpt lat="46.8092" lon="0.62201">
        <ele>114.51</ele>
        <time>2023-06-08T04:37:26.664Z</time>
      </trkpt>
      <trkpt lat="46.80932" lon="0.62191">
        <ele>116.14</ele>
        <time>2023-06-08T04:37:38.909Z</time>
      </trkpt>
      <trkpt lat="46.8094" lon="0.62185">
        <ele>117.15</ele>
        <time>2023-06-08T04:37:51.155Z</time>
      </trkpt>
      <trkpt lat="46.80948" lon="0.62179">
        <ele>118.08</ele>
        <time>2023-06-08T04:38:03.403Z</time>
      </trkpt>
      <trkpt lat="46.80955" lon="0.62173">
        <ele>118.94</ele>
        <time>2023-06-08T04:38:15.652Z</time>
      </trkpt>
      <trkpt lat="46.80959" lon="0.6217">
        <ele>119.31</ele>
        <time>2023-06-08T04:38:27.902Z</time>
      </trkpt>
      <trkpt lat="46.80967" lon="0.62162">
        <ele>120.17</ele>
        <time>2023-06-08T04:38:40.153Z</time>
      </trkpt>
      <trkpt lat="46.80977" lon="0.62152">
        <ele>121.23</ele>
        <time>2023-06-08T04:38:52.406Z</time>
      </trkpt>
      <trkpt lat="46.80981" lon="0.62147">
        <ele>121.69</ele>
        <time>2023-06-08T04:39:04.660Z</time>
      </trkpt>
      <trkpt lat="46.80991" lon="0.62132">
        <ele>122.81</ele>
        <time>2023-06-08T04:39:16.917Z</time>
      </trkpt>
      <trkpt lat="46.81005" lon="0.621">
        <ele>124.86</ele>
        <time>2023-06-08T04:39:29.178Z</time>
      </trkpt>
      <trkpt lat="46.81012" lon="0.62083">
        <ele>125.87</ele>
        <time>2023-06-08T04:39:41.441Z</time>
      </trkpt>
      <trkpt lat="46.81014" lon="0.62078">
        <ele>126.17</ele>
        <time>2023-06-08T04:39:53.705Z</time>
      </trkpt>
      <trkpt lat="46.81019" lon="0.62067">
        <ele>126.72</ele>
        <time>2023-06-08T04:40:05.970Z</time>
      </trkpt>
      <trkpt lat="46.81023" lon="0.62056">
        <ele>127.19</ele>
        <time>2023-06-08T04:40:18.236Z</time>
      </trkpt>
      <trkpt lat="46.81028" lon="0.62045">
        <ele>127.6</ele>
        <time>2023-06-08T04:40:30.504Z</time>
      </trkpt>
      <trkpt lat="46.8103" lon="0.6204">
        <ele>127.74</ele>
        <time>2023-06-08T04:40:42.772Z</time>
      </trkpt>
      <trkpt lat="46.81033" lon="0.62034">
        <ele>127.95</ele>
        <time>2023-06-08T04:40:55.041Z</time>
      </trkpt>
      <trkpt lat="46.8104" lon="0.62018">
        <ele>128.44</ele>
        <time>2023-06-08T04:41:07.312Z</time>
      </trkpt>
      <trkpt lat="46.8106" lon="0.61974">
        <ele>129.82</ele>
        <time>2023-06-08T04:41:19.589Z</time>
      </trkpt>
      <trkpt lat="46.81061" lon="0.61972">
        <ele>129.89</ele>
        <time>2023-06-08T04:41:31.866Z</time>
      </trkpt>
      <trkpt lat="46.81081" lon="0.61917">
        <ele>131.7</ele>
        <time>2023-06-08T04:41:44.150Z</time>
      </trkpt>
      <trkpt lat="46.81088" lon="0.619">
        <ele>132.21</ele>
        <time>2023-06-08T04:41:56.436Z</time>
      </trkpt>
      <trkpt lat="46.81094" lon="0.61883">
        <ele>132.52</ele>
        <time>2023-06-08T04:42:08.725Z</time>
      </trkpt>
      <trkpt lat="46.81103" lon="0.61859">
        <ele>132.98</ele>
        <time>2023-06-08T04:42:21.017Z</time>
      </trkpt>
      <trkpt lat="46.81113" lon="0.61838">
        <ele>133.42</ele>
        <time>2023-06-08T04:42:33.311Z</time>
      </trkpt>
      <trkpt lat="46.81118" lon="0.61827">
        <ele>133.61</ele>
        <time>2023-06-08T04:42:45.607Z</time>
      </trkpt>
      <trkpt lat="46.81125" lon="0.6181">
        <ele>133.84</ele>
        <time>2023-06-08T04:42:57.905Z</time>
      </trkpt>
      <trkpt lat="46.81126" lon="0.61808">
        <ele>133.86</ele>
        <time>2023-06-08T04:43:10.203Z</time>
      </trkpt>
      <trkpt lat="46.81145" lon="0.61775">
        <ele>134.27</ele>
        <time>2023-06-08T04:43:22.506Z</time>
      </trkpt>
      <trkpt lat="46.81151" lon="0.61765">
        <ele>134.36</ele>
        <time>2023-06-08T04:43:34.810Z</time>
      </trkpt>
      <trkpt lat="46.81152" lon="0.61763">
        <ele>134.37</ele>
        <time>2023-06-08T04:43:47.115Z</time>
      </trkpt>
      <trkpt lat="46.81157" lon="0.61756">
        <ele>134.42</ele>
        <time>2023-06-08T04:43:59.421Z</time>
      </trkpt>
      <trkpt lat="46.81182" lon="0.61719">
        <ele>134.49</ele>
        <time>2023-06-08T04:44:11.733Z</time>
      </trkpt>
      <trkpt lat="46.81189" lon="0.61709">
        <ele>134.44</ele>
        <time>2023-06-08T04:44:24.046Z</time>
      </trkpt>
      <trkpt lat="46.81201" lon="0.61691">
        <ele>134.3</ele>
        <time>2023-06-08T04:44:36.362Z</time>
      </trkpt>
      <trkpt lat="46.81208" lon="0.61681">
        <ele>134.25</ele>
        <time>2023-06-08T04:44:48.679Z</time>
      </trkpt>
      <trkpt lat="46.81224" lon="0.61658">
        <ele>134.22</ele>
        <time>2023-06-08T04:45:01.000Z</time>
      </trkpt>
      <trkpt lat="46.81233" lon="0.61645">
        <ele>134.18</ele>
        <time>2023-06-08T04:45:13.323Z</time>
      </trkpt>
      <trkpt lat="46.81241" lon="0.61633">
        <ele>134.23</ele>
        <time>2023-06-08T04:45:25.648Z</time>
      </trkpt>
      <trkpt lat="46.81233" lon="0.61622">
        <ele>134.29</ele>
        <time>2023-06-08T04:45:37.975Z</time>
      </trkpt>
      <trkpt lat="46.81213" lon="0.61595">
        <ele>134.53</ele>
        <time>2023-06-08T04:45:50.306Z</time>
      </trkpt>
      <trkpt lat="46.81184" lon="0.61554">
        <ele>135.06</ele>
        <time>2023-06-08T04:46:02.643Z</time>
      </trkpt>
      <trkpt lat="46.81155" lon="0.61513">
        <ele>135.65</ele>
        <time>2023-06-08T04:46:14.987Z</time>
      </trkpt>
      <trkpt lat="46.81142" lon="0.61495">
        <ele>135.87</ele>
        <time>2023-06-08T04:46:27.334Z</time>
      </trkpt>
      <trkpt lat="46.81134" lon="0.61484">
        <ele>135.75</ele>
        <time>2023-06-08T04:46:39.683Z</time>
      </trkpt>
      <trkpt lat="46.81144" lon="0.61466">
        <ele>135.6</ele>
        <time>2023-06-08T04:46:52.034Z</time>
      </trkpt>
      <trkpt lat="46.81146" lon="0.61461">
        <ele>135.57</ele>
        <time>2023-06-08T04:47:04.386Z</time>
      </trkpt>
      <trkpt lat="46.81149" lon="0.61456">
        <ele>135.56</ele>
        <time>2023-06-08T04:47:16.738Z</time>
      </trkpt>
      <trkpt lat="46.81152" lon="0.61451">
        <ele>135.58</ele>
        <time>2023-06-08T04:47:29.091Z</time>
      </trkpt>
      <trkpt lat="46.81155" lon="0.61446">
        <ele>135.62</ele>
        <time>2023-06-08T04:47:41.445Z</time>
      </trkpt>
      <trkpt lat="46.81163" lon="0.6143">
        <ele>135.81</ele>
        <time>2023-06-08T04:47:53.801Z</time>
      </trkpt>
      <trkpt lat="46.81166" lon="0.61425">
        <ele>135.85</ele>
        <time>2023-06-08T04:48:06.158Z</time>
      </trkpt>
      <trkpt lat="46.81171" lon="0.61415">
        <ele>135.87</ele>
        <time>2023-06-08T04:48:18.516Z</time>
      </trkpt>
      <trkpt lat="46.81174" lon="0.6141">
        <ele>135.84</ele>
        <time>2023-06-08T04:48:30.875Z</time>
      </trkpt>
      <trkpt lat="46.81182" lon="0.61394">
        <ele>135.69</ele>
        <time>2023-06-08T04:48:43.236Z</time>
      </trkpt>
      <trkpt lat="46.81188" lon="0.61384">
        <ele>135.62</ele>
        <time>2023-06-08T04:48:55.599Z</time>
      </trkpt>
      <trkpt lat="46.8119" lon="0.61379">
        <ele>135.6</ele>
        <time>2023-06-08T04:49:07.962Z</time>
      </trkpt>
      <trkpt lat="46.81199" lon="0.61363">
        <ele>135.6</ele>
        <time>2023-06-08T04:49:20.327Z</time>
      </trkpt>
      <trkpt lat="46.81201" lon="0.61359">
        <ele>135.58</ele>
        <time>2023-06-08T04:49:32.693Z</time>
      </trkpt>
      <trkpt lat="46.81201" lon="0.61358">
        <ele>135.58</ele>
        <time>2023-06-08T04:49:45.059Z</time>
      </trkpt>
      <trkpt lat="46.81206" lon="0.61347">
        <ele>135.48</ele>
        <time>2023-06-08T04:49:57.427Z</time>
      </trkpt>
      <trkpt lat="46.81215" lon="0.61325">
        <ele>135.22</ele>
        <time>2023-06-08T04:50:09.797Z</time>
      </trkpt>
      <trkpt lat="46.8122" lon="0.61313">
        <ele>135.14</ele>
        <time>2023-06-08T04:50:22.169Z</time>
      </trkpt>
      <trkpt lat="46.81221" lon="0.6131">
        <ele>135.13</ele>
        <time>2023-06-08T04:50:34.541Z</time>
      </trkpt>
      <trkpt lat="46.81225" lon="0.61302">
        <ele>135.11</ele>
        <time>2023-06-08T04:50:46.914Z</time>
      </trkpt>
      <trkpt lat="46.81232" lon="0.61286">
        <ele>135.11</ele>
        <time>2023-06-08T04:50:59.289Z</time>
      </trkpt>
      <trkpt lat="46.81234" lon="0.61281">
        <ele>135.09</ele>
        <time>2023-06-08T04:51:11.665Z</time>
      </trkpt>
      <trkpt lat="46.81239" lon="0.61271">
        <ele>134.98</ele>
        <time>2023-06-08T04:51:24.042Z</time>
      </trkpt>
      <trkpt lat="46.81239" lon="0.6127">
        <ele>134.97</ele>
        <time>2023-06-08T04:51:36.420Z</time>
      </trkpt>
      <trkpt lat="46.81246" lon="0.61246">
        <ele>134.58</ele>
        <time>2023-06-08T04:51:48.800Z</time>
      </trkpt>
      <trkpt lat="46.8125" lon="0.61233">
        <ele>134.39</ele>
        <time>2023-06-08T04:52:01.182Z</time>
      </trkpt>
      <trkpt lat="46.81251" lon="0.61214">
        <ele>134.15</ele>
        <time>2023-06-08T04:52:13.566Z</time>
      </trkpt>
      <trkpt lat="46.81252" lon="0.61188">
        <ele>133.75</ele>
        <time>2023-06-08T04:52:25.953Z</time>
      </trkpt>
      <trkpt lat="46.81253" lon="0.61169">
        <ele>133.48</ele>
        <time>2023-06-08T04:52:38.342Z</time>
      </trkpt>
      <trkpt lat="46.81254" lon="0.61162">
        <ele>133.37</ele>
        <time>2023-06-08T04:52:50.732Z</time>
      </trkpt>
      <trkpt lat="46.81254" lon="0.61156">
        <ele>133.2</ele>
        <time>2023-06-08T04:53:03.122Z</time>
      </trkpt>
      <trkpt lat="46.81255" lon="0.61136">
        <ele>132.6</ele>
        <time>2023-06-08T04:53:15.515Z</time>
      </trkpt>
      <trkpt lat="46.81255" lon="0.6113">
        <ele>132.43</ele>
        <time>2023-06-08T04:53:27.908Z</time>
      </trkpt>
      <trkpt lat="46.81256" lon="0.61123">
        <ele>132.29</ele>
        <time>2023-06-08T04:53:40.302Z</time>
      </trkpt>
      <trkpt lat="46.81257" lon="0.61104">
        <ele>131.96</ele>
        <time>2023-06-08T04:53:52.698Z</time>
      </trkpt>
      <trkpt lat="46.81257" lon="0.61091">
        <ele>131.72</ele>
        <time>2023-06-08T04:54:05.096Z</time>
      </trkpt>
      <trkpt lat="46.81258" lon="0.61078">
        <ele>131.4</ele>
        <time>2023-06-08T04:54:17.495Z</time>
      </trkpt>
      <trkpt lat="46.81258" lon="0.61071">
        <ele>131.21</ele>
        <time>2023-06-08T04:54:29.895Z</time>
      </trkpt>
      <trkpt lat="46.81259" lon="0.61056">
        <ele>130.68</ele>
        <time>2023-06-08T04:54:42.296Z</time>
      </trkpt>
      <trkpt lat="46.81259" lon="0.61052">
        <ele>130.53</ele>
        <time>2023-06-08T04:54:54.698Z</time>
      </trkpt>
      <trkpt lat="46.81258" lon="0.61039">
        <ele>130.11</ele>
        <time>2023-06-08T04:55:07.101Z</time>
      </trkpt>
      <trkpt lat="46.81257" lon="0.61032">
        <ele>129.88</ele>
        <time>2023-06-08T04:55:19.505Z</time>
      </trkpt>
      <trkpt lat="46.81256" lon="0.61006">
        <ele>128.82</ele>
        <time>2023-06-08T04:55:31.912Z</time>
      </trkpt>
      <trkpt lat="46.81255" lon="0.60996">
        <ele>128.46</ele>
        <time>2023-06-08T04:55:44.320Z</time>
      </trkpt>
      <trkpt lat="46.81251" lon="0.60974">
        <ele>127.68</ele>
        <time>2023-06-08T04:55:56.731Z</time>
      </trkpt>
      <trkpt lat="46.81247" lon="0.60949">
        <ele>126.86</ele>
        <time>2023-06-08T04:56:09.144Z</time>
      </trkpt>
      <trkpt lat="46.81244" lon="0.6093">
        <ele>126.21</ele>
        <time>2023-06-08T04:56:21.560Z</time>
      </trkpt>
      <trkpt lat="46.81237" lon="0.60885">
        <ele>124.88</ele>
        <time>2023-06-08T04:56:33.981Z</time>
      </trkpt>
      <trkpt lat="46.81236" lon="0.60872">
        <ele>124.51</ele>
        <time>2023-06-08T04:56:46.403Z</time>
      </trkpt>
      <trkpt lat="46.81232" lon="0.6084">
        <ele>123.37</ele>
        <time>2023-06-08T04:56:58.829Z</time>
      </trkpt>
      <trkpt lat="46.81232" lon="0.60834">
        <ele>123.19</ele>
        <time>2023-06-08T04:57:11.255Z</time>
      </trkpt>
      <trkpt lat="46.8123" lon="0.60821">
        <ele>122.9</ele>
        <time>2023-06-08T04:57:23.683Z</time>
      </trkpt>
      <trkpt lat="46.81225" lon="0.60769">
        <ele>121.95</ele>
        <time>2023-06-08T04:57:36.117Z</time>
      </trkpt>
      <trkpt lat="46.81224" lon="0.60763">
        <ele>121.81</ele>
        <time>2023-06-08T04:57:48.551Z</time>
      </trkpt>
      <trkpt lat="46.81223" lon="0.6075">
        <ele>121.47</ele>
        <time>2023-06-08T04:58:00.987Z</time>
      </trkpt>
      <trkpt lat="46.81221" lon="0.60733">
        <ele>121.23</ele>
        <time>2023-06-08T04:58:13.425Z</time>
      </trkpt>
      <trkpt lat="46.81215" lon="0.60733">
        <ele>121.11</ele>
        <time>2023-06-08T04:58:25.864Z</time>
      </trkpt>
      <trkpt lat="46.81201" lon="0.60733">
        <ele>120.91</ele>
        <time>2023-06-08T04:58:38.305Z</time>
      </trkpt>
      <trkpt lat="46.81193" lon="0.60733">
        <ele>120.84</ele>
        <time>2023-06-08T04:58:50.747Z</time>
      </trkpt>
      <trkpt lat="46.81183" lon="0.60735">
        <ele>120.77</ele>
        <time>2023-06-08T04:59:03.191Z</time>
      </trkpt>
      <trkpt lat="46.8117" lon="0.60739">
        <ele>120.73</ele>
        <time>2023-06-08T04:59:15.637Z</time>
      </trkpt>
      <trkpt lat="46.81161" lon="0.60741">
        <ele>120.73</ele>
        <time>2023-06-08T04:59:28.084Z</time>
      </trkpt>
      <trkpt lat="46.81157" lon="0.60742">
        <ele>120.75</ele>
        <time>2023-06-08T04:59:40.532Z</time>
      </trkpt>
      <trkpt lat="46.81147" lon="0.60741">
        <ele>120.8</ele>
        <time>2023-06-08T04:59:52.981Z</time>
      </trkpt>
      <trkpt lat="46.81147" lon="0.60741">
        <ele>120.8</ele>
        <time>2023-06-08T05:00:05.430Z</time>
      </trkpt>
      <trkpt lat="46.81135" lon="0.60735">
        <ele>120.96</ele>
        <time>2023-06-08T05:00:17.881Z</time>
      </trkpt>
      <trkpt lat="46.81127" lon="0.6073">
        <ele>121.1</ele>
        <time>2023-06-08T05:00:30.334Z</time>
      </trkpt>
      <trkpt lat="46.81102" lon="0.60716">
        <ele>121.63</ele>
        <time>2023-06-08T05:00:42.791Z</time>
      </trkpt>
      <trkpt lat="46.81092" lon="0.60711">
        <ele>121.81</ele>
        <time>2023-06-08T05:00:55.250Z</time>
      </trkpt>
      <trkpt lat="46.81084" lon="0.60709">
        <ele>121.95</ele>
        <time>2023-06-08T05:01:07.710Z</time>
      </trkpt>
      <trkpt lat="46.81076" lon="0.60707">
        <ele>122.08</ele>
        <time>2023-06-08T05:01:20.172Z</time>
      </trkpt>
      <trkpt lat="46.81067" lon="0.60705">
        <ele>122.18</ele>
        <time>2023-06-08T05:01:32.635Z</time>
      </trkpt>
      <trkpt lat="46.81049" lon="0.60701">
        <ele>122.33</ele>
        <time>2023-06-08T05:01:45.101Z</time>
      </trkpt>
      <trkpt lat="46.81036" lon="0.60699">
        <ele>122.4</ele>
        <time>2023-06-08T05:01:57.569Z</time>
      </trkpt>
      <trkpt lat="46.81022" lon="0.60696">
        <ele>122.43</ele>
        <time>2023-06-08T05:02:10.039Z</time>
      </trkpt>
      <trkpt lat="46.81009" lon="0.60693">
        <ele>122.44</ele>
        <time>2023-06-08T05:02:22.511Z</time>
      </trkpt>
      <trkpt lat="46.80988" lon="0.60688">
        <ele>122.42</ele>
        <time>2023-06-08T05:02:34.987Z</time>
      </trkpt>
      <trkpt lat="46.80987" lon="0.60688">
        <ele>122.42</ele>
        <time>2023-06-08T05:02:47.463Z</time>
      </trkpt>
      <trkpt lat="46.80973" lon="0.60686">
        <ele>122.36</ele>
        <time>2023-06-08T05:02:59.941Z</time>
      </trkpt>
      <trkpt lat="46.80955" lon="0.60684">
        <ele>122.21</ele>
        <time>2023-06-08T05:03:12.422Z</time>
      </trkpt>
      <trkpt lat="46.80953" lon="0.60684">
        <ele>122.19</ele>
        <time>2023-06-08T05:03:24.903Z</time>
      </trkpt>
      <trkpt lat="46.80942" lon="0.60684">
        <ele>122.12</ele>
        <time>2023-06-08T05:03:37.386Z</time>
      </trkpt>
      <trkpt lat="46.8093" lon="0.60684">
        <ele>121.94</ele>
        <time>2023-06-08T05:03:49.871Z</time>
      </trkpt>
      <trkpt lat="46.80929" lon="0.60682">
        <ele>121.92</ele>
        <time>2023-06-08T05:04:02.356Z</time>
      </trkpt>
      <trkpt lat="46.80925" lon="0.60671">
        <ele>121.82</ele>
        <time>2023-06-08T05:04:14.843Z</time>
      </trkpt>
      <trkpt lat="46.80923" lon="0.60665">
        <ele>121.74</ele>
        <time>2023-06-08T05:04:27.330Z</time>
      </trkpt>
      <trkpt lat="46.80921" lon="0.60659">
        <ele>121.62</ele>
        <time>2023-06-08T05:04:39.818Z</time>
      </trkpt>
      <trkpt lat="46.8092" lon="0.60658">
        <ele>121.58</ele>
        <time>2023-06-08T05:04:52.306Z</time>
      </trkpt>
      <trkpt lat="46.80915" lon="0.6065">
        <ele>121.31</ele>
        <time>2023-06-08T05:05:04.796Z</time>
      </trkpt>
      <trkpt lat="46.80912" lon="0.60645">
        <ele>121.17</ele>
        <time>2023-06-08T05:05:17.286Z</time>
      </trkpt>
      <trkpt lat="46.80904" lon="0.60632">
        <ele>120.9</ele>
        <time>2023-06-08T05:05:29.778Z</time>
      </trkpt>
      <trkpt lat="46.80903" lon="0.6063">
        <ele>120.86</ele>
        <time>2023-06-08T05:05:42.270Z</time>
      </trkpt>
      <trkpt lat="46.80896" lon="0.60621">
        <ele>120.62</ele>
        <time>2023-06-08T05:05:54.764Z</time>
      </trkpt>
      <trkpt lat="46.80884" lon="0.60605">
        <ele>120.1</ele>
        <time>2023-06-08T05:06:07.260Z</time>
      </trkpt>
      <trkpt lat="46.80861" lon="0.60581">
        <ele>119.23</ele>
        <time>2023-06-08T05:06:19.761Z</time>
      </trkpt>
      <trkpt lat="46.80854" lon="0.60573">
        <ele>119</ele>
        <time>2023-06-08T05:06:32.263Z</time>
      </trkpt>
      <trkpt lat="46.80843" lon="0.60562">
        <ele>118.72</ele>
        <time>2023-06-08T05:06:44.768Z</time>
      </trkpt>
      <trkpt lat="46.80839" lon="0.60558">
        <ele>118.6</ele>
        <time>2023-06-08T05:06:57.273Z</time>
      </trkpt>
      <trkpt lat="46.80836" lon="0.60554">
        <ele>118.46</ele>
        <time>2023-06-08T05:07:09.779Z</time>
      </trkpt>
      <trkpt lat="46.80832" lon="0.6055">
        <ele>118.29</ele>
        <time>2023-06-08T05:07:22.286Z</time>
      </trkpt>
      <trkpt lat="46.80818" lon="0.60536">
        <ele>117.56</ele>
        <time>2023-06-08T05:07:34.795Z</time>
      </trkpt>
      <trkpt lat="46.80817" lon="0.60535">
        <ele>117.56</ele>
        <time>2023-06-08T05:07:47.305Z</time>
      </trkpt>
      <trkpt lat="46.80804" lon="0.60518">
        <ele>116.78</ele>
        <time>2023-06-08T05:07:59.817Z</time>
      </trkpt>
      <trkpt lat="46.808" lon="0.60514">
        <ele>116.56</ele>
        <time>2023-06-08T05:08:12.330Z</time>
      </trkpt>
      <trkpt lat="46.808" lon="0.60514">
        <ele>116.56</ele>
        <time>2023-06-08T05:08:24.843Z</time>
      </trkpt>
      <trkpt lat="46.80797" lon="0.60509">
        <ele>116.31</ele>
        <time>2023-06-08T05:08:37.357Z</time>
      </trkpt>
      <trkpt lat="46.80795" lon="0.60504">
        <ele>116.03</ele>
        <time>2023-06-08T05:08:49.872Z</time>
      </trkpt>
      <trkpt lat="46.80794" lon="0.60502">
        <ele>115.92</ele>
        <time>2023-06-08T05:09:02.387Z</time>
      </trkpt>
      <trkpt lat="46.80794" lon="0.60491">
        <ele>115.38</ele>
        <time>2023-06-08T05:09:14.903Z</time>
      </trkpt>
      <trkpt lat="46.80794" lon="0.60485">
        <ele>115.03</ele>
        <time>2023-06-08T05:09:27.420Z</time>
      </trkpt>
      <trkpt lat="46.80802" lon="0.60468">
        <ele>113.88</ele>
        <time>2023-06-08T05:09:39.939Z</time>
      </trkpt>
      <trkpt lat="46.80812" lon="0.60447">
        <ele>112.49</ele>
        <time>2023-06-08T05:09:52.461Z</time>
      </trkpt>
      <trkpt lat="46.80815" lon="0.6044">
        <ele>112.1</ele>
        <time>2023-06-08T05:10:04.984Z</time>
      </trkpt>
      <trkpt lat="46.80826" lon="0.60421">
        <ele>110.95</ele>
        <time>2023-06-08T05:10:17.509Z</time>
      </trkpt>
      <trkpt lat="46.80834" lon="0.60406">
        <ele>109.99</ele>
        <time>2023-06-08T05:10:30.037Z</time>
      </trkpt>
      <trkpt lat="46.80834" lon="0.60406">
        <ele>109.99</ele>
        <time>2023-06-08T05:10:42.565Z</time>
      </trkpt>
      <trkpt lat="46.80837" lon="0.60402">
        <ele>109.72</ele>
        <time>2023-06-08T05:10:55.093Z</time>
      </trkpt>
      <trkpt lat="46.80841" lon="0.60397">
        <ele>109.48</ele>
        <time>2023-06-08T05:11:07.622Z</time>
      </trkpt>
      <trkpt lat="46.80847" lon="0.60389">
        <ele>109.06</ele>
        <time>2023-06-08T05:11:20.152Z</time>
      </trkpt>
      <trkpt lat="46.80858" lon="0.60375">
        <ele>108.46</ele>
        <time>2023-06-08T05:11:32.685Z</time>
      </trkpt>
      <trkpt lat="46.80861" lon="0.60371">
        <ele>108.24</ele>
        <time>2023-06-08T05:11:45.218Z</time>
      </trkpt>
      <trkpt lat="46.80861" lon="0.60371">
        <ele>108.24</ele>
        <time>2023-06-08T05:11:57.751Z</time>
      </trkpt>
      <trkpt lat="46.80863" lon="0.6035">
        <ele>107.37</ele>
        <time>2023-06-08T05:12:10.287Z</time>
      </trkpt>
      <trkpt lat="46.80862" lon="0.60345">
        <ele>107.18</ele>
        <time>2023-06-08T05:12:22.823Z</time>
      </trkpt>
      <trkpt lat="46.80861" lon="0.60339">
        <ele>106.95</ele>
        <time>2023-06-08T05:12:35.360Z</time>
      </trkpt>
      <trkpt lat="46.8086" lon="0.60333">
        <ele>106.75</ele>
        <time>2023-06-08T05:12:47.898Z</time>
      </trkpt>
      <trkpt lat="46.80856" lon="0.60314">
        <ele>106.23</ele>
        <time>2023-06-08T05:13:00.438Z</time>
      </trkpt>
      <trkpt lat="46.80855" lon="0.60308">
        <ele>106.03</ele>
        <time>2023-06-08T05:13:12.978Z</time>
      </trkpt>
      <trkpt lat="46.80849" lon="0.60276">
        <ele>104.85</ele>
        <time>2023-06-08T05:13:25.522Z</time>
      </trkpt>
      <trkpt lat="46.80846" lon="0.60263">
        <ele>104.43</ele>
        <time>2023-06-08T05:13:38.068Z</time>
      </trkpt>
      <trkpt lat="46.80842" lon="0.6024">
        <ele>103.69</ele>
        <time>2023-06-08T05:13:50.616Z</time>
      </trkpt>
      <trkpt lat="46.80842" lon="0.60238">
        <ele>103.64</ele>
        <time>2023-06-08T05:14:03.164Z</time>
      </trkpt>
      <trkpt lat="46.80841" lon="0.60219">
        <ele>103.15</ele>
        <time>2023-06-08T05:14:15.715Z</time>
      </trkpt>
      <trkpt lat="46.80841" lon="0.60213">
        <ele>102.99</ele>
        <time>2023-06-08T05:14:28.266Z</time>
      </trkpt>
      <trkpt lat="46.80846" lon="0.60201">
        <ele>102.61</ele>
        <time>2023-06-08T05:14:40.819Z</time>
      </trkpt>
      <trkpt lat="46.80851" lon="0.6019">
        <ele>102.3</ele>
        <time>2023-06-08T05:14:53.373Z</time>
      </trkpt>
      <trkpt lat="46.80858" lon="0.60174">
        <ele>101.97</ele>
        <time>2023-06-08T05:15:05.929Z</time>
      </trkpt>
      <trkpt lat="46.80858" lon="0.60174">
        <ele>101.97</ele>
        <time>2023-06-08T05:15:18.485Z</time>
      </trkpt>
      <trkpt lat="46.80864" lon="0.60156">
        <ele>101.74</ele>
        <time>2023-06-08T05:15:31.043Z</time>
      </trkpt>
      <trkpt lat="46.80869" lon="0.60138">
        <ele>101.01</ele>
        <time>2023-06-08T05:15:43.604Z</time>
      </trkpt>
      <trkpt lat="46.80873" lon="0.60126">
        <ele>100.55</ele>
        <time>2023-06-08T05:15:56.166Z</time>
      </trkpt>
      <trkpt lat="46.8088" lon="0.60102">
        <ele>99.73</ele>
        <time>2023-06-08T05:16:08.731Z</time>
      </trkpt>
      <trkpt lat="46.8088" lon="0.60102">
        <ele>99.73</ele>
        <time>2023-06-08T05:16:21.296Z</time>
      </trkpt>
      <trkpt lat="46.80885" lon="0.60091">
        <ele>99.28</ele>
        <time>2023-06-08T05:16:33.862Z</time>
      </trkpt>
      <trkpt lat="46.8089" lon="0.6008">
        <ele>98.77</ele>
        <time>2023-06-08T05:16:46.430Z</time>
      </trkpt>
      <trkpt lat="46.80898" lon="0.60064">
        <ele>97.94</ele>
        <time>2023-06-08T05:16:59.000Z</time>
      </trkpt>
      <trkpt lat="46.80903" lon="0.60054">
        <ele>97.34</ele>
        <time>2023-06-08T05:17:11.571Z</time>
      </trkpt>
      <trkpt lat="46.80906" lon="0.60048">
        <ele>97</ele>
        <time>2023-06-08T05:17:24.143Z</time>
      </trkpt>
      <trkpt lat="46.80907" lon="0.60042">
        <ele>96.7</ele>
        <time>2023-06-08T05:17:36.716Z</time>
      </trkpt>
      <trkpt lat="46.80913" lon="0.60017">
        <ele>95.31</ele>
        <time>2023-06-08T05:17:49.292Z</time>
      </trkpt>
      <trkpt lat="46.80919" lon="0.59993">
        <ele>94.05</ele>
        <time>2023-06-08T05:18:01.871Z</time>
      </trkpt>
      <trkpt lat="46.80927" lon="0.59962">
        <ele>92.36</ele>
        <time>2023-06-08T05:18:14.453Z</time>
      </trkpt>
      <trkpt lat="46.8093" lon="0.59949">
        <ele>91.74</ele>
        <time>2023-06-08T05:18:27.037Z</time>
      </trkpt>
      <trkpt lat="46.80932" lon="0.59937">
        <ele>91.2</ele>
        <time>2023-06-08T05:18:39.622Z</time>
      </trkpt>
      <trkpt lat="46.80937" lon="0.59918">
        <ele>90.48</ele>
        <time>2023-06-08T05:18:52.209Z</time>
      </trkpt>
      <trkpt lat="46.80941" lon="0.599">
        <ele>89.83</ele>
        <time>2023-06-08T05:19:04.798Z</time>
      </trkpt>
      <trkpt lat="46.80944" lon="0.59888">
        <ele>89.47</ele>
        <time>2023-06-08T05:19:17.389Z</time>
      </trkpt>
      <trkpt lat="46.8095" lon="0.59863">
        <ele>88.86</ele>
        <time>2023-06-08T05:19:29.983Z</time>
      </trkpt>
      <trkpt lat="46.80953" lon="0.5985">
        <ele>88.51</ele>
        <time>2023-06-08T05:19:42.578Z</time>
      </trkpt>
      <trkpt lat="46.80956" lon="0.59839">
        <ele>88.57</ele>
        <time>2023-06-08T05:19:55.175Z</time>
      </trkpt>
      <trkpt lat="46.80957" lon="0.59834">
        <ele>88.58</ele>
        <time>2023-06-08T05:20:07.772Z</time>
      </trkpt>
      <trkpt lat="46.80977" lon="0.59846">
        <ele>88.65</ele>
        <time>2023-06-08T05:20:20.373Z</time>
      </trkpt>
      <trkpt lat="46.81009" lon="0.59865">
        <ele>88.9</ele>
        <time>2023-06-08T05:20:32.979Z</time>
      </trkpt>
      <trkpt lat="46.8102" lon="0.59872">
        <ele>88.97</ele>
        <time>2023-06-08T05:20:45.587Z</time>
      </trkpt>
      <trkpt lat="46.81029" lon="0.59876">
        <ele>89.03</ele>
        <time>2023-06-08T05:20:58.197Z</time>
      </trkpt>
      <trkpt lat="46.81046" lon="0.59885">
        <ele>89.18</ele>
        <time>2023-06-08T05:21:10.809Z</time>
      </trkpt>
      <trkpt lat="46.81062" lon="0.59893">
        <ele>89.27</ele>
        <time>2023-06-08T05:21:23.424Z</time>
      </trkpt>
      <trkpt lat="46.81071" lon="0.59897">
        <ele>89.34</ele>
        <time>2023-06-08T05:21:36.041Z</time>
      </trkpt>
      <trkpt lat="46.81073" lon="0.59898">
        <ele>89.37</ele>
        <time>2023-06-08T05:21:48.658Z</time>
      </trkpt>
      <trkpt lat="46.81083" lon="0.59905">
        <ele>89.54</ele>
        <time>2023-06-08T05:22:01.277Z</time>
      </trkpt>
      <trkpt lat="46.81094" lon="0.59914">
        <ele>89.82</ele>
        <time>2023-06-08T05:22:13.898Z</time>
      </trkpt>
      <trkpt lat="46.81097" lon="0.59916">
        <ele>89.85</ele>
        <time>2023-06-08T05:22:26.519Z</time>
      </trkpt>
      <trkpt lat="46.81101" lon="0.59923">
        <ele>89.92</ele>
        <time>2023-06-08T05:22:39.141Z</time>
      </trkpt>
      <trkpt lat="46.81103" lon="0.59926">
        <ele>89.96</ele>
        <time>2023-06-08T05:22:51.764Z</time>
      </trkpt>
      <trkpt lat="46.81111" lon="0.59916">
        <ele>90.13</ele>
        <time>2023-06-08T05:23:04.388Z</time>
      </trkpt>
      <trkpt lat="46.81118" lon="0.59908">
        <ele>90.3</ele>
        <time>2023-06-08T05:23:17.014Z</time>
      </trkpt>
      <trkpt lat="46.81125" lon="0.599">
        <ele>90.54</ele>
        <time>2023-06-08T05:23:29.641Z</time>
      </trkpt>
      <trkpt lat="46.81128" lon="0.59896">
        <ele>90.69</ele>
        <time>2023-06-08T05:23:42.269Z</time>
      </trkpt>
      <trkpt lat="46.81132" lon="0.59892">
        <ele>90.87</ele>
        <time>2023-06-08T05:23:54.898Z</time>
      </trkpt>
      <trkpt lat="46.81135" lon="0.59887">
        <ele>91.09</ele>
        <time>2023-06-08T05:24:07.527Z</time>
      </trkpt>
      <trkpt lat="46.81138" lon="0.59884">
        <ele>91.34</ele>
        <time>2023-06-08T05:24:20.157Z</time>
      </trkpt>
      <trkpt lat="46.81139" lon="0.59883">
        <ele>91.34</ele>
        <time>2023-06-08T05:24:32.787Z</time>
      </trkpt>
      <trkpt lat="46.8115" lon="0.59872">
        <ele>92.19</ele>
        <time>2023-06-08T05:24:45.419Z</time>
      </trkpt>
      <trkpt lat="46.81161" lon="0.59861">
        <ele>93.17</ele>
        <time>2023-06-08T05:24:58.053Z</time>
      </trkpt>
      <trkpt lat="46.81171" lon="0.59849">
        <ele>94.27</ele>
        <time>2023-06-08T05:25:10.690Z</time>
      </trkpt>
      <trkpt lat="46.81179" lon="0.59842">
        <ele>95.08</ele>
        <time>2023-06-08T05:25:23.328Z</time>
      </trkpt>
      <trkpt lat="46.81191" lon="0.59829">
        <ele>96.52</ele>
        <time>2023-06-08T05:25:35.968Z</time>
      </trkpt>
      <trkpt lat="46.81194" lon="0.59828">
        <ele>96.8</ele>
        <time>2023-06-08T05:25:48.609Z</time>
      </trkpt>
      <trkpt lat="46.8122" lon="0.59818">
        <ele>99.31</ele>
        <time>2023-06-08T05:26:01.254Z</time>
      </trkpt>
      <trkpt lat="46.81241" lon="0.59809">
        <ele>101.32</ele>
        <time>2023-06-08T05:26:13.903Z</time>
      </trkpt>
      <trkpt lat="46.81263" lon="0.59801">
        <ele>103.24</ele>
        <time>2023-06-08T05:26:26.555Z</time>
      </trkpt>
      <trkpt lat="46.81271" lon="0.59798">
        <ele>103.93</ele>
        <time>2023-06-08T05:26:39.209Z</time>
      </trkpt>
      <trkpt lat="46.8128" lon="0.59794">
        <ele>104.08</ele>
        <time>2023-06-08T05:26:51.864Z</time>
      </trkpt>
      <trkpt lat="46.81283" lon="0.59793">
        <ele>104.11</ele>
        <time>2023-06-08T05:27:04.520Z</time>
      </trkpt>
      <trkpt lat="46.81282" lon="0.59792">
        <ele>104.13</ele>
        <time>2023-06-08T05:27:17.176Z</time>
      </trkpt>
      <trkpt lat="46.81274" lon="0.59782">
        <ele>104.15</ele>
        <time>2023-06-08T05:27:29.834Z</time>
      </trkpt>
      <trkpt lat="46.81268" lon="0.59776">
        <ele>104.18</ele>
        <time>2023-06-08T05:27:42.493Z</time>
      </trkpt>
      <trkpt lat="46.81237" lon="0.5975">
        <ele>103.93</ele>
        <time>2023-06-08T05:27:55.157Z</time>
      </trkpt>
      <trkpt lat="46.81229" lon="0.59743">
        <ele>103.81</ele>
        <time>2023-06-08T05:28:07.823Z</time>
      </trkpt>
      <trkpt lat="46.81225" lon="0.5974">
        <ele>103.73</ele>
        <time>2023-06-08T05:28:20.490Z</time>
      </trkpt>
      <trkpt lat="46.81218" lon="0.59733">
        <ele>103.49</ele>
        <time>2023-06-08T05:28:33.158Z</time>
      </trkpt>
      <trkpt lat="46.81214" lon="0.5973">
        <ele>103.33</ele>
        <time>2023-06-08T05:28:45.827Z</time>
      </trkpt>
      <trkpt lat="46.81205" lon="0.59722">
        <ele>102.88</ele>
        <time>2023-06-08T05:28:58.497Z</time>
      </trkpt>
      <trkpt lat="46.81202" lon="0.5972">
        <ele>102.76</ele>
        <time>2023-06-08T05:29:11.168Z</time>
      </trkpt>
      <trkpt lat="46.81198" lon="0.59718">
        <ele>102.6</ele>
        <time>2023-06-08T05:29:23.840Z</time>
      </trkpt>
      <trkpt lat="46.8119" lon="0.59712">
        <ele>102.35</ele>
        <time>2023-06-08T05:29:36.513Z</time>
      </trkpt>
      <trkpt lat="46.81178" lon="0.59704">
        <ele>102.05</ele>
        <time>2023-06-08T05:29:49.188Z</time>
      </trkpt>
      <trkpt lat="46.81174" lon="0.59701">
        <ele>101.93</ele>
        <time>2023-06-08T05:30:01.864Z</time>
      </trkpt>
      <trkpt lat="46.8117" lon="0.59699">
        <ele>101.79</ele>
        <time>2023-06-08T05:30:14.541Z</time>
      </trkpt>
      <trkpt lat="46.81166" lon="0.59696">
        <ele>101.61</ele>
        <time>2023-06-08T05:30:27.218Z</time>
      </trkpt>
      <trkpt lat="46.81162" lon="0.59693">
        <ele>101.38</ele>
        <time>2023-06-08T05:30:39.896Z</time>
      </trkpt>
      <trkpt lat="46.81158" lon="0.5969">
        <ele>101.1</ele>
        <time>2023-06-08T05:30:52.575Z</time>
      </trkpt>
      <trkpt lat="46.81154" lon="0.59688">
        <ele>100.75</ele>
        <time>2023-06-08T05:31:05.254Z</time>
      </trkpt>
      <trkpt lat="46.81145" lon="0.59682">
        <ele>99.97</ele>
        <time>2023-06-08T05:31:17.935Z</time>
      </trkpt>
      <trkpt lat="46.81133" lon="0.59674">
        <ele>98.83</ele>
        <time>2023-06-08T05:31:30.618Z</time>
      </trkpt>
      <trkpt lat="46.81129" lon="0.59672">
        <ele>98.4</ele>
        <time>2023-06-08T05:31:43.302Z</time>
      </trkpt>
      <trkpt lat="46.81125" lon="0.59669">
        <ele>97.92</ele>
        <time>2023-06-08T05:31:55.986Z</time>
      </trkpt>
      <trkpt lat="46.81115" lon="0.59662">
        <ele>96.58</ele>
        <time>2023-06-08T05:32:08.672Z</time>
      </trkpt>
      <trkpt lat="46.81113" lon="0.59661">
        <ele>96.32</ele>
        <time>2023-06-08T05:32:21.359Z</time>
      </trkpt>
      <trkpt lat="46.81109" lon="0.59657">
        <ele>95.85</ele>
        <time>2023-06-08T05:32:34.046Z</time>
      </trkpt>
      <trkpt lat="46.81106" lon="0.59655">
        <ele>95.43</ele>
        <time>2023-06-08T05:32:46.734Z</time>
      </trkpt>
      <trkpt lat="46.81105" lon="0.59654">
        <ele>95.43</ele>
        <time>2023-06-08T05:32:59.422Z</time>
      </trkpt>
      <trkpt lat="46.81102" lon="0.5965">
        <ele>95.07</ele>
        <time>2023-06-08T05:33:12.111Z</time>
      </trkpt>
      <trkpt lat="46.81099" lon="0.59647">
        <ele>94.82</ele>
        <time>2023-06-08T05:33:24.800Z</time>
      </trkpt>
      <trkpt lat="46.81099" lon="0.59646">
        <ele>94.76</ele>
        <time>2023-06-08T05:33:37.489Z</time>
      </trkpt>
      <trkpt lat="46.81097" lon="0.5964">
        <ele>94.49</ele>
        <time>2023-06-08T05:33:50.179Z</time>
      </trkpt>
      <trkpt lat="46.81095" lon="0.59634">
        <ele>94.27</ele>
        <time>2023-06-08T05:34:02.870Z</time>
      </trkpt>
      <trkpt lat="46.81093" lon="0.59628">
        <ele>94.1</ele>
        <time>2023-06-08T05:34:15.562Z</time>
      </trkpt>
      <trkpt lat="46.81091" lon="0.59622">
        <ele>93.96</ele>
        <time>2023-06-08T05:34:28.254Z</time>
      </trkpt>
      <trkpt lat="46.81088" lon="0.59602">
        <ele>93.58</ele>
        <time>2023-06-08T05:34:40.949Z</time>
      </trkpt>
      <trkpt lat="46.81088" lon="0.59602">
        <ele>93.58</ele>
        <time>2023-06-08T05:34:53.644Z</time>
      </trkpt>
      <trkpt lat="46.81088" lon="0.59597">
        <ele>93.42</ele>
        <time>2023-06-08T05:35:06.339Z</time>
      </trkpt>
      <trkpt lat="46.81089" lon="0.5959">
        <ele>93.23</ele>
        <time>2023-06-08T05:35:19.035Z</time>
      </trkpt>
      <trkpt lat="46.81089" lon="0.59584">
        <ele>93</ele>
        <time>2023-06-08T05:35:31.732Z</time>
      </trkpt>
      <trkpt lat="46.8109" lon="0.59571">
        <ele>92.44</ele>
        <time>2023-06-08T05:35:44.430Z</time>
      </trkpt>
      <trkpt lat="46.81091" lon="0.59556">
        <ele>91.65</ele>
        <time>2023-06-08T05:35:57.130Z</time>
      </trkpt>
      <trkpt lat="46.81093" lon="0.59545">
        <ele>91.05</ele>
        <time>2023-06-08T05:36:09.831Z</time>
      </trkpt>
      <trkpt lat="46.81096" lon="0.59533">
        <ele>90.47</ele>
        <time>2023-06-08T05:36:22.533Z</time>
      </trkpt>
      <trkpt lat="46.81096" lon="0.59531">
        <ele>90.4</ele>
        <time>2023-06-08T05:36:35.236Z</time>
      </trkpt>
      <trkpt lat="46.81097" lon="0.59512">
        <ele>89.69</ele>
        <time>2023-06-08T05:36:47.941Z</time>
      </trkpt>
      <trkpt lat="46.81097" lon="0.59512">
        <ele>89.69</ele>
        <time>2023-06-08T05:37:00.646Z</time>
      </trkpt>
      <trkpt lat="46.81096" lon="0.59507">
        <ele>89.47</ele>
        <time>2023-06-08T05:37:13.351Z</time>
      </trkpt>
      <trkpt lat="46.81095" lon="0.59504">
        <ele>89.39</ele>
        <time>2023-06-08T05:37:26.057Z</time>
      </trkpt>
      <trkpt lat="46.81094" lon="0.59501">
        <ele>89.31</ele>
        <time>2023-06-08T05:37:38.763Z</time>
      </trkpt>
      <trkpt lat="46.81092" lon="0.59498">
        <ele>89.24</ele>
        <time>2023-06-08T05:37:51.469Z</time>
      </trkpt>
      <trkpt lat="46.8109" lon="0.59497">
        <ele>89.21</ele>
        <time>2023-06-08T05:38:04.176Z</time>
      </trkpt>
      <trkpt lat="46.81087" lon="0.59494">
        <ele>89.18</ele>
        <time>2023-06-08T05:38:16.883Z</time>
      </trkpt>
      <trkpt lat="46.81075" lon="0.59485">
        <ele>89.2</ele>
        <time>2023-06-08T05:38:29.592Z</time>
      </trkpt>
      <trkpt lat="46.81059" lon="0.59473">
        <ele>89.18</ele>
        <time>2023-06-08T05:38:42.304Z</time>
      </trkpt>
      <trkpt lat="46.81047" lon="0.59464">
        <ele>89.22</ele>
        <time>2023-06-08T05:38:55.019Z</time>
      </trkpt>
      <trkpt lat="46.81039" lon="0.59458">
        <ele>89.3</ele>
        <time>2023-06-08T05:39:07.735Z</time>
      </trkpt>
      <trkpt lat="46.81031" lon="0.59452">
        <ele>89.42</ele>
        <time>2023-06-08T05:39:20.452Z</time>
      </trkpt>
      <trkpt lat="46.81023" lon="0.59446">
        <ele>89.55</ele>
        <time>2023-06-08T05:39:33.171Z</time>
      </trkpt>
      <trkpt lat="46.81019" lon="0.59443">
        <ele>89.63</ele>
        <time>2023-06-08T05:39:45.891Z</time>
      </trkpt>
      <trkpt lat="46.81016" lon="0.59438">
        <ele>89.72</ele>
        <time>2023-06-08T05:39:58.611Z</time>
      </trkpt>
      <trkpt lat="46.81014" lon="0.59433">
        <ele>89.82</ele>
        <time>2023-06-08T05:40:11.332Z</time>
      </trkpt>
      <trkpt lat="46.81015" lon="0.59426">
        <ele>89.95</ele>
        <time>2023-06-08T05:40:24.054Z</time>
      </trkpt>
      <trkpt lat="46.81015" lon="0.59421">
        <ele>90.04</ele>
        <time>2023-06-08T05:40:36.776Z</time>
      </trkpt>
      <trkpt lat="46.81017" lon="0.59413">
        <ele>90.2</ele>
        <time>2023-06-08T05:40:49.499Z</time>
      </trkpt>
      <trkpt lat="46.81022" lon="0.59389">
        <ele>90.81</ele>
        <time>2023-06-08T05:41:02.225Z</time>
      </trkpt>
      <trkpt lat="46.81028" lon="0.59364">
        <ele>91.36</ele>
        <time>2023-06-08T05:41:14.954Z</time>
      </trkpt>
      <trkpt lat="46.81032" lon="0.59345">
        <ele>91.81</ele>
        <time>2023-06-08T05:41:27.685Z</time>
      </trkpt>
      <trkpt lat="46.81033" lon="0.59339">
        <ele>91.99</ele>
        <time>2023-06-08T05:41:40.417Z</time>
      </trkpt>
      <trkpt lat="46.81035" lon="0.59333">
        <ele>92.21</ele>
        <time>2023-06-08T05:41:53.149Z</time>
      </trkpt>
      <trkpt lat="46.81039" lon="0.59314">
        <ele>92.93</ele>
        <time>2023-06-08T05:42:05.884Z</time>
      </trkpt>
      <trkpt lat="46.8104" lon="0.59308">
        <ele>93.14</ele>
        <time>2023-06-08T05:42:18.619Z</time>
      </trkpt>
      <trkpt lat="46.81043" lon="0.59296">
        <ele>93.53</ele>
        <time>2023-06-08T05:42:31.356Z</time>
      </trkpt>
      <trkpt lat="46.81046" lon="0.59284">
        <ele>93.88</ele>
        <time>2023-06-08T05:42:44.094Z</time>
      </trkpt>
      <trkpt lat="46.81047" lon="0.59279">
        <ele>93.99</ele>
        <time>2023-06-08T05:42:56.833Z</time>
      </trkpt>
      <trkpt lat="46.81049" lon="0.59271">
        <ele>94.19</ele>
        <time>2023-06-08T05:43:09.573Z</time>
      </trkpt>
      <trkpt lat="46.81056" lon="0.59247">
        <ele>94.71</ele>
        <time>2023-06-08T05:43:22.315Z</time>
      </trkpt>
      <trkpt lat="46.81063" lon="0.59223">
        <ele>95.3</ele>
        <time>2023-06-08T05:43:35.060Z</time>
      </trkpt>
      <trkpt lat="46.81072" lon="0.59193">
        <ele>96.16</ele>
        <time>2023-06-08T05:43:47.809Z</time>
      </trkpt>
      <trkpt lat="46.81075" lon="0.59181">
        <ele>96.56</ele>
        <time>2023-06-08T05:44:00.559Z</time>
      </trkpt>
      <trkpt lat="46.81081" lon="0.59163">
        <ele>97.28</ele>
        <time>2023-06-08T05:44:13.311Z</time>
      </trkpt>
      <trkpt lat="46.81082" lon="0.59157">
        <ele>97.48</ele>
        <time>2023-06-08T05:44:26.064Z</time>
      </trkpt>
      <trkpt lat="46.81083" lon="0.59155">
        <ele>97.52</ele>
        <time>2023-06-08T05:44:38.817Z</time>
      </trkpt>
      <trkpt lat="46.81084" lon="0.59151">
        <ele>97.64</ele>
        <time>2023-06-08T05:44:51.571Z</time>
      </trkpt>
      <trkpt lat="46.81087" lon="0.59132">
        <ele>98.04</ele>
        <time>2023-06-08T05:45:04.327Z</time>
      </trkpt>
      <trkpt lat="46.81088" lon="0.59125">
        <ele>98.23</ele>
        <time>2023-06-08T05:45:17.084Z</time>
      </trkpt>
      <trkpt lat="46.81096" lon="0.59081">
        <ele>99.82</ele>
        <time>2023-06-08T05:45:29.846Z</time>
      </trkpt>
      <trkpt lat="46.81097" lon="0.59076">
        <ele>99.98</ele>
        <time>2023-06-08T05:45:42.608Z</time>
      </trkpt>
      <trkpt lat="46.81099" lon="0.59055">
        <ele>100.68</ele>
        <time>2023-06-08T05:45:55.373Z</time>
      </trkpt>
      <trkpt lat="46.811" lon="0.59042">
        <ele>101.05</ele>
        <time>2023-06-08T05:46:08.139Z</time>
      </trkpt>
      <trkpt lat="46.81102" lon="0.59023">
        <ele>101.54</ele>
        <time>2023-06-08T05:46:20.907Z</time>
      </trkpt>
      <trkpt lat="46.81104" lon="0.5901">
        <ele>101.9</ele>
        <time>2023-06-08T05:46:33.677Z</time>
      </trkpt>
      <trkpt lat="46.81107" lon="0.58976">
        <ele>102.96</ele>
        <time>2023-06-08T05:46:46.451Z</time>
      </trkpt>
      <trkpt lat="46.81108" lon="0.58971">
        <ele>103.13</ele>
        <time>2023-06-08T05:46:59.225Z</time>
      </trkpt>
      <trkpt lat="46.81115" lon="0.5894">
        <ele>104.1</ele>
        <time>2023-06-08T05:47:12.003Z</time>
      </trkpt>
      <trkpt lat="46.81115" lon="0.5894">
        <ele>104.1</ele>
        <time>2023-06-08T05:47:24.781Z</time>
      </trkpt>
      <trkpt lat="46.81117" lon="0.58934">
        <ele>104.28</ele>
        <time>2023-06-08T05:47:37.559Z</time>
      </trkpt>
      <trkpt lat="46.81119" lon="0.58928">
        <ele>104.43</ele>
        <time>2023-06-08T05:47:50.338Z</time>
      </trkpt>
      <trkpt lat="46.81121" lon="0.58922">
        <ele>104.54</ele>
        <time>2023-06-08T05:48:03.118Z</time>
      </trkpt>
      <trkpt lat="46.81125" lon="0.58911">
        <ele>104.66</ele>
        <time>2023-06-08T05:48:15.899Z</time>
      </trkpt>
      <trkpt lat="46.81128" lon="0.58901">
        <ele>104.71</ele>
        <time>2023-06-08T05:48:28.681Z</time>
      </trkpt>
      <trkpt lat="46.81131" lon="0.58893">
        <ele>104.76</ele>
        <time>2023-06-08T05:48:41.464Z</time>
      </trkpt>
      <trkpt lat="46.81133" lon="0.58887">
        <ele>104.81</ele>
        <time>2023-06-08T05:48:54.248Z</time>
      </trkpt>
      <trkpt lat="46.81135" lon="0.58882">
        <ele>104.9</ele>
        <time>2023-06-08T05:49:07.033Z</time>
      </trkpt>
      <trkpt lat="46.81142" lon="0.58865">
        <ele>105.22</ele>
        <time>2023-06-08T05:49:19.820Z</time>
      </trkpt>
      <trkpt lat="46.81149" lon="0.58848">
        <ele>105.4</ele>
        <time>2023-06-08T05:49:32.609Z</time>
      </trkpt>
      <trkpt lat="46.81151" lon="0.58842">
        <ele>105.43</ele>
        <time>2023-06-08T05:49:45.399Z</time>
      </trkpt>
      <trkpt lat="46.81162" lon="0.58813">
        <ele>105.52</ele>
        <time>2023-06-08T05:49:58.192Z</time>
      </trkpt>
      <trkpt lat="46.81169" lon="0.58796">
        <ele>105.53</ele>
        <time>2023-06-08T05:50:10.988Z</time>
      </trkpt>
      <trkpt lat="46.81173" lon="0.58785">
        <ele>105.56</ele>
        <time>2023-06-08T05:50:23.785Z</time>
      </trkpt>
      <trkpt lat="46.81177" lon="0.58774">
        <ele>105.64</ele>
        <time>2023-06-08T05:50:36.584Z</time>
      </trkpt>
      <trkpt lat="46.81182" lon="0.58762">
        <ele>105.77</ele>
        <time>2023-06-08T05:50:49.384Z</time>
      </trkpt>
      <trkpt lat="46.81193" lon="0.58734">
        <ele>106.02</ele>
        <time>2023-06-08T05:51:02.188Z</time>
      </trkpt>
      <trkpt lat="46.81197" lon="0.58722">
        <ele>106.08</ele>
        <time>2023-06-08T05:51:14.993Z</time>
      </trkpt>
      <trkpt lat="46.81202" lon="0.58711">
        <ele>106.11</ele>
        <time>2023-06-08T05:51:27.799Z</time>
      </trkpt>
      <trkpt lat="46.81206" lon="0.58699">
        <ele>106.1</ele>
        <time>2023-06-08T05:51:40.607Z</time>
      </trkpt>
      <trkpt lat="46.8121" lon="0.58688">
        <ele>106.03</ele>
        <time>2023-06-08T05:51:53.416Z</time>
      </trkpt>
      <trkpt lat="46.81226" lon="0.58648">
        <ele>105.58</ele>
        <time>2023-06-08T05:52:06.230Z</time>
      </trkpt>
      <trkpt lat="46.81232" lon="0.58631">
        <ele>105.43</ele>
        <time>2023-06-08T05:52:19.046Z</time>
      </trkpt>
      <trkpt lat="46.81235" lon="0.58625">
        <ele>105.4</ele>
        <time>2023-06-08T05:52:31.863Z</time>
      </trkpt>
      <trkpt lat="46.81243" lon="0.58603">
        <ele>105.35</ele>
        <time>2023-06-08T05:52:44.683Z</time>
      </trkpt>
      <trkpt lat="46.81248" lon="0.58591">
        <ele>105.24</ele>
        <time>2023-06-08T05:52:57.505Z</time>
      </trkpt>
      <trkpt lat="46.81253" lon="0.58581">
        <ele>105.15</ele>
        <time>2023-06-08T05:53:10.328Z</time>
      </trkpt>
      <trkpt lat="46.81261" lon="0.58565">
        <ele>105.05</ele>
        <time>2023-06-08T05:53:23.153Z</time>
      </trkpt>
      <trkpt lat="46.81266" lon="0.58554">
        <ele>105.25</ele>
        <time>2023-06-08T05:53:35.980Z</time>
      </trkpt>
      <trkpt lat="46.81268" lon="0.5855">
        <ele>105.31</ele>
        <time>2023-06-08T05:53:48.807Z</time>
      </trkpt>
      <trkpt lat="46.81265" lon="0.58543">
        <ele>105.42</ele>
        <time>2023-06-08T05:54:01.635Z</time>
      </trkpt>
      <trkpt lat="46.81255" lon="0.58514">
        <ele>105.74</ele>
        <time>2023-06-08T05:54:14.467Z</time>
      </trkpt>
      <trkpt lat="46.81249" lon="0.58497">
        <ele>106</ele>
        <time>2023-06-08T05:54:27.301Z</time>
      </trkpt>
      <trkpt lat="46.81249" lon="0.58497">
        <ele>106</ele>
        <time>2023-06-08T05:54:40.135Z</time>
      </trkpt>
      <trkpt lat="46.81245" lon="0.58486">
        <ele>106.15</ele>
        <time>2023-06-08T05:54:52.970Z</time>
      </trkpt>
      <trkpt lat="46.81233" lon="0.58457">
        <ele>106.33</ele>
        <time>2023-06-08T05:55:05.809Z</time>
      </trkpt>
      <trkpt lat="46.81227" lon="0.5844">
        <ele>106.51</ele>
        <time>2023-06-08T05:55:18.650Z</time>
      </trkpt>
      <trkpt lat="46.81214" lon="0.58406">
        <ele>106.8</ele>
        <time>2023-06-08T05:55:31.495Z</time>
      </trkpt>
      <trkpt lat="46.81205" lon="0.58384">
        <ele>106.95</ele>
        <time>2023-06-08T05:55:44.343Z</time>
      </trkpt>
      <trkpt lat="46.81204" lon="0.58382">
        <ele>106.97</ele>
        <time>2023-06-08T05:55:57.191Z</time>
      </trkpt>
      <trkpt lat="46.81199" lon="0.58368">
        <ele>107.14</ele>
        <time>2023-06-08T05:56:10.041Z</time>
      </trkpt>
      <trkpt lat="46.81199" lon="0.58366">
        <ele>107.16</ele>
        <time>2023-06-08T05:56:22.891Z</time>
      </trkpt>
      <trkpt lat="46.81199" lon="0.58361">
        <ele>107.23</ele>
        <time>2023-06-08T05:56:35.742Z</time>
      </trkpt>
      <trkpt lat="46.81203" lon="0.58348">
        <ele>107.42</ele>
        <time>2023-06-08T05:56:48.594Z</time>
      </trkpt>
      <trkpt lat="46.81209" lon="0.58338">
        <ele>107.6</ele>
        <time>2023-06-08T05:57:01.448Z</time>
      </trkpt>
      <trkpt lat="46.81218" lon="0.58323">
        <ele>107.92</ele>
        <time>2023-06-08T05:57:14.304Z</time>
      </trkpt>
      <trkpt lat="46.81229" lon="0.58303">
        <ele>108.43</ele>
        <time>2023-06-08T05:57:27.163Z</time>
      </trkpt>
      <trkpt lat="46.81232" lon="0.58298">
        <ele>108.52</ele>
        <time>2023-06-08T05:57:40.022Z</time>
      </trkpt>
      <trkpt lat="46.81239" lon="0.58287">
        <ele>108.69</ele>
        <time>2023-06-08T05:57:52.883Z</time>
      </trkpt>
      <trkpt lat="46.81241" lon="0.58277">
        <ele>108.82</ele>
        <time>2023-06-08T05:58:05.745Z</time>
      </trkpt>
      <trkpt lat="46.81246" lon="0.58258">
        <ele>109.13</ele>
        <time>2023-06-08T05:58:18.609Z</time>
      </trkpt>
      <trkpt lat="46.81247" lon="0.58252">
        <ele>109.24</ele>
        <time>2023-06-08T05:58:31.474Z</time>
      </trkpt>
      <trkpt lat="46.81253" lon="0.5822">
        <ele>109.68</ele>
        <time>2023-06-08T05:58:44.343Z</time>
      </trkpt>
      <trkpt lat="46.81261" lon="0.58176">
        <ele>110.34</ele>
        <time>2023-06-08T05:58:57.217Z</time>
      </trkpt>
      <trkpt lat="46.81263" lon="0.5817">
        <ele>110.4</ele>
        <time>2023-06-08T05:59:10.092Z</time>
      </trkpt>
      <trkpt lat="46.81264" lon="0.58163">
        <ele>110.44</ele>
        <time>2023-06-08T05:59:22.967Z</time>
      </trkpt>
      <trkpt lat="46.81272" lon="0.58119">
        <ele>110.53</ele>
        <time>2023-06-08T05:59:35.847Z</time>
      </trkpt>
      <trkpt lat="46.81276" lon="0.581">
        <ele>110.6</ele>
        <time>2023-06-08T05:59:48.729Z</time>
      </trkpt>
      <trkpt lat="46.81278" lon="0.58088">
        <ele>110.68</ele>
        <time>2023-06-08T06:00:01.613Z</time>
      </trkpt>
      <trkpt lat="46.81283" lon="0.58062">
        <ele>110.87</ele>
        <time>2023-06-08T06:00:14.500Z</time>
      </trkpt>
      <trkpt lat="46.81286" lon="0.58046">
        <ele>110.97</ele>
        <time>2023-06-08T06:00:27.389Z</time>
      </trkpt>
      <trkpt lat="46.81287" lon="0.58037">
        <ele>111.03</ele>
        <time>2023-06-08T06:00:40.279Z</time>
      </trkpt>
      <trkpt lat="46.81287" lon="0.58024">
        <ele>111.09</ele>
        <time>2023-06-08T06:00:53.170Z</time>
      </trkpt>
      <trkpt lat="46.81289" lon="0.57998">
        <ele>111.17</ele>
        <time>2023-06-08T06:01:06.064Z</time>
      </trkpt>
      <trkpt lat="46.8129" lon="0.57985">
        <ele>111.23</ele>
        <time>2023-06-08T06:01:18.959Z</time>
      </trkpt>
      <trkpt lat="46.81292" lon="0.57952">
        <ele>111.47</ele>
        <time>2023-06-08T06:01:31.858Z</time>
      </trkpt>
      <trkpt lat="46.81293" lon="0.57939">
        <ele>111.6</ele>
        <time>2023-06-08T06:01:44.758Z</time>
      </trkpt>
      <trkpt lat="46.81293" lon="0.57931">
        <ele>111.71</ele>
        <time>2023-06-08T06:01:57.659Z</time>
      </trkpt>
      <trkpt lat="46.81294" lon="0.57926">
        <ele>111.79</ele>
        <time>2023-06-08T06:02:10.561Z</time>
      </trkpt>
      <trkpt lat="46.81295" lon="0.5792">
        <ele>111.91</ele>
        <time>2023-06-08T06:02:23.464Z</time>
      </trkpt>
      <trkpt lat="46.81299" lon="0.57901">
        <ele>112.34</ele>
        <time>2023-06-08T06:02:36.369Z</time>
      </trkpt>
      <trkpt lat="46.813" lon="0.57895">
        <ele>112.45</ele>
        <time>2023-06-08T06:02:49.274Z</time>
      </trkpt>
      <trkpt lat="46.81301" lon="0.57888">
        <ele>112.51</ele>
        <time>2023-06-08T06:03:02.180Z</time>
      </trkpt>
      <trkpt lat="46.81302" lon="0.57882">
        <ele>112.52</ele>
        <time>2023-06-08T06:03:15.087Z</time>
      </trkpt>
      <trkpt lat="46.81306" lon="0.57863">
        <ele>112.48</ele>
        <time>2023-06-08T06:03:27.996Z</time>
      </trkpt>
      <trkpt lat="46.81307" lon="0.57857">
        <ele>112.51</ele>
        <time>2023-06-08T06:03:40.906Z</time>
      </trkpt>
      <trkpt lat="46.81309" lon="0.57844">
        <ele>112.62</ele>
        <time>2023-06-08T06:03:53.817Z</time>
      </trkpt>
      <trkpt lat="46.81312" lon="0.57831">
        <ele>112.79</ele>
        <time>2023-06-08T06:04:06.730Z</time>
      </trkpt>
      <trkpt lat="46.81315" lon="0.57813">
        <ele>113.11</ele>
        <time>2023-06-08T06:04:19.645Z</time>
      </trkpt>
      <trkpt lat="46.81318" lon="0.578">
        <ele>113.34</ele>
        <time>2023-06-08T06:04:32.561Z</time>
      </trkpt>
      <trkpt lat="46.81325" lon="0.57769">
        <ele>113.76</ele>
        <time>2023-06-08T06:04:45.481Z</time>
      </trkpt>
      <trkpt lat="46.8133" lon="0.57751">
        <ele>114.05</ele>
        <time>2023-06-08T06:04:58.403Z</time>
      </trkpt>
      <trkpt lat="46.81332" lon="0.57738">
        <ele>114.19</ele>
        <time>2023-06-08T06:05:11.326Z</time>
      </trkpt>
      <trkpt lat="46.81337" lon="0.5772">
        <ele>114.3</ele>
        <time>2023-06-08T06:05:24.252Z</time>
      </trkpt>
      <trkpt lat="46.8134" lon="0.57707">
        <ele>114.52</ele>
        <time>2023-06-08T06:05:37.179Z</time>
      </trkpt>
      <trkpt lat="46.81342" lon="0.57695">
        <ele>114.77</ele>
        <time>2023-06-08T06:05:50.107Z</time>
      </trkpt>
      <trkpt lat="46.81345" lon="0.57683">
        <ele>115.06</ele>
        <time>2023-06-08T06:06:03.037Z</time>
      </trkpt>
      <trkpt lat="46.81351" lon="0.57658">
        <ele>115.74</ele>
        <time>2023-06-08T06:06:15.970Z</time>
      </trkpt>
      <trkpt lat="46.81354" lon="0.57645">
        <ele>116.12</ele>
        <time>2023-06-08T06:06:28.904Z</time>
      </trkpt>
      <trkpt lat="46.81361" lon="0.57615">
        <ele>117.17</ele>
        <time>2023-06-08T06:06:41.842Z</time>
      </trkpt>
      <trkpt lat="46.81365" lon="0.57598">
        <ele>117.34</ele>
        <time>2023-06-08T06:06:54.782Z</time>
      </trkpt>
      <trkpt lat="46.81372" lon="0.57589">
        <ele>117.47</ele>
        <time>2023-06-08T06:07:07.723Z</time>
      </trkpt>
      <trkpt lat="46.81378" lon="0.57582">
        <ele>117.55</ele>
        <time>2023-06-08T06:07:20.665Z</time>
      </trkpt>
      <trkpt lat="46.81393" lon="0.57569">
        <ele>117.74</ele>
        <time>2023-06-08T06:07:33.610Z</time>
      </trkpt>
      <trkpt lat="46.81404" lon="0.5756">
        <ele>117.83</ele>
        <time>2023-06-08T06:07:46.557Z</time>
      </trkpt>
      <trkpt lat="46.81409" lon="0.57557">
        <ele>117.88</ele>
        <time>2023-06-08T06:07:59.505Z</time>
      </trkpt>
      <trkpt lat="46.81437" lon="0.57537">
        <ele>118.05</ele>
        <time>2023-06-08T06:08:12.458Z</time>
      </trkpt>
      <trkpt lat="46.8145" lon="0.57528">
        <ele>118.1</ele>
        <time>2023-06-08T06:08:25.413Z</time>
      </trkpt>
      <trkpt lat="46.81456" lon="0.57521">
        <ele>118.13</ele>
        <time>2023-06-08T06:08:38.370Z</time>
      </trkpt>
      <trkpt lat="46.81477" lon="0.57498">
        <ele>118.2</ele>
        <time>2023-06-08T06:08:51.331Z</time>
      </trkpt>
      <trkpt lat="46.81498" lon="0.57475">
        <ele>118.3</ele>
        <time>2023-06-08T06:09:04.296Z</time>
      </trkpt>
      <trkpt lat="46.81506" lon="0.57469">
        <ele>118.34</ele>
        <time>2023-06-08T06:09:17.262Z</time>
      </trkpt>
      <trkpt lat="46.81506" lon="0.57469">
        <ele>118.34</ele>
        <time>2023-06-08T06:09:30.228Z</time>
      </trkpt>
      <trkpt lat="46.81514" lon="0.57469">
        <ele>118.35</ele>
        <time>2023-06-08T06:09:43.196Z</time>
      </trkpt>
      <trkpt lat="46.81524" lon="0.57475">
        <ele>118.36</ele>
        <time>2023-06-08T06:09:56.166Z</time>
      </trkpt>
      <trkpt lat="46.81526" lon="0.57475">
        <ele>118.37</ele>
        <time>2023-06-08T06:10:09.136Z</time>
      </trkpt>
      <trkpt lat="46.81534" lon="0.57477">
        <ele>118.41</ele>
        <time>2023-06-08T06:10:22.107Z</time>
      </trkpt>
      <trkpt lat="46.81539" lon="0.57475">
        <ele>118.45</ele>
        <time>2023-06-08T06:10:35.079Z</time>
      </trkpt>
      <trkpt lat="46.8155" lon="0.57469">
        <ele>118.5</ele>
        <time>2023-06-08T06:10:48.053Z</time>
      </trkpt>
      <trkpt lat="46.81562" lon="0.5746">
        <ele>118.56</ele>
        <time>2023-06-08T06:11:01.029Z</time>
      </trkpt>
      <trkpt lat="46.8157" lon="0.57454">
        <ele>118.61</ele>
        <time>2023-06-08T06:11:14.006Z</time>
      </trkpt>
      <trkpt lat="46.8159" lon="0.57443">
        <ele>118.77</ele>
        <time>2023-06-08T06:11:26.987Z</time>
      </trkpt>
      <trkpt lat="46.81608" lon="0.57433">
        <ele>118.85</ele>
        <time>2023-06-08T06:11:39.971Z</time>
      </trkpt>
      <trkpt lat="46.81611" lon="0.57432">
        <ele>118.87</ele>
        <time>2023-06-08T06:11:52.955Z</time>
      </trkpt>
      <trkpt lat="46.81623" lon="0.57427">
        <ele>118.88</ele>
        <time>2023-06-08T06:12:05.941Z</time>
      </trkpt>
      <trkpt lat="46.81636" lon="0.57422">
        <ele>119.03</ele>
        <time>2023-06-08T06:12:18.930Z</time>
      </trkpt>
      <trkpt lat="46.81662" lon="0.57417">
        <ele>119.36</ele>
        <time>2023-06-08T06:12:31.923Z</time>
      </trkpt>
      <trkpt lat="46.81666" lon="0.57416">
        <ele>119.39</ele>
        <time>2023-06-08T06:12:44.916Z</time>
      </trkpt>
      <trkpt lat="46.81675" lon="0.57419">
        <ele>119.48</ele>
        <time>2023-06-08T06:12:57.911Z</time>
      </trkpt>
      <trkpt lat="46.81679" lon="0.5742">
        <ele>119.5</ele>
        <time>2023-06-08T06:13:10.907Z</time>
      </trkpt>
      <trkpt lat="46.81687" lon="0.57427">
        <ele>119.57</ele>
        <time>2023-06-08T06:13:23.904Z</time>
      </trkpt>
      <trkpt lat="46.81698" lon="0.57436">
        <ele>119.63</ele>
        <time>2023-06-08T06:13:36.903Z</time>
      </trkpt>
      <trkpt lat="46.81707" lon="0.57451">
        <ele>119.71</ele>
        <time>2023-06-08T06:13:49.904Z</time>
      </trkpt>
      <trkpt lat="46.8171" lon="0.57457">
        <ele>119.74</ele>
        <time>2023-06-08T06:14:02.906Z</time>
      </trkpt>
      <trkpt lat="46.8171" lon="0.57457">
        <ele>119.95</ele>
        <time>2023-06-08T06:14:15.908Z</time>
      </trkpt>
      <trkpt lat="46.81714" lon="0.57469">
        <ele>120.07</ele>
        <time>2023-06-08T06:14:28.911Z</time>
      </trkpt>
      <trkpt lat="46.81714" lon="0.57469">
        <ele>119.8</ele>
        <time>2023-06-08T06:14:41.914Z</time>
      </trkpt>
      <trkpt lat="46.8172" lon="0.57484">
        <ele>119.72</ele>
        <time>2023-06-08T06:14:54.919Z</time>
      </trkpt>
      <trkpt lat="46.81717" lon="0.57476">
        <ele>119.68</ele>
        <time>2023-06-08T06:15:07.925Z</time>
      </trkpt>
      <trkpt lat="46.81707" lon="0.57451">
        <ele>119.57</ele>
        <time>2023-06-08T06:15:20.935Z</time>
      </trkpt>
      <trkpt lat="46.81706" lon="0.57449">
        <ele>119.57</ele>
        <time>2023-06-08T06:15:33.945Z</time>
      </trkpt>
      <trkpt lat="46.81698" lon="0.57436">
        <ele>119.65</ele>
        <time>2023-06-08T06:15:46.957Z</time>
      </trkpt>
      <trkpt lat="46.81706" lon="0.57426">
        <ele>119.72</ele>
        <time>2023-06-08T06:15:59.970Z</time>
      </trkpt>
      <trkpt lat="46.81715" lon="0.57415">
        <ele>119.84</ele>
        <time>2023-06-08T06:16:12.985Z</time>
      </trkpt>
      <trkpt lat="46.81727" lon="0.57404">
        <ele>120</ele>
        <time>2023-06-08T06:16:26.003Z</time>
      </trkpt>
      <trkpt lat="46.8173" lon="0.57401">
        <ele>120.02</ele>
        <time>2023-06-08T06:16:39.021Z</time>
      </trkpt>
      <trkpt lat="46.81735" lon="0.57399">
        <ele>120.05</ele>
        <time>2023-06-08T06:16:52.040Z</time>
      </trkpt>
      <trkpt lat="46.81739" lon="0.57397">
        <ele>120.06</ele>
        <time>2023-06-08T06:17:05.060Z</time>
      </trkpt>
      <trkpt lat="46.81739" lon="0.57396">
        <ele>120.06</ele>
        <time>2023-06-08T06:17:18.080Z</time>
      </trkpt>
      <trkpt lat="46.81738" lon="0.57384">
        <ele>120.04</ele>
        <time>2023-06-08T06:17:31.101Z</time>
      </trkpt>
      <trkpt lat="46.81737" lon="0.57376">
        <ele>120.01</ele>
        <time>2023-06-08T06:17:44.123Z</time>
      </trkpt>
      <trkpt lat="46.81738" lon="0.57364">
        <ele>119.98</ele>
        <time>2023-06-08T06:17:57.146Z</time>
      </trkpt>
      <trkpt lat="46.81739" lon="0.57345">
        <ele>120.01</ele>
        <time>2023-06-08T06:18:10.171Z</time>
      </trkpt>
      <trkpt lat="46.81739" lon="0.57339">
        <ele>120</ele>
        <time>2023-06-08T06:18:23.197Z</time>
      </trkpt>
      <trkpt lat="46.8174" lon="0.57319">
        <ele>119.92</ele>
        <time>2023-06-08T06:18:36.225Z</time>
      </trkpt>
      <trkpt lat="46.81741" lon="0.573">
        <ele>119.65</ele>
        <time>2023-06-08T06:18:49.255Z</time>
      </trkpt>
      <trkpt lat="46.81741" lon="0.573">
        <ele>119.65</ele>
        <time>2023-06-08T06:19:02.285Z</time>
      </trkpt>
      <trkpt lat="46.81744" lon="0.57288">
        <ele>119.45</ele>
        <time>2023-06-08T06:19:15.317Z</time>
      </trkpt>
      <trkpt lat="46.81747" lon="0.57278">
        <ele>119.24</ele>
        <time>2023-06-08T06:19:28.350Z</time>
      </trkpt>
      <trkpt lat="46.81754" lon="0.57259">
        <ele>118.85</ele>
        <time>2023-06-08T06:19:41.385Z</time>
      </trkpt>
      <trkpt lat="46.81762" lon="0.57237">
        <ele>118.44</ele>
        <time>2023-06-08T06:19:54.423Z</time>
      </trkpt>
      <trkpt lat="46.81764" lon="0.57231">
        <ele>118.31</ele>
        <time>2023-06-08T06:20:07.462Z</time>
      </trkpt>
      <trkpt lat="46.81767" lon="0.57223">
        <ele>118.06</ele>
        <time>2023-06-08T06:20:20.502Z</time>
      </trkpt>
      <trkpt lat="46.81769" lon="0.5722">
        <ele>117.97</ele>
        <time>2023-06-08T06:20:33.542Z</time>
      </trkpt>
      <trkpt lat="46.81774" lon="0.5721">
        <ele>117.57</ele>
        <time>2023-06-08T06:20:46.584Z</time>
      </trkpt>
      <trkpt lat="46.81779" lon="0.572">
        <ele>117.14</ele>
        <time>2023-06-08T06:20:59.627Z</time>
      </trkpt>
      <trkpt lat="46.81782" lon="0.57195">
        <ele>116.9</ele>
        <time>2023-06-08T06:21:12.671Z</time>
      </trkpt>
      <trkpt lat="46.81785" lon="0.5719">
        <ele>116.62</ele>
        <time>2023-06-08T06:21:25.716Z</time>
      </trkpt>
      <trkpt lat="46.81787" lon="0.57184">
        <ele>116.32</ele>
        <time>2023-06-08T06:21:38.761Z</time>
      </trkpt>
      <trkpt lat="46.81788" lon="0.57183">
        <ele>116.22</ele>
        <time>2023-06-08T06:21:51.806Z</time>
      </trkpt>
      <trkpt lat="46.81801" lon="0.57169">
        <ele>115.03</ele>
        <time>2023-06-08T06:22:04.854Z</time>
      </trkpt>
      <trkpt lat="46.81808" lon="0.57162">
        <ele>114.33</ele>
        <time>2023-06-08T06:22:17.903Z</time>
      </trkpt>
      <trkpt lat="46.81816" lon="0.57154">
        <ele>113.9</ele>
        <time>2023-06-08T06:22:30.954Z</time>
      </trkpt>
      <trkpt lat="46.81823" lon="0.57146">
        <ele>113.55</ele>
        <time>2023-06-08T06:22:44.006Z</time>
      </trkpt>
      <trkpt lat="46.81829" lon="0.5714">
        <ele>113.28</ele>
        <time>2023-06-08T06:22:57.060Z</time>
      </trkpt>
      <trkpt lat="46.81833" lon="0.57134">
        <ele>113.08</ele>
        <time>2023-06-08T06:23:10.114Z</time>
      </trkpt>
      <trkpt lat="46.81843" lon="0.5712">
        <ele>112.58</ele>
        <time>2023-06-08T06:23:23.171Z</time>
      </trkpt>
      <trkpt lat="46.81849" lon="0.57111">
        <ele>112.3</ele>
        <time>2023-06-08T06:23:36.229Z</time>
      </trkpt>
      <trkpt lat="46.8185" lon="0.57109">
        <ele>112.26</ele>
        <time>2023-06-08T06:23:49.287Z</time>
      </trkpt>
      <trkpt lat="46.81852" lon="0.57106">
        <ele>112.2</ele>
        <time>2023-06-08T06:24:02.346Z</time>
      </trkpt>
      <trkpt lat="46.81856" lon="0.57102">
        <ele>112.13</ele>
        <time>2023-06-08T06:24:15.405Z</time>
      </trkpt>
      <trkpt lat="46.81859" lon="0.57098">
        <ele>112.09</ele>
        <time>2023-06-08T06:24:28.465Z</time>
      </trkpt>
      <trkpt lat="46.81866" lon="0.5709">
        <ele>112.08</ele>
        <time>2023-06-08T06:24:41.527Z</time>
      </trkpt>
      <trkpt lat="46.8188" lon="0.57073">
        <ele>112.18</ele>
        <time>2023-06-08T06:24:54.591Z</time>
      </trkpt>
      <trkpt lat="46.81883" lon="0.57069">
        <ele>109.49</ele>
        <time>2023-06-08T06:25:07.656Z</time>
      </trkpt>
      <trkpt lat="46.81885" lon="0.57065">
        <ele>107.31</ele>
        <time>2023-06-08T06:25:20.722Z</time>
      </trkpt>
      <trkpt lat="46.81895" lon="0.57051">
        <ele>106.4</ele>
        <time>2023-06-08T06:25:33.790Z</time>
      </trkpt>
      <trkpt lat="46.81883" lon="0.57017">
        <ele>104.73</ele>
        <time>2023-06-08T06:25:46.862Z</time>
      </trkpt>
      <trkpt lat="46.81883" lon="0.57017">
        <ele>104.73</ele>
        <time>2023-06-08T06:25:59.934Z</time>
      </trkpt>
      <trkpt lat="46.81879" lon="0.56999">
        <ele>103.9</ele>
        <time>2023-06-08T06:26:13.008Z</time>
      </trkpt>
      <trkpt lat="46.81873" lon="0.56969">
        <ele>102.57</ele>
        <time>2023-06-08T06:26:26.086Z</time>
      </trkpt>
      <trkpt lat="46.81872" lon="0.56963">
        <ele>102.3</ele>
        <time>2023-06-08T06:26:39.164Z</time>
      </trkpt>
      <trkpt lat="46.81869" lon="0.56937">
        <ele>101.11</ele>
        <time>2023-06-08T06:26:52.245Z</time>
      </trkpt>
      <trkpt lat="46.81868" lon="0.56922">
        <ele>100.48</ele>
        <time>2023-06-08T06:27:05.328Z</time>
      </trkpt>
      <trkpt lat="46.81868" lon="0.56912">
        <ele>100.06</ele>
        <time>2023-06-08T06:27:18.412Z</time>
      </trkpt>
      <trkpt lat="46.81869" lon="0.56893">
        <ele>99.22</ele>
        <time>2023-06-08T06:27:31.498Z</time>
      </trkpt>
      <trkpt lat="46.8187" lon="0.5688">
        <ele>98.6</ele>
        <time>2023-06-08T06:27:44.586Z</time>
      </trkpt>
      <trkpt lat="46.8187" lon="0.56873">
        <ele>98.3</ele>
        <time>2023-06-08T06:27:57.674Z</time>
      </trkpt>
      <trkpt lat="46.81871" lon="0.56867">
        <ele>98.01</ele>
        <time>2023-06-08T06:28:10.763Z</time>
      </trkpt>
      <trkpt lat="46.81874" lon="0.56854">
        <ele>97.45</ele>
        <time>2023-06-08T06:28:23.853Z</time>
      </trkpt>
      <trkpt lat="46.8188" lon="0.56823">
        <ele>96.11</ele>
        <time>2023-06-08T06:28:36.947Z</time>
      </trkpt>
      <trkpt lat="46.81882" lon="0.56815">
        <ele>95.75</ele>
        <time>2023-06-08T06:28:50.042Z</time>
      </trkpt>
      <trkpt lat="46.8189" lon="0.56786">
        <ele>94.43</ele>
        <time>2023-06-08T06:29:03.140Z</time>
      </trkpt>
      <trkpt lat="46.81896" lon="0.56762">
        <ele>93.28</ele>
        <time>2023-06-08T06:29:16.241Z</time>
      </trkpt>
      <trkpt lat="46.81901" lon="0.56744">
        <ele>92.44</ele>
        <time>2023-06-08T06:29:29.344Z</time>
      </trkpt>
      <trkpt lat="46.81905" lon="0.56732">
        <ele>91.91</ele>
        <time>2023-06-08T06:29:42.449Z</time>
      </trkpt>
      <trkpt lat="46.81918" lon="0.56683">
        <ele>89.87</ele>
        <time>2023-06-08T06:29:55.560Z</time>
      </trkpt>
      <trkpt lat="46.81926" lon="0.56653">
        <ele>88.46</ele>
        <time>2023-06-08T06:30:08.674Z</time>
      </trkpt>
      <trkpt lat="46.81931" lon="0.56637">
        <ele>88.05</ele>
        <time>2023-06-08T06:30:21.790Z</time>
      </trkpt>
      <trkpt lat="46.81935" lon="0.56621">
        <ele>87.39</ele>
        <time>2023-06-08T06:30:34.908Z</time>
      </trkpt>
      <trkpt lat="46.81941" lon="0.56599">
        <ele>86.6</ele>
        <time>2023-06-08T06:30:48.028Z</time>
      </trkpt>
      <trkpt lat="46.81944" lon="0.56588">
        <ele>86.25</ele>
        <time>2023-06-08T06:31:01.150Z</time>
      </trkpt>
      <trkpt lat="46.81948" lon="0.56573">
        <ele>85.79</ele>
        <time>2023-06-08T06:31:14.274Z</time>
      </trkpt>
      <trkpt lat="46.81953" lon="0.56554">
        <ele>85.43</ele>
        <time>2023-06-08T06:31:27.400Z</time>
      </trkpt>
      <trkpt lat="46.81954" lon="0.56551">
        <ele>85.37</ele>
        <time>2023-06-08T06:31:40.526Z</time>
      </trkpt>
      <trkpt lat="46.81961" lon="0.56536">
        <ele>85</ele>
        <time>2023-06-08T06:31:53.654Z</time>
      </trkpt>
      <trkpt lat="46.81968" lon="0.56522">
        <ele>84.82</ele>
        <time>2023-06-08T06:32:06.784Z</time>
      </trkpt>
      <trkpt lat="46.81969" lon="0.5652">
        <ele>84.78</ele>
        <time>2023-06-08T06:32:19.914Z</time>
      </trkpt>
      <trkpt lat="46.81973" lon="0.56518">
        <ele>84.68</ele>
        <time>2023-06-08T06:32:33.045Z</time>
      </trkpt>
      <trkpt lat="46.81977" lon="0.56511">
        <ele>84.53</ele>
        <time>2023-06-08T06:32:46.177Z</time>
      </trkpt>
      <trkpt lat="46.81978" lon="0.56509">
        <ele>84.42</ele>
        <time>2023-06-08T06:32:59.309Z</time>
      </trkpt>
      <trkpt lat="46.81978" lon="0.56508">
        <ele>84.42</ele>
        <time>2023-06-08T06:33:12.441Z</time>
      </trkpt>
      <trkpt lat="46.8198" lon="0.56501">
        <ele>83.93</ele>
        <time>2023-06-08T06:33:25.574Z</time>
      </trkpt>
      <trkpt lat="46.81977" lon="0.56483">
        <ele>82.79</ele>
        <time>2023-06-08T06:33:38.709Z</time>
      </trkpt>
      <trkpt lat="46.81976" lon="0.56473">
        <ele>82.08</ele>
        <time>2023-06-08T06:33:51.845Z</time>
      </trkpt>
      <trkpt lat="46.8198" lon="0.56453">
        <ele>80.7</ele>
        <time>2023-06-08T06:34:04.984Z</time>
      </trkpt>
      <trkpt lat="46.81986" lon="0.56428">
        <ele>78.97</ele>
        <time>2023-06-08T06:34:18.125Z</time>
      </trkpt>
      <trkpt lat="46.8199" lon="0.56409">
        <ele>78.37</ele>
        <time>2023-06-08T06:34:31.269Z</time>
      </trkpt>
      <trkpt lat="46.81993" lon="0.56393">
        <ele>77.88</ele>
        <time>2023-06-08T06:34:44.415Z</time>
      </trkpt>
      <trkpt lat="46.81996" lon="0.56375">
        <ele>77.36</ele>
        <time>2023-06-08T06:34:57.563Z</time>
      </trkpt>
      <trkpt lat="46.82" lon="0.56355">
        <ele>76.92</ele>
        <time>2023-06-08T06:35:10.713Z</time>
      </trkpt>
      <trkpt lat="46.82001" lon="0.56333">
        <ele>76.46</ele>
        <time>2023-06-08T06:35:23.865Z</time>
      </trkpt>
      <trkpt lat="46.82001" lon="0.56329">
        <ele>76.38</ele>
        <time>2023-06-08T06:35:37.018Z</time>
      </trkpt>
      <trkpt lat="46.81999" lon="0.5628">
        <ele>75.4</ele>
        <time>2023-06-08T06:35:50.176Z</time>
      </trkpt>
      <trkpt lat="46.81998" lon="0.5626">
        <ele>75.16</ele>
        <time>2023-06-08T06:36:03.336Z</time>
      </trkpt>
      <trkpt lat="46.81998" lon="0.56257">
        <ele>75.13</ele>
        <time>2023-06-08T06:36:16.497Z</time>
      </trkpt>
      <trkpt lat="46.81996" lon="0.56244">
        <ele>74.91</ele>
        <time>2023-06-08T06:36:29.659Z</time>
      </trkpt>
      <trkpt lat="46.81995" lon="0.56237">
        <ele>74.79</ele>
        <time>2023-06-08T06:36:42.822Z</time>
      </trkpt>
      <trkpt lat="46.81994" lon="0.56231">
        <ele>74.71</ele>
        <time>2023-06-08T06:36:55.986Z</time>
      </trkpt>
      <trkpt lat="46.81988" lon="0.562">
        <ele>74.28</ele>
        <time>2023-06-08T06:37:09.153Z</time>
      </trkpt>
      <trkpt lat="46.81981" lon="0.56169">
        <ele>73.82</ele>
        <time>2023-06-08T06:37:22.324Z</time>
      </trkpt>
      <trkpt lat="46.81979" lon="0.56156">
        <ele>73.66</ele>
        <time>2023-06-08T06:37:35.496Z</time>
      </trkpt>
      <trkpt lat="46.81975" lon="0.56137">
        <ele>73.46</ele>
        <time>2023-06-08T06:37:48.670Z</time>
      </trkpt>
      <trkpt lat="46.81969" lon="0.56108">
        <ele>73.21</ele>
        <time>2023-06-08T06:38:01.848Z</time>
      </trkpt>
      <trkpt lat="46.81965" lon="0.56091">
        <ele>73.08</ele>
        <time>2023-06-08T06:38:15.028Z</time>
      </trkpt>
      <trkpt lat="46.8196" lon="0.56062">
        <ele>72.95</ele>
        <time>2023-06-08T06:38:28.211Z</time>
      </trkpt>
      <trkpt lat="46.81952" lon="0.56024">
        <ele>72.81</ele>
        <time>2023-06-08T06:38:41.398Z</time>
      </trkpt>
      <trkpt lat="46.81946" lon="0.55994">
        <ele>72.74</ele>
        <time>2023-06-08T06:38:54.589Z</time>
      </trkpt>
      <trkpt lat="46.8194" lon="0.55963">
        <ele>72.62</ele>
        <time>2023-06-08T06:39:07.783Z</time>
      </trkpt>
      <trkpt lat="46.81927" lon="0.559">
        <ele>72.26</ele>
        <time>2023-06-08T06:39:20.985Z</time>
      </trkpt>
      <trkpt lat="46.81924" lon="0.55887">
        <ele>72.14</ele>
        <time>2023-06-08T06:39:34.188Z</time>
      </trkpt>
      <trkpt lat="46.81922" lon="0.55875">
        <ele>71.96</ele>
        <time>2023-06-08T06:39:47.392Z</time>
      </trkpt>
      <trkpt lat="46.81919" lon="0.55863">
        <ele>71.74</ele>
        <time>2023-06-08T06:40:00.598Z</time>
      </trkpt>
      <trkpt lat="46.81917" lon="0.5585">
        <ele>71.46</ele>
        <time>2023-06-08T06:40:13.805Z</time>
      </trkpt>
      <trkpt lat="46.81914" lon="0.55838">
        <ele>71.11</ele>
        <time>2023-06-08T06:40:27.014Z</time>
      </trkpt>
      <trkpt lat="46.81912" lon="0.55826">
        <ele>70.71</ele>
        <time>2023-06-08T06:40:40.224Z</time>
      </trkpt>
      <trkpt lat="46.81909" lon="0.55814">
        <ele>70.26</ele>
        <time>2023-06-08T06:40:53.435Z</time>
      </trkpt>
      <trkpt lat="46.81907" lon="0.55801">
        <ele>69.77</ele>
        <time>2023-06-08T06:41:06.648Z</time>
      </trkpt>
      <trkpt lat="46.81903" lon="0.55783">
        <ele>68.97</ele>
        <time>2023-06-08T06:41:19.863Z</time>
      </trkpt>
      <trkpt lat="46.81897" lon="0.55752">
        <ele>67.54</ele>
        <time>2023-06-08T06:41:33.081Z</time>
      </trkpt>
      <trkpt lat="46.81893" lon="0.55734">
        <ele>66.79</ele>
        <time>2023-06-08T06:41:46.302Z</time>
      </trkpt>
      <trkpt lat="46.81891" lon="0.55721">
        <ele>66.35</ele>
        <time>2023-06-08T06:41:59.524Z</time>
      </trkpt>
      <trkpt lat="46.8189" lon="0.55715">
        <ele>66.16</ele>
        <time>2023-06-08T06:42:12.747Z</time>
      </trkpt>
      <trkpt lat="46.81885" lon="0.55691">
        <ele>65.46</ele>
        <time>2023-06-08T06:42:25.972Z</time>
      </trkpt>
      <trkpt lat="46.81882" lon="0.55679">
        <ele>65.21</ele>
        <time>2023-06-08T06:42:39.199Z</time>
      </trkpt>
      <trkpt lat="46.8188" lon="0.55667">
        <ele>64.99</ele>
        <time>2023-06-08T06:42:52.427Z</time>
      </trkpt>
      <trkpt lat="46.81875" lon="0.55643">
        <ele>64.64</ele>
        <time>2023-06-08T06:43:05.658Z</time>
      </trkpt>
      <trkpt lat="46.81868" lon="0.55608">
        <ele>63.53</ele>
        <time>2023-06-08T06:43:18.893Z</time>
      </trkpt>
      <trkpt lat="46.81864" lon="0.5559">
        <ele>63.01</ele>
        <time>2023-06-08T06:43:32.130Z</time>
      </trkpt>
      <trkpt lat="46.81861" lon="0.55572">
        <ele>62.55</ele>
        <time>2023-06-08T06:43:45.369Z</time>
      </trkpt>
      <trkpt lat="46.81853" lon="0.55536">
        <ele>61.7</ele>
        <time>2023-06-08T06:43:58.612Z</time>
      </trkpt>
      <trkpt lat="46.81852" lon="0.55529">
        <ele>61.54</ele>
        <time>2023-06-08T06:44:11.856Z</time>
      </trkpt>
      <trkpt lat="46.81851" lon="0.55524">
        <ele>61.43</ele>
        <time>2023-06-08T06:44:25.101Z</time>
      </trkpt>
      <trkpt lat="46.81847" lon="0.55505">
        <ele>61.1</ele>
        <time>2023-06-08T06:44:38.348Z</time>
      </trkpt>
      <trkpt lat="46.81844" lon="0.55492">
        <ele>60.93</ele>
        <time>2023-06-08T06:44:51.596Z</time>
      </trkpt>
      <trkpt lat="46.81841" lon="0.55474">
        <ele>60.72</ele>
        <time>2023-06-08T06:45:04.846Z</time>
      </trkpt>
      <trkpt lat="46.81837" lon="0.55455">
        <ele>60.47</ele>
        <time>2023-06-08T06:45:18.099Z</time>
      </trkpt>
      <trkpt lat="46.81834" lon="0.55442">
        <ele>60.33</ele>
        <time>2023-06-08T06:45:31.353Z</time>
      </trkpt>
      <trkpt lat="46.81821" lon="0.5538">
        <ele>59.83</ele>
        <time>2023-06-08T06:45:44.614Z</time>
      </trkpt>
      <trkpt lat="46.81818" lon="0.55361">
        <ele>59.71</ele>
        <time>2023-06-08T06:45:57.877Z</time>
      </trkpt>
      <trkpt lat="46.81812" lon="0.55336">
        <ele>59.64</ele>
        <time>2023-06-08T06:46:11.143Z</time>
      </trkpt>
      <trkpt lat="46.8181" lon="0.55323">
        <ele>59.64</ele>
        <time>2023-06-08T06:46:24.411Z</time>
      </trkpt>
      <trkpt lat="46.81809" lon="0.55319">
        <ele>59.64</ele>
        <time>2023-06-08T06:46:37.679Z</time>
      </trkpt>
      <trkpt lat="46.81805" lon="0.55306">
        <ele>59.68</ele>
        <time>2023-06-08T06:46:50.949Z</time>
      </trkpt>
      <trkpt lat="46.81805" lon="0.55305">
        <ele>59.68</ele>
        <time>2023-06-08T06:47:04.219Z</time>
      </trkpt>
      <trkpt lat="46.81803" lon="0.55285">
        <ele>59.53</ele>
        <time>2023-06-08T06:47:17.491Z</time>
      </trkpt>
      <trkpt lat="46.81799" lon="0.55283">
        <ele>59.49</ele>
        <time>2023-06-08T06:47:30.764Z</time>
      </trkpt>
      <trkpt lat="46.81797" lon="0.55273">
        <ele>59.42</ele>
        <time>2023-06-08T06:47:44.038Z</time>
      </trkpt>
      <trkpt lat="46.818" lon="0.55268">
        <ele>59.37</ele>
        <time>2023-06-08T06:47:57.313Z</time>
      </trkpt>
      <trkpt lat="46.81797" lon="0.55261">
        <ele>59.31</ele>
        <time>2023-06-08T06:48:10.588Z</time>
      </trkpt>
      <trkpt lat="46.81794" lon="0.55245">
        <ele>59.2</ele>
        <time>2023-06-08T06:48:23.865Z</time>
      </trkpt>
      <trkpt lat="46.81792" lon="0.55234">
        <ele>59.09</ele>
        <time>2023-06-08T06:48:37.143Z</time>
      </trkpt>
      <trkpt lat="46.81787" lon="0.55213">
        <ele>58.84</ele>
        <time>2023-06-08T06:48:50.424Z</time>
      </trkpt>
      <trkpt lat="46.81784" lon="0.55195">
        <ele>58.68</ele>
        <time>2023-06-08T06:49:03.707Z</time>
      </trkpt>
      <trkpt lat="46.81779" lon="0.5517">
        <ele>58.44</ele>
        <time>2023-06-08T06:49:16.993Z</time>
      </trkpt>
      <trkpt lat="46.81769" lon="0.55122">
        <ele>58.05</ele>
        <time>2023-06-08T06:49:30.284Z</time>
      </trkpt>
      <trkpt lat="46.81764" lon="0.55097">
        <ele>57.81</ele>
        <time>2023-06-08T06:49:43.578Z</time>
      </trkpt>
      <trkpt lat="46.81759" lon="0.55073">
        <ele>57.53</ele>
        <time>2023-06-08T06:49:56.875Z</time>
      </trkpt>
      <trkpt lat="46.81759" lon="0.55071">
        <ele>57.53</ele>
        <time>2023-06-08T06:50:10.172Z</time>
      </trkpt>
      <trkpt lat="46.81758" lon="0.55058">
        <ele>57.53</ele>
        <time>2023-06-08T06:50:23.471Z</time>
      </trkpt>
      <trkpt lat="46.81758" lon="0.55053">
        <ele>57.48</ele>
        <time>2023-06-08T06:50:36.770Z</time>
      </trkpt>
      <trkpt lat="46.8176" lon="0.55051">
        <ele>57.45</ele>
        <time>2023-06-08T06:50:50.070Z</time>
      </trkpt>
      <trkpt lat="46.81762" lon="0.5505">
        <ele>57.43</ele>
        <time>2023-06-08T06:51:03.370Z</time>
      </trkpt>
      <trkpt lat="46.81763" lon="0.55045">
        <ele>57.4</ele>
        <time>2023-06-08T06:51:16.670Z</time>
      </trkpt>
      <trkpt lat="46.81763" lon="0.55044">
        <ele>57.32</ele>
        <time>2023-06-08T06:51:29.971Z</time>
      </trkpt>
      <trkpt lat="46.81764" lon="0.55042">
        <ele>57.29</ele>
        <time>2023-06-08T06:51:43.272Z</time>
      </trkpt>
      <trkpt lat="46.8176" lon="0.55035">
        <ele>57.2</ele>
        <time>2023-06-08T06:51:56.574Z</time>
      </trkpt>
      <trkpt lat="46.8176" lon="0.55026">
        <ele>57.11</ele>
        <time>2023-06-08T06:52:09.877Z</time>
      </trkpt>
      <trkpt lat="46.8176" lon="0.55023">
        <ele>57.08</ele>
        <time>2023-06-08T06:52:23.180Z</time>
      </trkpt>
      <trkpt lat="46.8176" lon="0.55011">
        <ele>57.02</ele>
        <time>2023-06-08T06:52:36.484Z</time>
      </trkpt>
      <trkpt lat="46.8176" lon="0.5499">
        <ele>56.98</ele>
        <time>2023-06-08T06:52:49.791Z</time>
      </trkpt>
      <trkpt lat="46.81761" lon="0.54971">
        <ele>57.3</ele>
        <time>2023-06-08T06:53:03.100Z</time>
      </trkpt>
      <trkpt lat="46.81761" lon="0.54954">
        <ele>57.31</ele>
        <time>2023-06-08T06:53:16.411Z</time>
      </trkpt>
      <trkpt lat="46.81761" lon="0.54951">
        <ele>57.36</ele>
        <time>2023-06-08T06:53:29.722Z</time>
      </trkpt>
      <trkpt lat="46.81765" lon="0.54946">
        <ele>57.51</ele>
        <time>2023-06-08T06:53:43.034Z</time>
      </trkpt>
      <trkpt lat="46.81765" lon="0.54945">
        <ele>57.51</ele>
        <time>2023-06-08T06:53:56.346Z</time>
      </trkpt>
      <trkpt lat="46.81764" lon="0.54936">
        <ele>57.48</ele>
        <time>2023-06-08T06:54:09.659Z</time>
      </trkpt>
      <trkpt lat="46.81761" lon="0.54932">
        <ele>57.47</ele>
        <time>2023-06-08T06:54:22.973Z</time>
      </trkpt>
      <trkpt lat="46.81757" lon="0.54931">
        <ele>57.45</ele>
        <time>2023-06-08T06:54:36.287Z</time>
      </trkpt>
      <trkpt lat="46.81761" lon="0.54923">
        <ele>57.43</ele>
        <time>2023-06-08T06:54:49.602Z</time>
      </trkpt>
      <trkpt lat="46.81762" lon="0.54921">
        <ele>57.43</ele>
        <time>2023-06-08T06:55:02.918Z</time>
      </trkpt>
      <trkpt lat="46.81762" lon="0.54911">
        <ele>57.43</ele>
        <time>2023-06-08T06:55:16.235Z</time>
      </trkpt>
      <trkpt lat="46.81764" lon="0.54866">
        <ele>57.57</ele>
        <time>2023-06-08T06:55:29.557Z</time>
      </trkpt>
      <trkpt lat="46.81765" lon="0.54829">
        <ele>57.73</ele>
        <time>2023-06-08T06:55:42.883Z</time>
      </trkpt>
      <trkpt lat="46.81766" lon="0.54791">
        <ele>57.84</ele>
        <time>2023-06-08T06:55:56.213Z</time>
      </trkpt>
      <trkpt lat="46.81767" lon="0.54765">
        <ele>57.84</ele>
        <time>2023-06-08T06:56:09.546Z</time>
      </trkpt>
      <trkpt lat="46.81768" lon="0.54752">
        <ele>57.94</ele>
        <time>2023-06-08T06:56:22.880Z</time>
      </trkpt>
      <trkpt lat="46.81768" lon="0.54739">
        <ele>57.99</ele>
        <time>2023-06-08T06:56:36.216Z</time>
      </trkpt>
      <trkpt lat="46.8177" lon="0.54682">
        <ele>58.03</ele>
        <time>2023-06-08T06:56:49.558Z</time>
      </trkpt>
      <trkpt lat="46.81771" lon="0.5466">
        <ele>57.99</ele>
        <time>2023-06-08T06:57:02.902Z</time>
      </trkpt>
      <trkpt lat="46.81772" lon="0.54639">
        <ele>57.97</ele>
        <time>2023-06-08T06:57:16.249Z</time>
      </trkpt>
      <trkpt lat="46.81774" lon="0.54615">
        <ele>57.98</ele>
        <time>2023-06-08T06:57:29.598Z</time>
      </trkpt>
      <trkpt lat="46.81775" lon="0.54597">
        <ele>58.12</ele>
        <time>2023-06-08T06:57:42.949Z</time>
      </trkpt>
      <trkpt lat="46.81776" lon="0.54578">
        <ele>58.19</ele>
        <time>2023-06-08T06:57:56.302Z</time>
      </trkpt>
      <trkpt lat="46.81778" lon="0.54554">
        <ele>58.06</ele>
        <time>2023-06-08T06:58:09.658Z</time>
      </trkpt>
      <trkpt lat="46.81779" lon="0.54541">
        <ele>57.81</ele>
        <time>2023-06-08T06:58:23.015Z</time>
      </trkpt>
      <trkpt lat="46.8178" lon="0.54519">
        <ele>57.78</ele>
        <time>2023-06-08T06:58:36.375Z</time>
      </trkpt>
      <trkpt lat="46.81769" lon="0.54517">
        <ele>57.76</ele>
        <time>2023-06-08T06:58:49.737Z</time>
      </trkpt>
      <trkpt lat="46.81742" lon="0.54514">
        <ele>57.74</ele>
        <time>2023-06-08T06:59:03.103Z</time>
      </trkpt>
      <trkpt lat="46.81727" lon="0.54512">
        <ele>57.65</ele>
        <time>2023-06-08T06:59:16.471Z</time>
      </trkpt>
      <trkpt lat="46.81728" lon="0.5449">
        <ele>57.57</ele>
        <time>2023-06-08T06:59:29.842Z</time>
      </trkpt>
      <trkpt lat="46.8173" lon="0.54471">
        <ele>57.36</ele>
        <time>2023-06-08T06:59:43.215Z</time>
      </trkpt>
      <trkpt lat="46.8173" lon="0.54463">
        <ele>57.34</ele>
        <time>2023-06-08T06:59:56.589Z</time>
      </trkpt>
      <trkpt lat="46.81731" lon="0.54449">
        <ele>57.35</ele>
        <time>2023-06-08T07:00:09.964Z</time>
      </trkpt>
      <trkpt lat="46.81726" lon="0.54445">
        <ele>57.37</ele>
        <time>2023-06-08T07:00:23.340Z</time>
      </trkpt>
      <trkpt lat="46.81726" lon="0.54445">
        <ele>57.37</ele>
        <time>2023-06-08T07:00:36.716Z</time>
      </trkpt>
      <trkpt lat="46.81724" lon="0.54433">
        <ele>57.16</ele>
        <time>2023-06-08T07:00:50.094Z</time>
      </trkpt>
      <trkpt lat="46.81724" lon="0.54427">
        <ele>57.08</ele>
        <time>2023-06-08T07:01:03.472Z</time>
      </trkpt>
      <trkpt lat="46.81723" lon="0.54423">
        <ele>57.04</ele>
        <time>2023-06-08T07:01:16.851Z</time>
      </trkpt>
      <trkpt lat="46.81722" lon="0.54416">
        <ele>56.98</ele>
        <time>2023-06-08T07:01:30.231Z</time>
      </trkpt>
      <trkpt lat="46.8172" lon="0.54393">
        <ele>57.04</ele>
        <time>2023-06-08T07:01:43.613Z</time>
      </trkpt>
      <trkpt lat="46.81722" lon="0.54393">
        <ele>57.05</ele>
        <time>2023-06-08T07:01:56.995Z</time>
      </trkpt>
      <trkpt lat="46.81738" lon="0.54391">
        <ele>56.81</ele>
        <time>2023-06-08T07:02:10.380Z</time>
      </trkpt>
      <trkpt lat="46.81737" lon="0.54384">
        <ele>56.74</ele>
        <time>2023-06-08T07:02:23.766Z</time>
      </trkpt>
      <trkpt lat="46.81732" lon="0.54355">
        <ele>56.54</ele>
        <time>2023-06-08T07:02:37.155Z</time>
      </trkpt>
      <trkpt lat="46.81729" lon="0.54337">
        <ele>56.27</ele>
        <time>2023-06-08T07:02:50.546Z</time>
      </trkpt>
      <trkpt lat="46.81728" lon="0.54332">
        <ele>56.2</ele>
        <time>2023-06-08T07:03:03.938Z</time>
      </trkpt>
      <trkpt lat="46.81718" lon="0.54299">
        <ele>55.73</ele>
        <time>2023-06-08T07:03:17.334Z</time>
      </trkpt>
      <trkpt lat="46.81717" lon="0.54297">
        <ele>55.7</ele>
        <time>2023-06-08T07:03:30.730Z</time>
      </trkpt>
      <trkpt lat="46.81714" lon="0.54292">
        <ele>55.92</ele>
        <time>2023-06-08T07:03:44.127Z</time>
      </trkpt>
      <trkpt lat="46.81705" lon="0.54282">
        <ele>56.45</ele>
        <time>2023-06-08T07:03:57.525Z</time>
      </trkpt>
      <trkpt lat="46.81705" lon="0.5427">
        <ele>56.86</ele>
        <time>2023-06-08T07:04:10.925Z</time>
      </trkpt>
      <trkpt lat="46.81705" lon="0.54258">
        <ele>57.22</ele>
        <time>2023-06-08T07:04:24.326Z</time>
      </trkpt>
      <trkpt lat="46.81705" lon="0.54246">
        <ele>57.55</ele>
        <time>2023-06-08T07:04:37.728Z</time>
      </trkpt>
      <trkpt lat="46.81705" lon="0.54207">
        <ele>53.75</ele>
        <time>2023-06-08T07:04:51.135Z</time>
      </trkpt>
      <trkpt lat="46.81705" lon="0.54198">
        <ele>52.86</ele>
        <time>2023-06-08T07:05:04.543Z</time>
      </trkpt>
      <trkpt lat="46.81706" lon="0.54187">
        <ele>51.77</ele>
        <time>2023-06-08T07:05:17.952Z</time>
      </trkpt>
      <trkpt lat="46.81711" lon="0.54151">
        <ele>48.33</ele>
        <time>2023-06-08T07:05:31.365Z</time>
      </trkpt>
      <trkpt lat="46.81712" lon="0.54137">
        <ele>50.41</ele>
        <time>2023-06-08T07:05:44.779Z</time>
      </trkpt>
      <trkpt lat="46.81713" lon="0.54128">
        <ele>49.63</ele>
        <time>2023-06-08T07:05:58.194Z</time>
      </trkpt>
      <trkpt lat="46.81716" lon="0.5411">
        <ele>49.6</ele>
        <time>2023-06-08T07:06:11.612Z</time>
      </trkpt>
      <trkpt lat="46.81716" lon="0.54106">
        <ele>49.59</ele>
        <time>2023-06-08T07:06:25.030Z</time>
      </trkpt>
      <trkpt lat="46.81706" lon="0.541">
        <ele>49.55</ele>
        <time>2023-06-08T07:06:38.450Z</time>
      </trkpt>
      <trkpt lat="46.81694" lon="0.54094">
        <ele>49.58</ele>
        <time>2023-06-08T07:06:51.872Z</time>
      </trkpt>
      <trkpt lat="46.81691" lon="0.54092">
        <ele>49.6</ele>
        <time>2023-06-08T07:07:05.294Z</time>
      </trkpt>
      <trkpt lat="46.8169" lon="0.54091">
        <ele>49.61</ele>
        <time>2023-06-08T07:07:18.716Z</time>
      </trkpt>
      <trkpt lat="46.81682" lon="0.54086">
        <ele>49.75</ele>
        <time>2023-06-08T07:07:32.140Z</time>
      </trkpt>
      <trkpt lat="46.81674" lon="0.54081">
        <ele>49.97</ele>
        <time>2023-06-08T07:07:45.565Z</time>
      </trkpt>
      <trkpt lat="46.81667" lon="0.54075">
        <ele>50.29</ele>
        <time>2023-06-08T07:07:58.992Z</time>
      </trkpt>
      <trkpt lat="46.81659" lon="0.5407">
        <ele>50.71</ele>
        <time>2023-06-08T07:08:12.420Z</time>
      </trkpt>
      <trkpt lat="46.81651" lon="0.54065">
        <ele>51.22</ele>
        <time>2023-06-08T07:08:25.849Z</time>
      </trkpt>
      <trkpt lat="46.81639" lon="0.54057">
        <ele>52.06</ele>
        <time>2023-06-08T07:08:39.280Z</time>
      </trkpt>
      <trkpt lat="46.81627" lon="0.54048">
        <ele>52.36</ele>
        <time>2023-06-08T07:08:52.714Z</time>
      </trkpt>
      <trkpt lat="46.81617" lon="0.54041">
        <ele>52.54</ele>
        <time>2023-06-08T07:09:06.149Z</time>
      </trkpt>
      <trkpt lat="46.81612" lon="0.54038">
        <ele>52.61</ele>
        <time>2023-06-08T07:09:19.585Z</time>
      </trkpt>
      <trkpt lat="46.81613" lon="0.54034">
        <ele>52.66</ele>
        <time>2023-06-08T07:09:33.022Z</time>
      </trkpt>
      <trkpt lat="46.81615" lon="0.54028">
        <ele>52.7</ele>
        <time>2023-06-08T07:09:46.459Z</time>
      </trkpt>
      <trkpt lat="46.81619" lon="0.54016">
        <ele>52.74</ele>
        <time>2023-06-08T07:09:59.898Z</time>
      </trkpt>
      <trkpt lat="46.81623" lon="0.54004">
        <ele>52.75</ele>
        <time>2023-06-08T07:10:13.338Z</time>
      </trkpt>
      <trkpt lat="46.81643" lon="0.53938">
        <ele>52.7</ele>
        <time>2023-06-08T07:10:26.786Z</time>
      </trkpt>
      <trkpt lat="46.81647" lon="0.53927">
        <ele>52.65</ele>
        <time>2023-06-08T07:10:40.236Z</time>
      </trkpt>
      <trkpt lat="46.8165" lon="0.53915">
        <ele>52.55</ele>
        <time>2023-06-08T07:10:53.687Z</time>
      </trkpt>
      <trkpt lat="46.81654" lon="0.53903">
        <ele>52.42</ele>
        <time>2023-06-08T07:11:07.140Z</time>
      </trkpt>
      <trkpt lat="46.81656" lon="0.53897">
        <ele>52.32</ele>
        <time>2023-06-08T07:11:20.593Z</time>
      </trkpt>
      <trkpt lat="46.81658" lon="0.53891">
        <ele>52.18</ele>
        <time>2023-06-08T07:11:34.047Z</time>
      </trkpt>
      <trkpt lat="46.8166" lon="0.53885">
        <ele>52.01</ele>
        <time>2023-06-08T07:11:47.502Z</time>
      </trkpt>
      <trkpt lat="46.81662" lon="0.53879">
        <ele>51.79</ele>
        <time>2023-06-08T07:12:00.957Z</time>
      </trkpt>
      <trkpt lat="46.81663" lon="0.53873">
        <ele>51.53</ele>
        <time>2023-06-08T07:12:14.413Z</time>
      </trkpt>
      <trkpt lat="46.81665" lon="0.53867">
        <ele>51.24</ele>
        <time>2023-06-08T07:12:27.870Z</time>
      </trkpt>
      <trkpt lat="46.81669" lon="0.53855">
        <ele>50.62</ele>
        <time>2023-06-08T07:12:41.328Z</time>
      </trkpt>
      <trkpt lat="46.81672" lon="0.53845">
        <ele>50.57</ele>
        <time>2023-06-08T07:12:54.787Z</time>
      </trkpt>
      <trkpt lat="46.81676" lon="0.53833">
        <ele>50.45</ele>
        <time>2023-06-08T07:13:08.248Z</time>
      </trkpt>
      <trkpt lat="46.81674" lon="0.53832">
        <ele>50.43</ele>
        <time>2023-06-08T07:13:21.709Z</time>
      </trkpt>
      <trkpt lat="46.81657" lon="0.53827">
        <ele>50.24</ele>
        <time>2023-06-08T07:13:35.173Z</time>
      </trkpt>
      <trkpt lat="46.81654" lon="0.53827">
        <ele>50.21</ele>
        <time>2023-06-08T07:13:48.638Z</time>
      </trkpt>
      <trkpt lat="46.81632" lon="0.53827">
        <ele>50.09</ele>
        <time>2023-06-08T07:14:02.106Z</time>
      </trkpt>
      <trkpt lat="46.81629" lon="0.53826">
        <ele>50.08</ele>
        <time>2023-06-08T07:14:15.575Z</time>
      </trkpt>
      <trkpt lat="46.81625" lon="0.53825">
        <ele>50.06</ele>
        <time>2023-06-08T07:14:29.044Z</time>
      </trkpt>
      <trkpt lat="46.81613" lon="0.53817">
        <ele>50.02</ele>
        <time>2023-06-08T07:14:42.515Z</time>
      </trkpt>
      <trkpt lat="46.81613" lon="0.53817">
        <ele>50.02</ele>
        <time>2023-06-08T07:14:55.986Z</time>
      </trkpt>
      <trkpt lat="46.81593" lon="0.53802">
        <ele>49.98</ele>
        <time>2023-06-08T07:15:09.461Z</time>
      </trkpt>
      <trkpt lat="46.81586" lon="0.53796">
        <ele>49.98</ele>
        <time>2023-06-08T07:15:22.937Z</time>
      </trkpt>
      <trkpt lat="46.8157" lon="0.53784">
        <ele>50.04</ele>
        <time>2023-06-08T07:15:36.416Z</time>
      </trkpt>
      <trkpt lat="46.81546" lon="0.53765">
        <ele>50.18</ele>
        <time>2023-06-08T07:15:49.899Z</time>
      </trkpt>
      <trkpt lat="46.81505" lon="0.53734">
        <ele>50.26</ele>
        <time>2023-06-08T07:16:03.390Z</time>
      </trkpt>
      <trkpt lat="46.81491" lon="0.53722">
        <ele>50.34</ele>
        <time>2023-06-08T07:16:16.883Z</time>
      </trkpt>
      <trkpt lat="46.81472" lon="0.53708">
        <ele>50.49</ele>
        <time>2023-06-08T07:16:30.380Z</time>
      </trkpt>
      <trkpt lat="46.81461" lon="0.53699">
        <ele>50.65</ele>
        <time>2023-06-08T07:16:43.879Z</time>
      </trkpt>
      <trkpt lat="46.8145" lon="0.5369">
        <ele>50.89</ele>
        <time>2023-06-08T07:16:57.380Z</time>
      </trkpt>
      <trkpt lat="46.81442" lon="0.53684">
        <ele>51.12</ele>
        <time>2023-06-08T07:17:10.882Z</time>
      </trkpt>
      <trkpt lat="46.8143" lon="0.53675">
        <ele>51.53</ele>
        <time>2023-06-08T07:17:24.386Z</time>
      </trkpt>
      <trkpt lat="46.81423" lon="0.53669">
        <ele>51.77</ele>
        <time>2023-06-08T07:17:37.892Z</time>
      </trkpt>
      <trkpt lat="46.81419" lon="0.53666">
        <ele>51.87</ele>
        <time>2023-06-08T07:17:51.399Z</time>
      </trkpt>
      <trkpt lat="46.81417" lon="0.53665">
        <ele>51.9</ele>
        <time>2023-06-08T07:18:04.906Z</time>
      </trkpt>
      <trkpt lat="46.81412" lon="0.53658">
        <ele>52.02</ele>
        <time>2023-06-08T07:18:18.414Z</time>
      </trkpt>
      <trkpt lat="46.81408" lon="0.53652">
        <ele>52.08</ele>
        <time>2023-06-08T07:18:31.923Z</time>
      </trkpt>
      <trkpt lat="46.81401" lon="0.53638">
        <ele>52.19</ele>
        <time>2023-06-08T07:18:45.434Z</time>
      </trkpt>
      <trkpt lat="46.81408" lon="0.53613">
        <ele>52.38</ele>
        <time>2023-06-08T07:18:58.948Z</time>
      </trkpt>
      <trkpt lat="46.8142" lon="0.53573">
        <ele>52.77</ele>
        <time>2023-06-08T07:19:12.466Z</time>
      </trkpt>
      <trkpt lat="46.81428" lon="0.53543">
        <ele>53.12</ele>
        <time>2023-06-08T07:19:25.988Z</time>
      </trkpt>
      <trkpt lat="46.81439" lon="0.53507">
        <ele>53.08</ele>
        <time>2023-06-08T07:19:39.514Z</time>
      </trkpt>
      <trkpt lat="46.81442" lon="0.53495">
        <ele>53.09</ele>
        <time>2023-06-08T07:19:53.042Z</time>
      </trkpt>
      <trkpt lat="46.81448" lon="0.53477">
        <ele>53.16</ele>
        <time>2023-06-08T07:20:06.572Z</time>
      </trkpt>
      <trkpt lat="46.81458" lon="0.5344">
        <ele>53.39</ele>
        <time>2023-06-08T07:20:20.106Z</time>
      </trkpt>
      <trkpt lat="46.81472" lon="0.53392">
        <ele>53.84</ele>
        <time>2023-06-08T07:20:33.646Z</time>
      </trkpt>
      <trkpt lat="46.81484" lon="0.5335">
        <ele>54.16</ele>
        <time>2023-06-08T07:20:47.191Z</time>
      </trkpt>
      <trkpt lat="46.81491" lon="0.53326">
        <ele>54.27</ele>
        <time>2023-06-08T07:21:00.739Z</time>
      </trkpt>
      <trkpt lat="46.81501" lon="0.53291">
        <ele>54.52</ele>
        <time>2023-06-08T07:21:14.291Z</time>
      </trkpt>
      <trkpt lat="46.81506" lon="0.53274">
        <ele>54.51</ele>
        <time>2023-06-08T07:21:27.845Z</time>
      </trkpt>
      <trkpt lat="46.81513" lon="0.5325">
        <ele>54.59</ele>
        <time>2023-06-08T07:21:41.402Z</time>
      </trkpt>
      <trkpt lat="46.81518" lon="0.53232">
        <ele>54.6</ele>
        <time>2023-06-08T07:21:54.961Z</time>
      </trkpt>
      <trkpt lat="46.81532" lon="0.53184">
        <ele>54.44</ele>
        <time>2023-06-08T07:22:08.526Z</time>
      </trkpt>
      <trkpt lat="46.81539" lon="0.5316">
        <ele>54.41</ele>
        <time>2023-06-08T07:22:22.094Z</time>
      </trkpt>
      <trkpt lat="46.81546" lon="0.53135">
        <ele>54.22</ele>
        <time>2023-06-08T07:22:35.665Z</time>
      </trkpt>
      <trkpt lat="46.81554" lon="0.53137">
        <ele>54.14</ele>
        <time>2023-06-08T07:22:49.237Z</time>
      </trkpt>
      <trkpt lat="46.81572" lon="0.5314">
        <ele>54.01</ele>
        <time>2023-06-08T07:23:02.812Z</time>
      </trkpt>
      <trkpt lat="46.8158" lon="0.53141">
        <ele>53.98</ele>
        <time>2023-06-08T07:23:16.388Z</time>
      </trkpt>
      <trkpt lat="46.81594" lon="0.53144">
        <ele>54.01</ele>
        <time>2023-06-08T07:23:29.967Z</time>
      </trkpt>
      <trkpt lat="46.81602" lon="0.53146">
        <ele>54.03</ele>
        <time>2023-06-08T07:23:43.547Z</time>
      </trkpt>
      <trkpt lat="46.81623" lon="0.53152">
        <ele>53.94</ele>
        <time>2023-06-08T07:23:57.130Z</time>
      </trkpt>
      <trkpt lat="46.81628" lon="0.53154">
        <ele>53.9</ele>
        <time>2023-06-08T07:24:10.714Z</time>
      </trkpt>
      <trkpt lat="46.81639" lon="0.53156">
        <ele>53.84</ele>
        <time>2023-06-08T07:24:24.300Z</time>
      </trkpt>
      <trkpt lat="46.81651" lon="0.53157">
        <ele>53.8</ele>
        <time>2023-06-08T07:24:37.888Z</time>
      </trkpt>
      <trkpt lat="46.81677" lon="0.53161">
        <ele>53.61</ele>
        <time>2023-06-08T07:24:51.480Z</time>
      </trkpt>
      <trkpt lat="46.81704" lon="0.53165">
        <ele>53.35</ele>
        <time>2023-06-08T07:25:05.076Z</time>
      </trkpt>
      <trkpt lat="46.81722" lon="0.53167">
        <ele>53.21</ele>
        <time>2023-06-08T07:25:18.675Z</time>
      </trkpt>
      <trkpt lat="46.81724" lon="0.53161">
        <ele>53.18</ele>
        <time>2023-06-08T07:25:32.275Z</time>
      </trkpt>
      <trkpt lat="46.81727" lon="0.53161">
        <ele>53.16</ele>
        <time>2023-06-08T07:25:45.875Z</time>
      </trkpt>
      <trkpt lat="46.81749" lon="0.53161">
        <ele>53.05</ele>
        <time>2023-06-08T07:25:59.479Z</time>
      </trkpt>
      <trkpt lat="46.81758" lon="0.53161">
        <ele>53.04</ele>
        <time>2023-06-08T07:26:13.084Z</time>
      </trkpt>
      <trkpt lat="46.81801" lon="0.5316">
        <ele>53.09</ele>
        <time>2023-06-08T07:26:26.696Z</time>
      </trkpt>
      <trkpt lat="46.8181" lon="0.5316">
        <ele>53.07</ele>
        <time>2023-06-08T07:26:40.310Z</time>
      </trkpt>
      <trkpt lat="46.81823" lon="0.5316">
        <ele>53.01</ele>
        <time>2023-06-08T07:26:53.926Z</time>
      </trkpt>
      <trkpt lat="46.81852" lon="0.53159">
        <ele>52.98</ele>
        <time>2023-06-08T07:27:07.546Z</time>
      </trkpt>
      <trkpt lat="46.81861" lon="0.53159">
        <ele>52.92</ele>
        <time>2023-06-08T07:27:21.168Z</time>
      </trkpt>
      <trkpt lat="46.8187" lon="0.53159">
        <ele>52.89</ele>
        <time>2023-06-08T07:27:34.791Z</time>
      </trkpt>
      <trkpt lat="46.81871" lon="0.53159">
        <ele>52.88</ele>
        <time>2023-06-08T07:27:48.414Z</time>
      </trkpt>
      <trkpt lat="46.81877" lon="0.5315">
        <ele>52.87</ele>
        <time>2023-06-08T07:28:02.039Z</time>
      </trkpt>
      <trkpt lat="46.81884" lon="0.53145">
        <ele>52.87</ele>
        <time>2023-06-08T07:28:15.665Z</time>
      </trkpt>
      <trkpt lat="46.81892" lon="0.53139">
        <ele>52.88</ele>
        <time>2023-06-08T07:28:29.292Z</time>
      </trkpt>
      <trkpt lat="46.81904" lon="0.53131">
        <ele>52.94</ele>
        <time>2023-06-08T07:28:42.922Z</time>
      </trkpt>
      <trkpt lat="46.81916" lon="0.53123">
        <ele>53.04</ele>
        <time>2023-06-08T07:28:56.554Z</time>
      </trkpt>
      <trkpt lat="46.81924" lon="0.53117">
        <ele>53.14</ele>
        <time>2023-06-08T07:29:10.187Z</time>
      </trkpt>
      <trkpt lat="46.81936" lon="0.53111">
        <ele>53.29</ele>
        <time>2023-06-08T07:29:23.822Z</time>
      </trkpt>
      <trkpt lat="46.81945" lon="0.53107">
        <ele>53.36</ele>
        <time>2023-06-08T07:29:37.459Z</time>
      </trkpt>
      <trkpt lat="46.81957" lon="0.53101">
        <ele>53.39</ele>
        <time>2023-06-08T07:29:51.098Z</time>
      </trkpt>
      <trkpt lat="46.81978" lon="0.53091">
        <ele>53.29</ele>
        <time>2023-06-08T07:30:04.740Z</time>
      </trkpt>
      <trkpt lat="46.81983" lon="0.53089">
        <ele>53.29</ele>
        <time>2023-06-08T07:30:18.383Z</time>
      </trkpt>
      <trkpt lat="46.81995" lon="0.53084">
        <ele>53.3</ele>
        <time>2023-06-08T07:30:32.028Z</time>
      </trkpt>
      <trkpt lat="46.82008" lon="0.53079">
        <ele>53.36</ele>
        <time>2023-06-08T07:30:45.675Z</time>
      </trkpt>
      <trkpt lat="46.82025" lon="0.53072">
        <ele>53.5</ele>
        <time>2023-06-08T07:30:59.325Z</time>
      </trkpt>
      <trkpt lat="46.82034" lon="0.53069">
        <ele>53.55</ele>
        <time>2023-06-08T07:31:12.977Z</time>
      </trkpt>
      <trkpt lat="46.82055" lon="0.53061">
        <ele>53.56</ele>
        <time>2023-06-08T07:31:26.632Z</time>
      </trkpt>
      <trkpt lat="46.82059" lon="0.53059">
        <ele>53.59</ele>
        <time>2023-06-08T07:31:40.288Z</time>
      </trkpt>
      <trkpt lat="46.82067" lon="0.53056">
        <ele>53.71</ele>
        <time>2023-06-08T07:31:53.945Z</time>
      </trkpt>
      <trkpt lat="46.82068" lon="0.53056">
        <ele>53.71</ele>
        <time>2023-06-08T07:32:07.602Z</time>
      </trkpt>
      <trkpt lat="46.82074" lon="0.53052">
        <ele>53.6</ele>
        <time>2023-06-08T07:32:21.260Z</time>
      </trkpt>
      <trkpt lat="46.82083" lon="0.5304">
        <ele>53.42</ele>
        <time>2023-06-08T07:32:34.920Z</time>
      </trkpt>
      <trkpt lat="46.8207" lon="0.53028">
        <ele>53.2</ele>
        <time>2023-06-08T07:32:48.583Z</time>
      </trkpt>
      <trkpt lat="46.82046" lon="0.53004">
        <ele>52.88</ele>
        <time>2023-06-08T07:33:02.250Z</time>
      </trkpt>
      <trkpt lat="46.82046" lon="0.53003">
        <ele>52.88</ele>
        <time>2023-06-08T07:33:15.917Z</time>
      </trkpt>
      <trkpt lat="46.82044" lon="0.52992">
        <ele>52.85</ele>
        <time>2023-06-08T07:33:29.586Z</time>
      </trkpt>
      <trkpt lat="46.82043" lon="0.52975">
        <ele>52.81</ele>
        <time>2023-06-08T07:33:43.257Z</time>
      </trkpt>
      <trkpt lat="46.82046" lon="0.52975">
        <ele>52.81</ele>
        <time>2023-06-08T07:33:56.928Z</time>
      </trkpt>
      <trkpt lat="46.82123" lon="0.52986">
        <ele>52.81</ele>
        <time>2023-06-08T07:34:10.611Z</time>
      </trkpt>
      <trkpt lat="46.82126" lon="0.52986">
        <ele>52.82</ele>
        <time>2023-06-08T07:34:24.295Z</time>
      </trkpt>
      <trkpt lat="46.82171" lon="0.5299">
        <ele>52.9</ele>
        <time>2023-06-08T07:34:37.986Z</time>
      </trkpt>
      <trkpt lat="46.82181" lon="0.5299">
        <ele>52.96</ele>
        <time>2023-06-08T07:34:51.679Z</time>
      </trkpt>
      <trkpt lat="46.82189" lon="0.52991">
        <ele>53.37</ele>
        <time>2023-06-08T07:35:05.373Z</time>
      </trkpt>
      <trkpt lat="46.82201" lon="0.52992">
        <ele>53.63</ele>
        <time>2023-06-08T07:35:19.069Z</time>
      </trkpt>
      <trkpt lat="46.82201" lon="0.52979">
        <ele>53.85</ele>
        <time>2023-06-08T07:35:32.766Z</time>
      </trkpt>
      <trkpt lat="46.82201" lon="0.52979">
        <ele>53.85</ele>
        <time>2023-06-08T07:35:46.463Z</time>
      </trkpt>
      <trkpt lat="46.82209" lon="0.52956">
        <ele>53.96</ele>
        <time>2023-06-08T07:36:00.163Z</time>
      </trkpt>
      <trkpt lat="46.82215" lon="0.52938">
        <ele>54.11</ele>
        <time>2023-06-08T07:36:13.865Z</time>
      </trkpt>
      <trkpt lat="46.82221" lon="0.52921">
        <ele>54.32</ele>
        <time>2023-06-08T07:36:27.569Z</time>
      </trkpt>
      <trkpt lat="46.82225" lon="0.5291">
        <ele>54.5</ele>
        <time>2023-06-08T07:36:41.275Z</time>
      </trkpt>
      <trkpt lat="46.82229" lon="0.52898">
        <ele>54.71</ele>
        <time>2023-06-08T07:36:54.982Z</time>
      </trkpt>
      <trkpt lat="46.82237" lon="0.52875">
        <ele>55.2</ele>
        <time>2023-06-08T07:37:08.692Z</time>
      </trkpt>
      <trkpt lat="46.82243" lon="0.52858">
        <ele>55.61</ele>
        <time>2023-06-08T07:37:22.404Z</time>
      </trkpt>
      <trkpt lat="46.82253" lon="0.52829">
        <ele>56.35</ele>
        <time>2023-06-08T07:37:36.120Z</time>
      </trkpt>
      <trkpt lat="46.82263" lon="0.528">
        <ele>57.15</ele>
        <time>2023-06-08T07:37:49.839Z</time>
      </trkpt>
      <trkpt lat="46.82277" lon="0.5276">
        <ele>58.24</ele>
        <time>2023-06-08T07:38:03.563Z</time>
      </trkpt>
      <trkpt lat="46.82281" lon="0.52748">
        <ele>58.5</ele>
        <time>2023-06-08T07:38:17.289Z</time>
      </trkpt>
      <trkpt lat="46.82285" lon="0.52737">
        <ele>58.73</ele>
        <time>2023-06-08T07:38:31.016Z</time>
      </trkpt>
      <trkpt lat="46.82289" lon="0.52725">
        <ele>58.93</ele>
        <time>2023-06-08T07:38:44.745Z</time>
      </trkpt>
      <trkpt lat="46.82293" lon="0.52714">
        <ele>59.1</ele>
        <time>2023-06-08T07:38:58.475Z</time>
      </trkpt>
      <trkpt lat="46.82301" lon="0.52691">
        <ele>59.3</ele>
        <time>2023-06-08T07:39:12.208Z</time>
      </trkpt>
      <trkpt lat="46.82302" lon="0.52687">
        <ele>59.31</ele>
        <time>2023-06-08T07:39:25.941Z</time>
      </trkpt>
      <trkpt lat="46.8231" lon="0.52662">
        <ele>59.44</ele>
        <time>2023-06-08T07:39:39.677Z</time>
      </trkpt>
      <trkpt lat="46.82325" lon="0.52616">
        <ele>59.63</ele>
        <time>2023-06-08T07:39:53.419Z</time>
      </trkpt>
      <trkpt lat="46.82341" lon="0.52565">
        <ele>59.91</ele>
        <time>2023-06-08T07:40:07.167Z</time>
      </trkpt>
      <trkpt lat="46.8235" lon="0.52538">
        <ele>60.03</ele>
        <time>2023-06-08T07:40:20.918Z</time>
      </trkpt>
      <trkpt lat="46.82357" lon="0.52519">
        <ele>60.12</ele>
        <time>2023-06-08T07:40:34.672Z</time>
      </trkpt>
      <trkpt lat="46.82377" lon="0.52462">
        <ele>60.52</ele>
        <time>2023-06-08T07:40:48.433Z</time>
      </trkpt>
      <trkpt lat="46.82386" lon="0.52435">
        <ele>60.58</ele>
        <time>2023-06-08T07:41:02.197Z</time>
      </trkpt>
      <trkpt lat="46.82387" lon="0.52433">
        <ele>60.59</ele>
        <time>2023-06-08T07:41:15.961Z</time>
      </trkpt>
      <trkpt lat="46.82406" lon="0.52386">
        <ele>60.76</ele>
        <time>2023-06-08T07:41:29.731Z</time>
      </trkpt>
      <trkpt lat="46.82411" lon="0.52377">
        <ele>60.8</ele>
        <time>2023-06-08T07:41:43.503Z</time>
      </trkpt>
      <trkpt lat="46.82419" lon="0.52362">
        <ele>60.92</ele>
        <time>2023-06-08T07:41:57.277Z</time>
      </trkpt>
      <trkpt lat="46.82428" lon="0.52347">
        <ele>61.09</ele>
        <time>2023-06-08T07:42:11.053Z</time>
      </trkpt>
      <trkpt lat="46.82437" lon="0.5233">
        <ele>61.13</ele>
        <time>2023-06-08T07:42:24.831Z</time>
      </trkpt>
      <trkpt lat="46.82456" lon="0.52295">
        <ele>61.4</ele>
        <time>2023-06-08T07:42:38.614Z</time>
      </trkpt>
      <trkpt lat="46.82469" lon="0.52272">
        <ele>61.61</ele>
        <time>2023-06-08T07:42:52.400Z</time>
      </trkpt>
      <trkpt lat="46.82472" lon="0.52265">
        <ele>61.67</ele>
        <time>2023-06-08T07:43:06.187Z</time>
      </trkpt>
      <trkpt lat="46.82476" lon="0.52254">
        <ele>61.8</ele>
        <time>2023-06-08T07:43:19.976Z</time>
      </trkpt>
      <trkpt lat="46.82485" lon="0.52233">
        <ele>62.11</ele>
        <time>2023-06-08T07:43:33.767Z</time>
      </trkpt>
      <trkpt lat="46.82496" lon="0.52207">
        <ele>62.49</ele>
        <time>2023-06-08T07:43:47.562Z</time>
      </trkpt>
      <trkpt lat="46.82499" lon="0.52199">
        <ele>62.61</ele>
        <time>2023-06-08T07:44:01.358Z</time>
      </trkpt>
      <trkpt lat="46.82504" lon="0.52188">
        <ele>62.81</ele>
        <time>2023-06-08T07:44:15.155Z</time>
      </trkpt>
      <trkpt lat="46.82508" lon="0.52177">
        <ele>63.07</ele>
        <time>2023-06-08T07:44:28.954Z</time>
      </trkpt>
      <trkpt lat="46.82512" lon="0.52167">
        <ele>63.33</ele>
        <time>2023-06-08T07:44:42.754Z</time>
      </trkpt>
      <trkpt lat="46.82513" lon="0.52165">
        <ele>63.38</ele>
        <time>2023-06-08T07:44:56.554Z</time>
      </trkpt>
      <trkpt lat="46.82522" lon="0.52135">
        <ele>64.23</ele>
        <time>2023-06-08T07:45:10.358Z</time>
      </trkpt>
      <trkpt lat="46.82525" lon="0.52126">
        <ele>64.48</ele>
        <time>2023-06-08T07:45:24.163Z</time>
      </trkpt>
      <trkpt lat="46.82529" lon="0.52111">
        <ele>64.87</ele>
        <time>2023-06-08T07:45:37.970Z</time>
      </trkpt>
      <trkpt lat="46.82538" lon="0.52074">
        <ele>65.87</ele>
        <time>2023-06-08T07:45:51.781Z</time>
      </trkpt>
      <trkpt lat="46.82541" lon="0.52062">
        <ele>66.13</ele>
        <time>2023-06-08T07:46:05.593Z</time>
      </trkpt>
      <trkpt lat="46.82544" lon="0.52049">
        <ele>66.36</ele>
        <time>2023-06-08T07:46:19.407Z</time>
      </trkpt>
      <trkpt lat="46.82547" lon="0.52037">
        <ele>66.55</ele>
        <time>2023-06-08T07:46:33.222Z</time>
      </trkpt>
      <trkpt lat="46.82554" lon="0.52006">
        <ele>66.91</ele>
        <time>2023-06-08T07:46:47.041Z</time>
      </trkpt>
      <trkpt lat="46.82561" lon="0.51977">
        <ele>66.98</ele>
        <time>2023-06-08T07:47:00.863Z</time>
      </trkpt>
      <trkpt lat="46.82567" lon="0.51953">
        <ele>66.94</ele>
        <time>2023-06-08T07:47:14.688Z</time>
      </trkpt>
      <trkpt lat="46.82574" lon="0.51924">
        <ele>66.67</ele>
        <time>2023-06-08T07:47:28.516Z</time>
      </trkpt>
      <trkpt lat="46.82574" lon="0.51923">
        <ele>66.66</ele>
        <time>2023-06-08T07:47:42.344Z</time>
      </trkpt>
      <trkpt lat="46.82577" lon="0.5191">
        <ele>66.52</ele>
        <time>2023-06-08T07:47:56.174Z</time>
      </trkpt>
      <trkpt lat="46.82584" lon="0.5188">
        <ele>66.09</ele>
        <time>2023-06-08T07:48:10.007Z</time>
      </trkpt>
      <trkpt lat="46.82593" lon="0.51843">
        <ele>65.6</ele>
        <time>2023-06-08T07:48:23.845Z</time>
      </trkpt>
      <trkpt lat="46.82601" lon="0.51806">
        <ele>64.97</ele>
        <time>2023-06-08T07:48:37.687Z</time>
      </trkpt>
      <trkpt lat="46.8261" lon="0.51769">
        <ele>64.44</ele>
        <time>2023-06-08T07:48:51.533Z</time>
      </trkpt>
      <trkpt lat="46.8261" lon="0.51767">
        <ele>64.41</ele>
        <time>2023-06-08T07:49:05.380Z</time>
      </trkpt>
      <trkpt lat="46.82613" lon="0.5175">
        <ele>64.22</ele>
        <time>2023-06-08T07:49:19.228Z</time>
      </trkpt>
      <trkpt lat="46.82617" lon="0.51718">
        <ele>63.92</ele>
        <time>2023-06-08T07:49:33.080Z</time>
      </trkpt>
      <trkpt lat="46.82619" lon="0.51706">
        <ele>63.82</ele>
        <time>2023-06-08T07:49:46.933Z</time>
      </trkpt>
      <trkpt lat="46.82622" lon="0.51689">
        <ele>63.6</ele>
        <time>2023-06-08T07:50:00.788Z</time>
      </trkpt>
      <trkpt lat="46.82632" lon="0.51694">
        <ele>63.41</ele>
        <time>2023-06-08T07:50:14.645Z</time>
      </trkpt>
      <trkpt lat="46.82645" lon="0.51701">
        <ele>63.24</ele>
        <time>2023-06-08T07:50:28.504Z</time>
      </trkpt>
      <trkpt lat="46.82653" lon="0.51705">
        <ele>63.15</ele>
        <time>2023-06-08T07:50:42.365Z</time>
      </trkpt>
      <trkpt lat="46.82674" lon="0.51716">
        <ele>63</ele>
        <time>2023-06-08T07:50:56.229Z</time>
      </trkpt>
      <trkpt lat="46.82691" lon="0.51725">
        <ele>62.8</ele>
        <time>2023-06-08T07:51:10.096Z</time>
      </trkpt>
      <trkpt lat="46.82712" lon="0.51736">
        <ele>62.58</ele>
        <time>2023-06-08T07:51:23.967Z</time>
      </trkpt>
      <trkpt lat="46.82721" lon="0.5174">
        <ele>62.52</ele>
        <time>2023-06-08T07:51:37.839Z</time>
      </trkpt>
      <trkpt lat="46.82725" lon="0.51742">
        <ele>62.52</ele>
        <time>2023-06-08T07:51:51.712Z</time>
      </trkpt>
      <trkpt lat="46.82733" lon="0.51747">
        <ele>62.57</ele>
        <time>2023-06-08T07:52:05.586Z</time>
      </trkpt>
      <trkpt lat="46.82755" lon="0.51758">
        <ele>62.79</ele>
        <time>2023-06-08T07:52:19.464Z</time>
      </trkpt>
      <trkpt lat="46.82776" lon="0.51769">
        <ele>63.08</ele>
        <time>2023-06-08T07:52:33.345Z</time>
      </trkpt>
      <trkpt lat="46.82784" lon="0.51773">
        <ele>63.12</ele>
        <time>2023-06-08T07:52:47.228Z</time>
      </trkpt>
      <trkpt lat="46.82791" lon="0.51775">
        <ele>63.16</ele>
        <time>2023-06-08T07:53:01.112Z</time>
      </trkpt>
      <trkpt lat="46.82793" lon="0.51774">
        <ele>63.18</ele>
        <time>2023-06-08T07:53:14.996Z</time>
      </trkpt>
      <trkpt lat="46.82798" lon="0.51773">
        <ele>63.22</ele>
        <time>2023-06-08T07:53:28.881Z</time>
      </trkpt>
      <trkpt lat="46.82805" lon="0.5177">
        <ele>63.29</ele>
        <time>2023-06-08T07:53:42.767Z</time>
      </trkpt>
      <trkpt lat="46.82812" lon="0.51764">
        <ele>63.37</ele>
        <time>2023-06-08T07:53:56.655Z</time>
      </trkpt>
      <trkpt lat="46.8282" lon="0.51754">
        <ele>63.47</ele>
        <time>2023-06-08T07:54:10.544Z</time>
      </trkpt>
      <trkpt lat="46.82827" lon="0.51745">
        <ele>63.58</ele>
        <time>2023-06-08T07:54:24.435Z</time>
      </trkpt>
      <trkpt lat="46.82837" lon="0.51732">
        <ele>63.82</ele>
        <time>2023-06-08T07:54:38.328Z</time>
      </trkpt>
      <trkpt lat="46.82843" lon="0.51723">
        <ele>63.93</ele>
        <time>2023-06-08T07:54:52.222Z</time>
      </trkpt>
      <trkpt lat="46.82873" lon="0.51684">
        <ele>64.22</ele>
        <time>2023-06-08T07:55:06.123Z</time>
      </trkpt>
      <trkpt lat="46.82877" lon="0.51679">
        <ele>64.27</ele>
        <time>2023-06-08T07:55:20.024Z</time>
      </trkpt>
      <trkpt lat="46.82879" lon="0.51676">
        <ele>64.34</ele>
        <time>2023-06-08T07:55:33.926Z</time>
      </trkpt>
      <trkpt lat="46.82886" lon="0.51666">
        <ele>64.57</ele>
        <time>2023-06-08T07:55:47.830Z</time>
      </trkpt>
      <trkpt lat="46.8289" lon="0.51661">
        <ele>64.64</ele>
        <time>2023-06-08T07:56:01.734Z</time>
      </trkpt>
      <trkpt lat="46.82899" lon="0.51648">
        <ele>64.78</ele>
        <time>2023-06-08T07:56:15.641Z</time>
      </trkpt>
      <trkpt lat="46.82916" lon="0.51626">
        <ele>65.13</ele>
        <time>2023-06-08T07:56:29.551Z</time>
      </trkpt>
      <trkpt lat="46.82919" lon="0.51621">
        <ele>65.23</ele>
        <time>2023-06-08T07:56:43.462Z</time>
      </trkpt>
      <trkpt lat="46.82922" lon="0.51617">
        <ele>65.36</ele>
        <time>2023-06-08T07:56:57.374Z</time>
      </trkpt>
      <trkpt lat="46.82929" lon="0.51608">
        <ele>65.7</ele>
        <time>2023-06-08T07:57:11.287Z</time>
      </trkpt>
      <trkpt lat="46.82932" lon="0.51603">
        <ele>65.85</ele>
        <time>2023-06-08T07:57:25.201Z</time>
      </trkpt>
      <trkpt lat="46.82935" lon="0.51599">
        <ele>65.94</ele>
        <time>2023-06-08T07:57:39.115Z</time>
      </trkpt>
      <trkpt lat="46.82945" lon="0.51585">
        <ele>66.15</ele>
        <time>2023-06-08T07:57:53.032Z</time>
      </trkpt>
      <trkpt lat="46.82948" lon="0.51581">
        <ele>66.26</ele>
        <time>2023-06-08T07:58:06.949Z</time>
      </trkpt>
      <trkpt lat="46.82952" lon="0.51577">
        <ele>66.41</ele>
        <time>2023-06-08T07:58:20.867Z</time>
      </trkpt>
      <trkpt lat="46.82955" lon="0.51572">
        <ele>66.6</ele>
        <time>2023-06-08T07:58:34.786Z</time>
      </trkpt>
      <trkpt lat="46.82962" lon="0.51563">
        <ele>67</ele>
        <time>2023-06-08T07:58:48.706Z</time>
      </trkpt>
      <trkpt lat="46.82965" lon="0.51559">
        <ele>67.22</ele>
        <time>2023-06-08T07:59:02.627Z</time>
      </trkpt>
      <trkpt lat="46.82968" lon="0.51554">
        <ele>67.47</ele>
        <time>2023-06-08T07:59:16.549Z</time>
      </trkpt>
      <trkpt lat="46.82977" lon="0.51542">
        <ele>68.27</ele>
        <time>2023-06-08T07:59:30.473Z</time>
      </trkpt>
      <trkpt lat="46.82978" lon="0.51541">
        <ele>68.36</ele>
        <time>2023-06-08T07:59:44.397Z</time>
      </trkpt>
      <trkpt lat="46.82988" lon="0.51528">
        <ele>69.41</ele>
        <time>2023-06-08T07:59:58.323Z</time>
      </trkpt>
      <trkpt lat="46.82998" lon="0.51515">
        <ele>70.41</ele>
        <time>2023-06-08T08:00:12.251Z</time>
      </trkpt>
      <trkpt lat="46.83025" lon="0.51481">
        <ele>72.89</ele>
        <time>2023-06-08T08:00:26.185Z</time>
      </trkpt>
      <trkpt lat="46.83029" lon="0.51477">
        <ele>73.14</ele>
        <time>2023-06-08T08:00:40.120Z</time>
      </trkpt>
      <trkpt lat="46.83036" lon="0.51468">
        <ele>73.59</ele>
        <time>2023-06-08T08:00:54.056Z</time>
      </trkpt>
      <trkpt lat="46.83041" lon="0.51461">
        <ele>73.98</ele>
        <time>2023-06-08T08:01:07.993Z</time>
      </trkpt>
      <trkpt lat="46.83042" lon="0.51459">
        <ele>74.08</ele>
        <time>2023-06-08T08:01:21.930Z</time>
      </trkpt>
      <trkpt lat="46.83051" lon="0.51445">
        <ele>73.87</ele>
        <time>2023-06-08T08:01:35.870Z</time>
      </trkpt>
      <trkpt lat="46.83056" lon="0.51438">
        <ele>73.78</ele>
        <time>2023-06-08T08:01:49.811Z</time>
      </trkpt>
      <trkpt lat="46.8307" lon="0.51409">
        <ele>73.47</ele>
        <time>2023-06-08T08:02:03.756Z</time>
      </trkpt>
      <trkpt lat="46.83089" lon="0.51372">
        <ele>72.97</ele>
        <time>2023-06-08T08:02:17.706Z</time>
      </trkpt>
      <trkpt lat="46.83111" lon="0.51327">
        <ele>72.23</ele>
        <time>2023-06-08T08:02:31.662Z</time>
      </trkpt>
      <trkpt lat="46.83112" lon="0.51325">
        <ele>72.2</ele>
        <time>2023-06-08T08:02:45.618Z</time>
      </trkpt>
      <trkpt lat="46.83117" lon="0.51314">
        <ele>72.08</ele>
        <time>2023-06-08T08:02:59.575Z</time>
      </trkpt>
      <trkpt lat="46.83122" lon="0.51303">
        <ele>72</ele>
        <time>2023-06-08T08:03:13.534Z</time>
      </trkpt>
      <trkpt lat="46.83136" lon="0.5127">
        <ele>71.88</ele>
        <time>2023-06-08T08:03:27.497Z</time>
      </trkpt>
      <trkpt lat="46.83148" lon="0.51243">
        <ele>71.82</ele>
        <time>2023-06-08T08:03:41.464Z</time>
      </trkpt>
      <trkpt lat="46.83156" lon="0.51226">
        <ele>71.85</ele>
        <time>2023-06-08T08:03:55.433Z</time>
      </trkpt>
      <trkpt lat="46.83158" lon="0.51221">
        <ele>71.88</ele>
        <time>2023-06-08T08:04:09.403Z</time>
      </trkpt>
      <trkpt lat="46.83162" lon="0.5121">
        <ele>71.95</ele>
        <time>2023-06-08T08:04:23.374Z</time>
      </trkpt>
      <trkpt lat="46.83167" lon="0.51198">
        <ele>72.04</ele>
        <time>2023-06-08T08:04:37.346Z</time>
      </trkpt>
      <trkpt lat="46.83174" lon="0.51181">
        <ele>72.21</ele>
        <time>2023-06-08T08:04:51.321Z</time>
      </trkpt>
      <trkpt lat="46.8318" lon="0.51164">
        <ele>72.43</ele>
        <time>2023-06-08T08:05:05.298Z</time>
      </trkpt>
      <trkpt lat="46.83187" lon="0.51147">
        <ele>72.74</ele>
        <time>2023-06-08T08:05:19.277Z</time>
      </trkpt>
      <trkpt lat="46.83191" lon="0.51136">
        <ele>72.97</ele>
        <time>2023-06-08T08:05:33.257Z</time>
      </trkpt>
      <trkpt lat="46.83198" lon="0.51119">
        <ele>73.35</ele>
        <time>2023-06-08T08:05:47.239Z</time>
      </trkpt>
      <trkpt lat="46.83201" lon="0.51111">
        <ele>73.54</ele>
        <time>2023-06-08T08:06:01.222Z</time>
      </trkpt>
      <trkpt lat="46.83208" lon="0.5109">
        <ele>74.02</ele>
        <time>2023-06-08T08:06:15.208Z</time>
      </trkpt>
      <trkpt lat="46.83212" lon="0.51079">
        <ele>74.26</ele>
        <time>2023-06-08T08:06:29.195Z</time>
      </trkpt>
      <trkpt lat="46.83216" lon="0.51067">
        <ele>74.46</ele>
        <time>2023-06-08T08:06:43.184Z</time>
      </trkpt>
      <trkpt lat="46.83218" lon="0.51061">
        <ele>74.54</ele>
        <time>2023-06-08T08:06:57.174Z</time>
      </trkpt>
      <trkpt lat="46.83222" lon="0.5105">
        <ele>74.66</ele>
        <time>2023-06-08T08:07:11.165Z</time>
      </trkpt>
      <trkpt lat="46.83223" lon="0.51047">
        <ele>74.66</ele>
        <time>2023-06-08T08:07:25.156Z</time>
      </trkpt>
      <trkpt lat="46.83224" lon="0.51044">
        <ele>74.68</ele>
        <time>2023-06-08T08:07:39.148Z</time>
      </trkpt>
      <trkpt lat="46.83227" lon="0.51032">
        <ele>74.66</ele>
        <time>2023-06-08T08:07:53.141Z</time>
      </trkpt>
      <trkpt lat="46.83236" lon="0.51002">
        <ele>74.5</ele>
        <time>2023-06-08T08:08:07.138Z</time>
      </trkpt>
      <trkpt lat="46.8324" lon="0.5099">
        <ele>74.47</ele>
        <time>2023-06-08T08:08:21.136Z</time>
      </trkpt>
      <trkpt lat="46.83247" lon="0.50966">
        <ele>74.48</ele>
        <time>2023-06-08T08:08:35.137Z</time>
      </trkpt>
      <trkpt lat="46.8325" lon="0.50954">
        <ele>74.45</ele>
        <time>2023-06-08T08:08:49.139Z</time>
      </trkpt>
      <trkpt lat="46.83252" lon="0.50948">
        <ele>74.39</ele>
        <time>2023-06-08T08:09:03.142Z</time>
      </trkpt>
      <trkpt lat="46.83254" lon="0.50942">
        <ele>74.31</ele>
        <time>2023-06-08T08:09:17.146Z</time>
      </trkpt>
      <trkpt lat="46.83255" lon="0.50936">
        <ele>74.2</ele>
        <time>2023-06-08T08:09:31.151Z</time>
      </trkpt>
      <trkpt lat="46.83259" lon="0.50923">
        <ele>73.89</ele>
        <time>2023-06-08T08:09:45.157Z</time>
      </trkpt>
      <trkpt lat="46.83263" lon="0.50912">
        <ele>73.63</ele>
        <time>2023-06-08T08:09:59.164Z</time>
      </trkpt>
      <trkpt lat="46.83265" lon="0.50907">
        <ele>73.5</ele>
        <time>2023-06-08T08:10:13.172Z</time>
      </trkpt>
      <trkpt lat="46.83268" lon="0.50901">
        <ele>73.4</ele>
        <time>2023-06-08T08:10:27.181Z</time>
      </trkpt>
      <trkpt lat="46.83272" lon="0.5089">
        <ele>73.28</ele>
        <time>2023-06-08T08:10:41.191Z</time>
      </trkpt>
      <trkpt lat="46.83274" lon="0.50884">
        <ele>73.26</ele>
        <time>2023-06-08T08:10:55.202Z</time>
      </trkpt>
      <trkpt lat="46.83275" lon="0.50882">
        <ele>73.26</ele>
        <time>2023-06-08T08:11:09.213Z</time>
      </trkpt>
      <trkpt lat="46.8328" lon="0.50874">
        <ele>73.28</ele>
        <time>2023-06-08T08:11:23.225Z</time>
      </trkpt>
      <trkpt lat="46.83286" lon="0.50865">
        <ele>73.35</ele>
        <time>2023-06-08T08:11:37.239Z</time>
      </trkpt>
      <trkpt lat="46.83293" lon="0.50856">
        <ele>73.47</ele>
        <time>2023-06-08T08:11:51.254Z</time>
      </trkpt>
      <trkpt lat="46.83301" lon="0.50844">
        <ele>73.7</ele>
        <time>2023-06-08T08:12:05.271Z</time>
      </trkpt>
      <trkpt lat="46.83302" lon="0.50843">
        <ele>73.74</ele>
        <time>2023-06-08T08:12:19.288Z</time>
      </trkpt>
      <trkpt lat="46.83314" lon="0.50832">
        <ele>74.06</ele>
        <time>2023-06-08T08:12:33.308Z</time>
      </trkpt>
      <trkpt lat="46.83315" lon="0.50831">
        <ele>74.1</ele>
        <time>2023-06-08T08:12:47.328Z</time>
      </trkpt>
      <trkpt lat="46.83322" lon="0.50826">
        <ele>74.32</ele>
        <time>2023-06-08T08:13:01.349Z</time>
      </trkpt>
      <trkpt lat="46.8333" lon="0.5082">
        <ele>74.63</ele>
        <time>2023-06-08T08:13:15.371Z</time>
      </trkpt>
      <trkpt lat="46.83346" lon="0.50809">
        <ele>75.37</ele>
        <time>2023-06-08T08:13:29.396Z</time>
      </trkpt>
      <trkpt lat="46.83364" lon="0.50796">
        <ele>76.67</ele>
        <time>2023-06-08T08:13:43.425Z</time>
      </trkpt>
      <trkpt lat="46.83374" lon="0.50788">
        <ele>77.38</ele>
        <time>2023-06-08T08:13:57.455Z</time>
      </trkpt>
      <trkpt lat="46.83393" lon="0.50772">
        <ele>78.92</ele>
        <time>2023-06-08T08:14:11.489Z</time>
      </trkpt>
      <trkpt lat="46.83404" lon="0.50763">
        <ele>79.69</ele>
        <time>2023-06-08T08:14:25.525Z</time>
      </trkpt>
      <trkpt lat="46.83416" lon="0.50752">
        <ele>80.58</ele>
        <time>2023-06-08T08:14:39.563Z</time>
      </trkpt>
      <trkpt lat="46.83435" lon="0.50734">
        <ele>82.01</ele>
        <time>2023-06-08T08:14:53.605Z</time>
      </trkpt>
      <trkpt lat="46.83443" lon="0.50727">
        <ele>82.51</ele>
        <time>2023-06-08T08:15:07.648Z</time>
      </trkpt>
      <trkpt lat="46.83454" lon="0.50717">
        <ele>83.2</ele>
        <time>2023-06-08T08:15:21.693Z</time>
      </trkpt>
      <trkpt lat="46.83469" lon="0.50703">
        <ele>84.05</ele>
        <time>2023-06-08T08:15:35.741Z</time>
      </trkpt>
      <trkpt lat="46.83488" lon="0.50686">
        <ele>85.04</ele>
        <time>2023-06-08T08:15:49.793Z</time>
      </trkpt>
      <trkpt lat="46.83492" lon="0.50683">
        <ele>85.22</ele>
        <time>2023-06-08T08:16:03.846Z</time>
      </trkpt>
      <trkpt lat="46.83498" lon="0.50677">
        <ele>85.47</ele>
        <time>2023-06-08T08:16:17.900Z</time>
      </trkpt>
      <trkpt lat="46.83507" lon="0.50668">
        <ele>85.86</ele>
        <time>2023-06-08T08:16:31.955Z</time>
      </trkpt>
      <trkpt lat="46.83525" lon="0.5065">
        <ele>86.71</ele>
        <time>2023-06-08T08:16:46.014Z</time>
      </trkpt>
      <trkpt lat="46.83532" lon="0.50643">
        <ele>87.02</ele>
        <time>2023-06-08T08:17:00.074Z</time>
      </trkpt>
      <trkpt lat="46.83539" lon="0.50635">
        <ele>87.28</ele>
        <time>2023-06-08T08:17:14.136Z</time>
      </trkpt>
      <trkpt lat="46.83561" lon="0.50613">
        <ele>87.97</ele>
        <time>2023-06-08T08:17:28.202Z</time>
      </trkpt>
      <trkpt lat="46.83568" lon="0.50606">
        <ele>88.17</ele>
        <time>2023-06-08T08:17:42.269Z</time>
      </trkpt>
      <trkpt lat="46.83582" lon="0.50592">
        <ele>88.46</ele>
        <time>2023-06-08T08:17:56.339Z</time>
      </trkpt>
      <trkpt lat="46.83606" lon="0.50574">
        <ele>88.93</ele>
        <time>2023-06-08T08:18:10.413Z</time>
      </trkpt>
      <trkpt lat="46.83622" lon="0.50562">
        <ele>89.3</ele>
        <time>2023-06-08T08:18:24.490Z</time>
      </trkpt>
      <trkpt lat="46.83626" lon="0.5056">
        <ele>89.39</ele>
        <time>2023-06-08T08:18:38.568Z</time>
      </trkpt>
      <trkpt lat="46.83634" lon="0.50555">
        <ele>89.52</ele>
        <time>2023-06-08T08:18:52.647Z</time>
      </trkpt>
      <trkpt lat="46.83644" lon="0.5055">
        <ele>89.64</ele>
        <time>2023-06-08T08:19:06.728Z</time>
      </trkpt>
      <trkpt lat="46.83651" lon="0.50547">
        <ele>89.73</ele>
        <time>2023-06-08T08:19:20.810Z</time>
      </trkpt>
      <trkpt lat="46.83655" lon="0.50545">
        <ele>89.81</ele>
        <time>2023-06-08T08:19:34.893Z</time>
      </trkpt>
      <trkpt lat="46.83659" lon="0.50544">
        <ele>89.92</ele>
        <time>2023-06-08T08:19:48.977Z</time>
      </trkpt>
      <trkpt lat="46.83664" lon="0.50542">
        <ele>90.09</ele>
        <time>2023-06-08T08:20:03.061Z</time>
      </trkpt>
      <trkpt lat="46.83672" lon="0.50538">
        <ele>90.52</ele>
        <time>2023-06-08T08:20:17.147Z</time>
      </trkpt>
      <trkpt lat="46.83677" lon="0.50536">
        <ele>90.71</ele>
        <time>2023-06-08T08:20:31.233Z</time>
      </trkpt>
      <trkpt lat="46.83681" lon="0.50535">
        <ele>90.85</ele>
        <time>2023-06-08T08:20:45.320Z</time>
      </trkpt>
      <trkpt lat="46.83685" lon="0.50533">
        <ele>90.96</ele>
        <time>2023-06-08T08:20:59.408Z</time>
      </trkpt>
      <trkpt lat="46.83694" lon="0.50529">
        <ele>91.1</ele>
        <time>2023-06-08T08:21:13.497Z</time>
      </trkpt>
      <trkpt lat="46.83704" lon="0.50525">
        <ele>91.25</ele>
        <time>2023-06-08T08:21:27.588Z</time>
      </trkpt>
      <trkpt lat="46.8372" lon="0.50519">
        <ele>91.48</ele>
        <time>2023-06-08T08:21:41.682Z</time>
      </trkpt>
      <trkpt lat="46.8372" lon="0.50519">
        <ele>91.48</ele>
        <time>2023-06-08T08:21:55.776Z</time>
      </trkpt>
      <trkpt lat="46.83737" lon="0.50515">
        <ele>91.8</ele>
        <time>2023-06-08T08:22:09.872Z</time>
      </trkpt>
      <trkpt lat="46.83743" lon="0.50513">
        <ele>91.88</ele>
        <time>2023-06-08T08:22:23.969Z</time>
      </trkpt>
      <trkpt lat="46.83746" lon="0.50513">
        <ele>91.92</ele>
        <time>2023-06-08T08:22:38.067Z</time>
      </trkpt>
      <trkpt lat="46.83764" lon="0.50513">
        <ele>92.08</ele>
        <time>2023-06-08T08:22:52.168Z</time>
      </trkpt>
      <trkpt lat="46.83772" lon="0.50513">
        <ele>92.16</ele>
        <time>2023-06-08T08:23:06.270Z</time>
      </trkpt>
      <trkpt lat="46.8379" lon="0.50515">
        <ele>92.35</ele>
        <time>2023-06-08T08:23:20.375Z</time>
      </trkpt>
      <trkpt lat="46.83799" lon="0.50516">
        <ele>92.39</ele>
        <time>2023-06-08T08:23:34.481Z</time>
      </trkpt>
      <trkpt lat="46.83799" lon="0.50516">
        <ele>92.39</ele>
        <time>2023-06-08T08:23:48.587Z</time>
      </trkpt>
      <trkpt lat="46.83813" lon="0.50515">
        <ele>92.35</ele>
        <time>2023-06-08T08:24:02.696Z</time>
      </trkpt>
      <trkpt lat="46.83821" lon="0.50514">
        <ele>92.4</ele>
        <time>2023-06-08T08:24:16.806Z</time>
      </trkpt>
      <trkpt lat="46.83822" lon="0.50514">
        <ele>92.4</ele>
        <time>2023-06-08T08:24:30.916Z</time>
      </trkpt>
      <trkpt lat="46.83826" lon="0.50512">
        <ele>92.45</ele>
        <time>2023-06-08T08:24:45.027Z</time>
      </trkpt>
      <trkpt lat="46.8383" lon="0.5051">
        <ele>92.54</ele>
        <time>2023-06-08T08:24:59.138Z</time>
      </trkpt>
      <trkpt lat="46.83835" lon="0.50509">
        <ele>92.65</ele>
        <time>2023-06-08T08:25:13.250Z</time>
      </trkpt>
      <trkpt lat="46.83836" lon="0.50508">
        <ele>92.69</ele>
        <time>2023-06-08T08:25:27.362Z</time>
      </trkpt>
      <trkpt lat="46.83855" lon="0.50495">
        <ele>93.26</ele>
        <time>2023-06-08T08:25:41.478Z</time>
      </trkpt>
      <trkpt lat="46.83859" lon="0.50493">
        <ele>93.4</ele>
        <time>2023-06-08T08:25:55.594Z</time>
      </trkpt>
      <trkpt lat="46.8386" lon="0.50492">
        <ele>93.43</ele>
        <time>2023-06-08T08:26:09.711Z</time>
      </trkpt>
      <trkpt lat="46.83871" lon="0.50483">
        <ele>93.87</ele>
        <time>2023-06-08T08:26:23.830Z</time>
      </trkpt>
      <trkpt lat="46.83875" lon="0.5048">
        <ele>94</ele>
        <time>2023-06-08T08:26:37.949Z</time>
      </trkpt>
      <trkpt lat="46.83878" lon="0.50477">
        <ele>94.1</ele>
        <time>2023-06-08T08:26:52.069Z</time>
      </trkpt>
      <trkpt lat="46.83882" lon="0.50474">
        <ele>94.14</ele>
        <time>2023-06-08T08:27:06.190Z</time>
      </trkpt>
      <trkpt lat="46.83888" lon="0.50469">
        <ele>94.14</ele>
        <time>2023-06-08T08:27:20.312Z</time>
      </trkpt>
      <trkpt lat="46.839" lon="0.50454">
        <ele>94.15</ele>
        <time>2023-06-08T08:27:34.436Z</time>
      </trkpt>
      <trkpt lat="46.83911" lon="0.50442">
        <ele>94.09</ele>
        <time>2023-06-08T08:27:48.562Z</time>
      </trkpt>
      <trkpt lat="46.83911" lon="0.50442">
        <ele>94.09</ele>
        <time>2023-06-08T08:28:02.688Z</time>
      </trkpt>
      <trkpt lat="46.83926" lon="0.50418">
        <ele>93.91</ele>
        <time>2023-06-08T08:28:16.818Z</time>
      </trkpt>
      <trkpt lat="46.83929" lon="0.50413">
        <ele>93.91</ele>
        <time>2023-06-08T08:28:30.949Z</time>
      </trkpt>
      <trkpt lat="46.83938" lon="0.50399">
        <ele>93.97</ele>
        <time>2023-06-08T08:28:45.082Z</time>
      </trkpt>
      <trkpt lat="46.83941" lon="0.50394">
        <ele>93.97</ele>
        <time>2023-06-08T08:28:59.216Z</time>
      </trkpt>
      <trkpt lat="46.83942" lon="0.50392">
        <ele>93.96</ele>
        <time>2023-06-08T08:29:13.350Z</time>
      </trkpt>
      <trkpt lat="46.83957" lon="0.50372">
        <ele>93.88</ele>
        <time>2023-06-08T08:29:27.487Z</time>
      </trkpt>
      <trkpt lat="46.83961" lon="0.50368">
        <ele>93.84</ele>
        <time>2023-06-08T08:29:41.625Z</time>
      </trkpt>
      <trkpt lat="46.83964" lon="0.50363">
        <ele>93.76</ele>
        <time>2023-06-08T08:29:55.764Z</time>
      </trkpt>
      <trkpt lat="46.83967" lon="0.50359">
        <ele>93.64</ele>
        <time>2023-06-08T08:30:09.903Z</time>
      </trkpt>
      <trkpt lat="46.83971" lon="0.50355">
        <ele>93.5</ele>
        <time>2023-06-08T08:30:24.043Z</time>
      </trkpt>
      <trkpt lat="46.83977" lon="0.50346">
        <ele>93.18</ele>
        <time>2023-06-08T08:30:38.184Z</time>
      </trkpt>
      <trkpt lat="46.83981" lon="0.50342">
        <ele>93.05</ele>
        <time>2023-06-08T08:30:52.326Z</time>
      </trkpt>
      <trkpt lat="46.83984" lon="0.50338">
        <ele>92.97</ele>
        <time>2023-06-08T08:31:06.469Z</time>
      </trkpt>
      <trkpt lat="46.83987" lon="0.50333">
        <ele>92.93</ele>
        <time>2023-06-08T08:31:20.613Z</time>
      </trkpt>
      <trkpt lat="46.83997" lon="0.5032">
        <ele>92.88</ele>
        <time>2023-06-08T08:31:34.759Z</time>
      </trkpt>
      <trkpt lat="46.84001" lon="0.50316">
        <ele>92.84</ele>
        <time>2023-06-08T08:31:48.905Z</time>
      </trkpt>
      <trkpt lat="46.84003" lon="0.50313">
        <ele>92.79</ele>
        <time>2023-06-08T08:32:03.052Z</time>
      </trkpt>
      <trkpt lat="46.84008" lon="0.50308">
        <ele>92.71</ele>
        <time>2023-06-08T08:32:17.200Z</time>
      </trkpt>
      <trkpt lat="46.84011" lon="0.50303">
        <ele>92.63</ele>
        <time>2023-06-08T08:32:31.349Z</time>
      </trkpt>
      <trkpt lat="46.84015" lon="0.50299">
        <ele>92.52</ele>
        <time>2023-06-08T08:32:45.498Z</time>
      </trkpt>
      <trkpt lat="46.84022" lon="0.50291">
        <ele>92.22</ele>
        <time>2023-06-08T08:32:59.649Z</time>
      </trkpt>
      <trkpt lat="46.84032" lon="0.50279">
        <ele>90.84</ele>
        <time>2023-06-08T08:33:13.802Z</time>
      </trkpt>
      <trkpt lat="46.84035" lon="0.50275">
        <ele>90.48</ele>
        <time>2023-06-08T08:33:27.956Z</time>
      </trkpt>
      <trkpt lat="46.84037" lon="0.50273">
        <ele>90.35</ele>
        <time>2023-06-08T08:33:42.110Z</time>
      </trkpt>
      <trkpt lat="46.84039" lon="0.50271">
        <ele>90.22</ele>
        <time>2023-06-08T08:33:56.264Z</time>
      </trkpt>
      <trkpt lat="46.84042" lon="0.50266">
        <ele>90.05</ele>
        <time>2023-06-08T08:34:10.419Z</time>
      </trkpt>
      <trkpt lat="46.84045" lon="0.50262">
        <ele>89.92</ele>
        <time>2023-06-08T08:34:24.575Z</time>
      </trkpt>
      <trkpt lat="46.84055" lon="0.50248">
        <ele>89.6</ele>
        <time>2023-06-08T08:34:38.733Z</time>
      </trkpt>
      <trkpt lat="46.84058" lon="0.50243">
        <ele>89.52</ele>
        <time>2023-06-08T08:34:52.892Z</time>
      </trkpt>
      <trkpt lat="46.84061" lon="0.50239">
        <ele>89.5</ele>
        <time>2023-06-08T08:35:07.051Z</time>
      </trkpt>
      <trkpt lat="46.84064" lon="0.50234">
        <ele>89.52</ele>
        <time>2023-06-08T08:35:21.211Z</time>
      </trkpt>
      <trkpt lat="46.84074" lon="0.5022">
        <ele>89.71</ele>
        <time>2023-06-08T08:35:35.373Z</time>
      </trkpt>
      <trkpt lat="46.84077" lon="0.50216">
        <ele>89.73</ele>
        <time>2023-06-08T08:35:49.536Z</time>
      </trkpt>
      <trkpt lat="46.8408" lon="0.50211">
        <ele>89.73</ele>
        <time>2023-06-08T08:36:03.700Z</time>
      </trkpt>
      <trkpt lat="46.84102" lon="0.50179">
        <ele>89.5</ele>
        <time>2023-06-08T08:36:17.869Z</time>
      </trkpt>
      <trkpt lat="46.84122" lon="0.50152">
        <ele>89.42</ele>
        <time>2023-06-08T08:36:32.042Z</time>
      </trkpt>
      <trkpt lat="46.84125" lon="0.50148">
        <ele>89.38</ele>
        <time>2023-06-08T08:36:46.216Z</time>
      </trkpt>
      <trkpt lat="46.84128" lon="0.50143">
        <ele>89.29</ele>
        <time>2023-06-08T08:37:00.390Z</time>
      </trkpt>
      <trkpt lat="46.84131" lon="0.50138">
        <ele>89.22</ele>
        <time>2023-06-08T08:37:14.565Z</time>
      </trkpt>
      <trkpt lat="46.84134" lon="0.50133">
        <ele>89.1</ele>
        <time>2023-06-08T08:37:28.741Z</time>
      </trkpt>
      <trkpt lat="46.8414" lon="0.50123">
        <ele>88.81</ele>
        <time>2023-06-08T08:37:42.918Z</time>
      </trkpt>
      <trkpt lat="46.84145" lon="0.50114">
        <ele>88.65</ele>
        <time>2023-06-08T08:37:57.097Z</time>
      </trkpt>
      <trkpt lat="46.84148" lon="0.50109">
        <ele>88.61</ele>
        <time>2023-06-08T08:38:11.276Z</time>
      </trkpt>
      <trkpt lat="46.84153" lon="0.50101">
        <ele>88.61</ele>
        <time>2023-06-08T08:38:25.456Z</time>
      </trkpt>
      <trkpt lat="46.84154" lon="0.50099">
        <ele>88.61</ele>
        <time>2023-06-08T08:38:39.637Z</time>
      </trkpt>
      <trkpt lat="46.8416" lon="0.5009">
        <ele>88.69</ele>
        <time>2023-06-08T08:38:53.819Z</time>
      </trkpt>
      <trkpt lat="46.84182" lon="0.50057">
        <ele>89.06</ele>
        <time>2023-06-08T08:39:08.006Z</time>
      </trkpt>
      <trkpt lat="46.84188" lon="0.50048">
        <ele>89.26</ele>
        <time>2023-06-08T08:39:22.195Z</time>
      </trkpt>
      <trkpt lat="46.84191" lon="0.50043">
        <ele>89.4</ele>
        <time>2023-06-08T08:39:36.384Z</time>
      </trkpt>
      <trkpt lat="46.84201" lon="0.50029">
        <ele>89.88</ele>
        <time>2023-06-08T08:39:50.575Z</time>
      </trkpt>
      <trkpt lat="46.84207" lon="0.5002">
        <ele>90.16</ele>
        <time>2023-06-08T08:40:04.768Z</time>
      </trkpt>
      <trkpt lat="46.84219" lon="0.50001">
        <ele>90.61</ele>
        <time>2023-06-08T08:40:18.964Z</time>
      </trkpt>
      <trkpt lat="46.84222" lon="0.49996">
        <ele>90.76</ele>
        <time>2023-06-08T08:40:33.160Z</time>
      </trkpt>
      <trkpt lat="46.84225" lon="0.49991">
        <ele>90.94</ele>
        <time>2023-06-08T08:40:47.357Z</time>
      </trkpt>
      <trkpt lat="46.84238" lon="0.49973">
        <ele>91.8</ele>
        <time>2023-06-08T08:41:01.557Z</time>
      </trkpt>
      <trkpt lat="46.84241" lon="0.49968">
        <ele>92.04</ele>
        <time>2023-06-08T08:41:15.758Z</time>
      </trkpt>
      <trkpt lat="46.84244" lon="0.49963">
        <ele>92.31</ele>
        <time>2023-06-08T08:41:29.959Z</time>
      </trkpt>
      <trkpt lat="46.84253" lon="0.49949">
        <ele>93.24</ele>
        <time>2023-06-08T08:41:44.163Z</time>
      </trkpt>
      <trkpt lat="46.84256" lon="0.49945">
        <ele>93.52</ele>
        <time>2023-06-08T08:41:58.367Z</time>
      </trkpt>
      <trkpt lat="46.84259" lon="0.4994">
        <ele>93.75</ele>
        <time>2023-06-08T08:42:12.572Z</time>
      </trkpt>
      <trkpt lat="46.84262" lon="0.49935">
        <ele>93.92</ele>
        <time>2023-06-08T08:42:26.778Z</time>
      </trkpt>
      <trkpt lat="46.84268" lon="0.49926">
        <ele>94.16</ele>
        <time>2023-06-08T08:42:40.985Z</time>
      </trkpt>
      <trkpt lat="46.84275" lon="0.49916">
        <ele>94.33</ele>
        <time>2023-06-08T08:42:55.194Z</time>
      </trkpt>
      <trkpt lat="46.84281" lon="0.49908">
        <ele>94.5</ele>
        <time>2023-06-08T08:43:09.404Z</time>
      </trkpt>
      <trkpt lat="46.84291" lon="0.49895">
        <ele>94.8</ele>
        <time>2023-06-08T08:43:23.616Z</time>
      </trkpt>
      <trkpt lat="46.84304" lon="0.49878">
        <ele>95.26</ele>
        <time>2023-06-08T08:43:37.831Z</time>
      </trkpt>
      <trkpt lat="46.84308" lon="0.49873">
        <ele>95.39</ele>
        <time>2023-06-08T08:43:52.047Z</time>
      </trkpt>
      <trkpt lat="46.84313" lon="0.49855">
        <ele>95.79</ele>
        <time>2023-06-08T08:44:06.265Z</time>
      </trkpt>
      <trkpt lat="46.84314" lon="0.49849">
        <ele>95.88</ele>
        <time>2023-06-08T08:44:20.484Z</time>
      </trkpt>
      <trkpt lat="46.84316" lon="0.49843">
        <ele>95.93</ele>
        <time>2023-06-08T08:44:34.703Z</time>
      </trkpt>
      <trkpt lat="46.84319" lon="0.49831">
        <ele>95.95</ele>
        <time>2023-06-08T08:44:48.924Z</time>
      </trkpt>
      <trkpt lat="46.8432" lon="0.49825">
        <ele>95.98</ele>
        <time>2023-06-08T08:45:03.145Z</time>
      </trkpt>
      <trkpt lat="46.84322" lon="0.49819">
        <ele>96.06</ele>
        <time>2023-06-08T08:45:17.367Z</time>
      </trkpt>
      <trkpt lat="46.84323" lon="0.49813">
        <ele>96.17</ele>
        <time>2023-06-08T08:45:31.590Z</time>
      </trkpt>
      <trkpt lat="46.84325" lon="0.49806">
        <ele>96.31</ele>
        <time>2023-06-08T08:45:45.814Z</time>
      </trkpt>
      <trkpt lat="46.84328" lon="0.49794">
        <ele>96.64</ele>
        <time>2023-06-08T08:46:00.039Z</time>
      </trkpt>
      <trkpt lat="46.84331" lon="0.49782">
        <ele>96.93</ele>
        <time>2023-06-08T08:46:14.265Z</time>
      </trkpt>
      <trkpt lat="46.84332" lon="0.49779">
        <ele>97.02</ele>
        <time>2023-06-08T08:46:28.492Z</time>
      </trkpt>
      <trkpt lat="46.84333" lon="0.49776">
        <ele>97.12</ele>
        <time>2023-06-08T08:46:42.719Z</time>
      </trkpt>
      <trkpt lat="46.84336" lon="0.49771">
        <ele>97.36</ele>
        <time>2023-06-08T08:46:56.947Z</time>
      </trkpt>
      <trkpt lat="46.84343" lon="0.49756">
        <ele>98.17</ele>
        <time>2023-06-08T08:47:11.177Z</time>
      </trkpt>
      <trkpt lat="46.84352" lon="0.49751">
        <ele>98.81</ele>
        <time>2023-06-08T08:47:25.408Z</time>
      </trkpt>
      <trkpt lat="46.84356" lon="0.49748">
        <ele>99.12</ele>
        <time>2023-06-08T08:47:39.640Z</time>
      </trkpt>
      <trkpt lat="46.8436" lon="0.49746">
        <ele>99.46</ele>
        <time>2023-06-08T08:47:53.873Z</time>
      </trkpt>
      <trkpt lat="46.84369" lon="0.49741">
        <ele>100.21</ele>
        <time>2023-06-08T08:48:08.107Z</time>
      </trkpt>
      <trkpt lat="46.84381" lon="0.49734">
        <ele>100.45</ele>
        <time>2023-06-08T08:48:22.343Z</time>
      </trkpt>
      <trkpt lat="46.84387" lon="0.49731">
        <ele>100.54</ele>
        <time>2023-06-08T08:48:36.580Z</time>
      </trkpt>
      <trkpt lat="46.84384" lon="0.49708">
        <ele>100.79</ele>
        <time>2023-06-08T08:48:50.820Z</time>
      </trkpt>
      <trkpt lat="46.84378" lon="0.49663">
        <ele>101.33</ele>
        <time>2023-06-08T08:49:05.065Z</time>
      </trkpt>
      <trkpt lat="46.84377" lon="0.49654">
        <ele>101.42</ele>
        <time>2023-06-08T08:49:19.311Z</time>
      </trkpt>
      <trkpt lat="46.84375" lon="0.49626">
        <ele>101.72</ele>
        <time>2023-06-08T08:49:33.560Z</time>
      </trkpt>
      <trkpt lat="46.84375" lon="0.49625">
        <ele>101.74</ele>
        <time>2023-06-08T08:49:47.809Z</time>
      </trkpt>
      <trkpt lat="46.84378" lon="0.49573">
        <ele>102.15</ele>
        <time>2023-06-08T08:50:02.064Z</time>
      </trkpt>
      <trkpt lat="46.84379" lon="0.4956">
        <ele>102.23</ele>
        <time>2023-06-08T08:50:16.320Z</time>
      </trkpt>
      <trkpt lat="46.84379" lon="0.49552">
        <ele>102.26</ele>
        <time>2023-06-08T08:50:30.577Z</time>
      </trkpt>
      <trkpt lat="46.84379" lon="0.4954">
        <ele>102.32</ele>
        <time>2023-06-08T08:50:44.836Z</time>
      </trkpt>
      <trkpt lat="46.84378" lon="0.49521">
        <ele>102.46</ele>
        <time>2023-06-08T08:50:59.097Z</time>
      </trkpt>
      <trkpt lat="46.84377" lon="0.49501">
        <ele>102.64</ele>
        <time>2023-06-08T08:51:13.360Z</time>
      </trkpt>
      <trkpt lat="46.84377" lon="0.49489">
        <ele>102.77</ele>
        <time>2023-06-08T08:51:27.624Z</time>
      </trkpt>
      <trkpt lat="46.84377" lon="0.49475">
        <ele>102.93</ele>
        <time>2023-06-08T08:51:41.890Z</time>
      </trkpt>
      <trkpt lat="46.84378" lon="0.49456">
        <ele>103.12</ele>
        <time>2023-06-08T08:51:56.158Z</time>
      </trkpt>
      <trkpt lat="46.8438" lon="0.49416">
        <ele>103.54</ele>
        <time>2023-06-08T08:52:10.430Z</time>
      </trkpt>
      <trkpt lat="46.8438" lon="0.49414">
        <ele>103.56</ele>
        <time>2023-06-08T08:52:24.702Z</time>
      </trkpt>
      <trkpt lat="46.84383" lon="0.49378">
        <ele>104</ele>
        <time>2023-06-08T08:52:38.978Z</time>
      </trkpt>
      <trkpt lat="46.84388" lon="0.49326">
        <ele>104.58</ele>
        <time>2023-06-08T08:52:53.260Z</time>
      </trkpt>
      <trkpt lat="46.84389" lon="0.49311">
        <ele>104.77</ele>
        <time>2023-06-08T08:53:07.544Z</time>
      </trkpt>
      <trkpt lat="46.84389" lon="0.49294">
        <ele>104.99</ele>
        <time>2023-06-08T08:53:21.830Z</time>
      </trkpt>
      <trkpt lat="46.84389" lon="0.4928">
        <ele>105.18</ele>
        <time>2023-06-08T08:53:36.117Z</time>
      </trkpt>
      <trkpt lat="46.8439" lon="0.49268">
        <ele>105.37</ele>
        <time>2023-06-08T08:53:50.406Z</time>
      </trkpt>
      <trkpt lat="46.84393" lon="0.49235">
        <ele>105.69</ele>
        <time>2023-06-08T08:54:04.698Z</time>
      </trkpt>
      <trkpt lat="46.84396" lon="0.49203">
        <ele>106.06</ele>
        <time>2023-06-08T08:54:18.994Z</time>
      </trkpt>
      <trkpt lat="46.84397" lon="0.49198">
        <ele>106.12</ele>
        <time>2023-06-08T08:54:33.290Z</time>
      </trkpt>
      <trkpt lat="46.84404" lon="0.49165">
        <ele>106.58</ele>
        <time>2023-06-08T08:54:47.590Z</time>
      </trkpt>
      <trkpt lat="46.84409" lon="0.49138">
        <ele>106.76</ele>
        <time>2023-06-08T08:55:01.893Z</time>
      </trkpt>
      <trkpt lat="46.84411" lon="0.49129">
        <ele>106.82</ele>
        <time>2023-06-08T08:55:16.197Z</time>
      </trkpt>
      <trkpt lat="46.84417" lon="0.49092">
        <ele>106.91</ele>
        <time>2023-06-08T08:55:30.505Z</time>
      </trkpt>
      <trkpt lat="46.8442" lon="0.49079">
        <ele>106.91</ele>
        <time>2023-06-08T08:55:44.815Z</time>
      </trkpt>
      <trkpt lat="46.8442" lon="0.49077">
        <ele>106.9</ele>
        <time>2023-06-08T08:55:59.125Z</time>
      </trkpt>
      <trkpt lat="46.84422" lon="0.49054">
        <ele>106.85</ele>
        <time>2023-06-08T08:56:13.438Z</time>
      </trkpt>
      <trkpt lat="46.84424" lon="0.49028">
        <ele>106.84</ele>
        <time>2023-06-08T08:56:27.753Z</time>
      </trkpt>
      <trkpt lat="46.84424" lon="0.49016">
        <ele>106.79</ele>
        <time>2023-06-08T08:56:42.070Z</time>
      </trkpt>
      <trkpt lat="46.84425" lon="0.49008">
        <ele>106.72</ele>
        <time>2023-06-08T08:56:56.388Z</time>
      </trkpt>
      <trkpt lat="46.84424" lon="0.48997">
        <ele>106.64</ele>
        <time>2023-06-08T08:57:10.707Z</time>
      </trkpt>
      <trkpt lat="46.84423" lon="0.48978">
        <ele>106.46</ele>
        <time>2023-06-08T08:57:25.028Z</time>
      </trkpt>
      <trkpt lat="46.84421" lon="0.48952">
        <ele>106.15</ele>
        <time>2023-06-08T08:57:39.352Z</time>
      </trkpt>
      <trkpt lat="46.8442" lon="0.48941">
        <ele>105.88</ele>
        <time>2023-06-08T08:57:53.677Z</time>
      </trkpt>
      <trkpt lat="46.84421" lon="0.48934">
        <ele>105.72</ele>
        <time>2023-06-08T08:58:08.003Z</time>
      </trkpt>
      <trkpt lat="46.84422" lon="0.48924">
        <ele>105.44</ele>
        <time>2023-06-08T08:58:22.330Z</time>
      </trkpt>
      <trkpt lat="46.84418" lon="0.48918">
        <ele>105.23</ele>
        <time>2023-06-08T08:58:36.658Z</time>
      </trkpt>
      <trkpt lat="46.84417" lon="0.48915">
        <ele>105.12</ele>
        <time>2023-06-08T08:58:50.986Z</time>
      </trkpt>
      <trkpt lat="46.84404" lon="0.48874">
        <ele>103.76</ele>
        <time>2023-06-08T08:59:05.319Z</time>
      </trkpt>
      <trkpt lat="46.84398" lon="0.48856">
        <ele>106.8</ele>
        <time>2023-06-08T08:59:19.654Z</time>
      </trkpt>
      <trkpt lat="46.84398" lon="0.48856">
        <ele>106.8</ele>
        <time>2023-06-08T08:59:33.989Z</time>
      </trkpt>
      <trkpt lat="46.84393" lon="0.48852">
        <ele>106.86</ele>
        <time>2023-06-08T08:59:48.325Z</time>
      </trkpt>
      <trkpt lat="46.84394" lon="0.48842">
        <ele>106.93</ele>
        <time>2023-06-08T09:00:02.662Z</time>
      </trkpt>
      <trkpt lat="46.84394" lon="0.48834">
        <ele>107</ele>
        <time>2023-06-08T09:00:17.000Z</time>
      </trkpt>
      <trkpt lat="46.84394" lon="0.48823">
        <ele>107.11</ele>
        <time>2023-06-08T09:00:31.340Z</time>
      </trkpt>
      <trkpt lat="46.84393" lon="0.4881">
        <ele>107.27</ele>
        <time>2023-06-08T09:00:45.681Z</time>
      </trkpt>
      <trkpt lat="46.84392" lon="0.48784">
        <ele>107.64</ele>
        <time>2023-06-08T09:01:00.025Z</time>
      </trkpt>
      <trkpt lat="46.84392" lon="0.48772">
        <ele>107.88</ele>
        <time>2023-06-08T09:01:14.370Z</time>
      </trkpt>
      <trkpt lat="46.84392" lon="0.48751">
        <ele>108.3</ele>
        <time>2023-06-08T09:01:28.717Z</time>
      </trkpt>
      <trkpt lat="46.84393" lon="0.48713">
        <ele>109.04</ele>
        <time>2023-06-08T09:01:43.069Z</time>
      </trkpt>
      <trkpt lat="46.84393" lon="0.48712">
        <ele>109.04</ele>
        <time>2023-06-08T09:01:57.421Z</time>
      </trkpt>
      <trkpt lat="46.84392" lon="0.48692">
        <ele>109.33</ele>
        <time>2023-06-08T09:02:11.775Z</time>
      </trkpt>
      <trkpt lat="46.8439" lon="0.48664">
        <ele>109.65</ele>
        <time>2023-06-08T09:02:26.132Z</time>
      </trkpt>
      <trkpt lat="46.84386" lon="0.48648">
        <ele>109.85</ele>
        <time>2023-06-08T09:02:40.491Z</time>
      </trkpt>
      <trkpt lat="46.8438" lon="0.48623">
        <ele>110.24</ele>
        <time>2023-06-08T09:02:54.853Z</time>
      </trkpt>
      <trkpt lat="46.84376" lon="0.48604">
        <ele>110.45</ele>
        <time>2023-06-08T09:03:09.217Z</time>
      </trkpt>
      <trkpt lat="46.84373" lon="0.48592">
        <ele>110.53</ele>
        <time>2023-06-08T09:03:23.582Z</time>
      </trkpt>
      <trkpt lat="46.84372" lon="0.48586">
        <ele>110.53</ele>
        <time>2023-06-08T09:03:37.948Z</time>
      </trkpt>
      <trkpt lat="46.84362" lon="0.48556">
        <ele>110.58</ele>
        <time>2023-06-08T09:03:52.318Z</time>
      </trkpt>
      <trkpt lat="46.84354" lon="0.48532">
        <ele>110.72</ele>
        <time>2023-06-08T09:04:06.691Z</time>
      </trkpt>
      <trkpt lat="46.84351" lon="0.48524">
        <ele>110.8</ele>
        <time>2023-06-08T09:04:21.065Z</time>
      </trkpt>
      <trkpt lat="46.8435" lon="0.48521">
        <ele>110.83</ele>
        <time>2023-06-08T09:04:35.439Z</time>
      </trkpt>
      <trkpt lat="46.84345" lon="0.4851">
        <ele>110.98</ele>
        <time>2023-06-08T09:04:49.815Z</time>
      </trkpt>
      <trkpt lat="46.84337" lon="0.48493">
        <ele>111.3</ele>
        <time>2023-06-08T09:05:04.193Z</time>
      </trkpt>
      <trkpt lat="46.8433" lon="0.48477">
        <ele>111.65</ele>
        <time>2023-06-08T09:05:18.573Z</time>
      </trkpt>
      <trkpt lat="46.84327" lon="0.4847">
        <ele>111.78</ele>
        <time>2023-06-08T09:05:32.954Z</time>
      </trkpt>
      <trkpt lat="46.84322" lon="0.48447">
        <ele>112.18</ele>
        <time>2023-06-08T09:05:47.337Z</time>
      </trkpt>
      <trkpt lat="46.84318" lon="0.48425">
        <ele>112.45</ele>
        <time>2023-06-08T09:06:01.723Z</time>
      </trkpt>
      <trkpt lat="46.84318" lon="0.48422">
        <ele>112.49</ele>
        <time>2023-06-08T09:06:16.109Z</time>
      </trkpt>
      <trkpt lat="46.84316" lon="0.48403">
        <ele>112.76</ele>
        <time>2023-06-08T09:06:30.497Z</time>
      </trkpt>
      <trkpt lat="46.84316" lon="0.48396">
        <ele>112.83</ele>
        <time>2023-06-08T09:06:44.886Z</time>
      </trkpt>
      <trkpt lat="46.84314" lon="0.48377">
        <ele>112.94</ele>
        <time>2023-06-08T09:06:59.277Z</time>
      </trkpt>
      <trkpt lat="46.84311" lon="0.48344">
        <ele>113.03</ele>
        <time>2023-06-08T09:07:13.672Z</time>
      </trkpt>
      <trkpt lat="46.84311" lon="0.48338">
        <ele>113.04</ele>
        <time>2023-06-08T09:07:28.068Z</time>
      </trkpt>
      <trkpt lat="46.8431" lon="0.48325">
        <ele>112.99</ele>
        <time>2023-06-08T09:07:42.465Z</time>
      </trkpt>
      <trkpt lat="46.84309" lon="0.48314">
        <ele>112.89</ele>
        <time>2023-06-08T09:07:56.863Z</time>
      </trkpt>
      <trkpt lat="46.84309" lon="0.48312">
        <ele>112.88</ele>
        <time>2023-06-08T09:08:11.261Z</time>
      </trkpt>
      <trkpt lat="46.84308" lon="0.48306">
        <ele>112.81</ele>
        <time>2023-06-08T09:08:25.660Z</time>
      </trkpt>
      <trkpt lat="46.84301" lon="0.48268">
        <ele>112.26</ele>
        <time>2023-06-08T09:08:40.063Z</time>
      </trkpt>
      <trkpt lat="46.84299" lon="0.48254">
        <ele>112.01</ele>
        <time>2023-06-08T09:08:54.468Z</time>
      </trkpt>
      <trkpt lat="46.84295" lon="0.48244">
        <ele>111.81</ele>
        <time>2023-06-08T09:09:08.874Z</time>
      </trkpt>
      <trkpt lat="46.84285" lon="0.48215">
        <ele>111.28</ele>
        <time>2023-06-08T09:09:23.284Z</time>
      </trkpt>
      <trkpt lat="46.84283" lon="0.48209">
        <ele>111.18</ele>
        <time>2023-06-08T09:09:37.695Z</time>
      </trkpt>
      <trkpt lat="46.84279" lon="0.48198">
        <ele>111.02</ele>
        <time>2023-06-08T09:09:52.107Z</time>
      </trkpt>
      <trkpt lat="46.84273" lon="0.4818">
        <ele>110.87</ele>
        <time>2023-06-08T09:10:06.521Z</time>
      </trkpt>
      <trkpt lat="46.84265" lon="0.48157">
        <ele>110.73</ele>
        <time>2023-06-08T09:10:20.938Z</time>
      </trkpt>
      <trkpt lat="46.84262" lon="0.48149">
        <ele>110.69</ele>
        <time>2023-06-08T09:10:35.356Z</time>
      </trkpt>
      <trkpt lat="46.8426" lon="0.48139">
        <ele>110.65</ele>
        <time>2023-06-08T09:10:49.775Z</time>
      </trkpt>
      <trkpt lat="46.84255" lon="0.48114">
        <ele>110.59</ele>
        <time>2023-06-08T09:11:04.197Z</time>
      </trkpt>
      <trkpt lat="46.84252" lon="0.48102">
        <ele>110.53</ele>
        <time>2023-06-08T09:11:18.620Z</time>
      </trkpt>
      <trkpt lat="46.84251" lon="0.48095">
        <ele>110.48</ele>
        <time>2023-06-08T09:11:33.044Z</time>
      </trkpt>
      <trkpt lat="46.84248" lon="0.48083">
        <ele>110.34</ele>
        <time>2023-06-08T09:11:47.470Z</time>
      </trkpt>
      <trkpt lat="46.84245" lon="0.48071">
        <ele>110.14</ele>
        <time>2023-06-08T09:12:01.897Z</time>
      </trkpt>
      <trkpt lat="46.84241" lon="0.48052">
        <ele>109.77</ele>
        <time>2023-06-08T09:12:16.326Z</time>
      </trkpt>
      <trkpt lat="46.84234" lon="0.48015">
        <ele>108.92</ele>
        <time>2023-06-08T09:12:30.759Z</time>
      </trkpt>
      <trkpt lat="46.84233" lon="0.48012">
        <ele>108.86</ele>
        <time>2023-06-08T09:12:45.193Z</time>
      </trkpt>
      <trkpt lat="46.84225" lon="0.47985">
        <ele>108.3</ele>
        <time>2023-06-08T09:12:59.630Z</time>
      </trkpt>
      <trkpt lat="46.8422" lon="0.47967">
        <ele>107.85</ele>
        <time>2023-06-08T09:13:14.069Z</time>
      </trkpt>
      <trkpt lat="46.84218" lon="0.47959">
        <ele>107.55</ele>
        <time>2023-06-08T09:13:28.509Z</time>
      </trkpt>
      <trkpt lat="46.84218" lon="0.47948">
        <ele>107.16</ele>
        <time>2023-06-08T09:13:42.950Z</time>
      </trkpt>
      <trkpt lat="46.84218" lon="0.47939">
        <ele>106.87</ele>
        <time>2023-06-08T09:13:57.392Z</time>
      </trkpt>
      <trkpt lat="46.84216" lon="0.47936">
        <ele>106.76</ele>
        <time>2023-06-08T09:14:11.835Z</time>
      </trkpt>
      <trkpt lat="46.84206" lon="0.47923">
        <ele>106.25</ele>
        <time>2023-06-08T09:14:26.280Z</time>
      </trkpt>
      <trkpt lat="46.84206" lon="0.47923">
        <ele>106.25</ele>
        <time>2023-06-08T09:14:40.725Z</time>
      </trkpt>
      <trkpt lat="46.84199" lon="0.47908">
        <ele>105.84</ele>
        <time>2023-06-08T09:14:55.172Z</time>
      </trkpt>
      <trkpt lat="46.84195" lon="0.47901">
        <ele>105.69</ele>
        <time>2023-06-08T09:15:09.620Z</time>
      </trkpt>
      <trkpt lat="46.84192" lon="0.47892">
        <ele>105.52</ele>
        <time>2023-06-08T09:15:24.069Z</time>
      </trkpt>
      <trkpt lat="46.84187" lon="0.47881">
        <ele>105.37</ele>
        <time>2023-06-08T09:15:38.519Z</time>
      </trkpt>
      <trkpt lat="46.84183" lon="0.4787">
        <ele>105.27</ele>
        <time>2023-06-08T09:15:52.971Z</time>
      </trkpt>
      <trkpt lat="46.84173" lon="0.47842">
        <ele>105.15</ele>
        <time>2023-06-08T09:16:07.426Z</time>
      </trkpt>
      <trkpt lat="46.84169" lon="0.47831">
        <ele>105.13</ele>
        <time>2023-06-08T09:16:21.883Z</time>
      </trkpt>
      <trkpt lat="46.84165" lon="0.4782">
        <ele>105.15</ele>
        <time>2023-06-08T09:16:36.341Z</time>
      </trkpt>
      <trkpt lat="46.84156" lon="0.47799">
        <ele>105.24</ele>
        <time>2023-06-08T09:16:50.802Z</time>
      </trkpt>
      <trkpt lat="46.84155" lon="0.47795">
        <ele>105.27</ele>
        <time>2023-06-08T09:17:05.263Z</time>
      </trkpt>
      <trkpt lat="46.84152" lon="0.47781">
        <ele>105.4</ele>
        <time>2023-06-08T09:17:19.726Z</time>
      </trkpt>
      <trkpt lat="46.8415" lon="0.47772">
        <ele>105.5</ele>
        <time>2023-06-08T09:17:34.190Z</time>
      </trkpt>
      <trkpt lat="46.8415" lon="0.47768">
        <ele>105.55</ele>
        <time>2023-06-08T09:17:48.654Z</time>
      </trkpt>
      <trkpt lat="46.84149" lon="0.47756">
        <ele>105.74</ele>
        <time>2023-06-08T09:18:03.119Z</time>
      </trkpt>
      <trkpt lat="46.84149" lon="0.47745">
        <ele>105.92</ele>
        <time>2023-06-08T09:18:17.586Z</time>
      </trkpt>
      <trkpt lat="46.84149" lon="0.47736">
        <ele>106.08</ele>
        <time>2023-06-08T09:18:32.054Z</time>
      </trkpt>
      <trkpt lat="46.8415" lon="0.47717">
        <ele>106.48</ele>
        <time>2023-06-08T09:18:46.524Z</time>
      </trkpt>
      <trkpt lat="46.8415" lon="0.47691">
        <ele>107.08</ele>
        <time>2023-06-08T09:19:00.997Z</time>
      </trkpt>
      <trkpt lat="46.84151" lon="0.47672">
        <ele>107.55</ele>
        <time>2023-06-08T09:19:15.472Z</time>
      </trkpt>
      <trkpt lat="46.84152" lon="0.47633">
        <ele>108.54</ele>
        <time>2023-06-08T09:19:29.951Z</time>
      </trkpt>
      <trkpt lat="46.84152" lon="0.47621">
        <ele>108.82</ele>
        <time>2023-06-08T09:19:44.431Z</time>
      </trkpt>
      <trkpt lat="46.84153" lon="0.47601">
        <ele>109.16</ele>
        <time>2023-06-08T09:19:58.913Z</time>
      </trkpt>
      <trkpt lat="46.84153" lon="0.47576">
        <ele>109.73</ele>
        <time>2023-06-08T09:20:13.398Z</time>
      </trkpt>
      <trkpt lat="46.84154" lon="0.47564">
        <ele>109.99</ele>
        <time>2023-06-08T09:20:27.885Z</time>
      </trkpt>
      <trkpt lat="46.84155" lon="0.47507">
        <ele>111.04</ele>
        <time>2023-06-08T09:20:42.378Z</time>
      </trkpt>
      <trkpt lat="46.84156" lon="0.47489">
        <ele>111.37</ele>
        <time>2023-06-08T09:20:56.873Z</time>
      </trkpt>
      <trkpt lat="46.84156" lon="0.47482">
        <ele>111.4</ele>
        <time>2023-06-08T09:21:11.369Z</time>
      </trkpt>
      <trkpt lat="46.84156" lon="0.47478">
        <ele>111.43</ele>
        <time>2023-06-08T09:21:25.865Z</time>
      </trkpt>
      <trkpt lat="46.84154" lon="0.47449">
        <ele>113.49</ele>
        <time>2023-06-08T09:21:40.364Z</time>
      </trkpt>
      <trkpt lat="46.8416" lon="0.47443">
        <ele>114.2</ele>
        <time>2023-06-08T09:21:54.864Z</time>
      </trkpt>
      <trkpt lat="46.84163" lon="0.4744">
        <ele>114.7</ele>
        <time>2023-06-08T09:22:09.365Z</time>
      </trkpt>
      <trkpt lat="46.84167" lon="0.47436">
        <ele>115.23</ele>
        <time>2023-06-08T09:22:23.867Z</time>
      </trkpt>
      <trkpt lat="46.84174" lon="0.47429">
        <ele>116.4</ele>
        <time>2023-06-08T09:22:38.370Z</time>
      </trkpt>
      <trkpt lat="46.84178" lon="0.47425">
        <ele>116.98</ele>
        <time>2023-06-08T09:22:52.874Z</time>
      </trkpt>
      <trkpt lat="46.8419" lon="0.47416">
        <ele>118.83</ele>
        <time>2023-06-08T09:23:07.380Z</time>
      </trkpt>
      <trkpt lat="46.84196" lon="0.47411">
        <ele>119.77</ele>
        <time>2023-06-08T09:23:21.887Z</time>
      </trkpt>
      <trkpt lat="46.84202" lon="0.47407">
        <ele>120.74</ele>
        <time>2023-06-08T09:23:36.395Z</time>
      </trkpt>
      <trkpt lat="46.84215" lon="0.47401">
        <ele>122.73</ele>
        <time>2023-06-08T09:23:50.905Z</time>
      </trkpt>
      <trkpt lat="46.84216" lon="0.474">
        <ele>122.87</ele>
        <time>2023-06-08T09:24:05.416Z</time>
      </trkpt>
      <trkpt lat="46.84224" lon="0.47397">
        <ele>123.96</ele>
        <time>2023-06-08T09:24:19.928Z</time>
      </trkpt>
      <trkpt lat="46.84228" lon="0.47395">
        <ele>124.53</ele>
        <time>2023-06-08T09:24:34.441Z</time>
      </trkpt>
      <trkpt lat="46.84232" lon="0.47393">
        <ele>125.06</ele>
        <time>2023-06-08T09:24:48.954Z</time>
      </trkpt>
      <trkpt lat="46.84241" lon="0.47389">
        <ele>126.06</ele>
        <time>2023-06-08T09:25:03.469Z</time>
      </trkpt>
      <trkpt lat="46.84289" lon="0.47368">
        <ele>125.77</ele>
        <time>2023-06-08T09:25:17.992Z</time>
      </trkpt>
      <trkpt lat="46.8433" lon="0.47338">
        <ele>125.52</ele>
        <time>2023-06-08T09:25:32.522Z</time>
      </trkpt>
      <trkpt lat="46.84345" lon="0.47323">
        <ele>125.42</ele>
        <time>2023-06-08T09:25:47.055Z</time>
      </trkpt>
      <trkpt lat="46.84352" lon="0.47313">
        <ele>125.37</ele>
        <time>2023-06-08T09:26:01.590Z</time>
      </trkpt>
      <trkpt lat="46.84352" lon="0.47313">
        <ele>140.03</ele>
        <time>2023-06-08T09:26:16.125Z</time>
      </trkpt>
      <trkpt lat="46.84356" lon="0.47308">
        <ele>140.59</ele>
        <time>2023-06-08T09:26:30.660Z</time>
      </trkpt>
      <trkpt lat="46.8436" lon="0.47295">
        <ele>141.62</ele>
        <time>2023-06-08T09:26:45.197Z</time>
      </trkpt>
      <trkpt lat="46.8436" lon="0.47293">
        <ele>141.77</ele>
        <time>2023-06-08T09:26:59.734Z</time>
      </trkpt>
      <trkpt lat="46.8436" lon="0.47289">
        <ele>141.96</ele>
        <time>2023-06-08T09:27:14.272Z</time>
      </trkpt>
      <trkpt lat="46.84376" lon="0.47288">
        <ele>143.1</ele>
        <time>2023-06-08T09:27:28.812Z</time>
      </trkpt>
      <trkpt lat="46.84377" lon="0.47288">
        <ele>143.17</ele>
        <time>2023-06-08T09:27:43.352Z</time>
      </trkpt>
      <trkpt lat="46.84386" lon="0.47284">
        <ele>143.65</ele>
        <time>2023-06-08T09:27:57.894Z</time>
      </trkpt>
      <trkpt lat="46.84395" lon="0.47281">
        <ele>143.92</ele>
        <time>2023-06-08T09:28:12.437Z</time>
      </trkpt>
      <trkpt lat="46.84397" lon="0.47281">
        <ele>143.97</ele>
        <time>2023-06-08T09:28:26.981Z</time>
      </trkpt>
      <trkpt lat="46.84407" lon="0.47278">
        <ele>144.32</ele>
        <time>2023-06-08T09:28:41.526Z</time>
      </trkpt>
      <trkpt lat="46.84416" lon="0.47276">
        <ele>144.6</ele>
        <time>2023-06-08T09:28:56.073Z</time>
      </trkpt>
      <trkpt lat="46.84425" lon="0.47274">
        <ele>145.05</ele>
        <time>2023-06-08T09:29:10.621Z</time>
      </trkpt>
      <trkpt lat="46.84435" lon="0.47272">
        <ele>145.68</ele>
        <time>2023-06-08T09:29:25.171Z</time>
      </trkpt>
      <trkpt lat="46.84436" lon="0.47272">
        <ele>145.76</ele>
        <time>2023-06-08T09:29:39.721Z</time>
      </trkpt>
      <trkpt lat="46.84445" lon="0.47268">
        <ele>146.89</ele>
        <time>2023-06-08T09:29:54.273Z</time>
      </trkpt>
      <trkpt lat="46.84454" lon="0.47264">
        <ele>147.83</ele>
        <time>2023-06-08T09:30:08.826Z</time>
      </trkpt>
      <trkpt lat="46.84464" lon="0.47262">
        <ele>148.87</ele>
        <time>2023-06-08T09:30:23.381Z</time>
      </trkpt>
      <trkpt lat="46.84473" lon="0.4726">
        <ele>149.73</ele>
        <time>2023-06-08T09:30:37.937Z</time>
      </trkpt>
      <trkpt lat="46.84473" lon="0.4726">
        <ele>149.73</ele>
        <time>2023-06-08T09:30:52.493Z</time>
      </trkpt>
      <trkpt lat="46.84484" lon="0.4726">
        <ele>150.66</ele>
        <time>2023-06-08T09:31:07.051Z</time>
      </trkpt>
      <trkpt lat="46.84492" lon="0.4726">
        <ele>150.96</ele>
        <time>2023-06-08T09:31:21.610Z</time>
      </trkpt>
      <trkpt lat="46.84494" lon="0.47261">
        <ele>151.05</ele>
        <time>2023-06-08T09:31:36.169Z</time>
      </trkpt>
      <trkpt lat="46.84505" lon="0.47263">
        <ele>151.23</ele>
        <time>2023-06-08T09:31:50.730Z</time>
      </trkpt>
      <trkpt lat="46.84515" lon="0.47266">
        <ele>151.17</ele>
        <time>2023-06-08T09:32:05.293Z</time>
      </trkpt>
      <trkpt lat="46.84525" lon="0.47269">
        <ele>150.91</ele>
        <time>2023-06-08T09:32:19.857Z</time>
      </trkpt>
      <trkpt lat="46.84543" lon="0.47274">
        <ele>150.58</ele>
        <time>2023-06-08T09:32:34.424Z</time>
      </trkpt>
      <trkpt lat="46.84546" lon="0.47274">
        <ele>150.53</ele>
        <time>2023-06-08T09:32:48.992Z</time>
      </trkpt>
      <trkpt lat="46.84554" lon="0.47274">
        <ele>150.46</ele>
        <time>2023-06-08T09:33:03.561Z</time>
      </trkpt>
      <trkpt lat="46.84559" lon="0.47259">
        <ele>150.36</ele>
        <time>2023-06-08T09:33:18.132Z</time>
      </trkpt>
      <trkpt lat="46.84559" lon="0.47256">
        <ele>150.34</ele>
        <time>2023-06-08T09:33:32.703Z</time>
      </trkpt>
      <trkpt lat="46.8456" lon="0.47221">
        <ele>150.32</ele>
        <time>2023-06-08T09:33:47.278Z</time>
      </trkpt>
      <trkpt lat="46.84561" lon="0.47203">
        <ele>150.39</ele>
        <time>2023-06-08T09:34:01.855Z</time>
      </trkpt>
      <trkpt lat="46.84562" lon="0.47185">
        <ele>150.5</ele>
        <time>2023-06-08T09:34:16.434Z</time>
      </trkpt>
      <trkpt lat="46.84563" lon="0.47157">
        <ele>150.72</ele>
        <time>2023-06-08T09:34:31.016Z</time>
      </trkpt>
      <trkpt lat="46.84563" lon="0.47153">
        <ele>150.75</ele>
        <time>2023-06-08T09:34:45.599Z</time>
      </trkpt>
      <trkpt lat="46.84562" lon="0.47134">
        <ele>150.92</ele>
        <time>2023-06-08T09:35:00.184Z</time>
      </trkpt>
      <trkpt lat="46.84562" lon="0.47126">
        <ele>150.99</ele>
        <time>2023-06-08T09:35:14.770Z</time>
      </trkpt>
      <trkpt lat="46.84564" lon="0.47097">
        <ele>151.28</ele>
        <time>2023-06-08T09:35:29.359Z</time>
      </trkpt>
      <trkpt lat="46.84565" lon="0.47078">
        <ele>151.51</ele>
        <time>2023-06-08T09:35:43.950Z</time>
      </trkpt>
      <trkpt lat="46.84565" lon="0.47064">
        <ele>151.65</ele>
        <time>2023-06-08T09:35:58.542Z</time>
      </trkpt>
      <trkpt lat="46.84566" lon="0.4705">
        <ele>151.75</ele>
        <time>2023-06-08T09:36:13.136Z</time>
      </trkpt>
      <trkpt lat="46.84567" lon="0.47036">
        <ele>151.86</ele>
        <time>2023-06-08T09:36:27.732Z</time>
      </trkpt>
      <trkpt lat="46.84569" lon="0.47021">
        <ele>151.92</ele>
        <time>2023-06-08T09:36:42.329Z</time>
      </trkpt>
      <trkpt lat="46.84573" lon="0.46972">
        <ele>151.99</ele>
        <time>2023-06-08T09:36:56.932Z</time>
      </trkpt>
      <trkpt lat="46.84574" lon="0.46953">
        <ele>151.92</ele>
        <time>2023-06-08T09:37:11.537Z</time>
      </trkpt>
      <trkpt lat="46.84575" lon="0.46945">
        <ele>151.84</ele>
        <time>2023-06-08T09:37:26.143Z</time>
      </trkpt>
      <trkpt lat="46.84577" lon="0.46925">
        <ele>151.65</ele>
        <time>2023-06-08T09:37:40.751Z</time>
      </trkpt>
      <trkpt lat="46.84579" lon="0.46911">
        <ele>151.34</ele>
        <time>2023-06-08T09:37:55.360Z</time>
      </trkpt>
      <trkpt lat="46.8458" lon="0.46894">
        <ele>151.22</ele>
        <time>2023-06-08T09:38:09.971Z</time>
      </trkpt>
      <trkpt lat="46.84582" lon="0.46879">
        <ele>150.89</ele>
        <time>2023-06-08T09:38:24.584Z</time>
      </trkpt>
      <trkpt lat="46.84583" lon="0.46868">
        <ele>150.83</ele>
        <time>2023-06-08T09:38:39.198Z</time>
      </trkpt>
      <trkpt lat="46.84583" lon="0.46863">
        <ele>150.8</ele>
        <time>2023-06-08T09:38:53.813Z</time>
      </trkpt>
      <trkpt lat="46.84585" lon="0.46847">
        <ele>150.47</ele>
        <time>2023-06-08T09:39:08.429Z</time>
      </trkpt>
      <trkpt lat="46.84587" lon="0.46816">
        <ele>150.28</ele>
        <time>2023-06-08T09:39:23.049Z</time>
      </trkpt>
      <trkpt lat="46.84589" lon="0.46796">
        <ele>149.96</ele>
        <time>2023-06-08T09:39:37.671Z</time>
      </trkpt>
      <trkpt lat="46.8459" lon="0.46783">
        <ele>149.83</ele>
        <time>2023-06-08T09:39:52.295Z</time>
      </trkpt>
      <trkpt lat="46.84591" lon="0.46769">
        <ele>150.29</ele>
        <time>2023-06-08T09:40:06.920Z</time>
      </trkpt>
      <trkpt lat="46.84591" lon="0.46768">
        <ele>150.29</ele>
        <time>2023-06-08T09:40:21.545Z</time>
      </trkpt>
      <trkpt lat="46.8459" lon="0.46755">
        <ele>150.56</ele>
        <time>2023-06-08T09:40:36.172Z</time>
      </trkpt>
      <trkpt lat="46.84587" lon="0.46752">
        <ele>150.67</ele>
        <time>2023-06-08T09:40:50.799Z</time>
      </trkpt>
      <trkpt lat="46.84582" lon="0.46748">
        <ele>150.71</ele>
        <time>2023-06-08T09:41:05.427Z</time>
      </trkpt>
      <trkpt lat="46.84578" lon="0.46746">
        <ele>150.74</ele>
        <time>2023-06-08T09:41:20.056Z</time>
      </trkpt>
      <trkpt lat="46.84569" lon="0.46742">
        <ele>150.87</ele>
        <time>2023-06-08T09:41:34.686Z</time>
      </trkpt>
      <trkpt lat="46.8456" lon="0.46738">
        <ele>150.91</ele>
        <time>2023-06-08T09:41:49.318Z</time>
      </trkpt>
      <trkpt lat="46.84559" lon="0.46737">
        <ele>150.91</ele>
        <time>2023-06-08T09:42:03.950Z</time>
      </trkpt>
      <trkpt lat="46.8455" lon="0.4673">
        <ele>150.98</ele>
        <time>2023-06-08T09:42:18.584Z</time>
      </trkpt>
      <trkpt lat="46.84543" lon="0.46725">
        <ele>150.93</ele>
        <time>2023-06-08T09:42:33.219Z</time>
      </trkpt>
      <trkpt lat="46.8454" lon="0.46724">
        <ele>150.92</ele>
        <time>2023-06-08T09:42:47.854Z</time>
      </trkpt>
      <trkpt lat="46.84528" lon="0.46719">
        <ele>150.78</ele>
        <time>2023-06-08T09:43:02.491Z</time>
      </trkpt>
      <trkpt lat="46.84522" lon="0.46716">
        <ele>150.54</ele>
        <time>2023-06-08T09:43:17.129Z</time>
      </trkpt>
      <trkpt lat="46.84517" lon="0.46713">
        <ele>150.36</ele>
        <time>2023-06-08T09:43:31.768Z</time>
      </trkpt>
      <trkpt lat="46.84506" lon="0.46707">
        <ele>149.71</ele>
        <time>2023-06-08T09:43:46.409Z</time>
      </trkpt>
      <trkpt lat="46.84482" lon="0.46694">
        <ele>147.72</ele>
        <time>2023-06-08T09:44:01.054Z</time>
      </trkpt>
      <trkpt lat="46.84477" lon="0.46691">
        <ele>147.2</ele>
        <time>2023-06-08T09:44:15.700Z</time>
      </trkpt>
      <trkpt lat="46.84469" lon="0.46689">
        <ele>146.38</ele>
        <time>2023-06-08T09:44:30.347Z</time>
      </trkpt>
      <trkpt lat="46.84464" lon="0.46688">
        <ele>145.87</ele>
        <time>2023-06-08T09:44:44.995Z</time>
      </trkpt>
      <trkpt lat="46.84451" lon="0.4669">
        <ele>144.6</ele>
        <time>2023-06-08T09:44:59.645Z</time>
      </trkpt>
      <trkpt lat="46.84442" lon="0.46693">
        <ele>143.7</ele>
        <time>2023-06-08T09:45:14.297Z</time>
      </trkpt>
      <trkpt lat="46.84426" lon="0.46699">
        <ele>142.28</ele>
        <time>2023-06-08T09:45:28.951Z</time>
      </trkpt>
      <trkpt lat="46.84412" lon="0.46703">
        <ele>140.69</ele>
        <time>2023-06-08T09:45:43.608Z</time>
      </trkpt>
      <trkpt lat="46.84412" lon="0.46703">
        <ele>139.61</ele>
        <time>2023-06-08T09:45:58.265Z</time>
      </trkpt>
      <trkpt lat="46.84408" lon="0.46705">
        <ele>139.13</ele>
        <time>2023-06-08T09:46:12.922Z</time>
      </trkpt>
      <trkpt lat="46.84395" lon="0.46712">
        <ele>137.64</ele>
        <time>2023-06-08T09:46:27.582Z</time>
      </trkpt>
      <trkpt lat="46.84382" lon="0.4671">
        <ele>136.25</ele>
        <time>2023-06-08T09:46:42.244Z</time>
      </trkpt>
      <trkpt lat="46.84373" lon="0.46709">
        <ele>135.19</ele>
        <time>2023-06-08T09:46:56.907Z</time>
      </trkpt>
      <trkpt lat="46.84355" lon="0.46707">
        <ele>132.97</ele>
        <time>2023-06-08T09:47:11.573Z</time>
      </trkpt>
      <trkpt lat="46.84346" lon="0.46705">
        <ele>131.9</ele>
        <time>2023-06-08T09:47:26.240Z</time>
      </trkpt>
      <trkpt lat="46.84335" lon="0.46704">
        <ele>130.59</ele>
        <time>2023-06-08T09:47:40.909Z</time>
      </trkpt>
      <trkpt lat="46.84324" lon="0.467">
        <ele>129.3</ele>
        <time>2023-06-08T09:47:55.580Z</time>
      </trkpt>
      <trkpt lat="46.84316" lon="0.46696">
        <ele>128.35</ele>
        <time>2023-06-08T09:48:10.253Z</time>
      </trkpt>
      <trkpt lat="46.84311" lon="0.46694">
        <ele>127.92</ele>
        <time>2023-06-08T09:48:24.926Z</time>
      </trkpt>
      <trkpt lat="46.8431" lon="0.46694">
        <ele>127.8</ele>
        <time>2023-06-08T09:48:39.599Z</time>
      </trkpt>
      <trkpt lat="46.84302" lon="0.46692">
        <ele>127.1</ele>
        <time>2023-06-08T09:48:54.274Z</time>
      </trkpt>
      <trkpt lat="46.84289" lon="0.46688">
        <ele>125.96</ele>
        <time>2023-06-08T09:49:08.951Z</time>
      </trkpt>
      <trkpt lat="46.84281" lon="0.46685">
        <ele>125.27</ele>
        <time>2023-06-08T09:49:23.629Z</time>
      </trkpt>
      <trkpt lat="46.84272" lon="0.46683">
        <ele>124.52</ele>
        <time>2023-06-08T09:49:38.309Z</time>
      </trkpt>
      <trkpt lat="46.84263" lon="0.46681">
        <ele>123.85</ele>
        <time>2023-06-08T09:49:52.990Z</time>
      </trkpt>
      <trkpt lat="46.84249" lon="0.46679">
        <ele>122.9</ele>
        <time>2023-06-08T09:50:07.673Z</time>
      </trkpt>
      <trkpt lat="46.8424" lon="0.46677">
        <ele>122.18</ele>
        <time>2023-06-08T09:50:22.358Z</time>
      </trkpt>
      <trkpt lat="46.84236" lon="0.46676">
        <ele>121.77</ele>
        <time>2023-06-08T09:50:37.043Z</time>
      </trkpt>
      <trkpt lat="46.84232" lon="0.46675">
        <ele>121.32</ele>
        <time>2023-06-08T09:50:51.729Z</time>
      </trkpt>
      <trkpt lat="46.84223" lon="0.46673">
        <ele>120.34</ele>
        <time>2023-06-08T09:51:06.417Z</time>
      </trkpt>
      <trkpt lat="46.84205" lon="0.4667">
        <ele>118.53</ele>
        <time>2023-06-08T09:51:21.107Z</time>
      </trkpt>
      <trkpt lat="46.84192" lon="0.46667">
        <ele>117.12</ele>
        <time>2023-06-08T09:51:35.799Z</time>
      </trkpt>
      <trkpt lat="46.84184" lon="0.46665">
        <ele>116.13</ele>
        <time>2023-06-08T09:51:50.493Z</time>
      </trkpt>
      <trkpt lat="46.84175" lon="0.46664">
        <ele>115.03</ele>
        <time>2023-06-08T09:52:05.188Z</time>
      </trkpt>
      <trkpt lat="46.84171" lon="0.46663">
        <ele>114.45</ele>
        <time>2023-06-08T09:52:19.884Z</time>
      </trkpt>
      <trkpt lat="46.84162" lon="0.46661">
        <ele>113.18</ele>
        <time>2023-06-08T09:52:34.581Z</time>
      </trkpt>
      <trkpt lat="46.84141" lon="0.46657">
        <ele>109.78</ele>
        <time>2023-06-08T09:52:49.282Z</time>
      </trkpt>
      <trkpt lat="46.84132" lon="0.46655">
        <ele>108.44</ele>
        <time>2023-06-08T09:53:03.984Z</time>
      </trkpt>
      <trkpt lat="46.84128" lon="0.46655">
        <ele>107.81</ele>
        <time>2023-06-08T09:53:18.687Z</time>
      </trkpt>
      <trkpt lat="46.84123" lon="0.46654">
        <ele>107.17</ele>
        <time>2023-06-08T09:53:33.391Z</time>
      </trkpt>
      <trkpt lat="46.84119" lon="0.46654">
        <ele>106.58</ele>
        <time>2023-06-08T09:53:48.095Z</time>
      </trkpt>
      <trkpt lat="46.84115" lon="0.46654">
        <ele>106.04</ele>
        <time>2023-06-08T09:54:02.800Z</time>
      </trkpt>
      <trkpt lat="46.84115" lon="0.46654">
        <ele>106.04</ele>
        <time>2023-06-08T09:54:17.505Z</time>
      </trkpt>
      <trkpt lat="46.8411" lon="0.46655">
        <ele>105.59</ele>
        <time>2023-06-08T09:54:32.211Z</time>
      </trkpt>
      <trkpt lat="46.84106" lon="0.46655">
        <ele>105.23</ele>
        <time>2023-06-08T09:54:46.917Z</time>
      </trkpt>
      <trkpt lat="46.84102" lon="0.46656">
        <ele>104.95</ele>
        <time>2023-06-08T09:55:01.624Z</time>
      </trkpt>
      <trkpt lat="46.84097" lon="0.46656">
        <ele>104.76</ele>
        <time>2023-06-08T09:55:16.332Z</time>
      </trkpt>
      <trkpt lat="46.84093" lon="0.46657">
        <ele>104.62</ele>
        <time>2023-06-08T09:55:31.041Z</time>
      </trkpt>
      <trkpt lat="46.84086" lon="0.46658">
        <ele>103.75</ele>
        <time>2023-06-08T09:55:45.751Z</time>
      </trkpt>
      <trkpt lat="46.84074" lon="0.46656">
        <ele>102.27</ele>
        <time>2023-06-08T09:56:00.463Z</time>
      </trkpt>
      <trkpt lat="46.84071" lon="0.46658">
        <ele>101.92</ele>
        <time>2023-06-08T09:56:15.175Z</time>
      </trkpt>
      <trkpt lat="46.84066" lon="0.46662">
        <ele>101.2</ele>
        <time>2023-06-08T09:56:29.888Z</time>
      </trkpt>
      <trkpt lat="46.84063" lon="0.46662">
        <ele>100.91</ele>
        <time>2023-06-08T09:56:44.601Z</time>
      </trkpt>
      <trkpt lat="46.84059" lon="0.46663">
        <ele>100.43</ele>
        <time>2023-06-08T09:56:59.315Z</time>
      </trkpt>
      <trkpt lat="46.84054" lon="0.46663">
        <ele>99.98</ele>
        <time>2023-06-08T09:57:14.030Z</time>
      </trkpt>
      <trkpt lat="46.84054" lon="0.46663">
        <ele>99.98</ele>
        <time>2023-06-08T09:57:28.745Z</time>
      </trkpt>
      <trkpt lat="46.8405" lon="0.46662">
        <ele>99.57</ele>
        <time>2023-06-08T09:57:43.461Z</time>
      </trkpt>
      <trkpt lat="46.8404" lon="0.4666">
        <ele>98.64</ele>
        <time>2023-06-08T09:57:58.178Z</time>
      </trkpt>
      <trkpt lat="46.84033" lon="0.46657">
        <ele>98.01</ele>
        <time>2023-06-08T09:58:12.896Z</time>
      </trkpt>
      <trkpt lat="46.84025" lon="0.46653">
        <ele>97.31</ele>
        <time>2023-06-08T09:58:27.616Z</time>
      </trkpt>
      <trkpt lat="46.84017" lon="0.46648">
        <ele>96.65</ele>
        <time>2023-06-08T09:58:42.337Z</time>
      </trkpt>
      <trkpt lat="46.84012" lon="0.46646">
        <ele>96.35</ele>
        <time>2023-06-08T09:58:57.059Z</time>
      </trkpt>
      <trkpt lat="46.84004" lon="0.46642">
        <ele>95.81</ele>
        <time>2023-06-08T09:59:11.782Z</time>
      </trkpt>
      <trkpt lat="46.83996" lon="0.46638">
        <ele>95.36</ele>
        <time>2023-06-08T09:59:26.507Z</time>
      </trkpt>
      <trkpt lat="46.83971" lon="0.46626">
        <ele>94.12</ele>
        <time>2023-06-08T09:59:41.236Z</time>
      </trkpt>
      <trkpt lat="46.83954" lon="0.46618">
        <ele>94.17</ele>
        <time>2023-06-08T09:59:55.968Z</time>
      </trkpt>
      <trkpt lat="46.83953" lon="0.46617">
        <ele>94.17</ele>
        <time>2023-06-08T10:00:10.700Z</time>
      </trkpt>
      <trkpt lat="46.83947" lon="0.46609">
        <ele>94.22</ele>
        <time>2023-06-08T10:00:25.433Z</time>
      </trkpt>
      <trkpt lat="46.83937" lon="0.46596">
        <ele>94.34</ele>
        <time>2023-06-08T10:00:40.168Z</time>
      </trkpt>
      <trkpt lat="46.83928" lon="0.46583">
        <ele>94.49</ele>
        <time>2023-06-08T10:00:54.905Z</time>
      </trkpt>
      <trkpt lat="46.83921" lon="0.46574">
        <ele>94.63</ele>
        <time>2023-06-08T10:01:09.644Z</time>
      </trkpt>
      <trkpt lat="46.83914" lon="0.46566">
        <ele>94.8</ele>
        <time>2023-06-08T10:01:24.384Z</time>
      </trkpt>
      <trkpt lat="46.83908" lon="0.46557">
        <ele>95.03</ele>
        <time>2023-06-08T10:01:39.126Z</time>
      </trkpt>
      <trkpt lat="46.83901" lon="0.46548">
        <ele>95.33</ele>
        <time>2023-06-08T10:01:53.869Z</time>
      </trkpt>
      <trkpt lat="46.83891" lon="0.46535">
        <ele>95.85</ele>
        <time>2023-06-08T10:02:08.614Z</time>
      </trkpt>
      <trkpt lat="46.83885" lon="0.46526">
        <ele>96.25</ele>
        <time>2023-06-08T10:02:23.361Z</time>
      </trkpt>
      <trkpt lat="46.83878" lon="0.46517">
        <ele>96.7</ele>
        <time>2023-06-08T10:02:38.109Z</time>
      </trkpt>
      <trkpt lat="46.83872" lon="0.46509">
        <ele>97.19</ele>
        <time>2023-06-08T10:02:52.859Z</time>
      </trkpt>
      <trkpt lat="46.83865" lon="0.465">
        <ele>97.71</ele>
        <time>2023-06-08T10:03:07.610Z</time>
      </trkpt>
      <trkpt lat="46.83842" lon="0.46469">
        <ele>99.6</ele>
        <time>2023-06-08T10:03:22.366Z</time>
      </trkpt>
      <trkpt lat="46.83836" lon="0.4646">
        <ele>100.1</ele>
        <time>2023-06-08T10:03:37.123Z</time>
      </trkpt>
      <trkpt lat="46.83826" lon="0.46447">
        <ele>100.81</ele>
        <time>2023-06-08T10:03:51.883Z</time>
      </trkpt>
      <trkpt lat="46.83812" lon="0.46429">
        <ele>100.94</ele>
        <time>2023-06-08T10:04:06.646Z</time>
      </trkpt>
      <trkpt lat="46.83815" lon="0.46426">
        <ele>100.97</ele>
        <time>2023-06-08T10:04:21.409Z</time>
      </trkpt>
      <trkpt lat="46.83822" lon="0.46417">
        <ele>101.06</ele>
        <time>2023-06-08T10:04:36.174Z</time>
      </trkpt>
      <trkpt lat="46.83826" lon="0.46416">
        <ele>101.11</ele>
        <time>2023-06-08T10:04:50.939Z</time>
      </trkpt>
      <trkpt lat="46.83834" lon="0.46413">
        <ele>101.18</ele>
        <time>2023-06-08T10:05:05.706Z</time>
      </trkpt>
      <trkpt lat="46.83846" lon="0.46404">
        <ele>101.3</ele>
        <time>2023-06-08T10:05:20.475Z</time>
      </trkpt>
      <trkpt lat="46.8385" lon="0.46399">
        <ele>101.35</ele>
        <time>2023-06-08T10:05:35.245Z</time>
      </trkpt>
      <trkpt lat="46.83857" lon="0.46391">
        <ele>101.38</ele>
        <time>2023-06-08T10:05:50.016Z</time>
      </trkpt>
      <trkpt lat="46.83871" lon="0.46374">
        <ele>101.36</ele>
        <time>2023-06-08T10:06:04.790Z</time>
      </trkpt>
      <trkpt lat="46.83877" lon="0.46365">
        <ele>101.38</ele>
        <time>2023-06-08T10:06:19.565Z</time>
      </trkpt>
      <trkpt lat="46.83884" lon="0.46357">
        <ele>101.45</ele>
        <time>2023-06-08T10:06:34.342Z</time>
      </trkpt>
      <trkpt lat="46.83891" lon="0.46349">
        <ele>101.6</ele>
        <time>2023-06-08T10:06:49.120Z</time>
      </trkpt>
      <trkpt lat="46.83894" lon="0.46344">
        <ele>101.7</ele>
        <time>2023-06-08T10:07:03.899Z</time>
      </trkpt>
      <trkpt lat="46.83898" lon="0.4634">
        <ele>101.82</ele>
        <time>2023-06-08T10:07:18.679Z</time>
      </trkpt>
      <trkpt lat="46.83903" lon="0.46329">
        <ele>102.05</ele>
        <time>2023-06-08T10:07:33.460Z</time>
      </trkpt>
      <trkpt lat="46.83906" lon="0.46322">
        <ele>102.19</ele>
        <time>2023-06-08T10:07:48.242Z</time>
      </trkpt>
      <trkpt lat="46.83911" lon="0.46292">
        <ele>102.71</ele>
        <time>2023-06-08T10:08:03.027Z</time>
      </trkpt>
      <trkpt lat="46.83913" lon="0.46279">
        <ele>102.96</ele>
        <time>2023-06-08T10:08:17.814Z</time>
      </trkpt>
      <trkpt lat="46.83914" lon="0.46273">
        <ele>103.07</ele>
        <time>2023-06-08T10:08:32.601Z</time>
      </trkpt>
      <trkpt lat="46.83918" lon="0.46254">
        <ele>103.47</ele>
        <time>2023-06-08T10:08:47.391Z</time>
      </trkpt>
      <trkpt lat="46.83919" lon="0.46248">
        <ele>103.57</ele>
        <time>2023-06-08T10:09:02.181Z</time>
      </trkpt>
      <trkpt lat="46.8392" lon="0.46242">
        <ele>103.64</ele>
        <time>2023-06-08T10:09:16.972Z</time>
      </trkpt>
      <trkpt lat="46.83924" lon="0.46223">
        <ele>103.77</ele>
        <time>2023-06-08T10:09:31.765Z</time>
      </trkpt>
      <trkpt lat="46.83925" lon="0.46217">
        <ele>103.83</ele>
        <time>2023-06-08T10:09:46.559Z</time>
      </trkpt>
      <trkpt lat="46.83928" lon="0.46204">
        <ele>103.99</ele>
        <time>2023-06-08T10:10:01.354Z</time>
      </trkpt>
      <trkpt lat="46.83933" lon="0.46179">
        <ele>104.37</ele>
        <time>2023-06-08T10:10:16.152Z</time>
      </trkpt>
      <trkpt lat="46.83935" lon="0.46166">
        <ele>104.62</ele>
        <time>2023-06-08T10:10:30.952Z</time>
      </trkpt>
      <trkpt lat="46.83938" lon="0.46154">
        <ele>104.95</ele>
        <time>2023-06-08T10:10:45.753Z</time>
      </trkpt>
      <trkpt lat="46.8394" lon="0.46141">
        <ele>105.36</ele>
        <time>2023-06-08T10:11:00.556Z</time>
      </trkpt>
      <trkpt lat="46.83941" lon="0.46135">
        <ele>105.6</ele>
        <time>2023-06-08T10:11:15.359Z</time>
      </trkpt>
      <trkpt lat="46.83943" lon="0.46129">
        <ele>105.87</ele>
        <time>2023-06-08T10:11:30.163Z</time>
      </trkpt>
      <trkpt lat="46.83945" lon="0.46116">
        <ele>106.48</ele>
        <time>2023-06-08T10:11:44.968Z</time>
      </trkpt>
      <trkpt lat="46.83946" lon="0.4611">
        <ele>106.78</ele>
        <time>2023-06-08T10:11:59.774Z</time>
      </trkpt>
      <trkpt lat="46.83949" lon="0.46084">
        <ele>107.85</ele>
        <time>2023-06-08T10:12:14.583Z</time>
      </trkpt>
      <trkpt lat="46.8395" lon="0.46077">
        <ele>108.16</ele>
        <time>2023-06-08T10:12:29.393Z</time>
      </trkpt>
      <trkpt lat="46.83948" lon="0.46052">
        <ele>109.27</ele>
        <time>2023-06-08T10:12:44.206Z</time>
      </trkpt>
      <trkpt lat="46.83946" lon="0.46026">
        <ele>110.28</ele>
        <time>2023-06-08T10:12:59.021Z</time>
      </trkpt>
      <trkpt lat="46.83945" lon="0.46006">
        <ele>111.07</ele>
        <time>2023-06-08T10:13:13.839Z</time>
      </trkpt>
      <trkpt lat="46.83945" lon="0.46">
        <ele>111.3</ele>
        <time>2023-06-08T10:13:28.657Z</time>
      </trkpt>
      <trkpt lat="46.83944" lon="0.45987">
        <ele>111.7</ele>
        <time>2023-06-08T10:13:43.477Z</time>
      </trkpt>
      <trkpt lat="46.83943" lon="0.45974">
        <ele>112.06</ele>
        <time>2023-06-08T10:13:58.298Z</time>
      </trkpt>
      <trkpt lat="46.83942" lon="0.45967">
        <ele>112.23</ele>
        <time>2023-06-08T10:14:13.120Z</time>
      </trkpt>
      <trkpt lat="46.83941" lon="0.45948">
        <ele>112.64</ele>
        <time>2023-06-08T10:14:27.944Z</time>
      </trkpt>
      <trkpt lat="46.8394" lon="0.45941">
        <ele>112.79</ele>
        <time>2023-06-08T10:14:42.769Z</time>
      </trkpt>
      <trkpt lat="46.83939" lon="0.45928">
        <ele>113.16</ele>
        <time>2023-06-08T10:14:57.595Z</time>
      </trkpt>
      <trkpt lat="46.83937" lon="0.45889">
        <ele>114.51</ele>
        <time>2023-06-08T10:15:12.426Z</time>
      </trkpt>
      <trkpt lat="46.83931" lon="0.45811">
        <ele>117.26</ele>
        <time>2023-06-08T10:15:27.265Z</time>
      </trkpt>
      <trkpt lat="46.83929" lon="0.45785">
        <ele>118.02</ele>
        <time>2023-06-08T10:15:42.107Z</time>
      </trkpt>
      <trkpt lat="46.83928" lon="0.45772">
        <ele>118.44</ele>
        <time>2023-06-08T10:15:56.950Z</time>
      </trkpt>
      <trkpt lat="46.83926" lon="0.45746">
        <ele>119.46</ele>
        <time>2023-06-08T10:16:11.796Z</time>
      </trkpt>
      <trkpt lat="46.83926" lon="0.45733">
        <ele>119.9</ele>
        <time>2023-06-08T10:16:26.644Z</time>
      </trkpt>
      <trkpt lat="46.83925" lon="0.4572">
        <ele>120.28</ele>
        <time>2023-06-08T10:16:41.493Z</time>
      </trkpt>
      <trkpt lat="46.83922" lon="0.45688">
        <ele>121.11</ele>
        <time>2023-06-08T10:16:56.346Z</time>
      </trkpt>
      <trkpt lat="46.83921" lon="0.45675">
        <ele>121.4</ele>
        <time>2023-06-08T10:17:11.200Z</time>
      </trkpt>
      <trkpt lat="46.8392" lon="0.45662">
        <ele>121.64</ele>
        <time>2023-06-08T10:17:26.056Z</time>
      </trkpt>
      <trkpt lat="46.8392" lon="0.45648">
        <ele>121.83</ele>
        <time>2023-06-08T10:17:40.913Z</time>
      </trkpt>
      <trkpt lat="46.83919" lon="0.45636">
        <ele>121.98</ele>
        <time>2023-06-08T10:17:55.772Z</time>
      </trkpt>
      <trkpt lat="46.83918" lon="0.45629">
        <ele>122.04</ele>
        <time>2023-06-08T10:18:10.631Z</time>
      </trkpt>
      <trkpt lat="46.83917" lon="0.45616">
        <ele>122.12</ele>
        <time>2023-06-08T10:18:25.492Z</time>
      </trkpt>
      <trkpt lat="46.83917" lon="0.4561">
        <ele>122.14</ele>
        <time>2023-06-08T10:18:40.353Z</time>
      </trkpt>
      <trkpt lat="46.83916" lon="0.45597">
        <ele>122.13</ele>
        <time>2023-06-08T10:18:55.216Z</time>
      </trkpt>
      <trkpt lat="46.83915" lon="0.45584">
        <ele>122.53</ele>
        <time>2023-06-08T10:19:10.080Z</time>
      </trkpt>
      <trkpt lat="46.83915" lon="0.45578">
        <ele>122.68</ele>
        <time>2023-06-08T10:19:24.945Z</time>
      </trkpt>
      <trkpt lat="46.83914" lon="0.45571">
        <ele>122.77</ele>
        <time>2023-06-08T10:19:39.811Z</time>
      </trkpt>
      <trkpt lat="46.83914" lon="0.4557">
        <ele>122.78</ele>
        <time>2023-06-08T10:19:54.677Z</time>
      </trkpt>
      <trkpt lat="46.83917" lon="0.45569">
        <ele>122.82</ele>
        <time>2023-06-08T10:20:09.543Z</time>
      </trkpt>
      <trkpt lat="46.83921" lon="0.45567">
        <ele>122.82</ele>
        <time>2023-06-08T10:20:24.410Z</time>
      </trkpt>
      <trkpt lat="46.83929" lon="0.45563">
        <ele>122.76</ele>
        <time>2023-06-08T10:20:39.278Z</time>
      </trkpt>
      <trkpt lat="46.83934" lon="0.45561">
        <ele>122.71</ele>
        <time>2023-06-08T10:20:54.147Z</time>
      </trkpt>
      <trkpt lat="46.83942" lon="0.45557">
        <ele>122.56</ele>
        <time>2023-06-08T10:21:09.017Z</time>
      </trkpt>
      <trkpt lat="46.8395" lon="0.45553">
        <ele>122.37</ele>
        <time>2023-06-08T10:21:23.889Z</time>
      </trkpt>
      <trkpt lat="46.83958" lon="0.4555">
        <ele>122.15</ele>
        <time>2023-06-08T10:21:38.762Z</time>
      </trkpt>
      <trkpt lat="46.83967" lon="0.45546">
        <ele>121.86</ele>
        <time>2023-06-08T10:21:53.637Z</time>
      </trkpt>
      <trkpt lat="46.83971" lon="0.45544">
        <ele>121.68</ele>
        <time>2023-06-08T10:22:08.512Z</time>
      </trkpt>
      <trkpt lat="46.83979" lon="0.4554">
        <ele>121.29</ele>
        <time>2023-06-08T10:22:23.389Z</time>
      </trkpt>
      <trkpt lat="46.83997" lon="0.45532">
        <ele>120.01</ele>
        <time>2023-06-08T10:22:38.269Z</time>
      </trkpt>
      <trkpt lat="46.83997" lon="0.45532">
        <ele>120.01</ele>
        <time>2023-06-08T10:22:53.149Z</time>
      </trkpt>
      <trkpt lat="46.84014" lon="0.45529">
        <ele>118.64</ele>
        <time>2023-06-08T10:23:08.031Z</time>
      </trkpt>
      <trkpt lat="46.84023" lon="0.45528">
        <ele>117.98</ele>
        <time>2023-06-08T10:23:22.915Z</time>
      </trkpt>
      <trkpt lat="46.84036" lon="0.45525">
        <ele>117.04</ele>
        <time>2023-06-08T10:23:37.801Z</time>
      </trkpt>
      <trkpt lat="46.84038" lon="0.45525">
        <ele>116.92</ele>
        <time>2023-06-08T10:23:52.687Z</time>
      </trkpt>
      <trkpt lat="46.84045" lon="0.45525">
        <ele>116.47</ele>
        <time>2023-06-08T10:24:07.574Z</time>
      </trkpt>
      <trkpt lat="46.84054" lon="0.45526">
        <ele>115.96</ele>
        <time>2023-06-08T10:24:22.463Z</time>
      </trkpt>
      <trkpt lat="46.84059" lon="0.45526">
        <ele>115.74</ele>
        <time>2023-06-08T10:24:37.353Z</time>
      </trkpt>
      <trkpt lat="46.84063" lon="0.45527">
        <ele>115.56</ele>
        <time>2023-06-08T10:24:52.243Z</time>
      </trkpt>
      <trkpt lat="46.84068" lon="0.45527">
        <ele>115.4</ele>
        <time>2023-06-08T10:25:07.134Z</time>
      </trkpt>
      <trkpt lat="46.84077" lon="0.45527">
        <ele>115.14</ele>
        <time>2023-06-08T10:25:22.027Z</time>
      </trkpt>
      <trkpt lat="46.84085" lon="0.45528">
        <ele>114.96</ele>
        <time>2023-06-08T10:25:36.921Z</time>
      </trkpt>
      <trkpt lat="46.84087" lon="0.45528">
        <ele>114.93</ele>
        <time>2023-06-08T10:25:51.815Z</time>
      </trkpt>
      <trkpt lat="46.84112" lon="0.45532">
        <ele>114.59</ele>
        <time>2023-06-08T10:26:06.713Z</time>
      </trkpt>
      <trkpt lat="46.84126" lon="0.45533">
        <ele>114.37</ele>
        <time>2023-06-08T10:26:21.613Z</time>
      </trkpt>
      <trkpt lat="46.84135" lon="0.45535">
        <ele>114.25</ele>
        <time>2023-06-08T10:26:36.515Z</time>
      </trkpt>
      <trkpt lat="46.84143" lon="0.45536">
        <ele>114.22</ele>
        <time>2023-06-08T10:26:51.418Z</time>
      </trkpt>
      <trkpt lat="46.84161" lon="0.45538">
        <ele>114.26</ele>
        <time>2023-06-08T10:27:06.324Z</time>
      </trkpt>
      <trkpt lat="46.84175" lon="0.4554">
        <ele>114.41</ele>
        <time>2023-06-08T10:27:21.232Z</time>
      </trkpt>
      <trkpt lat="46.84197" lon="0.45543">
        <ele>114.73</ele>
        <time>2023-06-08T10:27:36.144Z</time>
      </trkpt>
      <trkpt lat="46.84201" lon="0.45544">
        <ele>114.77</ele>
        <time>2023-06-08T10:27:51.057Z</time>
      </trkpt>
      <trkpt lat="46.8421" lon="0.45548">
        <ele>114.89</ele>
        <time>2023-06-08T10:28:05.971Z</time>
      </trkpt>
      <trkpt lat="46.84214" lon="0.45549">
        <ele>114.97</ele>
        <time>2023-06-08T10:28:20.886Z</time>
      </trkpt>
      <trkpt lat="46.84227" lon="0.45554">
        <ele>115.26</ele>
        <time>2023-06-08T10:28:35.803Z</time>
      </trkpt>
      <trkpt lat="46.84236" lon="0.45558">
        <ele>115.49</ele>
        <time>2023-06-08T10:28:50.721Z</time>
      </trkpt>
      <trkpt lat="46.84262" lon="0.45568">
        <ele>116.31</ele>
        <time>2023-06-08T10:29:05.644Z</time>
      </trkpt>
      <trkpt lat="46.84266" lon="0.4557">
        <ele>116.49</ele>
        <time>2023-06-08T10:29:20.567Z</time>
      </trkpt>
      <trkpt lat="46.84275" lon="0.45573">
        <ele>116.89</ele>
        <time>2023-06-08T10:29:35.492Z</time>
      </trkpt>
      <trkpt lat="46.84284" lon="0.45577">
        <ele>117.33</ele>
        <time>2023-06-08T10:29:50.418Z</time>
      </trkpt>
      <trkpt lat="46.84301" lon="0.45583">
        <ele>118.17</ele>
        <time>2023-06-08T10:30:05.347Z</time>
      </trkpt>
      <trkpt lat="46.8431" lon="0.45585">
        <ele>118.67</ele>
        <time>2023-06-08T10:30:20.278Z</time>
      </trkpt>
      <trkpt lat="46.84318" lon="0.45588">
        <ele>119.23</ele>
        <time>2023-06-08T10:30:35.210Z</time>
      </trkpt>
      <trkpt lat="46.84336" lon="0.4559">
        <ele>120.49</ele>
        <time>2023-06-08T10:30:50.145Z</time>
      </trkpt>
      <trkpt lat="46.84345" lon="0.45591">
        <ele>121.13</ele>
        <time>2023-06-08T10:31:05.081Z</time>
      </trkpt>
      <trkpt lat="46.84372" lon="0.45593">
        <ele>123.23</ele>
        <time>2023-06-08T10:31:20.022Z</time>
      </trkpt>
      <trkpt lat="46.8438" lon="0.45594">
        <ele>123.91</ele>
        <time>2023-06-08T10:31:34.964Z</time>
      </trkpt>
      <trkpt lat="46.84381" lon="0.45594">
        <ele>124.02</ele>
        <time>2023-06-08T10:31:49.906Z</time>
      </trkpt>
      <trkpt lat="46.8439" lon="0.45594">
        <ele>124.86</ele>
        <time>2023-06-08T10:32:04.849Z</time>
      </trkpt>
      <trkpt lat="46.84408" lon="0.45595">
        <ele>126.64</ele>
        <time>2023-06-08T10:32:19.795Z</time>
      </trkpt>
      <trkpt lat="46.84417" lon="0.45595">
        <ele>127.49</ele>
        <time>2023-06-08T10:32:34.743Z</time>
      </trkpt>
      <trkpt lat="46.84431" lon="0.45595">
        <ele>128.72</ele>
        <time>2023-06-08T10:32:49.693Z</time>
      </trkpt>
      <trkpt lat="46.84448" lon="0.45596">
        <ele>130.3</ele>
        <time>2023-06-08T10:33:04.646Z</time>
      </trkpt>
      <trkpt lat="46.84457" lon="0.45596">
        <ele>131.14</ele>
        <time>2023-06-08T10:33:19.600Z</time>
      </trkpt>
      <trkpt lat="46.84466" lon="0.45596">
        <ele>132.01</ele>
        <time>2023-06-08T10:33:34.556Z</time>
      </trkpt>
      <trkpt lat="46.84489" lon="0.45597">
        <ele>134.32</ele>
        <time>2023-06-08T10:33:49.515Z</time>
      </trkpt>
      <trkpt lat="46.84498" lon="0.45597">
        <ele>135.3</ele>
        <time>2023-06-08T10:34:04.476Z</time>
      </trkpt>
      <trkpt lat="46.84507" lon="0.45597">
        <ele>136.35</ele>
        <time>2023-06-08T10:34:19.438Z</time>
      </trkpt>
      <trkpt lat="46.84525" lon="0.45598">
        <ele>138.55</ele>
        <time>2023-06-08T10:34:34.403Z</time>
      </trkpt>
      <trkpt lat="46.84543" lon="0.45598">
        <ele>140.87</ele>
        <time>2023-06-08T10:34:49.371Z</time>
      </trkpt>
      <trkpt lat="46.84551" lon="0.45598">
        <ele>141.95</ele>
        <time>2023-06-08T10:35:04.340Z</time>
      </trkpt>
      <trkpt lat="46.84556" lon="0.45598">
        <ele>142.46</ele>
        <time>2023-06-08T10:35:19.310Z</time>
      </trkpt>
      <trkpt lat="46.84578" lon="0.45599">
        <ele>144.84</ele>
        <time>2023-06-08T10:35:34.284Z</time>
      </trkpt>
      <trkpt lat="46.84592" lon="0.45599">
        <ele>146.36</ele>
        <time>2023-06-08T10:35:49.260Z</time>
      </trkpt>
      <trkpt lat="46.84601" lon="0.456">
        <ele>147.32</ele>
        <time>2023-06-08T10:36:04.237Z</time>
      </trkpt>
      <trkpt lat="46.84605" lon="0.456">
        <ele>147.76</ele>
        <time>2023-06-08T10:36:19.215Z</time>
      </trkpt>
      <trkpt lat="46.84614" lon="0.456">
        <ele>148.58</ele>
        <time>2023-06-08T10:36:34.194Z</time>
      </trkpt>
      <trkpt lat="46.84619" lon="0.456">
        <ele>148.96</ele>
        <time>2023-06-08T10:36:49.174Z</time>
      </trkpt>
      <trkpt lat="46.84628" lon="0.456">
        <ele>149.63</ele>
        <time>2023-06-08T10:37:04.155Z</time>
      </trkpt>
      <trkpt lat="46.84632" lon="0.456">
        <ele>149.92</ele>
        <time>2023-06-08T10:37:19.137Z</time>
      </trkpt>
      <trkpt lat="46.84637" lon="0.456">
        <ele>150.18</ele>
        <time>2023-06-08T10:37:34.120Z</time>
      </trkpt>
      <trkpt lat="46.84664" lon="0.45601">
        <ele>151.61</ele>
        <time>2023-06-08T10:37:49.107Z</time>
      </trkpt>
      <trkpt lat="46.84673" lon="0.45601">
        <ele>152.03</ele>
        <time>2023-06-08T10:38:04.096Z</time>
      </trkpt>
      <trkpt lat="46.84677" lon="0.45601">
        <ele>152.2</ele>
        <time>2023-06-08T10:38:19.085Z</time>
      </trkpt>
      <trkpt lat="46.84681" lon="0.45602">
        <ele>152.34</ele>
        <time>2023-06-08T10:38:34.075Z</time>
      </trkpt>
      <trkpt lat="46.8469" lon="0.45602">
        <ele>152.56</ele>
        <time>2023-06-08T10:38:49.067Z</time>
      </trkpt>
      <trkpt lat="46.84699" lon="0.45602">
        <ele>152.71</ele>
        <time>2023-06-08T10:39:04.060Z</time>
      </trkpt>
      <trkpt lat="46.84708" lon="0.45602">
        <ele>152.82</ele>
        <time>2023-06-08T10:39:19.054Z</time>
      </trkpt>
      <trkpt lat="46.84722" lon="0.45603">
        <ele>152.96</ele>
        <time>2023-06-08T10:39:34.051Z</time>
      </trkpt>
      <trkpt lat="46.84731" lon="0.45603">
        <ele>153.03</ele>
        <time>2023-06-08T10:39:49.049Z</time>
      </trkpt>
      <trkpt lat="46.84753" lon="0.45603">
        <ele>153.11</ele>
        <time>2023-06-08T10:40:04.051Z</time>
      </trkpt>
      <trkpt lat="46.84771" lon="0.45604">
        <ele>153.27</ele>
        <time>2023-06-08T10:40:19.055Z</time>
      </trkpt>
      <trkpt lat="46.8478" lon="0.45604">
        <ele>153.31</ele>
        <time>2023-06-08T10:40:34.061Z</time>
      </trkpt>
      <trkpt lat="46.84789" lon="0.45604">
        <ele>153.31</ele>
        <time>2023-06-08T10:40:49.068Z</time>
      </trkpt>
      <trkpt lat="46.84798" lon="0.45605">
        <ele>153.27</ele>
        <time>2023-06-08T10:41:04.077Z</time>
      </trkpt>
      <trkpt lat="46.84817" lon="0.45605">
        <ele>153.86</ele>
        <time>2023-06-08T10:41:19.089Z</time>
      </trkpt>
      <trkpt lat="46.84815" lon="0.45601">
        <ele>153.97</ele>
        <time>2023-06-08T10:41:34.101Z</time>
      </trkpt>
      <trkpt lat="46.84802" lon="0.45567">
        <ele>154.91</ele>
        <time>2023-06-08T10:41:49.118Z</time>
      </trkpt>
      <trkpt lat="46.84795" lon="0.45551">
        <ele>155.31</ele>
        <time>2023-06-08T10:42:04.137Z</time>
      </trkpt>
      <trkpt lat="46.84792" lon="0.45538">
        <ele>155.62</ele>
        <time>2023-06-08T10:42:19.157Z</time>
      </trkpt>
      <trkpt lat="46.84786" lon="0.45506">
        <ele>156.39</ele>
        <time>2023-06-08T10:42:34.181Z</time>
      </trkpt>
      <trkpt lat="46.84783" lon="0.45494">
        <ele>156.65</ele>
        <time>2023-06-08T10:42:49.206Z</time>
      </trkpt>
      <trkpt lat="46.84783" lon="0.45494">
        <ele>156.65</ele>
        <time>2023-06-08T10:43:04.231Z</time>
      </trkpt>
      <trkpt lat="46.84777" lon="0.45455">
        <ele>157.36</ele>
        <time>2023-06-08T10:43:19.261Z</time>
      </trkpt>
      <trkpt lat="46.84776" lon="0.45442">
        <ele>157.57</ele>
        <time>2023-06-08T10:43:34.292Z</time>
      </trkpt>
      <trkpt lat="46.84775" lon="0.45439">
        <ele>157.61</ele>
        <time>2023-06-08T10:43:49.323Z</time>
      </trkpt>
      <trkpt lat="46.84774" lon="0.45429">
        <ele>157.73</ele>
        <time>2023-06-08T10:44:04.355Z</time>
      </trkpt>
      <trkpt lat="46.84771" lon="0.45404">
        <ele>157.98</ele>
        <time>2023-06-08T10:44:19.390Z</time>
      </trkpt>
      <trkpt lat="46.84768" lon="0.45365">
        <ele>158.25</ele>
        <time>2023-06-08T10:44:34.430Z</time>
      </trkpt>
      <trkpt lat="46.84766" lon="0.45348">
        <ele>158.39</ele>
        <time>2023-06-08T10:44:49.472Z</time>
      </trkpt>
      <trkpt lat="46.84761" lon="0.45324">
        <ele>158.61</ele>
        <time>2023-06-08T10:45:04.516Z</time>
      </trkpt>
      <trkpt lat="46.84752" lon="0.45308">
        <ele>158.79</ele>
        <time>2023-06-08T10:45:19.563Z</time>
      </trkpt>
      <trkpt lat="46.8474" lon="0.45263">
        <ele>159.21</ele>
        <time>2023-06-08T10:45:34.615Z</time>
      </trkpt>
      <trkpt lat="46.84735" lon="0.45244">
        <ele>159.33</ele>
        <time>2023-06-08T10:45:49.669Z</time>
      </trkpt>
      <trkpt lat="46.84732" lon="0.45232">
        <ele>159.36</ele>
        <time>2023-06-08T10:46:04.724Z</time>
      </trkpt>
      <trkpt lat="46.84728" lon="0.4522">
        <ele>159.34</ele>
        <time>2023-06-08T10:46:19.781Z</time>
      </trkpt>
      <trkpt lat="46.84717" lon="0.45177">
        <ele>159.16</ele>
        <time>2023-06-08T10:46:34.843Z</time>
      </trkpt>
      <trkpt lat="46.84709" lon="0.45147">
        <ele>159.07</ele>
        <time>2023-06-08T10:46:49.909Z</time>
      </trkpt>
      <trkpt lat="46.84704" lon="0.45128">
        <ele>158.98</ele>
        <time>2023-06-08T10:47:04.977Z</time>
      </trkpt>
      <trkpt lat="46.84699" lon="0.4511">
        <ele>158.98</ele>
        <time>2023-06-08T10:47:20.047Z</time>
      </trkpt>
      <trkpt lat="46.84697" lon="0.45102">
        <ele>158.99</ele>
        <time>2023-06-08T10:47:35.118Z</time>
      </trkpt>
      <trkpt lat="46.84694" lon="0.45092">
        <ele>159.01</ele>
        <time>2023-06-08T10:47:50.190Z</time>
      </trkpt>
      <trkpt lat="46.84677" lon="0.45031">
        <ele>159.21</ele>
        <time>2023-06-08T10:48:05.269Z</time>
      </trkpt>
      <trkpt lat="46.84663" lon="0.44983">
        <ele>159.49</ele>
        <time>2023-06-08T10:48:20.354Z</time>
      </trkpt>
      <trkpt lat="46.84641" lon="0.44904">
        <ele>159.79</ele>
        <time>2023-06-08T10:48:35.448Z</time>
      </trkpt>
      <trkpt lat="46.84639" lon="0.44897">
        <ele>159.8</ele>
        <time>2023-06-08T10:48:50.543Z</time>
      </trkpt>
      <trkpt lat="46.84638" lon="0.44892">
        <ele>159.81</ele>
        <time>2023-06-08T10:49:05.639Z</time>
      </trkpt>
      <trkpt lat="46.84634" lon="0.4486">
        <ele>159.77</ele>
        <time>2023-06-08T10:49:20.738Z</time>
      </trkpt>
      <trkpt lat="46.84633" lon="0.44848">
        <ele>159.76</ele>
        <time>2023-06-08T10:49:35.839Z</time>
      </trkpt>
      <trkpt lat="46.84623" lon="0.44804">
        <ele>159.74</ele>
        <time>2023-06-08T10:49:50.945Z</time>
      </trkpt>
      <trkpt lat="46.84622" lon="0.44799">
        <ele>159.74</ele>
        <time>2023-06-08T10:50:06.051Z</time>
      </trkpt>
      <trkpt lat="46.84611" lon="0.44761">
        <ele>159.76</ele>
        <time>2023-06-08T10:50:21.162Z</time>
      </trkpt>
      <trkpt lat="46.84608" lon="0.44749">
        <ele>159.78</ele>
        <time>2023-06-08T10:50:36.274Z</time>
      </trkpt>
      <trkpt lat="46.84604" lon="0.44737">
        <ele>159.85</ele>
        <time>2023-06-08T10:50:51.388Z</time>
      </trkpt>
      <trkpt lat="46.84601" lon="0.44725">
        <ele>159.97</ele>
        <time>2023-06-08T10:51:06.503Z</time>
      </trkpt>
      <trkpt lat="46.846" lon="0.44723">
        <ele>160</ele>
        <time>2023-06-08T10:51:21.618Z</time>
      </trkpt>
      <trkpt lat="46.84599" lon="0.44712">
        <ele>160.17</ele>
        <time>2023-06-08T10:51:36.735Z</time>
      </trkpt>
      <trkpt lat="46.84598" lon="0.44693">
        <ele>160.51</ele>
        <time>2023-06-08T10:51:51.854Z</time>
      </trkpt>
      <trkpt lat="46.84597" lon="0.44667">
        <ele>160.67</ele>
        <time>2023-06-08T10:52:06.976Z</time>
      </trkpt>
      <trkpt lat="46.84597" lon="0.44665">
        <ele>160.68</ele>
        <time>2023-06-08T10:52:22.098Z</time>
      </trkpt>
      <trkpt lat="46.84598" lon="0.44641">
        <ele>160.89</ele>
        <time>2023-06-08T10:52:37.222Z</time>
      </trkpt>
      <trkpt lat="46.84599" lon="0.44595">
        <ele>161.24</ele>
        <time>2023-06-08T10:52:52.351Z</time>
      </trkpt>
      <trkpt lat="46.846" lon="0.44582">
        <ele>161.32</ele>
        <time>2023-06-08T10:53:07.482Z</time>
      </trkpt>
      <trkpt lat="46.846" lon="0.44569">
        <ele>161.34</ele>
        <time>2023-06-08T10:53:22.614Z</time>
      </trkpt>
      <trkpt lat="46.84599" lon="0.44556">
        <ele>161.38</ele>
        <time>2023-06-08T10:53:37.748Z</time>
      </trkpt>
      <trkpt lat="46.84598" lon="0.44536">
        <ele>161.36</ele>
        <time>2023-06-08T10:53:52.884Z</time>
      </trkpt>
      <trkpt lat="46.84598" lon="0.44532">
        <ele>161.35</ele>
        <time>2023-06-08T10:54:08.020Z</time>
      </trkpt>
      <trkpt lat="46.84582" lon="0.44476">
        <ele>161.21</ele>
        <time>2023-06-08T10:54:23.163Z</time>
      </trkpt>
      <trkpt lat="46.84568" lon="0.44428">
        <ele>161.23</ele>
        <time>2023-06-08T10:54:38.312Z</time>
      </trkpt>
      <trkpt lat="46.84564" lon="0.44416">
        <ele>161.2</ele>
        <time>2023-06-08T10:54:53.462Z</time>
      </trkpt>
      <trkpt lat="46.84559" lon="0.44397">
        <ele>161.11</ele>
        <time>2023-06-08T10:55:08.614Z</time>
      </trkpt>
      <trkpt lat="46.84557" lon="0.44391">
        <ele>161.04</ele>
        <time>2023-06-08T10:55:23.767Z</time>
      </trkpt>
      <trkpt lat="46.84557" lon="0.44391">
        <ele>161.04</ele>
        <time>2023-06-08T10:55:38.920Z</time>
      </trkpt>
      <trkpt lat="46.84554" lon="0.44386">
        <ele>160.95</ele>
        <time>2023-06-08T10:55:54.074Z</time>
      </trkpt>
      <trkpt lat="46.84552" lon="0.44381">
        <ele>160.8</ele>
        <time>2023-06-08T10:56:09.229Z</time>
      </trkpt>
      <trkpt lat="46.84543" lon="0.44366">
        <ele>160.18</ele>
        <time>2023-06-08T10:56:24.386Z</time>
      </trkpt>
      <trkpt lat="46.84541" lon="0.44361">
        <ele>160.03</ele>
        <time>2023-06-08T10:56:39.543Z</time>
      </trkpt>
      <trkpt lat="46.84538" lon="0.44355">
        <ele>159.99</ele>
        <time>2023-06-08T10:56:54.701Z</time>
      </trkpt>
      <trkpt lat="46.84535" lon="0.4435">
        <ele>160.02</ele>
        <time>2023-06-08T10:57:09.860Z</time>
      </trkpt>
      <trkpt lat="46.8453" lon="0.4434">
        <ele>160.12</ele>
        <time>2023-06-08T10:57:25.020Z</time>
      </trkpt>
      <trkpt lat="46.84527" lon="0.44335">
        <ele>160.13</ele>
        <time>2023-06-08T10:57:40.181Z</time>
      </trkpt>
      <trkpt lat="46.84524" lon="0.4433">
        <ele>160.09</ele>
        <time>2023-06-08T10:57:55.343Z</time>
      </trkpt>
      <trkpt lat="46.84521" lon="0.44325">
        <ele>160.01</ele>
        <time>2023-06-08T10:58:10.505Z</time>
      </trkpt>
      <trkpt lat="46.84516" lon="0.44314">
        <ele>159.8</ele>
        <time>2023-06-08T10:58:25.669Z</time>
      </trkpt>
      <trkpt lat="46.84502" lon="0.44289">
        <ele>159.15</ele>
        <time>2023-06-08T10:58:40.836Z</time>
      </trkpt>
      <trkpt lat="46.84488" lon="0.44263">
        <ele>158.56</ele>
        <time>2023-06-08T10:58:56.007Z</time>
      </trkpt>
      <trkpt lat="46.8448" lon="0.44247">
        <ele>158.27</ele>
        <time>2023-06-08T10:59:11.180Z</time>
      </trkpt>
      <trkpt lat="46.84472" lon="0.44232">
        <ele>158.06</ele>
        <time>2023-06-08T10:59:26.355Z</time>
      </trkpt>
      <trkpt lat="46.84466" lon="0.44222">
        <ele>157.95</ele>
        <time>2023-06-08T10:59:41.532Z</time>
      </trkpt>
      <trkpt lat="46.84458" lon="0.44206">
        <ele>157.86</ele>
        <time>2023-06-08T10:59:56.711Z</time>
      </trkpt>
      <trkpt lat="46.84444" lon="0.44181">
        <ele>157.81</ele>
        <time>2023-06-08T11:00:11.894Z</time>
      </trkpt>
      <trkpt lat="46.84439" lon="0.4417">
        <ele>157.88</ele>
        <time>2023-06-08T11:00:27.078Z</time>
      </trkpt>
      <trkpt lat="46.84436" lon="0.44165">
        <ele>157.94</ele>
        <time>2023-06-08T11:00:42.263Z</time>
      </trkpt>
      <trkpt lat="46.8443" lon="0.44155">
        <ele>158.11</ele>
        <time>2023-06-08T11:00:57.449Z</time>
      </trkpt>
      <trkpt lat="46.84416" lon="0.44129">
        <ele>158.6</ele>
        <time>2023-06-08T11:01:12.639Z</time>
      </trkpt>
      <trkpt lat="46.84408" lon="0.44114">
        <ele>158.92</ele>
        <time>2023-06-08T11:01:27.831Z</time>
      </trkpt>
      <trkpt lat="46.84392" lon="0.44083">
        <ele>159.69</ele>
        <time>2023-06-08T11:01:43.027Z</time>
      </trkpt>
      <trkpt lat="46.84378" lon="0.44057">
        <ele>160.28</ele>
        <time>2023-06-08T11:01:58.227Z</time>
      </trkpt>
      <trkpt lat="46.84374" lon="0.4405">
        <ele>160.4</ele>
        <time>2023-06-08T11:02:13.428Z</time>
      </trkpt>
      <trkpt lat="46.84369" lon="0.44042">
        <ele>160.55</ele>
        <time>2023-06-08T11:02:28.630Z</time>
      </trkpt>
      <trkpt lat="46.84354" lon="0.44018">
        <ele>160.89</ele>
        <time>2023-06-08T11:02:43.835Z</time>
      </trkpt>
      <trkpt lat="46.8434" lon="0.43993">
        <ele>161.31</ele>
        <time>2023-06-08T11:02:59.044Z</time>
      </trkpt>
      <trkpt lat="46.84334" lon="0.43983">
        <ele>161.5</ele>
        <time>2023-06-08T11:03:14.255Z</time>
      </trkpt>
      <trkpt lat="46.84325" lon="0.43969">
        <ele>161.85</ele>
        <time>2023-06-08T11:03:29.468Z</time>
      </trkpt>
      <trkpt lat="46.84322" lon="0.43964">
        <ele>161.86</ele>
        <time>2023-06-08T11:03:44.681Z</time>
      </trkpt>
      <trkpt lat="46.84316" lon="0.43955">
        <ele>162.03</ele>
        <time>2023-06-08T11:03:59.896Z</time>
      </trkpt>
      <trkpt lat="46.84313" lon="0.4395">
        <ele>162.09</ele>
        <time>2023-06-08T11:04:15.111Z</time>
      </trkpt>
      <trkpt lat="46.84312" lon="0.43948">
        <ele>162.1</ele>
        <time>2023-06-08T11:04:30.327Z</time>
      </trkpt>
      <trkpt lat="46.84334" lon="0.4393">
        <ele>162.39</ele>
        <time>2023-06-08T11:04:45.547Z</time>
      </trkpt>
      <trkpt lat="46.84341" lon="0.43924">
        <ele>162.56</ele>
        <time>2023-06-08T11:05:00.768Z</time>
      </trkpt>
      <trkpt lat="46.84358" lon="0.4391">
        <ele>163.11</ele>
        <time>2023-06-08T11:05:15.992Z</time>
      </trkpt>
      <trkpt lat="46.84369" lon="0.43903">
        <ele>163.47</ele>
        <time>2023-06-08T11:05:31.218Z</time>
      </trkpt>
      <trkpt lat="46.84385" lon="0.43893">
        <ele>164.05</ele>
        <time>2023-06-08T11:05:46.447Z</time>
      </trkpt>
      <trkpt lat="46.84394" lon="0.43888">
        <ele>164.32</ele>
        <time>2023-06-08T11:06:01.677Z</time>
      </trkpt>
      <trkpt lat="46.84402" lon="0.43883">
        <ele>164.56</ele>
        <time>2023-06-08T11:06:16.909Z</time>
      </trkpt>
      <trkpt lat="46.84406" lon="0.43881">
        <ele>164.66</ele>
        <time>2023-06-08T11:06:32.141Z</time>
      </trkpt>
      <trkpt lat="46.84419" lon="0.43873">
        <ele>164.93</ele>
        <time>2023-06-08T11:06:47.376Z</time>
      </trkpt>
      <trkpt lat="46.84434" lon="0.43862">
        <ele>165.26</ele>
        <time>2023-06-08T11:07:02.613Z</time>
      </trkpt>
      <trkpt lat="46.8445" lon="0.43851">
        <ele>165.58</ele>
        <time>2023-06-08T11:07:17.853Z</time>
      </trkpt>
      <trkpt lat="46.84451" lon="0.4385">
        <ele>165.59</ele>
        <time>2023-06-08T11:07:33.093Z</time>
      </trkpt>
      <trkpt lat="46.84461" lon="0.43839">
        <ele>165.78</ele>
        <time>2023-06-08T11:07:48.335Z</time>
      </trkpt>
      <trkpt lat="46.84475" lon="0.43824">
        <ele>166.09</ele>
        <time>2023-06-08T11:08:03.580Z</time>
      </trkpt>
      <trkpt lat="46.84489" lon="0.4381">
        <ele>166.31</ele>
        <time>2023-06-08T11:08:18.828Z</time>
      </trkpt>
      <trkpt lat="46.84497" lon="0.43803">
        <ele>166.44</ele>
        <time>2023-06-08T11:08:34.078Z</time>
      </trkpt>
      <trkpt lat="46.84514" lon="0.43788">
        <ele>166.64</ele>
        <time>2023-06-08T11:08:49.331Z</time>
      </trkpt>
      <trkpt lat="46.84516" lon="0.43785">
        <ele>166.68</ele>
        <time>2023-06-08T11:09:04.584Z</time>
      </trkpt>
      <trkpt lat="46.84524" lon="0.43778">
        <ele>166.8</ele>
        <time>2023-06-08T11:09:19.839Z</time>
      </trkpt>
      <trkpt lat="46.84531" lon="0.4377">
        <ele>166.89</ele>
        <time>2023-06-08T11:09:35.095Z</time>
      </trkpt>
      <trkpt lat="46.84542" lon="0.43759">
        <ele>166.94</ele>
        <time>2023-06-08T11:09:50.353Z</time>
      </trkpt>
      <trkpt lat="46.8455" lon="0.43751">
        <ele>166.93</ele>
        <time>2023-06-08T11:10:05.613Z</time>
      </trkpt>
      <trkpt lat="46.84553" lon="0.43748">
        <ele>166.9</ele>
        <time>2023-06-08T11:10:20.873Z</time>
      </trkpt>
      <trkpt lat="46.84564" lon="0.43736">
        <ele>166.77</ele>
        <time>2023-06-08T11:10:36.135Z</time>
      </trkpt>
      <trkpt lat="46.84572" lon="0.43729">
        <ele>166.65</ele>
        <time>2023-06-08T11:10:51.399Z</time>
      </trkpt>
      <trkpt lat="46.84581" lon="0.43719">
        <ele>166.43</ele>
        <time>2023-06-08T11:11:06.665Z</time>
      </trkpt>
      <trkpt lat="46.84587" lon="0.43714">
        <ele>166.31</ele>
        <time>2023-06-08T11:11:21.932Z</time>
      </trkpt>
      <trkpt lat="46.84606" lon="0.43697">
        <ele>165.92</ele>
        <time>2023-06-08T11:11:37.202Z</time>
      </trkpt>
      <trkpt lat="46.84621" lon="0.43683">
        <ele>165.69</ele>
        <time>2023-06-08T11:11:52.475Z</time>
      </trkpt>
      <trkpt lat="46.84636" lon="0.43669">
        <ele>165.4</ele>
        <time>2023-06-08T11:12:07.751Z</time>
      </trkpt>
      <trkpt lat="46.84655" lon="0.43652">
        <ele>165.18</ele>
        <time>2023-06-08T11:12:23.031Z</time>
      </trkpt>
      <trkpt lat="46.84659" lon="0.43649">
        <ele>165.12</ele>
        <time>2023-06-08T11:12:38.311Z</time>
      </trkpt>
      <trkpt lat="46.84671" lon="0.43639">
        <ele>164.85</ele>
        <time>2023-06-08T11:12:53.594Z</time>
      </trkpt>
      <trkpt lat="46.84677" lon="0.43633">
        <ele>164.74</ele>
        <time>2023-06-08T11:13:08.878Z</time>
      </trkpt>
      <trkpt lat="46.84678" lon="0.43631">
        <ele>164.72</ele>
        <time>2023-06-08T11:13:24.162Z</time>
      </trkpt>
      <trkpt lat="46.8469" lon="0.43611">
        <ele>164.59</ele>
        <time>2023-06-08T11:13:39.449Z</time>
      </trkpt>
      <trkpt lat="46.84696" lon="0.436">
        <ele>164.44</ele>
        <time>2023-06-08T11:13:54.738Z</time>
      </trkpt>
      <trkpt lat="46.84697" lon="0.43595">
        <ele>164.39</ele>
        <time>2023-06-08T11:14:10.027Z</time>
      </trkpt>
      <trkpt lat="46.847" lon="0.43583">
        <ele>164.3</ele>
        <time>2023-06-08T11:14:25.318Z</time>
      </trkpt>
      <trkpt lat="46.84704" lon="0.43565">
        <ele>164.22</ele>
        <time>2023-06-08T11:14:40.611Z</time>
      </trkpt>
      <trkpt lat="46.84709" lon="0.43518">
        <ele>164.04</ele>
        <time>2023-06-08T11:14:55.909Z</time>
      </trkpt>
      <trkpt lat="46.84711" lon="0.43499">
        <ele>163.99</ele>
        <time>2023-06-08T11:15:11.209Z</time>
      </trkpt>
      <trkpt lat="46.84711" lon="0.43494">
        <ele>164</ele>
        <time>2023-06-08T11:15:26.509Z</time>
      </trkpt>
      <trkpt lat="46.84712" lon="0.43486">
        <ele>164.02</ele>
        <time>2023-06-08T11:15:41.810Z</time>
      </trkpt>
      <trkpt lat="46.84714" lon="0.43479">
        <ele>164.06</ele>
        <time>2023-06-08T11:15:57.112Z</time>
      </trkpt>
      <trkpt lat="46.84719" lon="0.43448">
        <ele>164.43</ele>
        <time>2023-06-08T11:16:12.418Z</time>
      </trkpt>
      <trkpt lat="46.84721" lon="0.43438">
        <ele>164.49</ele>
        <time>2023-06-08T11:16:27.725Z</time>
      </trkpt>
      <trkpt lat="46.84733" lon="0.434">
        <ele>164.77</ele>
        <time>2023-06-08T11:16:43.036Z</time>
      </trkpt>
      <trkpt lat="46.84739" lon="0.43382">
        <ele>164.95</ele>
        <time>2023-06-08T11:16:58.350Z</time>
      </trkpt>
      <trkpt lat="46.84743" lon="0.4337">
        <ele>165.15</ele>
        <time>2023-06-08T11:17:13.665Z</time>
      </trkpt>
      <trkpt lat="46.84744" lon="0.43367">
        <ele>165.21</ele>
        <time>2023-06-08T11:17:28.980Z</time>
      </trkpt>
      <trkpt lat="46.84754" lon="0.43349">
        <ele>165.64</ele>
        <time>2023-06-08T11:17:44.298Z</time>
      </trkpt>
      <trkpt lat="46.84759" lon="0.43338">
        <ele>165.85</ele>
        <time>2023-06-08T11:17:59.617Z</time>
      </trkpt>
      <trkpt lat="46.84771" lon="0.43316">
        <ele>166.19</ele>
        <time>2023-06-08T11:18:14.940Z</time>
      </trkpt>
      <trkpt lat="46.84777" lon="0.4331">
        <ele>166.33</ele>
        <time>2023-06-08T11:18:30.264Z</time>
      </trkpt>
      <trkpt lat="46.84785" lon="0.43302">
        <ele>166.41</ele>
        <time>2023-06-08T11:18:45.589Z</time>
      </trkpt>
      <trkpt lat="46.84799" lon="0.43287">
        <ele>166.48</ele>
        <time>2023-06-08T11:19:00.917Z</time>
      </trkpt>
      <trkpt lat="46.8481" lon="0.43275">
        <ele>166.57</ele>
        <time>2023-06-08T11:19:16.247Z</time>
      </trkpt>
      <trkpt lat="46.84814" lon="0.43272">
        <ele>166.57</ele>
        <time>2023-06-08T11:19:31.578Z</time>
      </trkpt>
      <trkpt lat="46.84818" lon="0.43268">
        <ele>166.54</ele>
        <time>2023-06-08T11:19:46.910Z</time>
      </trkpt>
      <trkpt lat="46.8483" lon="0.43255">
        <ele>166.31</ele>
        <time>2023-06-08T11:20:02.244Z</time>
      </trkpt>
      <trkpt lat="46.84843" lon="0.43249">
        <ele>166.11</ele>
        <time>2023-06-08T11:20:17.580Z</time>
      </trkpt>
      <trkpt lat="46.84845" lon="0.43247">
        <ele>166.08</ele>
        <time>2023-06-08T11:20:32.917Z</time>
      </trkpt>
      <trkpt lat="46.84898" lon="0.43197">
        <ele>165.29</ele>
        <time>2023-06-08T11:20:48.264Z</time>
      </trkpt>
      <trkpt lat="46.84903" lon="0.43192">
        <ele>165.16</ele>
        <time>2023-06-08T11:21:03.612Z</time>
      </trkpt>
      <trkpt lat="46.8492" lon="0.43175">
        <ele>164.75</ele>
        <time>2023-06-08T11:21:18.963Z</time>
      </trkpt>
      <trkpt lat="46.84924" lon="0.43171">
        <ele>164.68</ele>
        <time>2023-06-08T11:21:34.315Z</time>
      </trkpt>
      <trkpt lat="46.84942" lon="0.43152">
        <ele>164.48</ele>
        <time>2023-06-08T11:21:49.670Z</time>
      </trkpt>
      <trkpt lat="46.84957" lon="0.43137">
        <ele>164.18</ele>
        <time>2023-06-08T11:22:05.028Z</time>
      </trkpt>
      <trkpt lat="46.84958" lon="0.43136">
        <ele>164.16</ele>
        <time>2023-06-08T11:22:20.387Z</time>
      </trkpt>
      <trkpt lat="46.84967" lon="0.43124">
        <ele>164.03</ele>
        <time>2023-06-08T11:22:35.747Z</time>
      </trkpt>
      <trkpt lat="46.84971" lon="0.4312">
        <ele>163.96</ele>
        <time>2023-06-08T11:22:51.108Z</time>
      </trkpt>
      <trkpt lat="46.84981" lon="0.43107">
        <ele>163.7</ele>
        <time>2023-06-08T11:23:06.471Z</time>
      </trkpt>
      <trkpt lat="46.84994" lon="0.43091">
        <ele>163.41</ele>
        <time>2023-06-08T11:23:21.837Z</time>
      </trkpt>
      <trkpt lat="46.84995" lon="0.4309">
        <ele>163.41</ele>
        <time>2023-06-08T11:23:37.203Z</time>
      </trkpt>
      <trkpt lat="46.85007" lon="0.43071">
        <ele>163.07</ele>
        <time>2023-06-08T11:23:52.572Z</time>
      </trkpt>
      <trkpt lat="46.85026" lon="0.4304">
        <ele>162.63</ele>
        <time>2023-06-08T11:24:07.946Z</time>
      </trkpt>
      <trkpt lat="46.85031" lon="0.43033">
        <ele>162.52</ele>
        <time>2023-06-08T11:24:23.321Z</time>
      </trkpt>
      <trkpt lat="46.85071" lon="0.42978">
        <ele>161.8</ele>
        <time>2023-06-08T11:24:38.705Z</time>
      </trkpt>
      <trkpt lat="46.85077" lon="0.42969">
        <ele>161.72</ele>
        <time>2023-06-08T11:24:54.090Z</time>
      </trkpt>
      <trkpt lat="46.85084" lon="0.42961">
        <ele>161.71</ele>
        <time>2023-06-08T11:25:09.476Z</time>
      </trkpt>
      <trkpt lat="46.8509" lon="0.42952">
        <ele>161.52</ele>
        <time>2023-06-08T11:25:24.864Z</time>
      </trkpt>
      <trkpt lat="46.85096" lon="0.42943">
        <ele>161.29</ele>
        <time>2023-06-08T11:25:40.253Z</time>
      </trkpt>
      <trkpt lat="46.85098" lon="0.42941">
        <ele>161.21</ele>
        <time>2023-06-08T11:25:55.643Z</time>
      </trkpt>
      <trkpt lat="46.85105" lon="0.42929">
        <ele>160.89</ele>
        <time>2023-06-08T11:26:11.034Z</time>
      </trkpt>
      <trkpt lat="46.85114" lon="0.42915">
        <ele>160.45</ele>
        <time>2023-06-08T11:26:26.427Z</time>
      </trkpt>
      <trkpt lat="46.85122" lon="0.42901">
        <ele>159.95</ele>
        <time>2023-06-08T11:26:41.822Z</time>
      </trkpt>
      <trkpt lat="46.8514" lon="0.42873">
        <ele>158.81</ele>
        <time>2023-06-08T11:26:57.222Z</time>
      </trkpt>
      <trkpt lat="46.85154" lon="0.42849">
        <ele>157.93</ele>
        <time>2023-06-08T11:27:12.625Z</time>
      </trkpt>
      <trkpt lat="46.85163" lon="0.42835">
        <ele>156.9</ele>
        <time>2023-06-08T11:27:28.030Z</time>
      </trkpt>
      <trkpt lat="46.85166" lon="0.4283">
        <ele>156.59</ele>
        <time>2023-06-08T11:27:43.436Z</time>
      </trkpt>
      <trkpt lat="46.85167" lon="0.42828">
        <ele>156.47</ele>
        <time>2023-06-08T11:27:58.842Z</time>
      </trkpt>
      <trkpt lat="46.85173" lon="0.42822">
        <ele>156.02</ele>
        <time>2023-06-08T11:28:14.249Z</time>
      </trkpt>
      <trkpt lat="46.85187" lon="0.42807">
        <ele>154.97</ele>
        <time>2023-06-08T11:28:29.659Z</time>
      </trkpt>
      <trkpt lat="46.85205" lon="0.42788">
        <ele>153.74</ele>
        <time>2023-06-08T11:28:45.073Z</time>
      </trkpt>
      <trkpt lat="46.85224" lon="0.42769">
        <ele>152.38</ele>
        <time>2023-06-08T11:29:00.490Z</time>
      </trkpt>
      <trkpt lat="46.85238" lon="0.42753">
        <ele>151.36</ele>
        <time>2023-06-08T11:29:15.910Z</time>
      </trkpt>
      <trkpt lat="46.85245" lon="0.42746">
        <ele>150.81</ele>
        <time>2023-06-08T11:29:31.332Z</time>
      </trkpt>
      <trkpt lat="46.85256" lon="0.42734">
        <ele>149.93</ele>
        <time>2023-06-08T11:29:46.756Z</time>
      </trkpt>
      <trkpt lat="46.8526" lon="0.4273">
        <ele>149.67</ele>
        <time>2023-06-08T11:30:02.180Z</time>
      </trkpt>
      <trkpt lat="46.85271" lon="0.42719">
        <ele>148.94</ele>
        <time>2023-06-08T11:30:17.607Z</time>
      </trkpt>
      <trkpt lat="46.85278" lon="0.42711">
        <ele>148.37</ele>
        <time>2023-06-08T11:30:33.035Z</time>
      </trkpt>
      <trkpt lat="46.85282" lon="0.42708">
        <ele>148.05</ele>
        <time>2023-06-08T11:30:48.464Z</time>
      </trkpt>
      <trkpt lat="46.85285" lon="0.42704">
        <ele>147.7</ele>
        <time>2023-06-08T11:31:03.893Z</time>
      </trkpt>
      <trkpt lat="46.85286" lon="0.42703">
        <ele>147.61</ele>
        <time>2023-06-08T11:31:19.323Z</time>
      </trkpt>
      <trkpt lat="46.85294" lon="0.42699">
        <ele>146.92</ele>
        <time>2023-06-08T11:31:34.754Z</time>
      </trkpt>
      <trkpt lat="46.85315" lon="0.42688">
        <ele>144.79</ele>
        <time>2023-06-08T11:31:50.188Z</time>
      </trkpt>
      <trkpt lat="46.85323" lon="0.42684">
        <ele>143.99</ele>
        <time>2023-06-08T11:32:05.624Z</time>
      </trkpt>
      <trkpt lat="46.85327" lon="0.42682">
        <ele>143.61</ele>
        <time>2023-06-08T11:32:21.061Z</time>
      </trkpt>
      <trkpt lat="46.85336" lon="0.42677">
        <ele>142.92</ele>
        <time>2023-06-08T11:32:36.499Z</time>
      </trkpt>
      <trkpt lat="46.85344" lon="0.42673">
        <ele>142.29</ele>
        <time>2023-06-08T11:32:51.938Z</time>
      </trkpt>
      <trkpt lat="46.85352" lon="0.42668">
        <ele>141.64</ele>
        <time>2023-06-08T11:33:07.379Z</time>
      </trkpt>
      <trkpt lat="46.85369" lon="0.4266">
        <ele>140.24</ele>
        <time>2023-06-08T11:33:22.823Z</time>
      </trkpt>
      <trkpt lat="46.85378" lon="0.42655">
        <ele>139.5</ele>
        <time>2023-06-08T11:33:38.268Z</time>
      </trkpt>
      <trkpt lat="46.8539" lon="0.42649">
        <ele>138.31</ele>
        <time>2023-06-08T11:33:53.715Z</time>
      </trkpt>
      <trkpt lat="46.85399" lon="0.42644">
        <ele>137.48</ele>
        <time>2023-06-08T11:34:09.164Z</time>
      </trkpt>
      <trkpt lat="46.85403" lon="0.42642">
        <ele>137.02</ele>
        <time>2023-06-08T11:34:24.613Z</time>
      </trkpt>
      <trkpt lat="46.85411" lon="0.42638">
        <ele>136.05</ele>
        <time>2023-06-08T11:34:40.064Z</time>
      </trkpt>
      <trkpt lat="46.8542" lon="0.42633">
        <ele>135.18</ele>
        <time>2023-06-08T11:34:55.516Z</time>
      </trkpt>
      <trkpt lat="46.85422" lon="0.42632">
        <ele>134.96</ele>
        <time>2023-06-08T11:35:10.969Z</time>
      </trkpt>
      <trkpt lat="46.85424" lon="0.42631">
        <ele>134.8</ele>
        <time>2023-06-08T11:35:26.422Z</time>
      </trkpt>
      <trkpt lat="46.85428" lon="0.42627">
        <ele>134.46</ele>
        <time>2023-06-08T11:35:41.876Z</time>
      </trkpt>
      <trkpt lat="46.85432" lon="0.42624">
        <ele>134.15</ele>
        <time>2023-06-08T11:35:57.330Z</time>
      </trkpt>
      <trkpt lat="46.85435" lon="0.42621">
        <ele>133.87</ele>
        <time>2023-06-08T11:36:12.785Z</time>
      </trkpt>
      <trkpt lat="46.85451" lon="0.42608">
        <ele>132.87</ele>
        <time>2023-06-08T11:36:28.243Z</time>
      </trkpt>
      <trkpt lat="46.8546" lon="0.42601">
        <ele>132.22</ele>
        <time>2023-06-08T11:36:43.703Z</time>
      </trkpt>
      <trkpt lat="46.85463" lon="0.42599">
        <ele>132.03</ele>
        <time>2023-06-08T11:36:59.163Z</time>
      </trkpt>
      <trkpt lat="46.8547" lon="0.42592">
        <ele>131.49</ele>
        <time>2023-06-08T11:37:14.625Z</time>
      </trkpt>
      <trkpt lat="46.85478" lon="0.42585">
        <ele>131.02</ele>
        <time>2023-06-08T11:37:30.088Z</time>
      </trkpt>
      <trkpt lat="46.85501" lon="0.42565">
        <ele>129.72</ele>
        <time>2023-06-08T11:37:45.555Z</time>
      </trkpt>
      <trkpt lat="46.85509" lon="0.42558">
        <ele>129.33</ele>
        <time>2023-06-08T11:38:01.024Z</time>
      </trkpt>
      <trkpt lat="46.8552" lon="0.42548">
        <ele>128.81</ele>
        <time>2023-06-08T11:38:16.495Z</time>
      </trkpt>
      <trkpt lat="46.85524" lon="0.42545">
        <ele>128.6</ele>
        <time>2023-06-08T11:38:31.967Z</time>
      </trkpt>
      <trkpt lat="46.85532" lon="0.42538">
        <ele>128.13</ele>
        <time>2023-06-08T11:38:47.440Z</time>
      </trkpt>
      <trkpt lat="46.85535" lon="0.42535">
        <ele>127.92</ele>
        <time>2023-06-08T11:39:02.914Z</time>
      </trkpt>
      <trkpt lat="46.85539" lon="0.42532">
        <ele>127.76</ele>
        <time>2023-06-08T11:39:18.389Z</time>
      </trkpt>
      <trkpt lat="46.85551" lon="0.42522">
        <ele>127.35</ele>
        <time>2023-06-08T11:39:33.866Z</time>
      </trkpt>
      <trkpt lat="46.85562" lon="0.42512">
        <ele>126.9</ele>
        <time>2023-06-08T11:39:49.345Z</time>
      </trkpt>
      <trkpt lat="46.85589" lon="0.42488">
        <ele>125.79</ele>
        <time>2023-06-08T11:40:04.829Z</time>
      </trkpt>
      <trkpt lat="46.85597" lon="0.42481">
        <ele>125.55</ele>
        <time>2023-06-08T11:40:20.314Z</time>
      </trkpt>
      <trkpt lat="46.8562" lon="0.42461">
        <ele>125.01</ele>
        <time>2023-06-08T11:40:35.804Z</time>
      </trkpt>
      <trkpt lat="46.85636" lon="0.42447">
        <ele>124.6</ele>
        <time>2023-06-08T11:40:51.297Z</time>
      </trkpt>
      <trkpt lat="46.85672" lon="0.42398">
        <ele>123.53</ele>
        <time>2023-06-08T11:41:06.797Z</time>
      </trkpt>
      <trkpt lat="46.85703" lon="0.42369">
        <ele>122.74</ele>
        <time>2023-06-08T11:41:22.303Z</time>
      </trkpt>
      <trkpt lat="46.85737" lon="0.42363">
        <ele>122</ele>
        <time>2023-06-08T11:41:37.815Z</time>
      </trkpt>
      <trkpt lat="46.85767" lon="0.42352">
        <ele>121.33</ele>
        <time>2023-06-08T11:41:53.332Z</time>
      </trkpt>
      <trkpt lat="46.85798" lon="0.42322">
        <ele>120.53</ele>
        <time>2023-06-08T11:42:08.855Z</time>
      </trkpt>
      <trkpt lat="46.85806" lon="0.42299">
        <ele>120.15</ele>
        <time>2023-06-08T11:42:24.381Z</time>
      </trkpt>
      <trkpt lat="46.85792" lon="0.42262">
        <ele>119.53</ele>
        <time>2023-06-08T11:42:39.911Z</time>
      </trkpt>
      <trkpt lat="46.85792" lon="0.42262">
        <ele>117.82</ele>
        <time>2023-06-08T11:42:55.441Z</time>
      </trkpt>
      <trkpt lat="46.85789" lon="0.42253">
        <ele>117.83</ele>
        <time>2023-06-08T11:43:10.972Z</time>
      </trkpt>
      <trkpt lat="46.85787" lon="0.42247">
        <ele>117.71</ele>
        <time>2023-06-08T11:43:26.504Z</time>
      </trkpt>
      <trkpt lat="46.85789" lon="0.42238">
        <ele>117.56</ele>
        <time>2023-06-08T11:43:42.037Z</time>
      </trkpt>
      <trkpt lat="46.8579" lon="0.42235">
        <ele>117.5</ele>
        <time>2023-06-08T11:43:57.570Z</time>
      </trkpt>
      <trkpt lat="46.85784" lon="0.42232">
        <ele>117.3</ele>
        <time>2023-06-08T11:44:13.104Z</time>
      </trkpt>
      <trkpt lat="46.85782" lon="0.42227">
        <ele>117.19</ele>
        <time>2023-06-08T11:44:28.639Z</time>
      </trkpt>
      <trkpt lat="46.85776" lon="0.42212">
        <ele>116.91</ele>
        <time>2023-06-08T11:44:44.176Z</time>
      </trkpt>
      <trkpt lat="46.8577" lon="0.42197">
        <ele>116.53</ele>
        <time>2023-06-08T11:44:59.715Z</time>
      </trkpt>
      <trkpt lat="46.85764" lon="0.42181">
        <ele>116.28</ele>
        <time>2023-06-08T11:45:15.256Z</time>
      </trkpt>
      <trkpt lat="46.85758" lon="0.42165">
        <ele>115.88</ele>
        <time>2023-06-08T11:45:30.799Z</time>
      </trkpt>
      <trkpt lat="46.85752" lon="0.42149">
        <ele>115.57</ele>
        <time>2023-06-08T11:45:46.344Z</time>
      </trkpt>
      <trkpt lat="46.85746" lon="0.42135">
        <ele>115.54</ele>
        <time>2023-06-08T11:46:01.891Z</time>
      </trkpt>
      <trkpt lat="46.8574" lon="0.4212">
        <ele>115.77</ele>
        <time>2023-06-08T11:46:17.440Z</time>
      </trkpt>
      <trkpt lat="46.85734" lon="0.42105">
        <ele>116.35</ele>
        <time>2023-06-08T11:46:32.991Z</time>
      </trkpt>
      <trkpt lat="46.85729" lon="0.42091">
        <ele>117</ele>
        <time>2023-06-08T11:46:48.543Z</time>
      </trkpt>
      <trkpt lat="46.85724" lon="0.42079">
        <ele>116.83</ele>
        <time>2023-06-08T11:47:04.097Z</time>
      </trkpt>
      <trkpt lat="46.85724" lon="0.42078">
        <ele>116.83</ele>
        <time>2023-06-08T11:47:19.651Z</time>
      </trkpt>
      <trkpt lat="46.8572" lon="0.42065">
        <ele>116.42</ele>
        <time>2023-06-08T11:47:35.206Z</time>
      </trkpt>
      <trkpt lat="46.85721" lon="0.42063">
        <ele>116.36</ele>
        <time>2023-06-08T11:47:50.762Z</time>
      </trkpt>
      <trkpt lat="46.85726" lon="0.42052">
        <ele>116.07</ele>
        <time>2023-06-08T11:48:06.319Z</time>
      </trkpt>
      <trkpt lat="46.85728" lon="0.4205">
        <ele>116.01</ele>
        <time>2023-06-08T11:48:21.877Z</time>
      </trkpt>
      <trkpt lat="46.85736" lon="0.42043">
        <ele>115.86</ele>
        <time>2023-06-08T11:48:37.436Z</time>
      </trkpt>
      <trkpt lat="46.85738" lon="0.42041">
        <ele>115.82</ele>
        <time>2023-06-08T11:48:52.996Z</time>
      </trkpt>
      <trkpt lat="46.85748" lon="0.42029">
        <ele>115.5</ele>
        <time>2023-06-08T11:49:08.557Z</time>
      </trkpt>
      <trkpt lat="46.85754" lon="0.42022">
        <ele>115.27</ele>
        <time>2023-06-08T11:49:24.120Z</time>
      </trkpt>
      <trkpt lat="46.85758" lon="0.42018">
        <ele>115.14</ele>
        <time>2023-06-08T11:49:39.684Z</time>
      </trkpt>
      <trkpt lat="46.85768" lon="0.4201">
        <ele>114.74</ele>
        <time>2023-06-08T11:49:55.249Z</time>
      </trkpt>
      <trkpt lat="46.85775" lon="0.42003">
        <ele>114.35</ele>
        <time>2023-06-08T11:50:10.816Z</time>
      </trkpt>
      <trkpt lat="46.85778" lon="0.42002">
        <ele>114.2</ele>
        <time>2023-06-08T11:50:26.383Z</time>
      </trkpt>
      <trkpt lat="46.85791" lon="0.41996">
        <ele>113.68</ele>
        <time>2023-06-08T11:50:41.952Z</time>
      </trkpt>
      <trkpt lat="46.85803" lon="0.41991">
        <ele>113.03</ele>
        <time>2023-06-08T11:50:57.523Z</time>
      </trkpt>
      <trkpt lat="46.85816" lon="0.41985">
        <ele>112.57</ele>
        <time>2023-06-08T11:51:13.097Z</time>
      </trkpt>
      <trkpt lat="46.85828" lon="0.4198">
        <ele>112.26</ele>
        <time>2023-06-08T11:51:28.673Z</time>
      </trkpt>
      <trkpt lat="46.8584" lon="0.41975">
        <ele>111.95</ele>
        <time>2023-06-08T11:51:44.251Z</time>
      </trkpt>
      <trkpt lat="46.85848" lon="0.41971">
        <ele>111.77</ele>
        <time>2023-06-08T11:51:59.830Z</time>
      </trkpt>
      <trkpt lat="46.85863" lon="0.41957">
        <ele>111.42</ele>
        <time>2023-06-08T11:52:15.412Z</time>
      </trkpt>
      <trkpt lat="46.85873" lon="0.41947">
        <ele>111.14</ele>
        <time>2023-06-08T11:52:30.996Z</time>
      </trkpt>
      <trkpt lat="46.85884" lon="0.41936">
        <ele>111.02</ele>
        <time>2023-06-08T11:52:46.582Z</time>
      </trkpt>
      <trkpt lat="46.85895" lon="0.41925">
        <ele>110.95</ele>
        <time>2023-06-08T11:53:02.170Z</time>
      </trkpt>
      <trkpt lat="46.85907" lon="0.41914">
        <ele>110.98</ele>
        <time>2023-06-08T11:53:17.760Z</time>
      </trkpt>
      <trkpt lat="46.85918" lon="0.41902">
        <ele>111.1</ele>
        <time>2023-06-08T11:53:33.352Z</time>
      </trkpt>
      <trkpt lat="46.85929" lon="0.41892">
        <ele>111.25</ele>
        <time>2023-06-08T11:53:48.947Z</time>
      </trkpt>
      <trkpt lat="46.85935" lon="0.41886">
        <ele>111.3</ele>
        <time>2023-06-08T11:54:04.543Z</time>
      </trkpt>
      <trkpt lat="46.8594" lon="0.41881">
        <ele>111.35</ele>
        <time>2023-06-08T11:54:20.140Z</time>
      </trkpt>
      <trkpt lat="46.85952" lon="0.41872">
        <ele>111.39</ele>
        <time>2023-06-08T11:54:35.739Z</time>
      </trkpt>
      <trkpt lat="46.85963" lon="0.41863">
        <ele>111.34</ele>
        <time>2023-06-08T11:54:51.340Z</time>
      </trkpt>
      <trkpt lat="46.85974" lon="0.41853">
        <ele>111.22</ele>
        <time>2023-06-08T11:55:06.943Z</time>
      </trkpt>
      <trkpt lat="46.85986" lon="0.41843">
        <ele>111.03</ele>
        <time>2023-06-08T11:55:22.548Z</time>
      </trkpt>
      <trkpt lat="46.86004" lon="0.41828">
        <ele>110.54</ele>
        <time>2023-06-08T11:55:38.156Z</time>
      </trkpt>
      <trkpt lat="46.86009" lon="0.41824">
        <ele>110.42</ele>
        <time>2023-06-08T11:55:53.765Z</time>
      </trkpt>
      <trkpt lat="46.86019" lon="0.41814">
        <ele>110.18</ele>
        <time>2023-06-08T11:56:09.376Z</time>
      </trkpt>
      <trkpt lat="46.8603" lon="0.41804">
        <ele>109.89</ele>
        <time>2023-06-08T11:56:24.989Z</time>
      </trkpt>
      <trkpt lat="46.86048" lon="0.41788">
        <ele>109.28</ele>
        <time>2023-06-08T11:56:40.606Z</time>
      </trkpt>
      <trkpt lat="46.86053" lon="0.41784">
        <ele>109.12</ele>
        <time>2023-06-08T11:56:56.224Z</time>
      </trkpt>
      <trkpt lat="46.86079" lon="0.41767">
        <ele>108.37</ele>
        <time>2023-06-08T11:57:11.846Z</time>
      </trkpt>
      <trkpt lat="46.86097" lon="0.41755">
        <ele>107.68</ele>
        <time>2023-06-08T11:57:27.471Z</time>
      </trkpt>
      <trkpt lat="46.86106" lon="0.4175">
        <ele>107.36</ele>
        <time>2023-06-08T11:57:43.098Z</time>
      </trkpt>
      <trkpt lat="46.86133" lon="0.41737">
        <ele>106.55</ele>
        <time>2023-06-08T11:57:58.729Z</time>
      </trkpt>
      <trkpt lat="46.86146" lon="0.4173">
        <ele>106.23</ele>
        <time>2023-06-08T11:58:14.363Z</time>
      </trkpt>
      <trkpt lat="46.86152" lon="0.41727">
        <ele>106.11</ele>
        <time>2023-06-08T11:58:29.998Z</time>
      </trkpt>
      <trkpt lat="46.86158" lon="0.41722">
        <ele>106</ele>
        <time>2023-06-08T11:58:45.634Z</time>
      </trkpt>
      <trkpt lat="46.86164" lon="0.41717">
        <ele>105.86</ele>
        <time>2023-06-08T11:59:01.271Z</time>
      </trkpt>
      <trkpt lat="46.86168" lon="0.41711">
        <ele>105.75</ele>
        <time>2023-06-08T11:59:16.909Z</time>
      </trkpt>
      <trkpt lat="46.86178" lon="0.41698">
        <ele>105.57</ele>
        <time>2023-06-08T11:59:32.549Z</time>
      </trkpt>
      <trkpt lat="46.86189" lon="0.41684">
        <ele>105.29</ele>
        <time>2023-06-08T11:59:48.191Z</time>
      </trkpt>
      <trkpt lat="46.86193" lon="0.41678">
        <ele>105.13</ele>
        <time>2023-06-08T12:00:03.834Z</time>
      </trkpt>
      <trkpt lat="46.862" lon="0.41672">
        <ele>104.94</ele>
        <time>2023-06-08T12:00:19.478Z</time>
      </trkpt>
      <trkpt lat="46.86205" lon="0.41667">
        <ele>104.8</ele>
        <time>2023-06-08T12:00:35.124Z</time>
      </trkpt>
      <trkpt lat="46.86218" lon="0.41661">
        <ele>104.5</ele>
        <time>2023-06-08T12:00:50.772Z</time>
      </trkpt>
      <trkpt lat="46.86225" lon="0.4166">
        <ele>104.36</ele>
        <time>2023-06-08T12:01:06.421Z</time>
      </trkpt>
      <trkpt lat="46.86235" lon="0.41658">
        <ele>104.19</ele>
        <time>2023-06-08T12:01:22.071Z</time>
      </trkpt>
      <trkpt lat="46.86235" lon="0.41658">
        <ele>103.82</ele>
        <time>2023-06-08T12:01:37.721Z</time>
      </trkpt>
      <trkpt lat="46.86245" lon="0.41656">
        <ele>103.82</ele>
        <time>2023-06-08T12:01:53.373Z</time>
      </trkpt>
      <trkpt lat="46.86254" lon="0.41649">
        <ele>103.82</ele>
        <time>2023-06-08T12:02:09.027Z</time>
      </trkpt>
      <trkpt lat="46.86254" lon="0.41645">
        <ele>103.82</ele>
        <time>2023-06-08T12:02:24.681Z</time>
      </trkpt>
      <trkpt lat="46.86254" lon="0.41618">
        <ele>103.98</ele>
        <time>2023-06-08T12:02:40.338Z</time>
      </trkpt>
      <trkpt lat="46.86254" lon="0.41605">
        <ele>104.12</ele>
        <time>2023-06-08T12:02:55.997Z</time>
      </trkpt>
      <trkpt lat="46.86254" lon="0.41585">
        <ele>104.46</ele>
        <time>2023-06-08T12:03:11.658Z</time>
      </trkpt>
      <trkpt lat="46.86253" lon="0.41553">
        <ele>105.18</ele>
        <time>2023-06-08T12:03:27.322Z</time>
      </trkpt>
      <trkpt lat="46.86253" lon="0.41546">
        <ele>105.35</ele>
        <time>2023-06-08T12:03:42.987Z</time>
      </trkpt>
      <trkpt lat="46.86253" lon="0.41539">
        <ele>105.56</ele>
        <time>2023-06-08T12:03:58.653Z</time>
      </trkpt>
      <trkpt lat="46.86253" lon="0.41533">
        <ele>105.8</ele>
        <time>2023-06-08T12:04:14.319Z</time>
      </trkpt>
      <trkpt lat="46.86253" lon="0.4152">
        <ele>106.32</ele>
        <time>2023-06-08T12:04:29.987Z</time>
      </trkpt>
      <trkpt lat="46.86253" lon="0.41513">
        <ele>106.56</ele>
        <time>2023-06-08T12:04:45.656Z</time>
      </trkpt>
      <trkpt lat="46.86253" lon="0.41506">
        <ele>106.76</ele>
        <time>2023-06-08T12:05:01.325Z</time>
      </trkpt>
      <trkpt lat="46.86253" lon="0.415">
        <ele>106.93</ele>
        <time>2023-06-08T12:05:16.995Z</time>
      </trkpt>
      <trkpt lat="46.86253" lon="0.41487">
        <ele>107.19</ele>
        <time>2023-06-08T12:05:32.667Z</time>
      </trkpt>
      <trkpt lat="46.86253" lon="0.41467">
        <ele>107.51</ele>
        <time>2023-06-08T12:05:48.341Z</time>
      </trkpt>
      <trkpt lat="46.86253" lon="0.41456">
        <ele>107.66</ele>
        <time>2023-06-08T12:06:04.016Z</time>
      </trkpt>
      <trkpt lat="46.86253" lon="0.41447">
        <ele>107.79</ele>
        <time>2023-06-08T12:06:19.692Z</time>
      </trkpt>
      <trkpt lat="46.86254" lon="0.41434">
        <ele>108.03</ele>
        <time>2023-06-08T12:06:35.369Z</time>
      </trkpt>
      <trkpt lat="46.86254" lon="0.41428">
        <ele>108.13</ele>
        <time>2023-06-08T12:06:51.047Z</time>
      </trkpt>
      <trkpt lat="46.86254" lon="0.41421">
        <ele>108.18</ele>
        <time>2023-06-08T12:07:06.726Z</time>
      </trkpt>
      <trkpt lat="46.86255" lon="0.41415">
        <ele>108.2</ele>
        <time>2023-06-08T12:07:22.405Z</time>
      </trkpt>
      <trkpt lat="46.86256" lon="0.41389">
        <ele>107.93</ele>
        <time>2023-06-08T12:07:38.087Z</time>
      </trkpt>
      <trkpt lat="46.86256" lon="0.41384">
        <ele>107.86</ele>
        <time>2023-06-08T12:07:53.770Z</time>
      </trkpt>
      <trkpt lat="46.86257" lon="0.41369">
        <ele>107.66</ele>
        <time>2023-06-08T12:08:09.454Z</time>
      </trkpt>
      <trkpt lat="46.86258" lon="0.41356">
        <ele>107.46</ele>
        <time>2023-06-08T12:08:25.140Z</time>
      </trkpt>
      <trkpt lat="46.86259" lon="0.41349">
        <ele>107.33</ele>
        <time>2023-06-08T12:08:40.827Z</time>
      </trkpt>
      <trkpt lat="46.86259" lon="0.41343">
        <ele>107.18</ele>
        <time>2023-06-08T12:08:56.514Z</time>
      </trkpt>
      <trkpt lat="46.86259" lon="0.41336">
        <ele>106.98</ele>
        <time>2023-06-08T12:09:12.202Z</time>
      </trkpt>
      <trkpt lat="46.8626" lon="0.4133">
        <ele>106.75</ele>
        <time>2023-06-08T12:09:27.891Z</time>
      </trkpt>
      <trkpt lat="46.8626" lon="0.41323">
        <ele>106.48</ele>
        <time>2023-06-08T12:09:43.581Z</time>
      </trkpt>
      <trkpt lat="46.86264" lon="0.41278">
        <ele>104.43</ele>
        <time>2023-06-08T12:09:59.276Z</time>
      </trkpt>
      <trkpt lat="46.86265" lon="0.41265">
        <ele>103.78</ele>
        <time>2023-06-08T12:10:14.972Z</time>
      </trkpt>
      <trkpt lat="46.86267" lon="0.41239">
        <ele>102.44</ele>
        <time>2023-06-08T12:10:30.671Z</time>
      </trkpt>
      <trkpt lat="46.86268" lon="0.41221">
        <ele>101.55</ele>
        <time>2023-06-08T12:10:46.372Z</time>
      </trkpt>
      <trkpt lat="46.86268" lon="0.41219">
        <ele>101.47</ele>
        <time>2023-06-08T12:11:02.073Z</time>
      </trkpt>
      <trkpt lat="46.8627" lon="0.41213">
        <ele>101.12</ele>
        <time>2023-06-08T12:11:17.775Z</time>
      </trkpt>
      <trkpt lat="46.86272" lon="0.41207">
        <ele>100.75</ele>
        <time>2023-06-08T12:11:33.477Z</time>
      </trkpt>
      <trkpt lat="46.86278" lon="0.41183">
        <ele>99.13</ele>
        <time>2023-06-08T12:11:49.182Z</time>
      </trkpt>
      <trkpt lat="46.86281" lon="0.41171">
        <ele>98.38</ele>
        <time>2023-06-08T12:12:04.889Z</time>
      </trkpt>
      <trkpt lat="46.86281" lon="0.41171">
        <ele>98.38</ele>
        <time>2023-06-08T12:12:20.596Z</time>
      </trkpt>
      <trkpt lat="46.86286" lon="0.41159">
        <ele>97.71</ele>
        <time>2023-06-08T12:12:36.304Z</time>
      </trkpt>
      <trkpt lat="46.86291" lon="0.41148">
        <ele>97.11</ele>
        <time>2023-06-08T12:12:52.014Z</time>
      </trkpt>
      <trkpt lat="46.86295" lon="0.41137">
        <ele>96.56</ele>
        <time>2023-06-08T12:13:07.725Z</time>
      </trkpt>
      <trkpt lat="46.86298" lon="0.41131">
        <ele>96.3</ele>
        <time>2023-06-08T12:13:23.437Z</time>
      </trkpt>
      <trkpt lat="46.86305" lon="0.41115">
        <ele>95.63</ele>
        <time>2023-06-08T12:13:39.151Z</time>
      </trkpt>
      <trkpt lat="46.86307" lon="0.41109">
        <ele>95.44</ele>
        <time>2023-06-08T12:13:54.866Z</time>
      </trkpt>
      <trkpt lat="46.86312" lon="0.41097">
        <ele>95.14</ele>
        <time>2023-06-08T12:14:10.582Z</time>
      </trkpt>
      <trkpt lat="46.86312" lon="0.41097">
        <ele>95.14</ele>
        <time>2023-06-08T12:14:26.298Z</time>
      </trkpt>
      <trkpt lat="46.86314" lon="0.41086">
        <ele>94.92</ele>
        <time>2023-06-08T12:14:42.016Z</time>
      </trkpt>
      <trkpt lat="46.86316" lon="0.41079">
        <ele>94.84</ele>
        <time>2023-06-08T12:14:57.734Z</time>
      </trkpt>
      <trkpt lat="46.86318" lon="0.41067">
        <ele>94.76</ele>
        <time>2023-06-08T12:15:13.454Z</time>
      </trkpt>
      <trkpt lat="46.86322" lon="0.41048">
        <ele>94.82</ele>
        <time>2023-06-08T12:15:29.176Z</time>
      </trkpt>
      <trkpt lat="46.86324" lon="0.41035">
        <ele>94.93</ele>
        <time>2023-06-08T12:15:44.899Z</time>
      </trkpt>
      <trkpt lat="46.86326" lon="0.41028">
        <ele>95</ele>
        <time>2023-06-08T12:16:00.623Z</time>
      </trkpt>
      <trkpt lat="46.86326" lon="0.41023">
        <ele>95.06</ele>
        <time>2023-06-08T12:16:16.348Z</time>
      </trkpt>
      <trkpt lat="46.86327" lon="0.4101">
        <ele>95.23</ele>
        <time>2023-06-08T12:16:32.074Z</time>
      </trkpt>
      <trkpt lat="46.86328" lon="0.41003">
        <ele>95.34</ele>
        <time>2023-06-08T12:16:47.801Z</time>
      </trkpt>
      <trkpt lat="46.86329" lon="0.4099">
        <ele>95.64</ele>
        <time>2023-06-08T12:17:03.529Z</time>
      </trkpt>
      <trkpt lat="46.8633" lon="0.4097">
        <ele>96.15</ele>
        <time>2023-06-08T12:17:19.259Z</time>
      </trkpt>
      <trkpt lat="46.86332" lon="0.40944">
        <ele>96.88</ele>
        <time>2023-06-08T12:17:34.992Z</time>
      </trkpt>
      <trkpt lat="46.86333" lon="0.40932">
        <ele>97.19</ele>
        <time>2023-06-08T12:17:50.727Z</time>
      </trkpt>
      <trkpt lat="46.86333" lon="0.40928">
        <ele>97.26</ele>
        <time>2023-06-08T12:18:06.462Z</time>
      </trkpt>
      <trkpt lat="46.86341" lon="0.40908">
        <ele>97.75</ele>
        <time>2023-06-08T12:18:22.200Z</time>
      </trkpt>
      <trkpt lat="46.86345" lon="0.40897">
        <ele>98.09</ele>
        <time>2023-06-08T12:18:37.939Z</time>
      </trkpt>
      <trkpt lat="46.8635" lon="0.40886">
        <ele>98.47</ele>
        <time>2023-06-08T12:18:53.679Z</time>
      </trkpt>
      <trkpt lat="46.86353" lon="0.40877">
        <ele>98.77</ele>
        <time>2023-06-08T12:19:09.421Z</time>
      </trkpt>
      <trkpt lat="46.86355" lon="0.40854">
        <ele>99.47</ele>
        <time>2023-06-08T12:19:25.165Z</time>
      </trkpt>
      <trkpt lat="46.86358" lon="0.40829">
        <ele>100.21</ele>
        <time>2023-06-08T12:19:40.912Z</time>
      </trkpt>
      <trkpt lat="46.86359" lon="0.40822">
        <ele>100.41</ele>
        <time>2023-06-08T12:19:56.660Z</time>
      </trkpt>
      <trkpt lat="46.8636" lon="0.40809">
        <ele>100.87</ele>
        <time>2023-06-08T12:20:12.409Z</time>
      </trkpt>
      <trkpt lat="46.8636" lon="0.40809">
        <ele>100.87</ele>
        <time>2023-06-08T12:20:28.158Z</time>
      </trkpt>
      <trkpt lat="46.86355" lon="0.40764">
        <ele>102.7</ele>
        <time>2023-06-08T12:20:43.912Z</time>
      </trkpt>
      <trkpt lat="46.86353" lon="0.40745">
        <ele>102.9</ele>
        <time>2023-06-08T12:20:59.668Z</time>
      </trkpt>
      <trkpt lat="46.86352" lon="0.40734">
        <ele>103.05</ele>
        <time>2023-06-08T12:21:15.425Z</time>
      </trkpt>
      <trkpt lat="46.86346" lon="0.40733">
        <ele>103.17</ele>
        <time>2023-06-08T12:21:31.183Z</time>
      </trkpt>
      <trkpt lat="46.86333" lon="0.40729">
        <ele>103.51</ele>
        <time>2023-06-08T12:21:46.944Z</time>
      </trkpt>
      <trkpt lat="46.86332" lon="0.40729">
        <ele>103.54</ele>
        <time>2023-06-08T12:22:02.705Z</time>
      </trkpt>
      <trkpt lat="46.86303" lon="0.40716">
        <ele>104.38</ele>
        <time>2023-06-08T12:22:18.471Z</time>
      </trkpt>
      <trkpt lat="46.86295" lon="0.40712">
        <ele>104.66</ele>
        <time>2023-06-08T12:22:34.238Z</time>
      </trkpt>
      <trkpt lat="46.86286" lon="0.40708">
        <ele>104.97</ele>
        <time>2023-06-08T12:22:50.006Z</time>
      </trkpt>
      <trkpt lat="46.86265" lon="0.40698">
        <ele>105.93</ele>
        <time>2023-06-08T12:23:05.778Z</time>
      </trkpt>
      <trkpt lat="46.86246" lon="0.40689">
        <ele>105.69</ele>
        <time>2023-06-08T12:23:21.553Z</time>
      </trkpt>
      <trkpt lat="46.86248" lon="0.4068">
        <ele>105.62</ele>
        <time>2023-06-08T12:23:37.329Z</time>
      </trkpt>
      <trkpt lat="46.86249" lon="0.40674">
        <ele>105.59</ele>
        <time>2023-06-08T12:23:53.106Z</time>
      </trkpt>
      <trkpt lat="46.86252" lon="0.40662">
        <ele>105.62</ele>
        <time>2023-06-08T12:24:08.884Z</time>
      </trkpt>
      <trkpt lat="46.86255" lon="0.4065">
        <ele>105.74</ele>
        <time>2023-06-08T12:24:24.664Z</time>
      </trkpt>
      <trkpt lat="46.86259" lon="0.40631">
        <ele>105.94</ele>
        <time>2023-06-08T12:24:40.446Z</time>
      </trkpt>
      <trkpt lat="46.86263" lon="0.40619">
        <ele>106.08</ele>
        <time>2023-06-08T12:24:56.229Z</time>
      </trkpt>
      <trkpt lat="46.86274" lon="0.40584">
        <ele>106.51</ele>
        <time>2023-06-08T12:25:12.017Z</time>
      </trkpt>
      <trkpt lat="46.86277" lon="0.40572">
        <ele>106.89</ele>
        <time>2023-06-08T12:25:27.806Z</time>
      </trkpt>
      <trkpt lat="46.86279" lon="0.40566">
        <ele>107.06</ele>
        <time>2023-06-08T12:25:43.596Z</time>
      </trkpt>
      <trkpt lat="46.86281" lon="0.4056">
        <ele>107.2</ele>
        <time>2023-06-08T12:25:59.386Z</time>
      </trkpt>
      <trkpt lat="46.86285" lon="0.40549">
        <ele>107.42</ele>
        <time>2023-06-08T12:26:15.178Z</time>
      </trkpt>
      <trkpt lat="46.86288" lon="0.40537">
        <ele>107.57</ele>
        <time>2023-06-08T12:26:30.971Z</time>
      </trkpt>
      <trkpt lat="46.86296" lon="0.40513">
        <ele>108.24</ele>
        <time>2023-06-08T12:26:46.767Z</time>
      </trkpt>
      <trkpt lat="46.86301" lon="0.40496">
        <ele>108.81</ele>
        <time>2023-06-08T12:27:02.565Z</time>
      </trkpt>
      <trkpt lat="46.86305" lon="0.40484">
        <ele>109.21</ele>
        <time>2023-06-08T12:27:18.365Z</time>
      </trkpt>
      <trkpt lat="46.86311" lon="0.40464">
        <ele>110.03</ele>
        <time>2023-06-08T12:27:34.167Z</time>
      </trkpt>
      <trkpt lat="46.86312" lon="0.40461">
        <ele>110.16</ele>
        <time>2023-06-08T12:27:49.969Z</time>
      </trkpt>
      <trkpt lat="46.8632" lon="0.40446">
        <ele>110.82</ele>
        <time>2023-06-08T12:28:05.773Z</time>
      </trkpt>
      <trkpt lat="46.86322" lon="0.4044">
        <ele>111.06</ele>
        <time>2023-06-08T12:28:21.578Z</time>
      </trkpt>
      <trkpt lat="46.86323" lon="0.40439">
        <ele>111.12</ele>
        <time>2023-06-08T12:28:37.383Z</time>
      </trkpt>
      <trkpt lat="46.86335" lon="0.40427">
        <ele>112</ele>
        <time>2023-06-08T12:28:53.191Z</time>
      </trkpt>
      <trkpt lat="46.86336" lon="0.40425">
        <ele>112.11</ele>
        <time>2023-06-08T12:29:08.999Z</time>
      </trkpt>
      <trkpt lat="46.86343" lon="0.40416">
        <ele>112.28</ele>
        <time>2023-06-08T12:29:24.808Z</time>
      </trkpt>
      <trkpt lat="46.86349" lon="0.40408">
        <ele>112.49</ele>
        <time>2023-06-08T12:29:40.619Z</time>
      </trkpt>
      <trkpt lat="46.86351" lon="0.40405">
        <ele>112.56</ele>
        <time>2023-06-08T12:29:56.430Z</time>
      </trkpt>
      <trkpt lat="46.86371" lon="0.40375">
        <ele>113.4</ele>
        <time>2023-06-08T12:30:12.246Z</time>
      </trkpt>
      <trkpt lat="46.86373" lon="0.40369">
        <ele>113.54</ele>
        <time>2023-06-08T12:30:28.063Z</time>
      </trkpt>
      <trkpt lat="46.86377" lon="0.40358">
        <ele>113.77</ele>
        <time>2023-06-08T12:30:43.881Z</time>
      </trkpt>
      <trkpt lat="46.86378" lon="0.40356">
        <ele>113.79</ele>
        <time>2023-06-08T12:30:59.699Z</time>
      </trkpt>
      <trkpt lat="46.86381" lon="0.40339">
        <ele>114.04</ele>
        <time>2023-06-08T12:31:15.519Z</time>
      </trkpt>
      <trkpt lat="46.86384" lon="0.4032">
        <ele>114.25</ele>
        <time>2023-06-08T12:31:31.341Z</time>
      </trkpt>
      <trkpt lat="46.86384" lon="0.40314">
        <ele>114.07</ele>
        <time>2023-06-08T12:31:47.164Z</time>
      </trkpt>
      <trkpt lat="46.86385" lon="0.40307">
        <ele>113.91</ele>
        <time>2023-06-08T12:32:02.988Z</time>
      </trkpt>
      <trkpt lat="46.86386" lon="0.40301">
        <ele>113.79</ele>
        <time>2023-06-08T12:32:18.812Z</time>
      </trkpt>
      <trkpt lat="46.86387" lon="0.40295">
        <ele>113.7</ele>
        <time>2023-06-08T12:32:34.637Z</time>
      </trkpt>
      <trkpt lat="46.86388" lon="0.40291">
        <ele>113.66</ele>
        <time>2023-06-08T12:32:50.462Z</time>
      </trkpt>
      <trkpt lat="46.86391" lon="0.40269">
        <ele>113.46</ele>
        <time>2023-06-08T12:33:06.290Z</time>
      </trkpt>
      <trkpt lat="46.86393" lon="0.40257">
        <ele>113.3</ele>
        <time>2023-06-08T12:33:22.119Z</time>
      </trkpt>
      <trkpt lat="46.86394" lon="0.4025">
        <ele>113.19</ele>
        <time>2023-06-08T12:33:37.949Z</time>
      </trkpt>
      <trkpt lat="46.86397" lon="0.40231">
        <ele>112.71</ele>
        <time>2023-06-08T12:33:53.781Z</time>
      </trkpt>
      <trkpt lat="46.86398" lon="0.40225">
        <ele>112.6</ele>
        <time>2023-06-08T12:34:09.614Z</time>
      </trkpt>
      <trkpt lat="46.86399" lon="0.40219">
        <ele>112.52</ele>
        <time>2023-06-08T12:34:25.448Z</time>
      </trkpt>
      <trkpt lat="46.86402" lon="0.402">
        <ele>112.43</ele>
        <time>2023-06-08T12:34:41.284Z</time>
      </trkpt>
      <trkpt lat="46.86403" lon="0.40193">
        <ele>112.38</ele>
        <time>2023-06-08T12:34:57.120Z</time>
      </trkpt>
      <trkpt lat="46.86404" lon="0.40187">
        <ele>112.31</ele>
        <time>2023-06-08T12:35:12.957Z</time>
      </trkpt>
      <trkpt lat="46.86406" lon="0.40174">
        <ele>112.09</ele>
        <time>2023-06-08T12:35:28.796Z</time>
      </trkpt>
      <trkpt lat="46.86407" lon="0.40168">
        <ele>112</ele>
        <time>2023-06-08T12:35:44.635Z</time>
      </trkpt>
      <trkpt lat="46.86408" lon="0.40162">
        <ele>111.95</ele>
        <time>2023-06-08T12:36:00.475Z</time>
      </trkpt>
      <trkpt lat="46.8641" lon="0.40149">
        <ele>111.89</ele>
        <time>2023-06-08T12:36:16.316Z</time>
      </trkpt>
      <trkpt lat="46.8641" lon="0.40142">
        <ele>111.79</ele>
        <time>2023-06-08T12:36:32.158Z</time>
      </trkpt>
      <trkpt lat="46.86411" lon="0.40139">
        <ele>111.7</ele>
        <time>2023-06-08T12:36:48.001Z</time>
      </trkpt>
      <trkpt lat="46.86411" lon="0.40136">
        <ele>111.63</ele>
        <time>2023-06-08T12:37:03.844Z</time>
      </trkpt>
      <trkpt lat="46.86413" lon="0.40123">
        <ele>111.24</ele>
        <time>2023-06-08T12:37:19.688Z</time>
      </trkpt>
      <trkpt lat="46.86414" lon="0.40117">
        <ele>111.08</ele>
        <time>2023-06-08T12:37:35.533Z</time>
      </trkpt>
      <trkpt lat="46.86415" lon="0.40111">
        <ele>110.97</ele>
        <time>2023-06-08T12:37:51.379Z</time>
      </trkpt>
      <trkpt lat="46.86415" lon="0.40104">
        <ele>110.91</ele>
        <time>2023-06-08T12:38:07.225Z</time>
      </trkpt>
      <trkpt lat="46.86417" lon="0.40091">
        <ele>110.86</ele>
        <time>2023-06-08T12:38:23.073Z</time>
      </trkpt>
      <trkpt lat="46.86418" lon="0.40085">
        <ele>110.81</ele>
        <time>2023-06-08T12:38:38.922Z</time>
      </trkpt>
      <trkpt lat="46.8642" lon="0.40066">
        <ele>110.56</ele>
        <time>2023-06-08T12:38:54.773Z</time>
      </trkpt>
      <trkpt lat="46.86421" lon="0.40059">
        <ele>110.5</ele>
        <time>2023-06-08T12:39:10.624Z</time>
      </trkpt>
      <trkpt lat="46.86424" lon="0.4004">
        <ele>110.41</ele>
        <time>2023-06-08T12:39:26.478Z</time>
      </trkpt>
      <trkpt lat="46.86425" lon="0.40028">
        <ele>110.31</ele>
        <time>2023-06-08T12:39:42.333Z</time>
      </trkpt>
      <trkpt lat="46.86427" lon="0.40015">
        <ele>110.17</ele>
        <time>2023-06-08T12:39:58.189Z</time>
      </trkpt>
      <trkpt lat="46.86428" lon="0.40008">
        <ele>110.07</ele>
        <time>2023-06-08T12:40:14.046Z</time>
      </trkpt>
      <trkpt lat="46.86428" lon="0.40002">
        <ele>109.91</ele>
        <time>2023-06-08T12:40:29.904Z</time>
      </trkpt>
      <trkpt lat="46.86429" lon="0.39995">
        <ele>109.72</ele>
        <time>2023-06-08T12:40:45.763Z</time>
      </trkpt>
      <trkpt lat="46.86431" lon="0.39983">
        <ele>109.29</ele>
        <time>2023-06-08T12:41:01.623Z</time>
      </trkpt>
      <trkpt lat="46.86432" lon="0.39976">
        <ele>109.06</ele>
        <time>2023-06-08T12:41:17.484Z</time>
      </trkpt>
      <trkpt lat="46.86433" lon="0.39963">
        <ele>108.52</ele>
        <time>2023-06-08T12:41:33.346Z</time>
      </trkpt>
      <trkpt lat="46.86435" lon="0.39951">
        <ele>107.9</ele>
        <time>2023-06-08T12:41:49.210Z</time>
      </trkpt>
      <trkpt lat="46.86436" lon="0.39942">
        <ele>107.43</ele>
        <time>2023-06-08T12:42:05.075Z</time>
      </trkpt>
      <trkpt lat="46.86436" lon="0.39938">
        <ele>107.22</ele>
        <time>2023-06-08T12:42:20.940Z</time>
      </trkpt>
      <trkpt lat="46.86437" lon="0.39918">
        <ele>106.1</ele>
        <time>2023-06-08T12:42:36.807Z</time>
      </trkpt>
      <trkpt lat="46.86437" lon="0.39914">
        <ele>105.82</ele>
        <time>2023-06-08T12:42:52.675Z</time>
      </trkpt>
      <trkpt lat="46.86437" lon="0.39912">
        <ele>105.7</ele>
        <time>2023-06-08T12:43:08.543Z</time>
      </trkpt>
      <trkpt lat="46.86436" lon="0.39906">
        <ele>105.27</ele>
        <time>2023-06-08T12:43:24.412Z</time>
      </trkpt>
      <trkpt lat="46.86431" lon="0.39874">
        <ele>104.95</ele>
        <time>2023-06-08T12:43:40.284Z</time>
      </trkpt>
      <trkpt lat="46.8643" lon="0.39867">
        <ele>104.91</ele>
        <time>2023-06-08T12:43:56.157Z</time>
      </trkpt>
      <trkpt lat="46.86427" lon="0.39848">
        <ele>104.84</ele>
        <time>2023-06-08T12:44:12.032Z</time>
      </trkpt>
      <trkpt lat="46.86426" lon="0.39842">
        <ele>104.79</ele>
        <time>2023-06-08T12:44:27.908Z</time>
      </trkpt>
      <trkpt lat="46.86425" lon="0.39836">
        <ele>104.72</ele>
        <time>2023-06-08T12:44:43.784Z</time>
      </trkpt>
      <trkpt lat="46.86423" lon="0.39823">
        <ele>104.53</ele>
        <time>2023-06-08T12:44:59.662Z</time>
      </trkpt>
      <trkpt lat="46.86421" lon="0.3981">
        <ele>104.37</ele>
        <time>2023-06-08T12:45:15.541Z</time>
      </trkpt>
      <trkpt lat="46.8642" lon="0.398">
        <ele>104.28</ele>
        <time>2023-06-08T12:45:31.421Z</time>
      </trkpt>
      <trkpt lat="46.8642" lon="0.39784">
        <ele>104.16</ele>
        <time>2023-06-08T12:45:47.303Z</time>
      </trkpt>
      <trkpt lat="46.8642" lon="0.39771">
        <ele>104.1</ele>
        <time>2023-06-08T12:46:03.187Z</time>
      </trkpt>
      <trkpt lat="46.86421" lon="0.39765">
        <ele>104.12</ele>
        <time>2023-06-08T12:46:19.071Z</time>
      </trkpt>
      <trkpt lat="46.86421" lon="0.39758">
        <ele>104.18</ele>
        <time>2023-06-08T12:46:34.956Z</time>
      </trkpt>
      <trkpt lat="46.86421" lon="0.39751">
        <ele>104.28</ele>
        <time>2023-06-08T12:46:50.842Z</time>
      </trkpt>
      <trkpt lat="46.86421" lon="0.39745">
        <ele>104.4</ele>
        <time>2023-06-08T12:47:06.729Z</time>
      </trkpt>
      <trkpt lat="46.86421" lon="0.39725">
        <ele>104.81</ele>
        <time>2023-06-08T12:47:22.618Z</time>
      </trkpt>
      <trkpt lat="46.86421" lon="0.39712">
        <ele>105.05</ele>
        <time>2023-06-08T12:47:38.508Z</time>
      </trkpt>
      <trkpt lat="46.86422" lon="0.39683">
        <ele>105.21</ele>
        <time>2023-06-08T12:47:54.401Z</time>
      </trkpt>
      <trkpt lat="46.86414" lon="0.39669">
        <ele>105.31</ele>
        <time>2023-06-08T12:48:10.296Z</time>
      </trkpt>
      <trkpt lat="46.8637" lon="0.39633">
        <ele>105.73</ele>
        <time>2023-06-08T12:48:26.199Z</time>
      </trkpt>
      <trkpt lat="46.86329" lon="0.39583">
        <ele>106.16</ele>
        <time>2023-06-08T12:48:42.111Z</time>
      </trkpt>
      <trkpt lat="46.86266" lon="0.39521">
        <ele>106.79</ele>
        <time>2023-06-08T12:48:58.035Z</time>
      </trkpt>
      <trkpt lat="46.86144" lon="0.39391">
        <ele>108.03</ele>
        <time>2023-06-08T12:49:13.983Z</time>
      </trkpt>
      <trkpt lat="46.86127" lon="0.39367">
        <ele>108.22</ele>
        <time>2023-06-08T12:49:29.935Z</time>
      </trkpt>
      <trkpt lat="46.86098" lon="0.39309">
        <ele>108.63</ele>
        <time>2023-06-08T12:49:45.895Z</time>
      </trkpt>
      <trkpt lat="46.8608" lon="0.39262">
        <ele>108.93</ele>
        <time>2023-06-08T12:50:01.861Z</time>
      </trkpt>
      <trkpt lat="46.86063" lon="0.39204">
        <ele>109.28</ele>
        <time>2023-06-08T12:50:17.834Z</time>
      </trkpt>
      <trkpt lat="46.86057" lon="0.39173">
        <ele>109.46</ele>
        <time>2023-06-08T12:50:33.810Z</time>
      </trkpt>
      <trkpt lat="46.8602" lon="0.39108">
        <ele>109.94</ele>
        <time>2023-06-08T12:50:49.796Z</time>
      </trkpt>
      <trkpt lat="46.86004" lon="0.39072">
        <ele>110.18</ele>
        <time>2023-06-08T12:51:05.786Z</time>
      </trkpt>
      <trkpt lat="46.8597" lon="0.39011">
        <ele>110.62</ele>
        <time>2023-06-08T12:51:21.785Z</time>
      </trkpt>
      <trkpt lat="46.8592" lon="0.38953">
        <ele>111.15</ele>
        <time>2023-06-08T12:51:37.794Z</time>
      </trkpt>
      <trkpt lat="46.85895" lon="0.38928">
        <ele>111.39</ele>
        <time>2023-06-08T12:51:53.808Z</time>
      </trkpt>
      <trkpt lat="46.85838" lon="0.3889">
        <ele>111.91</ele>
        <time>2023-06-08T12:52:09.832Z</time>
      </trkpt>
      <trkpt lat="46.85822" lon="0.3888">
        <ele>111.53</ele>
        <time>2023-06-08T12:52:25.859Z</time>
      </trkpt>
      <trkpt lat="46.8582" lon="0.38878">
        <ele>111.48</ele>
        <time>2023-06-08T12:52:41.886Z</time>
      </trkpt>
      <trkpt lat="46.85821" lon="0.38869">
        <ele>111.36</ele>
        <time>2023-06-08T12:52:57.914Z</time>
      </trkpt>
      <trkpt lat="46.85823" lon="0.38856">
        <ele>111.21</ele>
        <time>2023-06-08T12:53:13.944Z</time>
      </trkpt>
      <trkpt lat="46.85825" lon="0.38844">
        <ele>111.09</ele>
        <time>2023-06-08T12:53:29.975Z</time>
      </trkpt>
      <trkpt lat="46.85829" lon="0.38819">
        <ele>110.95</ele>
        <time>2023-06-08T12:53:46.009Z</time>
      </trkpt>
      <trkpt lat="46.85831" lon="0.38808">
        <ele>110.94</ele>
        <time>2023-06-08T12:54:02.044Z</time>
      </trkpt>
      <trkpt lat="46.85834" lon="0.38794">
        <ele>110.94</ele>
        <time>2023-06-08T12:54:18.081Z</time>
      </trkpt>
      <trkpt lat="46.85838" lon="0.38775">
        <ele>110.64</ele>
        <time>2023-06-08T12:54:34.120Z</time>
      </trkpt>
      <trkpt lat="46.8584" lon="0.38766">
        <ele>110.53</ele>
        <time>2023-06-08T12:54:50.160Z</time>
      </trkpt>
      <trkpt lat="46.85841" lon="0.38763">
        <ele>110.5</ele>
        <time>2023-06-08T12:55:06.200Z</time>
      </trkpt>
      <trkpt lat="46.85843" lon="0.38758">
        <ele>110.45</ele>
        <time>2023-06-08T12:55:22.241Z</time>
      </trkpt>
      <trkpt lat="46.85851" lon="0.38741">
        <ele>110.41</ele>
        <time>2023-06-08T12:55:38.284Z</time>
      </trkpt>
      <trkpt lat="46.85857" lon="0.38724">
        <ele>110.5</ele>
        <time>2023-06-08T12:55:54.329Z</time>
      </trkpt>
      <trkpt lat="46.85862" lon="0.38713">
        <ele>110.65</ele>
        <time>2023-06-08T12:56:10.376Z</time>
      </trkpt>
      <trkpt lat="46.85867" lon="0.38702">
        <ele>110.85</ele>
        <time>2023-06-08T12:56:26.424Z</time>
      </trkpt>
      <trkpt lat="46.85871" lon="0.38691">
        <ele>111.07</ele>
        <time>2023-06-08T12:56:42.474Z</time>
      </trkpt>
      <trkpt lat="46.8589" lon="0.38647">
        <ele>112.02</ele>
        <time>2023-06-08T12:56:58.529Z</time>
      </trkpt>
      <trkpt lat="46.85896" lon="0.38633">
        <ele>112.26</ele>
        <time>2023-06-08T12:57:14.586Z</time>
      </trkpt>
      <trkpt lat="46.85898" lon="0.38624">
        <ele>112.41</ele>
        <time>2023-06-08T12:57:30.644Z</time>
      </trkpt>
      <trkpt lat="46.85904" lon="0.38596">
        <ele>112.21</ele>
        <time>2023-06-08T12:57:46.705Z</time>
      </trkpt>
      <trkpt lat="46.85904" lon="0.38596">
        <ele>112.21</ele>
        <time>2023-06-08T12:58:02.766Z</time>
      </trkpt>
      <trkpt lat="46.85906" lon="0.38597">
        <ele>112.1</ele>
        <time>2023-06-08T12:58:18.828Z</time>
      </trkpt>
      <trkpt lat="46.85911" lon="0.38595">
        <ele>111.9</ele>
        <time>2023-06-08T12:58:34.891Z</time>
      </trkpt>
      <trkpt lat="46.85913" lon="0.38587">
        <ele>111.69</ele>
        <time>2023-06-08T12:58:50.954Z</time>
      </trkpt>
      <trkpt lat="46.85913" lon="0.38587">
        <ele>111.69</ele>
        <time>2023-06-08T12:59:07.017Z</time>
      </trkpt>
      <trkpt lat="46.8591" lon="0.38583">
        <ele>111.54</ele>
        <time>2023-06-08T12:59:23.081Z</time>
      </trkpt>
      <trkpt lat="46.85908" lon="0.3858">
        <ele>111.45</ele>
        <time>2023-06-08T12:59:39.146Z</time>
      </trkpt>
      <trkpt lat="46.8591" lon="0.38571">
        <ele>111.27</ele>
        <time>2023-06-08T12:59:55.212Z</time>
      </trkpt>
      <trkpt lat="46.85915" lon="0.38546">
        <ele>110.79</ele>
        <time>2023-06-08T13:00:11.280Z</time>
      </trkpt>
      <trkpt lat="46.85918" lon="0.38527">
        <ele>110.45</ele>
        <time>2023-06-08T13:00:27.351Z</time>
      </trkpt>
      <trkpt lat="46.85923" lon="0.38502">
        <ele>110.02</ele>
        <time>2023-06-08T13:00:43.424Z</time>
      </trkpt>
      <trkpt lat="46.85927" lon="0.38484">
        <ele>109.73</ele>
        <time>2023-06-08T13:00:59.500Z</time>
      </trkpt>
      <trkpt lat="46.8593" lon="0.38471">
        <ele>109.57</ele>
        <time>2023-06-08T13:01:15.577Z</time>
      </trkpt>
      <trkpt lat="46.85936" lon="0.3844">
        <ele>109.29</ele>
        <time>2023-06-08T13:01:31.658Z</time>
      </trkpt>
      <trkpt lat="46.85941" lon="0.38415">
        <ele>109.15</ele>
        <time>2023-06-08T13:01:47.741Z</time>
      </trkpt>
      <trkpt lat="46.85943" lon="0.38402">
        <ele>109.12</ele>
        <time>2023-06-08T13:02:03.826Z</time>
      </trkpt>
      <trkpt lat="46.85947" lon="0.38383">
        <ele>109.15</ele>
        <time>2023-06-08T13:02:19.913Z</time>
      </trkpt>
      <trkpt lat="46.85953" lon="0.38354">
        <ele>109.1</ele>
        <time>2023-06-08T13:02:36.003Z</time>
      </trkpt>
      <trkpt lat="46.85956" lon="0.38342">
        <ele>109.08</ele>
        <time>2023-06-08T13:02:52.095Z</time>
      </trkpt>
      <trkpt lat="46.85976" lon="0.38246">
        <ele>109.12</ele>
        <time>2023-06-08T13:03:08.198Z</time>
      </trkpt>
      <trkpt lat="46.85981" lon="0.38222">
        <ele>109.18</ele>
        <time>2023-06-08T13:03:24.304Z</time>
      </trkpt>
      <trkpt lat="46.85984" lon="0.38204">
        <ele>109.29</ele>
        <time>2023-06-08T13:03:40.412Z</time>
      </trkpt>
      <trkpt lat="46.85987" lon="0.38191">
        <ele>109.41</ele>
        <time>2023-06-08T13:03:56.521Z</time>
      </trkpt>
      <trkpt lat="46.8599" lon="0.38179">
        <ele>109.57</ele>
        <time>2023-06-08T13:04:12.631Z</time>
      </trkpt>
      <trkpt lat="46.85994" lon="0.38161">
        <ele>109.61</ele>
        <time>2023-06-08T13:04:28.744Z</time>
      </trkpt>
      <trkpt lat="46.85996" lon="0.38148">
        <ele>109.67</ele>
        <time>2023-06-08T13:04:44.858Z</time>
      </trkpt>
      <trkpt lat="46.86" lon="0.38129">
        <ele>109.81</ele>
        <time>2023-06-08T13:05:00.974Z</time>
      </trkpt>
      <trkpt lat="46.86007" lon="0.38098">
        <ele>110.14</ele>
        <time>2023-06-08T13:05:17.094Z</time>
      </trkpt>
      <trkpt lat="46.86009" lon="0.38085">
        <ele>110.31</ele>
        <time>2023-06-08T13:05:33.215Z</time>
      </trkpt>
      <trkpt lat="46.86019" lon="0.38039">
        <ele>111.02</ele>
        <time>2023-06-08T13:05:49.342Z</time>
      </trkpt>
      <trkpt lat="46.8602" lon="0.38028">
        <ele>111.19</ele>
        <time>2023-06-08T13:06:05.470Z</time>
      </trkpt>
      <trkpt lat="46.86022" lon="0.38009">
        <ele>111.45</ele>
        <time>2023-06-08T13:06:21.600Z</time>
      </trkpt>
      <trkpt lat="46.86021" lon="0.37983">
        <ele>111.81</ele>
        <time>2023-06-08T13:06:37.733Z</time>
      </trkpt>
      <trkpt lat="46.86021" lon="0.37972">
        <ele>111.99</ele>
        <time>2023-06-08T13:06:53.867Z</time>
      </trkpt>
      <trkpt lat="46.86019" lon="0.37963">
        <ele>112.16</ele>
        <time>2023-06-08T13:07:10.002Z</time>
      </trkpt>
      <trkpt lat="46.86013" lon="0.37932">
        <ele>112.77</ele>
        <time>2023-06-08T13:07:26.141Z</time>
      </trkpt>
      <trkpt lat="46.86013" lon="0.3793">
        <ele>112.8</ele>
        <time>2023-06-08T13:07:42.280Z</time>
      </trkpt>
      <trkpt lat="46.86008" lon="0.37914">
        <ele>113.11</ele>
        <time>2023-06-08T13:07:58.421Z</time>
      </trkpt>
      <trkpt lat="46.86005" lon="0.37901">
        <ele>113.3</ele>
        <time>2023-06-08T13:08:14.563Z</time>
      </trkpt>
      <trkpt lat="46.86" lon="0.37883">
        <ele>113.54</ele>
        <time>2023-06-08T13:08:30.707Z</time>
      </trkpt>
      <trkpt lat="46.8599" lon="0.37847">
        <ele>113.91</ele>
        <time>2023-06-08T13:08:46.856Z</time>
      </trkpt>
      <trkpt lat="46.85976" lon="0.37798">
        <ele>114.54</ele>
        <time>2023-06-08T13:09:03.010Z</time>
      </trkpt>
      <trkpt lat="46.85975" lon="0.37795">
        <ele>114.58</ele>
        <time>2023-06-08T13:09:19.165Z</time>
      </trkpt>
      <trkpt lat="46.85971" lon="0.37773">
        <ele>114.91</ele>
        <time>2023-06-08T13:09:35.322Z</time>
      </trkpt>
      <trkpt lat="46.85969" lon="0.37763">
        <ele>115.08</ele>
        <time>2023-06-08T13:09:51.480Z</time>
      </trkpt>
      <trkpt lat="46.85968" lon="0.37754">
        <ele>115.24</ele>
        <time>2023-06-08T13:10:07.639Z</time>
      </trkpt>
      <trkpt lat="46.85966" lon="0.3773">
        <ele>115.7</ele>
        <time>2023-06-08T13:10:23.801Z</time>
      </trkpt>
      <trkpt lat="46.85967" lon="0.37702">
        <ele>116.26</ele>
        <time>2023-06-08T13:10:39.966Z</time>
      </trkpt>
      <trkpt lat="46.85967" lon="0.37697">
        <ele>116.35</ele>
        <time>2023-06-08T13:10:56.132Z</time>
      </trkpt>
      <trkpt lat="46.85973" lon="0.3766">
        <ele>117.17</ele>
        <time>2023-06-08T13:11:12.302Z</time>
      </trkpt>
      <trkpt lat="46.85974" lon="0.37657">
        <ele>117.24</ele>
        <time>2023-06-08T13:11:28.472Z</time>
      </trkpt>
      <trkpt lat="46.85989" lon="0.37588">
        <ele>118.93</ele>
        <time>2023-06-08T13:11:44.650Z</time>
      </trkpt>
      <trkpt lat="46.85994" lon="0.37563">
        <ele>119.53</ele>
        <time>2023-06-08T13:12:00.831Z</time>
      </trkpt>
      <trkpt lat="46.86001" lon="0.37532">
        <ele>120.37</ele>
        <time>2023-06-08T13:12:17.016Z</time>
      </trkpt>
      <trkpt lat="46.86003" lon="0.37519">
        <ele>120.69</ele>
        <time>2023-06-08T13:12:33.202Z</time>
      </trkpt>
      <trkpt lat="46.86007" lon="0.37503">
        <ele>121.06</ele>
        <time>2023-06-08T13:12:49.390Z</time>
      </trkpt>
      <trkpt lat="46.86016" lon="0.37473">
        <ele>121.77</ele>
        <time>2023-06-08T13:13:05.582Z</time>
      </trkpt>
      <trkpt lat="46.86017" lon="0.37471">
        <ele>121.83</ele>
        <time>2023-06-08T13:13:21.774Z</time>
      </trkpt>
      <trkpt lat="46.86029" lon="0.37445">
        <ele>122.67</ele>
        <time>2023-06-08T13:13:37.969Z</time>
      </trkpt>
      <trkpt lat="46.8603" lon="0.37444">
        <ele>122.67</ele>
        <time>2023-06-08T13:13:54.164Z</time>
      </trkpt>
      <trkpt lat="46.86047" lon="0.37414">
        <ele>123.6</ele>
        <time>2023-06-08T13:14:10.364Z</time>
      </trkpt>
      <trkpt lat="46.86084" lon="0.37348">
        <ele>125.32</ele>
        <time>2023-06-08T13:14:26.573Z</time>
      </trkpt>
      <trkpt lat="46.86089" lon="0.37338">
        <ele>125.56</ele>
        <time>2023-06-08T13:14:42.784Z</time>
      </trkpt>
      <trkpt lat="46.86101" lon="0.37317">
        <ele>125.98</ele>
        <time>2023-06-08T13:14:58.997Z</time>
      </trkpt>
      <trkpt lat="46.86121" lon="0.37282">
        <ele>126.76</ele>
        <time>2023-06-08T13:15:15.215Z</time>
      </trkpt>
      <trkpt lat="46.86143" lon="0.37241">
        <ele>127.51</ele>
        <time>2023-06-08T13:15:31.439Z</time>
      </trkpt>
      <trkpt lat="46.86157" lon="0.37217">
        <ele>127.93</ele>
        <time>2023-06-08T13:15:47.667Z</time>
      </trkpt>
      <trkpt lat="46.86166" lon="0.372">
        <ele>128.22</ele>
        <time>2023-06-08T13:16:03.897Z</time>
      </trkpt>
      <trkpt lat="46.86174" lon="0.37185">
        <ele>128.45</ele>
        <time>2023-06-08T13:16:20.129Z</time>
      </trkpt>
      <trkpt lat="46.86185" lon="0.37164">
        <ele>128.7</ele>
        <time>2023-06-08T13:16:36.364Z</time>
      </trkpt>
      <trkpt lat="46.8619" lon="0.37153">
        <ele>128.83</ele>
        <time>2023-06-08T13:16:52.600Z</time>
      </trkpt>
      <trkpt lat="46.862" lon="0.37131">
        <ele>129.05</ele>
        <time>2023-06-08T13:17:08.839Z</time>
      </trkpt>
      <trkpt lat="46.86213" lon="0.37102">
        <ele>129.39</ele>
        <time>2023-06-08T13:17:25.082Z</time>
      </trkpt>
      <trkpt lat="46.86215" lon="0.37098">
        <ele>129.44</ele>
        <time>2023-06-08T13:17:41.326Z</time>
      </trkpt>
      <trkpt lat="46.86227" lon="0.37075">
        <ele>129.66</ele>
        <time>2023-06-08T13:17:57.573Z</time>
      </trkpt>
      <trkpt lat="46.86232" lon="0.37068">
        <ele>129.74</ele>
        <time>2023-06-08T13:18:13.821Z</time>
      </trkpt>
      <trkpt lat="46.8624" lon="0.37054">
        <ele>129.9</ele>
        <time>2023-06-08T13:18:30.071Z</time>
      </trkpt>
      <trkpt lat="46.86241" lon="0.37053">
        <ele>129.92</ele>
        <time>2023-06-08T13:18:46.321Z</time>
      </trkpt>
      <trkpt lat="46.86257" lon="0.37031">
        <ele>130.26</ele>
        <time>2023-06-08T13:19:02.575Z</time>
      </trkpt>
      <trkpt lat="46.86274" lon="0.37009">
        <ele>130.64</ele>
        <time>2023-06-08T13:19:18.832Z</time>
      </trkpt>
      <trkpt lat="46.86284" lon="0.36995">
        <ele>130.89</ele>
        <time>2023-06-08T13:19:35.091Z</time>
      </trkpt>
      <trkpt lat="46.86307" lon="0.36964">
        <ele>131.52</ele>
        <time>2023-06-08T13:19:51.355Z</time>
      </trkpt>
      <trkpt lat="46.86327" lon="0.36938">
        <ele>132.08</ele>
        <time>2023-06-08T13:20:07.624Z</time>
      </trkpt>
      <trkpt lat="46.86337" lon="0.36924">
        <ele>132.4</ele>
        <time>2023-06-08T13:20:23.895Z</time>
      </trkpt>
      <trkpt lat="46.86343" lon="0.36915">
        <ele>132.64</ele>
        <time>2023-06-08T13:20:40.167Z</time>
      </trkpt>
      <trkpt lat="46.86356" lon="0.36898">
        <ele>133.18</ele>
        <time>2023-06-08T13:20:56.442Z</time>
      </trkpt>
      <trkpt lat="46.86371" lon="0.36878">
        <ele>133.51</ele>
        <time>2023-06-08T13:21:12.721Z</time>
      </trkpt>
      <trkpt lat="46.86383" lon="0.36862">
        <ele>133.74</ele>
        <time>2023-06-08T13:21:29.002Z</time>
      </trkpt>
      <trkpt lat="46.86393" lon="0.36848">
        <ele>134.11</ele>
        <time>2023-06-08T13:21:45.285Z</time>
      </trkpt>
      <trkpt lat="46.86413" lon="0.36822">
        <ele>134.95</ele>
        <time>2023-06-08T13:22:01.573Z</time>
      </trkpt>
      <trkpt lat="46.86436" lon="0.36791">
        <ele>136</ele>
        <time>2023-06-08T13:22:17.866Z</time>
      </trkpt>
      <trkpt lat="46.86449" lon="0.36773">
        <ele>136.68</ele>
        <time>2023-06-08T13:22:34.161Z</time>
      </trkpt>
      <trkpt lat="46.86466" lon="0.36751">
        <ele>137.63</ele>
        <time>2023-06-08T13:22:50.460Z</time>
      </trkpt>
      <trkpt lat="46.86472" lon="0.36742">
        <ele>138.05</ele>
        <time>2023-06-08T13:23:06.760Z</time>
      </trkpt>
      <trkpt lat="46.86479" lon="0.36733">
        <ele>138.53</ele>
        <time>2023-06-08T13:23:23.062Z</time>
      </trkpt>
      <trkpt lat="46.86492" lon="0.36715">
        <ele>139.54</ele>
        <time>2023-06-08T13:23:39.367Z</time>
      </trkpt>
      <trkpt lat="46.86513" lon="0.36687">
        <ele>141.25</ele>
        <time>2023-06-08T13:23:55.676Z</time>
      </trkpt>
      <trkpt lat="46.86515" lon="0.36684">
        <ele>141.41</ele>
        <time>2023-06-08T13:24:11.986Z</time>
      </trkpt>
      <trkpt lat="46.8653" lon="0.3666">
        <ele>142.72</ele>
        <time>2023-06-08T13:24:28.299Z</time>
      </trkpt>
      <trkpt lat="46.86546" lon="0.36637">
        <ele>144.13</ele>
        <time>2023-06-08T13:24:44.616Z</time>
      </trkpt>
      <trkpt lat="46.86561" lon="0.36613">
        <ele>145.51</ele>
        <time>2023-06-08T13:25:00.937Z</time>
      </trkpt>
      <trkpt lat="46.8657" lon="0.36599">
        <ele>146.38</ele>
        <time>2023-06-08T13:25:17.260Z</time>
      </trkpt>
      <trkpt lat="46.86583" lon="0.3658">
        <ele>147.57</ele>
        <time>2023-06-08T13:25:33.586Z</time>
      </trkpt>
      <trkpt lat="46.86592" lon="0.36566">
        <ele>148.41</ele>
        <time>2023-06-08T13:25:49.914Z</time>
      </trkpt>
      <trkpt lat="46.86611" lon="0.36537">
        <ele>149.89</ele>
        <time>2023-06-08T13:26:06.246Z</time>
      </trkpt>
      <trkpt lat="46.86614" lon="0.36532">
        <ele>150.17</ele>
        <time>2023-06-08T13:26:22.579Z</time>
      </trkpt>
      <trkpt lat="46.86637" lon="0.36506">
        <ele>151.85</ele>
        <time>2023-06-08T13:26:38.917Z</time>
      </trkpt>
      <trkpt lat="46.86654" lon="0.36491">
        <ele>153</ele>
        <time>2023-06-08T13:26:55.258Z</time>
      </trkpt>
      <trkpt lat="46.8666" lon="0.36486">
        <ele>153.35</ele>
        <time>2023-06-08T13:27:11.600Z</time>
      </trkpt>
      <trkpt lat="46.86662" lon="0.36485">
        <ele>153.46</ele>
        <time>2023-06-08T13:27:27.942Z</time>
      </trkpt>
      <trkpt lat="46.86666" lon="0.36482">
        <ele>153.66</ele>
        <time>2023-06-08T13:27:44.285Z</time>
      </trkpt>
      <trkpt lat="46.86674" lon="0.36476">
        <ele>154.02</ele>
        <time>2023-06-08T13:28:00.629Z</time>
      </trkpt>
      <trkpt lat="46.86684" lon="0.36469">
        <ele>154.42</ele>
        <time>2023-06-08T13:28:16.975Z</time>
      </trkpt>
      <trkpt lat="46.8669" lon="0.36464">
        <ele>154.67</ele>
        <time>2023-06-08T13:28:33.322Z</time>
      </trkpt>
      <trkpt lat="46.86698" lon="0.36458">
        <ele>154.98</ele>
        <time>2023-06-08T13:28:49.671Z</time>
      </trkpt>
      <trkpt lat="46.86706" lon="0.36452">
        <ele>155.25</ele>
        <time>2023-06-08T13:29:06.021Z</time>
      </trkpt>
      <trkpt lat="46.86714" lon="0.36446">
        <ele>155.49</ele>
        <time>2023-06-08T13:29:22.372Z</time>
      </trkpt>
      <trkpt lat="46.86741" lon="0.36424">
        <ele>156.23</ele>
        <time>2023-06-08T13:29:38.728Z</time>
      </trkpt>
      <trkpt lat="46.86769" lon="0.36403">
        <ele>156.9</ele>
        <time>2023-06-08T13:29:55.089Z</time>
      </trkpt>
      <trkpt lat="46.86785" lon="0.36391">
        <ele>157.19</ele>
        <time>2023-06-08T13:30:11.453Z</time>
      </trkpt>
      <trkpt lat="46.86819" lon="0.36364">
        <ele>157.7</ele>
        <time>2023-06-08T13:30:27.824Z</time>
      </trkpt>
      <trkpt lat="46.8682" lon="0.36363">
        <ele>157.72</ele>
        <time>2023-06-08T13:30:44.195Z</time>
      </trkpt>
      <trkpt lat="46.86832" lon="0.36353">
        <ele>157.84</ele>
        <time>2023-06-08T13:31:00.568Z</time>
      </trkpt>
      <trkpt lat="46.86838" lon="0.36347">
        <ele>157.89</ele>
        <time>2023-06-08T13:31:16.942Z</time>
      </trkpt>
      <trkpt lat="46.86857" lon="0.36327">
        <ele>158.07</ele>
        <time>2023-06-08T13:31:33.320Z</time>
      </trkpt>
      <trkpt lat="46.8687" lon="0.36308">
        <ele>158.21</ele>
        <time>2023-06-08T13:31:49.701Z</time>
      </trkpt>
      <trkpt lat="46.86877" lon="0.36299">
        <ele>158.26</ele>
        <time>2023-06-08T13:32:06.083Z</time>
      </trkpt>
      <trkpt lat="46.86886" lon="0.36285">
        <ele>158.3</ele>
        <time>2023-06-08T13:32:22.467Z</time>
      </trkpt>
      <trkpt lat="46.86906" lon="0.36258">
        <ele>158.45</ele>
        <time>2023-06-08T13:32:38.856Z</time>
      </trkpt>
      <trkpt lat="46.86915" lon="0.36244">
        <ele>158.54</ele>
        <time>2023-06-08T13:32:55.247Z</time>
      </trkpt>
      <trkpt lat="46.86925" lon="0.36231">
        <ele>158.66</ele>
        <time>2023-06-08T13:33:11.640Z</time>
      </trkpt>
      <trkpt lat="46.86954" lon="0.3619">
        <ele>159.16</ele>
        <time>2023-06-08T13:33:28.040Z</time>
      </trkpt>
      <trkpt lat="46.86973" lon="0.36162">
        <ele>159.54</ele>
        <time>2023-06-08T13:33:44.444Z</time>
      </trkpt>
      <trkpt lat="46.8698" lon="0.36153">
        <ele>159.68</ele>
        <time>2023-06-08T13:34:00.849Z</time>
      </trkpt>
      <trkpt lat="46.87003" lon="0.3612">
        <ele>160.24</ele>
        <time>2023-06-08T13:34:17.259Z</time>
      </trkpt>
      <trkpt lat="46.87005" lon="0.36116">
        <ele>160.3</ele>
        <time>2023-06-08T13:34:33.670Z</time>
      </trkpt>
      <trkpt lat="46.87011" lon="0.36106">
        <ele>160.42</ele>
        <time>2023-06-08T13:34:50.082Z</time>
      </trkpt>
      <trkpt lat="46.87017" lon="0.36096">
        <ele>160.51</ele>
        <time>2023-06-08T13:35:06.496Z</time>
      </trkpt>
      <trkpt lat="46.87019" lon="0.36092">
        <ele>160.52</ele>
        <time>2023-06-08T13:35:22.910Z</time>
      </trkpt>
      <trkpt lat="46.87026" lon="0.36074">
        <ele>160.59</ele>
        <time>2023-06-08T13:35:39.327Z</time>
      </trkpt>
      <trkpt lat="46.87035" lon="0.36052">
        <ele>160.57</ele>
        <time>2023-06-08T13:35:55.747Z</time>
      </trkpt>
      <trkpt lat="46.87042" lon="0.36035">
        <ele>160.48</ele>
        <time>2023-06-08T13:36:12.169Z</time>
      </trkpt>
      <trkpt lat="46.87045" lon="0.36029">
        <ele>160.43</ele>
        <time>2023-06-08T13:36:28.592Z</time>
      </trkpt>
      <trkpt lat="46.87049" lon="0.36018">
        <ele>160.29</ele>
        <time>2023-06-08T13:36:45.016Z</time>
      </trkpt>
      <trkpt lat="46.87054" lon="0.36007">
        <ele>160.42</ele>
        <time>2023-06-08T13:37:01.441Z</time>
      </trkpt>
      <trkpt lat="46.8706" lon="0.35992">
        <ele>160.53</ele>
        <time>2023-06-08T13:37:17.868Z</time>
      </trkpt>
      <trkpt lat="46.87059" lon="0.35991">
        <ele>160.55</ele>
        <time>2023-06-08T13:37:34.296Z</time>
      </trkpt>
      <trkpt lat="46.87047" lon="0.35981">
        <ele>160.72</ele>
        <time>2023-06-08T13:37:50.726Z</time>
      </trkpt>
      <trkpt lat="46.87043" lon="0.35978">
        <ele>160.75</ele>
        <time>2023-06-08T13:38:07.156Z</time>
      </trkpt>
      <trkpt lat="46.87035" lon="0.35971">
        <ele>160.77</ele>
        <time>2023-06-08T13:38:23.588Z</time>
      </trkpt>
      <trkpt lat="46.8702" lon="0.35959">
        <ele>160.71</ele>
        <time>2023-06-08T13:38:40.023Z</time>
      </trkpt>
      <trkpt lat="46.87008" lon="0.35949">
        <ele>160.72</ele>
        <time>2023-06-08T13:38:56.460Z</time>
      </trkpt>
      <trkpt lat="46.87004" lon="0.35946">
        <ele>160.76</ele>
        <time>2023-06-08T13:39:12.898Z</time>
      </trkpt>
      <trkpt lat="46.86992" lon="0.35936">
        <ele>160.94</ele>
        <time>2023-06-08T13:39:29.338Z</time>
      </trkpt>
      <trkpt lat="46.86988" lon="0.35933">
        <ele>160.97</ele>
        <time>2023-06-08T13:39:45.778Z</time>
      </trkpt>
      <trkpt lat="46.86977" lon="0.35923">
        <ele>161</ele>
        <time>2023-06-08T13:40:02.221Z</time>
      </trkpt>
      <trkpt lat="46.86949" lon="0.359">
        <ele>161.12</ele>
        <time>2023-06-08T13:40:18.669Z</time>
      </trkpt>
      <trkpt lat="46.86941" lon="0.35894">
        <ele>161.1</ele>
        <time>2023-06-08T13:40:35.118Z</time>
      </trkpt>
      <trkpt lat="46.8693" lon="0.35884">
        <ele>160.99</ele>
        <time>2023-06-08T13:40:51.569Z</time>
      </trkpt>
      <trkpt lat="46.86922" lon="0.35878">
        <ele>160.95</ele>
        <time>2023-06-08T13:41:08.022Z</time>
      </trkpt>
      <trkpt lat="46.86914" lon="0.35871">
        <ele>160.97</ele>
        <time>2023-06-08T13:41:24.476Z</time>
      </trkpt>
      <trkpt lat="46.86904" lon="0.35863">
        <ele>161.04</ele>
        <time>2023-06-08T13:41:40.932Z</time>
      </trkpt>
      <trkpt lat="46.86902" lon="0.35862">
        <ele>161.06</ele>
        <time>2023-06-08T13:41:57.388Z</time>
      </trkpt>
      <trkpt lat="46.86894" lon="0.35856">
        <ele>161.05</ele>
        <time>2023-06-08T13:42:13.846Z</time>
      </trkpt>
      <trkpt lat="46.86875" lon="0.35841">
        <ele>160.85</ele>
        <time>2023-06-08T13:42:30.307Z</time>
      </trkpt>
      <trkpt lat="46.86867" lon="0.35835">
        <ele>160.82</ele>
        <time>2023-06-08T13:42:46.770Z</time>
      </trkpt>
      <trkpt lat="46.86855" lon="0.35826">
        <ele>160.83</ele>
        <time>2023-06-08T13:43:03.235Z</time>
      </trkpt>
      <trkpt lat="46.86847" lon="0.35819">
        <ele>160.81</ele>
        <time>2023-06-08T13:43:19.701Z</time>
      </trkpt>
      <trkpt lat="46.86839" lon="0.35813">
        <ele>160.76</ele>
        <time>2023-06-08T13:43:36.169Z</time>
      </trkpt>
      <trkpt lat="46.86827" lon="0.35804">
        <ele>160.64</ele>
        <time>2023-06-08T13:43:52.639Z</time>
      </trkpt>
      <trkpt lat="46.86819" lon="0.35798">
        <ele>160.6</ele>
        <time>2023-06-08T13:44:09.110Z</time>
      </trkpt>
      <trkpt lat="46.86811" lon="0.35792">
        <ele>160.65</ele>
        <time>2023-06-08T13:44:25.583Z</time>
      </trkpt>
      <trkpt lat="46.86791" lon="0.35777">
        <ele>160.87</ele>
        <time>2023-06-08T13:44:42.059Z</time>
      </trkpt>
      <trkpt lat="46.86787" lon="0.35774">
        <ele>160.92</ele>
        <time>2023-06-08T13:44:58.536Z</time>
      </trkpt>
      <trkpt lat="46.86775" lon="0.35765">
        <ele>161.13</ele>
        <time>2023-06-08T13:45:15.015Z</time>
      </trkpt>
      <trkpt lat="46.86771" lon="0.35762">
        <ele>161.17</ele>
        <time>2023-06-08T13:45:31.495Z</time>
      </trkpt>
      <trkpt lat="46.86767" lon="0.35759">
        <ele>161.17</ele>
        <time>2023-06-08T13:45:47.976Z</time>
      </trkpt>
      <trkpt lat="46.86747" lon="0.35744">
        <ele>161.03</ele>
        <time>2023-06-08T13:46:04.460Z</time>
      </trkpt>
      <trkpt lat="46.86723" lon="0.35726">
        <ele>160.97</ele>
        <time>2023-06-08T13:46:20.949Z</time>
      </trkpt>
      <trkpt lat="46.86713" lon="0.35718">
        <ele>161.01</ele>
        <time>2023-06-08T13:46:37.439Z</time>
      </trkpt>
      <trkpt lat="46.86707" lon="0.35714">
        <ele>161.04</ele>
        <time>2023-06-08T13:46:53.930Z</time>
      </trkpt>
      <trkpt lat="46.86699" lon="0.35709">
        <ele>161.05</ele>
        <time>2023-06-08T13:47:10.423Z</time>
      </trkpt>
      <trkpt lat="46.86683" lon="0.35698">
        <ele>161.01</ele>
        <time>2023-06-08T13:47:26.919Z</time>
      </trkpt>
      <trkpt lat="46.86675" lon="0.35693">
        <ele>161.02</ele>
        <time>2023-06-08T13:47:43.416Z</time>
      </trkpt>
      <trkpt lat="46.86667" lon="0.35687">
        <ele>161.07</ele>
        <time>2023-06-08T13:47:59.915Z</time>
      </trkpt>
      <trkpt lat="46.86654" lon="0.35679">
        <ele>161.24</ele>
        <time>2023-06-08T13:48:16.416Z</time>
      </trkpt>
      <trkpt lat="46.8665" lon="0.35676">
        <ele>161.28</ele>
        <time>2023-06-08T13:48:32.917Z</time>
      </trkpt>
      <trkpt lat="46.86626" lon="0.3566">
        <ele>161.4</ele>
        <time>2023-06-08T13:48:49.423Z</time>
      </trkpt>
      <trkpt lat="46.86597" lon="0.35641">
        <ele>161.62</ele>
        <time>2023-06-08T13:49:05.934Z</time>
      </trkpt>
      <trkpt lat="46.86577" lon="0.35628">
        <ele>161.72</ele>
        <time>2023-06-08T13:49:22.448Z</time>
      </trkpt>
      <trkpt lat="46.86573" lon="0.35625">
        <ele>161.75</ele>
        <time>2023-06-08T13:49:38.963Z</time>
      </trkpt>
      <trkpt lat="46.86563" lon="0.35612">
        <ele>161.84</ele>
        <time>2023-06-08T13:49:55.480Z</time>
      </trkpt>
      <trkpt lat="46.86556" lon="0.35604">
        <ele>161.93</ele>
        <time>2023-06-08T13:50:11.999Z</time>
      </trkpt>
      <trkpt lat="46.86543" lon="0.35586">
        <ele>162.16</ele>
        <time>2023-06-08T13:50:28.521Z</time>
      </trkpt>
      <trkpt lat="46.86539" lon="0.35582">
        <ele>162.19</ele>
        <time>2023-06-08T13:50:45.043Z</time>
      </trkpt>
      <trkpt lat="46.86533" lon="0.35573">
        <ele>162.21</ele>
        <time>2023-06-08T13:51:01.567Z</time>
      </trkpt>
      <trkpt lat="46.86526" lon="0.35565">
        <ele>162.2</ele>
        <time>2023-06-08T13:51:18.092Z</time>
      </trkpt>
      <trkpt lat="46.86516" lon="0.35552">
        <ele>162.14</ele>
        <time>2023-06-08T13:51:34.619Z</time>
      </trkpt>
      <trkpt lat="46.86499" lon="0.3553">
        <ele>161.99</ele>
        <time>2023-06-08T13:51:51.150Z</time>
      </trkpt>
      <trkpt lat="46.86492" lon="0.35522">
        <ele>161.91</ele>
        <time>2023-06-08T13:52:07.682Z</time>
      </trkpt>
      <trkpt lat="46.86489" lon="0.35518">
        <ele>161.85</ele>
        <time>2023-06-08T13:52:24.215Z</time>
      </trkpt>
      <trkpt lat="46.86479" lon="0.35505">
        <ele>161.57</ele>
        <time>2023-06-08T13:52:40.750Z</time>
      </trkpt>
      <trkpt lat="46.86465" lon="0.35487">
        <ele>161.3</ele>
        <time>2023-06-08T13:52:57.288Z</time>
      </trkpt>
      <trkpt lat="46.86462" lon="0.35483">
        <ele>161.21</ele>
        <time>2023-06-08T13:53:13.827Z</time>
      </trkpt>
      <trkpt lat="46.86458" lon="0.35478">
        <ele>161.05</ele>
        <time>2023-06-08T13:53:30.367Z</time>
      </trkpt>
      <trkpt lat="46.86456" lon="0.35474">
        <ele>160.95</ele>
        <time>2023-06-08T13:53:46.907Z</time>
      </trkpt>
      <trkpt lat="46.86441" lon="0.3545">
        <ele>160.2</ele>
        <time>2023-06-08T13:54:03.451Z</time>
      </trkpt>
      <trkpt lat="46.86423" lon="0.35421">
        <ele>159.4</ele>
        <time>2023-06-08T13:54:19.999Z</time>
      </trkpt>
      <trkpt lat="46.86414" lon="0.35406">
        <ele>158.94</ele>
        <time>2023-06-08T13:54:36.549Z</time>
      </trkpt>
      <trkpt lat="46.86408" lon="0.35396">
        <ele>158.69</ele>
        <time>2023-06-08T13:54:53.101Z</time>
      </trkpt>
      <trkpt lat="46.86399" lon="0.35382">
        <ele>158.45</ele>
        <time>2023-06-08T13:55:09.655Z</time>
      </trkpt>
      <trkpt lat="46.86393" lon="0.35372">
        <ele>158.07</ele>
        <time>2023-06-08T13:55:26.210Z</time>
      </trkpt>
      <trkpt lat="46.8639" lon="0.35367">
        <ele>157.9</ele>
        <time>2023-06-08T13:55:42.766Z</time>
      </trkpt>
      <trkpt lat="46.86385" lon="0.35359">
        <ele>157.65</ele>
        <time>2023-06-08T13:55:59.323Z</time>
      </trkpt>
      <trkpt lat="46.86367" lon="0.35349">
        <ele>157.03</ele>
        <time>2023-06-08T13:56:15.883Z</time>
      </trkpt>
      <trkpt lat="46.86362" lon="0.35347">
        <ele>156.87</ele>
        <time>2023-06-08T13:56:32.444Z</time>
      </trkpt>
      <trkpt lat="46.86358" lon="0.35345">
        <ele>156.69</ele>
        <time>2023-06-08T13:56:49.006Z</time>
      </trkpt>
      <trkpt lat="46.86346" lon="0.35338">
        <ele>156.09</ele>
        <time>2023-06-08T13:57:05.570Z</time>
      </trkpt>
      <trkpt lat="46.86337" lon="0.35333">
        <ele>155.75</ele>
        <time>2023-06-08T13:57:22.135Z</time>
      </trkpt>
      <trkpt lat="46.86325" lon="0.35326">
        <ele>155.31</ele>
        <time>2023-06-08T13:57:38.702Z</time>
      </trkpt>
      <trkpt lat="46.86295" lon="0.35311">
        <ele>154.39</ele>
        <time>2023-06-08T13:57:55.274Z</time>
      </trkpt>
      <trkpt lat="46.86291" lon="0.35308">
        <ele>154.22</ele>
        <time>2023-06-08T13:58:11.847Z</time>
      </trkpt>
      <trkpt lat="46.86287" lon="0.35306">
        <ele>154.02</ele>
        <time>2023-06-08T13:58:28.421Z</time>
      </trkpt>
      <trkpt lat="46.8627" lon="0.35297">
        <ele>153.07</ele>
        <time>2023-06-08T13:58:44.998Z</time>
      </trkpt>
      <trkpt lat="46.86268" lon="0.35296">
        <ele>152.98</ele>
        <time>2023-06-08T13:59:01.575Z</time>
      </trkpt>
      <trkpt lat="46.86266" lon="0.35295">
        <ele>152.86</ele>
        <time>2023-06-08T13:59:18.152Z</time>
      </trkpt>
      <trkpt lat="46.86253" lon="0.35287">
        <ele>152.32</ele>
        <time>2023-06-08T13:59:34.732Z</time>
      </trkpt>
      <trkpt lat="46.86249" lon="0.35285">
        <ele>152.12</ele>
        <time>2023-06-08T13:59:51.312Z</time>
      </trkpt>
      <trkpt lat="46.86228" lon="0.35273">
        <ele>151.04</ele>
        <time>2023-06-08T14:00:07.896Z</time>
      </trkpt>
      <trkpt lat="46.86224" lon="0.35271">
        <ele>150.85</ele>
        <time>2023-06-08T14:00:24.481Z</time>
      </trkpt>
      <trkpt lat="46.86207" lon="0.35261">
        <ele>150.24</ele>
        <time>2023-06-08T14:00:41.069Z</time>
      </trkpt>
      <trkpt lat="46.86199" lon="0.35256">
        <ele>149.98</ele>
        <time>2023-06-08T14:00:57.658Z</time>
      </trkpt>
      <trkpt lat="46.86173" lon="0.35242">
        <ele>149.36</ele>
        <time>2023-06-08T14:01:14.251Z</time>
      </trkpt>
      <trkpt lat="46.86161" lon="0.35235">
        <ele>149.03</ele>
        <time>2023-06-08T14:01:30.846Z</time>
      </trkpt>
      <trkpt lat="46.8614" lon="0.35223">
        <ele>148.41</ele>
        <time>2023-06-08T14:01:47.445Z</time>
      </trkpt>
      <trkpt lat="46.86119" lon="0.35211">
        <ele>147.81</ele>
        <time>2023-06-08T14:02:04.048Z</time>
      </trkpt>
      <trkpt lat="46.86098" lon="0.35199">
        <ele>147.12</ele>
        <time>2023-06-08T14:02:20.654Z</time>
      </trkpt>
      <trkpt lat="46.86081" lon="0.3519">
        <ele>146.45</ele>
        <time>2023-06-08T14:02:37.263Z</time>
      </trkpt>
      <trkpt lat="46.86077" lon="0.35187">
        <ele>146.34</ele>
        <time>2023-06-08T14:02:53.873Z</time>
      </trkpt>
      <trkpt lat="46.86065" lon="0.3518">
        <ele>146.09</ele>
        <time>2023-06-08T14:03:10.485Z</time>
      </trkpt>
      <trkpt lat="46.86048" lon="0.35171">
        <ele>145.7</ele>
        <time>2023-06-08T14:03:27.100Z</time>
      </trkpt>
      <trkpt lat="46.8604" lon="0.35166">
        <ele>145.54</ele>
        <time>2023-06-08T14:03:43.716Z</time>
      </trkpt>
      <trkpt lat="46.86031" lon="0.35161">
        <ele>145.42</ele>
        <time>2023-06-08T14:04:00.334Z</time>
      </trkpt>
      <trkpt lat="46.86031" lon="0.35161">
        <ele>145.42</ele>
        <time>2023-06-08T14:04:16.952Z</time>
      </trkpt>
      <trkpt lat="46.86023" lon="0.35157">
        <ele>145.35</ele>
        <time>2023-06-08T14:04:33.571Z</time>
      </trkpt>
      <trkpt lat="46.86006" lon="0.35149">
        <ele>145.39</ele>
        <time>2023-06-08T14:04:50.193Z</time>
      </trkpt>
      <trkpt lat="46.85997" lon="0.35144">
        <ele>145.38</ele>
        <time>2023-06-08T14:05:06.817Z</time>
      </trkpt>
      <trkpt lat="46.8598" lon="0.35136">
        <ele>145.33</ele>
        <time>2023-06-08T14:05:23.443Z</time>
      </trkpt>
      <trkpt lat="46.85963" lon="0.35128">
        <ele>145.23</ele>
        <time>2023-06-08T14:05:40.072Z</time>
      </trkpt>
      <trkpt lat="46.85946" lon="0.3512">
        <ele>145.2</ele>
        <time>2023-06-08T14:05:56.704Z</time>
      </trkpt>
      <trkpt lat="46.85937" lon="0.35115">
        <ele>145.15</ele>
        <time>2023-06-08T14:06:13.338Z</time>
      </trkpt>
      <trkpt lat="46.85929" lon="0.35111">
        <ele>145.03</ele>
        <time>2023-06-08T14:06:29.973Z</time>
      </trkpt>
      <trkpt lat="46.85925" lon="0.35109">
        <ele>144.94</ele>
        <time>2023-06-08T14:06:46.609Z</time>
      </trkpt>
      <trkpt lat="46.85916" lon="0.35105">
        <ele>144.7</ele>
        <time>2023-06-08T14:07:03.246Z</time>
      </trkpt>
      <trkpt lat="46.85899" lon="0.35098">
        <ele>144.24</ele>
        <time>2023-06-08T14:07:19.886Z</time>
      </trkpt>
      <trkpt lat="46.85895" lon="0.35096">
        <ele>144.14</ele>
        <time>2023-06-08T14:07:36.527Z</time>
      </trkpt>
      <trkpt lat="46.8589" lon="0.35094">
        <ele>144.07</ele>
        <time>2023-06-08T14:07:53.169Z</time>
      </trkpt>
      <trkpt lat="46.85886" lon="0.35092">
        <ele>144.05</ele>
        <time>2023-06-08T14:08:09.811Z</time>
      </trkpt>
      <trkpt lat="46.85873" lon="0.35087">
        <ele>144.1</ele>
        <time>2023-06-08T14:08:26.455Z</time>
      </trkpt>
      <trkpt lat="46.85869" lon="0.35085">
        <ele>144.09</ele>
        <time>2023-06-08T14:08:43.100Z</time>
      </trkpt>
      <trkpt lat="46.85851" lon="0.35078">
        <ele>143.85</ele>
        <time>2023-06-08T14:08:59.748Z</time>
      </trkpt>
      <trkpt lat="46.85847" lon="0.35076">
        <ele>143.83</ele>
        <time>2023-06-08T14:09:16.397Z</time>
      </trkpt>
      <trkpt lat="46.85834" lon="0.35071">
        <ele>143.87</ele>
        <time>2023-06-08T14:09:33.048Z</time>
      </trkpt>
      <trkpt lat="46.85825" lon="0.35067">
        <ele>143.84</ele>
        <time>2023-06-08T14:09:49.700Z</time>
      </trkpt>
      <trkpt lat="46.85817" lon="0.35063">
        <ele>143.78</ele>
        <time>2023-06-08T14:10:06.354Z</time>
      </trkpt>
      <trkpt lat="46.858" lon="0.35056">
        <ele>143.6</ele>
        <time>2023-06-08T14:10:23.011Z</time>
      </trkpt>
      <trkpt lat="46.85791" lon="0.35053">
        <ele>143.53</ele>
        <time>2023-06-08T14:10:39.669Z</time>
      </trkpt>
      <trkpt lat="46.85787" lon="0.35051">
        <ele>143.53</ele>
        <time>2023-06-08T14:10:56.328Z</time>
      </trkpt>
      <trkpt lat="46.85782" lon="0.35049">
        <ele>143.56</ele>
        <time>2023-06-08T14:11:12.987Z</time>
      </trkpt>
      <trkpt lat="46.8578" lon="0.35048">
        <ele>143.59</ele>
        <time>2023-06-08T14:11:29.647Z</time>
      </trkpt>
      <trkpt lat="46.85778" lon="0.35048">
        <ele>143.63</ele>
        <time>2023-06-08T14:11:46.307Z</time>
      </trkpt>
      <trkpt lat="46.8576" lon="0.35046">
        <ele>144.04</ele>
        <time>2023-06-08T14:12:02.970Z</time>
      </trkpt>
      <trkpt lat="46.85752" lon="0.35045">
        <ele>144.26</ele>
        <time>2023-06-08T14:12:19.634Z</time>
      </trkpt>
      <trkpt lat="46.85746" lon="0.35046">
        <ele>144.42</ele>
        <time>2023-06-08T14:12:36.299Z</time>
      </trkpt>
      <trkpt lat="46.85742" lon="0.35046">
        <ele>144.5</ele>
        <time>2023-06-08T14:12:52.965Z</time>
      </trkpt>
      <trkpt lat="46.85737" lon="0.35046">
        <ele>144.54</ele>
        <time>2023-06-08T14:13:09.632Z</time>
      </trkpt>
      <trkpt lat="46.85733" lon="0.35047">
        <ele>144.52</ele>
        <time>2023-06-08T14:13:26.299Z</time>
      </trkpt>
      <trkpt lat="46.85728" lon="0.35047">
        <ele>144.47</ele>
        <time>2023-06-08T14:13:42.967Z</time>
      </trkpt>
      <trkpt lat="46.85712" lon="0.35049">
        <ele>144.22</ele>
        <time>2023-06-08T14:13:59.638Z</time>
      </trkpt>
      <trkpt lat="46.85711" lon="0.3505">
        <ele>144.2</ele>
        <time>2023-06-08T14:14:16.309Z</time>
      </trkpt>
      <trkpt lat="46.85703" lon="0.35055">
        <ele>144.03</ele>
        <time>2023-06-08T14:14:32.981Z</time>
      </trkpt>
      <trkpt lat="46.85694" lon="0.35053">
        <ele>143.86</ele>
        <time>2023-06-08T14:14:49.655Z</time>
      </trkpt>
      <trkpt lat="46.85689" lon="0.35051">
        <ele>143.81</ele>
        <time>2023-06-08T14:15:06.330Z</time>
      </trkpt>
      <trkpt lat="46.85688" lon="0.35051">
        <ele>143.8</ele>
        <time>2023-06-08T14:15:23.005Z</time>
      </trkpt>
      <trkpt lat="46.85685" lon="0.35048">
        <ele>143.79</ele>
        <time>2023-06-08T14:15:39.680Z</time>
      </trkpt>
      <trkpt lat="46.85682" lon="0.35044">
        <ele>143.81</ele>
        <time>2023-06-08T14:15:56.356Z</time>
      </trkpt>
      <trkpt lat="46.85667" lon="0.35028">
        <ele>143.97</ele>
        <time>2023-06-08T14:16:13.035Z</time>
      </trkpt>
      <trkpt lat="46.85646" lon="0.35005">
        <ele>144.12</ele>
        <time>2023-06-08T14:16:29.718Z</time>
      </trkpt>
      <trkpt lat="46.85631" lon="0.34989">
        <ele>144.18</ele>
        <time>2023-06-08T14:16:46.404Z</time>
      </trkpt>
      <trkpt lat="46.85624" lon="0.34983">
        <ele>144.21</ele>
        <time>2023-06-08T14:17:03.092Z</time>
      </trkpt>
      <trkpt lat="46.8562" lon="0.3498">
        <ele>144.24</ele>
        <time>2023-06-08T14:17:19.780Z</time>
      </trkpt>
      <trkpt lat="46.85604" lon="0.34967">
        <ele>144.59</ele>
        <time>2023-06-08T14:17:36.471Z</time>
      </trkpt>
      <trkpt lat="46.856" lon="0.34964">
        <ele>144.65</ele>
        <time>2023-06-08T14:17:53.163Z</time>
      </trkpt>
      <trkpt lat="46.85592" lon="0.34958">
        <ele>144.68</ele>
        <time>2023-06-08T14:18:09.856Z</time>
      </trkpt>
      <trkpt lat="46.85584" lon="0.34951">
        <ele>144.62</ele>
        <time>2023-06-08T14:18:26.551Z</time>
      </trkpt>
      <trkpt lat="46.85576" lon="0.34945">
        <ele>144.51</ele>
        <time>2023-06-08T14:18:43.247Z</time>
      </trkpt>
      <trkpt lat="46.85568" lon="0.34939">
        <ele>144.34</ele>
        <time>2023-06-08T14:18:59.945Z</time>
      </trkpt>
      <trkpt lat="46.85559" lon="0.34931">
        <ele>143.78</ele>
        <time>2023-06-08T14:19:16.644Z</time>
      </trkpt>
      <trkpt lat="46.85557" lon="0.3493">
        <ele>143.69</ele>
        <time>2023-06-08T14:19:33.344Z</time>
      </trkpt>
      <trkpt lat="46.85549" lon="0.34926">
        <ele>143.4</ele>
        <time>2023-06-08T14:19:50.045Z</time>
      </trkpt>
      <trkpt lat="46.85544" lon="0.34927">
        <ele>143.27</ele>
        <time>2023-06-08T14:20:06.747Z</time>
      </trkpt>
      <trkpt lat="46.85544" lon="0.34927">
        <ele>143.27</ele>
        <time>2023-06-08T14:20:23.449Z</time>
      </trkpt>
      <trkpt lat="46.85537" lon="0.3493">
        <ele>142.95</ele>
        <time>2023-06-08T14:20:40.152Z</time>
      </trkpt>
      <trkpt lat="46.85527" lon="0.34942">
        <ele>142.43</ele>
        <time>2023-06-08T14:20:56.857Z</time>
      </trkpt>
      <trkpt lat="46.85526" lon="0.34942">
        <ele>142.43</ele>
        <time>2023-06-08T14:21:13.562Z</time>
      </trkpt>
      <trkpt lat="46.85521" lon="0.34945">
        <ele>142.27</ele>
        <time>2023-06-08T14:21:30.268Z</time>
      </trkpt>
      <trkpt lat="46.85518" lon="0.34945">
        <ele>142.19</ele>
        <time>2023-06-08T14:21:46.975Z</time>
      </trkpt>
      <trkpt lat="46.855" lon="0.34946">
        <ele>141.77</ele>
        <time>2023-06-08T14:22:03.684Z</time>
      </trkpt>
      <trkpt lat="46.85492" lon="0.34947">
        <ele>141.52</ele>
        <time>2023-06-08T14:22:20.395Z</time>
      </trkpt>
      <trkpt lat="46.85483" lon="0.34946">
        <ele>141.26</ele>
        <time>2023-06-08T14:22:37.107Z</time>
      </trkpt>
      <trkpt lat="46.85479" lon="0.34945">
        <ele>141.15</ele>
        <time>2023-06-08T14:22:53.820Z</time>
      </trkpt>
      <trkpt lat="46.85471" lon="0.34938">
        <ele>140.92</ele>
        <time>2023-06-08T14:23:10.534Z</time>
      </trkpt>
      <trkpt lat="46.8546" lon="0.34929">
        <ele>140.5</ele>
        <time>2023-06-08T14:23:27.250Z</time>
      </trkpt>
      <trkpt lat="46.85453" lon="0.34922">
        <ele>140.26</ele>
        <time>2023-06-08T14:23:43.968Z</time>
      </trkpt>
      <trkpt lat="46.85434" lon="0.34906">
        <ele>139.46</ele>
        <time>2023-06-08T14:24:00.689Z</time>
      </trkpt>
      <trkpt lat="46.85435" lon="0.34905">
        <ele>139.43</ele>
        <time>2023-06-08T14:24:17.410Z</time>
      </trkpt>
      <trkpt lat="46.8545" lon="0.34864">
        <ele>139.24</ele>
        <time>2023-06-08T14:24:34.137Z</time>
      </trkpt>
      <trkpt lat="46.85461" lon="0.34837">
        <ele>138.59</ele>
        <time>2023-06-08T14:24:50.867Z</time>
      </trkpt>
      <trkpt lat="46.8546" lon="0.34815">
        <ele>138.13</ele>
        <time>2023-06-08T14:25:07.599Z</time>
      </trkpt>
      <trkpt lat="46.85447" lon="0.34733">
        <ele>136.37</ele>
        <time>2023-06-08T14:25:24.341Z</time>
      </trkpt>
      <trkpt lat="46.85439" lon="0.34626">
        <ele>134.13</ele>
        <time>2023-06-08T14:25:41.094Z</time>
      </trkpt>
      <trkpt lat="46.85438" lon="0.34614">
        <ele>134.19</ele>
        <time>2023-06-08T14:25:57.849Z</time>
      </trkpt>
      <trkpt lat="46.85438" lon="0.34602">
        <ele>134.21</ele>
        <time>2023-06-08T14:26:14.605Z</time>
      </trkpt>
      <trkpt lat="46.85437" lon="0.34595">
        <ele>134.2</ele>
        <time>2023-06-08T14:26:31.362Z</time>
      </trkpt>
      <trkpt lat="46.8544" lon="0.34593">
        <ele>134.2</ele>
        <time>2023-06-08T14:26:48.119Z</time>
      </trkpt>
      <trkpt lat="46.85459" lon="0.34582">
        <ele>134.13</ele>
        <time>2023-06-08T14:27:04.880Z</time>
      </trkpt>
      <trkpt lat="46.85461" lon="0.34581">
        <ele>134.13</ele>
        <time>2023-06-08T14:27:21.641Z</time>
      </trkpt>
      <trkpt lat="46.8547" lon="0.34577">
        <ele>134.15</ele>
        <time>2023-06-08T14:27:38.404Z</time>
      </trkpt>
      <trkpt lat="46.8547" lon="0.34577">
        <ele>134.15</ele>
        <time>2023-06-08T14:27:55.167Z</time>
      </trkpt>
      <trkpt lat="46.85477" lon="0.34577">
        <ele>134.12</ele>
        <time>2023-06-08T14:28:11.931Z</time>
      </trkpt>
      <trkpt lat="46.85477" lon="0.34577">
        <ele>133.98</ele>
        <time>2023-06-08T14:28:28.695Z</time>
      </trkpt>
      <trkpt lat="46.8548" lon="0.34577">
        <ele>133.99</ele>
        <time>2023-06-08T14:28:45.459Z</time>
      </trkpt>
      <trkpt lat="46.85482" lon="0.34577">
        <ele>134</ele>
        <time>2023-06-08T14:29:02.223Z</time>
      </trkpt>
      <trkpt lat="46.85482" lon="0.34577">
        <ele>134.13</ele>
        <time>2023-06-08T14:29:18.987Z</time>
      </trkpt>
      <trkpt lat="46.85485" lon="0.34578">
        <ele>134.15</ele>
        <time>2023-06-08T14:29:35.752Z</time>
      </trkpt>
      <trkpt lat="46.8549" lon="0.34579">
        <ele>134.14</ele>
        <time>2023-06-08T14:29:52.518Z</time>
      </trkpt>
      <trkpt lat="46.85495" lon="0.34583">
        <ele>134.13</ele>
        <time>2023-06-08T14:30:09.285Z</time>
      </trkpt>
      <trkpt lat="46.85498" lon="0.34585">
        <ele>134.1</ele>
        <time>2023-06-08T14:30:26.052Z</time>
      </trkpt>
      <trkpt lat="46.85493" lon="0.34581">
        <ele>134.04</ele>
        <time>2023-06-08T14:30:42.820Z</time>
      </trkpt>
      <trkpt lat="46.8549" lon="0.34579">
        <ele>133.99</ele>
        <time>2023-06-08T14:30:59.589Z</time>
      </trkpt>
      <trkpt lat="46.85484" lon="0.34578">
        <ele>133.89</ele>
        <time>2023-06-08T14:31:16.359Z</time>
      </trkpt>
      <trkpt lat="46.8548" lon="0.34577">
        <ele>133.78</ele>
        <time>2023-06-08T14:31:33.129Z</time>
      </trkpt>
      <trkpt lat="46.8549" lon="0.34563">
        <ele>133.43</ele>
        <time>2023-06-08T14:31:49.901Z</time>
      </trkpt>
      <trkpt lat="46.85497" lon="0.34554">
        <ele>133.11</ele>
        <time>2023-06-08T14:32:06.675Z</time>
      </trkpt>
      <trkpt lat="46.85503" lon="0.34545">
        <ele>132.69</ele>
        <time>2023-06-08T14:32:23.450Z</time>
      </trkpt>
      <trkpt lat="46.85513" lon="0.34532">
        <ele>132.03</ele>
        <time>2023-06-08T14:32:40.227Z</time>
      </trkpt>
      <trkpt lat="46.85523" lon="0.34518">
        <ele>131.3</ele>
        <time>2023-06-08T14:32:57.007Z</time>
      </trkpt>
      <trkpt lat="46.85526" lon="0.34514">
        <ele>131.02</ele>
        <time>2023-06-08T14:33:13.787Z</time>
      </trkpt>
      <trkpt lat="46.85533" lon="0.34505">
        <ele>130.42</ele>
        <time>2023-06-08T14:33:30.569Z</time>
      </trkpt>
      <trkpt lat="46.85534" lon="0.34503">
        <ele>130.29</ele>
        <time>2023-06-08T14:33:47.351Z</time>
      </trkpt>
      <trkpt lat="46.85539" lon="0.34495">
        <ele>129.74</ele>
        <time>2023-06-08T14:34:04.134Z</time>
      </trkpt>
      <trkpt lat="46.85555" lon="0.34472">
        <ele>127.76</ele>
        <time>2023-06-08T14:34:20.921Z</time>
      </trkpt>
      <trkpt lat="46.85561" lon="0.34462">
        <ele>126.92</ele>
        <time>2023-06-08T14:34:37.709Z</time>
      </trkpt>
      <trkpt lat="46.85571" lon="0.34448">
        <ele>125.56</ele>
        <time>2023-06-08T14:34:54.499Z</time>
      </trkpt>
      <trkpt lat="46.85572" lon="0.34446">
        <ele>125.35</ele>
        <time>2023-06-08T14:35:11.290Z</time>
      </trkpt>
      <trkpt lat="46.85579" lon="0.34433">
        <ele>124.23</ele>
        <time>2023-06-08T14:35:28.083Z</time>
      </trkpt>
      <trkpt lat="46.85584" lon="0.34422">
        <ele>123.29</ele>
        <time>2023-06-08T14:35:44.877Z</time>
      </trkpt>
      <trkpt lat="46.85587" lon="0.34417">
        <ele>122.78</ele>
        <time>2023-06-08T14:36:01.672Z</time>
      </trkpt>
      <trkpt lat="46.85591" lon="0.3441">
        <ele>121.99</ele>
        <time>2023-06-08T14:36:18.468Z</time>
      </trkpt>
      <trkpt lat="46.85593" lon="0.34407">
        <ele>121.65</ele>
        <time>2023-06-08T14:36:35.264Z</time>
      </trkpt>
      <trkpt lat="46.85603" lon="0.34394">
        <ele>119.82</ele>
        <time>2023-06-08T14:36:52.062Z</time>
      </trkpt>
      <trkpt lat="46.8561" lon="0.34386">
        <ele>118.64</ele>
        <time>2023-06-08T14:37:08.862Z</time>
      </trkpt>
      <trkpt lat="46.8561" lon="0.34386">
        <ele>118.64</ele>
        <time>2023-06-08T14:37:25.662Z</time>
      </trkpt>
      <trkpt lat="46.85625" lon="0.34372">
        <ele>116.34</ele>
        <time>2023-06-08T14:37:42.465Z</time>
      </trkpt>
      <trkpt lat="46.85637" lon="0.34362">
        <ele>114.68</ele>
        <time>2023-06-08T14:37:59.270Z</time>
      </trkpt>
      <trkpt lat="46.85642" lon="0.34357">
        <ele>113.98</ele>
        <time>2023-06-08T14:38:16.076Z</time>
      </trkpt>
      <trkpt lat="46.85644" lon="0.34354">
        <ele>113.64</ele>
        <time>2023-06-08T14:38:32.882Z</time>
      </trkpt>
      <trkpt lat="46.85648" lon="0.3435">
        <ele>113.15</ele>
        <time>2023-06-08T14:38:49.689Z</time>
      </trkpt>
      <trkpt lat="46.8566" lon="0.34336">
        <ele>111.51</ele>
        <time>2023-06-08T14:39:06.499Z</time>
      </trkpt>
      <trkpt lat="46.85661" lon="0.34333">
        <ele>111.26</ele>
        <time>2023-06-08T14:39:23.309Z</time>
      </trkpt>
      <trkpt lat="46.85664" lon="0.34328">
        <ele>110.82</ele>
        <time>2023-06-08T14:39:40.120Z</time>
      </trkpt>
      <trkpt lat="46.85667" lon="0.34322">
        <ele>110.42</ele>
        <time>2023-06-08T14:39:56.931Z</time>
      </trkpt>
      <trkpt lat="46.85669" lon="0.34317">
        <ele>110.07</ele>
        <time>2023-06-08T14:40:13.743Z</time>
      </trkpt>
      <trkpt lat="46.85672" lon="0.34311">
        <ele>109.77</ele>
        <time>2023-06-08T14:40:30.556Z</time>
      </trkpt>
      <trkpt lat="46.85679" lon="0.34295">
        <ele>109.02</ele>
        <time>2023-06-08T14:40:47.371Z</time>
      </trkpt>
      <trkpt lat="46.85682" lon="0.3429">
        <ele>108.8</ele>
        <time>2023-06-08T14:41:04.187Z</time>
      </trkpt>
      <trkpt lat="46.85687" lon="0.34279">
        <ele>108.44</ele>
        <time>2023-06-08T14:41:21.004Z</time>
      </trkpt>
      <trkpt lat="46.85705" lon="0.34241">
        <ele>107.51</ele>
        <time>2023-06-08T14:41:37.826Z</time>
      </trkpt>
      <trkpt lat="46.8571" lon="0.3423">
        <ele>107.26</ele>
        <time>2023-06-08T14:41:54.650Z</time>
      </trkpt>
      <trkpt lat="46.85718" lon="0.34214">
        <ele>106.93</ele>
        <time>2023-06-08T14:42:11.476Z</time>
      </trkpt>
      <trkpt lat="46.85728" lon="0.34193">
        <ele>106.65</ele>
        <time>2023-06-08T14:42:28.305Z</time>
      </trkpt>
      <trkpt lat="46.8573" lon="0.34188">
        <ele>106.54</ele>
        <time>2023-06-08T14:42:45.134Z</time>
      </trkpt>
      <trkpt lat="46.85736" lon="0.34176">
        <ele>106.24</ele>
        <time>2023-06-08T14:43:01.965Z</time>
      </trkpt>
      <trkpt lat="46.85741" lon="0.34167">
        <ele>105.99</ele>
        <time>2023-06-08T14:43:18.797Z</time>
      </trkpt>
      <trkpt lat="46.85745" lon="0.34162">
        <ele>105.89</ele>
        <time>2023-06-08T14:43:35.630Z</time>
      </trkpt>
      <trkpt lat="46.85748" lon="0.34158">
        <ele>105.83</ele>
        <time>2023-06-08T14:43:52.464Z</time>
      </trkpt>
      <trkpt lat="46.85757" lon="0.34143">
        <ele>105.7</ele>
        <time>2023-06-08T14:44:09.300Z</time>
      </trkpt>
      <trkpt lat="46.85761" lon="0.34136">
        <ele>105.66</ele>
        <time>2023-06-08T14:44:26.137Z</time>
      </trkpt>
      <trkpt lat="46.85767" lon="0.34131">
        <ele>105.62</ele>
        <time>2023-06-08T14:44:42.975Z</time>
      </trkpt>
      <trkpt lat="46.85779" lon="0.34122">
        <ele>105.43</ele>
        <time>2023-06-08T14:44:59.815Z</time>
      </trkpt>
      <trkpt lat="46.85783" lon="0.34119">
        <ele>105.4</ele>
        <time>2023-06-08T14:45:16.656Z</time>
      </trkpt>
      <trkpt lat="46.85784" lon="0.34118">
        <ele>105.4</ele>
        <time>2023-06-08T14:45:33.497Z</time>
      </trkpt>
      <trkpt lat="46.85787" lon="0.34117">
        <ele>105.41</ele>
        <time>2023-06-08T14:45:50.338Z</time>
      </trkpt>
      <trkpt lat="46.85804" lon="0.34112">
        <ele>105.54</ele>
        <time>2023-06-08T14:46:07.182Z</time>
      </trkpt>
      <trkpt lat="46.8581" lon="0.3411">
        <ele>105.61</ele>
        <time>2023-06-08T14:46:24.027Z</time>
      </trkpt>
      <trkpt lat="46.85813" lon="0.3411">
        <ele>105.66</ele>
        <time>2023-06-08T14:46:40.873Z</time>
      </trkpt>
      <trkpt lat="46.85826" lon="0.34111">
        <ele>105.95</ele>
        <time>2023-06-08T14:46:57.721Z</time>
      </trkpt>
      <trkpt lat="46.8584" lon="0.34112">
        <ele>106.2</ele>
        <time>2023-06-08T14:47:14.571Z</time>
      </trkpt>
      <trkpt lat="46.85853" lon="0.34113">
        <ele>106.54</ele>
        <time>2023-06-08T14:47:31.423Z</time>
      </trkpt>
      <trkpt lat="46.85857" lon="0.34113">
        <ele>106.62</ele>
        <time>2023-06-08T14:47:48.276Z</time>
      </trkpt>
      <trkpt lat="46.85862" lon="0.34114">
        <ele>106.65</ele>
        <time>2023-06-08T14:48:05.130Z</time>
      </trkpt>
      <trkpt lat="46.85867" lon="0.34114">
        <ele>106.65</ele>
        <time>2023-06-08T14:48:21.984Z</time>
      </trkpt>
      <trkpt lat="46.85871" lon="0.34113">
        <ele>106.65</ele>
        <time>2023-06-08T14:48:38.839Z</time>
      </trkpt>
      <trkpt lat="46.85875" lon="0.34113">
        <ele>106.61</ele>
        <time>2023-06-08T14:48:55.695Z</time>
      </trkpt>
      <trkpt lat="46.85878" lon="0.34112">
        <ele>106.55</ele>
        <time>2023-06-08T14:49:12.551Z</time>
      </trkpt>
      <trkpt lat="46.85883" lon="0.34106">
        <ele>106.44</ele>
        <time>2023-06-08T14:49:29.408Z</time>
      </trkpt>
      <trkpt lat="46.85884" lon="0.34098">
        <ele>106.34</ele>
        <time>2023-06-08T14:49:46.266Z</time>
      </trkpt>
      <trkpt lat="46.85883" lon="0.34094">
        <ele>106.3</ele>
        <time>2023-06-08T14:50:03.125Z</time>
      </trkpt>
      <trkpt lat="46.85881" lon="0.34088">
        <ele>106.24</ele>
        <time>2023-06-08T14:50:19.984Z</time>
      </trkpt>
      <trkpt lat="46.85877" lon="0.34077">
        <ele>106.18</ele>
        <time>2023-06-08T14:50:36.845Z</time>
      </trkpt>
      <trkpt lat="46.85875" lon="0.3407">
        <ele>106.34</ele>
        <time>2023-06-08T14:50:53.707Z</time>
      </trkpt>
      <trkpt lat="46.85873" lon="0.34045">
        <ele>106.92</ele>
        <time>2023-06-08T14:51:10.571Z</time>
      </trkpt>
      <trkpt lat="46.85876" lon="0.34015">
        <ele>107.61</ele>
        <time>2023-06-08T14:51:27.439Z</time>
      </trkpt>
      <trkpt lat="46.85898" lon="0.3389">
        <ele>110.55</ele>
        <time>2023-06-08T14:51:44.321Z</time>
      </trkpt>
      <trkpt lat="46.85901" lon="0.33836">
        <ele>111.78</ele>
        <time>2023-06-08T14:52:01.209Z</time>
      </trkpt>
      <trkpt lat="46.8591" lon="0.33777">
        <ele>113.16</ele>
        <time>2023-06-08T14:52:18.103Z</time>
      </trkpt>
      <trkpt lat="46.85917" lon="0.33754">
        <ele>113.74</ele>
        <time>2023-06-08T14:52:35.000Z</time>
      </trkpt>
      <trkpt lat="46.85988" lon="0.33637">
        <ele>117.3</ele>
        <time>2023-06-08T14:52:51.914Z</time>
      </trkpt>
      <trkpt lat="46.85998" lon="0.33609">
        <ele>118.02</ele>
        <time>2023-06-08T14:53:08.832Z</time>
      </trkpt>
      <trkpt lat="46.86017" lon="0.33524">
        <ele>120.06</ele>
        <time>2023-06-08T14:53:25.760Z</time>
      </trkpt>
      <trkpt lat="46.86019" lon="0.33491">
        <ele>120.81</ele>
        <time>2023-06-08T14:53:42.691Z</time>
      </trkpt>
      <trkpt lat="46.86015" lon="0.33464">
        <ele>121.44</ele>
        <time>2023-06-08T14:53:59.625Z</time>
      </trkpt>
      <trkpt lat="46.85985" lon="0.33344">
        <ele>124.36</ele>
        <time>2023-06-08T14:54:16.573Z</time>
      </trkpt>
      <trkpt lat="46.85982" lon="0.33312">
        <ele>125.09</ele>
        <time>2023-06-08T14:54:33.525Z</time>
      </trkpt>
      <trkpt lat="46.85984" lon="0.33281">
        <ele>125.8</ele>
        <time>2023-06-08T14:54:50.480Z</time>
      </trkpt>
      <trkpt lat="46.86001" lon="0.33212">
        <ele>127.47</ele>
        <time>2023-06-08T14:55:07.443Z</time>
      </trkpt>
      <trkpt lat="46.86015" lon="0.33171">
        <ele>128.52</ele>
        <time>2023-06-08T14:55:24.411Z</time>
      </trkpt>
      <trkpt lat="46.86032" lon="0.33134">
        <ele>129.53</ele>
        <time>2023-06-08T14:55:41.384Z</time>
      </trkpt>
      <trkpt lat="46.86092" lon="0.33035">
        <ele>132.55</ele>
        <time>2023-06-08T14:55:58.372Z</time>
      </trkpt>
      <trkpt lat="46.86121" lon="0.33008">
        <ele>133.7</ele>
        <time>2023-06-08T14:56:15.365Z</time>
      </trkpt>
      <trkpt lat="46.86161" lon="0.32987">
        <ele>135.11</ele>
        <time>2023-06-08T14:56:32.365Z</time>
      </trkpt>
      <trkpt lat="46.86177" lon="0.32974">
        <ele>135.72</ele>
        <time>2023-06-08T14:56:49.368Z</time>
      </trkpt>
      <trkpt lat="46.86185" lon="0.3296">
        <ele>136.14</ele>
        <time>2023-06-08T14:57:06.373Z</time>
      </trkpt>
      <trkpt lat="46.8619" lon="0.32951">
        <ele>136.57</ele>
        <time>2023-06-08T14:57:23.379Z</time>
      </trkpt>
      <trkpt lat="46.86191" lon="0.3293">
        <ele>137.35</ele>
        <time>2023-06-08T14:57:40.388Z</time>
      </trkpt>
      <trkpt lat="46.862" lon="0.32933">
        <ele>137.84</ele>
        <time>2023-06-08T14:57:57.398Z</time>
      </trkpt>
      <trkpt lat="46.86213" lon="0.32913">
        <ele>138.86</ele>
        <time>2023-06-08T14:58:14.411Z</time>
      </trkpt>
      <trkpt lat="46.86232" lon="0.32876">
        <ele>140.57</ele>
        <time>2023-06-08T14:58:31.429Z</time>
      </trkpt>
      <trkpt lat="46.86278" lon="0.32748">
        <ele>145.91</ele>
        <time>2023-06-08T14:58:48.463Z</time>
      </trkpt>
      <trkpt lat="46.86288" lon="0.32719">
        <ele>145.55</ele>
        <time>2023-06-08T14:59:05.501Z</time>
      </trkpt>
      <trkpt lat="46.86362" lon="0.32357">
        <ele>141.45</ele>
        <time>2023-06-08T14:59:22.580Z</time>
      </trkpt>
      <trkpt lat="46.86368" lon="0.32326">
        <ele>141.81</ele>
        <time>2023-06-08T14:59:39.663Z</time>
      </trkpt>
      <trkpt lat="46.86368" lon="0.32326">
        <ele>141.81</ele>
        <time>2023-06-08T14:59:56.746Z</time>
      </trkpt>
      <trkpt lat="46.86372" lon="0.32331">
        <ele>141.9</ele>
        <time>2023-06-08T15:00:13.829Z</time>
      </trkpt>
      <trkpt lat="46.86378" lon="0.3234">
        <ele>142.11</ele>
        <time>2023-06-08T15:00:30.914Z</time>
      </trkpt>
      <trkpt lat="46.86391" lon="0.32358">
        <ele>142.6</ele>
        <time>2023-06-08T15:00:48.002Z</time>
      </trkpt>
      <trkpt lat="46.86398" lon="0.32367">
        <ele>142.79</ele>
        <time>2023-06-08T15:01:05.091Z</time>
      </trkpt>
      <trkpt lat="46.86405" lon="0.32376">
        <ele>142.9</ele>
        <time>2023-06-08T15:01:22.182Z</time>
      </trkpt>
      <trkpt lat="46.86414" lon="0.32389">
        <ele>143</ele>
        <time>2023-06-08T15:01:39.275Z</time>
      </trkpt>
      <trkpt lat="46.86418" lon="0.32394">
        <ele>143.07</ele>
        <time>2023-06-08T15:01:56.369Z</time>
      </trkpt>
      <trkpt lat="46.86421" lon="0.32398">
        <ele>143.14</ele>
        <time>2023-06-08T15:02:13.463Z</time>
      </trkpt>
      <trkpt lat="46.86429" lon="0.32405">
        <ele>143.38</ele>
        <time>2023-06-08T15:02:30.559Z</time>
      </trkpt>
      <trkpt lat="46.86439" lon="0.32417">
        <ele>143.79</ele>
        <time>2023-06-08T15:02:47.657Z</time>
      </trkpt>
      <trkpt lat="46.86445" lon="0.32423">
        <ele>144.02</ele>
        <time>2023-06-08T15:03:04.756Z</time>
      </trkpt>
      <trkpt lat="46.86455" lon="0.32429">
        <ele>144.4</ele>
        <time>2023-06-08T15:03:21.857Z</time>
      </trkpt>
      <trkpt lat="46.86459" lon="0.32431">
        <ele>144.53</ele>
        <time>2023-06-08T15:03:38.958Z</time>
      </trkpt>
      <trkpt lat="46.86464" lon="0.32434">
        <ele>144.63</ele>
        <time>2023-06-08T15:03:56.060Z</time>
      </trkpt>
      <trkpt lat="46.86464" lon="0.32434">
        <ele>144.63</ele>
        <time>2023-06-08T15:04:13.162Z</time>
      </trkpt>
      <trkpt lat="46.86468" lon="0.32435">
        <ele>144.68</ele>
        <time>2023-06-08T15:04:30.265Z</time>
      </trkpt>
      <trkpt lat="46.86481" lon="0.3244">
        <ele>144.68</ele>
        <time>2023-06-08T15:04:47.370Z</time>
      </trkpt>
      <trkpt lat="46.86486" lon="0.32441">
        <ele>144.71</ele>
        <time>2023-06-08T15:05:04.476Z</time>
      </trkpt>
      <trkpt lat="46.86488" lon="0.32442">
        <ele>144.76</ele>
        <time>2023-06-08T15:05:21.582Z</time>
      </trkpt>
      <trkpt lat="46.8649" lon="0.32442">
        <ele>144.8</ele>
        <time>2023-06-08T15:05:38.688Z</time>
      </trkpt>
      <trkpt lat="46.86494" lon="0.32443">
        <ele>144.93</ele>
        <time>2023-06-08T15:05:55.795Z</time>
      </trkpt>
      <trkpt lat="46.86508" lon="0.32445">
        <ele>145.38</ele>
        <time>2023-06-08T15:06:12.904Z</time>
      </trkpt>
      <trkpt lat="46.86512" lon="0.32446">
        <ele>145.48</ele>
        <time>2023-06-08T15:06:30.014Z</time>
      </trkpt>
      <trkpt lat="46.86517" lon="0.32446">
        <ele>145.55</ele>
        <time>2023-06-08T15:06:47.125Z</time>
      </trkpt>
      <trkpt lat="46.86521" lon="0.32447">
        <ele>145.57</ele>
        <time>2023-06-08T15:07:04.236Z</time>
      </trkpt>
      <trkpt lat="46.8653" lon="0.32448">
        <ele>145.53</ele>
        <time>2023-06-08T15:07:21.349Z</time>
      </trkpt>
      <trkpt lat="46.86535" lon="0.32449">
        <ele>145.46</ele>
        <time>2023-06-08T15:07:38.463Z</time>
      </trkpt>
      <trkpt lat="46.86539" lon="0.3245">
        <ele>145.36</ele>
        <time>2023-06-08T15:07:55.577Z</time>
      </trkpt>
      <trkpt lat="46.86544" lon="0.3245">
        <ele>145.22</ele>
        <time>2023-06-08T15:08:12.692Z</time>
      </trkpt>
      <trkpt lat="46.86547" lon="0.32451">
        <ele>145.09</ele>
        <time>2023-06-08T15:08:29.808Z</time>
      </trkpt>
      <trkpt lat="46.86553" lon="0.32452">
        <ele>144.88</ele>
        <time>2023-06-08T15:08:46.924Z</time>
      </trkpt>
      <trkpt lat="46.86557" lon="0.32453">
        <ele>144.74</ele>
        <time>2023-06-08T15:09:04.041Z</time>
      </trkpt>
      <trkpt lat="46.86561" lon="0.32454">
        <ele>144.66</ele>
        <time>2023-06-08T15:09:21.159Z</time>
      </trkpt>
      <trkpt lat="46.86566" lon="0.32455">
        <ele>144.67</ele>
        <time>2023-06-08T15:09:38.278Z</time>
      </trkpt>
      <trkpt lat="46.8657" lon="0.32455">
        <ele>144.81</ele>
        <time>2023-06-08T15:09:55.397Z</time>
      </trkpt>
      <trkpt lat="46.86575" lon="0.32456">
        <ele>145.04</ele>
        <time>2023-06-08T15:10:12.517Z</time>
      </trkpt>
      <trkpt lat="46.86588" lon="0.32459">
        <ele>145.93</ele>
        <time>2023-06-08T15:10:29.639Z</time>
      </trkpt>
      <trkpt lat="46.86593" lon="0.3246">
        <ele>146.16</ele>
        <time>2023-06-08T15:10:46.762Z</time>
      </trkpt>
      <trkpt lat="46.86597" lon="0.3246">
        <ele>146.31</ele>
        <time>2023-06-08T15:11:03.886Z</time>
      </trkpt>
      <trkpt lat="46.86602" lon="0.32461">
        <ele>146.41</ele>
        <time>2023-06-08T15:11:21.010Z</time>
      </trkpt>
      <trkpt lat="46.86606" lon="0.32462">
        <ele>146.47</ele>
        <time>2023-06-08T15:11:38.135Z</time>
      </trkpt>
      <trkpt lat="46.86615" lon="0.32464">
        <ele>146.55</ele>
        <time>2023-06-08T15:11:55.262Z</time>
      </trkpt>
      <trkpt lat="46.86624" lon="0.32465">
        <ele>146.6</ele>
        <time>2023-06-08T15:12:12.390Z</time>
      </trkpt>
      <trkpt lat="46.86637" lon="0.32468">
        <ele>146.61</ele>
        <time>2023-06-08T15:12:29.520Z</time>
      </trkpt>
      <trkpt lat="46.86646" lon="0.3247">
        <ele>146.59</ele>
        <time>2023-06-08T15:12:46.652Z</time>
      </trkpt>
      <trkpt lat="46.86654" lon="0.32471">
        <ele>146.5</ele>
        <time>2023-06-08T15:13:03.785Z</time>
      </trkpt>
      <trkpt lat="46.8666" lon="0.32473">
        <ele>146.44</ele>
        <time>2023-06-08T15:13:20.919Z</time>
      </trkpt>
      <trkpt lat="46.86673" lon="0.32476">
        <ele>146.21</ele>
        <time>2023-06-08T15:13:38.055Z</time>
      </trkpt>
      <trkpt lat="46.86682" lon="0.32479">
        <ele>146.03</ele>
        <time>2023-06-08T15:13:55.192Z</time>
      </trkpt>
      <trkpt lat="46.86682" lon="0.32479">
        <ele>146.03</ele>
        <time>2023-06-08T15:14:12.329Z</time>
      </trkpt>
      <trkpt lat="46.86699" lon="0.32487">
        <ele>145.53</ele>
        <time>2023-06-08T15:14:29.469Z</time>
      </trkpt>
      <trkpt lat="46.86723" lon="0.32499">
        <ele>144.93</ele>
        <time>2023-06-08T15:14:46.613Z</time>
      </trkpt>
      <trkpt lat="46.86728" lon="0.32502">
        <ele>144.8</ele>
        <time>2023-06-08T15:15:03.758Z</time>
      </trkpt>
      <trkpt lat="46.86732" lon="0.32505">
        <ele>144.68</ele>
        <time>2023-06-08T15:15:20.904Z</time>
      </trkpt>
      <trkpt lat="46.86737" lon="0.32508">
        <ele>144.52</ele>
        <time>2023-06-08T15:15:38.051Z</time>
      </trkpt>
      <trkpt lat="46.86749" lon="0.32515">
        <ele>143.93</ele>
        <time>2023-06-08T15:15:55.200Z</time>
      </trkpt>
      <trkpt lat="46.86753" lon="0.32518">
        <ele>143.76</ele>
        <time>2023-06-08T15:16:12.350Z</time>
      </trkpt>
      <trkpt lat="46.86758" lon="0.32521">
        <ele>143.62</ele>
        <time>2023-06-08T15:16:29.500Z</time>
      </trkpt>
      <trkpt lat="46.86758" lon="0.32521">
        <ele>143.62</ele>
        <time>2023-06-08T15:16:46.650Z</time>
      </trkpt>
      <trkpt lat="46.86761" lon="0.32524">
        <ele>143.52</ele>
        <time>2023-06-08T15:17:03.801Z</time>
      </trkpt>
      <trkpt lat="46.86765" lon="0.32527">
        <ele>143.46</ele>
        <time>2023-06-08T15:17:20.953Z</time>
      </trkpt>
      <trkpt lat="46.86773" lon="0.32534">
        <ele>143.39</ele>
        <time>2023-06-08T15:17:38.106Z</time>
      </trkpt>
      <trkpt lat="46.86777" lon="0.32537">
        <ele>143.33</ele>
        <time>2023-06-08T15:17:55.260Z</time>
      </trkpt>
      <trkpt lat="46.86785" lon="0.32545">
        <ele>143.1</ele>
        <time>2023-06-08T15:18:12.416Z</time>
      </trkpt>
      <trkpt lat="46.86788" lon="0.32548">
        <ele>143.02</ele>
        <time>2023-06-08T15:18:29.572Z</time>
      </trkpt>
      <trkpt lat="46.86791" lon="0.32552">
        <ele>142.95</ele>
        <time>2023-06-08T15:18:46.729Z</time>
      </trkpt>
      <trkpt lat="46.86795" lon="0.32556">
        <ele>142.92</ele>
        <time>2023-06-08T15:19:03.887Z</time>
      </trkpt>
      <trkpt lat="46.86799" lon="0.3256">
        <ele>142.94</ele>
        <time>2023-06-08T15:19:21.045Z</time>
      </trkpt>
      <trkpt lat="46.86806" lon="0.32568">
        <ele>143.04</ele>
        <time>2023-06-08T15:19:38.205Z</time>
      </trkpt>
      <trkpt lat="46.86824" lon="0.32588">
        <ele>141.71</ele>
        <time>2023-06-08T15:19:55.368Z</time>
      </trkpt>
      <trkpt lat="46.86852" lon="0.32542">
        <ele>139.27</ele>
        <time>2023-06-08T15:20:12.538Z</time>
      </trkpt>
      <trkpt lat="46.8694" lon="0.32374">
        <ele>130.86</ele>
        <time>2023-06-08T15:20:29.731Z</time>
      </trkpt>
      <trkpt lat="46.86946" lon="0.32353">
        <ele>129.95</ele>
        <time>2023-06-08T15:20:46.927Z</time>
      </trkpt>
      <trkpt lat="46.86983" lon="0.32255">
        <ele>125.51</ele>
        <time>2023-06-08T15:21:04.135Z</time>
      </trkpt>
      <trkpt lat="46.86985" lon="0.32241">
        <ele>124.94</ele>
        <time>2023-06-08T15:21:21.345Z</time>
      </trkpt>
      <trkpt lat="46.86983" lon="0.32231">
        <ele>124.52</ele>
        <time>2023-06-08T15:21:38.556Z</time>
      </trkpt>
      <trkpt lat="46.86958" lon="0.3221">
        <ele>122.85</ele>
        <time>2023-06-08T15:21:55.771Z</time>
      </trkpt>
      <trkpt lat="46.86955" lon="0.32205">
        <ele>122.59</ele>
        <time>2023-06-08T15:22:12.987Z</time>
      </trkpt>
      <trkpt lat="46.86956" lon="0.32194">
        <ele>122.14</ele>
        <time>2023-06-08T15:22:30.204Z</time>
      </trkpt>
      <trkpt lat="46.86998" lon="0.32106">
        <ele>117.88</ele>
        <time>2023-06-08T15:22:47.433Z</time>
      </trkpt>
      <trkpt lat="46.87024" lon="0.32056">
        <ele>115.38</ele>
        <time>2023-06-08T15:23:04.669Z</time>
      </trkpt>
      <trkpt lat="46.87031" lon="0.32044">
        <ele>115.18</ele>
        <time>2023-06-08T15:23:21.907Z</time>
      </trkpt>
      <trkpt lat="46.87036" lon="0.32029">
        <ele>114.97</ele>
        <time>2023-06-08T15:23:39.147Z</time>
      </trkpt>
      <trkpt lat="46.87043" lon="0.31999">
        <ele>114.57</ele>
        <time>2023-06-08T15:23:56.390Z</time>
      </trkpt>
      <trkpt lat="46.87048" lon="0.31967">
        <ele>114.15</ele>
        <time>2023-06-08T15:24:13.637Z</time>
      </trkpt>
      <trkpt lat="46.8705" lon="0.31937">
        <ele>113.77</ele>
        <time>2023-06-08T15:24:30.887Z</time>
      </trkpt>
      <trkpt lat="46.87046" lon="0.31878">
        <ele>113.02</ele>
        <time>2023-06-08T15:24:48.143Z</time>
      </trkpt>
      <trkpt lat="46.87038" lon="0.31845">
        <ele>112.57</ele>
        <time>2023-06-08T15:25:05.403Z</time>
      </trkpt>
      <trkpt lat="46.87015" lon="0.31776">
        <ele>111.6</ele>
        <time>2023-06-08T15:25:22.672Z</time>
      </trkpt>
      <trkpt lat="46.87001" lon="0.3175">
        <ele>111.18</ele>
        <time>2023-06-08T15:25:39.944Z</time>
      </trkpt>
      <trkpt lat="46.86977" lon="0.31721">
        <ele>110.6</ele>
        <time>2023-06-08T15:25:57.221Z</time>
      </trkpt>
      <trkpt lat="46.86965" lon="0.31715">
        <ele>110.37</ele>
        <time>2023-06-08T15:26:14.500Z</time>
      </trkpt>
      <trkpt lat="46.86955" lon="0.31705">
        <ele>110.14</ele>
        <time>2023-06-08T15:26:31.781Z</time>
      </trkpt>
      <trkpt lat="46.86951" lon="0.31695">
        <ele>110</ele>
        <time>2023-06-08T15:26:49.064Z</time>
      </trkpt>
      <trkpt lat="46.86955" lon="0.31667">
        <ele>109.63</ele>
        <time>2023-06-08T15:27:06.350Z</time>
      </trkpt>
      <trkpt lat="46.86967" lon="0.316">
        <ele>108.76</ele>
        <time>2023-06-08T15:27:23.643Z</time>
      </trkpt>
      <trkpt lat="46.86973" lon="0.31569">
        <ele>108.65</ele>
        <time>2023-06-08T15:27:40.940Z</time>
      </trkpt>
      <trkpt lat="46.86983" lon="0.31508">
        <ele>108.43</ele>
        <time>2023-06-08T15:27:58.244Z</time>
      </trkpt>
      <trkpt lat="46.86984" lon="0.31481">
        <ele>108.34</ele>
        <time>2023-06-08T15:28:15.551Z</time>
      </trkpt>
      <trkpt lat="46.86977" lon="0.31411">
        <ele>108.1</ele>
        <time>2023-06-08T15:28:32.866Z</time>
      </trkpt>
      <trkpt lat="46.86956" lon="0.31324">
        <ele>107.79</ele>
        <time>2023-06-08T15:28:50.191Z</time>
      </trkpt>
      <trkpt lat="46.86957" lon="0.31304">
        <ele>107.72</ele>
        <time>2023-06-08T15:29:07.518Z</time>
      </trkpt>
      <trkpt lat="46.86969" lon="0.31251">
        <ele>107.53</ele>
        <time>2023-06-08T15:29:24.851Z</time>
      </trkpt>
      <trkpt lat="46.86974" lon="0.31217">
        <ele>107.42</ele>
        <time>2023-06-08T15:29:42.188Z</time>
      </trkpt>
      <trkpt lat="46.86975" lon="0.31142">
        <ele>107.16</ele>
        <time>2023-06-08T15:29:59.533Z</time>
      </trkpt>
      <trkpt lat="46.86972" lon="0.31105">
        <ele>107.04</ele>
        <time>2023-06-08T15:30:16.882Z</time>
      </trkpt>
      <trkpt lat="46.86965" lon="0.31056">
        <ele>106.87</ele>
        <time>2023-06-08T15:30:34.237Z</time>
      </trkpt>
      <trkpt lat="46.86967" lon="0.31038">
        <ele>106.81</ele>
        <time>2023-06-08T15:30:51.594Z</time>
      </trkpt>
      <trkpt lat="46.86986" lon="0.3096">
        <ele>106.53</ele>
        <time>2023-06-08T15:31:08.960Z</time>
      </trkpt>
      <trkpt lat="46.87046" lon="0.30757">
        <ele>105.78</ele>
        <time>2023-06-08T15:31:26.350Z</time>
      </trkpt>
      <trkpt lat="46.87048" lon="0.30742">
        <ele>105.73</ele>
        <time>2023-06-08T15:31:43.742Z</time>
      </trkpt>
      <trkpt lat="46.87046" lon="0.30734">
        <ele>105.7</ele>
        <time>2023-06-08T15:32:01.135Z</time>
      </trkpt>
      <trkpt lat="46.87038" lon="0.30723">
        <ele>105.64</ele>
        <time>2023-06-08T15:32:18.529Z</time>
      </trkpt>
      <trkpt lat="46.86976" lon="0.30686">
        <ele>105.31</ele>
        <time>2023-06-08T15:32:35.934Z</time>
      </trkpt>
      <trkpt lat="46.8693" lon="0.30653">
        <ele>105.06</ele>
        <time>2023-06-08T15:32:53.347Z</time>
      </trkpt>
      <trkpt lat="46.86882" lon="0.30627">
        <ele>104.8</ele>
        <time>2023-06-08T15:33:10.768Z</time>
      </trkpt>
      <trkpt lat="46.86812" lon="0.30585">
        <ele>104.43</ele>
        <time>2023-06-08T15:33:28.202Z</time>
      </trkpt>
      <trkpt lat="46.86792" lon="0.30569">
        <ele>104.32</ele>
        <time>2023-06-08T15:33:45.639Z</time>
      </trkpt>
      <trkpt lat="46.86784" lon="0.30562">
        <ele>104.3</ele>
        <time>2023-06-08T15:34:03.078Z</time>
      </trkpt>
      <trkpt lat="46.86782" lon="0.30553">
        <ele>104.28</ele>
        <time>2023-06-08T15:34:20.518Z</time>
      </trkpt>
      <trkpt lat="46.86786" lon="0.30489">
        <ele>104.19</ele>
        <time>2023-06-08T15:34:37.965Z</time>
      </trkpt>
      <trkpt lat="46.86788" lon="0.30389">
        <ele>104.05</ele>
        <time>2023-06-08T15:34:55.423Z</time>
      </trkpt>
      <trkpt lat="46.86785" lon="0.30323">
        <ele>103.96</ele>
        <time>2023-06-08T15:35:12.888Z</time>
      </trkpt>
      <trkpt lat="46.86779" lon="0.30284">
        <ele>103.9</ele>
        <time>2023-06-08T15:35:30.357Z</time>
      </trkpt>
      <trkpt lat="46.86738" lon="0.30078">
        <ele>103.59</ele>
        <time>2023-06-08T15:35:47.850Z</time>
      </trkpt>
      <trkpt lat="46.86734" lon="0.30048">
        <ele>103.55</ele>
        <time>2023-06-08T15:36:05.346Z</time>
      </trkpt>
      <trkpt lat="46.86736" lon="0.29967">
        <ele>103.44</ele>
        <time>2023-06-08T15:36:22.851Z</time>
      </trkpt>
      <trkpt lat="46.86737" lon="0.29934">
        <ele>103.1</ele>
        <time>2023-06-08T15:36:40.360Z</time>
      </trkpt>
      <trkpt lat="46.86735" lon="0.29821">
        <ele>101.97</ele>
        <time>2023-06-08T15:36:57.881Z</time>
      </trkpt>
      <trkpt lat="46.86736" lon="0.29748">
        <ele>101.24</ele>
        <time>2023-06-08T15:37:15.410Z</time>
      </trkpt>
      <trkpt lat="46.86749" lon="0.29649">
        <ele>100.22</ele>
        <time>2023-06-08T15:37:32.950Z</time>
      </trkpt>
      <trkpt lat="46.86749" lon="0.29626">
        <ele>99.99</ele>
        <time>2023-06-08T15:37:50.493Z</time>
      </trkpt>
      <trkpt lat="46.86738" lon="0.29492">
        <ele>98.64</ele>
        <time>2023-06-08T15:38:08.051Z</time>
      </trkpt>
      <trkpt lat="46.86735" lon="0.29458">
        <ele>98.97</ele>
        <time>2023-06-08T15:38:25.612Z</time>
      </trkpt>
      <trkpt lat="46.86734" lon="0.29418">
        <ele>99.36</ele>
        <time>2023-06-08T15:38:43.178Z</time>
      </trkpt>
      <trkpt lat="46.86738" lon="0.29344">
        <ele>100.09</ele>
        <time>2023-06-08T15:39:00.752Z</time>
      </trkpt>
      <trkpt lat="46.8674" lon="0.29311">
        <ele>100.32</ele>
        <time>2023-06-08T15:39:18.330Z</time>
      </trkpt>
      <trkpt lat="46.86746" lon="0.29318">
        <ele>100.4</ele>
        <time>2023-06-08T15:39:35.909Z</time>
      </trkpt>
      <trkpt lat="46.86762" lon="0.29319">
        <ele>100.57</ele>
        <time>2023-06-08T15:39:53.490Z</time>
      </trkpt>
      <trkpt lat="46.86818" lon="0.29312">
        <ele>101.15</ele>
        <time>2023-06-08T15:40:11.080Z</time>
      </trkpt>
      <trkpt lat="46.86852" lon="0.29303">
        <ele>101.51</ele>
        <time>2023-06-08T15:40:28.676Z</time>
      </trkpt>
      <trkpt lat="46.86991" lon="0.29241">
        <ele>103.01</ele>
        <time>2023-06-08T15:40:46.295Z</time>
      </trkpt>
      <trkpt lat="46.87004" lon="0.29237">
        <ele>103.15</ele>
        <time>2023-06-08T15:41:03.916Z</time>
      </trkpt>
      <trkpt lat="46.87026" lon="0.29229">
        <ele>103.59</ele>
        <time>2023-06-08T15:41:21.541Z</time>
      </trkpt>
      <trkpt lat="46.87072" lon="0.29217">
        <ele>104.49</ele>
        <time>2023-06-08T15:41:39.173Z</time>
      </trkpt>
      <trkpt lat="46.87163" lon="0.29181">
        <ele>106.32</ele>
        <time>2023-06-08T15:41:56.821Z</time>
      </trkpt>
      <trkpt lat="46.87217" lon="0.29163">
        <ele>107.4</ele>
        <time>2023-06-08T15:42:14.477Z</time>
      </trkpt>
      <trkpt lat="46.8722" lon="0.29161">
        <ele>107.35</ele>
        <time>2023-06-08T15:42:32.134Z</time>
      </trkpt>
      <trkpt lat="46.87237" lon="0.29156">
        <ele>107.17</ele>
        <time>2023-06-08T15:42:49.794Z</time>
      </trkpt>
      <trkpt lat="46.87239" lon="0.29155">
        <ele>107.14</ele>
        <time>2023-06-08T15:43:07.454Z</time>
      </trkpt>
      <trkpt lat="46.87237" lon="0.2912">
        <ele>106.83</ele>
        <time>2023-06-08T15:43:25.118Z</time>
      </trkpt>
      <trkpt lat="46.87237" lon="0.29115">
        <ele>106.79</ele>
        <time>2023-06-08T15:43:42.782Z</time>
      </trkpt>
      <trkpt lat="46.87234" lon="0.29104">
        <ele>106.7</ele>
        <time>2023-06-08T15:44:00.448Z</time>
      </trkpt>
      <trkpt lat="46.87233" lon="0.29102">
        <ele>106.69</ele>
        <time>2023-06-08T15:44:18.114Z</time>
      </trkpt>
      <trkpt lat="46.87225" lon="0.29087">
        <ele>106.59</ele>
        <time>2023-06-08T15:44:35.782Z</time>
      </trkpt>
      <trkpt lat="46.8722" lon="0.29077">
        <ele>106.56</ele>
        <time>2023-06-08T15:44:53.452Z</time>
      </trkpt>
      <trkpt lat="46.87214" lon="0.29066">
        <ele>106.56</ele>
        <time>2023-06-08T15:45:11.123Z</time>
      </trkpt>
      <trkpt lat="46.87214" lon="0.29066">
        <ele>106.56</ele>
        <time>2023-06-08T15:45:28.794Z</time>
      </trkpt>
      <trkpt lat="46.87212" lon="0.29055">
        <ele>106.51</ele>
        <time>2023-06-08T15:45:46.466Z</time>
      </trkpt>
      <trkpt lat="46.87208" lon="0.29035">
        <ele>106.33</ele>
        <time>2023-06-08T15:46:04.141Z</time>
      </trkpt>
      <trkpt lat="46.87211" lon="0.29033">
        <ele>106.29</ele>
        <time>2023-06-08T15:46:21.816Z</time>
      </trkpt>
      <trkpt lat="46.87215" lon="0.29031">
        <ele>106.26</ele>
        <time>2023-06-08T15:46:39.492Z</time>
      </trkpt>
      <trkpt lat="46.87223" lon="0.29027">
        <ele>106.25</ele>
        <time>2023-06-08T15:46:57.169Z</time>
      </trkpt>
      <trkpt lat="46.87232" lon="0.29023">
        <ele>106.31</ele>
        <time>2023-06-08T15:47:14.848Z</time>
      </trkpt>
      <trkpt lat="46.87252" lon="0.29012">
        <ele>106.57</ele>
        <time>2023-06-08T15:47:32.530Z</time>
      </trkpt>
      <trkpt lat="46.87298" lon="0.28989">
        <ele>107.28</ele>
        <time>2023-06-08T15:47:50.220Z</time>
      </trkpt>
      <trkpt lat="46.87307" lon="0.28984">
        <ele>107.39</ele>
        <time>2023-06-08T15:48:07.911Z</time>
      </trkpt>
      <trkpt lat="46.87315" lon="0.2898">
        <ele>107.47</ele>
        <time>2023-06-08T15:48:25.604Z</time>
      </trkpt>
      <trkpt lat="46.87345" lon="0.28965">
        <ele>107.68</ele>
        <time>2023-06-08T15:48:43.302Z</time>
      </trkpt>
      <trkpt lat="46.87374" lon="0.28949">
        <ele>108.07</ele>
        <time>2023-06-08T15:49:01.005Z</time>
      </trkpt>
      <trkpt lat="46.87395" lon="0.28938">
        <ele>108.23</ele>
        <time>2023-06-08T15:49:18.711Z</time>
      </trkpt>
      <trkpt lat="46.87417" lon="0.28928">
        <ele>108.49</ele>
        <time>2023-06-08T15:49:36.421Z</time>
      </trkpt>
      <trkpt lat="46.87434" lon="0.28919">
        <ele>108.66</ele>
        <time>2023-06-08T15:49:54.134Z</time>
      </trkpt>
      <trkpt lat="46.87441" lon="0.28915">
        <ele>108.75</ele>
        <time>2023-06-08T15:50:11.848Z</time>
      </trkpt>
      <trkpt lat="46.87454" lon="0.28907">
        <ele>108.92</ele>
        <time>2023-06-08T15:50:29.564Z</time>
      </trkpt>
      <trkpt lat="46.87463" lon="0.28902">
        <ele>109.05</ele>
        <time>2023-06-08T15:50:47.282Z</time>
      </trkpt>
      <trkpt lat="46.87475" lon="0.28895">
        <ele>109.3</ele>
        <time>2023-06-08T15:51:05.002Z</time>
      </trkpt>
      <trkpt lat="46.875" lon="0.2888">
        <ele>109.71</ele>
        <time>2023-06-08T15:51:22.726Z</time>
      </trkpt>
      <trkpt lat="46.87525" lon="0.28866">
        <ele>110.07</ele>
        <time>2023-06-08T15:51:40.455Z</time>
      </trkpt>
      <trkpt lat="46.87534" lon="0.28861">
        <ele>110.14</ele>
        <time>2023-06-08T15:51:58.185Z</time>
      </trkpt>
      <trkpt lat="46.87563" lon="0.28844">
        <ele>110.26</ele>
        <time>2023-06-08T15:52:15.920Z</time>
      </trkpt>
      <trkpt lat="46.87579" lon="0.28834">
        <ele>110.42</ele>
        <time>2023-06-08T15:52:33.658Z</time>
      </trkpt>
      <trkpt lat="46.87586" lon="0.2883">
        <ele>110.52</ele>
        <time>2023-06-08T15:52:51.397Z</time>
      </trkpt>
      <trkpt lat="46.87588" lon="0.28829">
        <ele>110.56</ele>
        <time>2023-06-08T15:53:09.136Z</time>
      </trkpt>
      <trkpt lat="46.87592" lon="0.28826">
        <ele>110.67</ele>
        <time>2023-06-08T15:53:26.876Z</time>
      </trkpt>
      <trkpt lat="46.87604" lon="0.28817">
        <ele>111.06</ele>
        <time>2023-06-08T15:53:44.618Z</time>
      </trkpt>
      <trkpt lat="46.87608" lon="0.28814">
        <ele>111.16</ele>
        <time>2023-06-08T15:54:02.361Z</time>
      </trkpt>
      <trkpt lat="46.87612" lon="0.28812">
        <ele>111.23</ele>
        <time>2023-06-08T15:54:20.105Z</time>
      </trkpt>
      <trkpt lat="46.87616" lon="0.28809">
        <ele>111.26</ele>
        <time>2023-06-08T15:54:37.849Z</time>
      </trkpt>
      <trkpt lat="46.8762" lon="0.28806">
        <ele>111.25</ele>
        <time>2023-06-08T15:54:55.594Z</time>
      </trkpt>
      <trkpt lat="46.87624" lon="0.28803">
        <ele>111.19</ele>
        <time>2023-06-08T15:55:13.340Z</time>
      </trkpt>
      <trkpt lat="46.87628" lon="0.288">
        <ele>111.1</ele>
        <time>2023-06-08T15:55:31.087Z</time>
      </trkpt>
      <trkpt lat="46.87644" lon="0.28789">
        <ele>110.55</ele>
        <time>2023-06-08T15:55:48.837Z</time>
      </trkpt>
      <trkpt lat="46.87648" lon="0.28786">
        <ele>110.43</ele>
        <time>2023-06-08T15:56:06.587Z</time>
      </trkpt>
      <trkpt lat="46.87656" lon="0.2878">
        <ele>110.22</ele>
        <time>2023-06-08T15:56:24.339Z</time>
      </trkpt>
      <trkpt lat="46.87668" lon="0.28771">
        <ele>109.95</ele>
        <time>2023-06-08T15:56:42.093Z</time>
      </trkpt>
      <trkpt lat="46.87676" lon="0.28766">
        <ele>109.81</ele>
        <time>2023-06-08T15:56:59.848Z</time>
      </trkpt>
      <trkpt lat="46.87689" lon="0.28757">
        <ele>109.66</ele>
        <time>2023-06-08T15:57:17.605Z</time>
      </trkpt>
      <trkpt lat="46.87713" lon="0.2874">
        <ele>109.32</ele>
        <time>2023-06-08T15:57:35.367Z</time>
      </trkpt>
      <trkpt lat="46.87721" lon="0.28734">
        <ele>109.28</ele>
        <time>2023-06-08T15:57:53.130Z</time>
      </trkpt>
      <trkpt lat="46.87733" lon="0.28725">
        <ele>109.27</ele>
        <time>2023-06-08T15:58:10.895Z</time>
      </trkpt>
      <trkpt lat="46.87737" lon="0.28722">
        <ele>109.24</ele>
        <time>2023-06-08T15:58:28.661Z</time>
      </trkpt>
      <trkpt lat="46.87753" lon="0.28711">
        <ele>109.02</ele>
        <time>2023-06-08T15:58:46.430Z</time>
      </trkpt>
      <trkpt lat="46.87761" lon="0.28705">
        <ele>108.95</ele>
        <time>2023-06-08T15:59:04.200Z</time>
      </trkpt>
      <trkpt lat="46.87769" lon="0.287">
        <ele>108.92</ele>
        <time>2023-06-08T15:59:21.972Z</time>
      </trkpt>
      <trkpt lat="46.87777" lon="0.28694">
        <ele>108.96</ele>
        <time>2023-06-08T15:59:39.745Z</time>
      </trkpt>
      <trkpt lat="46.87798" lon="0.28679">
        <ele>109.26</ele>
        <time>2023-06-08T15:59:57.522Z</time>
      </trkpt>
      <trkpt lat="46.87802" lon="0.28677">
        <ele>109.29</ele>
        <time>2023-06-08T16:00:15.300Z</time>
      </trkpt>
      <trkpt lat="46.87806" lon="0.28674">
        <ele>109.29</ele>
        <time>2023-06-08T16:00:33.078Z</time>
      </trkpt>
      <trkpt lat="46.8781" lon="0.28671">
        <ele>109.26</ele>
        <time>2023-06-08T16:00:50.857Z</time>
      </trkpt>
      <trkpt lat="46.87814" lon="0.28668">
        <ele>109.19</ele>
        <time>2023-06-08T16:01:08.637Z</time>
      </trkpt>
      <trkpt lat="46.87818" lon="0.28665">
        <ele>109.09</ele>
        <time>2023-06-08T16:01:26.417Z</time>
      </trkpt>
      <trkpt lat="46.87822" lon="0.28662">
        <ele>108.95</ele>
        <time>2023-06-08T16:01:44.198Z</time>
      </trkpt>
      <trkpt lat="46.87829" lon="0.28657">
        <ele>108.67</ele>
        <time>2023-06-08T16:02:01.980Z</time>
      </trkpt>
      <trkpt lat="46.87838" lon="0.2865">
        <ele>108.33</ele>
        <time>2023-06-08T16:02:19.764Z</time>
      </trkpt>
      <trkpt lat="46.87849" lon="0.28641">
        <ele>107.9</ele>
        <time>2023-06-08T16:02:37.550Z</time>
      </trkpt>
      <trkpt lat="46.87857" lon="0.28634">
        <ele>107.64</ele>
        <time>2023-06-08T16:02:55.338Z</time>
      </trkpt>
      <trkpt lat="46.87865" lon="0.28628">
        <ele>107.45</ele>
        <time>2023-06-08T16:03:13.127Z</time>
      </trkpt>
      <trkpt lat="46.87885" lon="0.28612">
        <ele>107.11</ele>
        <time>2023-06-08T16:03:30.920Z</time>
      </trkpt>
      <trkpt lat="46.87897" lon="0.28603">
        <ele>106.95</ele>
        <time>2023-06-08T16:03:48.715Z</time>
      </trkpt>
      <trkpt lat="46.87908" lon="0.28593">
        <ele>106.82</ele>
        <time>2023-06-08T16:04:06.512Z</time>
      </trkpt>
      <trkpt lat="46.87916" lon="0.28587">
        <ele>106.69</ele>
        <time>2023-06-08T16:04:24.310Z</time>
      </trkpt>
      <trkpt lat="46.87932" lon="0.28574">
        <ele>106.38</ele>
        <time>2023-06-08T16:04:42.111Z</time>
      </trkpt>
      <trkpt lat="46.87948" lon="0.28561">
        <ele>105.99</ele>
        <time>2023-06-08T16:04:59.915Z</time>
      </trkpt>
      <trkpt lat="46.87956" lon="0.28555">
        <ele>105.83</ele>
        <time>2023-06-08T16:05:17.721Z</time>
      </trkpt>
      <trkpt lat="46.87987" lon="0.2853">
        <ele>105.43</ele>
        <time>2023-06-08T16:05:35.532Z</time>
      </trkpt>
      <trkpt lat="46.88011" lon="0.28511">
        <ele>105.19</ele>
        <time>2023-06-08T16:05:53.348Z</time>
      </trkpt>
      <trkpt lat="46.88038" lon="0.28489">
        <ele>104.81</ele>
        <time>2023-06-08T16:06:11.169Z</time>
      </trkpt>
      <trkpt lat="46.88054" lon="0.28476">
        <ele>104.55</ele>
        <time>2023-06-08T16:06:28.993Z</time>
      </trkpt>
      <trkpt lat="46.88073" lon="0.2846">
        <ele>104.35</ele>
        <time>2023-06-08T16:06:46.820Z</time>
      </trkpt>
      <trkpt lat="46.88077" lon="0.28457">
        <ele>104.28</ele>
        <time>2023-06-08T16:07:04.648Z</time>
      </trkpt>
      <trkpt lat="46.88089" lon="0.28448">
        <ele>103.99</ele>
        <time>2023-06-08T16:07:22.478Z</time>
      </trkpt>
      <trkpt lat="46.88097" lon="0.28441">
        <ele>103.84</ele>
        <time>2023-06-08T16:07:40.309Z</time>
      </trkpt>
      <trkpt lat="46.88117" lon="0.28426">
        <ele>103.63</ele>
        <time>2023-06-08T16:07:58.144Z</time>
      </trkpt>
      <trkpt lat="46.8814" lon="0.28407">
        <ele>103.27</ele>
        <time>2023-06-08T16:08:15.983Z</time>
      </trkpt>
      <trkpt lat="46.8816" lon="0.28391">
        <ele>103.02</ele>
        <time>2023-06-08T16:08:33.826Z</time>
      </trkpt>
      <trkpt lat="46.88175" lon="0.28378">
        <ele>102.88</ele>
        <time>2023-06-08T16:08:51.672Z</time>
      </trkpt>
      <trkpt lat="46.88183" lon="0.28372">
        <ele>102.79</ele>
        <time>2023-06-08T16:09:09.519Z</time>
      </trkpt>
      <trkpt lat="46.88207" lon="0.28353">
        <ele>102.34</ele>
        <time>2023-06-08T16:09:27.371Z</time>
      </trkpt>
      <trkpt lat="46.8823" lon="0.28334">
        <ele>102.02</ele>
        <time>2023-06-08T16:09:45.227Z</time>
      </trkpt>
      <trkpt lat="46.88242" lon="0.28325">
        <ele>101.88</ele>
        <time>2023-06-08T16:10:03.085Z</time>
      </trkpt>
      <trkpt lat="46.88258" lon="0.28312">
        <ele>101.6</ele>
        <time>2023-06-08T16:10:20.946Z</time>
      </trkpt>
      <trkpt lat="46.88281" lon="0.28293">
        <ele>101.33</ele>
        <time>2023-06-08T16:10:38.811Z</time>
      </trkpt>
      <trkpt lat="46.88297" lon="0.2828">
        <ele>101.29</ele>
        <time>2023-06-08T16:10:56.679Z</time>
      </trkpt>
      <trkpt lat="46.88301" lon="0.28277">
        <ele>101.25</ele>
        <time>2023-06-08T16:11:14.548Z</time>
      </trkpt>
      <trkpt lat="46.88305" lon="0.28274">
        <ele>101.18</ele>
        <time>2023-06-08T16:11:32.417Z</time>
      </trkpt>
      <trkpt lat="46.88317" lon="0.28265">
        <ele>100.92</ele>
        <time>2023-06-08T16:11:50.289Z</time>
      </trkpt>
      <trkpt lat="46.88336" lon="0.28249">
        <ele>100.68</ele>
        <time>2023-06-08T16:12:08.164Z</time>
      </trkpt>
      <trkpt lat="46.88344" lon="0.28242">
        <ele>100.55</ele>
        <time>2023-06-08T16:12:26.041Z</time>
      </trkpt>
      <trkpt lat="46.8836" lon="0.2823">
        <ele>100.25</ele>
        <time>2023-06-08T16:12:43.921Z</time>
      </trkpt>
      <trkpt lat="46.88372" lon="0.2822">
        <ele>100.06</ele>
        <time>2023-06-08T16:13:01.803Z</time>
      </trkpt>
      <trkpt lat="46.88399" lon="0.28198">
        <ele>99.76</ele>
        <time>2023-06-08T16:13:19.690Z</time>
      </trkpt>
      <trkpt lat="46.88419" lon="0.28182">
        <ele>99.58</ele>
        <time>2023-06-08T16:13:37.580Z</time>
      </trkpt>
      <trkpt lat="46.88427" lon="0.28176">
        <ele>99.49</ele>
        <time>2023-06-08T16:13:55.472Z</time>
      </trkpt>
      <trkpt lat="46.88435" lon="0.2817">
        <ele>99.35</ele>
        <time>2023-06-08T16:14:13.365Z</time>
      </trkpt>
      <trkpt lat="46.88446" lon="0.2816">
        <ele>99.11</ele>
        <time>2023-06-08T16:14:31.260Z</time>
      </trkpt>
      <trkpt lat="46.88462" lon="0.28148">
        <ele>98.88</ele>
        <time>2023-06-08T16:14:49.158Z</time>
      </trkpt>
      <trkpt lat="46.88478" lon="0.28135">
        <ele>98.58</ele>
        <time>2023-06-08T16:15:07.059Z</time>
      </trkpt>
      <trkpt lat="46.88482" lon="0.28132">
        <ele>98.53</ele>
        <time>2023-06-08T16:15:24.961Z</time>
      </trkpt>
      <trkpt lat="46.88493" lon="0.28122">
        <ele>98.45</ele>
        <time>2023-06-08T16:15:42.865Z</time>
      </trkpt>
      <trkpt lat="46.88497" lon="0.28119">
        <ele>98.4</ele>
        <time>2023-06-08T16:16:00.770Z</time>
      </trkpt>
      <trkpt lat="46.88501" lon="0.28116">
        <ele>98.32</ele>
        <time>2023-06-08T16:16:18.675Z</time>
      </trkpt>
      <trkpt lat="46.88509" lon="0.2811">
        <ele>98.12</ele>
        <time>2023-06-08T16:16:36.582Z</time>
      </trkpt>
      <trkpt lat="46.88513" lon="0.28107">
        <ele>98.04</ele>
        <time>2023-06-08T16:16:54.489Z</time>
      </trkpt>
      <trkpt lat="46.88515" lon="0.28105">
        <ele>98.01</ele>
        <time>2023-06-08T16:17:12.397Z</time>
      </trkpt>
      <trkpt lat="46.88533" lon="0.2809">
        <ele>97.82</ele>
        <time>2023-06-08T16:17:30.308Z</time>
      </trkpt>
      <trkpt lat="46.88552" lon="0.28074">
        <ele>97.46</ele>
        <time>2023-06-08T16:17:48.223Z</time>
      </trkpt>
      <trkpt lat="46.8856" lon="0.28068">
        <ele>97.36</ele>
        <time>2023-06-08T16:18:06.139Z</time>
      </trkpt>
      <trkpt lat="46.88575" lon="0.28055">
        <ele>97.25</ele>
        <time>2023-06-08T16:18:24.058Z</time>
      </trkpt>
      <trkpt lat="46.88591" lon="0.28042">
        <ele>97.05</ele>
        <time>2023-06-08T16:18:41.980Z</time>
      </trkpt>
      <trkpt lat="46.88603" lon="0.28032">
        <ele>96.96</ele>
        <time>2023-06-08T16:18:59.904Z</time>
      </trkpt>
      <trkpt lat="46.88618" lon="0.28019">
        <ele>96.96</ele>
        <time>2023-06-08T16:19:17.831Z</time>
      </trkpt>
      <trkpt lat="46.88622" lon="0.28016">
        <ele>96.94</ele>
        <time>2023-06-08T16:19:35.759Z</time>
      </trkpt>
      <trkpt lat="46.88626" lon="0.28013">
        <ele>96.91</ele>
        <time>2023-06-08T16:19:53.687Z</time>
      </trkpt>
      <trkpt lat="46.88642" lon="0.28">
        <ele>96.73</ele>
        <time>2023-06-08T16:20:11.618Z</time>
      </trkpt>
      <trkpt lat="46.88649" lon="0.27994">
        <ele>96.69</ele>
        <time>2023-06-08T16:20:29.551Z</time>
      </trkpt>
      <trkpt lat="46.88653" lon="0.2799">
        <ele>96.69</ele>
        <time>2023-06-08T16:20:47.484Z</time>
      </trkpt>
      <trkpt lat="46.88673" lon="0.27974">
        <ele>96.81</ele>
        <time>2023-06-08T16:21:05.421Z</time>
      </trkpt>
      <trkpt lat="46.88685" lon="0.27964">
        <ele>96.84</ele>
        <time>2023-06-08T16:21:23.360Z</time>
      </trkpt>
      <trkpt lat="46.88692" lon="0.27958">
        <ele>96.87</ele>
        <time>2023-06-08T16:21:41.301Z</time>
      </trkpt>
      <trkpt lat="46.887" lon="0.27952">
        <ele>96.93</ele>
        <time>2023-06-08T16:21:59.243Z</time>
      </trkpt>
      <trkpt lat="46.88708" lon="0.27946">
        <ele>97.02</ele>
        <time>2023-06-08T16:22:17.186Z</time>
      </trkpt>
      <trkpt lat="46.8872" lon="0.27937">
        <ele>97.19</ele>
        <time>2023-06-08T16:22:35.132Z</time>
      </trkpt>
      <trkpt lat="46.88728" lon="0.2793">
        <ele>97.36</ele>
        <time>2023-06-08T16:22:53.079Z</time>
      </trkpt>
      <trkpt lat="46.8874" lon="0.27921">
        <ele>97.72</ele>
        <time>2023-06-08T16:23:11.028Z</time>
      </trkpt>
      <trkpt lat="46.88752" lon="0.27912">
        <ele>98</ele>
        <time>2023-06-08T16:23:28.979Z</time>
      </trkpt>
      <trkpt lat="46.8876" lon="0.27906">
        <ele>97.76</ele>
        <time>2023-06-08T16:23:46.932Z</time>
      </trkpt>
      <trkpt lat="46.88764" lon="0.27903">
        <ele>97.58</ele>
        <time>2023-06-08T16:24:04.885Z</time>
      </trkpt>
      <trkpt lat="46.88775" lon="0.27893">
        <ele>96.98</ele>
        <time>2023-06-08T16:24:22.841Z</time>
      </trkpt>
      <trkpt lat="46.88783" lon="0.27887">
        <ele>96.68</ele>
        <time>2023-06-08T16:24:40.798Z</time>
      </trkpt>
      <trkpt lat="46.88787" lon="0.27884">
        <ele>96.57</ele>
        <time>2023-06-08T16:24:58.756Z</time>
      </trkpt>
      <trkpt lat="46.88794" lon="0.27879">
        <ele>96.42</ele>
        <time>2023-06-08T16:25:16.715Z</time>
      </trkpt>
      <trkpt lat="46.88795" lon="0.27878">
        <ele>96.39</ele>
        <time>2023-06-08T16:25:34.674Z</time>
      </trkpt>
      <trkpt lat="46.88807" lon="0.27868">
        <ele>96.17</ele>
        <time>2023-06-08T16:25:52.635Z</time>
      </trkpt>
      <trkpt lat="46.88822" lon="0.27855">
        <ele>95.97</ele>
        <time>2023-06-08T16:26:10.599Z</time>
      </trkpt>
      <trkpt lat="46.88834" lon="0.27845">
        <ele>95.88</ele>
        <time>2023-06-08T16:26:28.565Z</time>
      </trkpt>
      <trkpt lat="46.88869" lon="0.27815">
        <ele>95.75</ele>
        <time>2023-06-08T16:26:46.538Z</time>
      </trkpt>
      <trkpt lat="46.88896" lon="0.27792">
        <ele>95.56</ele>
        <time>2023-06-08T16:27:04.516Z</time>
      </trkpt>
      <trkpt lat="46.88912" lon="0.27779">
        <ele>95.49</ele>
        <time>2023-06-08T16:27:22.497Z</time>
      </trkpt>
      <trkpt lat="46.8892" lon="0.27773">
        <ele>95.43</ele>
        <time>2023-06-08T16:27:40.479Z</time>
      </trkpt>
      <trkpt lat="46.88928" lon="0.27766">
        <ele>95.34</ele>
        <time>2023-06-08T16:27:58.463Z</time>
      </trkpt>
      <trkpt lat="46.88943" lon="0.27753">
        <ele>95.09</ele>
        <time>2023-06-08T16:28:16.450Z</time>
      </trkpt>
      <trkpt lat="46.88949" lon="0.27748">
        <ele>95.03</ele>
        <time>2023-06-08T16:28:34.438Z</time>
      </trkpt>
      <trkpt lat="46.88965" lon="0.27731">
        <ele>94.88</ele>
        <time>2023-06-08T16:28:52.429Z</time>
      </trkpt>
      <trkpt lat="46.88987" lon="0.27708">
        <ele>94.56</ele>
        <time>2023-06-08T16:29:10.424Z</time>
      </trkpt>
      <trkpt lat="46.88998" lon="0.27696">
        <ele>94.49</ele>
        <time>2023-06-08T16:29:28.421Z</time>
      </trkpt>
      <trkpt lat="46.89005" lon="0.27687">
        <ele>94.45</ele>
        <time>2023-06-08T16:29:46.420Z</time>
      </trkpt>
      <trkpt lat="46.89015" lon="0.27674">
        <ele>94.36</ele>
        <time>2023-06-08T16:30:04.421Z</time>
      </trkpt>
      <trkpt lat="46.89032" lon="0.27652">
        <ele>94.07</ele>
        <time>2023-06-08T16:30:22.426Z</time>
      </trkpt>
      <trkpt lat="46.89044" lon="0.27636">
        <ele>93.92</ele>
        <time>2023-06-08T16:30:40.433Z</time>
      </trkpt>
      <trkpt lat="46.89048" lon="0.2763">
        <ele>93.87</ele>
        <time>2023-06-08T16:30:58.441Z</time>
      </trkpt>
      <trkpt lat="46.89064" lon="0.27607">
        <ele>93.57</ele>
        <time>2023-06-08T16:31:16.453Z</time>
      </trkpt>
      <trkpt lat="46.89074" lon="0.27593">
        <ele>93.45</ele>
        <time>2023-06-08T16:31:34.467Z</time>
      </trkpt>
      <trkpt lat="46.89093" lon="0.27565">
        <ele>93.14</ele>
        <time>2023-06-08T16:31:52.485Z</time>
      </trkpt>
      <trkpt lat="46.89102" lon="0.27551">
        <ele>93.05</ele>
        <time>2023-06-08T16:32:10.505Z</time>
      </trkpt>
      <trkpt lat="46.89109" lon="0.27542">
        <ele>92.97</ele>
        <time>2023-06-08T16:32:28.527Z</time>
      </trkpt>
      <trkpt lat="46.89111" lon="0.27538">
        <ele>92.92</ele>
        <time>2023-06-08T16:32:46.549Z</time>
      </trkpt>
      <trkpt lat="46.89125" lon="0.2751">
        <ele>92.64</ele>
        <time>2023-06-08T16:33:04.575Z</time>
      </trkpt>
      <trkpt lat="46.89127" lon="0.27505">
        <ele>92.6</ele>
        <time>2023-06-08T16:33:22.602Z</time>
      </trkpt>
      <trkpt lat="46.89135" lon="0.27489">
        <ele>92.55</ele>
        <time>2023-06-08T16:33:40.631Z</time>
      </trkpt>
      <trkpt lat="46.8914" lon="0.27478">
        <ele>92.49</ele>
        <time>2023-06-08T16:33:58.661Z</time>
      </trkpt>
      <trkpt lat="46.89144" lon="0.27471">
        <ele>92.43</ele>
        <time>2023-06-08T16:34:16.692Z</time>
      </trkpt>
      <trkpt lat="46.89155" lon="0.27445">
        <ele>92.24</ele>
        <time>2023-06-08T16:34:34.727Z</time>
      </trkpt>
      <trkpt lat="46.89164" lon="0.27423">
        <ele>92.04</ele>
        <time>2023-06-08T16:34:52.765Z</time>
      </trkpt>
      <trkpt lat="46.89169" lon="0.27411">
        <ele>92</ele>
        <time>2023-06-08T16:35:10.804Z</time>
      </trkpt>
      <trkpt lat="46.89178" lon="0.27389">
        <ele>92.04</ele>
        <time>2023-06-08T16:35:28.846Z</time>
      </trkpt>
      <trkpt lat="46.89181" lon="0.27383">
        <ele>92.02</ele>
        <time>2023-06-08T16:35:46.889Z</time>
      </trkpt>
      <trkpt lat="46.89183" lon="0.27378">
        <ele>91.97</ele>
        <time>2023-06-08T16:36:04.932Z</time>
      </trkpt>
      <trkpt lat="46.89196" lon="0.27336">
        <ele>91.62</ele>
        <time>2023-06-08T16:36:22.980Z</time>
      </trkpt>
      <trkpt lat="46.89208" lon="0.273">
        <ele>91.47</ele>
        <time>2023-06-08T16:36:41.033Z</time>
      </trkpt>
      <trkpt lat="46.89212" lon="0.27286">
        <ele>91.36</ele>
        <time>2023-06-08T16:36:59.088Z</time>
      </trkpt>
      <trkpt lat="46.89213" lon="0.27282">
        <ele>91.33</ele>
        <time>2023-06-08T16:37:17.143Z</time>
      </trkpt>
      <trkpt lat="46.89221" lon="0.27251">
        <ele>91.15</ele>
        <time>2023-06-08T16:37:35.202Z</time>
      </trkpt>
      <trkpt lat="46.89228" lon="0.27227">
        <ele>90.98</ele>
        <time>2023-06-08T16:37:53.263Z</time>
      </trkpt>
      <trkpt lat="46.89231" lon="0.27215">
        <ele>90.94</ele>
        <time>2023-06-08T16:38:11.326Z</time>
      </trkpt>
      <trkpt lat="46.89234" lon="0.27204">
        <ele>90.92</ele>
        <time>2023-06-08T16:38:29.390Z</time>
      </trkpt>
      <trkpt lat="46.89235" lon="0.27196">
        <ele>90.91</ele>
        <time>2023-06-08T16:38:47.455Z</time>
      </trkpt>
      <trkpt lat="46.8924" lon="0.27171">
        <ele>90.8</ele>
        <time>2023-06-08T16:39:05.523Z</time>
      </trkpt>
      <trkpt lat="46.89248" lon="0.27119">
        <ele>90.62</ele>
        <time>2023-06-08T16:39:23.597Z</time>
      </trkpt>
      <trkpt lat="46.89256" lon="0.27075">
        <ele>90.38</ele>
        <time>2023-06-08T16:39:41.676Z</time>
      </trkpt>
      <trkpt lat="46.89261" lon="0.27042">
        <ele>90.27</ele>
        <time>2023-06-08T16:39:59.758Z</time>
      </trkpt>
      <trkpt lat="46.89261" lon="0.27042">
        <ele>90.27</ele>
        <time>2023-06-08T16:40:17.840Z</time>
      </trkpt>
      <trkpt lat="46.89262" lon="0.2703">
        <ele>90.27</ele>
        <time>2023-06-08T16:40:35.924Z</time>
      </trkpt>
      <trkpt lat="46.89263" lon="0.27017">
        <ele>90.3</ele>
        <time>2023-06-08T16:40:54.009Z</time>
      </trkpt>
      <trkpt lat="46.89264" lon="0.27004">
        <ele>90.37</ele>
        <time>2023-06-08T16:41:12.096Z</time>
      </trkpt>
      <trkpt lat="46.89265" lon="0.2699">
        <ele>90.47</ele>
        <time>2023-06-08T16:41:30.184Z</time>
      </trkpt>
      <trkpt lat="46.89266" lon="0.26977">
        <ele>90.6</ele>
        <time>2023-06-08T16:41:48.274Z</time>
      </trkpt>
      <trkpt lat="46.89267" lon="0.26951">
        <ele>91.01</ele>
        <time>2023-06-08T16:42:06.366Z</time>
      </trkpt>
      <trkpt lat="46.89268" lon="0.26938">
        <ele>90.73</ele>
        <time>2023-06-08T16:42:24.460Z</time>
      </trkpt>
      <trkpt lat="46.89269" lon="0.26925">
        <ele>90.41</ele>
        <time>2023-06-08T16:42:42.555Z</time>
      </trkpt>
      <trkpt lat="46.8927" lon="0.26919">
        <ele>90.27</ele>
        <time>2023-06-08T16:43:00.651Z</time>
      </trkpt>
      <trkpt lat="46.8927" lon="0.26912">
        <ele>90.17</ele>
        <time>2023-06-08T16:43:18.748Z</time>
      </trkpt>
      <trkpt lat="46.89271" lon="0.269">
        <ele>90.03</ele>
        <time>2023-06-08T16:43:36.846Z</time>
      </trkpt>
      <trkpt lat="46.89271" lon="0.26899">
        <ele>90.03</ele>
        <time>2023-06-08T16:43:54.944Z</time>
      </trkpt>
      <trkpt lat="46.89269" lon="0.2686">
        <ele>89.81</ele>
        <time>2023-06-08T16:44:13.047Z</time>
      </trkpt>
      <trkpt lat="46.89268" lon="0.26847">
        <ele>89.76</ele>
        <time>2023-06-08T16:44:31.151Z</time>
      </trkpt>
      <trkpt lat="46.89267" lon="0.26827">
        <ele>89.76</ele>
        <time>2023-06-08T16:44:49.257Z</time>
      </trkpt>
      <trkpt lat="46.89265" lon="0.26788">
        <ele>89.72</ele>
        <time>2023-06-08T16:45:07.367Z</time>
      </trkpt>
      <trkpt lat="46.89265" lon="0.26775">
        <ele>89.68</ele>
        <time>2023-06-08T16:45:25.479Z</time>
      </trkpt>
      <trkpt lat="46.89263" lon="0.26755">
        <ele>89.58</ele>
        <time>2023-06-08T16:45:43.593Z</time>
      </trkpt>
      <trkpt lat="46.89262" lon="0.26723">
        <ele>89.49</ele>
        <time>2023-06-08T16:46:01.711Z</time>
      </trkpt>
      <trkpt lat="46.8926" lon="0.2669">
        <ele>89.52</ele>
        <time>2023-06-08T16:46:19.832Z</time>
      </trkpt>
      <trkpt lat="46.89258" lon="0.26644">
        <ele>89.46</ele>
        <time>2023-06-08T16:46:37.958Z</time>
      </trkpt>
      <trkpt lat="46.89256" lon="0.26611">
        <ele>89.62</ele>
        <time>2023-06-08T16:46:56.088Z</time>
      </trkpt>
      <trkpt lat="46.89255" lon="0.26592">
        <ele>89.66</ele>
        <time>2023-06-08T16:47:14.220Z</time>
      </trkpt>
      <trkpt lat="46.89253" lon="0.26559">
        <ele>89.8</ele>
        <time>2023-06-08T16:47:32.356Z</time>
      </trkpt>
      <trkpt lat="46.89251" lon="0.26513">
        <ele>89.92</ele>
        <time>2023-06-08T16:47:50.497Z</time>
      </trkpt>
      <trkpt lat="46.8925" lon="0.26487">
        <ele>90.06</ele>
        <time>2023-06-08T16:48:08.641Z</time>
      </trkpt>
      <trkpt lat="46.89249" lon="0.26467">
        <ele>90.21</ele>
        <time>2023-06-08T16:48:26.787Z</time>
      </trkpt>
      <trkpt lat="46.89247" lon="0.26441">
        <ele>90.37</ele>
        <time>2023-06-08T16:48:44.936Z</time>
      </trkpt>
      <trkpt lat="46.89247" lon="0.26435">
        <ele>90.43</ele>
        <time>2023-06-08T16:49:03.085Z</time>
      </trkpt>
      <trkpt lat="46.89246" lon="0.26422">
        <ele>90.63</ele>
        <time>2023-06-08T16:49:21.236Z</time>
      </trkpt>
      <trkpt lat="46.89246" lon="0.26418">
        <ele>90.7</ele>
        <time>2023-06-08T16:49:39.387Z</time>
      </trkpt>
      <trkpt lat="46.89245" lon="0.26409">
        <ele>90.9</ele>
        <time>2023-06-08T16:49:57.539Z</time>
      </trkpt>
      <trkpt lat="46.89243" lon="0.26389">
        <ele>91.34</ele>
        <time>2023-06-08T16:50:15.693Z</time>
      </trkpt>
      <trkpt lat="46.89242" lon="0.26377">
        <ele>91.33</ele>
        <time>2023-06-08T16:50:33.849Z</time>
      </trkpt>
      <trkpt lat="46.8924" lon="0.26351">
        <ele>91.2</ele>
        <time>2023-06-08T16:50:52.008Z</time>
      </trkpt>
      <trkpt lat="46.89238" lon="0.26339">
        <ele>91.16</ele>
        <time>2023-06-08T16:51:10.168Z</time>
      </trkpt>
      <trkpt lat="46.89238" lon="0.26332">
        <ele>91.16</ele>
        <time>2023-06-08T16:51:28.329Z</time>
      </trkpt>
      <trkpt lat="46.89232" lon="0.26276">
        <ele>91.38</ele>
        <time>2023-06-08T16:51:46.496Z</time>
      </trkpt>
      <trkpt lat="46.8923" lon="0.26256">
        <ele>91.62</ele>
        <time>2023-06-08T16:52:04.665Z</time>
      </trkpt>
      <trkpt lat="46.8923" lon="0.2625">
        <ele>91.67</ele>
        <time>2023-06-08T16:52:22.835Z</time>
      </trkpt>
      <trkpt lat="46.89229" lon="0.26243">
        <ele>91.68</ele>
        <time>2023-06-08T16:52:41.006Z</time>
      </trkpt>
      <trkpt lat="46.89228" lon="0.26237">
        <ele>91.66</ele>
        <time>2023-06-08T16:52:59.177Z</time>
      </trkpt>
      <trkpt lat="46.89227" lon="0.26224">
        <ele>91.58</ele>
        <time>2023-06-08T16:53:17.350Z</time>
      </trkpt>
      <trkpt lat="46.89226" lon="0.26211">
        <ele>91.55</ele>
        <time>2023-06-08T16:53:35.524Z</time>
      </trkpt>
      <trkpt lat="46.89225" lon="0.26198">
        <ele>91.59</ele>
        <time>2023-06-08T16:53:53.700Z</time>
      </trkpt>
      <trkpt lat="46.89223" lon="0.26178">
        <ele>91.69</ele>
        <time>2023-06-08T16:54:11.878Z</time>
      </trkpt>
      <trkpt lat="46.89222" lon="0.26165">
        <ele>91.72</ele>
        <time>2023-06-08T16:54:30.057Z</time>
      </trkpt>
      <trkpt lat="46.89218" lon="0.26129">
        <ele>91.65</ele>
        <time>2023-06-08T16:54:48.240Z</time>
      </trkpt>
      <trkpt lat="46.89218" lon="0.26126">
        <ele>91.65</ele>
        <time>2023-06-08T16:55:06.424Z</time>
      </trkpt>
      <trkpt lat="46.89216" lon="0.261">
        <ele>91.54</ele>
        <time>2023-06-08T16:55:24.610Z</time>
      </trkpt>
      <trkpt lat="46.89216" lon="0.26087">
        <ele>91.54</ele>
        <time>2023-06-08T16:55:42.798Z</time>
      </trkpt>
      <trkpt lat="46.89214" lon="0.26061">
        <ele>91.77</ele>
        <time>2023-06-08T16:56:00.989Z</time>
      </trkpt>
      <trkpt lat="46.89213" lon="0.26048">
        <ele>91.83</ele>
        <time>2023-06-08T16:56:19.181Z</time>
      </trkpt>
      <trkpt lat="46.89212" lon="0.26022">
        <ele>91.83</ele>
        <time>2023-06-08T16:56:37.376Z</time>
      </trkpt>
      <trkpt lat="46.89211" lon="0.26002">
        <ele>91.86</ele>
        <time>2023-06-08T16:56:55.573Z</time>
      </trkpt>
      <trkpt lat="46.89209" lon="0.25976">
        <ele>91.97</ele>
        <time>2023-06-08T16:57:13.773Z</time>
      </trkpt>
      <trkpt lat="46.89207" lon="0.2595">
        <ele>91.95</ele>
        <time>2023-06-08T16:57:31.976Z</time>
      </trkpt>
      <trkpt lat="46.89207" lon="0.25943">
        <ele>91.97</ele>
        <time>2023-06-08T16:57:50.180Z</time>
      </trkpt>
      <trkpt lat="46.89206" lon="0.25931">
        <ele>92.09</ele>
        <time>2023-06-08T16:58:08.385Z</time>
      </trkpt>
      <trkpt lat="46.89205" lon="0.25911">
        <ele>92.35</ele>
        <time>2023-06-08T16:58:26.592Z</time>
      </trkpt>
      <trkpt lat="46.89205" lon="0.25904">
        <ele>92.41</ele>
        <time>2023-06-08T16:58:44.800Z</time>
      </trkpt>
      <trkpt lat="46.89204" lon="0.25898">
        <ele>92.44</ele>
        <time>2023-06-08T16:59:03.009Z</time>
      </trkpt>
      <trkpt lat="46.89204" lon="0.25891">
        <ele>92.43</ele>
        <time>2023-06-08T16:59:21.218Z</time>
      </trkpt>
      <trkpt lat="46.89203" lon="0.25872">
        <ele>92.33</ele>
        <time>2023-06-08T16:59:39.430Z</time>
      </trkpt>
      <trkpt lat="46.89202" lon="0.25865">
        <ele>92.31</ele>
        <time>2023-06-08T16:59:57.642Z</time>
      </trkpt>
      <trkpt lat="46.89201" lon="0.25846">
        <ele>92.33</ele>
        <time>2023-06-08T17:00:15.856Z</time>
      </trkpt>
      <trkpt lat="46.892" lon="0.25826">
        <ele>92.27</ele>
        <time>2023-06-08T17:00:34.073Z</time>
      </trkpt>
      <trkpt lat="46.892" lon="0.25819">
        <ele>92.21</ele>
        <time>2023-06-08T17:00:52.290Z</time>
      </trkpt>
      <trkpt lat="46.89198" lon="0.25787">
        <ele>91.83</ele>
        <time>2023-06-08T17:01:10.511Z</time>
      </trkpt>
      <trkpt lat="46.89198" lon="0.25781">
        <ele>91.78</ele>
        <time>2023-06-08T17:01:28.733Z</time>
      </trkpt>
      <trkpt lat="46.89197" lon="0.25774">
        <ele>91.75</ele>
        <time>2023-06-08T17:01:46.955Z</time>
      </trkpt>
      <trkpt lat="46.89194" lon="0.25728">
        <ele>91.8</ele>
        <time>2023-06-08T17:02:05.182Z</time>
      </trkpt>
      <trkpt lat="46.89191" lon="0.25676">
        <ele>91.96</ele>
        <time>2023-06-08T17:02:23.415Z</time>
      </trkpt>
      <trkpt lat="46.8919" lon="0.2565">
        <ele>92.06</ele>
        <time>2023-06-08T17:02:41.651Z</time>
      </trkpt>
      <trkpt lat="46.89189" lon="0.25643">
        <ele>92.05</ele>
        <time>2023-06-08T17:02:59.888Z</time>
      </trkpt>
      <trkpt lat="46.89189" lon="0.2563">
        <ele>91.99</ele>
        <time>2023-06-08T17:03:18.126Z</time>
      </trkpt>
      <trkpt lat="46.89188" lon="0.25617">
        <ele>91.96</ele>
        <time>2023-06-08T17:03:36.366Z</time>
      </trkpt>
      <trkpt lat="46.89187" lon="0.25604">
        <ele>91.95</ele>
        <time>2023-06-08T17:03:54.607Z</time>
      </trkpt>
      <trkpt lat="46.89186" lon="0.25591">
        <ele>91.96</ele>
        <time>2023-06-08T17:04:12.849Z</time>
      </trkpt>
      <trkpt lat="46.89184" lon="0.25558">
        <ele>92.08</ele>
        <time>2023-06-08T17:04:31.095Z</time>
      </trkpt>
      <trkpt lat="46.89183" lon="0.25539">
        <ele>92.19</ele>
        <time>2023-06-08T17:04:49.343Z</time>
      </trkpt>
      <trkpt lat="46.89182" lon="0.25519">
        <ele>92.35</ele>
        <time>2023-06-08T17:05:07.593Z</time>
      </trkpt>
      <trkpt lat="46.89181" lon="0.25493">
        <ele>92.71</ele>
        <time>2023-06-08T17:05:25.846Z</time>
      </trkpt>
      <trkpt lat="46.8918" lon="0.2548">
        <ele>92.85</ele>
        <time>2023-06-08T17:05:44.101Z</time>
      </trkpt>
      <trkpt lat="46.89178" lon="0.25447">
        <ele>93.06</ele>
        <time>2023-06-08T17:06:02.359Z</time>
      </trkpt>
      <trkpt lat="46.89176" lon="0.25421">
        <ele>93.12</ele>
        <time>2023-06-08T17:06:20.620Z</time>
      </trkpt>
      <trkpt lat="46.89175" lon="0.25395">
        <ele>93.25</ele>
        <time>2023-06-08T17:06:38.884Z</time>
      </trkpt>
      <trkpt lat="46.89174" lon="0.25382">
        <ele>93.41</ele>
        <time>2023-06-08T17:06:57.149Z</time>
      </trkpt>
      <trkpt lat="46.89173" lon="0.25363">
        <ele>93.72</ele>
        <time>2023-06-08T17:07:15.417Z</time>
      </trkpt>
      <trkpt lat="46.89172" lon="0.25349">
        <ele>93.84</ele>
        <time>2023-06-08T17:07:33.686Z</time>
      </trkpt>
      <trkpt lat="46.8917" lon="0.2531">
        <ele>94.06</ele>
        <time>2023-06-08T17:07:51.959Z</time>
      </trkpt>
      <trkpt lat="46.89167" lon="0.25258">
        <ele>94.41</ele>
        <time>2023-06-08T17:08:10.238Z</time>
      </trkpt>
      <trkpt lat="46.89165" lon="0.25219">
        <ele>94.59</ele>
        <time>2023-06-08T17:08:28.521Z</time>
      </trkpt>
      <trkpt lat="46.89161" lon="0.2516">
        <ele>95.05</ele>
        <time>2023-06-08T17:08:46.811Z</time>
      </trkpt>
      <trkpt lat="46.89159" lon="0.25127">
        <ele>95.36</ele>
        <time>2023-06-08T17:09:05.105Z</time>
      </trkpt>
      <trkpt lat="46.89159" lon="0.25121">
        <ele>95.4</ele>
        <time>2023-06-08T17:09:23.399Z</time>
      </trkpt>
      <trkpt lat="46.89158" lon="0.25101">
        <ele>95.47</ele>
        <time>2023-06-08T17:09:41.695Z</time>
      </trkpt>
      <trkpt lat="46.89157" lon="0.25095">
        <ele>95.52</ele>
        <time>2023-06-08T17:09:59.992Z</time>
      </trkpt>
      <trkpt lat="46.89157" lon="0.25088">
        <ele>95.6</ele>
        <time>2023-06-08T17:10:18.290Z</time>
      </trkpt>
      <trkpt lat="46.89156" lon="0.25075">
        <ele>95.79</ele>
        <time>2023-06-08T17:10:36.589Z</time>
      </trkpt>
      <trkpt lat="46.89155" lon="0.25062">
        <ele>96.07</ele>
        <time>2023-06-08T17:10:54.890Z</time>
      </trkpt>
      <trkpt lat="46.89155" lon="0.25056">
        <ele>96.26</ele>
        <time>2023-06-08T17:11:13.191Z</time>
      </trkpt>
      <trkpt lat="46.89155" lon="0.25049">
        <ele>96.5</ele>
        <time>2023-06-08T17:11:31.493Z</time>
      </trkpt>
      <trkpt lat="46.89154" lon="0.25042">
        <ele>96.78</ele>
        <time>2023-06-08T17:11:49.796Z</time>
      </trkpt>
      <trkpt lat="46.89154" lon="0.25036">
        <ele>97.13</ele>
        <time>2023-06-08T17:12:08.100Z</time>
      </trkpt>
      <trkpt lat="46.89153" lon="0.25023">
        <ele>97.88</ele>
        <time>2023-06-08T17:12:26.405Z</time>
      </trkpt>
      <trkpt lat="46.89154" lon="0.2501">
        <ele>98.65</ele>
        <time>2023-06-08T17:12:44.711Z</time>
      </trkpt>
      <trkpt lat="46.89155" lon="0.25004">
        <ele>99</ele>
        <time>2023-06-08T17:13:03.018Z</time>
      </trkpt>
      <trkpt lat="46.89155" lon="0.24997">
        <ele>99.3</ele>
        <time>2023-06-08T17:13:21.326Z</time>
      </trkpt>
      <trkpt lat="46.89156" lon="0.2499">
        <ele>99.55</ele>
        <time>2023-06-08T17:13:39.635Z</time>
      </trkpt>
      <trkpt lat="46.89157" lon="0.24984">
        <ele>99.74</ele>
        <time>2023-06-08T17:13:57.944Z</time>
      </trkpt>
      <trkpt lat="46.89157" lon="0.24978">
        <ele>99.9</ele>
        <time>2023-06-08T17:14:16.254Z</time>
      </trkpt>
      <trkpt lat="46.89158" lon="0.24971">
        <ele>99.69</ele>
        <time>2023-06-08T17:14:34.565Z</time>
      </trkpt>
      <trkpt lat="46.89159" lon="0.24965">
        <ele>99.45</ele>
        <time>2023-06-08T17:14:52.876Z</time>
      </trkpt>
      <trkpt lat="46.89159" lon="0.24959">
        <ele>99.17</ele>
        <time>2023-06-08T17:15:11.188Z</time>
      </trkpt>
      <trkpt lat="46.89161" lon="0.2494">
        <ele>98.21</ele>
        <time>2023-06-08T17:15:29.502Z</time>
      </trkpt>
      <trkpt lat="46.89162" lon="0.24933">
        <ele>97.92</ele>
        <time>2023-06-08T17:15:47.817Z</time>
      </trkpt>
      <trkpt lat="46.89162" lon="0.24927">
        <ele>97.67</ele>
        <time>2023-06-08T17:16:06.133Z</time>
      </trkpt>
      <trkpt lat="46.89163" lon="0.2492">
        <ele>97.45</ele>
        <time>2023-06-08T17:16:24.449Z</time>
      </trkpt>
      <trkpt lat="46.89164" lon="0.24907">
        <ele>97.09</ele>
        <time>2023-06-08T17:16:42.767Z</time>
      </trkpt>
      <trkpt lat="46.89165" lon="0.24901">
        <ele>96.94</ele>
        <time>2023-06-08T17:17:01.086Z</time>
      </trkpt>
      <trkpt lat="46.89166" lon="0.24889">
        <ele>96.68</ele>
        <time>2023-06-08T17:17:19.406Z</time>
      </trkpt>
      <trkpt lat="46.89168" lon="0.24863">
        <ele>96.5</ele>
        <time>2023-06-08T17:17:37.729Z</time>
      </trkpt>
      <trkpt lat="46.89169" lon="0.24855">
        <ele>96.45</ele>
        <time>2023-06-08T17:17:56.053Z</time>
      </trkpt>
      <trkpt lat="46.8917" lon="0.2485">
        <ele>96.43</ele>
        <time>2023-06-08T17:18:14.377Z</time>
      </trkpt>
      <trkpt lat="46.89182" lon="0.248">
        <ele>96.21</ele>
        <time>2023-06-08T17:18:32.707Z</time>
      </trkpt>
      <trkpt lat="46.89184" lon="0.24794">
        <ele>96.16</ele>
        <time>2023-06-08T17:18:51.038Z</time>
      </trkpt>
      <trkpt lat="46.89185" lon="0.24788">
        <ele>96.08</ele>
        <time>2023-06-08T17:19:09.369Z</time>
      </trkpt>
      <trkpt lat="46.8919" lon="0.2477">
        <ele>95.79</ele>
        <time>2023-06-08T17:19:27.703Z</time>
      </trkpt>
      <trkpt lat="46.89192" lon="0.24761">
        <ele>95.7</ele>
        <time>2023-06-08T17:19:46.038Z</time>
      </trkpt>
      <trkpt lat="46.89195" lon="0.24752">
        <ele>95.61</ele>
        <time>2023-06-08T17:20:04.374Z</time>
      </trkpt>
      <trkpt lat="46.89202" lon="0.24734">
        <ele>95.48</ele>
        <time>2023-06-08T17:20:22.712Z</time>
      </trkpt>
      <trkpt lat="46.8921" lon="0.24711">
        <ele>95.35</ele>
        <time>2023-06-08T17:20:41.053Z</time>
      </trkpt>
      <trkpt lat="46.89221" lon="0.24683">
        <ele>95.06</ele>
        <time>2023-06-08T17:20:59.397Z</time>
      </trkpt>
      <trkpt lat="46.89221" lon="0.24683">
        <ele>95.06</ele>
        <time>2023-06-08T17:21:17.741Z</time>
      </trkpt>
      <trkpt lat="46.89226" lon="0.24672">
        <ele>94.97</ele>
        <time>2023-06-08T17:21:36.087Z</time>
      </trkpt>
      <trkpt lat="46.89234" lon="0.24656">
        <ele>94.88</ele>
        <time>2023-06-08T17:21:54.435Z</time>
      </trkpt>
      <trkpt lat="46.89242" lon="0.24639">
        <ele>94.83</ele>
        <time>2023-06-08T17:22:12.785Z</time>
      </trkpt>
      <trkpt lat="46.89247" lon="0.24628">
        <ele>94.75</ele>
        <time>2023-06-08T17:22:31.137Z</time>
      </trkpt>
      <trkpt lat="46.89251" lon="0.24619">
        <ele>94.64</ele>
        <time>2023-06-08T17:22:49.490Z</time>
      </trkpt>
      <trkpt lat="46.8926" lon="0.24603">
        <ele>94.44</ele>
        <time>2023-06-08T17:23:07.845Z</time>
      </trkpt>
      <trkpt lat="46.8929" lon="0.24553">
        <ele>93.88</ele>
        <time>2023-06-08T17:23:26.207Z</time>
      </trkpt>
      <trkpt lat="46.89313" lon="0.24513">
        <ele>93.31</ele>
        <time>2023-06-08T17:23:44.575Z</time>
      </trkpt>
      <trkpt lat="46.89316" lon="0.24508">
        <ele>93.25</ele>
        <time>2023-06-08T17:24:02.944Z</time>
      </trkpt>
      <trkpt lat="46.89336" lon="0.24473">
        <ele>92.96</ele>
        <time>2023-06-08T17:24:21.318Z</time>
      </trkpt>
      <trkpt lat="46.89351" lon="0.24448">
        <ele>92.63</ele>
        <time>2023-06-08T17:24:39.695Z</time>
      </trkpt>
      <trkpt lat="46.89356" lon="0.24438">
        <ele>92.57</ele>
        <time>2023-06-08T17:24:58.074Z</time>
      </trkpt>
      <trkpt lat="46.89365" lon="0.24423">
        <ele>92.51</ele>
        <time>2023-06-08T17:25:16.455Z</time>
      </trkpt>
      <trkpt lat="46.89374" lon="0.24408">
        <ele>92.4</ele>
        <time>2023-06-08T17:25:34.838Z</time>
      </trkpt>
      <trkpt lat="46.89383" lon="0.24393">
        <ele>92.34</ele>
        <time>2023-06-08T17:25:53.223Z</time>
      </trkpt>
      <trkpt lat="46.89391" lon="0.24378">
        <ele>92.24</ele>
        <time>2023-06-08T17:26:11.611Z</time>
      </trkpt>
      <trkpt lat="46.89397" lon="0.24368">
        <ele>92.15</ele>
        <time>2023-06-08T17:26:30.000Z</time>
      </trkpt>
      <trkpt lat="46.89406" lon="0.24353">
        <ele>91.98</ele>
        <time>2023-06-08T17:26:48.391Z</time>
      </trkpt>
      <trkpt lat="46.89418" lon="0.24333">
        <ele>91.86</ele>
        <time>2023-06-08T17:27:06.785Z</time>
      </trkpt>
      <trkpt lat="46.89429" lon="0.24313">
        <ele>91.58</ele>
        <time>2023-06-08T17:27:25.182Z</time>
      </trkpt>
      <trkpt lat="46.89435" lon="0.24303">
        <ele>91.48</ele>
        <time>2023-06-08T17:27:43.580Z</time>
      </trkpt>
      <trkpt lat="46.89461" lon="0.24258">
        <ele>91.25</ele>
        <time>2023-06-08T17:28:01.985Z</time>
      </trkpt>
      <trkpt lat="46.89464" lon="0.24253">
        <ele>91.2</ele>
        <time>2023-06-08T17:28:20.391Z</time>
      </trkpt>
      <trkpt lat="46.89476" lon="0.24233">
        <ele>90.93</ele>
        <time>2023-06-08T17:28:38.799Z</time>
      </trkpt>
      <trkpt lat="46.8949" lon="0.24208">
        <ele>90.76</ele>
        <time>2023-06-08T17:28:57.211Z</time>
      </trkpt>
      <trkpt lat="46.89505" lon="0.24183">
        <ele>90.51</ele>
        <time>2023-06-08T17:29:15.627Z</time>
      </trkpt>
      <trkpt lat="46.89516" lon="0.24163">
        <ele>90.38</ele>
        <time>2023-06-08T17:29:34.045Z</time>
      </trkpt>
      <trkpt lat="46.89528" lon="0.24143">
        <ele>90.22</ele>
        <time>2023-06-08T17:29:52.466Z</time>
      </trkpt>
      <trkpt lat="46.89548" lon="0.24108">
        <ele>89.98</ele>
        <time>2023-06-08T17:30:10.892Z</time>
      </trkpt>
      <trkpt lat="46.89557" lon="0.24093">
        <ele>89.91</ele>
        <time>2023-06-08T17:30:29.321Z</time>
      </trkpt>
      <trkpt lat="46.89569" lon="0.24073">
        <ele>89.86</ele>
        <time>2023-06-08T17:30:47.752Z</time>
      </trkpt>
      <trkpt lat="46.89592" lon="0.24033">
        <ele>89.86</ele>
        <time>2023-06-08T17:31:06.189Z</time>
      </trkpt>
      <trkpt lat="46.89621" lon="0.23984">
        <ele>89.72</ele>
        <time>2023-06-08T17:31:24.633Z</time>
      </trkpt>
      <trkpt lat="46.89627" lon="0.23974">
        <ele>89.73</ele>
        <time>2023-06-08T17:31:43.079Z</time>
      </trkpt>
      <trkpt lat="46.89636" lon="0.23959">
        <ele>89.8</ele>
        <time>2023-06-08T17:32:01.527Z</time>
      </trkpt>
      <trkpt lat="46.89647" lon="0.23939">
        <ele>89.82</ele>
        <time>2023-06-08T17:32:19.978Z</time>
      </trkpt>
      <trkpt lat="46.89665" lon="0.23909">
        <ele>89.91</ele>
        <time>2023-06-08T17:32:38.433Z</time>
      </trkpt>
      <trkpt lat="46.89668" lon="0.23904">
        <ele>89.95</ele>
        <time>2023-06-08T17:32:56.889Z</time>
      </trkpt>
      <trkpt lat="46.89671" lon="0.23899">
        <ele>90.02</ele>
        <time>2023-06-08T17:33:15.346Z</time>
      </trkpt>
      <trkpt lat="46.89682" lon="0.23879">
        <ele>90.4</ele>
        <time>2023-06-08T17:33:33.805Z</time>
      </trkpt>
      <trkpt lat="46.89688" lon="0.23869">
        <ele>90.52</ele>
        <time>2023-06-08T17:33:52.266Z</time>
      </trkpt>
      <trkpt lat="46.89694" lon="0.23859">
        <ele>90.4</ele>
        <time>2023-06-08T17:34:10.728Z</time>
      </trkpt>
      <trkpt lat="46.89703" lon="0.23843">
        <ele>90.11</ele>
        <time>2023-06-08T17:34:29.193Z</time>
      </trkpt>
      <trkpt lat="46.89703" lon="0.23843">
        <ele>90.11</ele>
        <time>2023-06-08T17:34:47.658Z</time>
      </trkpt>
      <trkpt lat="46.89708" lon="0.23834">
        <ele>89.97</ele>
        <time>2023-06-08T17:35:06.124Z</time>
      </trkpt>
      <trkpt lat="46.89714" lon="0.23824">
        <ele>89.9</ele>
        <time>2023-06-08T17:35:24.591Z</time>
      </trkpt>
      <trkpt lat="46.89723" lon="0.23809">
        <ele>89.84</ele>
        <time>2023-06-08T17:35:43.061Z</time>
      </trkpt>
      <trkpt lat="46.89743" lon="0.23774">
        <ele>89.66</ele>
        <time>2023-06-08T17:36:01.536Z</time>
      </trkpt>
      <trkpt lat="46.89763" lon="0.23739">
        <ele>89.58</ele>
        <time>2023-06-08T17:36:20.016Z</time>
      </trkpt>
      <trkpt lat="46.89778" lon="0.23713">
        <ele>89.65</ele>
        <time>2023-06-08T17:36:38.499Z</time>
      </trkpt>
      <trkpt lat="46.89804" lon="0.23668">
        <ele>89.66</ele>
        <time>2023-06-08T17:36:56.989Z</time>
      </trkpt>
      <trkpt lat="46.89813" lon="0.23653">
        <ele>89.69</ele>
        <time>2023-06-08T17:37:15.481Z</time>
      </trkpt>
      <trkpt lat="46.89833" lon="0.23618">
        <ele>89.87</ele>
        <time>2023-06-08T17:37:33.978Z</time>
      </trkpt>
      <trkpt lat="46.89839" lon="0.23608">
        <ele>89.88</ele>
        <time>2023-06-08T17:37:52.476Z</time>
      </trkpt>
      <trkpt lat="46.89853" lon="0.23583">
        <ele>89.74</ele>
        <time>2023-06-08T17:38:10.978Z</time>
      </trkpt>
      <trkpt lat="46.89865" lon="0.23563">
        <ele>89.53</ele>
        <time>2023-06-08T17:38:29.483Z</time>
      </trkpt>
      <trkpt lat="46.89871" lon="0.23553">
        <ele>89.45</ele>
        <time>2023-06-08T17:38:47.989Z</time>
      </trkpt>
      <trkpt lat="46.89879" lon="0.23538">
        <ele>89.4</ele>
        <time>2023-06-08T17:39:06.497Z</time>
      </trkpt>
      <trkpt lat="46.89888" lon="0.23523">
        <ele>89.43</ele>
        <time>2023-06-08T17:39:25.008Z</time>
      </trkpt>
      <trkpt lat="46.89902" lon="0.23498">
        <ele>89.6</ele>
        <time>2023-06-08T17:39:43.522Z</time>
      </trkpt>
      <trkpt lat="46.89908" lon="0.23488">
        <ele>89.65</ele>
        <time>2023-06-08T17:40:02.038Z</time>
      </trkpt>
      <trkpt lat="46.89914" lon="0.23478">
        <ele>89.65</ele>
        <time>2023-06-08T17:40:20.555Z</time>
      </trkpt>
      <trkpt lat="46.89923" lon="0.23463">
        <ele>89.6</ele>
        <time>2023-06-08T17:40:39.074Z</time>
      </trkpt>
      <trkpt lat="46.89931" lon="0.23448">
        <ele>89.58</ele>
        <time>2023-06-08T17:40:57.595Z</time>
      </trkpt>
      <trkpt lat="46.89952" lon="0.23413">
        <ele>89.63</ele>
        <time>2023-06-08T17:41:16.121Z</time>
      </trkpt>
      <trkpt lat="46.89966" lon="0.23388">
        <ele>89.73</ele>
        <time>2023-06-08T17:41:34.651Z</time>
      </trkpt>
      <trkpt lat="46.89978" lon="0.23368">
        <ele>89.86</ele>
        <time>2023-06-08T17:41:53.184Z</time>
      </trkpt>
      <trkpt lat="46.89984" lon="0.23358">
        <ele>89.9</ele>
        <time>2023-06-08T17:42:11.718Z</time>
      </trkpt>
      <trkpt lat="46.90001" lon="0.23328">
        <ele>89.85</ele>
        <time>2023-06-08T17:42:30.257Z</time>
      </trkpt>
      <trkpt lat="46.90012" lon="0.23308">
        <ele>89.86</ele>
        <time>2023-06-08T17:42:48.798Z</time>
      </trkpt>
      <trkpt lat="46.90027" lon="0.23283">
        <ele>89.84</ele>
        <time>2023-06-08T17:43:07.343Z</time>
      </trkpt>
      <trkpt lat="46.90033" lon="0.23273">
        <ele>89.85</ele>
        <time>2023-06-08T17:43:25.889Z</time>
      </trkpt>
      <trkpt lat="46.90039" lon="0.23263">
        <ele>89.93</ele>
        <time>2023-06-08T17:43:44.437Z</time>
      </trkpt>
      <trkpt lat="46.90047" lon="0.23247">
        <ele>90.14</ele>
        <time>2023-06-08T17:44:02.987Z</time>
      </trkpt>
      <trkpt lat="46.9005" lon="0.23242">
        <ele>90.19</ele>
        <time>2023-06-08T17:44:21.538Z</time>
      </trkpt>
      <trkpt lat="46.90056" lon="0.23232">
        <ele>90.25</ele>
        <time>2023-06-08T17:44:40.090Z</time>
      </trkpt>
      <trkpt lat="46.90065" lon="0.23217">
        <ele>90.31</ele>
        <time>2023-06-08T17:44:58.644Z</time>
      </trkpt>
      <trkpt lat="46.90094" lon="0.23167">
        <ele>90.36</ele>
        <time>2023-06-08T17:45:17.206Z</time>
      </trkpt>
      <trkpt lat="46.90096" lon="0.23162">
        <ele>90.4</ele>
        <time>2023-06-08T17:45:35.768Z</time>
      </trkpt>
      <trkpt lat="46.90108" lon="0.23142">
        <ele>90.64</ele>
        <time>2023-06-08T17:45:54.333Z</time>
      </trkpt>
      <trkpt lat="46.90111" lon="0.23137">
        <ele>90.65</ele>
        <time>2023-06-08T17:46:12.899Z</time>
      </trkpt>
      <trkpt lat="46.90114" lon="0.23132">
        <ele>90.63</ele>
        <time>2023-06-08T17:46:31.466Z</time>
      </trkpt>
      <trkpt lat="46.9012" lon="0.23122">
        <ele>90.51</ele>
        <time>2023-06-08T17:46:50.034Z</time>
      </trkpt>
      <trkpt lat="46.90125" lon="0.23112">
        <ele>90.45</ele>
        <time>2023-06-08T17:47:08.603Z</time>
      </trkpt>
      <trkpt lat="46.90129" lon="0.23106">
        <ele>90.43</ele>
        <time>2023-06-08T17:47:27.173Z</time>
      </trkpt>
      <trkpt lat="46.90131" lon="0.23102">
        <ele>90.43</ele>
        <time>2023-06-08T17:47:45.744Z</time>
      </trkpt>
      <trkpt lat="46.90143" lon="0.23082">
        <ele>90.44</ele>
        <time>2023-06-08T17:48:04.318Z</time>
      </trkpt>
      <trkpt lat="46.90149" lon="0.23072">
        <ele>90.4</ele>
        <time>2023-06-08T17:48:22.893Z</time>
      </trkpt>
      <trkpt lat="46.90151" lon="0.23067">
        <ele>90.35</ele>
        <time>2023-06-08T17:48:41.469Z</time>
      </trkpt>
      <trkpt lat="46.9016" lon="0.23052">
        <ele>90.16</ele>
        <time>2023-06-08T17:49:00.047Z</time>
      </trkpt>
      <trkpt lat="46.90163" lon="0.23047">
        <ele>90.11</ele>
        <time>2023-06-08T17:49:18.626Z</time>
      </trkpt>
      <trkpt lat="46.90166" lon="0.23042">
        <ele>90.09</ele>
        <time>2023-06-08T17:49:37.206Z</time>
      </trkpt>
      <trkpt lat="46.90169" lon="0.23037">
        <ele>90.09</ele>
        <time>2023-06-08T17:49:55.786Z</time>
      </trkpt>
      <trkpt lat="46.90183" lon="0.23012">
        <ele>90.18</ele>
        <time>2023-06-08T17:50:14.370Z</time>
      </trkpt>
      <trkpt lat="46.90204" lon="0.22977">
        <ele>90.09</ele>
        <time>2023-06-08T17:50:32.959Z</time>
      </trkpt>
      <trkpt lat="46.90212" lon="0.22962">
        <ele>90.16</ele>
        <time>2023-06-08T17:50:51.550Z</time>
      </trkpt>
      <trkpt lat="46.90224" lon="0.22942">
        <ele>90.41</ele>
        <time>2023-06-08T17:51:10.144Z</time>
      </trkpt>
      <trkpt lat="46.90233" lon="0.22927">
        <ele>90.55</ele>
        <time>2023-06-08T17:51:28.740Z</time>
      </trkpt>
      <trkpt lat="46.90238" lon="0.22917">
        <ele>90.59</ele>
        <time>2023-06-08T17:51:47.338Z</time>
      </trkpt>
      <trkpt lat="46.90247" lon="0.22902">
        <ele>90.61</ele>
        <time>2023-06-08T17:52:05.938Z</time>
      </trkpt>
      <trkpt lat="46.90259" lon="0.22882">
        <ele>90.67</ele>
        <time>2023-06-08T17:52:24.541Z</time>
      </trkpt>
      <trkpt lat="46.90279" lon="0.22847">
        <ele>90.86</ele>
        <time>2023-06-08T17:52:43.149Z</time>
      </trkpt>
      <trkpt lat="46.9029" lon="0.22827">
        <ele>91.06</ele>
        <time>2023-06-08T17:53:01.759Z</time>
      </trkpt>
      <trkpt lat="46.90311" lon="0.22791">
        <ele>91.33</ele>
        <time>2023-06-08T17:53:20.375Z</time>
      </trkpt>
      <trkpt lat="46.90316" lon="0.22781">
        <ele>91.43</ele>
        <time>2023-06-08T17:53:38.992Z</time>
      </trkpt>
      <trkpt lat="46.90334" lon="0.22751">
        <ele>91.88</ele>
        <time>2023-06-08T17:53:57.613Z</time>
      </trkpt>
      <trkpt lat="46.9034" lon="0.22741">
        <ele>91.99</ele>
        <time>2023-06-08T17:54:16.236Z</time>
      </trkpt>
      <trkpt lat="46.90351" lon="0.22721">
        <ele>92.15</ele>
        <time>2023-06-08T17:54:34.862Z</time>
      </trkpt>
      <trkpt lat="46.90357" lon="0.22711">
        <ele>92.27</ele>
        <time>2023-06-08T17:54:53.489Z</time>
      </trkpt>
      <trkpt lat="46.90366" lon="0.22696">
        <ele>92.49</ele>
        <time>2023-06-08T17:55:12.118Z</time>
      </trkpt>
      <trkpt lat="46.90372" lon="0.22686">
        <ele>92.61</ele>
        <time>2023-06-08T17:55:30.749Z</time>
      </trkpt>
      <trkpt lat="46.90383" lon="0.22666">
        <ele>92.75</ele>
        <time>2023-06-08T17:55:49.383Z</time>
      </trkpt>
      <trkpt lat="46.90406" lon="0.22626">
        <ele>92.93</ele>
        <time>2023-06-08T17:56:08.022Z</time>
      </trkpt>
      <trkpt lat="46.90412" lon="0.22616">
        <ele>93.03</ele>
        <time>2023-06-08T17:56:26.663Z</time>
      </trkpt>
      <trkpt lat="46.90418" lon="0.22606">
        <ele>93.16</ele>
        <time>2023-06-08T17:56:45.305Z</time>
      </trkpt>
      <trkpt lat="46.90432" lon="0.22581">
        <ele>93.56</ele>
        <time>2023-06-08T17:57:03.951Z</time>
      </trkpt>
      <trkpt lat="46.90441" lon="0.22566">
        <ele>93.75</ele>
        <time>2023-06-08T17:57:22.599Z</time>
      </trkpt>
      <trkpt lat="46.90447" lon="0.22556">
        <ele>93.82</ele>
        <time>2023-06-08T17:57:41.248Z</time>
      </trkpt>
      <trkpt lat="46.90458" lon="0.22536">
        <ele>93.89</ele>
        <time>2023-06-08T17:57:59.900Z</time>
      </trkpt>
      <trkpt lat="46.90464" lon="0.22526">
        <ele>93.97</ele>
        <time>2023-06-08T17:58:18.554Z</time>
      </trkpt>
      <trkpt lat="46.90467" lon="0.22521">
        <ele>94.02</ele>
        <time>2023-06-08T17:58:37.208Z</time>
      </trkpt>
      <trkpt lat="46.90479" lon="0.22501">
        <ele>94.31</ele>
        <time>2023-06-08T17:58:55.865Z</time>
      </trkpt>
      <trkpt lat="46.90482" lon="0.22496">
        <ele>94.36</ele>
        <time>2023-06-08T17:59:14.523Z</time>
      </trkpt>
      <trkpt lat="46.90496" lon="0.22471">
        <ele>94.54</ele>
        <time>2023-06-08T17:59:33.185Z</time>
      </trkpt>
      <trkpt lat="46.90508" lon="0.2245">
        <ele>94.73</ele>
        <time>2023-06-08T17:59:51.849Z</time>
      </trkpt>
      <trkpt lat="46.90525" lon="0.2242">
        <ele>94.85</ele>
        <time>2023-06-08T18:00:10.518Z</time>
      </trkpt>
      <trkpt lat="46.90531" lon="0.2241">
        <ele>94.91</ele>
        <time>2023-06-08T18:00:29.188Z</time>
      </trkpt>
      <trkpt lat="46.90535" lon="0.22403">
        <ele>94.99</ele>
        <time>2023-06-08T18:00:47.859Z</time>
      </trkpt>
      <trkpt lat="46.90536" lon="0.224">
        <ele>95.02</ele>
        <time>2023-06-08T18:01:06.531Z</time>
      </trkpt>
      <trkpt lat="46.90547" lon="0.22379">
        <ele>95.39</ele>
        <time>2023-06-08T18:01:25.206Z</time>
      </trkpt>
      <trkpt lat="46.90558" lon="0.22358">
        <ele>95.65</ele>
        <time>2023-06-08T18:01:43.883Z</time>
      </trkpt>
      <trkpt lat="46.90568" lon="0.22337">
        <ele>95.83</ele>
        <time>2023-06-08T18:02:02.563Z</time>
      </trkpt>
      <trkpt lat="46.90577" lon="0.2232">
        <ele>95.93</ele>
        <time>2023-06-08T18:02:21.246Z</time>
      </trkpt>
      <trkpt lat="46.90592" lon="0.22289">
        <ele>96.12</ele>
        <time>2023-06-08T18:02:39.933Z</time>
      </trkpt>
      <trkpt lat="46.90597" lon="0.22278">
        <ele>96.21</ele>
        <time>2023-06-08T18:02:58.621Z</time>
      </trkpt>
      <trkpt lat="46.90602" lon="0.22267">
        <ele>96.34</ele>
        <time>2023-06-08T18:03:17.311Z</time>
      </trkpt>
      <trkpt lat="46.90609" lon="0.22251">
        <ele>96.61</ele>
        <time>2023-06-08T18:03:36.003Z</time>
      </trkpt>
      <trkpt lat="46.90619" lon="0.22229">
        <ele>96.94</ele>
        <time>2023-06-08T18:03:54.698Z</time>
      </trkpt>
      <trkpt lat="46.90624" lon="0.22218">
        <ele>97.15</ele>
        <time>2023-06-08T18:04:13.394Z</time>
      </trkpt>
      <trkpt lat="46.90629" lon="0.22207">
        <ele>97.43</ele>
        <time>2023-06-08T18:04:32.092Z</time>
      </trkpt>
      <trkpt lat="46.90635" lon="0.22196">
        <ele>97.76</ele>
        <time>2023-06-08T18:04:50.791Z</time>
      </trkpt>
      <trkpt lat="46.9064" lon="0.22185">
        <ele>98.15</ele>
        <time>2023-06-08T18:05:09.491Z</time>
      </trkpt>
      <trkpt lat="46.90645" lon="0.22175">
        <ele>98.11</ele>
        <time>2023-06-08T18:05:28.193Z</time>
      </trkpt>
      <trkpt lat="46.90655" lon="0.22153">
        <ele>97.86</ele>
        <time>2023-06-08T18:05:46.898Z</time>
      </trkpt>
      <trkpt lat="46.9066" lon="0.22142">
        <ele>97.81</ele>
        <time>2023-06-08T18:06:05.604Z</time>
      </trkpt>
      <trkpt lat="46.90663" lon="0.22135">
        <ele>97.81</ele>
        <time>2023-06-08T18:06:24.311Z</time>
      </trkpt>
      <trkpt lat="46.90666" lon="0.22125">
        <ele>97.82</ele>
        <time>2023-06-08T18:06:43.019Z</time>
      </trkpt>
      <trkpt lat="46.90679" lon="0.2209">
        <ele>97.92</ele>
        <time>2023-06-08T18:07:01.732Z</time>
      </trkpt>
      <trkpt lat="46.90693" lon="0.22049">
        <ele>98.23</ele>
        <time>2023-06-08T18:07:20.450Z</time>
      </trkpt>
      <trkpt lat="46.90707" lon="0.22008">
        <ele>98.39</ele>
        <time>2023-06-08T18:07:39.173Z</time>
      </trkpt>
      <trkpt lat="46.90713" lon="0.2199">
        <ele>98.5</ele>
        <time>2023-06-08T18:07:57.898Z</time>
      </trkpt>
      <trkpt lat="46.90717" lon="0.21979">
        <ele>98.59</ele>
        <time>2023-06-08T18:08:16.624Z</time>
      </trkpt>
      <trkpt lat="46.90726" lon="0.21955">
        <ele>98.82</ele>
        <time>2023-06-08T18:08:35.353Z</time>
      </trkpt>
      <trkpt lat="46.90734" lon="0.21932">
        <ele>98.98</ele>
        <time>2023-06-08T18:08:54.085Z</time>
      </trkpt>
      <trkpt lat="46.9074" lon="0.21915">
        <ele>99.14</ele>
        <time>2023-06-08T18:09:12.819Z</time>
      </trkpt>
      <trkpt lat="46.9075" lon="0.21885">
        <ele>99.31</ele>
        <time>2023-06-08T18:09:31.557Z</time>
      </trkpt>
      <trkpt lat="46.90758" lon="0.21862">
        <ele>99.52</ele>
        <time>2023-06-08T18:09:50.298Z</time>
      </trkpt>
      <trkpt lat="46.9076" lon="0.21856">
        <ele>99.55</ele>
        <time>2023-06-08T18:10:09.039Z</time>
      </trkpt>
      <trkpt lat="46.90766" lon="0.21839">
        <ele>99.58</ele>
        <time>2023-06-08T18:10:27.783Z</time>
      </trkpt>
      <trkpt lat="46.90766" lon="0.21838">
        <ele>99.58</ele>
        <time>2023-06-08T18:10:46.527Z</time>
      </trkpt>
      <trkpt lat="46.90771" lon="0.2182">
        <ele>99.54</ele>
        <time>2023-06-08T18:11:05.273Z</time>
      </trkpt>
      <trkpt lat="46.90775" lon="0.21808">
        <ele>99.53</ele>
        <time>2023-06-08T18:11:24.020Z</time>
      </trkpt>
      <trkpt lat="46.90783" lon="0.21777">
        <ele>99.59</ele>
        <time>2023-06-08T18:11:42.771Z</time>
      </trkpt>
      <trkpt lat="46.90786" lon="0.21765">
        <ele>99.64</ele>
        <time>2023-06-08T18:12:01.523Z</time>
      </trkpt>
      <trkpt lat="46.90795" lon="0.21735">
        <ele>99.84</ele>
        <time>2023-06-08T18:12:20.279Z</time>
      </trkpt>
      <trkpt lat="46.90803" lon="0.21704">
        <ele>99.88</ele>
        <time>2023-06-08T18:12:39.038Z</time>
      </trkpt>
      <trkpt lat="46.90806" lon="0.21692">
        <ele>99.95</ele>
        <time>2023-06-08T18:12:57.799Z</time>
      </trkpt>
      <trkpt lat="46.90807" lon="0.21689">
        <ele>99.97</ele>
        <time>2023-06-08T18:13:16.560Z</time>
      </trkpt>
      <trkpt lat="46.90811" lon="0.21674">
        <ele>100.1</ele>
        <time>2023-06-08T18:13:35.323Z</time>
      </trkpt>
      <trkpt lat="46.90814" lon="0.21661">
        <ele>100.17</ele>
        <time>2023-06-08T18:13:54.087Z</time>
      </trkpt>
      <trkpt lat="46.9083" lon="0.21593">
        <ele>100.29</ele>
        <time>2023-06-08T18:14:12.859Z</time>
      </trkpt>
      <trkpt lat="46.9084" lon="0.21552">
        <ele>100.44</ele>
        <time>2023-06-08T18:14:31.636Z</time>
      </trkpt>
      <trkpt lat="46.90842" lon="0.21543">
        <ele>100.48</ele>
        <time>2023-06-08T18:14:50.414Z</time>
      </trkpt>
      <trkpt lat="46.90844" lon="0.2153">
        <ele>100.56</ele>
        <time>2023-06-08T18:15:09.194Z</time>
      </trkpt>
      <trkpt lat="46.90847" lon="0.21511">
        <ele>100.74</ele>
        <time>2023-06-08T18:15:27.976Z</time>
      </trkpt>
      <trkpt lat="46.90856" lon="0.21461">
        <ele>101.35</ele>
        <time>2023-06-08T18:15:46.764Z</time>
      </trkpt>
      <trkpt lat="46.90859" lon="0.21442">
        <ele>101.1</ele>
        <time>2023-06-08T18:16:05.554Z</time>
      </trkpt>
      <trkpt lat="46.90862" lon="0.21428">
        <ele>100.88</ele>
        <time>2023-06-08T18:16:24.345Z</time>
      </trkpt>
      <trkpt lat="46.90877" lon="0.21422">
        <ele>100.56</ele>
        <time>2023-06-08T18:16:43.139Z</time>
      </trkpt>
      <trkpt lat="46.90886" lon="0.21419">
        <ele>100.44</ele>
        <time>2023-06-08T18:17:01.934Z</time>
      </trkpt>
      <trkpt lat="46.9089" lon="0.21417">
        <ele>100.4</ele>
        <time>2023-06-08T18:17:20.730Z</time>
      </trkpt>
      <trkpt lat="46.90898" lon="0.21414">
        <ele>100.35</ele>
        <time>2023-06-08T18:17:39.527Z</time>
      </trkpt>
      <trkpt lat="46.90911" lon="0.21409">
        <ele>100.35</ele>
        <time>2023-06-08T18:17:58.326Z</time>
      </trkpt>
      <trkpt lat="46.90919" lon="0.21406">
        <ele>100.37</ele>
        <time>2023-06-08T18:18:17.127Z</time>
      </trkpt>
      <trkpt lat="46.90924" lon="0.21404">
        <ele>100.4</ele>
        <time>2023-06-08T18:18:35.928Z</time>
      </trkpt>
      <trkpt lat="46.90934" lon="0.214">
        <ele>100.53</ele>
        <time>2023-06-08T18:18:54.731Z</time>
      </trkpt>
      <trkpt lat="46.90936" lon="0.214">
        <ele>100.56</ele>
        <time>2023-06-08T18:19:13.535Z</time>
      </trkpt>
      <trkpt lat="46.90957" lon="0.21396">
        <ele>100.88</ele>
        <time>2023-06-08T18:19:32.342Z</time>
      </trkpt>
      <trkpt lat="46.90962" lon="0.21397">
        <ele>100.97</ele>
        <time>2023-06-08T18:19:51.150Z</time>
      </trkpt>
      <trkpt lat="46.90967" lon="0.21397">
        <ele>101.02</ele>
        <time>2023-06-08T18:20:09.958Z</time>
      </trkpt>
      <trkpt lat="46.90984" lon="0.21403">
        <ele>101.21</ele>
        <time>2023-06-08T18:20:28.769Z</time>
      </trkpt>
      <trkpt lat="46.90985" lon="0.21404">
        <ele>101.23</ele>
        <time>2023-06-08T18:20:47.580Z</time>
      </trkpt>
      <trkpt lat="46.90988" lon="0.21406">
        <ele>101.28</ele>
        <time>2023-06-08T18:21:06.392Z</time>
      </trkpt>
      <trkpt lat="46.90995" lon="0.21413">
        <ele>101.47</ele>
        <time>2023-06-08T18:21:25.205Z</time>
      </trkpt>
      <trkpt lat="46.90998" lon="0.21416">
        <ele>101.56</ele>
        <time>2023-06-08T18:21:44.019Z</time>
      </trkpt>
      <trkpt lat="46.91006" lon="0.21424">
        <ele>101.81</ele>
        <time>2023-06-08T18:22:02.834Z</time>
      </trkpt>
      <trkpt lat="46.91016" lon="0.21436">
        <ele>102.18</ele>
        <time>2023-06-08T18:22:21.652Z</time>
      </trkpt>
      <trkpt lat="46.91041" lon="0.21463">
        <ele>103.19</ele>
        <time>2023-06-08T18:22:40.475Z</time>
      </trkpt>
      <trkpt lat="46.91045" lon="0.21468">
        <ele>103.46</ele>
        <time>2023-06-08T18:22:59.298Z</time>
      </trkpt>
      <trkpt lat="46.91048" lon="0.21471">
        <ele>103.67</ele>
        <time>2023-06-08T18:23:18.122Z</time>
      </trkpt>
      <trkpt lat="46.91064" lon="0.21484">
        <ele>104.55</ele>
        <time>2023-06-08T18:23:36.949Z</time>
      </trkpt>
      <trkpt lat="46.91072" lon="0.2149">
        <ele>104.96</ele>
        <time>2023-06-08T18:23:55.777Z</time>
      </trkpt>
      <trkpt lat="46.91087" lon="0.21503">
        <ele>105.7</ele>
        <time>2023-06-08T18:24:14.608Z</time>
      </trkpt>
      <trkpt lat="46.91103" lon="0.21516">
        <ele>106.48</ele>
        <time>2023-06-08T18:24:33.442Z</time>
      </trkpt>
      <trkpt lat="46.91122" lon="0.21532">
        <ele>107.53</ele>
        <time>2023-06-08T18:24:52.280Z</time>
      </trkpt>
      <trkpt lat="46.91143" lon="0.21549">
        <ele>108.69</ele>
        <time>2023-06-08T18:25:11.121Z</time>
      </trkpt>
      <trkpt lat="46.91146" lon="0.2155">
        <ele>108.84</ele>
        <time>2023-06-08T18:25:29.963Z</time>
      </trkpt>
      <trkpt lat="46.91167" lon="0.21559">
        <ele>110.09</ele>
        <time>2023-06-08T18:25:48.808Z</time>
      </trkpt>
      <trkpt lat="46.91178" lon="0.21563">
        <ele>110.66</ele>
        <time>2023-06-08T18:26:07.655Z</time>
      </trkpt>
      <trkpt lat="46.91189" lon="0.21564">
        <ele>111.26</ele>
        <time>2023-06-08T18:26:26.504Z</time>
      </trkpt>
      <trkpt lat="46.91195" lon="0.21564">
        <ele>111.57</ele>
        <time>2023-06-08T18:26:45.354Z</time>
      </trkpt>
      <trkpt lat="46.91207" lon="0.21562">
        <ele>112.25</ele>
        <time>2023-06-08T18:27:04.206Z</time>
      </trkpt>
      <trkpt lat="46.91265" lon="0.21553">
        <ele>115.58</ele>
        <time>2023-06-08T18:27:23.067Z</time>
      </trkpt>
      <trkpt lat="46.91278" lon="0.21551">
        <ele>116.4</ele>
        <time>2023-06-08T18:27:41.930Z</time>
      </trkpt>
      <trkpt lat="46.91283" lon="0.2155">
        <ele>116.7</ele>
        <time>2023-06-08T18:28:00.794Z</time>
      </trkpt>
      <trkpt lat="46.91296" lon="0.2155">
        <ele>117.56</ele>
        <time>2023-06-08T18:28:19.660Z</time>
      </trkpt>
      <trkpt lat="46.9131" lon="0.21551">
        <ele>118.49</ele>
        <time>2023-06-08T18:28:38.528Z</time>
      </trkpt>
      <trkpt lat="46.91328" lon="0.21551">
        <ele>119.81</ele>
        <time>2023-06-08T18:28:57.399Z</time>
      </trkpt>
      <trkpt lat="46.91337" lon="0.21552">
        <ele>120.51</ele>
        <time>2023-06-08T18:29:16.272Z</time>
      </trkpt>
      <trkpt lat="46.91345" lon="0.21552">
        <ele>121.25</ele>
        <time>2023-06-08T18:29:35.146Z</time>
      </trkpt>
      <trkpt lat="46.91354" lon="0.21552">
        <ele>122.07</ele>
        <time>2023-06-08T18:29:54.022Z</time>
      </trkpt>
      <trkpt lat="46.91368" lon="0.21553">
        <ele>123.45</ele>
        <time>2023-06-08T18:30:12.900Z</time>
      </trkpt>
      <trkpt lat="46.91381" lon="0.21553">
        <ele>124.86</ele>
        <time>2023-06-08T18:30:31.780Z</time>
      </trkpt>
      <trkpt lat="46.91386" lon="0.21552">
        <ele>125.36</ele>
        <time>2023-06-08T18:30:50.661Z</time>
      </trkpt>
      <trkpt lat="46.91403" lon="0.2155">
        <ele>127.37</ele>
        <time>2023-06-08T18:31:09.544Z</time>
      </trkpt>
      <trkpt lat="46.91412" lon="0.21548">
        <ele>127.88</ele>
        <time>2023-06-08T18:31:28.429Z</time>
      </trkpt>
      <trkpt lat="46.91421" lon="0.21547">
        <ele>128.35</ele>
        <time>2023-06-08T18:31:47.315Z</time>
      </trkpt>
      <trkpt lat="46.91425" lon="0.21546">
        <ele>128.56</ele>
        <time>2023-06-08T18:32:06.202Z</time>
      </trkpt>
      <trkpt lat="46.91434" lon="0.21545">
        <ele>128.93</ele>
        <time>2023-06-08T18:32:25.090Z</time>
      </trkpt>
      <trkpt lat="46.91443" lon="0.21543">
        <ele>129.24</ele>
        <time>2023-06-08T18:32:43.980Z</time>
      </trkpt>
      <trkpt lat="46.91447" lon="0.21543">
        <ele>129.37</ele>
        <time>2023-06-08T18:33:02.870Z</time>
      </trkpt>
      <trkpt lat="46.91458" lon="0.21541">
        <ele>129.63</ele>
        <time>2023-06-08T18:33:21.762Z</time>
      </trkpt>
      <trkpt lat="46.91469" lon="0.21544">
        <ele>129.92</ele>
        <time>2023-06-08T18:33:40.656Z</time>
      </trkpt>
      <trkpt lat="46.91482" lon="0.21547">
        <ele>130.2</ele>
        <time>2023-06-08T18:33:59.552Z</time>
      </trkpt>
      <trkpt lat="46.91491" lon="0.21549">
        <ele>130.35</ele>
        <time>2023-06-08T18:34:18.450Z</time>
      </trkpt>
      <trkpt lat="46.91539" lon="0.21561">
        <ele>130.93</ele>
        <time>2023-06-08T18:34:37.355Z</time>
      </trkpt>
      <trkpt lat="46.91543" lon="0.21562">
        <ele>130.98</ele>
        <time>2023-06-08T18:34:56.261Z</time>
      </trkpt>
      <trkpt lat="46.91577" lon="0.21578">
        <ele>131.49</ele>
        <time>2023-06-08T18:35:15.173Z</time>
      </trkpt>
      <trkpt lat="46.91586" lon="0.21582">
        <ele>131.11</ele>
        <time>2023-06-08T18:35:34.086Z</time>
      </trkpt>
      <trkpt lat="46.916" lon="0.21588">
        <ele>130.55</ele>
        <time>2023-06-08T18:35:53.002Z</time>
      </trkpt>
      <trkpt lat="46.91601" lon="0.21584">
        <ele>130.44</ele>
        <time>2023-06-08T18:36:11.918Z</time>
      </trkpt>
      <trkpt lat="46.91604" lon="0.21571">
        <ele>130.14</ele>
        <time>2023-06-08T18:36:30.835Z</time>
      </trkpt>
      <trkpt lat="46.91608" lon="0.21559">
        <ele>129.88</ele>
        <time>2023-06-08T18:36:49.754Z</time>
      </trkpt>
      <trkpt lat="46.91609" lon="0.21553">
        <ele>129.77</ele>
        <time>2023-06-08T18:37:08.674Z</time>
      </trkpt>
      <trkpt lat="46.91611" lon="0.21547">
        <ele>129.67</ele>
        <time>2023-06-08T18:37:27.594Z</time>
      </trkpt>
      <trkpt lat="46.91614" lon="0.21535">
        <ele>129.52</ele>
        <time>2023-06-08T18:37:46.516Z</time>
      </trkpt>
      <trkpt lat="46.91619" lon="0.21518">
        <ele>130.08</ele>
        <time>2023-06-08T18:38:05.440Z</time>
      </trkpt>
      <trkpt lat="46.91623" lon="0.21503">
        <ele>130.54</ele>
        <time>2023-06-08T18:38:24.366Z</time>
      </trkpt>
      <trkpt lat="46.91623" lon="0.21501">
        <ele>130.61</ele>
        <time>2023-06-08T18:38:43.292Z</time>
      </trkpt>
      <trkpt lat="46.91625" lon="0.21491">
        <ele>130.87</ele>
        <time>2023-06-08T18:39:02.219Z</time>
      </trkpt>
      <trkpt lat="46.9163" lon="0.21479">
        <ele>131.25</ele>
        <time>2023-06-08T18:39:21.147Z</time>
      </trkpt>
      <trkpt lat="46.91637" lon="0.21464">
        <ele>131.68</ele>
        <time>2023-06-08T18:39:40.077Z</time>
      </trkpt>
      <trkpt lat="46.91644" lon="0.21447">
        <ele>131.84</ele>
        <time>2023-06-08T18:39:59.010Z</time>
      </trkpt>
      <trkpt lat="46.9165" lon="0.21434">
        <ele>131.92</ele>
        <time>2023-06-08T18:40:17.944Z</time>
      </trkpt>
      <trkpt lat="46.91652" lon="0.21434">
        <ele>131.94</ele>
        <time>2023-06-08T18:40:36.879Z</time>
      </trkpt>
      <trkpt lat="46.91679" lon="0.21431">
        <ele>132.2</ele>
        <time>2023-06-08T18:40:55.818Z</time>
      </trkpt>
      <trkpt lat="46.91705" lon="0.21428">
        <ele>132.22</ele>
        <time>2023-06-08T18:41:14.761Z</time>
      </trkpt>
      <trkpt lat="46.91718" lon="0.21427">
        <ele>132.19</ele>
        <time>2023-06-08T18:41:33.706Z</time>
      </trkpt>
      <trkpt lat="46.91727" lon="0.21426">
        <ele>132.12</ele>
        <time>2023-06-08T18:41:52.653Z</time>
      </trkpt>
      <trkpt lat="46.91733" lon="0.21425">
        <ele>132.05</ele>
        <time>2023-06-08T18:42:11.601Z</time>
      </trkpt>
      <trkpt lat="46.91742" lon="0.2142">
        <ele>131.95</ele>
        <time>2023-06-08T18:42:30.550Z</time>
      </trkpt>
      <trkpt lat="46.91753" lon="0.21404">
        <ele>131.8</ele>
        <time>2023-06-08T18:42:49.502Z</time>
      </trkpt>
      <trkpt lat="46.91762" lon="0.2139">
        <ele>131.61</ele>
        <time>2023-06-08T18:43:08.456Z</time>
      </trkpt>
      <trkpt lat="46.91774" lon="0.21371">
        <ele>131.26</ele>
        <time>2023-06-08T18:43:27.413Z</time>
      </trkpt>
      <trkpt lat="46.9178" lon="0.21362">
        <ele>131.04</ele>
        <time>2023-06-08T18:43:46.371Z</time>
      </trkpt>
      <trkpt lat="46.91792" lon="0.21343">
        <ele>130.55</ele>
        <time>2023-06-08T18:44:05.332Z</time>
      </trkpt>
      <trkpt lat="46.91798" lon="0.21334">
        <ele>130.33</ele>
        <time>2023-06-08T18:44:24.294Z</time>
      </trkpt>
      <trkpt lat="46.91815" lon="0.21309">
        <ele>130.02</ele>
        <time>2023-06-08T18:44:43.260Z</time>
      </trkpt>
      <trkpt lat="46.91812" lon="0.21304">
        <ele>129.97</ele>
        <time>2023-06-08T18:45:02.227Z</time>
      </trkpt>
      <trkpt lat="46.91803" lon="0.2129">
        <ele>129.78</ele>
        <time>2023-06-08T18:45:21.196Z</time>
      </trkpt>
      <trkpt lat="46.91797" lon="0.21281">
        <ele>129.68</ele>
        <time>2023-06-08T18:45:40.166Z</time>
      </trkpt>
      <trkpt lat="46.91796" lon="0.21279">
        <ele>129.66</ele>
        <time>2023-06-08T18:45:59.137Z</time>
      </trkpt>
      <trkpt lat="46.91801" lon="0.21272">
        <ele>129.61</ele>
        <time>2023-06-08T18:46:18.109Z</time>
      </trkpt>
      <trkpt lat="46.91806" lon="0.21262">
        <ele>129.57</ele>
        <time>2023-06-08T18:46:37.082Z</time>
      </trkpt>
      <trkpt lat="46.91841" lon="0.21206">
        <ele>129.8</ele>
        <time>2023-06-08T18:46:56.063Z</time>
      </trkpt>
      <trkpt lat="46.91853" lon="0.21187">
        <ele>129.7</ele>
        <time>2023-06-08T18:47:15.047Z</time>
      </trkpt>
      <trkpt lat="46.91867" lon="0.21164">
        <ele>129.49</ele>
        <time>2023-06-08T18:47:34.035Z</time>
      </trkpt>
      <trkpt lat="46.91881" lon="0.21141">
        <ele>128.16</ele>
        <time>2023-06-08T18:47:53.026Z</time>
      </trkpt>
      <trkpt lat="46.91895" lon="0.21118">
        <ele>126.9</ele>
        <time>2023-06-08T18:48:12.020Z</time>
      </trkpt>
      <trkpt lat="46.91897" lon="0.21115">
        <ele>126.89</ele>
        <time>2023-06-08T18:48:31.015Z</time>
      </trkpt>
      <trkpt lat="46.91907" lon="0.21109">
        <ele>126.88</ele>
        <time>2023-06-08T18:48:50.011Z</time>
      </trkpt>
      <trkpt lat="46.91916" lon="0.21104">
        <ele>126.84</ele>
        <time>2023-06-08T18:49:09.009Z</time>
      </trkpt>
      <trkpt lat="46.91923" lon="0.211">
        <ele>126.82</ele>
        <time>2023-06-08T18:49:28.008Z</time>
      </trkpt>
      <trkpt lat="46.91956" lon="0.21078">
        <ele>126.45</ele>
        <time>2023-06-08T18:49:47.013Z</time>
      </trkpt>
      <trkpt lat="46.91965" lon="0.21077">
        <ele>126.36</ele>
        <time>2023-06-08T18:50:06.019Z</time>
      </trkpt>
      <trkpt lat="46.91973" lon="0.21078">
        <ele>126.28</ele>
        <time>2023-06-08T18:50:25.027Z</time>
      </trkpt>
      <trkpt lat="46.91974" lon="0.21078">
        <ele>126.26</ele>
        <time>2023-06-08T18:50:44.035Z</time>
      </trkpt>
      <trkpt lat="46.91998" lon="0.21091">
        <ele>125.96</ele>
        <time>2023-06-08T18:51:03.047Z</time>
      </trkpt>
      <trkpt lat="46.92016" lon="0.21099">
        <ele>125.67</ele>
        <time>2023-06-08T18:51:22.062Z</time>
      </trkpt>
      <trkpt lat="46.92034" lon="0.21109">
        <ele>125.43</ele>
        <time>2023-06-08T18:51:41.080Z</time>
      </trkpt>
      <trkpt lat="46.92047" lon="0.21115">
        <ele>125.2</ele>
        <time>2023-06-08T18:52:00.100Z</time>
      </trkpt>
      <trkpt lat="46.92068" lon="0.21126">
        <ele>124.89</ele>
        <time>2023-06-08T18:52:19.124Z</time>
      </trkpt>
      <trkpt lat="46.92076" lon="0.21131">
        <ele>124.8</ele>
        <time>2023-06-08T18:52:38.149Z</time>
      </trkpt>
      <trkpt lat="46.92085" lon="0.21135">
        <ele>124.75</ele>
        <time>2023-06-08T18:52:57.176Z</time>
      </trkpt>
      <trkpt lat="46.92093" lon="0.21139">
        <ele>124.76</ele>
        <time>2023-06-08T18:53:16.204Z</time>
      </trkpt>
      <trkpt lat="46.92102" lon="0.21144">
        <ele>124.82</ele>
        <time>2023-06-08T18:53:35.234Z</time>
      </trkpt>
      <trkpt lat="46.9211" lon="0.21148">
        <ele>124.92</ele>
        <time>2023-06-08T18:53:54.265Z</time>
      </trkpt>
      <trkpt lat="46.92131" lon="0.21159">
        <ele>125.25</ele>
        <time>2023-06-08T18:54:13.300Z</time>
      </trkpt>
      <trkpt lat="46.9214" lon="0.21163">
        <ele>125.14</ele>
        <time>2023-06-08T18:54:32.336Z</time>
      </trkpt>
      <trkpt lat="46.92153" lon="0.2117">
        <ele>124.93</ele>
        <time>2023-06-08T18:54:51.374Z</time>
      </trkpt>
      <trkpt lat="46.92159" lon="0.21147">
        <ele>124.69</ele>
        <time>2023-06-08T18:55:10.415Z</time>
      </trkpt>
      <trkpt lat="46.92164" lon="0.21129">
        <ele>124.52</ele>
        <time>2023-06-08T18:55:29.458Z</time>
      </trkpt>
      <trkpt lat="46.92174" lon="0.21093">
        <ele>124.24</ele>
        <time>2023-06-08T18:55:48.505Z</time>
      </trkpt>
      <trkpt lat="46.92197" lon="0.21011">
        <ele>123.74</ele>
        <time>2023-06-08T18:56:07.562Z</time>
      </trkpt>
      <trkpt lat="46.922" lon="0.20999">
        <ele>123.05</ele>
        <time>2023-06-08T18:56:26.621Z</time>
      </trkpt>
      <trkpt lat="46.92206" lon="0.20979">
        <ele>121.8</ele>
        <time>2023-06-08T18:56:45.682Z</time>
      </trkpt>
      <trkpt lat="46.92203" lon="0.20961">
        <ele>120.78</ele>
        <time>2023-06-08T18:57:04.745Z</time>
      </trkpt>
      <trkpt lat="46.92203" lon="0.20961">
        <ele>120.78</ele>
        <time>2023-06-08T18:57:23.808Z</time>
      </trkpt>
      <trkpt lat="46.92202" lon="0.20942">
        <ele>119.74</ele>
        <time>2023-06-08T18:57:42.873Z</time>
      </trkpt>
      <trkpt lat="46.92202" lon="0.20929">
        <ele>119.02</ele>
        <time>2023-06-08T18:58:01.939Z</time>
      </trkpt>
      <trkpt lat="46.92201" lon="0.20877">
        <ele>115.97</ele>
        <time>2023-06-08T18:58:21.011Z</time>
      </trkpt>
      <trkpt lat="46.922" lon="0.20864">
        <ele>115.22</ele>
        <time>2023-06-08T18:58:40.085Z</time>
      </trkpt>
      <trkpt lat="46.922" lon="0.20855">
        <ele>114.73</ele>
        <time>2023-06-08T18:58:59.160Z</time>
      </trkpt>
      <trkpt lat="46.922" lon="0.20851">
        <ele>114.52</ele>
        <time>2023-06-08T18:59:18.235Z</time>
      </trkpt>
      <trkpt lat="46.92201" lon="0.20838">
        <ele>113.86</ele>
        <time>2023-06-08T18:59:37.311Z</time>
      </trkpt>
      <trkpt lat="46.92201" lon="0.20825">
        <ele>113.27</ele>
        <time>2023-06-08T18:59:56.389Z</time>
      </trkpt>
      <trkpt lat="46.92202" lon="0.20805">
        <ele>112.52</ele>
        <time>2023-06-08T19:00:15.469Z</time>
      </trkpt>
      <trkpt lat="46.92202" lon="0.20779">
        <ele>111.6</ele>
        <time>2023-06-08T19:00:34.552Z</time>
      </trkpt>
      <trkpt lat="46.92204" lon="0.20747">
        <ele>110.42</ele>
        <time>2023-06-08T19:00:53.638Z</time>
      </trkpt>
      <trkpt lat="46.92205" lon="0.20701">
        <ele>108.84</ele>
        <time>2023-06-08T19:01:12.729Z</time>
      </trkpt>
      <trkpt lat="46.92205" lon="0.20688">
        <ele>108.45</ele>
        <time>2023-06-08T19:01:31.822Z</time>
      </trkpt>
      <trkpt lat="46.92206" lon="0.20673">
        <ele>108.02</ele>
        <time>2023-06-08T19:01:50.917Z</time>
      </trkpt>
      <trkpt lat="46.92207" lon="0.20656">
        <ele>107.54</ele>
        <time>2023-06-08T19:02:10.013Z</time>
      </trkpt>
      <trkpt lat="46.92212" lon="0.20591">
        <ele>105.83</ele>
        <time>2023-06-08T19:02:29.117Z</time>
      </trkpt>
      <trkpt lat="46.92214" lon="0.20565">
        <ele>105.23</ele>
        <time>2023-06-08T19:02:48.223Z</time>
      </trkpt>
      <trkpt lat="46.92217" lon="0.20526">
        <ele>104.43</ele>
        <time>2023-06-08T19:03:07.334Z</time>
      </trkpt>
      <trkpt lat="46.92218" lon="0.20506">
        <ele>104.09</ele>
        <time>2023-06-08T19:03:26.447Z</time>
      </trkpt>
      <trkpt lat="46.9222" lon="0.20487">
        <ele>103.78</ele>
        <time>2023-06-08T19:03:45.562Z</time>
      </trkpt>
      <trkpt lat="46.92221" lon="0.20474">
        <ele>103.6</ele>
        <time>2023-06-08T19:04:04.679Z</time>
      </trkpt>
      <trkpt lat="46.92222" lon="0.20454">
        <ele>103.36</ele>
        <time>2023-06-08T19:04:23.798Z</time>
      </trkpt>
      <trkpt lat="46.92223" lon="0.20435">
        <ele>103.17</ele>
        <time>2023-06-08T19:04:42.919Z</time>
      </trkpt>
      <trkpt lat="46.92224" lon="0.20422">
        <ele>103.06</ele>
        <time>2023-06-08T19:05:02.041Z</time>
      </trkpt>
      <trkpt lat="46.92229" lon="0.20364">
        <ele>102.65</ele>
        <time>2023-06-08T19:05:21.170Z</time>
      </trkpt>
      <trkpt lat="46.92231" lon="0.2033">
        <ele>102.43</ele>
        <time>2023-06-08T19:05:40.302Z</time>
      </trkpt>
      <trkpt lat="46.92232" lon="0.2032">
        <ele>102.37</ele>
        <time>2023-06-08T19:05:59.435Z</time>
      </trkpt>
      <trkpt lat="46.92236" lon="0.20283">
        <ele>102.23</ele>
        <time>2023-06-08T19:06:18.573Z</time>
      </trkpt>
      <trkpt lat="46.92238" lon="0.20258">
        <ele>102.15</ele>
        <time>2023-06-08T19:06:37.713Z</time>
      </trkpt>
      <trkpt lat="46.92239" lon="0.2025">
        <ele>102.11</ele>
        <time>2023-06-08T19:06:56.854Z</time>
      </trkpt>
      <trkpt lat="46.92245" lon="0.20227">
        <ele>101.99</ele>
        <time>2023-06-08T19:07:15.998Z</time>
      </trkpt>
      <trkpt lat="46.92259" lon="0.20172">
        <ele>101.89</ele>
        <time>2023-06-08T19:07:35.148Z</time>
      </trkpt>
      <trkpt lat="46.92265" lon="0.20148">
        <ele>101.81</ele>
        <time>2023-06-08T19:07:54.301Z</time>
      </trkpt>
      <trkpt lat="46.92271" lon="0.20124">
        <ele>101.7</ele>
        <time>2023-06-08T19:08:13.457Z</time>
      </trkpt>
      <trkpt lat="46.92274" lon="0.20114">
        <ele>101.6</ele>
        <time>2023-06-08T19:08:32.614Z</time>
      </trkpt>
      <trkpt lat="46.92275" lon="0.20112">
        <ele>101.58</ele>
        <time>2023-06-08T19:08:51.771Z</time>
      </trkpt>
      <trkpt lat="46.92277" lon="0.20106">
        <ele>101.5</ele>
        <time>2023-06-08T19:09:10.929Z</time>
      </trkpt>
      <trkpt lat="46.92286" lon="0.20077">
        <ele>100.97</ele>
        <time>2023-06-08T19:09:30.091Z</time>
      </trkpt>
      <trkpt lat="46.92298" lon="0.20042">
        <ele>100.45</ele>
        <time>2023-06-08T19:09:49.257Z</time>
      </trkpt>
      <trkpt lat="46.92302" lon="0.2003">
        <ele>100.31</ele>
        <time>2023-06-08T19:10:08.424Z</time>
      </trkpt>
      <trkpt lat="46.92306" lon="0.20019">
        <ele>100.2</ele>
        <time>2023-06-08T19:10:27.593Z</time>
      </trkpt>
      <trkpt lat="46.9231" lon="0.20007">
        <ele>100.13</ele>
        <time>2023-06-08T19:10:46.763Z</time>
      </trkpt>
      <trkpt lat="46.92314" lon="0.19996">
        <ele>100.09</ele>
        <time>2023-06-08T19:11:05.935Z</time>
      </trkpt>
      <trkpt lat="46.92327" lon="0.19955">
        <ele>99.82</ele>
        <time>2023-06-08T19:11:25.112Z</time>
      </trkpt>
      <trkpt lat="46.92331" lon="0.19944">
        <ele>99.77</ele>
        <time>2023-06-08T19:11:44.290Z</time>
      </trkpt>
      <trkpt lat="46.92337" lon="0.19927">
        <ele>99.73</ele>
        <time>2023-06-08T19:12:03.470Z</time>
      </trkpt>
      <trkpt lat="46.92362" lon="0.19852">
        <ele>99.66</ele>
        <time>2023-06-08T19:12:22.659Z</time>
      </trkpt>
      <trkpt lat="46.9237" lon="0.19829">
        <ele>99.71</ele>
        <time>2023-06-08T19:12:41.851Z</time>
      </trkpt>
      <trkpt lat="46.92376" lon="0.19812">
        <ele>99.8</ele>
        <time>2023-06-08T19:13:01.045Z</time>
      </trkpt>
      <trkpt lat="46.9238" lon="0.198">
        <ele>99.79</ele>
        <time>2023-06-08T19:13:20.241Z</time>
      </trkpt>
      <trkpt lat="46.92387" lon="0.19776">
        <ele>98.56</ele>
        <time>2023-06-08T19:13:39.439Z</time>
      </trkpt>
      <trkpt lat="46.9239" lon="0.19769">
        <ele>98.15</ele>
        <time>2023-06-08T19:13:58.638Z</time>
      </trkpt>
      <trkpt lat="46.92385" lon="0.19753">
        <ele>97.28</ele>
        <time>2023-06-08T19:14:17.839Z</time>
      </trkpt>
      <trkpt lat="46.92384" lon="0.19746">
        <ele>97.02</ele>
        <time>2023-06-08T19:14:37.041Z</time>
      </trkpt>
      <trkpt lat="46.92382" lon="0.1974">
        <ele>96.82</ele>
        <time>2023-06-08T19:14:56.244Z</time>
      </trkpt>
      <trkpt lat="46.92381" lon="0.19734">
        <ele>96.69</ele>
        <time>2023-06-08T19:15:15.447Z</time>
      </trkpt>
      <trkpt lat="46.92379" lon="0.19728">
        <ele>96.61</ele>
        <time>2023-06-08T19:15:34.651Z</time>
      </trkpt>
      <trkpt lat="46.92377" lon="0.19722">
        <ele>96.58</ele>
        <time>2023-06-08T19:15:53.856Z</time>
      </trkpt>
      <trkpt lat="46.92366" lon="0.1968">
        <ele>96.6</ele>
        <time>2023-06-08T19:16:13.066Z</time>
      </trkpt>
      <trkpt lat="46.92361" lon="0.19661">
        <ele>96.65</ele>
        <time>2023-06-08T19:16:32.278Z</time>
      </trkpt>
      <trkpt lat="46.92355" lon="0.19641">
        <ele>96.8</ele>
        <time>2023-06-08T19:16:51.492Z</time>
      </trkpt>
      <trkpt lat="46.92354" lon="0.19637">
        <ele>96.83</ele>
        <time>2023-06-08T19:17:10.707Z</time>
      </trkpt>
      <trkpt lat="46.92348" lon="0.19612">
        <ele>97.12</ele>
        <time>2023-06-08T19:17:29.925Z</time>
      </trkpt>
      <trkpt lat="46.92347" lon="0.19606">
        <ele>97.16</ele>
        <time>2023-06-08T19:17:49.143Z</time>
      </trkpt>
      <trkpt lat="46.92346" lon="0.196">
        <ele>97.18</ele>
        <time>2023-06-08T19:18:08.362Z</time>
      </trkpt>
      <trkpt lat="46.9234" lon="0.19575">
        <ele>97.16</ele>
        <time>2023-06-08T19:18:27.584Z</time>
      </trkpt>
      <trkpt lat="46.92339" lon="0.19569">
        <ele>97.19</ele>
        <time>2023-06-08T19:18:46.807Z</time>
      </trkpt>
      <trkpt lat="46.92337" lon="0.19563">
        <ele>97.25</ele>
        <time>2023-06-08T19:19:06.030Z</time>
      </trkpt>
      <trkpt lat="46.92336" lon="0.19557">
        <ele>97.34</ele>
        <time>2023-06-08T19:19:25.254Z</time>
      </trkpt>
      <trkpt lat="46.92334" lon="0.1955">
        <ele>97.47</ele>
        <time>2023-06-08T19:19:44.479Z</time>
      </trkpt>
      <trkpt lat="46.92326" lon="0.19513">
        <ele>98.48</ele>
        <time>2023-06-08T19:20:03.708Z</time>
      </trkpt>
      <trkpt lat="46.92323" lon="0.19501">
        <ele>98.74</ele>
        <time>2023-06-08T19:20:22.939Z</time>
      </trkpt>
      <trkpt lat="46.92322" lon="0.19495">
        <ele>98.84</ele>
        <time>2023-06-08T19:20:42.170Z</time>
      </trkpt>
      <trkpt lat="46.92321" lon="0.19492">
        <ele>98.87</ele>
        <time>2023-06-08T19:21:01.402Z</time>
      </trkpt>
      <trkpt lat="46.92319" lon="0.19474">
        <ele>99.11</ele>
        <time>2023-06-08T19:21:20.636Z</time>
      </trkpt>
      <trkpt lat="46.92323" lon="0.1945">
        <ele>99.45</ele>
        <time>2023-06-08T19:21:39.872Z</time>
      </trkpt>
      <trkpt lat="46.92326" lon="0.19431">
        <ele>99.68</ele>
        <time>2023-06-08T19:21:59.111Z</time>
      </trkpt>
      <trkpt lat="46.92327" lon="0.19424">
        <ele>99.73</ele>
        <time>2023-06-08T19:22:18.350Z</time>
      </trkpt>
      <trkpt lat="46.92327" lon="0.19418">
        <ele>99.79</ele>
        <time>2023-06-08T19:22:37.590Z</time>
      </trkpt>
      <trkpt lat="46.92328" lon="0.19381">
        <ele>99.93</ele>
        <time>2023-06-08T19:22:56.834Z</time>
      </trkpt>
      <trkpt lat="46.92328" lon="0.19379">
        <ele>99.94</ele>
        <time>2023-06-08T19:23:16.078Z</time>
      </trkpt>
      <trkpt lat="46.92327" lon="0.19366">
        <ele>100.05</ele>
        <time>2023-06-08T19:23:35.324Z</time>
      </trkpt>
      <trkpt lat="46.92327" lon="0.19353">
        <ele>100.21</ele>
        <time>2023-06-08T19:23:54.571Z</time>
      </trkpt>
      <trkpt lat="46.92327" lon="0.19339">
        <ele>100.03</ele>
        <time>2023-06-08T19:24:13.820Z</time>
      </trkpt>
      <trkpt lat="46.92326" lon="0.19319">
        <ele>99.84</ele>
        <time>2023-06-08T19:24:33.071Z</time>
      </trkpt>
      <trkpt lat="46.92326" lon="0.193">
        <ele>99.67</ele>
        <time>2023-06-08T19:24:52.324Z</time>
      </trkpt>
      <trkpt lat="46.92326" lon="0.19287">
        <ele>99.44</ele>
        <time>2023-06-08T19:25:11.578Z</time>
      </trkpt>
      <trkpt lat="46.92326" lon="0.19274">
        <ele>99.15</ele>
        <time>2023-06-08T19:25:30.834Z</time>
      </trkpt>
      <trkpt lat="46.92326" lon="0.19261">
        <ele>98.78</ele>
        <time>2023-06-08T19:25:50.091Z</time>
      </trkpt>
      <trkpt lat="46.92326" lon="0.19254">
        <ele>98.56</ele>
        <time>2023-06-08T19:26:09.349Z</time>
      </trkpt>
      <trkpt lat="46.92326" lon="0.19241">
        <ele>98.04</ele>
        <time>2023-06-08T19:26:28.608Z</time>
      </trkpt>
      <trkpt lat="46.92326" lon="0.19234">
        <ele>97.73</ele>
        <time>2023-06-08T19:26:47.868Z</time>
      </trkpt>
      <trkpt lat="46.92326" lon="0.19228">
        <ele>97.39</ele>
        <time>2023-06-08T19:27:07.129Z</time>
      </trkpt>
      <trkpt lat="46.92326" lon="0.19221">
        <ele>97.02</ele>
        <time>2023-06-08T19:27:26.391Z</time>
      </trkpt>
      <trkpt lat="46.92326" lon="0.19215">
        <ele>96.62</ele>
        <time>2023-06-08T19:27:45.653Z</time>
      </trkpt>
      <trkpt lat="46.92326" lon="0.19202">
        <ele>95.75</ele>
        <time>2023-06-08T19:28:04.917Z</time>
      </trkpt>
      <trkpt lat="46.92326" lon="0.19156">
        <ele>92.58</ele>
        <time>2023-06-08T19:28:24.186Z</time>
      </trkpt>
      <trkpt lat="46.92326" lon="0.19149">
        <ele>92.15</ele>
        <time>2023-06-08T19:28:43.455Z</time>
      </trkpt>
      <trkpt lat="46.92325" lon="0.19136">
        <ele>91.34</ele>
        <time>2023-06-08T19:29:02.726Z</time>
      </trkpt>
      <trkpt lat="46.92325" lon="0.19116">
        <ele>90.23</ele>
        <time>2023-06-08T19:29:21.999Z</time>
      </trkpt>
      <trkpt lat="46.92325" lon="0.19103">
        <ele>89.54</ele>
        <time>2023-06-08T19:29:41.274Z</time>
      </trkpt>
      <trkpt lat="46.92325" lon="0.19083">
        <ele>88.55</ele>
        <time>2023-06-08T19:30:00.551Z</time>
      </trkpt>
      <trkpt lat="46.92325" lon="0.1907">
        <ele>87.83</ele>
        <time>2023-06-08T19:30:19.829Z</time>
      </trkpt>
      <trkpt lat="46.92325" lon="0.19044">
        <ele>86.29</ele>
        <time>2023-06-08T19:30:39.110Z</time>
      </trkpt>
      <trkpt lat="46.92325" lon="0.18998">
        <ele>83.47</ele>
        <time>2023-06-08T19:30:58.396Z</time>
      </trkpt>
      <trkpt lat="46.92325" lon="0.18985">
        <ele>82.7</ele>
        <time>2023-06-08T19:31:17.683Z</time>
      </trkpt>
      <trkpt lat="46.92325" lon="0.18972">
        <ele>81.99</ele>
        <time>2023-06-08T19:31:36.972Z</time>
      </trkpt>
      <trkpt lat="46.92325" lon="0.18965">
        <ele>81.66</ele>
        <time>2023-06-08T19:31:56.262Z</time>
      </trkpt>
      <trkpt lat="46.92325" lon="0.1896">
        <ele>81.42</ele>
        <time>2023-06-08T19:32:15.552Z</time>
      </trkpt>
      <trkpt lat="46.92325" lon="0.18959">
        <ele>81.36</ele>
        <time>2023-06-08T19:32:34.842Z</time>
      </trkpt>
      <trkpt lat="46.92324" lon="0.18945">
        <ele>80.83</ele>
        <time>2023-06-08T19:32:54.134Z</time>
      </trkpt>
      <trkpt lat="46.92324" lon="0.18939">
        <ele>80.6</ele>
        <time>2023-06-08T19:33:13.427Z</time>
      </trkpt>
      <trkpt lat="46.92323" lon="0.18913">
        <ele>79.79</ele>
        <time>2023-06-08T19:33:32.722Z</time>
      </trkpt>
      <trkpt lat="46.92322" lon="0.18893">
        <ele>79.06</ele>
        <time>2023-06-08T19:33:52.020Z</time>
      </trkpt>
      <trkpt lat="46.92322" lon="0.1888">
        <ele>78.61</ele>
        <time>2023-06-08T19:34:11.319Z</time>
      </trkpt>
      <trkpt lat="46.92321" lon="0.18873">
        <ele>78.42</ele>
        <time>2023-06-08T19:34:30.619Z</time>
      </trkpt>
      <trkpt lat="46.92321" lon="0.18863">
        <ele>78.15</ele>
        <time>2023-06-08T19:34:49.920Z</time>
      </trkpt>
      <trkpt lat="46.92321" lon="0.1886">
        <ele>78.09</ele>
        <time>2023-06-08T19:35:09.221Z</time>
      </trkpt>
      <trkpt lat="46.92318" lon="0.18848">
        <ele>77.81</ele>
        <time>2023-06-08T19:35:28.524Z</time>
      </trkpt>
      <trkpt lat="46.92315" lon="0.18828">
        <ele>77.44</ele>
        <time>2023-06-08T19:35:47.829Z</time>
      </trkpt>
      <trkpt lat="46.92315" lon="0.18826">
        <ele>77.4</ele>
        <time>2023-06-08T19:36:07.134Z</time>
      </trkpt>
      <trkpt lat="46.92307" lon="0.18804">
        <ele>77.04</ele>
        <time>2023-06-08T19:36:26.442Z</time>
      </trkpt>
      <trkpt lat="46.92307" lon="0.18804">
        <ele>77.04</ele>
        <time>2023-06-08T19:36:45.750Z</time>
      </trkpt>
      <trkpt lat="46.92294" lon="0.18783">
        <ele>76.53</ele>
        <time>2023-06-08T19:37:05.061Z</time>
      </trkpt>
      <trkpt lat="46.92285" lon="0.18773">
        <ele>76.25</ele>
        <time>2023-06-08T19:37:24.374Z</time>
      </trkpt>
      <trkpt lat="46.9227" lon="0.18757">
        <ele>75.86</ele>
        <time>2023-06-08T19:37:43.690Z</time>
      </trkpt>
      <trkpt lat="46.92264" lon="0.18749">
        <ele>75.7</ele>
        <time>2023-06-08T19:38:03.007Z</time>
      </trkpt>
      <trkpt lat="46.9225" lon="0.18732">
        <ele>75.28</ele>
        <time>2023-06-08T19:38:22.327Z</time>
      </trkpt>
      <trkpt lat="46.92247" lon="0.18728">
        <ele>75.19</ele>
        <time>2023-06-08T19:38:41.648Z</time>
      </trkpt>
      <trkpt lat="46.92229" lon="0.18707">
        <ele>74.85</ele>
        <time>2023-06-08T19:39:00.972Z</time>
      </trkpt>
      <trkpt lat="46.92223" lon="0.18698">
        <ele>74.73</ele>
        <time>2023-06-08T19:39:20.298Z</time>
      </trkpt>
      <trkpt lat="46.9222" lon="0.18695">
        <ele>74.69</ele>
        <time>2023-06-08T19:39:39.624Z</time>
      </trkpt>
      <trkpt lat="46.92212" lon="0.18686">
        <ele>74.61</ele>
        <time>2023-06-08T19:39:58.952Z</time>
      </trkpt>
      <trkpt lat="46.92191" lon="0.18662">
        <ele>74.5</ele>
        <time>2023-06-08T19:40:18.284Z</time>
      </trkpt>
      <trkpt lat="46.92177" lon="0.18646">
        <ele>74.34</ele>
        <time>2023-06-08T19:40:37.619Z</time>
      </trkpt>
      <trkpt lat="46.92173" lon="0.18642">
        <ele>74.32</ele>
        <time>2023-06-08T19:40:56.955Z</time>
      </trkpt>
      <trkpt lat="46.92159" lon="0.18625">
        <ele>74.31</ele>
        <time>2023-06-08T19:41:16.294Z</time>
      </trkpt>
      <trkpt lat="46.92155" lon="0.18621">
        <ele>74.29</ele>
        <time>2023-06-08T19:41:35.633Z</time>
      </trkpt>
      <trkpt lat="46.92145" lon="0.18609">
        <ele>74.15</ele>
        <time>2023-06-08T19:41:54.974Z</time>
      </trkpt>
      <trkpt lat="46.92141" lon="0.18605">
        <ele>74.13</ele>
        <time>2023-06-08T19:42:14.316Z</time>
      </trkpt>
      <trkpt lat="46.92138" lon="0.18601">
        <ele>74.13</ele>
        <time>2023-06-08T19:42:33.659Z</time>
      </trkpt>
      <trkpt lat="46.92128" lon="0.18587">
        <ele>74.18</ele>
        <time>2023-06-08T19:42:53.004Z</time>
      </trkpt>
      <trkpt lat="46.92125" lon="0.18583">
        <ele>74.16</ele>
        <time>2023-06-08T19:43:12.350Z</time>
      </trkpt>
      <trkpt lat="46.92122" lon="0.18578">
        <ele>74.11</ele>
        <time>2023-06-08T19:43:31.696Z</time>
      </trkpt>
      <trkpt lat="46.92118" lon="0.18574">
        <ele>74.03</ele>
        <time>2023-06-08T19:43:51.043Z</time>
      </trkpt>
      <trkpt lat="46.92117" lon="0.18572">
        <ele>73.99</ele>
        <time>2023-06-08T19:44:10.390Z</time>
      </trkpt>
      <trkpt lat="46.92111" lon="0.18557">
        <ele>73.74</ele>
        <time>2023-06-08T19:44:29.739Z</time>
      </trkpt>
      <trkpt lat="46.92109" lon="0.18551">
        <ele>73.67</ele>
        <time>2023-06-08T19:44:49.089Z</time>
      </trkpt>
      <trkpt lat="46.92105" lon="0.1854">
        <ele>73.58</ele>
        <time>2023-06-08T19:45:08.440Z</time>
      </trkpt>
      <trkpt lat="46.92099" lon="0.18524">
        <ele>73.5</ele>
        <time>2023-06-08T19:45:27.793Z</time>
      </trkpt>
      <trkpt lat="46.92096" lon="0.1851">
        <ele>73.45</ele>
        <time>2023-06-08T19:45:47.148Z</time>
      </trkpt>
      <trkpt lat="46.92093" lon="0.18498">
        <ele>73.35</ele>
        <time>2023-06-08T19:46:06.505Z</time>
      </trkpt>
      <trkpt lat="46.92091" lon="0.18492">
        <ele>73.28</ele>
        <time>2023-06-08T19:46:25.862Z</time>
      </trkpt>
      <trkpt lat="46.92087" lon="0.18473">
        <ele>72.98</ele>
        <time>2023-06-08T19:46:45.221Z</time>
      </trkpt>
      <trkpt lat="46.92083" lon="0.18461">
        <ele>72.84</ele>
        <time>2023-06-08T19:47:04.582Z</time>
      </trkpt>
      <trkpt lat="46.92082" lon="0.18455">
        <ele>72.81</ele>
        <time>2023-06-08T19:47:23.944Z</time>
      </trkpt>
      <trkpt lat="46.92076" lon="0.1843">
        <ele>72.88</ele>
        <time>2023-06-08T19:47:43.308Z</time>
      </trkpt>
      <trkpt lat="46.92074" lon="0.18422">
        <ele>72.87</ele>
        <time>2023-06-08T19:48:02.673Z</time>
      </trkpt>
      <trkpt lat="46.92068" lon="0.18407">
        <ele>72.85</ele>
        <time>2023-06-08T19:48:22.040Z</time>
      </trkpt>
      <trkpt lat="46.92058" lon="0.18384">
        <ele>72.8</ele>
        <time>2023-06-08T19:48:41.410Z</time>
      </trkpt>
      <trkpt lat="46.92054" lon="0.18373">
        <ele>72.73</ele>
        <time>2023-06-08T19:49:00.782Z</time>
      </trkpt>
      <trkpt lat="46.92049" lon="0.18362">
        <ele>72.61</ele>
        <time>2023-06-08T19:49:20.155Z</time>
      </trkpt>
      <trkpt lat="46.92043" lon="0.18352">
        <ele>72.5</ele>
        <time>2023-06-08T19:49:39.530Z</time>
      </trkpt>
      <trkpt lat="46.9204" lon="0.18347">
        <ele>72.48</ele>
        <time>2023-06-08T19:49:58.905Z</time>
      </trkpt>
      <trkpt lat="46.92032" lon="0.18331">
        <ele>72.48</ele>
        <time>2023-06-08T19:50:18.282Z</time>
      </trkpt>
      <trkpt lat="46.92029" lon="0.18326">
        <ele>72.45</ele>
        <time>2023-06-08T19:50:37.660Z</time>
      </trkpt>
      <trkpt lat="46.92018" lon="0.18306">
        <ele>72.22</ele>
        <time>2023-06-08T19:50:57.041Z</time>
      </trkpt>
      <trkpt lat="46.92012" lon="0.18296">
        <ele>72.15</ele>
        <time>2023-06-08T19:51:16.423Z</time>
      </trkpt>
      <trkpt lat="46.92006" lon="0.18286">
        <ele>72.11</ele>
        <time>2023-06-08T19:51:35.807Z</time>
      </trkpt>
      <trkpt lat="46.91998" lon="0.18271">
        <ele>72.1</ele>
        <time>2023-06-08T19:51:55.193Z</time>
      </trkpt>
      <trkpt lat="46.91968" lon="0.18217">
        <ele>71.96</ele>
        <time>2023-06-08T19:52:14.587Z</time>
      </trkpt>
      <trkpt lat="46.91957" lon="0.18198">
        <ele>71.87</ele>
        <time>2023-06-08T19:52:33.983Z</time>
      </trkpt>
      <trkpt lat="46.91951" lon="0.18188">
        <ele>71.86</ele>
        <time>2023-06-08T19:52:53.381Z</time>
      </trkpt>
      <trkpt lat="46.91942" lon="0.18172">
        <ele>71.9</ele>
        <time>2023-06-08T19:53:12.781Z</time>
      </trkpt>
      <trkpt lat="46.91946" lon="0.18173">
        <ele>71.92</ele>
        <time>2023-06-08T19:53:32.182Z</time>
      </trkpt>
      <trkpt lat="46.91949" lon="0.18173">
        <ele>71.92</ele>
        <time>2023-06-08T19:53:51.583Z</time>
      </trkpt>
      <trkpt lat="46.91954" lon="0.18168">
        <ele>71.93</ele>
        <time>2023-06-08T19:54:10.985Z</time>
      </trkpt>
      <trkpt lat="46.91959" lon="0.18164">
        <ele>71.9</ele>
        <time>2023-06-08T19:54:30.388Z</time>
      </trkpt>
      <trkpt lat="46.91964" lon="0.18155">
        <ele>71.88</ele>
        <time>2023-06-08T19:54:49.792Z</time>
      </trkpt>
      <trkpt lat="46.91971" lon="0.18143">
        <ele>71.8</ele>
        <time>2023-06-08T19:55:09.198Z</time>
      </trkpt>
      <trkpt lat="46.91972" lon="0.1814">
        <ele>71.79</ele>
        <time>2023-06-08T19:55:28.604Z</time>
      </trkpt>
      <trkpt lat="46.9198" lon="0.18124">
        <ele>71.63</ele>
        <time>2023-06-08T19:55:48.013Z</time>
      </trkpt>
      <trkpt lat="46.91985" lon="0.18113">
        <ele>71.47</ele>
        <time>2023-06-08T19:56:07.423Z</time>
      </trkpt>
      <trkpt lat="46.91986" lon="0.18112">
        <ele>71.44</ele>
        <time>2023-06-08T19:56:26.833Z</time>
      </trkpt>
      <trkpt lat="46.9199" lon="0.18102">
        <ele>71.24</ele>
        <time>2023-06-08T19:56:46.244Z</time>
      </trkpt>
      <trkpt lat="46.92" lon="0.18073">
        <ele>70.6</ele>
        <time>2023-06-08T19:57:05.659Z</time>
      </trkpt>
      <trkpt lat="46.92004" lon="0.18061">
        <ele>70.42</ele>
        <time>2023-06-08T19:57:25.076Z</time>
      </trkpt>
      <trkpt lat="46.92008" lon="0.18049">
        <ele>70.3</ele>
        <time>2023-06-08T19:57:44.494Z</time>
      </trkpt>
      <trkpt lat="46.9201" lon="0.18043">
        <ele>70.26</ele>
        <time>2023-06-08T19:58:03.913Z</time>
      </trkpt>
      <trkpt lat="46.92011" lon="0.18041">
        <ele>70.25</ele>
        <time>2023-06-08T19:58:23.332Z</time>
      </trkpt>
      <trkpt lat="46.92016" lon="0.18033">
        <ele>70.23</ele>
        <time>2023-06-08T19:58:42.752Z</time>
      </trkpt>
      <trkpt lat="46.92022" lon="0.18023">
        <ele>70.26</ele>
        <time>2023-06-08T19:59:02.174Z</time>
      </trkpt>
      <trkpt lat="46.92024" lon="0.1802">
        <ele>70.27</ele>
        <time>2023-06-08T19:59:21.596Z</time>
      </trkpt>
      <trkpt lat="46.92036" lon="0.18007">
        <ele>70.37</ele>
        <time>2023-06-08T19:59:41.020Z</time>
      </trkpt>
      <trkpt lat="46.92043" lon="0.17999">
        <ele>70.38</ele>
        <time>2023-06-08T20:00:00.446Z</time>
      </trkpt>
      <trkpt lat="46.92046" lon="0.17995">
        <ele>70.36</ele>
        <time>2023-06-08T20:00:19.873Z</time>
      </trkpt>
      <trkpt lat="46.92049" lon="0.17992">
        <ele>70.31</ele>
        <time>2023-06-08T20:00:39.300Z</time>
      </trkpt>
      <trkpt lat="46.9205" lon="0.17991">
        <ele>70.3</ele>
        <time>2023-06-08T20:00:58.727Z</time>
      </trkpt>
      <trkpt lat="46.92065" lon="0.17976">
        <ele>69.98</ele>
        <time>2023-06-08T20:01:18.157Z</time>
      </trkpt>
      <trkpt lat="46.92072" lon="0.17969">
        <ele>69.85</ele>
        <time>2023-06-08T20:01:37.589Z</time>
      </trkpt>
      <trkpt lat="46.92087" lon="0.17954">
        <ele>69.67</ele>
        <time>2023-06-08T20:01:57.024Z</time>
      </trkpt>
      <trkpt lat="46.92097" lon="0.17944">
        <ele>69.57</ele>
        <time>2023-06-08T20:02:16.460Z</time>
      </trkpt>
      <trkpt lat="46.92102" lon="0.1794">
        <ele>69.52</ele>
        <time>2023-06-08T20:02:35.897Z</time>
      </trkpt>
      <trkpt lat="46.92106" lon="0.17936">
        <ele>69.5</ele>
        <time>2023-06-08T20:02:55.335Z</time>
      </trkpt>
      <trkpt lat="46.9211" lon="0.17933">
        <ele>69.51</ele>
        <time>2023-06-08T20:03:14.774Z</time>
      </trkpt>
      <trkpt lat="46.9211" lon="0.17933">
        <ele>69.51</ele>
        <time>2023-06-08T20:03:34.213Z</time>
      </trkpt>
      <trkpt lat="46.92114" lon="0.17931">
        <ele>69.56</ele>
        <time>2023-06-08T20:03:53.653Z</time>
      </trkpt>
      <trkpt lat="46.92118" lon="0.17929">
        <ele>69.65</ele>
        <time>2023-06-08T20:04:13.093Z</time>
      </trkpt>
      <trkpt lat="46.92123" lon="0.17926">
        <ele>69.77</ele>
        <time>2023-06-08T20:04:32.534Z</time>
      </trkpt>
      <trkpt lat="46.9214" lon="0.17917">
        <ele>70.32</ele>
        <time>2023-06-08T20:04:51.978Z</time>
      </trkpt>
      <trkpt lat="46.92142" lon="0.17916">
        <ele>70.37</ele>
        <time>2023-06-08T20:05:11.422Z</time>
      </trkpt>
      <trkpt lat="46.9216" lon="0.17903">
        <ele>70.82</ele>
        <time>2023-06-08T20:05:30.869Z</time>
      </trkpt>
      <trkpt lat="46.92172" lon="0.17895">
        <ele>71.18</ele>
        <time>2023-06-08T20:05:50.319Z</time>
      </trkpt>
      <trkpt lat="46.9218" lon="0.17889">
        <ele>71.38</ele>
        <time>2023-06-08T20:06:09.770Z</time>
      </trkpt>
      <trkpt lat="46.92188" lon="0.17884">
        <ele>71.53</ele>
        <time>2023-06-08T20:06:29.222Z</time>
      </trkpt>
      <trkpt lat="46.92192" lon="0.17881">
        <ele>71.58</ele>
        <time>2023-06-08T20:06:48.675Z</time>
      </trkpt>
      <trkpt lat="46.92195" lon="0.17879">
        <ele>71.59</ele>
        <time>2023-06-08T20:07:08.129Z</time>
      </trkpt>
      <trkpt lat="46.92214" lon="0.17874">
        <ele>71.67</ele>
        <time>2023-06-08T20:07:27.586Z</time>
      </trkpt>
      <trkpt lat="46.92223" lon="0.17871">
        <ele>71.75</ele>
        <time>2023-06-08T20:07:47.044Z</time>
      </trkpt>
      <trkpt lat="46.92227" lon="0.1787">
        <ele>71.81</ele>
        <time>2023-06-08T20:08:06.503Z</time>
      </trkpt>
      <trkpt lat="46.92236" lon="0.17868">
        <ele>71.99</ele>
        <time>2023-06-08T20:08:25.963Z</time>
      </trkpt>
      <trkpt lat="46.92254" lon="0.17863">
        <ele>72.43</ele>
        <time>2023-06-08T20:08:45.426Z</time>
      </trkpt>
      <trkpt lat="46.92263" lon="0.17861">
        <ele>72.68</ele>
        <time>2023-06-08T20:09:04.891Z</time>
      </trkpt>
      <trkpt lat="46.92269" lon="0.17859">
        <ele>72.87</ele>
        <time>2023-06-08T20:09:24.357Z</time>
      </trkpt>
      <trkpt lat="46.92276" lon="0.17856">
        <ele>73.09</ele>
        <time>2023-06-08T20:09:43.824Z</time>
      </trkpt>
      <trkpt lat="46.9228" lon="0.17855">
        <ele>73.2</ele>
        <time>2023-06-08T20:10:03.292Z</time>
      </trkpt>
      <trkpt lat="46.92285" lon="0.17853">
        <ele>73.27</ele>
        <time>2023-06-08T20:10:22.760Z</time>
      </trkpt>
      <trkpt lat="46.92289" lon="0.17852">
        <ele>73.32</ele>
        <time>2023-06-08T20:10:42.229Z</time>
      </trkpt>
      <trkpt lat="46.92293" lon="0.1785">
        <ele>73.32</ele>
        <time>2023-06-08T20:11:01.699Z</time>
      </trkpt>
      <trkpt lat="46.92298" lon="0.17848">
        <ele>73.29</ele>
        <time>2023-06-08T20:11:21.169Z</time>
      </trkpt>
      <trkpt lat="46.92328" lon="0.17837">
        <ele>72.88</ele>
        <time>2023-06-08T20:11:40.644Z</time>
      </trkpt>
      <trkpt lat="46.92338" lon="0.17833">
        <ele>72.79</ele>
        <time>2023-06-08T20:12:00.121Z</time>
      </trkpt>
      <trkpt lat="46.92341" lon="0.17834">
        <ele>72.77</ele>
        <time>2023-06-08T20:12:19.599Z</time>
      </trkpt>
      <trkpt lat="46.9235" lon="0.17836">
        <ele>72.75</ele>
        <time>2023-06-08T20:12:39.078Z</time>
      </trkpt>
      <trkpt lat="46.92358" lon="0.17838">
        <ele>72.79</ele>
        <time>2023-06-08T20:12:58.558Z</time>
      </trkpt>
      <trkpt lat="46.92359" lon="0.17839">
        <ele>72.79</ele>
        <time>2023-06-08T20:13:18.039Z</time>
      </trkpt>
      <trkpt lat="46.92366" lon="0.17846">
        <ele>72.88</ele>
        <time>2023-06-08T20:13:37.521Z</time>
      </trkpt>
      <trkpt lat="46.92385" lon="0.17863">
        <ele>73.25</ele>
        <time>2023-06-08T20:13:57.007Z</time>
      </trkpt>
      <trkpt lat="46.92389" lon="0.17867">
        <ele>73.31</ele>
        <time>2023-06-08T20:14:16.493Z</time>
      </trkpt>
      <trkpt lat="46.92393" lon="0.1787">
        <ele>73.34</ele>
        <time>2023-06-08T20:14:35.980Z</time>
      </trkpt>
      <trkpt lat="46.92397" lon="0.17874">
        <ele>73.34</ele>
        <time>2023-06-08T20:14:55.468Z</time>
      </trkpt>
      <trkpt lat="46.92405" lon="0.17878">
        <ele>73.34</ele>
        <time>2023-06-08T20:15:14.957Z</time>
      </trkpt>
      <trkpt lat="46.92414" lon="0.17883">
        <ele>73.38</ele>
        <time>2023-06-08T20:15:34.448Z</time>
      </trkpt>
      <trkpt lat="46.9242" lon="0.17886">
        <ele>73.44</ele>
        <time>2023-06-08T20:15:53.940Z</time>
      </trkpt>
      <trkpt lat="46.92427" lon="0.17886">
        <ele>73.51</ele>
        <time>2023-06-08T20:16:13.433Z</time>
      </trkpt>
      <trkpt lat="46.92436" lon="0.17886">
        <ele>73.64</ele>
        <time>2023-06-08T20:16:32.927Z</time>
      </trkpt>
      <trkpt lat="46.92439" lon="0.17886">
        <ele>73.71</ele>
        <time>2023-06-08T20:16:52.422Z</time>
      </trkpt>
      <trkpt lat="46.92445" lon="0.17887">
        <ele>73.83</ele>
        <time>2023-06-08T20:17:11.918Z</time>
      </trkpt>
      <trkpt lat="46.92458" lon="0.17889">
        <ele>74.21</ele>
        <time>2023-06-08T20:17:31.416Z</time>
      </trkpt>
      <trkpt lat="46.92467" lon="0.1789">
        <ele>74.5</ele>
        <time>2023-06-08T20:17:50.915Z</time>
      </trkpt>
      <trkpt lat="46.92485" lon="0.17893">
        <ele>75.16</ele>
        <time>2023-06-08T20:18:10.417Z</time>
      </trkpt>
      <trkpt lat="46.92494" lon="0.17894">
        <ele>75.43</ele>
        <time>2023-06-08T20:18:29.921Z</time>
      </trkpt>
      <trkpt lat="46.92504" lon="0.17896">
        <ele>75.66</ele>
        <time>2023-06-08T20:18:49.426Z</time>
      </trkpt>
      <trkpt lat="46.92507" lon="0.17897">
        <ele>75.73</ele>
        <time>2023-06-08T20:19:08.932Z</time>
      </trkpt>
      <trkpt lat="46.9252" lon="0.179">
        <ele>75.97</ele>
        <time>2023-06-08T20:19:28.440Z</time>
      </trkpt>
      <trkpt lat="46.92541" lon="0.17904">
        <ele>76.3</ele>
        <time>2023-06-08T20:19:47.951Z</time>
      </trkpt>
      <trkpt lat="46.92543" lon="0.17904">
        <ele>76.33</ele>
        <time>2023-06-08T20:20:07.462Z</time>
      </trkpt>
      <trkpt lat="46.92551" lon="0.17907">
        <ele>76.54</ele>
        <time>2023-06-08T20:20:26.975Z</time>
      </trkpt>
      <trkpt lat="46.9256" lon="0.1791">
        <ele>76.81</ele>
        <time>2023-06-08T20:20:46.489Z</time>
      </trkpt>
      <trkpt lat="46.92565" lon="0.17911">
        <ele>76.97</ele>
        <time>2023-06-08T20:21:06.004Z</time>
      </trkpt>
      <trkpt lat="46.92582" lon="0.17916">
        <ele>77.7</ele>
        <time>2023-06-08T20:21:25.522Z</time>
      </trkpt>
      <trkpt lat="46.92591" lon="0.17918">
        <ele>77.6</ele>
        <time>2023-06-08T20:21:45.041Z</time>
      </trkpt>
      <trkpt lat="46.92593" lon="0.17919">
        <ele>77.56</ele>
        <time>2023-06-08T20:22:04.561Z</time>
      </trkpt>
      <trkpt lat="46.92596" lon="0.17918">
        <ele>77.51</ele>
        <time>2023-06-08T20:22:24.081Z</time>
      </trkpt>
      <trkpt lat="46.92605" lon="0.17916">
        <ele>77.29</ele>
        <time>2023-06-08T20:22:43.603Z</time>
      </trkpt>
      <trkpt lat="46.92605" lon="0.17916">
        <ele>77.29</ele>
        <time>2023-06-08T20:23:03.125Z</time>
      </trkpt>
      <trkpt lat="46.92597" lon="0.17886">
        <ele>76.57</ele>
        <time>2023-06-08T20:23:22.650Z</time>
      </trkpt>
      <trkpt lat="46.92592" lon="0.17868">
        <ele>76.09</ele>
        <time>2023-06-08T20:23:42.177Z</time>
      </trkpt>
      <trkpt lat="46.92585" lon="0.17844">
        <ele>75.56</ele>
        <time>2023-06-08T20:24:01.707Z</time>
      </trkpt>
      <trkpt lat="46.92578" lon="0.1782">
        <ele>75</ele>
        <time>2023-06-08T20:24:21.240Z</time>
      </trkpt>
      <trkpt lat="46.92576" lon="0.17813">
        <ele>74.86</ele>
        <time>2023-06-08T20:24:40.774Z</time>
      </trkpt>
      <trkpt lat="46.92575" lon="0.17807">
        <ele>74.75</ele>
        <time>2023-06-08T20:25:00.308Z</time>
      </trkpt>
      <trkpt lat="46.92572" lon="0.17788">
        <ele>74.41</ele>
        <time>2023-06-08T20:25:19.845Z</time>
      </trkpt>
      <trkpt lat="46.92569" lon="0.17769">
        <ele>74.02</ele>
        <time>2023-06-08T20:25:39.384Z</time>
      </trkpt>
      <trkpt lat="46.92568" lon="0.17762">
        <ele>73.92</ele>
        <time>2023-06-08T20:25:58.924Z</time>
      </trkpt>
      <trkpt lat="46.92567" lon="0.17757">
        <ele>73.85</ele>
        <time>2023-06-08T20:26:18.464Z</time>
      </trkpt>
      <trkpt lat="46.92567" lon="0.17756">
        <ele>73.85</ele>
        <time>2023-06-08T20:26:38.004Z</time>
      </trkpt>
      <trkpt lat="46.92566" lon="0.17749">
        <ele>73.82</ele>
        <time>2023-06-08T20:26:57.545Z</time>
      </trkpt>
      <trkpt lat="46.92566" lon="0.17743">
        <ele>73.82</ele>
        <time>2023-06-08T20:27:17.087Z</time>
      </trkpt>
      <trkpt lat="46.92565" lon="0.17736">
        <ele>73.88</ele>
        <time>2023-06-08T20:27:36.629Z</time>
      </trkpt>
      <trkpt lat="46.92564" lon="0.17723">
        <ele>74.05</ele>
        <time>2023-06-08T20:27:56.173Z</time>
      </trkpt>
      <trkpt lat="46.92563" lon="0.17717">
        <ele>74.11</ele>
        <time>2023-06-08T20:28:15.718Z</time>
      </trkpt>
      <trkpt lat="46.92563" lon="0.1771">
        <ele>74.12</ele>
        <time>2023-06-08T20:28:35.263Z</time>
      </trkpt>
      <trkpt lat="46.92562" lon="0.17704">
        <ele>74.09</ele>
        <time>2023-06-08T20:28:54.809Z</time>
      </trkpt>
      <trkpt lat="46.92561" lon="0.17697">
        <ele>74.03</ele>
        <time>2023-06-08T20:29:14.356Z</time>
      </trkpt>
      <trkpt lat="46.92561" lon="0.17694">
        <ele>73.98</ele>
        <time>2023-06-08T20:29:33.903Z</time>
      </trkpt>
      <trkpt lat="46.92559" lon="0.17678">
        <ele>73.76</ele>
        <time>2023-06-08T20:29:53.452Z</time>
      </trkpt>
      <trkpt lat="46.92558" lon="0.17671">
        <ele>73.73</ele>
        <time>2023-06-08T20:30:13.002Z</time>
      </trkpt>
      <trkpt lat="46.92555" lon="0.17652">
        <ele>73.71</ele>
        <time>2023-06-08T20:30:32.554Z</time>
      </trkpt>
      <trkpt lat="46.92554" lon="0.17646">
        <ele>73.67</ele>
        <time>2023-06-08T20:30:52.107Z</time>
      </trkpt>
      <trkpt lat="46.92552" lon="0.17633">
        <ele>73.55</ele>
        <time>2023-06-08T20:31:11.661Z</time>
      </trkpt>
      <trkpt lat="46.9255" lon="0.1762">
        <ele>73.49</ele>
        <time>2023-06-08T20:31:31.216Z</time>
      </trkpt>
      <trkpt lat="46.92547" lon="0.17601">
        <ele>73.49</ele>
        <time>2023-06-08T20:31:50.774Z</time>
      </trkpt>
      <trkpt lat="46.92543" lon="0.17575">
        <ele>73.42</ele>
        <time>2023-06-08T20:32:10.334Z</time>
      </trkpt>
      <trkpt lat="46.92538" lon="0.17543">
        <ele>73.51</ele>
        <time>2023-06-08T20:32:29.898Z</time>
      </trkpt>
      <trkpt lat="46.92534" lon="0.17511">
        <ele>73.49</ele>
        <time>2023-06-08T20:32:49.466Z</time>
      </trkpt>
      <trkpt lat="46.9253" lon="0.17485">
        <ele>73.61</ele>
        <time>2023-06-08T20:33:09.037Z</time>
      </trkpt>
      <trkpt lat="46.92529" lon="0.17479">
        <ele>73.62</ele>
        <time>2023-06-08T20:33:28.608Z</time>
      </trkpt>
      <trkpt lat="46.92527" lon="0.17466">
        <ele>73.55</ele>
        <time>2023-06-08T20:33:48.181Z</time>
      </trkpt>
      <trkpt lat="46.92526" lon="0.17459">
        <ele>73.48</ele>
        <time>2023-06-08T20:34:07.754Z</time>
      </trkpt>
      <trkpt lat="46.92523" lon="0.1744">
        <ele>73.2</ele>
        <time>2023-06-08T20:34:27.330Z</time>
      </trkpt>
      <trkpt lat="46.92521" lon="0.17427">
        <ele>73.08</ele>
        <time>2023-06-08T20:34:46.907Z</time>
      </trkpt>
      <trkpt lat="46.9252" lon="0.17421">
        <ele>73.04</ele>
        <time>2023-06-08T20:35:06.485Z</time>
      </trkpt>
      <trkpt lat="46.92519" lon="0.17415">
        <ele>73.03</ele>
        <time>2023-06-08T20:35:26.063Z</time>
      </trkpt>
      <trkpt lat="46.92517" lon="0.17401">
        <ele>73.06</ele>
        <time>2023-06-08T20:35:45.643Z</time>
      </trkpt>
      <trkpt lat="46.92514" lon="0.17389">
        <ele>73.09</ele>
        <time>2023-06-08T20:36:05.224Z</time>
      </trkpt>
      <trkpt lat="46.92511" lon="0.17377">
        <ele>73.01</ele>
        <time>2023-06-08T20:36:24.807Z</time>
      </trkpt>
      <trkpt lat="46.92501" lon="0.1734">
        <ele>72.61</ele>
        <time>2023-06-08T20:36:44.394Z</time>
      </trkpt>
      <trkpt lat="46.92493" lon="0.1731">
        <ele>72.11</ele>
        <time>2023-06-08T20:37:03.985Z</time>
      </trkpt>
      <trkpt lat="46.9249" lon="0.17297">
        <ele>71.97</ele>
        <time>2023-06-08T20:37:23.577Z</time>
      </trkpt>
      <trkpt lat="46.92487" lon="0.17285">
        <ele>71.89</ele>
        <time>2023-06-08T20:37:43.171Z</time>
      </trkpt>
      <trkpt lat="46.92484" lon="0.17273">
        <ele>71.84</ele>
        <time>2023-06-08T20:38:02.766Z</time>
      </trkpt>
      <trkpt lat="46.92477" lon="0.17248">
        <ele>71.78</ele>
        <time>2023-06-08T20:38:22.364Z</time>
      </trkpt>
      <trkpt lat="46.92468" lon="0.17213">
        <ele>71.61</ele>
        <time>2023-06-08T20:38:41.966Z</time>
      </trkpt>
      <trkpt lat="46.92467" lon="0.17211">
        <ele>71.61</ele>
        <time>2023-06-08T20:39:01.568Z</time>
      </trkpt>
      <trkpt lat="46.92465" lon="0.17206">
        <ele>71.56</ele>
        <time>2023-06-08T20:39:21.171Z</time>
      </trkpt>
      <trkpt lat="46.92458" lon="0.17189">
        <ele>71.36</ele>
        <time>2023-06-08T20:39:40.776Z</time>
      </trkpt>
      <trkpt lat="46.92445" lon="0.17155">
        <ele>70.87</ele>
        <time>2023-06-08T20:40:00.385Z</time>
      </trkpt>
      <trkpt lat="46.9244" lon="0.17143">
        <ele>70.72</ele>
        <time>2023-06-08T20:40:19.996Z</time>
      </trkpt>
      <trkpt lat="46.92432" lon="0.17127">
        <ele>70.52</ele>
        <time>2023-06-08T20:40:39.609Z</time>
      </trkpt>
      <trkpt lat="46.92425" lon="0.17111">
        <ele>70.41</ele>
        <time>2023-06-08T20:40:59.224Z</time>
      </trkpt>
      <trkpt lat="46.92412" lon="0.17084">
        <ele>70.26</ele>
        <time>2023-06-08T20:41:18.843Z</time>
      </trkpt>
      <trkpt lat="46.92399" lon="0.17057">
        <ele>70</ele>
        <time>2023-06-08T20:41:38.465Z</time>
      </trkpt>
      <trkpt lat="46.92391" lon="0.17041">
        <ele>69.96</ele>
        <time>2023-06-08T20:41:58.090Z</time>
      </trkpt>
      <trkpt lat="46.92388" lon="0.17036">
        <ele>69.92</ele>
        <time>2023-06-08T20:42:17.715Z</time>
      </trkpt>
      <trkpt lat="46.92386" lon="0.1703">
        <ele>69.85</ele>
        <time>2023-06-08T20:42:37.341Z</time>
      </trkpt>
      <trkpt lat="46.92383" lon="0.17025">
        <ele>69.75</ele>
        <time>2023-06-08T20:42:56.968Z</time>
      </trkpt>
      <trkpt lat="46.92375" lon="0.17009">
        <ele>69.39</ele>
        <time>2023-06-08T20:43:16.597Z</time>
      </trkpt>
      <trkpt lat="46.92365" lon="0.16987">
        <ele>69.01</ele>
        <time>2023-06-08T20:43:36.229Z</time>
      </trkpt>
      <trkpt lat="46.92352" lon="0.16961">
        <ele>68.41</ele>
        <time>2023-06-08T20:43:55.864Z</time>
      </trkpt>
      <trkpt lat="46.92349" lon="0.16955">
        <ele>68.25</ele>
        <time>2023-06-08T20:44:15.500Z</time>
      </trkpt>
      <trkpt lat="46.92347" lon="0.1695">
        <ele>68.05</ele>
        <time>2023-06-08T20:44:35.137Z</time>
      </trkpt>
      <trkpt lat="46.92344" lon="0.16945">
        <ele>67.81</ele>
        <time>2023-06-08T20:44:54.775Z</time>
      </trkpt>
      <trkpt lat="46.92337" lon="0.16928">
        <ele>67.03</ele>
        <time>2023-06-08T20:45:14.415Z</time>
      </trkpt>
      <trkpt lat="46.92334" lon="0.16923">
        <ele>66.79</ele>
        <time>2023-06-08T20:45:34.055Z</time>
      </trkpt>
      <trkpt lat="46.92331" lon="0.16918">
        <ele>66.58</ele>
        <time>2023-06-08T20:45:53.696Z</time>
      </trkpt>
      <trkpt lat="46.92329" lon="0.16912">
        <ele>66.4</ele>
        <time>2023-06-08T20:46:13.338Z</time>
      </trkpt>
      <trkpt lat="46.92326" lon="0.16907">
        <ele>66.28</ele>
        <time>2023-06-08T20:46:32.981Z</time>
      </trkpt>
      <trkpt lat="46.92324" lon="0.16901">
        <ele>66.2</ele>
        <time>2023-06-08T20:46:52.624Z</time>
      </trkpt>
      <trkpt lat="46.92318" lon="0.16891">
        <ele>66.12</ele>
        <time>2023-06-08T20:47:12.269Z</time>
      </trkpt>
      <trkpt lat="46.92305" lon="0.16864">
        <ele>66.02</ele>
        <time>2023-06-08T20:47:31.917Z</time>
      </trkpt>
      <trkpt lat="46.92298" lon="0.16848">
        <ele>65.83</ele>
        <time>2023-06-08T20:47:51.568Z</time>
      </trkpt>
      <trkpt lat="46.92295" lon="0.16843">
        <ele>65.79</ele>
        <time>2023-06-08T20:48:11.219Z</time>
      </trkpt>
      <trkpt lat="46.92293" lon="0.16837">
        <ele>65.8</ele>
        <time>2023-06-08T20:48:30.871Z</time>
      </trkpt>
      <trkpt lat="46.92292" lon="0.16836">
        <ele>65.82</ele>
        <time>2023-06-08T20:48:50.523Z</time>
      </trkpt>
      <trkpt lat="46.92295" lon="0.16834">
        <ele>65.88</ele>
        <time>2023-06-08T20:49:10.176Z</time>
      </trkpt>
      <trkpt lat="46.92296" lon="0.16833">
        <ele>65.92</ele>
        <time>2023-06-08T20:49:29.829Z</time>
      </trkpt>
      <trkpt lat="46.92299" lon="0.16832">
        <ele>66.04</ele>
        <time>2023-06-08T20:49:49.482Z</time>
      </trkpt>
      <trkpt lat="46.92304" lon="0.16831">
        <ele>66.27</ele>
        <time>2023-06-08T20:50:09.136Z</time>
      </trkpt>
      <trkpt lat="46.92308" lon="0.1683">
        <ele>66.52</ele>
        <time>2023-06-08T20:50:28.791Z</time>
      </trkpt>
      <trkpt lat="46.92312" lon="0.16831">
        <ele>66.78</ele>
        <time>2023-06-08T20:50:48.446Z</time>
      </trkpt>
      <trkpt lat="46.9233" lon="0.16833">
        <ele>67.67</ele>
        <time>2023-06-08T20:51:08.104Z</time>
      </trkpt>
      <trkpt lat="46.92339" lon="0.16834">
        <ele>68.07</ele>
        <time>2023-06-08T20:51:27.764Z</time>
      </trkpt>
      <trkpt lat="46.92343" lon="0.16835">
        <ele>68.23</ele>
        <time>2023-06-08T20:51:47.424Z</time>
      </trkpt>
      <trkpt lat="46.92348" lon="0.16836">
        <ele>68.35</ele>
        <time>2023-06-08T20:52:07.085Z</time>
      </trkpt>
      <trkpt lat="46.92365" lon="0.16838">
        <ele>68.67</ele>
        <time>2023-06-08T20:52:26.749Z</time>
      </trkpt>
      <trkpt lat="46.92374" lon="0.1684">
        <ele>68.8</ele>
        <time>2023-06-08T20:52:46.414Z</time>
      </trkpt>
      <trkpt lat="46.92392" lon="0.16842">
        <ele>68.99</ele>
        <time>2023-06-08T20:53:06.082Z</time>
      </trkpt>
      <trkpt lat="46.92405" lon="0.16844">
        <ele>69.02</ele>
        <time>2023-06-08T20:53:25.752Z</time>
      </trkpt>
      <trkpt lat="46.9241" lon="0.16845">
        <ele>69.06</ele>
        <time>2023-06-08T20:53:45.423Z</time>
      </trkpt>
      <trkpt lat="46.92414" lon="0.16845">
        <ele>69.13</ele>
        <time>2023-06-08T20:54:05.095Z</time>
      </trkpt>
      <trkpt lat="46.92419" lon="0.16846">
        <ele>69.25</ele>
        <time>2023-06-08T20:54:24.768Z</time>
      </trkpt>
      <trkpt lat="46.92427" lon="0.16841">
        <ele>69.46</ele>
        <time>2023-06-08T20:54:44.442Z</time>
      </trkpt>
      <trkpt lat="46.92431" lon="0.16839">
        <ele>69.55</ele>
        <time>2023-06-08T20:55:04.117Z</time>
      </trkpt>
      <trkpt lat="46.92435" lon="0.16836">
        <ele>69.58</ele>
        <time>2023-06-08T20:55:23.792Z</time>
      </trkpt>
      <trkpt lat="46.92447" lon="0.16829">
        <ele>69.51</ele>
        <time>2023-06-08T20:55:43.470Z</time>
      </trkpt>
      <trkpt lat="46.92451" lon="0.16826">
        <ele>69.53</ele>
        <time>2023-06-08T20:56:03.148Z</time>
      </trkpt>
      <trkpt lat="46.92464" lon="0.16819">
        <ele>69.71</ele>
        <time>2023-06-08T20:56:22.828Z</time>
      </trkpt>
      <trkpt lat="46.92476" lon="0.16811">
        <ele>69.8</ele>
        <time>2023-06-08T20:56:42.511Z</time>
      </trkpt>
      <trkpt lat="46.92484" lon="0.16806">
        <ele>69.91</ele>
        <time>2023-06-08T20:57:02.195Z</time>
      </trkpt>
      <trkpt lat="46.92488" lon="0.16804">
        <ele>69.92</ele>
        <time>2023-06-08T20:57:21.880Z</time>
      </trkpt>
      <trkpt lat="46.92492" lon="0.16802">
        <ele>69.86</ele>
        <time>2023-06-08T20:57:41.565Z</time>
      </trkpt>
      <trkpt lat="46.92501" lon="0.16796">
        <ele>69.67</ele>
        <time>2023-06-08T20:58:01.252Z</time>
      </trkpt>
      <trkpt lat="46.92505" lon="0.16794">
        <ele>69.65</ele>
        <time>2023-06-08T20:58:20.940Z</time>
      </trkpt>
      <trkpt lat="46.92509" lon="0.16791">
        <ele>69.72</ele>
        <time>2023-06-08T20:58:40.628Z</time>
      </trkpt>
      <trkpt lat="46.92513" lon="0.16789">
        <ele>69.88</ele>
        <time>2023-06-08T20:59:00.317Z</time>
      </trkpt>
      <trkpt lat="46.92521" lon="0.16784">
        <ele>70.28</ele>
        <time>2023-06-08T20:59:20.007Z</time>
      </trkpt>
      <trkpt lat="46.92525" lon="0.16782">
        <ele>70.43</ele>
        <time>2023-06-08T20:59:39.698Z</time>
      </trkpt>
      <trkpt lat="46.92529" lon="0.16779">
        <ele>70.49</ele>
        <time>2023-06-08T20:59:59.390Z</time>
      </trkpt>
      <trkpt lat="46.92533" lon="0.16777">
        <ele>70.48</ele>
        <time>2023-06-08T21:00:19.082Z</time>
      </trkpt>
      <trkpt lat="46.92541" lon="0.16772">
        <ele>70.42</ele>
        <time>2023-06-08T21:00:38.776Z</time>
      </trkpt>
      <trkpt lat="46.92542" lon="0.16771">
        <ele>70.42</ele>
        <time>2023-06-08T21:00:58.470Z</time>
      </trkpt>
      <trkpt lat="46.92556" lon="0.16755">
        <ele>70.35</ele>
        <time>2023-06-08T21:01:18.167Z</time>
      </trkpt>
      <trkpt lat="46.92559" lon="0.16751">
        <ele>70.34</ele>
        <time>2023-06-08T21:01:37.865Z</time>
      </trkpt>
      <trkpt lat="46.92567" lon="0.16743">
        <ele>70.36</ele>
        <time>2023-06-08T21:01:57.564Z</time>
      </trkpt>
      <trkpt lat="46.92574" lon="0.16735">
        <ele>70.42</ele>
        <time>2023-06-08T21:02:17.264Z</time>
      </trkpt>
      <trkpt lat="46.92588" lon="0.16719">
        <ele>70.66</ele>
        <time>2023-06-08T21:02:36.967Z</time>
      </trkpt>
      <trkpt lat="46.92599" lon="0.16707">
        <ele>70.78</ele>
        <time>2023-06-08T21:02:56.672Z</time>
      </trkpt>
      <trkpt lat="46.92616" lon="0.16687">
        <ele>70.87</ele>
        <time>2023-06-08T21:03:16.381Z</time>
      </trkpt>
      <trkpt lat="46.92627" lon="0.16675">
        <ele>70.89</ele>
        <time>2023-06-08T21:03:36.092Z</time>
      </trkpt>
      <trkpt lat="46.92643" lon="0.16657">
        <ele>70.79</ele>
        <time>2023-06-08T21:03:55.806Z</time>
      </trkpt>
      <trkpt lat="46.92648" lon="0.1665">
        <ele>70.76</ele>
        <time>2023-06-08T21:04:15.522Z</time>
      </trkpt>
      <trkpt lat="46.92672" lon="0.1662">
        <ele>70.53</ele>
        <time>2023-06-08T21:04:35.243Z</time>
      </trkpt>
      <trkpt lat="46.92675" lon="0.16616">
        <ele>70.48</ele>
        <time>2023-06-08T21:04:54.964Z</time>
      </trkpt>
      <trkpt lat="46.92679" lon="0.16612">
        <ele>70.4</ele>
        <time>2023-06-08T21:05:14.686Z</time>
      </trkpt>
      <trkpt lat="46.92696" lon="0.1659">
        <ele>69.95</ele>
        <time>2023-06-08T21:05:34.412Z</time>
      </trkpt>
      <trkpt lat="46.92702" lon="0.16582">
        <ele>69.85</ele>
        <time>2023-06-08T21:05:54.139Z</time>
      </trkpt>
      <trkpt lat="46.92709" lon="0.16573">
        <ele>69.84</ele>
        <time>2023-06-08T21:06:13.867Z</time>
      </trkpt>
      <trkpt lat="46.92716" lon="0.16564">
        <ele>69.89</ele>
        <time>2023-06-08T21:06:33.597Z</time>
      </trkpt>
      <trkpt lat="46.92723" lon="0.16556">
        <ele>70.05</ele>
        <time>2023-06-08T21:06:53.328Z</time>
      </trkpt>
      <trkpt lat="46.92726" lon="0.16551">
        <ele>70.17</ele>
        <time>2023-06-08T21:07:13.060Z</time>
      </trkpt>
      <trkpt lat="46.92736" lon="0.16539">
        <ele>70.59</ele>
        <time>2023-06-08T21:07:32.794Z</time>
      </trkpt>
      <trkpt lat="46.92743" lon="0.1653">
        <ele>70.81</ele>
        <time>2023-06-08T21:07:52.530Z</time>
      </trkpt>
      <trkpt lat="46.92747" lon="0.16526">
        <ele>70.89</ele>
        <time>2023-06-08T21:08:12.266Z</time>
      </trkpt>
      <trkpt lat="46.92753" lon="0.16517">
        <ele>71</ele>
        <time>2023-06-08T21:08:32.004Z</time>
      </trkpt>
      <trkpt lat="46.92762" lon="0.16506">
        <ele>71.1</ele>
        <time>2023-06-08T21:08:51.744Z</time>
      </trkpt>
      <trkpt lat="46.92767" lon="0.16501">
        <ele>71.17</ele>
        <time>2023-06-08T21:09:11.485Z</time>
      </trkpt>
      <trkpt lat="46.92779" lon="0.1649">
        <ele>71.35</ele>
        <time>2023-06-08T21:09:31.228Z</time>
      </trkpt>
      <trkpt lat="46.92781" lon="0.16488">
        <ele>71.36</ele>
        <time>2023-06-08T21:09:50.971Z</time>
      </trkpt>
      <trkpt lat="46.92787" lon="0.16485">
        <ele>71.4</ele>
        <time>2023-06-08T21:10:10.715Z</time>
      </trkpt>
      <trkpt lat="46.92791" lon="0.16483">
        <ele>71.37</ele>
        <time>2023-06-08T21:10:30.460Z</time>
      </trkpt>
      <trkpt lat="46.92795" lon="0.1648">
        <ele>71.31</ele>
        <time>2023-06-08T21:10:50.206Z</time>
      </trkpt>
      <trkpt lat="46.928" lon="0.16478">
        <ele>71.23</ele>
        <time>2023-06-08T21:11:09.953Z</time>
      </trkpt>
      <trkpt lat="46.92818" lon="0.16479">
        <ele>70.98</ele>
        <time>2023-06-08T21:11:29.702Z</time>
      </trkpt>
      <trkpt lat="46.92819" lon="0.16479">
        <ele>70.94</ele>
        <time>2023-06-08T21:11:49.452Z</time>
      </trkpt>
      <trkpt lat="46.92839" lon="0.16489">
        <ele>70.49</ele>
        <time>2023-06-08T21:12:09.205Z</time>
      </trkpt>
      <trkpt lat="46.92848" lon="0.16493">
        <ele>70.33</ele>
        <time>2023-06-08T21:12:28.959Z</time>
      </trkpt>
      <trkpt lat="46.92856" lon="0.16497">
        <ele>70.23</ele>
        <time>2023-06-08T21:12:48.715Z</time>
      </trkpt>
      <trkpt lat="46.92871" lon="0.16504">
        <ele>70.11</ele>
        <time>2023-06-08T21:13:08.473Z</time>
      </trkpt>
      <trkpt lat="46.92873" lon="0.16505">
        <ele>70.1</ele>
        <time>2023-06-08T21:13:28.232Z</time>
      </trkpt>
      <trkpt lat="46.92882" lon="0.16507">
        <ele>69.97</ele>
        <time>2023-06-08T21:13:47.992Z</time>
      </trkpt>
      <trkpt lat="46.929" lon="0.16512">
        <ele>69.63</ele>
        <time>2023-06-08T21:14:07.755Z</time>
      </trkpt>
      <trkpt lat="46.92904" lon="0.16514">
        <ele>69.57</ele>
        <time>2023-06-08T21:14:27.519Z</time>
      </trkpt>
      <trkpt lat="46.92908" lon="0.16515">
        <ele>69.54</ele>
        <time>2023-06-08T21:14:47.283Z</time>
      </trkpt>
      <trkpt lat="46.92913" lon="0.16516">
        <ele>69.54</ele>
        <time>2023-06-08T21:15:07.048Z</time>
      </trkpt>
      <trkpt lat="46.92917" lon="0.16518">
        <ele>69.57</ele>
        <time>2023-06-08T21:15:26.814Z</time>
      </trkpt>
      <trkpt lat="46.92926" lon="0.1652">
        <ele>69.7</ele>
        <time>2023-06-08T21:15:46.581Z</time>
      </trkpt>
      <trkpt lat="46.92939" lon="0.16524">
        <ele>69.99</ele>
        <time>2023-06-08T21:16:06.350Z</time>
      </trkpt>
      <trkpt lat="46.92949" lon="0.16527">
        <ele>70.24</ele>
        <time>2023-06-08T21:16:26.121Z</time>
      </trkpt>
      <trkpt lat="46.92957" lon="0.16524">
        <ele>70.45</ele>
        <time>2023-06-08T21:16:45.893Z</time>
      </trkpt>
      <trkpt lat="46.92965" lon="0.1652">
        <ele>70.65</ele>
        <time>2023-06-08T21:17:05.667Z</time>
      </trkpt>
      <trkpt lat="46.92974" lon="0.16516">
        <ele>70.82</ele>
        <time>2023-06-08T21:17:25.442Z</time>
      </trkpt>
      <trkpt lat="46.92983" lon="0.16512">
        <ele>70.92</ele>
        <time>2023-06-08T21:17:45.219Z</time>
      </trkpt>
      <trkpt lat="46.92983" lon="0.16512">
        <ele>70.92</ele>
        <time>2023-06-08T21:18:04.996Z</time>
      </trkpt>
      <trkpt lat="46.92987" lon="0.1651">
        <ele>70.95</ele>
        <time>2023-06-08T21:18:24.773Z</time>
      </trkpt>
      <trkpt lat="46.92995" lon="0.16506">
        <ele>70.95</ele>
        <time>2023-06-08T21:18:44.552Z</time>
      </trkpt>
      <trkpt lat="46.93012" lon="0.16497">
        <ele>70.89</ele>
        <time>2023-06-08T21:19:04.334Z</time>
      </trkpt>
      <trkpt lat="46.93025" lon="0.1649">
        <ele>70.89</ele>
        <time>2023-06-08T21:19:24.118Z</time>
      </trkpt>
      <trkpt lat="46.93033" lon="0.16486">
        <ele>70.92</ele>
        <time>2023-06-08T21:19:43.903Z</time>
      </trkpt>
      <trkpt lat="46.93056" lon="0.16474">
        <ele>71.11</ele>
        <time>2023-06-08T21:20:03.692Z</time>
      </trkpt>
      <trkpt lat="46.93058" lon="0.16471">
        <ele>71.14</ele>
        <time>2023-06-08T21:20:23.482Z</time>
      </trkpt>
      <trkpt lat="46.93066" lon="0.16456">
        <ele>71.16</ele>
        <time>2023-06-08T21:20:43.274Z</time>
      </trkpt>
      <trkpt lat="46.93081" lon="0.1643">
        <ele>71.12</ele>
        <time>2023-06-08T21:21:03.069Z</time>
      </trkpt>
      <trkpt lat="46.93084" lon="0.16425">
        <ele>71.15</ele>
        <time>2023-06-08T21:21:22.865Z</time>
      </trkpt>
      <trkpt lat="46.93096" lon="0.16403">
        <ele>71.33</ele>
        <time>2023-06-08T21:21:42.664Z</time>
      </trkpt>
      <trkpt lat="46.93105" lon="0.16392">
        <ele>71.44</ele>
        <time>2023-06-08T21:22:02.465Z</time>
      </trkpt>
      <trkpt lat="46.93119" lon="0.16376">
        <ele>71.68</ele>
        <time>2023-06-08T21:22:22.269Z</time>
      </trkpt>
      <trkpt lat="46.93126" lon="0.16368">
        <ele>71.75</ele>
        <time>2023-06-08T21:22:42.074Z</time>
      </trkpt>
      <trkpt lat="46.93137" lon="0.16355">
        <ele>71.76</ele>
        <time>2023-06-08T21:23:01.882Z</time>
      </trkpt>
      <trkpt lat="46.93144" lon="0.16347">
        <ele>71.73</ele>
        <time>2023-06-08T21:23:21.691Z</time>
      </trkpt>
      <trkpt lat="46.93165" lon="0.16323">
        <ele>71.49</ele>
        <time>2023-06-08T21:23:41.504Z</time>
      </trkpt>
      <trkpt lat="46.93169" lon="0.16318">
        <ele>71.48</ele>
        <time>2023-06-08T21:24:01.318Z</time>
      </trkpt>
      <trkpt lat="46.93172" lon="0.16314">
        <ele>71.5</ele>
        <time>2023-06-08T21:24:21.133Z</time>
      </trkpt>
      <trkpt lat="46.93186" lon="0.16298">
        <ele>71.7</ele>
        <time>2023-06-08T21:24:40.951Z</time>
      </trkpt>
      <trkpt lat="46.93187" lon="0.16297">
        <ele>71.7</ele>
        <time>2023-06-08T21:25:00.769Z</time>
      </trkpt>
      <trkpt lat="46.93206" lon="0.16283">
        <ele>71.78</ele>
        <time>2023-06-08T21:25:20.590Z</time>
      </trkpt>
      <trkpt lat="46.93222" lon="0.16272">
        <ele>71.95</ele>
        <time>2023-06-08T21:25:40.414Z</time>
      </trkpt>
      <trkpt lat="46.93242" lon="0.16257">
        <ele>72.11</ele>
        <time>2023-06-08T21:26:00.242Z</time>
      </trkpt>
      <trkpt lat="46.93254" lon="0.16248">
        <ele>71.96</ele>
        <time>2023-06-08T21:26:20.072Z</time>
      </trkpt>
      <trkpt lat="46.93263" lon="0.16242">
        <ele>71.88</ele>
        <time>2023-06-08T21:26:39.903Z</time>
      </trkpt>
      <trkpt lat="46.93271" lon="0.16239">
        <ele>71.83</ele>
        <time>2023-06-08T21:26:59.736Z</time>
      </trkpt>
      <trkpt lat="46.93279" lon="0.16235">
        <ele>71.68</ele>
        <time>2023-06-08T21:27:19.570Z</time>
      </trkpt>
      <trkpt lat="46.93292" lon="0.16229">
        <ele>71.36</ele>
        <time>2023-06-08T21:27:39.406Z</time>
      </trkpt>
      <trkpt lat="46.93304" lon="0.16223">
        <ele>71.15</ele>
        <time>2023-06-08T21:27:59.244Z</time>
      </trkpt>
      <trkpt lat="46.93313" lon="0.16219">
        <ele>71.09</ele>
        <time>2023-06-08T21:28:19.084Z</time>
      </trkpt>
      <trkpt lat="46.9333" lon="0.16212">
        <ele>71.02</ele>
        <time>2023-06-08T21:28:38.927Z</time>
      </trkpt>
      <trkpt lat="46.93338" lon="0.16208">
        <ele>70.92</ele>
        <time>2023-06-08T21:28:58.771Z</time>
      </trkpt>
      <trkpt lat="46.93342" lon="0.16205">
        <ele>70.88</ele>
        <time>2023-06-08T21:29:18.616Z</time>
      </trkpt>
      <trkpt lat="46.93354" lon="0.16195">
        <ele>70.79</ele>
        <time>2023-06-08T21:29:38.463Z</time>
      </trkpt>
      <trkpt lat="46.93361" lon="0.16189">
        <ele>70.7</ele>
        <time>2023-06-08T21:29:58.311Z</time>
      </trkpt>
      <trkpt lat="46.93373" lon="0.16179">
        <ele>70.52</ele>
        <time>2023-06-08T21:30:18.161Z</time>
      </trkpt>
      <trkpt lat="46.93381" lon="0.16173">
        <ele>70.43</ele>
        <time>2023-06-08T21:30:38.013Z</time>
      </trkpt>
      <trkpt lat="46.93392" lon="0.16164">
        <ele>70.39</ele>
        <time>2023-06-08T21:30:57.867Z</time>
      </trkpt>
      <trkpt lat="46.93404" lon="0.16154">
        <ele>70.4</ele>
        <time>2023-06-08T21:31:17.723Z</time>
      </trkpt>
      <trkpt lat="46.93427" lon="0.16135">
        <ele>70.55</ele>
        <time>2023-06-08T21:31:37.583Z</time>
      </trkpt>
      <trkpt lat="46.93435" lon="0.16129">
        <ele>70.57</ele>
        <time>2023-06-08T21:31:57.445Z</time>
      </trkpt>
      <trkpt lat="46.93441" lon="0.16124">
        <ele>70.52</ele>
        <time>2023-06-08T21:32:17.308Z</time>
      </trkpt>
      <trkpt lat="46.93455" lon="0.16115">
        <ele>70.42</ele>
        <time>2023-06-08T21:32:37.173Z</time>
      </trkpt>
      <trkpt lat="46.93418" lon="0.16068">
        <ele>70.09</ele>
        <time>2023-06-08T21:32:57.046Z</time>
      </trkpt>
      <trkpt lat="46.93336" lon="0.1598">
        <ele>69.42</ele>
        <time>2023-06-08T21:33:16.936Z</time>
      </trkpt>
      <trkpt lat="46.93232" lon="0.15862">
        <ele>68.54</ele>
        <time>2023-06-08T21:33:36.847Z</time>
      </trkpt>
      <trkpt lat="46.93205" lon="0.15837">
        <ele>68.33</ele>
        <time>2023-06-08T21:33:56.763Z</time>
      </trkpt>
      <trkpt lat="46.93107" lon="0.15731">
        <ele>67.52</ele>
        <time>2023-06-08T21:34:16.698Z</time>
      </trkpt>
      <trkpt lat="46.9309" lon="0.15717">
        <ele>67.39</ele>
        <time>2023-06-08T21:34:36.636Z</time>
      </trkpt>
      <trkpt lat="46.93034" lon="0.15658">
        <ele>66.93</ele>
        <time>2023-06-08T21:34:56.585Z</time>
      </trkpt>
      <trkpt lat="46.93019" lon="0.15637">
        <ele>66.79</ele>
        <time>2023-06-08T21:35:16.538Z</time>
      </trkpt>
      <trkpt lat="46.92981" lon="0.15599">
        <ele>66.49</ele>
        <time>2023-06-08T21:35:36.498Z</time>
      </trkpt>
      <trkpt lat="46.92958" lon="0.15572">
        <ele>66.3</ele>
        <time>2023-06-08T21:35:56.463Z</time>
      </trkpt>
      <trkpt lat="46.92958" lon="0.15572">
        <ele>66.3</ele>
        <time>2023-06-08T21:36:16.428Z</time>
      </trkpt>
      <trkpt lat="46.92952" lon="0.15563">
        <ele>66.13</ele>
        <time>2023-06-08T21:36:36.394Z</time>
      </trkpt>
      <trkpt lat="46.92949" lon="0.15558">
        <ele>66.07</ele>
        <time>2023-06-08T21:36:56.361Z</time>
      </trkpt>
      <trkpt lat="46.92943" lon="0.1555">
        <ele>65.99</ele>
        <time>2023-06-08T21:37:16.329Z</time>
      </trkpt>
      <trkpt lat="46.92948" lon="0.15549">
        <ele>65.94</ele>
        <time>2023-06-08T21:37:36.298Z</time>
      </trkpt>
      <trkpt lat="46.92962" lon="0.15547">
        <ele>65.75</ele>
        <time>2023-06-08T21:37:56.269Z</time>
      </trkpt>
      <trkpt lat="46.9297" lon="0.15546">
        <ele>65.66</ele>
        <time>2023-06-08T21:38:16.242Z</time>
      </trkpt>
      <trkpt lat="46.92979" lon="0.15545">
        <ele>65.64</ele>
        <time>2023-06-08T21:38:36.216Z</time>
      </trkpt>
      <trkpt lat="46.92988" lon="0.15545">
        <ele>65.63</ele>
        <time>2023-06-08T21:38:56.192Z</time>
      </trkpt>
      <trkpt lat="46.93006" lon="0.15545">
        <ele>65.49</ele>
        <time>2023-06-08T21:39:16.170Z</time>
      </trkpt>
      <trkpt lat="46.93024" lon="0.15545">
        <ele>65.44</ele>
        <time>2023-06-08T21:39:36.151Z</time>
      </trkpt>
      <trkpt lat="46.93029" lon="0.15545">
        <ele>65.44</ele>
        <time>2023-06-08T21:39:56.133Z</time>
      </trkpt>
      <trkpt lat="46.93042" lon="0.15544">
        <ele>65.44</ele>
        <time>2023-06-08T21:40:16.117Z</time>
      </trkpt>
      <trkpt lat="46.9306" lon="0.15542">
        <ele>65.36</ele>
        <time>2023-06-08T21:40:36.104Z</time>
      </trkpt>
      <trkpt lat="46.93069" lon="0.15541">
        <ele>65.35</ele>
        <time>2023-06-08T21:40:56.092Z</time>
      </trkpt>
      <trkpt lat="46.93086" lon="0.15539">
        <ele>65.39</ele>
        <time>2023-06-08T21:41:16.083Z</time>
      </trkpt>
      <trkpt lat="46.93091" lon="0.15539">
        <ele>65.42</ele>
        <time>2023-06-08T21:41:36.075Z</time>
      </trkpt>
      <trkpt lat="46.931" lon="0.15538">
        <ele>65.55</ele>
        <time>2023-06-08T21:41:56.068Z</time>
      </trkpt>
      <trkpt lat="46.93104" lon="0.15537">
        <ele>65.66</ele>
        <time>2023-06-08T21:42:16.062Z</time>
      </trkpt>
      <trkpt lat="46.93109" lon="0.15537">
        <ele>65.79</ele>
        <time>2023-06-08T21:42:36.057Z</time>
      </trkpt>
      <trkpt lat="46.93127" lon="0.15535">
        <ele>66.51</ele>
        <time>2023-06-08T21:42:56.055Z</time>
      </trkpt>
      <trkpt lat="46.93135" lon="0.15534">
        <ele>66.84</ele>
        <time>2023-06-08T21:43:16.054Z</time>
      </trkpt>
      <trkpt lat="46.93144" lon="0.15533">
        <ele>67.11</ele>
        <time>2023-06-08T21:43:36.055Z</time>
      </trkpt>
      <trkpt lat="46.93149" lon="0.15533">
        <ele>67.23</ele>
        <time>2023-06-08T21:43:56.056Z</time>
      </trkpt>
      <trkpt lat="46.93153" lon="0.15532">
        <ele>67.32</ele>
        <time>2023-06-08T21:44:16.058Z</time>
      </trkpt>
      <trkpt lat="46.93158" lon="0.15532">
        <ele>67.39</ele>
        <time>2023-06-08T21:44:36.061Z</time>
      </trkpt>
      <trkpt lat="46.93162" lon="0.15531">
        <ele>67.42</ele>
        <time>2023-06-08T21:44:56.064Z</time>
      </trkpt>
      <trkpt lat="46.93167" lon="0.15531">
        <ele>67.42</ele>
        <time>2023-06-08T21:45:16.068Z</time>
      </trkpt>
      <trkpt lat="46.9318" lon="0.15529">
        <ele>67.37</ele>
        <time>2023-06-08T21:45:36.074Z</time>
      </trkpt>
      <trkpt lat="46.93193" lon="0.15528">
        <ele>67.45</ele>
        <time>2023-06-08T21:45:56.082Z</time>
      </trkpt>
      <trkpt lat="46.93198" lon="0.15526">
        <ele>67.49</ele>
        <time>2023-06-08T21:46:16.091Z</time>
      </trkpt>
      <trkpt lat="46.93202" lon="0.15524">
        <ele>67.49</ele>
        <time>2023-06-08T21:46:36.101Z</time>
      </trkpt>
      <trkpt lat="46.93211" lon="0.1552">
        <ele>67.43</ele>
        <time>2023-06-08T21:46:56.112Z</time>
      </trkpt>
      <trkpt lat="46.93211" lon="0.1552">
        <ele>67.43</ele>
        <time>2023-06-08T21:47:16.123Z</time>
      </trkpt>
      <trkpt lat="46.93212" lon="0.15515">
        <ele>67.37</ele>
        <time>2023-06-08T21:47:36.135Z</time>
      </trkpt>
      <trkpt lat="46.93214" lon="0.15508">
        <ele>67.28</ele>
        <time>2023-06-08T21:47:56.148Z</time>
      </trkpt>
      <trkpt lat="46.93216" lon="0.15498">
        <ele>67.06</ele>
        <time>2023-06-08T21:48:16.162Z</time>
      </trkpt>
      <trkpt lat="46.93216" lon="0.15489">
        <ele>66.9</ele>
        <time>2023-06-08T21:48:36.177Z</time>
      </trkpt>
      <trkpt lat="46.93216" lon="0.15483">
        <ele>66.79</ele>
        <time>2023-06-08T21:48:56.193Z</time>
      </trkpt>
      <trkpt lat="46.93217" lon="0.1547">
        <ele>66.61</ele>
        <time>2023-06-08T21:49:16.210Z</time>
      </trkpt>
      <trkpt lat="46.93217" lon="0.15464">
        <ele>66.56</ele>
        <time>2023-06-08T21:49:36.228Z</time>
      </trkpt>
      <trkpt lat="46.93215" lon="0.15424">
        <ele>66.24</ele>
        <time>2023-06-08T21:49:56.250Z</time>
      </trkpt>
      <trkpt lat="46.93214" lon="0.15411">
        <ele>66.1</ele>
        <time>2023-06-08T21:50:16.273Z</time>
      </trkpt>
      <trkpt lat="46.93214" lon="0.15411">
        <ele>66.1</ele>
        <time>2023-06-08T21:50:36.296Z</time>
      </trkpt>
      <trkpt lat="46.93212" lon="0.15398">
        <ele>65.88</ele>
        <time>2023-06-08T21:50:56.321Z</time>
      </trkpt>
      <trkpt lat="46.93211" lon="0.15392">
        <ele>65.72</ele>
        <time>2023-06-08T21:51:16.347Z</time>
      </trkpt>
      <trkpt lat="46.93209" lon="0.15379">
        <ele>65.35</ele>
        <time>2023-06-08T21:51:36.374Z</time>
      </trkpt>
      <trkpt lat="46.93208" lon="0.15373">
        <ele>65.19</ele>
        <time>2023-06-08T21:51:56.402Z</time>
      </trkpt>
      <trkpt lat="46.93207" lon="0.15368">
        <ele>65.11</ele>
        <time>2023-06-08T21:52:16.430Z</time>
      </trkpt>
      <trkpt lat="46.93207" lon="0.15366">
        <ele>65.09</ele>
        <time>2023-06-08T21:52:36.459Z</time>
      </trkpt>
      <trkpt lat="46.93208" lon="0.1536">
        <ele>65.04</ele>
        <time>2023-06-08T21:52:56.488Z</time>
      </trkpt>
      <trkpt lat="46.93208" lon="0.15356">
        <ele>65.03</ele>
        <time>2023-06-08T21:53:16.518Z</time>
      </trkpt>
      <trkpt lat="46.93209" lon="0.15354">
        <ele>65.03</ele>
        <time>2023-06-08T21:53:36.548Z</time>
      </trkpt>
      <trkpt lat="46.93214" lon="0.15343">
        <ele>65.06</ele>
        <time>2023-06-08T21:53:56.579Z</time>
      </trkpt>
      <trkpt lat="46.93214" lon="0.15343">
        <ele>65.06</ele>
        <time>2023-06-08T21:54:16.610Z</time>
      </trkpt>
      <trkpt lat="46.9323" lon="0.1532">
        <ele>65.25</ele>
        <time>2023-06-08T21:54:36.645Z</time>
      </trkpt>
      <trkpt lat="46.93249" lon="0.15293">
        <ele>65.33</ele>
        <time>2023-06-08T21:54:56.684Z</time>
      </trkpt>
      <trkpt lat="46.93256" lon="0.15284">
        <ele>65.29</ele>
        <time>2023-06-08T21:55:16.725Z</time>
      </trkpt>
      <trkpt lat="46.93259" lon="0.15279">
        <ele>65.24</ele>
        <time>2023-06-08T21:55:36.766Z</time>
      </trkpt>
      <trkpt lat="46.93275" lon="0.15257">
        <ele>64.89</ele>
        <time>2023-06-08T21:55:56.811Z</time>
      </trkpt>
      <trkpt lat="46.93275" lon="0.15257">
        <ele>64.89</ele>
        <time>2023-06-08T21:56:16.856Z</time>
      </trkpt>
      <trkpt lat="46.93282" lon="0.15248">
        <ele>64.77</ele>
        <time>2023-06-08T21:56:36.902Z</time>
      </trkpt>
      <trkpt lat="46.93286" lon="0.15244">
        <ele>64.73</ele>
        <time>2023-06-08T21:56:56.949Z</time>
      </trkpt>
      <trkpt lat="46.93289" lon="0.1524">
        <ele>64.71</ele>
        <time>2023-06-08T21:57:16.997Z</time>
      </trkpt>
      <trkpt lat="46.93293" lon="0.15236">
        <ele>64.73</ele>
        <time>2023-06-08T21:57:37.046Z</time>
      </trkpt>
      <trkpt lat="46.933" lon="0.15228">
        <ele>64.82</ele>
        <time>2023-06-08T21:57:57.096Z</time>
      </trkpt>
      <trkpt lat="46.93307" lon="0.15219">
        <ele>64.87</ele>
        <time>2023-06-08T21:58:17.148Z</time>
      </trkpt>
      <trkpt lat="46.93307" lon="0.15219">
        <ele>64.87</ele>
        <time>2023-06-08T21:58:37.200Z</time>
      </trkpt>
      <trkpt lat="46.93329" lon="0.15197">
        <ele>64.94</ele>
        <time>2023-06-08T21:58:57.256Z</time>
      </trkpt>
      <trkpt lat="46.93336" lon="0.1519">
        <ele>64.92</ele>
        <time>2023-06-08T21:59:17.313Z</time>
      </trkpt>
      <trkpt lat="46.93343" lon="0.15183">
        <ele>64.87</ele>
        <time>2023-06-08T21:59:37.372Z</time>
      </trkpt>
      <trkpt lat="46.93354" lon="0.15172">
        <ele>64.73</ele>
        <time>2023-06-08T21:59:57.433Z</time>
      </trkpt>
      <trkpt lat="46.93358" lon="0.15168">
        <ele>64.72</ele>
        <time>2023-06-08T22:00:17.494Z</time>
      </trkpt>
      <trkpt lat="46.93366" lon="0.1516">
        <ele>64.76</ele>
        <time>2023-06-08T22:00:37.557Z</time>
      </trkpt>
      <trkpt lat="46.93372" lon="0.15154">
        <ele>64.83</ele>
        <time>2023-06-08T22:00:57.621Z</time>
      </trkpt>
      <trkpt lat="46.93373" lon="0.15153">
        <ele>64.85</ele>
        <time>2023-06-08T22:01:17.685Z</time>
      </trkpt>
      <trkpt lat="46.93381" lon="0.15148">
        <ele>65</ele>
        <time>2023-06-08T22:01:37.751Z</time>
      </trkpt>
      <trkpt lat="46.93385" lon="0.15146">
        <ele>65.08</ele>
        <time>2023-06-08T22:01:57.817Z</time>
      </trkpt>
      <trkpt lat="46.93398" lon="0.15141">
        <ele>65.38</ele>
        <time>2023-06-08T22:02:17.886Z</time>
      </trkpt>
      <trkpt lat="46.93402" lon="0.15139">
        <ele>65.44</ele>
        <time>2023-06-08T22:02:37.955Z</time>
      </trkpt>
      <trkpt lat="46.93403" lon="0.15139">
        <ele>65.44</ele>
        <time>2023-06-08T22:02:58.024Z</time>
      </trkpt>
      <trkpt lat="46.93407" lon="0.15138">
        <ele>65.46</ele>
        <time>2023-06-08T22:03:18.094Z</time>
      </trkpt>
      <trkpt lat="46.93411" lon="0.15137">
        <ele>65.46</ele>
        <time>2023-06-08T22:03:38.165Z</time>
      </trkpt>
      <trkpt lat="46.93425" lon="0.15134">
        <ele>65.39</ele>
        <time>2023-06-08T22:03:58.238Z</time>
      </trkpt>
      <trkpt lat="46.93429" lon="0.15133">
        <ele>65.38</ele>
        <time>2023-06-08T22:04:18.312Z</time>
      </trkpt>
      <trkpt lat="46.93433" lon="0.15131">
        <ele>65.37</ele>
        <time>2023-06-08T22:04:38.386Z</time>
      </trkpt>
      <trkpt lat="46.93442" lon="0.15127">
        <ele>65.39</ele>
        <time>2023-06-08T22:04:58.462Z</time>
      </trkpt>
      <trkpt lat="46.93462" lon="0.15117">
        <ele>65.47</ele>
        <time>2023-06-08T22:05:18.541Z</time>
      </trkpt>
      <trkpt lat="46.93463" lon="0.15117">
        <ele>65.48</ele>
        <time>2023-06-08T22:05:38.620Z</time>
      </trkpt>
      <trkpt lat="46.93469" lon="0.15117">
        <ele>65.53</ele>
        <time>2023-06-08T22:05:58.700Z</time>
      </trkpt>
      <trkpt lat="46.93472" lon="0.15118">
        <ele>65.57</ele>
        <time>2023-06-08T22:06:18.781Z</time>
      </trkpt>
      <trkpt lat="46.93475" lon="0.1512">
        <ele>65.58</ele>
        <time>2023-06-08T22:06:38.862Z</time>
      </trkpt>
      <trkpt lat="46.93482" lon="0.15127">
        <ele>65.61</ele>
        <time>2023-06-08T22:06:58.945Z</time>
      </trkpt>
      <trkpt lat="46.93483" lon="0.15129">
        <ele>65.62</ele>
        <time>2023-06-08T22:07:19.028Z</time>
      </trkpt>
      <trkpt lat="46.93489" lon="0.15138">
        <ele>65.6</ele>
        <time>2023-06-08T22:07:39.112Z</time>
      </trkpt>
      <trkpt lat="46.93501" lon="0.15158">
        <ele>65.46</ele>
        <time>2023-06-08T22:07:59.199Z</time>
      </trkpt>
      <trkpt lat="46.93503" lon="0.1516">
        <ele>65.45</ele>
        <time>2023-06-08T22:08:19.287Z</time>
      </trkpt>
      <trkpt lat="46.93505" lon="0.15162">
        <ele>65.45</ele>
        <time>2023-06-08T22:08:39.375Z</time>
      </trkpt>
      <trkpt lat="46.93512" lon="0.15171">
        <ele>65.51</ele>
        <time>2023-06-08T22:08:59.464Z</time>
      </trkpt>
      <trkpt lat="46.93522" lon="0.15184">
        <ele>65.68</ele>
        <time>2023-06-08T22:09:19.556Z</time>
      </trkpt>
      <trkpt lat="46.93525" lon="0.15188">
        <ele>65.72</ele>
        <time>2023-06-08T22:09:39.648Z</time>
      </trkpt>
      <trkpt lat="46.93539" lon="0.15206">
        <ele>65.79</ele>
        <time>2023-06-08T22:09:59.743Z</time>
      </trkpt>
      <trkpt lat="46.93539" lon="0.15206">
        <ele>65.79</ele>
        <time>2023-06-08T22:10:19.838Z</time>
      </trkpt>
      <trkpt lat="46.93551" lon="0.15211">
        <ele>65.79</ele>
        <time>2023-06-08T22:10:39.935Z</time>
      </trkpt>
      <trkpt lat="46.93557" lon="0.15214">
        <ele>65.81</ele>
        <time>2023-06-08T22:11:00.033Z</time>
      </trkpt>
      <trkpt lat="46.9356" lon="0.15215">
        <ele>65.83</ele>
        <time>2023-06-08T22:11:20.132Z</time>
      </trkpt>
      <trkpt lat="46.93569" lon="0.15217">
        <ele>65.92</ele>
        <time>2023-06-08T22:11:40.232Z</time>
      </trkpt>
      <trkpt lat="46.93587" lon="0.15221">
        <ele>66.15</ele>
        <time>2023-06-08T22:12:00.335Z</time>
      </trkpt>
      <trkpt lat="46.93594" lon="0.15223">
        <ele>66.21</ele>
        <time>2023-06-08T22:12:20.439Z</time>
      </trkpt>
      <trkpt lat="46.936" lon="0.1522">
        <ele>66.26</ele>
        <time>2023-06-08T22:12:40.544Z</time>
      </trkpt>
      <trkpt lat="46.93638" lon="0.15202">
        <ele>66.67</ele>
        <time>2023-06-08T22:13:00.656Z</time>
      </trkpt>
      <trkpt lat="46.93639" lon="0.15202">
        <ele>66.67</ele>
        <time>2023-06-08T22:13:20.768Z</time>
      </trkpt>
      <trkpt lat="46.93658" lon="0.15188">
        <ele>66.78</ele>
        <time>2023-06-08T22:13:40.883Z</time>
      </trkpt>
      <trkpt lat="46.93675" lon="0.15177">
        <ele>66.8</ele>
        <time>2023-06-08T22:14:01.001Z</time>
      </trkpt>
      <trkpt lat="46.93692" lon="0.15165">
        <ele>66.97</ele>
        <time>2023-06-08T22:14:21.122Z</time>
      </trkpt>
      <trkpt lat="46.93695" lon="0.15164">
        <ele>67</ele>
        <time>2023-06-08T22:14:41.244Z</time>
      </trkpt>
      <trkpt lat="46.93713" lon="0.1516">
        <ele>67.2</ele>
        <time>2023-06-08T22:15:01.369Z</time>
      </trkpt>
      <trkpt lat="46.93717" lon="0.15159">
        <ele>67.22</ele>
        <time>2023-06-08T22:15:21.494Z</time>
      </trkpt>
      <trkpt lat="46.93731" lon="0.15156">
        <ele>67.17</ele>
        <time>2023-06-08T22:15:41.622Z</time>
      </trkpt>
      <trkpt lat="46.93735" lon="0.15155">
        <ele>67.17</ele>
        <time>2023-06-08T22:16:01.750Z</time>
      </trkpt>
      <trkpt lat="46.9374" lon="0.15155">
        <ele>67.18</ele>
        <time>2023-06-08T22:16:21.879Z</time>
      </trkpt>
      <trkpt lat="46.93753" lon="0.15156">
        <ele>67.27</ele>
        <time>2023-06-08T22:16:42.010Z</time>
      </trkpt>
      <trkpt lat="46.93767" lon="0.15156">
        <ele>67.28</ele>
        <time>2023-06-08T22:17:02.143Z</time>
      </trkpt>
      <trkpt lat="46.93768" lon="0.15156">
        <ele>67.28</ele>
        <time>2023-06-08T22:17:22.277Z</time>
      </trkpt>
      <trkpt lat="46.93771" lon="0.15156">
        <ele>67.31</ele>
        <time>2023-06-08T22:17:42.411Z</time>
      </trkpt>
      <trkpt lat="46.93789" lon="0.15158">
        <ele>67.53</ele>
        <time>2023-06-08T22:18:02.548Z</time>
      </trkpt>
      <trkpt lat="46.93798" lon="0.15159">
        <ele>67.59</ele>
        <time>2023-06-08T22:18:22.686Z</time>
      </trkpt>
      <trkpt lat="46.93807" lon="0.1516">
        <ele>67.61</ele>
        <time>2023-06-08T22:18:42.826Z</time>
      </trkpt>
      <trkpt lat="46.9382" lon="0.15162">
        <ele>67.59</ele>
        <time>2023-06-08T22:19:02.968Z</time>
      </trkpt>
      <trkpt lat="46.93825" lon="0.15162">
        <ele>67.6</ele>
        <time>2023-06-08T22:19:23.111Z</time>
      </trkpt>
      <trkpt lat="46.93829" lon="0.15163">
        <ele>67.64</ele>
        <time>2023-06-08T22:19:43.254Z</time>
      </trkpt>
      <trkpt lat="46.93843" lon="0.15164">
        <ele>67.85</ele>
        <time>2023-06-08T22:20:03.400Z</time>
      </trkpt>
      <trkpt lat="46.93847" lon="0.15165">
        <ele>67.9</ele>
        <time>2023-06-08T22:20:23.546Z</time>
      </trkpt>
      <trkpt lat="46.93861" lon="0.15166">
        <ele>67.98</ele>
        <time>2023-06-08T22:20:43.694Z</time>
      </trkpt>
      <trkpt lat="46.93878" lon="0.15168">
        <ele>68.15</ele>
        <time>2023-06-08T22:21:03.845Z</time>
      </trkpt>
      <trkpt lat="46.93887" lon="0.15169">
        <ele>68.16</ele>
        <time>2023-06-08T22:21:23.998Z</time>
      </trkpt>
      <trkpt lat="46.93905" lon="0.15171">
        <ele>68.1</ele>
        <time>2023-06-08T22:21:44.154Z</time>
      </trkpt>
      <trkpt lat="46.93914" lon="0.15172">
        <ele>68.12</ele>
        <time>2023-06-08T22:22:04.311Z</time>
      </trkpt>
      <trkpt lat="46.93923" lon="0.15173">
        <ele>68.21</ele>
        <time>2023-06-08T22:22:24.469Z</time>
      </trkpt>
      <trkpt lat="46.93932" lon="0.15174">
        <ele>68.33</ele>
        <time>2023-06-08T22:22:44.629Z</time>
      </trkpt>
      <trkpt lat="46.93937" lon="0.15175">
        <ele>68.42</ele>
        <time>2023-06-08T22:23:04.790Z</time>
      </trkpt>
      <trkpt lat="46.93955" lon="0.15176">
        <ele>68.78</ele>
        <time>2023-06-08T22:23:24.953Z</time>
      </trkpt>
      <trkpt lat="46.93968" lon="0.15176">
        <ele>68.92</ele>
        <time>2023-06-08T22:23:45.119Z</time>
      </trkpt>
      <trkpt lat="46.93977" lon="0.15177">
        <ele>69.06</ele>
        <time>2023-06-08T22:24:05.286Z</time>
      </trkpt>
      <trkpt lat="46.93986" lon="0.15177">
        <ele>69.06</ele>
        <time>2023-06-08T22:24:25.455Z</time>
      </trkpt>
      <trkpt lat="46.93995" lon="0.15166">
        <ele>69.07</ele>
        <time>2023-06-08T22:24:45.625Z</time>
      </trkpt>
      <trkpt lat="46.94037" lon="0.15106">
        <ele>69.11</ele>
        <time>2023-06-08T22:25:05.805Z</time>
      </trkpt>
      <trkpt lat="46.9412" lon="0.14918">
        <ele>69.21</ele>
        <time>2023-06-08T22:25:26.009Z</time>
      </trkpt>
      <trkpt lat="46.94204" lon="0.14796">
        <ele>69.29</ele>
        <time>2023-06-08T22:25:46.232Z</time>
      </trkpt>
      <trkpt lat="46.94258" lon="0.14735">
        <ele>69.34</ele>
        <time>2023-06-08T22:26:06.466Z</time>
      </trkpt>
      <trkpt lat="46.94265" lon="0.14729">
        <ele>69.35</ele>
        <time>2023-06-08T22:26:26.701Z</time>
      </trkpt>
      <trkpt lat="46.94272" lon="0.14721">
        <ele>69.29</ele>
        <time>2023-06-08T22:26:46.938Z</time>
      </trkpt>
      <trkpt lat="46.94282" lon="0.14712">
        <ele>69.25</ele>
        <time>2023-06-08T22:27:07.177Z</time>
      </trkpt>
      <trkpt lat="46.94288" lon="0.14709">
        <ele>69.23</ele>
        <time>2023-06-08T22:27:27.417Z</time>
      </trkpt>
      <trkpt lat="46.94296" lon="0.14704">
        <ele>69.15</ele>
        <time>2023-06-08T22:27:47.658Z</time>
      </trkpt>
      <trkpt lat="46.94313" lon="0.14695">
        <ele>68.95</ele>
        <time>2023-06-08T22:28:07.902Z</time>
      </trkpt>
      <trkpt lat="46.94342" lon="0.14679">
        <ele>68.78</ele>
        <time>2023-06-08T22:28:28.151Z</time>
      </trkpt>
      <trkpt lat="46.94346" lon="0.14676">
        <ele>68.73</ele>
        <time>2023-06-08T22:28:48.401Z</time>
      </trkpt>
      <trkpt lat="46.9435" lon="0.14674">
        <ele>68.65</ele>
        <time>2023-06-08T22:29:08.652Z</time>
      </trkpt>
      <trkpt lat="46.94363" lon="0.14667">
        <ele>68.27</ele>
        <time>2023-06-08T22:29:28.905Z</time>
      </trkpt>
      <trkpt lat="46.94367" lon="0.14665">
        <ele>68.17</ele>
        <time>2023-06-08T22:29:49.158Z</time>
      </trkpt>
      <trkpt lat="46.94371" lon="0.14662">
        <ele>68.11</ele>
        <time>2023-06-08T22:30:09.412Z</time>
      </trkpt>
      <trkpt lat="46.94384" lon="0.14655">
        <ele>68.07</ele>
        <time>2023-06-08T22:30:29.668Z</time>
      </trkpt>
      <trkpt lat="46.94388" lon="0.14653">
        <ele>68.02</ele>
        <time>2023-06-08T22:30:49.925Z</time>
      </trkpt>
      <trkpt lat="46.94388" lon="0.14653">
        <ele>68.02</ele>
        <time>2023-06-08T22:31:10.182Z</time>
      </trkpt>
      <trkpt lat="46.94401" lon="0.14649">
        <ele>67.79</ele>
        <time>2023-06-08T22:31:30.441Z</time>
      </trkpt>
      <trkpt lat="46.94406" lon="0.14648">
        <ele>67.76</ele>
        <time>2023-06-08T22:31:50.701Z</time>
      </trkpt>
      <trkpt lat="46.94414" lon="0.14645">
        <ele>67.78</ele>
        <time>2023-06-08T22:32:10.962Z</time>
      </trkpt>
      <trkpt lat="46.94436" lon="0.14639">
        <ele>67.94</ele>
        <time>2023-06-08T22:32:31.227Z</time>
      </trkpt>
      <trkpt lat="46.94441" lon="0.14637">
        <ele>67.94</ele>
        <time>2023-06-08T22:32:51.493Z</time>
      </trkpt>
      <trkpt lat="46.94445" lon="0.14636">
        <ele>67.91</ele>
        <time>2023-06-08T22:33:11.759Z</time>
      </trkpt>
      <trkpt lat="46.94449" lon="0.14635">
        <ele>67.86</ele>
        <time>2023-06-08T22:33:32.026Z</time>
      </trkpt>
      <trkpt lat="46.94454" lon="0.14636">
        <ele>67.81</ele>
        <time>2023-06-08T22:33:52.294Z</time>
      </trkpt>
      <trkpt lat="46.94458" lon="0.14637">
        <ele>67.79</ele>
        <time>2023-06-08T22:34:12.562Z</time>
      </trkpt>
      <trkpt lat="46.94463" lon="0.14638">
        <ele>67.81</ele>
        <time>2023-06-08T22:34:32.831Z</time>
      </trkpt>
      <trkpt lat="46.94467" lon="0.1464">
        <ele>67.86</ele>
        <time>2023-06-08T22:34:53.101Z</time>
      </trkpt>
      <trkpt lat="46.94476" lon="0.14642">
        <ele>68</ele>
        <time>2023-06-08T22:35:13.372Z</time>
      </trkpt>
      <trkpt lat="46.94493" lon="0.14646">
        <ele>68.44</ele>
        <time>2023-06-08T22:35:33.646Z</time>
      </trkpt>
      <trkpt lat="46.94516" lon="0.14652">
        <ele>68.89</ele>
        <time>2023-06-08T22:35:53.924Z</time>
      </trkpt>
      <trkpt lat="46.94517" lon="0.14652">
        <ele>68.91</ele>
        <time>2023-06-08T22:36:14.202Z</time>
      </trkpt>
      <trkpt lat="46.9452" lon="0.14654">
        <ele>68.95</ele>
        <time>2023-06-08T22:36:34.480Z</time>
      </trkpt>
      <trkpt lat="46.94523" lon="0.14658">
        <ele>68.98</ele>
        <time>2023-06-08T22:36:54.759Z</time>
      </trkpt>
      <trkpt lat="46.94527" lon="0.14661">
        <ele>68.97</ele>
        <time>2023-06-08T22:37:15.039Z</time>
      </trkpt>
      <trkpt lat="46.94543" lon="0.14674">
        <ele>68.84</ele>
        <time>2023-06-08T22:37:35.322Z</time>
      </trkpt>
      <trkpt lat="46.94556" lon="0.14686">
        <ele>68.69</ele>
        <time>2023-06-08T22:37:55.607Z</time>
      </trkpt>
      <trkpt lat="46.94575" lon="0.14696">
        <ele>68.51</ele>
        <time>2023-06-08T22:38:15.895Z</time>
      </trkpt>
      <trkpt lat="46.94579" lon="0.14699">
        <ele>68.49</ele>
        <time>2023-06-08T22:38:36.184Z</time>
      </trkpt>
      <trkpt lat="46.94583" lon="0.14701">
        <ele>68.48</ele>
        <time>2023-06-08T22:38:56.474Z</time>
      </trkpt>
      <trkpt lat="46.94583" lon="0.14701">
        <ele>68.48</ele>
        <time>2023-06-08T22:39:16.764Z</time>
      </trkpt>
      <trkpt lat="46.94588" lon="0.14702">
        <ele>68.5</ele>
        <time>2023-06-08T22:39:37.055Z</time>
      </trkpt>
      <trkpt lat="46.94602" lon="0.14707">
        <ele>68.58</ele>
        <time>2023-06-08T22:39:57.348Z</time>
      </trkpt>
      <trkpt lat="46.94612" lon="0.14717">
        <ele>68.65</ele>
        <time>2023-06-08T22:40:17.643Z</time>
      </trkpt>
      <trkpt lat="46.94629" lon="0.14733">
        <ele>68.55</ele>
        <time>2023-06-08T22:40:37.941Z</time>
      </trkpt>
      <trkpt lat="46.94629" lon="0.1473">
        <ele>68.55</ele>
        <time>2023-06-08T22:40:58.240Z</time>
      </trkpt>
      <trkpt lat="46.94631" lon="0.14717">
        <ele>68.49</ele>
        <time>2023-06-08T22:41:18.540Z</time>
      </trkpt>
      <trkpt lat="46.94632" lon="0.14711">
        <ele>68.44</ele>
        <time>2023-06-08T22:41:38.841Z</time>
      </trkpt>
      <trkpt lat="46.94633" lon="0.14704">
        <ele>68.34</ele>
        <time>2023-06-08T22:41:59.142Z</time>
      </trkpt>
      <trkpt lat="46.94634" lon="0.14698">
        <ele>68.18</ele>
        <time>2023-06-08T22:42:19.444Z</time>
      </trkpt>
      <trkpt lat="46.94636" lon="0.14685">
        <ele>67.79</ele>
        <time>2023-06-08T22:42:39.748Z</time>
      </trkpt>
      <trkpt lat="46.94636" lon="0.14678">
        <ele>67.64</ele>
        <time>2023-06-08T22:43:00.052Z</time>
      </trkpt>
      <trkpt lat="46.94637" lon="0.14672">
        <ele>67.53</ele>
        <time>2023-06-08T22:43:20.357Z</time>
      </trkpt>
      <trkpt lat="46.94638" lon="0.14666">
        <ele>67.45</ele>
        <time>2023-06-08T22:43:40.663Z</time>
      </trkpt>
      <trkpt lat="46.9464" lon="0.14653">
        <ele>67.38</ele>
        <time>2023-06-08T22:44:00.970Z</time>
      </trkpt>
      <trkpt lat="46.94641" lon="0.14646">
        <ele>67.39</ele>
        <time>2023-06-08T22:44:21.278Z</time>
      </trkpt>
      <trkpt lat="46.94642" lon="0.1464">
        <ele>67.42</ele>
        <time>2023-06-08T22:44:41.587Z</time>
      </trkpt>
      <trkpt lat="46.94643" lon="0.14627">
        <ele>67.52</ele>
        <time>2023-06-08T22:45:01.897Z</time>
      </trkpt>
      <trkpt lat="46.94646" lon="0.14608">
        <ele>67.74</ele>
        <time>2023-06-08T22:45:22.209Z</time>
      </trkpt>
      <trkpt lat="46.94647" lon="0.14601">
        <ele>67.78</ele>
        <time>2023-06-08T22:45:42.522Z</time>
      </trkpt>
      <trkpt lat="46.94648" lon="0.14595">
        <ele>67.78</ele>
        <time>2023-06-08T22:46:02.836Z</time>
      </trkpt>
      <trkpt lat="46.94649" lon="0.14588">
        <ele>67.75</ele>
        <time>2023-06-08T22:46:23.150Z</time>
      </trkpt>
      <trkpt lat="46.94651" lon="0.14569">
        <ele>67.54</ele>
        <time>2023-06-08T22:46:43.467Z</time>
      </trkpt>
      <trkpt lat="46.94652" lon="0.14563">
        <ele>67.43</ele>
        <time>2023-06-08T22:47:03.784Z</time>
      </trkpt>
      <trkpt lat="46.94655" lon="0.14542">
        <ele>67.05</ele>
        <time>2023-06-08T22:47:24.104Z</time>
      </trkpt>
      <trkpt lat="46.94655" lon="0.14542">
        <ele>67.05</ele>
        <time>2023-06-08T22:47:44.424Z</time>
      </trkpt>
      <trkpt lat="46.94657" lon="0.14538">
        <ele>66.96</ele>
        <time>2023-06-08T22:48:04.744Z</time>
      </trkpt>
      <trkpt lat="46.94673" lon="0.14514">
        <ele>66.58</ele>
        <time>2023-06-08T22:48:25.068Z</time>
      </trkpt>
      <trkpt lat="46.94679" lon="0.14504">
        <ele>66.49</ele>
        <time>2023-06-08T22:48:45.393Z</time>
      </trkpt>
      <trkpt lat="46.94695" lon="0.14478">
        <ele>66.36</ele>
        <time>2023-06-08T22:49:05.722Z</time>
      </trkpt>
      <trkpt lat="46.94697" lon="0.14476">
        <ele>66.35</ele>
        <time>2023-06-08T22:49:26.051Z</time>
      </trkpt>
      <trkpt lat="46.94705" lon="0.14469">
        <ele>66.28</ele>
        <time>2023-06-08T22:49:46.382Z</time>
      </trkpt>
      <trkpt lat="46.9472" lon="0.14454">
        <ele>65.96</ele>
        <time>2023-06-08T22:50:06.716Z</time>
      </trkpt>
      <trkpt lat="46.94721" lon="0.14453">
        <ele>65.94</ele>
        <time>2023-06-08T22:50:27.050Z</time>
      </trkpt>
      <trkpt lat="46.94732" lon="0.14446">
        <ele>65.8</ele>
        <time>2023-06-08T22:50:47.386Z</time>
      </trkpt>
      <trkpt lat="46.9474" lon="0.1444">
        <ele>65.62</ele>
        <time>2023-06-08T22:51:07.723Z</time>
      </trkpt>
      <trkpt lat="46.9476" lon="0.14427">
        <ele>65.02</ele>
        <time>2023-06-08T22:51:28.064Z</time>
      </trkpt>
      <trkpt lat="46.94764" lon="0.14424">
        <ele>64.86</ele>
        <time>2023-06-08T22:51:48.406Z</time>
      </trkpt>
      <trkpt lat="46.94771" lon="0.1442">
        <ele>64.56</ele>
        <time>2023-06-08T22:52:08.749Z</time>
      </trkpt>
      <trkpt lat="46.94773" lon="0.14419">
        <ele>64.48</ele>
        <time>2023-06-08T22:52:29.092Z</time>
      </trkpt>
      <trkpt lat="46.94781" lon="0.14415">
        <ele>64.17</ele>
        <time>2023-06-08T22:52:49.437Z</time>
      </trkpt>
      <trkpt lat="46.9479" lon="0.14411">
        <ele>64.02</ele>
        <time>2023-06-08T22:53:09.783Z</time>
      </trkpt>
      <trkpt lat="46.94794" lon="0.14409">
        <ele>63.98</ele>
        <time>2023-06-08T22:53:30.130Z</time>
      </trkpt>
      <trkpt lat="46.94811" lon="0.144">
        <ele>63.9</ele>
        <time>2023-06-08T22:53:50.480Z</time>
      </trkpt>
      <trkpt lat="46.94824" lon="0.14394">
        <ele>63.74</ele>
        <time>2023-06-08T22:54:10.832Z</time>
      </trkpt>
      <trkpt lat="46.94828" lon="0.14392">
        <ele>63.7</ele>
        <time>2023-06-08T22:54:31.184Z</time>
      </trkpt>
      <trkpt lat="46.94832" lon="0.1439">
        <ele>63.69</ele>
        <time>2023-06-08T22:54:51.537Z</time>
      </trkpt>
      <trkpt lat="46.94837" lon="0.14388">
        <ele>63.72</ele>
        <time>2023-06-08T22:55:11.891Z</time>
      </trkpt>
      <trkpt lat="46.94849" lon="0.14382">
        <ele>63.9</ele>
        <time>2023-06-08T22:55:32.247Z</time>
      </trkpt>
      <trkpt lat="46.94854" lon="0.1438">
        <ele>63.94</ele>
        <time>2023-06-08T22:55:52.604Z</time>
      </trkpt>
      <trkpt lat="46.94858" lon="0.14378">
        <ele>63.95</ele>
        <time>2023-06-08T22:56:12.961Z</time>
      </trkpt>
      <trkpt lat="46.94863" lon="0.14375">
        <ele>63.93</ele>
        <time>2023-06-08T22:56:33.319Z</time>
      </trkpt>
      <trkpt lat="46.94874" lon="0.14367">
        <ele>63.91</ele>
        <time>2023-06-08T22:56:53.679Z</time>
      </trkpt>
      <trkpt lat="46.9489" lon="0.14355">
        <ele>63.98</ele>
        <time>2023-06-08T22:57:14.042Z</time>
      </trkpt>
      <trkpt lat="46.9491" lon="0.1434">
        <ele>63.96</ele>
        <time>2023-06-08T22:57:34.409Z</time>
      </trkpt>
      <trkpt lat="46.94918" lon="0.14334">
        <ele>63.87</ele>
        <time>2023-06-08T22:57:54.777Z</time>
      </trkpt>
      <trkpt lat="46.94921" lon="0.14332">
        <ele>63.8</ele>
        <time>2023-06-08T22:58:15.146Z</time>
      </trkpt>
      <trkpt lat="46.94929" lon="0.14323">
        <ele>63.59</ele>
        <time>2023-06-08T22:58:35.516Z</time>
      </trkpt>
      <trkpt lat="46.94933" lon="0.14319">
        <ele>63.51</ele>
        <time>2023-06-08T22:58:55.887Z</time>
      </trkpt>
      <trkpt lat="46.94936" lon="0.14315">
        <ele>63.46</ele>
        <time>2023-06-08T22:59:16.259Z</time>
      </trkpt>
      <trkpt lat="46.9494" lon="0.14311">
        <ele>63.45</ele>
        <time>2023-06-08T22:59:36.632Z</time>
      </trkpt>
      <trkpt lat="46.94943" lon="0.14307">
        <ele>63.46</ele>
        <time>2023-06-08T22:59:57.005Z</time>
      </trkpt>
      <trkpt lat="46.94947" lon="0.14303">
        <ele>63.5</ele>
        <time>2023-06-08T23:00:17.379Z</time>
      </trkpt>
      <trkpt lat="46.9495" lon="0.14299">
        <ele>63.57</ele>
        <time>2023-06-08T23:00:37.754Z</time>
      </trkpt>
      <trkpt lat="46.94954" lon="0.14295">
        <ele>63.67</ele>
        <time>2023-06-08T23:00:58.129Z</time>
      </trkpt>
      <trkpt lat="46.94968" lon="0.14278">
        <ele>64.17</ele>
        <time>2023-06-08T23:01:18.507Z</time>
      </trkpt>
      <trkpt lat="46.94975" lon="0.1427">
        <ele>64</ele>
        <time>2023-06-08T23:01:38.887Z</time>
      </trkpt>
      <trkpt lat="46.94979" lon="0.14266">
        <ele>63.93</ele>
        <time>2023-06-08T23:01:59.267Z</time>
      </trkpt>
      <trkpt lat="46.94982" lon="0.14262">
        <ele>63.87</ele>
        <time>2023-06-08T23:02:19.648Z</time>
      </trkpt>
      <trkpt lat="46.94984" lon="0.1426">
        <ele>63.84</ele>
        <time>2023-06-08T23:02:40.030Z</time>
      </trkpt>
      <trkpt lat="46.94981" lon="0.14252">
        <ele>63.79</ele>
        <time>2023-06-08T23:03:00.413Z</time>
      </trkpt>
      <trkpt lat="46.94976" lon="0.14241">
        <ele>63.73</ele>
        <time>2023-06-08T23:03:20.797Z</time>
      </trkpt>
      <trkpt lat="46.94965" lon="0.14212">
        <ele>63.66</ele>
        <time>2023-06-08T23:03:41.185Z</time>
      </trkpt>
      <trkpt lat="46.94947" lon="0.14167">
        <ele>63.51</ele>
        <time>2023-06-08T23:04:01.578Z</time>
      </trkpt>
      <trkpt lat="46.94938" lon="0.14145">
        <ele>63.38</ele>
        <time>2023-06-08T23:04:21.974Z</time>
      </trkpt>
      <trkpt lat="46.94929" lon="0.14122">
        <ele>63.2</ele>
        <time>2023-06-08T23:04:42.373Z</time>
      </trkpt>
      <trkpt lat="46.94922" lon="0.14105">
        <ele>63.04</ele>
        <time>2023-06-08T23:05:02.774Z</time>
      </trkpt>
      <trkpt lat="46.94915" lon="0.14088">
        <ele>62.86</ele>
        <time>2023-06-08T23:05:23.177Z</time>
      </trkpt>
      <trkpt lat="46.94904" lon="0.1406">
        <ele>62.52</ele>
        <time>2023-06-08T23:05:43.584Z</time>
      </trkpt>
      <trkpt lat="46.94899" lon="0.14049">
        <ele>62.4</ele>
        <time>2023-06-08T23:06:03.992Z</time>
      </trkpt>
      <trkpt lat="46.94888" lon="0.14021">
        <ele>62.18</ele>
        <time>2023-06-08T23:06:24.404Z</time>
      </trkpt>
      <trkpt lat="46.94865" lon="0.13964">
        <ele>61.87</ele>
        <time>2023-06-08T23:06:44.823Z</time>
      </trkpt>
      <trkpt lat="46.94856" lon="0.13942">
        <ele>61.81</ele>
        <time>2023-06-08T23:07:05.245Z</time>
      </trkpt>
      <trkpt lat="46.9484" lon="0.13902">
        <ele>61.77</ele>
        <time>2023-06-08T23:07:25.672Z</time>
      </trkpt>
      <trkpt lat="46.94829" lon="0.13874">
        <ele>61.66</ele>
        <time>2023-06-08T23:07:46.103Z</time>
      </trkpt>
      <trkpt lat="46.9482" lon="0.13852">
        <ele>61.46</ele>
        <time>2023-06-08T23:08:06.536Z</time>
      </trkpt>
      <trkpt lat="46.94813" lon="0.13835">
        <ele>61.34</ele>
        <time>2023-06-08T23:08:26.972Z</time>
      </trkpt>
      <trkpt lat="46.94807" lon="0.13818">
        <ele>61.27</ele>
        <time>2023-06-08T23:08:47.410Z</time>
      </trkpt>
      <trkpt lat="46.94791" lon="0.13779">
        <ele>61.14</ele>
        <time>2023-06-08T23:09:07.853Z</time>
      </trkpt>
      <trkpt lat="46.94784" lon="0.13762">
        <ele>61.11</ele>
        <time>2023-06-08T23:09:28.298Z</time>
      </trkpt>
      <trkpt lat="46.9478" lon="0.13751">
        <ele>61.11</ele>
        <time>2023-06-08T23:09:48.744Z</time>
      </trkpt>
      <trkpt lat="46.94775" lon="0.1374">
        <ele>61.14</ele>
        <time>2023-06-08T23:10:09.192Z</time>
      </trkpt>
      <trkpt lat="46.94769" lon="0.13723">
        <ele>61.25</ele>
        <time>2023-06-08T23:10:29.642Z</time>
      </trkpt>
      <trkpt lat="46.9476" lon="0.13701">
        <ele>60.55</ele>
        <time>2023-06-08T23:10:50.095Z</time>
      </trkpt>
      <trkpt lat="46.94758" lon="0.13697">
        <ele>60.44</ele>
        <time>2023-06-08T23:11:10.548Z</time>
      </trkpt>
      <trkpt lat="46.94759" lon="0.13696">
        <ele>60.4</ele>
        <time>2023-06-08T23:11:31.001Z</time>
      </trkpt>
      <trkpt lat="46.94762" lon="0.13691">
        <ele>60.29</ele>
        <time>2023-06-08T23:11:51.455Z</time>
      </trkpt>
      <trkpt lat="46.94766" lon="0.13687">
        <ele>60.25</ele>
        <time>2023-06-08T23:12:11.910Z</time>
      </trkpt>
      <trkpt lat="46.94772" lon="0.13678">
        <ele>60.28</ele>
        <time>2023-06-08T23:12:32.366Z</time>
      </trkpt>
      <trkpt lat="46.94782" lon="0.13665">
        <ele>60.27</ele>
        <time>2023-06-08T23:12:52.824Z</time>
      </trkpt>
      <trkpt lat="46.94786" lon="0.13661">
        <ele>60.3</ele>
        <time>2023-06-08T23:13:13.283Z</time>
      </trkpt>
      <trkpt lat="46.94796" lon="0.13648">
        <ele>60.53</ele>
        <time>2023-06-08T23:13:33.744Z</time>
      </trkpt>
      <trkpt lat="46.94803" lon="0.13639">
        <ele>60.63</ele>
        <time>2023-06-08T23:13:54.207Z</time>
      </trkpt>
      <trkpt lat="46.94816" lon="0.13622">
        <ele>60.64</ele>
        <time>2023-06-08T23:14:14.672Z</time>
      </trkpt>
      <trkpt lat="46.94826" lon="0.13609">
        <ele>60.75</ele>
        <time>2023-06-08T23:14:35.140Z</time>
      </trkpt>
      <trkpt lat="46.94836" lon="0.13596">
        <ele>60.81</ele>
        <time>2023-06-08T23:14:55.610Z</time>
      </trkpt>
      <trkpt lat="46.94839" lon="0.13591">
        <ele>60.87</ele>
        <time>2023-06-08T23:15:16.080Z</time>
      </trkpt>
      <trkpt lat="46.94843" lon="0.13587">
        <ele>60.98</ele>
        <time>2023-06-08T23:15:36.551Z</time>
      </trkpt>
      <trkpt lat="46.94849" lon="0.13578">
        <ele>61.24</ele>
        <time>2023-06-08T23:15:57.024Z</time>
      </trkpt>
      <trkpt lat="46.94853" lon="0.13574">
        <ele>61.34</ele>
        <time>2023-06-08T23:16:17.497Z</time>
      </trkpt>
      <trkpt lat="46.94856" lon="0.1357">
        <ele>61.4</ele>
        <time>2023-06-08T23:16:37.971Z</time>
      </trkpt>
      <trkpt lat="46.94866" lon="0.13557">
        <ele>61.52</ele>
        <time>2023-06-08T23:16:58.447Z</time>
      </trkpt>
      <trkpt lat="46.94883" lon="0.13535">
        <ele>61.75</ele>
        <time>2023-06-08T23:17:18.927Z</time>
      </trkpt>
      <trkpt lat="46.94893" lon="0.13522">
        <ele>61.84</ele>
        <time>2023-06-08T23:17:39.409Z</time>
      </trkpt>
      <trkpt lat="46.94899" lon="0.13513">
        <ele>61.95</ele>
        <time>2023-06-08T23:17:59.892Z</time>
      </trkpt>
      <trkpt lat="46.9491" lon="0.135">
        <ele>62.21</ele>
        <time>2023-06-08T23:18:20.378Z</time>
      </trkpt>
      <trkpt lat="46.94926" lon="0.13479">
        <ele>62.74</ele>
        <time>2023-06-08T23:18:40.867Z</time>
      </trkpt>
      <trkpt lat="46.94933" lon="0.1347">
        <ele>62.85</ele>
        <time>2023-06-08T23:19:01.358Z</time>
      </trkpt>
      <trkpt lat="46.94936" lon="0.13465">
        <ele>62.87</ele>
        <time>2023-06-08T23:19:21.849Z</time>
      </trkpt>
      <trkpt lat="46.9494" lon="0.13461">
        <ele>62.86</ele>
        <time>2023-06-08T23:19:42.341Z</time>
      </trkpt>
      <trkpt lat="46.94942" lon="0.13458">
        <ele>62.84</ele>
        <time>2023-06-08T23:20:02.833Z</time>
      </trkpt>
      <trkpt lat="46.9495" lon="0.13448">
        <ele>62.79</ele>
        <time>2023-06-08T23:20:23.327Z</time>
      </trkpt>
      <trkpt lat="46.94959" lon="0.13434">
        <ele>62.78</ele>
        <time>2023-06-08T23:20:43.823Z</time>
      </trkpt>
      <trkpt lat="46.94973" lon="0.13416">
        <ele>62.72</ele>
        <time>2023-06-08T23:21:04.322Z</time>
      </trkpt>
      <trkpt lat="46.94979" lon="0.13408">
        <ele>62.76</ele>
        <time>2023-06-08T23:21:24.823Z</time>
      </trkpt>
      <trkpt lat="46.94986" lon="0.13399">
        <ele>62.83</ele>
        <time>2023-06-08T23:21:45.325Z</time>
      </trkpt>
      <trkpt lat="46.94993" lon="0.13389">
        <ele>62.85</ele>
        <time>2023-06-08T23:22:05.829Z</time>
      </trkpt>
      <trkpt lat="46.94993" lon="0.13389">
        <ele>62.85</ele>
        <time>2023-06-08T23:22:26.333Z</time>
      </trkpt>
      <trkpt lat="46.94999" lon="0.13381">
        <ele>62.79</ele>
        <time>2023-06-08T23:22:46.838Z</time>
      </trkpt>
      <trkpt lat="46.95009" lon="0.13368">
        <ele>62.66</ele>
        <time>2023-06-08T23:23:07.345Z</time>
      </trkpt>
      <trkpt lat="46.95016" lon="0.13359">
        <ele>62.6</ele>
        <time>2023-06-08T23:23:27.854Z</time>
      </trkpt>
      <trkpt lat="46.95029" lon="0.13342">
        <ele>62.54</ele>
        <time>2023-06-08T23:23:48.365Z</time>
      </trkpt>
      <trkpt lat="46.95039" lon="0.13329">
        <ele>62.47</ele>
        <time>2023-06-08T23:24:08.879Z</time>
      </trkpt>
      <trkpt lat="46.9506" lon="0.13302">
        <ele>62.29</ele>
        <time>2023-06-08T23:24:29.397Z</time>
      </trkpt>
      <trkpt lat="46.95083" lon="0.13272">
        <ele>62.2</ele>
        <time>2023-06-08T23:24:49.920Z</time>
      </trkpt>
      <trkpt lat="46.9509" lon="0.13263">
        <ele>62.23</ele>
        <time>2023-06-08T23:25:10.444Z</time>
      </trkpt>
      <trkpt lat="46.95103" lon="0.13245">
        <ele>62.35</ele>
        <time>2023-06-08T23:25:30.971Z</time>
      </trkpt>
      <trkpt lat="46.95113" lon="0.13232">
        <ele>62.42</ele>
        <time>2023-06-08T23:25:51.500Z</time>
      </trkpt>
      <trkpt lat="46.9512" lon="0.13224">
        <ele>62.51</ele>
        <time>2023-06-08T23:26:12.031Z</time>
      </trkpt>
      <trkpt lat="46.95121" lon="0.13222">
        <ele>62.58</ele>
        <time>2023-06-08T23:26:32.562Z</time>
      </trkpt>
      <trkpt lat="46.95138" lon="0.13207">
        <ele>63.59</ele>
        <time>2023-06-08T23:26:53.096Z</time>
      </trkpt>
      <trkpt lat="46.95142" lon="0.13206">
        <ele>63.81</ele>
        <time>2023-06-08T23:27:13.631Z</time>
      </trkpt>
      <trkpt lat="46.95146" lon="0.13206">
        <ele>63.98</ele>
        <time>2023-06-08T23:27:34.167Z</time>
      </trkpt>
      <trkpt lat="46.95158" lon="0.13215">
        <ele>64.62</ele>
        <time>2023-06-08T23:27:54.705Z</time>
      </trkpt>
      <trkpt lat="46.95165" lon="0.13222">
        <ele>65.01</ele>
        <time>2023-06-08T23:28:15.244Z</time>
      </trkpt>
      <trkpt lat="46.95172" lon="0.13229">
        <ele>64.93</ele>
        <time>2023-06-08T23:28:35.785Z</time>
      </trkpt>
      <trkpt lat="46.9518" lon="0.13236">
        <ele>64.83</ele>
        <time>2023-06-08T23:28:56.327Z</time>
      </trkpt>
      <trkpt lat="46.95183" lon="0.13239">
        <ele>64.8</ele>
        <time>2023-06-08T23:29:16.870Z</time>
      </trkpt>
      <trkpt lat="46.95183" lon="0.1324">
        <ele>64.8</ele>
        <time>2023-06-08T23:29:37.413Z</time>
      </trkpt>
      <trkpt lat="46.95182" lon="0.13247">
        <ele>64.81</ele>
        <time>2023-06-08T23:29:57.956Z</time>
      </trkpt>
      <trkpt lat="46.95179" lon="0.13262">
        <ele>64.87</ele>
        <time>2023-06-08T23:30:18.501Z</time>
      </trkpt>
      <trkpt lat="46.95179" lon="0.13266">
        <ele>64.89</ele>
        <time>2023-06-08T23:30:39.047Z</time>
      </trkpt>
      <trkpt lat="46.9518" lon="0.13284">
        <ele>64.89</ele>
        <time>2023-06-08T23:30:59.595Z</time>
      </trkpt>
      <trkpt lat="46.9518" lon="0.13285">
        <ele>64.9</ele>
        <time>2023-06-08T23:31:20.143Z</time>
      </trkpt>
      <trkpt lat="46.95184" lon="0.13297">
        <ele>64.95</ele>
        <time>2023-06-08T23:31:40.692Z</time>
      </trkpt>
      <trkpt lat="46.95185" lon="0.13301">
        <ele>64.98</ele>
        <time>2023-06-08T23:32:01.242Z</time>
      </trkpt>
      <trkpt lat="46.95203" lon="0.13325">
        <ele>65.27</ele>
        <time>2023-06-08T23:32:21.795Z</time>
      </trkpt>
      <trkpt lat="46.95209" lon="0.13334">
        <ele>65.34</ele>
        <time>2023-06-08T23:32:42.350Z</time>
      </trkpt>
      <trkpt lat="46.95219" lon="0.13348">
        <ele>65.39</ele>
        <time>2023-06-08T23:33:02.907Z</time>
      </trkpt>
      <trkpt lat="46.95222" lon="0.13352">
        <ele>65.46</ele>
        <time>2023-06-08T23:33:23.465Z</time>
      </trkpt>
      <trkpt lat="46.95225" lon="0.13356">
        <ele>65.56</ele>
        <time>2023-06-08T23:33:44.023Z</time>
      </trkpt>
      <trkpt lat="46.95235" lon="0.1337">
        <ele>65.95</ele>
        <time>2023-06-08T23:34:04.584Z</time>
      </trkpt>
      <trkpt lat="46.95239" lon="0.13375">
        <ele>66.05</ele>
        <time>2023-06-08T23:34:25.145Z</time>
      </trkpt>
      <trkpt lat="46.95242" lon="0.13378">
        <ele>66.13</ele>
        <time>2023-06-08T23:34:45.707Z</time>
      </trkpt>
      <trkpt lat="46.9525" lon="0.13385">
        <ele>66.26</ele>
        <time>2023-06-08T23:35:06.270Z</time>
      </trkpt>
      <trkpt lat="46.95254" lon="0.13388">
        <ele>66.3</ele>
        <time>2023-06-08T23:35:26.834Z</time>
      </trkpt>
      <trkpt lat="46.95265" lon="0.13398">
        <ele>66.36</ele>
        <time>2023-06-08T23:35:47.400Z</time>
      </trkpt>
      <trkpt lat="46.95275" lon="0.13407">
        <ele>66.44</ele>
        <time>2023-06-08T23:36:07.968Z</time>
      </trkpt>
      <trkpt lat="46.95289" lon="0.13417">
        <ele>66.55</ele>
        <time>2023-06-08T23:36:28.539Z</time>
      </trkpt>
      <trkpt lat="46.95313" lon="0.13434">
        <ele>66.85</ele>
        <time>2023-06-08T23:36:49.114Z</time>
      </trkpt>
      <trkpt lat="46.95321" lon="0.13439">
        <ele>66.92</ele>
        <time>2023-06-08T23:37:09.690Z</time>
      </trkpt>
      <trkpt lat="46.95346" lon="0.13456">
        <ele>67</ele>
        <time>2023-06-08T23:37:30.271Z</time>
      </trkpt>
      <trkpt lat="46.9535" lon="0.13459">
        <ele>66.99</ele>
        <time>2023-06-08T23:37:50.852Z</time>
      </trkpt>
      <trkpt lat="46.95363" lon="0.13464">
        <ele>66.98</ele>
        <time>2023-06-08T23:38:11.436Z</time>
      </trkpt>
      <trkpt lat="46.95376" lon="0.13469">
        <ele>67.04</ele>
        <time>2023-06-08T23:38:32.022Z</time>
      </trkpt>
      <trkpt lat="46.95389" lon="0.13475">
        <ele>67.07</ele>
        <time>2023-06-08T23:38:52.610Z</time>
      </trkpt>
      <trkpt lat="46.95397" lon="0.13477">
        <ele>67.09</ele>
        <time>2023-06-08T23:39:13.199Z</time>
      </trkpt>
      <trkpt lat="46.95406" lon="0.13479">
        <ele>67.18</ele>
        <time>2023-06-08T23:39:33.790Z</time>
      </trkpt>
      <trkpt lat="46.95415" lon="0.13481">
        <ele>67.33</ele>
        <time>2023-06-08T23:39:54.382Z</time>
      </trkpt>
      <trkpt lat="46.95417" lon="0.13482">
        <ele>67.37</ele>
        <time>2023-06-08T23:40:14.974Z</time>
      </trkpt>
      <trkpt lat="46.95442" lon="0.13479">
        <ele>67.9</ele>
        <time>2023-06-08T23:40:35.570Z</time>
      </trkpt>
      <trkpt lat="46.95448" lon="0.13478">
        <ele>67.9</ele>
        <time>2023-06-08T23:40:56.168Z</time>
      </trkpt>
      <trkpt lat="46.95462" lon="0.13476">
        <ele>67.76</ele>
        <time>2023-06-08T23:41:16.768Z</time>
      </trkpt>
      <trkpt lat="46.9547" lon="0.13475">
        <ele>67.63</ele>
        <time>2023-06-08T23:41:37.369Z</time>
      </trkpt>
      <trkpt lat="46.9547" lon="0.13474">
        <ele>67.63</ele>
        <time>2023-06-08T23:41:57.970Z</time>
      </trkpt>
      <trkpt lat="46.95473" lon="0.13455">
        <ele>67.37</ele>
        <time>2023-06-08T23:42:18.573Z</time>
      </trkpt>
      <trkpt lat="46.95475" lon="0.13436">
        <ele>67.13</ele>
        <time>2023-06-08T23:42:39.178Z</time>
      </trkpt>
      <trkpt lat="46.95478" lon="0.13431">
        <ele>67.06</ele>
        <time>2023-06-08T23:42:59.784Z</time>
      </trkpt>
      <trkpt lat="46.95489" lon="0.13411">
        <ele>66.71</ele>
        <time>2023-06-08T23:43:20.393Z</time>
      </trkpt>
      <trkpt lat="46.95501" lon="0.1339">
        <ele>66.4</ele>
        <time>2023-06-08T23:43:41.005Z</time>
      </trkpt>
      <trkpt lat="46.95507" lon="0.13382">
        <ele>66.27</ele>
        <time>2023-06-08T23:44:01.618Z</time>
      </trkpt>
      <trkpt lat="46.95514" lon="0.13373">
        <ele>66.15</ele>
        <time>2023-06-08T23:44:22.233Z</time>
      </trkpt>
      <trkpt lat="46.95523" lon="0.1336">
        <ele>66.01</ele>
        <time>2023-06-08T23:44:42.850Z</time>
      </trkpt>
      <trkpt lat="46.9553" lon="0.1335">
        <ele>65.91</ele>
        <time>2023-06-08T23:45:03.468Z</time>
      </trkpt>
      <trkpt lat="46.95536" lon="0.13341">
        <ele>65.83</ele>
        <time>2023-06-08T23:45:24.088Z</time>
      </trkpt>
      <trkpt lat="46.95561" lon="0.13303">
        <ele>65.87</ele>
        <time>2023-06-08T23:45:44.713Z</time>
      </trkpt>
      <trkpt lat="46.95561" lon="0.13303">
        <ele>65.87</ele>
        <time>2023-06-08T23:46:05.338Z</time>
      </trkpt>
      <trkpt lat="46.95568" lon="0.13295">
        <ele>65.85</ele>
        <time>2023-06-08T23:46:25.965Z</time>
      </trkpt>
      <trkpt lat="46.95574" lon="0.13287">
        <ele>65.75</ele>
        <time>2023-06-08T23:46:46.593Z</time>
      </trkpt>
      <trkpt lat="46.95578" lon="0.13282">
        <ele>65.67</ele>
        <time>2023-06-08T23:47:07.222Z</time>
      </trkpt>
      <trkpt lat="46.956" lon="0.1326">
        <ele>65.23</ele>
        <time>2023-06-08T23:47:27.855Z</time>
      </trkpt>
      <trkpt lat="46.95607" lon="0.13253">
        <ele>65.05</ele>
        <time>2023-06-08T23:47:48.490Z</time>
      </trkpt>
      <trkpt lat="46.95611" lon="0.13249">
        <ele>64.94</ele>
        <time>2023-06-08T23:48:09.125Z</time>
      </trkpt>
      <trkpt lat="46.95618" lon="0.13242">
        <ele>64.62</ele>
        <time>2023-06-08T23:48:29.762Z</time>
      </trkpt>
      <trkpt lat="46.95621" lon="0.13239">
        <ele>64.46</ele>
        <time>2023-06-08T23:48:50.399Z</time>
      </trkpt>
      <trkpt lat="46.95622" lon="0.13238">
        <ele>64.42</ele>
        <time>2023-06-08T23:49:11.037Z</time>
      </trkpt>
      <trkpt lat="46.95631" lon="0.13224">
        <ele>63.76</ele>
        <time>2023-06-08T23:49:31.677Z</time>
      </trkpt>
      <trkpt lat="46.95635" lon="0.13218">
        <ele>63.52</ele>
        <time>2023-06-08T23:49:52.318Z</time>
      </trkpt>
      <trkpt lat="46.95637" lon="0.13214">
        <ele>63.38</ele>
        <time>2023-06-08T23:50:12.959Z</time>
      </trkpt>
      <trkpt lat="46.95643" lon="0.13204">
        <ele>63.05</ele>
        <time>2023-06-08T23:50:33.602Z</time>
      </trkpt>
      <trkpt lat="46.95645" lon="0.13199">
        <ele>62.91</ele>
        <time>2023-06-08T23:50:54.245Z</time>
      </trkpt>
      <trkpt lat="46.95656" lon="0.13178">
        <ele>62.52</ele>
        <time>2023-06-08T23:51:14.891Z</time>
      </trkpt>
      <trkpt lat="46.95658" lon="0.13175">
        <ele>62.44</ele>
        <time>2023-06-08T23:51:35.538Z</time>
      </trkpt>
      <trkpt lat="46.95665" lon="0.13163">
        <ele>62.16</ele>
        <time>2023-06-08T23:51:56.186Z</time>
      </trkpt>
      <trkpt lat="46.95668" lon="0.13158">
        <ele>62.05</ele>
        <time>2023-06-08T23:52:16.835Z</time>
      </trkpt>
      <trkpt lat="46.95671" lon="0.13153">
        <ele>61.89</ele>
        <time>2023-06-08T23:52:37.485Z</time>
      </trkpt>
      <trkpt lat="46.95677" lon="0.13143">
        <ele>61.49</ele>
        <time>2023-06-08T23:52:58.136Z</time>
      </trkpt>
      <trkpt lat="46.9568" lon="0.13138">
        <ele>61.32</ele>
        <time>2023-06-08T23:53:18.788Z</time>
      </trkpt>
      <trkpt lat="46.95683" lon="0.13133">
        <ele>61.2</ele>
        <time>2023-06-08T23:53:39.441Z</time>
      </trkpt>
      <trkpt lat="46.95685" lon="0.13128">
        <ele>61.1</ele>
        <time>2023-06-08T23:54:00.094Z</time>
      </trkpt>
      <trkpt lat="46.95688" lon="0.13123">
        <ele>61.04</ele>
        <time>2023-06-08T23:54:20.748Z</time>
      </trkpt>
      <trkpt lat="46.95691" lon="0.13118">
        <ele>61</ele>
        <time>2023-06-08T23:54:41.403Z</time>
      </trkpt>
      <trkpt lat="46.95694" lon="0.13113">
        <ele>61</ele>
        <time>2023-06-08T23:55:02.058Z</time>
      </trkpt>
      <trkpt lat="46.95697" lon="0.13108">
        <ele>61.02</ele>
        <time>2023-06-08T23:55:22.714Z</time>
      </trkpt>
      <trkpt lat="46.95703" lon="0.13098">
        <ele>61.14</ele>
        <time>2023-06-08T23:55:43.372Z</time>
      </trkpt>
      <trkpt lat="46.95714" lon="0.1308">
        <ele>61.47</ele>
        <time>2023-06-08T23:56:04.032Z</time>
      </trkpt>
      <trkpt lat="46.95718" lon="0.13066">
        <ele>61.68</ele>
        <time>2023-06-08T23:56:24.694Z</time>
      </trkpt>
      <trkpt lat="46.95721" lon="0.13058">
        <ele>61.85</ele>
        <time>2023-06-08T23:56:45.357Z</time>
      </trkpt>
      <trkpt lat="46.95723" lon="0.13048">
        <ele>62.05</ele>
        <time>2023-06-08T23:57:06.021Z</time>
      </trkpt>
      <trkpt lat="46.95727" lon="0.13029">
        <ele>62.52</ele>
        <time>2023-06-08T23:57:26.687Z</time>
      </trkpt>
      <trkpt lat="46.95729" lon="0.13016">
        <ele>62.8</ele>
        <time>2023-06-08T23:57:47.355Z</time>
      </trkpt>
      <trkpt lat="46.95733" lon="0.12997">
        <ele>63.14</ele>
        <time>2023-06-08T23:58:08.025Z</time>
      </trkpt>
      <trkpt lat="46.95737" lon="0.12978">
        <ele>63.51</ele>
        <time>2023-06-08T23:58:28.697Z</time>
      </trkpt>
      <trkpt lat="46.95738" lon="0.12972">
        <ele>63.6</ele>
        <time>2023-06-08T23:58:49.370Z</time>
      </trkpt>
      <trkpt lat="46.95739" lon="0.12966">
        <ele>63.66</ele>
        <time>2023-06-08T23:59:10.043Z</time>
      </trkpt>
      <trkpt lat="46.95741" lon="0.12958">
        <ele>63.69</ele>
        <time>2023-06-08T23:59:30.717Z</time>
      </trkpt>
      <trkpt lat="46.95749" lon="0.12944">
        <ele>63.77</ele>
        <time>2023-06-08T23:59:51.393Z</time>
      </trkpt>
      <trkpt lat="46.95755" lon="0.12934">
        <ele>63.78</ele>
        <time>2023-06-09T00:00:12.071Z</time>
      </trkpt>
      <trkpt lat="46.95767" lon="0.12915">
        <ele>63.64</ele>
        <time>2023-06-09T00:00:32.752Z</time>
      </trkpt>
      <trkpt lat="46.95782" lon="0.1289">
        <ele>63.49</ele>
        <time>2023-06-09T00:00:53.436Z</time>
      </trkpt>
      <trkpt lat="46.95788" lon="0.1288">
        <ele>63.48</ele>
        <time>2023-06-09T00:01:14.122Z</time>
      </trkpt>
      <trkpt lat="46.95791" lon="0.12875">
        <ele>63.5</ele>
        <time>2023-06-09T00:01:34.808Z</time>
      </trkpt>
      <trkpt lat="46.95797" lon="0.12865">
        <ele>63.61</ele>
        <time>2023-06-09T00:01:55.496Z</time>
      </trkpt>
      <trkpt lat="46.95818" lon="0.12831">
        <ele>64.15</ele>
        <time>2023-06-09T00:02:16.189Z</time>
      </trkpt>
      <trkpt lat="46.95835" lon="0.12801">
        <ele>64.69</ele>
        <time>2023-06-09T00:02:36.886Z</time>
      </trkpt>
      <trkpt lat="46.95844" lon="0.12786">
        <ele>64.87</ele>
        <time>2023-06-09T00:02:57.585Z</time>
      </trkpt>
      <trkpt lat="46.9585" lon="0.12776">
        <ele>64.93</ele>
        <time>2023-06-09T00:03:18.286Z</time>
      </trkpt>
      <trkpt lat="46.95863" lon="0.12755">
        <ele>64.86</ele>
        <time>2023-06-09T00:03:38.990Z</time>
      </trkpt>
      <trkpt lat="46.9587" lon="0.1274">
        <ele>64.83</ele>
        <time>2023-06-09T00:03:59.696Z</time>
      </trkpt>
      <trkpt lat="46.95874" lon="0.1273">
        <ele>64.75</ele>
        <time>2023-06-09T00:04:20.403Z</time>
      </trkpt>
      <trkpt lat="46.95874" lon="0.12729">
        <ele>64.75</ele>
        <time>2023-06-09T00:04:41.110Z</time>
      </trkpt>
      <trkpt lat="46.95877" lon="0.12717">
        <ele>64.6</ele>
        <time>2023-06-09T00:05:01.819Z</time>
      </trkpt>
      <trkpt lat="46.9588" lon="0.12704">
        <ele>64.41</ele>
        <time>2023-06-09T00:05:22.529Z</time>
      </trkpt>
      <trkpt lat="46.95887" lon="0.12673">
        <ele>63.98</ele>
        <time>2023-06-09T00:05:43.243Z</time>
      </trkpt>
      <trkpt lat="46.9589" lon="0.12661">
        <ele>63.85</ele>
        <time>2023-06-09T00:06:03.958Z</time>
      </trkpt>
      <trkpt lat="46.95892" lon="0.12654">
        <ele>63.81</ele>
        <time>2023-06-09T00:06:24.674Z</time>
      </trkpt>
      <trkpt lat="46.95896" lon="0.12636">
        <ele>63.76</ele>
        <time>2023-06-09T00:06:45.392Z</time>
      </trkpt>
      <trkpt lat="46.95902" lon="0.12611">
        <ele>63.76</ele>
        <time>2023-06-09T00:07:06.113Z</time>
      </trkpt>
      <trkpt lat="46.95908" lon="0.12586">
        <ele>63.72</ele>
        <time>2023-06-09T00:07:26.837Z</time>
      </trkpt>
      <trkpt lat="46.95917" lon="0.12549">
        <ele>63.74</ele>
        <time>2023-06-09T00:07:47.565Z</time>
      </trkpt>
      <trkpt lat="46.95918" lon="0.12542">
        <ele>63.76</ele>
        <time>2023-06-09T00:08:08.294Z</time>
      </trkpt>
      <trkpt lat="46.9592" lon="0.12536">
        <ele>63.81</ele>
        <time>2023-06-09T00:08:29.024Z</time>
      </trkpt>
      <trkpt lat="46.95923" lon="0.12524">
        <ele>64.01</ele>
        <time>2023-06-09T00:08:49.755Z</time>
      </trkpt>
      <trkpt lat="46.95924" lon="0.12517">
        <ele>64.14</ele>
        <time>2023-06-09T00:09:10.487Z</time>
      </trkpt>
      <trkpt lat="46.9593" lon="0.12493">
        <ele>64.73</ele>
        <time>2023-06-09T00:09:31.222Z</time>
      </trkpt>
      <trkpt lat="46.95933" lon="0.1248">
        <ele>64.96</ele>
        <time>2023-06-09T00:09:51.958Z</time>
      </trkpt>
      <trkpt lat="46.95934" lon="0.12474">
        <ele>65.04</ele>
        <time>2023-06-09T00:10:12.695Z</time>
      </trkpt>
      <trkpt lat="46.95936" lon="0.12468">
        <ele>65.09</ele>
        <time>2023-06-09T00:10:33.433Z</time>
      </trkpt>
      <trkpt lat="46.95939" lon="0.12455">
        <ele>65.11</ele>
        <time>2023-06-09T00:10:54.172Z</time>
      </trkpt>
      <trkpt lat="46.95942" lon="0.12443">
        <ele>65.17</ele>
        <time>2023-06-09T00:11:14.913Z</time>
      </trkpt>
      <trkpt lat="46.95945" lon="0.1243">
        <ele>65.2</ele>
        <time>2023-06-09T00:11:35.655Z</time>
      </trkpt>
      <trkpt lat="46.95948" lon="0.12418">
        <ele>65.2</ele>
        <time>2023-06-09T00:11:56.398Z</time>
      </trkpt>
      <trkpt lat="46.95949" lon="0.12412">
        <ele>65.18</ele>
        <time>2023-06-09T00:12:17.142Z</time>
      </trkpt>
      <trkpt lat="46.95953" lon="0.12393">
        <ele>65.15</ele>
        <time>2023-06-09T00:12:37.888Z</time>
      </trkpt>
      <trkpt lat="46.95961" lon="0.12354">
        <ele>64.92</ele>
        <time>2023-06-09T00:12:58.639Z</time>
      </trkpt>
      <trkpt lat="46.95965" lon="0.12323">
        <ele>64.76</ele>
        <time>2023-06-09T00:13:19.393Z</time>
      </trkpt>
      <trkpt lat="46.95966" lon="0.1231">
        <ele>64.66</ele>
        <time>2023-06-09T00:13:40.149Z</time>
      </trkpt>
      <trkpt lat="46.95968" lon="0.12297">
        <ele>64.52</ele>
        <time>2023-06-09T00:14:00.906Z</time>
      </trkpt>
      <trkpt lat="46.95968" lon="0.12293">
        <ele>64.48</ele>
        <time>2023-06-09T00:14:21.663Z</time>
      </trkpt>
      <trkpt lat="46.95968" lon="0.12291">
        <ele>64.47</ele>
        <time>2023-06-09T00:14:42.421Z</time>
      </trkpt>
      <trkpt lat="46.95968" lon="0.12278">
        <ele>64.43</ele>
        <time>2023-06-09T00:15:03.180Z</time>
      </trkpt>
      <trkpt lat="46.95969" lon="0.12271">
        <ele>64.45</ele>
        <time>2023-06-09T00:15:23.940Z</time>
      </trkpt>
      <trkpt lat="46.95969" lon="0.12251">
        <ele>64.56</ele>
        <time>2023-06-09T00:15:44.702Z</time>
      </trkpt>
      <trkpt lat="46.9597" lon="0.12225">
        <ele>64.67</ele>
        <time>2023-06-09T00:16:05.467Z</time>
      </trkpt>
      <trkpt lat="46.95971" lon="0.12205">
        <ele>64.78</ele>
        <time>2023-06-09T00:16:26.234Z</time>
      </trkpt>
      <trkpt lat="46.95971" lon="0.12197">
        <ele>64.81</ele>
        <time>2023-06-09T00:16:47.002Z</time>
      </trkpt>
      <trkpt lat="46.95971" lon="0.12192">
        <ele>64.83</ele>
        <time>2023-06-09T00:17:07.771Z</time>
      </trkpt>
      <trkpt lat="46.95972" lon="0.12179">
        <ele>64.82</ele>
        <time>2023-06-09T00:17:28.541Z</time>
      </trkpt>
      <trkpt lat="46.95974" lon="0.12153">
        <ele>64.71</ele>
        <time>2023-06-09T00:17:49.314Z</time>
      </trkpt>
      <trkpt lat="46.95975" lon="0.1214">
        <ele>64.68</ele>
        <time>2023-06-09T00:18:10.088Z</time>
      </trkpt>
      <trkpt lat="46.95977" lon="0.12112">
        <ele>64.71</ele>
        <time>2023-06-09T00:18:30.865Z</time>
      </trkpt>
      <trkpt lat="46.95979" lon="0.12094">
        <ele>64.73</ele>
        <time>2023-06-09T00:18:51.644Z</time>
      </trkpt>
      <trkpt lat="46.9598" lon="0.12082">
        <ele>64.78</ele>
        <time>2023-06-09T00:19:12.425Z</time>
      </trkpt>
      <trkpt lat="46.95984" lon="0.12049">
        <ele>64.98</ele>
        <time>2023-06-09T00:19:33.209Z</time>
      </trkpt>
      <trkpt lat="46.95984" lon="0.12045">
        <ele>64.99</ele>
        <time>2023-06-09T00:19:53.994Z</time>
      </trkpt>
      <trkpt lat="46.95986" lon="0.1203">
        <ele>65.06</ele>
        <time>2023-06-09T00:20:14.781Z</time>
      </trkpt>
      <trkpt lat="46.95989" lon="0.12017">
        <ele>65.16</ele>
        <time>2023-06-09T00:20:35.569Z</time>
      </trkpt>
      <trkpt lat="46.95991" lon="0.12004">
        <ele>65.34</ele>
        <time>2023-06-09T00:20:56.358Z</time>
      </trkpt>
      <trkpt lat="46.95994" lon="0.11985">
        <ele>65.69</ele>
        <time>2023-06-09T00:21:17.150Z</time>
      </trkpt>
      <trkpt lat="46.95996" lon="0.11973">
        <ele>65.9</ele>
        <time>2023-06-09T00:21:37.943Z</time>
      </trkpt>
      <trkpt lat="46.95997" lon="0.11966">
        <ele>65.97</ele>
        <time>2023-06-09T00:21:58.737Z</time>
      </trkpt>
      <trkpt lat="46.96" lon="0.11947">
        <ele>66.03</ele>
        <time>2023-06-09T00:22:19.533Z</time>
      </trkpt>
      <trkpt lat="46.96005" lon="0.11922">
        <ele>65.99</ele>
        <time>2023-06-09T00:22:40.332Z</time>
      </trkpt>
      <trkpt lat="46.96011" lon="0.11883">
        <ele>65.87</ele>
        <time>2023-06-09T00:23:01.135Z</time>
      </trkpt>
      <trkpt lat="46.96012" lon="0.11877">
        <ele>65.87</ele>
        <time>2023-06-09T00:23:21.939Z</time>
      </trkpt>
      <trkpt lat="46.96014" lon="0.11857">
        <ele>65.87</ele>
        <time>2023-06-09T00:23:42.745Z</time>
      </trkpt>
      <trkpt lat="46.96015" lon="0.11838">
        <ele>65.84</ele>
        <time>2023-06-09T00:24:03.553Z</time>
      </trkpt>
      <trkpt lat="46.96016" lon="0.11826">
        <ele>65.79</ele>
        <time>2023-06-09T00:24:24.362Z</time>
      </trkpt>
      <trkpt lat="46.96016" lon="0.11825">
        <ele>65.79</ele>
        <time>2023-06-09T00:24:45.172Z</time>
      </trkpt>
      <trkpt lat="46.96015" lon="0.11799">
        <ele>65.64</ele>
        <time>2023-06-09T00:25:05.984Z</time>
      </trkpt>
      <trkpt lat="46.96015" lon="0.11785">
        <ele>65.62</ele>
        <time>2023-06-09T00:25:26.798Z</time>
      </trkpt>
      <trkpt lat="46.96015" lon="0.11779">
        <ele>65.63</ele>
        <time>2023-06-09T00:25:47.613Z</time>
      </trkpt>
      <trkpt lat="46.96015" lon="0.11777">
        <ele>65.63</ele>
        <time>2023-06-09T00:26:08.428Z</time>
      </trkpt>
      <trkpt lat="46.96014" lon="0.11766">
        <ele>65.69</ele>
        <time>2023-06-09T00:26:29.244Z</time>
      </trkpt>
      <trkpt lat="46.9601" lon="0.11734">
        <ele>65.9</ele>
        <time>2023-06-09T00:26:50.064Z</time>
      </trkpt>
      <trkpt lat="46.96009" lon="0.11721">
        <ele>65.91</ele>
        <time>2023-06-09T00:27:10.885Z</time>
      </trkpt>
      <trkpt lat="46.96005" lon="0.11687">
        <ele>65.77</ele>
        <time>2023-06-09T00:27:31.710Z</time>
      </trkpt>
      <trkpt lat="46.96" lon="0.11663">
        <ele>65.67</ele>
        <time>2023-06-09T00:27:52.538Z</time>
      </trkpt>
      <trkpt lat="46.95992" lon="0.11619">
        <ele>65.52</ele>
        <time>2023-06-09T00:28:13.371Z</time>
      </trkpt>
      <trkpt lat="46.95991" lon="0.11612">
        <ele>65.5</ele>
        <time>2023-06-09T00:28:34.204Z</time>
      </trkpt>
      <trkpt lat="46.9599" lon="0.11606">
        <ele>65.5</ele>
        <time>2023-06-09T00:28:55.038Z</time>
      </trkpt>
      <trkpt lat="46.95987" lon="0.1158">
        <ele>65.51</ele>
        <time>2023-06-09T00:29:15.875Z</time>
      </trkpt>
      <trkpt lat="46.95985" lon="0.11561">
        <ele>65.48</ele>
        <time>2023-06-09T00:29:36.714Z</time>
      </trkpt>
      <trkpt lat="46.95983" lon="0.11548">
        <ele>65.48</ele>
        <time>2023-06-09T00:29:57.554Z</time>
      </trkpt>
      <trkpt lat="46.95983" lon="0.11548">
        <ele>65.48</ele>
        <time>2023-06-09T00:30:18.394Z</time>
      </trkpt>
      <trkpt lat="46.95982" lon="0.11522">
        <ele>65.57</ele>
        <time>2023-06-09T00:30:39.237Z</time>
      </trkpt>
      <trkpt lat="46.95981" lon="0.11482">
        <ele>65.75</ele>
        <time>2023-06-09T00:31:00.085Z</time>
      </trkpt>
      <trkpt lat="46.95981" lon="0.11469">
        <ele>65.77</ele>
        <time>2023-06-09T00:31:20.934Z</time>
      </trkpt>
      <trkpt lat="46.95981" lon="0.11463">
        <ele>65.76</ele>
        <time>2023-06-09T00:31:41.784Z</time>
      </trkpt>
      <trkpt lat="46.9598" lon="0.11449">
        <ele>65.71</ele>
        <time>2023-06-09T00:32:02.635Z</time>
      </trkpt>
      <trkpt lat="46.95979" lon="0.11417">
        <ele>65.46</ele>
        <time>2023-06-09T00:32:23.490Z</time>
      </trkpt>
      <trkpt lat="46.95979" lon="0.11411">
        <ele>65.42</ele>
        <time>2023-06-09T00:32:44.345Z</time>
      </trkpt>
      <trkpt lat="46.9598" lon="0.1139">
        <ele>65.3</ele>
        <time>2023-06-09T00:33:05.203Z</time>
      </trkpt>
      <trkpt lat="46.95981" lon="0.11377">
        <ele>65.16</ele>
        <time>2023-06-09T00:33:26.062Z</time>
      </trkpt>
      <trkpt lat="46.95982" lon="0.11345">
        <ele>64.75</ele>
        <time>2023-06-09T00:33:46.925Z</time>
      </trkpt>
      <trkpt lat="46.95983" lon="0.11332">
        <ele>64.64</ele>
        <time>2023-06-09T00:34:07.789Z</time>
      </trkpt>
      <trkpt lat="46.95983" lon="0.11319">
        <ele>64.57</ele>
        <time>2023-06-09T00:34:28.655Z</time>
      </trkpt>
      <trkpt lat="46.95984" lon="0.11305">
        <ele>64.57</ele>
        <time>2023-06-09T00:34:49.522Z</time>
      </trkpt>
      <trkpt lat="46.95985" lon="0.11292">
        <ele>64.53</ele>
        <time>2023-06-09T00:35:10.390Z</time>
      </trkpt>
      <trkpt lat="46.95985" lon="0.11285">
        <ele>64.48</ele>
        <time>2023-06-09T00:35:31.259Z</time>
      </trkpt>
      <trkpt lat="46.95986" lon="0.11279">
        <ele>64.45</ele>
        <time>2023-06-09T00:35:52.129Z</time>
      </trkpt>
      <trkpt lat="46.95988" lon="0.11253">
        <ele>64.24</ele>
        <time>2023-06-09T00:36:13.002Z</time>
      </trkpt>
      <trkpt lat="46.9599" lon="0.11241">
        <ele>64.16</ele>
        <time>2023-06-09T00:36:33.876Z</time>
      </trkpt>
      <trkpt lat="46.95994" lon="0.11202">
        <ele>64.09</ele>
        <time>2023-06-09T00:36:54.755Z</time>
      </trkpt>
      <trkpt lat="46.95994" lon="0.11202">
        <ele>64.09</ele>
        <time>2023-06-09T00:37:15.634Z</time>
      </trkpt>
      <trkpt lat="46.95997" lon="0.11123">
        <ele>63.85</ele>
        <time>2023-06-09T00:37:36.521Z</time>
      </trkpt>
      <trkpt lat="46.95997" lon="0.11119">
        <ele>63.85</ele>
        <time>2023-06-09T00:37:57.409Z</time>
      </trkpt>
      <trkpt lat="46.95998" lon="0.1111">
        <ele>63.86</ele>
        <time>2023-06-09T00:38:18.298Z</time>
      </trkpt>
      <trkpt lat="46.96003" lon="0.11078">
        <ele>63.96</ele>
        <time>2023-06-09T00:38:39.190Z</time>
      </trkpt>
      <trkpt lat="46.96003" lon="0.11072">
        <ele>63.73</ele>
        <time>2023-06-09T00:39:00.083Z</time>
      </trkpt>
      <trkpt lat="46.96004" lon="0.11065">
        <ele>63.52</ele>
        <time>2023-06-09T00:39:20.977Z</time>
      </trkpt>
      <trkpt lat="46.96005" lon="0.11059">
        <ele>63.35</ele>
        <time>2023-06-09T00:39:41.871Z</time>
      </trkpt>
      <trkpt lat="46.96006" lon="0.11052">
        <ele>63.22</ele>
        <time>2023-06-09T00:40:02.766Z</time>
      </trkpt>
      <trkpt lat="46.96007" lon="0.11045">
        <ele>63.09</ele>
        <time>2023-06-09T00:40:23.662Z</time>
      </trkpt>
      <trkpt lat="46.9601" lon="0.11047">
        <ele>63.01</ele>
        <time>2023-06-09T00:40:44.558Z</time>
      </trkpt>
      <trkpt lat="46.96019" lon="0.11053">
        <ele>62.87</ele>
        <time>2023-06-09T00:41:05.456Z</time>
      </trkpt>
      <trkpt lat="46.96023" lon="0.11055">
        <ele>62.84</ele>
        <time>2023-06-09T00:41:26.355Z</time>
      </trkpt>
      <trkpt lat="46.96027" lon="0.11058">
        <ele>62.84</ele>
        <time>2023-06-09T00:41:47.254Z</time>
      </trkpt>
      <trkpt lat="46.96031" lon="0.11061">
        <ele>62.87</ele>
        <time>2023-06-09T00:42:08.154Z</time>
      </trkpt>
      <trkpt lat="46.96035" lon="0.11063">
        <ele>62.93</ele>
        <time>2023-06-09T00:42:29.055Z</time>
      </trkpt>
      <trkpt lat="46.96043" lon="0.11069">
        <ele>63.11</ele>
        <time>2023-06-09T00:42:49.957Z</time>
      </trkpt>
      <trkpt lat="46.96051" lon="0.11074">
        <ele>63.37</ele>
        <time>2023-06-09T00:43:10.861Z</time>
      </trkpt>
      <trkpt lat="46.96075" lon="0.1109">
        <ele>64.29</ele>
        <time>2023-06-09T00:43:31.769Z</time>
      </trkpt>
      <trkpt lat="46.96088" lon="0.11098">
        <ele>64.81</ele>
        <time>2023-06-09T00:43:52.679Z</time>
      </trkpt>
      <trkpt lat="46.96108" lon="0.11112">
        <ele>65.72</ele>
        <time>2023-06-09T00:44:13.593Z</time>
      </trkpt>
      <trkpt lat="46.96128" lon="0.11125">
        <ele>66.66</ele>
        <time>2023-06-09T00:44:34.510Z</time>
      </trkpt>
      <trkpt lat="46.96136" lon="0.11131">
        <ele>66.75</ele>
        <time>2023-06-09T00:44:55.429Z</time>
      </trkpt>
      <trkpt lat="46.96143" lon="0.11135">
        <ele>66.9</ele>
        <time>2023-06-09T00:45:16.349Z</time>
      </trkpt>
      <trkpt lat="46.96144" lon="0.11135">
        <ele>66.93</ele>
        <time>2023-06-09T00:45:37.269Z</time>
      </trkpt>
      <trkpt lat="46.9615" lon="0.11137">
        <ele>67.09</ele>
        <time>2023-06-09T00:45:58.190Z</time>
      </trkpt>
      <trkpt lat="46.96153" lon="0.11134">
        <ele>67.19</ele>
        <time>2023-06-09T00:46:19.111Z</time>
      </trkpt>
      <trkpt lat="46.9616" lon="0.11127">
        <ele>67.51</ele>
        <time>2023-06-09T00:46:40.034Z</time>
      </trkpt>
      <trkpt lat="46.96167" lon="0.1112">
        <ele>67.85</ele>
        <time>2023-06-09T00:47:00.958Z</time>
      </trkpt>
      <trkpt lat="46.96171" lon="0.11116">
        <ele>68.04</ele>
        <time>2023-06-09T00:47:21.883Z</time>
      </trkpt>
      <trkpt lat="46.96174" lon="0.11113">
        <ele>68.26</ele>
        <time>2023-06-09T00:47:42.809Z</time>
      </trkpt>
      <trkpt lat="46.96182" lon="0.11105">
        <ele>68.78</ele>
        <time>2023-06-09T00:48:03.736Z</time>
      </trkpt>
      <trkpt lat="46.96189" lon="0.11098">
        <ele>69.44</ele>
        <time>2023-06-09T00:48:24.664Z</time>
      </trkpt>
      <trkpt lat="46.96193" lon="0.11094">
        <ele>69.81</ele>
        <time>2023-06-09T00:48:45.593Z</time>
      </trkpt>
      <trkpt lat="46.96194" lon="0.11093">
        <ele>69.96</ele>
        <time>2023-06-09T00:49:06.522Z</time>
      </trkpt>
      <trkpt lat="46.962" lon="0.11088">
        <ele>70.61</ele>
        <time>2023-06-09T00:49:27.453Z</time>
      </trkpt>
      <trkpt lat="46.96204" lon="0.11085">
        <ele>71.04</ele>
        <time>2023-06-09T00:49:48.384Z</time>
      </trkpt>
      <trkpt lat="46.96215" lon="0.11075">
        <ele>72.39</ele>
        <time>2023-06-09T00:50:09.317Z</time>
      </trkpt>
      <trkpt lat="46.96232" lon="0.11061">
        <ele>74.24</ele>
        <time>2023-06-09T00:50:30.253Z</time>
      </trkpt>
      <trkpt lat="46.96239" lon="0.11057">
        <ele>74.94</ele>
        <time>2023-06-09T00:50:51.191Z</time>
      </trkpt>
      <trkpt lat="46.96247" lon="0.11052">
        <ele>75.72</ele>
        <time>2023-06-09T00:51:12.130Z</time>
      </trkpt>
      <trkpt lat="46.96257" lon="0.11046">
        <ele>76.65</ele>
        <time>2023-06-09T00:51:33.071Z</time>
      </trkpt>
      <trkpt lat="46.96259" lon="0.11045">
        <ele>76.84</ele>
        <time>2023-06-09T00:51:54.012Z</time>
      </trkpt>
      <trkpt lat="46.96263" lon="0.11044">
        <ele>77.25</ele>
        <time>2023-06-09T00:52:14.954Z</time>
      </trkpt>
      <trkpt lat="46.96272" lon="0.11042">
        <ele>78.15</ele>
        <time>2023-06-09T00:52:35.897Z</time>
      </trkpt>
      <trkpt lat="46.96285" lon="0.11039">
        <ele>79.59</ele>
        <time>2023-06-09T00:52:56.842Z</time>
      </trkpt>
      <trkpt lat="46.9629" lon="0.11038">
        <ele>80.05</ele>
        <time>2023-06-09T00:53:17.788Z</time>
      </trkpt>
      <trkpt lat="46.96298" lon="0.11036">
        <ele>80.9</ele>
        <time>2023-06-09T00:53:38.736Z</time>
      </trkpt>
      <trkpt lat="46.96309" lon="0.11033">
        <ele>80.66</ele>
        <time>2023-06-09T00:53:59.685Z</time>
      </trkpt>
      <trkpt lat="46.9631" lon="0.11033">
        <ele>80.73</ele>
        <time>2023-06-09T00:54:20.634Z</time>
      </trkpt>
      <trkpt lat="46.9632" lon="0.11025">
        <ele>81.43</ele>
        <time>2023-06-09T00:54:41.585Z</time>
      </trkpt>
      <trkpt lat="46.96321" lon="0.11026">
        <ele>81.43</ele>
        <time>2023-06-09T00:55:02.536Z</time>
      </trkpt>
      <trkpt lat="46.96328" lon="0.11035">
        <ele>81.95</ele>
        <time>2023-06-09T00:55:23.489Z</time>
      </trkpt>
      <trkpt lat="46.96335" lon="0.11041">
        <ele>82.39</ele>
        <time>2023-06-09T00:55:44.443Z</time>
      </trkpt>
      <trkpt lat="46.9635" lon="0.11055">
        <ele>83.43</ele>
        <time>2023-06-09T00:56:05.400Z</time>
      </trkpt>
      <trkpt lat="46.96365" lon="0.11069">
        <ele>84.44</ele>
        <time>2023-06-09T00:56:26.360Z</time>
      </trkpt>
      <trkpt lat="46.96369" lon="0.11072">
        <ele>84.72</ele>
        <time>2023-06-09T00:56:47.321Z</time>
      </trkpt>
      <trkpt lat="46.9637" lon="0.11073">
        <ele>84.79</ele>
        <time>2023-06-09T00:57:08.282Z</time>
      </trkpt>
      <trkpt lat="46.96377" lon="0.11079">
        <ele>85.37</ele>
        <time>2023-06-09T00:57:29.244Z</time>
      </trkpt>
      <trkpt lat="46.96388" lon="0.11089">
        <ele>86.43</ele>
        <time>2023-06-09T00:57:50.208Z</time>
      </trkpt>
      <trkpt lat="46.96392" lon="0.11092">
        <ele>86.81</ele>
        <time>2023-06-09T00:58:11.173Z</time>
      </trkpt>
      <trkpt lat="46.96396" lon="0.11095">
        <ele>87.22</ele>
        <time>2023-06-09T00:58:32.139Z</time>
      </trkpt>
      <trkpt lat="46.96419" lon="0.11115">
        <ele>89.95</ele>
        <time>2023-06-09T00:58:53.109Z</time>
      </trkpt>
      <trkpt lat="46.96438" lon="0.11132">
        <ele>92.32</ele>
        <time>2023-06-09T00:59:14.083Z</time>
      </trkpt>
      <trkpt lat="46.96446" lon="0.11138">
        <ele>93.31</ele>
        <time>2023-06-09T00:59:35.058Z</time>
      </trkpt>
      <trkpt lat="46.9645" lon="0.11142">
        <ele>93.85</ele>
        <time>2023-06-09T00:59:56.034Z</time>
      </trkpt>
      <trkpt lat="46.96458" lon="0.11148">
        <ele>95.05</ele>
        <time>2023-06-09T01:00:17.011Z</time>
      </trkpt>
      <trkpt lat="46.96469" lon="0.11158">
        <ele>97.01</ele>
        <time>2023-06-09T01:00:37.990Z</time>
      </trkpt>
      <trkpt lat="46.96508" lon="0.11191">
        <ele>103.61</ele>
        <time>2023-06-09T01:00:58.976Z</time>
      </trkpt>
      <trkpt lat="46.96519" lon="0.11201">
        <ele>105.49</ele>
        <time>2023-06-09T01:01:19.965Z</time>
      </trkpt>
      <trkpt lat="46.96531" lon="0.11211">
        <ele>107.32</ele>
        <time>2023-06-09T01:01:40.956Z</time>
      </trkpt>
      <trkpt lat="46.96532" lon="0.11212">
        <ele>107.49</ele>
        <time>2023-06-09T01:02:01.947Z</time>
      </trkpt>
      <trkpt lat="46.96571" lon="0.11251">
        <ele>113.73</ele>
        <time>2023-06-09T01:02:22.946Z</time>
      </trkpt>
      <trkpt lat="46.96573" lon="0.11253">
        <ele>113.94</ele>
        <time>2023-06-09T01:02:43.945Z</time>
      </trkpt>
      <trkpt lat="46.96575" lon="0.11255">
        <ele>114.26</ele>
        <time>2023-06-09T01:03:04.944Z</time>
      </trkpt>
      <trkpt lat="46.96586" lon="0.11264">
        <ele>115.61</ele>
        <time>2023-06-09T01:03:25.945Z</time>
      </trkpt>
      <trkpt lat="46.96587" lon="0.11265">
        <ele>115.73</ele>
        <time>2023-06-09T01:03:46.946Z</time>
      </trkpt>
      <trkpt lat="46.96595" lon="0.1127">
        <ele>116.67</ele>
        <time>2023-06-09T01:04:07.949Z</time>
      </trkpt>
      <trkpt lat="46.96603" lon="0.11276">
        <ele>117.55</ele>
        <time>2023-06-09T01:04:28.953Z</time>
      </trkpt>
      <trkpt lat="46.96623" lon="0.1129">
        <ele>119.52</ele>
        <time>2023-06-09T01:04:49.961Z</time>
      </trkpt>
      <trkpt lat="46.96627" lon="0.11293">
        <ele>119.9</ele>
        <time>2023-06-09T01:05:10.970Z</time>
      </trkpt>
      <trkpt lat="46.96631" lon="0.11296">
        <ele>120.23</ele>
        <time>2023-06-09T01:05:31.979Z</time>
      </trkpt>
      <trkpt lat="46.96635" lon="0.11299">
        <ele>120.52</ele>
        <time>2023-06-09T01:05:52.989Z</time>
      </trkpt>
      <trkpt lat="46.96639" lon="0.11302">
        <ele>120.77</ele>
        <time>2023-06-09T01:06:14.000Z</time>
      </trkpt>
      <trkpt lat="46.96643" lon="0.11305">
        <ele>120.98</ele>
        <time>2023-06-09T01:06:35.011Z</time>
      </trkpt>
      <trkpt lat="46.96647" lon="0.11308">
        <ele>121.15</ele>
        <time>2023-06-09T01:06:56.023Z</time>
      </trkpt>
      <trkpt lat="46.96655" lon="0.11313">
        <ele>121.41</ele>
        <time>2023-06-09T01:07:17.037Z</time>
      </trkpt>
      <trkpt lat="46.96687" lon="0.11336">
        <ele>122.13</ele>
        <time>2023-06-09T01:07:38.056Z</time>
      </trkpt>
      <trkpt lat="46.96695" lon="0.11342">
        <ele>122.2</ele>
        <time>2023-06-09T01:07:59.077Z</time>
      </trkpt>
      <trkpt lat="46.96703" lon="0.11347">
        <ele>122.23</ele>
        <time>2023-06-09T01:08:20.099Z</time>
      </trkpt>
      <trkpt lat="46.96708" lon="0.11351">
        <ele>122.22</ele>
        <time>2023-06-09T01:08:41.122Z</time>
      </trkpt>
      <trkpt lat="46.96709" lon="0.11348">
        <ele>122.22</ele>
        <time>2023-06-09T01:09:02.145Z</time>
      </trkpt>
      <trkpt lat="46.96712" lon="0.11342">
        <ele>122.2</ele>
        <time>2023-06-09T01:09:23.169Z</time>
      </trkpt>
      <trkpt lat="46.96719" lon="0.11327">
        <ele>122.08</ele>
        <time>2023-06-09T01:09:44.195Z</time>
      </trkpt>
      <trkpt lat="46.96724" lon="0.11316">
        <ele>122.06</ele>
        <time>2023-06-09T01:10:05.223Z</time>
      </trkpt>
      <trkpt lat="46.96726" lon="0.11311">
        <ele>122.09</ele>
        <time>2023-06-09T01:10:26.251Z</time>
      </trkpt>
      <trkpt lat="46.96731" lon="0.11301">
        <ele>122.19</ele>
        <time>2023-06-09T01:10:47.281Z</time>
      </trkpt>
      <trkpt lat="46.96733" lon="0.11295">
        <ele>122.2</ele>
        <time>2023-06-09T01:11:08.311Z</time>
      </trkpt>
      <trkpt lat="46.96736" lon="0.1129">
        <ele>122.18</ele>
        <time>2023-06-09T01:11:29.342Z</time>
      </trkpt>
      <trkpt lat="46.96743" lon="0.11274">
        <ele>121.99</ele>
        <time>2023-06-09T01:11:50.375Z</time>
      </trkpt>
      <trkpt lat="46.96743" lon="0.11274">
        <ele>121.96</ele>
        <time>2023-06-09T01:12:11.408Z</time>
      </trkpt>
      <trkpt lat="46.96754" lon="0.11249">
        <ele>121.36</ele>
        <time>2023-06-09T01:12:32.444Z</time>
      </trkpt>
      <trkpt lat="46.96755" lon="0.11247">
        <ele>121.27</ele>
        <time>2023-06-09T01:12:53.481Z</time>
      </trkpt>
      <trkpt lat="46.96762" lon="0.11233">
        <ele>120.64</ele>
        <time>2023-06-09T01:13:14.520Z</time>
      </trkpt>
      <trkpt lat="46.96768" lon="0.11222">
        <ele>120.07</ele>
        <time>2023-06-09T01:13:35.560Z</time>
      </trkpt>
      <trkpt lat="46.96774" lon="0.11212">
        <ele>119.72</ele>
        <time>2023-06-09T01:13:56.602Z</time>
      </trkpt>
      <trkpt lat="46.9678" lon="0.112">
        <ele>119.44</ele>
        <time>2023-06-09T01:14:17.645Z</time>
      </trkpt>
      <trkpt lat="46.96782" lon="0.11196">
        <ele>119.42</ele>
        <time>2023-06-09T01:14:38.689Z</time>
      </trkpt>
      <trkpt lat="46.96785" lon="0.11188">
        <ele>119.39</ele>
        <time>2023-06-09T01:14:59.734Z</time>
      </trkpt>
      <trkpt lat="46.9679" lon="0.11177">
        <ele>119.49</ele>
        <time>2023-06-09T01:15:20.780Z</time>
      </trkpt>
      <trkpt lat="46.96801" lon="0.11153">
        <ele>119.76</ele>
        <time>2023-06-09T01:15:41.829Z</time>
      </trkpt>
      <trkpt lat="46.96806" lon="0.11141">
        <ele>119.81</ele>
        <time>2023-06-09T01:16:02.880Z</time>
      </trkpt>
      <trkpt lat="46.96813" lon="0.11126">
        <ele>119.64</ele>
        <time>2023-06-09T01:16:23.933Z</time>
      </trkpt>
      <trkpt lat="46.96817" lon="0.11117">
        <ele>119.55</ele>
        <time>2023-06-09T01:16:44.987Z</time>
      </trkpt>
      <trkpt lat="46.96822" lon="0.11105">
        <ele>119.16</ele>
        <time>2023-06-09T01:17:06.043Z</time>
      </trkpt>
      <trkpt lat="46.96832" lon="0.11081">
        <ele>118.14</ele>
        <time>2023-06-09T01:17:27.102Z</time>
      </trkpt>
      <trkpt lat="46.96837" lon="0.11069">
        <ele>117.77</ele>
        <time>2023-06-09T01:17:48.162Z</time>
      </trkpt>
      <trkpt lat="46.96843" lon="0.11057">
        <ele>117.66</ele>
        <time>2023-06-09T01:18:09.224Z</time>
      </trkpt>
      <trkpt lat="46.96853" lon="0.11032">
        <ele>117.9</ele>
        <time>2023-06-09T01:18:30.289Z</time>
      </trkpt>
      <trkpt lat="46.96858" lon="0.1102">
        <ele>117.89</ele>
        <time>2023-06-09T01:18:51.356Z</time>
      </trkpt>
      <trkpt lat="46.96864" lon="0.11007">
        <ele>117.78</ele>
        <time>2023-06-09T01:19:12.424Z</time>
      </trkpt>
      <trkpt lat="46.96865" lon="0.11004">
        <ele>117.72</ele>
        <time>2023-06-09T01:19:33.493Z</time>
      </trkpt>
      <trkpt lat="46.96868" lon="0.10996">
        <ele>117.59</ele>
        <time>2023-06-09T01:19:54.563Z</time>
      </trkpt>
      <trkpt lat="46.96875" lon="0.10979">
        <ele>117.36</ele>
        <time>2023-06-09T01:20:15.635Z</time>
      </trkpt>
      <trkpt lat="46.96881" lon="0.10964">
        <ele>117.29</ele>
        <time>2023-06-09T01:20:36.709Z</time>
      </trkpt>
      <trkpt lat="46.96888" lon="0.10946">
        <ele>117.02</ele>
        <time>2023-06-09T01:20:57.785Z</time>
      </trkpt>
      <trkpt lat="46.96888" lon="0.10946">
        <ele>109.72</ele>
        <time>2023-06-09T01:21:18.861Z</time>
      </trkpt>
      <trkpt lat="46.969" lon="0.10918">
        <ele>110.86</ele>
        <time>2023-06-09T01:21:39.941Z</time>
      </trkpt>
      <trkpt lat="46.97013" lon="0.11017">
        <ele>117.6</ele>
        <time>2023-06-09T01:22:01.042Z</time>
      </trkpt>
      <trkpt lat="46.97034" lon="0.11038">
        <ele>118.9</ele>
        <time>2023-06-09T01:22:22.147Z</time>
      </trkpt>
      <trkpt lat="46.97037" lon="0.11054">
        <ele>119.48</ele>
        <time>2023-06-09T01:22:43.254Z</time>
      </trkpt>
      <trkpt lat="46.97035" lon="0.11076">
        <ele>120.25</ele>
        <time>2023-06-09T01:23:04.363Z</time>
      </trkpt>
      <trkpt lat="46.97033" lon="0.11095">
        <ele>119.69</ele>
        <time>2023-06-09T01:23:25.474Z</time>
      </trkpt>
      <trkpt lat="46.97033" lon="0.11097">
        <ele>119.62</ele>
        <time>2023-06-09T01:23:46.585Z</time>
      </trkpt>
      <trkpt lat="46.97035" lon="0.11107">
        <ele>119.27</ele>
        <time>2023-06-09T01:24:07.697Z</time>
      </trkpt>
      <trkpt lat="46.97035" lon="0.11106">
        <ele>119.27</ele>
        <time>2023-06-09T01:24:28.810Z</time>
      </trkpt>
      <trkpt lat="46.9704" lon="0.11095">
        <ele>118.78</ele>
        <time>2023-06-09T01:24:49.924Z</time>
      </trkpt>
      <trkpt lat="46.97052" lon="0.11061">
        <ele>117.21</ele>
        <time>2023-06-09T01:25:11.042Z</time>
      </trkpt>
      <trkpt lat="46.97065" lon="0.11026">
        <ele>115.69</ele>
        <time>2023-06-09T01:25:32.165Z</time>
      </trkpt>
      <trkpt lat="46.97072" lon="0.11009">
        <ele>115.01</ele>
        <time>2023-06-09T01:25:53.290Z</time>
      </trkpt>
      <trkpt lat="46.97085" lon="0.10975">
        <ele>113.75</ele>
        <time>2023-06-09T01:26:14.419Z</time>
      </trkpt>
      <trkpt lat="46.97088" lon="0.10966">
        <ele>113.49</ele>
        <time>2023-06-09T01:26:35.549Z</time>
      </trkpt>
      <trkpt lat="46.97094" lon="0.10947">
        <ele>112.97</ele>
        <time>2023-06-09T01:26:56.681Z</time>
      </trkpt>
      <trkpt lat="46.971" lon="0.1093">
        <ele>112.53</ele>
        <time>2023-06-09T01:27:17.815Z</time>
      </trkpt>
      <trkpt lat="46.97105" lon="0.10913">
        <ele>112.13</ele>
        <time>2023-06-09T01:27:38.951Z</time>
      </trkpt>
      <trkpt lat="46.97109" lon="0.10902">
        <ele>111.91</ele>
        <time>2023-06-09T01:28:00.089Z</time>
      </trkpt>
      <trkpt lat="46.97112" lon="0.10891">
        <ele>111.86</ele>
        <time>2023-06-09T01:28:21.228Z</time>
      </trkpt>
      <trkpt lat="46.97118" lon="0.10873">
        <ele>111.75</ele>
        <time>2023-06-09T01:28:42.369Z</time>
      </trkpt>
      <trkpt lat="46.97125" lon="0.10851">
        <ele>111.63</ele>
        <time>2023-06-09T01:29:03.513Z</time>
      </trkpt>
      <trkpt lat="46.97131" lon="0.10834">
        <ele>111.58</ele>
        <time>2023-06-09T01:29:24.659Z</time>
      </trkpt>
      <trkpt lat="46.97131" lon="0.10834">
        <ele>111.58</ele>
        <time>2023-06-09T01:29:45.805Z</time>
      </trkpt>
      <trkpt lat="46.97135" lon="0.10806">
        <ele>111.58</ele>
        <time>2023-06-09T01:30:06.954Z</time>
      </trkpt>
      <trkpt lat="46.97137" lon="0.10791">
        <ele>111.59</ele>
        <time>2023-06-09T01:30:28.105Z</time>
      </trkpt>
      <trkpt lat="46.97138" lon="0.10789">
        <ele>111.6</ele>
        <time>2023-06-09T01:30:49.256Z</time>
      </trkpt>
      <trkpt lat="46.97143" lon="0.10778">
        <ele>111.52</ele>
        <time>2023-06-09T01:31:10.409Z</time>
      </trkpt>
      <trkpt lat="46.97148" lon="0.10768">
        <ele>111.37</ele>
        <time>2023-06-09T01:31:31.563Z</time>
      </trkpt>
      <trkpt lat="46.9715" lon="0.10763">
        <ele>111.28</ele>
        <time>2023-06-09T01:31:52.718Z</time>
      </trkpt>
      <trkpt lat="46.97154" lon="0.10742">
        <ele>110.95</ele>
        <time>2023-06-09T01:32:13.875Z</time>
      </trkpt>
      <trkpt lat="46.97154" lon="0.10742">
        <ele>110.95</ele>
        <time>2023-06-09T01:32:35.032Z</time>
      </trkpt>
      <trkpt lat="46.97152" lon="0.10717">
        <ele>110.57</ele>
        <time>2023-06-09T01:32:56.192Z</time>
      </trkpt>
      <trkpt lat="46.97149" lon="0.10678">
        <ele>109.91</ele>
        <time>2023-06-09T01:33:17.356Z</time>
      </trkpt>
      <trkpt lat="46.97149" lon="0.10674">
        <ele>109.84</ele>
        <time>2023-06-09T01:33:38.521Z</time>
      </trkpt>
      <trkpt lat="46.97149" lon="0.10665">
        <ele>109.71</ele>
        <time>2023-06-09T01:33:59.686Z</time>
      </trkpt>
      <trkpt lat="46.9715" lon="0.10626">
        <ele>109.25</ele>
        <time>2023-06-09T01:34:20.856Z</time>
      </trkpt>
      <trkpt lat="46.97151" lon="0.10606">
        <ele>108.96</ele>
        <time>2023-06-09T01:34:42.028Z</time>
      </trkpt>
      <trkpt lat="46.97151" lon="0.10593">
        <ele>108.78</ele>
        <time>2023-06-09T01:35:03.201Z</time>
      </trkpt>
      <trkpt lat="46.9715" lon="0.10574">
        <ele>108.47</ele>
        <time>2023-06-09T01:35:24.377Z</time>
      </trkpt>
      <trkpt lat="46.97149" lon="0.10554">
        <ele>108.13</ele>
        <time>2023-06-09T01:35:45.555Z</time>
      </trkpt>
      <trkpt lat="46.97149" lon="0.10541">
        <ele>107.91</ele>
        <time>2023-06-09T01:36:06.734Z</time>
      </trkpt>
      <trkpt lat="46.97149" lon="0.10502">
        <ele>107.3</ele>
        <time>2023-06-09T01:36:27.917Z</time>
      </trkpt>
      <trkpt lat="46.97149" lon="0.10456">
        <ele>106.47</ele>
        <time>2023-06-09T01:36:49.105Z</time>
      </trkpt>
      <trkpt lat="46.9715" lon="0.1043">
        <ele>106.07</ele>
        <time>2023-06-09T01:37:10.296Z</time>
      </trkpt>
      <trkpt lat="46.9715" lon="0.10417">
        <ele>105.9</ele>
        <time>2023-06-09T01:37:31.489Z</time>
      </trkpt>
      <trkpt lat="46.9715" lon="0.10369">
        <ele>105.51</ele>
        <time>2023-06-09T01:37:52.687Z</time>
      </trkpt>
      <trkpt lat="46.9715" lon="0.10343">
        <ele>105.11</ele>
        <time>2023-06-09T01:38:13.888Z</time>
      </trkpt>
      <trkpt lat="46.9715" lon="0.10337">
        <ele>104.98</ele>
        <time>2023-06-09T01:38:35.089Z</time>
      </trkpt>
      <trkpt lat="46.9715" lon="0.10317">
        <ele>104.57</ele>
        <time>2023-06-09T01:38:56.293Z</time>
      </trkpt>
      <trkpt lat="46.97149" lon="0.10298">
        <ele>104.12</ele>
        <time>2023-06-09T01:39:17.499Z</time>
      </trkpt>
      <trkpt lat="46.97149" lon="0.10278">
        <ele>103.64</ele>
        <time>2023-06-09T01:39:38.707Z</time>
      </trkpt>
      <trkpt lat="46.97148" lon="0.10272">
        <ele>103.46</ele>
        <time>2023-06-09T01:39:59.916Z</time>
      </trkpt>
      <trkpt lat="46.97148" lon="0.10259">
        <ele>103.05</ele>
        <time>2023-06-09T01:40:21.126Z</time>
      </trkpt>
      <trkpt lat="46.97148" lon="0.10246">
        <ele>102.59</ele>
        <time>2023-06-09T01:40:42.337Z</time>
      </trkpt>
      <trkpt lat="46.97148" lon="0.10233">
        <ele>102.1</ele>
        <time>2023-06-09T01:41:03.550Z</time>
      </trkpt>
      <trkpt lat="46.97147" lon="0.10213">
        <ele>101.29</ele>
        <time>2023-06-09T01:41:24.765Z</time>
      </trkpt>
      <trkpt lat="46.97147" lon="0.10194">
        <ele>100.41</ele>
        <time>2023-06-09T01:41:45.982Z</time>
      </trkpt>
      <trkpt lat="46.97146" lon="0.10155">
        <ele>98.49</ele>
        <time>2023-06-09T01:42:07.203Z</time>
      </trkpt>
      <trkpt lat="46.97145" lon="0.10142">
        <ele>97.96</ele>
        <time>2023-06-09T01:42:28.426Z</time>
      </trkpt>
      <trkpt lat="46.97145" lon="0.10129">
        <ele>97.49</ele>
        <time>2023-06-09T01:42:49.650Z</time>
      </trkpt>
      <trkpt lat="46.97145" lon="0.1012">
        <ele>97.19</ele>
        <time>2023-06-09T01:43:10.875Z</time>
      </trkpt>
      <trkpt lat="46.97145" lon="0.10103">
        <ele>96.62</ele>
        <time>2023-06-09T01:43:32.102Z</time>
      </trkpt>
      <trkpt lat="46.97145" lon="0.10093">
        <ele>96.42</ele>
        <time>2023-06-09T01:43:53.330Z</time>
      </trkpt>
      <trkpt lat="46.97146" lon="0.10085">
        <ele>96.26</ele>
        <time>2023-06-09T01:44:14.559Z</time>
      </trkpt>
      <trkpt lat="46.97148" lon="0.10072">
        <ele>96.02</ele>
        <time>2023-06-09T01:44:35.790Z</time>
      </trkpt>
      <trkpt lat="46.97155" lon="0.10052">
        <ele>95.63</ele>
        <time>2023-06-09T01:44:57.023Z</time>
      </trkpt>
      <trkpt lat="46.97156" lon="0.10049">
        <ele>95.53</ele>
        <time>2023-06-09T01:45:18.256Z</time>
      </trkpt>
      <trkpt lat="46.97157" lon="0.10035">
        <ele>95.13</ele>
        <time>2023-06-09T01:45:39.491Z</time>
      </trkpt>
      <trkpt lat="46.97158" lon="0.10027">
        <ele>94.86</ele>
        <time>2023-06-09T01:46:00.727Z</time>
      </trkpt>
      <trkpt lat="46.97163" lon="0.10025">
        <ele>94.62</ele>
        <time>2023-06-09T01:46:21.964Z</time>
      </trkpt>
      <trkpt lat="46.97163" lon="0.10018">
        <ele>94.41</ele>
        <time>2023-06-09T01:46:43.201Z</time>
      </trkpt>
      <trkpt lat="46.97163" lon="0.10011">
        <ele>94.11</ele>
        <time>2023-06-09T01:47:04.439Z</time>
      </trkpt>
      <trkpt lat="46.97166" lon="0.10004">
        <ele>93.77</ele>
        <time>2023-06-09T01:47:25.678Z</time>
      </trkpt>
      <trkpt lat="46.97175" lon="0.09992">
        <ele>93.03</ele>
        <time>2023-06-09T01:47:46.919Z</time>
      </trkpt>
      <trkpt lat="46.97182" lon="0.09982">
        <ele>92.44</ele>
        <time>2023-06-09T01:48:08.162Z</time>
      </trkpt>
      <trkpt lat="46.97184" lon="0.09978">
        <ele>92.24</ele>
        <time>2023-06-09T01:48:29.405Z</time>
      </trkpt>
      <trkpt lat="46.97189" lon="0.09968">
        <ele>91.69</ele>
        <time>2023-06-09T01:48:50.649Z</time>
      </trkpt>
      <trkpt lat="46.97192" lon="0.09955">
        <ele>91.09</ele>
        <time>2023-06-09T01:49:11.895Z</time>
      </trkpt>
      <trkpt lat="46.97194" lon="0.09942">
        <ele>90.55</ele>
        <time>2023-06-09T01:49:33.142Z</time>
      </trkpt>
      <trkpt lat="46.97197" lon="0.0993">
        <ele>90.04</ele>
        <time>2023-06-09T01:49:54.391Z</time>
      </trkpt>
      <trkpt lat="46.97202" lon="0.09905">
        <ele>89.07</ele>
        <time>2023-06-09T01:50:15.643Z</time>
      </trkpt>
      <trkpt lat="46.97205" lon="0.09892">
        <ele>88.62</ele>
        <time>2023-06-09T01:50:36.896Z</time>
      </trkpt>
      <trkpt lat="46.97206" lon="0.09887">
        <ele>88.44</ele>
        <time>2023-06-09T01:50:58.150Z</time>
      </trkpt>
      <trkpt lat="46.97213" lon="0.09862">
        <ele>87.58</ele>
        <time>2023-06-09T01:51:19.407Z</time>
      </trkpt>
      <trkpt lat="46.97216" lon="0.0985">
        <ele>87.2</ele>
        <time>2023-06-09T01:51:40.665Z</time>
      </trkpt>
      <trkpt lat="46.97221" lon="0.09831">
        <ele>86.73</ele>
        <time>2023-06-09T01:52:01.925Z</time>
      </trkpt>
      <trkpt lat="46.97232" lon="0.09795">
        <ele>85.87</ele>
        <time>2023-06-09T01:52:23.190Z</time>
      </trkpt>
      <trkpt lat="46.97237" lon="0.09777">
        <ele>85.47</ele>
        <time>2023-06-09T01:52:44.457Z</time>
      </trkpt>
      <trkpt lat="46.97242" lon="0.09758">
        <ele>85.11</ele>
        <time>2023-06-09T01:53:05.726Z</time>
      </trkpt>
      <trkpt lat="46.97247" lon="0.0974">
        <ele>84.79</ele>
        <time>2023-06-09T01:53:26.997Z</time>
      </trkpt>
      <trkpt lat="46.97257" lon="0.09704">
        <ele>84.27</ele>
        <time>2023-06-09T01:53:48.272Z</time>
      </trkpt>
      <trkpt lat="46.97265" lon="0.09673">
        <ele>83.76</ele>
        <time>2023-06-09T01:54:09.551Z</time>
      </trkpt>
      <trkpt lat="46.97274" lon="0.09643">
        <ele>83.31</ele>
        <time>2023-06-09T01:54:30.834Z</time>
      </trkpt>
      <trkpt lat="46.9728" lon="0.09619">
        <ele>82.89</ele>
        <time>2023-06-09T01:54:52.119Z</time>
      </trkpt>
      <trkpt lat="46.97285" lon="0.09601">
        <ele>82.53</ele>
        <time>2023-06-09T01:55:13.407Z</time>
      </trkpt>
      <trkpt lat="46.97289" lon="0.09589">
        <ele>82.15</ele>
        <time>2023-06-09T01:55:34.696Z</time>
      </trkpt>
      <trkpt lat="46.97294" lon="0.0957">
        <ele>81.52</ele>
        <time>2023-06-09T01:55:55.987Z</time>
      </trkpt>
      <trkpt lat="46.97294" lon="0.0957">
        <ele>81.52</ele>
        <time>2023-06-09T01:56:17.278Z</time>
      </trkpt>
      <trkpt lat="46.97301" lon="0.09539">
        <ele>80.37</ele>
        <time>2023-06-09T01:56:38.573Z</time>
      </trkpt>
      <trkpt lat="46.97312" lon="0.09489">
        <ele>78.64</ele>
        <time>2023-06-09T01:56:59.874Z</time>
      </trkpt>
      <trkpt lat="46.97314" lon="0.09476">
        <ele>78.2</ele>
        <time>2023-06-09T01:57:21.176Z</time>
      </trkpt>
      <trkpt lat="46.97318" lon="0.09452">
        <ele>77.44</ele>
        <time>2023-06-09T01:57:42.481Z</time>
      </trkpt>
      <trkpt lat="46.97318" lon="0.0945">
        <ele>77.39</ele>
        <time>2023-06-09T01:58:03.786Z</time>
      </trkpt>
      <trkpt lat="46.97319" lon="0.09417">
        <ele>76.44</ele>
        <time>2023-06-09T01:58:25.095Z</time>
      </trkpt>
      <trkpt lat="46.97319" lon="0.09406">
        <ele>76.16</ele>
        <time>2023-06-09T01:58:46.405Z</time>
      </trkpt>
      <trkpt lat="46.97318" lon="0.09398">
        <ele>75.96</ele>
        <time>2023-06-09T01:59:07.716Z</time>
      </trkpt>
      <trkpt lat="46.97316" lon="0.09376">
        <ele>75.47</ele>
        <time>2023-06-09T01:59:29.029Z</time>
      </trkpt>
      <trkpt lat="46.97314" lon="0.09366">
        <ele>75.24</ele>
        <time>2023-06-09T01:59:50.343Z</time>
      </trkpt>
      <trkpt lat="46.97311" lon="0.09353">
        <ele>75</ele>
        <time>2023-06-09T02:00:11.659Z</time>
      </trkpt>
      <trkpt lat="46.97302" lon="0.09309">
        <ele>74.27</ele>
        <time>2023-06-09T02:00:32.980Z</time>
      </trkpt>
      <trkpt lat="46.97296" lon="0.09277">
        <ele>73.9</ele>
        <time>2023-06-09T02:00:54.304Z</time>
      </trkpt>
      <trkpt lat="46.97291" lon="0.09252">
        <ele>73.53</ele>
        <time>2023-06-09T02:01:15.631Z</time>
      </trkpt>
      <trkpt lat="46.97288" lon="0.09239">
        <ele>73.37</ele>
        <time>2023-06-09T02:01:36.960Z</time>
      </trkpt>
      <trkpt lat="46.97275" lon="0.09176">
        <ele>72.81</ele>
        <time>2023-06-09T02:01:58.296Z</time>
      </trkpt>
      <trkpt lat="46.97269" lon="0.09145">
        <ele>72.45</ele>
        <time>2023-06-09T02:02:19.636Z</time>
      </trkpt>
      <trkpt lat="46.97266" lon="0.09132">
        <ele>72.33</ele>
        <time>2023-06-09T02:02:40.977Z</time>
      </trkpt>
      <trkpt lat="46.9726" lon="0.091">
        <ele>72.08</ele>
        <time>2023-06-09T02:03:02.322Z</time>
      </trkpt>
      <trkpt lat="46.97254" lon="0.09069">
        <ele>71.69</ele>
        <time>2023-06-09T02:03:23.670Z</time>
      </trkpt>
      <trkpt lat="46.97242" lon="0.09012">
        <ele>71.11</ele>
        <time>2023-06-09T02:03:45.025Z</time>
      </trkpt>
      <trkpt lat="46.97237" lon="0.08987">
        <ele>70.92</ele>
        <time>2023-06-09T02:04:06.383Z</time>
      </trkpt>
      <trkpt lat="46.97225" lon="0.08937">
        <ele>70.56</ele>
        <time>2023-06-09T02:04:27.746Z</time>
      </trkpt>
      <trkpt lat="46.97222" lon="0.08925">
        <ele>70.5</ele>
        <time>2023-06-09T02:04:49.111Z</time>
      </trkpt>
      <trkpt lat="46.97217" lon="0.08906">
        <ele>70.49</ele>
        <time>2023-06-09T02:05:10.478Z</time>
      </trkpt>
      <trkpt lat="46.97214" lon="0.08894">
        <ele>70.42</ele>
        <time>2023-06-09T02:05:31.846Z</time>
      </trkpt>
      <trkpt lat="46.97206" lon="0.08863">
        <ele>70.12</ele>
        <time>2023-06-09T02:05:53.218Z</time>
      </trkpt>
      <trkpt lat="46.97202" lon="0.08844">
        <ele>70</ele>
        <time>2023-06-09T02:06:14.592Z</time>
      </trkpt>
      <trkpt lat="46.97196" lon="0.08822">
        <ele>69.91</ele>
        <time>2023-06-09T02:06:35.969Z</time>
      </trkpt>
      <trkpt lat="46.97196" lon="0.0882">
        <ele>69.91</ele>
        <time>2023-06-09T02:06:57.346Z</time>
      </trkpt>
      <trkpt lat="46.97193" lon="0.08807">
        <ele>69.89</ele>
        <time>2023-06-09T02:07:18.725Z</time>
      </trkpt>
      <trkpt lat="46.97189" lon="0.08788">
        <ele>69.89</ele>
        <time>2023-06-09T02:07:40.106Z</time>
      </trkpt>
      <trkpt lat="46.97184" lon="0.08763">
        <ele>69.92</ele>
        <time>2023-06-09T02:08:01.490Z</time>
      </trkpt>
      <trkpt lat="46.97184" lon="0.08761">
        <ele>69.88</ele>
        <time>2023-06-09T02:08:22.874Z</time>
      </trkpt>
      <trkpt lat="46.97183" lon="0.08752">
        <ele>69.71</ele>
        <time>2023-06-09T02:08:44.259Z</time>
      </trkpt>
      <trkpt lat="46.9718" lon="0.0873">
        <ele>69.54</ele>
        <time>2023-06-09T02:09:05.646Z</time>
      </trkpt>
      <trkpt lat="46.9718" lon="0.08729">
        <ele>69.53</ele>
        <time>2023-06-09T02:09:27.033Z</time>
      </trkpt>
      <trkpt lat="46.97182" lon="0.0872">
        <ele>69.47</ele>
        <time>2023-06-09T02:09:48.421Z</time>
      </trkpt>
      <trkpt lat="46.97183" lon="0.08703">
        <ele>69.37</ele>
        <time>2023-06-09T02:10:09.811Z</time>
      </trkpt>
      <trkpt lat="46.97183" lon="0.08699">
        <ele>69.35</ele>
        <time>2023-06-09T02:10:31.202Z</time>
      </trkpt>
      <trkpt lat="46.97182" lon="0.0868">
        <ele>69.03</ele>
        <time>2023-06-09T02:10:52.595Z</time>
      </trkpt>
      <trkpt lat="46.97182" lon="0.08666">
        <ele>68.86</ele>
        <time>2023-06-09T02:11:13.989Z</time>
      </trkpt>
      <trkpt lat="46.97182" lon="0.0866">
        <ele>68.79</ele>
        <time>2023-06-09T02:11:35.384Z</time>
      </trkpt>
      <trkpt lat="46.97181" lon="0.08647">
        <ele>68.67</ele>
        <time>2023-06-09T02:11:56.780Z</time>
      </trkpt>
      <trkpt lat="46.97179" lon="0.08615">
        <ele>68.46</ele>
        <time>2023-06-09T02:12:18.180Z</time>
      </trkpt>
      <trkpt lat="46.97176" lon="0.08582">
        <ele>68.18</ele>
        <time>2023-06-09T02:12:39.584Z</time>
      </trkpt>
      <trkpt lat="46.97174" lon="0.08543">
        <ele>68.03</ele>
        <time>2023-06-09T02:13:00.992Z</time>
      </trkpt>
      <trkpt lat="46.97172" lon="0.08517">
        <ele>67.85</ele>
        <time>2023-06-09T02:13:22.403Z</time>
      </trkpt>
      <trkpt lat="46.97171" lon="0.08504">
        <ele>67.78</ele>
        <time>2023-06-09T02:13:43.815Z</time>
      </trkpt>
      <trkpt lat="46.9717" lon="0.08491">
        <ele>67.72</ele>
        <time>2023-06-09T02:14:05.229Z</time>
      </trkpt>
      <trkpt lat="46.97166" lon="0.08452">
        <ele>67.46</ele>
        <time>2023-06-09T02:14:26.647Z</time>
      </trkpt>
      <trkpt lat="46.97162" lon="0.08413">
        <ele>67.37</ele>
        <time>2023-06-09T02:14:48.069Z</time>
      </trkpt>
      <trkpt lat="46.97159" lon="0.08375">
        <ele>67.15</ele>
        <time>2023-06-09T02:15:09.495Z</time>
      </trkpt>
      <trkpt lat="46.97156" lon="0.08342">
        <ele>67.06</ele>
        <time>2023-06-09T02:15:30.925Z</time>
      </trkpt>
      <trkpt lat="46.97152" lon="0.08297">
        <ele>66.89</ele>
        <time>2023-06-09T02:15:52.360Z</time>
      </trkpt>
      <trkpt lat="46.97149" lon="0.08271">
        <ele>66.87</ele>
        <time>2023-06-09T02:16:13.798Z</time>
      </trkpt>
      <trkpt lat="46.97147" lon="0.08245">
        <ele>66.91</ele>
        <time>2023-06-09T02:16:35.239Z</time>
      </trkpt>
      <trkpt lat="46.97145" lon="0.08232">
        <ele>66.96</ele>
        <time>2023-06-09T02:16:56.681Z</time>
      </trkpt>
      <trkpt lat="46.97142" lon="0.08193">
        <ele>67.25</ele>
        <time>2023-06-09T02:17:18.128Z</time>
      </trkpt>
      <trkpt lat="46.9714" lon="0.08174">
        <ele>67.42</ele>
        <time>2023-06-09T02:17:39.577Z</time>
      </trkpt>
      <trkpt lat="46.97138" lon="0.08148">
        <ele>67.68</ele>
        <time>2023-06-09T02:18:01.029Z</time>
      </trkpt>
      <trkpt lat="46.97135" lon="0.08122">
        <ele>67.89</ele>
        <time>2023-06-09T02:18:22.483Z</time>
      </trkpt>
      <trkpt lat="46.97132" lon="0.08089">
        <ele>67.86</ele>
        <time>2023-06-09T02:18:43.941Z</time>
      </trkpt>
      <trkpt lat="46.97197" lon="0.08105">
        <ele>67.79</ele>
        <time>2023-06-09T02:19:05.410Z</time>
      </trkpt>
      <trkpt lat="46.97206" lon="0.08108">
        <ele>67.79</ele>
        <time>2023-06-09T02:19:26.880Z</time>
      </trkpt>
      <trkpt lat="46.97328" lon="0.08149">
        <ele>78.74</ele>
        <time>2023-06-09T02:19:48.370Z</time>
      </trkpt>
      <trkpt lat="46.97411" lon="0.08168">
        <ele>86.09</ele>
        <time>2023-06-09T02:20:09.874Z</time>
      </trkpt>
      <trkpt lat="46.97416" lon="0.08168">
        <ele>86.57</ele>
        <time>2023-06-09T02:20:31.378Z</time>
      </trkpt>
      <trkpt lat="46.97475" lon="0.08165">
        <ele>86.91</ele>
        <time>2023-06-09T02:20:52.892Z</time>
      </trkpt>
      <trkpt lat="46.97516" lon="0.08166">
        <ele>87.15</ele>
        <time>2023-06-09T02:21:14.412Z</time>
      </trkpt>
      <trkpt lat="46.97525" lon="0.08166">
        <ele>87.29</ele>
        <time>2023-06-09T02:21:35.934Z</time>
      </trkpt>
      <trkpt lat="46.97533" lon="0.08166">
        <ele>87.39</ele>
        <time>2023-06-09T02:21:57.457Z</time>
      </trkpt>
      <trkpt lat="46.97539" lon="0.08166">
        <ele>87.42</ele>
        <time>2023-06-09T02:22:18.981Z</time>
      </trkpt>
      <trkpt lat="46.97553" lon="0.08168">
        <ele>87.52</ele>
        <time>2023-06-09T02:22:40.507Z</time>
      </trkpt>
      <trkpt lat="46.97577" lon="0.08171">
        <ele>87.58</ele>
        <time>2023-06-09T02:23:02.037Z</time>
      </trkpt>
      <trkpt lat="46.97651" lon="0.08197">
        <ele>87.78</ele>
        <time>2023-06-09T02:23:23.579Z</time>
      </trkpt>
      <trkpt lat="46.97809" lon="0.08237">
        <ele>88.22</ele>
        <time>2023-06-09T02:23:45.147Z</time>
      </trkpt>
      <trkpt lat="46.97817" lon="0.08239">
        <ele>88.1</ele>
        <time>2023-06-09T02:24:06.716Z</time>
      </trkpt>
      <trkpt lat="46.97822" lon="0.0824">
        <ele>88.06</ele>
        <time>2023-06-09T02:24:28.286Z</time>
      </trkpt>
      <trkpt lat="46.97835" lon="0.08243">
        <ele>88.01</ele>
        <time>2023-06-09T02:24:49.858Z</time>
      </trkpt>
      <trkpt lat="46.97843" lon="0.08245">
        <ele>88.04</ele>
        <time>2023-06-09T02:25:11.432Z</time>
      </trkpt>
      <trkpt lat="46.97861" lon="0.0825">
        <ele>88.18</ele>
        <time>2023-06-09T02:25:33.008Z</time>
      </trkpt>
      <trkpt lat="46.97869" lon="0.08252">
        <ele>88.32</ele>
        <time>2023-06-09T02:25:54.586Z</time>
      </trkpt>
      <trkpt lat="46.97874" lon="0.08253">
        <ele>88.42</ele>
        <time>2023-06-09T02:26:16.165Z</time>
      </trkpt>
      <trkpt lat="46.97887" lon="0.08256">
        <ele>88.81</ele>
        <time>2023-06-09T02:26:37.746Z</time>
      </trkpt>
      <trkpt lat="46.97891" lon="0.08257">
        <ele>88.91</ele>
        <time>2023-06-09T02:26:59.327Z</time>
      </trkpt>
      <trkpt lat="46.97908" lon="0.08262">
        <ele>89.23</ele>
        <time>2023-06-09T02:27:20.911Z</time>
      </trkpt>
      <trkpt lat="46.97939" lon="0.08269">
        <ele>89.85</ele>
        <time>2023-06-09T02:27:42.500Z</time>
      </trkpt>
      <trkpt lat="46.97947" lon="0.08271">
        <ele>89.99</ele>
        <time>2023-06-09T02:28:04.091Z</time>
      </trkpt>
      <trkpt lat="46.97965" lon="0.08276">
        <ele>90.23</ele>
        <time>2023-06-09T02:28:25.684Z</time>
      </trkpt>
      <trkpt lat="46.97974" lon="0.08278">
        <ele>90.28</ele>
        <time>2023-06-09T02:28:47.279Z</time>
      </trkpt>
      <trkpt lat="46.97982" lon="0.0828">
        <ele>90.25</ele>
        <time>2023-06-09T02:29:08.875Z</time>
      </trkpt>
      <trkpt lat="46.97991" lon="0.08282">
        <ele>90.15</ele>
        <time>2023-06-09T02:29:30.473Z</time>
      </trkpt>
      <trkpt lat="46.97997" lon="0.08284">
        <ele>90.16</ele>
        <time>2023-06-09T02:29:52.072Z</time>
      </trkpt>
      <trkpt lat="46.98002" lon="0.08285">
        <ele>90.23</ele>
        <time>2023-06-09T02:30:13.671Z</time>
      </trkpt>
      <trkpt lat="46.98006" lon="0.08286">
        <ele>90.33</ele>
        <time>2023-06-09T02:30:35.271Z</time>
      </trkpt>
      <trkpt lat="46.98011" lon="0.08287">
        <ele>90.49</ele>
        <time>2023-06-09T02:30:56.872Z</time>
      </trkpt>
      <trkpt lat="46.98014" lon="0.08288">
        <ele>90.64</ele>
        <time>2023-06-09T02:31:18.473Z</time>
      </trkpt>
      <trkpt lat="46.98015" lon="0.08278">
        <ele>90.96</ele>
        <time>2023-06-09T02:31:40.075Z</time>
      </trkpt>
      <trkpt lat="46.98018" lon="0.08278">
        <ele>91.11</ele>
        <time>2023-06-09T02:32:01.678Z</time>
      </trkpt>
      <trkpt lat="46.98023" lon="0.08277">
        <ele>91.26</ele>
        <time>2023-06-09T02:32:23.282Z</time>
      </trkpt>
      <trkpt lat="46.98025" lon="0.08277">
        <ele>91.3</ele>
        <time>2023-06-09T02:32:44.886Z</time>
      </trkpt>
      <trkpt lat="46.98027" lon="0.08278">
        <ele>91.35</ele>
        <time>2023-06-09T02:33:06.490Z</time>
      </trkpt>
      <trkpt lat="46.98032" lon="0.08279">
        <ele>91.38</ele>
        <time>2023-06-09T02:33:28.095Z</time>
      </trkpt>
      <trkpt lat="46.9804" lon="0.08281">
        <ele>91.34</ele>
        <time>2023-06-09T02:33:49.702Z</time>
      </trkpt>
      <trkpt lat="46.98045" lon="0.08282">
        <ele>91.39</ele>
        <time>2023-06-09T02:34:11.309Z</time>
      </trkpt>
      <trkpt lat="46.98049" lon="0.08283">
        <ele>91.54</ele>
        <time>2023-06-09T02:34:32.917Z</time>
      </trkpt>
      <trkpt lat="46.98054" lon="0.08285">
        <ele>91.77</ele>
        <time>2023-06-09T02:34:54.526Z</time>
      </trkpt>
      <trkpt lat="46.98059" lon="0.08286">
        <ele>92.08</ele>
        <time>2023-06-09T02:35:16.136Z</time>
      </trkpt>
      <trkpt lat="46.98062" lon="0.08287">
        <ele>92.29</ele>
        <time>2023-06-09T02:35:37.746Z</time>
      </trkpt>
      <trkpt lat="46.98067" lon="0.08289">
        <ele>92.48</ele>
        <time>2023-06-09T02:35:59.357Z</time>
      </trkpt>
      <trkpt lat="46.9808" lon="0.08295">
        <ele>92.93</ele>
        <time>2023-06-09T02:36:20.970Z</time>
      </trkpt>
      <trkpt lat="46.98088" lon="0.08298">
        <ele>93.31</ele>
        <time>2023-06-09T02:36:42.584Z</time>
      </trkpt>
      <trkpt lat="46.98093" lon="0.083">
        <ele>93.56</ele>
        <time>2023-06-09T02:37:04.199Z</time>
      </trkpt>
      <trkpt lat="46.98097" lon="0.08302">
        <ele>93.86</ele>
        <time>2023-06-09T02:37:25.815Z</time>
      </trkpt>
      <trkpt lat="46.98105" lon="0.08307">
        <ele>94.47</ele>
        <time>2023-06-09T02:37:47.432Z</time>
      </trkpt>
      <trkpt lat="46.9811" lon="0.08309">
        <ele>94.71</ele>
        <time>2023-06-09T02:38:09.050Z</time>
      </trkpt>
      <trkpt lat="46.98127" lon="0.08318">
        <ele>95.4</ele>
        <time>2023-06-09T02:38:30.671Z</time>
      </trkpt>
      <trkpt lat="46.98131" lon="0.0832">
        <ele>95.6</ele>
        <time>2023-06-09T02:38:52.293Z</time>
      </trkpt>
      <trkpt lat="46.98135" lon="0.08323">
        <ele>95.83</ele>
        <time>2023-06-09T02:39:13.915Z</time>
      </trkpt>
      <trkpt lat="46.98148" lon="0.0833">
        <ele>96.69</ele>
        <time>2023-06-09T02:39:35.540Z</time>
      </trkpt>
      <trkpt lat="46.98152" lon="0.08332">
        <ele>96.94</ele>
        <time>2023-06-09T02:39:57.165Z</time>
      </trkpt>
      <trkpt lat="46.98164" lon="0.08339">
        <ele>97.63</ele>
        <time>2023-06-09T02:40:18.792Z</time>
      </trkpt>
      <trkpt lat="46.98186" lon="0.0835">
        <ele>98.86</ele>
        <time>2023-06-09T02:40:40.423Z</time>
      </trkpt>
      <trkpt lat="46.9819" lon="0.08353">
        <ele>99.15</ele>
        <time>2023-06-09T02:41:02.055Z</time>
      </trkpt>
      <trkpt lat="46.98196" lon="0.08356">
        <ele>99.62</ele>
        <time>2023-06-09T02:41:23.688Z</time>
      </trkpt>
      <trkpt lat="46.98198" lon="0.08357">
        <ele>99.79</ele>
        <time>2023-06-09T02:41:45.321Z</time>
      </trkpt>
      <trkpt lat="46.98203" lon="0.08359">
        <ele>100.07</ele>
        <time>2023-06-09T02:42:06.955Z</time>
      </trkpt>
      <trkpt lat="46.98215" lon="0.08364">
        <ele>100.82</ele>
        <time>2023-06-09T02:42:28.591Z</time>
      </trkpt>
      <trkpt lat="46.98219" lon="0.08366">
        <ele>101.03</ele>
        <time>2023-06-09T02:42:50.228Z</time>
      </trkpt>
      <trkpt lat="46.98232" lon="0.08374">
        <ele>101.87</ele>
        <time>2023-06-09T02:43:11.867Z</time>
      </trkpt>
      <trkpt lat="46.98236" lon="0.08376">
        <ele>102.11</ele>
        <time>2023-06-09T02:43:33.507Z</time>
      </trkpt>
      <trkpt lat="46.98241" lon="0.08379">
        <ele>102.3</ele>
        <time>2023-06-09T02:43:55.147Z</time>
      </trkpt>
      <trkpt lat="46.98253" lon="0.08386">
        <ele>102.71</ele>
        <time>2023-06-09T02:44:16.790Z</time>
      </trkpt>
      <trkpt lat="46.98257" lon="0.08388">
        <ele>102.92</ele>
        <time>2023-06-09T02:44:38.433Z</time>
      </trkpt>
      <trkpt lat="46.98262" lon="0.08391">
        <ele>103.22</ele>
        <time>2023-06-09T02:45:00.077Z</time>
      </trkpt>
      <trkpt lat="46.9827" lon="0.08396">
        <ele>103.96</ele>
        <time>2023-06-09T02:45:21.722Z</time>
      </trkpt>
      <trkpt lat="46.98274" lon="0.08398">
        <ele>104.29</ele>
        <time>2023-06-09T02:45:43.368Z</time>
      </trkpt>
      <trkpt lat="46.98278" lon="0.084">
        <ele>104.56</ele>
        <time>2023-06-09T02:46:05.015Z</time>
      </trkpt>
      <trkpt lat="46.98282" lon="0.08403">
        <ele>104.79</ele>
        <time>2023-06-09T02:46:26.663Z</time>
      </trkpt>
      <trkpt lat="46.98286" lon="0.08405">
        <ele>104.94</ele>
        <time>2023-06-09T02:46:48.311Z</time>
      </trkpt>
      <trkpt lat="46.98291" lon="0.08406">
        <ele>105.16</ele>
        <time>2023-06-09T02:47:09.960Z</time>
      </trkpt>
      <trkpt lat="46.98296" lon="0.08407">
        <ele>105.37</ele>
        <time>2023-06-09T02:47:31.610Z</time>
      </trkpt>
      <trkpt lat="46.983" lon="0.08408">
        <ele>105.62</ele>
        <time>2023-06-09T02:47:53.260Z</time>
      </trkpt>
      <trkpt lat="46.98304" lon="0.08409">
        <ele>105.92</ele>
        <time>2023-06-09T02:48:14.911Z</time>
      </trkpt>
      <trkpt lat="46.98308" lon="0.0841">
        <ele>106.19</ele>
        <time>2023-06-09T02:48:36.563Z</time>
      </trkpt>
      <trkpt lat="46.98309" lon="0.0841">
        <ele>106.27</ele>
        <time>2023-06-09T02:48:58.215Z</time>
      </trkpt>
      <trkpt lat="46.98329" lon="0.08409">
        <ele>108.01</ele>
        <time>2023-06-09T02:49:19.870Z</time>
      </trkpt>
      <trkpt lat="46.9834" lon="0.08407">
        <ele>109</ele>
        <time>2023-06-09T02:49:41.527Z</time>
      </trkpt>
      <trkpt lat="46.98345" lon="0.08407">
        <ele>109.42</ele>
        <time>2023-06-09T02:50:03.185Z</time>
      </trkpt>
      <trkpt lat="46.98363" lon="0.08404">
        <ele>111.35</ele>
        <time>2023-06-09T02:50:24.846Z</time>
      </trkpt>
      <trkpt lat="46.98388" lon="0.084">
        <ele>113.75</ele>
        <time>2023-06-09T02:50:46.511Z</time>
      </trkpt>
      <trkpt lat="46.9839" lon="0.084">
        <ele>113.9</ele>
        <time>2023-06-09T02:51:08.176Z</time>
      </trkpt>
      <trkpt lat="46.98412" lon="0.084">
        <ele>115.9</ele>
        <time>2023-06-09T02:51:29.844Z</time>
      </trkpt>
      <trkpt lat="46.9843" lon="0.08401">
        <ele>117.67</ele>
        <time>2023-06-09T02:51:51.515Z</time>
      </trkpt>
      <trkpt lat="46.98434" lon="0.08401">
        <ele>118.1</ele>
        <time>2023-06-09T02:52:13.187Z</time>
      </trkpt>
      <trkpt lat="46.98439" lon="0.08401">
        <ele>118.49</ele>
        <time>2023-06-09T02:52:34.860Z</time>
      </trkpt>
      <trkpt lat="46.98448" lon="0.08401">
        <ele>119.23</ele>
        <time>2023-06-09T02:52:56.534Z</time>
      </trkpt>
      <trkpt lat="46.98452" lon="0.08401">
        <ele>119.57</ele>
        <time>2023-06-09T02:53:18.209Z</time>
      </trkpt>
      <trkpt lat="46.98454" lon="0.08401">
        <ele>119.67</ele>
        <time>2023-06-09T02:53:39.884Z</time>
      </trkpt>
      <trkpt lat="46.98457" lon="0.084">
        <ele>119.87</ele>
        <time>2023-06-09T02:54:01.560Z</time>
      </trkpt>
      <trkpt lat="46.98466" lon="0.08398">
        <ele>120.38</ele>
        <time>2023-06-09T02:54:23.237Z</time>
      </trkpt>
      <trkpt lat="46.9847" lon="0.08397">
        <ele>120.57</ele>
        <time>2023-06-09T02:54:44.915Z</time>
      </trkpt>
      <trkpt lat="46.98474" lon="0.08396">
        <ele>120.7</ele>
        <time>2023-06-09T02:55:06.593Z</time>
      </trkpt>
      <trkpt lat="46.98475" lon="0.08396">
        <ele>120.7</ele>
        <time>2023-06-09T02:55:28.272Z</time>
      </trkpt>
      <trkpt lat="46.98479" lon="0.08393">
        <ele>120.76</ele>
        <time>2023-06-09T02:55:49.951Z</time>
      </trkpt>
      <trkpt lat="46.98483" lon="0.08391">
        <ele>120.76</ele>
        <time>2023-06-09T02:56:11.631Z</time>
      </trkpt>
      <trkpt lat="46.98486" lon="0.08389">
        <ele>120.72</ele>
        <time>2023-06-09T02:56:33.311Z</time>
      </trkpt>
      <trkpt lat="46.98491" lon="0.08385">
        <ele>120.67</ele>
        <time>2023-06-09T02:56:54.992Z</time>
      </trkpt>
      <trkpt lat="46.98502" lon="0.08374">
        <ele>120.59</ele>
        <time>2023-06-09T02:57:16.676Z</time>
      </trkpt>
      <trkpt lat="46.9851" lon="0.08367">
        <ele>120.5</ele>
        <time>2023-06-09T02:57:38.361Z</time>
      </trkpt>
      <trkpt lat="46.98518" lon="0.08361">
        <ele>120.38</ele>
        <time>2023-06-09T02:58:00.047Z</time>
      </trkpt>
      <trkpt lat="46.98529" lon="0.0835">
        <ele>120.12</ele>
        <time>2023-06-09T02:58:21.736Z</time>
      </trkpt>
      <trkpt lat="46.98535" lon="0.08345">
        <ele>120.03</ele>
        <time>2023-06-09T02:58:43.426Z</time>
      </trkpt>
      <trkpt lat="46.98541" lon="0.08341">
        <ele>119.96</ele>
        <time>2023-06-09T02:59:05.117Z</time>
      </trkpt>
      <trkpt lat="46.98562" lon="0.08328">
        <ele>119.56</ele>
        <time>2023-06-09T02:59:26.811Z</time>
      </trkpt>
      <trkpt lat="46.98566" lon="0.08326">
        <ele>119.51</ele>
        <time>2023-06-09T02:59:48.506Z</time>
      </trkpt>
      <trkpt lat="46.98566" lon="0.08326">
        <ele>119.51</ele>
        <time>2023-06-09T03:00:10.201Z</time>
      </trkpt>
      <trkpt lat="46.98578" lon="0.08321">
        <ele>119.44</ele>
        <time>2023-06-09T03:00:31.898Z</time>
      </trkpt>
      <trkpt lat="46.98579" lon="0.08321">
        <ele>119.44</ele>
        <time>2023-06-09T03:00:53.595Z</time>
      </trkpt>
      <trkpt lat="46.98584" lon="0.0832">
        <ele>119.39</ele>
        <time>2023-06-09T03:01:15.293Z</time>
      </trkpt>
      <trkpt lat="46.98592" lon="0.08317">
        <ele>119.24</ele>
        <time>2023-06-09T03:01:36.992Z</time>
      </trkpt>
      <trkpt lat="46.98601" lon="0.08315">
        <ele>119.04</ele>
        <time>2023-06-09T03:01:58.693Z</time>
      </trkpt>
      <trkpt lat="46.98606" lon="0.08314">
        <ele>118.88</ele>
        <time>2023-06-09T03:02:20.395Z</time>
      </trkpt>
      <trkpt lat="46.98619" lon="0.08313">
        <ele>118.47</ele>
        <time>2023-06-09T03:02:42.099Z</time>
      </trkpt>
      <trkpt lat="46.98633" lon="0.08312">
        <ele>118.02</ele>
        <time>2023-06-09T03:03:03.805Z</time>
      </trkpt>
      <trkpt lat="46.98655" lon="0.08311">
        <ele>117.38</ele>
        <time>2023-06-09T03:03:25.514Z</time>
      </trkpt>
      <trkpt lat="46.9866" lon="0.0831">
        <ele>117.27</ele>
        <time>2023-06-09T03:03:47.224Z</time>
      </trkpt>
      <trkpt lat="46.98673" lon="0.08309">
        <ele>117.05</ele>
        <time>2023-06-09T03:04:08.936Z</time>
      </trkpt>
      <trkpt lat="46.98677" lon="0.08309">
        <ele>116.95</ele>
        <time>2023-06-09T03:04:30.649Z</time>
      </trkpt>
      <trkpt lat="46.98682" lon="0.08308">
        <ele>116.83</ele>
        <time>2023-06-09T03:04:52.363Z</time>
      </trkpt>
      <trkpt lat="46.98687" lon="0.08306">
        <ele>116.75</ele>
        <time>2023-06-09T03:05:14.078Z</time>
      </trkpt>
      <trkpt lat="46.98687" lon="0.08306">
        <ele>116.75</ele>
        <time>2023-06-09T03:05:35.793Z</time>
      </trkpt>
      <trkpt lat="46.98699" lon="0.083">
        <ele>116.66</ele>
        <time>2023-06-09T03:05:57.510Z</time>
      </trkpt>
      <trkpt lat="46.98703" lon="0.08298">
        <ele>116.61</ele>
        <time>2023-06-09T03:06:19.227Z</time>
      </trkpt>
      <trkpt lat="46.98708" lon="0.08296">
        <ele>116.52</ele>
        <time>2023-06-09T03:06:40.945Z</time>
      </trkpt>
      <trkpt lat="46.98708" lon="0.08296">
        <ele>116.52</ele>
        <time>2023-06-09T03:07:02.663Z</time>
      </trkpt>
      <trkpt lat="46.98712" lon="0.08293">
        <ele>116.41</ele>
        <time>2023-06-09T03:07:24.382Z</time>
      </trkpt>
      <trkpt lat="46.98724" lon="0.08285">
        <ele>115.97</ele>
        <time>2023-06-09T03:07:46.103Z</time>
      </trkpt>
      <trkpt lat="46.98732" lon="0.08279">
        <ele>115.72</ele>
        <time>2023-06-09T03:08:07.825Z</time>
      </trkpt>
      <trkpt lat="46.98736" lon="0.08276">
        <ele>115.61</ele>
        <time>2023-06-09T03:08:29.548Z</time>
      </trkpt>
      <trkpt lat="46.98736" lon="0.08276">
        <ele>115.61</ele>
        <time>2023-06-09T03:08:51.271Z</time>
      </trkpt>
      <trkpt lat="46.98749" lon="0.08269">
        <ele>115.39</ele>
        <time>2023-06-09T03:09:12.996Z</time>
      </trkpt>
      <trkpt lat="46.98753" lon="0.08267">
        <ele>115.29</ele>
        <time>2023-06-09T03:09:34.722Z</time>
      </trkpt>
      <trkpt lat="46.9877" lon="0.08258">
        <ele>114.72</ele>
        <time>2023-06-09T03:09:56.451Z</time>
      </trkpt>
      <trkpt lat="46.98783" lon="0.08252">
        <ele>114.21</ele>
        <time>2023-06-09T03:10:18.182Z</time>
      </trkpt>
      <trkpt lat="46.98791" lon="0.08247">
        <ele>113.95</ele>
        <time>2023-06-09T03:10:39.915Z</time>
      </trkpt>
      <trkpt lat="46.988" lon="0.08243">
        <ele>113.66</ele>
        <time>2023-06-09T03:11:01.649Z</time>
      </trkpt>
      <trkpt lat="46.98804" lon="0.0824">
        <ele>113.54</ele>
        <time>2023-06-09T03:11:23.384Z</time>
      </trkpt>
      <trkpt lat="46.98812" lon="0.08236">
        <ele>113.38</ele>
        <time>2023-06-09T03:11:45.120Z</time>
      </trkpt>
      <trkpt lat="46.98818" lon="0.08233">
        <ele>113.32</ele>
        <time>2023-06-09T03:12:06.857Z</time>
      </trkpt>
      <trkpt lat="46.9883" lon="0.0823">
        <ele>113.22</ele>
        <time>2023-06-09T03:12:28.596Z</time>
      </trkpt>
      <trkpt lat="46.98834" lon="0.08229">
        <ele>113.16</ele>
        <time>2023-06-09T03:12:50.336Z</time>
      </trkpt>
      <trkpt lat="46.98861" lon="0.08222">
        <ele>112.54</ele>
        <time>2023-06-09T03:13:12.080Z</time>
      </trkpt>
      <trkpt lat="46.98866" lon="0.08221">
        <ele>112.38</ele>
        <time>2023-06-09T03:13:33.825Z</time>
      </trkpt>
      <trkpt lat="46.98874" lon="0.08218">
        <ele>112.16</ele>
        <time>2023-06-09T03:13:55.571Z</time>
      </trkpt>
      <trkpt lat="46.98882" lon="0.08215">
        <ele>111.84</ele>
        <time>2023-06-09T03:14:17.319Z</time>
      </trkpt>
      <trkpt lat="46.98891" lon="0.08211">
        <ele>111.49</ele>
        <time>2023-06-09T03:14:39.068Z</time>
      </trkpt>
      <trkpt lat="46.98895" lon="0.0821">
        <ele>111.3</ele>
        <time>2023-06-09T03:15:00.818Z</time>
      </trkpt>
      <trkpt lat="46.98897" lon="0.08209">
        <ele>111.21</ele>
        <time>2023-06-09T03:15:22.568Z</time>
      </trkpt>
      <trkpt lat="46.98908" lon="0.08203">
        <ele>110.65</ele>
        <time>2023-06-09T03:15:44.320Z</time>
      </trkpt>
      <trkpt lat="46.98916" lon="0.08199">
        <ele>110.26</ele>
        <time>2023-06-09T03:16:06.073Z</time>
      </trkpt>
      <trkpt lat="46.98921" lon="0.08197">
        <ele>110.1</ele>
        <time>2023-06-09T03:16:27.827Z</time>
      </trkpt>
      <trkpt lat="46.98925" lon="0.08194">
        <ele>109.97</ele>
        <time>2023-06-09T03:16:49.582Z</time>
      </trkpt>
      <trkpt lat="46.98937" lon="0.08188">
        <ele>109.65</ele>
        <time>2023-06-09T03:17:11.339Z</time>
      </trkpt>
      <trkpt lat="46.98942" lon="0.08186">
        <ele>109.53</ele>
        <time>2023-06-09T03:17:33.097Z</time>
      </trkpt>
      <trkpt lat="46.98954" lon="0.08179">
        <ele>109.08</ele>
        <time>2023-06-09T03:17:54.857Z</time>
      </trkpt>
      <trkpt lat="46.98967" lon="0.08172">
        <ele>109.03</ele>
        <time>2023-06-09T03:18:16.619Z</time>
      </trkpt>
      <trkpt lat="46.98971" lon="0.0817">
        <ele>109.03</ele>
        <time>2023-06-09T03:18:38.382Z</time>
      </trkpt>
      <trkpt lat="46.98975" lon="0.08168">
        <ele>109.07</ele>
        <time>2023-06-09T03:19:00.145Z</time>
      </trkpt>
      <trkpt lat="46.98977" lon="0.08167">
        <ele>109.11</ele>
        <time>2023-06-09T03:19:21.909Z</time>
      </trkpt>
      <trkpt lat="46.98978" lon="0.08171">
        <ele>109.18</ele>
        <time>2023-06-09T03:19:43.673Z</time>
      </trkpt>
      <trkpt lat="46.98981" lon="0.08183">
        <ele>109.5</ele>
        <time>2023-06-09T03:20:05.439Z</time>
      </trkpt>
      <trkpt lat="46.98982" lon="0.08189">
        <ele>109.63</ele>
        <time>2023-06-09T03:20:27.205Z</time>
      </trkpt>
      <trkpt lat="46.98984" lon="0.08196">
        <ele>109.69</ele>
        <time>2023-06-09T03:20:48.972Z</time>
      </trkpt>
      <trkpt lat="46.98985" lon="0.08202">
        <ele>109.7</ele>
        <time>2023-06-09T03:21:10.740Z</time>
      </trkpt>
      <trkpt lat="46.98989" lon="0.0822">
        <ele>109.61</ele>
        <time>2023-06-09T03:21:32.510Z</time>
      </trkpt>
      <trkpt lat="46.98991" lon="0.08227">
        <ele>109.61</ele>
        <time>2023-06-09T03:21:54.281Z</time>
      </trkpt>
      <trkpt lat="46.98992" lon="0.08233">
        <ele>109.65</ele>
        <time>2023-06-09T03:22:16.052Z</time>
      </trkpt>
      <trkpt lat="46.98995" lon="0.08245">
        <ele>109.78</ele>
        <time>2023-06-09T03:22:37.825Z</time>
      </trkpt>
      <trkpt lat="46.98996" lon="0.08251">
        <ele>109.81</ele>
        <time>2023-06-09T03:22:59.598Z</time>
      </trkpt>
      <trkpt lat="46.98997" lon="0.08254">
        <ele>109.8</ele>
        <time>2023-06-09T03:23:21.372Z</time>
      </trkpt>
      <trkpt lat="46.98997" lon="0.08258">
        <ele>109.8</ele>
        <time>2023-06-09T03:23:43.146Z</time>
      </trkpt>
      <trkpt lat="46.98998" lon="0.08264">
        <ele>109.73</ele>
        <time>2023-06-09T03:24:04.921Z</time>
      </trkpt>
      <trkpt lat="46.99" lon="0.08277">
        <ele>109.54</ele>
        <time>2023-06-09T03:24:26.697Z</time>
      </trkpt>
      <trkpt lat="46.99001" lon="0.08284">
        <ele>109.49</ele>
        <time>2023-06-09T03:24:48.474Z</time>
      </trkpt>
      <trkpt lat="46.99001" lon="0.0829">
        <ele>109.5</ele>
        <time>2023-06-09T03:25:10.252Z</time>
      </trkpt>
      <trkpt lat="46.99002" lon="0.08296">
        <ele>109.57</ele>
        <time>2023-06-09T03:25:32.030Z</time>
      </trkpt>
      <trkpt lat="46.99004" lon="0.08309">
        <ele>109.77</ele>
        <time>2023-06-09T03:25:53.810Z</time>
      </trkpt>
      <trkpt lat="46.99004" lon="0.08316">
        <ele>109.84</ele>
        <time>2023-06-09T03:26:15.591Z</time>
      </trkpt>
      <trkpt lat="46.99005" lon="0.08322">
        <ele>109.87</ele>
        <time>2023-06-09T03:26:37.372Z</time>
      </trkpt>
      <trkpt lat="46.99006" lon="0.08329">
        <ele>109.87</ele>
        <time>2023-06-09T03:26:59.154Z</time>
      </trkpt>
      <trkpt lat="46.99007" lon="0.08335">
        <ele>109.84</ele>
        <time>2023-06-09T03:27:20.937Z</time>
      </trkpt>
      <trkpt lat="46.99007" lon="0.08337">
        <ele>109.82</ele>
        <time>2023-06-09T03:27:42.720Z</time>
      </trkpt>
      <trkpt lat="46.99006" lon="0.08342">
        <ele>109.77</ele>
        <time>2023-06-09T03:28:04.503Z</time>
      </trkpt>
      <trkpt lat="46.99004" lon="0.08361">
        <ele>109.48</ele>
        <time>2023-06-09T03:28:26.289Z</time>
      </trkpt>
      <trkpt lat="46.99001" lon="0.0838">
        <ele>109.22</ele>
        <time>2023-06-09T03:28:48.077Z</time>
      </trkpt>
      <trkpt lat="46.99" lon="0.08386">
        <ele>109.1</ele>
        <time>2023-06-09T03:29:09.865Z</time>
      </trkpt>
      <trkpt lat="46.98998" lon="0.08399">
        <ele>108.81</ele>
        <time>2023-06-09T03:29:31.655Z</time>
      </trkpt>
      <trkpt lat="46.98997" lon="0.08406">
        <ele>108.62</ele>
        <time>2023-06-09T03:29:53.446Z</time>
      </trkpt>
      <trkpt lat="46.98997" lon="0.08412">
        <ele>108.4</ele>
        <time>2023-06-09T03:30:15.237Z</time>
      </trkpt>
      <trkpt lat="46.98996" lon="0.08419">
        <ele>108.14</ele>
        <time>2023-06-09T03:30:37.029Z</time>
      </trkpt>
      <trkpt lat="46.98994" lon="0.08431">
        <ele>107.58</ele>
        <time>2023-06-09T03:30:58.822Z</time>
      </trkpt>
      <trkpt lat="46.98993" lon="0.08438">
        <ele>107.33</ele>
        <time>2023-06-09T03:31:20.616Z</time>
      </trkpt>
      <trkpt lat="46.98992" lon="0.08444">
        <ele>107.11</ele>
        <time>2023-06-09T03:31:42.411Z</time>
      </trkpt>
      <trkpt lat="46.9899" lon="0.08457">
        <ele>106.73</ele>
        <time>2023-06-09T03:32:04.207Z</time>
      </trkpt>
      <trkpt lat="46.98988" lon="0.08476">
        <ele>106.21</ele>
        <time>2023-06-09T03:32:26.006Z</time>
      </trkpt>
      <trkpt lat="46.98984" lon="0.08502">
        <ele>105.57</ele>
        <time>2023-06-09T03:32:47.807Z</time>
      </trkpt>
      <trkpt lat="46.98983" lon="0.08508">
        <ele>105.38</ele>
        <time>2023-06-09T03:33:09.609Z</time>
      </trkpt>
      <trkpt lat="46.98981" lon="0.08521">
        <ele>104.95</ele>
        <time>2023-06-09T03:33:31.413Z</time>
      </trkpt>
      <trkpt lat="46.98981" lon="0.08528">
        <ele>104.76</ele>
        <time>2023-06-09T03:33:53.217Z</time>
      </trkpt>
      <trkpt lat="46.9898" lon="0.08534">
        <ele>104.63</ele>
        <time>2023-06-09T03:34:15.022Z</time>
      </trkpt>
      <trkpt lat="46.98979" lon="0.0854">
        <ele>104.55</ele>
        <time>2023-06-09T03:34:36.828Z</time>
      </trkpt>
      <trkpt lat="46.98978" lon="0.08547">
        <ele>104.51</ele>
        <time>2023-06-09T03:34:58.634Z</time>
      </trkpt>
      <trkpt lat="46.98974" lon="0.08573">
        <ele>104.43</ele>
        <time>2023-06-09T03:35:20.443Z</time>
      </trkpt>
      <trkpt lat="46.98973" lon="0.08579">
        <ele>104.46</ele>
        <time>2023-06-09T03:35:42.253Z</time>
      </trkpt>
      <trkpt lat="46.98973" lon="0.08585">
        <ele>104.55</ele>
        <time>2023-06-09T03:36:04.064Z</time>
      </trkpt>
      <trkpt lat="46.9897" lon="0.08604">
        <ele>104.98</ele>
        <time>2023-06-09T03:36:25.877Z</time>
      </trkpt>
      <trkpt lat="46.9897" lon="0.08605">
        <ele>104.98</ele>
        <time>2023-06-09T03:36:47.690Z</time>
      </trkpt>
      <trkpt lat="46.98963" lon="0.08643">
        <ele>105.56</ele>
        <time>2023-06-09T03:37:09.507Z</time>
      </trkpt>
      <trkpt lat="46.98959" lon="0.08661">
        <ele>105.49</ele>
        <time>2023-06-09T03:37:31.326Z</time>
      </trkpt>
      <trkpt lat="46.98959" lon="0.08664">
        <ele>105.48</ele>
        <time>2023-06-09T03:37:53.146Z</time>
      </trkpt>
      <trkpt lat="46.98959" lon="0.08677">
        <ele>105.45</ele>
        <time>2023-06-09T03:38:14.967Z</time>
      </trkpt>
      <trkpt lat="46.98962" lon="0.08675">
        <ele>105.44</ele>
        <time>2023-06-09T03:38:36.788Z</time>
      </trkpt>
      <trkpt lat="46.9897" lon="0.0867">
        <ele>105.43</ele>
        <time>2023-06-09T03:38:58.611Z</time>
      </trkpt>
      <trkpt lat="46.98978" lon="0.08665">
        <ele>105.46</ele>
        <time>2023-06-09T03:39:20.435Z</time>
      </trkpt>
      <trkpt lat="46.9899" lon="0.08657">
        <ele>105.53</ele>
        <time>2023-06-09T03:39:42.261Z</time>
      </trkpt>
      <trkpt lat="46.98998" lon="0.08652">
        <ele>105.6</ele>
        <time>2023-06-09T03:40:04.089Z</time>
      </trkpt>
      <trkpt lat="46.99027" lon="0.08633">
        <ele>105.94</ele>
        <time>2023-06-09T03:40:25.922Z</time>
      </trkpt>
      <trkpt lat="46.99052" lon="0.08618">
        <ele>106.16</ele>
        <time>2023-06-09T03:40:47.759Z</time>
      </trkpt>
      <trkpt lat="46.99072" lon="0.08604">
        <ele>106.37</ele>
        <time>2023-06-09T03:41:09.600Z</time>
      </trkpt>
      <trkpt lat="46.99084" lon="0.08596">
        <ele>106.48</ele>
        <time>2023-06-09T03:41:31.443Z</time>
      </trkpt>
      <trkpt lat="46.99092" lon="0.08591">
        <ele>106.52</ele>
        <time>2023-06-09T03:41:53.287Z</time>
      </trkpt>
      <trkpt lat="46.99101" lon="0.08586">
        <ele>106.52</ele>
        <time>2023-06-09T03:42:15.133Z</time>
      </trkpt>
      <trkpt lat="46.99113" lon="0.08578">
        <ele>106.48</ele>
        <time>2023-06-09T03:42:36.981Z</time>
      </trkpt>
      <trkpt lat="46.99121" lon="0.08573">
        <ele>106.42</ele>
        <time>2023-06-09T03:42:58.830Z</time>
      </trkpt>
      <trkpt lat="46.99127" lon="0.08569">
        <ele>106.33</ele>
        <time>2023-06-09T03:43:20.680Z</time>
      </trkpt>
      <trkpt lat="46.99129" lon="0.08568">
        <ele>106.3</ele>
        <time>2023-06-09T03:43:42.531Z</time>
      </trkpt>
      <trkpt lat="46.99138" lon="0.08565">
        <ele>106.12</ele>
        <time>2023-06-09T03:44:04.383Z</time>
      </trkpt>
      <trkpt lat="46.99145" lon="0.08562">
        <ele>105.95</ele>
        <time>2023-06-09T03:44:26.236Z</time>
      </trkpt>
      <trkpt lat="46.99169" lon="0.08561">
        <ele>105.41</ele>
        <time>2023-06-09T03:44:48.093Z</time>
      </trkpt>
      <trkpt lat="46.992" lon="0.08568">
        <ele>104.71</ele>
        <time>2023-06-09T03:45:09.955Z</time>
      </trkpt>
      <trkpt lat="46.99226" lon="0.08573">
        <ele>104.17</ele>
        <time>2023-06-09T03:45:31.821Z</time>
      </trkpt>
      <trkpt lat="46.99266" lon="0.08582">
        <ele>103.3</ele>
        <time>2023-06-09T03:45:53.694Z</time>
      </trkpt>
      <trkpt lat="46.99293" lon="0.08587">
        <ele>102.77</ele>
        <time>2023-06-09T03:46:15.571Z</time>
      </trkpt>
      <trkpt lat="46.99319" lon="0.08593">
        <ele>102.27</ele>
        <time>2023-06-09T03:46:37.453Z</time>
      </trkpt>
      <trkpt lat="46.9935" lon="0.086">
        <ele>101.57</ele>
        <time>2023-06-09T03:46:59.340Z</time>
      </trkpt>
      <trkpt lat="46.99363" lon="0.08602">
        <ele>101.33</ele>
        <time>2023-06-09T03:47:21.229Z</time>
      </trkpt>
      <trkpt lat="46.99372" lon="0.08604">
        <ele>101.19</ele>
        <time>2023-06-09T03:47:43.119Z</time>
      </trkpt>
      <trkpt lat="46.99385" lon="0.08607">
        <ele>101.06</ele>
        <time>2023-06-09T03:48:05.011Z</time>
      </trkpt>
      <trkpt lat="46.99412" lon="0.08613">
        <ele>100.63</ele>
        <time>2023-06-09T03:48:26.907Z</time>
      </trkpt>
      <trkpt lat="46.99438" lon="0.08618">
        <ele>100.29</ele>
        <time>2023-06-09T03:48:48.808Z</time>
      </trkpt>
      <trkpt lat="46.99468" lon="0.08625">
        <ele>99.83</ele>
        <time>2023-06-09T03:49:10.714Z</time>
      </trkpt>
      <trkpt lat="46.99486" lon="0.08629">
        <ele>99.61</ele>
        <time>2023-06-09T03:49:32.622Z</time>
      </trkpt>
      <trkpt lat="46.99517" lon="0.08635">
        <ele>99.36</ele>
        <time>2023-06-09T03:49:54.535Z</time>
      </trkpt>
      <trkpt lat="46.99556" lon="0.08644">
        <ele>99.08</ele>
        <time>2023-06-09T03:50:16.455Z</time>
      </trkpt>
      <trkpt lat="46.99558" lon="0.08644">
        <ele>99.07</ele>
        <time>2023-06-09T03:50:38.375Z</time>
      </trkpt>
      <trkpt lat="46.99583" lon="0.08644">
        <ele>98.99</ele>
        <time>2023-06-09T03:51:00.299Z</time>
      </trkpt>
      <trkpt lat="46.99583" lon="0.08644">
        <ele>98.99</ele>
        <time>2023-06-09T03:51:22.223Z</time>
      </trkpt>
      <trkpt lat="46.996" lon="0.08642">
        <ele>98.96</ele>
        <time>2023-06-09T03:51:44.150Z</time>
      </trkpt>
      <trkpt lat="46.99613" lon="0.08641">
        <ele>98.87</ele>
        <time>2023-06-09T03:52:06.079Z</time>
      </trkpt>
      <trkpt lat="46.99622" lon="0.0864">
        <ele>98.77</ele>
        <time>2023-06-09T03:52:28.009Z</time>
      </trkpt>
      <trkpt lat="46.99624" lon="0.0864">
        <ele>98.74</ele>
        <time>2023-06-09T03:52:49.940Z</time>
      </trkpt>
      <trkpt lat="46.99662" lon="0.08633">
        <ele>98.21</ele>
        <time>2023-06-09T03:53:11.877Z</time>
      </trkpt>
      <trkpt lat="46.99702" lon="0.08626">
        <ele>97.69</ele>
        <time>2023-06-09T03:53:33.820Z</time>
      </trkpt>
      <trkpt lat="46.99711" lon="0.08624">
        <ele>97.63</ele>
        <time>2023-06-09T03:53:55.765Z</time>
      </trkpt>
      <trkpt lat="46.9972" lon="0.08623">
        <ele>97.6</ele>
        <time>2023-06-09T03:54:17.711Z</time>
      </trkpt>
      <trkpt lat="46.99725" lon="0.08622">
        <ele>97.6</ele>
        <time>2023-06-09T03:54:39.658Z</time>
      </trkpt>
      <trkpt lat="46.99729" lon="0.08621">
        <ele>97.6</ele>
        <time>2023-06-09T03:55:01.606Z</time>
      </trkpt>
      <trkpt lat="46.99738" lon="0.08619">
        <ele>97.62</ele>
        <time>2023-06-09T03:55:23.555Z</time>
      </trkpt>
      <trkpt lat="46.99749" lon="0.08616">
        <ele>97.68</ele>
        <time>2023-06-09T03:55:45.506Z</time>
      </trkpt>
      <trkpt lat="46.99764" lon="0.08611">
        <ele>97.78</ele>
        <time>2023-06-09T03:56:07.459Z</time>
      </trkpt>
      <trkpt lat="46.99776" lon="0.08607">
        <ele>97.88</ele>
        <time>2023-06-09T03:56:29.414Z</time>
      </trkpt>
      <trkpt lat="46.99799" lon="0.08597">
        <ele>98.09</ele>
        <time>2023-06-09T03:56:51.373Z</time>
      </trkpt>
      <trkpt lat="46.99811" lon="0.08591">
        <ele>98.23</ele>
        <time>2023-06-09T03:57:13.334Z</time>
      </trkpt>
      <trkpt lat="46.99824" lon="0.08586">
        <ele>98.4</ele>
        <time>2023-06-09T03:57:35.297Z</time>
      </trkpt>
      <trkpt lat="46.99841" lon="0.08578">
        <ele>98.66</ele>
        <time>2023-06-09T03:57:57.263Z</time>
      </trkpt>
      <trkpt lat="46.99848" lon="0.08575">
        <ele>98.8</ele>
        <time>2023-06-09T03:58:19.230Z</time>
      </trkpt>
      <trkpt lat="46.9985" lon="0.08574">
        <ele>98.84</ele>
        <time>2023-06-09T03:58:41.198Z</time>
      </trkpt>
      <trkpt lat="46.99863" lon="0.08567">
        <ele>99.2</ele>
        <time>2023-06-09T03:59:03.168Z</time>
      </trkpt>
      <trkpt lat="46.99875" lon="0.08561">
        <ele>99.64</ele>
        <time>2023-06-09T03:59:25.140Z</time>
      </trkpt>
      <trkpt lat="46.99892" lon="0.08552">
        <ele>100.28</ele>
        <time>2023-06-09T03:59:47.115Z</time>
      </trkpt>
      <trkpt lat="46.99901" lon="0.08547">
        <ele>100.31</ele>
        <time>2023-06-09T04:00:09.091Z</time>
      </trkpt>
      <trkpt lat="46.99906" lon="0.08545">
        <ele>100.3</ele>
        <time>2023-06-09T04:00:31.068Z</time>
      </trkpt>
      <trkpt lat="46.9991" lon="0.08545">
        <ele>100.3</ele>
        <time>2023-06-09T04:00:53.046Z</time>
      </trkpt>
      <trkpt lat="46.99915" lon="0.08545">
        <ele>100.23</ele>
        <time>2023-06-09T04:01:15.025Z</time>
      </trkpt>
      <trkpt lat="46.99915" lon="0.08545">
        <ele>100.23</ele>
        <time>2023-06-09T04:01:37.004Z</time>
      </trkpt>
      <trkpt lat="46.99916" lon="0.0854">
        <ele>100.13</ele>
        <time>2023-06-09T04:01:58.983Z</time>
      </trkpt>
      <trkpt lat="46.99918" lon="0.08532">
        <ele>99.96</ele>
        <time>2023-06-09T04:02:20.963Z</time>
      </trkpt>
      <trkpt lat="46.99923" lon="0.08532">
        <ele>99.8</ele>
        <time>2023-06-09T04:02:42.944Z</time>
      </trkpt>
      <trkpt lat="46.9993" lon="0.08528">
        <ele>99.59</ele>
        <time>2023-06-09T04:03:04.926Z</time>
      </trkpt>
      <trkpt lat="46.99938" lon="0.08522">
        <ele>99.35</ele>
        <time>2023-06-09T04:03:26.910Z</time>
      </trkpt>
      <trkpt lat="46.99966" lon="0.08503">
        <ele>98.65</ele>
        <time>2023-06-09T04:03:48.899Z</time>
      </trkpt>
      <trkpt lat="46.9997" lon="0.085">
        <ele>98.57</ele>
        <time>2023-06-09T04:04:10.888Z</time>
      </trkpt>
      <trkpt lat="46.99972" lon="0.08499">
        <ele>98.53</ele>
        <time>2023-06-09T04:04:32.878Z</time>
      </trkpt>
      <trkpt lat="46.99974" lon="0.08498">
        <ele>98.51</ele>
        <time>2023-06-09T04:04:54.868Z</time>
      </trkpt>
      <trkpt lat="46.99991" lon="0.0849">
        <ele>98.39</ele>
        <time>2023-06-09T04:05:16.861Z</time>
      </trkpt>
      <trkpt lat="46.99997" lon="0.08487">
        <ele>98.33</ele>
        <time>2023-06-09T04:05:38.855Z</time>
      </trkpt>
      <trkpt lat="47.00013" lon="0.08484">
        <ele>98.21</ele>
        <time>2023-06-09T04:06:00.851Z</time>
      </trkpt>
      <trkpt lat="47.00021" lon="0.08482">
        <ele>98.17</ele>
        <time>2023-06-09T04:06:22.849Z</time>
      </trkpt>
      <trkpt lat="47.00024" lon="0.08482">
        <ele>98.17</ele>
        <time>2023-06-09T04:06:44.847Z</time>
      </trkpt>
      <trkpt lat="47.0003" lon="0.08482">
        <ele>98.18</ele>
        <time>2023-06-09T04:07:06.846Z</time>
      </trkpt>
      <trkpt lat="47.00052" lon="0.0848">
        <ele>98.33</ele>
        <time>2023-06-09T04:07:28.849Z</time>
      </trkpt>
      <trkpt lat="47.00075" lon="0.08479">
        <ele>98.4</ele>
        <time>2023-06-09T04:07:50.855Z</time>
      </trkpt>
      <trkpt lat="47.00084" lon="0.08478">
        <ele>98.32</ele>
        <time>2023-06-09T04:08:12.863Z</time>
      </trkpt>
      <trkpt lat="47.00089" lon="0.08478">
        <ele>98.27</ele>
        <time>2023-06-09T04:08:34.872Z</time>
      </trkpt>
      <trkpt lat="47.00091" lon="0.08471">
        <ele>98.22</ele>
        <time>2023-06-09T04:08:56.881Z</time>
      </trkpt>
      <trkpt lat="47.00094" lon="0.08468">
        <ele>98.18</ele>
        <time>2023-06-09T04:09:18.891Z</time>
      </trkpt>
      <trkpt lat="47.00098" lon="0.08468">
        <ele>98.14</ele>
        <time>2023-06-09T04:09:40.902Z</time>
      </trkpt>
      <trkpt lat="47.00102" lon="0.08474">
        <ele>98.08</ele>
        <time>2023-06-09T04:10:02.914Z</time>
      </trkpt>
      <trkpt lat="47.00104" lon="0.08473">
        <ele>98.07</ele>
        <time>2023-06-09T04:10:24.926Z</time>
      </trkpt>
      <trkpt lat="47.00127" lon="0.08463">
        <ele>97.72</ele>
        <time>2023-06-09T04:10:46.942Z</time>
      </trkpt>
      <trkpt lat="47.00159" lon="0.08454">
        <ele>97.26</ele>
        <time>2023-06-09T04:11:08.963Z</time>
      </trkpt>
      <trkpt lat="47.00174" lon="0.08455">
        <ele>97.06</ele>
        <time>2023-06-09T04:11:30.986Z</time>
      </trkpt>
      <trkpt lat="47.00198" lon="0.08456">
        <ele>96.62</ele>
        <time>2023-06-09T04:11:53.013Z</time>
      </trkpt>
      <trkpt lat="47.00205" lon="0.08457">
        <ele>96.51</ele>
        <time>2023-06-09T04:12:15.041Z</time>
      </trkpt>
      <trkpt lat="47.00222" lon="0.08461">
        <ele>96.24</ele>
        <time>2023-06-09T04:12:37.072Z</time>
      </trkpt>
      <trkpt lat="47.00247" lon="0.08466">
        <ele>95.8</ele>
        <time>2023-06-09T04:12:59.107Z</time>
      </trkpt>
      <trkpt lat="47.00271" lon="0.08471">
        <ele>95.13</ele>
        <time>2023-06-09T04:13:21.146Z</time>
      </trkpt>
      <trkpt lat="47.00277" lon="0.08472">
        <ele>94.97</ele>
        <time>2023-06-09T04:13:43.186Z</time>
      </trkpt>
      <trkpt lat="47.00286" lon="0.08473">
        <ele>94.77</ele>
        <time>2023-06-09T04:14:05.227Z</time>
      </trkpt>
      <trkpt lat="47.00299" lon="0.08475">
        <ele>94.54</ele>
        <time>2023-06-09T04:14:27.271Z</time>
      </trkpt>
      <trkpt lat="47.00312" lon="0.08478">
        <ele>94.34</ele>
        <time>2023-06-09T04:14:49.317Z</time>
      </trkpt>
      <trkpt lat="47.00315" lon="0.08478">
        <ele>94.31</ele>
        <time>2023-06-09T04:15:11.363Z</time>
      </trkpt>
      <trkpt lat="47.00321" lon="0.08478">
        <ele>94.27</ele>
        <time>2023-06-09T04:15:33.410Z</time>
      </trkpt>
      <trkpt lat="47.0033" lon="0.08477">
        <ele>94.27</ele>
        <time>2023-06-09T04:15:55.458Z</time>
      </trkpt>
      <trkpt lat="47.00331" lon="0.08477">
        <ele>94.27</ele>
        <time>2023-06-09T04:16:17.507Z</time>
      </trkpt>
      <trkpt lat="47.00338" lon="0.08475">
        <ele>94.31</ele>
        <time>2023-06-09T04:16:39.557Z</time>
      </trkpt>
      <trkpt lat="47.00347" lon="0.08473">
        <ele>94.32</ele>
        <time>2023-06-09T04:17:01.608Z</time>
      </trkpt>
      <trkpt lat="47.00365" lon="0.08469">
        <ele>94.16</ele>
        <time>2023-06-09T04:17:23.662Z</time>
      </trkpt>
      <trkpt lat="47.00366" lon="0.08469">
        <ele>94.15</ele>
        <time>2023-06-09T04:17:45.716Z</time>
      </trkpt>
      <trkpt lat="47.00378" lon="0.08473">
        <ele>94.12</ele>
        <time>2023-06-09T04:18:07.772Z</time>
      </trkpt>
      <trkpt lat="47.00399" lon="0.08482">
        <ele>94.16</ele>
        <time>2023-06-09T04:18:29.832Z</time>
      </trkpt>
      <trkpt lat="47.00421" lon="0.0849">
        <ele>94.16</ele>
        <time>2023-06-09T04:18:51.895Z</time>
      </trkpt>
      <trkpt lat="47.00436" lon="0.08496">
        <ele>94.2</ele>
        <time>2023-06-09T04:19:13.961Z</time>
      </trkpt>
      <trkpt lat="47.00438" lon="0.08496">
        <ele>94.21</ele>
        <time>2023-06-09T04:19:36.027Z</time>
      </trkpt>
      <trkpt lat="47.0046" lon="0.08495">
        <ele>94.24</ele>
        <time>2023-06-09T04:19:58.097Z</time>
      </trkpt>
      <trkpt lat="47.00478" lon="0.08494">
        <ele>94.29</ele>
        <time>2023-06-09T04:20:20.170Z</time>
      </trkpt>
      <trkpt lat="47.00491" lon="0.08493">
        <ele>94.18</ele>
        <time>2023-06-09T04:20:42.245Z</time>
      </trkpt>
      <trkpt lat="47.00495" lon="0.08493">
        <ele>94.13</ele>
        <time>2023-06-09T04:21:04.320Z</time>
      </trkpt>
      <trkpt lat="47.00502" lon="0.0849">
        <ele>94.06</ele>
        <time>2023-06-09T04:21:26.397Z</time>
      </trkpt>
      <trkpt lat="47.00506" lon="0.08497">
        <ele>94</ele>
        <time>2023-06-09T04:21:48.475Z</time>
      </trkpt>
      <trkpt lat="47.00515" lon="0.08512">
        <ele>93.83</ele>
        <time>2023-06-09T04:22:10.555Z</time>
      </trkpt>
      <trkpt lat="47.00524" lon="0.08527">
        <ele>93.62</ele>
        <time>2023-06-09T04:22:32.637Z</time>
      </trkpt>
      <trkpt lat="47.00526" lon="0.08531">
        <ele>93.64</ele>
        <time>2023-06-09T04:22:54.719Z</time>
      </trkpt>
      <trkpt lat="47.00532" lon="0.08545">
        <ele>93.72</ele>
        <time>2023-06-09T04:23:16.803Z</time>
      </trkpt>
      <trkpt lat="47.00534" lon="0.08549">
        <ele>93.71</ele>
        <time>2023-06-09T04:23:38.888Z</time>
      </trkpt>
      <trkpt lat="47.00539" lon="0.08555">
        <ele>93.7</ele>
        <time>2023-06-09T04:24:00.974Z</time>
      </trkpt>
      <trkpt lat="47.00539" lon="0.08555">
        <ele>93.7</ele>
        <time>2023-06-09T04:24:23.060Z</time>
      </trkpt>
      <trkpt lat="47.00546" lon="0.08548">
        <ele>93.76</ele>
        <time>2023-06-09T04:24:45.147Z</time>
      </trkpt>
      <trkpt lat="47.00552" lon="0.08543">
        <ele>93.77</ele>
        <time>2023-06-09T04:25:07.235Z</time>
      </trkpt>
      <trkpt lat="47.00553" lon="0.08541">
        <ele>93.78</ele>
        <time>2023-06-09T04:25:29.324Z</time>
      </trkpt>
      <trkpt lat="47.00555" lon="0.08539">
        <ele>93.76</ele>
        <time>2023-06-09T04:25:51.413Z</time>
      </trkpt>
      <trkpt lat="47.00555" lon="0.08539">
        <ele>94</ele>
        <time>2023-06-09T04:26:13.502Z</time>
      </trkpt>
      <trkpt lat="47.00559" lon="0.08534">
        <ele>93.95</ele>
        <time>2023-06-09T04:26:35.592Z</time>
      </trkpt>
      <trkpt lat="47.00564" lon="0.08534">
        <ele>93.92</ele>
        <time>2023-06-09T04:26:57.683Z</time>
      </trkpt>
      <trkpt lat="47.00564" lon="0.08534">
        <ele>93.72</ele>
        <time>2023-06-09T04:27:19.774Z</time>
      </trkpt>
      <trkpt lat="47.00567" lon="0.08534">
        <ele>93.73</ele>
        <time>2023-06-09T04:27:41.865Z</time>
      </trkpt>
      <trkpt lat="47.00574" lon="0.08543">
        <ele>93.78</ele>
        <time>2023-06-09T04:28:03.958Z</time>
      </trkpt>
      <trkpt lat="47.0058" lon="0.08552">
        <ele>93.76</ele>
        <time>2023-06-09T04:28:26.052Z</time>
      </trkpt>
      <trkpt lat="47.00583" lon="0.08556">
        <ele>93.72</ele>
        <time>2023-06-09T04:28:48.147Z</time>
      </trkpt>
      <trkpt lat="47.0058" lon="0.08552">
        <ele>93.7</ele>
        <time>2023-06-09T04:29:10.242Z</time>
      </trkpt>
      <trkpt lat="47.00568" lon="0.08536">
        <ele>93.73</ele>
        <time>2023-06-09T04:29:32.340Z</time>
      </trkpt>
      <trkpt lat="47.00567" lon="0.08534">
        <ele>93.68</ele>
        <time>2023-06-09T04:29:54.438Z</time>
      </trkpt>
      <trkpt lat="47.00559" lon="0.08534">
        <ele>93.45</ele>
        <time>2023-06-09T04:30:16.537Z</time>
      </trkpt>
      <trkpt lat="47.0056" lon="0.08522">
        <ele>93.23</ele>
        <time>2023-06-09T04:30:38.638Z</time>
      </trkpt>
      <trkpt lat="47.0056" lon="0.08522">
        <ele>93.23</ele>
        <time>2023-06-09T04:31:00.739Z</time>
      </trkpt>
      <trkpt lat="47.00571" lon="0.08495">
        <ele>92.55</ele>
        <time>2023-06-09T04:31:22.843Z</time>
      </trkpt>
      <trkpt lat="47.00577" lon="0.08479">
        <ele>92.2</ele>
        <time>2023-06-09T04:31:44.949Z</time>
      </trkpt>
      <trkpt lat="47.00581" lon="0.0847">
        <ele>92.29</ele>
        <time>2023-06-09T04:32:07.056Z</time>
      </trkpt>
      <trkpt lat="47.00585" lon="0.08459">
        <ele>92.19</ele>
        <time>2023-06-09T04:32:29.165Z</time>
      </trkpt>
      <trkpt lat="47.00591" lon="0.08445">
        <ele>92.03</ele>
        <time>2023-06-09T04:32:51.276Z</time>
      </trkpt>
      <trkpt lat="47.00593" lon="0.08446">
        <ele>92.01</ele>
        <time>2023-06-09T04:33:13.387Z</time>
      </trkpt>
      <trkpt lat="47.00601" lon="0.0845">
        <ele>91.92</ele>
        <time>2023-06-09T04:33:35.499Z</time>
      </trkpt>
      <trkpt lat="47.00609" lon="0.08454">
        <ele>91.86</ele>
        <time>2023-06-09T04:33:57.613Z</time>
      </trkpt>
      <trkpt lat="47.00618" lon="0.08458">
        <ele>91.86</ele>
        <time>2023-06-09T04:34:19.728Z</time>
      </trkpt>
      <trkpt lat="47.0063" lon="0.08464">
        <ele>91.37</ele>
        <time>2023-06-09T04:34:41.845Z</time>
      </trkpt>
      <trkpt lat="47.00638" lon="0.08469">
        <ele>91.09</ele>
        <time>2023-06-09T04:35:03.963Z</time>
      </trkpt>
      <trkpt lat="47.00643" lon="0.08471">
        <ele>90.94</ele>
        <time>2023-06-09T04:35:26.082Z</time>
      </trkpt>
      <trkpt lat="47.00646" lon="0.08472">
        <ele>90.85</ele>
        <time>2023-06-09T04:35:48.202Z</time>
      </trkpt>
      <trkpt lat="47.00663" lon="0.08475">
        <ele>90.45</ele>
        <time>2023-06-09T04:36:10.325Z</time>
      </trkpt>
      <trkpt lat="47.00666" lon="0.08475">
        <ele>90.37</ele>
        <time>2023-06-09T04:36:32.448Z</time>
      </trkpt>
      <trkpt lat="47.00672" lon="0.08474">
        <ele>90.21</ele>
        <time>2023-06-09T04:36:54.572Z</time>
      </trkpt>
      <trkpt lat="47.00681" lon="0.08473">
        <ele>91.42</ele>
        <time>2023-06-09T04:37:16.697Z</time>
      </trkpt>
      <trkpt lat="47.00692" lon="0.0847">
        <ele>92.91</ele>
        <time>2023-06-09T04:37:38.824Z</time>
      </trkpt>
      <trkpt lat="47.00698" lon="0.08468">
        <ele>92.95</ele>
        <time>2023-06-09T04:38:00.952Z</time>
      </trkpt>
      <trkpt lat="47.007" lon="0.08466">
        <ele>92.97</ele>
        <time>2023-06-09T04:38:23.081Z</time>
      </trkpt>
      <trkpt lat="47.00715" lon="0.08452">
        <ele>92.98</ele>
        <time>2023-06-09T04:38:45.212Z</time>
      </trkpt>
      <trkpt lat="47.00713" lon="0.08447">
        <ele>92.99</ele>
        <time>2023-06-09T04:39:07.344Z</time>
      </trkpt>
      <trkpt lat="47.00711" lon="0.08441">
        <ele>93.01</ele>
        <time>2023-06-09T04:39:29.477Z</time>
      </trkpt>
      <trkpt lat="47.00703" lon="0.0842">
        <ele>93.19</ele>
        <time>2023-06-09T04:39:51.613Z</time>
      </trkpt>
      <trkpt lat="47.00702" lon="0.08418">
        <ele>93.19</ele>
        <time>2023-06-09T04:40:13.749Z</time>
      </trkpt>
      <trkpt lat="47.00701" lon="0.08414">
        <ele>93.2</ele>
        <time>2023-06-09T04:40:35.885Z</time>
      </trkpt>
      <trkpt lat="47.00696" lon="0.08389">
        <ele>93.14</ele>
        <time>2023-06-09T04:40:58.024Z</time>
      </trkpt>
      <trkpt lat="47.00695" lon="0.08383">
        <ele>93.16</ele>
        <time>2023-06-09T04:41:20.164Z</time>
      </trkpt>
      <trkpt lat="47.00693" lon="0.08371">
        <ele>93.26</ele>
        <time>2023-06-09T04:41:42.305Z</time>
      </trkpt>
      <trkpt lat="47.00688" lon="0.08347">
        <ele>93.58</ele>
        <time>2023-06-09T04:42:04.449Z</time>
      </trkpt>
      <trkpt lat="47.00688" lon="0.08345">
        <ele>93.86</ele>
        <time>2023-06-09T04:42:26.593Z</time>
      </trkpt>
      <trkpt lat="47.00688" lon="0.08343">
        <ele>94.02</ele>
        <time>2023-06-09T04:42:48.737Z</time>
      </trkpt>
      <trkpt lat="47.00685" lon="0.08331">
        <ele>94.42</ele>
        <time>2023-06-09T04:43:10.883Z</time>
      </trkpt>
      <trkpt lat="47.00684" lon="0.08325">
        <ele>94.64</ele>
        <time>2023-06-09T04:43:33.029Z</time>
      </trkpt>
      <trkpt lat="47.00683" lon="0.08319">
        <ele>94.86</ele>
        <time>2023-06-09T04:43:55.176Z</time>
      </trkpt>
      <trkpt lat="47.00683" lon="0.08309">
        <ele>95.23</ele>
        <time>2023-06-09T04:44:17.324Z</time>
      </trkpt>
      <trkpt lat="47.00685" lon="0.08308">
        <ele>95.35</ele>
        <time>2023-06-09T04:44:39.472Z</time>
      </trkpt>
      <trkpt lat="47.00693" lon="0.08305">
        <ele>95.82</ele>
        <time>2023-06-09T04:45:01.622Z</time>
      </trkpt>
      <trkpt lat="47.00702" lon="0.08307">
        <ele>96.34</ele>
        <time>2023-06-09T04:45:23.773Z</time>
      </trkpt>
      <trkpt lat="47.00706" lon="0.08308">
        <ele>96.57</ele>
        <time>2023-06-09T04:45:45.925Z</time>
      </trkpt>
      <trkpt lat="47.0071" lon="0.08309">
        <ele>96.78</ele>
        <time>2023-06-09T04:46:08.078Z</time>
      </trkpt>
      <trkpt lat="47.00712" lon="0.08309">
        <ele>96.84</ele>
        <time>2023-06-09T04:46:30.231Z</time>
      </trkpt>
      <trkpt lat="47.00719" lon="0.08308">
        <ele>97.11</ele>
        <time>2023-06-09T04:46:52.385Z</time>
      </trkpt>
      <trkpt lat="47.00723" lon="0.08307">
        <ele>97.23</ele>
        <time>2023-06-09T04:47:14.540Z</time>
      </trkpt>
      <trkpt lat="47.00727" lon="0.08307">
        <ele>97.32</ele>
        <time>2023-06-09T04:47:36.695Z</time>
      </trkpt>
      <trkpt lat="47.00727" lon="0.08308">
        <ele>97.32</ele>
        <time>2023-06-09T04:47:58.850Z</time>
      </trkpt>
      <trkpt lat="47.0073" lon="0.08313">
        <ele>97.37</ele>
        <time>2023-06-09T04:48:21.006Z</time>
      </trkpt>
      <trkpt lat="47.00732" lon="0.08318">
        <ele>97.38</ele>
        <time>2023-06-09T04:48:43.163Z</time>
      </trkpt>
      <trkpt lat="47.00732" lon="0.08318">
        <ele>97.38</ele>
        <time>2023-06-09T04:49:05.320Z</time>
      </trkpt>
      <trkpt lat="47.00762" lon="0.08307">
        <ele>97.2</ele>
        <time>2023-06-09T04:49:27.482Z</time>
      </trkpt>
      <trkpt lat="47.00774" lon="0.08303">
        <ele>101.37</ele>
        <time>2023-06-09T04:49:49.646Z</time>
      </trkpt>
      <trkpt lat="47.00778" lon="0.083">
        <ele>102.94</ele>
        <time>2023-06-09T04:50:11.810Z</time>
      </trkpt>
      <trkpt lat="47.00786" lon="0.08296">
        <ele>105.68</ele>
        <time>2023-06-09T04:50:33.976Z</time>
      </trkpt>
      <trkpt lat="47.00793" lon="0.08286">
        <ele>108.88</ele>
        <time>2023-06-09T04:50:56.143Z</time>
      </trkpt>
      <trkpt lat="47.00799" lon="0.08277">
        <ele>109.68</ele>
        <time>2023-06-09T04:51:18.312Z</time>
      </trkpt>
      <trkpt lat="47.00805" lon="0.08269">
        <ele>110.43</ele>
        <time>2023-06-09T04:51:40.482Z</time>
      </trkpt>
      <trkpt lat="47.00808" lon="0.08264">
        <ele>110.77</ele>
        <time>2023-06-09T04:52:02.653Z</time>
      </trkpt>
      <trkpt lat="47.00814" lon="0.08255">
        <ele>111.4</ele>
        <time>2023-06-09T04:52:24.825Z</time>
      </trkpt>
      <trkpt lat="47.0082" lon="0.08247">
        <ele>110.49</ele>
        <time>2023-06-09T04:52:46.998Z</time>
      </trkpt>
      <trkpt lat="47.00832" lon="0.08229">
        <ele>108.42</ele>
        <time>2023-06-09T04:53:09.174Z</time>
      </trkpt>
      <trkpt lat="47.00837" lon="0.08223">
        <ele>107.67</ele>
        <time>2023-06-09T04:53:31.351Z</time>
      </trkpt>
      <trkpt lat="47.00856" lon="0.08198">
        <ele>109.7</ele>
        <time>2023-06-09T04:53:53.532Z</time>
      </trkpt>
      <trkpt lat="47.0086" lon="0.0819">
        <ele>110.21</ele>
        <time>2023-06-09T04:54:15.714Z</time>
      </trkpt>
      <trkpt lat="47.00867" lon="0.08175">
        <ele>110.78</ele>
        <time>2023-06-09T04:54:37.898Z</time>
      </trkpt>
      <trkpt lat="47.00872" lon="0.08165">
        <ele>111.11</ele>
        <time>2023-06-09T04:55:00.084Z</time>
      </trkpt>
      <trkpt lat="47.00875" lon="0.0816">
        <ele>111.25</ele>
        <time>2023-06-09T04:55:22.270Z</time>
      </trkpt>
      <trkpt lat="47.00882" lon="0.08166">
        <ele>111.52</ele>
        <time>2023-06-09T04:55:44.458Z</time>
      </trkpt>
      <trkpt lat="47.00882" lon="0.08166">
        <ele>111.52</ele>
        <time>2023-06-09T04:56:06.646Z</time>
      </trkpt>
      <trkpt lat="47.00885" lon="0.08171">
        <ele>111.64</ele>
        <time>2023-06-09T04:56:28.834Z</time>
      </trkpt>
      <trkpt lat="47.00885" lon="0.08171">
        <ele>111.64</ele>
        <time>2023-06-09T04:56:51.022Z</time>
      </trkpt>
      <trkpt lat="47.00893" lon="0.08176">
        <ele>111.83</ele>
        <time>2023-06-09T04:57:13.212Z</time>
      </trkpt>
      <trkpt lat="47.00894" lon="0.08177">
        <ele>111.92</ele>
        <time>2023-06-09T04:57:35.402Z</time>
      </trkpt>
      <trkpt lat="47.009" lon="0.08179">
        <ele>112.35</ele>
        <time>2023-06-09T04:57:57.593Z</time>
      </trkpt>
      <trkpt lat="47.00903" lon="0.0818">
        <ele>112.58</ele>
        <time>2023-06-09T04:58:19.784Z</time>
      </trkpt>
      <trkpt lat="47.00918" lon="0.08185">
        <ele>113.43</ele>
        <time>2023-06-09T04:58:41.978Z</time>
      </trkpt>
      <trkpt lat="47.00918" lon="0.08174">
        <ele>113.86</ele>
        <time>2023-06-09T04:59:04.173Z</time>
      </trkpt>
      <trkpt lat="47.00917" lon="0.08161">
        <ele>114.33</ele>
        <time>2023-06-09T04:59:26.369Z</time>
      </trkpt>
      <trkpt lat="47.00917" lon="0.08158">
        <ele>114.44</ele>
        <time>2023-06-09T04:59:48.566Z</time>
      </trkpt>
      <trkpt lat="47.00911" lon="0.08146">
        <ele>114.98</ele>
        <time>2023-06-09T05:00:10.765Z</time>
      </trkpt>
      <trkpt lat="47.00897" lon="0.08118">
        <ele>116.91</ele>
        <time>2023-06-09T05:00:32.967Z</time>
      </trkpt>
      <trkpt lat="47.00895" lon="0.08115">
        <ele>116.99</ele>
        <time>2023-06-09T05:00:55.170Z</time>
      </trkpt>
      <trkpt lat="47.009" lon="0.08102">
        <ele>117.32</ele>
        <time>2023-06-09T05:01:17.374Z</time>
      </trkpt>
      <trkpt lat="47.00906" lon="0.08085">
        <ele>116.5</ele>
        <time>2023-06-09T05:01:39.580Z</time>
      </trkpt>
      <trkpt lat="47.00906" lon="0.08085">
        <ele>116.5</ele>
        <time>2023-06-09T05:02:01.786Z</time>
      </trkpt>
      <trkpt lat="47.00911" lon="0.08077">
        <ele>115.92</ele>
        <time>2023-06-09T05:02:23.994Z</time>
      </trkpt>
      <trkpt lat="47.00915" lon="0.0807">
        <ele>115.73</ele>
        <time>2023-06-09T05:02:46.203Z</time>
      </trkpt>
      <trkpt lat="47.00917" lon="0.08071">
        <ele>115.66</ele>
        <time>2023-06-09T05:03:08.412Z</time>
      </trkpt>
      <trkpt lat="47.00926" lon="0.08076">
        <ele>115.35</ele>
        <time>2023-06-09T05:03:30.622Z</time>
      </trkpt>
      <trkpt lat="47.00933" lon="0.08081">
        <ele>114.96</ele>
        <time>2023-06-09T05:03:52.834Z</time>
      </trkpt>
      <trkpt lat="47.00934" lon="0.08081">
        <ele>114.96</ele>
        <time>2023-06-09T05:04:15.046Z</time>
      </trkpt>
      <trkpt lat="47.00938" lon="0.08081">
        <ele>114.74</ele>
        <time>2023-06-09T05:04:37.259Z</time>
      </trkpt>
      <trkpt lat="47.00947" lon="0.0808">
        <ele>114.24</ele>
        <time>2023-06-09T05:04:59.473Z</time>
      </trkpt>
      <trkpt lat="47.00949" lon="0.0808">
        <ele>114.12</ele>
        <time>2023-06-09T05:05:21.687Z</time>
      </trkpt>
      <trkpt lat="47.00951" lon="0.08079">
        <ele>113.97</ele>
        <time>2023-06-09T05:05:43.902Z</time>
      </trkpt>
      <trkpt lat="47.00964" lon="0.08074">
        <ele>113.1</ele>
        <time>2023-06-09T05:06:06.119Z</time>
      </trkpt>
      <trkpt lat="47.00977" lon="0.08067">
        <ele>112.2</ele>
        <time>2023-06-09T05:06:28.338Z</time>
      </trkpt>
      <trkpt lat="47.00989" lon="0.0806">
        <ele>112.8</ele>
        <time>2023-06-09T05:06:50.559Z</time>
      </trkpt>
      <trkpt lat="47.00997" lon="0.08055">
        <ele>113.14</ele>
        <time>2023-06-09T05:07:12.782Z</time>
      </trkpt>
      <trkpt lat="47.01001" lon="0.08053">
        <ele>113.28</ele>
        <time>2023-06-09T05:07:35.005Z</time>
      </trkpt>
      <trkpt lat="47.00999" lon="0.0804">
        <ele>113.62</ele>
        <time>2023-06-09T05:07:57.230Z</time>
      </trkpt>
      <trkpt lat="47.00996" lon="0.08023">
        <ele>114.1</ele>
        <time>2023-06-09T05:08:19.457Z</time>
      </trkpt>
      <trkpt lat="47.00996" lon="0.08014">
        <ele>114.35</ele>
        <time>2023-06-09T05:08:41.684Z</time>
      </trkpt>
      <trkpt lat="47.00996" lon="0.08001">
        <ele>119.62</ele>
        <time>2023-06-09T05:09:03.913Z</time>
      </trkpt>
      <trkpt lat="47.00997" lon="0.07981">
        <ele>119.57</ele>
        <time>2023-06-09T05:09:26.144Z</time>
      </trkpt>
      <trkpt lat="47.00997" lon="0.07976">
        <ele>119.57</ele>
        <time>2023-06-09T05:09:48.376Z</time>
      </trkpt>
      <trkpt lat="47.00996" lon="0.07968">
        <ele>119.59</ele>
        <time>2023-06-09T05:10:10.609Z</time>
      </trkpt>
      <trkpt lat="47.00996" lon="0.07963">
        <ele>119.61</ele>
        <time>2023-06-09T05:10:32.842Z</time>
      </trkpt>
      <trkpt lat="47.00992" lon="0.07957">
        <ele>119.65</ele>
        <time>2023-06-09T05:10:55.076Z</time>
      </trkpt>
      <trkpt lat="47.00992" lon="0.07957">
        <ele>119.65</ele>
        <time>2023-06-09T05:11:17.310Z</time>
      </trkpt>
      <trkpt lat="47.00981" lon="0.07946">
        <ele>119.8</ele>
        <time>2023-06-09T05:11:39.546Z</time>
      </trkpt>
      <trkpt lat="47.00959" lon="0.07925">
        <ele>119.82</ele>
        <time>2023-06-09T05:12:01.786Z</time>
      </trkpt>
      <trkpt lat="47.00959" lon="0.07924">
        <ele>119.82</ele>
        <time>2023-06-09T05:12:24.026Z</time>
      </trkpt>
      <trkpt lat="47.00959" lon="0.07916">
        <ele>119.81</ele>
        <time>2023-06-09T05:12:46.267Z</time>
      </trkpt>
      <trkpt lat="47.00957" lon="0.07912">
        <ele>119.81</ele>
        <time>2023-06-09T05:13:08.509Z</time>
      </trkpt>
      <trkpt lat="47.00953" lon="0.07903">
        <ele>119.77</ele>
        <time>2023-06-09T05:13:30.752Z</time>
      </trkpt>
      <trkpt lat="47.00948" lon="0.07897">
        <ele>119.75</ele>
        <time>2023-06-09T05:13:52.996Z</time>
      </trkpt>
      <trkpt lat="47.00932" lon="0.07878">
        <ele>119.39</ele>
        <time>2023-06-09T05:14:15.243Z</time>
      </trkpt>
      <trkpt lat="47.00926" lon="0.0787">
        <ele>119.5</ele>
        <time>2023-06-09T05:14:37.492Z</time>
      </trkpt>
      <trkpt lat="47.00916" lon="0.07858">
        <ele>119.71</ele>
        <time>2023-06-09T05:14:59.743Z</time>
      </trkpt>
      <trkpt lat="47.00898" lon="0.07837">
        <ele>119.82</ele>
        <time>2023-06-09T05:15:21.997Z</time>
      </trkpt>
      <trkpt lat="47.00898" lon="0.07837">
        <ele>115.42</ele>
        <time>2023-06-09T05:15:44.251Z</time>
      </trkpt>
      <trkpt lat="47.00886" lon="0.07823">
        <ele>115.07</ele>
        <time>2023-06-09T05:16:06.508Z</time>
      </trkpt>
      <trkpt lat="47.00878" lon="0.07813">
        <ele>114</ele>
        <time>2023-06-09T05:16:28.767Z</time>
      </trkpt>
      <trkpt lat="47.00878" lon="0.07813">
        <ele>114</ele>
        <time>2023-06-09T05:16:51.026Z</time>
      </trkpt>
      <trkpt lat="47.0087" lon="0.07823">
        <ele>114.89</ele>
        <time>2023-06-09T05:17:13.286Z</time>
      </trkpt>
      <trkpt lat="47.00867" lon="0.07828">
        <ele>115.62</ele>
        <time>2023-06-09T05:17:35.547Z</time>
      </trkpt>
      <trkpt lat="47.00858" lon="0.07835">
        <ele>117.21</ele>
        <time>2023-06-09T05:17:57.810Z</time>
      </trkpt>
      <trkpt lat="47.00858" lon="0.07835">
        <ele>117.21</ele>
        <time>2023-06-09T05:18:20.073Z</time>
      </trkpt>
      <trkpt lat="47.00854" lon="0.07849">
        <ele>117.61</ele>
        <time>2023-06-09T05:18:42.337Z</time>
      </trkpt>
      <trkpt lat="47.00856" lon="0.07856">
        <ele>117.82</ele>
        <time>2023-06-09T05:19:04.602Z</time>
      </trkpt>
      <trkpt lat="47.0086" lon="0.07869">
        <ele>117.4</ele>
        <time>2023-06-09T05:19:26.869Z</time>
      </trkpt>
      <trkpt lat="47.00865" lon="0.07874">
        <ele>117.14</ele>
        <time>2023-06-09T05:19:49.137Z</time>
      </trkpt>
      <trkpt lat="47.00877" lon="0.07888">
        <ele>117.09</ele>
        <time>2023-06-09T05:20:11.407Z</time>
      </trkpt>
      <trkpt lat="47.00888" lon="0.07901">
        <ele>117.19</ele>
        <time>2023-06-09T05:20:33.679Z</time>
      </trkpt>
      <trkpt lat="47.00897" lon="0.07911">
        <ele>117.07</ele>
        <time>2023-06-09T05:20:55.953Z</time>
      </trkpt>
      <trkpt lat="47.009" lon="0.0791">
        <ele>117.05</ele>
        <time>2023-06-09T05:21:18.228Z</time>
      </trkpt>
      <trkpt lat="47.00911" lon="0.07906">
        <ele>117.34</ele>
        <time>2023-06-09T05:21:40.504Z</time>
      </trkpt>
      <trkpt lat="47.00913" lon="0.07901">
        <ele>117.45</ele>
        <time>2023-06-09T05:22:02.781Z</time>
      </trkpt>
      <trkpt lat="47.00919" lon="0.07889">
        <ele>118.05</ele>
        <time>2023-06-09T05:22:25.060Z</time>
      </trkpt>
      <trkpt lat="47.00916" lon="0.07879">
        <ele>118.5</ele>
        <time>2023-06-09T05:22:47.340Z</time>
      </trkpt>
      <trkpt lat="47.00913" lon="0.07867">
        <ele>118.52</ele>
        <time>2023-06-09T05:23:09.621Z</time>
      </trkpt>
      <trkpt lat="47.00913" lon="0.07866">
        <ele>118.52</ele>
        <time>2023-06-09T05:23:31.902Z</time>
      </trkpt>
      <trkpt lat="47.00899" lon="0.07849">
        <ele>116.6</ele>
        <time>2023-06-09T05:23:54.186Z</time>
      </trkpt>
      <trkpt lat="47.00893" lon="0.07842">
        <ele>115.69</ele>
        <time>2023-06-09T05:24:16.472Z</time>
      </trkpt>
      <trkpt lat="47.00891" lon="0.07841">
        <ele>115.47</ele>
        <time>2023-06-09T05:24:38.758Z</time>
      </trkpt>
      <trkpt lat="47.00877" lon="0.07828">
        <ele>114.98</ele>
        <time>2023-06-09T05:25:01.047Z</time>
      </trkpt>
      <trkpt lat="47.00877" lon="0.07828">
        <ele>114.98</ele>
        <time>2023-06-09T05:25:23.336Z</time>
      </trkpt>
      <trkpt lat="47.00868" lon="0.07829">
        <ele>116.16</ele>
        <time>2023-06-09T05:25:45.626Z</time>
      </trkpt>
      <trkpt lat="47.00868" lon="0.07829">
        <ele>116.16</ele>
        <time>2023-06-09T05:26:07.916Z</time>
      </trkpt>
      <trkpt lat="47.00857" lon="0.07847">
        <ele>117.94</ele>
        <time>2023-06-09T05:26:30.209Z</time>
      </trkpt>
      <trkpt lat="47.00857" lon="0.07848">
        <ele>117.94</ele>
        <time>2023-06-09T05:26:52.502Z</time>
      </trkpt>
      <trkpt lat="47.00857" lon="0.07861">
        <ele>117.52</ele>
        <time>2023-06-09T05:27:14.796Z</time>
      </trkpt>
      <trkpt lat="47.00863" lon="0.07869">
        <ele>117.14</ele>
        <time>2023-06-09T05:27:37.092Z</time>
      </trkpt>
      <trkpt lat="47.00876" lon="0.07887">
        <ele>117.09</ele>
        <time>2023-06-09T05:27:59.390Z</time>
      </trkpt>
      <trkpt lat="47.00882" lon="0.07896">
        <ele>117.12</ele>
        <time>2023-06-09T05:28:21.690Z</time>
      </trkpt>
      <trkpt lat="47.00889" lon="0.07902">
        <ele>117.15</ele>
        <time>2023-06-09T05:28:43.991Z</time>
      </trkpt>
      <trkpt lat="47.00897" lon="0.0791">
        <ele>117.05</ele>
        <time>2023-06-09T05:29:06.294Z</time>
      </trkpt>
      <trkpt lat="47.00897" lon="0.0791">
        <ele>117.05</ele>
        <time>2023-06-09T05:29:28.597Z</time>
      </trkpt>
      <trkpt lat="47.00911" lon="0.07902">
        <ele>117.12</ele>
        <time>2023-06-09T05:29:50.902Z</time>
      </trkpt>
      <trkpt lat="47.00911" lon="0.07902">
        <ele>119.71</ele>
        <time>2023-06-09T05:30:13.207Z</time>
      </trkpt>
      <trkpt lat="47.00912" lon="0.07901">
        <ele>119.69</ele>
        <time>2023-06-09T05:30:35.512Z</time>
      </trkpt>
      <trkpt lat="47.00923" lon="0.0788">
        <ele>119.39</ele>
        <time>2023-06-09T05:30:57.820Z</time>
      </trkpt>
      <trkpt lat="47.00927" lon="0.07871">
        <ele>119.48</ele>
        <time>2023-06-09T05:31:20.129Z</time>
      </trkpt>
      <trkpt lat="47.00926" lon="0.0787">
        <ele>119.5</ele>
        <time>2023-06-09T05:31:42.438Z</time>
      </trkpt>
      <trkpt lat="47.00916" lon="0.07858">
        <ele>119.71</ele>
        <time>2023-06-09T05:32:04.749Z</time>
      </trkpt>
      <trkpt lat="47.00899" lon="0.07837">
        <ele>119.82</ele>
        <time>2023-06-09T05:32:27.064Z</time>
      </trkpt>
      <trkpt lat="47.00895" lon="0.07834">
        <ele>119.75</ele>
        <time>2023-06-09T05:32:49.380Z</time>
      </trkpt>
      <trkpt lat="47.00886" lon="0.07822">
        <ele>116.83</ele>
        <time>2023-06-09T05:33:11.698Z</time>
      </trkpt>
      <trkpt lat="47.00879" lon="0.07815">
        <ele>115.03</ele>
        <time>2023-06-09T05:33:34.017Z</time>
      </trkpt>
      <trkpt lat="47.00878" lon="0.07813">
        <ele>114.93</ele>
        <time>2023-06-09T05:33:56.336Z</time>
      </trkpt>
      <trkpt lat="47.00879" lon="0.07811">
        <ele>114.82</ele>
        <time>2023-06-09T05:34:18.656Z</time>
      </trkpt>
      <trkpt lat="47.00881" lon="0.07808">
        <ele>114.46</ele>
        <time>2023-06-09T05:34:40.976Z</time>
      </trkpt>
      <trkpt lat="47.00883" lon="0.07798">
        <ele>113.53</ele>
        <time>2023-06-09T05:35:03.297Z</time>
      </trkpt>
      <trkpt lat="47.00883" lon="0.07798">
        <ele>113.53</ele>
        <time>2023-06-09T05:35:25.618Z</time>
      </trkpt>
      <trkpt lat="47.00881" lon="0.07793">
        <ele>112.92</ele>
        <time>2023-06-09T05:35:47.940Z</time>
      </trkpt>
      <trkpt lat="47.00875" lon="0.07776">
        <ele>111.19</ele>
        <time>2023-06-09T05:36:10.264Z</time>
      </trkpt>
      <trkpt lat="47.00864" lon="0.07787">
        <ele>109.46</ele>
        <time>2023-06-09T05:36:32.590Z</time>
      </trkpt>
      <trkpt lat="47.0085" lon="0.07802">
        <ele>107.02</ele>
        <time>2023-06-09T05:36:54.919Z</time>
      </trkpt>
      <trkpt lat="47.00846" lon="0.07806">
        <ele>106.45</ele>
        <time>2023-06-09T05:37:17.249Z</time>
      </trkpt>
      <trkpt lat="47.00839" lon="0.07814">
        <ele>105.41</ele>
        <time>2023-06-09T05:37:39.580Z</time>
      </trkpt>
      <trkpt lat="47.00836" lon="0.07817">
        <ele>104.8</ele>
        <time>2023-06-09T05:38:01.912Z</time>
      </trkpt>
      <trkpt lat="47.00831" lon="0.07822">
        <ele>104.7</ele>
        <time>2023-06-09T05:38:24.245Z</time>
      </trkpt>
      <trkpt lat="47.00829" lon="0.07825">
        <ele>104.66</ele>
        <time>2023-06-09T05:38:46.578Z</time>
      </trkpt>
      <trkpt lat="47.00825" lon="0.07829">
        <ele>104.61</ele>
        <time>2023-06-09T05:39:08.912Z</time>
      </trkpt>
      <trkpt lat="47.00819" lon="0.07838">
        <ele>104.56</ele>
        <time>2023-06-09T05:39:31.247Z</time>
      </trkpt>
      <trkpt lat="47.00815" lon="0.07835">
        <ele>104.53</ele>
        <time>2023-06-09T05:39:53.583Z</time>
      </trkpt>
      <trkpt lat="47.00822" lon="0.07817">
        <ele>104.46</ele>
        <time>2023-06-09T05:40:15.921Z</time>
      </trkpt>
      <trkpt lat="47.00822" lon="0.07817">
        <ele>104.46</ele>
        <time>2023-06-09T05:40:38.259Z</time>
      </trkpt>
      <trkpt lat="47.0083" lon="0.07803">
        <ele>104.35</ele>
        <time>2023-06-09T05:41:00.599Z</time>
      </trkpt>
      <trkpt lat="47.00832" lon="0.078">
        <ele>104.33</ele>
        <time>2023-06-09T05:41:22.940Z</time>
      </trkpt>
      <trkpt lat="47.00837" lon="0.07795">
        <ele>104.3</ele>
        <time>2023-06-09T05:41:45.282Z</time>
      </trkpt>
      <trkpt lat="47.00847" lon="0.07782">
        <ele>104.28</ele>
        <time>2023-06-09T05:42:07.626Z</time>
      </trkpt>
      <trkpt lat="47.0086" lon="0.07766">
        <ele>104.32</ele>
        <time>2023-06-09T05:42:29.972Z</time>
      </trkpt>
      <trkpt lat="47.00867" lon="0.07758">
        <ele>104.36</ele>
        <time>2023-06-09T05:42:52.320Z</time>
      </trkpt>
      <trkpt lat="47.00879" lon="0.07744">
        <ele>104.52</ele>
        <time>2023-06-09T05:43:14.670Z</time>
      </trkpt>
      <trkpt lat="47.00893" lon="0.07732">
        <ele>104.7</ele>
        <time>2023-06-09T05:43:37.023Z</time>
      </trkpt>
      <trkpt lat="47.00895" lon="0.0773">
        <ele>104.74</ele>
        <time>2023-06-09T05:43:59.376Z</time>
      </trkpt>
      <trkpt lat="47.009" lon="0.07727">
        <ele>104.83</ele>
        <time>2023-06-09T05:44:21.730Z</time>
      </trkpt>
      <trkpt lat="47.00905" lon="0.07724">
        <ele>104.92</ele>
        <time>2023-06-09T05:44:44.085Z</time>
      </trkpt>
      <trkpt lat="47.00913" lon="0.07719">
        <ele>105.16</ele>
        <time>2023-06-09T05:45:06.441Z</time>
      </trkpt>
      <trkpt lat="47.00917" lon="0.07717">
        <ele>105.31</ele>
        <time>2023-06-09T05:45:28.798Z</time>
      </trkpt>
      <trkpt lat="47.00925" lon="0.07712">
        <ele>105.69</ele>
        <time>2023-06-09T05:45:51.156Z</time>
      </trkpt>
      <trkpt lat="47.00933" lon="0.07707">
        <ele>106.14</ele>
        <time>2023-06-09T05:46:13.516Z</time>
      </trkpt>
      <trkpt lat="47.00935" lon="0.07706">
        <ele>106.61</ele>
        <time>2023-06-09T05:46:35.876Z</time>
      </trkpt>
      <trkpt lat="47.00938" lon="0.07706">
        <ele>107.18</ele>
        <time>2023-06-09T05:46:58.237Z</time>
      </trkpt>
      <trkpt lat="47.00947" lon="0.07706">
        <ele>106.38</ele>
        <time>2023-06-09T05:47:20.599Z</time>
      </trkpt>
      <trkpt lat="47.00952" lon="0.07709">
        <ele>105.93</ele>
        <time>2023-06-09T05:47:42.962Z</time>
      </trkpt>
      <trkpt lat="47.00959" lon="0.07712">
        <ele>104.8</ele>
        <time>2023-06-09T05:48:05.326Z</time>
      </trkpt>
      <trkpt lat="47.0096" lon="0.07714">
        <ele>104.55</ele>
        <time>2023-06-09T05:48:27.690Z</time>
      </trkpt>
      <trkpt lat="47.00962" lon="0.07716">
        <ele>104.13</ele>
        <time>2023-06-09T05:48:50.055Z</time>
      </trkpt>
      <trkpt lat="47.00964" lon="0.07714">
        <ele>103.81</ele>
        <time>2023-06-09T05:49:12.420Z</time>
      </trkpt>
      <trkpt lat="47.00967" lon="0.0771">
        <ele>103.01</ele>
        <time>2023-06-09T05:49:34.786Z</time>
      </trkpt>
      <trkpt lat="47.00968" lon="0.07709">
        <ele>102.76</ele>
        <time>2023-06-09T05:49:57.152Z</time>
      </trkpt>
      <trkpt lat="47.00967" lon="0.07698">
        <ele>101.31</ele>
        <time>2023-06-09T05:50:19.519Z</time>
      </trkpt>
      <trkpt lat="47.00968" lon="0.07685">
        <ele>99.67</ele>
        <time>2023-06-09T05:50:41.888Z</time>
      </trkpt>
      <trkpt lat="47.00969" lon="0.07673">
        <ele>98.04</ele>
        <time>2023-06-09T05:51:04.258Z</time>
      </trkpt>
      <trkpt lat="47.0097" lon="0.07662">
        <ele>98.02</ele>
        <time>2023-06-09T05:51:26.629Z</time>
      </trkpt>
      <trkpt lat="47.00971" lon="0.07646">
        <ele>98.07</ele>
        <time>2023-06-09T05:51:49.002Z</time>
      </trkpt>
      <trkpt lat="47.00972" lon="0.07634">
        <ele>97.63</ele>
        <time>2023-06-09T05:52:11.376Z</time>
      </trkpt>
      <trkpt lat="47.00976" lon="0.07634">
        <ele>97.41</ele>
        <time>2023-06-09T05:52:33.751Z</time>
      </trkpt>
      <trkpt lat="47.00978" lon="0.07634">
        <ele>97.33</ele>
        <time>2023-06-09T05:52:56.126Z</time>
      </trkpt>
      <trkpt lat="47.00989" lon="0.07637">
        <ele>96.86</ele>
        <time>2023-06-09T05:53:18.503Z</time>
      </trkpt>
      <trkpt lat="47.00989" lon="0.07625">
        <ele>96.5</ele>
        <time>2023-06-09T05:53:40.881Z</time>
      </trkpt>
      <trkpt lat="47.0099" lon="0.07611">
        <ele>96.05</ele>
        <time>2023-06-09T05:54:03.261Z</time>
      </trkpt>
      <trkpt lat="47.00991" lon="0.07593">
        <ele>95.47</ele>
        <time>2023-06-09T05:54:25.643Z</time>
      </trkpt>
      <trkpt lat="47.00995" lon="0.07554">
        <ele>93.78</ele>
        <time>2023-06-09T05:54:48.029Z</time>
      </trkpt>
      <trkpt lat="47.00996" lon="0.07541">
        <ele>93.17</ele>
        <time>2023-06-09T05:55:10.417Z</time>
      </trkpt>
      <trkpt lat="47.00997" lon="0.07528">
        <ele>92.49</ele>
        <time>2023-06-09T05:55:32.806Z</time>
      </trkpt>
      <trkpt lat="47.01" lon="0.07496">
        <ele>90.68</ele>
        <time>2023-06-09T05:55:55.199Z</time>
      </trkpt>
      <trkpt lat="47.01001" lon="0.07483">
        <ele>89.99</ele>
        <time>2023-06-09T05:56:17.593Z</time>
      </trkpt>
      <trkpt lat="47.01002" lon="0.07469">
        <ele>89.34</ele>
        <time>2023-06-09T05:56:39.989Z</time>
      </trkpt>
      <trkpt lat="47.01004" lon="0.07443">
        <ele>88.11</ele>
        <time>2023-06-09T05:57:02.387Z</time>
      </trkpt>
      <trkpt lat="47.01006" lon="0.07424">
        <ele>87.13</ele>
        <time>2023-06-09T05:57:24.788Z</time>
      </trkpt>
      <trkpt lat="47.01006" lon="0.07416">
        <ele>87.35</ele>
        <time>2023-06-09T05:57:47.189Z</time>
      </trkpt>
      <trkpt lat="47.01006" lon="0.07413">
        <ele>87.17</ele>
        <time>2023-06-09T05:58:09.591Z</time>
      </trkpt>
      <trkpt lat="47.01007" lon="0.07406">
        <ele>87.23</ele>
        <time>2023-06-09T05:58:31.994Z</time>
      </trkpt>
      <trkpt lat="47.01007" lon="0.07402">
        <ele>87.27</ele>
        <time>2023-06-09T05:58:54.397Z</time>
      </trkpt>
      <trkpt lat="47.01007" lon="0.07391">
        <ele>84.27</ele>
        <time>2023-06-09T05:59:16.801Z</time>
      </trkpt>
      <trkpt lat="47.01007" lon="0.07387">
        <ele>84.33</ele>
        <time>2023-06-09T05:59:39.206Z</time>
      </trkpt>
      <trkpt lat="47.01005" lon="0.07376">
        <ele>84.52</ele>
        <time>2023-06-09T06:00:01.612Z</time>
      </trkpt>
      <trkpt lat="47.01013" lon="0.07373">
        <ele>84.73</ele>
        <time>2023-06-09T06:00:24.019Z</time>
      </trkpt>
      <trkpt lat="47.01013" lon="0.07371">
        <ele>84.76</ele>
        <time>2023-06-09T06:00:46.426Z</time>
      </trkpt>
      <trkpt lat="47.01016" lon="0.07362">
        <ele>84.91</ele>
        <time>2023-06-09T06:01:08.834Z</time>
      </trkpt>
      <trkpt lat="47.0102" lon="0.07365">
        <ele>85.03</ele>
        <time>2023-06-09T06:01:31.243Z</time>
      </trkpt>
      <trkpt lat="47.01029" lon="0.07371">
        <ele>85.57</ele>
        <time>2023-06-09T06:01:53.654Z</time>
      </trkpt>
      <trkpt lat="47.01051" lon="0.07392">
        <ele>87.06</ele>
        <time>2023-06-09T06:02:16.069Z</time>
      </trkpt>
      <trkpt lat="47.01056" lon="0.07403">
        <ele>87.57</ele>
        <time>2023-06-09T06:02:38.485Z</time>
      </trkpt>
      <trkpt lat="47.0106" lon="0.07414">
        <ele>88.04</ele>
        <time>2023-06-09T06:03:00.903Z</time>
      </trkpt>
      <trkpt lat="47.01065" lon="0.07425">
        <ele>88.47</ele>
        <time>2023-06-09T06:03:23.322Z</time>
      </trkpt>
      <trkpt lat="47.0107" lon="0.07436">
        <ele>88.85</ele>
        <time>2023-06-09T06:03:45.743Z</time>
      </trkpt>
      <trkpt lat="47.01075" lon="0.07447">
        <ele>89.19</ele>
        <time>2023-06-09T06:04:08.165Z</time>
      </trkpt>
      <trkpt lat="47.01091" lon="0.07486">
        <ele>90.23</ele>
        <time>2023-06-09T06:04:30.592Z</time>
      </trkpt>
      <trkpt lat="47.01091" lon="0.07486">
        <ele>90.23</ele>
        <time>2023-06-09T06:04:53.019Z</time>
      </trkpt>
      <trkpt lat="47.01108" lon="0.07517">
        <ele>90.82</ele>
        <time>2023-06-09T06:05:15.450Z</time>
      </trkpt>
      <trkpt lat="47.01115" lon="0.07523">
        <ele>91</ele>
        <time>2023-06-09T06:05:37.883Z</time>
      </trkpt>
      <trkpt lat="47.01126" lon="0.07532">
        <ele>91.18</ele>
        <time>2023-06-09T06:06:00.318Z</time>
      </trkpt>
      <trkpt lat="47.01133" lon="0.07536">
        <ele>91.3</ele>
        <time>2023-06-09T06:06:22.754Z</time>
      </trkpt>
      <trkpt lat="47.01139" lon="0.0754">
        <ele>91.41</ele>
        <time>2023-06-09T06:06:45.191Z</time>
      </trkpt>
      <trkpt lat="47.01148" lon="0.07544">
        <ele>91.6</ele>
        <time>2023-06-09T06:07:07.630Z</time>
      </trkpt>
      <trkpt lat="47.0116" lon="0.0755">
        <ele>91.73</ele>
        <time>2023-06-09T06:07:30.071Z</time>
      </trkpt>
      <trkpt lat="47.0118" lon="0.07559">
        <ele>91.93</ele>
        <time>2023-06-09T06:07:52.515Z</time>
      </trkpt>
      <trkpt lat="47.01208" lon="0.07573">
        <ele>92.07</ele>
        <time>2023-06-09T06:08:14.964Z</time>
      </trkpt>
      <trkpt lat="47.0122" lon="0.07579">
        <ele>92.17</ele>
        <time>2023-06-09T06:08:37.415Z</time>
      </trkpt>
      <trkpt lat="47.0124" lon="0.07588">
        <ele>92.23</ele>
        <time>2023-06-09T06:08:59.869Z</time>
      </trkpt>
      <trkpt lat="47.01246" lon="0.07591">
        <ele>92.25</ele>
        <time>2023-06-09T06:09:22.324Z</time>
      </trkpt>
      <trkpt lat="47.01259" lon="0.07602">
        <ele>92.31</ele>
        <time>2023-06-09T06:09:44.781Z</time>
      </trkpt>
      <trkpt lat="47.01265" lon="0.07612">
        <ele>92.35</ele>
        <time>2023-06-09T06:10:07.240Z</time>
      </trkpt>
      <trkpt lat="47.0127" lon="0.0762">
        <ele>92.37</ele>
        <time>2023-06-09T06:10:29.700Z</time>
      </trkpt>
      <trkpt lat="47.0128" lon="0.07645">
        <ele>92.43</ele>
        <time>2023-06-09T06:10:52.163Z</time>
      </trkpt>
      <trkpt lat="47.01283" lon="0.07653">
        <ele>92.46</ele>
        <time>2023-06-09T06:11:14.627Z</time>
      </trkpt>
      <trkpt lat="47.01289" lon="0.0767">
        <ele>92.48</ele>
        <time>2023-06-09T06:11:37.093Z</time>
      </trkpt>
      <trkpt lat="47.01313" lon="0.07734">
        <ele>92.46</ele>
        <time>2023-06-09T06:11:59.567Z</time>
      </trkpt>
      <trkpt lat="47.01314" lon="0.07739">
        <ele>92.48</ele>
        <time>2023-06-09T06:12:22.042Z</time>
      </trkpt>
      <trkpt lat="47.0132" lon="0.07755">
        <ele>92.41</ele>
        <time>2023-06-09T06:12:44.519Z</time>
      </trkpt>
      <trkpt lat="47.01325" lon="0.07768">
        <ele>91.15</ele>
        <time>2023-06-09T06:13:06.997Z</time>
      </trkpt>
      <trkpt lat="47.01333" lon="0.0779">
        <ele>90.41</ele>
        <time>2023-06-09T06:13:29.478Z</time>
      </trkpt>
      <trkpt lat="47.01336" lon="0.07785">
        <ele>90.21</ele>
        <time>2023-06-09T06:13:51.960Z</time>
      </trkpt>
      <trkpt lat="47.01346" lon="0.0777">
        <ele>89.63</ele>
        <time>2023-06-09T06:14:14.444Z</time>
      </trkpt>
      <trkpt lat="47.01363" lon="0.07753">
        <ele>88.78</ele>
        <time>2023-06-09T06:14:36.932Z</time>
      </trkpt>
      <trkpt lat="47.01371" lon="0.07746">
        <ele>88.46</ele>
        <time>2023-06-09T06:14:59.421Z</time>
      </trkpt>
      <trkpt lat="47.01389" lon="0.07727">
        <ele>87.71</ele>
        <time>2023-06-09T06:15:21.914Z</time>
      </trkpt>
      <trkpt lat="47.01418" lon="0.07699">
        <ele>86.46</ele>
        <time>2023-06-09T06:15:44.412Z</time>
      </trkpt>
      <trkpt lat="47.01425" lon="0.07691">
        <ele>86.17</ele>
        <time>2023-06-09T06:16:06.912Z</time>
      </trkpt>
      <trkpt lat="47.01432" lon="0.07684">
        <ele>85.93</ele>
        <time>2023-06-09T06:16:29.413Z</time>
      </trkpt>
      <trkpt lat="47.0144" lon="0.07677">
        <ele>85.73</ele>
        <time>2023-06-09T06:16:51.915Z</time>
      </trkpt>
      <trkpt lat="47.01451" lon="0.07666">
        <ele>85.5</ele>
        <time>2023-06-09T06:17:14.420Z</time>
      </trkpt>
      <trkpt lat="47.01462" lon="0.07655">
        <ele>85.71</ele>
        <time>2023-06-09T06:17:36.927Z</time>
      </trkpt>
      <trkpt lat="47.01469" lon="0.07648">
        <ele>85.81</ele>
        <time>2023-06-09T06:17:59.435Z</time>
      </trkpt>
      <trkpt lat="47.01473" lon="0.07644">
        <ele>85.83</ele>
        <time>2023-06-09T06:18:21.944Z</time>
      </trkpt>
      <trkpt lat="47.01473" lon="0.07644">
        <ele>85.83</ele>
        <time>2023-06-09T06:18:44.453Z</time>
      </trkpt>
      <trkpt lat="47.01477" lon="0.07647">
        <ele>85.82</ele>
        <time>2023-06-09T06:19:06.963Z</time>
      </trkpt>
      <trkpt lat="47.01483" lon="0.07652">
        <ele>85.75</ele>
        <time>2023-06-09T06:19:29.474Z</time>
      </trkpt>
      <trkpt lat="47.01485" lon="0.07652">
        <ele>85.74</ele>
        <time>2023-06-09T06:19:51.985Z</time>
      </trkpt>
      <trkpt lat="47.01498" lon="0.07651">
        <ele>85.51</ele>
        <time>2023-06-09T06:20:14.498Z</time>
      </trkpt>
      <trkpt lat="47.01498" lon="0.07651">
        <ele>85.51</ele>
        <time>2023-06-09T06:20:37.011Z</time>
      </trkpt>
      <trkpt lat="47.01516" lon="0.07648">
        <ele>85.13</ele>
        <time>2023-06-09T06:20:59.527Z</time>
      </trkpt>
      <trkpt lat="47.01534" lon="0.07644">
        <ele>84.84</ele>
        <time>2023-06-09T06:21:22.046Z</time>
      </trkpt>
      <trkpt lat="47.01543" lon="0.07643">
        <ele>84.67</ele>
        <time>2023-06-09T06:21:44.566Z</time>
      </trkpt>
      <trkpt lat="47.01551" lon="0.07641">
        <ele>84.47</ele>
        <time>2023-06-09T06:22:07.088Z</time>
      </trkpt>
      <trkpt lat="47.01569" lon="0.07637">
        <ele>84.06</ele>
        <time>2023-06-09T06:22:29.613Z</time>
      </trkpt>
      <trkpt lat="47.01578" lon="0.07634">
        <ele>83.84</ele>
        <time>2023-06-09T06:22:52.139Z</time>
      </trkpt>
      <trkpt lat="47.01591" lon="0.07631">
        <ele>83.46</ele>
        <time>2023-06-09T06:23:14.667Z</time>
      </trkpt>
      <trkpt lat="47.016" lon="0.07629">
        <ele>83.25</ele>
        <time>2023-06-09T06:23:37.197Z</time>
      </trkpt>
      <trkpt lat="47.01618" lon="0.07625">
        <ele>82.94</ele>
        <time>2023-06-09T06:23:59.729Z</time>
      </trkpt>
      <trkpt lat="47.01628" lon="0.07622">
        <ele>82.77</ele>
        <time>2023-06-09T06:24:22.263Z</time>
      </trkpt>
      <trkpt lat="47.0164" lon="0.07618">
        <ele>82.59</ele>
        <time>2023-06-09T06:24:44.799Z</time>
      </trkpt>
      <trkpt lat="47.01648" lon="0.07615">
        <ele>82.49</ele>
        <time>2023-06-09T06:25:07.336Z</time>
      </trkpt>
      <trkpt lat="47.01653" lon="0.07613">
        <ele>82.46</ele>
        <time>2023-06-09T06:25:29.874Z</time>
      </trkpt>
      <trkpt lat="47.01666" lon="0.07608">
        <ele>82.42</ele>
        <time>2023-06-09T06:25:52.414Z</time>
      </trkpt>
      <trkpt lat="47.01674" lon="0.07605">
        <ele>82.35</ele>
        <time>2023-06-09T06:26:14.956Z</time>
      </trkpt>
      <trkpt lat="47.01683" lon="0.07602">
        <ele>82.2</ele>
        <time>2023-06-09T06:26:37.499Z</time>
      </trkpt>
      <trkpt lat="47.017" lon="0.07596">
        <ele>81.81</ele>
        <time>2023-06-09T06:27:00.045Z</time>
      </trkpt>
      <trkpt lat="47.01709" lon="0.07593">
        <ele>81.68</ele>
        <time>2023-06-09T06:27:22.593Z</time>
      </trkpt>
      <trkpt lat="47.01722" lon="0.07588">
        <ele>81.52</ele>
        <time>2023-06-09T06:27:45.143Z</time>
      </trkpt>
      <trkpt lat="47.01744" lon="0.0758">
        <ele>81.36</ele>
        <time>2023-06-09T06:28:07.696Z</time>
      </trkpt>
      <trkpt lat="47.01753" lon="0.07577">
        <ele>81.26</ele>
        <time>2023-06-09T06:28:30.251Z</time>
      </trkpt>
      <trkpt lat="47.01758" lon="0.07575">
        <ele>81.17</ele>
        <time>2023-06-09T06:28:52.807Z</time>
      </trkpt>
      <trkpt lat="47.01779" lon="0.07569">
        <ele>80.85</ele>
        <time>2023-06-09T06:29:15.366Z</time>
      </trkpt>
      <trkpt lat="47.01792" lon="0.07565">
        <ele>80.67</ele>
        <time>2023-06-09T06:29:37.927Z</time>
      </trkpt>
      <trkpt lat="47.01801" lon="0.07562">
        <ele>80.59</ele>
        <time>2023-06-09T06:30:00.490Z</time>
      </trkpt>
      <trkpt lat="47.01818" lon="0.07557">
        <ele>80.51</ele>
        <time>2023-06-09T06:30:23.055Z</time>
      </trkpt>
      <trkpt lat="47.01827" lon="0.07554">
        <ele>80.45</ele>
        <time>2023-06-09T06:30:45.622Z</time>
      </trkpt>
      <trkpt lat="47.01836" lon="0.07551">
        <ele>80.36</ele>
        <time>2023-06-09T06:31:08.190Z</time>
      </trkpt>
      <trkpt lat="47.01845" lon="0.07549">
        <ele>80.23</ele>
        <time>2023-06-09T06:31:30.760Z</time>
      </trkpt>
      <trkpt lat="47.01858" lon="0.07545">
        <ele>79.96</ele>
        <time>2023-06-09T06:31:53.332Z</time>
      </trkpt>
      <trkpt lat="47.0186" lon="0.07544">
        <ele>79.9</ele>
        <time>2023-06-09T06:32:15.904Z</time>
      </trkpt>
      <trkpt lat="47.01866" lon="0.0754">
        <ele>79.74</ele>
        <time>2023-06-09T06:32:38.477Z</time>
      </trkpt>
      <trkpt lat="47.0187" lon="0.07537">
        <ele>79.61</ele>
        <time>2023-06-09T06:33:01.051Z</time>
      </trkpt>
      <trkpt lat="47.01886" lon="0.07526">
        <ele>78.95</ele>
        <time>2023-06-09T06:33:23.628Z</time>
      </trkpt>
      <trkpt lat="47.01902" lon="0.07514">
        <ele>78.32</ele>
        <time>2023-06-09T06:33:46.208Z</time>
      </trkpt>
      <trkpt lat="47.01922" lon="0.075">
        <ele>77.47</ele>
        <time>2023-06-09T06:34:08.791Z</time>
      </trkpt>
      <trkpt lat="47.01927" lon="0.07497">
        <ele>77.28</ele>
        <time>2023-06-09T06:34:31.375Z</time>
      </trkpt>
      <trkpt lat="47.0194" lon="0.07494">
        <ele>76.83</ele>
        <time>2023-06-09T06:34:53.961Z</time>
      </trkpt>
      <trkpt lat="47.01948" lon="0.07491">
        <ele>76.59</ele>
        <time>2023-06-09T06:35:16.549Z</time>
      </trkpt>
      <trkpt lat="47.01956" lon="0.07489">
        <ele>76.47</ele>
        <time>2023-06-09T06:35:39.138Z</time>
      </trkpt>
      <trkpt lat="47.01966" lon="0.07485">
        <ele>76.33</ele>
        <time>2023-06-09T06:36:01.729Z</time>
      </trkpt>
      <trkpt lat="47.01974" lon="0.07482">
        <ele>76.23</ele>
        <time>2023-06-09T06:36:24.321Z</time>
      </trkpt>
      <trkpt lat="47.01996" lon="0.07473">
        <ele>76.07</ele>
        <time>2023-06-09T06:36:46.916Z</time>
      </trkpt>
      <trkpt lat="47.02008" lon="0.07468">
        <ele>75.99</ele>
        <time>2023-06-09T06:37:09.514Z</time>
      </trkpt>
      <trkpt lat="47.02021" lon="0.07461">
        <ele>75.92</ele>
        <time>2023-06-09T06:37:32.114Z</time>
      </trkpt>
      <trkpt lat="47.0203" lon="0.07457">
        <ele>75.89</ele>
        <time>2023-06-09T06:37:54.715Z</time>
      </trkpt>
      <trkpt lat="47.02038" lon="0.07453">
        <ele>75.89</ele>
        <time>2023-06-09T06:38:17.318Z</time>
      </trkpt>
      <trkpt lat="47.02046" lon="0.07449">
        <ele>75.92</ele>
        <time>2023-06-09T06:38:39.922Z</time>
      </trkpt>
      <trkpt lat="47.02084" lon="0.0743">
        <ele>76.14</ele>
        <time>2023-06-09T06:39:02.532Z</time>
      </trkpt>
      <trkpt lat="47.02105" lon="0.07419">
        <ele>76.36</ele>
        <time>2023-06-09T06:39:25.146Z</time>
      </trkpt>
      <trkpt lat="47.02122" lon="0.07411">
        <ele>76.59</ele>
        <time>2023-06-09T06:39:47.763Z</time>
      </trkpt>
      <trkpt lat="47.02133" lon="0.07405">
        <ele>76.81</ele>
        <time>2023-06-09T06:40:10.382Z</time>
      </trkpt>
      <trkpt lat="47.02135" lon="0.07404">
        <ele>76.85</ele>
        <time>2023-06-09T06:40:33.001Z</time>
      </trkpt>
      <trkpt lat="47.02143" lon="0.07401">
        <ele>77.06</ele>
        <time>2023-06-09T06:40:55.621Z</time>
      </trkpt>
      <trkpt lat="47.02152" lon="0.07397">
        <ele>77.3</ele>
        <time>2023-06-09T06:41:18.243Z</time>
      </trkpt>
      <trkpt lat="47.0216" lon="0.07394">
        <ele>77.56</ele>
        <time>2023-06-09T06:41:40.866Z</time>
      </trkpt>
      <trkpt lat="47.02195" lon="0.0738">
        <ele>78.67</ele>
        <time>2023-06-09T06:42:03.495Z</time>
      </trkpt>
      <trkpt lat="47.02203" lon="0.07377">
        <ele>78.97</ele>
        <time>2023-06-09T06:42:26.125Z</time>
      </trkpt>
      <trkpt lat="47.0221" lon="0.07374">
        <ele>79.22</ele>
        <time>2023-06-09T06:42:48.756Z</time>
      </trkpt>
      <trkpt lat="47.02212" lon="0.07373">
        <ele>79.3</ele>
        <time>2023-06-09T06:43:11.388Z</time>
      </trkpt>
      <trkpt lat="47.0222" lon="0.0737">
        <ele>79.68</ele>
        <time>2023-06-09T06:43:34.021Z</time>
      </trkpt>
      <trkpt lat="47.02229" lon="0.07367">
        <ele>80.1</ele>
        <time>2023-06-09T06:43:56.656Z</time>
      </trkpt>
      <trkpt lat="47.02251" lon="0.07359">
        <ele>81.2</ele>
        <time>2023-06-09T06:44:19.294Z</time>
      </trkpt>
      <trkpt lat="47.02259" lon="0.07356">
        <ele>81.36</ele>
        <time>2023-06-09T06:44:41.934Z</time>
      </trkpt>
      <trkpt lat="47.02277" lon="0.0735">
        <ele>81.63</ele>
        <time>2023-06-09T06:45:04.577Z</time>
      </trkpt>
      <trkpt lat="47.02277" lon="0.0735">
        <ele>81.63</ele>
        <time>2023-06-09T06:45:27.220Z</time>
      </trkpt>
      <trkpt lat="47.0229" lon="0.07348">
        <ele>81.9</ele>
        <time>2023-06-09T06:45:49.865Z</time>
      </trkpt>
      <trkpt lat="47.02304" lon="0.07346">
        <ele>82.21</ele>
        <time>2023-06-09T06:46:12.512Z</time>
      </trkpt>
      <trkpt lat="47.02324" lon="0.07346">
        <ele>82.65</ele>
        <time>2023-06-09T06:46:35.162Z</time>
      </trkpt>
      <trkpt lat="47.02342" lon="0.07349">
        <ele>83.06</ele>
        <time>2023-06-09T06:46:57.815Z</time>
      </trkpt>
      <trkpt lat="47.02351" lon="0.07351">
        <ele>83.28</ele>
        <time>2023-06-09T06:47:20.469Z</time>
      </trkpt>
      <trkpt lat="47.02373" lon="0.07354">
        <ele>83.87</ele>
        <time>2023-06-09T06:47:43.127Z</time>
      </trkpt>
      <trkpt lat="47.02396" lon="0.07358">
        <ele>84.41</ele>
        <time>2023-06-09T06:48:05.789Z</time>
      </trkpt>
      <trkpt lat="47.024" lon="0.07358">
        <ele>84.5</ele>
        <time>2023-06-09T06:48:28.451Z</time>
      </trkpt>
      <trkpt lat="47.02414" lon="0.07358">
        <ele>84.78</ele>
        <time>2023-06-09T06:48:51.116Z</time>
      </trkpt>
      <trkpt lat="47.02422" lon="0.07356">
        <ele>84.94</ele>
        <time>2023-06-09T06:49:13.782Z</time>
      </trkpt>
      <trkpt lat="47.02438" lon="0.07353">
        <ele>85.29</ele>
        <time>2023-06-09T06:49:36.450Z</time>
      </trkpt>
      <trkpt lat="47.02443" lon="0.07351">
        <ele>85.42</ele>
        <time>2023-06-09T06:49:59.119Z</time>
      </trkpt>
      <trkpt lat="47.0246" lon="0.07344">
        <ele>85.76</ele>
        <time>2023-06-09T06:50:21.791Z</time>
      </trkpt>
      <trkpt lat="47.02489" lon="0.07327">
        <ele>86.39</ele>
        <time>2023-06-09T06:50:44.468Z</time>
      </trkpt>
      <trkpt lat="47.02498" lon="0.07322">
        <ele>86.29</ele>
        <time>2023-06-09T06:51:07.147Z</time>
      </trkpt>
      <trkpt lat="47.02502" lon="0.0732">
        <ele>86.21</ele>
        <time>2023-06-09T06:51:29.826Z</time>
      </trkpt>
      <trkpt lat="47.0251" lon="0.07315">
        <ele>86</ele>
        <time>2023-06-09T06:51:52.507Z</time>
      </trkpt>
      <trkpt lat="47.02515" lon="0.07312">
        <ele>85.83</ele>
        <time>2023-06-09T06:52:15.189Z</time>
      </trkpt>
      <trkpt lat="47.02519" lon="0.07322">
        <ele>85.59</ele>
        <time>2023-06-09T06:52:37.872Z</time>
      </trkpt>
      <trkpt lat="47.02519" lon="0.07322">
        <ele>85.59</ele>
        <time>2023-06-09T06:53:00.555Z</time>
      </trkpt>
      <trkpt lat="47.02534" lon="0.07337">
        <ele>84.97</ele>
        <time>2023-06-09T06:53:23.241Z</time>
      </trkpt>
      <trkpt lat="47.02541" lon="0.07345">
        <ele>84.6</ele>
        <time>2023-06-09T06:53:45.928Z</time>
      </trkpt>
      <trkpt lat="47.02544" lon="0.07349">
        <ele>84.39</ele>
        <time>2023-06-09T06:54:08.616Z</time>
      </trkpt>
      <trkpt lat="47.02552" lon="0.07357">
        <ele>83.9</ele>
        <time>2023-06-09T06:54:31.305Z</time>
      </trkpt>
      <trkpt lat="47.02566" lon="0.07372">
        <ele>82.86</ele>
        <time>2023-06-09T06:54:53.997Z</time>
      </trkpt>
      <trkpt lat="47.02573" lon="0.0738">
        <ele>82.41</ele>
        <time>2023-06-09T06:55:16.691Z</time>
      </trkpt>
      <trkpt lat="47.0258" lon="0.07387">
        <ele>82</ele>
        <time>2023-06-09T06:55:39.386Z</time>
      </trkpt>
      <trkpt lat="47.02591" lon="0.07399">
        <ele>81.44</ele>
        <time>2023-06-09T06:56:02.083Z</time>
      </trkpt>
      <trkpt lat="47.02599" lon="0.07407">
        <ele>81.11</ele>
        <time>2023-06-09T06:56:24.782Z</time>
      </trkpt>
      <trkpt lat="47.02606" lon="0.07414">
        <ele>80.84</ele>
        <time>2023-06-09T06:56:47.482Z</time>
      </trkpt>
      <trkpt lat="47.02613" lon="0.07422">
        <ele>80.62</ele>
        <time>2023-06-09T06:57:10.183Z</time>
      </trkpt>
      <trkpt lat="47.02631" lon="0.07441">
        <ele>80.21</ele>
        <time>2023-06-09T06:57:32.888Z</time>
      </trkpt>
      <trkpt lat="47.02649" lon="0.07461">
        <ele>79.75</ele>
        <time>2023-06-09T06:57:55.597Z</time>
      </trkpt>
      <trkpt lat="47.02653" lon="0.07464">
        <ele>79.68</ele>
        <time>2023-06-09T06:58:18.306Z</time>
      </trkpt>
      <trkpt lat="47.0266" lon="0.07472">
        <ele>79.58</ele>
        <time>2023-06-09T06:58:41.017Z</time>
      </trkpt>
      <trkpt lat="47.02674" lon="0.07487">
        <ele>79.52</ele>
        <time>2023-06-09T06:59:03.731Z</time>
      </trkpt>
      <trkpt lat="47.027" lon="0.07514">
        <ele>79.47</ele>
        <time>2023-06-09T06:59:26.450Z</time>
      </trkpt>
      <trkpt lat="47.02707" lon="0.07522">
        <ele>79.5</ele>
        <time>2023-06-09T06:59:49.170Z</time>
      </trkpt>
      <trkpt lat="47.02729" lon="0.07545">
        <ele>79.69</ele>
        <time>2023-06-09T07:00:11.894Z</time>
      </trkpt>
      <trkpt lat="47.02739" lon="0.07557">
        <ele>79.55</ele>
        <time>2023-06-09T07:00:34.620Z</time>
      </trkpt>
      <trkpt lat="47.02747" lon="0.07564">
        <ele>79.5</ele>
        <time>2023-06-09T07:00:57.348Z</time>
      </trkpt>
      <trkpt lat="47.02751" lon="0.07569">
        <ele>79.49</ele>
        <time>2023-06-09T07:01:20.077Z</time>
      </trkpt>
      <trkpt lat="47.02766" lon="0.07558">
        <ele>79.47</ele>
        <time>2023-06-09T07:01:42.808Z</time>
      </trkpt>
      <trkpt lat="47.0279" lon="0.07539">
        <ele>79.38</ele>
        <time>2023-06-09T07:02:05.544Z</time>
      </trkpt>
      <trkpt lat="47.02802" lon="0.0753">
        <ele>79.35</ele>
        <time>2023-06-09T07:02:28.282Z</time>
      </trkpt>
      <trkpt lat="47.02809" lon="0.07524">
        <ele>79.34</ele>
        <time>2023-06-09T07:02:51.021Z</time>
      </trkpt>
      <trkpt lat="47.02817" lon="0.07517">
        <ele>79.29</ele>
        <time>2023-06-09T07:03:13.762Z</time>
      </trkpt>
      <trkpt lat="47.02825" lon="0.0751">
        <ele>79.2</ele>
        <time>2023-06-09T07:03:36.504Z</time>
      </trkpt>
      <trkpt lat="47.02842" lon="0.07495">
        <ele>78.93</ele>
        <time>2023-06-09T07:03:59.249Z</time>
      </trkpt>
      <trkpt lat="47.02854" lon="0.07482">
        <ele>78.73</ele>
        <time>2023-06-09T07:04:21.997Z</time>
      </trkpt>
      <trkpt lat="47.0288" lon="0.07455">
        <ele>78.46</ele>
        <time>2023-06-09T07:04:44.750Z</time>
      </trkpt>
      <trkpt lat="47.02887" lon="0.07447">
        <ele>78.36</ele>
        <time>2023-06-09T07:05:07.504Z</time>
      </trkpt>
      <trkpt lat="47.02901" lon="0.07431">
        <ele>78.12</ele>
        <time>2023-06-09T07:05:30.261Z</time>
      </trkpt>
      <trkpt lat="47.02919" lon="0.07412">
        <ele>77.75</ele>
        <time>2023-06-09T07:05:53.022Z</time>
      </trkpt>
      <trkpt lat="47.02923" lon="0.07408">
        <ele>77.68</ele>
        <time>2023-06-09T07:06:15.784Z</time>
      </trkpt>
      <trkpt lat="47.02926" lon="0.07404">
        <ele>77.63</ele>
        <time>2023-06-09T07:06:38.546Z</time>
      </trkpt>
      <trkpt lat="47.02956" lon="0.07364">
        <ele>77.14</ele>
        <time>2023-06-09T07:07:01.315Z</time>
      </trkpt>
      <trkpt lat="47.02969" lon="0.07346">
        <ele>76.96</ele>
        <time>2023-06-09T07:07:24.087Z</time>
      </trkpt>
      <trkpt lat="47.02975" lon="0.07337">
        <ele>76.82</ele>
        <time>2023-06-09T07:07:46.860Z</time>
      </trkpt>
      <trkpt lat="47.02988" lon="0.0732">
        <ele>76.46</ele>
        <time>2023-06-09T07:08:09.636Z</time>
      </trkpt>
      <trkpt lat="47.02995" lon="0.07311">
        <ele>76.3</ele>
        <time>2023-06-09T07:08:32.413Z</time>
      </trkpt>
      <trkpt lat="47.02995" lon="0.07311">
        <ele>76.3</ele>
        <time>2023-06-09T07:08:55.190Z</time>
      </trkpt>
      <trkpt lat="47.03004" lon="0.07297">
        <ele>76.12</ele>
        <time>2023-06-09T07:09:17.969Z</time>
      </trkpt>
      <trkpt lat="47.0301" lon="0.07287">
        <ele>76.03</ele>
        <time>2023-06-09T07:09:40.750Z</time>
      </trkpt>
      <trkpt lat="47.03023" lon="0.07269">
        <ele>75.9</ele>
        <time>2023-06-09T07:10:03.534Z</time>
      </trkpt>
      <trkpt lat="47.03035" lon="0.0725">
        <ele>75.82</ele>
        <time>2023-06-09T07:10:26.321Z</time>
      </trkpt>
      <trkpt lat="47.03045" lon="0.07235">
        <ele>75.84</ele>
        <time>2023-06-09T07:10:49.110Z</time>
      </trkpt>
      <trkpt lat="47.03054" lon="0.07221">
        <ele>75.95</ele>
        <time>2023-06-09T07:11:11.901Z</time>
      </trkpt>
      <trkpt lat="47.03058" lon="0.07215">
        <ele>75.92</ele>
        <time>2023-06-09T07:11:34.693Z</time>
      </trkpt>
      <trkpt lat="47.03067" lon="0.07201">
        <ele>75.59</ele>
        <time>2023-06-09T07:11:57.487Z</time>
      </trkpt>
      <trkpt lat="47.03073" lon="0.07192">
        <ele>75.33</ele>
        <time>2023-06-09T07:12:20.282Z</time>
      </trkpt>
      <trkpt lat="47.03076" lon="0.072">
        <ele>75.14</ele>
        <time>2023-06-09T07:12:43.078Z</time>
      </trkpt>
      <trkpt lat="47.03079" lon="0.07199">
        <ele>75.05</ele>
        <time>2023-06-09T07:13:05.875Z</time>
      </trkpt>
      <trkpt lat="47.03091" lon="0.07195">
        <ele>74.74</ele>
        <time>2023-06-09T07:13:28.674Z</time>
      </trkpt>
      <trkpt lat="47.03092" lon="0.07195">
        <ele>74.72</ele>
        <time>2023-06-09T07:13:51.473Z</time>
      </trkpt>
      <trkpt lat="47.0311" lon="0.07198">
        <ele>74.33</ele>
        <time>2023-06-09T07:14:14.275Z</time>
      </trkpt>
      <trkpt lat="47.03132" lon="0.07206">
        <ele>73.85</ele>
        <time>2023-06-09T07:14:37.080Z</time>
      </trkpt>
      <trkpt lat="47.03137" lon="0.07208">
        <ele>73.74</ele>
        <time>2023-06-09T07:14:59.886Z</time>
      </trkpt>
      <trkpt lat="47.0314" lon="0.0721">
        <ele>73.68</ele>
        <time>2023-06-09T07:15:22.693Z</time>
      </trkpt>
      <trkpt lat="47.03153" lon="0.07216">
        <ele>73.45</ele>
        <time>2023-06-09T07:15:45.502Z</time>
      </trkpt>
      <trkpt lat="47.03161" lon="0.0722">
        <ele>73.32</ele>
        <time>2023-06-09T07:16:08.312Z</time>
      </trkpt>
      <trkpt lat="47.03181" lon="0.07236">
        <ele>72.97</ele>
        <time>2023-06-09T07:16:31.126Z</time>
      </trkpt>
      <trkpt lat="47.03187" lon="0.07241">
        <ele>72.84</ele>
        <time>2023-06-09T07:16:53.941Z</time>
      </trkpt>
      <trkpt lat="47.03193" lon="0.07245">
        <ele>72.72</ele>
        <time>2023-06-09T07:17:16.757Z</time>
      </trkpt>
      <trkpt lat="47.03206" lon="0.07252">
        <ele>72.4</ele>
        <time>2023-06-09T07:17:39.575Z</time>
      </trkpt>
      <trkpt lat="47.0321" lon="0.07255">
        <ele>72.27</ele>
        <time>2023-06-09T07:18:02.394Z</time>
      </trkpt>
      <trkpt lat="47.03233" lon="0.07263">
        <ele>71.63</ele>
        <time>2023-06-09T07:18:25.217Z</time>
      </trkpt>
      <trkpt lat="47.03245" lon="0.07265">
        <ele>71.32</ele>
        <time>2023-06-09T07:18:48.042Z</time>
      </trkpt>
      <trkpt lat="47.03253" lon="0.07267">
        <ele>71.12</ele>
        <time>2023-06-09T07:19:10.868Z</time>
      </trkpt>
      <trkpt lat="47.03254" lon="0.07267">
        <ele>71.12</ele>
        <time>2023-06-09T07:19:33.694Z</time>
      </trkpt>
      <trkpt lat="47.03267" lon="0.07267">
        <ele>70.87</ele>
        <time>2023-06-09T07:19:56.522Z</time>
      </trkpt>
      <trkpt lat="47.03276" lon="0.07266">
        <ele>70.74</ele>
        <time>2023-06-09T07:20:19.352Z</time>
      </trkpt>
      <trkpt lat="47.03289" lon="0.07266">
        <ele>70.59</ele>
        <time>2023-06-09T07:20:42.184Z</time>
      </trkpt>
      <trkpt lat="47.03298" lon="0.07266">
        <ele>70.52</ele>
        <time>2023-06-09T07:21:05.017Z</time>
      </trkpt>
      <trkpt lat="47.03316" lon="0.07262">
        <ele>70.39</ele>
        <time>2023-06-09T07:21:27.853Z</time>
      </trkpt>
      <trkpt lat="47.03319" lon="0.07261">
        <ele>70.36</ele>
        <time>2023-06-09T07:21:50.690Z</time>
      </trkpt>
      <trkpt lat="47.03334" lon="0.07253">
        <ele>70.22</ele>
        <time>2023-06-09T07:22:13.529Z</time>
      </trkpt>
      <trkpt lat="47.03334" lon="0.07253">
        <ele>70.22</ele>
        <time>2023-06-09T07:22:36.368Z</time>
      </trkpt>
      <trkpt lat="47.03352" lon="0.07236">
        <ele>70.08</ele>
        <time>2023-06-09T07:22:59.211Z</time>
      </trkpt>
      <trkpt lat="47.03363" lon="0.07225">
        <ele>69.96</ele>
        <time>2023-06-09T07:23:22.056Z</time>
      </trkpt>
      <trkpt lat="47.03371" lon="0.07218">
        <ele>69.84</ele>
        <time>2023-06-09T07:23:44.902Z</time>
      </trkpt>
      <trkpt lat="47.03382" lon="0.07207">
        <ele>69.62</ele>
        <time>2023-06-09T07:24:07.750Z</time>
      </trkpt>
      <trkpt lat="47.03388" lon="0.07201">
        <ele>69.53</ele>
        <time>2023-06-09T07:24:30.600Z</time>
      </trkpt>
      <trkpt lat="47.03389" lon="0.072">
        <ele>69.51</ele>
        <time>2023-06-09T07:24:53.450Z</time>
      </trkpt>
      <trkpt lat="47.03412" lon="0.0718">
        <ele>69.21</ele>
        <time>2023-06-09T07:25:16.304Z</time>
      </trkpt>
      <trkpt lat="47.03425" lon="0.07172">
        <ele>69.06</ele>
        <time>2023-06-09T07:25:39.160Z</time>
      </trkpt>
      <trkpt lat="47.03431" lon="0.07169">
        <ele>69</ele>
        <time>2023-06-09T07:26:02.017Z</time>
      </trkpt>
      <trkpt lat="47.03451" lon="0.0716">
        <ele>68.81</ele>
        <time>2023-06-09T07:26:24.878Z</time>
      </trkpt>
      <trkpt lat="47.03464" lon="0.07154">
        <ele>68.61</ele>
        <time>2023-06-09T07:26:47.741Z</time>
      </trkpt>
      <trkpt lat="47.03489" lon="0.07143">
        <ele>68.14</ele>
        <time>2023-06-09T07:27:10.608Z</time>
      </trkpt>
      <trkpt lat="47.03502" lon="0.07137">
        <ele>67.94</ele>
        <time>2023-06-09T07:27:33.477Z</time>
      </trkpt>
      <trkpt lat="47.0351" lon="0.07134">
        <ele>67.76</ele>
        <time>2023-06-09T07:27:56.348Z</time>
      </trkpt>
      <trkpt lat="47.03516" lon="0.07131">
        <ele>67.61</ele>
        <time>2023-06-09T07:28:19.220Z</time>
      </trkpt>
      <trkpt lat="47.03519" lon="0.0713">
        <ele>67.55</ele>
        <time>2023-06-09T07:28:42.092Z</time>
      </trkpt>
      <trkpt lat="47.03539" lon="0.07119">
        <ele>66.97</ele>
        <time>2023-06-09T07:29:04.968Z</time>
      </trkpt>
      <trkpt lat="47.03548" lon="0.07114">
        <ele>66.78</ele>
        <time>2023-06-09T07:29:27.845Z</time>
      </trkpt>
      <trkpt lat="47.0356" lon="0.07108">
        <ele>66.6</ele>
        <time>2023-06-09T07:29:50.724Z</time>
      </trkpt>
      <trkpt lat="47.03573" lon="0.07101">
        <ele>66.51</ele>
        <time>2023-06-09T07:30:13.605Z</time>
      </trkpt>
      <trkpt lat="47.03585" lon="0.07095">
        <ele>66.48</ele>
        <time>2023-06-09T07:30:36.488Z</time>
      </trkpt>
      <trkpt lat="47.03603" lon="0.07085">
        <ele>66.49</ele>
        <time>2023-06-09T07:30:59.374Z</time>
      </trkpt>
      <trkpt lat="47.03623" lon="0.07075">
        <ele>66.53</ele>
        <time>2023-06-09T07:31:22.264Z</time>
      </trkpt>
      <trkpt lat="47.03632" lon="0.0707">
        <ele>66.56</ele>
        <time>2023-06-09T07:31:45.155Z</time>
      </trkpt>
      <trkpt lat="47.03657" lon="0.07058">
        <ele>66.71</ele>
        <time>2023-06-09T07:32:08.051Z</time>
      </trkpt>
      <trkpt lat="47.03665" lon="0.07054">
        <ele>66.73</ele>
        <time>2023-06-09T07:32:30.948Z</time>
      </trkpt>
      <trkpt lat="47.0367" lon="0.07052">
        <ele>66.72</ele>
        <time>2023-06-09T07:32:53.846Z</time>
      </trkpt>
      <trkpt lat="47.03678" lon="0.07048">
        <ele>66.67</ele>
        <time>2023-06-09T07:33:16.745Z</time>
      </trkpt>
      <trkpt lat="47.03699" lon="0.07037">
        <ele>66.45</ele>
        <time>2023-06-09T07:33:39.648Z</time>
      </trkpt>
      <trkpt lat="47.03711" lon="0.07031">
        <ele>66.41</ele>
        <time>2023-06-09T07:34:02.553Z</time>
      </trkpt>
      <trkpt lat="47.03719" lon="0.07027">
        <ele>66.43</ele>
        <time>2023-06-09T07:34:25.459Z</time>
      </trkpt>
      <trkpt lat="47.03728" lon="0.07023">
        <ele>66.49</ele>
        <time>2023-06-09T07:34:48.366Z</time>
      </trkpt>
      <trkpt lat="47.03748" lon="0.07012">
        <ele>66.69</ele>
        <time>2023-06-09T07:35:11.277Z</time>
      </trkpt>
      <trkpt lat="47.03757" lon="0.07008">
        <ele>66.71</ele>
        <time>2023-06-09T07:35:34.189Z</time>
      </trkpt>
      <trkpt lat="47.03763" lon="0.07005">
        <ele>66.73</ele>
        <time>2023-06-09T07:35:57.102Z</time>
      </trkpt>
      <trkpt lat="47.03773" lon="0.06999">
        <ele>66.79</ele>
        <time>2023-06-09T07:36:20.017Z</time>
      </trkpt>
      <trkpt lat="47.03794" lon="0.06986">
        <ele>66.86</ele>
        <time>2023-06-09T07:36:42.936Z</time>
      </trkpt>
      <trkpt lat="47.03803" lon="0.06981">
        <ele>66.82</ele>
        <time>2023-06-09T07:37:05.856Z</time>
      </trkpt>
      <trkpt lat="47.03811" lon="0.06978">
        <ele>66.8</ele>
        <time>2023-06-09T07:37:28.778Z</time>
      </trkpt>
      <trkpt lat="47.03819" lon="0.06974">
        <ele>66.82</ele>
        <time>2023-06-09T07:37:51.701Z</time>
      </trkpt>
      <trkpt lat="47.03823" lon="0.06972">
        <ele>66.8</ele>
        <time>2023-06-09T07:38:14.625Z</time>
      </trkpt>
      <trkpt lat="47.03828" lon="0.0697">
        <ele>66.75</ele>
        <time>2023-06-09T07:38:37.549Z</time>
      </trkpt>
      <trkpt lat="47.03832" lon="0.06968">
        <ele>66.65</ele>
        <time>2023-06-09T07:39:00.474Z</time>
      </trkpt>
      <trkpt lat="47.03849" lon="0.0696">
        <ele>66.1</ele>
        <time>2023-06-09T07:39:23.402Z</time>
      </trkpt>
      <trkpt lat="47.03853" lon="0.06958">
        <ele>66</ele>
        <time>2023-06-09T07:39:46.331Z</time>
      </trkpt>
      <trkpt lat="47.03858" lon="0.06956">
        <ele>65.93</ele>
        <time>2023-06-09T07:40:09.261Z</time>
      </trkpt>
      <trkpt lat="47.03858" lon="0.06956">
        <ele>65.93</ele>
        <time>2023-06-09T07:40:32.191Z</time>
      </trkpt>
      <trkpt lat="47.03862" lon="0.06955">
        <ele>65.91</ele>
        <time>2023-06-09T07:40:55.121Z</time>
      </trkpt>
      <trkpt lat="47.03875" lon="0.06953">
        <ele>65.9</ele>
        <time>2023-06-09T07:41:18.053Z</time>
      </trkpt>
      <trkpt lat="47.03875" lon="0.06953">
        <ele>65.9</ele>
        <time>2023-06-09T07:41:40.985Z</time>
      </trkpt>
      <trkpt lat="47.03901" lon="0.06954">
        <ele>65.56</ele>
        <time>2023-06-09T07:42:03.922Z</time>
      </trkpt>
      <trkpt lat="47.0391" lon="0.06954">
        <ele>65.41</ele>
        <time>2023-06-09T07:42:26.860Z</time>
      </trkpt>
      <trkpt lat="47.03937" lon="0.06955">
        <ele>64.83</ele>
        <time>2023-06-09T07:42:49.802Z</time>
      </trkpt>
      <trkpt lat="47.03946" lon="0.06956">
        <ele>64.6</ele>
        <time>2023-06-09T07:43:12.746Z</time>
      </trkpt>
      <trkpt lat="47.03964" lon="0.06956">
        <ele>64.07</ele>
        <time>2023-06-09T07:43:35.692Z</time>
      </trkpt>
      <trkpt lat="47.03981" lon="0.06957">
        <ele>63.68</ele>
        <time>2023-06-09T07:43:58.641Z</time>
      </trkpt>
      <trkpt lat="47.03984" lon="0.06957">
        <ele>63.6</ele>
        <time>2023-06-09T07:44:21.591Z</time>
      </trkpt>
      <trkpt lat="47.03986" lon="0.06957">
        <ele>63.55</ele>
        <time>2023-06-09T07:44:44.541Z</time>
      </trkpt>
      <trkpt lat="47.04003" lon="0.06962">
        <ele>62.93</ele>
        <time>2023-06-09T07:45:07.494Z</time>
      </trkpt>
      <trkpt lat="47.04016" lon="0.06965">
        <ele>62.54</ele>
        <time>2023-06-09T07:45:30.449Z</time>
      </trkpt>
      <trkpt lat="47.04025" lon="0.06967">
        <ele>62.34</ele>
        <time>2023-06-09T07:45:53.405Z</time>
      </trkpt>
      <trkpt lat="47.04047" lon="0.06972">
        <ele>61.99</ele>
        <time>2023-06-09T07:46:16.365Z</time>
      </trkpt>
      <trkpt lat="47.0406" lon="0.06975">
        <ele>61.87</ele>
        <time>2023-06-09T07:46:39.327Z</time>
      </trkpt>
      <trkpt lat="47.04074" lon="0.06979">
        <ele>61.67</ele>
        <time>2023-06-09T07:47:02.291Z</time>
      </trkpt>
      <trkpt lat="47.04076" lon="0.06979">
        <ele>61.64</ele>
        <time>2023-06-09T07:47:25.256Z</time>
      </trkpt>
      <trkpt lat="47.04082" lon="0.0698">
        <ele>61.68</ele>
        <time>2023-06-09T07:47:48.222Z</time>
      </trkpt>
      <trkpt lat="47.04087" lon="0.06982">
        <ele>61.79</ele>
        <time>2023-06-09T07:48:11.188Z</time>
      </trkpt>
      <trkpt lat="47.04095" lon="0.06983">
        <ele>61.69</ele>
        <time>2023-06-09T07:48:34.156Z</time>
      </trkpt>
      <trkpt lat="47.04109" lon="0.06986">
        <ele>61.58</ele>
        <time>2023-06-09T07:48:57.126Z</time>
      </trkpt>
      <trkpt lat="47.04109" lon="0.06986">
        <ele>61.58</ele>
        <time>2023-06-09T07:49:20.096Z</time>
      </trkpt>
      <trkpt lat="47.04113" lon="0.06954">
        <ele>61.44</ele>
        <time>2023-06-09T07:49:43.070Z</time>
      </trkpt>
      <trkpt lat="47.04121" lon="0.06892">
        <ele>61.21</ele>
        <time>2023-06-09T07:50:06.050Z</time>
      </trkpt>
      <trkpt lat="47.04121" lon="0.0689">
        <ele>61.21</ele>
        <time>2023-06-09T07:50:29.031Z</time>
      </trkpt>
      <trkpt lat="47.04124" lon="0.06877">
        <ele>61.14</ele>
        <time>2023-06-09T07:50:52.013Z</time>
      </trkpt>
      <trkpt lat="47.04126" lon="0.06865">
        <ele>61.05</ele>
        <time>2023-06-09T07:51:14.997Z</time>
      </trkpt>
      <trkpt lat="47.04132" lon="0.06837">
        <ele>60.8</ele>
        <time>2023-06-09T07:51:37.984Z</time>
      </trkpt>
      <trkpt lat="47.04134" lon="0.06827">
        <ele>60.72</ele>
        <time>2023-06-09T07:52:00.972Z</time>
      </trkpt>
      <trkpt lat="47.04147" lon="0.06778">
        <ele>60.12</ele>
        <time>2023-06-09T07:52:23.966Z</time>
      </trkpt>
      <trkpt lat="47.0415" lon="0.06765">
        <ele>60</ele>
        <time>2023-06-09T07:52:46.961Z</time>
      </trkpt>
      <trkpt lat="47.04157" lon="0.06736">
        <ele>59.75</ele>
        <time>2023-06-09T07:53:09.960Z</time>
      </trkpt>
      <trkpt lat="47.04158" lon="0.06735">
        <ele>59.74</ele>
        <time>2023-06-09T07:53:32.959Z</time>
      </trkpt>
      <trkpt lat="47.04161" lon="0.06728">
        <ele>59.64</ele>
        <time>2023-06-09T07:53:55.959Z</time>
      </trkpt>
      <trkpt lat="47.04167" lon="0.06722">
        <ele>59.52</ele>
        <time>2023-06-09T07:54:18.960Z</time>
      </trkpt>
      <trkpt lat="47.04172" lon="0.06719">
        <ele>59.44</ele>
        <time>2023-06-09T07:54:41.962Z</time>
      </trkpt>
      <trkpt lat="47.0418" lon="0.06718">
        <ele>59.31</ele>
        <time>2023-06-09T07:55:04.965Z</time>
      </trkpt>
      <trkpt lat="47.04184" lon="0.06718">
        <ele>59.25</ele>
        <time>2023-06-09T07:55:27.969Z</time>
      </trkpt>
      <trkpt lat="47.04187" lon="0.06712">
        <ele>59.17</ele>
        <time>2023-06-09T07:55:50.973Z</time>
      </trkpt>
      <trkpt lat="47.04191" lon="0.06686">
        <ele>58.91</ele>
        <time>2023-06-09T07:56:13.980Z</time>
      </trkpt>
      <trkpt lat="47.04197" lon="0.06641">
        <ele>58.58</ele>
        <time>2023-06-09T07:56:36.992Z</time>
      </trkpt>
      <trkpt lat="47.04199" lon="0.06628">
        <ele>58.46</ele>
        <time>2023-06-09T07:57:00.006Z</time>
      </trkpt>
      <trkpt lat="47.04201" lon="0.06615">
        <ele>58.28</ele>
        <time>2023-06-09T07:57:23.021Z</time>
      </trkpt>
      <trkpt lat="47.04202" lon="0.06609">
        <ele>58.17</ele>
        <time>2023-06-09T07:57:46.037Z</time>
      </trkpt>
      <trkpt lat="47.04203" lon="0.06596">
        <ele>57.9</ele>
        <time>2023-06-09T07:58:09.054Z</time>
      </trkpt>
      <trkpt lat="47.04212" lon="0.06536">
        <ele>56.32</ele>
        <time>2023-06-09T07:58:32.078Z</time>
      </trkpt>
      <trkpt lat="47.04212" lon="0.06532">
        <ele>56.22</ele>
        <time>2023-06-09T07:58:55.102Z</time>
      </trkpt>
      <trkpt lat="47.04216" lon="0.065">
        <ele>55.34</ele>
        <time>2023-06-09T07:59:18.130Z</time>
      </trkpt>
      <trkpt lat="47.04218" lon="0.06474">
        <ele>54.72</ele>
        <time>2023-06-09T07:59:41.161Z</time>
      </trkpt>
      <trkpt lat="47.0422" lon="0.0645">
        <ele>54.68</ele>
        <time>2023-06-09T08:00:04.195Z</time>
      </trkpt>
      <trkpt lat="47.04222" lon="0.06434">
        <ele>54.7</ele>
        <time>2023-06-09T08:00:27.230Z</time>
      </trkpt>
      <trkpt lat="47.04227" lon="0.06436">
        <ele>54.71</ele>
        <time>2023-06-09T08:00:50.266Z</time>
      </trkpt>
      <trkpt lat="47.04273" lon="0.06459">
        <ele>54.11</ele>
        <time>2023-06-09T08:01:13.310Z</time>
      </trkpt>
      <trkpt lat="47.04294" lon="0.0647">
        <ele>53.88</ele>
        <time>2023-06-09T08:01:36.357Z</time>
      </trkpt>
      <trkpt lat="47.04328" lon="0.06487">
        <ele>53.44</ele>
        <time>2023-06-09T08:01:59.410Z</time>
      </trkpt>
      <trkpt lat="47.04353" lon="0.06494">
        <ele>53.13</ele>
        <time>2023-06-09T08:02:22.467Z</time>
      </trkpt>
      <trkpt lat="47.04366" lon="0.06498">
        <ele>53.01</ele>
        <time>2023-06-09T08:02:45.526Z</time>
      </trkpt>
      <trkpt lat="47.04385" lon="0.065">
        <ele>52.84</ele>
        <time>2023-06-09T08:03:08.589Z</time>
      </trkpt>
      <trkpt lat="47.04385" lon="0.065">
        <ele>52.84</ele>
        <time>2023-06-09T08:03:31.652Z</time>
      </trkpt>
      <trkpt lat="47.04406" lon="0.065">
        <ele>52.7</ele>
        <time>2023-06-09T08:03:54.718Z</time>
      </trkpt>
      <trkpt lat="47.04409" lon="0.065">
        <ele>52.67</ele>
        <time>2023-06-09T08:04:17.784Z</time>
      </trkpt>
      <trkpt lat="47.04447" lon="0.06495">
        <ele>52.38</ele>
        <time>2023-06-09T08:04:40.856Z</time>
      </trkpt>
      <trkpt lat="47.04451" lon="0.06495">
        <ele>52.36</ele>
        <time>2023-06-09T08:05:03.929Z</time>
      </trkpt>
      <trkpt lat="47.04473" lon="0.06498">
        <ele>52.09</ele>
        <time>2023-06-09T08:05:27.006Z</time>
      </trkpt>
      <trkpt lat="47.04486" lon="0.06499">
        <ele>51.98</ele>
        <time>2023-06-09T08:05:50.085Z</time>
      </trkpt>
      <trkpt lat="47.04486" lon="0.06499">
        <ele>51.98</ele>
        <time>2023-06-09T08:06:13.164Z</time>
      </trkpt>
      <trkpt lat="47.04495" lon="0.06496">
        <ele>51.94</ele>
        <time>2023-06-09T08:06:36.244Z</time>
      </trkpt>
      <trkpt lat="47.04504" lon="0.06492">
        <ele>51.96</ele>
        <time>2023-06-09T08:06:59.326Z</time>
      </trkpt>
      <trkpt lat="47.04517" lon="0.06487">
        <ele>52.07</ele>
        <time>2023-06-09T08:07:22.410Z</time>
      </trkpt>
      <trkpt lat="47.04525" lon="0.06484">
        <ele>52.12</ele>
        <time>2023-06-09T08:07:45.495Z</time>
      </trkpt>
      <trkpt lat="47.04543" lon="0.06477">
        <ele>52.2</ele>
        <time>2023-06-09T08:08:08.583Z</time>
      </trkpt>
      <trkpt lat="47.04553" lon="0.06473">
        <ele>52.23</ele>
        <time>2023-06-09T08:08:31.673Z</time>
      </trkpt>
      <trkpt lat="47.04562" lon="0.06472">
        <ele>52.26</ele>
        <time>2023-06-09T08:08:54.764Z</time>
      </trkpt>
      <trkpt lat="47.04564" lon="0.06474">
        <ele>52.27</ele>
        <time>2023-06-09T08:09:17.856Z</time>
      </trkpt>
      <trkpt lat="47.04571" lon="0.06478">
        <ele>52.32</ele>
        <time>2023-06-09T08:09:40.949Z</time>
      </trkpt>
      <trkpt lat="47.04573" lon="0.06487">
        <ele>52.37</ele>
        <time>2023-06-09T08:10:04.043Z</time>
      </trkpt>
      <trkpt lat="47.04574" lon="0.06491">
        <ele>52.4</ele>
        <time>2023-06-09T08:10:27.137Z</time>
      </trkpt>
      <trkpt lat="47.04577" lon="0.06513">
        <ele>52.59</ele>
        <time>2023-06-09T08:10:50.234Z</time>
      </trkpt>
      <trkpt lat="47.04579" lon="0.06532">
        <ele>52.8</ele>
        <time>2023-06-09T08:11:13.333Z</time>
      </trkpt>
      <trkpt lat="47.0458" lon="0.06545">
        <ele>53</ele>
        <time>2023-06-09T08:11:36.433Z</time>
      </trkpt>
      <trkpt lat="47.04584" lon="0.06577">
        <ele>53.56</ele>
        <time>2023-06-09T08:11:59.537Z</time>
      </trkpt>
      <trkpt lat="47.04586" lon="0.0659">
        <ele>53.81</ele>
        <time>2023-06-09T08:12:22.642Z</time>
      </trkpt>
      <trkpt lat="47.04587" lon="0.06603">
        <ele>54.13</ele>
        <time>2023-06-09T08:12:45.749Z</time>
      </trkpt>
      <trkpt lat="47.04589" lon="0.06616">
        <ele>54.52</ele>
        <time>2023-06-09T08:13:08.857Z</time>
      </trkpt>
      <trkpt lat="47.0459" lon="0.06629">
        <ele>54.94</ele>
        <time>2023-06-09T08:13:31.967Z</time>
      </trkpt>
      <trkpt lat="47.04592" lon="0.06641">
        <ele>55.15</ele>
        <time>2023-06-09T08:13:55.078Z</time>
      </trkpt>
      <trkpt lat="47.04592" lon="0.06644">
        <ele>55.18</ele>
        <time>2023-06-09T08:14:18.189Z</time>
      </trkpt>
      <trkpt lat="47.04597" lon="0.06665">
        <ele>55.49</ele>
        <time>2023-06-09T08:14:41.303Z</time>
      </trkpt>
      <trkpt lat="47.04598" lon="0.06668">
        <ele>55.52</ele>
        <time>2023-06-09T08:15:04.417Z</time>
      </trkpt>
      <trkpt lat="47.04604" lon="0.06668">
        <ele>55.61</ele>
        <time>2023-06-09T08:15:27.532Z</time>
      </trkpt>
      <trkpt lat="47.04613" lon="0.06667">
        <ele>55.65</ele>
        <time>2023-06-09T08:15:50.649Z</time>
      </trkpt>
      <trkpt lat="47.04617" lon="0.06668">
        <ele>55.67</ele>
        <time>2023-06-09T08:16:13.766Z</time>
      </trkpt>
      <trkpt lat="47.04625" lon="0.06669">
        <ele>55.65</ele>
        <time>2023-06-09T08:16:36.885Z</time>
      </trkpt>
      <trkpt lat="47.04627" lon="0.06669">
        <ele>55.64</ele>
        <time>2023-06-09T08:17:00.004Z</time>
      </trkpt>
      <trkpt lat="47.04636" lon="0.06673">
        <ele>55.57</ele>
        <time>2023-06-09T08:17:23.124Z</time>
      </trkpt>
      <trkpt lat="47.04651" lon="0.06684">
        <ele>55.47</ele>
        <time>2023-06-09T08:17:46.247Z</time>
      </trkpt>
      <trkpt lat="47.04665" lon="0.06695">
        <ele>55.13</ele>
        <time>2023-06-09T08:18:09.373Z</time>
      </trkpt>
      <trkpt lat="47.04675" lon="0.06702">
        <ele>54.97</ele>
        <time>2023-06-09T08:18:32.500Z</time>
      </trkpt>
      <trkpt lat="47.04681" lon="0.06703">
        <ele>54.89</ele>
        <time>2023-06-09T08:18:55.628Z</time>
      </trkpt>
      <trkpt lat="47.04684" lon="0.06704">
        <ele>54.89</ele>
        <time>2023-06-09T08:19:18.757Z</time>
      </trkpt>
      <trkpt lat="47.04693" lon="0.06706">
        <ele>54.83</ele>
        <time>2023-06-09T08:19:41.887Z</time>
      </trkpt>
      <trkpt lat="47.04697" lon="0.06707">
        <ele>54.78</ele>
        <time>2023-06-09T08:20:05.018Z</time>
      </trkpt>
      <trkpt lat="47.04706" lon="0.06709">
        <ele>54.59</ele>
        <time>2023-06-09T08:20:28.150Z</time>
      </trkpt>
      <trkpt lat="47.04708" lon="0.06709">
        <ele>54.53</ele>
        <time>2023-06-09T08:20:51.283Z</time>
      </trkpt>
      <trkpt lat="47.04708" lon="0.06704">
        <ele>54.44</ele>
        <time>2023-06-09T08:21:14.416Z</time>
      </trkpt>
      <trkpt lat="47.04716" lon="0.06702">
        <ele>54.23</ele>
        <time>2023-06-09T08:21:37.550Z</time>
      </trkpt>
      <trkpt lat="47.04718" lon="0.06702">
        <ele>54.19</ele>
        <time>2023-06-09T08:22:00.685Z</time>
      </trkpt>
      <trkpt lat="47.0472" lon="0.06701">
        <ele>54.15</ele>
        <time>2023-06-09T08:22:23.820Z</time>
      </trkpt>
      <trkpt lat="47.04741" lon="0.06688">
        <ele>53.84</ele>
        <time>2023-06-09T08:22:46.959Z</time>
      </trkpt>
      <trkpt lat="47.04749" lon="0.06683">
        <ele>53.68</ele>
        <time>2023-06-09T08:23:10.099Z</time>
      </trkpt>
      <trkpt lat="47.04761" lon="0.06672">
        <ele>53.45</ele>
        <time>2023-06-09T08:23:33.241Z</time>
      </trkpt>
      <trkpt lat="47.04776" lon="0.06658">
        <ele>53.18</ele>
        <time>2023-06-09T08:23:56.386Z</time>
      </trkpt>
      <trkpt lat="47.04784" lon="0.06652">
        <ele>53.01</ele>
        <time>2023-06-09T08:24:19.533Z</time>
      </trkpt>
      <trkpt lat="47.04791" lon="0.06645">
        <ele>52.77</ele>
        <time>2023-06-09T08:24:42.681Z</time>
      </trkpt>
      <trkpt lat="47.04803" lon="0.06634">
        <ele>52.31</ele>
        <time>2023-06-09T08:25:05.831Z</time>
      </trkpt>
      <trkpt lat="47.04814" lon="0.06624">
        <ele>51.91</ele>
        <time>2023-06-09T08:25:28.983Z</time>
      </trkpt>
      <trkpt lat="47.04827" lon="0.06617">
        <ele>51.51</ele>
        <time>2023-06-09T08:25:52.138Z</time>
      </trkpt>
      <trkpt lat="47.04843" lon="0.06607">
        <ele>50.85</ele>
        <time>2023-06-09T08:26:15.295Z</time>
      </trkpt>
      <trkpt lat="47.04845" lon="0.06606">
        <ele>50.8</ele>
        <time>2023-06-09T08:26:38.453Z</time>
      </trkpt>
      <trkpt lat="47.04852" lon="0.06604">
        <ele>50.61</ele>
        <time>2023-06-09T08:27:01.612Z</time>
      </trkpt>
      <trkpt lat="47.04861" lon="0.06601">
        <ele>50.42</ele>
        <time>2023-06-09T08:27:24.772Z</time>
      </trkpt>
      <trkpt lat="47.04865" lon="0.066">
        <ele>50.35</ele>
        <time>2023-06-09T08:27:47.933Z</time>
      </trkpt>
      <trkpt lat="47.0487" lon="0.06598">
        <ele>50.31</ele>
        <time>2023-06-09T08:28:11.095Z</time>
      </trkpt>
      <trkpt lat="47.04877" lon="0.06596">
        <ele>50.28</ele>
        <time>2023-06-09T08:28:34.258Z</time>
      </trkpt>
      <trkpt lat="47.04887" lon="0.06595">
        <ele>50.25</ele>
        <time>2023-06-09T08:28:57.423Z</time>
      </trkpt>
      <trkpt lat="47.04905" lon="0.06593">
        <ele>50.09</ele>
        <time>2023-06-09T08:29:20.591Z</time>
      </trkpt>
      <trkpt lat="47.04914" lon="0.06591">
        <ele>50.08</ele>
        <time>2023-06-09T08:29:43.760Z</time>
      </trkpt>
      <trkpt lat="47.04919" lon="0.06591">
        <ele>50.12</ele>
        <time>2023-06-09T08:30:06.930Z</time>
      </trkpt>
      <trkpt lat="47.04923" lon="0.0659">
        <ele>50.19</ele>
        <time>2023-06-09T08:30:30.100Z</time>
      </trkpt>
      <trkpt lat="47.04928" lon="0.0659">
        <ele>50.3</ele>
        <time>2023-06-09T08:30:53.271Z</time>
      </trkpt>
      <trkpt lat="47.04932" lon="0.06589">
        <ele>50.43</ele>
        <time>2023-06-09T08:31:16.443Z</time>
      </trkpt>
      <trkpt lat="47.04934" lon="0.06589">
        <ele>50.49</ele>
        <time>2023-06-09T08:31:39.615Z</time>
      </trkpt>
      <trkpt lat="47.04941" lon="0.06589">
        <ele>50.74</ele>
        <time>2023-06-09T08:32:02.788Z</time>
      </trkpt>
      <trkpt lat="47.04973" lon="0.06589">
        <ele>51.9</ele>
        <time>2023-06-09T08:32:25.966Z</time>
      </trkpt>
      <trkpt lat="47.04982" lon="0.06589">
        <ele>52.26</ele>
        <time>2023-06-09T08:32:49.146Z</time>
      </trkpt>
      <trkpt lat="47.04991" lon="0.06589">
        <ele>52.66</ele>
        <time>2023-06-09T08:33:12.327Z</time>
      </trkpt>
      <trkpt lat="47.05004" lon="0.06589">
        <ele>53.34</ele>
        <time>2023-06-09T08:33:35.510Z</time>
      </trkpt>
      <trkpt lat="47.05013" lon="0.06589">
        <ele>53.73</ele>
        <time>2023-06-09T08:33:58.695Z</time>
      </trkpt>
      <trkpt lat="47.05021" lon="0.06589">
        <ele>54</ele>
        <time>2023-06-09T08:34:21.881Z</time>
      </trkpt>
      <trkpt lat="47.05022" lon="0.06589">
        <ele>54.04</ele>
        <time>2023-06-09T08:34:45.067Z</time>
      </trkpt>
      <trkpt lat="47.0504" lon="0.06585">
        <ele>54.51</ele>
        <time>2023-06-09T08:35:08.256Z</time>
      </trkpt>
      <trkpt lat="47.05042" lon="0.06584">
        <ele>54.57</ele>
        <time>2023-06-09T08:35:31.445Z</time>
      </trkpt>
      <trkpt lat="47.05048" lon="0.06581">
        <ele>54.78</ele>
        <time>2023-06-09T08:35:54.636Z</time>
      </trkpt>
      <trkpt lat="47.05057" lon="0.06577">
        <ele>55.1</ele>
        <time>2023-06-09T08:36:17.828Z</time>
      </trkpt>
      <trkpt lat="47.0507" lon="0.06571">
        <ele>55.66</ele>
        <time>2023-06-09T08:36:41.022Z</time>
      </trkpt>
      <trkpt lat="47.05075" lon="0.06569">
        <ele>55.85</ele>
        <time>2023-06-09T08:37:04.217Z</time>
      </trkpt>
      <trkpt lat="47.05078" lon="0.06568">
        <ele>55.99</ele>
        <time>2023-06-09T08:37:27.413Z</time>
      </trkpt>
      <trkpt lat="47.05087" lon="0.06565">
        <ele>56.24</ele>
        <time>2023-06-09T08:37:50.610Z</time>
      </trkpt>
      <trkpt lat="47.05105" lon="0.0656">
        <ele>56.69</ele>
        <time>2023-06-09T08:38:13.810Z</time>
      </trkpt>
      <trkpt lat="47.05109" lon="0.06559">
        <ele>56.81</ele>
        <time>2023-06-09T08:38:37.011Z</time>
      </trkpt>
      <trkpt lat="47.05132" lon="0.06556">
        <ele>57.26</ele>
        <time>2023-06-09T08:39:00.215Z</time>
      </trkpt>
      <trkpt lat="47.05159" lon="0.06552">
        <ele>58.03</ele>
        <time>2023-06-09T08:39:23.424Z</time>
      </trkpt>
      <trkpt lat="47.05159" lon="0.06552">
        <ele>58.03</ele>
        <time>2023-06-09T08:39:46.633Z</time>
      </trkpt>
      <trkpt lat="47.05176" lon="0.06551">
        <ele>58.41</ele>
        <time>2023-06-09T08:40:09.844Z</time>
      </trkpt>
      <trkpt lat="47.05185" lon="0.06551">
        <ele>58.64</ele>
        <time>2023-06-09T08:40:33.057Z</time>
      </trkpt>
      <trkpt lat="47.0519" lon="0.0655">
        <ele>58.8</ele>
        <time>2023-06-09T08:40:56.271Z</time>
      </trkpt>
      <trkpt lat="47.05195" lon="0.0655">
        <ele>59</ele>
        <time>2023-06-09T08:41:19.485Z</time>
      </trkpt>
      <trkpt lat="47.05203" lon="0.06549">
        <ele>59.34</ele>
        <time>2023-06-09T08:41:42.701Z</time>
      </trkpt>
      <trkpt lat="47.05221" lon="0.06547">
        <ele>60.19</ele>
        <time>2023-06-09T08:42:05.920Z</time>
      </trkpt>
      <trkpt lat="47.05226" lon="0.06546">
        <ele>60.36</ele>
        <time>2023-06-09T08:42:29.139Z</time>
      </trkpt>
      <trkpt lat="47.0523" lon="0.06546">
        <ele>60.49</ele>
        <time>2023-06-09T08:42:52.359Z</time>
      </trkpt>
      <trkpt lat="47.05266" lon="0.06541">
        <ele>61.35</ele>
        <time>2023-06-09T08:43:15.585Z</time>
      </trkpt>
      <trkpt lat="47.05275" lon="0.0654">
        <ele>61.51</ele>
        <time>2023-06-09T08:43:38.812Z</time>
      </trkpt>
      <trkpt lat="47.05279" lon="0.0654">
        <ele>61.57</ele>
        <time>2023-06-09T08:44:02.040Z</time>
      </trkpt>
      <trkpt lat="47.05288" lon="0.06539">
        <ele>61.65</ele>
        <time>2023-06-09T08:44:25.269Z</time>
      </trkpt>
      <trkpt lat="47.05329" lon="0.06534">
        <ele>61.86</ele>
        <time>2023-06-09T08:44:48.505Z</time>
      </trkpt>
      <trkpt lat="47.05342" lon="0.06532">
        <ele>61.95</ele>
        <time>2023-06-09T08:45:11.743Z</time>
      </trkpt>
      <trkpt lat="47.05356" lon="0.0653">
        <ele>61.99</ele>
        <time>2023-06-09T08:45:34.983Z</time>
      </trkpt>
      <trkpt lat="47.05359" lon="0.0653">
        <ele>61.98</ele>
        <time>2023-06-09T08:45:58.224Z</time>
      </trkpt>
      <trkpt lat="47.05364" lon="0.06529">
        <ele>61.98</ele>
        <time>2023-06-09T08:46:21.466Z</time>
      </trkpt>
      <trkpt lat="47.05378" lon="0.06527">
        <ele>61.86</ele>
        <time>2023-06-09T08:46:44.710Z</time>
      </trkpt>
      <trkpt lat="47.05386" lon="0.06525">
        <ele>61.75</ele>
        <time>2023-06-09T08:47:07.955Z</time>
      </trkpt>
      <trkpt lat="47.05387" lon="0.06525">
        <ele>61.75</ele>
        <time>2023-06-09T08:47:31.200Z</time>
      </trkpt>
      <trkpt lat="47.05404" lon="0.06517">
        <ele>61.48</ele>
        <time>2023-06-09T08:47:54.448Z</time>
      </trkpt>
      <trkpt lat="47.05407" lon="0.06516">
        <ele>61.44</ele>
        <time>2023-06-09T08:48:17.697Z</time>
      </trkpt>
      <trkpt lat="47.05416" lon="0.06509">
        <ele>61.31</ele>
        <time>2023-06-09T08:48:40.947Z</time>
      </trkpt>
      <trkpt lat="47.05419" lon="0.06506">
        <ele>61.25</ele>
        <time>2023-06-09T08:49:04.198Z</time>
      </trkpt>
      <trkpt lat="47.05424" lon="0.06501">
        <ele>61.16</ele>
        <time>2023-06-09T08:49:27.450Z</time>
      </trkpt>
      <trkpt lat="47.05427" lon="0.06498">
        <ele>61.06</ele>
        <time>2023-06-09T08:49:50.702Z</time>
      </trkpt>
      <trkpt lat="47.05431" lon="0.06494">
        <ele>60.94</ele>
        <time>2023-06-09T08:50:13.955Z</time>
      </trkpt>
      <trkpt lat="47.05438" lon="0.06487">
        <ele>60.66</ele>
        <time>2023-06-09T08:50:37.210Z</time>
      </trkpt>
      <trkpt lat="47.0545" lon="0.06475">
        <ele>60.2</ele>
        <time>2023-06-09T08:51:00.467Z</time>
      </trkpt>
      <trkpt lat="47.05457" lon="0.06468">
        <ele>59.86</ele>
        <time>2023-06-09T08:51:23.725Z</time>
      </trkpt>
      <trkpt lat="47.05461" lon="0.06464">
        <ele>59.66</ele>
        <time>2023-06-09T08:51:46.984Z</time>
      </trkpt>
      <trkpt lat="47.05468" lon="0.06457">
        <ele>59.22</ele>
        <time>2023-06-09T08:52:10.244Z</time>
      </trkpt>
      <trkpt lat="47.05475" lon="0.0645">
        <ele>58.74</ele>
        <time>2023-06-09T08:52:33.506Z</time>
      </trkpt>
      <trkpt lat="47.05483" lon="0.06442">
        <ele>58.2</ele>
        <time>2023-06-09T08:52:56.769Z</time>
      </trkpt>
      <trkpt lat="47.05491" lon="0.06435">
        <ele>57.65</ele>
        <time>2023-06-09T08:53:20.034Z</time>
      </trkpt>
      <trkpt lat="47.05498" lon="0.06428">
        <ele>57.03</ele>
        <time>2023-06-09T08:53:43.300Z</time>
      </trkpt>
      <trkpt lat="47.05506" lon="0.06421">
        <ele>56.33</ele>
        <time>2023-06-09T08:54:06.568Z</time>
      </trkpt>
      <trkpt lat="47.05517" lon="0.0641">
        <ele>55.45</ele>
        <time>2023-06-09T08:54:29.838Z</time>
      </trkpt>
      <trkpt lat="47.05529" lon="0.06398">
        <ele>54.33</ele>
        <time>2023-06-09T08:54:53.110Z</time>
      </trkpt>
      <trkpt lat="47.05532" lon="0.06395">
        <ele>54.1</ele>
        <time>2023-06-09T08:55:16.383Z</time>
      </trkpt>
      <trkpt lat="47.05535" lon="0.06392">
        <ele>53.8</ele>
        <time>2023-06-09T08:55:39.656Z</time>
      </trkpt>
      <trkpt lat="47.05539" lon="0.06388">
        <ele>53.53</ele>
        <time>2023-06-09T08:56:02.930Z</time>
      </trkpt>
      <trkpt lat="47.05543" lon="0.06384">
        <ele>53.31</ele>
        <time>2023-06-09T08:56:26.205Z</time>
      </trkpt>
      <trkpt lat="47.05546" lon="0.06381">
        <ele>53.12</ele>
        <time>2023-06-09T08:56:49.480Z</time>
      </trkpt>
      <trkpt lat="47.0555" lon="0.06377">
        <ele>52.98</ele>
        <time>2023-06-09T08:57:12.756Z</time>
      </trkpt>
      <trkpt lat="47.05554" lon="0.06373">
        <ele>52.88</ele>
        <time>2023-06-09T08:57:36.033Z</time>
      </trkpt>
      <trkpt lat="47.05557" lon="0.0637">
        <ele>52.81</ele>
        <time>2023-06-09T08:57:59.311Z</time>
      </trkpt>
      <trkpt lat="47.05565" lon="0.06362">
        <ele>52.73</ele>
        <time>2023-06-09T08:58:22.590Z</time>
      </trkpt>
      <trkpt lat="47.0558" lon="0.06347">
        <ele>52.62</ele>
        <time>2023-06-09T08:58:45.872Z</time>
      </trkpt>
      <trkpt lat="47.05582" lon="0.06345">
        <ele>52.58</ele>
        <time>2023-06-09T08:59:09.154Z</time>
      </trkpt>
      <trkpt lat="47.05587" lon="0.06341">
        <ele>52.51</ele>
        <time>2023-06-09T08:59:32.437Z</time>
      </trkpt>
      <trkpt lat="47.05589" lon="0.0634">
        <ele>52.47</ele>
        <time>2023-06-09T08:59:55.721Z</time>
      </trkpt>
      <trkpt lat="47.05592" lon="0.06339">
        <ele>52.42</ele>
        <time>2023-06-09T09:00:19.005Z</time>
      </trkpt>
      <trkpt lat="47.05598" lon="0.06338">
        <ele>52.25</ele>
        <time>2023-06-09T09:00:42.290Z</time>
      </trkpt>
      <trkpt lat="47.05601" lon="0.06339">
        <ele>52.19</ele>
        <time>2023-06-09T09:01:05.575Z</time>
      </trkpt>
      <trkpt lat="47.05618" lon="0.06342">
        <ele>51.62</ele>
        <time>2023-06-09T09:01:28.863Z</time>
      </trkpt>
      <trkpt lat="47.05632" lon="0.06344">
        <ele>51.23</ele>
        <time>2023-06-09T09:01:52.153Z</time>
      </trkpt>
      <trkpt lat="47.0564" lon="0.06346">
        <ele>51.01</ele>
        <time>2023-06-09T09:02:15.445Z</time>
      </trkpt>
      <trkpt lat="47.05649" lon="0.06348">
        <ele>50.85</ele>
        <time>2023-06-09T09:02:38.738Z</time>
      </trkpt>
      <trkpt lat="47.05654" lon="0.06349">
        <ele>50.84</ele>
        <time>2023-06-09T09:03:02.032Z</time>
      </trkpt>
      <trkpt lat="47.05658" lon="0.0635">
        <ele>50.87</ele>
        <time>2023-06-09T09:03:25.327Z</time>
      </trkpt>
      <trkpt lat="47.05663" lon="0.0635">
        <ele>50.95</ele>
        <time>2023-06-09T09:03:48.622Z</time>
      </trkpt>
      <trkpt lat="47.05671" lon="0.06352">
        <ele>51.17</ele>
        <time>2023-06-09T09:04:11.919Z</time>
      </trkpt>
      <trkpt lat="47.05689" lon="0.06356">
        <ele>51.7</ele>
        <time>2023-06-09T09:04:35.219Z</time>
      </trkpt>
      <trkpt lat="47.05703" lon="0.06358">
        <ele>52.17</ele>
        <time>2023-06-09T09:04:58.521Z</time>
      </trkpt>
      <trkpt lat="47.05717" lon="0.06361">
        <ele>52.62</ele>
        <time>2023-06-09T09:05:21.825Z</time>
      </trkpt>
      <trkpt lat="47.05725" lon="0.06363">
        <ele>52.86</ele>
        <time>2023-06-09T09:05:45.130Z</time>
      </trkpt>
      <trkpt lat="47.05733" lon="0.06365">
        <ele>53.17</ele>
        <time>2023-06-09T09:06:08.437Z</time>
      </trkpt>
      <trkpt lat="47.05742" lon="0.06367">
        <ele>53.52</ele>
        <time>2023-06-09T09:06:31.745Z</time>
      </trkpt>
      <trkpt lat="47.05764" lon="0.06371">
        <ele>54.53</ele>
        <time>2023-06-09T09:06:55.057Z</time>
      </trkpt>
      <trkpt lat="47.05767" lon="0.06372">
        <ele>54.63</ele>
        <time>2023-06-09T09:07:18.369Z</time>
      </trkpt>
      <trkpt lat="47.05773" lon="0.06374">
        <ele>54.88</ele>
        <time>2023-06-09T09:07:41.682Z</time>
      </trkpt>
      <trkpt lat="47.05778" lon="0.06375">
        <ele>55.01</ele>
        <time>2023-06-09T09:08:04.996Z</time>
      </trkpt>
      <trkpt lat="47.05786" lon="0.06377">
        <ele>55.19</ele>
        <time>2023-06-09T09:08:28.311Z</time>
      </trkpt>
      <trkpt lat="47.058" lon="0.06381">
        <ele>55.37</ele>
        <time>2023-06-09T09:08:51.629Z</time>
      </trkpt>
      <trkpt lat="47.05804" lon="0.06382">
        <ele>55.45</ele>
        <time>2023-06-09T09:09:14.947Z</time>
      </trkpt>
      <trkpt lat="47.05808" lon="0.06383">
        <ele>55.55</ele>
        <time>2023-06-09T09:09:38.266Z</time>
      </trkpt>
      <trkpt lat="47.05813" lon="0.06384">
        <ele>55.67</ele>
        <time>2023-06-09T09:10:01.586Z</time>
      </trkpt>
      <trkpt lat="47.05824" lon="0.06387">
        <ele>56.04</ele>
        <time>2023-06-09T09:10:24.908Z</time>
      </trkpt>
      <trkpt lat="47.0583" lon="0.06388">
        <ele>56.26</ele>
        <time>2023-06-09T09:10:48.231Z</time>
      </trkpt>
      <trkpt lat="47.05835" lon="0.06389">
        <ele>56.37</ele>
        <time>2023-06-09T09:11:11.554Z</time>
      </trkpt>
      <trkpt lat="47.05839" lon="0.0639">
        <ele>56.45</ele>
        <time>2023-06-09T09:11:34.878Z</time>
      </trkpt>
      <trkpt lat="47.05844" lon="0.06391">
        <ele>56.5</ele>
        <time>2023-06-09T09:11:58.203Z</time>
      </trkpt>
      <trkpt lat="47.05848" lon="0.06392">
        <ele>56.52</ele>
        <time>2023-06-09T09:12:21.528Z</time>
      </trkpt>
      <trkpt lat="47.05853" lon="0.06393">
        <ele>56.5</ele>
        <time>2023-06-09T09:12:44.854Z</time>
      </trkpt>
      <trkpt lat="47.05861" lon="0.06395">
        <ele>56.4</ele>
        <time>2023-06-09T09:13:08.182Z</time>
      </trkpt>
      <trkpt lat="47.05879" lon="0.06399">
        <ele>56.14</ele>
        <time>2023-06-09T09:13:31.512Z</time>
      </trkpt>
      <trkpt lat="47.05892" lon="0.06402">
        <ele>55.91</ele>
        <time>2023-06-09T09:13:54.845Z</time>
      </trkpt>
      <trkpt lat="47.05905" lon="0.06405">
        <ele>55.63</ele>
        <time>2023-06-09T09:14:18.180Z</time>
      </trkpt>
      <trkpt lat="47.05914" lon="0.06407">
        <ele>55.42</ele>
        <time>2023-06-09T09:14:41.516Z</time>
      </trkpt>
      <trkpt lat="47.05932" lon="0.06411">
        <ele>54.93</ele>
        <time>2023-06-09T09:15:04.855Z</time>
      </trkpt>
      <trkpt lat="47.05941" lon="0.06412">
        <ele>54.69</ele>
        <time>2023-06-09T09:15:28.195Z</time>
      </trkpt>
      <trkpt lat="47.0595" lon="0.06412">
        <ele>54.5</ele>
        <time>2023-06-09T09:15:51.537Z</time>
      </trkpt>
      <trkpt lat="47.05959" lon="0.06413">
        <ele>54.37</ele>
        <time>2023-06-09T09:16:14.880Z</time>
      </trkpt>
      <trkpt lat="47.05975" lon="0.06414">
        <ele>54.25</ele>
        <time>2023-06-09T09:16:38.226Z</time>
      </trkpt>
      <trkpt lat="47.05977" lon="0.06414">
        <ele>54.24</ele>
        <time>2023-06-09T09:17:01.572Z</time>
      </trkpt>
      <trkpt lat="47.05986" lon="0.06414">
        <ele>54.15</ele>
        <time>2023-06-09T09:17:24.920Z</time>
      </trkpt>
      <trkpt lat="47.05995" lon="0.06414">
        <ele>53.99</ele>
        <time>2023-06-09T09:17:48.269Z</time>
      </trkpt>
      <trkpt lat="47.06008" lon="0.06414">
        <ele>53.67</ele>
        <time>2023-06-09T09:18:11.620Z</time>
      </trkpt>
      <trkpt lat="47.06017" lon="0.06415">
        <ele>53.48</ele>
        <time>2023-06-09T09:18:34.973Z</time>
      </trkpt>
      <trkpt lat="47.06026" lon="0.06415">
        <ele>53.36</ele>
        <time>2023-06-09T09:18:58.327Z</time>
      </trkpt>
      <trkpt lat="47.06039" lon="0.06415">
        <ele>53.28</ele>
        <time>2023-06-09T09:19:21.683Z</time>
      </trkpt>
      <trkpt lat="47.06044" lon="0.06415">
        <ele>53.23</ele>
        <time>2023-06-09T09:19:45.040Z</time>
      </trkpt>
      <trkpt lat="47.06044" lon="0.06415">
        <ele>53.23</ele>
        <time>2023-06-09T09:20:08.397Z</time>
      </trkpt>
      <trkpt lat="47.06053" lon="0.06416">
        <ele>53.09</ele>
        <time>2023-06-09T09:20:31.755Z</time>
      </trkpt>
      <trkpt lat="47.0607" lon="0.06419">
        <ele>52.75</ele>
        <time>2023-06-09T09:20:55.116Z</time>
      </trkpt>
      <trkpt lat="47.06079" lon="0.06421">
        <ele>52.62</ele>
        <time>2023-06-09T09:21:18.479Z</time>
      </trkpt>
      <trkpt lat="47.06087" lon="0.06422">
        <ele>52.53</ele>
        <time>2023-06-09T09:21:41.843Z</time>
      </trkpt>
      <trkpt lat="47.06088" lon="0.06422">
        <ele>52.52</ele>
        <time>2023-06-09T09:22:05.207Z</time>
      </trkpt>
      <trkpt lat="47.06115" lon="0.0643">
        <ele>52.42</ele>
        <time>2023-06-09T09:22:28.575Z</time>
      </trkpt>
      <trkpt lat="47.06131" lon="0.06438">
        <ele>52.37</ele>
        <time>2023-06-09T09:22:51.946Z</time>
      </trkpt>
      <trkpt lat="47.06156" lon="0.06449">
        <ele>52.35</ele>
        <time>2023-06-09T09:23:15.321Z</time>
      </trkpt>
      <trkpt lat="47.06169" lon="0.06455">
        <ele>52.28</ele>
        <time>2023-06-09T09:23:38.699Z</time>
      </trkpt>
      <trkpt lat="47.06175" lon="0.06458">
        <ele>53.6</ele>
        <time>2023-06-09T09:24:02.078Z</time>
      </trkpt>
      <trkpt lat="47.06184" lon="0.06463">
        <ele>53.47</ele>
        <time>2023-06-09T09:24:25.458Z</time>
      </trkpt>
      <trkpt lat="47.06195" lon="0.06468">
        <ele>53.34</ele>
        <time>2023-06-09T09:24:48.840Z</time>
      </trkpt>
      <trkpt lat="47.06195" lon="0.0647">
        <ele>53.33</ele>
        <time>2023-06-09T09:25:12.222Z</time>
      </trkpt>
      <trkpt lat="47.06196" lon="0.06483">
        <ele>53.27</ele>
        <time>2023-06-09T09:25:35.606Z</time>
      </trkpt>
      <trkpt lat="47.06196" lon="0.06497">
        <ele>53.22</ele>
        <time>2023-06-09T09:25:58.991Z</time>
      </trkpt>
      <trkpt lat="47.06198" lon="0.06509">
        <ele>53.19</ele>
        <time>2023-06-09T09:26:22.377Z</time>
      </trkpt>
      <trkpt lat="47.06201" lon="0.06522">
        <ele>53.09</ele>
        <time>2023-06-09T09:26:45.765Z</time>
      </trkpt>
      <trkpt lat="47.06203" lon="0.06534">
        <ele>52.95</ele>
        <time>2023-06-09T09:27:09.154Z</time>
      </trkpt>
      <trkpt lat="47.06204" lon="0.06537">
        <ele>52.92</ele>
        <time>2023-06-09T09:27:32.544Z</time>
      </trkpt>
      <trkpt lat="47.06204" lon="0.06541">
        <ele>52.9</ele>
        <time>2023-06-09T09:27:55.934Z</time>
      </trkpt>
      <trkpt lat="47.06205" lon="0.06547">
        <ele>52.88</ele>
        <time>2023-06-09T09:28:19.325Z</time>
      </trkpt>
      <trkpt lat="47.06206" lon="0.06554">
        <ele>52.88</ele>
        <time>2023-06-09T09:28:42.717Z</time>
      </trkpt>
      <trkpt lat="47.06208" lon="0.06567">
        <ele>52.93</ele>
        <time>2023-06-09T09:29:06.110Z</time>
      </trkpt>
      <trkpt lat="47.06209" lon="0.06575">
        <ele>52.98</ele>
        <time>2023-06-09T09:29:29.504Z</time>
      </trkpt>
      <trkpt lat="47.06207" lon="0.06579">
        <ele>53.02</ele>
        <time>2023-06-09T09:29:52.898Z</time>
      </trkpt>
      <trkpt lat="47.06202" lon="0.06589">
        <ele>53.15</ele>
        <time>2023-06-09T09:30:16.294Z</time>
      </trkpt>
      <trkpt lat="47.06194" lon="0.06605">
        <ele>53.39</ele>
        <time>2023-06-09T09:30:39.692Z</time>
      </trkpt>
      <trkpt lat="47.0618" lon="0.06632">
        <ele>53.94</ele>
        <time>2023-06-09T09:31:03.094Z</time>
      </trkpt>
      <trkpt lat="47.06179" lon="0.06634">
        <ele>53.98</ele>
        <time>2023-06-09T09:31:26.496Z</time>
      </trkpt>
      <trkpt lat="47.06177" lon="0.06637">
        <ele>54.03</ele>
        <time>2023-06-09T09:31:49.898Z</time>
      </trkpt>
      <trkpt lat="47.06165" lon="0.06657">
        <ele>54.2</ele>
        <time>2023-06-09T09:32:13.303Z</time>
      </trkpt>
      <trkpt lat="47.06159" lon="0.06666">
        <ele>54.32</ele>
        <time>2023-06-09T09:32:36.710Z</time>
      </trkpt>
      <trkpt lat="47.06148" lon="0.06686">
        <ele>54.63</ele>
        <time>2023-06-09T09:33:00.120Z</time>
      </trkpt>
      <trkpt lat="47.06139" lon="0.06701">
        <ele>54.91</ele>
        <time>2023-06-09T09:33:23.532Z</time>
      </trkpt>
      <trkpt lat="47.06136" lon="0.06706">
        <ele>55.03</ele>
        <time>2023-06-09T09:33:46.944Z</time>
      </trkpt>
      <trkpt lat="47.06127" lon="0.06721">
        <ele>55.47</ele>
        <time>2023-06-09T09:34:10.359Z</time>
      </trkpt>
      <trkpt lat="47.06121" lon="0.0673">
        <ele>55.73</ele>
        <time>2023-06-09T09:34:33.775Z</time>
      </trkpt>
      <trkpt lat="47.06115" lon="0.0674">
        <ele>55.9</ele>
        <time>2023-06-09T09:34:57.192Z</time>
      </trkpt>
      <trkpt lat="47.06108" lon="0.06749">
        <ele>56.09</ele>
        <time>2023-06-09T09:35:20.611Z</time>
      </trkpt>
      <trkpt lat="47.06105" lon="0.06753">
        <ele>56.21</ele>
        <time>2023-06-09T09:35:44.031Z</time>
      </trkpt>
      <trkpt lat="47.06098" lon="0.06762">
        <ele>56.51</ele>
        <time>2023-06-09T09:36:07.452Z</time>
      </trkpt>
      <trkpt lat="47.06087" lon="0.06776">
        <ele>57.06</ele>
        <time>2023-06-09T09:36:30.875Z</time>
      </trkpt>
      <trkpt lat="47.06084" lon="0.06779">
        <ele>57.2</ele>
        <time>2023-06-09T09:36:54.299Z</time>
      </trkpt>
      <trkpt lat="47.06074" lon="0.06792">
        <ele>57.75</ele>
        <time>2023-06-09T09:37:17.725Z</time>
      </trkpt>
      <trkpt lat="47.0607" lon="0.06796">
        <ele>57.92</ele>
        <time>2023-06-09T09:37:41.152Z</time>
      </trkpt>
      <trkpt lat="47.06067" lon="0.068">
        <ele>58.06</ele>
        <time>2023-06-09T09:38:04.580Z</time>
      </trkpt>
      <trkpt lat="47.06063" lon="0.06804">
        <ele>58.17</ele>
        <time>2023-06-09T09:38:28.008Z</time>
      </trkpt>
      <trkpt lat="47.0606" lon="0.06808">
        <ele>58.24</ele>
        <time>2023-06-09T09:38:51.437Z</time>
      </trkpt>
      <trkpt lat="47.06056" lon="0.06812">
        <ele>58.28</ele>
        <time>2023-06-09T09:39:14.867Z</time>
      </trkpt>
      <trkpt lat="47.06049" lon="0.0682">
        <ele>58.29</ele>
        <time>2023-06-09T09:39:38.298Z</time>
      </trkpt>
      <trkpt lat="47.06042" lon="0.06829">
        <ele>58.21</ele>
        <time>2023-06-09T09:40:01.731Z</time>
      </trkpt>
      <trkpt lat="47.06039" lon="0.06833">
        <ele>58.12</ele>
        <time>2023-06-09T09:40:25.164Z</time>
      </trkpt>
      <trkpt lat="47.06035" lon="0.06837">
        <ele>57.99</ele>
        <time>2023-06-09T09:40:48.598Z</time>
      </trkpt>
      <trkpt lat="47.06032" lon="0.06841">
        <ele>57.83</ele>
        <time>2023-06-09T09:41:12.033Z</time>
      </trkpt>
      <trkpt lat="47.06017" lon="0.06857">
        <ele>57.06</ele>
        <time>2023-06-09T09:41:35.471Z</time>
      </trkpt>
      <trkpt lat="47.06014" lon="0.06862">
        <ele>56.91</ele>
        <time>2023-06-09T09:41:58.909Z</time>
      </trkpt>
      <trkpt lat="47.0601" lon="0.06866">
        <ele>56.79</ele>
        <time>2023-06-09T09:42:22.348Z</time>
      </trkpt>
      <trkpt lat="47.06007" lon="0.0687">
        <ele>56.72</ele>
        <time>2023-06-09T09:42:45.788Z</time>
      </trkpt>
      <trkpt lat="47.05986" lon="0.06894">
        <ele>56.45</ele>
        <time>2023-06-09T09:43:09.232Z</time>
      </trkpt>
      <trkpt lat="47.05961" lon="0.06923">
        <ele>56.31</ele>
        <time>2023-06-09T09:43:32.681Z</time>
      </trkpt>
      <trkpt lat="47.05958" lon="0.06927">
        <ele>56.31</ele>
        <time>2023-06-09T09:43:56.131Z</time>
      </trkpt>
      <trkpt lat="47.05955" lon="0.06932">
        <ele>56.33</ele>
        <time>2023-06-09T09:44:19.582Z</time>
      </trkpt>
      <trkpt lat="47.05939" lon="0.06957">
        <ele>56.48</ele>
        <time>2023-06-09T09:44:43.036Z</time>
      </trkpt>
      <trkpt lat="47.05937" lon="0.06962">
        <ele>56.51</ele>
        <time>2023-06-09T09:45:06.491Z</time>
      </trkpt>
      <trkpt lat="47.05929" lon="0.06986">
        <ele>56.68</ele>
        <time>2023-06-09T09:45:29.949Z</time>
      </trkpt>
      <trkpt lat="47.05929" lon="0.06987">
        <ele>56.68</ele>
        <time>2023-06-09T09:45:53.407Z</time>
      </trkpt>
      <trkpt lat="47.05924" lon="0.07004">
        <ele>56.77</ele>
        <time>2023-06-09T09:46:16.867Z</time>
      </trkpt>
      <trkpt lat="47.05909" lon="0.07059">
        <ele>56.86</ele>
        <time>2023-06-09T09:46:40.333Z</time>
      </trkpt>
      <trkpt lat="47.05906" lon="0.07071">
        <ele>56.91</ele>
        <time>2023-06-09T09:47:03.801Z</time>
      </trkpt>
      <trkpt lat="47.05896" lon="0.07106">
        <ele>57.23</ele>
        <time>2023-06-09T09:47:27.273Z</time>
      </trkpt>
      <trkpt lat="47.05895" lon="0.07108">
        <ele>57.25</ele>
        <time>2023-06-09T09:47:50.745Z</time>
      </trkpt>
      <trkpt lat="47.05891" lon="0.07119">
        <ele>57.39</ele>
        <time>2023-06-09T09:48:14.219Z</time>
      </trkpt>
      <trkpt lat="47.05889" lon="0.07125">
        <ele>57.49</ele>
        <time>2023-06-09T09:48:37.693Z</time>
      </trkpt>
      <trkpt lat="47.05886" lon="0.07133">
        <ele>57.64</ele>
        <time>2023-06-09T09:49:01.168Z</time>
      </trkpt>
      <trkpt lat="47.05882" lon="0.07142">
        <ele>57.84</ele>
        <time>2023-06-09T09:49:24.645Z</time>
      </trkpt>
      <trkpt lat="47.05876" lon="0.07152">
        <ele>58</ele>
        <time>2023-06-09T09:49:48.123Z</time>
      </trkpt>
      <trkpt lat="47.05867" lon="0.07171">
        <ele>58.06</ele>
        <time>2023-06-09T09:50:11.604Z</time>
      </trkpt>
      <trkpt lat="47.05865" lon="0.07179">
        <ele>58.08</ele>
        <time>2023-06-09T09:50:35.085Z</time>
      </trkpt>
      <trkpt lat="47.05865" lon="0.07181">
        <ele>58.09</ele>
        <time>2023-06-09T09:50:58.567Z</time>
      </trkpt>
      <trkpt lat="47.05865" lon="0.07188">
        <ele>58.02</ele>
        <time>2023-06-09T09:51:22.049Z</time>
      </trkpt>
      <trkpt lat="47.05842" lon="0.07193">
        <ele>57.68</ele>
        <time>2023-06-09T09:51:45.535Z</time>
      </trkpt>
      <trkpt lat="47.05842" lon="0.07208">
        <ele>57.53</ele>
        <time>2023-06-09T09:52:09.023Z</time>
      </trkpt>
      <trkpt lat="47.05811" lon="0.07274">
        <ele>56.74</ele>
        <time>2023-06-09T09:52:32.520Z</time>
      </trkpt>
      <trkpt lat="47.05801" lon="0.07302">
        <ele>56.43</ele>
        <time>2023-06-09T09:52:56.020Z</time>
      </trkpt>
      <trkpt lat="47.05759" lon="0.07507">
        <ele>54.33</ele>
        <time>2023-06-09T09:53:19.543Z</time>
      </trkpt>
      <trkpt lat="47.05754" lon="0.07533">
        <ele>54.13</ele>
        <time>2023-06-09T09:53:43.069Z</time>
      </trkpt>
      <trkpt lat="47.05751" lon="0.0754">
        <ele>54.07</ele>
        <time>2023-06-09T09:54:06.596Z</time>
      </trkpt>
      <trkpt lat="47.05748" lon="0.07542">
        <ele>54.03</ele>
        <time>2023-06-09T09:54:30.124Z</time>
      </trkpt>
      <trkpt lat="47.05619" lon="0.07561">
        <ele>52.67</ele>
        <time>2023-06-09T09:54:53.673Z</time>
      </trkpt>
      <trkpt lat="47.05608" lon="0.07564">
        <ele>52.56</ele>
        <time>2023-06-09T09:55:17.223Z</time>
      </trkpt>
      <trkpt lat="47.05606" lon="0.07568">
        <ele>52.52</ele>
        <time>2023-06-09T09:55:40.774Z</time>
      </trkpt>
      <trkpt lat="47.05606" lon="0.07585">
        <ele>52.4</ele>
        <time>2023-06-09T09:56:04.327Z</time>
      </trkpt>
      <trkpt lat="47.05651" lon="0.0796">
        <ele>49.68</ele>
        <time>2023-06-09T09:56:27.921Z</time>
      </trkpt>
      <trkpt lat="47.0566" lon="0.08031">
        <ele>50.06</ele>
        <time>2023-06-09T09:56:51.523Z</time>
      </trkpt>
      <trkpt lat="47.0566" lon="0.08046">
        <ele>50.14</ele>
        <time>2023-06-09T09:57:15.127Z</time>
      </trkpt>
      <trkpt lat="47.05629" lon="0.08142">
        <ele>50.71</ele>
        <time>2023-06-09T09:57:38.743Z</time>
      </trkpt>
      <trkpt lat="47.05629" lon="0.08152">
        <ele>50.77</ele>
        <time>2023-06-09T09:58:02.360Z</time>
      </trkpt>
      <trkpt lat="47.05762" lon="0.08533">
        <ele>53.07</ele>
        <time>2023-06-09T09:58:26.024Z</time>
      </trkpt>
      <trkpt lat="47.05775" lon="0.08569">
        <ele>53.4</ele>
        <time>2023-06-09T09:58:49.692Z</time>
      </trkpt>
      <trkpt lat="47.0587" lon="0.08491">
        <ele>54.74</ele>
        <time>2023-06-09T09:59:13.377Z</time>
      </trkpt>
      <trkpt lat="47.05893" lon="0.08472">
        <ele>54.92</ele>
        <time>2023-06-09T09:59:37.067Z</time>
      </trkpt>
      <trkpt lat="47.06025" lon="0.08817">
        <ele>56.76</ele>
        <time>2023-06-09T10:00:00.800Z</time>
      </trkpt>
      <trkpt lat="47.06036" lon="0.08845">
        <ele>56.82</ele>
        <time>2023-06-09T10:00:24.536Z</time>
      </trkpt>
      <trkpt lat="47.06038" lon="0.08851">
        <ele>56.83</ele>
        <time>2023-06-09T10:00:48.273Z</time>
      </trkpt>
      <trkpt lat="47.06034" lon="0.08855">
        <ele>56.86</ele>
        <time>2023-06-09T10:01:12.011Z</time>
      </trkpt>
      <trkpt lat="47.06009" lon="0.08882">
        <ele>57.23</ele>
        <time>2023-06-09T10:01:35.754Z</time>
      </trkpt>
      <trkpt lat="47.05995" lon="0.08898">
        <ele>57.37</ele>
        <time>2023-06-09T10:01:59.500Z</time>
      </trkpt>
      <trkpt lat="47.05976" lon="0.08917">
        <ele>57.63</ele>
        <time>2023-06-09T10:02:23.249Z</time>
      </trkpt>
      <trkpt lat="47.05958" lon="0.08937">
        <ele>57.81</ele>
        <time>2023-06-09T10:02:47.002Z</time>
      </trkpt>
      <trkpt lat="47.05955" lon="0.08941">
        <ele>57.83</ele>
        <time>2023-06-09T10:03:10.756Z</time>
      </trkpt>
      <trkpt lat="47.05951" lon="0.08945">
        <ele>57.82</ele>
        <time>2023-06-09T10:03:34.510Z</time>
      </trkpt>
      <trkpt lat="47.05948" lon="0.08948">
        <ele>57.79</ele>
        <time>2023-06-09T10:03:58.265Z</time>
      </trkpt>
      <trkpt lat="47.05947" lon="0.08949">
        <ele>57.79</ele>
        <time>2023-06-09T10:04:22.020Z</time>
      </trkpt>
      <trkpt lat="47.05941" lon="0.08957">
        <ele>57.67</ele>
        <time>2023-06-09T10:04:45.777Z</time>
      </trkpt>
      <trkpt lat="47.0593" lon="0.08969">
        <ele>57.68</ele>
        <time>2023-06-09T10:05:09.536Z</time>
      </trkpt>
      <trkpt lat="47.0592" lon="0.08982">
        <ele>57.58</ele>
        <time>2023-06-09T10:05:33.297Z</time>
      </trkpt>
      <trkpt lat="47.05914" lon="0.08991">
        <ele>57.52</ele>
        <time>2023-06-09T10:05:57.059Z</time>
      </trkpt>
      <trkpt lat="47.05905" lon="0.09004">
        <ele>57.45</ele>
        <time>2023-06-09T10:06:20.823Z</time>
      </trkpt>
      <trkpt lat="47.05903" lon="0.09007">
        <ele>57.43</ele>
        <time>2023-06-09T10:06:44.588Z</time>
      </trkpt>
      <trkpt lat="47.05893" lon="0.09024">
        <ele>57.38</ele>
        <time>2023-06-09T10:07:08.355Z</time>
      </trkpt>
      <trkpt lat="47.05882" lon="0.09044">
        <ele>57.36</ele>
        <time>2023-06-09T10:07:32.125Z</time>
      </trkpt>
      <trkpt lat="47.05879" lon="0.09049">
        <ele>57.34</ele>
        <time>2023-06-09T10:07:55.896Z</time>
      </trkpt>
      <trkpt lat="47.05874" lon="0.09059">
        <ele>57.27</ele>
        <time>2023-06-09T10:08:19.668Z</time>
      </trkpt>
      <trkpt lat="47.05856" lon="0.0909">
        <ele>56.99</ele>
        <time>2023-06-09T10:08:43.445Z</time>
      </trkpt>
      <trkpt lat="47.05854" lon="0.09093">
        <ele>56.96</ele>
        <time>2023-06-09T10:09:07.222Z</time>
      </trkpt>
      <trkpt lat="47.05836" lon="0.09121">
        <ele>56.8</ele>
        <time>2023-06-09T10:09:31.003Z</time>
      </trkpt>
      <trkpt lat="47.05827" lon="0.09134">
        <ele>56.76</ele>
        <time>2023-06-09T10:09:54.786Z</time>
      </trkpt>
      <trkpt lat="47.05827" lon="0.09134">
        <ele>56.76</ele>
        <time>2023-06-09T10:10:18.569Z</time>
      </trkpt>
      <trkpt lat="47.05818" lon="0.09151">
        <ele>56.66</ele>
        <time>2023-06-09T10:10:42.355Z</time>
      </trkpt>
      <trkpt lat="47.05833" lon="0.09146">
        <ele>56.57</ele>
        <time>2023-06-09T10:11:06.143Z</time>
      </trkpt>
      <trkpt lat="47.05846" lon="0.09141">
        <ele>56.57</ele>
        <time>2023-06-09T10:11:29.933Z</time>
      </trkpt>
      <trkpt lat="47.05859" lon="0.09136">
        <ele>56.64</ele>
        <time>2023-06-09T10:11:53.725Z</time>
      </trkpt>
      <trkpt lat="47.05869" lon="0.09165">
        <ele>56.77</ele>
        <time>2023-06-09T10:12:17.521Z</time>
      </trkpt>
      <trkpt lat="47.0589" lon="0.09223">
        <ele>56.91</ele>
        <time>2023-06-09T10:12:41.324Z</time>
      </trkpt>
      <trkpt lat="47.05903" lon="0.09259">
        <ele>56.96</ele>
        <time>2023-06-09T10:13:05.131Z</time>
      </trkpt>
      <trkpt lat="47.05907" lon="0.0927">
        <ele>57</ele>
        <time>2023-06-09T10:13:28.940Z</time>
      </trkpt>
      <trkpt lat="47.05911" lon="0.09282">
        <ele>57.07</ele>
        <time>2023-06-09T10:13:52.750Z</time>
      </trkpt>
      <trkpt lat="47.05913" lon="0.09287">
        <ele>57.1</ele>
        <time>2023-06-09T10:14:16.561Z</time>
      </trkpt>
      <trkpt lat="47.05919" lon="0.09313">
        <ele>57.29</ele>
        <time>2023-06-09T10:14:40.375Z</time>
      </trkpt>
      <trkpt lat="47.05929" lon="0.09357">
        <ele>57.71</ele>
        <time>2023-06-09T10:15:04.194Z</time>
      </trkpt>
      <trkpt lat="47.05932" lon="0.09369">
        <ele>57.81</ele>
        <time>2023-06-09T10:15:28.014Z</time>
      </trkpt>
      <trkpt lat="47.05938" lon="0.09398">
        <ele>57.98</ele>
        <time>2023-06-09T10:15:51.838Z</time>
      </trkpt>
      <trkpt lat="47.05944" lon="0.09419">
        <ele>58.12</ele>
        <time>2023-06-09T10:16:15.664Z</time>
      </trkpt>
      <trkpt lat="47.05947" lon="0.09429">
        <ele>58.17</ele>
        <time>2023-06-09T10:16:39.491Z</time>
      </trkpt>
      <trkpt lat="47.0595" lon="0.09436">
        <ele>58.21</ele>
        <time>2023-06-09T10:17:03.319Z</time>
      </trkpt>
      <trkpt lat="47.05956" lon="0.09454">
        <ele>58.23</ele>
        <time>2023-06-09T10:17:27.150Z</time>
      </trkpt>
      <trkpt lat="47.05967" lon="0.09483">
        <ele>58.22</ele>
        <time>2023-06-09T10:17:50.984Z</time>
      </trkpt>
      <trkpt lat="47.05978" lon="0.09511">
        <ele>58.31</ele>
        <time>2023-06-09T10:18:14.822Z</time>
      </trkpt>
      <trkpt lat="47.05989" lon="0.0954">
        <ele>58.33</ele>
        <time>2023-06-09T10:18:38.663Z</time>
      </trkpt>
      <trkpt lat="47.06" lon="0.09569">
        <ele>58.5</ele>
        <time>2023-06-09T10:19:02.508Z</time>
      </trkpt>
      <trkpt lat="47.06007" lon="0.09586">
        <ele>58.57</ele>
        <time>2023-06-09T10:19:26.355Z</time>
      </trkpt>
      <trkpt lat="47.06011" lon="0.09598">
        <ele>58.58</ele>
        <time>2023-06-09T10:19:50.204Z</time>
      </trkpt>
      <trkpt lat="47.06018" lon="0.09615">
        <ele>58.56</ele>
        <time>2023-06-09T10:20:14.055Z</time>
      </trkpt>
      <trkpt lat="47.06019" lon="0.09619">
        <ele>58.56</ele>
        <time>2023-06-09T10:20:37.906Z</time>
      </trkpt>
      <trkpt lat="47.06022" lon="0.09627">
        <ele>58.57</ele>
        <time>2023-06-09T10:21:01.758Z</time>
      </trkpt>
      <trkpt lat="47.06036" lon="0.0966">
        <ele>58.76</ele>
        <time>2023-06-09T10:21:25.614Z</time>
      </trkpt>
      <trkpt lat="47.06048" lon="0.09689">
        <ele>58.86</ele>
        <time>2023-06-09T10:21:49.474Z</time>
      </trkpt>
      <trkpt lat="47.06064" lon="0.09728">
        <ele>59.11</ele>
        <time>2023-06-09T10:22:13.339Z</time>
      </trkpt>
      <trkpt lat="47.06071" lon="0.09745">
        <ele>59.2</ele>
        <time>2023-06-09T10:22:37.206Z</time>
      </trkpt>
      <trkpt lat="47.06078" lon="0.09762">
        <ele>59.47</ele>
        <time>2023-06-09T10:23:01.075Z</time>
      </trkpt>
      <trkpt lat="47.06083" lon="0.09773">
        <ele>59.51</ele>
        <time>2023-06-09T10:23:24.946Z</time>
      </trkpt>
      <trkpt lat="47.06085" lon="0.09779">
        <ele>59.51</ele>
        <time>2023-06-09T10:23:48.818Z</time>
      </trkpt>
      <trkpt lat="47.06088" lon="0.09784">
        <ele>59.52</ele>
        <time>2023-06-09T10:24:12.690Z</time>
      </trkpt>
      <trkpt lat="47.06093" lon="0.09794">
        <ele>59.49</ele>
        <time>2023-06-09T10:24:36.564Z</time>
      </trkpt>
      <trkpt lat="47.06113" lon="0.09792">
        <ele>59.42</ele>
        <time>2023-06-09T10:25:00.441Z</time>
      </trkpt>
      <trkpt lat="47.0612" lon="0.0979">
        <ele>59.4</ele>
        <time>2023-06-09T10:25:24.319Z</time>
      </trkpt>
      <trkpt lat="47.06133" lon="0.09786">
        <ele>59.32</ele>
        <time>2023-06-09T10:25:48.199Z</time>
      </trkpt>
      <trkpt lat="47.06146" lon="0.09782">
        <ele>59.2</ele>
        <time>2023-06-09T10:26:12.081Z</time>
      </trkpt>
      <trkpt lat="47.06168" lon="0.09777">
        <ele>59.02</ele>
        <time>2023-06-09T10:26:35.967Z</time>
      </trkpt>
      <trkpt lat="47.06177" lon="0.09775">
        <ele>58.92</ele>
        <time>2023-06-09T10:26:59.854Z</time>
      </trkpt>
      <trkpt lat="47.06187" lon="0.09772">
        <ele>58.78</ele>
        <time>2023-06-09T10:27:23.743Z</time>
      </trkpt>
      <trkpt lat="47.0619" lon="0.09771">
        <ele>58.75</ele>
        <time>2023-06-09T10:27:47.632Z</time>
      </trkpt>
      <trkpt lat="47.06207" lon="0.09763">
        <ele>58.48</ele>
        <time>2023-06-09T10:28:11.524Z</time>
      </trkpt>
      <trkpt lat="47.0622" lon="0.09758">
        <ele>58.3</ele>
        <time>2023-06-09T10:28:35.418Z</time>
      </trkpt>
      <trkpt lat="47.06233" lon="0.09752">
        <ele>58.09</ele>
        <time>2023-06-09T10:28:59.315Z</time>
      </trkpt>
      <trkpt lat="47.06235" lon="0.09751">
        <ele>58.03</ele>
        <time>2023-06-09T10:29:23.212Z</time>
      </trkpt>
      <trkpt lat="47.06245" lon="0.09746">
        <ele>57.8</ele>
        <time>2023-06-09T10:29:47.111Z</time>
      </trkpt>
      <trkpt lat="47.06279" lon="0.09729">
        <ele>56.93</ele>
        <time>2023-06-09T10:30:11.015Z</time>
      </trkpt>
      <trkpt lat="47.06288" lon="0.09725">
        <ele>56.75</ele>
        <time>2023-06-09T10:30:34.921Z</time>
      </trkpt>
      <trkpt lat="47.06296" lon="0.09721">
        <ele>56.61</ele>
        <time>2023-06-09T10:30:58.828Z</time>
      </trkpt>
      <trkpt lat="47.06329" lon="0.09705">
        <ele>56.16</ele>
        <time>2023-06-09T10:31:22.741Z</time>
      </trkpt>
      <trkpt lat="47.0633" lon="0.09705">
        <ele>56.15</ele>
        <time>2023-06-09T10:31:46.654Z</time>
      </trkpt>
      <trkpt lat="47.06353" lon="0.09698">
        <ele>55.86</ele>
        <time>2023-06-09T10:32:10.571Z</time>
      </trkpt>
      <trkpt lat="47.06374" lon="0.09696">
        <ele>55.61</ele>
        <time>2023-06-09T10:32:34.491Z</time>
      </trkpt>
      <trkpt lat="47.06387" lon="0.09697">
        <ele>55.46</ele>
        <time>2023-06-09T10:32:58.413Z</time>
      </trkpt>
      <trkpt lat="47.0641" lon="0.09698">
        <ele>55.16</ele>
        <time>2023-06-09T10:33:22.339Z</time>
      </trkpt>
      <trkpt lat="47.06436" lon="0.097">
        <ele>54.88</ele>
        <time>2023-06-09T10:33:46.269Z</time>
      </trkpt>
      <trkpt lat="47.06441" lon="0.097">
        <ele>54.81</ele>
        <time>2023-06-09T10:34:10.200Z</time>
      </trkpt>
      <trkpt lat="47.06463" lon="0.09702">
        <ele>54.53</ele>
        <time>2023-06-09T10:34:34.134Z</time>
      </trkpt>
      <trkpt lat="47.06481" lon="0.09704">
        <ele>54.24</ele>
        <time>2023-06-09T10:34:58.071Z</time>
      </trkpt>
      <trkpt lat="47.06494" lon="0.09705">
        <ele>54.1</ele>
        <time>2023-06-09T10:35:22.010Z</time>
      </trkpt>
      <trkpt lat="47.06516" lon="0.09707">
        <ele>53.92</ele>
        <time>2023-06-09T10:35:45.953Z</time>
      </trkpt>
      <trkpt lat="47.06539" lon="0.09709">
        <ele>53.71</ele>
        <time>2023-06-09T10:36:09.900Z</time>
      </trkpt>
      <trkpt lat="47.06547" lon="0.0971">
        <ele>53.55</ele>
        <time>2023-06-09T10:36:33.848Z</time>
      </trkpt>
      <trkpt lat="47.06566" lon="0.09712">
        <ele>53.31</ele>
        <time>2023-06-09T10:36:57.799Z</time>
      </trkpt>
      <trkpt lat="47.0657" lon="0.09712">
        <ele>53.27</ele>
        <time>2023-06-09T10:37:21.751Z</time>
      </trkpt>
      <trkpt lat="47.06579" lon="0.09711">
        <ele>53.19</ele>
        <time>2023-06-09T10:37:45.704Z</time>
      </trkpt>
      <trkpt lat="47.06591" lon="0.09711">
        <ele>53.1</ele>
        <time>2023-06-09T10:38:09.659Z</time>
      </trkpt>
      <trkpt lat="47.06596" lon="0.0971">
        <ele>53.07</ele>
        <time>2023-06-09T10:38:33.615Z</time>
      </trkpt>
      <trkpt lat="47.06623" lon="0.09707">
        <ele>52.72</ele>
        <time>2023-06-09T10:38:57.575Z</time>
      </trkpt>
      <trkpt lat="47.06632" lon="0.09706">
        <ele>52.65</ele>
        <time>2023-06-09T10:39:21.537Z</time>
      </trkpt>
      <trkpt lat="47.06658" lon="0.09702">
        <ele>52.56</ele>
        <time>2023-06-09T10:39:45.503Z</time>
      </trkpt>
      <trkpt lat="47.06667" lon="0.09701">
        <ele>52.5</ele>
        <time>2023-06-09T10:40:09.470Z</time>
      </trkpt>
      <trkpt lat="47.06672" lon="0.097">
        <ele>52.45</ele>
        <time>2023-06-09T10:40:33.438Z</time>
      </trkpt>
      <trkpt lat="47.06694" lon="0.09697">
        <ele>52.13</ele>
        <time>2023-06-09T10:40:57.409Z</time>
      </trkpt>
      <trkpt lat="47.06711" lon="0.09695">
        <ele>51.99</ele>
        <time>2023-06-09T10:41:21.383Z</time>
      </trkpt>
      <trkpt lat="47.06725" lon="0.09695">
        <ele>51.88</ele>
        <time>2023-06-09T10:41:45.359Z</time>
      </trkpt>
      <trkpt lat="47.06752" lon="0.09694">
        <ele>51.51</ele>
        <time>2023-06-09T10:42:09.340Z</time>
      </trkpt>
      <trkpt lat="47.06761" lon="0.09694">
        <ele>51.45</ele>
        <time>2023-06-09T10:42:33.322Z</time>
      </trkpt>
      <trkpt lat="47.06774" lon="0.09693">
        <ele>51.39</ele>
        <time>2023-06-09T10:42:57.306Z</time>
      </trkpt>
      <trkpt lat="47.06783" lon="0.09693">
        <ele>51.31</ele>
        <time>2023-06-09T10:43:21.292Z</time>
      </trkpt>
      <trkpt lat="47.06785" lon="0.09693">
        <ele>51.28</ele>
        <time>2023-06-09T10:43:45.278Z</time>
      </trkpt>
      <trkpt lat="47.06792" lon="0.09692">
        <ele>51.2</ele>
        <time>2023-06-09T10:44:09.265Z</time>
      </trkpt>
      <trkpt lat="47.06814" lon="0.09689">
        <ele>50.87</ele>
        <time>2023-06-09T10:44:33.256Z</time>
      </trkpt>
      <trkpt lat="47.06823" lon="0.09688">
        <ele>50.76</ele>
        <time>2023-06-09T10:44:57.248Z</time>
      </trkpt>
      <trkpt lat="47.06832" lon="0.09687">
        <ele>50.67</ele>
        <time>2023-06-09T10:45:21.242Z</time>
      </trkpt>
      <trkpt lat="47.06867" lon="0.09683">
        <ele>50.4</ele>
        <time>2023-06-09T10:45:45.241Z</time>
      </trkpt>
      <trkpt lat="47.06894" lon="0.0968">
        <ele>50.12</ele>
        <time>2023-06-09T10:46:09.245Z</time>
      </trkpt>
      <trkpt lat="47.0692" lon="0.09676">
        <ele>49.7</ele>
        <time>2023-06-09T10:46:33.253Z</time>
      </trkpt>
      <trkpt lat="47.06934" lon="0.09675">
        <ele>49.55</ele>
        <time>2023-06-09T10:46:57.263Z</time>
      </trkpt>
      <trkpt lat="47.06943" lon="0.09674">
        <ele>49.54</ele>
        <time>2023-06-09T10:47:21.274Z</time>
      </trkpt>
      <trkpt lat="47.06957" lon="0.09672">
        <ele>49.61</ele>
        <time>2023-06-09T10:47:45.288Z</time>
      </trkpt>
      <trkpt lat="47.0696" lon="0.09672">
        <ele>49.63</ele>
        <time>2023-06-09T10:48:09.302Z</time>
      </trkpt>
      <trkpt lat="47.06974" lon="0.09673">
        <ele>49.64</ele>
        <time>2023-06-09T10:48:33.318Z</time>
      </trkpt>
      <trkpt lat="47.06983" lon="0.09674">
        <ele>49.58</ele>
        <time>2023-06-09T10:48:57.336Z</time>
      </trkpt>
      <trkpt lat="47.06996" lon="0.09675">
        <ele>49.42</ele>
        <time>2023-06-09T10:49:21.356Z</time>
      </trkpt>
      <trkpt lat="47.07005" lon="0.09676">
        <ele>49.42</ele>
        <time>2023-06-09T10:49:45.377Z</time>
      </trkpt>
      <trkpt lat="47.07009" lon="0.09676">
        <ele>49.44</ele>
        <time>2023-06-09T10:50:09.399Z</time>
      </trkpt>
      <trkpt lat="47.07032" lon="0.09678">
        <ele>49.63</ele>
        <time>2023-06-09T10:50:33.425Z</time>
      </trkpt>
      <trkpt lat="47.07041" lon="0.09679">
        <ele>49.67</ele>
        <time>2023-06-09T10:50:57.452Z</time>
      </trkpt>
      <trkpt lat="47.07045" lon="0.09679">
        <ele>49.68</ele>
        <time>2023-06-09T10:51:21.480Z</time>
      </trkpt>
      <trkpt lat="47.07052" lon="0.0968">
        <ele>49.66</ele>
        <time>2023-06-09T10:51:45.509Z</time>
      </trkpt>
      <trkpt lat="47.07063" lon="0.09683">
        <ele>49.64</ele>
        <time>2023-06-09T10:52:09.540Z</time>
      </trkpt>
      <trkpt lat="47.07076" lon="0.09688">
        <ele>49.67</ele>
        <time>2023-06-09T10:52:33.573Z</time>
      </trkpt>
      <trkpt lat="47.07085" lon="0.0969">
        <ele>49.73</ele>
        <time>2023-06-09T10:52:57.607Z</time>
      </trkpt>
      <trkpt lat="47.07102" lon="0.09696">
        <ele>49.9</ele>
        <time>2023-06-09T10:53:21.644Z</time>
      </trkpt>
      <trkpt lat="47.07102" lon="0.09696">
        <ele>49.9</ele>
        <time>2023-06-09T10:53:45.681Z</time>
      </trkpt>
      <trkpt lat="47.07111" lon="0.097">
        <ele>50.01</ele>
        <time>2023-06-09T10:54:09.720Z</time>
      </trkpt>
      <trkpt lat="47.0712" lon="0.09703">
        <ele>50.16</ele>
        <time>2023-06-09T10:54:33.760Z</time>
      </trkpt>
      <trkpt lat="47.07145" lon="0.09714">
        <ele>50.72</ele>
        <time>2023-06-09T10:54:57.804Z</time>
      </trkpt>
      <trkpt lat="47.0715" lon="0.09715">
        <ele>50.78</ele>
        <time>2023-06-09T10:55:21.849Z</time>
      </trkpt>
      <trkpt lat="47.07154" lon="0.09717">
        <ele>50.81</ele>
        <time>2023-06-09T10:55:45.895Z</time>
      </trkpt>
      <trkpt lat="47.07167" lon="0.09723">
        <ele>50.84</ele>
        <time>2023-06-09T10:56:09.943Z</time>
      </trkpt>
      <trkpt lat="47.07176" lon="0.09726">
        <ele>50.9</ele>
        <time>2023-06-09T10:56:33.992Z</time>
      </trkpt>
      <trkpt lat="47.07189" lon="0.09731">
        <ele>51.04</ele>
        <time>2023-06-09T10:56:58.044Z</time>
      </trkpt>
      <trkpt lat="47.07227" lon="0.09747">
        <ele>51.55</ele>
        <time>2023-06-09T10:57:22.102Z</time>
      </trkpt>
      <trkpt lat="47.07236" lon="0.09751">
        <ele>51.68</ele>
        <time>2023-06-09T10:57:46.161Z</time>
      </trkpt>
      <trkpt lat="47.07258" lon="0.0976">
        <ele>52.15</ele>
        <time>2023-06-09T10:58:10.224Z</time>
      </trkpt>
      <trkpt lat="47.07271" lon="0.09765">
        <ele>52.19</ele>
        <time>2023-06-09T10:58:34.289Z</time>
      </trkpt>
      <trkpt lat="47.07279" lon="0.0977">
        <ele>52.22</ele>
        <time>2023-06-09T10:58:58.356Z</time>
      </trkpt>
      <trkpt lat="47.07283" lon="0.09773">
        <ele>52.24</ele>
        <time>2023-06-09T10:59:22.423Z</time>
      </trkpt>
      <trkpt lat="47.0728" lon="0.09778">
        <ele>52.27</ele>
        <time>2023-06-09T10:59:46.491Z</time>
      </trkpt>
      <trkpt lat="47.07274" lon="0.09789">
        <ele>52.38</ele>
        <time>2023-06-09T11:00:10.561Z</time>
      </trkpt>
      <trkpt lat="47.07265" lon="0.09821">
        <ele>52.64</ele>
        <time>2023-06-09T11:00:34.634Z</time>
      </trkpt>
      <trkpt lat="47.07263" lon="0.09831">
        <ele>52.72</ele>
        <time>2023-06-09T11:00:58.708Z</time>
      </trkpt>
      <trkpt lat="47.0726" lon="0.09843">
        <ele>52.87</ele>
        <time>2023-06-09T11:01:22.784Z</time>
      </trkpt>
      <trkpt lat="47.07256" lon="0.09862">
        <ele>53.17</ele>
        <time>2023-06-09T11:01:46.862Z</time>
      </trkpt>
      <trkpt lat="47.07245" lon="0.09912">
        <ele>54.12</ele>
        <time>2023-06-09T11:02:10.946Z</time>
      </trkpt>
      <trkpt lat="47.07243" lon="0.09925">
        <ele>54.39</ele>
        <time>2023-06-09T11:02:35.031Z</time>
      </trkpt>
      <trkpt lat="47.07241" lon="0.09931">
        <ele>54.55</ele>
        <time>2023-06-09T11:02:59.117Z</time>
      </trkpt>
      <trkpt lat="47.07236" lon="0.09956">
        <ele>55.25</ele>
        <time>2023-06-09T11:03:23.206Z</time>
      </trkpt>
      <trkpt lat="47.07233" lon="0.09969">
        <ele>55.62</ele>
        <time>2023-06-09T11:03:47.296Z</time>
      </trkpt>
      <trkpt lat="47.0723" lon="0.09981">
        <ele>56.04</ele>
        <time>2023-06-09T11:04:11.388Z</time>
      </trkpt>
      <trkpt lat="47.07226" lon="0.1">
        <ele>56.77</ele>
        <time>2023-06-09T11:04:35.482Z</time>
      </trkpt>
      <trkpt lat="47.07217" lon="0.10044">
        <ele>58.34</ele>
        <time>2023-06-09T11:04:59.581Z</time>
      </trkpt>
      <trkpt lat="47.07214" lon="0.10056">
        <ele>58.74</ele>
        <time>2023-06-09T11:05:23.681Z</time>
      </trkpt>
      <trkpt lat="47.07212" lon="0.10069">
        <ele>59.1</ele>
        <time>2023-06-09T11:05:47.783Z</time>
      </trkpt>
      <trkpt lat="47.07203" lon="0.10107">
        <ele>59.69</ele>
        <time>2023-06-09T11:06:11.889Z</time>
      </trkpt>
      <trkpt lat="47.07199" lon="0.10125">
        <ele>59.93</ele>
        <time>2023-06-09T11:06:35.997Z</time>
      </trkpt>
      <trkpt lat="47.07195" lon="0.10146">
        <ele>60.11</ele>
        <time>2023-06-09T11:07:00.108Z</time>
      </trkpt>
      <trkpt lat="47.07185" lon="0.10215">
        <ele>60.73</ele>
        <time>2023-06-09T11:07:24.226Z</time>
      </trkpt>
      <trkpt lat="47.07183" lon="0.10234">
        <ele>60.87</ele>
        <time>2023-06-09T11:07:48.347Z</time>
      </trkpt>
      <trkpt lat="47.07179" lon="0.1026">
        <ele>60.95</ele>
        <time>2023-06-09T11:08:12.470Z</time>
      </trkpt>
      <trkpt lat="47.07174" lon="0.10292">
        <ele>61.02</ele>
        <time>2023-06-09T11:08:36.597Z</time>
      </trkpt>
      <trkpt lat="47.07171" lon="0.10318">
        <ele>61.01</ele>
        <time>2023-06-09T11:09:00.727Z</time>
      </trkpt>
      <trkpt lat="47.07167" lon="0.10344">
        <ele>61.07</ele>
        <time>2023-06-09T11:09:24.860Z</time>
      </trkpt>
      <trkpt lat="47.07164" lon="0.1037">
        <ele>61.05</ele>
        <time>2023-06-09T11:09:48.996Z</time>
      </trkpt>
      <trkpt lat="47.0716" lon="0.10396">
        <ele>61.09</ele>
        <time>2023-06-09T11:10:13.135Z</time>
      </trkpt>
      <trkpt lat="47.07156" lon="0.10428">
        <ele>61.02</ele>
        <time>2023-06-09T11:10:37.277Z</time>
      </trkpt>
      <trkpt lat="47.07152" lon="0.10453">
        <ele>61.09</ele>
        <time>2023-06-09T11:11:01.422Z</time>
      </trkpt>
      <trkpt lat="47.0715" lon="0.10467">
        <ele>61.1</ele>
        <time>2023-06-09T11:11:25.569Z</time>
      </trkpt>
      <trkpt lat="47.07148" lon="0.10479">
        <ele>61.11</ele>
        <time>2023-06-09T11:11:49.717Z</time>
      </trkpt>
      <trkpt lat="47.07146" lon="0.10492">
        <ele>61.16</ele>
        <time>2023-06-09T11:12:13.866Z</time>
      </trkpt>
      <trkpt lat="47.07143" lon="0.10505">
        <ele>61.24</ele>
        <time>2023-06-09T11:12:38.017Z</time>
      </trkpt>
      <trkpt lat="47.0714" lon="0.10524">
        <ele>61.42</ele>
        <time>2023-06-09T11:13:02.170Z</time>
      </trkpt>
      <trkpt lat="47.07134" lon="0.10556">
        <ele>61.58</ele>
        <time>2023-06-09T11:13:26.327Z</time>
      </trkpt>
      <trkpt lat="47.07132" lon="0.10568">
        <ele>61.67</ele>
        <time>2023-06-09T11:13:50.485Z</time>
      </trkpt>
      <trkpt lat="47.0713" lon="0.10581">
        <ele>61.8</ele>
        <time>2023-06-09T11:14:14.644Z</time>
      </trkpt>
      <trkpt lat="47.07129" lon="0.10587">
        <ele>61.87</ele>
        <time>2023-06-09T11:14:38.804Z</time>
      </trkpt>
      <trkpt lat="47.07122" lon="0.106">
        <ele>62.06</ele>
        <time>2023-06-09T11:15:02.966Z</time>
      </trkpt>
      <trkpt lat="47.0712" lon="0.10603">
        <ele>62.11</ele>
        <time>2023-06-09T11:15:27.128Z</time>
      </trkpt>
      <trkpt lat="47.07114" lon="0.10612">
        <ele>62.24</ele>
        <time>2023-06-09T11:15:51.292Z</time>
      </trkpt>
      <trkpt lat="47.07098" lon="0.10635">
        <ele>62.55</ele>
        <time>2023-06-09T11:16:15.459Z</time>
      </trkpt>
      <trkpt lat="47.07085" lon="0.10653">
        <ele>62.76</ele>
        <time>2023-06-09T11:16:39.629Z</time>
      </trkpt>
      <trkpt lat="47.07083" lon="0.10656">
        <ele>62.78</ele>
        <time>2023-06-09T11:17:03.800Z</time>
      </trkpt>
      <trkpt lat="47.07079" lon="0.10671">
        <ele>62.86</ele>
        <time>2023-06-09T11:17:27.972Z</time>
      </trkpt>
      <trkpt lat="47.07073" lon="0.10696">
        <ele>62.94</ele>
        <time>2023-06-09T11:17:52.147Z</time>
      </trkpt>
      <trkpt lat="47.07072" lon="0.10702">
        <ele>62.97</ele>
        <time>2023-06-09T11:18:16.323Z</time>
      </trkpt>
      <trkpt lat="47.0707" lon="0.10708">
        <ele>63</ele>
        <time>2023-06-09T11:18:40.500Z</time>
      </trkpt>
      <trkpt lat="47.07054" lon="0.10761">
        <ele>63.32</ele>
        <time>2023-06-09T11:19:04.683Z</time>
      </trkpt>
      <trkpt lat="47.07046" lon="0.10778">
        <ele>63.44</ele>
        <time>2023-06-09T11:19:28.868Z</time>
      </trkpt>
      <trkpt lat="47.07042" lon="0.10788">
        <ele>63.45</ele>
        <time>2023-06-09T11:19:53.055Z</time>
      </trkpt>
      <trkpt lat="47.0704" lon="0.10796">
        <ele>63.47</ele>
        <time>2023-06-09T11:20:17.242Z</time>
      </trkpt>
      <trkpt lat="47.07032" lon="0.10822">
        <ele>63.55</ele>
        <time>2023-06-09T11:20:41.433Z</time>
      </trkpt>
      <trkpt lat="47.07029" lon="0.10832">
        <ele>63.56</ele>
        <time>2023-06-09T11:21:05.625Z</time>
      </trkpt>
      <trkpt lat="47.07028" lon="0.1084">
        <ele>63.57</ele>
        <time>2023-06-09T11:21:29.818Z</time>
      </trkpt>
      <trkpt lat="47.07026" lon="0.10853">
        <ele>63.63</ele>
        <time>2023-06-09T11:21:54.012Z</time>
      </trkpt>
      <trkpt lat="47.07024" lon="0.10865">
        <ele>63.74</ele>
        <time>2023-06-09T11:22:18.208Z</time>
      </trkpt>
      <trkpt lat="47.07021" lon="0.10885">
        <ele>63.96</ele>
        <time>2023-06-09T11:22:42.406Z</time>
      </trkpt>
      <trkpt lat="47.07021" lon="0.10885">
        <ele>63.96</ele>
        <time>2023-06-09T11:23:06.604Z</time>
      </trkpt>
      <trkpt lat="47.0702" lon="0.10918">
        <ele>63.81</ele>
        <time>2023-06-09T11:23:30.805Z</time>
      </trkpt>
      <trkpt lat="47.07021" lon="0.10924">
        <ele>63.78</ele>
        <time>2023-06-09T11:23:55.007Z</time>
      </trkpt>
      <trkpt lat="47.07157" lon="0.10875">
        <ele>62.87</ele>
        <time>2023-06-09T11:24:19.231Z</time>
      </trkpt>
      <trkpt lat="47.07174" lon="0.10873">
        <ele>62.76</ele>
        <time>2023-06-09T11:24:43.458Z</time>
      </trkpt>
      <trkpt lat="47.07246" lon="0.10883">
        <ele>62.29</ele>
        <time>2023-06-09T11:25:07.697Z</time>
      </trkpt>
      <trkpt lat="47.07339" lon="0.10901">
        <ele>61.68</ele>
        <time>2023-06-09T11:25:31.951Z</time>
      </trkpt>
      <trkpt lat="47.07369" lon="0.1091">
        <ele>61.48</ele>
        <time>2023-06-09T11:25:56.210Z</time>
      </trkpt>
      <trkpt lat="47.07396" lon="0.10921">
        <ele>61.3</ele>
        <time>2023-06-09T11:26:20.473Z</time>
      </trkpt>
      <trkpt lat="47.07453" lon="0.1095">
        <ele>60.91</ele>
        <time>2023-06-09T11:26:44.746Z</time>
      </trkpt>
      <trkpt lat="47.07586" lon="0.1099">
        <ele>60.02</ele>
        <time>2023-06-09T11:27:09.041Z</time>
      </trkpt>
      <trkpt lat="47.07635" lon="0.11009">
        <ele>59.69</ele>
        <time>2023-06-09T11:27:33.344Z</time>
      </trkpt>
      <trkpt lat="47.07656" lon="0.11022">
        <ele>59.55</ele>
        <time>2023-06-09T11:27:57.650Z</time>
      </trkpt>
      <trkpt lat="47.07687" lon="0.11052">
        <ele>59.31</ele>
        <time>2023-06-09T11:28:21.962Z</time>
      </trkpt>
      <trkpt lat="47.0775" lon="0.1112">
        <ele>58.8</ele>
        <time>2023-06-09T11:28:46.287Z</time>
      </trkpt>
      <trkpt lat="47.07805" lon="0.11186">
        <ele>58.34</ele>
        <time>2023-06-09T11:29:10.623Z</time>
      </trkpt>
      <trkpt lat="47.07813" lon="0.11195">
        <ele>58.24</ele>
        <time>2023-06-09T11:29:34.961Z</time>
      </trkpt>
      <trkpt lat="47.07817" lon="0.11204">
        <ele>58.18</ele>
        <time>2023-06-09T11:29:59.300Z</time>
      </trkpt>
      <trkpt lat="47.07823" lon="0.11216">
        <ele>58.11</ele>
        <time>2023-06-09T11:30:23.641Z</time>
      </trkpt>
      <trkpt lat="47.0784" lon="0.11216">
        <ele>58</ele>
        <time>2023-06-09T11:30:47.984Z</time>
      </trkpt>
      <trkpt lat="47.0784" lon="0.11216">
        <ele>58</ele>
        <time>2023-06-09T11:31:12.327Z</time>
      </trkpt>
      <trkpt lat="47.07848" lon="0.11214">
        <ele>57.88</ele>
        <time>2023-06-09T11:31:36.672Z</time>
      </trkpt>
      <trkpt lat="47.07868" lon="0.11211">
        <ele>57.56</ele>
        <time>2023-06-09T11:32:01.020Z</time>
      </trkpt>
      <trkpt lat="47.0787" lon="0.1121">
        <ele>57.53</ele>
        <time>2023-06-09T11:32:25.368Z</time>
      </trkpt>
      <trkpt lat="47.07883" lon="0.11206">
        <ele>57.39</ele>
        <time>2023-06-09T11:32:49.718Z</time>
      </trkpt>
      <trkpt lat="47.0789" lon="0.11204">
        <ele>57.36</ele>
        <time>2023-06-09T11:33:14.069Z</time>
      </trkpt>
      <trkpt lat="47.07907" lon="0.11187">
        <ele>57.29</ele>
        <time>2023-06-09T11:33:38.424Z</time>
      </trkpt>
      <trkpt lat="47.07911" lon="0.11197">
        <ele>57.26</ele>
        <time>2023-06-09T11:34:02.780Z</time>
      </trkpt>
      <trkpt lat="47.07912" lon="0.1121">
        <ele>57.23</ele>
        <time>2023-06-09T11:34:27.137Z</time>
      </trkpt>
      <trkpt lat="47.0791" lon="0.11251">
        <ele>57.14</ele>
        <time>2023-06-09T11:34:51.499Z</time>
      </trkpt>
      <trkpt lat="47.07912" lon="0.11269">
        <ele>57.09</ele>
        <time>2023-06-09T11:35:15.863Z</time>
      </trkpt>
      <trkpt lat="47.07919" lon="0.11301">
        <ele>57.02</ele>
        <time>2023-06-09T11:35:40.231Z</time>
      </trkpt>
      <trkpt lat="47.07915" lon="0.11351">
        <ele>56.9</ele>
        <time>2023-06-09T11:36:04.604Z</time>
      </trkpt>
      <trkpt lat="47.07912" lon="0.11366">
        <ele>56.86</ele>
        <time>2023-06-09T11:36:28.979Z</time>
      </trkpt>
      <trkpt lat="47.07872" lon="0.11446">
        <ele>56.63</ele>
        <time>2023-06-09T11:36:53.365Z</time>
      </trkpt>
      <trkpt lat="47.07856" lon="0.11473">
        <ele>56.55</ele>
        <time>2023-06-09T11:37:17.755Z</time>
      </trkpt>
      <trkpt lat="47.07823" lon="0.11522">
        <ele>56.39</ele>
        <time>2023-06-09T11:37:42.152Z</time>
      </trkpt>
      <trkpt lat="47.07819" lon="0.1153">
        <ele>56.36</ele>
        <time>2023-06-09T11:38:06.550Z</time>
      </trkpt>
      <trkpt lat="47.07819" lon="0.11537">
        <ele>56.35</ele>
        <time>2023-06-09T11:38:30.949Z</time>
      </trkpt>
      <trkpt lat="47.07859" lon="0.1158">
        <ele>56.18</ele>
        <time>2023-06-09T11:38:55.356Z</time>
      </trkpt>
      <trkpt lat="47.07964" lon="0.11683">
        <ele>55.75</ele>
        <time>2023-06-09T11:39:19.783Z</time>
      </trkpt>
      <trkpt lat="47.07999" lon="0.11705">
        <ele>55.62</ele>
        <time>2023-06-09T11:39:44.216Z</time>
      </trkpt>
      <trkpt lat="47.08035" lon="0.11721">
        <ele>55.49</ele>
        <time>2023-06-09T11:40:08.655Z</time>
      </trkpt>
      <trkpt lat="47.08152" lon="0.11749">
        <ele>55.08</ele>
        <time>2023-06-09T11:40:33.113Z</time>
      </trkpt>
      <trkpt lat="47.08206" lon="0.11772">
        <ele>54.89</ele>
        <time>2023-06-09T11:40:57.580Z</time>
      </trkpt>
      <trkpt lat="47.08215" lon="0.11777">
        <ele>54.86</ele>
        <time>2023-06-09T11:41:22.049Z</time>
      </trkpt>
      <trkpt lat="47.0832" lon="0.11831">
        <ele>54.08</ele>
        <time>2023-06-09T11:41:46.536Z</time>
      </trkpt>
      <trkpt lat="47.08434" lon="0.11884">
        <ele>53.25</ele>
        <time>2023-06-09T11:42:11.042Z</time>
      </trkpt>
      <trkpt lat="47.08723" lon="0.12108">
        <ele>50.97</ele>
        <time>2023-06-09T11:42:35.600Z</time>
      </trkpt>
      <trkpt lat="47.08763" lon="0.12138">
        <ele>50.66</ele>
        <time>2023-06-09T11:43:00.165Z</time>
      </trkpt>
      <trkpt lat="47.08778" lon="0.12149">
        <ele>50.58</ele>
        <time>2023-06-09T11:43:24.733Z</time>
      </trkpt>
      <trkpt lat="47.08787" lon="0.12156">
        <ele>50.55</ele>
        <time>2023-06-09T11:43:49.303Z</time>
      </trkpt>
      <trkpt lat="47.08792" lon="0.1213">
        <ele>50.5</ele>
        <time>2023-06-09T11:44:13.875Z</time>
      </trkpt>
      <trkpt lat="47.088" lon="0.12092">
        <ele>50.49</ele>
        <time>2023-06-09T11:44:38.452Z</time>
      </trkpt>
      <trkpt lat="47.08809" lon="0.12079">
        <ele>50.49</ele>
        <time>2023-06-09T11:45:03.031Z</time>
      </trkpt>
      <trkpt lat="47.08838" lon="0.12018">
        <ele>50.47</ele>
        <time>2023-06-09T11:45:27.618Z</time>
      </trkpt>
      <trkpt lat="47.08864" lon="0.11978">
        <ele>50.46</ele>
        <time>2023-06-09T11:45:52.211Z</time>
      </trkpt>
      <trkpt lat="47.0903" lon="0.11696">
        <ele>50.4</ele>
        <time>2023-06-09T11:46:16.845Z</time>
      </trkpt>
      <trkpt lat="47.09046" lon="0.11673">
        <ele>50.39</ele>
        <time>2023-06-09T11:46:41.482Z</time>
      </trkpt>
      <trkpt lat="47.09067" lon="0.11632">
        <ele>50.39</ele>
        <time>2023-06-09T11:47:06.125Z</time>
      </trkpt>
      <trkpt lat="47.09069" lon="0.11627">
        <ele>50.46</ele>
        <time>2023-06-09T11:47:30.769Z</time>
      </trkpt>
      <trkpt lat="47.09072" lon="0.11622">
        <ele>50.51</ele>
        <time>2023-06-09T11:47:55.413Z</time>
      </trkpt>
      <trkpt lat="47.09075" lon="0.11617">
        <ele>50.52</ele>
        <time>2023-06-09T11:48:20.058Z</time>
      </trkpt>
      <trkpt lat="47.09083" lon="0.116">
        <ele>50.46</ele>
        <time>2023-06-09T11:48:44.705Z</time>
      </trkpt>
      <trkpt lat="47.0909" lon="0.11605">
        <ele>50.44</ele>
        <time>2023-06-09T11:49:09.354Z</time>
      </trkpt>
      <trkpt lat="47.09106" lon="0.11617">
        <ele>50.35</ele>
        <time>2023-06-09T11:49:34.005Z</time>
      </trkpt>
      <trkpt lat="47.09122" lon="0.11629">
        <ele>50.3</ele>
        <time>2023-06-09T11:49:58.659Z</time>
      </trkpt>
      <trkpt lat="47.0913" lon="0.11634">
        <ele>50.21</ele>
        <time>2023-06-09T11:50:23.315Z</time>
      </trkpt>
      <trkpt lat="47.09146" lon="0.11646">
        <ele>49.96</ele>
        <time>2023-06-09T11:50:47.974Z</time>
      </trkpt>
      <trkpt lat="47.09153" lon="0.11651">
        <ele>49.88</ele>
        <time>2023-06-09T11:51:12.634Z</time>
      </trkpt>
      <trkpt lat="47.09158" lon="0.11655">
        <ele>49.83</ele>
        <time>2023-06-09T11:51:37.295Z</time>
      </trkpt>
      <trkpt lat="47.0919" lon="0.11683">
        <ele>49.59</ele>
        <time>2023-06-09T11:52:01.962Z</time>
      </trkpt>
      <trkpt lat="47.09196" lon="0.11691">
        <ele>49.54</ele>
        <time>2023-06-09T11:52:26.630Z</time>
      </trkpt>
      <trkpt lat="47.09208" lon="0.11708">
        <ele>49.35</ele>
        <time>2023-06-09T11:52:51.301Z</time>
      </trkpt>
      <trkpt lat="47.09212" lon="0.11714">
        <ele>49.3</ele>
        <time>2023-06-09T11:53:15.973Z</time>
      </trkpt>
      <trkpt lat="47.09223" lon="0.11734">
        <ele>49.18</ele>
        <time>2023-06-09T11:53:40.647Z</time>
      </trkpt>
      <trkpt lat="47.09261" lon="0.11798">
        <ele>48.66</ele>
        <time>2023-06-09T11:54:05.331Z</time>
      </trkpt>
      <trkpt lat="47.09273" lon="0.11818">
        <ele>48.39</ele>
        <time>2023-06-09T11:54:30.018Z</time>
      </trkpt>
      <trkpt lat="47.09282" lon="0.11833">
        <ele>48.2</ele>
        <time>2023-06-09T11:54:54.707Z</time>
      </trkpt>
      <trkpt lat="47.09292" lon="0.11847">
        <ele>48.03</ele>
        <time>2023-06-09T11:55:19.398Z</time>
      </trkpt>
      <trkpt lat="47.09308" lon="0.1187">
        <ele>47.82</ele>
        <time>2023-06-09T11:55:44.092Z</time>
      </trkpt>
      <trkpt lat="47.09314" lon="0.11879">
        <ele>47.76</ele>
        <time>2023-06-09T11:56:08.788Z</time>
      </trkpt>
      <trkpt lat="47.09317" lon="0.11883">
        <ele>47.75</ele>
        <time>2023-06-09T11:56:33.485Z</time>
      </trkpt>
      <trkpt lat="47.09324" lon="0.11892">
        <ele>47.78</ele>
        <time>2023-06-09T11:56:58.183Z</time>
      </trkpt>
      <trkpt lat="47.0933" lon="0.11902">
        <ele>47.86</ele>
        <time>2023-06-09T11:57:22.882Z</time>
      </trkpt>
      <trkpt lat="47.09336" lon="0.11911">
        <ele>47.98</ele>
        <time>2023-06-09T11:57:47.583Z</time>
      </trkpt>
      <trkpt lat="47.09343" lon="0.1192">
        <ele>48.13</ele>
        <time>2023-06-09T11:58:12.285Z</time>
      </trkpt>
      <trkpt lat="47.09346" lon="0.11925">
        <ele>48.23</ele>
        <time>2023-06-09T11:58:36.988Z</time>
      </trkpt>
      <trkpt lat="47.09356" lon="0.11938">
        <ele>48.58</ele>
        <time>2023-06-09T11:59:01.693Z</time>
      </trkpt>
      <trkpt lat="47.09375" lon="0.11966">
        <ele>48.7</ele>
        <time>2023-06-09T11:59:26.403Z</time>
      </trkpt>
      <trkpt lat="47.09437" lon="0.12047">
        <ele>49.08</ele>
        <time>2023-06-09T11:59:51.126Z</time>
      </trkpt>
      <trkpt lat="47.09487" lon="0.12098">
        <ele>49.36</ele>
        <time>2023-06-09T12:00:15.859Z</time>
      </trkpt>
      <trkpt lat="47.09505" lon="0.12139">
        <ele>49.52</ele>
        <time>2023-06-09T12:00:40.597Z</time>
      </trkpt>
      <trkpt lat="47.09507" lon="0.1218">
        <ele>49.65</ele>
        <time>2023-06-09T12:01:05.339Z</time>
      </trkpt>
      <trkpt lat="47.09496" lon="0.12299">
        <ele>50.02</ele>
        <time>2023-06-09T12:01:30.095Z</time>
      </trkpt>
      <trkpt lat="47.0947" lon="0.1245">
        <ele>50.51</ele>
        <time>2023-06-09T12:01:54.868Z</time>
      </trkpt>
      <trkpt lat="47.09467" lon="0.12597">
        <ele>50.97</ele>
        <time>2023-06-09T12:02:19.657Z</time>
      </trkpt>
      <trkpt lat="47.09463" lon="0.12624">
        <ele>51.06</ele>
        <time>2023-06-09T12:02:44.449Z</time>
      </trkpt>
      <trkpt lat="47.09461" lon="0.1275">
        <ele>51.46</ele>
        <time>2023-06-09T12:03:09.254Z</time>
      </trkpt>
      <trkpt lat="47.09459" lon="0.12837">
        <ele>51.14</ele>
        <time>2023-06-09T12:03:34.069Z</time>
      </trkpt>
      <trkpt lat="47.09467" lon="0.129">
        <ele>50.9</ele>
        <time>2023-06-09T12:03:58.891Z</time>
      </trkpt>
      <trkpt lat="47.09462" lon="0.12954">
        <ele>50.7</ele>
        <time>2023-06-09T12:04:23.719Z</time>
      </trkpt>
      <trkpt lat="47.09462" lon="0.12987">
        <ele>50.58</ele>
        <time>2023-06-09T12:04:48.551Z</time>
      </trkpt>
      <trkpt lat="47.09466" lon="0.13029">
        <ele>50.43</ele>
        <time>2023-06-09T12:05:13.387Z</time>
      </trkpt>
      <trkpt lat="47.09491" lon="0.13195">
        <ele>49.81</ele>
        <time>2023-06-09T12:05:38.242Z</time>
      </trkpt>
      <trkpt lat="47.09504" lon="0.13253">
        <ele>49.58</ele>
        <time>2023-06-09T12:06:03.103Z</time>
      </trkpt>
      <trkpt lat="47.09538" lon="0.13353">
        <ele>49.17</ele>
        <time>2023-06-09T12:06:27.977Z</time>
      </trkpt>
      <trkpt lat="47.09546" lon="0.13392">
        <ele>49.03</ele>
        <time>2023-06-09T12:06:52.855Z</time>
      </trkpt>
      <trkpt lat="47.09547" lon="0.13397">
        <ele>49.04</ele>
        <time>2023-06-09T12:07:17.734Z</time>
      </trkpt>
      <trkpt lat="47.09555" lon="0.13436">
        <ele>48.37</ele>
        <time>2023-06-09T12:07:42.617Z</time>
      </trkpt>
      <trkpt lat="47.09589" lon="0.13586">
        <ele>45.74</ele>
        <time>2023-06-09T12:08:07.517Z</time>
      </trkpt>
      <trkpt lat="47.09598" lon="0.13622">
        <ele>45.74</ele>
        <time>2023-06-09T12:08:32.422Z</time>
      </trkpt>
      <trkpt lat="47.09598" lon="0.13624">
        <ele>45.74</ele>
        <time>2023-06-09T12:08:57.327Z</time>
      </trkpt>
      <trkpt lat="47.09624" lon="0.1362">
        <ele>45.77</ele>
        <time>2023-06-09T12:09:22.236Z</time>
      </trkpt>
      <trkpt lat="47.09633" lon="0.13618">
        <ele>45.79</ele>
        <time>2023-06-09T12:09:47.146Z</time>
      </trkpt>
      <trkpt lat="47.09642" lon="0.13616">
        <ele>45.76</ele>
        <time>2023-06-09T12:10:12.058Z</time>
      </trkpt>
      <trkpt lat="47.09655" lon="0.13613">
        <ele>45.67</ele>
        <time>2023-06-09T12:10:36.972Z</time>
      </trkpt>
      <trkpt lat="47.09664" lon="0.13611">
        <ele>45.65</ele>
        <time>2023-06-09T12:11:01.887Z</time>
      </trkpt>
      <trkpt lat="47.09673" lon="0.13609">
        <ele>45.68</ele>
        <time>2023-06-09T12:11:26.804Z</time>
      </trkpt>
      <trkpt lat="47.09682" lon="0.13607">
        <ele>45.78</ele>
        <time>2023-06-09T12:11:51.722Z</time>
      </trkpt>
      <trkpt lat="47.09699" lon="0.13603">
        <ele>46.1</ele>
        <time>2023-06-09T12:12:16.643Z</time>
      </trkpt>
      <trkpt lat="47.09713" lon="0.136">
        <ele>46.32</ele>
        <time>2023-06-09T12:12:41.566Z</time>
      </trkpt>
      <trkpt lat="47.09716" lon="0.13599">
        <ele>46.38</ele>
        <time>2023-06-09T12:13:06.490Z</time>
      </trkpt>
      <trkpt lat="47.09722" lon="0.136">
        <ele>46.49</ele>
        <time>2023-06-09T12:13:31.415Z</time>
      </trkpt>
      <trkpt lat="47.09731" lon="0.13601">
        <ele>46.73</ele>
        <time>2023-06-09T12:13:56.341Z</time>
      </trkpt>
      <trkpt lat="47.09744" lon="0.13602">
        <ele>47.22</ele>
        <time>2023-06-09T12:14:21.269Z</time>
      </trkpt>
      <trkpt lat="47.09748" lon="0.13603">
        <ele>47.35</ele>
        <time>2023-06-09T12:14:46.198Z</time>
      </trkpt>
      <trkpt lat="47.09757" lon="0.13604">
        <ele>47.54</ele>
        <time>2023-06-09T12:15:11.129Z</time>
      </trkpt>
      <trkpt lat="47.09771" lon="0.13606">
        <ele>47.76</ele>
        <time>2023-06-09T12:15:36.062Z</time>
      </trkpt>
      <trkpt lat="47.09789" lon="0.13608">
        <ele>48.12</ele>
        <time>2023-06-09T12:16:00.998Z</time>
      </trkpt>
      <trkpt lat="47.09798" lon="0.13609">
        <ele>48.26</ele>
        <time>2023-06-09T12:16:25.935Z</time>
      </trkpt>
      <trkpt lat="47.09845" lon="0.13615">
        <ele>48.75</ele>
        <time>2023-06-09T12:16:50.880Z</time>
      </trkpt>
      <trkpt lat="47.09847" lon="0.13615">
        <ele>48.78</ele>
        <time>2023-06-09T12:17:15.825Z</time>
      </trkpt>
      <trkpt lat="47.09865" lon="0.13613">
        <ele>48.93</ele>
        <time>2023-06-09T12:17:40.773Z</time>
      </trkpt>
      <trkpt lat="47.09887" lon="0.1361">
        <ele>49.23</ele>
        <time>2023-06-09T12:18:05.724Z</time>
      </trkpt>
      <trkpt lat="47.09905" lon="0.13608">
        <ele>49.43</ele>
        <time>2023-06-09T12:18:30.678Z</time>
      </trkpt>
      <trkpt lat="47.09914" lon="0.13607">
        <ele>49.57</ele>
        <time>2023-06-09T12:18:55.634Z</time>
      </trkpt>
      <trkpt lat="47.09937" lon="0.13604">
        <ele>49.98</ele>
        <time>2023-06-09T12:19:20.593Z</time>
      </trkpt>
      <trkpt lat="47.09955" lon="0.13602">
        <ele>50.22</ele>
        <time>2023-06-09T12:19:45.555Z</time>
      </trkpt>
      <trkpt lat="47.09968" lon="0.136">
        <ele>50.31</ele>
        <time>2023-06-09T12:20:10.519Z</time>
      </trkpt>
      <trkpt lat="47.10004" lon="0.13596">
        <ele>50.46</ele>
        <time>2023-06-09T12:20:35.489Z</time>
      </trkpt>
      <trkpt lat="47.10019" lon="0.13594">
        <ele>50.42</ele>
        <time>2023-06-09T12:21:00.462Z</time>
      </trkpt>
      <trkpt lat="47.10033" lon="0.13586">
        <ele>50.39</ele>
        <time>2023-06-09T12:21:25.437Z</time>
      </trkpt>
      <trkpt lat="47.10046" lon="0.13575">
        <ele>50.36</ele>
        <time>2023-06-09T12:21:50.414Z</time>
      </trkpt>
      <trkpt lat="47.10069" lon="0.13554">
        <ele>50.39</ele>
        <time>2023-06-09T12:22:15.396Z</time>
      </trkpt>
      <trkpt lat="47.10072" lon="0.13551">
        <ele>50.38</ele>
        <time>2023-06-09T12:22:40.378Z</time>
      </trkpt>
      <trkpt lat="47.10099" lon="0.13527">
        <ele>50.1</ele>
        <time>2023-06-09T12:23:05.365Z</time>
      </trkpt>
      <trkpt lat="47.10122" lon="0.13506">
        <ele>49.92</ele>
        <time>2023-06-09T12:23:30.357Z</time>
      </trkpt>
      <trkpt lat="47.1016" lon="0.13472">
        <ele>49.73</ele>
        <time>2023-06-09T12:23:55.356Z</time>
      </trkpt>
      <trkpt lat="47.10187" lon="0.13448">
        <ele>49.52</ele>
        <time>2023-06-09T12:24:20.360Z</time>
      </trkpt>
      <trkpt lat="47.10206" lon="0.13431">
        <ele>49.35</ele>
        <time>2023-06-09T12:24:45.367Z</time>
      </trkpt>
      <trkpt lat="47.10221" lon="0.13418">
        <ele>49.3</ele>
        <time>2023-06-09T12:25:10.377Z</time>
      </trkpt>
      <trkpt lat="47.10252" lon="0.13391">
        <ele>49.08</ele>
        <time>2023-06-09T12:25:35.393Z</time>
      </trkpt>
      <trkpt lat="47.10267" lon="0.13377">
        <ele>49.02</ele>
        <time>2023-06-09T12:26:00.412Z</time>
      </trkpt>
      <trkpt lat="47.10274" lon="0.1337">
        <ele>49.02</ele>
        <time>2023-06-09T12:26:25.432Z</time>
      </trkpt>
      <trkpt lat="47.10298" lon="0.13349">
        <ele>49.07</ele>
        <time>2023-06-09T12:26:50.457Z</time>
      </trkpt>
      <trkpt lat="47.10323" lon="0.13341">
        <ele>49.13</ele>
        <time>2023-06-09T12:27:15.486Z</time>
      </trkpt>
      <trkpt lat="47.10346" lon="0.13334">
        <ele>49.14</ele>
        <time>2023-06-09T12:27:40.519Z</time>
      </trkpt>
      <trkpt lat="47.10349" lon="0.13332">
        <ele>49.15</ele>
        <time>2023-06-09T12:28:05.552Z</time>
      </trkpt>
      <trkpt lat="47.1037" lon="0.13319">
        <ele>49.07</ele>
        <time>2023-06-09T12:28:30.589Z</time>
      </trkpt>
      <trkpt lat="47.10377" lon="0.13312">
        <ele>49.05</ele>
        <time>2023-06-09T12:28:55.627Z</time>
      </trkpt>
      <trkpt lat="47.10392" lon="0.13298">
        <ele>48.91</ele>
        <time>2023-06-09T12:29:20.668Z</time>
      </trkpt>
      <trkpt lat="47.104" lon="0.13291">
        <ele>48.87</ele>
        <time>2023-06-09T12:29:45.710Z</time>
      </trkpt>
      <trkpt lat="47.10408" lon="0.13284">
        <ele>48.91</ele>
        <time>2023-06-09T12:30:10.754Z</time>
      </trkpt>
      <trkpt lat="47.10445" lon="0.13249">
        <ele>49.18</ele>
        <time>2023-06-09T12:30:35.805Z</time>
      </trkpt>
      <trkpt lat="47.10453" lon="0.13242">
        <ele>49.26</ele>
        <time>2023-06-09T12:31:00.857Z</time>
      </trkpt>
      <trkpt lat="47.10468" lon="0.13228">
        <ele>49.51</ele>
        <time>2023-06-09T12:31:25.912Z</time>
      </trkpt>
      <trkpt lat="47.10491" lon="0.13206">
        <ele>49.22</ele>
        <time>2023-06-09T12:31:50.972Z</time>
      </trkpt>
      <trkpt lat="47.10491" lon="0.13206">
        <ele>49.22</ele>
        <time>2023-06-09T12:32:16.032Z</time>
      </trkpt>
      <trkpt lat="47.10498" lon="0.132">
        <ele>49.17</ele>
        <time>2023-06-09T12:32:41.093Z</time>
      </trkpt>
      <trkpt lat="47.10502" lon="0.13197">
        <ele>49.18</ele>
        <time>2023-06-09T12:33:06.155Z</time>
      </trkpt>
      <trkpt lat="47.10517" lon="0.13184">
        <ele>49.29</ele>
        <time>2023-06-09T12:33:31.220Z</time>
      </trkpt>
      <trkpt lat="47.10552" lon="0.13154">
        <ele>49.64</ele>
        <time>2023-06-09T12:33:56.291Z</time>
      </trkpt>
      <trkpt lat="47.10556" lon="0.13151">
        <ele>49.65</ele>
        <time>2023-06-09T12:34:21.363Z</time>
      </trkpt>
      <trkpt lat="47.1057" lon="0.13139">
        <ele>49.63</ele>
        <time>2023-06-09T12:34:46.437Z</time>
      </trkpt>
      <trkpt lat="47.10576" lon="0.13137">
        <ele>49.63</ele>
        <time>2023-06-09T12:35:11.512Z</time>
      </trkpt>
      <trkpt lat="47.10587" lon="0.13132">
        <ele>49.66</ele>
        <time>2023-06-09T12:35:36.589Z</time>
      </trkpt>
      <trkpt lat="47.10607" lon="0.13129">
        <ele>49.73</ele>
        <time>2023-06-09T12:36:01.669Z</time>
      </trkpt>
      <trkpt lat="47.10611" lon="0.13128">
        <ele>49.71</ele>
        <time>2023-06-09T12:36:26.750Z</time>
      </trkpt>
      <trkpt lat="47.10616" lon="0.13128">
        <ele>49.7</ele>
        <time>2023-06-09T12:36:51.832Z</time>
      </trkpt>
      <trkpt lat="47.10633" lon="0.13128">
        <ele>49.6</ele>
        <time>2023-06-09T12:37:16.917Z</time>
      </trkpt>
      <trkpt lat="47.10642" lon="0.13128">
        <ele>49.58</ele>
        <time>2023-06-09T12:37:42.003Z</time>
      </trkpt>
      <trkpt lat="47.10656" lon="0.13128">
        <ele>49.61</ele>
        <time>2023-06-09T12:38:07.091Z</time>
      </trkpt>
      <trkpt lat="47.10678" lon="0.13128">
        <ele>49.69</ele>
        <time>2023-06-09T12:38:32.183Z</time>
      </trkpt>
      <trkpt lat="47.107" lon="0.13127">
        <ele>49.68</ele>
        <time>2023-06-09T12:38:57.278Z</time>
      </trkpt>
      <trkpt lat="47.10709" lon="0.13127">
        <ele>49.69</ele>
        <time>2023-06-09T12:39:22.375Z</time>
      </trkpt>
      <trkpt lat="47.1075" lon="0.13127">
        <ele>49.82</ele>
        <time>2023-06-09T12:39:47.478Z</time>
      </trkpt>
      <trkpt lat="47.10767" lon="0.13127">
        <ele>49.83</ele>
        <time>2023-06-09T12:40:12.584Z</time>
      </trkpt>
      <trkpt lat="47.10781" lon="0.13127">
        <ele>49.9</ele>
        <time>2023-06-09T12:40:37.692Z</time>
      </trkpt>
      <trkpt lat="47.1079" lon="0.13126">
        <ele>49.96</ele>
        <time>2023-06-09T12:41:02.802Z</time>
      </trkpt>
      <trkpt lat="47.10808" lon="0.13124">
        <ele>49.97</ele>
        <time>2023-06-09T12:41:27.914Z</time>
      </trkpt>
      <trkpt lat="47.10834" lon="0.1312">
        <ele>50.05</ele>
        <time>2023-06-09T12:41:53.031Z</time>
      </trkpt>
      <trkpt lat="47.10852" lon="0.13118">
        <ele>50.17</ele>
        <time>2023-06-09T12:42:18.151Z</time>
      </trkpt>
      <trkpt lat="47.10867" lon="0.13116">
        <ele>50.23</ele>
        <time>2023-06-09T12:42:43.273Z</time>
      </trkpt>
      <trkpt lat="47.1087" lon="0.13116">
        <ele>50.25</ele>
        <time>2023-06-09T12:43:08.395Z</time>
      </trkpt>
      <trkpt lat="47.10879" lon="0.13117">
        <ele>50.34</ele>
        <time>2023-06-09T12:43:33.519Z</time>
      </trkpt>
      <trkpt lat="47.10889" lon="0.13117">
        <ele>50.5</ele>
        <time>2023-06-09T12:43:58.645Z</time>
      </trkpt>
      <trkpt lat="47.10896" lon="0.1312">
        <ele>50.62</ele>
        <time>2023-06-09T12:44:23.772Z</time>
      </trkpt>
      <trkpt lat="47.1091" lon="0.13127">
        <ele>50.77</ele>
        <time>2023-06-09T12:44:48.901Z</time>
      </trkpt>
      <trkpt lat="47.10918" lon="0.13124">
        <ele>50.86</ele>
        <time>2023-06-09T12:45:14.031Z</time>
      </trkpt>
      <trkpt lat="47.10944" lon="0.13115">
        <ele>51.25</ele>
        <time>2023-06-09T12:45:39.166Z</time>
      </trkpt>
      <trkpt lat="47.10965" lon="0.13108">
        <ele>51.5</ele>
        <time>2023-06-09T12:46:04.304Z</time>
      </trkpt>
      <trkpt lat="47.10974" lon="0.13105">
        <ele>51.64</ele>
        <time>2023-06-09T12:46:29.444Z</time>
      </trkpt>
      <trkpt lat="47.10996" lon="0.13097">
        <ele>52.03</ele>
        <time>2023-06-09T12:46:54.587Z</time>
      </trkpt>
      <trkpt lat="47.11005" lon="0.13094">
        <ele>52.2</ele>
        <time>2023-06-09T12:47:19.732Z</time>
      </trkpt>
      <trkpt lat="47.11013" lon="0.13091">
        <ele>52.41</ele>
        <time>2023-06-09T12:47:44.878Z</time>
      </trkpt>
      <trkpt lat="47.11026" lon="0.13086">
        <ele>52.75</ele>
        <time>2023-06-09T12:48:10.026Z</time>
      </trkpt>
      <trkpt lat="47.11035" lon="0.13083">
        <ele>53.02</ele>
        <time>2023-06-09T12:48:35.176Z</time>
      </trkpt>
      <trkpt lat="47.11039" lon="0.13082">
        <ele>53.18</ele>
        <time>2023-06-09T12:49:00.326Z</time>
      </trkpt>
      <trkpt lat="47.11053" lon="0.13077">
        <ele>53.71</ele>
        <time>2023-06-09T12:49:25.479Z</time>
      </trkpt>
      <trkpt lat="47.11053" lon="0.13077">
        <ele>53.71</ele>
        <time>2023-06-09T12:49:50.632Z</time>
      </trkpt>
      <trkpt lat="47.11057" lon="0.13073">
        <ele>53.73</ele>
        <time>2023-06-09T12:50:15.785Z</time>
      </trkpt>
      <trkpt lat="47.11064" lon="0.13066">
        <ele>54.11</ele>
        <time>2023-06-09T12:50:40.940Z</time>
      </trkpt>
      <trkpt lat="47.11075" lon="0.13055">
        <ele>54.61</ele>
        <time>2023-06-09T12:51:06.097Z</time>
      </trkpt>
      <trkpt lat="47.11079" lon="0.1305">
        <ele>54.79</ele>
        <time>2023-06-09T12:51:31.255Z</time>
      </trkpt>
      <trkpt lat="47.11079" lon="0.1305">
        <ele>54.79</ele>
        <time>2023-06-09T12:51:56.413Z</time>
      </trkpt>
      <trkpt lat="47.11104" lon="0.1304">
        <ele>55.93</ele>
        <time>2023-06-09T12:52:21.575Z</time>
      </trkpt>
      <trkpt lat="47.11116" lon="0.13035">
        <ele>56.41</ele>
        <time>2023-06-09T12:52:46.739Z</time>
      </trkpt>
      <trkpt lat="47.11117" lon="0.13035">
        <ele>56.46</ele>
        <time>2023-06-09T12:53:11.903Z</time>
      </trkpt>
      <trkpt lat="47.11157" lon="0.13025">
        <ele>57.93</ele>
        <time>2023-06-09T12:53:37.073Z</time>
      </trkpt>
      <trkpt lat="47.11179" lon="0.13019">
        <ele>58.78</ele>
        <time>2023-06-09T12:54:02.247Z</time>
      </trkpt>
      <trkpt lat="47.11184" lon="0.13018">
        <ele>58.97</ele>
        <time>2023-06-09T12:54:27.422Z</time>
      </trkpt>
      <trkpt lat="47.11209" lon="0.13008">
        <ele>59.87</ele>
        <time>2023-06-09T12:54:52.601Z</time>
      </trkpt>
      <trkpt lat="47.11235" lon="0.12997">
        <ele>60.74</ele>
        <time>2023-06-09T12:55:17.784Z</time>
      </trkpt>
      <trkpt lat="47.11243" lon="0.12994">
        <ele>60.99</ele>
        <time>2023-06-09T12:55:42.969Z</time>
      </trkpt>
      <trkpt lat="47.11259" lon="0.12987">
        <ele>61.39</ele>
        <time>2023-06-09T12:56:08.156Z</time>
      </trkpt>
      <trkpt lat="47.1126" lon="0.12987">
        <ele>61.43</ele>
        <time>2023-06-09T12:56:33.344Z</time>
      </trkpt>
      <trkpt lat="47.11278" lon="0.12985">
        <ele>61.92</ele>
        <time>2023-06-09T12:56:58.534Z</time>
      </trkpt>
      <trkpt lat="47.11287" lon="0.12983">
        <ele>62.18</ele>
        <time>2023-06-09T12:57:23.726Z</time>
      </trkpt>
      <trkpt lat="47.11298" lon="0.12982">
        <ele>62.52</ele>
        <time>2023-06-09T12:57:48.920Z</time>
      </trkpt>
      <trkpt lat="47.11305" lon="0.12982">
        <ele>62.74</ele>
        <time>2023-06-09T12:58:14.115Z</time>
      </trkpt>
      <trkpt lat="47.11314" lon="0.12981">
        <ele>62.93</ele>
        <time>2023-06-09T12:58:39.311Z</time>
      </trkpt>
      <trkpt lat="47.11318" lon="0.12981">
        <ele>63.04</ele>
        <time>2023-06-09T12:59:04.508Z</time>
      </trkpt>
      <trkpt lat="47.11322" lon="0.12981">
        <ele>63.14</ele>
        <time>2023-06-09T12:59:29.706Z</time>
      </trkpt>
      <trkpt lat="47.11336" lon="0.12988">
        <ele>63.55</ele>
        <time>2023-06-09T12:59:54.906Z</time>
      </trkpt>
      <trkpt lat="47.11344" lon="0.12984">
        <ele>63.79</ele>
        <time>2023-06-09T13:00:20.107Z</time>
      </trkpt>
      <trkpt lat="47.11352" lon="0.1298">
        <ele>64.1</ele>
        <time>2023-06-09T13:00:45.310Z</time>
      </trkpt>
      <trkpt lat="47.11378" lon="0.12968">
        <ele>65.21</ele>
        <time>2023-06-09T13:01:10.517Z</time>
      </trkpt>
      <trkpt lat="47.11382" lon="0.12966">
        <ele>65.36</ele>
        <time>2023-06-09T13:01:35.725Z</time>
      </trkpt>
      <trkpt lat="47.11391" lon="0.12962">
        <ele>65.62</ele>
        <time>2023-06-09T13:02:00.934Z</time>
      </trkpt>
      <trkpt lat="47.11421" lon="0.12948">
        <ele>66.31</ele>
        <time>2023-06-09T13:02:26.148Z</time>
      </trkpt>
      <trkpt lat="47.11433" lon="0.12942">
        <ele>66.58</ele>
        <time>2023-06-09T13:02:51.364Z</time>
      </trkpt>
      <trkpt lat="47.11442" lon="0.12938">
        <ele>66.71</ele>
        <time>2023-06-09T13:03:16.582Z</time>
      </trkpt>
      <trkpt lat="47.11451" lon="0.12934">
        <ele>66.82</ele>
        <time>2023-06-09T13:03:41.801Z</time>
      </trkpt>
      <trkpt lat="47.11455" lon="0.12928">
        <ele>66.89</ele>
        <time>2023-06-09T13:04:07.021Z</time>
      </trkpt>
      <trkpt lat="47.11455" lon="0.12928">
        <ele>71.62</ele>
        <time>2023-06-09T13:04:32.241Z</time>
      </trkpt>
      <trkpt lat="47.11466" lon="0.12915">
        <ele>72.16</ele>
        <time>2023-06-09T13:04:57.463Z</time>
      </trkpt>
      <trkpt lat="47.11467" lon="0.12913">
        <ele>72.25</ele>
        <time>2023-06-09T13:05:22.686Z</time>
      </trkpt>
      <trkpt lat="47.11475" lon="0.129">
        <ele>72.64</ele>
        <time>2023-06-09T13:05:47.911Z</time>
      </trkpt>
      <trkpt lat="47.11481" lon="0.12908">
        <ele>72.92</ele>
        <time>2023-06-09T13:06:13.137Z</time>
      </trkpt>
      <trkpt lat="47.11487" lon="0.12916">
        <ele>72.83</ele>
        <time>2023-06-09T13:06:38.364Z</time>
      </trkpt>
      <trkpt lat="47.11496" lon="0.12917">
        <ele>72.74</ele>
        <time>2023-06-09T13:07:03.593Z</time>
      </trkpt>
      <trkpt lat="47.11499" lon="0.12919">
        <ele>72.71</ele>
        <time>2023-06-09T13:07:28.822Z</time>
      </trkpt>
      <trkpt lat="47.11505" lon="0.12924">
        <ele>72.66</ele>
        <time>2023-06-09T13:07:54.052Z</time>
      </trkpt>
      <trkpt lat="47.11507" lon="0.12926">
        <ele>72.64</ele>
        <time>2023-06-09T13:08:19.283Z</time>
      </trkpt>
      <trkpt lat="47.11516" lon="0.12934">
        <ele>72.37</ele>
        <time>2023-06-09T13:08:44.515Z</time>
      </trkpt>
      <trkpt lat="47.11524" lon="0.12942">
        <ele>72.08</ele>
        <time>2023-06-09T13:09:09.749Z</time>
      </trkpt>
      <trkpt lat="47.11544" lon="0.12959">
        <ele>71.12</ele>
        <time>2023-06-09T13:09:34.987Z</time>
      </trkpt>
      <trkpt lat="47.11552" lon="0.12967">
        <ele>70.75</ele>
        <time>2023-06-09T13:10:00.226Z</time>
      </trkpt>
      <trkpt lat="47.11556" lon="0.1297">
        <ele>70.52</ele>
        <time>2023-06-09T13:10:25.466Z</time>
      </trkpt>
      <trkpt lat="47.11561" lon="0.12974">
        <ele>70.23</ele>
        <time>2023-06-09T13:10:50.707Z</time>
      </trkpt>
      <trkpt lat="47.11571" lon="0.12981">
        <ele>69.76</ele>
        <time>2023-06-09T13:11:15.949Z</time>
      </trkpt>
      <trkpt lat="47.11586" lon="0.12991">
        <ele>69.01</ele>
        <time>2023-06-09T13:11:41.194Z</time>
      </trkpt>
      <trkpt lat="47.11588" lon="0.12993">
        <ele>68.89</ele>
        <time>2023-06-09T13:12:06.440Z</time>
      </trkpt>
      <trkpt lat="47.11595" lon="0.13">
        <ele>68.57</ele>
        <time>2023-06-09T13:12:31.687Z</time>
      </trkpt>
      <trkpt lat="47.11599" lon="0.13004">
        <ele>68.4</ele>
        <time>2023-06-09T13:12:56.935Z</time>
      </trkpt>
      <trkpt lat="47.11603" lon="0.1301">
        <ele>68.14</ele>
        <time>2023-06-09T13:13:22.184Z</time>
      </trkpt>
      <trkpt lat="47.11606" lon="0.1302">
        <ele>67.82</ele>
        <time>2023-06-09T13:13:47.434Z</time>
      </trkpt>
      <trkpt lat="47.11607" lon="0.13022">
        <ele>67.75</ele>
        <time>2023-06-09T13:14:12.684Z</time>
      </trkpt>
      <trkpt lat="47.11607" lon="0.13033">
        <ele>67.45</ele>
        <time>2023-06-09T13:14:37.935Z</time>
      </trkpt>
      <trkpt lat="47.11607" lon="0.13052">
        <ele>66.99</ele>
        <time>2023-06-09T13:15:03.188Z</time>
      </trkpt>
      <trkpt lat="47.11607" lon="0.13066">
        <ele>66.68</ele>
        <time>2023-06-09T13:15:28.443Z</time>
      </trkpt>
      <trkpt lat="47.11607" lon="0.13074">
        <ele>66.6</ele>
        <time>2023-06-09T13:15:53.699Z</time>
      </trkpt>
      <trkpt lat="47.1161" lon="0.13092">
        <ele>66.42</ele>
        <time>2023-06-09T13:16:18.957Z</time>
      </trkpt>
      <trkpt lat="47.11617" lon="0.13094">
        <ele>66.32</ele>
        <time>2023-06-09T13:16:44.216Z</time>
      </trkpt>
      <trkpt lat="47.1162" lon="0.13095">
        <ele>66.25</ele>
        <time>2023-06-09T13:17:09.475Z</time>
      </trkpt>
      <trkpt lat="47.11626" lon="0.13094">
        <ele>66.13</ele>
        <time>2023-06-09T13:17:34.735Z</time>
      </trkpt>
      <trkpt lat="47.11631" lon="0.13093">
        <ele>66.01</ele>
        <time>2023-06-09T13:17:59.996Z</time>
      </trkpt>
      <trkpt lat="47.11636" lon="0.13091">
        <ele>65.9</ele>
        <time>2023-06-09T13:18:25.258Z</time>
      </trkpt>
      <trkpt lat="47.11644" lon="0.13087">
        <ele>65.63</ele>
        <time>2023-06-09T13:18:50.521Z</time>
      </trkpt>
      <trkpt lat="47.11649" lon="0.13087">
        <ele>65.5</ele>
        <time>2023-06-09T13:19:15.785Z</time>
      </trkpt>
      <trkpt lat="47.11661" lon="0.13085">
        <ele>65.26</ele>
        <time>2023-06-09T13:19:41.051Z</time>
      </trkpt>
      <trkpt lat="47.11673" lon="0.13084">
        <ele>65</ele>
        <time>2023-06-09T13:20:06.319Z</time>
      </trkpt>
      <trkpt lat="47.11676" lon="0.13084">
        <ele>64.95</ele>
        <time>2023-06-09T13:20:31.587Z</time>
      </trkpt>
      <trkpt lat="47.117" lon="0.13089">
        <ele>64.6</ele>
        <time>2023-06-09T13:20:56.859Z</time>
      </trkpt>
      <trkpt lat="47.11706" lon="0.13091">
        <ele>64.52</ele>
        <time>2023-06-09T13:21:22.132Z</time>
      </trkpt>
      <trkpt lat="47.11719" lon="0.13096">
        <ele>64.09</ele>
        <time>2023-06-09T13:21:47.408Z</time>
      </trkpt>
      <trkpt lat="47.11723" lon="0.13098">
        <ele>63.94</ele>
        <time>2023-06-09T13:22:12.684Z</time>
      </trkpt>
      <trkpt lat="47.11729" lon="0.13099">
        <ele>63.73</ele>
        <time>2023-06-09T13:22:37.961Z</time>
      </trkpt>
      <trkpt lat="47.11733" lon="0.13099">
        <ele>63.55</ele>
        <time>2023-06-09T13:23:03.239Z</time>
      </trkpt>
      <trkpt lat="47.1174" lon="0.13101">
        <ele>63.26</ele>
        <time>2023-06-09T13:23:28.518Z</time>
      </trkpt>
      <trkpt lat="47.1175" lon="0.13105">
        <ele>62.89</ele>
        <time>2023-06-09T13:23:53.799Z</time>
      </trkpt>
      <trkpt lat="47.11756" lon="0.13107">
        <ele>62.58</ele>
        <time>2023-06-09T13:24:19.081Z</time>
      </trkpt>
      <trkpt lat="47.1176" lon="0.13109">
        <ele>62.38</ele>
        <time>2023-06-09T13:24:44.363Z</time>
      </trkpt>
      <trkpt lat="47.11771" lon="0.13114">
        <ele>61.99</ele>
        <time>2023-06-09T13:25:09.647Z</time>
      </trkpt>
      <trkpt lat="47.11783" lon="0.13119">
        <ele>61.46</ele>
        <time>2023-06-09T13:25:34.933Z</time>
      </trkpt>
      <trkpt lat="47.11791" lon="0.13123">
        <ele>61.16</ele>
        <time>2023-06-09T13:26:00.221Z</time>
      </trkpt>
      <trkpt lat="47.11803" lon="0.13129">
        <ele>60.73</ele>
        <time>2023-06-09T13:26:25.510Z</time>
      </trkpt>
      <trkpt lat="47.11814" lon="0.13134">
        <ele>60.5</ele>
        <time>2023-06-09T13:26:50.801Z</time>
      </trkpt>
      <trkpt lat="47.11823" lon="0.13138">
        <ele>60.29</ele>
        <time>2023-06-09T13:27:16.094Z</time>
      </trkpt>
      <trkpt lat="47.11844" lon="0.13147">
        <ele>59.91</ele>
        <time>2023-06-09T13:27:41.390Z</time>
      </trkpt>
      <trkpt lat="47.11864" lon="0.13157">
        <ele>59.65</ele>
        <time>2023-06-09T13:28:06.690Z</time>
      </trkpt>
      <trkpt lat="47.11876" lon="0.13162">
        <ele>59.37</ele>
        <time>2023-06-09T13:28:31.992Z</time>
      </trkpt>
      <trkpt lat="47.11886" lon="0.13167">
        <ele>59.14</ele>
        <time>2023-06-09T13:28:57.295Z</time>
      </trkpt>
      <trkpt lat="47.11891" lon="0.13169">
        <ele>59.07</ele>
        <time>2023-06-09T13:29:22.599Z</time>
      </trkpt>
      <trkpt lat="47.11895" lon="0.13172">
        <ele>59.01</ele>
        <time>2023-06-09T13:29:47.904Z</time>
      </trkpt>
      <trkpt lat="47.11906" lon="0.1318">
        <ele>58.78</ele>
        <time>2023-06-09T13:30:13.211Z</time>
      </trkpt>
      <trkpt lat="47.11912" lon="0.13184">
        <ele>58.7</ele>
        <time>2023-06-09T13:30:38.519Z</time>
      </trkpt>
      <trkpt lat="47.11916" lon="0.13188">
        <ele>58.65</ele>
        <time>2023-06-09T13:31:03.828Z</time>
      </trkpt>
      <trkpt lat="47.11925" lon="0.13197">
        <ele>58.44</ele>
        <time>2023-06-09T13:31:29.138Z</time>
      </trkpt>
      <trkpt lat="47.11934" lon="0.13206">
        <ele>58.17</ele>
        <time>2023-06-09T13:31:54.450Z</time>
      </trkpt>
      <trkpt lat="47.11943" lon="0.13215">
        <ele>57.63</ele>
        <time>2023-06-09T13:32:19.764Z</time>
      </trkpt>
      <trkpt lat="47.11948" lon="0.1322">
        <ele>57.35</ele>
        <time>2023-06-09T13:32:45.079Z</time>
      </trkpt>
      <trkpt lat="47.11951" lon="0.13223">
        <ele>57.17</ele>
        <time>2023-06-09T13:33:10.395Z</time>
      </trkpt>
      <trkpt lat="47.11967" lon="0.13235">
        <ele>56.56</ele>
        <time>2023-06-09T13:33:35.713Z</time>
      </trkpt>
      <trkpt lat="47.11971" lon="0.13238">
        <ele>56.4</ele>
        <time>2023-06-09T13:34:01.032Z</time>
      </trkpt>
      <trkpt lat="47.11981" lon="0.13246">
        <ele>56.06</ele>
        <time>2023-06-09T13:34:26.353Z</time>
      </trkpt>
      <trkpt lat="47.11985" lon="0.13249">
        <ele>55.96</ele>
        <time>2023-06-09T13:34:51.675Z</time>
      </trkpt>
      <trkpt lat="47.11993" lon="0.13252">
        <ele>55.76</ele>
        <time>2023-06-09T13:35:16.998Z</time>
      </trkpt>
      <trkpt lat="47.11997" lon="0.13253">
        <ele>55.65</ele>
        <time>2023-06-09T13:35:42.322Z</time>
      </trkpt>
      <trkpt lat="47.12002" lon="0.13253">
        <ele>55.51</ele>
        <time>2023-06-09T13:36:07.646Z</time>
      </trkpt>
      <trkpt lat="47.12008" lon="0.13252">
        <ele>55.43</ele>
        <time>2023-06-09T13:36:32.971Z</time>
      </trkpt>
      <trkpt lat="47.12012" lon="0.13251">
        <ele>55.38</ele>
        <time>2023-06-09T13:36:58.297Z</time>
      </trkpt>
      <trkpt lat="47.12023" lon="0.13248">
        <ele>55.13</ele>
        <time>2023-06-09T13:37:23.625Z</time>
      </trkpt>
      <trkpt lat="47.12033" lon="0.13246">
        <ele>54.91</ele>
        <time>2023-06-09T13:37:48.954Z</time>
      </trkpt>
      <trkpt lat="47.12052" lon="0.13241">
        <ele>54.75</ele>
        <time>2023-06-09T13:38:14.287Z</time>
      </trkpt>
      <trkpt lat="47.12062" lon="0.13238">
        <ele>54.78</ele>
        <time>2023-06-09T13:38:39.621Z</time>
      </trkpt>
      <trkpt lat="47.12079" lon="0.13234">
        <ele>54.75</ele>
        <time>2023-06-09T13:39:04.958Z</time>
      </trkpt>
      <trkpt lat="47.12081" lon="0.13233">
        <ele>54.75</ele>
        <time>2023-06-09T13:39:30.295Z</time>
      </trkpt>
      <trkpt lat="47.12093" lon="0.1323">
        <ele>54.8</ele>
        <time>2023-06-09T13:39:55.634Z</time>
      </trkpt>
      <trkpt lat="47.12093" lon="0.1323">
        <ele>54.67</ele>
        <time>2023-06-09T13:40:20.973Z</time>
      </trkpt>
      <trkpt lat="47.12108" lon="0.13225">
        <ele>54.64</ele>
        <time>2023-06-09T13:40:46.315Z</time>
      </trkpt>
      <trkpt lat="47.12111" lon="0.13225">
        <ele>54.64</ele>
        <time>2023-06-09T13:41:11.657Z</time>
      </trkpt>
      <trkpt lat="47.12115" lon="0.13224">
        <ele>54.66</ele>
        <time>2023-06-09T13:41:37.000Z</time>
      </trkpt>
      <trkpt lat="47.12121" lon="0.13223">
        <ele>54.72</ele>
        <time>2023-06-09T13:42:02.344Z</time>
      </trkpt>
      <trkpt lat="47.12128" lon="0.13221">
        <ele>54.8</ele>
        <time>2023-06-09T13:42:27.689Z</time>
      </trkpt>
      <trkpt lat="47.12133" lon="0.13219">
        <ele>54.8</ele>
        <time>2023-06-09T13:42:53.035Z</time>
      </trkpt>
      <trkpt lat="47.12137" lon="0.13218">
        <ele>54.72</ele>
        <time>2023-06-09T13:43:18.381Z</time>
      </trkpt>
      <trkpt lat="47.12141" lon="0.13217">
        <ele>54.59</ele>
        <time>2023-06-09T13:43:43.728Z</time>
      </trkpt>
      <trkpt lat="47.12146" lon="0.13215">
        <ele>54.42</ele>
        <time>2023-06-09T13:44:09.076Z</time>
      </trkpt>
      <trkpt lat="47.12165" lon="0.13209">
        <ele>54.2</ele>
        <time>2023-06-09T13:44:34.427Z</time>
      </trkpt>
      <trkpt lat="47.12173" lon="0.1321">
        <ele>54.11</ele>
        <time>2023-06-09T13:44:59.779Z</time>
      </trkpt>
      <trkpt lat="47.12177" lon="0.13216">
        <ele>54.05</ele>
        <time>2023-06-09T13:45:25.132Z</time>
      </trkpt>
      <trkpt lat="47.12193" lon="0.13262">
        <ele>53.67</ele>
        <time>2023-06-09T13:45:50.491Z</time>
      </trkpt>
      <trkpt lat="47.12198" lon="0.13272">
        <ele>53.58</ele>
        <time>2023-06-09T13:46:15.851Z</time>
      </trkpt>
      <trkpt lat="47.12202" lon="0.13275">
        <ele>53.53</ele>
        <time>2023-06-09T13:46:41.212Z</time>
      </trkpt>
      <trkpt lat="47.12209" lon="0.13275">
        <ele>53.46</ele>
        <time>2023-06-09T13:47:06.574Z</time>
      </trkpt>
      <trkpt lat="47.12226" lon="0.13266">
        <ele>53.26</ele>
        <time>2023-06-09T13:47:31.939Z</time>
      </trkpt>
      <trkpt lat="47.12252" lon="0.13252">
        <ele>54.42</ele>
        <time>2023-06-09T13:47:57.308Z</time>
      </trkpt>
      <trkpt lat="47.12432" lon="0.13156">
        <ele>62.61</ele>
        <time>2023-06-09T13:48:22.708Z</time>
      </trkpt>
      <trkpt lat="47.12458" lon="0.13148">
        <ele>63.75</ele>
        <time>2023-06-09T13:48:48.112Z</time>
      </trkpt>
      <trkpt lat="47.12469" lon="0.13146">
        <ele>64.21</ele>
        <time>2023-06-09T13:49:13.518Z</time>
      </trkpt>
      <trkpt lat="47.12477" lon="0.13144">
        <ele>64.95</ele>
        <time>2023-06-09T13:49:38.925Z</time>
      </trkpt>
      <trkpt lat="47.12482" lon="0.13143">
        <ele>65.38</ele>
        <time>2023-06-09T13:50:04.333Z</time>
      </trkpt>
      <trkpt lat="47.1249" lon="0.13141">
        <ele>66.29</ele>
        <time>2023-06-09T13:50:29.742Z</time>
      </trkpt>
      <trkpt lat="47.12495" lon="0.1314">
        <ele>66.65</ele>
        <time>2023-06-09T13:50:55.152Z</time>
      </trkpt>
      <trkpt lat="47.12499" lon="0.13139">
        <ele>66.9</ele>
        <time>2023-06-09T13:51:20.563Z</time>
      </trkpt>
      <trkpt lat="47.12503" lon="0.13138">
        <ele>67.06</ele>
        <time>2023-06-09T13:51:45.975Z</time>
      </trkpt>
      <trkpt lat="47.12515" lon="0.13136">
        <ele>67.36</ele>
        <time>2023-06-09T13:52:11.388Z</time>
      </trkpt>
      <trkpt lat="47.12516" lon="0.13136">
        <ele>67.4</ele>
        <time>2023-06-09T13:52:36.802Z</time>
      </trkpt>
      <trkpt lat="47.12521" lon="0.13134">
        <ele>67.47</ele>
        <time>2023-06-09T13:53:02.216Z</time>
      </trkpt>
      <trkpt lat="47.12525" lon="0.13133">
        <ele>67.5</ele>
        <time>2023-06-09T13:53:27.631Z</time>
      </trkpt>
      <trkpt lat="47.12546" lon="0.13126">
        <ele>67.42</ele>
        <time>2023-06-09T13:53:53.050Z</time>
      </trkpt>
      <trkpt lat="47.12568" lon="0.1312">
        <ele>67.25</ele>
        <time>2023-06-09T13:54:18.472Z</time>
      </trkpt>
      <trkpt lat="47.12572" lon="0.13118">
        <ele>67.24</ele>
        <time>2023-06-09T13:54:43.895Z</time>
      </trkpt>
      <trkpt lat="47.12576" lon="0.13117">
        <ele>67.27</ele>
        <time>2023-06-09T13:55:09.318Z</time>
      </trkpt>
      <trkpt lat="47.1258" lon="0.13116">
        <ele>67.34</ele>
        <time>2023-06-09T13:55:34.742Z</time>
      </trkpt>
      <trkpt lat="47.12585" lon="0.13114">
        <ele>67.45</ele>
        <time>2023-06-09T13:56:00.167Z</time>
      </trkpt>
      <trkpt lat="47.12589" lon="0.13113">
        <ele>67.53</ele>
        <time>2023-06-09T13:56:25.593Z</time>
      </trkpt>
      <trkpt lat="47.12593" lon="0.13112">
        <ele>67.55</ele>
        <time>2023-06-09T13:56:51.019Z</time>
      </trkpt>
      <trkpt lat="47.12607" lon="0.13108">
        <ele>67.51</ele>
        <time>2023-06-09T13:57:16.447Z</time>
      </trkpt>
      <trkpt lat="47.12624" lon="0.13102">
        <ele>67.59</ele>
        <time>2023-06-09T13:57:41.878Z</time>
      </trkpt>
      <trkpt lat="47.12628" lon="0.13101">
        <ele>67.59</ele>
        <time>2023-06-09T13:58:07.310Z</time>
      </trkpt>
      <trkpt lat="47.12641" lon="0.13097">
        <ele>67.53</ele>
        <time>2023-06-09T13:58:32.744Z</time>
      </trkpt>
      <trkpt lat="47.12646" lon="0.13095">
        <ele>67.54</ele>
        <time>2023-06-09T13:58:58.179Z</time>
      </trkpt>
      <trkpt lat="47.12672" lon="0.13087">
        <ele>67.79</ele>
        <time>2023-06-09T13:59:23.618Z</time>
      </trkpt>
      <trkpt lat="47.12676" lon="0.13086">
        <ele>67.85</ele>
        <time>2023-06-09T13:59:49.058Z</time>
      </trkpt>
      <trkpt lat="47.12702" lon="0.13078">
        <ele>68.32</ele>
        <time>2023-06-09T14:00:14.502Z</time>
      </trkpt>
      <trkpt lat="47.12711" lon="0.13075">
        <ele>68.52</ele>
        <time>2023-06-09T14:00:39.948Z</time>
      </trkpt>
      <trkpt lat="47.12724" lon="0.13071">
        <ele>68.87</ele>
        <time>2023-06-09T14:01:05.396Z</time>
      </trkpt>
      <trkpt lat="47.12728" lon="0.1307">
        <ele>69</ele>
        <time>2023-06-09T14:01:30.844Z</time>
      </trkpt>
      <trkpt lat="47.12741" lon="0.13066">
        <ele>69.45</ele>
        <time>2023-06-09T14:01:56.294Z</time>
      </trkpt>
      <trkpt lat="47.12759" lon="0.1306">
        <ele>69.82</ele>
        <time>2023-06-09T14:02:21.747Z</time>
      </trkpt>
      <trkpt lat="47.12763" lon="0.13059">
        <ele>69.95</ele>
        <time>2023-06-09T14:02:47.201Z</time>
      </trkpt>
      <trkpt lat="47.12772" lon="0.13056">
        <ele>70.29</ele>
        <time>2023-06-09T14:03:12.656Z</time>
      </trkpt>
      <trkpt lat="47.12785" lon="0.13052">
        <ele>70.74</ele>
        <time>2023-06-09T14:03:38.114Z</time>
      </trkpt>
      <trkpt lat="47.12798" lon="0.13048">
        <ele>71.26</ele>
        <time>2023-06-09T14:04:03.574Z</time>
      </trkpt>
      <trkpt lat="47.12815" lon="0.13043">
        <ele>71.88</ele>
        <time>2023-06-09T14:04:29.037Z</time>
      </trkpt>
      <trkpt lat="47.1282" lon="0.13042">
        <ele>72.02</ele>
        <time>2023-06-09T14:04:54.500Z</time>
      </trkpt>
      <trkpt lat="47.12828" lon="0.13039">
        <ele>72.23</ele>
        <time>2023-06-09T14:05:19.965Z</time>
      </trkpt>
      <trkpt lat="47.12841" lon="0.13035">
        <ele>72.49</ele>
        <time>2023-06-09T14:05:45.432Z</time>
      </trkpt>
      <trkpt lat="47.12846" lon="0.13034">
        <ele>72.6</ele>
        <time>2023-06-09T14:06:10.900Z</time>
      </trkpt>
      <trkpt lat="47.12859" lon="0.13029">
        <ele>72.99</ele>
        <time>2023-06-09T14:06:36.370Z</time>
      </trkpt>
      <trkpt lat="47.12872" lon="0.13025">
        <ele>73.26</ele>
        <time>2023-06-09T14:07:01.842Z</time>
      </trkpt>
      <trkpt lat="47.12899" lon="0.13017">
        <ele>73.11</ele>
        <time>2023-06-09T14:07:27.318Z</time>
      </trkpt>
      <trkpt lat="47.12984" lon="0.13403">
        <ele>71.68</ele>
        <time>2023-06-09T14:07:52.839Z</time>
      </trkpt>
      <trkpt lat="47.13062" lon="0.13752">
        <ele>70.39</ele>
        <time>2023-06-09T14:08:18.400Z</time>
      </trkpt>
      <trkpt lat="47.13071" lon="0.13791">
        <ele>70.23</ele>
        <time>2023-06-09T14:08:43.965Z</time>
      </trkpt>
      <trkpt lat="47.13101" lon="0.14144">
        <ele>68.87</ele>
        <time>2023-06-09T14:09:09.569Z</time>
      </trkpt>
      <trkpt lat="47.13114" lon="0.14316">
        <ele>68.22</ele>
        <time>2023-06-09T14:09:35.192Z</time>
      </trkpt>
      <trkpt lat="47.1317" lon="0.15072">
        <ele>61.92</ele>
        <time>2023-06-09T14:10:00.898Z</time>
      </trkpt>
      <trkpt lat="47.13172" lon="0.15097">
        <ele>62</ele>
        <time>2023-06-09T14:10:26.607Z</time>
      </trkpt>
      <trkpt lat="47.13172" lon="0.15098">
        <ele>62</ele>
        <time>2023-06-09T14:10:52.316Z</time>
      </trkpt>
      <trkpt lat="47.13174" lon="0.15112">
        <ele>62.09</ele>
        <time>2023-06-09T14:11:18.026Z</time>
      </trkpt>
      <trkpt lat="47.13174" lon="0.15112">
        <ele>62.09</ele>
        <time>2023-06-09T14:11:43.736Z</time>
      </trkpt>
      <trkpt lat="47.13195" lon="0.15106">
        <ele>62.4</ele>
        <time>2023-06-09T14:12:09.450Z</time>
      </trkpt>
      <trkpt lat="47.13198" lon="0.15105">
        <ele>62.42</ele>
        <time>2023-06-09T14:12:35.164Z</time>
      </trkpt>
      <trkpt lat="47.13204" lon="0.15103">
        <ele>62.48</ele>
        <time>2023-06-09T14:13:00.879Z</time>
      </trkpt>
      <trkpt lat="47.13213" lon="0.15099">
        <ele>62.46</ele>
        <time>2023-06-09T14:13:26.596Z</time>
      </trkpt>
      <trkpt lat="47.13221" lon="0.15096">
        <ele>62.35</ele>
        <time>2023-06-09T14:13:52.314Z</time>
      </trkpt>
      <trkpt lat="47.13226" lon="0.15094">
        <ele>62.26</ele>
        <time>2023-06-09T14:14:18.033Z</time>
      </trkpt>
      <trkpt lat="47.1323" lon="0.15092">
        <ele>62.14</ele>
        <time>2023-06-09T14:14:43.753Z</time>
      </trkpt>
      <trkpt lat="47.13236" lon="0.1509">
        <ele>61.9</ele>
        <time>2023-06-09T14:15:09.474Z</time>
      </trkpt>
      <trkpt lat="47.13239" lon="0.15089">
        <ele>61.8</ele>
        <time>2023-06-09T14:15:35.195Z</time>
      </trkpt>
      <trkpt lat="47.13243" lon="0.15088">
        <ele>61.59</ele>
        <time>2023-06-09T14:16:00.917Z</time>
      </trkpt>
      <trkpt lat="47.13256" lon="0.15086">
        <ele>60.88</ele>
        <time>2023-06-09T14:16:26.641Z</time>
      </trkpt>
      <trkpt lat="47.13268" lon="0.15083">
        <ele>60.21</ele>
        <time>2023-06-09T14:16:52.367Z</time>
      </trkpt>
      <trkpt lat="47.1327" lon="0.15083">
        <ele>60.11</ele>
        <time>2023-06-09T14:17:18.093Z</time>
      </trkpt>
      <trkpt lat="47.13274" lon="0.15083">
        <ele>59.83</ele>
        <time>2023-06-09T14:17:43.820Z</time>
      </trkpt>
      <trkpt lat="47.13279" lon="0.15083">
        <ele>59.52</ele>
        <time>2023-06-09T14:18:09.548Z</time>
      </trkpt>
      <trkpt lat="47.13283" lon="0.15082">
        <ele>59.18</ele>
        <time>2023-06-09T14:18:35.276Z</time>
      </trkpt>
      <trkpt lat="47.13288" lon="0.15082">
        <ele>58.8</ele>
        <time>2023-06-09T14:19:01.005Z</time>
      </trkpt>
      <trkpt lat="47.1331" lon="0.15081">
        <ele>56.7</ele>
        <time>2023-06-09T14:19:26.738Z</time>
      </trkpt>
      <trkpt lat="47.13315" lon="0.15081">
        <ele>56.33</ele>
        <time>2023-06-09T14:19:52.471Z</time>
      </trkpt>
      <trkpt lat="47.13319" lon="0.15081">
        <ele>56.01</ele>
        <time>2023-06-09T14:20:18.205Z</time>
      </trkpt>
      <trkpt lat="47.13323" lon="0.15081">
        <ele>55.75</ele>
        <time>2023-06-09T14:20:43.940Z</time>
      </trkpt>
      <trkpt lat="47.13328" lon="0.15081">
        <ele>55.53</ele>
        <time>2023-06-09T14:21:09.675Z</time>
      </trkpt>
      <trkpt lat="47.13332" lon="0.15081">
        <ele>55.36</ele>
        <time>2023-06-09T14:21:35.411Z</time>
      </trkpt>
      <trkpt lat="47.13337" lon="0.1508">
        <ele>55.22</ele>
        <time>2023-06-09T14:22:01.148Z</time>
      </trkpt>
      <trkpt lat="47.13346" lon="0.1508">
        <ele>55.02</ele>
        <time>2023-06-09T14:22:26.886Z</time>
      </trkpt>
      <trkpt lat="47.13348" lon="0.1508">
        <ele>54.99</ele>
        <time>2023-06-09T14:22:52.625Z</time>
      </trkpt>
      <trkpt lat="47.1335" lon="0.1508">
        <ele>54.96</ele>
        <time>2023-06-09T14:23:18.364Z</time>
      </trkpt>
      <trkpt lat="47.13355" lon="0.15081">
        <ele>54.93</ele>
        <time>2023-06-09T14:23:44.104Z</time>
      </trkpt>
      <trkpt lat="47.13359" lon="0.15081">
        <ele>54.91</ele>
        <time>2023-06-09T14:24:09.845Z</time>
      </trkpt>
      <trkpt lat="47.13368" lon="0.15082">
        <ele>54.92</ele>
        <time>2023-06-09T14:24:35.587Z</time>
      </trkpt>
      <trkpt lat="47.13404" lon="0.15086">
        <ele>55.16</ele>
        <time>2023-06-09T14:25:01.335Z</time>
      </trkpt>
      <trkpt lat="47.13408" lon="0.15087">
        <ele>55.23</ele>
        <time>2023-06-09T14:25:27.083Z</time>
      </trkpt>
      <trkpt lat="47.13413" lon="0.15087">
        <ele>55.33</ele>
        <time>2023-06-09T14:25:52.832Z</time>
      </trkpt>
      <trkpt lat="47.13422" lon="0.15088">
        <ele>55.6</ele>
        <time>2023-06-09T14:26:18.583Z</time>
      </trkpt>
      <trkpt lat="47.13435" lon="0.15089">
        <ele>56.07</ele>
        <time>2023-06-09T14:26:44.336Z</time>
      </trkpt>
      <trkpt lat="47.13449" lon="0.15091">
        <ele>56.52</ele>
        <time>2023-06-09T14:27:10.091Z</time>
      </trkpt>
      <trkpt lat="47.13458" lon="0.15092">
        <ele>56.86</ele>
        <time>2023-06-09T14:27:35.847Z</time>
      </trkpt>
      <trkpt lat="47.13478" lon="0.15094">
        <ele>57.09</ele>
        <time>2023-06-09T14:28:01.607Z</time>
      </trkpt>
      <trkpt lat="47.13478" lon="0.15094">
        <ele>57.09</ele>
        <time>2023-06-09T14:28:27.367Z</time>
      </trkpt>
      <trkpt lat="47.13485" lon="0.15096">
        <ele>57.35</ele>
        <time>2023-06-09T14:28:53.128Z</time>
      </trkpt>
      <trkpt lat="47.13488" lon="0.15086">
        <ele>57.61</ele>
        <time>2023-06-09T14:29:18.890Z</time>
      </trkpt>
      <trkpt lat="47.1349" lon="0.15087">
        <ele>57.71</ele>
        <time>2023-06-09T14:29:44.652Z</time>
      </trkpt>
      <trkpt lat="47.13495" lon="0.1509">
        <ele>57.9</ele>
        <time>2023-06-09T14:30:10.415Z</time>
      </trkpt>
      <trkpt lat="47.13497" lon="0.15094">
        <ele>58.06</ele>
        <time>2023-06-09T14:30:36.179Z</time>
      </trkpt>
      <trkpt lat="47.13501" lon="0.15101">
        <ele>58.32</ele>
        <time>2023-06-09T14:31:01.944Z</time>
      </trkpt>
      <trkpt lat="47.13501" lon="0.15105">
        <ele>58.46</ele>
        <time>2023-06-09T14:31:27.709Z</time>
      </trkpt>
      <trkpt lat="47.13501" lon="0.15112">
        <ele>58.68</ele>
        <time>2023-06-09T14:31:53.475Z</time>
      </trkpt>
      <trkpt lat="47.13501" lon="0.15125">
        <ele>59.17</ele>
        <time>2023-06-09T14:32:19.242Z</time>
      </trkpt>
      <trkpt lat="47.13501" lon="0.15144">
        <ele>59.99</ele>
        <time>2023-06-09T14:32:45.011Z</time>
      </trkpt>
      <trkpt lat="47.13502" lon="0.15157">
        <ele>60.58</ele>
        <time>2023-06-09T14:33:10.782Z</time>
      </trkpt>
      <trkpt lat="47.13502" lon="0.1517">
        <ele>61.22</ele>
        <time>2023-06-09T14:33:36.554Z</time>
      </trkpt>
      <trkpt lat="47.13502" lon="0.15189">
        <ele>62.23</ele>
        <time>2023-06-09T14:34:02.328Z</time>
      </trkpt>
      <trkpt lat="47.13502" lon="0.15203">
        <ele>62.96</ele>
        <time>2023-06-09T14:34:28.104Z</time>
      </trkpt>
      <trkpt lat="47.13503" lon="0.15208">
        <ele>63.26</ele>
        <time>2023-06-09T14:34:53.880Z</time>
      </trkpt>
      <trkpt lat="47.13505" lon="0.15227">
        <ele>64.37</ele>
        <time>2023-06-09T14:35:19.659Z</time>
      </trkpt>
      <trkpt lat="47.13507" lon="0.1524">
        <ele>65.16</ele>
        <time>2023-06-09T14:35:45.439Z</time>
      </trkpt>
      <trkpt lat="47.13508" lon="0.15252">
        <ele>65.99</ele>
        <time>2023-06-09T14:36:11.220Z</time>
      </trkpt>
      <trkpt lat="47.13508" lon="0.15253">
        <ele>65.99</ele>
        <time>2023-06-09T14:36:37.001Z</time>
      </trkpt>
      <trkpt lat="47.13512" lon="0.15271">
        <ele>67.02</ele>
        <time>2023-06-09T14:37:02.784Z</time>
      </trkpt>
      <trkpt lat="47.13516" lon="0.15291">
        <ele>68.14</ele>
        <time>2023-06-09T14:37:28.570Z</time>
      </trkpt>
      <trkpt lat="47.13527" lon="0.15332">
        <ele>70.58</ele>
        <time>2023-06-09T14:37:54.361Z</time>
      </trkpt>
      <trkpt lat="47.13532" lon="0.1535">
        <ele>71.58</ele>
        <time>2023-06-09T14:38:20.154Z</time>
      </trkpt>
      <trkpt lat="47.13534" lon="0.15356">
        <ele>71.93</ele>
        <time>2023-06-09T14:38:45.947Z</time>
      </trkpt>
      <trkpt lat="47.13541" lon="0.15373">
        <ele>72.81</ele>
        <time>2023-06-09T14:39:11.742Z</time>
      </trkpt>
      <trkpt lat="47.13547" lon="0.1539">
        <ele>73.63</ele>
        <time>2023-06-09T14:39:37.540Z</time>
      </trkpt>
      <trkpt lat="47.13547" lon="0.1539">
        <ele>73.63</ele>
        <time>2023-06-09T14:40:03.338Z</time>
      </trkpt>
      <trkpt lat="47.13559" lon="0.15434">
        <ele>75.38</ele>
        <time>2023-06-09T14:40:29.141Z</time>
      </trkpt>
      <trkpt lat="47.13559" lon="0.15434">
        <ele>75.38</ele>
        <time>2023-06-09T14:40:54.944Z</time>
      </trkpt>
      <trkpt lat="47.1356" lon="0.15446">
        <ele>75.86</ele>
        <time>2023-06-09T14:41:20.748Z</time>
      </trkpt>
      <trkpt lat="47.13562" lon="0.15466">
        <ele>76.51</ele>
        <time>2023-06-09T14:41:46.554Z</time>
      </trkpt>
      <trkpt lat="47.13563" lon="0.15479">
        <ele>76.9</ele>
        <time>2023-06-09T14:42:12.362Z</time>
      </trkpt>
      <trkpt lat="47.13563" lon="0.15485">
        <ele>77.06</ele>
        <time>2023-06-09T14:42:38.170Z</time>
      </trkpt>
      <trkpt lat="47.13564" lon="0.15492">
        <ele>77.19</ele>
        <time>2023-06-09T14:43:03.979Z</time>
      </trkpt>
      <trkpt lat="47.13564" lon="0.15499">
        <ele>77.28</ele>
        <time>2023-06-09T14:43:29.789Z</time>
      </trkpt>
      <trkpt lat="47.13565" lon="0.15505">
        <ele>77.32</ele>
        <time>2023-06-09T14:43:55.600Z</time>
      </trkpt>
      <trkpt lat="47.13565" lon="0.15512">
        <ele>77.33</ele>
        <time>2023-06-09T14:44:21.411Z</time>
      </trkpt>
      <trkpt lat="47.13566" lon="0.15518">
        <ele>77.31</ele>
        <time>2023-06-09T14:44:47.223Z</time>
      </trkpt>
      <trkpt lat="47.13567" lon="0.15531">
        <ele>77.18</ele>
        <time>2023-06-09T14:45:13.037Z</time>
      </trkpt>
      <trkpt lat="47.13568" lon="0.15545">
        <ele>76.99</ele>
        <time>2023-06-09T14:45:38.852Z</time>
      </trkpt>
      <trkpt lat="47.13568" lon="0.15545">
        <ele>76.99</ele>
        <time>2023-06-09T14:46:04.667Z</time>
      </trkpt>
      <trkpt lat="47.13567" lon="0.1558">
        <ele>76.35</ele>
        <time>2023-06-09T14:46:30.486Z</time>
      </trkpt>
      <trkpt lat="47.13565" lon="0.15597">
        <ele>76.05</ele>
        <time>2023-06-09T14:46:56.307Z</time>
      </trkpt>
      <trkpt lat="47.13561" lon="0.15637">
        <ele>75.42</ele>
        <time>2023-06-09T14:47:22.132Z</time>
      </trkpt>
      <trkpt lat="47.13561" lon="0.15637">
        <ele>75.42</ele>
        <time>2023-06-09T14:47:47.957Z</time>
      </trkpt>
      <trkpt lat="47.1356" lon="0.15656">
        <ele>75.14</ele>
        <time>2023-06-09T14:48:13.784Z</time>
      </trkpt>
      <trkpt lat="47.13559" lon="0.15682">
        <ele>74.71</ele>
        <time>2023-06-09T14:48:39.614Z</time>
      </trkpt>
      <trkpt lat="47.13558" lon="0.15715">
        <ele>74.25</ele>
        <time>2023-06-09T14:49:05.448Z</time>
      </trkpt>
      <trkpt lat="47.13557" lon="0.15754">
        <ele>73.79</ele>
        <time>2023-06-09T14:49:31.286Z</time>
      </trkpt>
      <trkpt lat="47.13556" lon="0.1578">
        <ele>73.57</ele>
        <time>2023-06-09T14:49:57.127Z</time>
      </trkpt>
      <trkpt lat="47.13556" lon="0.15793">
        <ele>73.51</ele>
        <time>2023-06-09T14:50:22.969Z</time>
      </trkpt>
      <trkpt lat="47.13555" lon="0.15825">
        <ele>73.45</ele>
        <time>2023-06-09T14:50:48.815Z</time>
      </trkpt>
      <trkpt lat="47.13554" lon="0.15845">
        <ele>73.48</ele>
        <time>2023-06-09T14:51:14.663Z</time>
      </trkpt>
      <trkpt lat="47.13553" lon="0.15864">
        <ele>73.58</ele>
        <time>2023-06-09T14:51:40.513Z</time>
      </trkpt>
      <trkpt lat="47.13553" lon="0.15877">
        <ele>73.62</ele>
        <time>2023-06-09T14:52:06.364Z</time>
      </trkpt>
      <trkpt lat="47.13552" lon="0.1589">
        <ele>73.7</ele>
        <time>2023-06-09T14:52:32.217Z</time>
      </trkpt>
      <trkpt lat="47.13552" lon="0.15904">
        <ele>73.85</ele>
        <time>2023-06-09T14:52:58.071Z</time>
      </trkpt>
      <trkpt lat="47.13552" lon="0.15904">
        <ele>73.85</ele>
        <time>2023-06-09T14:53:23.925Z</time>
      </trkpt>
      <trkpt lat="47.13552" lon="0.15916">
        <ele>74.06</ele>
        <time>2023-06-09T14:53:49.781Z</time>
      </trkpt>
      <trkpt lat="47.13551" lon="0.15929">
        <ele>74.31</ele>
        <time>2023-06-09T14:54:15.638Z</time>
      </trkpt>
      <trkpt lat="47.13551" lon="0.15942">
        <ele>74.58</ele>
        <time>2023-06-09T14:54:41.497Z</time>
      </trkpt>
      <trkpt lat="47.1355" lon="0.15994">
        <ele>75.75</ele>
        <time>2023-06-09T14:55:07.361Z</time>
      </trkpt>
      <trkpt lat="47.1355" lon="0.16014">
        <ele>76.17</ele>
        <time>2023-06-09T14:55:33.227Z</time>
      </trkpt>
      <trkpt lat="47.13549" lon="0.16033">
        <ele>76.53</ele>
        <time>2023-06-09T14:55:59.095Z</time>
      </trkpt>
      <trkpt lat="47.13548" lon="0.16085">
        <ele>77.41</ele>
        <time>2023-06-09T14:56:24.969Z</time>
      </trkpt>
      <trkpt lat="47.13548" lon="0.1609">
        <ele>77.47</ele>
        <time>2023-06-09T14:56:50.844Z</time>
      </trkpt>
      <trkpt lat="47.13548" lon="0.16098">
        <ele>77.58</ele>
        <time>2023-06-09T14:57:16.720Z</time>
      </trkpt>
      <trkpt lat="47.13548" lon="0.16111">
        <ele>77.68</ele>
        <time>2023-06-09T14:57:42.597Z</time>
      </trkpt>
      <trkpt lat="47.13548" lon="0.16124">
        <ele>77.72</ele>
        <time>2023-06-09T14:58:08.475Z</time>
      </trkpt>
      <trkpt lat="47.13548" lon="0.16135">
        <ele>77.7</ele>
        <time>2023-06-09T14:58:34.355Z</time>
      </trkpt>
      <trkpt lat="47.13548" lon="0.16137">
        <ele>77.7</ele>
        <time>2023-06-09T14:59:00.235Z</time>
      </trkpt>
      <trkpt lat="47.13549" lon="0.1615">
        <ele>77.79</ele>
        <time>2023-06-09T14:59:26.116Z</time>
      </trkpt>
      <trkpt lat="47.13549" lon="0.16162">
        <ele>77.83</ele>
        <time>2023-06-09T14:59:51.999Z</time>
      </trkpt>
      <trkpt lat="47.1355" lon="0.16175">
        <ele>77.81</ele>
        <time>2023-06-09T15:00:17.883Z</time>
      </trkpt>
      <trkpt lat="47.1355" lon="0.16177">
        <ele>77.79</ele>
        <time>2023-06-09T15:00:43.767Z</time>
      </trkpt>
      <trkpt lat="47.13552" lon="0.16187">
        <ele>77.73</ele>
        <time>2023-06-09T15:01:09.652Z</time>
      </trkpt>
      <trkpt lat="47.13553" lon="0.16199">
        <ele>77.58</ele>
        <time>2023-06-09T15:01:35.539Z</time>
      </trkpt>
      <trkpt lat="47.13555" lon="0.16212">
        <ele>77.39</ele>
        <time>2023-06-09T15:02:01.427Z</time>
      </trkpt>
      <trkpt lat="47.13562" lon="0.16254">
        <ele>76.58</ele>
        <time>2023-06-09T15:02:27.320Z</time>
      </trkpt>
      <trkpt lat="47.13566" lon="0.16284">
        <ele>76.32</ele>
        <time>2023-06-09T15:02:53.216Z</time>
      </trkpt>
      <trkpt lat="47.13568" lon="0.16297">
        <ele>76.42</ele>
        <time>2023-06-09T15:03:19.114Z</time>
      </trkpt>
      <trkpt lat="47.13569" lon="0.16303">
        <ele>76.49</ele>
        <time>2023-06-09T15:03:45.012Z</time>
      </trkpt>
      <trkpt lat="47.13572" lon="0.16323">
        <ele>76.75</ele>
        <time>2023-06-09T15:04:10.913Z</time>
      </trkpt>
      <trkpt lat="47.13575" lon="0.16342">
        <ele>77.01</ele>
        <time>2023-06-09T15:04:36.816Z</time>
      </trkpt>
      <trkpt lat="47.1358" lon="0.16367">
        <ele>77.22</ele>
        <time>2023-06-09T15:05:02.722Z</time>
      </trkpt>
      <trkpt lat="47.13582" lon="0.1638">
        <ele>77.27</ele>
        <time>2023-06-09T15:05:28.629Z</time>
      </trkpt>
      <trkpt lat="47.13585" lon="0.16399">
        <ele>77.28</ele>
        <time>2023-06-09T15:05:54.538Z</time>
      </trkpt>
      <trkpt lat="47.13589" lon="0.16419">
        <ele>77.25</ele>
        <time>2023-06-09T15:06:20.449Z</time>
      </trkpt>
      <trkpt lat="47.13593" lon="0.16444">
        <ele>77.14</ele>
        <time>2023-06-09T15:06:46.363Z</time>
      </trkpt>
      <trkpt lat="47.13596" lon="0.16463">
        <ele>77</ele>
        <time>2023-06-09T15:07:12.279Z</time>
      </trkpt>
      <trkpt lat="47.13601" lon="0.16489">
        <ele>76.7</ele>
        <time>2023-06-09T15:07:38.198Z</time>
      </trkpt>
      <trkpt lat="47.13609" lon="0.16533">
        <ele>76</ele>
        <time>2023-06-09T15:08:04.122Z</time>
      </trkpt>
      <trkpt lat="47.13617" lon="0.16578">
        <ele>75.46</ele>
        <time>2023-06-09T15:08:30.051Z</time>
      </trkpt>
      <trkpt lat="47.13619" lon="0.16591">
        <ele>75.28</ele>
        <time>2023-06-09T15:08:55.982Z</time>
      </trkpt>
      <trkpt lat="47.13622" lon="0.16609">
        <ele>74.96</ele>
        <time>2023-06-09T15:09:21.915Z</time>
      </trkpt>
      <trkpt lat="47.13627" lon="0.16649">
        <ele>74.27</ele>
        <time>2023-06-09T15:09:47.852Z</time>
      </trkpt>
      <trkpt lat="47.13629" lon="0.16662">
        <ele>74.1</ele>
        <time>2023-06-09T15:10:13.791Z</time>
      </trkpt>
      <trkpt lat="47.13631" lon="0.16682">
        <ele>73.92</ele>
        <time>2023-06-09T15:10:39.732Z</time>
      </trkpt>
      <trkpt lat="47.13634" lon="0.167">
        <ele>73.78</ele>
        <time>2023-06-09T15:11:05.675Z</time>
      </trkpt>
      <trkpt lat="47.13638" lon="0.16732">
        <ele>73.51</ele>
        <time>2023-06-09T15:11:31.621Z</time>
      </trkpt>
      <trkpt lat="47.13643" lon="0.16775">
        <ele>73.16</ele>
        <time>2023-06-09T15:11:57.572Z</time>
      </trkpt>
      <trkpt lat="47.13644" lon="0.16779">
        <ele>73.1</ele>
        <time>2023-06-09T15:12:23.524Z</time>
      </trkpt>
      <trkpt lat="47.13646" lon="0.16792">
        <ele>73.04</ele>
        <time>2023-06-09T15:12:49.477Z</time>
      </trkpt>
      <trkpt lat="47.13649" lon="0.16818">
        <ele>72.95</ele>
        <time>2023-06-09T15:13:15.433Z</time>
      </trkpt>
      <trkpt lat="47.13649" lon="0.16818">
        <ele>72.95</ele>
        <time>2023-06-09T15:13:41.389Z</time>
      </trkpt>
      <trkpt lat="47.13651" lon="0.16831">
        <ele>72.87</ele>
        <time>2023-06-09T15:14:07.346Z</time>
      </trkpt>
      <trkpt lat="47.13653" lon="0.16837">
        <ele>72.81</ele>
        <time>2023-06-09T15:14:33.304Z</time>
      </trkpt>
      <trkpt lat="47.13655" lon="0.1685">
        <ele>72.66</ele>
        <time>2023-06-09T15:14:59.264Z</time>
      </trkpt>
      <trkpt lat="47.13656" lon="0.16856">
        <ele>72.56</ele>
        <time>2023-06-09T15:15:25.224Z</time>
      </trkpt>
      <trkpt lat="47.13662" lon="0.16888">
        <ele>71.98</ele>
        <time>2023-06-09T15:15:51.188Z</time>
      </trkpt>
      <trkpt lat="47.13666" lon="0.16907">
        <ele>71.68</ele>
        <time>2023-06-09T15:16:17.154Z</time>
      </trkpt>
      <trkpt lat="47.13668" lon="0.1692">
        <ele>71.5</ele>
        <time>2023-06-09T15:16:43.122Z</time>
      </trkpt>
      <trkpt lat="47.13671" lon="0.16932">
        <ele>71.38</ele>
        <time>2023-06-09T15:17:09.091Z</time>
      </trkpt>
      <trkpt lat="47.13677" lon="0.16964">
        <ele>71.14</ele>
        <time>2023-06-09T15:17:35.064Z</time>
      </trkpt>
      <trkpt lat="47.13681" lon="0.1699">
        <ele>71.27</ele>
        <time>2023-06-09T15:18:01.039Z</time>
      </trkpt>
      <trkpt lat="47.13683" lon="0.16996">
        <ele>71.28</ele>
        <time>2023-06-09T15:18:27.015Z</time>
      </trkpt>
      <trkpt lat="47.13684" lon="0.17003">
        <ele>71.26</ele>
        <time>2023-06-09T15:18:52.992Z</time>
      </trkpt>
      <trkpt lat="47.13685" lon="0.17009">
        <ele>71.26</ele>
        <time>2023-06-09T15:19:18.970Z</time>
      </trkpt>
      <trkpt lat="47.13687" lon="0.17021">
        <ele>71.19</ele>
        <time>2023-06-09T15:19:44.949Z</time>
      </trkpt>
      <trkpt lat="47.1369" lon="0.17034">
        <ele>71.09</ele>
        <time>2023-06-09T15:20:10.929Z</time>
      </trkpt>
      <trkpt lat="47.13697" lon="0.17075">
        <ele>70.71</ele>
        <time>2023-06-09T15:20:36.914Z</time>
      </trkpt>
      <trkpt lat="47.13699" lon="0.17085">
        <ele>70.62</ele>
        <time>2023-06-09T15:21:02.900Z</time>
      </trkpt>
      <trkpt lat="47.13702" lon="0.17097">
        <ele>70.56</ele>
        <time>2023-06-09T15:21:28.888Z</time>
      </trkpt>
      <trkpt lat="47.13708" lon="0.17122">
        <ele>70.49</ele>
        <time>2023-06-09T15:21:54.879Z</time>
      </trkpt>
      <trkpt lat="47.13713" lon="0.17147">
        <ele>70.47</ele>
        <time>2023-06-09T15:22:20.872Z</time>
      </trkpt>
      <trkpt lat="47.13714" lon="0.17151">
        <ele>70.48</ele>
        <time>2023-06-09T15:22:46.866Z</time>
      </trkpt>
      <trkpt lat="47.13716" lon="0.17159">
        <ele>70.52</ele>
        <time>2023-06-09T15:23:12.861Z</time>
      </trkpt>
      <trkpt lat="47.13721" lon="0.17178">
        <ele>70.63</ele>
        <time>2023-06-09T15:23:38.858Z</time>
      </trkpt>
      <trkpt lat="47.13722" lon="0.17184">
        <ele>70.65</ele>
        <time>2023-06-09T15:24:04.856Z</time>
      </trkpt>
      <trkpt lat="47.13724" lon="0.1719">
        <ele>70.66</ele>
        <time>2023-06-09T15:24:30.854Z</time>
      </trkpt>
      <trkpt lat="47.13727" lon="0.17203">
        <ele>70.63</ele>
        <time>2023-06-09T15:24:56.854Z</time>
      </trkpt>
      <trkpt lat="47.1373" lon="0.17215">
        <ele>70.56</ele>
        <time>2023-06-09T15:25:22.855Z</time>
      </trkpt>
      <trkpt lat="47.13734" lon="0.17234">
        <ele>70.42</ele>
        <time>2023-06-09T15:25:48.858Z</time>
      </trkpt>
      <trkpt lat="47.13739" lon="0.17252">
        <ele>70.24</ele>
        <time>2023-06-09T15:26:14.864Z</time>
      </trkpt>
      <trkpt lat="47.13743" lon="0.17271">
        <ele>70.03</ele>
        <time>2023-06-09T15:26:40.872Z</time>
      </trkpt>
      <trkpt lat="47.13746" lon="0.17283">
        <ele>69.85</ele>
        <time>2023-06-09T15:27:06.881Z</time>
      </trkpt>
      <trkpt lat="47.13749" lon="0.17295">
        <ele>69.64</ele>
        <time>2023-06-09T15:27:32.892Z</time>
      </trkpt>
      <trkpt lat="47.13754" lon="0.17314">
        <ele>69.27</ele>
        <time>2023-06-09T15:27:58.905Z</time>
      </trkpt>
      <trkpt lat="47.13756" lon="0.17323">
        <ele>69.06</ele>
        <time>2023-06-09T15:28:24.919Z</time>
      </trkpt>
      <trkpt lat="47.13757" lon="0.17326">
        <ele>68.99</ele>
        <time>2023-06-09T15:28:50.933Z</time>
      </trkpt>
      <trkpt lat="47.1376" lon="0.17338">
        <ele>68.67</ele>
        <time>2023-06-09T15:29:16.949Z</time>
      </trkpt>
      <trkpt lat="47.13766" lon="0.17356">
        <ele>68.15</ele>
        <time>2023-06-09T15:29:42.967Z</time>
      </trkpt>
      <trkpt lat="47.13773" lon="0.17381">
        <ele>67.4</ele>
        <time>2023-06-09T15:30:08.988Z</time>
      </trkpt>
      <trkpt lat="47.13777" lon="0.174">
        <ele>66.87</ele>
        <time>2023-06-09T15:30:35.011Z</time>
      </trkpt>
      <trkpt lat="47.1378" lon="0.17418">
        <ele>66.35</ele>
        <time>2023-06-09T15:31:01.036Z</time>
      </trkpt>
      <trkpt lat="47.13783" lon="0.17431">
        <ele>66.04</ele>
        <time>2023-06-09T15:31:27.062Z</time>
      </trkpt>
      <trkpt lat="47.13786" lon="0.17447">
        <ele>65.67</ele>
        <time>2023-06-09T15:31:53.090Z</time>
      </trkpt>
      <trkpt lat="47.13788" lon="0.17456">
        <ele>65.46</ele>
        <time>2023-06-09T15:32:19.119Z</time>
      </trkpt>
      <trkpt lat="47.13795" lon="0.17487">
        <ele>64.67</ele>
        <time>2023-06-09T15:32:45.152Z</time>
      </trkpt>
      <trkpt lat="47.13805" lon="0.17531">
        <ele>63.73</ele>
        <time>2023-06-09T15:33:11.190Z</time>
      </trkpt>
      <trkpt lat="47.13817" lon="0.17582">
        <ele>62.8</ele>
        <time>2023-06-09T15:33:37.234Z</time>
      </trkpt>
      <trkpt lat="47.1382" lon="0.176">
        <ele>62.49</ele>
        <time>2023-06-09T15:34:03.280Z</time>
      </trkpt>
      <trkpt lat="47.13829" lon="0.17657">
        <ele>61.6</ele>
        <time>2023-06-09T15:34:29.332Z</time>
      </trkpt>
      <trkpt lat="47.13831" lon="0.1767">
        <ele>61.44</ele>
        <time>2023-06-09T15:34:55.386Z</time>
      </trkpt>
      <trkpt lat="47.13837" lon="0.17708">
        <ele>61.08</ele>
        <time>2023-06-09T15:35:21.444Z</time>
      </trkpt>
      <trkpt lat="47.13846" lon="0.17766">
        <ele>60.67</ele>
        <time>2023-06-09T15:35:47.508Z</time>
      </trkpt>
      <trkpt lat="47.13851" lon="0.17797">
        <ele>60.54</ele>
        <time>2023-06-09T15:36:13.576Z</time>
      </trkpt>
      <trkpt lat="47.13856" lon="0.17828">
        <ele>60.47</ele>
        <time>2023-06-09T15:36:39.647Z</time>
      </trkpt>
      <trkpt lat="47.1386" lon="0.1784">
        <ele>60.44</ele>
        <time>2023-06-09T15:37:05.720Z</time>
      </trkpt>
      <trkpt lat="47.13872" lon="0.17882">
        <ele>60.48</ele>
        <time>2023-06-09T15:37:31.798Z</time>
      </trkpt>
      <trkpt lat="47.13874" lon="0.17888">
        <ele>60.53</ele>
        <time>2023-06-09T15:37:57.876Z</time>
      </trkpt>
      <trkpt lat="47.13885" lon="0.17924">
        <ele>60.61</ele>
        <time>2023-06-09T15:38:23.959Z</time>
      </trkpt>
      <trkpt lat="47.13897" lon="0.17966">
        <ele>60.8</ele>
        <time>2023-06-09T15:38:50.047Z</time>
      </trkpt>
      <trkpt lat="47.13902" lon="0.17981">
        <ele>60.82</ele>
        <time>2023-06-09T15:39:16.137Z</time>
      </trkpt>
      <trkpt lat="47.13907" lon="0.17995">
        <ele>60.85</ele>
        <time>2023-06-09T15:39:42.228Z</time>
      </trkpt>
      <trkpt lat="47.13914" lon="0.18012">
        <ele>60.85</ele>
        <time>2023-06-09T15:40:08.321Z</time>
      </trkpt>
      <trkpt lat="47.13928" lon="0.18046">
        <ele>60.74</ele>
        <time>2023-06-09T15:40:34.419Z</time>
      </trkpt>
      <trkpt lat="47.13928" lon="0.18046">
        <ele>60.74</ele>
        <time>2023-06-09T15:41:00.517Z</time>
      </trkpt>
      <trkpt lat="47.13936" lon="0.18077">
        <ele>60.71</ele>
        <time>2023-06-09T15:41:26.618Z</time>
      </trkpt>
      <trkpt lat="47.13939" lon="0.18089">
        <ele>60.68</ele>
        <time>2023-06-09T15:41:52.721Z</time>
      </trkpt>
      <trkpt lat="47.13947" lon="0.1812">
        <ele>60.54</ele>
        <time>2023-06-09T15:42:18.827Z</time>
      </trkpt>
      <trkpt lat="47.13954" lon="0.18151">
        <ele>60.37</ele>
        <time>2023-06-09T15:42:44.937Z</time>
      </trkpt>
      <trkpt lat="47.13957" lon="0.18163">
        <ele>60.32</ele>
        <time>2023-06-09T15:43:11.048Z</time>
      </trkpt>
      <trkpt lat="47.13962" lon="0.18182">
        <ele>60.31</ele>
        <time>2023-06-09T15:43:37.162Z</time>
      </trkpt>
      <trkpt lat="47.13965" lon="0.18193">
        <ele>60.32</ele>
        <time>2023-06-09T15:44:03.277Z</time>
      </trkpt>
      <trkpt lat="47.13974" lon="0.18224">
        <ele>60.35</ele>
        <time>2023-06-09T15:44:29.396Z</time>
      </trkpt>
      <trkpt lat="47.13982" lon="0.18248">
        <ele>60.45</ele>
        <time>2023-06-09T15:44:55.518Z</time>
      </trkpt>
      <trkpt lat="47.13989" lon="0.18272">
        <ele>60.62</ele>
        <time>2023-06-09T15:45:21.642Z</time>
      </trkpt>
      <trkpt lat="47.13991" lon="0.18279">
        <ele>60.68</ele>
        <time>2023-06-09T15:45:47.767Z</time>
      </trkpt>
      <trkpt lat="47.13993" lon="0.18284">
        <ele>60.73</ele>
        <time>2023-06-09T15:46:13.893Z</time>
      </trkpt>
      <trkpt lat="47.14002" lon="0.18305">
        <ele>60.98</ele>
        <time>2023-06-09T15:46:40.022Z</time>
      </trkpt>
      <trkpt lat="47.14006" lon="0.18311">
        <ele>61.07</ele>
        <time>2023-06-09T15:47:06.151Z</time>
      </trkpt>
      <trkpt lat="47.14015" lon="0.18325">
        <ele>61.31</ele>
        <time>2023-06-09T15:47:32.283Z</time>
      </trkpt>
      <trkpt lat="47.14019" lon="0.1833">
        <ele>61.41</ele>
        <time>2023-06-09T15:47:58.415Z</time>
      </trkpt>
      <trkpt lat="47.14046" lon="0.18363">
        <ele>62.15</ele>
        <time>2023-06-09T15:48:24.553Z</time>
      </trkpt>
      <trkpt lat="47.14047" lon="0.18364">
        <ele>62.17</ele>
        <time>2023-06-09T15:48:50.691Z</time>
      </trkpt>
      <trkpt lat="47.14053" lon="0.18372">
        <ele>62.37</ele>
        <time>2023-06-09T15:49:16.830Z</time>
      </trkpt>
      <trkpt lat="47.14066" lon="0.1839">
        <ele>62.85</ele>
        <time>2023-06-09T15:49:42.972Z</time>
      </trkpt>
      <trkpt lat="47.14072" lon="0.18398">
        <ele>63.06</ele>
        <time>2023-06-09T15:50:09.116Z</time>
      </trkpt>
      <trkpt lat="47.14072" lon="0.18399">
        <ele>63.06</ele>
        <time>2023-06-09T15:50:35.260Z</time>
      </trkpt>
      <trkpt lat="47.14084" lon="0.1842">
        <ele>63.44</ele>
        <time>2023-06-09T15:51:01.407Z</time>
      </trkpt>
      <trkpt lat="47.14089" lon="0.1843">
        <ele>63.62</ele>
        <time>2023-06-09T15:51:27.555Z</time>
      </trkpt>
      <trkpt lat="47.14101" lon="0.18458">
        <ele>64.13</ele>
        <time>2023-06-09T15:51:53.707Z</time>
      </trkpt>
      <trkpt lat="47.14109" lon="0.18475">
        <ele>64.37</ele>
        <time>2023-06-09T15:52:19.861Z</time>
      </trkpt>
      <trkpt lat="47.14109" lon="0.18475">
        <ele>64.37</ele>
        <time>2023-06-09T15:52:46.015Z</time>
      </trkpt>
      <trkpt lat="47.14115" lon="0.18484">
        <ele>64.46</ele>
        <time>2023-06-09T15:53:12.170Z</time>
      </trkpt>
      <trkpt lat="47.1413" lon="0.18507">
        <ele>64.58</ele>
        <time>2023-06-09T15:53:38.329Z</time>
      </trkpt>
      <trkpt lat="47.14156" lon="0.18545">
        <ele>64.63</ele>
        <time>2023-06-09T15:54:04.494Z</time>
      </trkpt>
      <trkpt lat="47.14156" lon="0.18545">
        <ele>64.63</ele>
        <time>2023-06-09T15:54:30.659Z</time>
      </trkpt>
      <trkpt lat="47.14166" lon="0.18566">
        <ele>64.61</ele>
        <time>2023-06-09T15:54:56.827Z</time>
      </trkpt>
      <trkpt lat="47.14174" lon="0.18582">
        <ele>64.53</ele>
        <time>2023-06-09T15:55:22.997Z</time>
      </trkpt>
      <trkpt lat="47.14184" lon="0.18603">
        <ele>64.36</ele>
        <time>2023-06-09T15:55:49.170Z</time>
      </trkpt>
      <trkpt lat="47.14194" lon="0.18623">
        <ele>64.25</ele>
        <time>2023-06-09T15:56:15.345Z</time>
      </trkpt>
      <trkpt lat="47.14195" lon="0.18625">
        <ele>64.25</ele>
        <time>2023-06-09T15:56:41.520Z</time>
      </trkpt>
      <trkpt lat="47.14202" lon="0.18633">
        <ele>64.16</ele>
        <time>2023-06-09T15:57:07.697Z</time>
      </trkpt>
      <trkpt lat="47.14205" lon="0.18638">
        <ele>64.09</ele>
        <time>2023-06-09T15:57:33.875Z</time>
      </trkpt>
      <trkpt lat="47.14212" lon="0.18647">
        <ele>63.9</ele>
        <time>2023-06-09T15:58:00.054Z</time>
      </trkpt>
      <trkpt lat="47.14218" lon="0.18656">
        <ele>63.68</ele>
        <time>2023-06-09T15:58:26.234Z</time>
      </trkpt>
      <trkpt lat="47.14228" lon="0.18669">
        <ele>63.31</ele>
        <time>2023-06-09T15:58:52.417Z</time>
      </trkpt>
      <trkpt lat="47.14235" lon="0.18678">
        <ele>63.04</ele>
        <time>2023-06-09T15:59:18.601Z</time>
      </trkpt>
      <trkpt lat="47.14241" lon="0.18687">
        <ele>62.74</ele>
        <time>2023-06-09T15:59:44.786Z</time>
      </trkpt>
      <trkpt lat="47.14249" lon="0.18697">
        <ele>62.36</ele>
        <time>2023-06-09T16:00:10.973Z</time>
      </trkpt>
      <trkpt lat="47.14254" lon="0.18705">
        <ele>62.08</ele>
        <time>2023-06-09T16:00:37.161Z</time>
      </trkpt>
      <trkpt lat="47.1426" lon="0.18715">
        <ele>61.72</ele>
        <time>2023-06-09T16:01:03.351Z</time>
      </trkpt>
      <trkpt lat="47.14279" lon="0.18743">
        <ele>60.51</ele>
        <time>2023-06-09T16:01:29.545Z</time>
      </trkpt>
      <trkpt lat="47.14288" lon="0.18758">
        <ele>59.81</ele>
        <time>2023-06-09T16:01:55.741Z</time>
      </trkpt>
      <trkpt lat="47.14297" lon="0.18772">
        <ele>59.07</ele>
        <time>2023-06-09T16:02:21.939Z</time>
      </trkpt>
      <trkpt lat="47.1431" lon="0.18791">
        <ele>57.85</ele>
        <time>2023-06-09T16:02:48.140Z</time>
      </trkpt>
      <trkpt lat="47.14316" lon="0.18801">
        <ele>57.25</ele>
        <time>2023-06-09T16:03:14.343Z</time>
      </trkpt>
      <trkpt lat="47.14318" lon="0.18806">
        <ele>56.99</ele>
        <time>2023-06-09T16:03:40.546Z</time>
      </trkpt>
      <trkpt lat="47.14332" lon="0.18832">
        <ele>55.62</ele>
        <time>2023-06-09T16:04:06.753Z</time>
      </trkpt>
      <trkpt lat="47.14334" lon="0.18836">
        <ele>55.39</ele>
        <time>2023-06-09T16:04:32.961Z</time>
      </trkpt>
      <trkpt lat="47.1434" lon="0.18853">
        <ele>54.56</ele>
        <time>2023-06-09T16:04:59.171Z</time>
      </trkpt>
      <trkpt lat="47.14343" lon="0.18867">
        <ele>53.92</ele>
        <time>2023-06-09T16:05:25.382Z</time>
      </trkpt>
      <trkpt lat="47.14348" lon="0.18886">
        <ele>53.11</ele>
        <time>2023-06-09T16:05:51.595Z</time>
      </trkpt>
      <trkpt lat="47.14352" lon="0.18904">
        <ele>52.34</ele>
        <time>2023-06-09T16:06:17.811Z</time>
      </trkpt>
      <trkpt lat="47.14358" lon="0.18928">
        <ele>51.36</ele>
        <time>2023-06-09T16:06:44.029Z</time>
      </trkpt>
      <trkpt lat="47.14358" lon="0.18929">
        <ele>51.36</ele>
        <time>2023-06-09T16:07:10.247Z</time>
      </trkpt>
      <trkpt lat="47.14365" lon="0.18953">
        <ele>50.41</ele>
        <time>2023-06-09T16:07:36.468Z</time>
      </trkpt>
      <trkpt lat="47.14377" lon="0.18996">
        <ele>48.79</ele>
        <time>2023-06-09T16:08:02.694Z</time>
      </trkpt>
      <trkpt lat="47.14386" lon="0.19032">
        <ele>47.3</ele>
        <time>2023-06-09T16:08:28.925Z</time>
      </trkpt>
      <trkpt lat="47.14391" lon="0.1905">
        <ele>46.51</ele>
        <time>2023-06-09T16:08:55.158Z</time>
      </trkpt>
      <trkpt lat="47.14393" lon="0.19056">
        <ele>46.23</ele>
        <time>2023-06-09T16:09:21.391Z</time>
      </trkpt>
      <trkpt lat="47.14395" lon="0.19069">
        <ele>45.61</ele>
        <time>2023-06-09T16:09:47.626Z</time>
      </trkpt>
      <trkpt lat="47.144" lon="0.19095">
        <ele>44.33</ele>
        <time>2023-06-09T16:10:13.864Z</time>
      </trkpt>
      <trkpt lat="47.144" lon="0.19095">
        <ele>44.33</ele>
        <time>2023-06-09T16:10:40.102Z</time>
      </trkpt>
      <trkpt lat="47.14398" lon="0.19133">
        <ele>42.37</ele>
        <time>2023-06-09T16:11:06.344Z</time>
      </trkpt>
      <trkpt lat="47.14397" lon="0.19144">
        <ele>41.79</ele>
        <time>2023-06-09T16:11:32.587Z</time>
      </trkpt>
      <trkpt lat="47.14394" lon="0.19166">
        <ele>40.59</ele>
        <time>2023-06-09T16:11:58.833Z</time>
      </trkpt>
      <trkpt lat="47.14393" lon="0.19179">
        <ele>39.92</ele>
        <time>2023-06-09T16:12:25.080Z</time>
      </trkpt>
      <trkpt lat="47.14391" lon="0.19198">
        <ele>38.97</ele>
        <time>2023-06-09T16:12:51.329Z</time>
      </trkpt>
      <trkpt lat="47.14389" lon="0.19211">
        <ele>38.39</ele>
        <time>2023-06-09T16:13:17.580Z</time>
      </trkpt>
      <trkpt lat="47.14389" lon="0.19218">
        <ele>38.14</ele>
        <time>2023-06-09T16:13:43.831Z</time>
      </trkpt>
      <trkpt lat="47.14387" lon="0.1923">
        <ele>37.68</ele>
        <time>2023-06-09T16:14:10.084Z</time>
      </trkpt>
      <trkpt lat="47.14386" lon="0.19243">
        <ele>37.29</ele>
        <time>2023-06-09T16:14:36.338Z</time>
      </trkpt>
      <trkpt lat="47.14383" lon="0.19263">
        <ele>36.84</ele>
        <time>2023-06-09T16:15:02.594Z</time>
      </trkpt>
      <trkpt lat="47.14382" lon="0.19276">
        <ele>36.59</ele>
        <time>2023-06-09T16:15:28.852Z</time>
      </trkpt>
      <trkpt lat="47.1438" lon="0.19289">
        <ele>36.39</ele>
        <time>2023-06-09T16:15:55.111Z</time>
      </trkpt>
      <trkpt lat="47.14378" lon="0.19308">
        <ele>36.38</ele>
        <time>2023-06-09T16:16:21.372Z</time>
      </trkpt>
      <trkpt lat="47.14376" lon="0.19327">
        <ele>36.4</ele>
        <time>2023-06-09T16:16:47.635Z</time>
      </trkpt>
      <trkpt lat="47.14376" lon="0.19328">
        <ele>36.4</ele>
        <time>2023-06-09T16:17:13.899Z</time>
      </trkpt>
      <trkpt lat="47.14388" lon="0.19343">
        <ele>36.51</ele>
        <time>2023-06-09T16:17:40.165Z</time>
      </trkpt>
      <trkpt lat="47.14388" lon="0.19344">
        <ele>36.51</ele>
        <time>2023-06-09T16:18:06.431Z</time>
      </trkpt>
      <trkpt lat="47.1439" lon="0.19358">
        <ele>36.6</ele>
        <time>2023-06-09T16:18:32.699Z</time>
      </trkpt>
      <trkpt lat="47.14387" lon="0.19374">
        <ele>36.71</ele>
        <time>2023-06-09T16:18:58.969Z</time>
      </trkpt>
      <trkpt lat="47.14371" lon="0.19447">
        <ele>37.4</ele>
        <time>2023-06-09T16:19:25.247Z</time>
      </trkpt>
      <trkpt lat="47.1437" lon="0.19453">
        <ele>37.48</ele>
        <time>2023-06-09T16:19:51.526Z</time>
      </trkpt>
      <trkpt lat="47.14366" lon="0.19471">
        <ele>37.77</ele>
        <time>2023-06-09T16:20:17.807Z</time>
      </trkpt>
      <trkpt lat="47.14364" lon="0.19483">
        <ele>37.85</ele>
        <time>2023-06-09T16:20:44.089Z</time>
      </trkpt>
      <trkpt lat="47.14358" lon="0.19509">
        <ele>38.66</ele>
        <time>2023-06-09T16:21:10.374Z</time>
      </trkpt>
      <trkpt lat="47.1435" lon="0.19506">
        <ele>39.02</ele>
        <time>2023-06-09T16:21:36.660Z</time>
      </trkpt>
      <trkpt lat="47.1435" lon="0.19511">
        <ele>39.17</ele>
        <time>2023-06-09T16:22:02.947Z</time>
      </trkpt>
      <trkpt lat="47.14351" lon="0.19519">
        <ele>39.42</ele>
        <time>2023-06-09T16:22:29.235Z</time>
      </trkpt>
      <trkpt lat="47.14354" lon="0.19521">
        <ele>39.57</ele>
        <time>2023-06-09T16:22:55.523Z</time>
      </trkpt>
      <trkpt lat="47.14366" lon="0.19527">
        <ele>40.22</ele>
        <time>2023-06-09T16:23:21.813Z</time>
      </trkpt>
      <trkpt lat="47.14374" lon="0.19532">
        <ele>40.27</ele>
        <time>2023-06-09T16:23:48.105Z</time>
      </trkpt>
      <trkpt lat="47.14378" lon="0.19534">
        <ele>40.41</ele>
        <time>2023-06-09T16:24:14.397Z</time>
      </trkpt>
      <trkpt lat="47.14382" lon="0.19543">
        <ele>40.66</ele>
        <time>2023-06-09T16:24:40.691Z</time>
      </trkpt>
      <trkpt lat="47.14382" lon="0.19545">
        <ele>40.72</ele>
        <time>2023-06-09T16:25:06.985Z</time>
      </trkpt>
      <trkpt lat="47.14384" lon="0.19553">
        <ele>40.94</ele>
        <time>2023-06-09T16:25:33.280Z</time>
      </trkpt>
      <trkpt lat="47.14383" lon="0.19558">
        <ele>41.09</ele>
        <time>2023-06-09T16:25:59.575Z</time>
      </trkpt>
      <trkpt lat="47.14382" lon="0.19565">
        <ele>41.33</ele>
        <time>2023-06-09T16:26:25.871Z</time>
      </trkpt>
      <trkpt lat="47.14386" lon="0.19566">
        <ele>41.55</ele>
        <time>2023-06-09T16:26:52.168Z</time>
      </trkpt>
      <trkpt lat="47.1439" lon="0.19568">
        <ele>41.82</ele>
        <time>2023-06-09T16:27:18.465Z</time>
      </trkpt>
      <trkpt lat="47.14395" lon="0.1957">
        <ele>42.11</ele>
        <time>2023-06-09T16:27:44.763Z</time>
      </trkpt>
      <trkpt lat="47.14398" lon="0.19571">
        <ele>42.35</ele>
        <time>2023-06-09T16:28:11.062Z</time>
      </trkpt>
      <trkpt lat="47.14402" lon="0.19576">
        <ele>42.75</ele>
        <time>2023-06-09T16:28:37.362Z</time>
      </trkpt>
      <trkpt lat="47.14408" lon="0.19582">
        <ele>43.3</ele>
        <time>2023-06-09T16:29:03.663Z</time>
      </trkpt>
      <trkpt lat="47.14409" lon="0.19585">
        <ele>43.46</ele>
        <time>2023-06-09T16:29:29.964Z</time>
      </trkpt>
      <trkpt lat="47.14419" lon="0.19614">
        <ele>45.29</ele>
        <time>2023-06-09T16:29:56.269Z</time>
      </trkpt>
      <trkpt lat="47.14423" lon="0.19624">
        <ele>45.89</ele>
        <time>2023-06-09T16:30:22.575Z</time>
      </trkpt>
      <trkpt lat="47.14426" lon="0.19641">
        <ele>46.8</ele>
        <time>2023-06-09T16:30:48.883Z</time>
      </trkpt>
      <trkpt lat="47.14426" lon="0.19645">
        <ele>46.99</ele>
        <time>2023-06-09T16:31:15.191Z</time>
      </trkpt>
      <trkpt lat="47.14425" lon="0.19662">
        <ele>47.84</ele>
        <time>2023-06-09T16:31:41.501Z</time>
      </trkpt>
      <trkpt lat="47.14422" lon="0.1967">
        <ele>48.27</ele>
        <time>2023-06-09T16:32:07.812Z</time>
      </trkpt>
      <trkpt lat="47.14413" lon="0.19693">
        <ele>49.4</ele>
        <time>2023-06-09T16:32:34.126Z</time>
      </trkpt>
      <trkpt lat="47.1441" lon="0.19702">
        <ele>49.89</ele>
        <time>2023-06-09T16:33:00.441Z</time>
      </trkpt>
      <trkpt lat="47.14409" lon="0.19704">
        <ele>50.02</ele>
        <time>2023-06-09T16:33:26.756Z</time>
      </trkpt>
      <trkpt lat="47.14408" lon="0.1971">
        <ele>50.37</ele>
        <time>2023-06-09T16:33:53.072Z</time>
      </trkpt>
      <trkpt lat="47.14406" lon="0.19717">
        <ele>50.76</ele>
        <time>2023-06-09T16:34:19.389Z</time>
      </trkpt>
      <trkpt lat="47.14403" lon="0.19729">
        <ele>51.62</ele>
        <time>2023-06-09T16:34:45.707Z</time>
      </trkpt>
      <trkpt lat="47.14398" lon="0.19745">
        <ele>53.05</ele>
        <time>2023-06-09T16:35:12.027Z</time>
      </trkpt>
      <trkpt lat="47.14398" lon="0.19747">
        <ele>53.19</ele>
        <time>2023-06-09T16:35:38.347Z</time>
      </trkpt>
      <trkpt lat="47.14397" lon="0.19753">
        <ele>53.68</ele>
        <time>2023-06-09T16:36:04.668Z</time>
      </trkpt>
      <trkpt lat="47.14396" lon="0.19767">
        <ele>54.56</ele>
        <time>2023-06-09T16:36:30.991Z</time>
      </trkpt>
      <trkpt lat="47.14396" lon="0.19767">
        <ele>54.56</ele>
        <time>2023-06-09T16:36:57.314Z</time>
      </trkpt>
      <trkpt lat="47.14399" lon="0.19769">
        <ele>54.97</ele>
        <time>2023-06-09T16:37:23.637Z</time>
      </trkpt>
      <trkpt lat="47.14407" lon="0.19772">
        <ele>55.75</ele>
        <time>2023-06-09T16:37:49.961Z</time>
      </trkpt>
      <trkpt lat="47.14408" lon="0.19772">
        <ele>55.75</ele>
        <time>2023-06-09T16:38:16.286Z</time>
      </trkpt>
      <trkpt lat="47.14429" lon="0.19777">
        <ele>57.55</ele>
        <time>2023-06-09T16:38:42.614Z</time>
      </trkpt>
      <trkpt lat="47.14434" lon="0.19778">
        <ele>57.93</ele>
        <time>2023-06-09T16:39:08.943Z</time>
      </trkpt>
      <trkpt lat="47.14442" lon="0.19779">
        <ele>58.76</ele>
        <time>2023-06-09T16:39:35.273Z</time>
      </trkpt>
      <trkpt lat="47.14455" lon="0.19782">
        <ele>60.19</ele>
        <time>2023-06-09T16:40:01.605Z</time>
      </trkpt>
      <trkpt lat="47.14464" lon="0.19784">
        <ele>61.57</ele>
        <time>2023-06-09T16:40:27.939Z</time>
      </trkpt>
      <trkpt lat="47.14473" lon="0.19786">
        <ele>63.01</ele>
        <time>2023-06-09T16:40:54.274Z</time>
      </trkpt>
      <trkpt lat="47.14478" lon="0.19787">
        <ele>63.77</ele>
        <time>2023-06-09T16:41:20.610Z</time>
      </trkpt>
      <trkpt lat="47.14478" lon="0.19787">
        <ele>63.77</ele>
        <time>2023-06-09T16:41:46.946Z</time>
      </trkpt>
      <trkpt lat="47.14482" lon="0.19789">
        <ele>64.68</ele>
        <time>2023-06-09T16:42:13.283Z</time>
      </trkpt>
      <trkpt lat="47.14482" lon="0.19807">
        <ele>66.91</ele>
        <time>2023-06-09T16:42:39.622Z</time>
      </trkpt>
      <trkpt lat="47.14482" lon="0.1982">
        <ele>68.36</ele>
        <time>2023-06-09T16:43:05.962Z</time>
      </trkpt>
      <trkpt lat="47.14482" lon="0.19825">
        <ele>68.82</ele>
        <time>2023-06-09T16:43:32.303Z</time>
      </trkpt>
      <trkpt lat="47.14486" lon="0.19831">
        <ele>69.66</ele>
        <time>2023-06-09T16:43:58.644Z</time>
      </trkpt>
      <trkpt lat="47.14487" lon="0.19832">
        <ele>69.82</ele>
        <time>2023-06-09T16:44:24.986Z</time>
      </trkpt>
      <trkpt lat="47.1449" lon="0.19834">
        <ele>70.24</ele>
        <time>2023-06-09T16:44:51.328Z</time>
      </trkpt>
      <trkpt lat="47.14494" lon="0.19836">
        <ele>70.76</ele>
        <time>2023-06-09T16:45:17.671Z</time>
      </trkpt>
      <trkpt lat="47.14498" lon="0.19838">
        <ele>71.21</ele>
        <time>2023-06-09T16:45:44.015Z</time>
      </trkpt>
      <trkpt lat="47.14502" lon="0.19841">
        <ele>71.58</ele>
        <time>2023-06-09T16:46:10.359Z</time>
      </trkpt>
      <trkpt lat="47.14506" lon="0.19843">
        <ele>71.9</ele>
        <time>2023-06-09T16:46:36.704Z</time>
      </trkpt>
      <trkpt lat="47.14514" lon="0.19848">
        <ele>72.4</ele>
        <time>2023-06-09T16:47:03.050Z</time>
      </trkpt>
      <trkpt lat="47.14523" lon="0.19853">
        <ele>72.82</ele>
        <time>2023-06-09T16:47:29.398Z</time>
      </trkpt>
      <trkpt lat="47.14535" lon="0.1986">
        <ele>73.38</ele>
        <time>2023-06-09T16:47:55.748Z</time>
      </trkpt>
      <trkpt lat="47.14543" lon="0.19865">
        <ele>73.7</ele>
        <time>2023-06-09T16:48:22.099Z</time>
      </trkpt>
      <trkpt lat="47.14559" lon="0.19874">
        <ele>74.22</ele>
        <time>2023-06-09T16:48:48.453Z</time>
      </trkpt>
      <trkpt lat="47.14568" lon="0.19879">
        <ele>74.4</ele>
        <time>2023-06-09T16:49:14.809Z</time>
      </trkpt>
      <trkpt lat="47.14572" lon="0.19882">
        <ele>74.47</ele>
        <time>2023-06-09T16:49:41.165Z</time>
      </trkpt>
      <trkpt lat="47.14574" lon="0.19883">
        <ele>74.49</ele>
        <time>2023-06-09T16:50:07.522Z</time>
      </trkpt>
      <trkpt lat="47.1458" lon="0.19887">
        <ele>74.55</ele>
        <time>2023-06-09T16:50:33.880Z</time>
      </trkpt>
      <trkpt lat="47.14587" lon="0.19893">
        <ele>74.56</ele>
        <time>2023-06-09T16:51:00.239Z</time>
      </trkpt>
      <trkpt lat="47.14603" lon="0.19905">
        <ele>74.47</ele>
        <time>2023-06-09T16:51:26.601Z</time>
      </trkpt>
      <trkpt lat="47.14627" lon="0.19923">
        <ele>77.98</ele>
        <time>2023-06-09T16:51:52.967Z</time>
      </trkpt>
      <trkpt lat="47.14625" lon="0.19936">
        <ele>79.14</ele>
        <time>2023-06-09T16:52:19.335Z</time>
      </trkpt>
      <trkpt lat="47.14621" lon="0.19955">
        <ele>80.94</ele>
        <time>2023-06-09T16:52:45.705Z</time>
      </trkpt>
      <trkpt lat="47.14619" lon="0.19967">
        <ele>82.19</ele>
        <time>2023-06-09T16:53:12.076Z</time>
      </trkpt>
      <trkpt lat="47.14618" lon="0.19974">
        <ele>82.85</ele>
        <time>2023-06-09T16:53:38.448Z</time>
      </trkpt>
      <trkpt lat="47.14617" lon="0.1998">
        <ele>83.53</ele>
        <time>2023-06-09T16:54:04.821Z</time>
      </trkpt>
      <trkpt lat="47.14615" lon="0.19993">
        <ele>84.97</ele>
        <time>2023-06-09T16:54:31.195Z</time>
      </trkpt>
      <trkpt lat="47.14613" lon="0.20006">
        <ele>86.5</ele>
        <time>2023-06-09T16:54:57.570Z</time>
      </trkpt>
      <trkpt lat="47.14612" lon="0.20012">
        <ele>87.32</ele>
        <time>2023-06-09T16:55:23.946Z</time>
      </trkpt>
      <trkpt lat="47.1461" lon="0.20021">
        <ele>88.53</ele>
        <time>2023-06-09T16:55:50.323Z</time>
      </trkpt>
      <trkpt lat="47.14609" lon="0.20025">
        <ele>89.07</ele>
        <time>2023-06-09T16:56:16.701Z</time>
      </trkpt>
      <trkpt lat="47.14608" lon="0.20038">
        <ele>90.97</ele>
        <time>2023-06-09T16:56:43.080Z</time>
      </trkpt>
      <trkpt lat="47.14605" lon="0.20057">
        <ele>94.05</ele>
        <time>2023-06-09T16:57:09.461Z</time>
      </trkpt>
      <trkpt lat="47.14605" lon="0.20064">
        <ele>95.03</ele>
        <time>2023-06-09T16:57:35.843Z</time>
      </trkpt>
      <trkpt lat="47.14604" lon="0.2007">
        <ele>95.94</ele>
        <time>2023-06-09T16:58:02.226Z</time>
      </trkpt>
      <trkpt lat="47.14603" lon="0.20077">
        <ele>96.77</ele>
        <time>2023-06-09T16:58:28.609Z</time>
      </trkpt>
      <trkpt lat="47.14602" lon="0.20083">
        <ele>97.53</ele>
        <time>2023-06-09T16:58:54.993Z</time>
      </trkpt>
      <trkpt lat="47.14601" lon="0.2009">
        <ele>98.19</ele>
        <time>2023-06-09T16:59:21.378Z</time>
      </trkpt>
      <trkpt lat="47.146" lon="0.20096">
        <ele>98.75</ele>
        <time>2023-06-09T16:59:47.764Z</time>
      </trkpt>
      <trkpt lat="47.146" lon="0.20102">
        <ele>99.22</ele>
        <time>2023-06-09T17:00:14.150Z</time>
      </trkpt>
      <trkpt lat="47.14599" lon="0.20109">
        <ele>99.61</ele>
        <time>2023-06-09T17:00:40.537Z</time>
      </trkpt>
      <trkpt lat="47.14598" lon="0.20115">
        <ele>99.95</ele>
        <time>2023-06-09T17:01:06.925Z</time>
      </trkpt>
      <trkpt lat="47.14597" lon="0.20123">
        <ele>100.26</ele>
        <time>2023-06-09T17:01:33.314Z</time>
      </trkpt>
      <trkpt lat="47.14597" lon="0.20123">
        <ele>100.26</ele>
        <time>2023-06-09T17:01:59.703Z</time>
      </trkpt>
      <trkpt lat="47.14596" lon="0.20128">
        <ele>100.54</ele>
        <time>2023-06-09T17:02:26.092Z</time>
      </trkpt>
      <trkpt lat="47.14592" lon="0.2014">
        <ele>101.02</ele>
        <time>2023-06-09T17:02:52.483Z</time>
      </trkpt>
      <trkpt lat="47.14591" lon="0.20147">
        <ele>101.22</ele>
        <time>2023-06-09T17:03:18.874Z</time>
      </trkpt>
      <trkpt lat="47.14588" lon="0.20159">
        <ele>101.56</ele>
        <time>2023-06-09T17:03:45.267Z</time>
      </trkpt>
      <trkpt lat="47.14585" lon="0.20169">
        <ele>101.8</ele>
        <time>2023-06-09T17:04:11.661Z</time>
      </trkpt>
      <trkpt lat="47.14581" lon="0.2019">
        <ele>102.29</ele>
        <time>2023-06-09T17:04:38.057Z</time>
      </trkpt>
      <trkpt lat="47.14577" lon="0.20209">
        <ele>102.67</ele>
        <time>2023-06-09T17:05:04.455Z</time>
      </trkpt>
      <trkpt lat="47.14575" lon="0.20219">
        <ele>102.81</ele>
        <time>2023-06-09T17:05:30.855Z</time>
      </trkpt>
      <trkpt lat="47.14572" lon="0.20227">
        <ele>102.94</ele>
        <time>2023-06-09T17:05:57.256Z</time>
      </trkpt>
      <trkpt lat="47.14567" lon="0.20237">
        <ele>103.06</ele>
        <time>2023-06-09T17:06:23.658Z</time>
      </trkpt>
      <trkpt lat="47.14565" lon="0.20244">
        <ele>103.14</ele>
        <time>2023-06-09T17:06:50.061Z</time>
      </trkpt>
      <trkpt lat="47.1456" lon="0.20262">
        <ele>103.31</ele>
        <time>2023-06-09T17:07:16.466Z</time>
      </trkpt>
      <trkpt lat="47.1456" lon="0.20264">
        <ele>103.32</ele>
        <time>2023-06-09T17:07:42.871Z</time>
      </trkpt>
      <trkpt lat="47.1456" lon="0.20281">
        <ele>103.43</ele>
        <time>2023-06-09T17:08:09.278Z</time>
      </trkpt>
      <trkpt lat="47.14548" lon="0.20352">
        <ele>103.93</ele>
        <time>2023-06-09T17:08:35.693Z</time>
      </trkpt>
      <trkpt lat="47.14546" lon="0.20365">
        <ele>103.99</ele>
        <time>2023-06-09T17:09:02.109Z</time>
      </trkpt>
      <trkpt lat="47.14544" lon="0.2038">
        <ele>104</ele>
        <time>2023-06-09T17:09:28.527Z</time>
      </trkpt>
      <trkpt lat="47.14544" lon="0.20384">
        <ele>104.01</ele>
        <time>2023-06-09T17:09:54.946Z</time>
      </trkpt>
      <trkpt lat="47.14543" lon="0.20398">
        <ele>103.97</ele>
        <time>2023-06-09T17:10:21.366Z</time>
      </trkpt>
      <trkpt lat="47.14542" lon="0.20404">
        <ele>103.92</ele>
        <time>2023-06-09T17:10:47.787Z</time>
      </trkpt>
      <trkpt lat="47.14541" lon="0.20417">
        <ele>103.76</ele>
        <time>2023-06-09T17:11:14.209Z</time>
      </trkpt>
      <trkpt lat="47.14541" lon="0.20424">
        <ele>103.66</ele>
        <time>2023-06-09T17:11:40.632Z</time>
      </trkpt>
      <trkpt lat="47.1454" lon="0.2043">
        <ele>103.53</ele>
        <time>2023-06-09T17:12:07.056Z</time>
      </trkpt>
      <trkpt lat="47.1454" lon="0.20437">
        <ele>103.38</ele>
        <time>2023-06-09T17:12:33.480Z</time>
      </trkpt>
      <trkpt lat="47.14539" lon="0.2045">
        <ele>103.04</ele>
        <time>2023-06-09T17:12:59.906Z</time>
      </trkpt>
      <trkpt lat="47.14537" lon="0.20463">
        <ele>102.72</ele>
        <time>2023-06-09T17:13:26.333Z</time>
      </trkpt>
      <trkpt lat="47.1453" lon="0.20498">
        <ele>101.87</ele>
        <time>2023-06-09T17:13:52.764Z</time>
      </trkpt>
      <trkpt lat="47.14529" lon="0.205">
        <ele>101.81</ele>
        <time>2023-06-09T17:14:19.196Z</time>
      </trkpt>
      <trkpt lat="47.14524" lon="0.20512">
        <ele>101.56</ele>
        <time>2023-06-09T17:14:45.629Z</time>
      </trkpt>
      <trkpt lat="47.1452" lon="0.20523">
        <ele>101.37</ele>
        <time>2023-06-09T17:15:12.063Z</time>
      </trkpt>
      <trkpt lat="47.14515" lon="0.20535">
        <ele>101.18</ele>
        <time>2023-06-09T17:15:38.499Z</time>
      </trkpt>
      <trkpt lat="47.14507" lon="0.20558">
        <ele>100.85</ele>
        <time>2023-06-09T17:16:04.938Z</time>
      </trkpt>
      <trkpt lat="47.14501" lon="0.20575">
        <ele>100.63</ele>
        <time>2023-06-09T17:16:31.379Z</time>
      </trkpt>
      <trkpt lat="47.14496" lon="0.20589">
        <ele>100.51</ele>
        <time>2023-06-09T17:16:57.822Z</time>
      </trkpt>
      <trkpt lat="47.14495" lon="0.20592">
        <ele>100.49</ele>
        <time>2023-06-09T17:17:24.265Z</time>
      </trkpt>
      <trkpt lat="47.14485" lon="0.20615">
        <ele>100.38</ele>
        <time>2023-06-09T17:17:50.711Z</time>
      </trkpt>
      <trkpt lat="47.14478" lon="0.20632">
        <ele>100.26</ele>
        <time>2023-06-09T17:18:17.159Z</time>
      </trkpt>
      <trkpt lat="47.14474" lon="0.20643">
        <ele>100.14</ele>
        <time>2023-06-09T17:18:43.608Z</time>
      </trkpt>
      <trkpt lat="47.14471" lon="0.2065">
        <ele>100.05</ele>
        <time>2023-06-09T17:19:10.058Z</time>
      </trkpt>
      <trkpt lat="47.14465" lon="0.20666">
        <ele>99.85</ele>
        <time>2023-06-09T17:19:36.510Z</time>
      </trkpt>
      <trkpt lat="47.14457" lon="0.20688">
        <ele>99.89</ele>
        <time>2023-06-09T17:20:02.965Z</time>
      </trkpt>
      <trkpt lat="47.14453" lon="0.20699">
        <ele>99.95</ele>
        <time>2023-06-09T17:20:29.421Z</time>
      </trkpt>
      <trkpt lat="47.14452" lon="0.20702">
        <ele>99.96</ele>
        <time>2023-06-09T17:20:55.878Z</time>
      </trkpt>
      <trkpt lat="47.14436" lon="0.20743">
        <ele>100.25</ele>
        <time>2023-06-09T17:21:22.340Z</time>
      </trkpt>
      <trkpt lat="47.14427" lon="0.20764">
        <ele>100.33</ele>
        <time>2023-06-09T17:21:48.805Z</time>
      </trkpt>
      <trkpt lat="47.1442" lon="0.20782">
        <ele>100.42</ele>
        <time>2023-06-09T17:22:15.272Z</time>
      </trkpt>
      <trkpt lat="47.1442" lon="0.20782">
        <ele>100.42</ele>
        <time>2023-06-09T17:22:41.739Z</time>
      </trkpt>
      <trkpt lat="47.14407" lon="0.20809">
        <ele>100.53</ele>
        <time>2023-06-09T17:23:08.209Z</time>
      </trkpt>
      <trkpt lat="47.14396" lon="0.20829">
        <ele>100.63</ele>
        <time>2023-06-09T17:23:34.682Z</time>
      </trkpt>
      <trkpt lat="47.14385" lon="0.20849">
        <ele>100.63</ele>
        <time>2023-06-09T17:24:01.158Z</time>
      </trkpt>
      <trkpt lat="47.14373" lon="0.20869">
        <ele>100.57</ele>
        <time>2023-06-09T17:24:27.637Z</time>
      </trkpt>
      <trkpt lat="47.14368" lon="0.2088">
        <ele>100.57</ele>
        <time>2023-06-09T17:24:54.117Z</time>
      </trkpt>
      <trkpt lat="47.14362" lon="0.2089">
        <ele>100.66</ele>
        <time>2023-06-09T17:25:20.599Z</time>
      </trkpt>
      <trkpt lat="47.14356" lon="0.209">
        <ele>100.79</ele>
        <time>2023-06-09T17:25:47.082Z</time>
      </trkpt>
      <trkpt lat="47.14356" lon="0.209">
        <ele>101.05</ele>
        <time>2023-06-09T17:26:13.565Z</time>
      </trkpt>
      <trkpt lat="47.1435" lon="0.20911">
        <ele>100.83</ele>
        <time>2023-06-09T17:26:40.050Z</time>
      </trkpt>
      <trkpt lat="47.14346" lon="0.20915">
        <ele>100.73</ele>
        <time>2023-06-09T17:27:06.536Z</time>
      </trkpt>
      <trkpt lat="47.14337" lon="0.20926">
        <ele>100.98</ele>
        <time>2023-06-09T17:27:33.024Z</time>
      </trkpt>
      <trkpt lat="47.14327" lon="0.20938">
        <ele>101.42</ele>
        <time>2023-06-09T17:27:59.514Z</time>
      </trkpt>
      <trkpt lat="47.14325" lon="0.2094">
        <ele>101.54</ele>
        <time>2023-06-09T17:28:26.004Z</time>
      </trkpt>
      <trkpt lat="47.14323" lon="0.20955">
        <ele>102.01</ele>
        <time>2023-06-09T17:28:52.496Z</time>
      </trkpt>
      <trkpt lat="47.14323" lon="0.20957">
        <ele>102.04</ele>
        <time>2023-06-09T17:29:18.988Z</time>
      </trkpt>
      <trkpt lat="47.14318" lon="0.20973">
        <ele>102.31</ele>
        <time>2023-06-09T17:29:45.482Z</time>
      </trkpt>
      <trkpt lat="47.14318" lon="0.20974">
        <ele>102.32</ele>
        <time>2023-06-09T17:30:11.976Z</time>
      </trkpt>
      <trkpt lat="47.14313" lon="0.20989">
        <ele>102.51</ele>
        <time>2023-06-09T17:30:38.472Z</time>
      </trkpt>
      <trkpt lat="47.14302" lon="0.21018">
        <ele>102.63</ele>
        <time>2023-06-09T17:31:04.971Z</time>
      </trkpt>
      <trkpt lat="47.14296" lon="0.21034">
        <ele>103.17</ele>
        <time>2023-06-09T17:31:31.472Z</time>
      </trkpt>
      <trkpt lat="47.14291" lon="0.21049">
        <ele>103.75</ele>
        <time>2023-06-09T17:31:57.975Z</time>
      </trkpt>
      <trkpt lat="47.14285" lon="0.21063">
        <ele>104.78</ele>
        <time>2023-06-09T17:32:24.480Z</time>
      </trkpt>
      <trkpt lat="47.1428" lon="0.21078">
        <ele>105.5</ele>
        <time>2023-06-09T17:32:50.987Z</time>
      </trkpt>
      <trkpt lat="47.14276" lon="0.2109">
        <ele>106.42</ele>
        <time>2023-06-09T17:33:17.495Z</time>
      </trkpt>
      <trkpt lat="47.14267" lon="0.21113">
        <ele>107.99</ele>
        <time>2023-06-09T17:33:44.006Z</time>
      </trkpt>
      <trkpt lat="47.14265" lon="0.21119">
        <ele>108.37</ele>
        <time>2023-06-09T17:34:10.518Z</time>
      </trkpt>
      <trkpt lat="47.14261" lon="0.21134">
        <ele>109.58</ele>
        <time>2023-06-09T17:34:37.032Z</time>
      </trkpt>
      <trkpt lat="47.14256" lon="0.21151">
        <ele>110.34</ele>
        <time>2023-06-09T17:35:03.548Z</time>
      </trkpt>
      <trkpt lat="47.14251" lon="0.21168">
        <ele>110.91</ele>
        <time>2023-06-09T17:35:30.066Z</time>
      </trkpt>
      <trkpt lat="47.14246" lon="0.21184">
        <ele>111.23</ele>
        <time>2023-06-09T17:35:56.586Z</time>
      </trkpt>
      <trkpt lat="47.14241" lon="0.212">
        <ele>111.59</ele>
        <time>2023-06-09T17:36:23.107Z</time>
      </trkpt>
      <trkpt lat="47.14237" lon="0.21215">
        <ele>111.7</ele>
        <time>2023-06-09T17:36:49.630Z</time>
      </trkpt>
      <trkpt lat="47.14232" lon="0.21232">
        <ele>111.76</ele>
        <time>2023-06-09T17:37:16.155Z</time>
      </trkpt>
      <trkpt lat="47.14227" lon="0.21249">
        <ele>111.56</ele>
        <time>2023-06-09T17:37:42.682Z</time>
      </trkpt>
      <trkpt lat="47.14222" lon="0.21265">
        <ele>111.59</ele>
        <time>2023-06-09T17:38:09.211Z</time>
      </trkpt>
      <trkpt lat="47.14221" lon="0.21269">
        <ele>111.6</ele>
        <time>2023-06-09T17:38:35.741Z</time>
      </trkpt>
      <trkpt lat="47.14216" lon="0.2129">
        <ele>111.69</ele>
        <time>2023-06-09T17:39:02.273Z</time>
      </trkpt>
      <trkpt lat="47.14214" lon="0.21302">
        <ele>111.66</ele>
        <time>2023-06-09T17:39:28.807Z</time>
      </trkpt>
      <trkpt lat="47.14211" lon="0.21315">
        <ele>111.78</ele>
        <time>2023-06-09T17:39:55.342Z</time>
      </trkpt>
      <trkpt lat="47.14207" lon="0.21329">
        <ele>111.94</ele>
        <time>2023-06-09T17:40:21.879Z</time>
      </trkpt>
      <trkpt lat="47.14201" lon="0.21347">
        <ele>111.99</ele>
        <time>2023-06-09T17:40:48.418Z</time>
      </trkpt>
      <trkpt lat="47.14196" lon="0.21364">
        <ele>112.1</ele>
        <time>2023-06-09T17:41:14.959Z</time>
      </trkpt>
      <trkpt lat="47.1419" lon="0.21381">
        <ele>112.26</ele>
        <time>2023-06-09T17:41:41.502Z</time>
      </trkpt>
      <trkpt lat="47.14186" lon="0.21393">
        <ele>112.42</ele>
        <time>2023-06-09T17:42:08.046Z</time>
      </trkpt>
      <trkpt lat="47.14184" lon="0.21401">
        <ele>112.54</ele>
        <time>2023-06-09T17:42:34.591Z</time>
      </trkpt>
      <trkpt lat="47.14183" lon="0.21406">
        <ele>112.62</ele>
        <time>2023-06-09T17:43:01.137Z</time>
      </trkpt>
      <trkpt lat="47.14176" lon="0.21432">
        <ele>112.75</ele>
        <time>2023-06-09T17:43:27.686Z</time>
      </trkpt>
      <trkpt lat="47.14173" lon="0.21446">
        <ele>112.79</ele>
        <time>2023-06-09T17:43:54.237Z</time>
      </trkpt>
      <trkpt lat="47.1417" lon="0.21456">
        <ele>112.8</ele>
        <time>2023-06-09T17:44:20.789Z</time>
      </trkpt>
      <trkpt lat="47.14162" lon="0.2147">
        <ele>112.82</ele>
        <time>2023-06-09T17:44:47.343Z</time>
      </trkpt>
      <trkpt lat="47.14157" lon="0.21478">
        <ele>112.87</ele>
        <time>2023-06-09T17:45:13.898Z</time>
      </trkpt>
      <trkpt lat="47.14155" lon="0.21481">
        <ele>112.9</ele>
        <time>2023-06-09T17:45:40.453Z</time>
      </trkpt>
      <trkpt lat="47.14148" lon="0.2149">
        <ele>112.93</ele>
        <time>2023-06-09T17:46:07.010Z</time>
      </trkpt>
      <trkpt lat="47.14141" lon="0.21499">
        <ele>113.04</ele>
        <time>2023-06-09T17:46:33.568Z</time>
      </trkpt>
      <trkpt lat="47.14134" lon="0.21508">
        <ele>112.93</ele>
        <time>2023-06-09T17:47:00.128Z</time>
      </trkpt>
      <trkpt lat="47.14128" lon="0.21517">
        <ele>112.9</ele>
        <time>2023-06-09T17:47:26.689Z</time>
      </trkpt>
      <trkpt lat="47.14121" lon="0.21526">
        <ele>112.74</ele>
        <time>2023-06-09T17:47:53.252Z</time>
      </trkpt>
      <trkpt lat="47.14116" lon="0.21537">
        <ele>112.58</ele>
        <time>2023-06-09T17:48:19.816Z</time>
      </trkpt>
      <trkpt lat="47.14114" lon="0.21546">
        <ele>112.46</ele>
        <time>2023-06-09T17:48:46.381Z</time>
      </trkpt>
      <trkpt lat="47.14109" lon="0.21564">
        <ele>112.35</ele>
        <time>2023-06-09T17:49:12.948Z</time>
      </trkpt>
      <trkpt lat="47.14109" lon="0.21566">
        <ele>112.33</ele>
        <time>2023-06-09T17:49:39.516Z</time>
      </trkpt>
      <trkpt lat="47.14106" lon="0.2158">
        <ele>112.2</ele>
        <time>2023-06-09T17:50:06.085Z</time>
      </trkpt>
      <trkpt lat="47.14105" lon="0.21584">
        <ele>112.19</ele>
        <time>2023-06-09T17:50:32.655Z</time>
      </trkpt>
      <trkpt lat="47.14104" lon="0.216">
        <ele>112.17</ele>
        <time>2023-06-09T17:50:59.226Z</time>
      </trkpt>
      <trkpt lat="47.14103" lon="0.21614">
        <ele>112.08</ele>
        <time>2023-06-09T17:51:25.799Z</time>
      </trkpt>
      <trkpt lat="47.14101" lon="0.21629">
        <ele>112.06</ele>
        <time>2023-06-09T17:51:52.373Z</time>
      </trkpt>
      <trkpt lat="47.141" lon="0.21643">
        <ele>111.96</ele>
        <time>2023-06-09T17:52:18.949Z</time>
      </trkpt>
      <trkpt lat="47.14099" lon="0.21657">
        <ele>111.98</ele>
        <time>2023-06-09T17:52:45.527Z</time>
      </trkpt>
      <trkpt lat="47.14097" lon="0.21677">
        <ele>111.89</ele>
        <time>2023-06-09T17:53:12.107Z</time>
      </trkpt>
      <trkpt lat="47.14097" lon="0.21682">
        <ele>111.84</ele>
        <time>2023-06-09T17:53:38.687Z</time>
      </trkpt>
      <trkpt lat="47.14096" lon="0.21691">
        <ele>111.76</ele>
        <time>2023-06-09T17:54:05.268Z</time>
      </trkpt>
      <trkpt lat="47.14094" lon="0.21705">
        <ele>111.78</ele>
        <time>2023-06-09T17:54:31.851Z</time>
      </trkpt>
      <trkpt lat="47.14092" lon="0.21719">
        <ele>111.84</ele>
        <time>2023-06-09T17:54:58.435Z</time>
      </trkpt>
      <trkpt lat="47.1409" lon="0.21733">
        <ele>111.98</ele>
        <time>2023-06-09T17:55:25.021Z</time>
      </trkpt>
      <trkpt lat="47.14088" lon="0.21744">
        <ele>112.13</ele>
        <time>2023-06-09T17:55:51.608Z</time>
      </trkpt>
      <trkpt lat="47.14087" lon="0.21747">
        <ele>112.18</ele>
        <time>2023-06-09T17:56:18.196Z</time>
      </trkpt>
      <trkpt lat="47.14081" lon="0.21774">
        <ele>112.67</ele>
        <time>2023-06-09T17:56:44.787Z</time>
      </trkpt>
      <trkpt lat="47.14079" lon="0.21784">
        <ele>112.83</ele>
        <time>2023-06-09T17:57:11.379Z</time>
      </trkpt>
      <trkpt lat="47.14078" lon="0.21788">
        <ele>112.89</ele>
        <time>2023-06-09T17:57:37.971Z</time>
      </trkpt>
      <trkpt lat="47.14076" lon="0.21801">
        <ele>113.01</ele>
        <time>2023-06-09T17:58:04.565Z</time>
      </trkpt>
      <trkpt lat="47.14073" lon="0.2182">
        <ele>113.03</ele>
        <time>2023-06-09T17:58:31.161Z</time>
      </trkpt>
      <trkpt lat="47.14072" lon="0.21826">
        <ele>112.97</ele>
        <time>2023-06-09T17:58:57.758Z</time>
      </trkpt>
      <trkpt lat="47.14067" lon="0.21839">
        <ele>112.85</ele>
        <time>2023-06-09T17:59:24.356Z</time>
      </trkpt>
      <trkpt lat="47.14067" lon="0.21839">
        <ele>112.98</ele>
        <time>2023-06-09T17:59:50.954Z</time>
      </trkpt>
      <trkpt lat="47.14055" lon="0.21867">
        <ele>113.05</ele>
        <time>2023-06-09T18:00:17.556Z</time>
      </trkpt>
      <trkpt lat="47.14053" lon="0.21873">
        <ele>113.08</ele>
        <time>2023-06-09T18:00:44.159Z</time>
      </trkpt>
      <trkpt lat="47.14053" lon="0.21873">
        <ele>113.08</ele>
        <time>2023-06-09T18:01:10.762Z</time>
      </trkpt>
      <trkpt lat="47.14047" lon="0.21905">
        <ele>113.3</ele>
        <time>2023-06-09T18:01:37.368Z</time>
      </trkpt>
      <trkpt lat="47.14044" lon="0.21924">
        <ele>113.36</ele>
        <time>2023-06-09T18:02:03.976Z</time>
      </trkpt>
      <trkpt lat="47.14044" lon="0.21952">
        <ele>113.46</ele>
        <time>2023-06-09T18:02:30.587Z</time>
      </trkpt>
      <trkpt lat="47.14043" lon="0.21963">
        <ele>113.5</ele>
        <time>2023-06-09T18:02:57.200Z</time>
      </trkpt>
      <trkpt lat="47.14039" lon="0.21988">
        <ele>113.55</ele>
        <time>2023-06-09T18:03:23.815Z</time>
      </trkpt>
      <trkpt lat="47.14038" lon="0.21995">
        <ele>113.54</ele>
        <time>2023-06-09T18:03:50.431Z</time>
      </trkpt>
      <trkpt lat="47.14036" lon="0.22007">
        <ele>113.46</ele>
        <time>2023-06-09T18:04:17.049Z</time>
      </trkpt>
      <trkpt lat="47.14034" lon="0.22025">
        <ele>113.3</ele>
        <time>2023-06-09T18:04:43.669Z</time>
      </trkpt>
      <trkpt lat="47.14034" lon="0.22027">
        <ele>113.29</ele>
        <time>2023-06-09T18:05:10.289Z</time>
      </trkpt>
      <trkpt lat="47.14032" lon="0.22046">
        <ele>113.1</ele>
        <time>2023-06-09T18:05:36.911Z</time>
      </trkpt>
      <trkpt lat="47.14028" lon="0.22085">
        <ele>112.67</ele>
        <time>2023-06-09T18:06:03.537Z</time>
      </trkpt>
      <trkpt lat="47.14027" lon="0.22104">
        <ele>112.43</ele>
        <time>2023-06-09T18:06:30.165Z</time>
      </trkpt>
      <trkpt lat="47.14025" lon="0.22123">
        <ele>112.14</ele>
        <time>2023-06-09T18:06:56.795Z</time>
      </trkpt>
      <trkpt lat="47.1402" lon="0.22175">
        <ele>111.16</ele>
        <time>2023-06-09T18:07:23.431Z</time>
      </trkpt>
      <trkpt lat="47.14019" lon="0.22188">
        <ele>110.93</ele>
        <time>2023-06-09T18:07:50.069Z</time>
      </trkpt>
      <trkpt lat="47.14018" lon="0.22194">
        <ele>110.83</ele>
        <time>2023-06-09T18:08:16.707Z</time>
      </trkpt>
      <trkpt lat="47.14018" lon="0.22201">
        <ele>110.73</ele>
        <time>2023-06-09T18:08:43.346Z</time>
      </trkpt>
      <trkpt lat="47.14019" lon="0.22221">
        <ele>110.46</ele>
        <time>2023-06-09T18:09:09.987Z</time>
      </trkpt>
      <trkpt lat="47.14021" lon="0.22266">
        <ele>109.95</ele>
        <time>2023-06-09T18:09:36.633Z</time>
      </trkpt>
      <trkpt lat="47.14021" lon="0.22292">
        <ele>109.61</ele>
        <time>2023-06-09T18:10:03.282Z</time>
      </trkpt>
      <trkpt lat="47.14022" lon="0.22312">
        <ele>109.38</ele>
        <time>2023-06-09T18:10:29.933Z</time>
      </trkpt>
      <trkpt lat="47.14023" lon="0.22325">
        <ele>109.2</ele>
        <time>2023-06-09T18:10:56.585Z</time>
      </trkpt>
      <trkpt lat="47.14023" lon="0.22338">
        <ele>108.89</ele>
        <time>2023-06-09T18:11:23.239Z</time>
      </trkpt>
      <trkpt lat="47.14024" lon="0.22351">
        <ele>108.62</ele>
        <time>2023-06-09T18:11:49.894Z</time>
      </trkpt>
      <trkpt lat="47.14024" lon="0.22364">
        <ele>108.41</ele>
        <time>2023-06-09T18:12:16.551Z</time>
      </trkpt>
      <trkpt lat="47.14027" lon="0.22383">
        <ele>108.11</ele>
        <time>2023-06-09T18:12:43.210Z</time>
      </trkpt>
      <trkpt lat="47.14034" lon="0.22391">
        <ele>107.9</ele>
        <time>2023-06-09T18:13:09.870Z</time>
      </trkpt>
      <trkpt lat="47.14037" lon="0.22394">
        <ele>107.82</ele>
        <time>2023-06-09T18:13:36.531Z</time>
      </trkpt>
      <trkpt lat="47.14042" lon="0.22398">
        <ele>107.71</ele>
        <time>2023-06-09T18:14:03.193Z</time>
      </trkpt>
      <trkpt lat="47.14054" lon="0.22407">
        <ele>107.52</ele>
        <time>2023-06-09T18:14:29.857Z</time>
      </trkpt>
      <trkpt lat="47.14066" lon="0.22416">
        <ele>107.45</ele>
        <time>2023-06-09T18:14:56.523Z</time>
      </trkpt>
      <trkpt lat="47.14074" lon="0.22422">
        <ele>107.45</ele>
        <time>2023-06-09T18:15:23.190Z</time>
      </trkpt>
      <trkpt lat="47.14085" lon="0.22431">
        <ele>107.53</ele>
        <time>2023-06-09T18:15:49.860Z</time>
      </trkpt>
      <trkpt lat="47.14101" lon="0.22443">
        <ele>107.26</ele>
        <time>2023-06-09T18:16:16.532Z</time>
      </trkpt>
      <trkpt lat="47.14109" lon="0.22449">
        <ele>107.18</ele>
        <time>2023-06-09T18:16:43.206Z</time>
      </trkpt>
      <trkpt lat="47.14098" lon="0.22461">
        <ele>107.08</ele>
        <time>2023-06-09T18:17:09.882Z</time>
      </trkpt>
      <trkpt lat="47.14091" lon="0.22469">
        <ele>106.96</ele>
        <time>2023-06-09T18:17:36.559Z</time>
      </trkpt>
      <trkpt lat="47.14091" lon="0.22469">
        <ele>106.96</ele>
        <time>2023-06-09T18:18:03.236Z</time>
      </trkpt>
      <trkpt lat="47.1409" lon="0.22476">
        <ele>106.87</ele>
        <time>2023-06-09T18:18:29.914Z</time>
      </trkpt>
      <trkpt lat="47.14092" lon="0.22487">
        <ele>106.74</ele>
        <time>2023-06-09T18:18:56.594Z</time>
      </trkpt>
      <trkpt lat="47.14091" lon="0.22505">
        <ele>106.53</ele>
        <time>2023-06-09T18:19:23.275Z</time>
      </trkpt>
      <trkpt lat="47.14084" lon="0.22524">
        <ele>106.28</ele>
        <time>2023-06-09T18:19:49.959Z</time>
      </trkpt>
      <trkpt lat="47.14082" lon="0.2253">
        <ele>106.19</ele>
        <time>2023-06-09T18:20:16.644Z</time>
      </trkpt>
      <trkpt lat="47.14078" lon="0.22542">
        <ele>105.93</ele>
        <time>2023-06-09T18:20:43.330Z</time>
      </trkpt>
      <trkpt lat="47.14073" lon="0.22554">
        <ele>105.58</ele>
        <time>2023-06-09T18:21:10.018Z</time>
      </trkpt>
      <trkpt lat="47.14073" lon="0.22554">
        <ele>105.58</ele>
        <time>2023-06-09T18:21:36.706Z</time>
      </trkpt>
      <trkpt lat="47.14066" lon="0.22569">
        <ele>104.92</ele>
        <time>2023-06-09T18:22:03.396Z</time>
      </trkpt>
      <trkpt lat="47.14061" lon="0.22579">
        <ele>104.39</ele>
        <time>2023-06-09T18:22:30.087Z</time>
      </trkpt>
      <trkpt lat="47.14061" lon="0.2258">
        <ele>104.39</ele>
        <time>2023-06-09T18:22:56.778Z</time>
      </trkpt>
      <trkpt lat="47.14055" lon="0.22605">
        <ele>103.26</ele>
        <time>2023-06-09T18:23:23.472Z</time>
      </trkpt>
      <trkpt lat="47.14054" lon="0.22607">
        <ele>103.14</ele>
        <time>2023-06-09T18:23:50.166Z</time>
      </trkpt>
      <trkpt lat="47.14056" lon="0.22617">
        <ele>102.64</ele>
        <time>2023-06-09T18:24:16.861Z</time>
      </trkpt>
      <trkpt lat="47.14057" lon="0.22623">
        <ele>102.29</ele>
        <time>2023-06-09T18:24:43.557Z</time>
      </trkpt>
      <trkpt lat="47.14057" lon="0.22624">
        <ele>102.29</ele>
        <time>2023-06-09T18:25:10.253Z</time>
      </trkpt>
      <trkpt lat="47.14059" lon="0.2263">
        <ele>101.9</ele>
        <time>2023-06-09T18:25:36.950Z</time>
      </trkpt>
      <trkpt lat="47.14063" lon="0.22642">
        <ele>101.05</ele>
        <time>2023-06-09T18:26:03.648Z</time>
      </trkpt>
      <trkpt lat="47.14064" lon="0.22646">
        <ele>100.7</ele>
        <time>2023-06-09T18:26:30.347Z</time>
      </trkpt>
      <trkpt lat="47.14067" lon="0.22653">
        <ele>100.12</ele>
        <time>2023-06-09T18:26:57.047Z</time>
      </trkpt>
      <trkpt lat="47.14077" lon="0.22671">
        <ele>98.4</ele>
        <time>2023-06-09T18:27:23.749Z</time>
      </trkpt>
      <trkpt lat="47.14078" lon="0.22673">
        <ele>98.18</ele>
        <time>2023-06-09T18:27:50.451Z</time>
      </trkpt>
      <trkpt lat="47.14084" lon="0.22683">
        <ele>97.18</ele>
        <time>2023-06-09T18:28:17.155Z</time>
      </trkpt>
      <trkpt lat="47.14096" lon="0.22703">
        <ele>95</ele>
        <time>2023-06-09T18:28:43.862Z</time>
      </trkpt>
      <trkpt lat="47.14104" lon="0.22718">
        <ele>93.49</ele>
        <time>2023-06-09T18:29:10.571Z</time>
      </trkpt>
      <trkpt lat="47.14113" lon="0.22733">
        <ele>92.12</ele>
        <time>2023-06-09T18:29:37.282Z</time>
      </trkpt>
      <trkpt lat="47.14125" lon="0.22753">
        <ele>90.43</ele>
        <time>2023-06-09T18:30:03.996Z</time>
      </trkpt>
      <trkpt lat="47.14131" lon="0.22763">
        <ele>89.5</ele>
        <time>2023-06-09T18:30:30.711Z</time>
      </trkpt>
      <trkpt lat="47.14133" lon="0.22768">
        <ele>88.99</ele>
        <time>2023-06-09T18:30:57.427Z</time>
      </trkpt>
      <trkpt lat="47.14145" lon="0.22788">
        <ele>86.79</ele>
        <time>2023-06-09T18:31:24.146Z</time>
      </trkpt>
      <trkpt lat="47.14165" lon="0.22823">
        <ele>83.03</ele>
        <time>2023-06-09T18:31:50.870Z</time>
      </trkpt>
      <trkpt lat="47.14168" lon="0.22827">
        <ele>82.52</ele>
        <time>2023-06-09T18:32:17.595Z</time>
      </trkpt>
      <trkpt lat="47.14172" lon="0.22831">
        <ele>81.9</ele>
        <time>2023-06-09T18:32:44.320Z</time>
      </trkpt>
      <trkpt lat="47.14198" lon="0.22856">
        <ele>77.77</ele>
        <time>2023-06-09T18:33:11.050Z</time>
      </trkpt>
      <trkpt lat="47.14217" lon="0.22874">
        <ele>74.74</ele>
        <time>2023-06-09T18:33:37.784Z</time>
      </trkpt>
      <trkpt lat="47.14217" lon="0.22874">
        <ele>74.74</ele>
        <time>2023-06-09T18:34:04.518Z</time>
      </trkpt>
      <trkpt lat="47.14223" lon="0.22883">
        <ele>73.49</ele>
        <time>2023-06-09T18:34:31.253Z</time>
      </trkpt>
      <trkpt lat="47.14239" lon="0.22905">
        <ele>70.2</ele>
        <time>2023-06-09T18:34:57.992Z</time>
      </trkpt>
      <trkpt lat="47.1424" lon="0.22907">
        <ele>69.98</ele>
        <time>2023-06-09T18:35:24.731Z</time>
      </trkpt>
      <trkpt lat="47.14246" lon="0.22913">
        <ele>68.99</ele>
        <time>2023-06-09T18:35:51.471Z</time>
      </trkpt>
      <trkpt lat="47.14256" lon="0.22924">
        <ele>67.29</ele>
        <time>2023-06-09T18:36:18.213Z</time>
      </trkpt>
      <trkpt lat="47.1426" lon="0.22928">
        <ele>66.71</ele>
        <time>2023-06-09T18:36:44.956Z</time>
      </trkpt>
      <trkpt lat="47.14265" lon="0.22937">
        <ele>65.69</ele>
        <time>2023-06-09T18:37:11.700Z</time>
      </trkpt>
      <trkpt lat="47.14274" lon="0.22952">
        <ele>64.19</ele>
        <time>2023-06-09T18:37:38.446Z</time>
      </trkpt>
      <trkpt lat="47.14279" lon="0.22961">
        <ele>63.27</ele>
        <time>2023-06-09T18:38:05.194Z</time>
      </trkpt>
      <trkpt lat="47.14282" lon="0.22966">
        <ele>62.84</ele>
        <time>2023-06-09T18:38:31.942Z</time>
      </trkpt>
      <trkpt lat="47.14285" lon="0.22971">
        <ele>62.44</ele>
        <time>2023-06-09T18:38:58.691Z</time>
      </trkpt>
      <trkpt lat="47.14288" lon="0.22976">
        <ele>62.04</ele>
        <time>2023-06-09T18:39:25.441Z</time>
      </trkpt>
      <trkpt lat="47.14291" lon="0.22979">
        <ele>61.7</ele>
        <time>2023-06-09T18:39:52.192Z</time>
      </trkpt>
      <trkpt lat="47.14299" lon="0.22987">
        <ele>61.59</ele>
        <time>2023-06-09T18:40:18.944Z</time>
      </trkpt>
      <trkpt lat="47.14313" lon="0.23002">
        <ele>61.53</ele>
        <time>2023-06-09T18:40:45.699Z</time>
      </trkpt>
      <trkpt lat="47.14313" lon="0.23002">
        <ele>61.53</ele>
        <time>2023-06-09T18:41:12.454Z</time>
      </trkpt>
      <trkpt lat="47.14322" lon="0.22999">
        <ele>61.4</ele>
        <time>2023-06-09T18:41:39.210Z</time>
      </trkpt>
      <trkpt lat="47.14326" lon="0.22992">
        <ele>61.32</ele>
        <time>2023-06-09T18:42:05.967Z</time>
      </trkpt>
      <trkpt lat="47.14331" lon="0.22989">
        <ele>61.25</ele>
        <time>2023-06-09T18:42:32.725Z</time>
      </trkpt>
      <trkpt lat="47.14339" lon="0.22985">
        <ele>61.09</ele>
        <time>2023-06-09T18:42:59.485Z</time>
      </trkpt>
      <trkpt lat="47.14343" lon="0.22983">
        <ele>60.96</ele>
        <time>2023-06-09T18:43:26.245Z</time>
      </trkpt>
      <trkpt lat="47.14347" lon="0.22981">
        <ele>60.8</ele>
        <time>2023-06-09T18:43:53.006Z</time>
      </trkpt>
      <trkpt lat="47.14355" lon="0.22976">
        <ele>59.09</ele>
        <time>2023-06-09T18:44:19.768Z</time>
      </trkpt>
      <trkpt lat="47.14363" lon="0.22972">
        <ele>57.54</ele>
        <time>2023-06-09T18:44:46.532Z</time>
      </trkpt>
      <trkpt lat="47.14368" lon="0.22969">
        <ele>56.56</ele>
        <time>2023-06-09T18:45:13.297Z</time>
      </trkpt>
      <trkpt lat="47.14371" lon="0.2297">
        <ele>56.09</ele>
        <time>2023-06-09T18:45:40.062Z</time>
      </trkpt>
      <trkpt lat="47.14371" lon="0.2297">
        <ele>56.09</ele>
        <time>2023-06-09T18:46:06.827Z</time>
      </trkpt>
      <trkpt lat="47.14373" lon="0.22975">
        <ele>55.4</ele>
        <time>2023-06-09T18:46:33.593Z</time>
      </trkpt>
      <trkpt lat="47.14375" lon="0.22979">
        <ele>54.88</ele>
        <time>2023-06-09T18:47:00.359Z</time>
      </trkpt>
      <trkpt lat="47.14375" lon="0.2298">
        <ele>54.74</ele>
        <time>2023-06-09T18:47:27.125Z</time>
      </trkpt>
      <trkpt lat="47.14376" lon="0.22993">
        <ele>53.57</ele>
        <time>2023-06-09T18:47:53.893Z</time>
      </trkpt>
      <trkpt lat="47.14377" lon="0.22999">
        <ele>53.05</ele>
        <time>2023-06-09T18:48:20.661Z</time>
      </trkpt>
      <trkpt lat="47.14378" lon="0.2301">
        <ele>52.18</ele>
        <time>2023-06-09T18:48:47.431Z</time>
      </trkpt>
      <trkpt lat="47.14374" lon="0.23042">
        <ele>49.67</ele>
        <time>2023-06-09T18:49:14.204Z</time>
      </trkpt>
      <trkpt lat="47.14372" lon="0.23054">
        <ele>48.73</ele>
        <time>2023-06-09T18:49:40.978Z</time>
      </trkpt>
      <trkpt lat="47.14371" lon="0.23055">
        <ele>48.73</ele>
        <time>2023-06-09T18:50:07.753Z</time>
      </trkpt>
      <trkpt lat="47.14368" lon="0.23059">
        <ele>48.31</ele>
        <time>2023-06-09T18:50:34.528Z</time>
      </trkpt>
      <trkpt lat="47.14365" lon="0.23063">
        <ele>47.92</ele>
        <time>2023-06-09T18:51:01.304Z</time>
      </trkpt>
      <trkpt lat="47.14365" lon="0.23063">
        <ele>47.92</ele>
        <time>2023-06-09T18:51:28.080Z</time>
      </trkpt>
      <trkpt lat="47.14377" lon="0.23064">
        <ele>47.04</ele>
        <time>2023-06-09T18:51:54.858Z</time>
      </trkpt>
      <trkpt lat="47.14379" lon="0.23065">
        <ele>46.9</ele>
        <time>2023-06-09T18:52:21.636Z</time>
      </trkpt>
      <trkpt lat="47.14387" lon="0.23069">
        <ele>46.29</ele>
        <time>2023-06-09T18:52:48.416Z</time>
      </trkpt>
      <trkpt lat="47.144" lon="0.23075">
        <ele>45.46</ele>
        <time>2023-06-09T18:53:15.198Z</time>
      </trkpt>
      <trkpt lat="47.14413" lon="0.23082">
        <ele>44.69</ele>
        <time>2023-06-09T18:53:41.982Z</time>
      </trkpt>
      <trkpt lat="47.14421" lon="0.23086">
        <ele>44.23</ele>
        <time>2023-06-09T18:54:08.767Z</time>
      </trkpt>
      <trkpt lat="47.14447" lon="0.23098">
        <ele>42.94</ele>
        <time>2023-06-09T18:54:35.557Z</time>
      </trkpt>
      <trkpt lat="47.14468" lon="0.23109">
        <ele>41.73</ele>
        <time>2023-06-09T18:55:02.350Z</time>
      </trkpt>
      <trkpt lat="47.14472" lon="0.23111">
        <ele>41.51</ele>
        <time>2023-06-09T18:55:29.144Z</time>
      </trkpt>
      <trkpt lat="47.14481" lon="0.23115">
        <ele>41.12</ele>
        <time>2023-06-09T18:55:55.939Z</time>
      </trkpt>
      <trkpt lat="47.14489" lon="0.23119">
        <ele>40.79</ele>
        <time>2023-06-09T18:56:22.736Z</time>
      </trkpt>
      <trkpt lat="47.1451" lon="0.2313">
        <ele>40.07</ele>
        <time>2023-06-09T18:56:49.536Z</time>
      </trkpt>
      <trkpt lat="47.14515" lon="0.23132">
        <ele>39.88</ele>
        <time>2023-06-09T18:57:16.337Z</time>
      </trkpt>
      <trkpt lat="47.14519" lon="0.23134">
        <ele>39.73</ele>
        <time>2023-06-09T18:57:43.139Z</time>
      </trkpt>
      <trkpt lat="47.14536" lon="0.2314">
        <ele>39.01</ele>
        <time>2023-06-09T18:58:09.944Z</time>
      </trkpt>
      <trkpt lat="47.14545" lon="0.23144">
        <ele>38.73</ele>
        <time>2023-06-09T18:58:36.750Z</time>
      </trkpt>
      <trkpt lat="47.14554" lon="0.23147">
        <ele>38.49</ele>
        <time>2023-06-09T18:59:03.558Z</time>
      </trkpt>
      <trkpt lat="47.14562" lon="0.2315">
        <ele>38.18</ele>
        <time>2023-06-09T18:59:30.367Z</time>
      </trkpt>
      <trkpt lat="47.14567" lon="0.23152">
        <ele>38.06</ele>
        <time>2023-06-09T18:59:57.177Z</time>
      </trkpt>
      <trkpt lat="47.14579" lon="0.23157">
        <ele>37.77</ele>
        <time>2023-06-09T19:00:23.989Z</time>
      </trkpt>
      <trkpt lat="47.14579" lon="0.23156">
        <ele>37.77</ele>
        <time>2023-06-09T19:00:50.801Z</time>
      </trkpt>
      <trkpt lat="47.14587" lon="0.23133">
        <ele>37.25</ele>
        <time>2023-06-09T19:01:17.616Z</time>
      </trkpt>
      <trkpt lat="47.14591" lon="0.23121">
        <ele>37.03</ele>
        <time>2023-06-09T19:01:44.432Z</time>
      </trkpt>
      <trkpt lat="47.14592" lon="0.23117">
        <ele>36.96</ele>
        <time>2023-06-09T19:02:11.249Z</time>
      </trkpt>
      <trkpt lat="47.14601" lon="0.23099">
        <ele>36.66</ele>
        <time>2023-06-09T19:02:38.068Z</time>
      </trkpt>
      <trkpt lat="47.14603" lon="0.23095">
        <ele>36.59</ele>
        <time>2023-06-09T19:03:04.888Z</time>
      </trkpt>
      <trkpt lat="47.14627" lon="0.23054">
        <ele>35.97</ele>
        <time>2023-06-09T19:03:31.713Z</time>
      </trkpt>
      <trkpt lat="47.14641" lon="0.23029">
        <ele>35.48</ele>
        <time>2023-06-09T19:03:58.542Z</time>
      </trkpt>
      <trkpt lat="47.14644" lon="0.23025">
        <ele>35.4</ele>
        <time>2023-06-09T19:04:25.372Z</time>
      </trkpt>
      <trkpt lat="47.14656" lon="0.23004">
        <ele>35.13</ele>
        <time>2023-06-09T19:04:52.205Z</time>
      </trkpt>
      <trkpt lat="47.14656" lon="0.23004">
        <ele>35.13</ele>
        <time>2023-06-09T19:05:19.038Z</time>
      </trkpt>
      <trkpt lat="47.14674" lon="0.22968">
        <ele>34.6</ele>
        <time>2023-06-09T19:05:45.876Z</time>
      </trkpt>
      <trkpt lat="47.14682" lon="0.22952">
        <ele>34.3</ele>
        <time>2023-06-09T19:06:12.716Z</time>
      </trkpt>
      <trkpt lat="47.14688" lon="0.22942">
        <ele>34.16</ele>
        <time>2023-06-09T19:06:39.557Z</time>
      </trkpt>
      <trkpt lat="47.14706" lon="0.22905">
        <ele>33.8</ele>
        <time>2023-06-09T19:07:06.403Z</time>
      </trkpt>
      <trkpt lat="47.14712" lon="0.22894">
        <ele>33.74</ele>
        <time>2023-06-09T19:07:33.251Z</time>
      </trkpt>
      <trkpt lat="47.14726" lon="0.22866">
        <ele>33.67</ele>
        <time>2023-06-09T19:08:00.102Z</time>
      </trkpt>
      <trkpt lat="47.14731" lon="0.22858">
        <ele>33.65</ele>
        <time>2023-06-09T19:08:26.955Z</time>
      </trkpt>
      <trkpt lat="47.14737" lon="0.22849">
        <ele>33.67</ele>
        <time>2023-06-09T19:08:53.809Z</time>
      </trkpt>
      <trkpt lat="47.14749" lon="0.22857">
        <ele>33.72</ele>
        <time>2023-06-09T19:09:20.665Z</time>
      </trkpt>
      <trkpt lat="47.14754" lon="0.2286">
        <ele>33.72</ele>
        <time>2023-06-09T19:09:47.522Z</time>
      </trkpt>
      <trkpt lat="47.14757" lon="0.22862">
        <ele>33.7</ele>
        <time>2023-06-09T19:10:14.380Z</time>
      </trkpt>
      <trkpt lat="47.14771" lon="0.22867">
        <ele>33.67</ele>
        <time>2023-06-09T19:10:41.240Z</time>
      </trkpt>
      <trkpt lat="47.14797" lon="0.22877">
        <ele>33.68</ele>
        <time>2023-06-09T19:11:08.104Z</time>
      </trkpt>
      <trkpt lat="47.1481" lon="0.22883">
        <ele>33.72</ele>
        <time>2023-06-09T19:11:34.970Z</time>
      </trkpt>
      <trkpt lat="47.14814" lon="0.22884">
        <ele>33.71</ele>
        <time>2023-06-09T19:12:01.837Z</time>
      </trkpt>
      <trkpt lat="47.14831" lon="0.22891">
        <ele>33.61</ele>
        <time>2023-06-09T19:12:28.707Z</time>
      </trkpt>
      <trkpt lat="47.1484" lon="0.22894">
        <ele>33.59</ele>
        <time>2023-06-09T19:12:55.578Z</time>
      </trkpt>
      <trkpt lat="47.14849" lon="0.22898">
        <ele>33.61</ele>
        <time>2023-06-09T19:13:22.451Z</time>
      </trkpt>
      <trkpt lat="47.14852" lon="0.22899">
        <ele>33.62</ele>
        <time>2023-06-09T19:13:49.324Z</time>
      </trkpt>
      <trkpt lat="47.14867" lon="0.22903">
        <ele>33.7</ele>
        <time>2023-06-09T19:14:16.200Z</time>
      </trkpt>
      <trkpt lat="47.14875" lon="0.22905">
        <ele>33.77</ele>
        <time>2023-06-09T19:14:43.077Z</time>
      </trkpt>
      <trkpt lat="47.14884" lon="0.22908">
        <ele>33.92</ele>
        <time>2023-06-09T19:15:09.956Z</time>
      </trkpt>
      <trkpt lat="47.14893" lon="0.2291">
        <ele>34.12</ele>
        <time>2023-06-09T19:15:36.836Z</time>
      </trkpt>
      <trkpt lat="47.14906" lon="0.22913">
        <ele>34.47</ele>
        <time>2023-06-09T19:16:03.718Z</time>
      </trkpt>
      <trkpt lat="47.14924" lon="0.22918">
        <ele>34.85</ele>
        <time>2023-06-09T19:16:30.603Z</time>
      </trkpt>
      <trkpt lat="47.14933" lon="0.2292">
        <ele>34.9</ele>
        <time>2023-06-09T19:16:57.489Z</time>
      </trkpt>
      <trkpt lat="47.14946" lon="0.22924">
        <ele>34.87</ele>
        <time>2023-06-09T19:17:24.378Z</time>
      </trkpt>
      <trkpt lat="47.1495" lon="0.22925">
        <ele>34.93</ele>
        <time>2023-06-09T19:17:51.267Z</time>
      </trkpt>
      <trkpt lat="47.14954" lon="0.22926">
        <ele>35</ele>
        <time>2023-06-09T19:18:18.157Z</time>
      </trkpt>
      <trkpt lat="47.14963" lon="0.22927">
        <ele>35.18</ele>
        <time>2023-06-09T19:18:45.048Z</time>
      </trkpt>
      <trkpt lat="47.14971" lon="0.22929">
        <ele>35.42</ele>
        <time>2023-06-09T19:19:11.941Z</time>
      </trkpt>
      <trkpt lat="47.14973" lon="0.22929">
        <ele>35.48</ele>
        <time>2023-06-09T19:19:38.834Z</time>
      </trkpt>
      <trkpt lat="47.14975" lon="0.22938">
        <ele>35.7</ele>
        <time>2023-06-09T19:20:05.728Z</time>
      </trkpt>
      <trkpt lat="47.14982" lon="0.22962">
        <ele>35.78</ele>
        <time>2023-06-09T19:20:32.625Z</time>
      </trkpt>
      <trkpt lat="47.14983" lon="0.22967">
        <ele>35.8</ele>
        <time>2023-06-09T19:20:59.522Z</time>
      </trkpt>
      <trkpt lat="47.14987" lon="0.22972">
        <ele>35.83</ele>
        <time>2023-06-09T19:21:26.420Z</time>
      </trkpt>
      <trkpt lat="47.14985" lon="0.23004">
        <ele>35.97</ele>
        <time>2023-06-09T19:21:53.322Z</time>
      </trkpt>
      <trkpt lat="47.14984" lon="0.23016">
        <ele>35.92</ele>
        <time>2023-06-09T19:22:20.225Z</time>
      </trkpt>
      <trkpt lat="47.14982" lon="0.23042">
        <ele>35.75</ele>
        <time>2023-06-09T19:22:47.131Z</time>
      </trkpt>
      <trkpt lat="47.14982" lon="0.23042">
        <ele>35.75</ele>
        <time>2023-06-09T19:23:14.037Z</time>
      </trkpt>
      <trkpt lat="47.14987" lon="0.23043">
        <ele>35.71</ele>
        <time>2023-06-09T19:23:40.944Z</time>
      </trkpt>
      <trkpt lat="47.1499" lon="0.23046">
        <ele>35.69</ele>
        <time>2023-06-09T19:24:07.851Z</time>
      </trkpt>
      <trkpt lat="47.14995" lon="0.2305">
        <ele>35.67</ele>
        <time>2023-06-09T19:24:34.759Z</time>
      </trkpt>
      <trkpt lat="47.15001" lon="0.23058">
        <ele>35.64</ele>
        <time>2023-06-09T19:25:01.668Z</time>
      </trkpt>
      <trkpt lat="47.15019" lon="0.23085">
        <ele>35.58</ele>
        <time>2023-06-09T19:25:28.582Z</time>
      </trkpt>
      <trkpt lat="47.15024" lon="0.23097">
        <ele>35.57</ele>
        <time>2023-06-09T19:25:55.497Z</time>
      </trkpt>
      <trkpt lat="47.15037" lon="0.23124">
        <ele>35.44</ele>
        <time>2023-06-09T19:26:22.416Z</time>
      </trkpt>
      <trkpt lat="47.15049" lon="0.23151">
        <ele>35.27</ele>
        <time>2023-06-09T19:26:49.338Z</time>
      </trkpt>
      <trkpt lat="47.15064" lon="0.23183">
        <ele>35.2</ele>
        <time>2023-06-09T19:27:16.265Z</time>
      </trkpt>
      <trkpt lat="47.15076" lon="0.23211">
        <ele>35.12</ele>
        <time>2023-06-09T19:27:43.195Z</time>
      </trkpt>
      <trkpt lat="47.15088" lon="0.23238">
        <ele>35.11</ele>
        <time>2023-06-09T19:28:10.129Z</time>
      </trkpt>
      <trkpt lat="47.15093" lon="0.23249">
        <ele>35.17</ele>
        <time>2023-06-09T19:28:37.064Z</time>
      </trkpt>
      <trkpt lat="47.15105" lon="0.23276">
        <ele>35.4</ele>
        <time>2023-06-09T19:29:04.003Z</time>
      </trkpt>
      <trkpt lat="47.1511" lon="0.23286">
        <ele>35.45</ele>
        <time>2023-06-09T19:29:30.943Z</time>
      </trkpt>
      <trkpt lat="47.15115" lon="0.23297">
        <ele>35.46</ele>
        <time>2023-06-09T19:29:57.884Z</time>
      </trkpt>
      <trkpt lat="47.15125" lon="0.23319">
        <ele>35.38</ele>
        <time>2023-06-09T19:30:24.828Z</time>
      </trkpt>
      <trkpt lat="47.15132" lon="0.23335">
        <ele>35.36</ele>
        <time>2023-06-09T19:30:51.774Z</time>
      </trkpt>
      <trkpt lat="47.15145" lon="0.23363">
        <ele>35.29</ele>
        <time>2023-06-09T19:31:18.724Z</time>
      </trkpt>
      <trkpt lat="47.15148" lon="0.23365">
        <ele>35.28</ele>
        <time>2023-06-09T19:31:45.675Z</time>
      </trkpt>
      <trkpt lat="47.15149" lon="0.23366">
        <ele>35.28</ele>
        <time>2023-06-09T19:32:12.626Z</time>
      </trkpt>
      <trkpt lat="47.15147" lon="0.23377">
        <ele>35.28</ele>
        <time>2023-06-09T19:32:39.578Z</time>
      </trkpt>
      <trkpt lat="47.15147" lon="0.23379">
        <ele>35.28</ele>
        <time>2023-06-09T19:33:06.530Z</time>
      </trkpt>
      <trkpt lat="47.15146" lon="0.23409">
        <ele>35.32</ele>
        <time>2023-06-09T19:33:33.486Z</time>
      </trkpt>
      <trkpt lat="47.15144" lon="0.23435">
        <ele>35.27</ele>
        <time>2023-06-09T19:34:00.444Z</time>
      </trkpt>
      <trkpt lat="47.15144" lon="0.23448">
        <ele>35.33</ele>
        <time>2023-06-09T19:34:27.404Z</time>
      </trkpt>
      <trkpt lat="47.15143" lon="0.23454">
        <ele>35.41</ele>
        <time>2023-06-09T19:34:54.364Z</time>
      </trkpt>
      <trkpt lat="47.15143" lon="0.23467">
        <ele>35.62</ele>
        <time>2023-06-09T19:35:21.326Z</time>
      </trkpt>
      <trkpt lat="47.15142" lon="0.23492">
        <ele>35.74</ele>
        <time>2023-06-09T19:35:48.291Z</time>
      </trkpt>
      <trkpt lat="47.15141" lon="0.23511">
        <ele>35.91</ele>
        <time>2023-06-09T19:36:15.258Z</time>
      </trkpt>
      <trkpt lat="47.1514" lon="0.23531">
        <ele>35.35</ele>
        <time>2023-06-09T19:36:42.227Z</time>
      </trkpt>
      <trkpt lat="47.15139" lon="0.23551">
        <ele>34.72</ele>
        <time>2023-06-09T19:37:09.198Z</time>
      </trkpt>
      <trkpt lat="47.15148" lon="0.23551">
        <ele>34.34</ele>
        <time>2023-06-09T19:37:36.170Z</time>
      </trkpt>
      <trkpt lat="47.15157" lon="0.23552">
        <ele>34</ele>
        <time>2023-06-09T19:38:03.144Z</time>
      </trkpt>
      <trkpt lat="47.15161" lon="0.23552">
        <ele>33.85</ele>
        <time>2023-06-09T19:38:30.119Z</time>
      </trkpt>
      <trkpt lat="47.1517" lon="0.23553">
        <ele>33.61</ele>
        <time>2023-06-09T19:38:57.095Z</time>
      </trkpt>
      <trkpt lat="47.15174" lon="0.23553">
        <ele>33.52</ele>
        <time>2023-06-09T19:39:24.072Z</time>
      </trkpt>
      <trkpt lat="47.15183" lon="0.23553">
        <ele>33.34</ele>
        <time>2023-06-09T19:39:51.050Z</time>
      </trkpt>
      <trkpt lat="47.15197" lon="0.23553">
        <ele>33.14</ele>
        <time>2023-06-09T19:40:18.030Z</time>
      </trkpt>
      <trkpt lat="47.15215" lon="0.23552">
        <ele>32.98</ele>
        <time>2023-06-09T19:40:45.013Z</time>
      </trkpt>
      <trkpt lat="47.15228" lon="0.23552">
        <ele>32.83</ele>
        <time>2023-06-09T19:41:11.998Z</time>
      </trkpt>
      <trkpt lat="47.1525" lon="0.23552">
        <ele>32.65</ele>
        <time>2023-06-09T19:41:38.987Z</time>
      </trkpt>
      <trkpt lat="47.1525" lon="0.23552">
        <ele>32.65</ele>
        <time>2023-06-09T19:42:05.976Z</time>
      </trkpt>
      <trkpt lat="47.15264" lon="0.23553">
        <ele>32.59</ele>
        <time>2023-06-09T19:42:32.967Z</time>
      </trkpt>
      <trkpt lat="47.15295" lon="0.23554">
        <ele>32.54</ele>
        <time>2023-06-09T19:42:59.963Z</time>
      </trkpt>
      <trkpt lat="47.15308" lon="0.23554">
        <ele>32.54</ele>
        <time>2023-06-09T19:43:26.961Z</time>
      </trkpt>
      <trkpt lat="47.15322" lon="0.23555">
        <ele>32.55</ele>
        <time>2023-06-09T19:43:53.961Z</time>
      </trkpt>
      <trkpt lat="47.15338" lon="0.23555">
        <ele>32.58</ele>
        <time>2023-06-09T19:44:20.964Z</time>
      </trkpt>
      <trkpt lat="47.15365" lon="0.23555">
        <ele>32.51</ele>
        <time>2023-06-09T19:44:47.971Z</time>
      </trkpt>
      <trkpt lat="47.1537" lon="0.23555">
        <ele>32.5</ele>
        <time>2023-06-09T19:45:14.979Z</time>
      </trkpt>
      <trkpt lat="47.15383" lon="0.23554">
        <ele>32.49</ele>
        <time>2023-06-09T19:45:41.989Z</time>
      </trkpt>
      <trkpt lat="47.15397" lon="0.23553">
        <ele>32.5</ele>
        <time>2023-06-09T19:46:09.001Z</time>
      </trkpt>
      <trkpt lat="47.15423" lon="0.23552">
        <ele>32.61</ele>
        <time>2023-06-09T19:46:36.018Z</time>
      </trkpt>
      <trkpt lat="47.15439" lon="0.23551">
        <ele>32.59</ele>
        <time>2023-06-09T19:47:03.037Z</time>
      </trkpt>
      <trkpt lat="47.15441" lon="0.2355">
        <ele>32.59</ele>
        <time>2023-06-09T19:47:30.057Z</time>
      </trkpt>
      <trkpt lat="47.15459" lon="0.23546">
        <ele>32.64</ele>
        <time>2023-06-09T19:47:57.079Z</time>
      </trkpt>
      <trkpt lat="47.15472" lon="0.23543">
        <ele>32.63</ele>
        <time>2023-06-09T19:48:24.104Z</time>
      </trkpt>
      <trkpt lat="47.15474" lon="0.23543">
        <ele>32.62</ele>
        <time>2023-06-09T19:48:51.129Z</time>
      </trkpt>
      <trkpt lat="47.15495" lon="0.23545">
        <ele>32.55</ele>
        <time>2023-06-09T19:49:18.157Z</time>
      </trkpt>
      <trkpt lat="47.15508" lon="0.23546">
        <ele>32.55</ele>
        <time>2023-06-09T19:49:45.187Z</time>
      </trkpt>
      <trkpt lat="47.15521" lon="0.23548">
        <ele>32.63</ele>
        <time>2023-06-09T19:50:12.219Z</time>
      </trkpt>
      <trkpt lat="47.15542" lon="0.2355">
        <ele>32.8</ele>
        <time>2023-06-09T19:50:39.255Z</time>
      </trkpt>
      <trkpt lat="47.15555" lon="0.23551">
        <ele>32.87</ele>
        <time>2023-06-09T19:51:06.293Z</time>
      </trkpt>
      <trkpt lat="47.15586" lon="0.23554">
        <ele>33.07</ele>
        <time>2023-06-09T19:51:33.336Z</time>
      </trkpt>
      <trkpt lat="47.15612" lon="0.23557">
        <ele>32.9</ele>
        <time>2023-06-09T19:52:00.383Z</time>
      </trkpt>
      <trkpt lat="47.15639" lon="0.2356">
        <ele>32.81</ele>
        <time>2023-06-09T19:52:27.434Z</time>
      </trkpt>
      <trkpt lat="47.15648" lon="0.23561">
        <ele>32.81</ele>
        <time>2023-06-09T19:52:54.487Z</time>
      </trkpt>
      <trkpt lat="47.15661" lon="0.23562">
        <ele>32.85</ele>
        <time>2023-06-09T19:53:21.542Z</time>
      </trkpt>
      <trkpt lat="47.1567" lon="0.23563">
        <ele>32.85</ele>
        <time>2023-06-09T19:53:48.598Z</time>
      </trkpt>
      <trkpt lat="47.15691" lon="0.23565">
        <ele>32.8</ele>
        <time>2023-06-09T19:54:15.658Z</time>
      </trkpt>
      <trkpt lat="47.15696" lon="0.23566">
        <ele>32.79</ele>
        <time>2023-06-09T19:54:42.718Z</time>
      </trkpt>
      <trkpt lat="47.15714" lon="0.2357">
        <ele>32.78</ele>
        <time>2023-06-09T19:55:09.781Z</time>
      </trkpt>
      <trkpt lat="47.15723" lon="0.23571">
        <ele>32.74</ele>
        <time>2023-06-09T19:55:36.846Z</time>
      </trkpt>
      <trkpt lat="47.15736" lon="0.23574">
        <ele>32.75</ele>
        <time>2023-06-09T19:56:03.913Z</time>
      </trkpt>
      <trkpt lat="47.1574" lon="0.23575">
        <ele>32.74</ele>
        <time>2023-06-09T19:56:30.981Z</time>
      </trkpt>
      <trkpt lat="47.15743" lon="0.23549">
        <ele>32.73</ele>
        <time>2023-06-09T19:56:58.051Z</time>
      </trkpt>
      <trkpt lat="47.15749" lon="0.23503">
        <ele>32.9</ele>
        <time>2023-06-09T19:57:25.126Z</time>
      </trkpt>
      <trkpt lat="47.15751" lon="0.23484">
        <ele>32.9</ele>
        <time>2023-06-09T19:57:52.204Z</time>
      </trkpt>
      <trkpt lat="47.15752" lon="0.23477">
        <ele>32.9</ele>
        <time>2023-06-09T19:58:19.282Z</time>
      </trkpt>
      <trkpt lat="47.15756" lon="0.23445">
        <ele>32.86</ele>
        <time>2023-06-09T19:58:46.364Z</time>
      </trkpt>
      <trkpt lat="47.1576" lon="0.23413">
        <ele>32.93</ele>
        <time>2023-06-09T19:59:13.450Z</time>
      </trkpt>
      <trkpt lat="47.15762" lon="0.234">
        <ele>32.94</ele>
        <time>2023-06-09T19:59:40.537Z</time>
      </trkpt>
      <trkpt lat="47.15766" lon="0.23374">
        <ele>32.87</ele>
        <time>2023-06-09T20:00:07.627Z</time>
      </trkpt>
      <trkpt lat="47.15772" lon="0.23329">
        <ele>32.69</ele>
        <time>2023-06-09T20:00:34.722Z</time>
      </trkpt>
      <trkpt lat="47.15777" lon="0.2329">
        <ele>32.44</ele>
        <time>2023-06-09T20:01:01.821Z</time>
      </trkpt>
      <trkpt lat="47.15779" lon="0.23277">
        <ele>32.4</ele>
        <time>2023-06-09T20:01:28.922Z</time>
      </trkpt>
      <trkpt lat="47.15781" lon="0.23258">
        <ele>32.39</ele>
        <time>2023-06-09T20:01:56.025Z</time>
      </trkpt>
      <trkpt lat="47.15785" lon="0.23225">
        <ele>32.41</ele>
        <time>2023-06-09T20:02:23.131Z</time>
      </trkpt>
      <trkpt lat="47.1579" lon="0.23193">
        <ele>32.39</ele>
        <time>2023-06-09T20:02:50.241Z</time>
      </trkpt>
      <trkpt lat="47.15792" lon="0.23174">
        <ele>32.33</ele>
        <time>2023-06-09T20:03:17.353Z</time>
      </trkpt>
      <trkpt lat="47.15795" lon="0.23154">
        <ele>32.2</ele>
        <time>2023-06-09T20:03:44.467Z</time>
      </trkpt>
      <trkpt lat="47.15798" lon="0.23129">
        <ele>32.14</ele>
        <time>2023-06-09T20:04:11.584Z</time>
      </trkpt>
      <trkpt lat="47.15805" lon="0.23077">
        <ele>32.12</ele>
        <time>2023-06-09T20:04:38.707Z</time>
      </trkpt>
      <trkpt lat="47.1581" lon="0.23038">
        <ele>32.18</ele>
        <time>2023-06-09T20:05:05.834Z</time>
      </trkpt>
      <trkpt lat="47.15813" lon="0.23018">
        <ele>32.16</ele>
        <time>2023-06-09T20:05:32.963Z</time>
      </trkpt>
      <trkpt lat="47.15814" lon="0.23013">
        <ele>32.16</ele>
        <time>2023-06-09T20:06:00.093Z</time>
      </trkpt>
      <trkpt lat="47.15818" lon="0.23001">
        <ele>32.17</ele>
        <time>2023-06-09T20:06:27.225Z</time>
      </trkpt>
      <trkpt lat="47.15834" lon="0.23012">
        <ele>32.21</ele>
        <time>2023-06-09T20:06:54.359Z</time>
      </trkpt>
      <trkpt lat="47.15855" lon="0.23026">
        <ele>32.22</ele>
        <time>2023-06-09T20:07:21.497Z</time>
      </trkpt>
      <trkpt lat="47.15863" lon="0.23032">
        <ele>32.25</ele>
        <time>2023-06-09T20:07:48.636Z</time>
      </trkpt>
      <trkpt lat="47.15879" lon="0.23043">
        <ele>32.37</ele>
        <time>2023-06-09T20:08:15.778Z</time>
      </trkpt>
      <trkpt lat="47.15887" lon="0.23048">
        <ele>32.4</ele>
        <time>2023-06-09T20:08:42.922Z</time>
      </trkpt>
      <trkpt lat="47.15891" lon="0.23051">
        <ele>32.38</ele>
        <time>2023-06-09T20:09:10.066Z</time>
      </trkpt>
      <trkpt lat="47.15916" lon="0.23064">
        <ele>32.33</ele>
        <time>2023-06-09T20:09:37.215Z</time>
      </trkpt>
      <trkpt lat="47.15919" lon="0.23066">
        <ele>32.33</ele>
        <time>2023-06-09T20:10:04.364Z</time>
      </trkpt>
      <trkpt lat="47.15925" lon="0.23068">
        <ele>32.33</ele>
        <time>2023-06-09T20:10:31.514Z</time>
      </trkpt>
      <trkpt lat="47.1596" lon="0.23078">
        <ele>32.53</ele>
        <time>2023-06-09T20:10:58.670Z</time>
      </trkpt>
      <trkpt lat="47.15982" lon="0.23085">
        <ele>32.77</ele>
        <time>2023-06-09T20:11:25.829Z</time>
      </trkpt>
      <trkpt lat="47.15989" lon="0.23087">
        <ele>32.78</ele>
        <time>2023-06-09T20:11:52.990Z</time>
      </trkpt>
      <trkpt lat="47.15991" lon="0.23087">
        <ele>32.79</ele>
        <time>2023-06-09T20:12:20.151Z</time>
      </trkpt>
      <trkpt lat="47.16008" lon="0.23089">
        <ele>32.77</ele>
        <time>2023-06-09T20:12:47.315Z</time>
      </trkpt>
      <trkpt lat="47.16022" lon="0.2309">
        <ele>32.7</ele>
        <time>2023-06-09T20:13:14.481Z</time>
      </trkpt>
      <trkpt lat="47.16026" lon="0.2309">
        <ele>32.69</ele>
        <time>2023-06-09T20:13:41.648Z</time>
      </trkpt>
      <trkpt lat="47.16035" lon="0.23089">
        <ele>32.69</ele>
        <time>2023-06-09T20:14:08.816Z</time>
      </trkpt>
      <trkpt lat="47.16044" lon="0.23089">
        <ele>32.76</ele>
        <time>2023-06-09T20:14:35.985Z</time>
      </trkpt>
      <trkpt lat="47.16057" lon="0.23088">
        <ele>32.9</ele>
        <time>2023-06-09T20:15:03.157Z</time>
      </trkpt>
      <trkpt lat="47.16062" lon="0.23087">
        <ele>32.92</ele>
        <time>2023-06-09T20:15:30.329Z</time>
      </trkpt>
      <trkpt lat="47.16066" lon="0.23087">
        <ele>32.91</ele>
        <time>2023-06-09T20:15:57.502Z</time>
      </trkpt>
      <trkpt lat="47.1608" lon="0.23086">
        <ele>32.81</ele>
        <time>2023-06-09T20:16:24.677Z</time>
      </trkpt>
      <trkpt lat="47.16096" lon="0.23085">
        <ele>32.78</ele>
        <time>2023-06-09T20:16:51.855Z</time>
      </trkpt>
      <trkpt lat="47.16114" lon="0.23078">
        <ele>32.76</ele>
        <time>2023-06-09T20:17:19.036Z</time>
      </trkpt>
      <trkpt lat="47.16119" lon="0.23079">
        <ele>32.76</ele>
        <time>2023-06-09T20:17:46.218Z</time>
      </trkpt>
      <trkpt lat="47.16133" lon="0.2308">
        <ele>32.8</ele>
        <time>2023-06-09T20:18:13.402Z</time>
      </trkpt>
      <trkpt lat="47.1615" lon="0.23083">
        <ele>32.92</ele>
        <time>2023-06-09T20:18:40.589Z</time>
      </trkpt>
      <trkpt lat="47.16152" lon="0.23083">
        <ele>32.92</ele>
        <time>2023-06-09T20:19:07.776Z</time>
      </trkpt>
      <trkpt lat="47.16159" lon="0.23086">
        <ele>32.96</ele>
        <time>2023-06-09T20:19:34.964Z</time>
      </trkpt>
      <trkpt lat="47.16176" lon="0.23093">
        <ele>32.89</ele>
        <time>2023-06-09T20:20:02.155Z</time>
      </trkpt>
      <trkpt lat="47.16185" lon="0.23096">
        <ele>32.89</ele>
        <time>2023-06-09T20:20:29.347Z</time>
      </trkpt>
      <trkpt lat="47.16194" lon="0.23099">
        <ele>32.93</ele>
        <time>2023-06-09T20:20:56.541Z</time>
      </trkpt>
      <trkpt lat="47.16207" lon="0.23105">
        <ele>33.02</ele>
        <time>2023-06-09T20:21:23.737Z</time>
      </trkpt>
      <trkpt lat="47.16228" lon="0.23113">
        <ele>33.23</ele>
        <time>2023-06-09T20:21:50.936Z</time>
      </trkpt>
      <trkpt lat="47.16241" lon="0.23118">
        <ele>33.5</ele>
        <time>2023-06-09T20:22:18.138Z</time>
      </trkpt>
      <trkpt lat="47.16243" lon="0.23119">
        <ele>33.55</ele>
        <time>2023-06-09T20:22:45.340Z</time>
      </trkpt>
      <trkpt lat="47.16262" lon="0.2313">
        <ele>34.15</ele>
        <time>2023-06-09T20:23:12.545Z</time>
      </trkpt>
      <trkpt lat="47.16266" lon="0.23132">
        <ele>34.3</ele>
        <time>2023-06-09T20:23:39.751Z</time>
      </trkpt>
      <trkpt lat="47.16273" lon="0.23139">
        <ele>34.63</ele>
        <time>2023-06-09T20:24:06.958Z</time>
      </trkpt>
      <trkpt lat="47.16281" lon="0.23146">
        <ele>34.88</ele>
        <time>2023-06-09T20:24:34.167Z</time>
      </trkpt>
      <trkpt lat="47.16288" lon="0.23153">
        <ele>35.08</ele>
        <time>2023-06-09T20:25:01.377Z</time>
      </trkpt>
      <trkpt lat="47.16291" lon="0.23158">
        <ele>35.2</ele>
        <time>2023-06-09T20:25:28.588Z</time>
      </trkpt>
      <trkpt lat="47.163" lon="0.23172">
        <ele>35.44</ele>
        <time>2023-06-09T20:25:55.801Z</time>
      </trkpt>
      <trkpt lat="47.16315" lon="0.23196">
        <ele>35.69</ele>
        <time>2023-06-09T20:26:23.018Z</time>
      </trkpt>
      <trkpt lat="47.1632" lon="0.23204">
        <ele>35.72</ele>
        <time>2023-06-09T20:26:50.236Z</time>
      </trkpt>
      <trkpt lat="47.16321" lon="0.23206">
        <ele>35.74</ele>
        <time>2023-06-09T20:27:17.454Z</time>
      </trkpt>
      <trkpt lat="47.16325" lon="0.2321">
        <ele>35.74</ele>
        <time>2023-06-09T20:27:44.673Z</time>
      </trkpt>
      <trkpt lat="47.16338" lon="0.23228">
        <ele>35.62</ele>
        <time>2023-06-09T20:28:11.895Z</time>
      </trkpt>
      <trkpt lat="47.16361" lon="0.23259">
        <ele>35.46</ele>
        <time>2023-06-09T20:28:39.121Z</time>
      </trkpt>
      <trkpt lat="47.16366" lon="0.23266">
        <ele>35.38</ele>
        <time>2023-06-09T20:29:06.349Z</time>
      </trkpt>
      <trkpt lat="47.16375" lon="0.23275">
        <ele>35.28</ele>
        <time>2023-06-09T20:29:33.578Z</time>
      </trkpt>
      <trkpt lat="47.16392" lon="0.23292">
        <ele>35.42</ele>
        <time>2023-06-09T20:30:00.811Z</time>
      </trkpt>
      <trkpt lat="47.16396" lon="0.23296">
        <ele>35.43</ele>
        <time>2023-06-09T20:30:28.044Z</time>
      </trkpt>
      <trkpt lat="47.16382" lon="0.23342">
        <ele>35.55</ele>
        <time>2023-06-09T20:30:55.283Z</time>
      </trkpt>
      <trkpt lat="47.16376" lon="0.23359">
        <ele>35.64</ele>
        <time>2023-06-09T20:31:22.524Z</time>
      </trkpt>
      <trkpt lat="47.16375" lon="0.23364">
        <ele>35.67</ele>
        <time>2023-06-09T20:31:49.766Z</time>
      </trkpt>
      <trkpt lat="47.16374" lon="0.23371">
        <ele>35.73</ele>
        <time>2023-06-09T20:32:17.008Z</time>
      </trkpt>
      <trkpt lat="47.16368" lon="0.23402">
        <ele>36</ele>
        <time>2023-06-09T20:32:44.254Z</time>
      </trkpt>
      <trkpt lat="47.16366" lon="0.23415">
        <ele>36.03</ele>
        <time>2023-06-09T20:33:11.501Z</time>
      </trkpt>
      <trkpt lat="47.16364" lon="0.23425">
        <ele>36.07</ele>
        <time>2023-06-09T20:33:38.750Z</time>
      </trkpt>
      <trkpt lat="47.16364" lon="0.23427">
        <ele>36.09</ele>
        <time>2023-06-09T20:34:05.999Z</time>
      </trkpt>
      <trkpt lat="47.16363" lon="0.2344">
        <ele>36.17</ele>
        <time>2023-06-09T20:34:33.249Z</time>
      </trkpt>
      <trkpt lat="47.16368" lon="0.23492">
        <ele>36.51</ele>
        <time>2023-06-09T20:35:00.505Z</time>
      </trkpt>
      <trkpt lat="47.16372" lon="0.23544">
        <ele>36.59</ele>
        <time>2023-06-09T20:35:27.767Z</time>
      </trkpt>
      <trkpt lat="47.16375" lon="0.23574">
        <ele>36.62</ele>
        <time>2023-06-09T20:35:55.032Z</time>
      </trkpt>
      <trkpt lat="47.16378" lon="0.23605">
        <ele>36.69</ele>
        <time>2023-06-09T20:36:22.300Z</time>
      </trkpt>
      <trkpt lat="47.16381" lon="0.23643">
        <ele>36.58</ele>
        <time>2023-06-09T20:36:49.573Z</time>
      </trkpt>
      <trkpt lat="47.16384" lon="0.23682">
        <ele>36.48</ele>
        <time>2023-06-09T20:37:16.850Z</time>
      </trkpt>
      <trkpt lat="47.16387" lon="0.23728">
        <ele>36.45</ele>
        <time>2023-06-09T20:37:44.132Z</time>
      </trkpt>
      <trkpt lat="47.16388" lon="0.23741">
        <ele>36.47</ele>
        <time>2023-06-09T20:38:11.415Z</time>
      </trkpt>
      <trkpt lat="47.1639" lon="0.2376">
        <ele>36.53</ele>
        <time>2023-06-09T20:38:38.700Z</time>
      </trkpt>
      <trkpt lat="47.16392" lon="0.23793">
        <ele>36.7</ele>
        <time>2023-06-09T20:39:05.989Z</time>
      </trkpt>
      <trkpt lat="47.16393" lon="0.23804">
        <ele>36.81</ele>
        <time>2023-06-09T20:39:33.279Z</time>
      </trkpt>
      <trkpt lat="47.16394" lon="0.2382">
        <ele>36.92</ele>
        <time>2023-06-09T20:40:00.571Z</time>
      </trkpt>
      <trkpt lat="47.16393" lon="0.23831">
        <ele>37</ele>
        <time>2023-06-09T20:40:27.864Z</time>
      </trkpt>
      <trkpt lat="47.16396" lon="0.23831">
        <ele>37.04</ele>
        <time>2023-06-09T20:40:55.158Z</time>
      </trkpt>
      <trkpt lat="47.16452" lon="0.23824">
        <ele>37.79</ele>
        <time>2023-06-09T20:41:22.461Z</time>
      </trkpt>
      <trkpt lat="47.16464" lon="0.23822">
        <ele>37.94</ele>
        <time>2023-06-09T20:41:49.766Z</time>
      </trkpt>
      <trkpt lat="47.16482" lon="0.2382">
        <ele>38.12</ele>
        <time>2023-06-09T20:42:17.073Z</time>
      </trkpt>
      <trkpt lat="47.16486" lon="0.2382">
        <ele>38.14</ele>
        <time>2023-06-09T20:42:44.381Z</time>
      </trkpt>
      <trkpt lat="47.16491" lon="0.23819">
        <ele>38.14</ele>
        <time>2023-06-09T20:43:11.690Z</time>
      </trkpt>
      <trkpt lat="47.16495" lon="0.23819">
        <ele>38.11</ele>
        <time>2023-06-09T20:43:39.000Z</time>
      </trkpt>
      <trkpt lat="47.165" lon="0.23818">
        <ele>38.05</ele>
        <time>2023-06-09T20:44:06.310Z</time>
      </trkpt>
      <trkpt lat="47.16509" lon="0.23817">
        <ele>37.86</ele>
        <time>2023-06-09T20:44:33.622Z</time>
      </trkpt>
      <trkpt lat="47.16526" lon="0.23815">
        <ele>37.39</ele>
        <time>2023-06-09T20:45:00.937Z</time>
      </trkpt>
      <trkpt lat="47.1654" lon="0.23813">
        <ele>37.09</ele>
        <time>2023-06-09T20:45:28.254Z</time>
      </trkpt>
      <trkpt lat="47.16549" lon="0.23812">
        <ele>36.93</ele>
        <time>2023-06-09T20:45:55.572Z</time>
      </trkpt>
      <trkpt lat="47.1658" lon="0.23808">
        <ele>36.49</ele>
        <time>2023-06-09T20:46:22.895Z</time>
      </trkpt>
      <trkpt lat="47.16598" lon="0.23806">
        <ele>36.27</ele>
        <time>2023-06-09T20:46:50.221Z</time>
      </trkpt>
      <trkpt lat="47.16603" lon="0.23808">
        <ele>36.22</ele>
        <time>2023-06-09T20:47:17.548Z</time>
      </trkpt>
      <trkpt lat="47.16606" lon="0.23809">
        <ele>36.2</ele>
        <time>2023-06-09T20:47:44.875Z</time>
      </trkpt>
      <trkpt lat="47.16602" lon="0.23837">
        <ele>36.08</ele>
        <time>2023-06-09T20:48:12.206Z</time>
      </trkpt>
      <trkpt lat="47.16601" lon="0.23843">
        <ele>36.06</ele>
        <time>2023-06-09T20:48:39.537Z</time>
      </trkpt>
      <trkpt lat="47.16598" lon="0.23856">
        <ele>36.03</ele>
        <time>2023-06-09T20:49:06.870Z</time>
      </trkpt>
      <trkpt lat="47.16591" lon="0.23894">
        <ele>36.01</ele>
        <time>2023-06-09T20:49:34.207Z</time>
      </trkpt>
      <trkpt lat="47.16584" lon="0.23931">
        <ele>36.05</ele>
        <time>2023-06-09T20:50:01.548Z</time>
      </trkpt>
      <trkpt lat="47.16581" lon="0.23944">
        <ele>36.21</ele>
        <time>2023-06-09T20:50:28.891Z</time>
      </trkpt>
      <trkpt lat="47.1658" lon="0.2395">
        <ele>36.29</ele>
        <time>2023-06-09T20:50:56.234Z</time>
      </trkpt>
      <trkpt lat="47.16579" lon="0.23963">
        <ele>36.47</ele>
        <time>2023-06-09T20:51:23.579Z</time>
      </trkpt>
      <trkpt lat="47.16578" lon="0.23969">
        <ele>36.59</ele>
        <time>2023-06-09T20:51:50.924Z</time>
      </trkpt>
      <trkpt lat="47.16582" lon="0.2397">
        <ele>36.71</ele>
        <time>2023-06-09T20:52:18.270Z</time>
      </trkpt>
      <trkpt lat="47.16591" lon="0.23972">
        <ele>36.98</ele>
        <time>2023-06-09T20:52:45.618Z</time>
      </trkpt>
      <trkpt lat="47.16597" lon="0.23974">
        <ele>36.94</ele>
        <time>2023-06-09T20:53:12.967Z</time>
      </trkpt>
      <trkpt lat="47.16615" lon="0.23979">
        <ele>37.12</ele>
        <time>2023-06-09T20:53:40.318Z</time>
      </trkpt>
      <trkpt lat="47.16616" lon="0.23979">
        <ele>37.14</ele>
        <time>2023-06-09T20:54:07.670Z</time>
      </trkpt>
      <trkpt lat="47.16615" lon="0.23989">
        <ele>37.25</ele>
        <time>2023-06-09T20:54:35.023Z</time>
      </trkpt>
      <trkpt lat="47.1662" lon="0.23992">
        <ele>37.33</ele>
        <time>2023-06-09T20:55:02.377Z</time>
      </trkpt>
      <trkpt lat="47.16624" lon="0.23993">
        <ele>37.4</ele>
        <time>2023-06-09T20:55:29.731Z</time>
      </trkpt>
      <trkpt lat="47.1665" lon="0.23998">
        <ele>38.28</ele>
        <time>2023-06-09T20:55:57.089Z</time>
      </trkpt>
      <trkpt lat="47.16659" lon="0.24">
        <ele>38.59</ele>
        <time>2023-06-09T20:56:24.449Z</time>
      </trkpt>
      <trkpt lat="47.16668" lon="0.24002">
        <ele>38.86</ele>
        <time>2023-06-09T20:56:51.810Z</time>
      </trkpt>
      <trkpt lat="47.16677" lon="0.24004">
        <ele>39.1</ele>
        <time>2023-06-09T20:57:19.173Z</time>
      </trkpt>
      <trkpt lat="47.16683" lon="0.24005">
        <ele>39.19</ele>
        <time>2023-06-09T20:57:46.537Z</time>
      </trkpt>
      <trkpt lat="47.16695" lon="0.24007">
        <ele>40.84</ele>
        <time>2023-06-09T20:58:13.903Z</time>
      </trkpt>
      <trkpt lat="47.16703" lon="0.24009">
        <ele>41.95</ele>
        <time>2023-06-09T20:58:41.270Z</time>
      </trkpt>
      <trkpt lat="47.16703" lon="0.24002">
        <ele>42.61</ele>
        <time>2023-06-09T20:59:08.638Z</time>
      </trkpt>
      <trkpt lat="47.16703" lon="0.24">
        <ele>42.6</ele>
        <time>2023-06-09T20:59:36.006Z</time>
      </trkpt>
      <trkpt lat="47.16712" lon="0.24">
        <ele>42.59</ele>
        <time>2023-06-09T21:00:03.375Z</time>
      </trkpt>
      <trkpt lat="47.1672" lon="0.24">
        <ele>41.86</ele>
        <time>2023-06-09T21:00:30.746Z</time>
      </trkpt>
      <trkpt lat="47.16728" lon="0.24">
        <ele>41.05</ele>
        <time>2023-06-09T21:00:58.118Z</time>
      </trkpt>
      <trkpt lat="47.16729" lon="0.24008">
        <ele>40.47</ele>
        <time>2023-06-09T21:01:25.491Z</time>
      </trkpt>
      <trkpt lat="47.1673" lon="0.24028">
        <ele>39.25</ele>
        <time>2023-06-09T21:01:52.866Z</time>
      </trkpt>
      <trkpt lat="47.1673" lon="0.24028">
        <ele>39.25</ele>
        <time>2023-06-09T21:02:20.241Z</time>
      </trkpt>
      <trkpt lat="47.16722" lon="0.24029">
        <ele>39.2</ele>
        <time>2023-06-09T21:02:47.617Z</time>
      </trkpt>
      <trkpt lat="47.1671" lon="0.24032">
        <ele>39.09</ele>
        <time>2023-06-09T21:03:14.995Z</time>
      </trkpt>
      <trkpt lat="47.16703" lon="0.24033">
        <ele>39.05</ele>
        <time>2023-06-09T21:03:42.374Z</time>
      </trkpt>
      <trkpt lat="47.16703" lon="0.24049">
        <ele>39.01</ele>
        <time>2023-06-09T21:04:09.755Z</time>
      </trkpt>
      <trkpt lat="47.16703" lon="0.24068">
        <ele>39</ele>
        <time>2023-06-09T21:04:37.138Z</time>
      </trkpt>
      <trkpt lat="47.16703" lon="0.24076">
        <ele>39.09</ele>
        <time>2023-06-09T21:05:04.522Z</time>
      </trkpt>
      <trkpt lat="47.16703" lon="0.24094">
        <ele>39.34</ele>
        <time>2023-06-09T21:05:31.908Z</time>
      </trkpt>
      <trkpt lat="47.16703" lon="0.24102">
        <ele>39.48</ele>
        <time>2023-06-09T21:05:59.295Z</time>
      </trkpt>
      <trkpt lat="47.16704" lon="0.24105">
        <ele>39.55</ele>
        <time>2023-06-09T21:06:26.682Z</time>
      </trkpt>
      <trkpt lat="47.16708" lon="0.24122">
        <ele>39.91</ele>
        <time>2023-06-09T21:06:54.071Z</time>
      </trkpt>
      <trkpt lat="47.16714" lon="0.24147">
        <ele>40.25</ele>
        <time>2023-06-09T21:07:21.463Z</time>
      </trkpt>
      <trkpt lat="47.16717" lon="0.2416">
        <ele>40.52</ele>
        <time>2023-06-09T21:07:48.857Z</time>
      </trkpt>
      <trkpt lat="47.16719" lon="0.24177">
        <ele>40.88</ele>
        <time>2023-06-09T21:08:16.253Z</time>
      </trkpt>
      <trkpt lat="47.1672" lon="0.2419">
        <ele>41.11</ele>
        <time>2023-06-09T21:08:43.650Z</time>
      </trkpt>
      <trkpt lat="47.16722" lon="0.24202">
        <ele>41.28</ele>
        <time>2023-06-09T21:09:11.048Z</time>
      </trkpt>
      <trkpt lat="47.16725" lon="0.24233">
        <ele>41.66</ele>
        <time>2023-06-09T21:09:38.450Z</time>
      </trkpt>
      <trkpt lat="47.16726" lon="0.24238">
        <ele>41.79</ele>
        <time>2023-06-09T21:10:05.852Z</time>
      </trkpt>
      <trkpt lat="47.16727" lon="0.24243">
        <ele>41.94</ele>
        <time>2023-06-09T21:10:33.255Z</time>
      </trkpt>
      <trkpt lat="47.16732" lon="0.24261">
        <ele>42.12</ele>
        <time>2023-06-09T21:11:00.660Z</time>
      </trkpt>
      <trkpt lat="47.16735" lon="0.24271">
        <ele>42.27</ele>
        <time>2023-06-09T21:11:28.066Z</time>
      </trkpt>
      <trkpt lat="47.16741" lon="0.24276">
        <ele>42.41</ele>
        <time>2023-06-09T21:11:55.473Z</time>
      </trkpt>
      <trkpt lat="47.16744" lon="0.24286">
        <ele>42.56</ele>
        <time>2023-06-09T21:12:22.882Z</time>
      </trkpt>
      <trkpt lat="47.16747" lon="0.24293">
        <ele>42.65</ele>
        <time>2023-06-09T21:12:50.291Z</time>
      </trkpt>
      <trkpt lat="47.16749" lon="0.24304">
        <ele>42.78</ele>
        <time>2023-06-09T21:13:17.702Z</time>
      </trkpt>
      <trkpt lat="47.16751" lon="0.24316">
        <ele>43.41</ele>
        <time>2023-06-09T21:13:45.114Z</time>
      </trkpt>
      <trkpt lat="47.16752" lon="0.24322">
        <ele>43.75</ele>
        <time>2023-06-09T21:14:12.527Z</time>
      </trkpt>
      <trkpt lat="47.16755" lon="0.2434">
        <ele>44.87</ele>
        <time>2023-06-09T21:14:39.942Z</time>
      </trkpt>
      <trkpt lat="47.16756" lon="0.24343">
        <ele>45.22</ele>
        <time>2023-06-09T21:15:07.357Z</time>
      </trkpt>
      <trkpt lat="47.16766" lon="0.24349">
        <ele>47.11</ele>
        <time>2023-06-09T21:15:34.774Z</time>
      </trkpt>
      <trkpt lat="47.16775" lon="0.24353">
        <ele>48.71</ele>
        <time>2023-06-09T21:16:02.192Z</time>
      </trkpt>
      <trkpt lat="47.1678" lon="0.24356">
        <ele>49.74</ele>
        <time>2023-06-09T21:16:29.611Z</time>
      </trkpt>
      <trkpt lat="47.16784" lon="0.24365">
        <ele>51.16</ele>
        <time>2023-06-09T21:16:57.031Z</time>
      </trkpt>
      <trkpt lat="47.16795" lon="0.24387">
        <ele>54.57</ele>
        <time>2023-06-09T21:17:24.454Z</time>
      </trkpt>
      <trkpt lat="47.16801" lon="0.244">
        <ele>56.84</ele>
        <time>2023-06-09T21:17:51.879Z</time>
      </trkpt>
      <trkpt lat="47.16803" lon="0.24409">
        <ele>58.17</ele>
        <time>2023-06-09T21:18:19.305Z</time>
      </trkpt>
      <trkpt lat="47.16808" lon="0.24427">
        <ele>61.13</ele>
        <time>2023-06-09T21:18:46.733Z</time>
      </trkpt>
      <trkpt lat="47.16809" lon="0.24432">
        <ele>62.04</ele>
        <time>2023-06-09T21:19:14.162Z</time>
      </trkpt>
      <trkpt lat="47.16812" lon="0.24442">
        <ele>63.42</ele>
        <time>2023-06-09T21:19:41.592Z</time>
      </trkpt>
      <trkpt lat="47.16813" lon="0.24444">
        <ele>63.75</ele>
        <time>2023-06-09T21:20:09.022Z</time>
      </trkpt>
      <trkpt lat="47.16814" lon="0.24446">
        <ele>64.07</ele>
        <time>2023-06-09T21:20:36.452Z</time>
      </trkpt>
      <trkpt lat="47.16819" lon="0.24441">
        <ele>65.37</ele>
        <time>2023-06-09T21:21:03.883Z</time>
      </trkpt>
      <trkpt lat="47.16819" lon="0.2444">
        <ele>65.37</ele>
        <time>2023-06-09T21:21:31.315Z</time>
      </trkpt>
      <trkpt lat="47.16819" lon="0.24434">
        <ele>66.14</ele>
        <time>2023-06-09T21:21:58.747Z</time>
      </trkpt>
      <trkpt lat="47.1682" lon="0.24421">
        <ele>67.59</ele>
        <time>2023-06-09T21:22:26.181Z</time>
      </trkpt>
      <trkpt lat="47.1682" lon="0.24409">
        <ele>68.96</ele>
        <time>2023-06-09T21:22:53.616Z</time>
      </trkpt>
      <trkpt lat="47.1682" lon="0.24405">
        <ele>69.19</ele>
        <time>2023-06-09T21:23:21.051Z</time>
      </trkpt>
      <trkpt lat="47.16824" lon="0.244">
        <ele>69.69</ele>
        <time>2023-06-09T21:23:48.487Z</time>
      </trkpt>
      <trkpt lat="47.16825" lon="0.24392">
        <ele>70.21</ele>
        <time>2023-06-09T21:24:15.924Z</time>
      </trkpt>
      <trkpt lat="47.16825" lon="0.24379">
        <ele>70.67</ele>
        <time>2023-06-09T21:24:43.363Z</time>
      </trkpt>
      <trkpt lat="47.16826" lon="0.24372">
        <ele>71.12</ele>
        <time>2023-06-09T21:25:10.802Z</time>
      </trkpt>
      <trkpt lat="47.16828" lon="0.2436">
        <ele>71.91</ele>
        <time>2023-06-09T21:25:38.243Z</time>
      </trkpt>
      <trkpt lat="47.16834" lon="0.24335">
        <ele>73.67</ele>
        <time>2023-06-09T21:26:05.686Z</time>
      </trkpt>
      <trkpt lat="47.16834" lon="0.24334">
        <ele>73.76</ele>
        <time>2023-06-09T21:26:33.130Z</time>
      </trkpt>
      <trkpt lat="47.16835" lon="0.24329">
        <ele>74.09</ele>
        <time>2023-06-09T21:27:00.574Z</time>
      </trkpt>
      <trkpt lat="47.16835" lon="0.24323">
        <ele>74.46</ele>
        <time>2023-06-09T21:27:28.019Z</time>
      </trkpt>
      <trkpt lat="47.16836" lon="0.24316">
        <ele>74.76</ele>
        <time>2023-06-09T21:27:55.465Z</time>
      </trkpt>
      <trkpt lat="47.16837" lon="0.2431">
        <ele>74.98</ele>
        <time>2023-06-09T21:28:22.911Z</time>
      </trkpt>
      <trkpt lat="47.16837" lon="0.24303">
        <ele>75.13</ele>
        <time>2023-06-09T21:28:50.358Z</time>
      </trkpt>
      <trkpt lat="47.16838" lon="0.24297">
        <ele>75.22</ele>
        <time>2023-06-09T21:29:17.806Z</time>
      </trkpt>
      <trkpt lat="47.16839" lon="0.24291">
        <ele>75.25</ele>
        <time>2023-06-09T21:29:45.254Z</time>
      </trkpt>
      <trkpt lat="47.16839" lon="0.24287">
        <ele>75.24</ele>
        <time>2023-06-09T21:30:12.703Z</time>
      </trkpt>
      <trkpt lat="47.16839" lon="0.24284">
        <ele>75.24</ele>
        <time>2023-06-09T21:30:40.152Z</time>
      </trkpt>
      <trkpt lat="47.16839" lon="0.24271">
        <ele>75.16</ele>
        <time>2023-06-09T21:31:07.603Z</time>
      </trkpt>
      <trkpt lat="47.16839" lon="0.24245">
        <ele>74.9</ele>
        <time>2023-06-09T21:31:35.056Z</time>
      </trkpt>
      <trkpt lat="47.16839" lon="0.2423">
        <ele>74.76</ele>
        <time>2023-06-09T21:32:02.511Z</time>
      </trkpt>
      <trkpt lat="47.1684" lon="0.2422">
        <ele>74.68</ele>
        <time>2023-06-09T21:32:29.967Z</time>
      </trkpt>
      <trkpt lat="47.1684" lon="0.24212">
        <ele>74.65</ele>
        <time>2023-06-09T21:32:57.424Z</time>
      </trkpt>
      <trkpt lat="47.16841" lon="0.24205">
        <ele>74.74</ele>
        <time>2023-06-09T21:33:24.882Z</time>
      </trkpt>
      <trkpt lat="47.16841" lon="0.242">
        <ele>74.81</ele>
        <time>2023-06-09T21:33:52.340Z</time>
      </trkpt>
      <trkpt lat="47.16839" lon="0.24181">
        <ele>75.11</ele>
        <time>2023-06-09T21:34:19.800Z</time>
      </trkpt>
      <trkpt lat="47.16839" lon="0.2418">
        <ele>75.11</ele>
        <time>2023-06-09T21:34:47.261Z</time>
      </trkpt>
      <trkpt lat="47.16838" lon="0.24176">
        <ele>75.14</ele>
        <time>2023-06-09T21:35:14.722Z</time>
      </trkpt>
      <trkpt lat="47.16836" lon="0.2417">
        <ele>75.12</ele>
        <time>2023-06-09T21:35:42.184Z</time>
      </trkpt>
      <trkpt lat="47.16835" lon="0.24168">
        <ele>75.08</ele>
        <time>2023-06-09T21:36:09.646Z</time>
      </trkpt>
      <trkpt lat="47.16835" lon="0.24164">
        <ele>75.02</ele>
        <time>2023-06-09T21:36:37.108Z</time>
      </trkpt>
      <trkpt lat="47.16835" lon="0.24158">
        <ele>74.86</ele>
        <time>2023-06-09T21:37:04.571Z</time>
      </trkpt>
      <trkpt lat="47.16835" lon="0.24152">
        <ele>74.62</ele>
        <time>2023-06-09T21:37:32.035Z</time>
      </trkpt>
      <trkpt lat="47.16835" lon="0.24145">
        <ele>74.32</ele>
        <time>2023-06-09T21:37:59.499Z</time>
      </trkpt>
      <trkpt lat="47.16835" lon="0.24139">
        <ele>73.96</ele>
        <time>2023-06-09T21:38:26.964Z</time>
      </trkpt>
      <trkpt lat="47.16834" lon="0.24108">
        <ele>71.93</ele>
        <time>2023-06-09T21:38:54.433Z</time>
      </trkpt>
      <trkpt lat="47.16834" lon="0.24102">
        <ele>71.57</ele>
        <time>2023-06-09T21:39:21.902Z</time>
      </trkpt>
      <trkpt lat="47.16834" lon="0.24096">
        <ele>71.25</ele>
        <time>2023-06-09T21:39:49.372Z</time>
      </trkpt>
      <trkpt lat="47.16834" lon="0.2409">
        <ele>70.99</ele>
        <time>2023-06-09T21:40:16.843Z</time>
      </trkpt>
      <trkpt lat="47.16834" lon="0.24087">
        <ele>70.9</ele>
        <time>2023-06-09T21:40:44.314Z</time>
      </trkpt>
      <trkpt lat="47.16833" lon="0.24084">
        <ele>70.78</ele>
        <time>2023-06-09T21:41:11.785Z</time>
      </trkpt>
      <trkpt lat="47.16831" lon="0.24079">
        <ele>70.63</ele>
        <time>2023-06-09T21:41:39.257Z</time>
      </trkpt>
      <trkpt lat="47.16829" lon="0.24073">
        <ele>70.51</ele>
        <time>2023-06-09T21:42:06.730Z</time>
      </trkpt>
      <trkpt lat="47.16824" lon="0.24062">
        <ele>70.32</ele>
        <time>2023-06-09T21:42:34.204Z</time>
      </trkpt>
      <trkpt lat="47.1682" lon="0.24038">
        <ele>69.97</ele>
        <time>2023-06-09T21:43:01.681Z</time>
      </trkpt>
      <trkpt lat="47.16818" lon="0.24026">
        <ele>70.97</ele>
        <time>2023-06-09T21:43:29.159Z</time>
      </trkpt>
      <trkpt lat="47.16815" lon="0.24014">
        <ele>71.88</ele>
        <time>2023-06-09T21:43:56.638Z</time>
      </trkpt>
      <trkpt lat="47.16813" lon="0.24">
        <ele>72.71</ele>
        <time>2023-06-09T21:44:24.119Z</time>
      </trkpt>
      <trkpt lat="47.16813" lon="0.24">
        <ele>72.71</ele>
        <time>2023-06-09T21:44:51.600Z</time>
      </trkpt>
      <trkpt lat="47.1683" lon="0.23996">
        <ele>74.29</ele>
        <time>2023-06-09T21:45:19.084Z</time>
      </trkpt>
      <trkpt lat="47.16843" lon="0.23993">
        <ele>75.42</ele>
        <time>2023-06-09T21:45:46.570Z</time>
      </trkpt>
      <trkpt lat="47.16843" lon="0.23993">
        <ele>75.42</ele>
        <time>2023-06-09T21:46:14.056Z</time>
      </trkpt>
      <trkpt lat="47.16855" lon="0.23987">
        <ele>76.48</ele>
        <time>2023-06-09T21:46:41.544Z</time>
      </trkpt>
      <trkpt lat="47.16864" lon="0.23982">
        <ele>77.15</ele>
        <time>2023-06-09T21:47:09.033Z</time>
      </trkpt>
      <trkpt lat="47.16864" lon="0.23982">
        <ele>77.15</ele>
        <time>2023-06-09T21:47:36.522Z</time>
      </trkpt>
      <trkpt lat="47.16875" lon="0.23973">
        <ele>78.04</ele>
        <time>2023-06-09T21:48:04.013Z</time>
      </trkpt>
      <trkpt lat="47.16881" lon="0.23969">
        <ele>78.23</ele>
        <time>2023-06-09T21:48:31.506Z</time>
      </trkpt>
      <trkpt lat="47.16882" lon="0.23967">
        <ele>78.29</ele>
        <time>2023-06-09T21:48:58.999Z</time>
      </trkpt>
      <trkpt lat="47.16888" lon="0.23957">
        <ele>78.58</ele>
        <time>2023-06-09T21:49:26.493Z</time>
      </trkpt>
      <trkpt lat="47.16894" lon="0.23946">
        <ele>78.97</ele>
        <time>2023-06-09T21:49:53.989Z</time>
      </trkpt>
      <trkpt lat="47.16897" lon="0.2393">
        <ele>79.44</ele>
        <time>2023-06-09T21:50:21.487Z</time>
      </trkpt>
      <trkpt lat="47.16899" lon="0.23917">
        <ele>78.84</ele>
        <time>2023-06-09T21:50:48.986Z</time>
      </trkpt>
      <trkpt lat="47.16902" lon="0.23911">
        <ele>78.5</ele>
        <time>2023-06-09T21:51:16.486Z</time>
      </trkpt>
      <trkpt lat="47.16907" lon="0.23906">
        <ele>78.1</ele>
        <time>2023-06-09T21:51:43.987Z</time>
      </trkpt>
      <trkpt lat="47.16913" lon="0.23901">
        <ele>77.53</ele>
        <time>2023-06-09T21:52:11.489Z</time>
      </trkpt>
      <trkpt lat="47.16907" lon="0.23887">
        <ele>76.6</ele>
        <time>2023-06-09T21:52:38.993Z</time>
      </trkpt>
      <trkpt lat="47.16903" lon="0.23875">
        <ele>75.85</ele>
        <time>2023-06-09T21:53:06.498Z</time>
      </trkpt>
      <trkpt lat="47.16898" lon="0.23857">
        <ele>74.77</ele>
        <time>2023-06-09T21:53:34.005Z</time>
      </trkpt>
      <trkpt lat="47.16893" lon="0.23842">
        <ele>73.9</ele>
        <time>2023-06-09T21:54:01.514Z</time>
      </trkpt>
      <trkpt lat="47.16889" lon="0.23827">
        <ele>73.05</ele>
        <time>2023-06-09T21:54:29.025Z</time>
      </trkpt>
      <trkpt lat="47.16874" lon="0.23771">
        <ele>69.9</ele>
        <time>2023-06-09T21:54:56.542Z</time>
      </trkpt>
      <trkpt lat="47.16872" lon="0.23764">
        <ele>69.46</ele>
        <time>2023-06-09T21:55:24.060Z</time>
      </trkpt>
      <trkpt lat="47.16867" lon="0.23734">
        <ele>67.72</ele>
        <time>2023-06-09T21:55:51.582Z</time>
      </trkpt>
      <trkpt lat="47.16865" lon="0.23725">
        <ele>67.24</ele>
        <time>2023-06-09T21:56:19.105Z</time>
      </trkpt>
      <trkpt lat="47.16864" lon="0.2371">
        <ele>66.44</ele>
        <time>2023-06-09T21:56:46.629Z</time>
      </trkpt>
      <trkpt lat="47.16865" lon="0.23688">
        <ele>65.25</ele>
        <time>2023-06-09T21:57:14.156Z</time>
      </trkpt>
      <trkpt lat="47.16866" lon="0.23668">
        <ele>64.22</ele>
        <time>2023-06-09T21:57:41.685Z</time>
      </trkpt>
      <trkpt lat="47.16867" lon="0.23658">
        <ele>63.72</ele>
        <time>2023-06-09T21:58:09.215Z</time>
      </trkpt>
      <trkpt lat="47.16873" lon="0.23623">
        <ele>61.9</ele>
        <time>2023-06-09T21:58:36.749Z</time>
      </trkpt>
      <trkpt lat="47.16875" lon="0.2361">
        <ele>61.91</ele>
        <time>2023-06-09T21:59:04.284Z</time>
      </trkpt>
      <trkpt lat="47.16876" lon="0.23606">
        <ele>61.92</ele>
        <time>2023-06-09T21:59:31.820Z</time>
      </trkpt>
      <trkpt lat="47.16889" lon="0.23572">
        <ele>59.76</ele>
        <time>2023-06-09T21:59:59.360Z</time>
      </trkpt>
      <trkpt lat="47.16901" lon="0.23553">
        <ele>58.33</ele>
        <time>2023-06-09T22:00:26.903Z</time>
      </trkpt>
      <trkpt lat="47.16919" lon="0.23524">
        <ele>56.29</ele>
        <time>2023-06-09T22:00:54.450Z</time>
      </trkpt>
      <trkpt lat="47.1692" lon="0.23522">
        <ele>56.14</ele>
        <time>2023-06-09T22:01:21.998Z</time>
      </trkpt>
      <trkpt lat="47.16929" lon="0.23495">
        <ele>54.64</ele>
        <time>2023-06-09T22:01:49.549Z</time>
      </trkpt>
      <trkpt lat="47.16936" lon="0.23472">
        <ele>53.26</ele>
        <time>2023-06-09T22:02:17.103Z</time>
      </trkpt>
      <trkpt lat="47.1694" lon="0.23461">
        <ele>52.62</ele>
        <time>2023-06-09T22:02:44.658Z</time>
      </trkpt>
      <trkpt lat="47.16941" lon="0.23441">
        <ele>51.58</ele>
        <time>2023-06-09T22:03:12.215Z</time>
      </trkpt>
      <trkpt lat="47.16942" lon="0.23432">
        <ele>51.1</ele>
        <time>2023-06-09T22:03:39.773Z</time>
      </trkpt>
      <trkpt lat="47.16942" lon="0.23428">
        <ele>50.89</ele>
        <time>2023-06-09T22:04:07.332Z</time>
      </trkpt>
      <trkpt lat="47.1694" lon="0.23415">
        <ele>50.16</ele>
        <time>2023-06-09T22:04:34.892Z</time>
      </trkpt>
      <trkpt lat="47.16938" lon="0.2339">
        <ele>48.67</ele>
        <time>2023-06-09T22:05:02.455Z</time>
      </trkpt>
      <trkpt lat="47.16936" lon="0.23384">
        <ele>48.27</ele>
        <time>2023-06-09T22:05:30.018Z</time>
      </trkpt>
      <trkpt lat="47.16931" lon="0.2337">
        <ele>47.39</ele>
        <time>2023-06-09T22:05:57.583Z</time>
      </trkpt>
      <trkpt lat="47.16911" lon="0.23348">
        <ele>45.3</ele>
        <time>2023-06-09T22:06:25.152Z</time>
      </trkpt>
      <trkpt lat="47.16907" lon="0.23345">
        <ele>44.96</ele>
        <time>2023-06-09T22:06:52.722Z</time>
      </trkpt>
      <trkpt lat="47.16892" lon="0.23334">
        <ele>44.62</ele>
        <time>2023-06-09T22:07:20.295Z</time>
      </trkpt>
      <trkpt lat="47.16888" lon="0.23331">
        <ele>44.58</ele>
        <time>2023-06-09T22:07:47.868Z</time>
      </trkpt>
      <trkpt lat="47.16883" lon="0.23328">
        <ele>44.12</ele>
        <time>2023-06-09T22:08:15.442Z</time>
      </trkpt>
      <trkpt lat="47.16867" lon="0.2332">
        <ele>42.7</ele>
        <time>2023-06-09T22:08:43.019Z</time>
      </trkpt>
      <trkpt lat="47.1685" lon="0.23312">
        <ele>41.24</ele>
        <time>2023-06-09T22:09:10.599Z</time>
      </trkpt>
      <trkpt lat="47.16842" lon="0.23308">
        <ele>40.56</ele>
        <time>2023-06-09T22:09:38.180Z</time>
      </trkpt>
      <trkpt lat="47.1683" lon="0.23301">
        <ele>39.63</ele>
        <time>2023-06-09T22:10:05.763Z</time>
      </trkpt>
      <trkpt lat="47.16821" lon="0.23297">
        <ele>39.51</ele>
        <time>2023-06-09T22:10:33.348Z</time>
      </trkpt>
      <trkpt lat="47.16821" lon="0.23297">
        <ele>39.51</ele>
        <time>2023-06-09T22:11:00.933Z</time>
      </trkpt>
      <trkpt lat="47.16812" lon="0.23295">
        <ele>39.34</ele>
        <time>2023-06-09T22:11:28.519Z</time>
      </trkpt>
      <trkpt lat="47.16805" lon="0.23296">
        <ele>39.23</ele>
        <time>2023-06-09T22:11:56.106Z</time>
      </trkpt>
      <trkpt lat="47.16803" lon="0.23296">
        <ele>39.16</ele>
        <time>2023-06-09T22:12:23.694Z</time>
      </trkpt>
      <trkpt lat="47.16797" lon="0.233">
        <ele>39</ele>
        <time>2023-06-09T22:12:51.283Z</time>
      </trkpt>
      <trkpt lat="47.16788" lon="0.23311">
        <ele>38.7</ele>
        <time>2023-06-09T22:13:18.873Z</time>
      </trkpt>
      <trkpt lat="47.16771" lon="0.23333">
        <ele>37.73</ele>
        <time>2023-06-09T22:13:46.467Z</time>
      </trkpt>
      <trkpt lat="47.16768" lon="0.23337">
        <ele>37.63</ele>
        <time>2023-06-09T22:14:14.062Z</time>
      </trkpt>
      <trkpt lat="47.16764" lon="0.2334">
        <ele>37.54</ele>
        <time>2023-06-09T22:14:41.657Z</time>
      </trkpt>
      <trkpt lat="47.16761" lon="0.23343">
        <ele>37.42</ele>
        <time>2023-06-09T22:15:09.253Z</time>
      </trkpt>
      <trkpt lat="47.16754" lon="0.2335">
        <ele>37.11</ele>
        <time>2023-06-09T22:15:36.850Z</time>
      </trkpt>
      <trkpt lat="47.16749" lon="0.23354">
        <ele>36.87</ele>
        <time>2023-06-09T22:16:04.448Z</time>
      </trkpt>
      <trkpt lat="47.16745" lon="0.23355">
        <ele>36.72</ele>
        <time>2023-06-09T22:16:32.047Z</time>
      </trkpt>
      <trkpt lat="47.16745" lon="0.23356">
        <ele>36.75</ele>
        <time>2023-06-09T22:16:59.646Z</time>
      </trkpt>
      <trkpt lat="47.16737" lon="0.23358">
        <ele>36.44</ele>
        <time>2023-06-09T22:17:27.246Z</time>
      </trkpt>
      <trkpt lat="47.16724" lon="0.23363">
        <ele>36.95</ele>
        <time>2023-06-09T22:17:54.848Z</time>
      </trkpt>
      <trkpt lat="47.16719" lon="0.23365">
        <ele>37.16</ele>
        <time>2023-06-09T22:18:22.451Z</time>
      </trkpt>
      <trkpt lat="47.16722" lon="0.23371">
        <ele>37.38</ele>
        <time>2023-06-09T22:18:50.055Z</time>
      </trkpt>
      <trkpt lat="47.16721" lon="0.23376">
        <ele>37.54</ele>
        <time>2023-06-09T22:19:17.660Z</time>
      </trkpt>
      <trkpt lat="47.16742" lon="0.23362">
        <ele>38.54</ele>
        <time>2023-06-09T22:19:45.268Z</time>
      </trkpt>
      <trkpt lat="47.16745" lon="0.23359">
        <ele>38.7</ele>
        <time>2023-06-09T22:20:12.877Z</time>
      </trkpt>
      <trkpt lat="47.16762" lon="0.23343">
        <ele>39.23</ele>
        <time>2023-06-09T22:20:40.489Z</time>
      </trkpt>
      <trkpt lat="47.16768" lon="0.23337">
        <ele>39.34</ele>
        <time>2023-06-09T22:21:08.102Z</time>
      </trkpt>
      <trkpt lat="47.16775" lon="0.23328">
        <ele>39.51</ele>
        <time>2023-06-09T22:21:35.717Z</time>
      </trkpt>
      <trkpt lat="47.16782" lon="0.2332">
        <ele>39.63</ele>
        <time>2023-06-09T22:22:03.333Z</time>
      </trkpt>
      <trkpt lat="47.16792" lon="0.23307">
        <ele>40.56</ele>
        <time>2023-06-09T22:22:30.951Z</time>
      </trkpt>
      <trkpt lat="47.16797" lon="0.233">
        <ele>41.11</ele>
        <time>2023-06-09T22:22:58.570Z</time>
      </trkpt>
      <trkpt lat="47.16798" lon="0.23299">
        <ele>41.24</ele>
        <time>2023-06-09T22:23:26.190Z</time>
      </trkpt>
      <trkpt lat="47.16803" lon="0.23296">
        <ele>41.65</ele>
        <time>2023-06-09T22:23:53.811Z</time>
      </trkpt>
      <trkpt lat="47.16812" lon="0.23295">
        <ele>42.4</ele>
        <time>2023-06-09T22:24:21.433Z</time>
      </trkpt>
      <trkpt lat="47.16816" lon="0.23296">
        <ele>42.7</ele>
        <time>2023-06-09T22:24:49.056Z</time>
      </trkpt>
      <trkpt lat="47.16821" lon="0.23297">
        <ele>43.16</ele>
        <time>2023-06-09T22:25:16.679Z</time>
      </trkpt>
      <trkpt lat="47.16837" lon="0.23305">
        <ele>44.58</ele>
        <time>2023-06-09T22:25:44.305Z</time>
      </trkpt>
      <trkpt lat="47.16841" lon="0.23307">
        <ele>44.62</ele>
        <time>2023-06-09T22:26:11.932Z</time>
      </trkpt>
      <trkpt lat="47.16857" lon="0.23315">
        <ele>44.96</ele>
        <time>2023-06-09T22:26:39.562Z</time>
      </trkpt>
      <trkpt lat="47.1687" lon="0.23321">
        <ele>45.91</ele>
        <time>2023-06-09T22:27:07.194Z</time>
      </trkpt>
      <trkpt lat="47.16883" lon="0.23328">
        <ele>46.95</ele>
        <time>2023-06-09T22:27:34.828Z</time>
      </trkpt>
      <trkpt lat="47.16891" lon="0.23324">
        <ele>47.57</ele>
        <time>2023-06-09T22:28:02.463Z</time>
      </trkpt>
      <trkpt lat="47.16893" lon="0.23323">
        <ele>47.72</ele>
        <time>2023-06-09T22:28:30.099Z</time>
      </trkpt>
      <trkpt lat="47.16904" lon="0.23313">
        <ele>48.61</ele>
        <time>2023-06-09T22:28:57.737Z</time>
      </trkpt>
      <trkpt lat="47.1691" lon="0.23299">
        <ele>49.37</ele>
        <time>2023-06-09T22:29:25.376Z</time>
      </trkpt>
      <trkpt lat="47.1692" lon="0.23275">
        <ele>50.79</ele>
        <time>2023-06-09T22:29:53.019Z</time>
      </trkpt>
      <trkpt lat="47.16921" lon="0.23273">
        <ele>50.9</ele>
        <time>2023-06-09T22:30:20.662Z</time>
      </trkpt>
      <trkpt lat="47.16929" lon="0.23258">
        <ele>52.13</ele>
        <time>2023-06-09T22:30:48.307Z</time>
      </trkpt>
      <trkpt lat="47.16938" lon="0.23241">
        <ele>53.56</ele>
        <time>2023-06-09T22:31:15.954Z</time>
      </trkpt>
      <trkpt lat="47.16943" lon="0.23234">
        <ele>54.26</ele>
        <time>2023-06-09T22:31:43.602Z</time>
      </trkpt>
      <trkpt lat="47.1695" lon="0.23226">
        <ele>55.09</ele>
        <time>2023-06-09T22:32:11.252Z</time>
      </trkpt>
      <trkpt lat="47.16966" lon="0.23205">
        <ele>57.03</ele>
        <time>2023-06-09T22:32:38.905Z</time>
      </trkpt>
      <trkpt lat="47.16974" lon="0.23189">
        <ele>58.27</ele>
        <time>2023-06-09T22:33:06.560Z</time>
      </trkpt>
      <trkpt lat="47.16978" lon="0.23182">
        <ele>58.41</ele>
        <time>2023-06-09T22:33:34.216Z</time>
      </trkpt>
      <trkpt lat="47.16978" lon="0.23182">
        <ele>58.41</ele>
        <time>2023-06-09T22:34:01.872Z</time>
      </trkpt>
      <trkpt lat="47.16978" lon="0.23179">
        <ele>58.49</ele>
        <time>2023-06-09T22:34:29.529Z</time>
      </trkpt>
      <trkpt lat="47.16982" lon="0.23153">
        <ele>59.99</ele>
        <time>2023-06-09T22:34:57.189Z</time>
      </trkpt>
      <trkpt lat="47.16984" lon="0.23141">
        <ele>60.77</ele>
        <time>2023-06-09T22:35:24.850Z</time>
      </trkpt>
      <trkpt lat="47.16984" lon="0.23139">
        <ele>60.88</ele>
        <time>2023-06-09T22:35:52.511Z</time>
      </trkpt>
      <trkpt lat="47.16988" lon="0.23125">
        <ele>61.87</ele>
        <time>2023-06-09T22:36:20.174Z</time>
      </trkpt>
      <trkpt lat="47.16992" lon="0.23116">
        <ele>62.58</ele>
        <time>2023-06-09T22:36:47.838Z</time>
      </trkpt>
      <trkpt lat="47.16998" lon="0.2311">
        <ele>63.3</ele>
        <time>2023-06-09T22:37:15.503Z</time>
      </trkpt>
      <trkpt lat="47.17009" lon="0.23099">
        <ele>64.53</ele>
        <time>2023-06-09T22:37:43.170Z</time>
      </trkpt>
      <trkpt lat="47.17014" lon="0.23094">
        <ele>65.05</ele>
        <time>2023-06-09T22:38:10.838Z</time>
      </trkpt>
      <trkpt lat="47.17021" lon="0.2309">
        <ele>65.71</ele>
        <time>2023-06-09T22:38:38.507Z</time>
      </trkpt>
      <trkpt lat="47.17029" lon="0.23085">
        <ele>66.46</ele>
        <time>2023-06-09T22:39:06.178Z</time>
      </trkpt>
      <trkpt lat="47.17034" lon="0.23081">
        <ele>66.95</ele>
        <time>2023-06-09T22:39:33.850Z</time>
      </trkpt>
      <trkpt lat="47.17041" lon="0.23078">
        <ele>67.56</ele>
        <time>2023-06-09T22:40:01.523Z</time>
      </trkpt>
      <trkpt lat="47.1707" lon="0.23064">
        <ele>70</ele>
        <time>2023-06-09T22:40:29.201Z</time>
      </trkpt>
      <trkpt lat="47.17075" lon="0.23062">
        <ele>70.92</ele>
        <time>2023-06-09T22:40:56.880Z</time>
      </trkpt>
      <trkpt lat="47.17079" lon="0.2306">
        <ele>71.76</ele>
        <time>2023-06-09T22:41:24.559Z</time>
      </trkpt>
      <trkpt lat="47.17083" lon="0.23058">
        <ele>72.51</ele>
        <time>2023-06-09T22:41:52.239Z</time>
      </trkpt>
      <trkpt lat="47.17088" lon="0.23056">
        <ele>73.19</ele>
        <time>2023-06-09T22:42:19.920Z</time>
      </trkpt>
      <trkpt lat="47.17092" lon="0.23054">
        <ele>73.81</ele>
        <time>2023-06-09T22:42:47.601Z</time>
      </trkpt>
      <trkpt lat="47.17097" lon="0.23052">
        <ele>74.39</ele>
        <time>2023-06-09T22:43:15.283Z</time>
      </trkpt>
      <trkpt lat="47.17097" lon="0.23052">
        <ele>74.39</ele>
        <time>2023-06-09T22:43:42.965Z</time>
      </trkpt>
      <trkpt lat="47.17095" lon="0.23047">
        <ele>74.9</ele>
        <time>2023-06-09T22:44:10.648Z</time>
      </trkpt>
      <trkpt lat="47.17093" lon="0.23042">
        <ele>75.35</ele>
        <time>2023-06-09T22:44:38.332Z</time>
      </trkpt>
      <trkpt lat="47.17091" lon="0.23036">
        <ele>75.74</ele>
        <time>2023-06-09T22:45:06.016Z</time>
      </trkpt>
      <trkpt lat="47.17089" lon="0.2303">
        <ele>76.09</ele>
        <time>2023-06-09T22:45:33.701Z</time>
      </trkpt>
      <trkpt lat="47.17087" lon="0.23024">
        <ele>76.4</ele>
        <time>2023-06-09T22:46:01.387Z</time>
      </trkpt>
      <trkpt lat="47.17083" lon="0.23013">
        <ele>76.96</ele>
        <time>2023-06-09T22:46:29.074Z</time>
      </trkpt>
      <trkpt lat="47.17078" lon="0.23001">
        <ele>77.46</ele>
        <time>2023-06-09T22:46:56.763Z</time>
      </trkpt>
      <trkpt lat="47.17076" lon="0.22995">
        <ele>77.68</ele>
        <time>2023-06-09T22:47:24.452Z</time>
      </trkpt>
      <trkpt lat="47.17072" lon="0.22983">
        <ele>78.05</ele>
        <time>2023-06-09T22:47:52.143Z</time>
      </trkpt>
      <trkpt lat="47.17071" lon="0.22981">
        <ele>78.11</ele>
        <time>2023-06-09T22:48:19.834Z</time>
      </trkpt>
      <trkpt lat="47.17074" lon="0.22972">
        <ele>78.37</ele>
        <time>2023-06-09T22:48:47.526Z</time>
      </trkpt>
      <trkpt lat="47.1708" lon="0.22954">
        <ele>78.81</ele>
        <time>2023-06-09T22:49:15.220Z</time>
      </trkpt>
      <trkpt lat="47.17083" lon="0.22946">
        <ele>79.02</ele>
        <time>2023-06-09T22:49:42.915Z</time>
      </trkpt>
      <trkpt lat="47.17084" lon="0.22942">
        <ele>79.13</ele>
        <time>2023-06-09T22:50:10.611Z</time>
      </trkpt>
      <trkpt lat="47.17086" lon="0.22936">
        <ele>79.26</ele>
        <time>2023-06-09T22:50:38.308Z</time>
      </trkpt>
      <trkpt lat="47.17087" lon="0.2293">
        <ele>79.36</ele>
        <time>2023-06-09T22:51:06.005Z</time>
      </trkpt>
      <trkpt lat="47.17094" lon="0.22905">
        <ele>79.61</ele>
        <time>2023-06-09T22:51:33.705Z</time>
      </trkpt>
      <trkpt lat="47.17097" lon="0.22893">
        <ele>79.78</ele>
        <time>2023-06-09T22:52:01.407Z</time>
      </trkpt>
      <trkpt lat="47.17104" lon="0.22868">
        <ele>80.27</ele>
        <time>2023-06-09T22:52:29.112Z</time>
      </trkpt>
      <trkpt lat="47.17113" lon="0.22838">
        <ele>80.78</ele>
        <time>2023-06-09T22:52:56.820Z</time>
      </trkpt>
      <trkpt lat="47.17126" lon="0.22789">
        <ele>81.78</ele>
        <time>2023-06-09T22:53:24.534Z</time>
      </trkpt>
      <trkpt lat="47.17129" lon="0.22777">
        <ele>81.96</ele>
        <time>2023-06-09T22:53:52.249Z</time>
      </trkpt>
      <trkpt lat="47.17131" lon="0.2277">
        <ele>82.01</ele>
        <time>2023-06-09T22:54:19.965Z</time>
      </trkpt>
      <trkpt lat="47.17134" lon="0.22759">
        <ele>82.07</ele>
        <time>2023-06-09T22:54:47.682Z</time>
      </trkpt>
      <trkpt lat="47.17134" lon="0.22758">
        <ele>82.07</ele>
        <time>2023-06-09T22:55:15.400Z</time>
      </trkpt>
      <trkpt lat="47.17135" lon="0.22752">
        <ele>82.08</ele>
        <time>2023-06-09T22:55:43.118Z</time>
      </trkpt>
      <trkpt lat="47.17136" lon="0.22739">
        <ele>82.05</ele>
        <time>2023-06-09T22:56:10.838Z</time>
      </trkpt>
      <trkpt lat="47.17139" lon="0.22718">
        <ele>81.93</ele>
        <time>2023-06-09T22:56:38.560Z</time>
      </trkpt>
      <trkpt lat="47.1714" lon="0.22713">
        <ele>81.9</ele>
        <time>2023-06-09T22:57:06.283Z</time>
      </trkpt>
      <trkpt lat="47.17149" lon="0.22682">
        <ele>81.6</ele>
        <time>2023-06-09T22:57:34.009Z</time>
      </trkpt>
      <trkpt lat="47.17154" lon="0.22664">
        <ele>81.47</ele>
        <time>2023-06-09T22:58:01.737Z</time>
      </trkpt>
      <trkpt lat="47.17161" lon="0.22639">
        <ele>81.36</ele>
        <time>2023-06-09T22:58:29.468Z</time>
      </trkpt>
      <trkpt lat="47.17169" lon="0.22609">
        <ele>81.27</ele>
        <time>2023-06-09T22:58:57.203Z</time>
      </trkpt>
      <trkpt lat="47.17174" lon="0.2259">
        <ele>81.14</ele>
        <time>2023-06-09T22:59:24.940Z</time>
      </trkpt>
      <trkpt lat="47.17176" lon="0.22584">
        <ele>81.07</ele>
        <time>2023-06-09T22:59:52.678Z</time>
      </trkpt>
      <trkpt lat="47.1718" lon="0.22569">
        <ele>80.8</ele>
        <time>2023-06-09T23:00:20.417Z</time>
      </trkpt>
      <trkpt lat="47.17183" lon="0.2256">
        <ele>80.64</ele>
        <time>2023-06-09T23:00:48.158Z</time>
      </trkpt>
      <trkpt lat="47.1719" lon="0.22543">
        <ele>80.23</ele>
        <time>2023-06-09T23:01:15.901Z</time>
      </trkpt>
      <trkpt lat="47.17192" lon="0.22537">
        <ele>80.11</ele>
        <time>2023-06-09T23:01:43.644Z</time>
      </trkpt>
      <trkpt lat="47.17194" lon="0.22531">
        <ele>80.02</ele>
        <time>2023-06-09T23:02:11.388Z</time>
      </trkpt>
      <trkpt lat="47.17199" lon="0.2252">
        <ele>79.9</ele>
        <time>2023-06-09T23:02:39.134Z</time>
      </trkpt>
      <trkpt lat="47.17203" lon="0.22509">
        <ele>80.8</ele>
        <time>2023-06-09T23:03:06.881Z</time>
      </trkpt>
      <trkpt lat="47.17205" lon="0.22503">
        <ele>81.2</ele>
        <time>2023-06-09T23:03:34.629Z</time>
      </trkpt>
      <trkpt lat="47.17207" lon="0.22497">
        <ele>81.53</ele>
        <time>2023-06-09T23:04:02.377Z</time>
      </trkpt>
      <trkpt lat="47.17209" lon="0.22492">
        <ele>81.79</ele>
        <time>2023-06-09T23:04:30.126Z</time>
      </trkpt>
      <trkpt lat="47.17212" lon="0.22485">
        <ele>82.01</ele>
        <time>2023-06-09T23:04:57.876Z</time>
      </trkpt>
      <trkpt lat="47.17212" lon="0.22485">
        <ele>82.01</ele>
        <time>2023-06-09T23:05:25.626Z</time>
      </trkpt>
      <trkpt lat="47.17208" lon="0.2248">
        <ele>82.24</ele>
        <time>2023-06-09T23:05:53.377Z</time>
      </trkpt>
      <trkpt lat="47.17205" lon="0.22479">
        <ele>82.36</ele>
        <time>2023-06-09T23:06:21.128Z</time>
      </trkpt>
      <trkpt lat="47.17197" lon="0.22476">
        <ele>82.66</ele>
        <time>2023-06-09T23:06:48.881Z</time>
      </trkpt>
      <trkpt lat="47.17188" lon="0.22474">
        <ele>82.92</ele>
        <time>2023-06-09T23:07:16.635Z</time>
      </trkpt>
      <trkpt lat="47.17183" lon="0.22472">
        <ele>83.02</ele>
        <time>2023-06-09T23:07:44.390Z</time>
      </trkpt>
      <trkpt lat="47.17179" lon="0.2247">
        <ele>83.1</ele>
        <time>2023-06-09T23:08:12.146Z</time>
      </trkpt>
      <trkpt lat="47.17171" lon="0.22465">
        <ele>83.16</ele>
        <time>2023-06-09T23:08:39.903Z</time>
      </trkpt>
      <trkpt lat="47.17163" lon="0.2246">
        <ele>83.12</ele>
        <time>2023-06-09T23:09:07.661Z</time>
      </trkpt>
      <trkpt lat="47.17155" lon="0.22455">
        <ele>83</ele>
        <time>2023-06-09T23:09:35.421Z</time>
      </trkpt>
      <trkpt lat="47.17147" lon="0.2245">
        <ele>82.78</ele>
        <time>2023-06-09T23:10:03.182Z</time>
      </trkpt>
      <trkpt lat="47.17143" lon="0.22447">
        <ele>82.62</ele>
        <time>2023-06-09T23:10:30.944Z</time>
      </trkpt>
      <trkpt lat="47.17138" lon="0.22445">
        <ele>82.44</ele>
        <time>2023-06-09T23:10:58.707Z</time>
      </trkpt>
      <trkpt lat="47.17122" lon="0.22435">
        <ele>81.58</ele>
        <time>2023-06-09T23:11:26.472Z</time>
      </trkpt>
      <trkpt lat="47.17119" lon="0.22433">
        <ele>81.39</ele>
        <time>2023-06-09T23:11:54.238Z</time>
      </trkpt>
      <trkpt lat="47.17118" lon="0.22432">
        <ele>81.34</ele>
        <time>2023-06-09T23:12:22.004Z</time>
      </trkpt>
      <trkpt lat="47.17114" lon="0.22429">
        <ele>81.07</ele>
        <time>2023-06-09T23:12:49.771Z</time>
      </trkpt>
      <trkpt lat="47.1711" lon="0.22427">
        <ele>80.77</ele>
        <time>2023-06-09T23:13:17.539Z</time>
      </trkpt>
      <trkpt lat="47.17106" lon="0.22424">
        <ele>80.4</ele>
        <time>2023-06-09T23:13:45.307Z</time>
      </trkpt>
      <trkpt lat="47.17102" lon="0.22421">
        <ele>79.97</ele>
        <time>2023-06-09T23:14:13.076Z</time>
      </trkpt>
      <trkpt lat="47.17098" lon="0.22418">
        <ele>79.49</ele>
        <time>2023-06-09T23:14:40.846Z</time>
      </trkpt>
      <trkpt lat="47.17082" lon="0.22406">
        <ele>77.29</ele>
        <time>2023-06-09T23:15:08.619Z</time>
      </trkpt>
      <trkpt lat="47.17075" lon="0.22401">
        <ele>76.31</ele>
        <time>2023-06-09T23:15:36.393Z</time>
      </trkpt>
      <trkpt lat="47.17063" lon="0.2239">
        <ele>74.65</ele>
        <time>2023-06-09T23:16:04.169Z</time>
      </trkpt>
      <trkpt lat="47.17056" lon="0.22383">
        <ele>73.65</ele>
        <time>2023-06-09T23:16:31.947Z</time>
      </trkpt>
      <trkpt lat="47.17045" lon="0.22372">
        <ele>72.28</ele>
        <time>2023-06-09T23:16:59.727Z</time>
      </trkpt>
      <trkpt lat="47.1704" lon="0.22368">
        <ele>71.73</ele>
        <time>2023-06-09T23:17:27.508Z</time>
      </trkpt>
      <trkpt lat="47.17031" lon="0.22358">
        <ele>70.6</ele>
        <time>2023-06-09T23:17:55.290Z</time>
      </trkpt>
      <trkpt lat="47.17023" lon="0.2235">
        <ele>69.84</ele>
        <time>2023-06-09T23:18:23.074Z</time>
      </trkpt>
      <trkpt lat="47.1702" lon="0.22346">
        <ele>69.49</ele>
        <time>2023-06-09T23:18:50.859Z</time>
      </trkpt>
      <trkpt lat="47.17013" lon="0.22339">
        <ele>68.83</ele>
        <time>2023-06-09T23:19:18.645Z</time>
      </trkpt>
      <trkpt lat="47.17012" lon="0.22338">
        <ele>68.75</ele>
        <time>2023-06-09T23:19:46.431Z</time>
      </trkpt>
      <trkpt lat="47.17006" lon="0.22336">
        <ele>68.33</ele>
        <time>2023-06-09T23:20:14.218Z</time>
      </trkpt>
      <trkpt lat="47.17002" lon="0.22339">
        <ele>68.02</ele>
        <time>2023-06-09T23:20:42.006Z</time>
      </trkpt>
      <trkpt lat="47.17001" lon="0.2234">
        <ele>67.93</ele>
        <time>2023-06-09T23:21:09.794Z</time>
      </trkpt>
      <trkpt lat="47.16994" lon="0.22349">
        <ele>67.38</ele>
        <time>2023-06-09T23:21:37.583Z</time>
      </trkpt>
      <trkpt lat="47.16991" lon="0.22353">
        <ele>67.14</ele>
        <time>2023-06-09T23:22:05.373Z</time>
      </trkpt>
      <trkpt lat="47.16984" lon="0.22361">
        <ele>66.69</ele>
        <time>2023-06-09T23:22:33.165Z</time>
      </trkpt>
      <trkpt lat="47.16981" lon="0.22364">
        <ele>66.41</ele>
        <time>2023-06-09T23:23:00.957Z</time>
      </trkpt>
      <trkpt lat="47.16974" lon="0.22373">
        <ele>66.28</ele>
        <time>2023-06-09T23:23:28.751Z</time>
      </trkpt>
      <trkpt lat="47.16967" lon="0.22381">
        <ele>66.18</ele>
        <time>2023-06-09T23:23:56.546Z</time>
      </trkpt>
      <trkpt lat="47.16962" lon="0.22387">
        <ele>66.14</ele>
        <time>2023-06-09T23:24:24.342Z</time>
      </trkpt>
      <trkpt lat="47.1696" lon="0.22386">
        <ele>66.13</ele>
        <time>2023-06-09T23:24:52.138Z</time>
      </trkpt>
      <trkpt lat="47.16958" lon="0.22385">
        <ele>66.13</ele>
        <time>2023-06-09T23:25:19.935Z</time>
      </trkpt>
      <trkpt lat="47.16959" lon="0.22381">
        <ele>66.13</ele>
        <time>2023-06-09T23:25:47.732Z</time>
      </trkpt>
      <trkpt lat="47.16961" lon="0.22368">
        <ele>66.16</ele>
        <time>2023-06-09T23:26:15.531Z</time>
      </trkpt>
      <trkpt lat="47.16965" lon="0.22349">
        <ele>66.24</ele>
        <time>2023-06-09T23:26:43.332Z</time>
      </trkpt>
      <trkpt lat="47.16967" lon="0.22337">
        <ele>66.32</ele>
        <time>2023-06-09T23:27:11.134Z</time>
      </trkpt>
      <trkpt lat="47.1697" lon="0.22323">
        <ele>66.44</ele>
        <time>2023-06-09T23:27:38.938Z</time>
      </trkpt>
      <trkpt lat="47.1697" lon="0.22323">
        <ele>66.44</ele>
        <time>2023-06-09T23:28:06.742Z</time>
      </trkpt>
      <trkpt lat="47.16972" lon="0.22311">
        <ele>66.61</ele>
        <time>2023-06-09T23:28:34.547Z</time>
      </trkpt>
      <trkpt lat="47.16974" lon="0.22291">
        <ele>67.02</ele>
        <time>2023-06-09T23:29:02.354Z</time>
      </trkpt>
      <trkpt lat="47.16976" lon="0.22279">
        <ele>67.36</ele>
        <time>2023-06-09T23:29:30.163Z</time>
      </trkpt>
      <trkpt lat="47.16981" lon="0.2224">
        <ele>68.56</ele>
        <time>2023-06-09T23:29:57.976Z</time>
      </trkpt>
      <trkpt lat="47.16982" lon="0.22228">
        <ele>68.84</ele>
        <time>2023-06-09T23:30:25.790Z</time>
      </trkpt>
      <trkpt lat="47.16982" lon="0.22227">
        <ele>68.88</ele>
        <time>2023-06-09T23:30:53.604Z</time>
      </trkpt>
      <trkpt lat="47.16986" lon="0.22215">
        <ele>69.11</ele>
        <time>2023-06-09T23:31:21.420Z</time>
      </trkpt>
      <trkpt lat="47.16991" lon="0.22196">
        <ele>69.29</ele>
        <time>2023-06-09T23:31:49.238Z</time>
      </trkpt>
      <trkpt lat="47.16993" lon="0.2219">
        <ele>69.31</ele>
        <time>2023-06-09T23:32:17.057Z</time>
      </trkpt>
      <trkpt lat="47.16994" lon="0.22184">
        <ele>69.3</ele>
        <time>2023-06-09T23:32:44.877Z</time>
      </trkpt>
      <trkpt lat="47.16998" lon="0.22172">
        <ele>69.23</ele>
        <time>2023-06-09T23:33:12.698Z</time>
      </trkpt>
      <trkpt lat="47.17001" lon="0.2216">
        <ele>69.12</ele>
        <time>2023-06-09T23:33:40.520Z</time>
      </trkpt>
      <trkpt lat="47.17008" lon="0.22135">
        <ele>68.83</ele>
        <time>2023-06-09T23:34:08.345Z</time>
      </trkpt>
      <trkpt lat="47.17011" lon="0.22123">
        <ele>68.71</ele>
        <time>2023-06-09T23:34:36.172Z</time>
      </trkpt>
      <trkpt lat="47.1702" lon="0.22092">
        <ele>68.46</ele>
        <time>2023-06-09T23:35:04.002Z</time>
      </trkpt>
      <trkpt lat="47.1703" lon="0.22056">
        <ele>68.23</ele>
        <time>2023-06-09T23:35:31.837Z</time>
      </trkpt>
      <trkpt lat="47.17037" lon="0.22031">
        <ele>67.99</ele>
        <time>2023-06-09T23:35:59.675Z</time>
      </trkpt>
      <trkpt lat="47.17044" lon="0.22007">
        <ele>67.69</ele>
        <time>2023-06-09T23:36:27.515Z</time>
      </trkpt>
      <trkpt lat="47.17049" lon="0.21989">
        <ele>67.42</ele>
        <time>2023-06-09T23:36:55.358Z</time>
      </trkpt>
      <trkpt lat="47.17053" lon="0.21976">
        <ele>67.23</ele>
        <time>2023-06-09T23:37:23.202Z</time>
      </trkpt>
      <trkpt lat="47.17055" lon="0.21968">
        <ele>67.07</ele>
        <time>2023-06-09T23:37:51.047Z</time>
      </trkpt>
      <trkpt lat="47.17061" lon="0.21953">
        <ele>66.78</ele>
        <time>2023-06-09T23:38:18.894Z</time>
      </trkpt>
      <trkpt lat="47.17068" lon="0.21936">
        <ele>66.5</ele>
        <time>2023-06-09T23:38:46.743Z</time>
      </trkpt>
      <trkpt lat="47.17088" lon="0.21885">
        <ele>65.83</ele>
        <time>2023-06-09T23:39:14.599Z</time>
      </trkpt>
      <trkpt lat="47.17097" lon="0.21862">
        <ele>65.61</ele>
        <time>2023-06-09T23:39:42.457Z</time>
      </trkpt>
      <trkpt lat="47.17102" lon="0.21851">
        <ele>65.46</ele>
        <time>2023-06-09T23:40:10.317Z</time>
      </trkpt>
      <trkpt lat="47.17106" lon="0.21841">
        <ele>65.28</ele>
        <time>2023-06-09T23:40:38.178Z</time>
      </trkpt>
      <trkpt lat="47.17112" lon="0.21826">
        <ele>64.99</ele>
        <time>2023-06-09T23:41:06.041Z</time>
      </trkpt>
      <trkpt lat="47.17116" lon="0.21812">
        <ele>64.74</ele>
        <time>2023-06-09T23:41:33.906Z</time>
      </trkpt>
      <trkpt lat="47.17119" lon="0.218">
        <ele>64.5</ele>
        <time>2023-06-09T23:42:01.772Z</time>
      </trkpt>
      <trkpt lat="47.17122" lon="0.21788">
        <ele>64.2</ele>
        <time>2023-06-09T23:42:29.639Z</time>
      </trkpt>
      <trkpt lat="47.17129" lon="0.21758">
        <ele>63.36</ele>
        <time>2023-06-09T23:42:57.510Z</time>
      </trkpt>
      <trkpt lat="47.17137" lon="0.21728">
        <ele>62.56</ele>
        <time>2023-06-09T23:43:25.384Z</time>
      </trkpt>
      <trkpt lat="47.17141" lon="0.21711">
        <ele>62.12</ele>
        <time>2023-06-09T23:43:53.260Z</time>
      </trkpt>
      <trkpt lat="47.17147" lon="0.21688">
        <ele>61.48</ele>
        <time>2023-06-09T23:44:21.139Z</time>
      </trkpt>
      <trkpt lat="47.17148" lon="0.21681">
        <ele>61.31</ele>
        <time>2023-06-09T23:44:49.019Z</time>
      </trkpt>
      <trkpt lat="47.17151" lon="0.21669">
        <ele>61.04</ele>
        <time>2023-06-09T23:45:16.900Z</time>
      </trkpt>
      <trkpt lat="47.17152" lon="0.21664">
        <ele>60.94</ele>
        <time>2023-06-09T23:45:44.782Z</time>
      </trkpt>
      <trkpt lat="47.17154" lon="0.21652">
        <ele>60.78</ele>
        <time>2023-06-09T23:46:12.665Z</time>
      </trkpt>
      <trkpt lat="47.17155" lon="0.21646">
        <ele>60.62</ele>
        <time>2023-06-09T23:46:40.549Z</time>
      </trkpt>
      <trkpt lat="47.17159" lon="0.21626">
        <ele>60.06</ele>
        <time>2023-06-09T23:47:08.435Z</time>
      </trkpt>
      <trkpt lat="47.17159" lon="0.21626">
        <ele>60.06</ele>
        <time>2023-06-09T23:47:36.321Z</time>
      </trkpt>
      <trkpt lat="47.17161" lon="0.21622">
        <ele>59.89</ele>
        <time>2023-06-09T23:48:04.208Z</time>
      </trkpt>
      <trkpt lat="47.17166" lon="0.21614">
        <ele>59.68</ele>
        <time>2023-06-09T23:48:32.096Z</time>
      </trkpt>
      <trkpt lat="47.17167" lon="0.21611">
        <ele>59.63</ele>
        <time>2023-06-09T23:48:59.984Z</time>
      </trkpt>
      <trkpt lat="47.17168" lon="0.21605">
        <ele>59.54</ele>
        <time>2023-06-09T23:49:27.873Z</time>
      </trkpt>
      <trkpt lat="47.17169" lon="0.21599">
        <ele>59.48</ele>
        <time>2023-06-09T23:49:55.763Z</time>
      </trkpt>
      <trkpt lat="47.1717" lon="0.21593">
        <ele>59.45</ele>
        <time>2023-06-09T23:50:23.653Z</time>
      </trkpt>
      <trkpt lat="47.17173" lon="0.2158">
        <ele>59.45</ele>
        <time>2023-06-09T23:50:51.545Z</time>
      </trkpt>
      <trkpt lat="47.17174" lon="0.21574">
        <ele>59.57</ele>
        <time>2023-06-09T23:51:19.437Z</time>
      </trkpt>
      <trkpt lat="47.17174" lon="0.21562">
        <ele>59.81</ele>
        <time>2023-06-09T23:51:47.331Z</time>
      </trkpt>
      <trkpt lat="47.17174" lon="0.2155">
        <ele>60.15</ele>
        <time>2023-06-09T23:52:15.226Z</time>
      </trkpt>
      <trkpt lat="47.17174" lon="0.21538">
        <ele>60.51</ele>
        <time>2023-06-09T23:52:43.122Z</time>
      </trkpt>
      <trkpt lat="47.17177" lon="0.21519">
        <ele>61.13</ele>
        <time>2023-06-09T23:53:11.020Z</time>
      </trkpt>
      <trkpt lat="47.17181" lon="0.2149">
        <ele>61.95</ele>
        <time>2023-06-09T23:53:38.922Z</time>
      </trkpt>
      <trkpt lat="47.17181" lon="0.21488">
        <ele>62.01</ele>
        <time>2023-06-09T23:54:06.824Z</time>
      </trkpt>
      <trkpt lat="47.17191" lon="0.21454">
        <ele>62.36</ele>
        <time>2023-06-09T23:54:34.730Z</time>
      </trkpt>
      <trkpt lat="47.17192" lon="0.21449">
        <ele>62.39</ele>
        <time>2023-06-09T23:55:02.637Z</time>
      </trkpt>
      <trkpt lat="47.17192" lon="0.21442">
        <ele>62.44</ele>
        <time>2023-06-09T23:55:30.544Z</time>
      </trkpt>
      <trkpt lat="47.17192" lon="0.2143">
        <ele>62.49</ele>
        <time>2023-06-09T23:55:58.453Z</time>
      </trkpt>
      <trkpt lat="47.17193" lon="0.21392">
        <ele>62.88</ele>
        <time>2023-06-09T23:56:26.366Z</time>
      </trkpt>
      <trkpt lat="47.17193" lon="0.21388">
        <ele>62.93</ele>
        <time>2023-06-09T23:56:54.279Z</time>
      </trkpt>
      <trkpt lat="47.17198" lon="0.21342">
        <ele>63.5</ele>
        <time>2023-06-09T23:57:22.197Z</time>
      </trkpt>
      <trkpt lat="47.17199" lon="0.21331">
        <ele>63.64</ele>
        <time>2023-06-09T23:57:50.116Z</time>
      </trkpt>
      <trkpt lat="47.172" lon="0.21323">
        <ele>63.76</ele>
        <time>2023-06-09T23:58:18.036Z</time>
      </trkpt>
      <trkpt lat="47.17205" lon="0.21292">
        <ele>64.27</ele>
        <time>2023-06-09T23:58:45.960Z</time>
      </trkpt>
      <trkpt lat="47.1721" lon="0.21261">
        <ele>64.52</ele>
        <time>2023-06-09T23:59:13.887Z</time>
      </trkpt>
      <trkpt lat="47.17213" lon="0.21243">
        <ele>64.61</ele>
        <time>2023-06-09T23:59:41.816Z</time>
      </trkpt>
      <trkpt lat="47.17216" lon="0.21224">
        <ele>64.58</ele>
        <time>2023-06-10T00:00:09.747Z</time>
      </trkpt>
      <trkpt lat="47.17216" lon="0.21221">
        <ele>64.56</ele>
        <time>2023-06-10T00:00:37.679Z</time>
      </trkpt>
      <trkpt lat="47.17222" lon="0.21204">
        <ele>64.43</ele>
        <time>2023-06-10T00:01:05.613Z</time>
      </trkpt>
      <trkpt lat="47.17231" lon="0.21182">
        <ele>64.04</ele>
        <time>2023-06-10T00:01:33.550Z</time>
      </trkpt>
      <trkpt lat="47.17235" lon="0.2118">
        <ele>63.96</ele>
        <time>2023-06-10T00:02:01.487Z</time>
      </trkpt>
      <trkpt lat="47.17235" lon="0.2118">
        <ele>63.96</ele>
        <time>2023-06-10T00:02:29.424Z</time>
      </trkpt>
      <trkpt lat="47.17243" lon="0.21181">
        <ele>63.8</ele>
        <time>2023-06-10T00:02:57.363Z</time>
      </trkpt>
      <trkpt lat="47.17242" lon="0.21174">
        <ele>63.72</ele>
        <time>2023-06-10T00:03:25.302Z</time>
      </trkpt>
      <trkpt lat="47.17242" lon="0.21168">
        <ele>63.65</ele>
        <time>2023-06-10T00:03:53.242Z</time>
      </trkpt>
      <trkpt lat="47.17244" lon="0.21152">
        <ele>63.49</ele>
        <time>2023-06-10T00:04:21.184Z</time>
      </trkpt>
      <trkpt lat="47.1725" lon="0.21133">
        <ele>63.28</ele>
        <time>2023-06-10T00:04:49.128Z</time>
      </trkpt>
      <trkpt lat="47.1726" lon="0.21098">
        <ele>62.82</ele>
        <time>2023-06-10T00:05:17.076Z</time>
      </trkpt>
      <trkpt lat="47.17262" lon="0.21093">
        <ele>62.74</ele>
        <time>2023-06-10T00:05:45.025Z</time>
      </trkpt>
      <trkpt lat="47.17264" lon="0.21088">
        <ele>62.66</ele>
        <time>2023-06-10T00:06:12.975Z</time>
      </trkpt>
      <trkpt lat="47.1727" lon="0.21072">
        <ele>62.38</ele>
        <time>2023-06-10T00:06:40.927Z</time>
      </trkpt>
      <trkpt lat="47.17278" lon="0.2105">
        <ele>61.96</ele>
        <time>2023-06-10T00:07:08.881Z</time>
      </trkpt>
      <trkpt lat="47.17289" lon="0.21023">
        <ele>61.19</ele>
        <time>2023-06-10T00:07:36.839Z</time>
      </trkpt>
      <trkpt lat="47.17293" lon="0.21012">
        <ele>60.86</ele>
        <time>2023-06-10T00:08:04.798Z</time>
      </trkpt>
      <trkpt lat="47.17295" lon="0.21006">
        <ele>60.68</ele>
        <time>2023-06-10T00:08:32.758Z</time>
      </trkpt>
      <trkpt lat="47.17311" lon="0.20961">
        <ele>59.27</ele>
        <time>2023-06-10T00:09:00.723Z</time>
      </trkpt>
      <trkpt lat="47.17315" lon="0.20949">
        <ele>58.95</ele>
        <time>2023-06-10T00:09:28.690Z</time>
      </trkpt>
      <trkpt lat="47.17325" lon="0.20922">
        <ele>58.23</ele>
        <time>2023-06-10T00:09:56.660Z</time>
      </trkpt>
      <trkpt lat="47.17343" lon="0.2089">
        <ele>57.27</ele>
        <time>2023-06-10T00:10:24.635Z</time>
      </trkpt>
      <trkpt lat="47.17357" lon="0.20864">
        <ele>56.55</ele>
        <time>2023-06-10T00:10:52.613Z</time>
      </trkpt>
      <trkpt lat="47.17363" lon="0.20854">
        <ele>56.21</ele>
        <time>2023-06-10T00:11:20.593Z</time>
      </trkpt>
      <trkpt lat="47.17368" lon="0.20844">
        <ele>55.82</ele>
        <time>2023-06-10T00:11:48.574Z</time>
      </trkpt>
      <trkpt lat="47.17371" lon="0.20839">
        <ele>55.6</ele>
        <time>2023-06-10T00:12:16.556Z</time>
      </trkpt>
      <trkpt lat="47.17377" lon="0.20828">
        <ele>55.12</ele>
        <time>2023-06-10T00:12:44.539Z</time>
      </trkpt>
      <trkpt lat="47.17381" lon="0.20821">
        <ele>54.73</ele>
        <time>2023-06-10T00:13:12.523Z</time>
      </trkpt>
      <trkpt lat="47.17382" lon="0.20818">
        <ele>54.59</ele>
        <time>2023-06-10T00:13:40.508Z</time>
      </trkpt>
      <trkpt lat="47.17388" lon="0.20807">
        <ele>54.01</ele>
        <time>2023-06-10T00:14:08.494Z</time>
      </trkpt>
      <trkpt lat="47.17396" lon="0.20791">
        <ele>53.08</ele>
        <time>2023-06-10T00:14:36.482Z</time>
      </trkpt>
      <trkpt lat="47.17401" lon="0.2078">
        <ele>52.39</ele>
        <time>2023-06-10T00:15:04.472Z</time>
      </trkpt>
      <trkpt lat="47.17404" lon="0.20774">
        <ele>51.94</ele>
        <time>2023-06-10T00:15:32.463Z</time>
      </trkpt>
      <trkpt lat="47.17408" lon="0.20764">
        <ele>51.28</ele>
        <time>2023-06-10T00:16:00.455Z</time>
      </trkpt>
      <trkpt lat="47.17413" lon="0.20752">
        <ele>50.5</ele>
        <time>2023-06-10T00:16:28.448Z</time>
      </trkpt>
      <trkpt lat="47.17422" lon="0.20729">
        <ele>48.89</ele>
        <time>2023-06-10T00:16:56.444Z</time>
      </trkpt>
      <trkpt lat="47.17428" lon="0.20712">
        <ele>47.76</ele>
        <time>2023-06-10T00:17:24.442Z</time>
      </trkpt>
      <trkpt lat="47.1743" lon="0.20708">
        <ele>47.49</ele>
        <time>2023-06-10T00:17:52.441Z</time>
      </trkpt>
      <trkpt lat="47.17436" lon="0.20681">
        <ele>45.99</ele>
        <time>2023-06-10T00:18:20.443Z</time>
      </trkpt>
      <trkpt lat="47.17449" lon="0.20632">
        <ele>43.25</ele>
        <time>2023-06-10T00:18:48.451Z</time>
      </trkpt>
      <trkpt lat="47.17452" lon="0.20619">
        <ele>42.61</ele>
        <time>2023-06-10T00:19:16.460Z</time>
      </trkpt>
      <trkpt lat="47.17456" lon="0.20601">
        <ele>41.71</ele>
        <time>2023-06-10T00:19:44.471Z</time>
      </trkpt>
      <trkpt lat="47.17459" lon="0.20588">
        <ele>41.16</ele>
        <time>2023-06-10T00:20:12.484Z</time>
      </trkpt>
      <trkpt lat="47.17464" lon="0.2057">
        <ele>40.41</ele>
        <time>2023-06-10T00:20:40.499Z</time>
      </trkpt>
      <trkpt lat="47.17468" lon="0.20551">
        <ele>39.72</ele>
        <time>2023-06-10T00:21:08.516Z</time>
      </trkpt>
      <trkpt lat="47.17471" lon="0.20538">
        <ele>39.3</ele>
        <time>2023-06-10T00:21:36.535Z</time>
      </trkpt>
      <trkpt lat="47.17473" lon="0.20532">
        <ele>39.11</ele>
        <time>2023-06-10T00:22:04.554Z</time>
      </trkpt>
      <trkpt lat="47.17475" lon="0.20523">
        <ele>38.88</ele>
        <time>2023-06-10T00:22:32.574Z</time>
      </trkpt>
      <trkpt lat="47.17476" lon="0.20519">
        <ele>38.8</ele>
        <time>2023-06-10T00:23:00.595Z</time>
      </trkpt>
      <trkpt lat="47.17478" lon="0.20507">
        <ele>38.54</ele>
        <time>2023-06-10T00:23:28.617Z</time>
      </trkpt>
      <trkpt lat="47.17494" lon="0.2041">
        <ele>36.84</ele>
        <time>2023-06-10T00:23:56.650Z</time>
      </trkpt>
      <trkpt lat="47.17497" lon="0.20391">
        <ele>36.45</ele>
        <time>2023-06-10T00:24:24.685Z</time>
      </trkpt>
      <trkpt lat="47.175" lon="0.20372">
        <ele>36.01</ele>
        <time>2023-06-10T00:24:52.722Z</time>
      </trkpt>
      <trkpt lat="47.17503" lon="0.20355">
        <ele>35.86</ele>
        <time>2023-06-10T00:25:20.761Z</time>
      </trkpt>
      <trkpt lat="47.17504" lon="0.20349">
        <ele>35.74</ele>
        <time>2023-06-10T00:25:48.801Z</time>
      </trkpt>
      <trkpt lat="47.17507" lon="0.20333">
        <ele>35.41</ele>
        <time>2023-06-10T00:26:16.843Z</time>
      </trkpt>
      <trkpt lat="47.17507" lon="0.2033">
        <ele>35.37</ele>
        <time>2023-06-10T00:26:44.885Z</time>
      </trkpt>
      <trkpt lat="47.17508" lon="0.20312">
        <ele>35.16</ele>
        <time>2023-06-10T00:27:12.929Z</time>
      </trkpt>
      <trkpt lat="47.17508" lon="0.20309">
        <ele>35.13</ele>
        <time>2023-06-10T00:27:40.973Z</time>
      </trkpt>
      <trkpt lat="47.17505" lon="0.20292">
        <ele>34.94</ele>
        <time>2023-06-10T00:28:09.019Z</time>
      </trkpt>
      <trkpt lat="47.17505" lon="0.2029">
        <ele>34.92</ele>
        <time>2023-06-10T00:28:37.065Z</time>
      </trkpt>
      <trkpt lat="47.17501" lon="0.20275">
        <ele>34.8</ele>
        <time>2023-06-10T00:29:05.113Z</time>
      </trkpt>
      <trkpt lat="47.1749" lon="0.20234">
        <ele>34.77</ele>
        <time>2023-06-10T00:29:33.166Z</time>
      </trkpt>
      <trkpt lat="47.17502" lon="0.20228">
        <ele>34.76</ele>
        <time>2023-06-10T00:30:01.221Z</time>
      </trkpt>
      <trkpt lat="47.17507" lon="0.20222">
        <ele>34.76</ele>
        <time>2023-06-10T00:30:29.277Z</time>
      </trkpt>
      <trkpt lat="47.17512" lon="0.20217">
        <ele>34.74</ele>
        <time>2023-06-10T00:30:57.334Z</time>
      </trkpt>
      <trkpt lat="47.17523" lon="0.20187">
        <ele>34.67</ele>
        <time>2023-06-10T00:31:25.395Z</time>
      </trkpt>
      <trkpt lat="47.17524" lon="0.2017">
        <ele>34.64</ele>
        <time>2023-06-10T00:31:53.458Z</time>
      </trkpt>
      <trkpt lat="47.17521" lon="0.20153">
        <ele>34.61</ele>
        <time>2023-06-10T00:32:21.523Z</time>
      </trkpt>
      <trkpt lat="47.17521" lon="0.20153">
        <ele>34.61</ele>
        <time>2023-06-10T00:32:49.588Z</time>
      </trkpt>
      <trkpt lat="47.1751" lon="0.20131">
        <ele>34.59</ele>
        <time>2023-06-10T00:33:17.656Z</time>
      </trkpt>
      <trkpt lat="47.17502" lon="0.20123">
        <ele>34.59</ele>
        <time>2023-06-10T00:33:45.725Z</time>
      </trkpt>
      <trkpt lat="47.17496" lon="0.2012">
        <ele>34.59</ele>
        <time>2023-06-10T00:34:13.795Z</time>
      </trkpt>
      <trkpt lat="47.1749" lon="0.20118">
        <ele>34.6</ele>
        <time>2023-06-10T00:34:41.866Z</time>
      </trkpt>
      <trkpt lat="47.17483" lon="0.20117">
        <ele>34.62</ele>
        <time>2023-06-10T00:35:09.938Z</time>
      </trkpt>
      <trkpt lat="47.17478" lon="0.20117">
        <ele>34.61</ele>
        <time>2023-06-10T00:35:38.011Z</time>
      </trkpt>
      <trkpt lat="47.17466" lon="0.20123">
        <ele>34.61</ele>
        <time>2023-06-10T00:36:06.086Z</time>
      </trkpt>
      <trkpt lat="47.1746" lon="0.20129">
        <ele>34.61</ele>
        <time>2023-06-10T00:36:34.162Z</time>
      </trkpt>
      <trkpt lat="47.17456" lon="0.20133">
        <ele>34.62</ele>
        <time>2023-06-10T00:37:02.239Z</time>
      </trkpt>
      <trkpt lat="47.17452" lon="0.20134">
        <ele>34.64</ele>
        <time>2023-06-10T00:37:30.317Z</time>
      </trkpt>
      <trkpt lat="47.17448" lon="0.20135">
        <ele>34.66</ele>
        <time>2023-06-10T00:37:58.395Z</time>
      </trkpt>
      <trkpt lat="47.17439" lon="0.20133">
        <ele>34.73</ele>
        <time>2023-06-10T00:38:26.475Z</time>
      </trkpt>
      <trkpt lat="47.17412" lon="0.20121">
        <ele>34.93</ele>
        <time>2023-06-10T00:38:54.559Z</time>
      </trkpt>
      <trkpt lat="47.17407" lon="0.20119">
        <ele>34.99</ele>
        <time>2023-06-10T00:39:22.644Z</time>
      </trkpt>
      <trkpt lat="47.17404" lon="0.20117">
        <ele>35.03</ele>
        <time>2023-06-10T00:39:50.730Z</time>
      </trkpt>
      <trkpt lat="47.1738" lon="0.20099">
        <ele>35.52</ele>
        <time>2023-06-10T00:40:18.820Z</time>
      </trkpt>
      <trkpt lat="47.17356" lon="0.20082">
        <ele>35.98</ele>
        <time>2023-06-10T00:40:46.914Z</time>
      </trkpt>
      <trkpt lat="47.17355" lon="0.20081">
        <ele>36</ele>
        <time>2023-06-10T00:41:15.008Z</time>
      </trkpt>
      <trkpt lat="47.17348" lon="0.20077">
        <ele>36.16</ele>
        <time>2023-06-10T00:41:43.104Z</time>
      </trkpt>
      <trkpt lat="47.1734" lon="0.20072">
        <ele>36.36</ele>
        <time>2023-06-10T00:42:11.201Z</time>
      </trkpt>
      <trkpt lat="47.17327" lon="0.20064">
        <ele>36.68</ele>
        <time>2023-06-10T00:42:39.300Z</time>
      </trkpt>
      <trkpt lat="47.17307" lon="0.20054">
        <ele>37.19</ele>
        <time>2023-06-10T00:43:07.403Z</time>
      </trkpt>
      <trkpt lat="47.1728" lon="0.2004">
        <ele>37.74</ele>
        <time>2023-06-10T00:43:35.510Z</time>
      </trkpt>
      <trkpt lat="47.17256" lon="0.2003">
        <ele>38.25</ele>
        <time>2023-06-10T00:44:03.621Z</time>
      </trkpt>
      <trkpt lat="47.17227" lon="0.20018">
        <ele>38.67</ele>
        <time>2023-06-10T00:44:31.737Z</time>
      </trkpt>
      <trkpt lat="47.17204" lon="0.20009">
        <ele>39</ele>
        <time>2023-06-10T00:44:59.857Z</time>
      </trkpt>
      <trkpt lat="47.17192" lon="0.20004">
        <ele>39.15</ele>
        <time>2023-06-10T00:45:27.979Z</time>
      </trkpt>
      <trkpt lat="47.17157" lon="0.1999">
        <ele>39.41</ele>
        <time>2023-06-10T00:45:56.107Z</time>
      </trkpt>
      <trkpt lat="47.17122" lon="0.19977">
        <ele>39.59</ele>
        <time>2023-06-10T00:46:24.240Z</time>
      </trkpt>
      <trkpt lat="47.17114" lon="0.19973">
        <ele>39.61</ele>
        <time>2023-06-10T00:46:52.375Z</time>
      </trkpt>
      <trkpt lat="47.17088" lon="0.19963">
        <ele>39.57</ele>
        <time>2023-06-10T00:47:20.514Z</time>
      </trkpt>
      <trkpt lat="47.17075" lon="0.19958">
        <ele>39.53</ele>
        <time>2023-06-10T00:47:48.655Z</time>
      </trkpt>
      <trkpt lat="47.17045" lon="0.19946">
        <ele>39.31</ele>
        <time>2023-06-10T00:48:16.801Z</time>
      </trkpt>
      <trkpt lat="47.17028" lon="0.19939">
        <ele>39.15</ele>
        <time>2023-06-10T00:48:44.950Z</time>
      </trkpt>
      <trkpt lat="47.17015" lon="0.19934">
        <ele>38.97</ele>
        <time>2023-06-10T00:49:13.101Z</time>
      </trkpt>
      <trkpt lat="47.16999" lon="0.19928">
        <ele>38.71</ele>
        <time>2023-06-10T00:49:41.255Z</time>
      </trkpt>
      <trkpt lat="47.16986" lon="0.19923">
        <ele>38.51</ele>
        <time>2023-06-10T00:50:09.411Z</time>
      </trkpt>
      <trkpt lat="47.16973" lon="0.19919">
        <ele>38.28</ele>
        <time>2023-06-10T00:50:37.569Z</time>
      </trkpt>
      <trkpt lat="47.16952" lon="0.19911">
        <ele>37.85</ele>
        <time>2023-06-10T00:51:05.731Z</time>
      </trkpt>
      <trkpt lat="47.16939" lon="0.19907">
        <ele>37.12</ele>
        <time>2023-06-10T00:51:33.895Z</time>
      </trkpt>
      <trkpt lat="47.16923" lon="0.19901">
        <ele>36.19</ele>
        <time>2023-06-10T00:52:02.061Z</time>
      </trkpt>
      <trkpt lat="47.16927" lon="0.19889">
        <ele>35.67</ele>
        <time>2023-06-10T00:52:30.229Z</time>
      </trkpt>
      <trkpt lat="47.16928" lon="0.19888">
        <ele>35.62</ele>
        <time>2023-06-10T00:52:58.397Z</time>
      </trkpt>
      <trkpt lat="47.16933" lon="0.19879">
        <ele>35.22</ele>
        <time>2023-06-10T00:53:26.566Z</time>
      </trkpt>
      <trkpt lat="47.16943" lon="0.19876">
        <ele>34.76</ele>
        <time>2023-06-10T00:53:54.737Z</time>
      </trkpt>
      <trkpt lat="47.16943" lon="0.19876">
        <ele>34.76</ele>
        <time>2023-06-10T00:54:22.908Z</time>
      </trkpt>
      <trkpt lat="47.1696" lon="0.19882">
        <ele>33.98</ele>
        <time>2023-06-10T00:54:51.082Z</time>
      </trkpt>
      <trkpt lat="47.16972" lon="0.19887">
        <ele>33.45</ele>
        <time>2023-06-10T00:55:19.258Z</time>
      </trkpt>
      <trkpt lat="47.16981" lon="0.1989">
        <ele>33.15</ele>
        <time>2023-06-10T00:55:47.435Z</time>
      </trkpt>
      <trkpt lat="47.16994" lon="0.19895">
        <ele>32.81</ele>
        <time>2023-06-10T00:56:15.614Z</time>
      </trkpt>
      <trkpt lat="47.17022" lon="0.19906">
        <ele>32.68</ele>
        <time>2023-06-10T00:56:43.798Z</time>
      </trkpt>
      <trkpt lat="47.17026" lon="0.19891">
        <ele>32.64</ele>
        <time>2023-06-10T00:57:11.984Z</time>
      </trkpt>
      <trkpt lat="47.1703" lon="0.19872">
        <ele>32.61</ele>
        <time>2023-06-10T00:57:40.172Z</time>
      </trkpt>
      <trkpt lat="47.17042" lon="0.19822">
        <ele>32.59</ele>
        <time>2023-06-10T00:58:08.366Z</time>
      </trkpt>
      <trkpt lat="47.17047" lon="0.19804">
        <ele>32.56</ele>
        <time>2023-06-10T00:58:36.562Z</time>
      </trkpt>
      <trkpt lat="47.1705" lon="0.19791">
        <ele>32.54</ele>
        <time>2023-06-10T00:59:04.759Z</time>
      </trkpt>
      <trkpt lat="47.1706" lon="0.19741">
        <ele>32.5</ele>
        <time>2023-06-10T00:59:32.962Z</time>
      </trkpt>
      <trkpt lat="47.17072" lon="0.19684">
        <ele>32.52</ele>
        <time>2023-06-10T01:00:01.172Z</time>
      </trkpt>
      <trkpt lat="47.17076" lon="0.19666">
        <ele>32.47</ele>
        <time>2023-06-10T01:00:29.384Z</time>
      </trkpt>
      <trkpt lat="47.1708" lon="0.19646">
        <ele>32.43</ele>
        <time>2023-06-10T01:00:57.598Z</time>
      </trkpt>
      <trkpt lat="47.17088" lon="0.19601">
        <ele>32.36</ele>
        <time>2023-06-10T01:01:25.817Z</time>
      </trkpt>
      <trkpt lat="47.17091" lon="0.19582">
        <ele>32.37</ele>
        <time>2023-06-10T01:01:54.038Z</time>
      </trkpt>
      <trkpt lat="47.17098" lon="0.19544">
        <ele>32.44</ele>
        <time>2023-06-10T01:02:22.263Z</time>
      </trkpt>
      <trkpt lat="47.17106" lon="0.19499">
        <ele>32.6</ele>
        <time>2023-06-10T01:02:50.493Z</time>
      </trkpt>
      <trkpt lat="47.17109" lon="0.19487">
        <ele>32.63</ele>
        <time>2023-06-10T01:03:18.725Z</time>
      </trkpt>
      <trkpt lat="47.17111" lon="0.19474">
        <ele>32.63</ele>
        <time>2023-06-10T01:03:46.958Z</time>
      </trkpt>
      <trkpt lat="47.17115" lon="0.19452">
        <ele>32.6</ele>
        <time>2023-06-10T01:04:15.194Z</time>
      </trkpt>
      <trkpt lat="47.17116" lon="0.19442">
        <ele>32.59</ele>
        <time>2023-06-10T01:04:43.431Z</time>
      </trkpt>
      <trkpt lat="47.1712" lon="0.19416">
        <ele>32.6</ele>
        <time>2023-06-10T01:05:11.671Z</time>
      </trkpt>
      <trkpt lat="47.17125" lon="0.19384">
        <ele>32.56</ele>
        <time>2023-06-10T01:05:39.914Z</time>
      </trkpt>
      <trkpt lat="47.17126" lon="0.19374">
        <ele>32.56</ele>
        <time>2023-06-10T01:06:08.158Z</time>
      </trkpt>
      <trkpt lat="47.1713" lon="0.19352">
        <ele>32.58</ele>
        <time>2023-06-10T01:06:36.405Z</time>
      </trkpt>
      <trkpt lat="47.17138" lon="0.19315">
        <ele>32.56</ele>
        <time>2023-06-10T01:07:04.656Z</time>
      </trkpt>
      <trkpt lat="47.1715" lon="0.19252">
        <ele>32.68</ele>
        <time>2023-06-10T01:07:32.914Z</time>
      </trkpt>
      <trkpt lat="47.17154" lon="0.19233">
        <ele>32.74</ele>
        <time>2023-06-10T01:08:01.175Z</time>
      </trkpt>
      <trkpt lat="47.17159" lon="0.19208">
        <ele>32.86</ele>
        <time>2023-06-10T01:08:29.438Z</time>
      </trkpt>
      <trkpt lat="47.17163" lon="0.19189">
        <ele>32.97</ele>
        <time>2023-06-10T01:08:57.704Z</time>
      </trkpt>
      <trkpt lat="47.17168" lon="0.19164">
        <ele>33.16</ele>
        <time>2023-06-10T01:09:25.972Z</time>
      </trkpt>
      <trkpt lat="47.1717" lon="0.19151">
        <ele>33.21</ele>
        <time>2023-06-10T01:09:54.242Z</time>
      </trkpt>
      <trkpt lat="47.17173" lon="0.19138">
        <ele>33.2</ele>
        <time>2023-06-10T01:10:22.513Z</time>
      </trkpt>
      <trkpt lat="47.17175" lon="0.19126">
        <ele>33.15</ele>
        <time>2023-06-10T01:10:50.786Z</time>
      </trkpt>
      <trkpt lat="47.17178" lon="0.19113">
        <ele>33.07</ele>
        <time>2023-06-10T01:11:19.060Z</time>
      </trkpt>
      <trkpt lat="47.17183" lon="0.19088">
        <ele>32.87</ele>
        <time>2023-06-10T01:11:47.337Z</time>
      </trkpt>
      <trkpt lat="47.17185" lon="0.19075">
        <ele>32.79</ele>
        <time>2023-06-10T01:12:15.615Z</time>
      </trkpt>
      <trkpt lat="47.17189" lon="0.19057">
        <ele>32.72</ele>
        <time>2023-06-10T01:12:43.896Z</time>
      </trkpt>
      <trkpt lat="47.17195" lon="0.19025">
        <ele>32.64</ele>
        <time>2023-06-10T01:13:12.180Z</time>
      </trkpt>
      <trkpt lat="47.17199" lon="0.19006">
        <ele>32.63</ele>
        <time>2023-06-10T01:13:40.466Z</time>
      </trkpt>
      <trkpt lat="47.172" lon="0.19">
        <ele>32.63</ele>
        <time>2023-06-10T01:14:08.753Z</time>
      </trkpt>
      <trkpt lat="47.172" lon="0.1898">
        <ele>32.66</ele>
        <time>2023-06-10T01:14:37.042Z</time>
      </trkpt>
      <trkpt lat="47.17202" lon="0.18934">
        <ele>32.85</ele>
        <time>2023-06-10T01:15:05.336Z</time>
      </trkpt>
      <trkpt lat="47.17202" lon="0.18926">
        <ele>32.84</ele>
        <time>2023-06-10T01:15:33.631Z</time>
      </trkpt>
      <trkpt lat="47.17202" lon="0.18906">
        <ele>32.66</ele>
        <time>2023-06-10T01:16:01.928Z</time>
      </trkpt>
      <trkpt lat="47.17203" lon="0.18886">
        <ele>32.52</ele>
        <time>2023-06-10T01:16:30.227Z</time>
      </trkpt>
      <trkpt lat="47.17203" lon="0.18883">
        <ele>32.5</ele>
        <time>2023-06-10T01:16:58.527Z</time>
      </trkpt>
      <trkpt lat="47.17208" lon="0.18854">
        <ele>32.38</ele>
        <time>2023-06-10T01:17:26.830Z</time>
      </trkpt>
      <trkpt lat="47.1721" lon="0.18842">
        <ele>32.35</ele>
        <time>2023-06-10T01:17:55.134Z</time>
      </trkpt>
      <trkpt lat="47.1721" lon="0.1884">
        <ele>32.35</ele>
        <time>2023-06-10T01:18:23.439Z</time>
      </trkpt>
      <trkpt lat="47.17211" lon="0.18815">
        <ele>32.37</ele>
        <time>2023-06-10T01:18:51.746Z</time>
      </trkpt>
      <trkpt lat="47.17213" lon="0.18763">
        <ele>32.49</ele>
        <time>2023-06-10T01:19:20.059Z</time>
      </trkpt>
      <trkpt lat="47.17215" lon="0.1873">
        <ele>32.51</ele>
        <time>2023-06-10T01:19:48.376Z</time>
      </trkpt>
      <trkpt lat="47.1722" lon="0.18606">
        <ele>32.48</ele>
        <time>2023-06-10T01:20:16.706Z</time>
      </trkpt>
      <trkpt lat="47.17221" lon="0.18573">
        <ele>32.45</ele>
        <time>2023-06-10T01:20:45.040Z</time>
      </trkpt>
      <trkpt lat="47.17222" lon="0.18553">
        <ele>32.52</ele>
        <time>2023-06-10T01:21:13.376Z</time>
      </trkpt>
      <trkpt lat="47.17223" lon="0.1854">
        <ele>32.55</ele>
        <time>2023-06-10T01:21:41.713Z</time>
      </trkpt>
      <trkpt lat="47.17223" lon="0.1853">
        <ele>32.54</ele>
        <time>2023-06-10T01:22:10.051Z</time>
      </trkpt>
      <trkpt lat="47.17224" lon="0.18494">
        <ele>32.54</ele>
        <time>2023-06-10T01:22:38.393Z</time>
      </trkpt>
      <trkpt lat="47.17226" lon="0.18448">
        <ele>32.57</ele>
        <time>2023-06-10T01:23:06.740Z</time>
      </trkpt>
      <trkpt lat="47.17228" lon="0.18402">
        <ele>32.51</ele>
        <time>2023-06-10T01:23:35.092Z</time>
      </trkpt>
      <trkpt lat="47.17229" lon="0.18369">
        <ele>32.44</ele>
        <time>2023-06-10T01:24:03.448Z</time>
      </trkpt>
      <trkpt lat="47.1723" lon="0.18349">
        <ele>32.42</ele>
        <time>2023-06-10T01:24:31.806Z</time>
      </trkpt>
      <trkpt lat="47.17231" lon="0.18323">
        <ele>32.45</ele>
        <time>2023-06-10T01:25:00.167Z</time>
      </trkpt>
      <trkpt lat="47.17233" lon="0.18264">
        <ele>32.58</ele>
        <time>2023-06-10T01:25:28.535Z</time>
      </trkpt>
      <trkpt lat="47.17234" lon="0.18231">
        <ele>32.61</ele>
        <time>2023-06-10T01:25:56.906Z</time>
      </trkpt>
      <trkpt lat="47.17237" lon="0.18171">
        <ele>32.56</ele>
        <time>2023-06-10T01:26:25.284Z</time>
      </trkpt>
      <trkpt lat="47.17238" lon="0.18139">
        <ele>32.49</ele>
        <time>2023-06-10T01:26:53.665Z</time>
      </trkpt>
      <trkpt lat="47.17239" lon="0.18099">
        <ele>32.38</ele>
        <time>2023-06-10T01:27:22.051Z</time>
      </trkpt>
      <trkpt lat="47.1724" lon="0.1808">
        <ele>32.35</ele>
        <time>2023-06-10T01:27:50.439Z</time>
      </trkpt>
      <trkpt lat="47.17241" lon="0.18053">
        <ele>32.31</ele>
        <time>2023-06-10T01:28:18.830Z</time>
      </trkpt>
      <trkpt lat="47.17241" lon="0.18033">
        <ele>32.3</ele>
        <time>2023-06-10T01:28:47.223Z</time>
      </trkpt>
      <trkpt lat="47.17242" lon="0.17987">
        <ele>32.36</ele>
        <time>2023-06-10T01:29:15.621Z</time>
      </trkpt>
      <trkpt lat="47.17243" lon="0.17947">
        <ele>32.51</ele>
        <time>2023-06-10T01:29:44.023Z</time>
      </trkpt>
      <trkpt lat="47.17243" lon="0.17943">
        <ele>32.52</ele>
        <time>2023-06-10T01:30:12.426Z</time>
      </trkpt>
      <trkpt lat="47.17244" lon="0.17928">
        <ele>32.56</ele>
        <time>2023-06-10T01:30:40.830Z</time>
      </trkpt>
      <trkpt lat="47.1725" lon="0.17842">
        <ele>32.61</ele>
        <time>2023-06-10T01:31:09.244Z</time>
      </trkpt>
      <trkpt lat="47.17253" lon="0.1779">
        <ele>32.58</ele>
        <time>2023-06-10T01:31:37.663Z</time>
      </trkpt>
      <trkpt lat="47.17256" lon="0.17744">
        <ele>32.45</ele>
        <time>2023-06-10T01:32:06.087Z</time>
      </trkpt>
      <trkpt lat="47.17257" lon="0.17724">
        <ele>32.37</ele>
        <time>2023-06-10T01:32:34.514Z</time>
      </trkpt>
      <trkpt lat="47.17258" lon="0.17711">
        <ele>32.35</ele>
        <time>2023-06-10T01:33:02.942Z</time>
      </trkpt>
      <trkpt lat="47.17259" lon="0.17696">
        <ele>32.38</ele>
        <time>2023-06-10T01:33:31.372Z</time>
      </trkpt>
      <trkpt lat="47.17264" lon="0.17652">
        <ele>32.47</ele>
        <time>2023-06-10T01:33:59.807Z</time>
      </trkpt>
      <trkpt lat="47.17268" lon="0.1762">
        <ele>32.46</ele>
        <time>2023-06-10T01:34:28.245Z</time>
      </trkpt>
      <trkpt lat="47.17269" lon="0.17611">
        <ele>32.47</ele>
        <time>2023-06-10T01:34:56.684Z</time>
      </trkpt>
      <trkpt lat="47.1727" lon="0.17607">
        <ele>32.48</ele>
        <time>2023-06-10T01:35:25.124Z</time>
      </trkpt>
      <trkpt lat="47.17274" lon="0.17575">
        <ele>32.57</ele>
        <time>2023-06-10T01:35:53.567Z</time>
      </trkpt>
      <trkpt lat="47.17279" lon="0.17542">
        <ele>32.55</ele>
        <time>2023-06-10T01:36:22.014Z</time>
      </trkpt>
      <trkpt lat="47.17281" lon="0.17529">
        <ele>32.56</ele>
        <time>2023-06-10T01:36:50.462Z</time>
      </trkpt>
      <trkpt lat="47.17284" lon="0.1751">
        <ele>32.58</ele>
        <time>2023-06-10T01:37:18.912Z</time>
      </trkpt>
      <trkpt lat="47.17287" lon="0.17484">
        <ele>32.65</ele>
        <time>2023-06-10T01:37:47.365Z</time>
      </trkpt>
      <trkpt lat="47.17291" lon="0.17459">
        <ele>32.67</ele>
        <time>2023-06-10T01:38:15.821Z</time>
      </trkpt>
      <trkpt lat="47.17294" lon="0.17439">
        <ele>32.76</ele>
        <time>2023-06-10T01:38:44.279Z</time>
      </trkpt>
      <trkpt lat="47.17298" lon="0.17413">
        <ele>32.98</ele>
        <time>2023-06-10T01:39:12.740Z</time>
      </trkpt>
      <trkpt lat="47.173" lon="0.17401">
        <ele>33.02</ele>
        <time>2023-06-10T01:39:41.203Z</time>
      </trkpt>
      <trkpt lat="47.17302" lon="0.17388">
        <ele>33.03</ele>
        <time>2023-06-10T01:40:09.667Z</time>
      </trkpt>
      <trkpt lat="47.17304" lon="0.17371">
        <ele>33.01</ele>
        <time>2023-06-10T01:40:38.133Z</time>
      </trkpt>
      <trkpt lat="47.17316" lon="0.17312">
        <ele>32.94</ele>
        <time>2023-06-10T01:41:06.606Z</time>
      </trkpt>
      <trkpt lat="47.17321" lon="0.17286">
        <ele>32.93</ele>
        <time>2023-06-10T01:41:35.082Z</time>
      </trkpt>
      <trkpt lat="47.17331" lon="0.17236">
        <ele>32.77</ele>
        <time>2023-06-10T01:42:03.563Z</time>
      </trkpt>
      <trkpt lat="47.17342" lon="0.17179">
        <ele>32.69</ele>
        <time>2023-06-10T01:42:32.051Z</time>
      </trkpt>
      <trkpt lat="47.17346" lon="0.1716">
        <ele>32.73</ele>
        <time>2023-06-10T01:43:00.541Z</time>
      </trkpt>
      <trkpt lat="47.17353" lon="0.17122">
        <ele>32.88</ele>
        <time>2023-06-10T01:43:29.035Z</time>
      </trkpt>
      <trkpt lat="47.17356" lon="0.17109">
        <ele>32.91</ele>
        <time>2023-06-10T01:43:57.531Z</time>
      </trkpt>
      <trkpt lat="47.17357" lon="0.17102">
        <ele>32.9</ele>
        <time>2023-06-10T01:44:26.028Z</time>
      </trkpt>
      <trkpt lat="47.17364" lon="0.17058">
        <ele>32.87</ele>
        <time>2023-06-10T01:44:54.529Z</time>
      </trkpt>
      <trkpt lat="47.17368" lon="0.17036">
        <ele>32.81</ele>
        <time>2023-06-10T01:45:23.033Z</time>
      </trkpt>
      <trkpt lat="47.17369" lon="0.17033">
        <ele>32.81</ele>
        <time>2023-06-10T01:45:51.537Z</time>
      </trkpt>
      <trkpt lat="47.17371" lon="0.1702">
        <ele>32.81</ele>
        <time>2023-06-10T01:46:20.043Z</time>
      </trkpt>
      <trkpt lat="47.17375" lon="0.17001">
        <ele>32.85</ele>
        <time>2023-06-10T01:46:48.551Z</time>
      </trkpt>
      <trkpt lat="47.17383" lon="0.16964">
        <ele>33.01</ele>
        <time>2023-06-10T01:47:17.063Z</time>
      </trkpt>
      <trkpt lat="47.17385" lon="0.16956">
        <ele>33.03</ele>
        <time>2023-06-10T01:47:45.576Z</time>
      </trkpt>
      <trkpt lat="47.17388" lon="0.16945">
        <ele>33.06</ele>
        <time>2023-06-10T01:48:14.090Z</time>
      </trkpt>
      <trkpt lat="47.17392" lon="0.16933">
        <ele>33.06</ele>
        <time>2023-06-10T01:48:42.606Z</time>
      </trkpt>
      <trkpt lat="47.17401" lon="0.16903">
        <ele>33.01</ele>
        <time>2023-06-10T01:49:11.125Z</time>
      </trkpt>
      <trkpt lat="47.17405" lon="0.1689">
        <ele>33.04</ele>
        <time>2023-06-10T01:49:39.646Z</time>
      </trkpt>
      <trkpt lat="47.17412" lon="0.16875">
        <ele>33.08</ele>
        <time>2023-06-10T01:50:08.169Z</time>
      </trkpt>
      <trkpt lat="47.17418" lon="0.16862">
        <ele>33.08</ele>
        <time>2023-06-10T01:50:36.694Z</time>
      </trkpt>
      <trkpt lat="47.17428" lon="0.16852">
        <ele>33.09</ele>
        <time>2023-06-10T01:51:05.221Z</time>
      </trkpt>
      <trkpt lat="47.17435" lon="0.16844">
        <ele>33.06</ele>
        <time>2023-06-10T01:51:33.749Z</time>
      </trkpt>
      <trkpt lat="47.17449" lon="0.16829">
        <ele>32.97</ele>
        <time>2023-06-10T01:52:02.280Z</time>
      </trkpt>
      <trkpt lat="47.17453" lon="0.16825">
        <ele>32.96</ele>
        <time>2023-06-10T01:52:30.812Z</time>
      </trkpt>
      <trkpt lat="47.17456" lon="0.1682">
        <ele>32.96</ele>
        <time>2023-06-10T01:52:59.344Z</time>
      </trkpt>
      <trkpt lat="47.17467" lon="0.16799">
        <ele>32.98</ele>
        <time>2023-06-10T01:53:27.879Z</time>
      </trkpt>
      <trkpt lat="47.17472" lon="0.16788">
        <ele>32.97</ele>
        <time>2023-06-10T01:53:56.416Z</time>
      </trkpt>
      <trkpt lat="47.1749" lon="0.16755">
        <ele>32.9</ele>
        <time>2023-06-10T01:54:24.957Z</time>
      </trkpt>
      <trkpt lat="47.17512" lon="0.16709">
        <ele>32.82</ele>
        <time>2023-06-10T01:54:53.504Z</time>
      </trkpt>
      <trkpt lat="47.17525" lon="0.16682">
        <ele>32.73</ele>
        <time>2023-06-10T01:55:22.055Z</time>
      </trkpt>
      <trkpt lat="47.17535" lon="0.1666">
        <ele>32.71</ele>
        <time>2023-06-10T01:55:50.609Z</time>
      </trkpt>
      <trkpt lat="47.1754" lon="0.16642">
        <ele>32.71</ele>
        <time>2023-06-10T01:56:19.165Z</time>
      </trkpt>
      <trkpt lat="47.17557" lon="0.16588">
        <ele>32.53</ele>
        <time>2023-06-10T01:56:47.727Z</time>
      </trkpt>
      <trkpt lat="47.17564" lon="0.16564">
        <ele>32.47</ele>
        <time>2023-06-10T01:57:16.292Z</time>
      </trkpt>
      <trkpt lat="47.17578" lon="0.16517">
        <ele>32.47</ele>
        <time>2023-06-10T01:57:44.863Z</time>
      </trkpt>
      <trkpt lat="47.17586" lon="0.16485">
        <ele>32.47</ele>
        <time>2023-06-10T01:58:13.438Z</time>
      </trkpt>
      <trkpt lat="47.17594" lon="0.16447">
        <ele>32.43</ele>
        <time>2023-06-10T01:58:42.017Z</time>
      </trkpt>
      <trkpt lat="47.17602" lon="0.16416">
        <ele>32.46</ele>
        <time>2023-06-10T01:59:10.600Z</time>
      </trkpt>
      <trkpt lat="47.17608" lon="0.16391">
        <ele>32.42</ele>
        <time>2023-06-10T01:59:39.185Z</time>
      </trkpt>
      <trkpt lat="47.17615" lon="0.1636">
        <ele>32.42</ele>
        <time>2023-06-10T02:00:07.774Z</time>
      </trkpt>
      <trkpt lat="47.17622" lon="0.16329">
        <ele>32.39</ele>
        <time>2023-06-10T02:00:36.367Z</time>
      </trkpt>
      <trkpt lat="47.17631" lon="0.16292">
        <ele>32.3</ele>
        <time>2023-06-10T02:01:04.964Z</time>
      </trkpt>
      <trkpt lat="47.17632" lon="0.16288">
        <ele>32.29</ele>
        <time>2023-06-10T02:01:33.561Z</time>
      </trkpt>
      <trkpt lat="47.17639" lon="0.16268">
        <ele>32.29</ele>
        <time>2023-06-10T02:02:02.161Z</time>
      </trkpt>
      <trkpt lat="47.17646" lon="0.16251">
        <ele>32.24</ele>
        <time>2023-06-10T02:02:30.763Z</time>
      </trkpt>
      <trkpt lat="47.17665" lon="0.16199">
        <ele>32.27</ele>
        <time>2023-06-10T02:02:59.371Z</time>
      </trkpt>
      <trkpt lat="47.17676" lon="0.16171">
        <ele>32.23</ele>
        <time>2023-06-10T02:03:27.983Z</time>
      </trkpt>
      <trkpt lat="47.17688" lon="0.16138">
        <ele>32.25</ele>
        <time>2023-06-10T02:03:56.599Z</time>
      </trkpt>
      <trkpt lat="47.17689" lon="0.16136">
        <ele>32.26</ele>
        <time>2023-06-10T02:04:25.215Z</time>
      </trkpt>
      <trkpt lat="47.17701" lon="0.16109">
        <ele>32.31</ele>
        <time>2023-06-10T02:04:53.835Z</time>
      </trkpt>
      <trkpt lat="47.17706" lon="0.16097">
        <ele>32.29</ele>
        <time>2023-06-10T02:05:22.456Z</time>
      </trkpt>
      <trkpt lat="47.17713" lon="0.16081">
        <ele>32.22</ele>
        <time>2023-06-10T02:05:51.079Z</time>
      </trkpt>
      <trkpt lat="47.17718" lon="0.1607">
        <ele>32.21</ele>
        <time>2023-06-10T02:06:19.704Z</time>
      </trkpt>
      <trkpt lat="47.17727" lon="0.16048">
        <ele>32.26</ele>
        <time>2023-06-10T02:06:48.332Z</time>
      </trkpt>
      <trkpt lat="47.17728" lon="0.16046">
        <ele>32.25</ele>
        <time>2023-06-10T02:07:16.960Z</time>
      </trkpt>
      <trkpt lat="47.17739" lon="0.16013">
        <ele>32.25</ele>
        <time>2023-06-10T02:07:45.592Z</time>
      </trkpt>
      <trkpt lat="47.17753" lon="0.15971">
        <ele>32.34</ele>
        <time>2023-06-10T02:08:14.229Z</time>
      </trkpt>
      <trkpt lat="47.17757" lon="0.15959">
        <ele>32.33</ele>
        <time>2023-06-10T02:08:42.867Z</time>
      </trkpt>
      <trkpt lat="47.17765" lon="0.15936">
        <ele>32.24</ele>
        <time>2023-06-10T02:09:11.508Z</time>
      </trkpt>
      <trkpt lat="47.17776" lon="0.15901">
        <ele>32.13</ele>
        <time>2023-06-10T02:09:40.154Z</time>
      </trkpt>
      <trkpt lat="47.17778" lon="0.15894">
        <ele>32.12</ele>
        <time>2023-06-10T02:10:08.800Z</time>
      </trkpt>
      <trkpt lat="47.17781" lon="0.15882">
        <ele>32.13</ele>
        <time>2023-06-10T02:10:37.448Z</time>
      </trkpt>
      <trkpt lat="47.17785" lon="0.15863">
        <ele>32.21</ele>
        <time>2023-06-10T02:11:06.098Z</time>
      </trkpt>
      <trkpt lat="47.1779" lon="0.15845">
        <ele>32.24</ele>
        <time>2023-06-10T02:11:34.750Z</time>
      </trkpt>
      <trkpt lat="47.17793" lon="0.15832">
        <ele>32.22</ele>
        <time>2023-06-10T02:12:03.404Z</time>
      </trkpt>
      <trkpt lat="47.17802" lon="0.15795">
        <ele>32.08</ele>
        <time>2023-06-10T02:12:32.062Z</time>
      </trkpt>
      <trkpt lat="47.1781" lon="0.15764">
        <ele>32.06</ele>
        <time>2023-06-10T02:13:00.723Z</time>
      </trkpt>
      <trkpt lat="47.17813" lon="0.15752">
        <ele>32.12</ele>
        <time>2023-06-10T02:13:29.386Z</time>
      </trkpt>
      <trkpt lat="47.17816" lon="0.1574">
        <ele>32.12</ele>
        <time>2023-06-10T02:13:58.050Z</time>
      </trkpt>
      <trkpt lat="47.17824" lon="0.15709">
        <ele>31.95</ele>
        <time>2023-06-10T02:14:26.718Z</time>
      </trkpt>
      <trkpt lat="47.17828" lon="0.1569">
        <ele>31.92</ele>
        <time>2023-06-10T02:14:55.388Z</time>
      </trkpt>
      <trkpt lat="47.17831" lon="0.15677">
        <ele>31.94</ele>
        <time>2023-06-10T02:15:24.060Z</time>
      </trkpt>
      <trkpt lat="47.17832" lon="0.15675">
        <ele>31.94</ele>
        <time>2023-06-10T02:15:52.732Z</time>
      </trkpt>
      <trkpt lat="47.17838" lon="0.15646">
        <ele>32.03</ele>
        <time>2023-06-10T02:16:21.407Z</time>
      </trkpt>
      <trkpt lat="47.17843" lon="0.1562">
        <ele>32.02</ele>
        <time>2023-06-10T02:16:50.085Z</time>
      </trkpt>
      <trkpt lat="47.17851" lon="0.15576">
        <ele>32.05</ele>
        <time>2023-06-10T02:17:18.768Z</time>
      </trkpt>
      <trkpt lat="47.17855" lon="0.15557">
        <ele>32.02</ele>
        <time>2023-06-10T02:17:47.453Z</time>
      </trkpt>
      <trkpt lat="47.17858" lon="0.15542">
        <ele>31.96</ele>
        <time>2023-06-10T02:18:16.140Z</time>
      </trkpt>
      <trkpt lat="47.1786" lon="0.15531">
        <ele>31.92</ele>
        <time>2023-06-10T02:18:44.828Z</time>
      </trkpt>
      <trkpt lat="47.17862" lon="0.15518">
        <ele>31.91</ele>
        <time>2023-06-10T02:19:13.518Z</time>
      </trkpt>
      <trkpt lat="47.17868" lon="0.1548">
        <ele>31.97</ele>
        <time>2023-06-10T02:19:42.212Z</time>
      </trkpt>
      <trkpt lat="47.17875" lon="0.15435">
        <ele>32.13</ele>
        <time>2023-06-10T02:20:10.911Z</time>
      </trkpt>
      <trkpt lat="47.17879" lon="0.15409">
        <ele>32.15</ele>
        <time>2023-06-10T02:20:39.613Z</time>
      </trkpt>
      <trkpt lat="47.1788" lon="0.15405">
        <ele>32.15</ele>
        <time>2023-06-10T02:21:08.315Z</time>
      </trkpt>
      <trkpt lat="47.17884" lon="0.15376">
        <ele>32.15</ele>
        <time>2023-06-10T02:21:37.020Z</time>
      </trkpt>
      <trkpt lat="47.17887" lon="0.1535">
        <ele>32.11</ele>
        <time>2023-06-10T02:22:05.728Z</time>
      </trkpt>
      <trkpt lat="47.17891" lon="0.15318">
        <ele>32.12</ele>
        <time>2023-06-10T02:22:34.440Z</time>
      </trkpt>
      <trkpt lat="47.17893" lon="0.15299">
        <ele>32.1</ele>
        <time>2023-06-10T02:23:03.154Z</time>
      </trkpt>
      <trkpt lat="47.17895" lon="0.15278">
        <ele>32.08</ele>
        <time>2023-06-10T02:23:31.870Z</time>
      </trkpt>
      <trkpt lat="47.17897" lon="0.15252">
        <ele>32.08</ele>
        <time>2023-06-10T02:24:00.589Z</time>
      </trkpt>
      <trkpt lat="47.179" lon="0.15219">
        <ele>32.04</ele>
        <time>2023-06-10T02:24:29.312Z</time>
      </trkpt>
      <trkpt lat="47.17904" lon="0.1518">
        <ele>32.12</ele>
        <time>2023-06-10T02:24:58.039Z</time>
      </trkpt>
      <trkpt lat="47.17904" lon="0.15175">
        <ele>32.11</ele>
        <time>2023-06-10T02:25:26.767Z</time>
      </trkpt>
      <trkpt lat="47.1791" lon="0.15128">
        <ele>32.11</ele>
        <time>2023-06-10T02:25:55.500Z</time>
      </trkpt>
      <trkpt lat="47.17914" lon="0.15091">
        <ele>32.13</ele>
        <time>2023-06-10T02:26:24.237Z</time>
      </trkpt>
      <trkpt lat="47.17915" lon="0.15082">
        <ele>32.14</ele>
        <time>2023-06-10T02:26:52.975Z</time>
      </trkpt>
      <trkpt lat="47.17929" lon="0.15001">
        <ele>31.93</ele>
        <time>2023-06-10T02:27:21.722Z</time>
      </trkpt>
      <trkpt lat="47.1793" lon="0.14999">
        <ele>31.93</ele>
        <time>2023-06-10T02:27:50.469Z</time>
      </trkpt>
      <trkpt lat="47.17938" lon="0.14968">
        <ele>31.93</ele>
        <time>2023-06-10T02:28:19.220Z</time>
      </trkpt>
      <trkpt lat="47.17946" lon="0.14937">
        <ele>31.83</ele>
        <time>2023-06-10T02:28:47.975Z</time>
      </trkpt>
      <trkpt lat="47.1795" lon="0.14919">
        <ele>31.8</ele>
        <time>2023-06-10T02:29:16.732Z</time>
      </trkpt>
      <trkpt lat="47.17951" lon="0.14916">
        <ele>31.8</ele>
        <time>2023-06-10T02:29:45.489Z</time>
      </trkpt>
      <trkpt lat="47.17952" lon="0.14879">
        <ele>31.82</ele>
        <time>2023-06-10T02:30:14.250Z</time>
      </trkpt>
      <trkpt lat="47.17954" lon="0.14846">
        <ele>31.89</ele>
        <time>2023-06-10T02:30:43.015Z</time>
      </trkpt>
      <trkpt lat="47.17954" lon="0.14835">
        <ele>31.89</ele>
        <time>2023-06-10T02:31:11.781Z</time>
      </trkpt>
      <trkpt lat="47.17954" lon="0.14833">
        <ele>31.9</ele>
        <time>2023-06-10T02:31:40.547Z</time>
      </trkpt>
      <trkpt lat="47.17957" lon="0.14807">
        <ele>31.85</ele>
        <time>2023-06-10T02:32:09.316Z</time>
      </trkpt>
      <trkpt lat="47.17961" lon="0.14774">
        <ele>31.74</ele>
        <time>2023-06-10T02:32:38.089Z</time>
      </trkpt>
      <trkpt lat="47.17963" lon="0.14761">
        <ele>31.73</ele>
        <time>2023-06-10T02:33:06.863Z</time>
      </trkpt>
      <trkpt lat="47.17968" lon="0.14718">
        <ele>31.82</ele>
        <time>2023-06-10T02:33:35.642Z</time>
      </trkpt>
      <trkpt lat="47.17969" lon="0.14702">
        <ele>31.86</ele>
        <time>2023-06-10T02:34:04.423Z</time>
      </trkpt>
      <trkpt lat="47.1797" lon="0.14669">
        <ele>31.85</ele>
        <time>2023-06-10T02:34:33.207Z</time>
      </trkpt>
      <trkpt lat="47.17971" lon="0.14643">
        <ele>31.87</ele>
        <time>2023-06-10T02:35:01.994Z</time>
      </trkpt>
      <trkpt lat="47.17971" lon="0.14638">
        <ele>31.85</ele>
        <time>2023-06-10T02:35:30.782Z</time>
      </trkpt>
      <trkpt lat="47.17973" lon="0.1461">
        <ele>31.8</ele>
        <time>2023-06-10T02:35:59.573Z</time>
      </trkpt>
      <trkpt lat="47.17977" lon="0.14564">
        <ele>31.75</ele>
        <time>2023-06-10T02:36:28.369Z</time>
      </trkpt>
      <trkpt lat="47.17978" lon="0.1455">
        <ele>31.74</ele>
        <time>2023-06-10T02:36:57.166Z</time>
      </trkpt>
      <trkpt lat="47.17981" lon="0.14525">
        <ele>31.74</ele>
        <time>2023-06-10T02:37:25.966Z</time>
      </trkpt>
      <trkpt lat="47.17984" lon="0.14506">
        <ele>31.67</ele>
        <time>2023-06-10T02:37:54.768Z</time>
      </trkpt>
      <trkpt lat="47.17987" lon="0.1448">
        <ele>31.68</ele>
        <time>2023-06-10T02:38:23.573Z</time>
      </trkpt>
      <trkpt lat="47.17989" lon="0.14463">
        <ele>31.71</ele>
        <time>2023-06-10T02:38:52.380Z</time>
      </trkpt>
      <trkpt lat="47.1799" lon="0.14454">
        <ele>31.73</ele>
        <time>2023-06-10T02:39:21.188Z</time>
      </trkpt>
      <trkpt lat="47.17992" lon="0.14428">
        <ele>31.72</ele>
        <time>2023-06-10T02:39:49.999Z</time>
      </trkpt>
      <trkpt lat="47.17994" lon="0.14402">
        <ele>31.76</ele>
        <time>2023-06-10T02:40:18.813Z</time>
      </trkpt>
      <trkpt lat="47.17997" lon="0.14362">
        <ele>31.75</ele>
        <time>2023-06-10T02:40:47.631Z</time>
      </trkpt>
      <trkpt lat="47.17999" lon="0.14343">
        <ele>31.78</ele>
        <time>2023-06-10T02:41:16.451Z</time>
      </trkpt>
      <trkpt lat="47.18001" lon="0.14317">
        <ele>31.78</ele>
        <time>2023-06-10T02:41:45.274Z</time>
      </trkpt>
      <trkpt lat="47.18003" lon="0.14288">
        <ele>31.8</ele>
        <time>2023-06-10T02:42:14.100Z</time>
      </trkpt>
      <trkpt lat="47.18003" lon="0.14284">
        <ele>31.81</ele>
        <time>2023-06-10T02:42:42.927Z</time>
      </trkpt>
      <trkpt lat="47.18006" lon="0.14226">
        <ele>31.72</ele>
        <time>2023-06-10T02:43:11.760Z</time>
      </trkpt>
      <trkpt lat="47.18007" lon="0.14219">
        <ele>31.71</ele>
        <time>2023-06-10T02:43:40.594Z</time>
      </trkpt>
      <trkpt lat="47.1801" lon="0.14186">
        <ele>31.77</ele>
        <time>2023-06-10T02:44:09.431Z</time>
      </trkpt>
      <trkpt lat="47.18013" lon="0.14161">
        <ele>31.87</ele>
        <time>2023-06-10T02:44:38.271Z</time>
      </trkpt>
      <trkpt lat="47.18014" lon="0.14148">
        <ele>31.9</ele>
        <time>2023-06-10T02:45:07.113Z</time>
      </trkpt>
      <trkpt lat="47.18016" lon="0.14135">
        <ele>31.87</ele>
        <time>2023-06-10T02:45:35.956Z</time>
      </trkpt>
      <trkpt lat="47.1802" lon="0.14096">
        <ele>31.71</ele>
        <time>2023-06-10T02:46:04.803Z</time>
      </trkpt>
      <trkpt lat="47.1802" lon="0.14093">
        <ele>31.71</ele>
        <time>2023-06-10T02:46:33.651Z</time>
      </trkpt>
      <trkpt lat="47.18023" lon="0.1405">
        <ele>31.78</ele>
        <time>2023-06-10T02:47:02.503Z</time>
      </trkpt>
      <trkpt lat="47.18025" lon="0.14019">
        <ele>31.69</ele>
        <time>2023-06-10T02:47:31.359Z</time>
      </trkpt>
      <trkpt lat="47.18024" lon="0.14004">
        <ele>31.66</ele>
        <time>2023-06-10T02:48:00.216Z</time>
      </trkpt>
      <trkpt lat="47.18024" lon="0.13991">
        <ele>31.66</ele>
        <time>2023-06-10T02:48:29.075Z</time>
      </trkpt>
      <trkpt lat="47.18023" lon="0.13968">
        <ele>31.73</ele>
        <time>2023-06-10T02:48:57.936Z</time>
      </trkpt>
      <trkpt lat="47.18023" lon="0.13966">
        <ele>31.73</ele>
        <time>2023-06-10T02:49:26.798Z</time>
      </trkpt>
      <trkpt lat="47.1802" lon="0.13953">
        <ele>31.75</ele>
        <time>2023-06-10T02:49:55.661Z</time>
      </trkpt>
      <trkpt lat="47.18014" lon="0.13928">
        <ele>31.62</ele>
        <time>2023-06-10T02:50:24.527Z</time>
      </trkpt>
      <trkpt lat="47.18012" lon="0.1392">
        <ele>31.59</ele>
        <time>2023-06-10T02:50:53.394Z</time>
      </trkpt>
      <trkpt lat="47.18012" lon="0.13915">
        <ele>31.58</ele>
        <time>2023-06-10T02:51:22.261Z</time>
      </trkpt>
      <trkpt lat="47.18011" lon="0.13902">
        <ele>31.57</ele>
        <time>2023-06-10T02:51:51.130Z</time>
      </trkpt>
      <trkpt lat="47.18009" lon="0.13881">
        <ele>31.6</ele>
        <time>2023-06-10T02:52:20.001Z</time>
      </trkpt>
      <trkpt lat="47.1801" lon="0.13869">
        <ele>31.63</ele>
        <time>2023-06-10T02:52:48.873Z</time>
      </trkpt>
      <trkpt lat="47.18012" lon="0.13837">
        <ele>31.59</ele>
        <time>2023-06-10T02:53:17.749Z</time>
      </trkpt>
      <trkpt lat="47.18013" lon="0.13824">
        <ele>31.59</ele>
        <time>2023-06-10T02:53:46.626Z</time>
      </trkpt>
      <trkpt lat="47.18016" lon="0.13784">
        <ele>31.68</ele>
        <time>2023-06-10T02:54:15.508Z</time>
      </trkpt>
      <trkpt lat="47.1802" lon="0.13725">
        <ele>31.54</ele>
        <time>2023-06-10T02:54:44.396Z</time>
      </trkpt>
      <trkpt lat="47.18022" lon="0.13712">
        <ele>31.52</ele>
        <time>2023-06-10T02:55:13.286Z</time>
      </trkpt>
      <trkpt lat="47.18024" lon="0.13693">
        <ele>31.52</ele>
        <time>2023-06-10T02:55:42.178Z</time>
      </trkpt>
      <trkpt lat="47.18029" lon="0.13654">
        <ele>31.59</ele>
        <time>2023-06-10T02:56:11.074Z</time>
      </trkpt>
      <trkpt lat="47.18031" lon="0.13641">
        <ele>31.58</ele>
        <time>2023-06-10T02:56:39.972Z</time>
      </trkpt>
      <trkpt lat="47.18032" lon="0.13633">
        <ele>31.56</ele>
        <time>2023-06-10T02:57:08.870Z</time>
      </trkpt>
      <trkpt lat="47.18036" lon="0.13609">
        <ele>31.5</ele>
        <time>2023-06-10T02:57:37.771Z</time>
      </trkpt>
      <trkpt lat="47.18039" lon="0.1359">
        <ele>31.48</ele>
        <time>2023-06-10T02:58:06.674Z</time>
      </trkpt>
      <trkpt lat="47.18042" lon="0.1357">
        <ele>31.5</ele>
        <time>2023-06-10T02:58:35.579Z</time>
      </trkpt>
      <trkpt lat="47.18045" lon="0.13545">
        <ele>31.58</ele>
        <time>2023-06-10T02:59:04.487Z</time>
      </trkpt>
      <trkpt lat="47.18047" lon="0.13532">
        <ele>31.59</ele>
        <time>2023-06-10T02:59:33.397Z</time>
      </trkpt>
      <trkpt lat="47.18048" lon="0.13525">
        <ele>31.57</ele>
        <time>2023-06-10T03:00:02.308Z</time>
      </trkpt>
      <trkpt lat="47.18052" lon="0.13499">
        <ele>31.41</ele>
        <time>2023-06-10T03:00:31.221Z</time>
      </trkpt>
      <trkpt lat="47.18053" lon="0.13495">
        <ele>31.39</ele>
        <time>2023-06-10T03:01:00.135Z</time>
      </trkpt>
      <trkpt lat="47.18053" lon="0.13486">
        <ele>31.36</ele>
        <time>2023-06-10T03:01:29.050Z</time>
      </trkpt>
      <trkpt lat="47.18051" lon="0.13447">
        <ele>31.3</ele>
        <time>2023-06-10T03:01:57.969Z</time>
      </trkpt>
      <trkpt lat="47.1805" lon="0.13421">
        <ele>31.3</ele>
        <time>2023-06-10T03:02:26.891Z</time>
      </trkpt>
      <trkpt lat="47.18049" lon="0.13401">
        <ele>31.27</ele>
        <time>2023-06-10T03:02:55.815Z</time>
      </trkpt>
      <trkpt lat="47.18048" lon="0.13364">
        <ele>31.31</ele>
        <time>2023-06-10T03:03:24.743Z</time>
      </trkpt>
      <trkpt lat="47.18048" lon="0.13328">
        <ele>31.35</ele>
        <time>2023-06-10T03:03:53.675Z</time>
      </trkpt>
      <trkpt lat="47.18048" lon="0.13289">
        <ele>31.47</ele>
        <time>2023-06-10T03:04:22.611Z</time>
      </trkpt>
      <trkpt lat="47.18048" lon="0.13283">
        <ele>31.47</ele>
        <time>2023-06-10T03:04:51.548Z</time>
      </trkpt>
      <trkpt lat="47.18048" lon="0.13276">
        <ele>31.49</ele>
        <time>2023-06-10T03:05:20.486Z</time>
      </trkpt>
      <trkpt lat="47.18051" lon="0.13236">
        <ele>31.44</ele>
        <time>2023-06-10T03:05:49.428Z</time>
      </trkpt>
      <trkpt lat="47.18053" lon="0.1321">
        <ele>31.43</ele>
        <time>2023-06-10T03:06:18.373Z</time>
      </trkpt>
      <trkpt lat="47.18053" lon="0.13207">
        <ele>31.42</ele>
        <time>2023-06-10T03:06:47.318Z</time>
      </trkpt>
      <trkpt lat="47.18056" lon="0.13177">
        <ele>31.33</ele>
        <time>2023-06-10T03:07:16.267Z</time>
      </trkpt>
      <trkpt lat="47.18057" lon="0.13164">
        <ele>31.31</ele>
        <time>2023-06-10T03:07:45.217Z</time>
      </trkpt>
      <trkpt lat="47.18059" lon="0.13152">
        <ele>31.32</ele>
        <time>2023-06-10T03:08:14.169Z</time>
      </trkpt>
      <trkpt lat="47.18059" lon="0.1315">
        <ele>31.32</ele>
        <time>2023-06-10T03:08:43.121Z</time>
      </trkpt>
      <trkpt lat="47.18064" lon="0.13119">
        <ele>31.41</ele>
        <time>2023-06-10T03:09:12.076Z</time>
      </trkpt>
      <trkpt lat="47.18065" lon="0.13106">
        <ele>31.42</ele>
        <time>2023-06-10T03:09:41.033Z</time>
      </trkpt>
      <trkpt lat="47.18067" lon="0.13096">
        <ele>31.39</ele>
        <time>2023-06-10T03:10:09.991Z</time>
      </trkpt>
      <trkpt lat="47.18069" lon="0.13087">
        <ele>31.38</ele>
        <time>2023-06-10T03:10:38.950Z</time>
      </trkpt>
      <trkpt lat="47.18077" lon="0.13056">
        <ele>31.26</ele>
        <time>2023-06-10T03:11:07.912Z</time>
      </trkpt>
      <trkpt lat="47.1808" lon="0.13044">
        <ele>31.25</ele>
        <time>2023-06-10T03:11:36.876Z</time>
      </trkpt>
      <trkpt lat="47.18087" lon="0.13013">
        <ele>31.27</ele>
        <time>2023-06-10T03:12:05.843Z</time>
      </trkpt>
      <trkpt lat="47.18096" lon="0.12976">
        <ele>31.22</ele>
        <time>2023-06-10T03:12:34.815Z</time>
      </trkpt>
      <trkpt lat="47.18097" lon="0.12971">
        <ele>31.22</ele>
        <time>2023-06-10T03:13:03.787Z</time>
      </trkpt>
      <trkpt lat="47.18103" lon="0.12939">
        <ele>31.22</ele>
        <time>2023-06-10T03:13:32.763Z</time>
      </trkpt>
      <trkpt lat="47.18105" lon="0.12927">
        <ele>31.2</ele>
        <time>2023-06-10T03:14:01.740Z</time>
      </trkpt>
      <trkpt lat="47.18108" lon="0.12908">
        <ele>31.13</ele>
        <time>2023-06-10T03:14:30.719Z</time>
      </trkpt>
      <trkpt lat="47.18111" lon="0.12896">
        <ele>31.11</ele>
        <time>2023-06-10T03:14:59.700Z</time>
      </trkpt>
      <trkpt lat="47.18114" lon="0.12877">
        <ele>31.14</ele>
        <time>2023-06-10T03:15:28.683Z</time>
      </trkpt>
      <trkpt lat="47.18117" lon="0.1286">
        <ele>31.2</ele>
        <time>2023-06-10T03:15:57.668Z</time>
      </trkpt>
      <trkpt lat="47.18117" lon="0.12852">
        <ele>31.23</ele>
        <time>2023-06-10T03:16:26.654Z</time>
      </trkpt>
      <trkpt lat="47.18119" lon="0.12813">
        <ele>31.06</ele>
        <time>2023-06-10T03:16:55.644Z</time>
      </trkpt>
      <trkpt lat="47.18119" lon="0.12808">
        <ele>31.04</ele>
        <time>2023-06-10T03:17:24.634Z</time>
      </trkpt>
      <trkpt lat="47.18119" lon="0.128">
        <ele>31.02</ele>
        <time>2023-06-10T03:17:53.625Z</time>
      </trkpt>
      <trkpt lat="47.18118" lon="0.12787">
        <ele>31.02</ele>
        <time>2023-06-10T03:18:22.618Z</time>
      </trkpt>
      <trkpt lat="47.18118" lon="0.12774">
        <ele>31.05</ele>
        <time>2023-06-10T03:18:51.612Z</time>
      </trkpt>
      <trkpt lat="47.18117" lon="0.12747">
        <ele>31.19</ele>
        <time>2023-06-10T03:19:20.609Z</time>
      </trkpt>
      <trkpt lat="47.18116" lon="0.12734">
        <ele>31.27</ele>
        <time>2023-06-10T03:19:49.607Z</time>
      </trkpt>
      <trkpt lat="47.18115" lon="0.12708">
        <ele>31.5</ele>
        <time>2023-06-10T03:20:18.608Z</time>
      </trkpt>
      <trkpt lat="47.18115" lon="0.12695">
        <ele>31.58</ele>
        <time>2023-06-10T03:20:47.611Z</time>
      </trkpt>
      <trkpt lat="47.18114" lon="0.12679">
        <ele>31.63</ele>
        <time>2023-06-10T03:21:16.616Z</time>
      </trkpt>
      <trkpt lat="47.18114" lon="0.12675">
        <ele>31.65</ele>
        <time>2023-06-10T03:21:45.621Z</time>
      </trkpt>
      <trkpt lat="47.18115" lon="0.12649">
        <ele>31.69</ele>
        <time>2023-06-10T03:22:14.629Z</time>
      </trkpt>
      <trkpt lat="47.18116" lon="0.12623">
        <ele>31.76</ele>
        <time>2023-06-10T03:22:43.640Z</time>
      </trkpt>
      <trkpt lat="47.18116" lon="0.12614">
        <ele>31.75</ele>
        <time>2023-06-10T03:23:12.652Z</time>
      </trkpt>
      <trkpt lat="47.18118" lon="0.1259">
        <ele>31.73</ele>
        <time>2023-06-10T03:23:41.666Z</time>
      </trkpt>
      <trkpt lat="47.1812" lon="0.12577">
        <ele>31.74</ele>
        <time>2023-06-10T03:24:10.682Z</time>
      </trkpt>
      <trkpt lat="47.18122" lon="0.12551">
        <ele>31.81</ele>
        <time>2023-06-10T03:24:39.701Z</time>
      </trkpt>
      <trkpt lat="47.18123" lon="0.12538">
        <ele>31.81</ele>
        <time>2023-06-10T03:25:08.721Z</time>
      </trkpt>
      <trkpt lat="47.18124" lon="0.12525">
        <ele>31.77</ele>
        <time>2023-06-10T03:25:37.742Z</time>
      </trkpt>
      <trkpt lat="47.18126" lon="0.12509">
        <ele>31.67</ele>
        <time>2023-06-10T03:26:06.765Z</time>
      </trkpt>
      <trkpt lat="47.18126" lon="0.12506">
        <ele>31.65</ele>
        <time>2023-06-10T03:26:35.789Z</time>
      </trkpt>
      <trkpt lat="47.18126" lon="0.12492">
        <ele>31.62</ele>
        <time>2023-06-10T03:27:04.814Z</time>
      </trkpt>
      <trkpt lat="47.18127" lon="0.12479">
        <ele>31.65</ele>
        <time>2023-06-10T03:27:33.840Z</time>
      </trkpt>
      <trkpt lat="47.18127" lon="0.1247">
        <ele>31.69</ele>
        <time>2023-06-10T03:28:02.867Z</time>
      </trkpt>
      <trkpt lat="47.18121" lon="0.12449">
        <ele>31.82</ele>
        <time>2023-06-10T03:28:31.897Z</time>
      </trkpt>
      <trkpt lat="47.18121" lon="0.12448">
        <ele>31.82</ele>
        <time>2023-06-10T03:29:00.927Z</time>
      </trkpt>
      <trkpt lat="47.18104" lon="0.12418">
        <ele>31.96</ele>
        <time>2023-06-10T03:29:29.961Z</time>
      </trkpt>
      <trkpt lat="47.18095" lon="0.12403">
        <ele>32.08</ele>
        <time>2023-06-10T03:29:58.997Z</time>
      </trkpt>
      <trkpt lat="47.18084" lon="0.12382">
        <ele>32.18</ele>
        <time>2023-06-10T03:30:28.036Z</time>
      </trkpt>
      <trkpt lat="47.18084" lon="0.12382">
        <ele>32.18</ele>
        <time>2023-06-10T03:30:57.075Z</time>
      </trkpt>
      <trkpt lat="47.18079" lon="0.12372">
        <ele>32.26</ele>
        <time>2023-06-10T03:31:26.116Z</time>
      </trkpt>
      <trkpt lat="47.18073" lon="0.12361">
        <ele>32.39</ele>
        <time>2023-06-10T03:31:55.158Z</time>
      </trkpt>
      <trkpt lat="47.18068" lon="0.12351">
        <ele>32.58</ele>
        <time>2023-06-10T03:32:24.202Z</time>
      </trkpt>
      <trkpt lat="47.18052" lon="0.12319">
        <ele>33.35</ele>
        <time>2023-06-10T03:32:53.250Z</time>
      </trkpt>
      <trkpt lat="47.18045" lon="0.12305">
        <ele>33.53</ele>
        <time>2023-06-10T03:33:22.300Z</time>
      </trkpt>
      <trkpt lat="47.18037" lon="0.12291">
        <ele>33.83</ele>
        <time>2023-06-10T03:33:51.352Z</time>
      </trkpt>
      <trkpt lat="47.18034" lon="0.12284">
        <ele>33.94</ele>
        <time>2023-06-10T03:34:20.405Z</time>
      </trkpt>
      <trkpt lat="47.1803" lon="0.12277">
        <ele>34.07</ele>
        <time>2023-06-10T03:34:49.459Z</time>
      </trkpt>
      <trkpt lat="47.18018" lon="0.12257">
        <ele>34.08</ele>
        <time>2023-06-10T03:35:18.516Z</time>
      </trkpt>
      <trkpt lat="47.1801" lon="0.12243">
        <ele>34.11</ele>
        <time>2023-06-10T03:35:47.575Z</time>
      </trkpt>
      <trkpt lat="47.18023" lon="0.12223">
        <ele>34.17</ele>
        <time>2023-06-10T03:36:16.637Z</time>
      </trkpt>
      <trkpt lat="47.18039" lon="0.12201">
        <ele>34.3</ele>
        <time>2023-06-10T03:36:45.702Z</time>
      </trkpt>
      <trkpt lat="47.18045" lon="0.1219">
        <ele>34.36</ele>
        <time>2023-06-10T03:37:14.769Z</time>
      </trkpt>
      <trkpt lat="47.18069" lon="0.12143">
        <ele>34.71</ele>
        <time>2023-06-10T03:37:43.842Z</time>
      </trkpt>
      <trkpt lat="47.18074" lon="0.12133">
        <ele>45.11</ele>
        <time>2023-06-10T03:38:12.916Z</time>
      </trkpt>
      <trkpt lat="47.18081" lon="0.12118">
        <ele>45.28</ele>
        <time>2023-06-10T03:38:41.992Z</time>
      </trkpt>
      <trkpt lat="47.18087" lon="0.12107">
        <ele>45.45</ele>
        <time>2023-06-10T03:39:11.070Z</time>
      </trkpt>
      <trkpt lat="47.18087" lon="0.12107">
        <ele>45.45</ele>
        <time>2023-06-10T03:39:40.148Z</time>
      </trkpt>
      <trkpt lat="47.18081" lon="0.12099">
        <ele>45.7</ele>
        <time>2023-06-10T03:40:09.227Z</time>
      </trkpt>
      <trkpt lat="47.18077" lon="0.12102">
        <ele>45.83</ele>
        <time>2023-06-10T03:40:38.307Z</time>
      </trkpt>
      <trkpt lat="47.1807" lon="0.12108">
        <ele>46.16</ele>
        <time>2023-06-10T03:41:07.388Z</time>
      </trkpt>
      <trkpt lat="47.18066" lon="0.12111">
        <ele>46.35</ele>
        <time>2023-06-10T03:41:36.470Z</time>
      </trkpt>
      <trkpt lat="47.18066" lon="0.12111">
        <ele>46.35</ele>
        <time>2023-06-10T03:42:05.552Z</time>
      </trkpt>
      <trkpt lat="47.18062" lon="0.12113">
        <ele>46.58</ele>
        <time>2023-06-10T03:42:34.635Z</time>
      </trkpt>
      <trkpt lat="47.18058" lon="0.12115">
        <ele>46.84</ele>
        <time>2023-06-10T03:43:03.718Z</time>
      </trkpt>
      <trkpt lat="47.18054" lon="0.12118">
        <ele>47.14</ele>
        <time>2023-06-10T03:43:32.802Z</time>
      </trkpt>
      <trkpt lat="47.18051" lon="0.12119">
        <ele>47.35</ele>
        <time>2023-06-10T03:44:01.887Z</time>
      </trkpt>
      <trkpt lat="47.18038" lon="0.12129">
        <ele>48.4</ele>
        <time>2023-06-10T03:44:30.974Z</time>
      </trkpt>
      <trkpt lat="47.18038" lon="0.12129">
        <ele>48.4</ele>
        <time>2023-06-10T03:45:00.061Z</time>
      </trkpt>
      <trkpt lat="47.18024" lon="0.12143">
        <ele>49.43</ele>
        <time>2023-06-10T03:45:29.151Z</time>
      </trkpt>
      <trkpt lat="47.18017" lon="0.1215">
        <ele>49.97</ele>
        <time>2023-06-10T03:45:58.242Z</time>
      </trkpt>
      <trkpt lat="47.18009" lon="0.12157">
        <ele>51.02</ele>
        <time>2023-06-10T03:46:27.334Z</time>
      </trkpt>
      <trkpt lat="47.18005" lon="0.12159">
        <ele>51.5</ele>
        <time>2023-06-10T03:46:56.427Z</time>
      </trkpt>
      <trkpt lat="47.18001" lon="0.12161">
        <ele>51.98</ele>
        <time>2023-06-10T03:47:25.521Z</time>
      </trkpt>
      <trkpt lat="47.18001" lon="0.12161">
        <ele>51.98</ele>
        <time>2023-06-10T03:47:54.615Z</time>
      </trkpt>
      <trkpt lat="47.17997" lon="0.12164">
        <ele>52.43</ele>
        <time>2023-06-10T03:48:23.710Z</time>
      </trkpt>
      <trkpt lat="47.17993" lon="0.12167">
        <ele>52.82</ele>
        <time>2023-06-10T03:48:52.805Z</time>
      </trkpt>
      <trkpt lat="47.1799" lon="0.1217">
        <ele>53.18</ele>
        <time>2023-06-10T03:49:21.901Z</time>
      </trkpt>
      <trkpt lat="47.1799" lon="0.12171">
        <ele>53.18</ele>
        <time>2023-06-10T03:49:50.997Z</time>
      </trkpt>
      <trkpt lat="47.17987" lon="0.12175">
        <ele>53.48</ele>
        <time>2023-06-10T03:50:20.094Z</time>
      </trkpt>
      <trkpt lat="47.17983" lon="0.1218">
        <ele>53.73</ele>
        <time>2023-06-10T03:50:49.191Z</time>
      </trkpt>
      <trkpt lat="47.17974" lon="0.12194">
        <ele>54.37</ele>
        <time>2023-06-10T03:51:18.290Z</time>
      </trkpt>
      <trkpt lat="47.17972" lon="0.12197">
        <ele>54.53</ele>
        <time>2023-06-10T03:51:47.390Z</time>
      </trkpt>
      <trkpt lat="47.17971" lon="0.12198">
        <ele>54.61</ele>
        <time>2023-06-10T03:52:16.490Z</time>
      </trkpt>
      <trkpt lat="47.17968" lon="0.12203">
        <ele>54.88</ele>
        <time>2023-06-10T03:52:45.591Z</time>
      </trkpt>
      <trkpt lat="47.1796" lon="0.12218">
        <ele>55.85</ele>
        <time>2023-06-10T03:53:14.694Z</time>
      </trkpt>
      <trkpt lat="47.1794" lon="0.12251">
        <ele>59.5</ele>
        <time>2023-06-10T03:53:43.802Z</time>
      </trkpt>
      <trkpt lat="47.17939" lon="0.12252">
        <ele>59.69</ele>
        <time>2023-06-10T03:54:12.910Z</time>
      </trkpt>
      <trkpt lat="47.17931" lon="0.12258">
        <ele>60.84</ele>
        <time>2023-06-10T03:54:42.019Z</time>
      </trkpt>
      <trkpt lat="47.17927" lon="0.12261">
        <ele>61.47</ele>
        <time>2023-06-10T03:55:11.129Z</time>
      </trkpt>
      <trkpt lat="47.17923" lon="0.12265">
        <ele>62.13</ele>
        <time>2023-06-10T03:55:40.240Z</time>
      </trkpt>
      <trkpt lat="47.17919" lon="0.12268">
        <ele>62.84</ele>
        <time>2023-06-10T03:56:09.352Z</time>
      </trkpt>
      <trkpt lat="47.17903" lon="0.1228">
        <ele>65.94</ele>
        <time>2023-06-10T03:56:38.466Z</time>
      </trkpt>
      <trkpt lat="47.17887" lon="0.12293">
        <ele>68.95</ele>
        <time>2023-06-10T03:57:07.583Z</time>
      </trkpt>
      <trkpt lat="47.17879" lon="0.12299">
        <ele>69.39</ele>
        <time>2023-06-10T03:57:36.702Z</time>
      </trkpt>
      <trkpt lat="47.17875" lon="0.12302">
        <ele>69.57</ele>
        <time>2023-06-10T03:58:05.821Z</time>
      </trkpt>
      <trkpt lat="47.17871" lon="0.12305">
        <ele>69.74</ele>
        <time>2023-06-10T03:58:34.941Z</time>
      </trkpt>
      <trkpt lat="47.17863" lon="0.12311">
        <ele>70.02</ele>
        <time>2023-06-10T03:59:04.063Z</time>
      </trkpt>
      <trkpt lat="47.17861" lon="0.12313">
        <ele>70.08</ele>
        <time>2023-06-10T03:59:33.185Z</time>
      </trkpt>
      <trkpt lat="47.1788" lon="0.12282">
        <ele>70.8</ele>
        <time>2023-06-10T04:00:02.312Z</time>
      </trkpt>
      <trkpt lat="47.17888" lon="0.1227">
        <ele>71.05</ele>
        <time>2023-06-10T04:00:31.440Z</time>
      </trkpt>
      <trkpt lat="47.17897" lon="0.12251">
        <ele>71.41</ele>
        <time>2023-06-10T04:01:00.571Z</time>
      </trkpt>
      <trkpt lat="47.17904" lon="0.12235">
        <ele>71.77</ele>
        <time>2023-06-10T04:01:29.704Z</time>
      </trkpt>
      <trkpt lat="47.17912" lon="0.12219">
        <ele>72.17</ele>
        <time>2023-06-10T04:01:58.839Z</time>
      </trkpt>
      <trkpt lat="47.1792" lon="0.12203">
        <ele>72.63</ele>
        <time>2023-06-10T04:02:27.976Z</time>
      </trkpt>
      <trkpt lat="47.17927" lon="0.12186">
        <ele>73.12</ele>
        <time>2023-06-10T04:02:57.116Z</time>
      </trkpt>
      <trkpt lat="47.17935" lon="0.1217">
        <ele>73.63</ele>
        <time>2023-06-10T04:03:26.258Z</time>
      </trkpt>
      <trkpt lat="47.17945" lon="0.12149">
        <ele>74.35</ele>
        <time>2023-06-10T04:03:55.403Z</time>
      </trkpt>
      <trkpt lat="47.17953" lon="0.12132">
        <ele>74.84</ele>
        <time>2023-06-10T04:04:24.550Z</time>
      </trkpt>
      <trkpt lat="47.17955" lon="0.12127">
        <ele>74.99</ele>
        <time>2023-06-10T04:04:53.697Z</time>
      </trkpt>
      <trkpt lat="47.1796" lon="0.12116">
        <ele>75.25</ele>
        <time>2023-06-10T04:05:22.846Z</time>
      </trkpt>
      <trkpt lat="47.17968" lon="0.121">
        <ele>75.58</ele>
        <time>2023-06-10T04:05:51.997Z</time>
      </trkpt>
      <trkpt lat="47.17978" lon="0.12079">
        <ele>75.56</ele>
        <time>2023-06-10T04:06:21.151Z</time>
      </trkpt>
      <trkpt lat="47.17981" lon="0.12073">
        <ele>75.53</ele>
        <time>2023-06-10T04:06:50.306Z</time>
      </trkpt>
      <trkpt lat="47.17985" lon="0.12064">
        <ele>75.43</ele>
        <time>2023-06-10T04:07:19.462Z</time>
      </trkpt>
      <trkpt lat="47.17986" lon="0.12063">
        <ele>75.42</ele>
        <time>2023-06-10T04:07:48.618Z</time>
      </trkpt>
      <trkpt lat="47.18005" lon="0.12028">
        <ele>74.93</ele>
        <time>2023-06-10T04:08:17.779Z</time>
      </trkpt>
      <trkpt lat="47.18015" lon="0.12009">
        <ele>74.62</ele>
        <time>2023-06-10T04:08:46.942Z</time>
      </trkpt>
      <trkpt lat="47.18021" lon="0.11982">
        <ele>74.28</ele>
        <time>2023-06-10T04:09:16.109Z</time>
      </trkpt>
      <trkpt lat="47.18023" lon="0.11972">
        <ele>74.12</ele>
        <time>2023-06-10T04:09:45.277Z</time>
      </trkpt>
      <trkpt lat="47.18023" lon="0.1197">
        <ele>74.1</ele>
        <time>2023-06-10T04:10:14.445Z</time>
      </trkpt>
      <trkpt lat="47.18024" lon="0.11957">
        <ele>73.9</ele>
        <time>2023-06-10T04:10:43.614Z</time>
      </trkpt>
      <trkpt lat="47.18025" lon="0.11946">
        <ele>73.68</ele>
        <time>2023-06-10T04:11:12.785Z</time>
      </trkpt>
      <trkpt lat="47.18025" lon="0.11944">
        <ele>73.65</ele>
        <time>2023-06-10T04:11:41.956Z</time>
      </trkpt>
      <trkpt lat="47.18025" lon="0.11931">
        <ele>73.33</ele>
        <time>2023-06-10T04:12:11.128Z</time>
      </trkpt>
      <trkpt lat="47.18025" lon="0.11906">
        <ele>72.58</ele>
        <time>2023-06-10T04:12:40.303Z</time>
      </trkpt>
      <trkpt lat="47.18025" lon="0.11867">
        <ele>71.41</ele>
        <time>2023-06-10T04:13:09.482Z</time>
      </trkpt>
      <trkpt lat="47.18026" lon="0.11854">
        <ele>71.01</ele>
        <time>2023-06-10T04:13:38.663Z</time>
      </trkpt>
      <trkpt lat="47.18028" lon="0.11828">
        <ele>69.32</ele>
        <time>2023-06-10T04:14:07.846Z</time>
      </trkpt>
      <trkpt lat="47.18029" lon="0.11811">
        <ele>68.21</ele>
        <time>2023-06-10T04:14:37.031Z</time>
      </trkpt>
      <trkpt lat="47.18036" lon="0.11801">
        <ele>67.31</ele>
        <time>2023-06-10T04:15:06.218Z</time>
      </trkpt>
      <trkpt lat="47.18048" lon="0.11782">
        <ele>66.15</ele>
        <time>2023-06-10T04:15:35.408Z</time>
      </trkpt>
      <trkpt lat="47.18066" lon="0.11755">
        <ele>64.52</ele>
        <time>2023-06-10T04:16:04.602Z</time>
      </trkpt>
      <trkpt lat="47.18072" lon="0.11745">
        <ele>63.94</ele>
        <time>2023-06-10T04:16:33.797Z</time>
      </trkpt>
      <trkpt lat="47.18074" lon="0.11742">
        <ele>63.69</ele>
        <time>2023-06-10T04:17:02.993Z</time>
      </trkpt>
      <trkpt lat="47.18077" lon="0.11736">
        <ele>63.29</ele>
        <time>2023-06-10T04:17:32.190Z</time>
      </trkpt>
      <trkpt lat="47.1808" lon="0.11731">
        <ele>62.93</ele>
        <time>2023-06-10T04:18:01.387Z</time>
      </trkpt>
      <trkpt lat="47.18085" lon="0.1172">
        <ele>62.15</ele>
        <time>2023-06-10T04:18:30.586Z</time>
      </trkpt>
      <trkpt lat="47.18088" lon="0.11715">
        <ele>61.7</ele>
        <time>2023-06-10T04:18:59.785Z</time>
      </trkpt>
      <trkpt lat="47.1809" lon="0.1171">
        <ele>61.34</ele>
        <time>2023-06-10T04:19:28.985Z</time>
      </trkpt>
      <trkpt lat="47.18095" lon="0.11689">
        <ele>60.89</ele>
        <time>2023-06-10T04:19:58.188Z</time>
      </trkpt>
      <trkpt lat="47.18101" lon="0.11669">
        <ele>59.55</ele>
        <time>2023-06-10T04:20:27.393Z</time>
      </trkpt>
      <trkpt lat="47.18108" lon="0.11671">
        <ele>58.86</ele>
        <time>2023-06-10T04:20:56.599Z</time>
      </trkpt>
      <trkpt lat="47.18116" lon="0.11673">
        <ele>58.08</ele>
        <time>2023-06-10T04:21:25.806Z</time>
      </trkpt>
      <trkpt lat="47.18125" lon="0.11667">
        <ele>57.11</ele>
        <time>2023-06-10T04:21:55.015Z</time>
      </trkpt>
      <trkpt lat="47.18132" lon="0.11662">
        <ele>56.34</ele>
        <time>2023-06-10T04:22:24.225Z</time>
      </trkpt>
      <trkpt lat="47.18139" lon="0.11652">
        <ele>55.42</ele>
        <time>2023-06-10T04:22:53.437Z</time>
      </trkpt>
      <trkpt lat="47.1817" lon="0.11606">
        <ele>51.1</ele>
        <time>2023-06-10T04:23:22.656Z</time>
      </trkpt>
      <trkpt lat="47.1817" lon="0.11606">
        <ele>51.1</ele>
        <time>2023-06-10T04:23:51.875Z</time>
      </trkpt>
      <trkpt lat="47.18176" lon="0.11598">
        <ele>50.19</ele>
        <time>2023-06-10T04:24:21.095Z</time>
      </trkpt>
      <trkpt lat="47.18183" lon="0.11589">
        <ele>49.21</ele>
        <time>2023-06-10T04:24:50.317Z</time>
      </trkpt>
      <trkpt lat="47.18187" lon="0.11584">
        <ele>48.53</ele>
        <time>2023-06-10T04:25:19.539Z</time>
      </trkpt>
      <trkpt lat="47.18193" lon="0.11578">
        <ele>47.63</ele>
        <time>2023-06-10T04:25:48.763Z</time>
      </trkpt>
      <trkpt lat="47.18205" lon="0.11569">
        <ele>46.27</ele>
        <time>2023-06-10T04:26:17.989Z</time>
      </trkpt>
      <trkpt lat="47.18212" lon="0.11562">
        <ele>45.32</ele>
        <time>2023-06-10T04:26:47.216Z</time>
      </trkpt>
      <trkpt lat="47.18219" lon="0.11556">
        <ele>44.39</ele>
        <time>2023-06-10T04:27:16.444Z</time>
      </trkpt>
      <trkpt lat="47.18235" lon="0.11536">
        <ele>41.96</ele>
        <time>2023-06-10T04:27:45.676Z</time>
      </trkpt>
      <trkpt lat="47.18252" lon="0.11524">
        <ele>39.75</ele>
        <time>2023-06-10T04:28:14.911Z</time>
      </trkpt>
      <trkpt lat="47.1826" lon="0.11518">
        <ele>38.79</ele>
        <time>2023-06-10T04:28:44.147Z</time>
      </trkpt>
      <trkpt lat="47.18268" lon="0.11513">
        <ele>37.9</ele>
        <time>2023-06-10T04:29:13.385Z</time>
      </trkpt>
      <trkpt lat="47.18269" lon="0.11512">
        <ele>37.78</ele>
        <time>2023-06-10T04:29:42.623Z</time>
      </trkpt>
      <trkpt lat="47.18272" lon="0.1151">
        <ele>37.5</ele>
        <time>2023-06-10T04:30:11.861Z</time>
      </trkpt>
      <trkpt lat="47.18276" lon="0.11507">
        <ele>37.12</ele>
        <time>2023-06-10T04:30:41.100Z</time>
      </trkpt>
      <trkpt lat="47.18279" lon="0.11504">
        <ele>36.79</ele>
        <time>2023-06-10T04:31:10.340Z</time>
      </trkpt>
      <trkpt lat="47.18283" lon="0.11501">
        <ele>36.5</ele>
        <time>2023-06-10T04:31:39.580Z</time>
      </trkpt>
      <trkpt lat="47.18287" lon="0.11498">
        <ele>36.25</ele>
        <time>2023-06-10T04:32:08.821Z</time>
      </trkpt>
      <trkpt lat="47.18291" lon="0.11495">
        <ele>36.03</ele>
        <time>2023-06-10T04:32:38.063Z</time>
      </trkpt>
      <trkpt lat="47.18309" lon="0.11481">
        <ele>35.12</ele>
        <time>2023-06-10T04:33:07.308Z</time>
      </trkpt>
      <trkpt lat="47.1831" lon="0.1148">
        <ele>35.06</ele>
        <time>2023-06-10T04:33:36.553Z</time>
      </trkpt>
      <trkpt lat="47.18316" lon="0.11477">
        <ele>35.09</ele>
        <time>2023-06-10T04:34:05.799Z</time>
      </trkpt>
      <trkpt lat="47.18329" lon="0.1147">
        <ele>35.06</ele>
        <time>2023-06-10T04:34:35.047Z</time>
      </trkpt>
      <trkpt lat="47.18337" lon="0.11466">
        <ele>35.06</ele>
        <time>2023-06-10T04:35:04.297Z</time>
      </trkpt>
      <trkpt lat="47.18339" lon="0.11465">
        <ele>35.07</ele>
        <time>2023-06-10T04:35:33.547Z</time>
      </trkpt>
      <trkpt lat="47.18335" lon="0.11458">
        <ele>35.13</ele>
        <time>2023-06-10T04:36:02.798Z</time>
      </trkpt>
      <trkpt lat="47.18335" lon="0.11457">
        <ele>35.13</ele>
        <time>2023-06-10T04:36:32.049Z</time>
      </trkpt>
      <trkpt lat="47.18337" lon="0.11444">
        <ele>35.27</ele>
        <time>2023-06-10T04:37:01.302Z</time>
      </trkpt>
      <trkpt lat="47.18338" lon="0.11438">
        <ele>35.38</ele>
        <time>2023-06-10T04:37:30.555Z</time>
      </trkpt>
      <trkpt lat="47.18339" lon="0.11431">
        <ele>35.54</ele>
        <time>2023-06-10T04:37:59.809Z</time>
      </trkpt>
      <trkpt lat="47.1834" lon="0.11425">
        <ele>35.74</ele>
        <time>2023-06-10T04:38:29.064Z</time>
      </trkpt>
      <trkpt lat="47.18341" lon="0.11419">
        <ele>35.98</ele>
        <time>2023-06-10T04:38:58.320Z</time>
      </trkpt>
      <trkpt lat="47.18342" lon="0.11413">
        <ele>36.27</ele>
        <time>2023-06-10T04:39:27.576Z</time>
      </trkpt>
      <trkpt lat="47.18343" lon="0.11406">
        <ele>36.61</ele>
        <time>2023-06-10T04:39:56.833Z</time>
      </trkpt>
      <trkpt lat="47.18344" lon="0.114">
        <ele>36.99</ele>
        <time>2023-06-10T04:40:26.091Z</time>
      </trkpt>
      <trkpt lat="47.18345" lon="0.11394">
        <ele>37.4</ele>
        <time>2023-06-10T04:40:55.349Z</time>
      </trkpt>
      <trkpt lat="47.18345" lon="0.11387">
        <ele>37.85</ele>
        <time>2023-06-10T04:41:24.608Z</time>
      </trkpt>
      <trkpt lat="47.18347" lon="0.11377">
        <ele>38.63</ele>
        <time>2023-06-10T04:41:53.868Z</time>
      </trkpt>
      <trkpt lat="47.18349" lon="0.11368">
        <ele>39.32</ele>
        <time>2023-06-10T04:42:23.129Z</time>
      </trkpt>
      <trkpt lat="47.18354" lon="0.11344">
        <ele>41.4</ele>
        <time>2023-06-10T04:42:52.393Z</time>
      </trkpt>
      <trkpt lat="47.18357" lon="0.11331">
        <ele>42.37</ele>
        <time>2023-06-10T04:43:21.658Z</time>
      </trkpt>
      <trkpt lat="47.18358" lon="0.11325">
        <ele>42.81</ele>
        <time>2023-06-10T04:43:50.924Z</time>
      </trkpt>
      <trkpt lat="47.18358" lon="0.11325">
        <ele>42.81</ele>
        <time>2023-06-10T04:44:20.190Z</time>
      </trkpt>
      <trkpt lat="47.18359" lon="0.11305">
        <ele>44</ele>
        <time>2023-06-10T04:44:49.458Z</time>
      </trkpt>
      <trkpt lat="47.18359" lon="0.11305">
        <ele>44</ele>
        <time>2023-06-10T04:45:18.726Z</time>
      </trkpt>
      <trkpt lat="47.18358" lon="0.11293">
        <ele>44.74</ele>
        <time>2023-06-10T04:45:47.996Z</time>
      </trkpt>
      <trkpt lat="47.18356" lon="0.11276">
        <ele>45.67</ele>
        <time>2023-06-10T04:46:17.268Z</time>
      </trkpt>
      <trkpt lat="47.18352" lon="0.11258">
        <ele>46.72</ele>
        <time>2023-06-10T04:46:46.542Z</time>
      </trkpt>
      <trkpt lat="47.18351" lon="0.11255">
        <ele>46.91</ele>
        <time>2023-06-10T04:47:15.816Z</time>
      </trkpt>
      <trkpt lat="47.18343" lon="0.11239">
        <ele>47.95</ele>
        <time>2023-06-10T04:47:45.092Z</time>
      </trkpt>
      <trkpt lat="47.18338" lon="0.11228">
        <ele>48.69</ele>
        <time>2023-06-10T04:48:14.370Z</time>
      </trkpt>
      <trkpt lat="47.18328" lon="0.11207">
        <ele>50.28</ele>
        <time>2023-06-10T04:48:43.650Z</time>
      </trkpt>
      <trkpt lat="47.18325" lon="0.11201">
        <ele>50.76</ele>
        <time>2023-06-10T04:49:12.931Z</time>
      </trkpt>
      <trkpt lat="47.18323" lon="0.11196">
        <ele>51.16</ele>
        <time>2023-06-10T04:49:42.213Z</time>
      </trkpt>
      <trkpt lat="47.1832" lon="0.11184">
        <ele>52.12</ele>
        <time>2023-06-10T04:50:11.496Z</time>
      </trkpt>
      <trkpt lat="47.18313" lon="0.1116">
        <ele>54.14</ele>
        <time>2023-06-10T04:50:40.782Z</time>
      </trkpt>
      <trkpt lat="47.183" lon="0.11118">
        <ele>57.94</ele>
        <time>2023-06-10T04:51:10.073Z</time>
      </trkpt>
      <trkpt lat="47.18292" lon="0.11092">
        <ele>60.25</ele>
        <time>2023-06-10T04:51:39.367Z</time>
      </trkpt>
      <trkpt lat="47.18293" lon="0.11081">
        <ele>61.14</ele>
        <time>2023-06-10T04:52:08.662Z</time>
      </trkpt>
      <trkpt lat="47.18293" lon="0.11072">
        <ele>61.86</ele>
        <time>2023-06-10T04:52:37.958Z</time>
      </trkpt>
      <trkpt lat="47.18295" lon="0.11069">
        <ele>62.18</ele>
        <time>2023-06-10T04:53:07.255Z</time>
      </trkpt>
      <trkpt lat="47.18301" lon="0.1106">
        <ele>63.15</ele>
        <time>2023-06-10T04:53:36.553Z</time>
      </trkpt>
      <trkpt lat="47.18308" lon="0.11049">
        <ele>63.21</ele>
        <time>2023-06-10T04:54:05.853Z</time>
      </trkpt>
      <trkpt lat="47.18322" lon="0.11027">
        <ele>63.74</ele>
        <time>2023-06-10T04:54:35.156Z</time>
      </trkpt>
      <trkpt lat="47.18326" lon="0.11012">
        <ele>64.03</ele>
        <time>2023-06-10T04:55:04.461Z</time>
      </trkpt>
      <trkpt lat="47.18321" lon="0.11001">
        <ele>64.27</ele>
        <time>2023-06-10T04:55:33.767Z</time>
      </trkpt>
      <trkpt lat="47.18303" lon="0.10956">
        <ele>65.3</ele>
        <time>2023-06-10T04:56:03.079Z</time>
      </trkpt>
      <trkpt lat="47.18298" lon="0.10945">
        <ele>65.59</ele>
        <time>2023-06-10T04:56:32.392Z</time>
      </trkpt>
      <trkpt lat="47.18294" lon="0.10934">
        <ele>65.91</ele>
        <time>2023-06-10T04:57:01.707Z</time>
      </trkpt>
      <trkpt lat="47.18282" lon="0.10906">
        <ele>66.78</ele>
        <time>2023-06-10T04:57:31.025Z</time>
      </trkpt>
      <trkpt lat="47.18273" lon="0.10883">
        <ele>67.44</ele>
        <time>2023-06-10T04:58:00.346Z</time>
      </trkpt>
      <trkpt lat="47.18269" lon="0.10872">
        <ele>67.79</ele>
        <time>2023-06-10T04:58:29.669Z</time>
      </trkpt>
      <trkpt lat="47.18264" lon="0.10861">
        <ele>68.17</ele>
        <time>2023-06-10T04:58:58.993Z</time>
      </trkpt>
      <trkpt lat="47.18255" lon="0.10838">
        <ele>69</ele>
        <time>2023-06-10T04:59:28.320Z</time>
      </trkpt>
      <trkpt lat="47.1825" lon="0.10827">
        <ele>69.38</ele>
        <time>2023-06-10T04:59:57.648Z</time>
      </trkpt>
      <trkpt lat="47.18246" lon="0.10816">
        <ele>69.72</ele>
        <time>2023-06-10T05:00:26.978Z</time>
      </trkpt>
      <trkpt lat="47.18234" lon="0.10788">
        <ele>70.53</ele>
        <time>2023-06-10T05:00:56.311Z</time>
      </trkpt>
      <trkpt lat="47.18218" lon="0.10749">
        <ele>71.53</ele>
        <time>2023-06-10T05:01:25.649Z</time>
      </trkpt>
      <trkpt lat="47.18211" lon="0.10732">
        <ele>71.83</ele>
        <time>2023-06-10T05:01:54.990Z</time>
      </trkpt>
      <trkpt lat="47.182" lon="0.10704">
        <ele>72.3</ele>
        <time>2023-06-10T05:02:24.334Z</time>
      </trkpt>
      <trkpt lat="47.18195" lon="0.10692">
        <ele>72.47</ele>
        <time>2023-06-10T05:02:53.680Z</time>
      </trkpt>
      <trkpt lat="47.1819" lon="0.10681">
        <ele>72.61</ele>
        <time>2023-06-10T05:03:23.027Z</time>
      </trkpt>
      <trkpt lat="47.18186" lon="0.1067">
        <ele>72.71</ele>
        <time>2023-06-10T05:03:52.375Z</time>
      </trkpt>
      <trkpt lat="47.18179" lon="0.10653">
        <ele>72.82</ele>
        <time>2023-06-10T05:04:21.726Z</time>
      </trkpt>
      <trkpt lat="47.18167" lon="0.10625">
        <ele>72.92</ele>
        <time>2023-06-10T05:04:51.080Z</time>
      </trkpt>
      <trkpt lat="47.18145" lon="0.10571">
        <ele>72.54</ele>
        <time>2023-06-10T05:05:20.441Z</time>
      </trkpt>
      <trkpt lat="47.18144" lon="0.10568">
        <ele>72.5</ele>
        <time>2023-06-10T05:05:49.802Z</time>
      </trkpt>
      <trkpt lat="47.18138" lon="0.10556">
        <ele>72.38</ele>
        <time>2023-06-10T05:06:19.165Z</time>
      </trkpt>
      <trkpt lat="47.18128" lon="0.10534">
        <ele>71.96</ele>
        <time>2023-06-10T05:06:48.531Z</time>
      </trkpt>
      <trkpt lat="47.18125" lon="0.10529">
        <ele>71.83</ele>
        <time>2023-06-10T05:07:17.898Z</time>
      </trkpt>
      <trkpt lat="47.18123" lon="0.10524">
        <ele>71.67</ele>
        <time>2023-06-10T05:07:47.265Z</time>
      </trkpt>
      <trkpt lat="47.1812" lon="0.10518">
        <ele>71.47</ele>
        <time>2023-06-10T05:08:16.633Z</time>
      </trkpt>
      <trkpt lat="47.18117" lon="0.10514">
        <ele>71.29</ele>
        <time>2023-06-10T05:08:46.002Z</time>
      </trkpt>
      <trkpt lat="47.18117" lon="0.10514">
        <ele>71.29</ele>
        <time>2023-06-10T05:09:15.371Z</time>
      </trkpt>
      <trkpt lat="47.18109" lon="0.10508">
        <ele>70.85</ele>
        <time>2023-06-10T05:09:44.741Z</time>
      </trkpt>
      <trkpt lat="47.18104" lon="0.10505">
        <ele>70.55</ele>
        <time>2023-06-10T05:10:14.112Z</time>
      </trkpt>
      <trkpt lat="47.18101" lon="0.10503">
        <ele>70.36</ele>
        <time>2023-06-10T05:10:43.484Z</time>
      </trkpt>
      <trkpt lat="47.18071" lon="0.1049">
        <ele>68.57</ele>
        <time>2023-06-10T05:11:12.861Z</time>
      </trkpt>
      <trkpt lat="47.1805" lon="0.1048">
        <ele>67.4</ele>
        <time>2023-06-10T05:11:42.241Z</time>
      </trkpt>
      <trkpt lat="47.18041" lon="0.10477">
        <ele>67.43</ele>
        <time>2023-06-10T05:12:11.623Z</time>
      </trkpt>
      <trkpt lat="47.18037" lon="0.10475">
        <ele>67.41</ele>
        <time>2023-06-10T05:12:41.005Z</time>
      </trkpt>
      <trkpt lat="47.1802" lon="0.10467">
        <ele>67.21</ele>
        <time>2023-06-10T05:13:10.390Z</time>
      </trkpt>
      <trkpt lat="47.1802" lon="0.10467">
        <ele>67.21</ele>
        <time>2023-06-10T05:13:39.775Z</time>
      </trkpt>
      <trkpt lat="47.18016" lon="0.10464">
        <ele>67.19</ele>
        <time>2023-06-10T05:14:09.161Z</time>
      </trkpt>
      <trkpt lat="47.18012" lon="0.10461">
        <ele>67.21</ele>
        <time>2023-06-10T05:14:38.548Z</time>
      </trkpt>
      <trkpt lat="47.18008" lon="0.10458">
        <ele>67.27</ele>
        <time>2023-06-10T05:15:07.935Z</time>
      </trkpt>
      <trkpt lat="47.18004" lon="0.10455">
        <ele>67.38</ele>
        <time>2023-06-10T05:15:37.323Z</time>
      </trkpt>
      <trkpt lat="47.17995" lon="0.10449">
        <ele>67.68</ele>
        <time>2023-06-10T05:16:06.713Z</time>
      </trkpt>
      <trkpt lat="47.17983" lon="0.10441">
        <ele>68.23</ele>
        <time>2023-06-10T05:16:36.105Z</time>
      </trkpt>
      <trkpt lat="47.17963" lon="0.10426">
        <ele>69.34</ele>
        <time>2023-06-10T05:17:05.500Z</time>
      </trkpt>
      <trkpt lat="47.17951" lon="0.10418">
        <ele>69.96</ele>
        <time>2023-06-10T05:17:34.897Z</time>
      </trkpt>
      <trkpt lat="47.17943" lon="0.10412">
        <ele>70.31</ele>
        <time>2023-06-10T05:18:04.296Z</time>
      </trkpt>
      <trkpt lat="47.1794" lon="0.1041">
        <ele>70.42</ele>
        <time>2023-06-10T05:18:33.695Z</time>
      </trkpt>
      <trkpt lat="47.17931" lon="0.10403">
        <ele>70.78</ele>
        <time>2023-06-10T05:19:03.096Z</time>
      </trkpt>
      <trkpt lat="47.17919" lon="0.10394">
        <ele>71.28</ele>
        <time>2023-06-10T05:19:32.499Z</time>
      </trkpt>
      <trkpt lat="47.17915" lon="0.10391">
        <ele>71.42</ele>
        <time>2023-06-10T05:20:01.903Z</time>
      </trkpt>
      <trkpt lat="47.17907" lon="0.10385">
        <ele>71.61</ele>
        <time>2023-06-10T05:20:31.308Z</time>
      </trkpt>
      <trkpt lat="47.17891" lon="0.10372">
        <ele>71.88</ele>
        <time>2023-06-10T05:21:00.716Z</time>
      </trkpt>
      <trkpt lat="47.17887" lon="0.10369">
        <ele>71.97</ele>
        <time>2023-06-10T05:21:30.125Z</time>
      </trkpt>
      <trkpt lat="47.17871" lon="0.10357">
        <ele>72.41</ele>
        <time>2023-06-10T05:21:59.537Z</time>
      </trkpt>
      <trkpt lat="47.17867" lon="0.10354">
        <ele>72.5</ele>
        <time>2023-06-10T05:22:28.950Z</time>
      </trkpt>
      <trkpt lat="47.17851" lon="0.10342">
        <ele>72.79</ele>
        <time>2023-06-10T05:22:58.365Z</time>
      </trkpt>
      <trkpt lat="47.17847" lon="0.10339">
        <ele>72.89</ele>
        <time>2023-06-10T05:23:27.781Z</time>
      </trkpt>
      <trkpt lat="47.17832" lon="0.10326">
        <ele>73.4</ele>
        <time>2023-06-10T05:23:57.200Z</time>
      </trkpt>
      <trkpt lat="47.17824" lon="0.1032">
        <ele>73.56</ele>
        <time>2023-06-10T05:24:26.620Z</time>
      </trkpt>
      <trkpt lat="47.17816" lon="0.10314">
        <ele>73.65</ele>
        <time>2023-06-10T05:24:56.042Z</time>
      </trkpt>
      <trkpt lat="47.17808" lon="0.10308">
        <ele>73.78</ele>
        <time>2023-06-10T05:25:25.465Z</time>
      </trkpt>
      <trkpt lat="47.1778" lon="0.10286">
        <ele>74.41</ele>
        <time>2023-06-10T05:25:54.893Z</time>
      </trkpt>
      <trkpt lat="47.17756" lon="0.10268">
        <ele>74.98</ele>
        <time>2023-06-10T05:26:24.326Z</time>
      </trkpt>
      <trkpt lat="47.17746" lon="0.10256">
        <ele>75.28</ele>
        <time>2023-06-10T05:26:53.761Z</time>
      </trkpt>
      <trkpt lat="47.17739" lon="0.10247">
        <ele>75.45</ele>
        <time>2023-06-10T05:27:23.197Z</time>
      </trkpt>
      <trkpt lat="47.17728" lon="0.10235">
        <ele>75.64</ele>
        <time>2023-06-10T05:27:52.635Z</time>
      </trkpt>
      <trkpt lat="47.17714" lon="0.10218">
        <ele>75.84</ele>
        <time>2023-06-10T05:28:22.076Z</time>
      </trkpt>
      <trkpt lat="47.17704" lon="0.10206">
        <ele>76.05</ele>
        <time>2023-06-10T05:28:51.519Z</time>
      </trkpt>
      <trkpt lat="47.17697" lon="0.10197">
        <ele>76.14</ele>
        <time>2023-06-10T05:29:20.964Z</time>
      </trkpt>
      <trkpt lat="47.17686" lon="0.10185">
        <ele>76.16</ele>
        <time>2023-06-10T05:29:50.411Z</time>
      </trkpt>
      <trkpt lat="47.17679" lon="0.10177">
        <ele>76.21</ele>
        <time>2023-06-10T05:30:19.859Z</time>
      </trkpt>
      <trkpt lat="47.17672" lon="0.10168">
        <ele>76.35</ele>
        <time>2023-06-10T05:30:49.309Z</time>
      </trkpt>
      <trkpt lat="47.17662" lon="0.10156">
        <ele>76.59</ele>
        <time>2023-06-10T05:31:18.761Z</time>
      </trkpt>
      <trkpt lat="47.17655" lon="0.10148">
        <ele>76.68</ele>
        <time>2023-06-10T05:31:48.215Z</time>
      </trkpt>
      <trkpt lat="47.17648" lon="0.10139">
        <ele>76.72</ele>
        <time>2023-06-10T05:32:17.670Z</time>
      </trkpt>
      <trkpt lat="47.17637" lon="0.10127">
        <ele>76.81</ele>
        <time>2023-06-10T05:32:47.127Z</time>
      </trkpt>
      <trkpt lat="47.17634" lon="0.10123">
        <ele>76.82</ele>
        <time>2023-06-10T05:33:16.585Z</time>
      </trkpt>
      <trkpt lat="47.17623" lon="0.1011">
        <ele>76.78</ele>
        <time>2023-06-10T05:33:46.045Z</time>
      </trkpt>
      <trkpt lat="47.17616" lon="0.10102">
        <ele>76.79</ele>
        <time>2023-06-10T05:34:15.506Z</time>
      </trkpt>
      <trkpt lat="47.17613" lon="0.10098">
        <ele>76.82</ele>
        <time>2023-06-10T05:34:44.968Z</time>
      </trkpt>
      <trkpt lat="47.17606" lon="0.10089">
        <ele>76.94</ele>
        <time>2023-06-10T05:35:14.432Z</time>
      </trkpt>
      <trkpt lat="47.17599" lon="0.10081">
        <ele>77.12</ele>
        <time>2023-06-10T05:35:43.897Z</time>
      </trkpt>
      <trkpt lat="47.17588" lon="0.10069">
        <ele>77.45</ele>
        <time>2023-06-10T05:36:13.364Z</time>
      </trkpt>
      <trkpt lat="47.17581" lon="0.1006">
        <ele>77.72</ele>
        <time>2023-06-10T05:36:42.833Z</time>
      </trkpt>
      <trkpt lat="47.17571" lon="0.10048">
        <ele>78.16</ele>
        <time>2023-06-10T05:37:12.304Z</time>
      </trkpt>
      <trkpt lat="47.17571" lon="0.10048">
        <ele>78.16</ele>
        <time>2023-06-10T05:37:41.775Z</time>
      </trkpt>
      <trkpt lat="47.17564" lon="0.1004">
        <ele>78.47</ele>
        <time>2023-06-10T05:38:11.247Z</time>
      </trkpt>
      <trkpt lat="47.1756" lon="0.10036">
        <ele>78.65</ele>
        <time>2023-06-10T05:38:40.720Z</time>
      </trkpt>
      <trkpt lat="47.17553" lon="0.10027">
        <ele>79.04</ele>
        <time>2023-06-10T05:39:10.194Z</time>
      </trkpt>
      <trkpt lat="47.17546" lon="0.10019">
        <ele>79.45</ele>
        <time>2023-06-10T05:39:39.670Z</time>
      </trkpt>
      <trkpt lat="47.1753" lon="0.1">
        <ele>79.6</ele>
        <time>2023-06-10T05:40:09.149Z</time>
      </trkpt>
      <trkpt lat="47.17523" lon="0.09993">
        <ele>79.71</ele>
        <time>2023-06-10T05:40:38.630Z</time>
      </trkpt>
      <trkpt lat="47.17522" lon="0.09991">
        <ele>79.74</ele>
        <time>2023-06-10T05:41:08.111Z</time>
      </trkpt>
      <trkpt lat="47.1752" lon="0.09989">
        <ele>79.79</ele>
        <time>2023-06-10T05:41:37.592Z</time>
      </trkpt>
      <trkpt lat="47.17513" lon="0.09984">
        <ele>80.02</ele>
        <time>2023-06-10T05:42:07.074Z</time>
      </trkpt>
      <trkpt lat="47.17512" lon="0.09984">
        <ele>80.02</ele>
        <time>2023-06-10T05:42:36.557Z</time>
      </trkpt>
      <trkpt lat="47.17509" lon="0.09981">
        <ele>80.16</ele>
        <time>2023-06-10T05:43:06.040Z</time>
      </trkpt>
      <trkpt lat="47.17505" lon="0.09979">
        <ele>80.33</ele>
        <time>2023-06-10T05:43:35.524Z</time>
      </trkpt>
      <trkpt lat="47.17497" lon="0.09974">
        <ele>80.72</ele>
        <time>2023-06-10T05:44:05.009Z</time>
      </trkpt>
      <trkpt lat="47.17482" lon="0.09964">
        <ele>84.51</ele>
        <time>2023-06-10T05:44:34.497Z</time>
      </trkpt>
      <trkpt lat="47.17467" lon="0.09954">
        <ele>85.35</ele>
        <time>2023-06-10T05:45:03.987Z</time>
      </trkpt>
      <trkpt lat="47.17465" lon="0.09953">
        <ele>85.46</ele>
        <time>2023-06-10T05:45:33.478Z</time>
      </trkpt>
      <trkpt lat="47.17461" lon="0.09948">
        <ele>85.73</ele>
        <time>2023-06-10T05:46:02.970Z</time>
      </trkpt>
      <trkpt lat="47.17455" lon="0.09941">
        <ele>86.06</ele>
        <time>2023-06-10T05:46:32.463Z</time>
      </trkpt>
      <trkpt lat="47.17455" lon="0.0994">
        <ele>86.06</ele>
        <time>2023-06-10T05:47:01.956Z</time>
      </trkpt>
      <trkpt lat="47.17451" lon="0.09935">
        <ele>86.1</ele>
        <time>2023-06-10T05:47:31.450Z</time>
      </trkpt>
      <trkpt lat="47.17448" lon="0.09923">
        <ele>86.17</ele>
        <time>2023-06-10T05:48:00.945Z</time>
      </trkpt>
      <trkpt lat="47.17443" lon="0.09898">
        <ele>86.21</ele>
        <time>2023-06-10T05:48:30.443Z</time>
      </trkpt>
      <trkpt lat="47.17443" lon="0.09898">
        <ele>86.21</ele>
        <time>2023-06-10T05:48:59.941Z</time>
      </trkpt>
      <trkpt lat="47.17442" lon="0.09878">
        <ele>86.18</ele>
        <time>2023-06-10T05:49:29.441Z</time>
      </trkpt>
      <trkpt lat="47.17441" lon="0.09865">
        <ele>86.11</ele>
        <time>2023-06-10T05:49:58.943Z</time>
      </trkpt>
      <trkpt lat="47.17442" lon="0.09846">
        <ele>86.03</ele>
        <time>2023-06-10T05:50:28.447Z</time>
      </trkpt>
      <trkpt lat="47.17443" lon="0.09832">
        <ele>85.94</ele>
        <time>2023-06-10T05:50:57.952Z</time>
      </trkpt>
      <trkpt lat="47.17444" lon="0.09813">
        <ele>85.72</ele>
        <time>2023-06-10T05:51:27.459Z</time>
      </trkpt>
      <trkpt lat="47.17445" lon="0.098">
        <ele>85.52</ele>
        <time>2023-06-10T05:51:56.968Z</time>
      </trkpt>
      <trkpt lat="47.17447" lon="0.09773">
        <ele>85.08</ele>
        <time>2023-06-10T05:52:26.480Z</time>
      </trkpt>
      <trkpt lat="47.17449" lon="0.09747">
        <ele>84.69</ele>
        <time>2023-06-10T05:52:55.995Z</time>
      </trkpt>
      <trkpt lat="47.17449" lon="0.0974">
        <ele>84.6</ele>
        <time>2023-06-10T05:53:25.510Z</time>
      </trkpt>
      <trkpt lat="47.17449" lon="0.09734">
        <ele>84.53</ele>
        <time>2023-06-10T05:53:55.026Z</time>
      </trkpt>
      <trkpt lat="47.17448" lon="0.09714">
        <ele>84.33</ele>
        <time>2023-06-10T05:54:24.544Z</time>
      </trkpt>
      <trkpt lat="47.17447" lon="0.09701">
        <ele>84.23</ele>
        <time>2023-06-10T05:54:54.064Z</time>
      </trkpt>
      <trkpt lat="47.17446" lon="0.09694">
        <ele>84.19</ele>
        <time>2023-06-10T05:55:23.584Z</time>
      </trkpt>
      <trkpt lat="47.17444" lon="0.09681">
        <ele>84.15</ele>
        <time>2023-06-10T05:55:53.106Z</time>
      </trkpt>
      <trkpt lat="47.17441" lon="0.09662">
        <ele>84.15</ele>
        <time>2023-06-10T05:56:22.630Z</time>
      </trkpt>
      <trkpt lat="47.17437" lon="0.09635">
        <ele>84.22</ele>
        <time>2023-06-10T05:56:52.157Z</time>
      </trkpt>
      <trkpt lat="47.17437" lon="0.09635">
        <ele>84.22</ele>
        <time>2023-06-10T05:57:21.684Z</time>
      </trkpt>
      <trkpt lat="47.17441" lon="0.09618">
        <ele>84.19</ele>
        <time>2023-06-10T05:57:51.213Z</time>
      </trkpt>
      <trkpt lat="47.17448" lon="0.09593">
        <ele>84.12</ele>
        <time>2023-06-10T05:58:20.745Z</time>
      </trkpt>
      <trkpt lat="47.17453" lon="0.09582">
        <ele>84.09</ele>
        <time>2023-06-10T05:58:50.278Z</time>
      </trkpt>
      <trkpt lat="47.17458" lon="0.09571">
        <ele>84.09</ele>
        <time>2023-06-10T05:59:19.813Z</time>
      </trkpt>
      <trkpt lat="47.17464" lon="0.09554">
        <ele>84.1</ele>
        <time>2023-06-10T05:59:49.350Z</time>
      </trkpt>
      <trkpt lat="47.17473" lon="0.09524">
        <ele>84.07</ele>
        <time>2023-06-10T06:00:18.890Z</time>
      </trkpt>
      <trkpt lat="47.17486" lon="0.09486">
        <ele>84.2</ele>
        <time>2023-06-10T06:00:48.435Z</time>
      </trkpt>
      <trkpt lat="47.17487" lon="0.09483">
        <ele>84.22</ele>
        <time>2023-06-10T06:01:17.980Z</time>
      </trkpt>
      <trkpt lat="47.17489" lon="0.0947">
        <ele>84.28</ele>
        <time>2023-06-10T06:01:47.527Z</time>
      </trkpt>
      <trkpt lat="47.17493" lon="0.09449">
        <ele>84.41</ele>
        <time>2023-06-10T06:02:17.076Z</time>
      </trkpt>
      <trkpt lat="47.17495" lon="0.09425">
        <ele>84.57</ele>
        <time>2023-06-10T06:02:46.628Z</time>
      </trkpt>
      <trkpt lat="47.17496" lon="0.09406">
        <ele>84.76</ele>
        <time>2023-06-10T06:03:16.182Z</time>
      </trkpt>
      <trkpt lat="47.17497" lon="0.09392">
        <ele>84.93</ele>
        <time>2023-06-10T06:03:45.738Z</time>
      </trkpt>
      <trkpt lat="47.17497" lon="0.09392">
        <ele>84.93</ele>
        <time>2023-06-10T06:04:15.294Z</time>
      </trkpt>
      <trkpt lat="47.17501" lon="0.09374">
        <ele>85.23</ele>
        <time>2023-06-10T06:04:44.852Z</time>
      </trkpt>
      <trkpt lat="47.17506" lon="0.09356">
        <ele>85.58</ele>
        <time>2023-06-10T06:05:14.412Z</time>
      </trkpt>
      <trkpt lat="47.17509" lon="0.09343">
        <ele>85.84</ele>
        <time>2023-06-10T06:05:43.973Z</time>
      </trkpt>
      <trkpt lat="47.17512" lon="0.09332">
        <ele>86.14</ele>
        <time>2023-06-10T06:06:13.536Z</time>
      </trkpt>
      <trkpt lat="47.17512" lon="0.09331">
        <ele>86.14</ele>
        <time>2023-06-10T06:06:43.099Z</time>
      </trkpt>
      <trkpt lat="47.17518" lon="0.09299">
        <ele>86.94</ele>
        <time>2023-06-10T06:07:12.665Z</time>
      </trkpt>
      <trkpt lat="47.1752" lon="0.09287">
        <ele>87.29</ele>
        <time>2023-06-10T06:07:42.233Z</time>
      </trkpt>
      <trkpt lat="47.17522" lon="0.09278">
        <ele>87.54</ele>
        <time>2023-06-10T06:08:11.802Z</time>
      </trkpt>
      <trkpt lat="47.17531" lon="0.09251">
        <ele>88.41</ele>
        <time>2023-06-10T06:08:41.374Z</time>
      </trkpt>
      <trkpt lat="47.17537" lon="0.09233">
        <ele>88.92</ele>
        <time>2023-06-10T06:09:10.948Z</time>
      </trkpt>
      <trkpt lat="47.17542" lon="0.09215">
        <ele>89.4</ele>
        <time>2023-06-10T06:09:40.524Z</time>
      </trkpt>
      <trkpt lat="47.17546" lon="0.09203">
        <ele>89.68</ele>
        <time>2023-06-10T06:10:10.102Z</time>
      </trkpt>
      <trkpt lat="47.17548" lon="0.09197">
        <ele>89.8</ele>
        <time>2023-06-10T06:10:39.680Z</time>
      </trkpt>
      <trkpt lat="47.17552" lon="0.09185">
        <ele>90</ele>
        <time>2023-06-10T06:11:09.260Z</time>
      </trkpt>
      <trkpt lat="47.17555" lon="0.09176">
        <ele>90.12</ele>
        <time>2023-06-10T06:11:38.841Z</time>
      </trkpt>
      <trkpt lat="47.17556" lon="0.09174">
        <ele>90.15</ele>
        <time>2023-06-10T06:12:08.422Z</time>
      </trkpt>
      <trkpt lat="47.1756" lon="0.09163">
        <ele>90.2</ele>
        <time>2023-06-10T06:12:38.005Z</time>
      </trkpt>
      <trkpt lat="47.17565" lon="0.09152">
        <ele>90.22</ele>
        <time>2023-06-10T06:13:07.589Z</time>
      </trkpt>
      <trkpt lat="47.17569" lon="0.09141">
        <ele>90.21</ele>
        <time>2023-06-10T06:13:37.174Z</time>
      </trkpt>
      <trkpt lat="47.17572" lon="0.09134">
        <ele>90.18</ele>
        <time>2023-06-10T06:14:06.760Z</time>
      </trkpt>
      <trkpt lat="47.17576" lon="0.09117">
        <ele>90.14</ele>
        <time>2023-06-10T06:14:36.348Z</time>
      </trkpt>
      <trkpt lat="47.17578" lon="0.09105">
        <ele>90.15</ele>
        <time>2023-06-10T06:15:05.938Z</time>
      </trkpt>
      <trkpt lat="47.17581" lon="0.09093">
        <ele>90.18</ele>
        <time>2023-06-10T06:15:35.529Z</time>
      </trkpt>
      <trkpt lat="47.17583" lon="0.0908">
        <ele>90.24</ele>
        <time>2023-06-10T06:16:05.121Z</time>
      </trkpt>
      <trkpt lat="47.17585" lon="0.09074">
        <ele>90.29</ele>
        <time>2023-06-10T06:16:34.714Z</time>
      </trkpt>
      <trkpt lat="47.17586" lon="0.09068">
        <ele>90.35</ele>
        <time>2023-06-10T06:17:04.308Z</time>
      </trkpt>
      <trkpt lat="47.17586" lon="0.09062">
        <ele>90.42</ele>
        <time>2023-06-10T06:17:33.903Z</time>
      </trkpt>
      <trkpt lat="47.17586" lon="0.09043">
        <ele>90.67</ele>
        <time>2023-06-10T06:18:03.500Z</time>
      </trkpt>
      <trkpt lat="47.17586" lon="0.09031">
        <ele>90.74</ele>
        <time>2023-06-10T06:18:33.098Z</time>
      </trkpt>
      <trkpt lat="47.17586" lon="0.0903">
        <ele>90.74</ele>
        <time>2023-06-10T06:19:02.696Z</time>
      </trkpt>
      <trkpt lat="47.17584" lon="0.09018">
        <ele>90.86</ele>
        <time>2023-06-10T06:19:32.295Z</time>
      </trkpt>
      <trkpt lat="47.17581" lon="0.08999">
        <ele>91.13</ele>
        <time>2023-06-10T06:20:01.896Z</time>
      </trkpt>
      <trkpt lat="47.17581" lon="0.08997">
        <ele>91.17</ele>
        <time>2023-06-10T06:20:31.498Z</time>
      </trkpt>
      <trkpt lat="47.17582" lon="0.08987">
        <ele>91.36</ele>
        <time>2023-06-10T06:21:01.101Z</time>
      </trkpt>
      <trkpt lat="47.17583" lon="0.08981">
        <ele>91.5</ele>
        <time>2023-06-10T06:21:30.704Z</time>
      </trkpt>
      <trkpt lat="47.17584" lon="0.08969">
        <ele>91.86</ele>
        <time>2023-06-10T06:22:00.309Z</time>
      </trkpt>
      <trkpt lat="47.17585" lon="0.08956">
        <ele>92.33</ele>
        <time>2023-06-10T06:22:29.915Z</time>
      </trkpt>
      <trkpt lat="47.17585" lon="0.08956">
        <ele>92.33</ele>
        <time>2023-06-10T06:22:59.521Z</time>
      </trkpt>
      <trkpt lat="47.17588" lon="0.08938">
        <ele>93.12</ele>
        <time>2023-06-10T06:23:29.129Z</time>
      </trkpt>
      <trkpt lat="47.17589" lon="0.08931">
        <ele>93.37</ele>
        <time>2023-06-10T06:23:58.738Z</time>
      </trkpt>
      <trkpt lat="47.1759" lon="0.08925">
        <ele>93.59</ele>
        <time>2023-06-10T06:24:28.348Z</time>
      </trkpt>
      <trkpt lat="47.17591" lon="0.08918">
        <ele>93.75</ele>
        <time>2023-06-10T06:24:57.958Z</time>
      </trkpt>
      <trkpt lat="47.17592" lon="0.08912">
        <ele>93.85</ele>
        <time>2023-06-10T06:25:27.569Z</time>
      </trkpt>
      <trkpt lat="47.17593" lon="0.08906">
        <ele>93.89</ele>
        <time>2023-06-10T06:25:57.181Z</time>
      </trkpt>
      <trkpt lat="47.17594" lon="0.08899">
        <ele>93.89</ele>
        <time>2023-06-10T06:26:26.794Z</time>
      </trkpt>
      <trkpt lat="47.17594" lon="0.08899">
        <ele>93.89</ele>
        <time>2023-06-10T06:26:56.407Z</time>
      </trkpt>
      <trkpt lat="47.17595" lon="0.08893">
        <ele>93.85</ele>
        <time>2023-06-10T06:27:26.020Z</time>
      </trkpt>
      <trkpt lat="47.17595" lon="0.08886">
        <ele>93.76</ele>
        <time>2023-06-10T06:27:55.634Z</time>
      </trkpt>
      <trkpt lat="47.17596" lon="0.0888">
        <ele>93.63</ele>
        <time>2023-06-10T06:28:25.249Z</time>
      </trkpt>
      <trkpt lat="47.17597" lon="0.08873">
        <ele>93.45</ele>
        <time>2023-06-10T06:28:54.864Z</time>
      </trkpt>
      <trkpt lat="47.17598" lon="0.08867">
        <ele>93.23</ele>
        <time>2023-06-10T06:29:24.480Z</time>
      </trkpt>
      <trkpt lat="47.17598" lon="0.0886">
        <ele>92.98</ele>
        <time>2023-06-10T06:29:54.097Z</time>
      </trkpt>
      <trkpt lat="47.176" lon="0.08847">
        <ele>92.41</ele>
        <time>2023-06-10T06:30:23.715Z</time>
      </trkpt>
      <trkpt lat="47.176" lon="0.08846">
        <ele>92.34</ele>
        <time>2023-06-10T06:30:53.333Z</time>
      </trkpt>
      <trkpt lat="47.17599" lon="0.08793">
        <ele>89.95</ele>
        <time>2023-06-10T06:31:22.957Z</time>
      </trkpt>
      <trkpt lat="47.176" lon="0.08789">
        <ele>89.75</ele>
        <time>2023-06-10T06:31:52.582Z</time>
      </trkpt>
      <trkpt lat="47.17604" lon="0.08763">
        <ele>88.42</ele>
        <time>2023-06-10T06:32:22.210Z</time>
      </trkpt>
      <trkpt lat="47.17606" lon="0.08748">
        <ele>87.67</ele>
        <time>2023-06-10T06:32:51.839Z</time>
      </trkpt>
      <trkpt lat="47.17607" lon="0.08744">
        <ele>87.46</ele>
        <time>2023-06-10T06:33:21.469Z</time>
      </trkpt>
      <trkpt lat="47.17612" lon="0.08726">
        <ele>86.59</ele>
        <time>2023-06-10T06:33:51.101Z</time>
      </trkpt>
      <trkpt lat="47.17613" lon="0.08723">
        <ele>86.46</ele>
        <time>2023-06-10T06:34:20.733Z</time>
      </trkpt>
      <trkpt lat="47.17614" lon="0.08713">
        <ele>86.06</ele>
        <time>2023-06-10T06:34:50.366Z</time>
      </trkpt>
      <trkpt lat="47.17615" lon="0.087">
        <ele>85.61</ele>
        <time>2023-06-10T06:35:20.001Z</time>
      </trkpt>
      <trkpt lat="47.17616" lon="0.0868">
        <ele>85</ele>
        <time>2023-06-10T06:35:49.638Z</time>
      </trkpt>
      <trkpt lat="47.17618" lon="0.08662">
        <ele>84.46</ele>
        <time>2023-06-10T06:36:19.277Z</time>
      </trkpt>
      <trkpt lat="47.17618" lon="0.08661">
        <ele>84.46</ele>
        <time>2023-06-10T06:36:48.916Z</time>
      </trkpt>
      <trkpt lat="47.17621" lon="0.08635">
        <ele>83.81</ele>
        <time>2023-06-10T06:37:18.558Z</time>
      </trkpt>
      <trkpt lat="47.17623" lon="0.08622">
        <ele>83.45</ele>
        <time>2023-06-10T06:37:48.201Z</time>
      </trkpt>
      <trkpt lat="47.17625" lon="0.08609">
        <ele>83.05</ele>
        <time>2023-06-10T06:38:17.846Z</time>
      </trkpt>
      <trkpt lat="47.17627" lon="0.0859">
        <ele>82.41</ele>
        <time>2023-06-10T06:38:47.493Z</time>
      </trkpt>
      <trkpt lat="47.17629" lon="0.08577">
        <ele>82.02</ele>
        <time>2023-06-10T06:39:17.141Z</time>
      </trkpt>
      <trkpt lat="47.17631" lon="0.08558">
        <ele>81.54</ele>
        <time>2023-06-10T06:39:46.792Z</time>
      </trkpt>
      <trkpt lat="47.17634" lon="0.08538">
        <ele>81.15</ele>
        <time>2023-06-10T06:40:16.445Z</time>
      </trkpt>
      <trkpt lat="47.17635" lon="0.08528">
        <ele>80.98</ele>
        <time>2023-06-10T06:40:46.099Z</time>
      </trkpt>
      <trkpt lat="47.17634" lon="0.08519">
        <ele>80.84</ele>
        <time>2023-06-10T06:41:15.754Z</time>
      </trkpt>
      <trkpt lat="47.17633" lon="0.08512">
        <ele>80.75</ele>
        <time>2023-06-10T06:41:45.410Z</time>
      </trkpt>
      <trkpt lat="47.17632" lon="0.08499">
        <ele>80.62</ele>
        <time>2023-06-10T06:42:15.067Z</time>
      </trkpt>
      <trkpt lat="47.1763" lon="0.08485">
        <ele>80.5</ele>
        <time>2023-06-10T06:42:44.726Z</time>
      </trkpt>
      <trkpt lat="47.1763" lon="0.0848">
        <ele>80.47</ele>
        <time>2023-06-10T06:43:14.385Z</time>
      </trkpt>
      <trkpt lat="47.1763" lon="0.0846">
        <ele>80.4</ele>
        <time>2023-06-10T06:43:44.046Z</time>
      </trkpt>
      <trkpt lat="47.1763" lon="0.08434">
        <ele>80.41</ele>
        <time>2023-06-10T06:44:13.710Z</time>
      </trkpt>
      <trkpt lat="47.1763" lon="0.08414">
        <ele>80.5</ele>
        <time>2023-06-10T06:44:43.376Z</time>
      </trkpt>
      <trkpt lat="47.1763" lon="0.08389">
        <ele>80.77</ele>
        <time>2023-06-10T06:45:13.045Z</time>
      </trkpt>
      <trkpt lat="47.17631" lon="0.08375">
        <ele>80.93</ele>
        <time>2023-06-10T06:45:42.716Z</time>
      </trkpt>
      <trkpt lat="47.17631" lon="0.08368">
        <ele>81.01</ele>
        <time>2023-06-10T06:46:12.387Z</time>
      </trkpt>
      <trkpt lat="47.17625" lon="0.08343">
        <ele>81.36</ele>
        <time>2023-06-10T06:46:42.061Z</time>
      </trkpt>
      <trkpt lat="47.17619" lon="0.08318">
        <ele>81.76</ele>
        <time>2023-06-10T06:47:11.738Z</time>
      </trkpt>
      <trkpt lat="47.17615" lon="0.083">
        <ele>82.13</ele>
        <time>2023-06-10T06:47:41.417Z</time>
      </trkpt>
      <trkpt lat="47.17609" lon="0.08275">
        <ele>82.69</ele>
        <time>2023-06-10T06:48:11.099Z</time>
      </trkpt>
      <trkpt lat="47.17604" lon="0.08256">
        <ele>83.17</ele>
        <time>2023-06-10T06:48:40.783Z</time>
      </trkpt>
      <trkpt lat="47.17601" lon="0.08244">
        <ele>83.56</ele>
        <time>2023-06-10T06:49:10.469Z</time>
      </trkpt>
      <trkpt lat="47.17594" lon="0.08213">
        <ele>84.61</ele>
        <time>2023-06-10T06:49:40.158Z</time>
      </trkpt>
      <trkpt lat="47.17591" lon="0.082">
        <ele>85.07</ele>
        <time>2023-06-10T06:50:09.849Z</time>
      </trkpt>
      <trkpt lat="47.17589" lon="0.08194">
        <ele>85.27</ele>
        <time>2023-06-10T06:50:39.541Z</time>
      </trkpt>
      <trkpt lat="47.17583" lon="0.08169">
        <ele>85.99</ele>
        <time>2023-06-10T06:51:09.235Z</time>
      </trkpt>
      <trkpt lat="47.17583" lon="0.08169">
        <ele>85.99</ele>
        <time>2023-06-10T06:51:38.929Z</time>
      </trkpt>
      <trkpt lat="47.17579" lon="0.08157">
        <ele>86.32</ele>
        <time>2023-06-10T06:52:08.625Z</time>
      </trkpt>
      <trkpt lat="47.17571" lon="0.08131">
        <ele>86.99</ele>
        <time>2023-06-10T06:52:38.324Z</time>
      </trkpt>
      <trkpt lat="47.1757" lon="0.08127">
        <ele>87.1</ele>
        <time>2023-06-10T06:53:08.023Z</time>
      </trkpt>
      <trkpt lat="47.17564" lon="0.0809">
        <ele>88.04</ele>
        <time>2023-06-10T06:53:37.727Z</time>
      </trkpt>
      <trkpt lat="47.17564" lon="0.08088">
        <ele>88.09</ele>
        <time>2023-06-10T06:54:07.431Z</time>
      </trkpt>
      <trkpt lat="47.17565" lon="0.08068">
        <ele>88.61</ele>
        <time>2023-06-10T06:54:37.137Z</time>
      </trkpt>
      <trkpt lat="47.17566" lon="0.08042">
        <ele>89.43</ele>
        <time>2023-06-10T06:55:06.846Z</time>
      </trkpt>
      <trkpt lat="47.17567" lon="0.08022">
        <ele>90.09</ele>
        <time>2023-06-10T06:55:36.557Z</time>
      </trkpt>
      <trkpt lat="47.17567" lon="0.08009">
        <ele>90.59</ele>
        <time>2023-06-10T06:56:06.269Z</time>
      </trkpt>
      <trkpt lat="47.17568" lon="0.07989">
        <ele>91.38</ele>
        <time>2023-06-10T06:56:35.984Z</time>
      </trkpt>
      <trkpt lat="47.17568" lon="0.07976">
        <ele>91.93</ele>
        <time>2023-06-10T06:57:05.700Z</time>
      </trkpt>
      <trkpt lat="47.17569" lon="0.07963">
        <ele>92.54</ele>
        <time>2023-06-10T06:57:35.418Z</time>
      </trkpt>
      <trkpt lat="47.17569" lon="0.0796">
        <ele>92.68</ele>
        <time>2023-06-10T06:58:05.136Z</time>
      </trkpt>
      <trkpt lat="47.17569" lon="0.07956">
        <ele>92.89</ele>
        <time>2023-06-10T06:58:34.854Z</time>
      </trkpt>
      <trkpt lat="47.17572" lon="0.07923">
        <ele>94.74</ele>
        <time>2023-06-10T06:59:04.576Z</time>
      </trkpt>
      <trkpt lat="47.17574" lon="0.07904">
        <ele>95.88</ele>
        <time>2023-06-10T06:59:34.300Z</time>
      </trkpt>
      <trkpt lat="47.17575" lon="0.0789">
        <ele>96.6</ele>
        <time>2023-06-10T07:00:04.025Z</time>
      </trkpt>
      <trkpt lat="47.17576" lon="0.07877">
        <ele>97.22</ele>
        <time>2023-06-10T07:00:33.752Z</time>
      </trkpt>
      <trkpt lat="47.17578" lon="0.07858">
        <ele>98.1</ele>
        <time>2023-06-10T07:01:03.481Z</time>
      </trkpt>
      <trkpt lat="47.1758" lon="0.07831">
        <ele>99.43</ele>
        <time>2023-06-10T07:01:33.213Z</time>
      </trkpt>
      <trkpt lat="47.17582" lon="0.07812">
        <ele>100.39</ele>
        <time>2023-06-10T07:02:02.947Z</time>
      </trkpt>
      <trkpt lat="47.17583" lon="0.07799">
        <ele>100.98</ele>
        <time>2023-06-10T07:02:32.683Z</time>
      </trkpt>
      <trkpt lat="47.17583" lon="0.07799">
        <ele>100.98</ele>
        <time>2023-06-10T07:03:02.419Z</time>
      </trkpt>
      <trkpt lat="47.17582" lon="0.07786">
        <ele>101.48</ele>
        <time>2023-06-10T07:03:32.156Z</time>
      </trkpt>
      <trkpt lat="47.1758" lon="0.07772">
        <ele>101.92</ele>
        <time>2023-06-10T07:04:01.894Z</time>
      </trkpt>
      <trkpt lat="47.17577" lon="0.0774">
        <ele>102.82</ele>
        <time>2023-06-10T07:04:31.636Z</time>
      </trkpt>
      <trkpt lat="47.17575" lon="0.0772">
        <ele>103.41</ele>
        <time>2023-06-10T07:05:01.380Z</time>
      </trkpt>
      <trkpt lat="47.17571" lon="0.07687">
        <ele>104.57</ele>
        <time>2023-06-10T07:05:31.128Z</time>
      </trkpt>
      <trkpt lat="47.17572" lon="0.07674">
        <ele>105.02</ele>
        <time>2023-06-10T07:06:00.877Z</time>
      </trkpt>
      <trkpt lat="47.17574" lon="0.07635">
        <ele>106.22</ele>
        <time>2023-06-10T07:06:30.631Z</time>
      </trkpt>
      <trkpt lat="47.17576" lon="0.07615">
        <ele>106.77</ele>
        <time>2023-06-10T07:07:00.387Z</time>
      </trkpt>
      <trkpt lat="47.17576" lon="0.07611">
        <ele>106.87</ele>
        <time>2023-06-10T07:07:30.143Z</time>
      </trkpt>
      <trkpt lat="47.17576" lon="0.07602">
        <ele>107.1</ele>
        <time>2023-06-10T07:07:59.900Z</time>
      </trkpt>
      <trkpt lat="47.17577" lon="0.07589">
        <ele>107.39</ele>
        <time>2023-06-10T07:08:29.659Z</time>
      </trkpt>
      <trkpt lat="47.17578" lon="0.07569">
        <ele>107.79</ele>
        <time>2023-06-10T07:08:59.420Z</time>
      </trkpt>
      <trkpt lat="47.17579" lon="0.07549">
        <ele>108.15</ele>
        <time>2023-06-10T07:09:29.183Z</time>
      </trkpt>
      <trkpt lat="47.1758" lon="0.07529">
        <ele>108.43</ele>
        <time>2023-06-10T07:09:58.948Z</time>
      </trkpt>
      <trkpt lat="47.17581" lon="0.0751">
        <ele>108.64</ele>
        <time>2023-06-10T07:10:28.715Z</time>
      </trkpt>
      <trkpt lat="47.17582" lon="0.0749">
        <ele>108.78</ele>
        <time>2023-06-10T07:10:58.485Z</time>
      </trkpt>
      <trkpt lat="47.17582" lon="0.07477">
        <ele>108.83</ele>
        <time>2023-06-10T07:11:28.256Z</time>
      </trkpt>
      <trkpt lat="47.17583" lon="0.07463">
        <ele>108.8</ele>
        <time>2023-06-10T07:11:58.028Z</time>
      </trkpt>
      <trkpt lat="47.17584" lon="0.0743">
        <ele>108.57</ele>
        <time>2023-06-10T07:12:27.804Z</time>
      </trkpt>
      <trkpt lat="47.17585" lon="0.07411">
        <ele>108.39</ele>
        <time>2023-06-10T07:12:57.582Z</time>
      </trkpt>
      <trkpt lat="47.17587" lon="0.07378">
        <ele>108.05</ele>
        <time>2023-06-10T07:13:27.364Z</time>
      </trkpt>
      <trkpt lat="47.17588" lon="0.07358">
        <ele>107.81</ele>
        <time>2023-06-10T07:13:57.148Z</time>
      </trkpt>
      <trkpt lat="47.17588" lon="0.07345">
        <ele>107.61</ele>
        <time>2023-06-10T07:14:26.933Z</time>
      </trkpt>
      <trkpt lat="47.17589" lon="0.07325">
        <ele>107.26</ele>
        <time>2023-06-10T07:14:56.721Z</time>
      </trkpt>
      <trkpt lat="47.17591" lon="0.07285">
        <ele>106.46</ele>
        <time>2023-06-10T07:15:26.513Z</time>
      </trkpt>
      <trkpt lat="47.17594" lon="0.07222">
        <ele>105.4</ele>
        <time>2023-06-10T07:15:56.312Z</time>
      </trkpt>
      <trkpt lat="47.17594" lon="0.07213">
        <ele>105.25</ele>
        <time>2023-06-10T07:16:26.112Z</time>
      </trkpt>
      <trkpt lat="47.17594" lon="0.07206">
        <ele>105.13</ele>
        <time>2023-06-10T07:16:55.913Z</time>
      </trkpt>
      <trkpt lat="47.17594" lon="0.07193">
        <ele>104.85</ele>
        <time>2023-06-10T07:17:25.715Z</time>
      </trkpt>
      <trkpt lat="47.17594" lon="0.07173">
        <ele>104.26</ele>
        <time>2023-06-10T07:17:55.519Z</time>
      </trkpt>
      <trkpt lat="47.17594" lon="0.0716">
        <ele>103.79</ele>
        <time>2023-06-10T07:18:25.325Z</time>
      </trkpt>
      <trkpt lat="47.17594" lon="0.07147">
        <ele>103.23</ele>
        <time>2023-06-10T07:18:55.132Z</time>
      </trkpt>
      <trkpt lat="47.17594" lon="0.07147">
        <ele>103.23</ele>
        <time>2023-06-10T07:19:24.939Z</time>
      </trkpt>
      <trkpt lat="47.17591" lon="0.07128">
        <ele>102.32</ele>
        <time>2023-06-10T07:19:54.748Z</time>
      </trkpt>
      <trkpt lat="47.1759" lon="0.07122">
        <ele>102.04</ele>
        <time>2023-06-10T07:20:24.558Z</time>
      </trkpt>
      <trkpt lat="47.17588" lon="0.07111">
        <ele>101.6</ele>
        <time>2023-06-10T07:20:54.369Z</time>
      </trkpt>
      <trkpt lat="47.17587" lon="0.0711">
        <ele>101.54</ele>
        <time>2023-06-10T07:21:24.180Z</time>
      </trkpt>
      <trkpt lat="47.17583" lon="0.07098">
        <ele>101.14</ele>
        <time>2023-06-10T07:21:53.993Z</time>
      </trkpt>
      <trkpt lat="47.17579" lon="0.07087">
        <ele>100.81</ele>
        <time>2023-06-10T07:22:23.807Z</time>
      </trkpt>
      <trkpt lat="47.17575" lon="0.07075">
        <ele>100.53</ele>
        <time>2023-06-10T07:22:53.622Z</time>
      </trkpt>
      <trkpt lat="47.17573" lon="0.07069">
        <ele>100.41</ele>
        <time>2023-06-10T07:23:23.438Z</time>
      </trkpt>
      <trkpt lat="47.17569" lon="0.07058">
        <ele>100.21</ele>
        <time>2023-06-10T07:23:53.256Z</time>
      </trkpt>
      <trkpt lat="47.17564" lon="0.07046">
        <ele>100.07</ele>
        <time>2023-06-10T07:24:23.075Z</time>
      </trkpt>
      <trkpt lat="47.17558" lon="0.07029">
        <ele>99.93</ele>
        <time>2023-06-10T07:24:52.896Z</time>
      </trkpt>
      <trkpt lat="47.17548" lon="0.07001">
        <ele>99.76</ele>
        <time>2023-06-10T07:25:22.721Z</time>
      </trkpt>
      <trkpt lat="47.17544" lon="0.06989">
        <ele>99.7</ele>
        <time>2023-06-10T07:25:52.547Z</time>
      </trkpt>
      <trkpt lat="47.17541" lon="0.06976">
        <ele>99.53</ele>
        <time>2023-06-10T07:26:22.375Z</time>
      </trkpt>
      <trkpt lat="47.17537" lon="0.06964">
        <ele>99.32</ele>
        <time>2023-06-10T07:26:52.204Z</time>
      </trkpt>
      <trkpt lat="47.17534" lon="0.06952">
        <ele>99.05</ele>
        <time>2023-06-10T07:27:22.034Z</time>
      </trkpt>
      <trkpt lat="47.17532" lon="0.06946">
        <ele>98.89</ele>
        <time>2023-06-10T07:27:51.865Z</time>
      </trkpt>
      <trkpt lat="47.17532" lon="0.06946">
        <ele>98.89</ele>
        <time>2023-06-10T07:28:21.696Z</time>
      </trkpt>
      <trkpt lat="47.17531" lon="0.06939">
        <ele>98.71</ele>
        <time>2023-06-10T07:28:51.528Z</time>
      </trkpt>
      <trkpt lat="47.1753" lon="0.06926">
        <ele>98.27</ele>
        <time>2023-06-10T07:29:21.361Z</time>
      </trkpt>
      <trkpt lat="47.1753" lon="0.0692">
        <ele>98</ele>
        <time>2023-06-10T07:29:51.195Z</time>
      </trkpt>
      <trkpt lat="47.17529" lon="0.06907">
        <ele>97.41</ele>
        <time>2023-06-10T07:30:21.031Z</time>
      </trkpt>
      <trkpt lat="47.17528" lon="0.06899">
        <ele>97.01</ele>
        <time>2023-06-10T07:30:50.867Z</time>
      </trkpt>
      <trkpt lat="47.17529" lon="0.06893">
        <ele>96.72</ele>
        <time>2023-06-10T07:31:20.704Z</time>
      </trkpt>
      <trkpt lat="47.1753" lon="0.0688">
        <ele>95.96</ele>
        <time>2023-06-10T07:31:50.542Z</time>
      </trkpt>
      <trkpt lat="47.17531" lon="0.06874">
        <ele>95.56</ele>
        <time>2023-06-10T07:32:20.381Z</time>
      </trkpt>
      <trkpt lat="47.17533" lon="0.06861">
        <ele>94.69</ele>
        <time>2023-06-10T07:32:50.222Z</time>
      </trkpt>
      <trkpt lat="47.17533" lon="0.06859">
        <ele>94.54</ele>
        <time>2023-06-10T07:33:20.063Z</time>
      </trkpt>
      <trkpt lat="47.17534" lon="0.06841">
        <ele>93.26</ele>
        <time>2023-06-10T07:33:49.906Z</time>
      </trkpt>
      <trkpt lat="47.17535" lon="0.06828">
        <ele>92.36</ele>
        <time>2023-06-10T07:34:19.750Z</time>
      </trkpt>
      <trkpt lat="47.17536" lon="0.06808">
        <ele>91.1</ele>
        <time>2023-06-10T07:34:49.596Z</time>
      </trkpt>
      <trkpt lat="47.17537" lon="0.06795">
        <ele>90.29</ele>
        <time>2023-06-10T07:35:19.444Z</time>
      </trkpt>
      <trkpt lat="47.17537" lon="0.06782">
        <ele>89.53</ele>
        <time>2023-06-10T07:35:49.293Z</time>
      </trkpt>
      <trkpt lat="47.17538" lon="0.06775">
        <ele>89.18</ele>
        <time>2023-06-10T07:36:19.143Z</time>
      </trkpt>
      <trkpt lat="47.17538" lon="0.06769">
        <ele>88.87</ele>
        <time>2023-06-10T07:36:48.994Z</time>
      </trkpt>
      <trkpt lat="47.17538" lon="0.06762">
        <ele>88.59</ele>
        <time>2023-06-10T07:37:18.845Z</time>
      </trkpt>
      <trkpt lat="47.17539" lon="0.06755">
        <ele>88.36</ele>
        <time>2023-06-10T07:37:48.697Z</time>
      </trkpt>
      <trkpt lat="47.17539" lon="0.06752">
        <ele>88.25</ele>
        <time>2023-06-10T07:38:18.549Z</time>
      </trkpt>
      <trkpt lat="47.17539" lon="0.06749">
        <ele>88.16</ele>
        <time>2023-06-10T07:38:48.402Z</time>
      </trkpt>
      <trkpt lat="47.1754" lon="0.06742">
        <ele>88</ele>
        <time>2023-06-10T07:39:18.256Z</time>
      </trkpt>
      <trkpt lat="47.17541" lon="0.06736">
        <ele>87.86</ele>
        <time>2023-06-10T07:39:48.110Z</time>
      </trkpt>
      <trkpt lat="47.17543" lon="0.06723">
        <ele>87.68</ele>
        <time>2023-06-10T07:40:17.966Z</time>
      </trkpt>
      <trkpt lat="47.17545" lon="0.0671">
        <ele>87.55</ele>
        <time>2023-06-10T07:40:47.823Z</time>
      </trkpt>
      <trkpt lat="47.17551" lon="0.06672">
        <ele>87.27</ele>
        <time>2023-06-10T07:41:17.684Z</time>
      </trkpt>
      <trkpt lat="47.17553" lon="0.06659">
        <ele>87.14</ele>
        <time>2023-06-10T07:41:47.547Z</time>
      </trkpt>
      <trkpt lat="47.17554" lon="0.06652">
        <ele>87.04</ele>
        <time>2023-06-10T07:42:17.411Z</time>
      </trkpt>
      <trkpt lat="47.17555" lon="0.06646">
        <ele>86.92</ele>
        <time>2023-06-10T07:42:47.275Z</time>
      </trkpt>
      <trkpt lat="47.17556" lon="0.06639">
        <ele>86.77</ele>
        <time>2023-06-10T07:43:17.140Z</time>
      </trkpt>
      <trkpt lat="47.17557" lon="0.06633">
        <ele>86.59</ele>
        <time>2023-06-10T07:43:47.006Z</time>
      </trkpt>
      <trkpt lat="47.17559" lon="0.06619">
        <ele>86.14</ele>
        <time>2023-06-10T07:44:16.873Z</time>
      </trkpt>
      <trkpt lat="47.1756" lon="0.06613">
        <ele>85.97</ele>
        <time>2023-06-10T07:44:46.741Z</time>
      </trkpt>
      <trkpt lat="47.17561" lon="0.066">
        <ele>85.6</ele>
        <time>2023-06-10T07:45:16.610Z</time>
      </trkpt>
      <trkpt lat="47.17563" lon="0.06587">
        <ele>85.31</ele>
        <time>2023-06-10T07:45:46.481Z</time>
      </trkpt>
      <trkpt lat="47.17564" lon="0.06574">
        <ele>85.1</ele>
        <time>2023-06-10T07:46:16.353Z</time>
      </trkpt>
      <trkpt lat="47.17565" lon="0.06568">
        <ele>85.02</ele>
        <time>2023-06-10T07:46:46.226Z</time>
      </trkpt>
      <trkpt lat="47.17566" lon="0.06555">
        <ele>84.92</ele>
        <time>2023-06-10T07:47:16.100Z</time>
      </trkpt>
      <trkpt lat="47.17569" lon="0.06535">
        <ele>84.82</ele>
        <time>2023-06-10T07:47:45.977Z</time>
      </trkpt>
      <trkpt lat="47.17571" lon="0.06516">
        <ele>84.77</ele>
        <time>2023-06-10T07:48:15.856Z</time>
      </trkpt>
      <trkpt lat="47.17573" lon="0.06498">
        <ele>84.77</ele>
        <time>2023-06-10T07:48:45.737Z</time>
      </trkpt>
      <trkpt lat="47.17574" lon="0.0649">
        <ele>84.77</ele>
        <time>2023-06-10T07:49:15.619Z</time>
      </trkpt>
      <trkpt lat="47.17576" lon="0.06477">
        <ele>84.73</ele>
        <time>2023-06-10T07:49:45.502Z</time>
      </trkpt>
      <trkpt lat="47.17577" lon="0.0647">
        <ele>84.68</ele>
        <time>2023-06-10T07:50:15.386Z</time>
      </trkpt>
      <trkpt lat="47.17578" lon="0.06464">
        <ele>84.59</ele>
        <time>2023-06-10T07:50:45.271Z</time>
      </trkpt>
      <trkpt lat="47.17579" lon="0.06457">
        <ele>84.47</ele>
        <time>2023-06-10T07:51:15.156Z</time>
      </trkpt>
      <trkpt lat="47.17581" lon="0.06444">
        <ele>84.13</ele>
        <time>2023-06-10T07:51:45.043Z</time>
      </trkpt>
      <trkpt lat="47.17582" lon="0.06438">
        <ele>83.91</ele>
        <time>2023-06-10T07:52:14.930Z</time>
      </trkpt>
      <trkpt lat="47.17582" lon="0.06431">
        <ele>83.66</ele>
        <time>2023-06-10T07:52:44.818Z</time>
      </trkpt>
      <trkpt lat="47.17583" lon="0.06425">
        <ele>83.38</ele>
        <time>2023-06-10T07:53:14.707Z</time>
      </trkpt>
      <trkpt lat="47.17584" lon="0.06418">
        <ele>83.07</ele>
        <time>2023-06-10T07:53:44.597Z</time>
      </trkpt>
      <trkpt lat="47.17585" lon="0.06412">
        <ele>82.73</ele>
        <time>2023-06-10T07:54:14.487Z</time>
      </trkpt>
      <trkpt lat="47.17587" lon="0.06399">
        <ele>82.03</ele>
        <time>2023-06-10T07:54:44.379Z</time>
      </trkpt>
      <trkpt lat="47.17588" lon="0.06392">
        <ele>81.67</ele>
        <time>2023-06-10T07:55:14.272Z</time>
      </trkpt>
      <trkpt lat="47.17591" lon="0.06373">
        <ele>80.66</ele>
        <time>2023-06-10T07:55:44.167Z</time>
      </trkpt>
      <trkpt lat="47.17593" lon="0.06362">
        <ele>80.48</ele>
        <time>2023-06-10T07:56:14.063Z</time>
      </trkpt>
      <trkpt lat="47.17594" lon="0.06356">
        <ele>80.41</ele>
        <time>2023-06-10T07:56:43.960Z</time>
      </trkpt>
      <trkpt lat="47.17596" lon="0.06344">
        <ele>80.33</ele>
        <time>2023-06-10T07:57:13.858Z</time>
      </trkpt>
      <trkpt lat="47.17599" lon="0.06329">
        <ele>80.27</ele>
        <time>2023-06-10T07:57:43.758Z</time>
      </trkpt>
      <trkpt lat="47.176" lon="0.06326">
        <ele>80.27</ele>
        <time>2023-06-10T07:58:13.658Z</time>
      </trkpt>
      <trkpt lat="47.17602" lon="0.06314">
        <ele>80.04</ele>
        <time>2023-06-10T07:58:43.559Z</time>
      </trkpt>
      <trkpt lat="47.17605" lon="0.06302">
        <ele>79.86</ele>
        <time>2023-06-10T07:59:13.462Z</time>
      </trkpt>
      <trkpt lat="47.17607" lon="0.0629">
        <ele>79.73</ele>
        <time>2023-06-10T07:59:43.366Z</time>
      </trkpt>
      <trkpt lat="47.17609" lon="0.06282">
        <ele>79.66</ele>
        <time>2023-06-10T08:00:13.271Z</time>
      </trkpt>
      <trkpt lat="47.17608" lon="0.06278">
        <ele>79.63</ele>
        <time>2023-06-10T08:00:43.177Z</time>
      </trkpt>
      <trkpt lat="47.17606" lon="0.06266">
        <ele>79.56</ele>
        <time>2023-06-10T08:01:13.084Z</time>
      </trkpt>
      <trkpt lat="47.17605" lon="0.06257">
        <ele>79.54</ele>
        <time>2023-06-10T08:01:42.992Z</time>
      </trkpt>
      <trkpt lat="47.17606" lon="0.0625">
        <ele>79.53</ele>
        <time>2023-06-10T08:02:12.901Z</time>
      </trkpt>
      <trkpt lat="47.1761" lon="0.06216">
        <ele>79.56</ele>
        <time>2023-06-10T08:02:42.813Z</time>
      </trkpt>
      <trkpt lat="47.17611" lon="0.06204">
        <ele>79.65</ele>
        <time>2023-06-10T08:03:12.727Z</time>
      </trkpt>
      <trkpt lat="47.17611" lon="0.06205">
        <ele>79.66</ele>
        <time>2023-06-10T08:03:42.641Z</time>
      </trkpt>
      <trkpt lat="47.17615" lon="0.06193">
        <ele>79.78</ele>
        <time>2023-06-10T08:04:12.556Z</time>
      </trkpt>
      <trkpt lat="47.17618" lon="0.06181">
        <ele>79.92</ele>
        <time>2023-06-10T08:04:42.473Z</time>
      </trkpt>
      <trkpt lat="47.17623" lon="0.06165">
        <ele>80.17</ele>
        <time>2023-06-10T08:05:12.392Z</time>
      </trkpt>
      <trkpt lat="47.17624" lon="0.06163">
        <ele>80.22</ele>
        <time>2023-06-10T08:05:42.311Z</time>
      </trkpt>
      <trkpt lat="47.1763" lon="0.06153">
        <ele>80.47</ele>
        <time>2023-06-10T08:06:12.231Z</time>
      </trkpt>
      <trkpt lat="47.17636" lon="0.06143">
        <ele>80.78</ele>
        <time>2023-06-10T08:06:42.153Z</time>
      </trkpt>
      <trkpt lat="47.17641" lon="0.06133">
        <ele>81.16</ele>
        <time>2023-06-10T08:07:12.076Z</time>
      </trkpt>
      <trkpt lat="47.17651" lon="0.06116">
        <ele>81.85</ele>
        <time>2023-06-10T08:07:42.002Z</time>
      </trkpt>
      <trkpt lat="47.17664" lon="0.06076">
        <ele>83.25</ele>
        <time>2023-06-10T08:08:11.932Z</time>
      </trkpt>
      <trkpt lat="47.17668" lon="0.06064">
        <ele>83.63</ele>
        <time>2023-06-10T08:08:41.864Z</time>
      </trkpt>
      <trkpt lat="47.17672" lon="0.06053">
        <ele>83.94</ele>
        <time>2023-06-10T08:09:11.797Z</time>
      </trkpt>
      <trkpt lat="47.17676" lon="0.06041">
        <ele>84.17</ele>
        <time>2023-06-10T08:09:41.732Z</time>
      </trkpt>
      <trkpt lat="47.17678" lon="0.06035">
        <ele>84.25</ele>
        <time>2023-06-10T08:10:11.667Z</time>
      </trkpt>
      <trkpt lat="47.17683" lon="0.06017">
        <ele>84.41</ele>
        <time>2023-06-10T08:10:41.605Z</time>
      </trkpt>
      <trkpt lat="47.17689" lon="0.05999">
        <ele>84.51</ele>
        <time>2023-06-10T08:11:11.545Z</time>
      </trkpt>
      <trkpt lat="47.17707" lon="0.05946">
        <ele>84.57</ele>
        <time>2023-06-10T08:11:41.491Z</time>
      </trkpt>
      <trkpt lat="47.17715" lon="0.05922">
        <ele>84.57</ele>
        <time>2023-06-10T08:12:11.440Z</time>
      </trkpt>
      <trkpt lat="47.17719" lon="0.0591">
        <ele>84.6</ele>
        <time>2023-06-10T08:12:41.391Z</time>
      </trkpt>
      <trkpt lat="47.17722" lon="0.05898">
        <ele>84.65</ele>
        <time>2023-06-10T08:13:11.343Z</time>
      </trkpt>
      <trkpt lat="47.17726" lon="0.05886">
        <ele>84.72</ele>
        <time>2023-06-10T08:13:41.296Z</time>
      </trkpt>
      <trkpt lat="47.1773" lon="0.05875">
        <ele>84.82</ele>
        <time>2023-06-10T08:14:11.251Z</time>
      </trkpt>
      <trkpt lat="47.17752" lon="0.05808">
        <ele>85.41</ele>
        <time>2023-06-10T08:14:41.214Z</time>
      </trkpt>
      <trkpt lat="47.17759" lon="0.05785">
        <ele>85.61</ele>
        <time>2023-06-10T08:15:11.180Z</time>
      </trkpt>
      <trkpt lat="47.17762" lon="0.05773">
        <ele>85.68</ele>
        <time>2023-06-10T08:15:41.147Z</time>
      </trkpt>
      <trkpt lat="47.17764" lon="0.05767">
        <ele>85.69</ele>
        <time>2023-06-10T08:16:11.115Z</time>
      </trkpt>
      <trkpt lat="47.17767" lon="0.05755">
        <ele>85.63</ele>
        <time>2023-06-10T08:16:41.084Z</time>
      </trkpt>
      <trkpt lat="47.17767" lon="0.05755">
        <ele>85.63</ele>
        <time>2023-06-10T08:17:11.053Z</time>
      </trkpt>
      <trkpt lat="47.17768" lon="0.05748">
        <ele>85.55</ele>
        <time>2023-06-10T08:17:41.023Z</time>
      </trkpt>
      <trkpt lat="47.1777" lon="0.05735">
        <ele>85.31</ele>
        <time>2023-06-10T08:18:10.994Z</time>
      </trkpt>
      <trkpt lat="47.17772" lon="0.05722">
        <ele>85</ele>
        <time>2023-06-10T08:18:40.967Z</time>
      </trkpt>
      <trkpt lat="47.17772" lon="0.05716">
        <ele>84.81</ele>
        <time>2023-06-10T08:19:10.941Z</time>
      </trkpt>
      <trkpt lat="47.17774" lon="0.05703">
        <ele>84.38</ele>
        <time>2023-06-10T08:19:40.916Z</time>
      </trkpt>
      <trkpt lat="47.17776" lon="0.0569">
        <ele>83.91</ele>
        <time>2023-06-10T08:20:10.892Z</time>
      </trkpt>
      <trkpt lat="47.17782" lon="0.05645">
        <ele>82.17</ele>
        <time>2023-06-10T08:20:40.873Z</time>
      </trkpt>
      <trkpt lat="47.17784" lon="0.05634">
        <ele>81.78</ele>
        <time>2023-06-10T08:21:10.856Z</time>
      </trkpt>
      <trkpt lat="47.17784" lon="0.05632">
        <ele>81.71</ele>
        <time>2023-06-10T08:21:40.839Z</time>
      </trkpt>
      <trkpt lat="47.17785" lon="0.05612">
        <ele>81.11</ele>
        <time>2023-06-10T08:22:10.824Z</time>
      </trkpt>
      <trkpt lat="47.17786" lon="0.05599">
        <ele>80.76</ele>
        <time>2023-06-10T08:22:40.810Z</time>
      </trkpt>
      <trkpt lat="47.17787" lon="0.05586">
        <ele>80.46</ele>
        <time>2023-06-10T08:23:10.798Z</time>
      </trkpt>
      <trkpt lat="47.17787" lon="0.05573">
        <ele>80.19</ele>
        <time>2023-06-10T08:23:40.787Z</time>
      </trkpt>
      <trkpt lat="47.1779" lon="0.05525">
        <ele>78.87</ele>
        <time>2023-06-10T08:24:10.782Z</time>
      </trkpt>
      <trkpt lat="47.17794" lon="0.05506">
        <ele>78.33</ele>
        <time>2023-06-10T08:24:40.779Z</time>
      </trkpt>
      <trkpt lat="47.178" lon="0.05478">
        <ele>77.49</ele>
        <time>2023-06-10T08:25:10.779Z</time>
      </trkpt>
      <trkpt lat="47.17803" lon="0.05469">
        <ele>77.21</ele>
        <time>2023-06-10T08:25:40.780Z</time>
      </trkpt>
      <trkpt lat="47.17807" lon="0.05457">
        <ele>76.81</ele>
        <time>2023-06-10T08:26:10.782Z</time>
      </trkpt>
      <trkpt lat="47.17811" lon="0.05446">
        <ele>76.39</ele>
        <time>2023-06-10T08:26:40.786Z</time>
      </trkpt>
      <trkpt lat="47.17815" lon="0.05434">
        <ele>75.93</ele>
        <time>2023-06-10T08:27:10.791Z</time>
      </trkpt>
      <trkpt lat="47.17819" lon="0.05422">
        <ele>75.43</ele>
        <time>2023-06-10T08:27:40.798Z</time>
      </trkpt>
      <trkpt lat="47.17825" lon="0.05404">
        <ele>74.62</ele>
        <time>2023-06-10T08:28:10.807Z</time>
      </trkpt>
      <trkpt lat="47.17831" lon="0.05387">
        <ele>73.7</ele>
        <time>2023-06-10T08:28:40.818Z</time>
      </trkpt>
      <trkpt lat="47.17835" lon="0.05375">
        <ele>73</ele>
        <time>2023-06-10T08:29:10.830Z</time>
      </trkpt>
      <trkpt lat="47.17839" lon="0.05363">
        <ele>72.26</ele>
        <time>2023-06-10T08:29:40.844Z</time>
      </trkpt>
      <trkpt lat="47.1784" lon="0.05359">
        <ele>71.99</ele>
        <time>2023-06-10T08:30:10.858Z</time>
      </trkpt>
      <trkpt lat="47.17851" lon="0.05335">
        <ele>70.33</ele>
        <time>2023-06-10T08:30:40.876Z</time>
      </trkpt>
      <trkpt lat="47.17856" lon="0.05324">
        <ele>69.61</ele>
        <time>2023-06-10T08:31:10.895Z</time>
      </trkpt>
      <trkpt lat="47.17858" lon="0.05319">
        <ele>69.27</ele>
        <time>2023-06-10T08:31:40.915Z</time>
      </trkpt>
      <trkpt lat="47.17866" lon="0.05303">
        <ele>68.33</ele>
        <time>2023-06-10T08:32:10.937Z</time>
      </trkpt>
      <trkpt lat="47.1787" lon="0.05292">
        <ele>67.75</ele>
        <time>2023-06-10T08:32:40.960Z</time>
      </trkpt>
      <trkpt lat="47.17875" lon="0.05281">
        <ele>67.26</ele>
        <time>2023-06-10T08:33:10.985Z</time>
      </trkpt>
      <trkpt lat="47.17878" lon="0.05275">
        <ele>67.05</ele>
        <time>2023-06-10T08:33:41.010Z</time>
      </trkpt>
      <trkpt lat="47.17885" lon="0.05259">
        <ele>66.51</ele>
        <time>2023-06-10T08:34:11.038Z</time>
      </trkpt>
      <trkpt lat="47.17893" lon="0.05242">
        <ele>66.06</ele>
        <time>2023-06-10T08:34:41.068Z</time>
      </trkpt>
      <trkpt lat="47.17897" lon="0.05233">
        <ele>65.84</ele>
        <time>2023-06-10T08:35:11.099Z</time>
      </trkpt>
      <trkpt lat="47.17901" lon="0.05219">
        <ele>65.56</ele>
        <time>2023-06-10T08:35:41.132Z</time>
      </trkpt>
      <trkpt lat="47.17904" lon="0.05208">
        <ele>65.49</ele>
        <time>2023-06-10T08:36:11.166Z</time>
      </trkpt>
      <trkpt lat="47.17906" lon="0.05202">
        <ele>65.47</ele>
        <time>2023-06-10T08:36:41.201Z</time>
      </trkpt>
      <trkpt lat="47.17907" lon="0.05199">
        <ele>65.47</ele>
        <time>2023-06-10T08:37:11.236Z</time>
      </trkpt>
      <trkpt lat="47.17909" lon="0.05184">
        <ele>65.47</ele>
        <time>2023-06-10T08:37:41.273Z</time>
      </trkpt>
      <trkpt lat="47.1791" lon="0.05173">
        <ele>65.5</ele>
        <time>2023-06-10T08:38:11.311Z</time>
      </trkpt>
      <trkpt lat="47.17918" lon="0.05165">
        <ele>65.55</ele>
        <time>2023-06-10T08:38:41.350Z</time>
      </trkpt>
      <trkpt lat="47.17925" lon="0.05159">
        <ele>65.63</ele>
        <time>2023-06-10T08:39:11.391Z</time>
      </trkpt>
      <trkpt lat="47.17928" lon="0.05156">
        <ele>65.67</ele>
        <time>2023-06-10T08:39:41.432Z</time>
      </trkpt>
      <trkpt lat="47.17933" lon="0.05153">
        <ele>65.75</ele>
        <time>2023-06-10T08:40:11.474Z</time>
      </trkpt>
      <trkpt lat="47.17941" lon="0.05149">
        <ele>65.83</ele>
        <time>2023-06-10T08:40:41.518Z</time>
      </trkpt>
      <trkpt lat="47.1795" lon="0.05144">
        <ele>65.94</ele>
        <time>2023-06-10T08:41:11.563Z</time>
      </trkpt>
      <trkpt lat="47.17954" lon="0.05142">
        <ele>66.03</ele>
        <time>2023-06-10T08:41:41.609Z</time>
      </trkpt>
      <trkpt lat="47.17962" lon="0.05137">
        <ele>66.29</ele>
        <time>2023-06-10T08:42:11.656Z</time>
      </trkpt>
      <trkpt lat="47.17964" lon="0.05136">
        <ele>66.36</ele>
        <time>2023-06-10T08:42:41.703Z</time>
      </trkpt>
      <trkpt lat="47.17966" lon="0.05134">
        <ele>66.46</ele>
        <time>2023-06-10T08:43:11.751Z</time>
      </trkpt>
      <trkpt lat="47.17974" lon="0.05129">
        <ele>66.88</ele>
        <time>2023-06-10T08:43:41.800Z</time>
      </trkpt>
      <trkpt lat="47.17978" lon="0.05126">
        <ele>67.11</ele>
        <time>2023-06-10T08:44:11.850Z</time>
      </trkpt>
      <trkpt lat="47.17982" lon="0.05121">
        <ele>67.38</ele>
        <time>2023-06-10T08:44:41.901Z</time>
      </trkpt>
      <trkpt lat="47.17985" lon="0.05117">
        <ele>67.66</ele>
        <time>2023-06-10T08:45:11.952Z</time>
      </trkpt>
      <trkpt lat="47.17992" lon="0.05109">
        <ele>68.3</ele>
        <time>2023-06-10T08:45:42.005Z</time>
      </trkpt>
      <trkpt lat="47.18008" lon="0.05087">
        <ele>70.04</ele>
        <time>2023-06-10T08:46:12.061Z</time>
      </trkpt>
      <trkpt lat="47.18021" lon="0.05071">
        <ele>71.39</ele>
        <time>2023-06-10T08:46:42.120Z</time>
      </trkpt>
      <trkpt lat="47.18034" lon="0.0506">
        <ele>72.59</ele>
        <time>2023-06-10T08:47:12.181Z</time>
      </trkpt>
      <trkpt lat="47.18051" lon="0.05044">
        <ele>74.23</ele>
        <time>2023-06-10T08:47:42.246Z</time>
      </trkpt>
      <trkpt lat="47.18061" lon="0.05037">
        <ele>75.1</ele>
        <time>2023-06-10T08:48:12.312Z</time>
      </trkpt>
      <trkpt lat="47.18069" lon="0.05032">
        <ele>75.84</ele>
        <time>2023-06-10T08:48:42.380Z</time>
      </trkpt>
      <trkpt lat="47.18069" lon="0.05032">
        <ele>75.84</ele>
        <time>2023-06-10T08:49:12.448Z</time>
      </trkpt>
      <trkpt lat="47.18077" lon="0.05028">
        <ele>76.62</ele>
        <time>2023-06-10T08:49:42.517Z</time>
      </trkpt>
      <trkpt lat="47.18094" lon="0.0502">
        <ele>78.24</ele>
        <time>2023-06-10T08:50:12.589Z</time>
      </trkpt>
      <trkpt lat="47.18098" lon="0.05019">
        <ele>78.3</ele>
        <time>2023-06-10T08:50:42.662Z</time>
      </trkpt>
      <trkpt lat="47.18107" lon="0.05015">
        <ele>78.73</ele>
        <time>2023-06-10T08:51:12.736Z</time>
      </trkpt>
      <trkpt lat="47.1812" lon="0.05009">
        <ele>79.32</ele>
        <time>2023-06-10T08:51:42.812Z</time>
      </trkpt>
      <trkpt lat="47.18124" lon="0.05007">
        <ele>79.48</ele>
        <time>2023-06-10T08:52:12.889Z</time>
      </trkpt>
      <trkpt lat="47.18128" lon="0.05005">
        <ele>79.61</ele>
        <time>2023-06-10T08:52:42.967Z</time>
      </trkpt>
      <trkpt lat="47.1813" lon="0.05004">
        <ele>79.65</ele>
        <time>2023-06-10T08:53:13.045Z</time>
      </trkpt>
      <trkpt lat="47.18132" lon="0.05003">
        <ele>79.71</ele>
        <time>2023-06-10T08:53:43.123Z</time>
      </trkpt>
      <trkpt lat="47.18141" lon="0.05">
        <ele>79.83</ele>
        <time>2023-06-10T08:54:13.203Z</time>
      </trkpt>
      <trkpt lat="47.18148" lon="0.04997">
        <ele>80.13</ele>
        <time>2023-06-10T08:54:43.284Z</time>
      </trkpt>
      <trkpt lat="47.18158" lon="0.04993">
        <ele>80.49</ele>
        <time>2023-06-10T08:55:13.367Z</time>
      </trkpt>
      <trkpt lat="47.18173" lon="0.04989">
        <ele>81.05</ele>
        <time>2023-06-10T08:55:43.452Z</time>
      </trkpt>
      <trkpt lat="47.18173" lon="0.04989">
        <ele>81.05</ele>
        <time>2023-06-10T08:56:13.537Z</time>
      </trkpt>
      <trkpt lat="47.18173" lon="0.04985">
        <ele>81.13</ele>
        <time>2023-06-10T08:56:43.623Z</time>
      </trkpt>
      <trkpt lat="47.18175" lon="0.04979">
        <ele>81.27</ele>
        <time>2023-06-10T08:57:13.709Z</time>
      </trkpt>
      <trkpt lat="47.1817" lon="0.04972">
        <ele>81.48</ele>
        <time>2023-06-10T08:57:43.796Z</time>
      </trkpt>
      <trkpt lat="47.18167" lon="0.04965">
        <ele>81.64</ele>
        <time>2023-06-10T08:58:13.884Z</time>
      </trkpt>
      <trkpt lat="47.18165" lon="0.0495">
        <ele>81.96</ele>
        <time>2023-06-10T08:58:43.974Z</time>
      </trkpt>
      <trkpt lat="47.18162" lon="0.04925">
        <ele>82.37</ele>
        <time>2023-06-10T08:59:14.067Z</time>
      </trkpt>
      <trkpt lat="47.18153" lon="0.04918">
        <ele>82.61</ele>
        <time>2023-06-10T08:59:44.161Z</time>
      </trkpt>
      <trkpt lat="47.18151" lon="0.04916">
        <ele>82.68</ele>
        <time>2023-06-10T09:00:14.256Z</time>
      </trkpt>
      <trkpt lat="47.18149" lon="0.04913">
        <ele>82.73</ele>
        <time>2023-06-10T09:00:44.351Z</time>
      </trkpt>
      <trkpt lat="47.18147" lon="0.04898">
        <ele>82.96</ele>
        <time>2023-06-10T09:01:14.448Z</time>
      </trkpt>
      <trkpt lat="47.18144" lon="0.04875">
        <ele>83.26</ele>
        <time>2023-06-10T09:01:44.548Z</time>
      </trkpt>
      <trkpt lat="47.1814" lon="0.04849">
        <ele>83.54</ele>
        <time>2023-06-10T09:02:14.650Z</time>
      </trkpt>
      <trkpt lat="47.18136" lon="0.04824">
        <ele>83.85</ele>
        <time>2023-06-10T09:02:44.755Z</time>
      </trkpt>
      <trkpt lat="47.18135" lon="0.04811">
        <ele>84.04</ele>
        <time>2023-06-10T09:03:14.862Z</time>
      </trkpt>
      <trkpt lat="47.18132" lon="0.04792">
        <ele>84.37</ele>
        <time>2023-06-10T09:03:44.971Z</time>
      </trkpt>
      <trkpt lat="47.18131" lon="0.04785">
        <ele>84.45</ele>
        <time>2023-06-10T09:04:15.081Z</time>
      </trkpt>
      <trkpt lat="47.18126" lon="0.04753">
        <ele>84.45</ele>
        <time>2023-06-10T09:04:45.194Z</time>
      </trkpt>
      <trkpt lat="47.18124" lon="0.0474">
        <ele>84.48</ele>
        <time>2023-06-10T09:05:15.309Z</time>
      </trkpt>
      <trkpt lat="47.18124" lon="0.04737">
        <ele>84.5</ele>
        <time>2023-06-10T09:05:45.424Z</time>
      </trkpt>
      <trkpt lat="47.1813" lon="0.04735">
        <ele>84.59</ele>
        <time>2023-06-10T09:06:15.540Z</time>
      </trkpt>
      <trkpt lat="47.1814" lon="0.04732">
        <ele>84.76</ele>
        <time>2023-06-10T09:06:45.658Z</time>
      </trkpt>
      <trkpt lat="47.18143" lon="0.04726">
        <ele>84.84</ele>
        <time>2023-06-10T09:07:15.776Z</time>
      </trkpt>
      <trkpt lat="47.18142" lon="0.04716">
        <ele>84.97</ele>
        <time>2023-06-10T09:07:45.895Z</time>
      </trkpt>
      <trkpt lat="47.18141" lon="0.04703">
        <ele>85.08</ele>
        <time>2023-06-10T09:08:16.016Z</time>
      </trkpt>
      <trkpt lat="47.1814" lon="0.04691">
        <ele>85.16</ele>
        <time>2023-06-10T09:08:46.138Z</time>
      </trkpt>
      <trkpt lat="47.18138" lon="0.04677">
        <ele>84.82</ele>
        <time>2023-06-10T09:09:16.262Z</time>
      </trkpt>
      <trkpt lat="47.18135" lon="0.04644">
        <ele>83.91</ele>
        <time>2023-06-10T09:09:46.389Z</time>
      </trkpt>
      <trkpt lat="47.18135" lon="0.04642">
        <ele>83.88</ele>
        <time>2023-06-10T09:10:16.517Z</time>
      </trkpt>
      <trkpt lat="47.18154" lon="0.04649">
        <ele>83.59</ele>
        <time>2023-06-10T09:10:46.648Z</time>
      </trkpt>
      <trkpt lat="47.18161" lon="0.04652">
        <ele>83.42</ele>
        <time>2023-06-10T09:11:16.780Z</time>
      </trkpt>
      <trkpt lat="47.18165" lon="0.04655">
        <ele>83.32</ele>
        <time>2023-06-10T09:11:46.913Z</time>
      </trkpt>
      <trkpt lat="47.18166" lon="0.04668">
        <ele>83.13</ele>
        <time>2023-06-10T09:12:17.047Z</time>
      </trkpt>
      <trkpt lat="47.18167" lon="0.04686">
        <ele>82.9</ele>
        <time>2023-06-10T09:12:47.183Z</time>
      </trkpt>
      <trkpt lat="47.18167" lon="0.047">
        <ele>82.73</ele>
        <time>2023-06-10T09:13:17.320Z</time>
      </trkpt>
      <trkpt lat="47.18167" lon="0.04712">
        <ele>82.6</ele>
        <time>2023-06-10T09:13:47.459Z</time>
      </trkpt>
      <trkpt lat="47.18168" lon="0.04731">
        <ele>82.48</ele>
        <time>2023-06-10T09:14:17.600Z</time>
      </trkpt>
      <trkpt lat="47.18168" lon="0.04742">
        <ele>82.39</ele>
        <time>2023-06-10T09:14:47.742Z</time>
      </trkpt>
      <trkpt lat="47.18171" lon="0.04776">
        <ele>82.12</ele>
        <time>2023-06-10T09:15:17.888Z</time>
      </trkpt>
      <trkpt lat="47.18173" lon="0.04799">
        <ele>81.96</ele>
        <time>2023-06-10T09:15:48.036Z</time>
      </trkpt>
      <trkpt lat="47.18176" lon="0.0483">
        <ele>81.68</ele>
        <time>2023-06-10T09:16:18.188Z</time>
      </trkpt>
      <trkpt lat="47.18179" lon="0.0486">
        <ele>81.34</ele>
        <time>2023-06-10T09:16:48.343Z</time>
      </trkpt>
      <trkpt lat="47.18181" lon="0.04885">
        <ele>81.09</ele>
        <time>2023-06-10T09:17:18.501Z</time>
      </trkpt>
      <trkpt lat="47.18182" lon="0.04895">
        <ele>80.91</ele>
        <time>2023-06-10T09:17:48.660Z</time>
      </trkpt>
      <trkpt lat="47.18184" lon="0.04912">
        <ele>80.55</ele>
        <time>2023-06-10T09:18:18.821Z</time>
      </trkpt>
      <trkpt lat="47.18186" lon="0.0493">
        <ele>80.14</ele>
        <time>2023-06-10T09:18:48.984Z</time>
      </trkpt>
      <trkpt lat="47.18186" lon="0.04934">
        <ele>80.01</ele>
        <time>2023-06-10T09:19:19.147Z</time>
      </trkpt>
      <trkpt lat="47.18185" lon="0.04958">
        <ele>79.28</ele>
        <time>2023-06-10T09:19:49.313Z</time>
      </trkpt>
      <trkpt lat="47.18185" lon="0.04978">
        <ele>78.65</ele>
        <time>2023-06-10T09:20:19.481Z</time>
      </trkpt>
      <trkpt lat="47.18187" lon="0.04987">
        <ele>78.35</ele>
        <time>2023-06-10T09:20:49.650Z</time>
      </trkpt>
      <trkpt lat="47.18184" lon="0.04993">
        <ele>78.11</ele>
        <time>2023-06-10T09:21:19.820Z</time>
      </trkpt>
      <trkpt lat="47.18185" lon="0.04998">
        <ele>77.95</ele>
        <time>2023-06-10T09:21:49.990Z</time>
      </trkpt>
      <trkpt lat="47.18189" lon="0.05011">
        <ele>77.39</ele>
        <time>2023-06-10T09:22:20.162Z</time>
      </trkpt>
      <trkpt lat="47.18207" lon="0.05034">
        <ele>76.03</ele>
        <time>2023-06-10T09:22:50.338Z</time>
      </trkpt>
      <trkpt lat="47.18217" lon="0.05039">
        <ele>75.46</ele>
        <time>2023-06-10T09:23:20.515Z</time>
      </trkpt>
      <trkpt lat="47.18225" lon="0.05043">
        <ele>74.91</ele>
        <time>2023-06-10T09:23:50.694Z</time>
      </trkpt>
      <trkpt lat="47.18228" lon="0.05045">
        <ele>74.67</ele>
        <time>2023-06-10T09:24:20.873Z</time>
      </trkpt>
      <trkpt lat="47.18251" lon="0.05049">
        <ele>73.14</ele>
        <time>2023-06-10T09:24:51.056Z</time>
      </trkpt>
      <trkpt lat="47.18255" lon="0.0505">
        <ele>72.84</ele>
        <time>2023-06-10T09:25:21.240Z</time>
      </trkpt>
      <trkpt lat="47.18268" lon="0.0505">
        <ele>71.99</ele>
        <time>2023-06-10T09:25:51.426Z</time>
      </trkpt>
      <trkpt lat="47.18277" lon="0.0505">
        <ele>71.45</ele>
        <time>2023-06-10T09:26:21.613Z</time>
      </trkpt>
      <trkpt lat="47.18299" lon="0.0505">
        <ele>70.17</ele>
        <time>2023-06-10T09:26:51.804Z</time>
      </trkpt>
      <trkpt lat="47.18325" lon="0.05051">
        <ele>69.11</ele>
        <time>2023-06-10T09:27:21.999Z</time>
      </trkpt>
      <trkpt lat="47.18353" lon="0.05051">
        <ele>67.28</ele>
        <time>2023-06-10T09:27:52.198Z</time>
      </trkpt>
      <trkpt lat="47.18353" lon="0.05051">
        <ele>64.82</ele>
        <time>2023-06-10T09:28:22.397Z</time>
      </trkpt>
      <trkpt lat="47.18363" lon="0.05051">
        <ele>65.12</ele>
        <time>2023-06-10T09:28:52.598Z</time>
      </trkpt>
      <trkpt lat="47.18363" lon="0.05051">
        <ele>67.9</ele>
        <time>2023-06-10T09:29:22.799Z</time>
      </trkpt>
      <trkpt lat="47.18381" lon="0.05051">
        <ele>69.11</ele>
        <time>2023-06-10T09:29:53.003Z</time>
      </trkpt>
      <trkpt lat="47.18386" lon="0.05051">
        <ele>68.61</ele>
        <time>2023-06-10T09:30:23.208Z</time>
      </trkpt>
      <trkpt lat="47.18378" lon="0.05051">
        <ele>67.74</ele>
        <time>2023-06-10T09:30:53.414Z</time>
      </trkpt>
      <trkpt lat="47.18365" lon="0.05051">
        <ele>66.44</ele>
        <time>2023-06-10T09:31:23.622Z</time>
      </trkpt>
      <trkpt lat="47.18358" lon="0.05051">
        <ele>65.8</ele>
        <time>2023-06-10T09:31:53.831Z</time>
      </trkpt>
      <trkpt lat="47.18359" lon="0.0506">
        <ele>65.23</ele>
        <time>2023-06-10T09:32:24.041Z</time>
      </trkpt>
      <trkpt lat="47.18362" lon="0.05079">
        <ele>64.09</ele>
        <time>2023-06-10T09:32:54.253Z</time>
      </trkpt>
      <trkpt lat="47.18364" lon="0.05091">
        <ele>63.4</ele>
        <time>2023-06-10T09:33:24.467Z</time>
      </trkpt>
      <trkpt lat="47.18365" lon="0.05097">
        <ele>63.09</ele>
        <time>2023-06-10T09:33:54.681Z</time>
      </trkpt>
      <trkpt lat="47.18367" lon="0.0511">
        <ele>62.54</ele>
        <time>2023-06-10T09:34:24.897Z</time>
      </trkpt>
      <trkpt lat="47.18369" lon="0.05122">
        <ele>62.06</ele>
        <time>2023-06-10T09:34:55.114Z</time>
      </trkpt>
      <trkpt lat="47.18371" lon="0.05134">
        <ele>61.97</ele>
        <time>2023-06-10T09:35:25.332Z</time>
      </trkpt>
      <trkpt lat="47.18372" lon="0.05139">
        <ele>61.95</ele>
        <time>2023-06-10T09:35:55.551Z</time>
      </trkpt>
      <trkpt lat="47.18373" lon="0.05151">
        <ele>61.95</ele>
        <time>2023-06-10T09:36:25.771Z</time>
      </trkpt>
      <trkpt lat="47.18374" lon="0.05157">
        <ele>62.35</ele>
        <time>2023-06-10T09:36:55.992Z</time>
      </trkpt>
      <trkpt lat="47.18375" lon="0.05164">
        <ele>62.84</ele>
        <time>2023-06-10T09:37:26.214Z</time>
      </trkpt>
      <trkpt lat="47.18376" lon="0.0517">
        <ele>63.46</ele>
        <time>2023-06-10T09:37:56.437Z</time>
      </trkpt>
      <trkpt lat="47.18377" lon="0.05177">
        <ele>64.22</ele>
        <time>2023-06-10T09:38:26.660Z</time>
      </trkpt>
      <trkpt lat="47.18378" lon="0.05181">
        <ele>64.82</ele>
        <time>2023-06-10T09:38:56.884Z</time>
      </trkpt>
      <trkpt lat="47.18381" lon="0.05189">
        <ele>65.98</ele>
        <time>2023-06-10T09:39:27.109Z</time>
      </trkpt>
      <trkpt lat="47.18385" lon="0.052">
        <ele>66.34</ele>
        <time>2023-06-10T09:39:57.335Z</time>
      </trkpt>
      <trkpt lat="47.18387" lon="0.05205">
        <ele>66.52</ele>
        <time>2023-06-10T09:40:27.562Z</time>
      </trkpt>
      <trkpt lat="47.18391" lon="0.0521">
        <ele>66.77</ele>
        <time>2023-06-10T09:40:57.790Z</time>
      </trkpt>
      <trkpt lat="47.18395" lon="0.05214">
        <ele>66.96</ele>
        <time>2023-06-10T09:41:28.018Z</time>
      </trkpt>
      <trkpt lat="47.18402" lon="0.05223">
        <ele>67.3</ele>
        <time>2023-06-10T09:41:58.248Z</time>
      </trkpt>
      <trkpt lat="47.18406" lon="0.05225">
        <ele>67.44</ele>
        <time>2023-06-10T09:42:28.478Z</time>
      </trkpt>
      <trkpt lat="47.18409" lon="0.05227">
        <ele>67.6</ele>
        <time>2023-06-10T09:42:58.709Z</time>
      </trkpt>
      <trkpt lat="47.18414" lon="0.05226">
        <ele>67.84</ele>
        <time>2023-06-10T09:43:28.941Z</time>
      </trkpt>
      <trkpt lat="47.18419" lon="0.05226">
        <ele>68.1</ele>
        <time>2023-06-10T09:43:59.174Z</time>
      </trkpt>
      <trkpt lat="47.18428" lon="0.05224">
        <ele>68.67</ele>
        <time>2023-06-10T09:44:29.408Z</time>
      </trkpt>
      <trkpt lat="47.18441" lon="0.05222">
        <ele>69.6</ele>
        <time>2023-06-10T09:44:59.644Z</time>
      </trkpt>
      <trkpt lat="47.18446" lon="0.05222">
        <ele>69.93</ele>
        <time>2023-06-10T09:45:29.881Z</time>
      </trkpt>
      <trkpt lat="47.1845" lon="0.05221">
        <ele>70.29</ele>
        <time>2023-06-10T09:46:00.119Z</time>
      </trkpt>
      <trkpt lat="47.18454" lon="0.0522">
        <ele>70.68</ele>
        <time>2023-06-10T09:46:30.357Z</time>
      </trkpt>
      <trkpt lat="47.18459" lon="0.0522">
        <ele>71.12</ele>
        <time>2023-06-10T09:47:00.596Z</time>
      </trkpt>
      <trkpt lat="47.18464" lon="0.05219">
        <ele>71.65</ele>
        <time>2023-06-10T09:47:30.836Z</time>
      </trkpt>
      <trkpt lat="47.18468" lon="0.05219">
        <ele>72.06</ele>
        <time>2023-06-10T09:48:01.077Z</time>
      </trkpt>
      <trkpt lat="47.18472" lon="0.05219">
        <ele>72.58</ele>
        <time>2023-06-10T09:48:31.318Z</time>
      </trkpt>
      <trkpt lat="47.18477" lon="0.05219">
        <ele>73.13</ele>
        <time>2023-06-10T09:49:01.560Z</time>
      </trkpt>
      <trkpt lat="47.18495" lon="0.0522">
        <ele>75.44</ele>
        <time>2023-06-10T09:49:31.805Z</time>
      </trkpt>
      <trkpt lat="47.18504" lon="0.05221">
        <ele>76.51</ele>
        <time>2023-06-10T09:50:02.051Z</time>
      </trkpt>
      <trkpt lat="47.18513" lon="0.05221">
        <ele>77.49</ele>
        <time>2023-06-10T09:50:32.299Z</time>
      </trkpt>
      <trkpt lat="47.18515" lon="0.05221">
        <ele>77.72</ele>
        <time>2023-06-10T09:51:02.547Z</time>
      </trkpt>
      <trkpt lat="47.18526" lon="0.05222">
        <ele>78.85</ele>
        <time>2023-06-10T09:51:32.797Z</time>
      </trkpt>
      <trkpt lat="47.18531" lon="0.05223">
        <ele>79.33</ele>
        <time>2023-06-10T09:52:03.048Z</time>
      </trkpt>
      <trkpt lat="47.18535" lon="0.05223">
        <ele>79.87</ele>
        <time>2023-06-10T09:52:33.299Z</time>
      </trkpt>
      <trkpt lat="47.1854" lon="0.05224">
        <ele>80.47</ele>
        <time>2023-06-10T09:53:03.551Z</time>
      </trkpt>
      <trkpt lat="47.18544" lon="0.05224">
        <ele>81.15</ele>
        <time>2023-06-10T09:53:33.804Z</time>
      </trkpt>
      <trkpt lat="47.18549" lon="0.05225">
        <ele>81.91</ele>
        <time>2023-06-10T09:54:04.057Z</time>
      </trkpt>
      <trkpt lat="47.18553" lon="0.05225">
        <ele>82.75</ele>
        <time>2023-06-10T09:54:34.311Z</time>
      </trkpt>
      <trkpt lat="47.18558" lon="0.05226">
        <ele>83.73</ele>
        <time>2023-06-10T09:55:04.566Z</time>
      </trkpt>
      <trkpt lat="47.18558" lon="0.05226">
        <ele>83.73</ele>
        <time>2023-06-10T09:55:34.821Z</time>
      </trkpt>
      <trkpt lat="47.18562" lon="0.05225">
        <ele>84.97</ele>
        <time>2023-06-10T09:56:05.077Z</time>
      </trkpt>
      <trkpt lat="47.18566" lon="0.05225">
        <ele>86.56</ele>
        <time>2023-06-10T09:56:35.333Z</time>
      </trkpt>
      <trkpt lat="47.18575" lon="0.05223">
        <ele>90.17</ele>
        <time>2023-06-10T09:57:05.591Z</time>
      </trkpt>
      <trkpt lat="47.1858" lon="0.05223">
        <ele>91.76</ele>
        <time>2023-06-10T09:57:35.850Z</time>
      </trkpt>
      <trkpt lat="47.18584" lon="0.05222">
        <ele>93.16</ele>
        <time>2023-06-10T09:58:06.109Z</time>
      </trkpt>
      <trkpt lat="47.18589" lon="0.05221">
        <ele>94.46</ele>
        <time>2023-06-10T09:58:36.369Z</time>
      </trkpt>
      <trkpt lat="47.18592" lon="0.05221">
        <ele>95.36</ele>
        <time>2023-06-10T09:59:06.629Z</time>
      </trkpt>
      <trkpt lat="47.18593" lon="0.05221">
        <ele>95.7</ele>
        <time>2023-06-10T09:59:36.890Z</time>
      </trkpt>
      <trkpt lat="47.18598" lon="0.05223">
        <ele>96.88</ele>
        <time>2023-06-10T10:00:07.151Z</time>
      </trkpt>
      <trkpt lat="47.18602" lon="0.05224">
        <ele>97.96</ele>
        <time>2023-06-10T10:00:37.413Z</time>
      </trkpt>
      <trkpt lat="47.18604" lon="0.05225">
        <ele>98.41</ele>
        <time>2023-06-10T10:01:07.675Z</time>
      </trkpt>
      <trkpt lat="47.18605" lon="0.05228">
        <ele>98.92</ele>
        <time>2023-06-10T10:01:37.938Z</time>
      </trkpt>
      <trkpt lat="47.18608" lon="0.05233">
        <ele>99.72</ele>
        <time>2023-06-10T10:02:08.202Z</time>
      </trkpt>
      <trkpt lat="47.18611" lon="0.05237">
        <ele>100.41</ele>
        <time>2023-06-10T10:02:38.466Z</time>
      </trkpt>
      <trkpt lat="47.18611" lon="0.05238">
        <ele>100.41</ele>
        <time>2023-06-10T10:03:08.730Z</time>
      </trkpt>
      <trkpt lat="47.18614" lon="0.05243">
        <ele>100.99</ele>
        <time>2023-06-10T10:03:38.995Z</time>
      </trkpt>
      <trkpt lat="47.18616" lon="0.05249">
        <ele>101.49</ele>
        <time>2023-06-10T10:04:09.261Z</time>
      </trkpt>
      <trkpt lat="47.18619" lon="0.05254">
        <ele>101.93</ele>
        <time>2023-06-10T10:04:39.527Z</time>
      </trkpt>
      <trkpt lat="47.18621" lon="0.0526">
        <ele>102.33</ele>
        <time>2023-06-10T10:05:09.794Z</time>
      </trkpt>
      <trkpt lat="47.18621" lon="0.0526">
        <ele>102.33</ele>
        <time>2023-06-10T10:05:40.061Z</time>
      </trkpt>
      <trkpt lat="47.18629" lon="0.05267">
        <ele>103.07</ele>
        <time>2023-06-10T10:06:10.330Z</time>
      </trkpt>
      <trkpt lat="47.18634" lon="0.05271">
        <ele>103.52</ele>
        <time>2023-06-10T10:06:40.600Z</time>
      </trkpt>
      <trkpt lat="47.18636" lon="0.05275">
        <ele>103.75</ele>
        <time>2023-06-10T10:07:10.870Z</time>
      </trkpt>
      <trkpt lat="47.18638" lon="0.0528">
        <ele>104.05</ele>
        <time>2023-06-10T10:07:41.141Z</time>
      </trkpt>
      <trkpt lat="47.18639" lon="0.05283">
        <ele>104.17</ele>
        <time>2023-06-10T10:08:11.412Z</time>
      </trkpt>
      <trkpt lat="47.1864" lon="0.05286">
        <ele>104.31</ele>
        <time>2023-06-10T10:08:41.683Z</time>
      </trkpt>
      <trkpt lat="47.18641" lon="0.05293">
        <ele>104.54</ele>
        <time>2023-06-10T10:09:11.955Z</time>
      </trkpt>
      <trkpt lat="47.18642" lon="0.05299">
        <ele>104.74</ele>
        <time>2023-06-10T10:09:42.228Z</time>
      </trkpt>
      <trkpt lat="47.18643" lon="0.05306">
        <ele>104.91</ele>
        <time>2023-06-10T10:10:12.502Z</time>
      </trkpt>
      <trkpt lat="47.18644" lon="0.05312">
        <ele>105.03</ele>
        <time>2023-06-10T10:10:42.776Z</time>
      </trkpt>
      <trkpt lat="47.18645" lon="0.05319">
        <ele>105.12</ele>
        <time>2023-06-10T10:11:13.051Z</time>
      </trkpt>
      <trkpt lat="47.18645" lon="0.05321">
        <ele>105.14</ele>
        <time>2023-06-10T10:11:43.326Z</time>
      </trkpt>
      <trkpt lat="47.18654" lon="0.05333">
        <ele>105.35</ele>
        <time>2023-06-10T10:12:13.603Z</time>
      </trkpt>
      <trkpt lat="47.1866" lon="0.05341">
        <ele>105.33</ele>
        <time>2023-06-10T10:12:43.882Z</time>
      </trkpt>
      <trkpt lat="47.18664" lon="0.05345">
        <ele>105.32</ele>
        <time>2023-06-10T10:13:14.161Z</time>
      </trkpt>
      <trkpt lat="47.18671" lon="0.05352">
        <ele>105.26</ele>
        <time>2023-06-10T10:13:44.442Z</time>
      </trkpt>
      <trkpt lat="47.18679" lon="0.0536">
        <ele>105.14</ele>
        <time>2023-06-10T10:14:14.724Z</time>
      </trkpt>
      <trkpt lat="47.1868" lon="0.05361">
        <ele>105.11</ele>
        <time>2023-06-10T10:14:45.006Z</time>
      </trkpt>
      <trkpt lat="47.18693" lon="0.05352">
        <ele>104.85</ele>
        <time>2023-06-10T10:15:15.291Z</time>
      </trkpt>
      <trkpt lat="47.18697" lon="0.05345">
        <ele>104.74</ele>
        <time>2023-06-10T10:15:45.577Z</time>
      </trkpt>
      <trkpt lat="47.18701" lon="0.05338">
        <ele>104.61</ele>
        <time>2023-06-10T10:16:15.864Z</time>
      </trkpt>
      <trkpt lat="47.18717" lon="0.05316">
        <ele>104.15</ele>
        <time>2023-06-10T10:16:46.154Z</time>
      </trkpt>
      <trkpt lat="47.1872" lon="0.05314">
        <ele>104.08</ele>
        <time>2023-06-10T10:17:16.445Z</time>
      </trkpt>
      <trkpt lat="47.18735" lon="0.05305">
        <ele>103.63</ele>
        <time>2023-06-10T10:17:46.738Z</time>
      </trkpt>
      <trkpt lat="47.18737" lon="0.05305">
        <ele>103.58</ele>
        <time>2023-06-10T10:18:17.032Z</time>
      </trkpt>
      <trkpt lat="47.18756" lon="0.05307">
        <ele>103.12</ele>
        <time>2023-06-10T10:18:47.329Z</time>
      </trkpt>
      <trkpt lat="47.18764" lon="0.0531">
        <ele>102.93</ele>
        <time>2023-06-10T10:19:17.627Z</time>
      </trkpt>
      <trkpt lat="47.18772" lon="0.05313">
        <ele>102.69</ele>
        <time>2023-06-10T10:19:47.926Z</time>
      </trkpt>
      <trkpt lat="47.18777" lon="0.05315">
        <ele>102.54</ele>
        <time>2023-06-10T10:20:18.226Z</time>
      </trkpt>
      <trkpt lat="47.18785" lon="0.05319">
        <ele>102.18</ele>
        <time>2023-06-10T10:20:48.528Z</time>
      </trkpt>
      <trkpt lat="47.18807" lon="0.05327">
        <ele>101.14</ele>
        <time>2023-06-10T10:21:18.833Z</time>
      </trkpt>
      <trkpt lat="47.18809" lon="0.05328">
        <ele>101.02</ele>
        <time>2023-06-10T10:21:49.139Z</time>
      </trkpt>
      <trkpt lat="47.18815" lon="0.05332">
        <ele>100.67</ele>
        <time>2023-06-10T10:22:19.446Z</time>
      </trkpt>
      <trkpt lat="47.18832" lon="0.05342">
        <ele>99.7</ele>
        <time>2023-06-10T10:22:49.755Z</time>
      </trkpt>
      <trkpt lat="47.18852" lon="0.05355">
        <ele>98.53</ele>
        <time>2023-06-10T10:23:20.068Z</time>
      </trkpt>
      <trkpt lat="47.18869" lon="0.05365">
        <ele>97.53</ele>
        <time>2023-06-10T10:23:50.384Z</time>
      </trkpt>
      <trkpt lat="47.18869" lon="0.05365">
        <ele>97.53</ele>
        <time>2023-06-10T10:24:20.700Z</time>
      </trkpt>
      <trkpt lat="47.18884" lon="0.05378">
        <ele>96.56</ele>
        <time>2023-06-10T10:24:51.019Z</time>
      </trkpt>
      <trkpt lat="47.18896" lon="0.05388">
        <ele>95.9</ele>
        <time>2023-06-10T10:25:21.340Z</time>
      </trkpt>
      <trkpt lat="47.18904" lon="0.05395">
        <ele>95.52</ele>
        <time>2023-06-10T10:25:51.662Z</time>
      </trkpt>
      <trkpt lat="47.18908" lon="0.05398">
        <ele>95.35</ele>
        <time>2023-06-10T10:26:21.985Z</time>
      </trkpt>
      <trkpt lat="47.18915" lon="0.05405">
        <ele>95.08</ele>
        <time>2023-06-10T10:26:52.310Z</time>
      </trkpt>
      <trkpt lat="47.18927" lon="0.05415">
        <ele>94.76</ele>
        <time>2023-06-10T10:27:22.637Z</time>
      </trkpt>
      <trkpt lat="47.18958" lon="0.05442">
        <ele>94.11</ele>
        <time>2023-06-10T10:27:52.969Z</time>
      </trkpt>
      <trkpt lat="47.18973" lon="0.05455">
        <ele>93.83</ele>
        <time>2023-06-10T10:28:23.304Z</time>
      </trkpt>
      <trkpt lat="47.18975" lon="0.05457">
        <ele>93.8</ele>
        <time>2023-06-10T10:28:53.640Z</time>
      </trkpt>
      <trkpt lat="47.18996" lon="0.05458">
        <ele>93.54</ele>
        <time>2023-06-10T10:29:23.979Z</time>
      </trkpt>
      <trkpt lat="47.19004" lon="0.05455">
        <ele>93.45</ele>
        <time>2023-06-10T10:29:54.319Z</time>
      </trkpt>
      <trkpt lat="47.19013" lon="0.05452">
        <ele>93.3</ele>
        <time>2023-06-10T10:30:24.661Z</time>
      </trkpt>
      <trkpt lat="47.19021" lon="0.05448">
        <ele>93.07</ele>
        <time>2023-06-10T10:30:55.004Z</time>
      </trkpt>
      <trkpt lat="47.1903" lon="0.05445">
        <ele>92.75</ele>
        <time>2023-06-10T10:31:25.349Z</time>
      </trkpt>
      <trkpt lat="47.19034" lon="0.05443">
        <ele>92.55</ele>
        <time>2023-06-10T10:31:55.694Z</time>
      </trkpt>
      <trkpt lat="47.19039" lon="0.05442">
        <ele>92.32</ele>
        <time>2023-06-10T10:32:26.040Z</time>
      </trkpt>
      <trkpt lat="47.19043" lon="0.0544">
        <ele>92.06</ele>
        <time>2023-06-10T10:32:56.387Z</time>
      </trkpt>
      <trkpt lat="47.19048" lon="0.05438">
        <ele>91.71</ele>
        <time>2023-06-10T10:33:26.735Z</time>
      </trkpt>
      <trkpt lat="47.19052" lon="0.05439">
        <ele>91.47</ele>
        <time>2023-06-10T10:33:57.083Z</time>
      </trkpt>
      <trkpt lat="47.1906" lon="0.05442">
        <ele>90.8</ele>
        <time>2023-06-10T10:34:27.433Z</time>
      </trkpt>
      <trkpt lat="47.19078" lon="0.05447">
        <ele>89.35</ele>
        <time>2023-06-10T10:34:57.786Z</time>
      </trkpt>
      <trkpt lat="47.19082" lon="0.05448">
        <ele>88.96</ele>
        <time>2023-06-10T10:35:28.139Z</time>
      </trkpt>
      <trkpt lat="47.19082" lon="0.05448">
        <ele>88.96</ele>
        <time>2023-06-10T10:35:58.492Z</time>
      </trkpt>
      <trkpt lat="47.19091" lon="0.05452">
        <ele>88.09</ele>
        <time>2023-06-10T10:36:28.847Z</time>
      </trkpt>
      <trkpt lat="47.19095" lon="0.05455">
        <ele>87.61</ele>
        <time>2023-06-10T10:36:59.202Z</time>
      </trkpt>
      <trkpt lat="47.19112" lon="0.05463">
        <ele>85.62</ele>
        <time>2023-06-10T10:37:29.560Z</time>
      </trkpt>
      <trkpt lat="47.19121" lon="0.05467">
        <ele>84.69</ele>
        <time>2023-06-10T10:37:59.920Z</time>
      </trkpt>
      <trkpt lat="47.19124" lon="0.05469">
        <ele>84.34</ele>
        <time>2023-06-10T10:38:30.280Z</time>
      </trkpt>
      <trkpt lat="47.19142" lon="0.05476">
        <ele>82.55</ele>
        <time>2023-06-10T10:39:00.643Z</time>
      </trkpt>
      <trkpt lat="47.19164" lon="0.05485">
        <ele>83.11</ele>
        <time>2023-06-10T10:39:31.010Z</time>
      </trkpt>
      <trkpt lat="47.19172" lon="0.05488">
        <ele>83.27</ele>
        <time>2023-06-10T10:40:01.378Z</time>
      </trkpt>
      <trkpt lat="47.19174" lon="0.05489">
        <ele>83.28</ele>
        <time>2023-06-10T10:40:31.747Z</time>
      </trkpt>
      <trkpt lat="47.19173" lon="0.05493">
        <ele>83.3</ele>
        <time>2023-06-10T10:41:02.116Z</time>
      </trkpt>
      <trkpt lat="47.19173" lon="0.05499">
        <ele>83.29</ele>
        <time>2023-06-10T10:41:32.486Z</time>
      </trkpt>
      <trkpt lat="47.19172" lon="0.05506">
        <ele>83.24</ele>
        <time>2023-06-10T10:42:02.856Z</time>
      </trkpt>
      <trkpt lat="47.19171" lon="0.05512">
        <ele>83.16</ele>
        <time>2023-06-10T10:42:33.227Z</time>
      </trkpt>
      <trkpt lat="47.1917" lon="0.05519">
        <ele>83.03</ele>
        <time>2023-06-10T10:43:03.599Z</time>
      </trkpt>
      <trkpt lat="47.19169" lon="0.05525">
        <ele>82.86</ele>
        <time>2023-06-10T10:43:33.972Z</time>
      </trkpt>
      <trkpt lat="47.19168" lon="0.05532">
        <ele>82.66</ele>
        <time>2023-06-10T10:44:04.345Z</time>
      </trkpt>
      <trkpt lat="47.19166" lon="0.05544">
        <ele>82.18</ele>
        <time>2023-06-10T10:44:34.720Z</time>
      </trkpt>
      <trkpt lat="47.19165" lon="0.05551">
        <ele>81.9</ele>
        <time>2023-06-10T10:45:05.096Z</time>
      </trkpt>
      <trkpt lat="47.19164" lon="0.05557">
        <ele>81.59</ele>
        <time>2023-06-10T10:45:35.472Z</time>
      </trkpt>
      <trkpt lat="47.19161" lon="0.05577">
        <ele>80.53</ele>
        <time>2023-06-10T10:46:05.850Z</time>
      </trkpt>
      <trkpt lat="47.19161" lon="0.05583">
        <ele>80.2</ele>
        <time>2023-06-10T10:46:36.229Z</time>
      </trkpt>
      <trkpt lat="47.1916" lon="0.0559">
        <ele>79.92</ele>
        <time>2023-06-10T10:47:06.609Z</time>
      </trkpt>
      <trkpt lat="47.19159" lon="0.05596">
        <ele>79.7</ele>
        <time>2023-06-10T10:47:36.990Z</time>
      </trkpt>
      <trkpt lat="47.19158" lon="0.05602">
        <ele>79.55</ele>
        <time>2023-06-10T10:48:07.371Z</time>
      </trkpt>
      <trkpt lat="47.19157" lon="0.05609">
        <ele>79.45</ele>
        <time>2023-06-10T10:48:37.753Z</time>
      </trkpt>
      <trkpt lat="47.19156" lon="0.05615">
        <ele>79.39</ele>
        <time>2023-06-10T10:49:08.136Z</time>
      </trkpt>
      <trkpt lat="47.19155" lon="0.05622">
        <ele>79.37</ele>
        <time>2023-06-10T10:49:38.519Z</time>
      </trkpt>
      <trkpt lat="47.19154" lon="0.05628">
        <ele>79.38</ele>
        <time>2023-06-10T10:50:08.903Z</time>
      </trkpt>
      <trkpt lat="47.19153" lon="0.05635">
        <ele>79.43</ele>
        <time>2023-06-10T10:50:39.288Z</time>
      </trkpt>
      <trkpt lat="47.19152" lon="0.05641">
        <ele>79.51</ele>
        <time>2023-06-10T10:51:09.674Z</time>
      </trkpt>
      <trkpt lat="47.19151" lon="0.05648">
        <ele>79.62</ele>
        <time>2023-06-10T10:51:40.060Z</time>
      </trkpt>
      <trkpt lat="47.1915" lon="0.0566">
        <ele>79.92</ele>
        <time>2023-06-10T10:52:10.448Z</time>
      </trkpt>
      <trkpt lat="47.19143" lon="0.05706">
        <ele>81.06</ele>
        <time>2023-06-10T10:52:40.841Z</time>
      </trkpt>
      <trkpt lat="47.19143" lon="0.05706">
        <ele>81.06</ele>
        <time>2023-06-10T10:53:11.234Z</time>
      </trkpt>
      <trkpt lat="47.1914" lon="0.05718">
        <ele>81.34</ele>
        <time>2023-06-10T10:53:41.628Z</time>
      </trkpt>
      <trkpt lat="47.19136" lon="0.05737">
        <ele>81.67</ele>
        <time>2023-06-10T10:54:12.024Z</time>
      </trkpt>
      <trkpt lat="47.19134" lon="0.05743">
        <ele>81.76</ele>
        <time>2023-06-10T10:54:42.421Z</time>
      </trkpt>
      <trkpt lat="47.19127" lon="0.05774">
        <ele>82.12</ele>
        <time>2023-06-10T10:55:12.822Z</time>
      </trkpt>
      <trkpt lat="47.19125" lon="0.0578">
        <ele>82.22</ele>
        <time>2023-06-10T10:55:43.223Z</time>
      </trkpt>
      <trkpt lat="47.19124" lon="0.05786">
        <ele>82.36</ele>
        <time>2023-06-10T10:56:13.625Z</time>
      </trkpt>
      <trkpt lat="47.19122" lon="0.05793">
        <ele>82.53</ele>
        <time>2023-06-10T10:56:44.028Z</time>
      </trkpt>
      <trkpt lat="47.19121" lon="0.05799">
        <ele>82.75</ele>
        <time>2023-06-10T10:57:14.432Z</time>
      </trkpt>
      <trkpt lat="47.19119" lon="0.05805">
        <ele>83.01</ele>
        <time>2023-06-10T10:57:44.836Z</time>
      </trkpt>
      <trkpt lat="47.19118" lon="0.05811">
        <ele>83.31</ele>
        <time>2023-06-10T10:58:15.241Z</time>
      </trkpt>
      <trkpt lat="47.19116" lon="0.05817">
        <ele>83.64</ele>
        <time>2023-06-10T10:58:45.647Z</time>
      </trkpt>
      <trkpt lat="47.19111" lon="0.05842">
        <ele>85.12</ele>
        <time>2023-06-10T10:59:16.056Z</time>
      </trkpt>
      <trkpt lat="47.19105" lon="0.05867">
        <ele>86.55</ele>
        <time>2023-06-10T10:59:46.467Z</time>
      </trkpt>
      <trkpt lat="47.191" lon="0.05886">
        <ele>87.69</ele>
        <time>2023-06-10T11:00:16.881Z</time>
      </trkpt>
      <trkpt lat="47.19093" lon="0.05917">
        <ele>89.7</ele>
        <time>2023-06-10T11:00:47.298Z</time>
      </trkpt>
      <trkpt lat="47.19087" lon="0.05941">
        <ele>91.37</ele>
        <time>2023-06-10T11:01:17.718Z</time>
      </trkpt>
      <trkpt lat="47.19087" lon="0.05948">
        <ele>91.84</ele>
        <time>2023-06-10T11:01:48.139Z</time>
      </trkpt>
      <trkpt lat="47.19087" lon="0.05961">
        <ele>92.65</ele>
        <time>2023-06-10T11:02:18.561Z</time>
      </trkpt>
      <trkpt lat="47.19087" lon="0.05974">
        <ele>93.36</ele>
        <time>2023-06-10T11:02:48.985Z</time>
      </trkpt>
      <trkpt lat="47.19086" lon="0.06007">
        <ele>94.98</ele>
        <time>2023-06-10T11:03:19.412Z</time>
      </trkpt>
      <trkpt lat="47.19086" lon="0.06021">
        <ele>95.53</ele>
        <time>2023-06-10T11:03:49.841Z</time>
      </trkpt>
      <trkpt lat="47.19086" lon="0.0603">
        <ele>95.87</ele>
        <time>2023-06-10T11:04:20.271Z</time>
      </trkpt>
      <trkpt lat="47.19085" lon="0.06034">
        <ele>96.01</ele>
        <time>2023-06-10T11:04:50.701Z</time>
      </trkpt>
      <trkpt lat="47.19083" lon="0.06053">
        <ele>96.67</ele>
        <time>2023-06-10T11:05:21.133Z</time>
      </trkpt>
      <trkpt lat="47.19081" lon="0.06066">
        <ele>97.04</ele>
        <time>2023-06-10T11:05:51.567Z</time>
      </trkpt>
      <trkpt lat="47.19079" lon="0.06079">
        <ele>97.35</ele>
        <time>2023-06-10T11:06:22.002Z</time>
      </trkpt>
      <trkpt lat="47.19077" lon="0.06092">
        <ele>97.6</ele>
        <time>2023-06-10T11:06:52.439Z</time>
      </trkpt>
      <trkpt lat="47.19075" lon="0.06104">
        <ele>97.81</ele>
        <time>2023-06-10T11:07:22.877Z</time>
      </trkpt>
      <trkpt lat="47.19073" lon="0.06117">
        <ele>97.99</ele>
        <time>2023-06-10T11:07:53.316Z</time>
      </trkpt>
      <trkpt lat="47.19073" lon="0.06117">
        <ele>97.99</ele>
        <time>2023-06-10T11:08:23.755Z</time>
      </trkpt>
      <trkpt lat="47.1907" lon="0.06129">
        <ele>98.04</ele>
        <time>2023-06-10T11:08:54.196Z</time>
      </trkpt>
      <trkpt lat="47.19067" lon="0.06141">
        <ele>98.04</ele>
        <time>2023-06-10T11:09:24.638Z</time>
      </trkpt>
      <trkpt lat="47.19062" lon="0.06164">
        <ele>98.01</ele>
        <time>2023-06-10T11:09:55.083Z</time>
      </trkpt>
      <trkpt lat="47.1907" lon="0.06187">
        <ele>97.98</ele>
        <time>2023-06-10T11:10:25.531Z</time>
      </trkpt>
      <trkpt lat="47.1907" lon="0.06187">
        <ele>97.98</ele>
        <time>2023-06-10T11:10:55.979Z</time>
      </trkpt>
      <trkpt lat="47.19081" lon="0.06198">
        <ele>97.94</ele>
        <time>2023-06-10T11:11:26.429Z</time>
      </trkpt>
      <trkpt lat="47.19092" lon="0.06208">
        <ele>97.7</ele>
        <time>2023-06-10T11:11:56.881Z</time>
      </trkpt>
      <trkpt lat="47.19097" lon="0.06213">
        <ele>97.58</ele>
        <time>2023-06-10T11:12:27.334Z</time>
      </trkpt>
      <trkpt lat="47.19099" lon="0.06217">
        <ele>97.52</ele>
        <time>2023-06-10T11:12:57.787Z</time>
      </trkpt>
      <trkpt lat="47.19104" lon="0.06228">
        <ele>97.3</ele>
        <time>2023-06-10T11:13:28.242Z</time>
      </trkpt>
      <trkpt lat="47.19105" lon="0.0623">
        <ele>97.24</ele>
        <time>2023-06-10T11:13:58.697Z</time>
      </trkpt>
      <trkpt lat="47.19104" lon="0.06246">
        <ele>96.91</ele>
        <time>2023-06-10T11:14:29.154Z</time>
      </trkpt>
      <trkpt lat="47.19102" lon="0.06259">
        <ele>96.6</ele>
        <time>2023-06-10T11:14:59.612Z</time>
      </trkpt>
      <trkpt lat="47.19101" lon="0.06275">
        <ele>96.18</ele>
        <time>2023-06-10T11:15:30.072Z</time>
      </trkpt>
      <trkpt lat="47.19104" lon="0.06298">
        <ele>95.55</ele>
        <time>2023-06-10T11:16:00.535Z</time>
      </trkpt>
      <trkpt lat="47.19105" lon="0.06308">
        <ele>95.3</ele>
        <time>2023-06-10T11:16:30.999Z</time>
      </trkpt>
      <trkpt lat="47.19117" lon="0.0635">
        <ele>94.17</ele>
        <time>2023-06-10T11:17:01.468Z</time>
      </trkpt>
      <trkpt lat="47.19117" lon="0.06353">
        <ele>94.09</ele>
        <time>2023-06-10T11:17:31.937Z</time>
      </trkpt>
      <trkpt lat="47.19119" lon="0.0638">
        <ele>93.4</ele>
        <time>2023-06-10T11:18:02.409Z</time>
      </trkpt>
      <trkpt lat="47.19115" lon="0.06398">
        <ele>92.92</ele>
        <time>2023-06-10T11:18:32.883Z</time>
      </trkpt>
      <trkpt lat="47.19113" lon="0.06411">
        <ele>92.64</ele>
        <time>2023-06-10T11:19:03.358Z</time>
      </trkpt>
      <trkpt lat="47.19112" lon="0.06417">
        <ele>92.53</ele>
        <time>2023-06-10T11:19:33.834Z</time>
      </trkpt>
      <trkpt lat="47.1911" lon="0.06423">
        <ele>92.45</ele>
        <time>2023-06-10T11:20:04.311Z</time>
      </trkpt>
      <trkpt lat="47.19109" lon="0.0643">
        <ele>92.4</ele>
        <time>2023-06-10T11:20:34.789Z</time>
      </trkpt>
      <trkpt lat="47.19108" lon="0.06436">
        <ele>92.4</ele>
        <time>2023-06-10T11:21:05.267Z</time>
      </trkpt>
      <trkpt lat="47.19107" lon="0.06442">
        <ele>92.46</ele>
        <time>2023-06-10T11:21:35.746Z</time>
      </trkpt>
      <trkpt lat="47.19106" lon="0.06446">
        <ele>92.52</ele>
        <time>2023-06-10T11:22:06.225Z</time>
      </trkpt>
      <trkpt lat="47.19105" lon="0.06448">
        <ele>92.57</ele>
        <time>2023-06-10T11:22:36.705Z</time>
      </trkpt>
      <trkpt lat="47.19102" lon="0.06453">
        <ele>92.73</ele>
        <time>2023-06-10T11:23:07.185Z</time>
      </trkpt>
      <trkpt lat="47.191" lon="0.06459">
        <ele>92.95</ele>
        <time>2023-06-10T11:23:37.666Z</time>
      </trkpt>
      <trkpt lat="47.19097" lon="0.06464">
        <ele>93.2</ele>
        <time>2023-06-10T11:24:08.148Z</time>
      </trkpt>
      <trkpt lat="47.19085" lon="0.06491">
        <ele>94.68</ele>
        <time>2023-06-10T11:24:38.633Z</time>
      </trkpt>
      <trkpt lat="47.19084" lon="0.06492">
        <ele>94.73</ele>
        <time>2023-06-10T11:25:09.119Z</time>
      </trkpt>
      <trkpt lat="47.19083" lon="0.06504">
        <ele>95.19</ele>
        <time>2023-06-10T11:25:39.606Z</time>
      </trkpt>
      <trkpt lat="47.19081" lon="0.06517">
        <ele>95.62</ele>
        <time>2023-06-10T11:26:10.094Z</time>
      </trkpt>
      <trkpt lat="47.1908" lon="0.06529">
        <ele>95.97</ele>
        <time>2023-06-10T11:26:40.584Z</time>
      </trkpt>
      <trkpt lat="47.19079" lon="0.06536">
        <ele>96.12</ele>
        <time>2023-06-10T11:27:11.074Z</time>
      </trkpt>
      <trkpt lat="47.19079" lon="0.06536">
        <ele>96.12</ele>
        <time>2023-06-10T11:27:41.564Z</time>
      </trkpt>
      <trkpt lat="47.19077" lon="0.06542">
        <ele>96.24</ele>
        <time>2023-06-10T11:28:12.055Z</time>
      </trkpt>
      <trkpt lat="47.19075" lon="0.06548">
        <ele>96.33</ele>
        <time>2023-06-10T11:28:42.547Z</time>
      </trkpt>
      <trkpt lat="47.19072" lon="0.0656">
        <ele>96.45</ele>
        <time>2023-06-10T11:29:13.040Z</time>
      </trkpt>
      <trkpt lat="47.19064" lon="0.06584">
        <ele>96.57</ele>
        <time>2023-06-10T11:29:43.536Z</time>
      </trkpt>
      <trkpt lat="47.19055" lon="0.06613">
        <ele>96.67</ele>
        <time>2023-06-10T11:30:14.036Z</time>
      </trkpt>
      <trkpt lat="47.19048" lon="0.06637">
        <ele>96.82</ele>
        <time>2023-06-10T11:30:44.539Z</time>
      </trkpt>
      <trkpt lat="47.19042" lon="0.06655">
        <ele>96.41</ele>
        <time>2023-06-10T11:31:15.044Z</time>
      </trkpt>
      <trkpt lat="47.19034" lon="0.06682">
        <ele>95.72</ele>
        <time>2023-06-10T11:31:45.552Z</time>
      </trkpt>
      <trkpt lat="47.1904" lon="0.06685">
        <ele>95.49</ele>
        <time>2023-06-10T11:32:16.061Z</time>
      </trkpt>
      <trkpt lat="47.19066" lon="0.06697">
        <ele>94.61</ele>
        <time>2023-06-10T11:32:46.574Z</time>
      </trkpt>
      <trkpt lat="47.19079" lon="0.06703">
        <ele>94.14</ele>
        <time>2023-06-10T11:33:17.089Z</time>
      </trkpt>
      <trkpt lat="47.19122" lon="0.06723">
        <ele>92.49</ele>
        <time>2023-06-10T11:33:47.612Z</time>
      </trkpt>
      <trkpt lat="47.1916" lon="0.0674">
        <ele>90.96</ele>
        <time>2023-06-10T11:34:18.141Z</time>
      </trkpt>
      <trkpt lat="47.19172" lon="0.06746">
        <ele>90.45</ele>
        <time>2023-06-10T11:34:48.672Z</time>
      </trkpt>
      <trkpt lat="47.19177" lon="0.06749">
        <ele>90.24</ele>
        <time>2023-06-10T11:35:19.204Z</time>
      </trkpt>
      <trkpt lat="47.19185" lon="0.06755">
        <ele>89.9</ele>
        <time>2023-06-10T11:35:49.737Z</time>
      </trkpt>
      <trkpt lat="47.19209" lon="0.06771">
        <ele>88.94</ele>
        <time>2023-06-10T11:36:20.275Z</time>
      </trkpt>
      <trkpt lat="47.19216" lon="0.06776">
        <ele>88.64</ele>
        <time>2023-06-10T11:36:50.814Z</time>
      </trkpt>
      <trkpt lat="47.1923" lon="0.06784">
        <ele>88.07</ele>
        <time>2023-06-10T11:37:21.355Z</time>
      </trkpt>
      <trkpt lat="47.19263" lon="0.06803">
        <ele>86.86</ele>
        <time>2023-06-10T11:37:51.902Z</time>
      </trkpt>
      <trkpt lat="47.19288" lon="0.06817">
        <ele>85.86</ele>
        <time>2023-06-10T11:38:22.453Z</time>
      </trkpt>
      <trkpt lat="47.19292" lon="0.06819">
        <ele>85.68</ele>
        <time>2023-06-10T11:38:53.005Z</time>
      </trkpt>
      <trkpt lat="47.19296" lon="0.06821">
        <ele>85.51</ele>
        <time>2023-06-10T11:39:23.558Z</time>
      </trkpt>
      <trkpt lat="47.19305" lon="0.06826">
        <ele>85.11</ele>
        <time>2023-06-10T11:39:54.112Z</time>
      </trkpt>
      <trkpt lat="47.19313" lon="0.0683">
        <ele>84.63</ele>
        <time>2023-06-10T11:40:24.667Z</time>
      </trkpt>
      <trkpt lat="47.19321" lon="0.06834">
        <ele>84.1</ele>
        <time>2023-06-10T11:40:55.224Z</time>
      </trkpt>
      <trkpt lat="47.19347" lon="0.06847">
        <ele>82.42</ele>
        <time>2023-06-10T11:41:25.785Z</time>
      </trkpt>
      <trkpt lat="47.19351" lon="0.06849">
        <ele>82.18</ele>
        <time>2023-06-10T11:41:56.347Z</time>
      </trkpt>
      <trkpt lat="47.19355" lon="0.06851">
        <ele>81.97</ele>
        <time>2023-06-10T11:42:26.910Z</time>
      </trkpt>
      <trkpt lat="47.19358" lon="0.06853">
        <ele>81.84</ele>
        <time>2023-06-10T11:42:57.473Z</time>
      </trkpt>
      <trkpt lat="47.19364" lon="0.06855">
        <ele>81.63</ele>
        <time>2023-06-10T11:43:28.037Z</time>
      </trkpt>
      <trkpt lat="47.19368" lon="0.06857">
        <ele>81.5</ele>
        <time>2023-06-10T11:43:58.602Z</time>
      </trkpt>
      <trkpt lat="47.19376" lon="0.0686">
        <ele>81.28</ele>
        <time>2023-06-10T11:44:29.168Z</time>
      </trkpt>
      <trkpt lat="47.19406" lon="0.06872">
        <ele>80.68</ele>
        <time>2023-06-10T11:44:59.739Z</time>
      </trkpt>
      <trkpt lat="47.19408" lon="0.06873">
        <ele>80.64</ele>
        <time>2023-06-10T11:45:30.310Z</time>
      </trkpt>
      <trkpt lat="47.19414" lon="0.06878">
        <ele>80.48</ele>
        <time>2023-06-10T11:46:00.883Z</time>
      </trkpt>
      <trkpt lat="47.19422" lon="0.06884">
        <ele>80.22</ele>
        <time>2023-06-10T11:46:31.457Z</time>
      </trkpt>
      <trkpt lat="47.19422" lon="0.06884">
        <ele>80.22</ele>
        <time>2023-06-10T11:47:02.031Z</time>
      </trkpt>
      <trkpt lat="47.19435" lon="0.06903">
        <ele>79.62</ele>
        <time>2023-06-10T11:47:32.608Z</time>
      </trkpt>
      <trkpt lat="47.19441" lon="0.06913">
        <ele>79.35</ele>
        <time>2023-06-10T11:48:03.186Z</time>
      </trkpt>
      <trkpt lat="47.19446" lon="0.06921">
        <ele>79.15</ele>
        <time>2023-06-10T11:48:33.766Z</time>
      </trkpt>
      <trkpt lat="47.19447" lon="0.06922">
        <ele>79.13</ele>
        <time>2023-06-10T11:49:04.346Z</time>
      </trkpt>
      <trkpt lat="47.19455" lon="0.06928">
        <ele>78.95</ele>
        <time>2023-06-10T11:49:34.927Z</time>
      </trkpt>
      <trkpt lat="47.19463" lon="0.06933">
        <ele>78.82</ele>
        <time>2023-06-10T11:50:05.510Z</time>
      </trkpt>
      <trkpt lat="47.19471" lon="0.06939">
        <ele>78.76</ele>
        <time>2023-06-10T11:50:36.094Z</time>
      </trkpt>
      <trkpt lat="47.19479" lon="0.06945">
        <ele>78.75</ele>
        <time>2023-06-10T11:51:06.679Z</time>
      </trkpt>
      <trkpt lat="47.19485" lon="0.06949">
        <ele>78.76</ele>
        <time>2023-06-10T11:51:37.265Z</time>
      </trkpt>
      <trkpt lat="47.19495" lon="0.06957">
        <ele>78.8</ele>
        <time>2023-06-10T11:52:07.853Z</time>
      </trkpt>
      <trkpt lat="47.19499" lon="0.06961">
        <ele>78.84</ele>
        <time>2023-06-10T11:52:38.442Z</time>
      </trkpt>
      <trkpt lat="47.19502" lon="0.06963">
        <ele>78.88</ele>
        <time>2023-06-10T11:53:09.032Z</time>
      </trkpt>
      <trkpt lat="47.19511" lon="0.06968">
        <ele>79.04</ele>
        <time>2023-06-10T11:53:39.623Z</time>
      </trkpt>
      <trkpt lat="47.19515" lon="0.0697">
        <ele>79.15</ele>
        <time>2023-06-10T11:54:10.215Z</time>
      </trkpt>
      <trkpt lat="47.19523" lon="0.06975">
        <ele>79.46</ele>
        <time>2023-06-10T11:54:40.808Z</time>
      </trkpt>
      <trkpt lat="47.19526" lon="0.06977">
        <ele>79.6</ele>
        <time>2023-06-10T11:55:11.402Z</time>
      </trkpt>
      <trkpt lat="47.19531" lon="0.06979">
        <ele>79.85</ele>
        <time>2023-06-10T11:55:41.997Z</time>
      </trkpt>
      <trkpt lat="47.1954" lon="0.06983">
        <ele>80.29</ele>
        <time>2023-06-10T11:56:12.593Z</time>
      </trkpt>
      <trkpt lat="47.19543" lon="0.06984">
        <ele>80.47</ele>
        <time>2023-06-10T11:56:43.190Z</time>
      </trkpt>
      <trkpt lat="47.19562" lon="0.06984">
        <ele>81.56</ele>
        <time>2023-06-10T11:57:13.790Z</time>
      </trkpt>
      <trkpt lat="47.19571" lon="0.06984">
        <ele>82.24</ele>
        <time>2023-06-10T11:57:44.391Z</time>
      </trkpt>
      <trkpt lat="47.19577" lon="0.06984">
        <ele>82.75</ele>
        <time>2023-06-10T11:58:14.993Z</time>
      </trkpt>
      <trkpt lat="47.19584" lon="0.06983">
        <ele>83.35</ele>
        <time>2023-06-10T11:58:45.596Z</time>
      </trkpt>
      <trkpt lat="47.19589" lon="0.06982">
        <ele>83.69</ele>
        <time>2023-06-10T11:59:16.200Z</time>
      </trkpt>
      <trkpt lat="47.19611" lon="0.06978">
        <ele>85.19</ele>
        <time>2023-06-10T11:59:46.807Z</time>
      </trkpt>
      <trkpt lat="47.19622" lon="0.06976">
        <ele>85.37</ele>
        <time>2023-06-10T12:00:17.416Z</time>
      </trkpt>
      <trkpt lat="47.19634" lon="0.06974">
        <ele>85.81</ele>
        <time>2023-06-10T12:00:48.027Z</time>
      </trkpt>
      <trkpt lat="47.19643" lon="0.06972">
        <ele>86.06</ele>
        <time>2023-06-10T12:01:18.640Z</time>
      </trkpt>
      <trkpt lat="47.19645" lon="0.06972">
        <ele>86.11</ele>
        <time>2023-06-10T12:01:49.253Z</time>
      </trkpt>
      <trkpt lat="47.19651" lon="0.06972">
        <ele>86.27</ele>
        <time>2023-06-10T12:02:19.867Z</time>
      </trkpt>
      <trkpt lat="47.19668" lon="0.06971">
        <ele>86.64</ele>
        <time>2023-06-10T12:02:50.484Z</time>
      </trkpt>
      <trkpt lat="47.19684" lon="0.06971">
        <ele>87.08</ele>
        <time>2023-06-10T12:03:21.103Z</time>
      </trkpt>
      <trkpt lat="47.19701" lon="0.0697">
        <ele>87.58</ele>
        <time>2023-06-10T12:03:51.725Z</time>
      </trkpt>
      <trkpt lat="47.19713" lon="0.0697">
        <ele>87.91</ele>
        <time>2023-06-10T12:04:22.349Z</time>
      </trkpt>
      <trkpt lat="47.19729" lon="0.06969">
        <ele>87.98</ele>
        <time>2023-06-10T12:04:52.975Z</time>
      </trkpt>
      <trkpt lat="47.19731" lon="0.06969">
        <ele>87.99</ele>
        <time>2023-06-10T12:05:23.602Z</time>
      </trkpt>
      <trkpt lat="47.1974" lon="0.06971">
        <ele>88.01</ele>
        <time>2023-06-10T12:05:54.230Z</time>
      </trkpt>
      <trkpt lat="47.19742" lon="0.06971">
        <ele>88</ele>
        <time>2023-06-10T12:06:24.858Z</time>
      </trkpt>
      <trkpt lat="47.19747" lon="0.06966">
        <ele>88</ele>
        <time>2023-06-10T12:06:55.487Z</time>
      </trkpt>
      <trkpt lat="47.1974" lon="0.07005">
        <ele>87.99</ele>
        <time>2023-06-10T12:07:26.121Z</time>
      </trkpt>
      <trkpt lat="47.19733" lon="0.07043">
        <ele>88</ele>
        <time>2023-06-10T12:07:56.759Z</time>
      </trkpt>
      <trkpt lat="47.19732" lon="0.07046">
        <ele>88</ele>
        <time>2023-06-10T12:08:27.398Z</time>
      </trkpt>
      <trkpt lat="47.19729" lon="0.07082">
        <ele>88.06</ele>
        <time>2023-06-10T12:08:58.040Z</time>
      </trkpt>
      <trkpt lat="47.19726" lon="0.07121">
        <ele>88.02</ele>
        <time>2023-06-10T12:09:28.687Z</time>
      </trkpt>
      <trkpt lat="47.19723" lon="0.07166">
        <ele>88.04</ele>
        <time>2023-06-10T12:09:59.339Z</time>
      </trkpt>
      <trkpt lat="47.19722" lon="0.07176">
        <ele>88.05</ele>
        <time>2023-06-10T12:10:29.992Z</time>
      </trkpt>
      <trkpt lat="47.19721" lon="0.07228">
        <ele>88.11</ele>
        <time>2023-06-10T12:11:00.650Z</time>
      </trkpt>
      <trkpt lat="47.19721" lon="0.07244">
        <ele>88.14</ele>
        <time>2023-06-10T12:11:31.310Z</time>
      </trkpt>
      <trkpt lat="47.19722" lon="0.07264">
        <ele>88.18</ele>
        <time>2023-06-10T12:12:01.972Z</time>
      </trkpt>
      <trkpt lat="47.19723" lon="0.07303">
        <ele>88.3</ele>
        <time>2023-06-10T12:12:32.639Z</time>
      </trkpt>
      <trkpt lat="47.19723" lon="0.07307">
        <ele>88.3</ele>
        <time>2023-06-10T12:13:03.306Z</time>
      </trkpt>
      <trkpt lat="47.19724" lon="0.07323">
        <ele>88.32</ele>
        <time>2023-06-10T12:13:33.975Z</time>
      </trkpt>
      <trkpt lat="47.19727" lon="0.07362">
        <ele>88.32</ele>
        <time>2023-06-10T12:14:04.648Z</time>
      </trkpt>
      <trkpt lat="47.19729" lon="0.07384">
        <ele>88.36</ele>
        <time>2023-06-10T12:14:35.324Z</time>
      </trkpt>
      <trkpt lat="47.19731" lon="0.074">
        <ele>88.39</ele>
        <time>2023-06-10T12:15:06.001Z</time>
      </trkpt>
      <trkpt lat="47.19733" lon="0.07413">
        <ele>88.56</ele>
        <time>2023-06-10T12:15:36.680Z</time>
      </trkpt>
      <trkpt lat="47.19734" lon="0.0742">
        <ele>88.62</ele>
        <time>2023-06-10T12:16:07.360Z</time>
      </trkpt>
      <trkpt lat="47.19737" lon="0.07439">
        <ele>88.71</ele>
        <time>2023-06-10T12:16:38.042Z</time>
      </trkpt>
      <trkpt lat="47.19739" lon="0.07451">
        <ele>88.78</ele>
        <time>2023-06-10T12:17:08.725Z</time>
      </trkpt>
      <trkpt lat="47.19747" lon="0.07443">
        <ele>88.87</ele>
        <time>2023-06-10T12:17:39.410Z</time>
      </trkpt>
      <trkpt lat="47.19755" lon="0.07436">
        <ele>88.87</ele>
        <time>2023-06-10T12:18:10.096Z</time>
      </trkpt>
      <trkpt lat="47.19758" lon="0.07432">
        <ele>88.88</ele>
        <time>2023-06-10T12:18:40.783Z</time>
      </trkpt>
      <trkpt lat="47.19762" lon="0.07428">
        <ele>88.92</ele>
        <time>2023-06-10T12:19:11.470Z</time>
      </trkpt>
      <trkpt lat="47.19765" lon="0.07423">
        <ele>89</ele>
        <time>2023-06-10T12:19:42.158Z</time>
      </trkpt>
      <trkpt lat="47.19767" lon="0.07421">
        <ele>89.06</ele>
        <time>2023-06-10T12:20:12.847Z</time>
      </trkpt>
      <trkpt lat="47.19781" lon="0.0741">
        <ele>89.45</ele>
        <time>2023-06-10T12:20:43.538Z</time>
      </trkpt>
      <trkpt lat="47.19784" lon="0.07407">
        <ele>89.54</ele>
        <time>2023-06-10T12:21:14.230Z</time>
      </trkpt>
      <trkpt lat="47.19788" lon="0.07404">
        <ele>89.59</ele>
        <time>2023-06-10T12:21:44.923Z</time>
      </trkpt>
      <trkpt lat="47.19797" lon="0.07397">
        <ele>89.63</ele>
        <time>2023-06-10T12:22:15.617Z</time>
      </trkpt>
      <trkpt lat="47.19801" lon="0.07395">
        <ele>89.65</ele>
        <time>2023-06-10T12:22:46.312Z</time>
      </trkpt>
      <trkpt lat="47.19813" lon="0.07389">
        <ele>89.78</ele>
        <time>2023-06-10T12:23:17.009Z</time>
      </trkpt>
      <trkpt lat="47.19822" lon="0.07385">
        <ele>89.84</ele>
        <time>2023-06-10T12:23:47.707Z</time>
      </trkpt>
      <trkpt lat="47.19839" lon="0.07378">
        <ele>89.89</ele>
        <time>2023-06-10T12:24:18.408Z</time>
      </trkpt>
      <trkpt lat="47.19843" lon="0.07376">
        <ele>89.88</ele>
        <time>2023-06-10T12:24:49.110Z</time>
      </trkpt>
      <trkpt lat="47.19852" lon="0.07372">
        <ele>89.82</ele>
        <time>2023-06-10T12:25:19.813Z</time>
      </trkpt>
      <trkpt lat="47.19878" lon="0.0736">
        <ele>89.53</ele>
        <time>2023-06-10T12:25:50.521Z</time>
      </trkpt>
      <trkpt lat="47.19882" lon="0.07358">
        <ele>89.52</ele>
        <time>2023-06-10T12:26:21.229Z</time>
      </trkpt>
      <trkpt lat="47.19895" lon="0.07352">
        <ele>89.56</ele>
        <time>2023-06-10T12:26:51.939Z</time>
      </trkpt>
      <trkpt lat="47.19901" lon="0.07349">
        <ele>89.55</ele>
        <time>2023-06-10T12:27:22.651Z</time>
      </trkpt>
      <trkpt lat="47.19904" lon="0.07348">
        <ele>89.55</ele>
        <time>2023-06-10T12:27:53.363Z</time>
      </trkpt>
      <trkpt lat="47.1993" lon="0.07342">
        <ele>89.4</ele>
        <time>2023-06-10T12:28:24.079Z</time>
      </trkpt>
      <trkpt lat="47.1993" lon="0.07342">
        <ele>89.4</ele>
        <time>2023-06-10T12:28:54.795Z</time>
      </trkpt>
      <trkpt lat="47.19939" lon="0.07345">
        <ele>89.32</ele>
        <time>2023-06-10T12:29:25.513Z</time>
      </trkpt>
      <trkpt lat="47.19952" lon="0.07349">
        <ele>89.11</ele>
        <time>2023-06-10T12:29:56.233Z</time>
      </trkpt>
      <trkpt lat="47.1997" lon="0.07354">
        <ele>88.96</ele>
        <time>2023-06-10T12:30:26.956Z</time>
      </trkpt>
      <trkpt lat="47.19986" lon="0.07359">
        <ele>88.71</ele>
        <time>2023-06-10T12:30:57.681Z</time>
      </trkpt>
      <trkpt lat="47.19987" lon="0.07359">
        <ele>88.7</ele>
        <time>2023-06-10T12:31:28.407Z</time>
      </trkpt>
      <trkpt lat="47.20001" lon="0.07359">
        <ele>88.57</ele>
        <time>2023-06-10T12:31:59.135Z</time>
      </trkpt>
      <trkpt lat="47.20019" lon="0.0736">
        <ele>88.49</ele>
        <time>2023-06-10T12:32:29.866Z</time>
      </trkpt>
      <trkpt lat="47.20026" lon="0.0736">
        <ele>88.47</ele>
        <time>2023-06-10T12:33:00.598Z</time>
      </trkpt>
      <trkpt lat="47.20037" lon="0.07358">
        <ele>88.44</ele>
        <time>2023-06-10T12:33:31.332Z</time>
      </trkpt>
      <trkpt lat="47.20048" lon="0.07355">
        <ele>88.3</ele>
        <time>2023-06-10T12:34:02.067Z</time>
      </trkpt>
      <trkpt lat="47.2005" lon="0.07355">
        <ele>88.28</ele>
        <time>2023-06-10T12:34:32.803Z</time>
      </trkpt>
      <trkpt lat="47.20055" lon="0.07355">
        <ele>88.27</ele>
        <time>2023-06-10T12:35:03.539Z</time>
      </trkpt>
      <trkpt lat="47.20064" lon="0.07356">
        <ele>88.32</ele>
        <time>2023-06-10T12:35:34.277Z</time>
      </trkpt>
      <trkpt lat="47.20073" lon="0.07356">
        <ele>88.34</ele>
        <time>2023-06-10T12:36:05.016Z</time>
      </trkpt>
      <trkpt lat="47.20082" lon="0.07357">
        <ele>88.32</ele>
        <time>2023-06-10T12:36:35.757Z</time>
      </trkpt>
      <trkpt lat="47.20086" lon="0.07357">
        <ele>88.28</ele>
        <time>2023-06-10T12:37:06.498Z</time>
      </trkpt>
      <trkpt lat="47.20091" lon="0.07357">
        <ele>88.21</ele>
        <time>2023-06-10T12:37:37.240Z</time>
      </trkpt>
      <trkpt lat="47.20095" lon="0.07357">
        <ele>88.1</ele>
        <time>2023-06-10T12:38:07.983Z</time>
      </trkpt>
      <trkpt lat="47.20108" lon="0.07358">
        <ele>87.69</ele>
        <time>2023-06-10T12:38:38.728Z</time>
      </trkpt>
      <trkpt lat="47.20113" lon="0.07358">
        <ele>87.62</ele>
        <time>2023-06-10T12:39:09.474Z</time>
      </trkpt>
      <trkpt lat="47.20117" lon="0.07358">
        <ele>87.62</ele>
        <time>2023-06-10T12:39:40.220Z</time>
      </trkpt>
      <trkpt lat="47.20122" lon="0.07358">
        <ele>87.67</ele>
        <time>2023-06-10T12:40:10.967Z</time>
      </trkpt>
      <trkpt lat="47.20131" lon="0.07359">
        <ele>87.84</ele>
        <time>2023-06-10T12:40:41.716Z</time>
      </trkpt>
      <trkpt lat="47.20135" lon="0.07359">
        <ele>87.89</ele>
        <time>2023-06-10T12:41:12.465Z</time>
      </trkpt>
      <trkpt lat="47.2014" lon="0.07359">
        <ele>87.88</ele>
        <time>2023-06-10T12:41:43.215Z</time>
      </trkpt>
      <trkpt lat="47.20144" lon="0.07359">
        <ele>87.83</ele>
        <time>2023-06-10T12:42:13.966Z</time>
      </trkpt>
      <trkpt lat="47.20162" lon="0.0736">
        <ele>87.51</ele>
        <time>2023-06-10T12:42:44.720Z</time>
      </trkpt>
      <trkpt lat="47.2018" lon="0.07361">
        <ele>87.32</ele>
        <time>2023-06-10T12:43:15.476Z</time>
      </trkpt>
      <trkpt lat="47.2018" lon="0.07361">
        <ele>87.32</ele>
        <time>2023-06-10T12:43:46.233Z</time>
      </trkpt>
      <trkpt lat="47.20189" lon="0.07361">
        <ele>87.17</ele>
        <time>2023-06-10T12:44:16.991Z</time>
      </trkpt>
      <trkpt lat="47.20194" lon="0.0736">
        <ele>87.12</ele>
        <time>2023-06-10T12:44:47.750Z</time>
      </trkpt>
      <trkpt lat="47.20198" lon="0.0736">
        <ele>87.1</ele>
        <time>2023-06-10T12:45:18.509Z</time>
      </trkpt>
      <trkpt lat="47.20207" lon="0.0736">
        <ele>87.11</ele>
        <time>2023-06-10T12:45:49.270Z</time>
      </trkpt>
      <trkpt lat="47.20212" lon="0.07359">
        <ele>87.13</ele>
        <time>2023-06-10T12:46:20.032Z</time>
      </trkpt>
      <trkpt lat="47.20216" lon="0.07357">
        <ele>87.09</ele>
        <time>2023-06-10T12:46:50.794Z</time>
      </trkpt>
      <trkpt lat="47.20229" lon="0.07353">
        <ele>86.86</ele>
        <time>2023-06-10T12:47:21.558Z</time>
      </trkpt>
      <trkpt lat="47.20247" lon="0.07348">
        <ele>86.73</ele>
        <time>2023-06-10T12:47:52.325Z</time>
      </trkpt>
      <trkpt lat="47.20251" lon="0.07347">
        <ele>86.67</ele>
        <time>2023-06-10T12:48:23.093Z</time>
      </trkpt>
      <trkpt lat="47.20258" lon="0.07345">
        <ele>86.54</ele>
        <time>2023-06-10T12:48:53.862Z</time>
      </trkpt>
      <trkpt lat="47.20264" lon="0.07342">
        <ele>86.43</ele>
        <time>2023-06-10T12:49:24.632Z</time>
      </trkpt>
      <trkpt lat="47.20269" lon="0.07341">
        <ele>86.38</ele>
        <time>2023-06-10T12:49:55.403Z</time>
      </trkpt>
      <trkpt lat="47.20273" lon="0.07339">
        <ele>86.37</ele>
        <time>2023-06-10T12:50:26.175Z</time>
      </trkpt>
      <trkpt lat="47.20286" lon="0.07334">
        <ele>86.4</ele>
        <time>2023-06-10T12:50:56.949Z</time>
      </trkpt>
      <trkpt lat="47.20299" lon="0.07328">
        <ele>86.35</ele>
        <time>2023-06-10T12:51:27.725Z</time>
      </trkpt>
      <trkpt lat="47.20307" lon="0.07325">
        <ele>86.29</ele>
        <time>2023-06-10T12:51:58.502Z</time>
      </trkpt>
      <trkpt lat="47.20308" lon="0.07325">
        <ele>86.29</ele>
        <time>2023-06-10T12:52:29.279Z</time>
      </trkpt>
      <trkpt lat="47.20312" lon="0.07322">
        <ele>86.22</ele>
        <time>2023-06-10T12:53:00.057Z</time>
      </trkpt>
      <trkpt lat="47.20324" lon="0.07315">
        <ele>85.91</ele>
        <time>2023-06-10T12:53:30.837Z</time>
      </trkpt>
      <trkpt lat="47.20333" lon="0.0731">
        <ele>85.79</ele>
        <time>2023-06-10T12:54:01.619Z</time>
      </trkpt>
      <trkpt lat="47.20349" lon="0.073">
        <ele>85.68</ele>
        <time>2023-06-10T12:54:32.404Z</time>
      </trkpt>
      <trkpt lat="47.20358" lon="0.07295">
        <ele>85.67</ele>
        <time>2023-06-10T12:55:03.190Z</time>
      </trkpt>
      <trkpt lat="47.2037" lon="0.07287">
        <ele>85.72</ele>
        <time>2023-06-10T12:55:33.978Z</time>
      </trkpt>
      <trkpt lat="47.20374" lon="0.07285">
        <ele>85.72</ele>
        <time>2023-06-10T12:56:04.767Z</time>
      </trkpt>
      <trkpt lat="47.20379" lon="0.07282">
        <ele>85.69</ele>
        <time>2023-06-10T12:56:35.557Z</time>
      </trkpt>
      <trkpt lat="47.20383" lon="0.0728">
        <ele>85.64</ele>
        <time>2023-06-10T12:57:06.347Z</time>
      </trkpt>
      <trkpt lat="47.20391" lon="0.07275">
        <ele>85.48</ele>
        <time>2023-06-10T12:57:37.139Z</time>
      </trkpt>
      <trkpt lat="47.20404" lon="0.07267">
        <ele>85.27</ele>
        <time>2023-06-10T12:58:07.933Z</time>
      </trkpt>
      <trkpt lat="47.20404" lon="0.07267">
        <ele>85.27</ele>
        <time>2023-06-10T12:58:38.727Z</time>
      </trkpt>
      <trkpt lat="47.20408" lon="0.07265">
        <ele>85.16</ele>
        <time>2023-06-10T12:59:09.522Z</time>
      </trkpt>
      <trkpt lat="47.20424" lon="0.07254">
        <ele>84.57</ele>
        <time>2023-06-10T12:59:40.320Z</time>
      </trkpt>
      <trkpt lat="47.20428" lon="0.07251">
        <ele>84.46</ele>
        <time>2023-06-10T13:00:11.118Z</time>
      </trkpt>
      <trkpt lat="47.20432" lon="0.07248">
        <ele>84.38</ele>
        <time>2023-06-10T13:00:41.917Z</time>
      </trkpt>
      <trkpt lat="47.20436" lon="0.07246">
        <ele>84.35</ele>
        <time>2023-06-10T13:01:12.717Z</time>
      </trkpt>
      <trkpt lat="47.2044" lon="0.07243">
        <ele>84.36</ele>
        <time>2023-06-10T13:01:43.517Z</time>
      </trkpt>
      <trkpt lat="47.20445" lon="0.07242">
        <ele>84.39</ele>
        <time>2023-06-10T13:02:14.318Z</time>
      </trkpt>
      <trkpt lat="47.20449" lon="0.0724">
        <ele>84.37</ele>
        <time>2023-06-10T13:02:45.120Z</time>
      </trkpt>
      <trkpt lat="47.20454" lon="0.07239">
        <ele>84.29</ele>
        <time>2023-06-10T13:03:15.923Z</time>
      </trkpt>
      <trkpt lat="47.20458" lon="0.07238">
        <ele>84.15</ele>
        <time>2023-06-10T13:03:46.726Z</time>
      </trkpt>
      <trkpt lat="47.20467" lon="0.07236">
        <ele>83.79</ele>
        <time>2023-06-10T13:04:17.531Z</time>
      </trkpt>
      <trkpt lat="47.20488" lon="0.0723">
        <ele>84.03</ele>
        <time>2023-06-10T13:04:48.339Z</time>
      </trkpt>
      <trkpt lat="47.20501" lon="0.07226">
        <ele>84.22</ele>
        <time>2023-06-10T13:05:19.149Z</time>
      </trkpt>
      <trkpt lat="47.20501" lon="0.07226">
        <ele>84.22</ele>
        <time>2023-06-10T13:05:49.959Z</time>
      </trkpt>
      <trkpt lat="47.20513" lon="0.07219">
        <ele>84.47</ele>
        <time>2023-06-10T13:06:20.771Z</time>
      </trkpt>
      <trkpt lat="47.20525" lon="0.07212">
        <ele>84.79</ele>
        <time>2023-06-10T13:06:51.585Z</time>
      </trkpt>
      <trkpt lat="47.20558" lon="0.07194">
        <ele>84.46</ele>
        <time>2023-06-10T13:07:22.405Z</time>
      </trkpt>
      <trkpt lat="47.20565" lon="0.07204">
        <ele>84.38</ele>
        <time>2023-06-10T13:07:53.227Z</time>
      </trkpt>
      <trkpt lat="47.2058" lon="0.07228">
        <ele>84.24</ele>
        <time>2023-06-10T13:08:24.052Z</time>
      </trkpt>
      <trkpt lat="47.20586" lon="0.07238">
        <ele>84.16</ele>
        <time>2023-06-10T13:08:54.879Z</time>
      </trkpt>
      <trkpt lat="47.20588" lon="0.0724">
        <ele>84.12</ele>
        <time>2023-06-10T13:09:25.706Z</time>
      </trkpt>
      <trkpt lat="47.20599" lon="0.07256">
        <ele>83.89</ele>
        <time>2023-06-10T13:09:56.536Z</time>
      </trkpt>
      <trkpt lat="47.20606" lon="0.07265">
        <ele>83.77</ele>
        <time>2023-06-10T13:10:27.367Z</time>
      </trkpt>
      <trkpt lat="47.20617" lon="0.0728">
        <ele>83.61</ele>
        <time>2023-06-10T13:10:58.200Z</time>
      </trkpt>
      <trkpt lat="47.20641" lon="0.07306">
        <ele>83.3</ele>
        <time>2023-06-10T13:11:29.038Z</time>
      </trkpt>
      <trkpt lat="47.20648" lon="0.07314">
        <ele>83.15</ele>
        <time>2023-06-10T13:11:59.878Z</time>
      </trkpt>
      <trkpt lat="47.20652" lon="0.07318">
        <ele>83.05</ele>
        <time>2023-06-10T13:12:30.718Z</time>
      </trkpt>
      <trkpt lat="47.20659" lon="0.07325">
        <ele>82.8</ele>
        <time>2023-06-10T13:13:01.560Z</time>
      </trkpt>
      <trkpt lat="47.20666" lon="0.07333">
        <ele>82.5</ele>
        <time>2023-06-10T13:13:32.403Z</time>
      </trkpt>
      <trkpt lat="47.2067" lon="0.07337">
        <ele>82.35</ele>
        <time>2023-06-10T13:14:03.247Z</time>
      </trkpt>
      <trkpt lat="47.20677" lon="0.07344">
        <ele>82.02</ele>
        <time>2023-06-10T13:14:34.092Z</time>
      </trkpt>
      <trkpt lat="47.20681" lon="0.07348">
        <ele>81.83</ele>
        <time>2023-06-10T13:15:04.938Z</time>
      </trkpt>
      <trkpt lat="47.20684" lon="0.07352">
        <ele>81.6</ele>
        <time>2023-06-10T13:15:35.785Z</time>
      </trkpt>
      <trkpt lat="47.20688" lon="0.07356">
        <ele>81.33</ele>
        <time>2023-06-10T13:16:06.632Z</time>
      </trkpt>
      <trkpt lat="47.20692" lon="0.07359">
        <ele>81.01</ele>
        <time>2023-06-10T13:16:37.480Z</time>
      </trkpt>
      <trkpt lat="47.20696" lon="0.07363">
        <ele>80.65</ele>
        <time>2023-06-10T13:17:08.329Z</time>
      </trkpt>
      <trkpt lat="47.20699" lon="0.07367">
        <ele>80.25</ele>
        <time>2023-06-10T13:17:39.179Z</time>
      </trkpt>
      <trkpt lat="47.20703" lon="0.07371">
        <ele>79.82</ele>
        <time>2023-06-10T13:18:10.029Z</time>
      </trkpt>
      <trkpt lat="47.20714" lon="0.07382">
        <ele>78.44</ele>
        <time>2023-06-10T13:18:40.882Z</time>
      </trkpt>
      <trkpt lat="47.20716" lon="0.07384">
        <ele>78.19</ele>
        <time>2023-06-10T13:19:11.735Z</time>
      </trkpt>
      <trkpt lat="47.20717" lon="0.07386">
        <ele>78</ele>
        <time>2023-06-10T13:19:42.588Z</time>
      </trkpt>
      <trkpt lat="47.20721" lon="0.0739">
        <ele>77.59</ele>
        <time>2023-06-10T13:20:13.442Z</time>
      </trkpt>
      <trkpt lat="47.20724" lon="0.07395">
        <ele>77.25</ele>
        <time>2023-06-10T13:20:44.297Z</time>
      </trkpt>
      <trkpt lat="47.20727" lon="0.07399">
        <ele>76.97</ele>
        <time>2023-06-10T13:21:15.152Z</time>
      </trkpt>
      <trkpt lat="47.20727" lon="0.07399">
        <ele>76.97</ele>
        <time>2023-06-10T13:21:46.007Z</time>
      </trkpt>
      <trkpt lat="47.2073" lon="0.07405">
        <ele>76.77</ele>
        <time>2023-06-10T13:22:16.863Z</time>
      </trkpt>
      <trkpt lat="47.20732" lon="0.0741">
        <ele>76.62</ele>
        <time>2023-06-10T13:22:47.720Z</time>
      </trkpt>
      <trkpt lat="47.20735" lon="0.07415">
        <ele>76.51</ele>
        <time>2023-06-10T13:23:18.578Z</time>
      </trkpt>
      <trkpt lat="47.2074" lon="0.07426">
        <ele>77.33</ele>
        <time>2023-06-10T13:23:49.437Z</time>
      </trkpt>
      <trkpt lat="47.20755" lon="0.07456">
        <ele>79.56</ele>
        <time>2023-06-10T13:24:20.300Z</time>
      </trkpt>
      <trkpt lat="47.2076" lon="0.07466">
        <ele>80.36</ele>
        <time>2023-06-10T13:24:51.164Z</time>
      </trkpt>
      <trkpt lat="47.20769" lon="0.07486">
        <ele>82</ele>
        <time>2023-06-10T13:25:22.031Z</time>
      </trkpt>
      <trkpt lat="47.20777" lon="0.07502">
        <ele>83.17</ele>
        <time>2023-06-10T13:25:52.900Z</time>
      </trkpt>
      <trkpt lat="47.20782" lon="0.07512">
        <ele>83.89</ele>
        <time>2023-06-10T13:26:23.770Z</time>
      </trkpt>
      <trkpt lat="47.20784" lon="0.07517">
        <ele>84.19</ele>
        <time>2023-06-10T13:26:54.641Z</time>
      </trkpt>
      <trkpt lat="47.20787" lon="0.07522">
        <ele>84.43</ele>
        <time>2023-06-10T13:27:25.513Z</time>
      </trkpt>
      <trkpt lat="47.20789" lon="0.07528">
        <ele>84.63</ele>
        <time>2023-06-10T13:27:56.386Z</time>
      </trkpt>
      <trkpt lat="47.20795" lon="0.07538">
        <ele>84.95</ele>
        <time>2023-06-10T13:28:27.260Z</time>
      </trkpt>
      <trkpt lat="47.20797" lon="0.07543">
        <ele>85.09</ele>
        <time>2023-06-10T13:28:58.135Z</time>
      </trkpt>
      <trkpt lat="47.20799" lon="0.07548">
        <ele>85.25</ele>
        <time>2023-06-10T13:29:29.010Z</time>
      </trkpt>
      <trkpt lat="47.20805" lon="0.07561">
        <ele>85.57</ele>
        <time>2023-06-10T13:29:59.887Z</time>
      </trkpt>
      <trkpt lat="47.20806" lon="0.07565">
        <ele>85.66</ele>
        <time>2023-06-10T13:30:30.764Z</time>
      </trkpt>
      <trkpt lat="47.2081" lon="0.07577">
        <ele>85.81</ele>
        <time>2023-06-10T13:31:01.643Z</time>
      </trkpt>
      <trkpt lat="47.20812" lon="0.07582">
        <ele>85.86</ele>
        <time>2023-06-10T13:31:32.523Z</time>
      </trkpt>
      <trkpt lat="47.20814" lon="0.07588">
        <ele>85.88</ele>
        <time>2023-06-10T13:32:03.403Z</time>
      </trkpt>
      <trkpt lat="47.20817" lon="0.07598">
        <ele>85.86</ele>
        <time>2023-06-10T13:32:34.284Z</time>
      </trkpt>
      <trkpt lat="47.20821" lon="0.07605">
        <ele>85.86</ele>
        <time>2023-06-10T13:33:05.166Z</time>
      </trkpt>
      <trkpt lat="47.20823" lon="0.07609">
        <ele>85.83</ele>
        <time>2023-06-10T13:33:36.049Z</time>
      </trkpt>
      <trkpt lat="47.20832" lon="0.07603">
        <ele>85.77</ele>
        <time>2023-06-10T13:34:06.934Z</time>
      </trkpt>
      <trkpt lat="47.20836" lon="0.076">
        <ele>85.72</ele>
        <time>2023-06-10T13:34:37.819Z</time>
      </trkpt>
      <trkpt lat="47.20843" lon="0.07594">
        <ele>85.57</ele>
        <time>2023-06-10T13:35:08.706Z</time>
      </trkpt>
      <trkpt lat="47.20851" lon="0.07588">
        <ele>85.36</ele>
        <time>2023-06-10T13:35:39.594Z</time>
      </trkpt>
      <trkpt lat="47.20851" lon="0.07588">
        <ele>85.36</ele>
        <time>2023-06-10T13:36:10.482Z</time>
      </trkpt>
      <trkpt lat="47.20861" lon="0.07575">
        <ele>84.99</ele>
        <time>2023-06-10T13:36:41.372Z</time>
      </trkpt>
      <trkpt lat="47.20861" lon="0.07575">
        <ele>84.99</ele>
        <time>2023-06-10T13:37:12.262Z</time>
      </trkpt>
      <trkpt lat="47.20876" lon="0.07542">
        <ele>83.54</ele>
        <time>2023-06-10T13:37:43.156Z</time>
      </trkpt>
      <trkpt lat="47.20886" lon="0.07521">
        <ele>82.69</ele>
        <time>2023-06-10T13:38:14.053Z</time>
      </trkpt>
      <trkpt lat="47.20889" lon="0.07515">
        <ele>82.45</ele>
        <time>2023-06-10T13:38:44.951Z</time>
      </trkpt>
      <trkpt lat="47.20891" lon="0.0751">
        <ele>82.19</ele>
        <time>2023-06-10T13:39:15.850Z</time>
      </trkpt>
      <trkpt lat="47.20892" lon="0.07508">
        <ele>82.07</ele>
        <time>2023-06-10T13:39:46.749Z</time>
      </trkpt>
      <trkpt lat="47.20895" lon="0.07506">
        <ele>81.89</ele>
        <time>2023-06-10T13:40:17.648Z</time>
      </trkpt>
      <trkpt lat="47.20899" lon="0.07504">
        <ele>81.56</ele>
        <time>2023-06-10T13:40:48.548Z</time>
      </trkpt>
      <trkpt lat="47.20903" lon="0.07502">
        <ele>81.17</ele>
        <time>2023-06-10T13:41:19.449Z</time>
      </trkpt>
      <trkpt lat="47.20904" lon="0.07501">
        <ele>81.03</ele>
        <time>2023-06-10T13:41:50.350Z</time>
      </trkpt>
      <trkpt lat="47.20907" lon="0.07498">
        <ele>80.73</ele>
        <time>2023-06-10T13:42:21.252Z</time>
      </trkpt>
      <trkpt lat="47.2091" lon="0.07494">
        <ele>80.2</ele>
        <time>2023-06-10T13:42:52.154Z</time>
      </trkpt>
      <trkpt lat="47.20914" lon="0.07491">
        <ele>79.58</ele>
        <time>2023-06-10T13:43:23.057Z</time>
      </trkpt>
      <trkpt lat="47.20917" lon="0.07487">
        <ele>78.82</ele>
        <time>2023-06-10T13:43:53.961Z</time>
      </trkpt>
      <trkpt lat="47.20921" lon="0.07483">
        <ele>77.95</ele>
        <time>2023-06-10T13:44:24.865Z</time>
      </trkpt>
      <trkpt lat="47.20924" lon="0.07479">
        <ele>76.97</ele>
        <time>2023-06-10T13:44:55.770Z</time>
      </trkpt>
      <trkpt lat="47.20928" lon="0.07475">
        <ele>75.89</ele>
        <time>2023-06-10T13:45:26.676Z</time>
      </trkpt>
      <trkpt lat="47.20933" lon="0.0747">
        <ele>74.28</ele>
        <time>2023-06-10T13:45:57.583Z</time>
      </trkpt>
      <trkpt lat="47.20941" lon="0.07458">
        <ele>71.26</ele>
        <time>2023-06-10T13:46:28.492Z</time>
      </trkpt>
      <trkpt lat="47.20944" lon="0.07455">
        <ele>70.43</ele>
        <time>2023-06-10T13:46:59.401Z</time>
      </trkpt>
      <trkpt lat="47.20945" lon="0.07454">
        <ele>70.2</ele>
        <time>2023-06-10T13:47:30.310Z</time>
      </trkpt>
      <trkpt lat="47.20948" lon="0.07449">
        <ele>69.24</ele>
        <time>2023-06-10T13:48:01.220Z</time>
      </trkpt>
      <trkpt lat="47.2095" lon="0.07444">
        <ele>68.38</ele>
        <time>2023-06-10T13:48:32.131Z</time>
      </trkpt>
      <trkpt lat="47.20953" lon="0.07439">
        <ele>67.6</ele>
        <time>2023-06-10T13:49:03.042Z</time>
      </trkpt>
      <trkpt lat="47.20956" lon="0.07434">
        <ele>66.92</ele>
        <time>2023-06-10T13:49:33.954Z</time>
      </trkpt>
      <trkpt lat="47.20959" lon="0.07429">
        <ele>66.3</ele>
        <time>2023-06-10T13:50:04.867Z</time>
      </trkpt>
      <trkpt lat="47.20964" lon="0.0742">
        <ele>65.97</ele>
        <time>2023-06-10T13:50:35.781Z</time>
      </trkpt>
      <trkpt lat="47.20965" lon="0.07418">
        <ele>65.92</ele>
        <time>2023-06-10T13:51:06.695Z</time>
      </trkpt>
      <trkpt lat="47.20967" lon="0.07416">
        <ele>65.83</ele>
        <time>2023-06-10T13:51:37.610Z</time>
      </trkpt>
      <trkpt lat="47.20969" lon="0.07415">
        <ele>65.77</ele>
        <time>2023-06-10T13:52:08.525Z</time>
      </trkpt>
      <trkpt lat="47.20975" lon="0.07415">
        <ele>65.6</ele>
        <time>2023-06-10T13:52:39.441Z</time>
      </trkpt>
      <trkpt lat="47.20975" lon="0.07415">
        <ele>65.6</ele>
        <time>2023-06-10T13:53:10.357Z</time>
      </trkpt>
      <trkpt lat="47.2098" lon="0.0741">
        <ele>65.48</ele>
        <time>2023-06-10T13:53:41.274Z</time>
      </trkpt>
      <trkpt lat="47.20982" lon="0.07407">
        <ele>65.44</ele>
        <time>2023-06-10T13:54:12.191Z</time>
      </trkpt>
      <trkpt lat="47.20986" lon="0.074">
        <ele>65.22</ele>
        <time>2023-06-10T13:54:43.110Z</time>
      </trkpt>
      <trkpt lat="47.20987" lon="0.07396">
        <ele>65.13</ele>
        <time>2023-06-10T13:55:14.029Z</time>
      </trkpt>
      <trkpt lat="47.2099" lon="0.07383">
        <ele>64.7</ele>
        <time>2023-06-10T13:55:44.949Z</time>
      </trkpt>
      <trkpt lat="47.20995" lon="0.07365">
        <ele>64.01</ele>
        <time>2023-06-10T13:56:15.872Z</time>
      </trkpt>
      <trkpt lat="47.20999" lon="0.07353">
        <ele>62.62</ele>
        <time>2023-06-10T13:56:46.796Z</time>
      </trkpt>
      <trkpt lat="47.21" lon="0.07348">
        <ele>61.86</ele>
        <time>2023-06-10T13:57:17.721Z</time>
      </trkpt>
      <trkpt lat="47.21001" lon="0.07349">
        <ele>61.86</ele>
        <time>2023-06-10T13:57:48.646Z</time>
      </trkpt>
      <trkpt lat="47.21005" lon="0.07352">
        <ele>61.04</ele>
        <time>2023-06-10T13:58:19.571Z</time>
      </trkpt>
      <trkpt lat="47.21008" lon="0.07355">
        <ele>60.14</ele>
        <time>2023-06-10T13:58:50.497Z</time>
      </trkpt>
      <trkpt lat="47.21016" lon="0.07362">
        <ele>58.16</ele>
        <time>2023-06-10T13:59:21.425Z</time>
      </trkpt>
      <trkpt lat="47.21019" lon="0.07365">
        <ele>57.28</ele>
        <time>2023-06-10T13:59:52.353Z</time>
      </trkpt>
      <trkpt lat="47.21028" lon="0.07362">
        <ele>54.91</ele>
        <time>2023-06-10T14:00:23.283Z</time>
      </trkpt>
      <trkpt lat="47.21038" lon="0.07358">
        <ele>54.96</ele>
        <time>2023-06-10T14:00:54.214Z</time>
      </trkpt>
      <trkpt lat="47.21041" lon="0.07356">
        <ele>54.98</ele>
        <time>2023-06-10T14:01:25.146Z</time>
      </trkpt>
      <trkpt lat="47.21049" lon="0.0735">
        <ele>53.52</ele>
        <time>2023-06-10T14:01:56.079Z</time>
      </trkpt>
      <trkpt lat="47.21061" lon="0.07348">
        <ele>51.61</ele>
        <time>2023-06-10T14:02:27.014Z</time>
      </trkpt>
      <trkpt lat="47.21064" lon="0.07336">
        <ele>50.23</ele>
        <time>2023-06-10T14:02:57.951Z</time>
      </trkpt>
      <trkpt lat="47.21065" lon="0.0733">
        <ele>49.54</ele>
        <time>2023-06-10T14:03:28.888Z</time>
      </trkpt>
      <trkpt lat="47.21077" lon="0.07336">
        <ele>47.4</ele>
        <time>2023-06-10T14:03:59.827Z</time>
      </trkpt>
      <trkpt lat="47.21094" lon="0.07344">
        <ele>44.92</ele>
        <time>2023-06-10T14:04:30.769Z</time>
      </trkpt>
      <trkpt lat="47.21107" lon="0.0735">
        <ele>43.12</ele>
        <time>2023-06-10T14:05:01.713Z</time>
      </trkpt>
      <trkpt lat="47.2111" lon="0.07351">
        <ele>42.75</ele>
        <time>2023-06-10T14:05:32.658Z</time>
      </trkpt>
      <trkpt lat="47.21114" lon="0.07345">
        <ele>41.99</ele>
        <time>2023-06-10T14:06:03.604Z</time>
      </trkpt>
      <trkpt lat="47.21119" lon="0.07338">
        <ele>41.23</ele>
        <time>2023-06-10T14:06:34.551Z</time>
      </trkpt>
      <trkpt lat="47.21124" lon="0.07338">
        <ele>40.66</ele>
        <time>2023-06-10T14:07:05.499Z</time>
      </trkpt>
      <trkpt lat="47.21125" lon="0.0734">
        <ele>40.46</ele>
        <time>2023-06-10T14:07:36.447Z</time>
      </trkpt>
      <trkpt lat="47.2114" lon="0.07355">
        <ele>38.85</ele>
        <time>2023-06-10T14:08:07.398Z</time>
      </trkpt>
      <trkpt lat="47.21142" lon="0.07357">
        <ele>38.87</ele>
        <time>2023-06-10T14:08:38.349Z</time>
      </trkpt>
      <trkpt lat="47.21148" lon="0.07371">
        <ele>38.97</ele>
        <time>2023-06-10T14:09:09.302Z</time>
      </trkpt>
      <trkpt lat="47.21149" lon="0.07375">
        <ele>39</ele>
        <time>2023-06-10T14:09:40.255Z</time>
      </trkpt>
      <trkpt lat="47.21164" lon="0.07389">
        <ele>39.19</ele>
        <time>2023-06-10T14:10:11.211Z</time>
      </trkpt>
      <trkpt lat="47.21165" lon="0.07386">
        <ele>39.22</ele>
        <time>2023-06-10T14:10:42.168Z</time>
      </trkpt>
      <trkpt lat="47.21169" lon="0.07375">
        <ele>39.29</ele>
        <time>2023-06-10T14:11:13.126Z</time>
      </trkpt>
      <trkpt lat="47.21198" lon="0.07301">
        <ele>39.7</ele>
        <time>2023-06-10T14:11:44.093Z</time>
      </trkpt>
      <trkpt lat="47.21204" lon="0.07285">
        <ele>39.77</ele>
        <time>2023-06-10T14:12:15.062Z</time>
      </trkpt>
      <trkpt lat="47.21217" lon="0.07252">
        <ele>40.04</ele>
        <time>2023-06-10T14:12:46.036Z</time>
      </trkpt>
      <trkpt lat="47.21219" lon="0.07247">
        <ele>40.12</ele>
        <time>2023-06-10T14:13:17.010Z</time>
      </trkpt>
      <trkpt lat="47.21225" lon="0.0723">
        <ele>41.35</ele>
        <time>2023-06-10T14:13:47.986Z</time>
      </trkpt>
      <trkpt lat="47.21231" lon="0.07213">
        <ele>42.64</ele>
        <time>2023-06-10T14:14:18.964Z</time>
      </trkpt>
      <trkpt lat="47.21234" lon="0.07207">
        <ele>42.9</ele>
        <time>2023-06-10T14:14:49.943Z</time>
      </trkpt>
      <trkpt lat="47.21236" lon="0.07201">
        <ele>43.13</ele>
        <time>2023-06-10T14:15:20.923Z</time>
      </trkpt>
      <trkpt lat="47.21236" lon="0.07201">
        <ele>43.13</ele>
        <time>2023-06-10T14:15:51.903Z</time>
      </trkpt>
      <trkpt lat="47.21225" lon="0.07193">
        <ele>43.49</ele>
        <time>2023-06-10T14:16:22.885Z</time>
      </trkpt>
      <trkpt lat="47.21217" lon="0.07188">
        <ele>44.45</ele>
        <time>2023-06-10T14:16:53.868Z</time>
      </trkpt>
      <trkpt lat="47.21215" lon="0.07186">
        <ele>44.77</ele>
        <time>2023-06-10T14:17:24.852Z</time>
      </trkpt>
      <trkpt lat="47.21213" lon="0.07187">
        <ele>44.99</ele>
        <time>2023-06-10T14:17:55.836Z</time>
      </trkpt>
      <trkpt lat="47.21212" lon="0.07187">
        <ele>45.16</ele>
        <time>2023-06-10T14:18:26.820Z</time>
      </trkpt>
      <trkpt lat="47.21208" lon="0.07185">
        <ele>45.74</ele>
        <time>2023-06-10T14:18:57.805Z</time>
      </trkpt>
      <trkpt lat="47.21201" lon="0.07181">
        <ele>46.83</ele>
        <time>2023-06-10T14:19:28.791Z</time>
      </trkpt>
      <trkpt lat="47.21192" lon="0.07176">
        <ele>48.17</ele>
        <time>2023-06-10T14:19:59.778Z</time>
      </trkpt>
      <trkpt lat="47.21184" lon="0.07171">
        <ele>49.57</ele>
        <time>2023-06-10T14:20:30.767Z</time>
      </trkpt>
      <trkpt lat="47.21163" lon="0.0716">
        <ele>53.29</ele>
        <time>2023-06-10T14:21:01.759Z</time>
      </trkpt>
      <trkpt lat="47.21162" lon="0.07159">
        <ele>53.46</ele>
        <time>2023-06-10T14:21:32.752Z</time>
      </trkpt>
      <trkpt lat="47.21155" lon="0.07155">
        <ele>54.73</ele>
        <time>2023-06-10T14:22:03.746Z</time>
      </trkpt>
      <trkpt lat="47.2115" lon="0.07153">
        <ele>55.41</ele>
        <time>2023-06-10T14:22:34.741Z</time>
      </trkpt>
      <trkpt lat="47.21145" lon="0.07151">
        <ele>56.21</ele>
        <time>2023-06-10T14:23:05.737Z</time>
      </trkpt>
      <trkpt lat="47.21142" lon="0.0715">
        <ele>56.7</ele>
        <time>2023-06-10T14:23:36.733Z</time>
      </trkpt>
      <trkpt lat="47.21133" lon="0.07147">
        <ele>57.84</ele>
        <time>2023-06-10T14:24:07.730Z</time>
      </trkpt>
      <trkpt lat="47.21129" lon="0.07146">
        <ele>58.35</ele>
        <time>2023-06-10T14:24:38.728Z</time>
      </trkpt>
      <trkpt lat="47.21125" lon="0.07145">
        <ele>58.83</ele>
        <time>2023-06-10T14:25:09.727Z</time>
      </trkpt>
      <trkpt lat="47.21124" lon="0.07145">
        <ele>58.83</ele>
        <time>2023-06-10T14:25:40.726Z</time>
      </trkpt>
      <trkpt lat="47.2112" lon="0.07145">
        <ele>59.27</ele>
        <time>2023-06-10T14:26:11.726Z</time>
      </trkpt>
      <trkpt lat="47.2112" lon="0.07145">
        <ele>59.27</ele>
        <time>2023-06-10T14:26:42.726Z</time>
      </trkpt>
      <trkpt lat="47.21116" lon="0.07148">
        <ele>59.68</ele>
        <time>2023-06-10T14:27:13.726Z</time>
      </trkpt>
      <trkpt lat="47.21112" lon="0.07152">
        <ele>60.05</ele>
        <time>2023-06-10T14:27:44.727Z</time>
      </trkpt>
      <trkpt lat="47.21104" lon="0.07158">
        <ele>60.71</ele>
        <time>2023-06-10T14:28:15.729Z</time>
      </trkpt>
      <trkpt lat="47.21096" lon="0.07165">
        <ele>61.3</ele>
        <time>2023-06-10T14:28:46.733Z</time>
      </trkpt>
      <trkpt lat="47.21085" lon="0.07174">
        <ele>62.08</ele>
        <time>2023-06-10T14:29:17.739Z</time>
      </trkpt>
      <trkpt lat="47.21073" lon="0.07184">
        <ele>62.8</ele>
        <time>2023-06-10T14:29:48.747Z</time>
      </trkpt>
      <trkpt lat="47.21073" lon="0.07184">
        <ele>62.8</ele>
        <time>2023-06-10T14:30:19.755Z</time>
      </trkpt>
      <trkpt lat="47.21065" lon="0.07189">
        <ele>63.23</ele>
        <time>2023-06-10T14:30:50.765Z</time>
      </trkpt>
      <trkpt lat="47.21056" lon="0.07195">
        <ele>63.53</ele>
        <time>2023-06-10T14:31:21.776Z</time>
      </trkpt>
      <trkpt lat="47.21052" lon="0.07198">
        <ele>63.6</ele>
        <time>2023-06-10T14:31:52.788Z</time>
      </trkpt>
      <trkpt lat="47.21046" lon="0.07203">
        <ele>63.73</ele>
        <time>2023-06-10T14:32:23.801Z</time>
      </trkpt>
      <trkpt lat="47.2104" lon="0.07209">
        <ele>63.69</ele>
        <time>2023-06-10T14:32:54.815Z</time>
      </trkpt>
      <trkpt lat="47.21039" lon="0.07211">
        <ele>63.69</ele>
        <time>2023-06-10T14:33:25.829Z</time>
      </trkpt>
      <trkpt lat="47.21036" lon="0.07215">
        <ele>63.65</ele>
        <time>2023-06-10T14:33:56.844Z</time>
      </trkpt>
      <trkpt lat="47.21035" lon="0.07218">
        <ele>63.61</ele>
        <time>2023-06-10T14:34:27.859Z</time>
      </trkpt>
      <trkpt lat="47.2103" lon="0.07213">
        <ele>63.52</ele>
        <time>2023-06-10T14:34:58.875Z</time>
      </trkpt>
      <trkpt lat="47.21026" lon="0.0721">
        <ele>63.42</ele>
        <time>2023-06-10T14:35:29.892Z</time>
      </trkpt>
      <trkpt lat="47.21022" lon="0.07207">
        <ele>63.3</ele>
        <time>2023-06-10T14:36:00.910Z</time>
      </trkpt>
      <trkpt lat="47.21017" lon="0.07202">
        <ele>63.08</ele>
        <time>2023-06-10T14:36:31.929Z</time>
      </trkpt>
      <trkpt lat="47.21022" lon="0.07194">
        <ele>62.83</ele>
        <time>2023-06-10T14:37:02.949Z</time>
      </trkpt>
      <trkpt lat="47.21028" lon="0.07187">
        <ele>62.58</ele>
        <time>2023-06-10T14:37:33.970Z</time>
      </trkpt>
      <trkpt lat="47.21035" lon="0.07179">
        <ele>62.74</ele>
        <time>2023-06-10T14:38:04.993Z</time>
      </trkpt>
      <trkpt lat="47.21039" lon="0.07175">
        <ele>62.87</ele>
        <time>2023-06-10T14:38:36.016Z</time>
      </trkpt>
      <trkpt lat="47.21042" lon="0.07171">
        <ele>63.06</ele>
        <time>2023-06-10T14:39:07.040Z</time>
      </trkpt>
      <trkpt lat="47.21042" lon="0.07171">
        <ele>63.06</ele>
        <time>2023-06-10T14:39:38.064Z</time>
      </trkpt>
      <trkpt lat="47.21045" lon="0.07165">
        <ele>63.29</ele>
        <time>2023-06-10T14:40:09.089Z</time>
      </trkpt>
      <trkpt lat="47.21052" lon="0.0715">
        <ele>64.05</ele>
        <time>2023-06-10T14:40:40.116Z</time>
      </trkpt>
      <trkpt lat="47.21056" lon="0.07145">
        <ele>64.37</ele>
        <time>2023-06-10T14:41:11.144Z</time>
      </trkpt>
      <trkpt lat="47.21061" lon="0.07139">
        <ele>64.73</ele>
        <time>2023-06-10T14:41:42.173Z</time>
      </trkpt>
      <trkpt lat="47.21063" lon="0.07136">
        <ele>64.88</ele>
        <time>2023-06-10T14:42:13.202Z</time>
      </trkpt>
      <trkpt lat="47.21073" lon="0.07115">
        <ele>65.81</ele>
        <time>2023-06-10T14:42:44.234Z</time>
      </trkpt>
      <trkpt lat="47.21076" lon="0.0711">
        <ele>66.02</ele>
        <time>2023-06-10T14:43:15.267Z</time>
      </trkpt>
      <trkpt lat="47.21079" lon="0.07104">
        <ele>66.19</ele>
        <time>2023-06-10T14:43:46.300Z</time>
      </trkpt>
      <trkpt lat="47.21081" lon="0.071">
        <ele>66.32</ele>
        <time>2023-06-10T14:44:17.334Z</time>
      </trkpt>
      <trkpt lat="47.21082" lon="0.07099">
        <ele>66.32</ele>
        <time>2023-06-10T14:44:48.368Z</time>
      </trkpt>
      <trkpt lat="47.21085" lon="0.07094">
        <ele>66.42</ele>
        <time>2023-06-10T14:45:19.403Z</time>
      </trkpt>
      <trkpt lat="47.21088" lon="0.0709">
        <ele>66.49</ele>
        <time>2023-06-10T14:45:50.439Z</time>
      </trkpt>
      <trkpt lat="47.21098" lon="0.07076">
        <ele>66.58</ele>
        <time>2023-06-10T14:46:21.477Z</time>
      </trkpt>
      <trkpt lat="47.21104" lon="0.07066">
        <ele>66.55</ele>
        <time>2023-06-10T14:46:52.516Z</time>
      </trkpt>
      <trkpt lat="47.21107" lon="0.07062">
        <ele>66.51</ele>
        <time>2023-06-10T14:47:23.556Z</time>
      </trkpt>
      <trkpt lat="47.21113" lon="0.07053">
        <ele>66.34</ele>
        <time>2023-06-10T14:47:54.597Z</time>
      </trkpt>
      <trkpt lat="47.21113" lon="0.07052">
        <ele>66.34</ele>
        <time>2023-06-10T14:48:25.638Z</time>
      </trkpt>
      <trkpt lat="47.21119" lon="0.07042">
        <ele>66.09</ele>
        <time>2023-06-10T14:48:56.681Z</time>
      </trkpt>
      <trkpt lat="47.21128" lon="0.07027">
        <ele>65.67</ele>
        <time>2023-06-10T14:49:27.726Z</time>
      </trkpt>
      <trkpt lat="47.2113" lon="0.07023">
        <ele>65.55</ele>
        <time>2023-06-10T14:49:58.772Z</time>
      </trkpt>
      <trkpt lat="47.2114" lon="0.06999">
        <ele>64.9</ele>
        <time>2023-06-10T14:50:29.821Z</time>
      </trkpt>
      <trkpt lat="47.21152" lon="0.06971">
        <ele>64.24</ele>
        <time>2023-06-10T14:51:00.873Z</time>
      </trkpt>
      <trkpt lat="47.21159" lon="0.06955">
        <ele>63.81</ele>
        <time>2023-06-10T14:51:31.927Z</time>
      </trkpt>
      <trkpt lat="47.21176" lon="0.06916">
        <ele>62.77</ele>
        <time>2023-06-10T14:52:02.986Z</time>
      </trkpt>
      <trkpt lat="47.21182" lon="0.06898">
        <ele>62.31</ele>
        <time>2023-06-10T14:52:34.048Z</time>
      </trkpt>
      <trkpt lat="47.21195" lon="0.06863">
        <ele>61.31</ele>
        <time>2023-06-10T14:53:05.114Z</time>
      </trkpt>
      <trkpt lat="47.21197" lon="0.06857">
        <ele>61.11</ele>
        <time>2023-06-10T14:53:36.181Z</time>
      </trkpt>
      <trkpt lat="47.21199" lon="0.06851">
        <ele>60.92</ele>
        <time>2023-06-10T14:54:07.248Z</time>
      </trkpt>
      <trkpt lat="47.21202" lon="0.06846">
        <ele>60.69</ele>
        <time>2023-06-10T14:54:38.316Z</time>
      </trkpt>
      <trkpt lat="47.21204" lon="0.0684">
        <ele>60.43</ele>
        <time>2023-06-10T14:55:09.385Z</time>
      </trkpt>
      <trkpt lat="47.21207" lon="0.06835">
        <ele>60.14</ele>
        <time>2023-06-10T14:55:40.455Z</time>
      </trkpt>
      <trkpt lat="47.21209" lon="0.06829">
        <ele>59.8</ele>
        <time>2023-06-10T14:56:11.525Z</time>
      </trkpt>
      <trkpt lat="47.21211" lon="0.06825">
        <ele>59.52</ele>
        <time>2023-06-10T14:56:42.596Z</time>
      </trkpt>
      <trkpt lat="47.21212" lon="0.06824">
        <ele>59.42</ele>
        <time>2023-06-10T14:57:13.667Z</time>
      </trkpt>
      <trkpt lat="47.21215" lon="0.06819">
        <ele>58.98</ele>
        <time>2023-06-10T14:57:44.739Z</time>
      </trkpt>
      <trkpt lat="47.21218" lon="0.06815">
        <ele>58.49</ele>
        <time>2023-06-10T14:58:15.811Z</time>
      </trkpt>
      <trkpt lat="47.21218" lon="0.06815">
        <ele>58.49</ele>
        <time>2023-06-10T14:58:46.883Z</time>
      </trkpt>
      <trkpt lat="47.21222" lon="0.06811">
        <ele>57.95</ele>
        <time>2023-06-10T14:59:17.956Z</time>
      </trkpt>
      <trkpt lat="47.21226" lon="0.06808">
        <ele>57.36</ele>
        <time>2023-06-10T14:59:49.030Z</time>
      </trkpt>
      <trkpt lat="47.21234" lon="0.06802">
        <ele>56.12</ele>
        <time>2023-06-10T15:00:20.105Z</time>
      </trkpt>
      <trkpt lat="47.21237" lon="0.06799">
        <ele>55.61</ele>
        <time>2023-06-10T15:00:51.181Z</time>
      </trkpt>
      <trkpt lat="47.21238" lon="0.06799">
        <ele>55.46</ele>
        <time>2023-06-10T15:01:22.257Z</time>
      </trkpt>
      <trkpt lat="47.21242" lon="0.06797">
        <ele>54.76</ele>
        <time>2023-06-10T15:01:53.334Z</time>
      </trkpt>
      <trkpt lat="47.21264" lon="0.06791">
        <ele>51.12</ele>
        <time>2023-06-10T15:02:24.414Z</time>
      </trkpt>
      <trkpt lat="47.2127" lon="0.06789">
        <ele>50.19</ele>
        <time>2023-06-10T15:02:55.495Z</time>
      </trkpt>
      <trkpt lat="47.21282" lon="0.06783">
        <ele>48.16</ele>
        <time>2023-06-10T15:03:26.578Z</time>
      </trkpt>
      <trkpt lat="47.21291" lon="0.06779">
        <ele>46.61</ele>
        <time>2023-06-10T15:03:57.663Z</time>
      </trkpt>
      <trkpt lat="47.21298" lon="0.06773">
        <ele>45.3</ele>
        <time>2023-06-10T15:04:28.749Z</time>
      </trkpt>
      <trkpt lat="47.21302" lon="0.06769">
        <ele>44.62</ele>
        <time>2023-06-10T15:04:59.836Z</time>
      </trkpt>
      <trkpt lat="47.21306" lon="0.06766">
        <ele>43.94</ele>
        <time>2023-06-10T15:05:30.924Z</time>
      </trkpt>
      <trkpt lat="47.2131" lon="0.06765">
        <ele>43.32</ele>
        <time>2023-06-10T15:06:02.012Z</time>
      </trkpt>
      <trkpt lat="47.21328" lon="0.0676">
        <ele>40.86</ele>
        <time>2023-06-10T15:06:33.103Z</time>
      </trkpt>
      <trkpt lat="47.21328" lon="0.0676">
        <ele>40.86</ele>
        <time>2023-06-10T15:07:04.194Z</time>
      </trkpt>
      <trkpt lat="47.21329" lon="0.06758">
        <ele>40.81</ele>
        <time>2023-06-10T15:07:35.285Z</time>
      </trkpt>
      <trkpt lat="47.21337" lon="0.06748">
        <ele>39.64</ele>
        <time>2023-06-10T15:08:06.378Z</time>
      </trkpt>
      <trkpt lat="47.21345" lon="0.06727">
        <ele>37.79</ele>
        <time>2023-06-10T15:08:37.474Z</time>
      </trkpt>
      <trkpt lat="47.21348" lon="0.0672">
        <ele>37.22</ele>
        <time>2023-06-10T15:09:08.571Z</time>
      </trkpt>
      <trkpt lat="47.21351" lon="0.06717">
        <ele>36.87</ele>
        <time>2023-06-10T15:09:39.668Z</time>
      </trkpt>
      <trkpt lat="47.21366" lon="0.06703">
        <ele>35.22</ele>
        <time>2023-06-10T15:10:10.768Z</time>
      </trkpt>
      <trkpt lat="47.2137" lon="0.067">
        <ele>34.85</ele>
        <time>2023-06-10T15:10:41.869Z</time>
      </trkpt>
      <trkpt lat="47.21371" lon="0.06699">
        <ele>34.74</ele>
        <time>2023-06-10T15:11:12.970Z</time>
      </trkpt>
      <trkpt lat="47.21373" lon="0.06696">
        <ele>34.51</ele>
        <time>2023-06-10T15:11:44.071Z</time>
      </trkpt>
      <trkpt lat="47.2138" lon="0.06687">
        <ele>33.89</ele>
        <time>2023-06-10T15:12:15.174Z</time>
      </trkpt>
      <trkpt lat="47.21386" lon="0.06678">
        <ele>33.39</ele>
        <time>2023-06-10T15:12:46.278Z</time>
      </trkpt>
      <trkpt lat="47.21387" lon="0.06677">
        <ele>33.39</ele>
        <time>2023-06-10T15:13:17.382Z</time>
      </trkpt>
      <trkpt lat="47.21393" lon="0.0667">
        <ele>33.4</ele>
        <time>2023-06-10T15:13:48.488Z</time>
      </trkpt>
      <trkpt lat="47.21397" lon="0.06666">
        <ele>33.43</ele>
        <time>2023-06-10T15:14:19.594Z</time>
      </trkpt>
      <trkpt lat="47.214" lon="0.06664">
        <ele>33.46</ele>
        <time>2023-06-10T15:14:50.701Z</time>
      </trkpt>
      <trkpt lat="47.21404" lon="0.06662">
        <ele>33.51</ele>
        <time>2023-06-10T15:15:21.809Z</time>
      </trkpt>
      <trkpt lat="47.21407" lon="0.0666">
        <ele>33.56</ele>
        <time>2023-06-10T15:15:52.917Z</time>
      </trkpt>
      <trkpt lat="47.21413" lon="0.06658">
        <ele>33.67</ele>
        <time>2023-06-10T15:16:24.026Z</time>
      </trkpt>
      <trkpt lat="47.21417" lon="0.06657">
        <ele>33.77</ele>
        <time>2023-06-10T15:16:55.136Z</time>
      </trkpt>
      <trkpt lat="47.21417" lon="0.06657">
        <ele>33.77</ele>
        <time>2023-06-10T15:17:26.246Z</time>
      </trkpt>
      <trkpt lat="47.21422" lon="0.06646">
        <ele>34.01</ele>
        <time>2023-06-10T15:17:57.357Z</time>
      </trkpt>
      <trkpt lat="47.21422" lon="0.06646">
        <ele>34.01</ele>
        <time>2023-06-10T15:18:28.468Z</time>
      </trkpt>
      <trkpt lat="47.21428" lon="0.06623">
        <ele>34.6</ele>
        <time>2023-06-10T15:18:59.582Z</time>
      </trkpt>
      <trkpt lat="47.2143" lon="0.06618">
        <ele>34.58</ele>
        <time>2023-06-10T15:19:30.697Z</time>
      </trkpt>
      <trkpt lat="47.21433" lon="0.06606">
        <ele>35.11</ele>
        <time>2023-06-10T15:20:01.813Z</time>
      </trkpt>
      <trkpt lat="47.21435" lon="0.066">
        <ele>35.4</ele>
        <time>2023-06-10T15:20:32.930Z</time>
      </trkpt>
      <trkpt lat="47.21438" lon="0.06589">
        <ele>36.06</ele>
        <time>2023-06-10T15:21:04.048Z</time>
      </trkpt>
      <trkpt lat="47.21441" lon="0.06577">
        <ele>36.8</ele>
        <time>2023-06-10T15:21:35.167Z</time>
      </trkpt>
      <trkpt lat="47.21449" lon="0.06548">
        <ele>38.74</ele>
        <time>2023-06-10T15:22:06.290Z</time>
      </trkpt>
      <trkpt lat="47.21454" lon="0.0653">
        <ele>39.88</ele>
        <time>2023-06-10T15:22:37.415Z</time>
      </trkpt>
      <trkpt lat="47.21454" lon="0.0653">
        <ele>39.88</ele>
        <time>2023-06-10T15:23:08.540Z</time>
      </trkpt>
      <trkpt lat="47.21458" lon="0.06519">
        <ele>40.56</ele>
        <time>2023-06-10T15:23:39.666Z</time>
      </trkpt>
      <trkpt lat="47.2146" lon="0.06514">
        <ele>40.87</ele>
        <time>2023-06-10T15:24:10.793Z</time>
      </trkpt>
      <trkpt lat="47.21465" lon="0.06503">
        <ele>41.45</ele>
        <time>2023-06-10T15:24:41.921Z</time>
      </trkpt>
      <trkpt lat="47.21471" lon="0.06486">
        <ele>42.28</ele>
        <time>2023-06-10T15:25:13.051Z</time>
      </trkpt>
      <trkpt lat="47.21476" lon="0.06474">
        <ele>42.7</ele>
        <time>2023-06-10T15:25:44.183Z</time>
      </trkpt>
      <trkpt lat="47.21477" lon="0.06469">
        <ele>42.87</ele>
        <time>2023-06-10T15:26:15.316Z</time>
      </trkpt>
      <trkpt lat="47.2148" lon="0.06456">
        <ele>43.21</ele>
        <time>2023-06-10T15:26:46.450Z</time>
      </trkpt>
      <trkpt lat="47.21482" lon="0.06443">
        <ele>43.47</ele>
        <time>2023-06-10T15:27:17.585Z</time>
      </trkpt>
      <trkpt lat="47.21483" lon="0.06439">
        <ele>43.54</ele>
        <time>2023-06-10T15:27:48.721Z</time>
      </trkpt>
      <trkpt lat="47.21487" lon="0.06419">
        <ele>43.86</ele>
        <time>2023-06-10T15:28:19.859Z</time>
      </trkpt>
      <trkpt lat="47.21492" lon="0.06393">
        <ele>44.6</ele>
        <time>2023-06-10T15:28:51.000Z</time>
      </trkpt>
      <trkpt lat="47.21493" lon="0.06381">
        <ele>44.93</ele>
        <time>2023-06-10T15:29:22.142Z</time>
      </trkpt>
      <trkpt lat="47.21493" lon="0.06376">
        <ele>45.06</ele>
        <time>2023-06-10T15:29:53.285Z</time>
      </trkpt>
      <trkpt lat="47.21492" lon="0.06369">
        <ele>45.27</ele>
        <time>2023-06-10T15:30:24.429Z</time>
      </trkpt>
      <trkpt lat="47.21489" lon="0.06356">
        <ele>45.57</ele>
        <time>2023-06-10T15:30:55.574Z</time>
      </trkpt>
      <trkpt lat="47.21487" lon="0.06343">
        <ele>45.84</ele>
        <time>2023-06-10T15:31:26.721Z</time>
      </trkpt>
      <trkpt lat="47.21485" lon="0.06331">
        <ele>46.07</ele>
        <time>2023-06-10T15:31:57.869Z</time>
      </trkpt>
      <trkpt lat="47.21484" lon="0.06326">
        <ele>46.14</ele>
        <time>2023-06-10T15:32:29.018Z</time>
      </trkpt>
      <trkpt lat="47.21483" lon="0.06318">
        <ele>46.27</ele>
        <time>2023-06-10T15:33:00.168Z</time>
      </trkpt>
      <trkpt lat="47.21483" lon="0.06312">
        <ele>46.34</ele>
        <time>2023-06-10T15:33:31.318Z</time>
      </trkpt>
      <trkpt lat="47.21483" lon="0.06305">
        <ele>46.43</ele>
        <time>2023-06-10T15:34:02.469Z</time>
      </trkpt>
      <trkpt lat="47.21483" lon="0.06292">
        <ele>46.54</ele>
        <time>2023-06-10T15:34:33.621Z</time>
      </trkpt>
      <trkpt lat="47.21484" lon="0.06286">
        <ele>46.55</ele>
        <time>2023-06-10T15:35:04.774Z</time>
      </trkpt>
      <trkpt lat="47.21484" lon="0.06279">
        <ele>46.53</ele>
        <time>2023-06-10T15:35:35.928Z</time>
      </trkpt>
      <trkpt lat="47.21484" lon="0.06273">
        <ele>46.47</ele>
        <time>2023-06-10T15:36:07.083Z</time>
      </trkpt>
      <trkpt lat="47.21484" lon="0.06266">
        <ele>46.38</ele>
        <time>2023-06-10T15:36:38.238Z</time>
      </trkpt>
      <trkpt lat="47.21484" lon="0.0626">
        <ele>46.25</ele>
        <time>2023-06-10T15:37:09.394Z</time>
      </trkpt>
      <trkpt lat="47.21485" lon="0.06247">
        <ele>45.93</ele>
        <time>2023-06-10T15:37:40.551Z</time>
      </trkpt>
      <trkpt lat="47.21485" lon="0.06227">
        <ele>45.28</ele>
        <time>2023-06-10T15:38:11.711Z</time>
      </trkpt>
      <trkpt lat="47.21488" lon="0.06215">
        <ele>44.91</ele>
        <time>2023-06-10T15:38:42.872Z</time>
      </trkpt>
      <trkpt lat="47.21488" lon="0.06215">
        <ele>44.91</ele>
        <time>2023-06-10T15:39:14.033Z</time>
      </trkpt>
      <trkpt lat="47.21494" lon="0.062">
        <ele>44.36</ele>
        <time>2023-06-10T15:39:45.196Z</time>
      </trkpt>
      <trkpt lat="47.21503" lon="0.06186">
        <ele>43.8</ele>
        <time>2023-06-10T15:40:16.361Z</time>
      </trkpt>
      <trkpt lat="47.21509" lon="0.06177">
        <ele>43.47</ele>
        <time>2023-06-10T15:40:47.527Z</time>
      </trkpt>
      <trkpt lat="47.21518" lon="0.06163">
        <ele>43.06</ele>
        <time>2023-06-10T15:41:18.695Z</time>
      </trkpt>
      <trkpt lat="47.21522" lon="0.06157">
        <ele>43.02</ele>
        <time>2023-06-10T15:41:49.864Z</time>
      </trkpt>
      <trkpt lat="47.21529" lon="0.06146">
        <ele>42.55</ele>
        <time>2023-06-10T15:42:21.035Z</time>
      </trkpt>
      <trkpt lat="47.21541" lon="0.06127">
        <ele>42.03</ele>
        <time>2023-06-10T15:42:52.209Z</time>
      </trkpt>
      <trkpt lat="47.21547" lon="0.06116">
        <ele>41.77</ele>
        <time>2023-06-10T15:43:23.384Z</time>
      </trkpt>
      <trkpt lat="47.21564" lon="0.06086">
        <ele>40.93</ele>
        <time>2023-06-10T15:43:54.564Z</time>
      </trkpt>
      <trkpt lat="47.21569" lon="0.06076">
        <ele>40.59</ele>
        <time>2023-06-10T15:44:25.745Z</time>
      </trkpt>
      <trkpt lat="47.21575" lon="0.06065">
        <ele>40.17</ele>
        <time>2023-06-10T15:44:56.927Z</time>
      </trkpt>
      <trkpt lat="47.21586" lon="0.06045">
        <ele>39.22</ele>
        <time>2023-06-10T15:45:28.112Z</time>
      </trkpt>
      <trkpt lat="47.21591" lon="0.06036">
        <ele>38.33</ele>
        <time>2023-06-10T15:45:59.299Z</time>
      </trkpt>
      <trkpt lat="47.21597" lon="0.06023">
        <ele>37.28</ele>
        <time>2023-06-10T15:46:30.487Z</time>
      </trkpt>
      <trkpt lat="47.21597" lon="0.06023">
        <ele>37.28</ele>
        <time>2023-06-10T15:47:01.675Z</time>
      </trkpt>
      <trkpt lat="47.216" lon="0.06005">
        <ele>35.9</ele>
        <time>2023-06-10T15:47:32.865Z</time>
      </trkpt>
      <trkpt lat="47.21601" lon="0.06001">
        <ele>35.64</ele>
        <time>2023-06-10T15:48:04.056Z</time>
      </trkpt>
      <trkpt lat="47.21604" lon="0.05993">
        <ele>35.08</ele>
        <time>2023-06-10T15:48:35.248Z</time>
      </trkpt>
      <trkpt lat="47.21607" lon="0.05988">
        <ele>34.7</ele>
        <time>2023-06-10T15:49:06.440Z</time>
      </trkpt>
      <trkpt lat="47.21611" lon="0.05977">
        <ele>34</ele>
        <time>2023-06-10T15:49:37.634Z</time>
      </trkpt>
      <trkpt lat="47.21618" lon="0.05961">
        <ele>33.97</ele>
        <time>2023-06-10T15:50:08.830Z</time>
      </trkpt>
      <trkpt lat="47.21625" lon="0.05953">
        <ele>33.96</ele>
        <time>2023-06-10T15:50:40.027Z</time>
      </trkpt>
      <trkpt lat="47.21634" lon="0.05951">
        <ele>33.94</ele>
        <time>2023-06-10T15:51:11.226Z</time>
      </trkpt>
      <trkpt lat="47.21638" lon="0.05951">
        <ele>33.93</ele>
        <time>2023-06-10T15:51:42.425Z</time>
      </trkpt>
      <trkpt lat="47.2163" lon="0.06016">
        <ele>33.86</ele>
        <time>2023-06-10T15:52:13.632Z</time>
      </trkpt>
      <trkpt lat="47.2163" lon="0.06016">
        <ele>25.98</ele>
        <time>2023-06-10T15:52:44.839Z</time>
      </trkpt>
      <trkpt lat="47.21628" lon="0.06031">
        <ele>25.5</ele>
        <time>2023-06-10T15:53:16.047Z</time>
      </trkpt>
      <trkpt lat="47.21628" lon="0.06031">
        <ele>33.87</ele>
        <time>2023-06-10T15:53:47.255Z</time>
      </trkpt>
      <trkpt lat="47.21624" lon="0.06066">
        <ele>33.91</ele>
        <time>2023-06-10T15:54:18.467Z</time>
      </trkpt>
      <trkpt lat="47.21632" lon="0.06001">
        <ele>34</ele>
        <time>2023-06-10T15:54:49.686Z</time>
      </trkpt>
      <trkpt lat="47.21637" lon="0.05959">
        <ele>33.89</ele>
        <time>2023-06-10T15:55:20.910Z</time>
      </trkpt>
      <trkpt lat="47.21643" lon="0.0591">
        <ele>33.71</ele>
        <time>2023-06-10T15:55:52.139Z</time>
      </trkpt>
      <trkpt lat="47.21646" lon="0.05883">
        <ele>33.75</ele>
        <time>2023-06-10T15:56:23.371Z</time>
      </trkpt>
      <trkpt lat="47.21653" lon="0.05826">
        <ele>33.78</ele>
        <time>2023-06-10T15:56:54.610Z</time>
      </trkpt>
      <trkpt lat="47.21662" lon="0.05756">
        <ele>33.7</ele>
        <time>2023-06-10T15:57:25.856Z</time>
      </trkpt>
      <trkpt lat="47.21663" lon="0.05746">
        <ele>33.45</ele>
        <time>2023-06-10T15:57:57.104Z</time>
      </trkpt>
      <trkpt lat="47.21665" lon="0.05728">
        <ele>32.9</ele>
        <time>2023-06-10T15:58:28.354Z</time>
      </trkpt>
      <trkpt lat="47.21668" lon="0.05706">
        <ele>32.17</ele>
        <time>2023-06-10T15:58:59.606Z</time>
      </trkpt>
      <trkpt lat="47.21669" lon="0.05706">
        <ele>32.12</ele>
        <time>2023-06-10T15:59:30.858Z</time>
      </trkpt>
      <trkpt lat="47.21675" lon="0.05705">
        <ele>31.86</ele>
        <time>2023-06-10T16:00:02.111Z</time>
      </trkpt>
      <trkpt lat="47.21674" lon="0.05714">
        <ele>31.59</ele>
        <time>2023-06-10T16:00:33.365Z</time>
      </trkpt>
      <trkpt lat="47.21674" lon="0.05725">
        <ele>31.54</ele>
        <time>2023-06-10T16:01:04.620Z</time>
      </trkpt>
      <trkpt lat="47.21673" lon="0.05744">
        <ele>31.48</ele>
        <time>2023-06-10T16:01:35.877Z</time>
      </trkpt>
      <trkpt lat="47.21672" lon="0.05752">
        <ele>31.48</ele>
        <time>2023-06-10T16:02:07.135Z</time>
      </trkpt>
      <trkpt lat="47.21672" lon="0.05757">
        <ele>31.48</ele>
        <time>2023-06-10T16:02:38.394Z</time>
      </trkpt>
      <trkpt lat="47.21673" lon="0.05765">
        <ele>31.51</ele>
        <time>2023-06-10T16:03:09.654Z</time>
      </trkpt>
      <trkpt lat="47.21675" lon="0.05761">
        <ele>31.53</ele>
        <time>2023-06-10T16:03:40.914Z</time>
      </trkpt>
      <trkpt lat="47.21677" lon="0.05757">
        <ele>31.56</ele>
        <time>2023-06-10T16:04:12.175Z</time>
      </trkpt>
      <trkpt lat="47.21678" lon="0.05745">
        <ele>31.65</ele>
        <time>2023-06-10T16:04:43.437Z</time>
      </trkpt>
      <trkpt lat="47.21682" lon="0.05731">
        <ele>31.76</ele>
        <time>2023-06-10T16:05:14.701Z</time>
      </trkpt>
      <trkpt lat="47.21686" lon="0.05719">
        <ele>31.82</ele>
        <time>2023-06-10T16:05:45.966Z</time>
      </trkpt>
      <trkpt lat="47.21686" lon="0.05719">
        <ele>31.82</ele>
        <time>2023-06-10T16:06:17.231Z</time>
      </trkpt>
      <trkpt lat="47.21691" lon="0.0571">
        <ele>31.85</ele>
        <time>2023-06-10T16:06:48.498Z</time>
      </trkpt>
      <trkpt lat="47.217" lon="0.05695">
        <ele>31.86</ele>
        <time>2023-06-10T16:07:19.767Z</time>
      </trkpt>
      <trkpt lat="47.21723" lon="0.05656">
        <ele>31.79</ele>
        <time>2023-06-10T16:07:51.041Z</time>
      </trkpt>
      <trkpt lat="47.21725" lon="0.05653">
        <ele>31.79</ele>
        <time>2023-06-10T16:08:22.316Z</time>
      </trkpt>
      <trkpt lat="47.21731" lon="0.0564">
        <ele>31.79</ele>
        <time>2023-06-10T16:08:53.592Z</time>
      </trkpt>
      <trkpt lat="47.21736" lon="0.05631">
        <ele>31.82</ele>
        <time>2023-06-10T16:09:24.870Z</time>
      </trkpt>
      <trkpt lat="47.21737" lon="0.05629">
        <ele>31.83</ele>
        <time>2023-06-10T16:09:56.148Z</time>
      </trkpt>
      <trkpt lat="47.21744" lon="0.05609">
        <ele>32.07</ele>
        <time>2023-06-10T16:10:27.428Z</time>
      </trkpt>
      <trkpt lat="47.21744" lon="0.05608">
        <ele>32.06</ele>
        <time>2023-06-10T16:10:58.709Z</time>
      </trkpt>
      <trkpt lat="47.21743" lon="0.05595">
        <ele>32</ele>
        <time>2023-06-10T16:11:29.991Z</time>
      </trkpt>
      <trkpt lat="47.21757" lon="0.05564">
        <ele>31.83</ele>
        <time>2023-06-10T16:12:01.277Z</time>
      </trkpt>
      <trkpt lat="47.21764" lon="0.05567">
        <ele>31.78</ele>
        <time>2023-06-10T16:12:32.564Z</time>
      </trkpt>
      <trkpt lat="47.21767" lon="0.05565">
        <ele>31.77</ele>
        <time>2023-06-10T16:13:03.852Z</time>
      </trkpt>
      <trkpt lat="47.21767" lon="0.05565">
        <ele>31.77</ele>
        <time>2023-06-10T16:13:35.140Z</time>
      </trkpt>
      <trkpt lat="47.21791" lon="0.05532">
        <ele>31.52</ele>
        <time>2023-06-10T16:14:06.433Z</time>
      </trkpt>
      <trkpt lat="47.21799" lon="0.05519">
        <ele>31.44</ele>
        <time>2023-06-10T16:14:37.728Z</time>
      </trkpt>
      <trkpt lat="47.21806" lon="0.05507">
        <ele>31.37</ele>
        <time>2023-06-10T16:15:09.025Z</time>
      </trkpt>
      <trkpt lat="47.21818" lon="0.05468">
        <ele>31.21</ele>
        <time>2023-06-10T16:15:40.326Z</time>
      </trkpt>
      <trkpt lat="47.21824" lon="0.0545">
        <ele>31.18</ele>
        <time>2023-06-10T16:16:11.629Z</time>
      </trkpt>
      <trkpt lat="47.21831" lon="0.05426">
        <ele>31.21</ele>
        <time>2023-06-10T16:16:42.935Z</time>
      </trkpt>
      <trkpt lat="47.21833" lon="0.0542">
        <ele>31.22</ele>
        <time>2023-06-10T16:17:14.242Z</time>
      </trkpt>
      <trkpt lat="47.21859" lon="0.05357">
        <ele>31.13</ele>
        <time>2023-06-10T16:17:45.557Z</time>
      </trkpt>
      <trkpt lat="47.21863" lon="0.05346">
        <ele>31.09</ele>
        <time>2023-06-10T16:18:16.873Z</time>
      </trkpt>
      <trkpt lat="47.21877" lon="0.05312">
        <ele>30.92</ele>
        <time>2023-06-10T16:18:48.194Z</time>
      </trkpt>
      <trkpt lat="47.21895" lon="0.05266">
        <ele>30.92</ele>
        <time>2023-06-10T16:19:19.521Z</time>
      </trkpt>
      <trkpt lat="47.21906" lon="0.05237">
        <ele>30.86</ele>
        <time>2023-06-10T16:19:50.851Z</time>
      </trkpt>
      <trkpt lat="47.21911" lon="0.05226">
        <ele>30.8</ele>
        <time>2023-06-10T16:20:22.183Z</time>
      </trkpt>
      <trkpt lat="47.21918" lon="0.05209">
        <ele>30.65</ele>
        <time>2023-06-10T16:20:53.517Z</time>
      </trkpt>
      <trkpt lat="47.21922" lon="0.05197">
        <ele>30.61</ele>
        <time>2023-06-10T16:21:24.852Z</time>
      </trkpt>
      <trkpt lat="47.21927" lon="0.05186">
        <ele>30.65</ele>
        <time>2023-06-10T16:21:56.189Z</time>
      </trkpt>
      <trkpt lat="47.21933" lon="0.05171">
        <ele>30.78</ele>
        <time>2023-06-10T16:22:27.528Z</time>
      </trkpt>
      <trkpt lat="47.21934" lon="0.05169">
        <ele>30.8</ele>
        <time>2023-06-10T16:22:58.867Z</time>
      </trkpt>
      <trkpt lat="47.21941" lon="0.05139">
        <ele>30.97</ele>
        <time>2023-06-10T16:23:30.209Z</time>
      </trkpt>
      <trkpt lat="47.21944" lon="0.05133">
        <ele>31.01</ele>
        <time>2023-06-10T16:24:01.552Z</time>
      </trkpt>
      <trkpt lat="47.21949" lon="0.05122">
        <ele>31.03</ele>
        <time>2023-06-10T16:24:32.897Z</time>
      </trkpt>
      <trkpt lat="47.21954" lon="0.05112">
        <ele>31</ele>
        <time>2023-06-10T16:25:04.243Z</time>
      </trkpt>
      <trkpt lat="47.21965" lon="0.0509">
        <ele>30.77</ele>
        <time>2023-06-10T16:25:35.592Z</time>
      </trkpt>
      <trkpt lat="47.2197" lon="0.0508">
        <ele>30.69</ele>
        <time>2023-06-10T16:26:06.942Z</time>
      </trkpt>
      <trkpt lat="47.21975" lon="0.05069">
        <ele>30.65</ele>
        <time>2023-06-10T16:26:38.294Z</time>
      </trkpt>
      <trkpt lat="47.21977" lon="0.05066">
        <ele>30.65</ele>
        <time>2023-06-10T16:27:09.646Z</time>
      </trkpt>
      <trkpt lat="47.2198" lon="0.05058">
        <ele>30.67</ele>
        <time>2023-06-10T16:27:40.999Z</time>
      </trkpt>
      <trkpt lat="47.21987" lon="0.05041">
        <ele>30.78</ele>
        <time>2023-06-10T16:28:12.354Z</time>
      </trkpt>
      <trkpt lat="47.21992" lon="0.0503">
        <ele>30.9</ele>
        <time>2023-06-10T16:28:43.711Z</time>
      </trkpt>
      <trkpt lat="47.21996" lon="0.05018">
        <ele>31.07</ele>
        <time>2023-06-10T16:29:15.069Z</time>
      </trkpt>
      <trkpt lat="47.22005" lon="0.04996">
        <ele>31.47</ele>
        <time>2023-06-10T16:29:46.430Z</time>
      </trkpt>
      <trkpt lat="47.22005" lon="0.04996">
        <ele>31.47</ele>
        <time>2023-06-10T16:30:17.791Z</time>
      </trkpt>
      <trkpt lat="47.22008" lon="0.04991">
        <ele>31.56</ele>
        <time>2023-06-10T16:30:49.153Z</time>
      </trkpt>
      <trkpt lat="47.22011" lon="0.04986">
        <ele>31.63</ele>
        <time>2023-06-10T16:31:20.515Z</time>
      </trkpt>
      <trkpt lat="47.22021" lon="0.04972">
        <ele>31.72</ele>
        <time>2023-06-10T16:31:51.880Z</time>
      </trkpt>
      <trkpt lat="47.2203" lon="0.04958">
        <ele>31.72</ele>
        <time>2023-06-10T16:32:23.247Z</time>
      </trkpt>
      <trkpt lat="47.2203" lon="0.04958">
        <ele>31.72</ele>
        <time>2023-06-10T16:32:54.614Z</time>
      </trkpt>
      <trkpt lat="47.22038" lon="0.04952">
        <ele>31.74</ele>
        <time>2023-06-10T16:33:25.982Z</time>
      </trkpt>
      <trkpt lat="47.22058" lon="0.04937">
        <ele>31.91</ele>
        <time>2023-06-10T16:33:57.354Z</time>
      </trkpt>
      <trkpt lat="47.22061" lon="0.04934">
        <ele>31.92</ele>
        <time>2023-06-10T16:34:28.726Z</time>
      </trkpt>
      <trkpt lat="47.22069" lon="0.04926">
        <ele>31.97</ele>
        <time>2023-06-10T16:35:00.100Z</time>
      </trkpt>
      <trkpt lat="47.22076" lon="0.04918">
        <ele>31.96</ele>
        <time>2023-06-10T16:35:31.475Z</time>
      </trkpt>
      <trkpt lat="47.22087" lon="0.04907">
        <ele>31.87</ele>
        <time>2023-06-10T16:36:02.852Z</time>
      </trkpt>
      <trkpt lat="47.22095" lon="0.049">
        <ele>31.76</ele>
        <time>2023-06-10T16:36:34.231Z</time>
      </trkpt>
      <trkpt lat="47.22102" lon="0.04892">
        <ele>31.62</ele>
        <time>2023-06-10T16:37:05.611Z</time>
      </trkpt>
      <trkpt lat="47.22109" lon="0.04885">
        <ele>31.45</ele>
        <time>2023-06-10T16:37:36.993Z</time>
      </trkpt>
      <trkpt lat="47.22125" lon="0.04869">
        <ele>31.03</ele>
        <time>2023-06-10T16:38:08.378Z</time>
      </trkpt>
      <trkpt lat="47.2213" lon="0.04861">
        <ele>30.86</ele>
        <time>2023-06-10T16:38:39.764Z</time>
      </trkpt>
      <trkpt lat="47.22137" lon="0.04851">
        <ele>30.83</ele>
        <time>2023-06-10T16:39:11.152Z</time>
      </trkpt>
      <trkpt lat="47.22137" lon="0.04851">
        <ele>30.83</ele>
        <time>2023-06-10T16:39:42.540Z</time>
      </trkpt>
      <trkpt lat="47.22143" lon="0.04843">
        <ele>30.83</ele>
        <time>2023-06-10T16:40:13.929Z</time>
      </trkpt>
      <trkpt lat="47.22156" lon="0.04827">
        <ele>30.86</ele>
        <time>2023-06-10T16:40:45.321Z</time>
      </trkpt>
      <trkpt lat="47.22165" lon="0.04819">
        <ele>30.88</ele>
        <time>2023-06-10T16:41:16.714Z</time>
      </trkpt>
      <trkpt lat="47.22178" lon="0.04808">
        <ele>30.81</ele>
        <time>2023-06-10T16:41:48.110Z</time>
      </trkpt>
      <trkpt lat="47.22186" lon="0.04798">
        <ele>30.76</ele>
        <time>2023-06-10T16:42:19.507Z</time>
      </trkpt>
      <trkpt lat="47.22187" lon="0.04797">
        <ele>30.76</ele>
        <time>2023-06-10T16:42:50.905Z</time>
      </trkpt>
      <trkpt lat="47.22205" lon="0.04768">
        <ele>30.75</ele>
        <time>2023-06-10T16:43:22.307Z</time>
      </trkpt>
      <trkpt lat="47.22212" lon="0.04758">
        <ele>30.7</ele>
        <time>2023-06-10T16:43:53.710Z</time>
      </trkpt>
      <trkpt lat="47.22224" lon="0.04739">
        <ele>30.53</ele>
        <time>2023-06-10T16:44:25.116Z</time>
      </trkpt>
      <trkpt lat="47.22227" lon="0.04734">
        <ele>30.51</ele>
        <time>2023-06-10T16:44:56.523Z</time>
      </trkpt>
      <trkpt lat="47.2223" lon="0.0473">
        <ele>30.51</ele>
        <time>2023-06-10T16:45:27.931Z</time>
      </trkpt>
      <trkpt lat="47.22233" lon="0.04725">
        <ele>30.54</ele>
        <time>2023-06-10T16:45:59.339Z</time>
      </trkpt>
      <trkpt lat="47.22242" lon="0.0471">
        <ele>30.67</ele>
        <time>2023-06-10T16:46:30.749Z</time>
      </trkpt>
      <trkpt lat="47.22244" lon="0.04708">
        <ele>30.67</ele>
        <time>2023-06-10T16:47:02.160Z</time>
      </trkpt>
      <trkpt lat="47.22245" lon="0.04706">
        <ele>30.67</ele>
        <time>2023-06-10T16:47:33.571Z</time>
      </trkpt>
      <trkpt lat="47.22248" lon="0.047">
        <ele>30.63</ele>
        <time>2023-06-10T16:48:04.983Z</time>
      </trkpt>
      <trkpt lat="47.22251" lon="0.04695">
        <ele>30.56</ele>
        <time>2023-06-10T16:48:36.396Z</time>
      </trkpt>
      <trkpt lat="47.2226" lon="0.0468">
        <ele>30.24</ele>
        <time>2023-06-10T16:49:07.811Z</time>
      </trkpt>
      <trkpt lat="47.22263" lon="0.04675">
        <ele>30.16</ele>
        <time>2023-06-10T16:49:39.226Z</time>
      </trkpt>
      <trkpt lat="47.22266" lon="0.0467">
        <ele>30.11</ele>
        <time>2023-06-10T16:50:10.642Z</time>
      </trkpt>
      <trkpt lat="47.22268" lon="0.04665">
        <ele>30.1</ele>
        <time>2023-06-10T16:50:42.059Z</time>
      </trkpt>
      <trkpt lat="47.22271" lon="0.0466">
        <ele>30.12</ele>
        <time>2023-06-10T16:51:13.477Z</time>
      </trkpt>
      <trkpt lat="47.22283" lon="0.0464">
        <ele>30.32</ele>
        <time>2023-06-10T16:51:44.898Z</time>
      </trkpt>
      <trkpt lat="47.22286" lon="0.04635">
        <ele>30.35</ele>
        <time>2023-06-10T16:52:16.319Z</time>
      </trkpt>
      <trkpt lat="47.22289" lon="0.0463">
        <ele>30.35</ele>
        <time>2023-06-10T16:52:47.741Z</time>
      </trkpt>
      <trkpt lat="47.2229" lon="0.04627">
        <ele>30.33</ele>
        <time>2023-06-10T16:53:19.163Z</time>
      </trkpt>
      <trkpt lat="47.22292" lon="0.04625">
        <ele>30.33</ele>
        <time>2023-06-10T16:53:50.586Z</time>
      </trkpt>
      <trkpt lat="47.22308" lon="0.04604">
        <ele>30.06</ele>
        <time>2023-06-10T16:54:22.012Z</time>
      </trkpt>
      <trkpt lat="47.22309" lon="0.04603">
        <ele>30.06</ele>
        <time>2023-06-10T16:54:53.438Z</time>
      </trkpt>
      <trkpt lat="47.22316" lon="0.04596">
        <ele>29.99</ele>
        <time>2023-06-10T16:55:24.866Z</time>
      </trkpt>
      <trkpt lat="47.22323" lon="0.04588">
        <ele>29.99</ele>
        <time>2023-06-10T16:55:56.295Z</time>
      </trkpt>
      <trkpt lat="47.22334" lon="0.04576">
        <ele>30.07</ele>
        <time>2023-06-10T16:56:27.726Z</time>
      </trkpt>
      <trkpt lat="47.22334" lon="0.04576">
        <ele>30.07</ele>
        <time>2023-06-10T16:56:59.157Z</time>
      </trkpt>
      <trkpt lat="47.22344" lon="0.04562">
        <ele>30.18</ele>
        <time>2023-06-10T16:57:30.591Z</time>
      </trkpt>
      <trkpt lat="47.22346" lon="0.04557">
        <ele>30.22</ele>
        <time>2023-06-10T16:58:02.025Z</time>
      </trkpt>
      <trkpt lat="47.2235" lon="0.04545">
        <ele>30.23</ele>
        <time>2023-06-10T16:58:33.461Z</time>
      </trkpt>
      <trkpt lat="47.22354" lon="0.04533">
        <ele>30.16</ele>
        <time>2023-06-10T16:59:04.898Z</time>
      </trkpt>
      <trkpt lat="47.22362" lon="0.0451">
        <ele>29.9</ele>
        <time>2023-06-10T16:59:36.338Z</time>
      </trkpt>
      <trkpt lat="47.22366" lon="0.04498">
        <ele>29.79</ele>
        <time>2023-06-10T17:00:07.779Z</time>
      </trkpt>
      <trkpt lat="47.22369" lon="0.0449">
        <ele>29.74</ele>
        <time>2023-06-10T17:00:39.221Z</time>
      </trkpt>
      <trkpt lat="47.22371" lon="0.04486">
        <ele>29.72</ele>
        <time>2023-06-10T17:01:10.664Z</time>
      </trkpt>
      <trkpt lat="47.22373" lon="0.04481">
        <ele>29.71</ele>
        <time>2023-06-10T17:01:42.108Z</time>
      </trkpt>
      <trkpt lat="47.22378" lon="0.0447">
        <ele>29.73</ele>
        <time>2023-06-10T17:02:13.553Z</time>
      </trkpt>
      <trkpt lat="47.22382" lon="0.04458">
        <ele>29.8</ele>
        <time>2023-06-10T17:02:44.999Z</time>
      </trkpt>
      <trkpt lat="47.22385" lon="0.04453">
        <ele>29.86</ele>
        <time>2023-06-10T17:03:16.446Z</time>
      </trkpt>
      <trkpt lat="47.22387" lon="0.04447">
        <ele>29.94</ele>
        <time>2023-06-10T17:03:47.894Z</time>
      </trkpt>
      <trkpt lat="47.22389" lon="0.04434">
        <ele>30.1</ele>
        <time>2023-06-10T17:04:19.343Z</time>
      </trkpt>
      <trkpt lat="47.22392" lon="0.04416">
        <ele>30.29</ele>
        <time>2023-06-10T17:04:50.794Z</time>
      </trkpt>
      <trkpt lat="47.22393" lon="0.04408">
        <ele>30.37</ele>
        <time>2023-06-10T17:05:22.246Z</time>
      </trkpt>
      <trkpt lat="47.22393" lon="0.04395">
        <ele>30.55</ele>
        <time>2023-06-10T17:05:53.700Z</time>
      </trkpt>
      <trkpt lat="47.22394" lon="0.04389">
        <ele>30.67</ele>
        <time>2023-06-10T17:06:25.154Z</time>
      </trkpt>
      <trkpt lat="47.22395" lon="0.04372">
        <ele>31.05</ele>
        <time>2023-06-10T17:06:56.610Z</time>
      </trkpt>
      <trkpt lat="47.22397" lon="0.04363">
        <ele>31.27</ele>
        <time>2023-06-10T17:07:28.067Z</time>
      </trkpt>
      <trkpt lat="47.22398" lon="0.04356">
        <ele>31.39</ele>
        <time>2023-06-10T17:07:59.525Z</time>
      </trkpt>
      <trkpt lat="47.22398" lon="0.04354">
        <ele>31.42</ele>
        <time>2023-06-10T17:08:30.983Z</time>
      </trkpt>
      <trkpt lat="47.22399" lon="0.0435">
        <ele>31.49</ele>
        <time>2023-06-10T17:09:02.442Z</time>
      </trkpt>
      <trkpt lat="47.22401" lon="0.04344">
        <ele>31.56</ele>
        <time>2023-06-10T17:09:33.901Z</time>
      </trkpt>
      <trkpt lat="47.22402" lon="0.04338">
        <ele>31.61</ele>
        <time>2023-06-10T17:10:05.361Z</time>
      </trkpt>
      <trkpt lat="47.22404" lon="0.04331">
        <ele>31.62</ele>
        <time>2023-06-10T17:10:36.822Z</time>
      </trkpt>
      <trkpt lat="47.22409" lon="0.04313">
        <ele>31.61</ele>
        <time>2023-06-10T17:11:08.285Z</time>
      </trkpt>
      <trkpt lat="47.22412" lon="0.04301">
        <ele>31.63</ele>
        <time>2023-06-10T17:11:39.749Z</time>
      </trkpt>
      <trkpt lat="47.22415" lon="0.04288">
        <ele>31.7</ele>
        <time>2023-06-10T17:12:11.215Z</time>
      </trkpt>
      <trkpt lat="47.22418" lon="0.04276">
        <ele>31.79</ele>
        <time>2023-06-10T17:12:42.682Z</time>
      </trkpt>
      <trkpt lat="47.22424" lon="0.04266">
        <ele>31.9</ele>
        <time>2023-06-10T17:13:14.151Z</time>
      </trkpt>
      <trkpt lat="47.22428" lon="0.04259">
        <ele>31.94</ele>
        <time>2023-06-10T17:13:45.621Z</time>
      </trkpt>
      <trkpt lat="47.2243" lon="0.04256">
        <ele>31.97</ele>
        <time>2023-06-10T17:14:17.091Z</time>
      </trkpt>
      <trkpt lat="47.2244" lon="0.04244">
        <ele>31.97</ele>
        <time>2023-06-10T17:14:48.563Z</time>
      </trkpt>
      <trkpt lat="47.22451" lon="0.04231">
        <ele>31.9</ele>
        <time>2023-06-10T17:15:20.037Z</time>
      </trkpt>
      <trkpt lat="47.22454" lon="0.04226">
        <ele>31.89</ele>
        <time>2023-06-10T17:15:51.512Z</time>
      </trkpt>
      <trkpt lat="47.2247" lon="0.04201">
        <ele>31.74</ele>
        <time>2023-06-10T17:16:22.991Z</time>
      </trkpt>
      <trkpt lat="47.22472" lon="0.04197">
        <ele>31.73</ele>
        <time>2023-06-10T17:16:54.470Z</time>
      </trkpt>
      <trkpt lat="47.2249" lon="0.0416">
        <ele>31.68</ele>
        <time>2023-06-10T17:17:25.955Z</time>
      </trkpt>
      <trkpt lat="47.22506" lon="0.04128">
        <ele>31.55</ele>
        <time>2023-06-10T17:17:57.444Z</time>
      </trkpt>
      <trkpt lat="47.22507" lon="0.04126">
        <ele>31.53</ele>
        <time>2023-06-10T17:18:28.933Z</time>
      </trkpt>
      <trkpt lat="47.22512" lon="0.04117">
        <ele>31.47</ele>
        <time>2023-06-10T17:19:00.423Z</time>
      </trkpt>
      <trkpt lat="47.22538" lon="0.04072">
        <ele>30.98</ele>
        <time>2023-06-10T17:19:31.920Z</time>
      </trkpt>
      <trkpt lat="47.22544" lon="0.04062">
        <ele>30.92</ele>
        <time>2023-06-10T17:20:03.418Z</time>
      </trkpt>
      <trkpt lat="47.2255" lon="0.04052">
        <ele>30.9</ele>
        <time>2023-06-10T17:20:34.918Z</time>
      </trkpt>
      <trkpt lat="47.22555" lon="0.04043">
        <ele>30.96</ele>
        <time>2023-06-10T17:21:06.419Z</time>
      </trkpt>
      <trkpt lat="47.22557" lon="0.04038">
        <ele>31</ele>
        <time>2023-06-10T17:21:37.921Z</time>
      </trkpt>
      <trkpt lat="47.2256" lon="0.04026">
        <ele>31.18</ele>
        <time>2023-06-10T17:22:09.424Z</time>
      </trkpt>
      <trkpt lat="47.22566" lon="0.04008">
        <ele>31.4</ele>
        <time>2023-06-10T17:22:40.929Z</time>
      </trkpt>
      <trkpt lat="47.2257" lon="0.03996">
        <ele>31.5</ele>
        <time>2023-06-10T17:23:12.436Z</time>
      </trkpt>
      <trkpt lat="47.22571" lon="0.03991">
        <ele>31.51</ele>
        <time>2023-06-10T17:23:43.943Z</time>
      </trkpt>
      <trkpt lat="47.22574" lon="0.03985">
        <ele>31.55</ele>
        <time>2023-06-10T17:24:15.451Z</time>
      </trkpt>
      <trkpt lat="47.22586" lon="0.03962">
        <ele>31.57</ele>
        <time>2023-06-10T17:24:46.962Z</time>
      </trkpt>
      <trkpt lat="47.22594" lon="0.0394">
        <ele>31.6</ele>
        <time>2023-06-10T17:25:18.476Z</time>
      </trkpt>
      <trkpt lat="47.22604" lon="0.03914">
        <ele>31.53</ele>
        <time>2023-06-10T17:25:49.993Z</time>
      </trkpt>
      <trkpt lat="47.22609" lon="0.03893">
        <ele>31.49</ele>
        <time>2023-06-10T17:26:21.513Z</time>
      </trkpt>
      <trkpt lat="47.22612" lon="0.0388">
        <ele>31.43</ele>
        <time>2023-06-10T17:26:53.034Z</time>
      </trkpt>
      <trkpt lat="47.22615" lon="0.03867">
        <ele>31.31</ele>
        <time>2023-06-10T17:27:24.556Z</time>
      </trkpt>
      <trkpt lat="47.22616" lon="0.03861">
        <ele>31.22</ele>
        <time>2023-06-10T17:27:56.079Z</time>
      </trkpt>
      <trkpt lat="47.22617" lon="0.03857">
        <ele>31.15</ele>
        <time>2023-06-10T17:28:27.603Z</time>
      </trkpt>
      <trkpt lat="47.22623" lon="0.03837">
        <ele>30.8</ele>
        <time>2023-06-10T17:28:59.129Z</time>
      </trkpt>
      <trkpt lat="47.22627" lon="0.03825">
        <ele>30.63</ele>
        <time>2023-06-10T17:29:30.657Z</time>
      </trkpt>
      <trkpt lat="47.2263" lon="0.03813">
        <ele>30.52</ele>
        <time>2023-06-10T17:30:02.186Z</time>
      </trkpt>
      <trkpt lat="47.22632" lon="0.03807">
        <ele>30.47</ele>
        <time>2023-06-10T17:30:33.716Z</time>
      </trkpt>
      <trkpt lat="47.22637" lon="0.03788">
        <ele>30.34</ele>
        <time>2023-06-10T17:31:05.248Z</time>
      </trkpt>
      <trkpt lat="47.22646" lon="0.03751">
        <ele>30.13</ele>
        <time>2023-06-10T17:31:36.784Z</time>
      </trkpt>
      <trkpt lat="47.22652" lon="0.03726">
        <ele>30.02</ele>
        <time>2023-06-10T17:32:08.323Z</time>
      </trkpt>
      <trkpt lat="47.22653" lon="0.03721">
        <ele>30</ele>
        <time>2023-06-10T17:32:39.863Z</time>
      </trkpt>
      <trkpt lat="47.22656" lon="0.03707">
        <ele>29.96</ele>
        <time>2023-06-10T17:33:11.404Z</time>
      </trkpt>
      <trkpt lat="47.22659" lon="0.03694">
        <ele>29.95</ele>
        <time>2023-06-10T17:33:42.947Z</time>
      </trkpt>
      <trkpt lat="47.22662" lon="0.03675">
        <ele>29.96</ele>
        <time>2023-06-10T17:34:14.492Z</time>
      </trkpt>
      <trkpt lat="47.2267" lon="0.03637">
        <ele>30.03</ele>
        <time>2023-06-10T17:34:46.041Z</time>
      </trkpt>
      <trkpt lat="47.22674" lon="0.03618">
        <ele>29.97</ele>
        <time>2023-06-10T17:35:17.592Z</time>
      </trkpt>
      <trkpt lat="47.22675" lon="0.03613">
        <ele>29.92</ele>
        <time>2023-06-10T17:35:49.144Z</time>
      </trkpt>
      <trkpt lat="47.22678" lon="0.03606">
        <ele>29.85</ele>
        <time>2023-06-10T17:36:20.697Z</time>
      </trkpt>
      <trkpt lat="47.22686" lon="0.03582">
        <ele>29.52</ele>
        <time>2023-06-10T17:36:52.253Z</time>
      </trkpt>
      <trkpt lat="47.22692" lon="0.03564">
        <ele>29.32</ele>
        <time>2023-06-10T17:37:23.811Z</time>
      </trkpt>
      <trkpt lat="47.22696" lon="0.03553">
        <ele>29.21</ele>
        <time>2023-06-10T17:37:55.370Z</time>
      </trkpt>
      <trkpt lat="47.22702" lon="0.03535">
        <ele>29.09</ele>
        <time>2023-06-10T17:38:26.931Z</time>
      </trkpt>
      <trkpt lat="47.22708" lon="0.03517">
        <ele>29.03</ele>
        <time>2023-06-10T17:38:58.495Z</time>
      </trkpt>
      <trkpt lat="47.22714" lon="0.035">
        <ele>29.04</ele>
        <time>2023-06-10T17:39:30.061Z</time>
      </trkpt>
      <trkpt lat="47.22718" lon="0.03488">
        <ele>29.08</ele>
        <time>2023-06-10T17:40:01.628Z</time>
      </trkpt>
      <trkpt lat="47.22726" lon="0.03464">
        <ele>29.22</ele>
        <time>2023-06-10T17:40:33.198Z</time>
      </trkpt>
      <trkpt lat="47.2273" lon="0.03452">
        <ele>29.25</ele>
        <time>2023-06-10T17:41:04.770Z</time>
      </trkpt>
      <trkpt lat="47.22734" lon="0.0344">
        <ele>29.22</ele>
        <time>2023-06-10T17:41:36.343Z</time>
      </trkpt>
      <trkpt lat="47.22738" lon="0.0343">
        <ele>29.17</ele>
        <time>2023-06-10T17:42:07.917Z</time>
      </trkpt>
      <trkpt lat="47.22749" lon="0.03407">
        <ele>29.07</ele>
        <time>2023-06-10T17:42:39.494Z</time>
      </trkpt>
      <trkpt lat="47.22766" lon="0.03368">
        <ele>29.07</ele>
        <time>2023-06-10T17:43:11.076Z</time>
      </trkpt>
      <trkpt lat="47.22768" lon="0.03364">
        <ele>29.09</ele>
        <time>2023-06-10T17:43:42.659Z</time>
      </trkpt>
      <trkpt lat="47.22774" lon="0.03352">
        <ele>29.18</ele>
        <time>2023-06-10T17:44:14.243Z</time>
      </trkpt>
      <trkpt lat="47.22777" lon="0.03347">
        <ele>29.24</ele>
        <time>2023-06-10T17:44:45.828Z</time>
      </trkpt>
      <trkpt lat="47.2279" lon="0.0332">
        <ele>29.66</ele>
        <time>2023-06-10T17:45:17.417Z</time>
      </trkpt>
      <trkpt lat="47.22804" lon="0.03294">
        <ele>30.03</ele>
        <time>2023-06-10T17:45:49.009Z</time>
      </trkpt>
      <trkpt lat="47.22806" lon="0.03289">
        <ele>30.09</ele>
        <time>2023-06-10T17:46:20.602Z</time>
      </trkpt>
      <trkpt lat="47.22816" lon="0.03275">
        <ele>30.31</ele>
        <time>2023-06-10T17:46:52.197Z</time>
      </trkpt>
      <trkpt lat="47.22829" lon="0.03257">
        <ele>30.55</ele>
        <time>2023-06-10T17:47:23.795Z</time>
      </trkpt>
      <trkpt lat="47.22834" lon="0.0325">
        <ele>30.66</ele>
        <time>2023-06-10T17:47:55.394Z</time>
      </trkpt>
      <trkpt lat="47.22844" lon="0.03244">
        <ele>30.86</ele>
        <time>2023-06-10T17:48:26.995Z</time>
      </trkpt>
      <trkpt lat="47.22853" lon="0.03239">
        <ele>30.98</ele>
        <time>2023-06-10T17:48:58.597Z</time>
      </trkpt>
      <trkpt lat="47.22857" lon="0.03236">
        <ele>31.02</ele>
        <time>2023-06-10T17:49:30.200Z</time>
      </trkpt>
      <trkpt lat="47.22864" lon="0.03232">
        <ele>31.05</ele>
        <time>2023-06-10T17:50:01.804Z</time>
      </trkpt>
      <trkpt lat="47.22865" lon="0.03231">
        <ele>31.06</ele>
        <time>2023-06-10T17:50:33.409Z</time>
      </trkpt>
      <trkpt lat="47.22886" lon="0.03216">
        <ele>31.1</ele>
        <time>2023-06-10T17:51:05.017Z</time>
      </trkpt>
      <trkpt lat="47.22886" lon="0.03216">
        <ele>31.1</ele>
        <time>2023-06-10T17:51:36.625Z</time>
      </trkpt>
      <trkpt lat="47.22895" lon="0.03198">
        <ele>31.14</ele>
        <time>2023-06-10T17:52:08.236Z</time>
      </trkpt>
      <trkpt lat="47.22897" lon="0.03184">
        <ele>31.17</ele>
        <time>2023-06-10T17:52:39.848Z</time>
      </trkpt>
      <trkpt lat="47.22902" lon="0.03171">
        <ele>31.2</ele>
        <time>2023-06-10T17:53:11.462Z</time>
      </trkpt>
      <trkpt lat="47.22904" lon="0.03166">
        <ele>31.03</ele>
        <time>2023-06-10T17:53:43.077Z</time>
      </trkpt>
      <trkpt lat="47.22905" lon="0.03165">
        <ele>30.99</ele>
        <time>2023-06-10T17:54:14.692Z</time>
      </trkpt>
      <trkpt lat="47.22911" lon="0.03155">
        <ele>30.84</ele>
        <time>2023-06-10T17:54:46.308Z</time>
      </trkpt>
      <trkpt lat="47.22919" lon="0.03131">
        <ele>30.57</ele>
        <time>2023-06-10T17:55:17.927Z</time>
      </trkpt>
      <trkpt lat="47.2292" lon="0.03127">
        <ele>30.53</ele>
        <time>2023-06-10T17:55:49.547Z</time>
      </trkpt>
      <trkpt lat="47.22925" lon="0.0313">
        <ele>30.47</ele>
        <time>2023-06-10T17:56:21.168Z</time>
      </trkpt>
      <trkpt lat="47.22929" lon="0.03118">
        <ele>30.37</ele>
        <time>2023-06-10T17:56:52.790Z</time>
      </trkpt>
      <trkpt lat="47.22934" lon="0.03106">
        <ele>30.31</ele>
        <time>2023-06-10T17:57:24.413Z</time>
      </trkpt>
      <trkpt lat="47.22936" lon="0.03101">
        <ele>30.3</ele>
        <time>2023-06-10T17:57:56.037Z</time>
      </trkpt>
      <trkpt lat="47.22938" lon="0.03095">
        <ele>30.31</ele>
        <time>2023-06-10T17:58:27.662Z</time>
      </trkpt>
      <trkpt lat="47.2294" lon="0.03089">
        <ele>30.34</ele>
        <time>2023-06-10T17:58:59.288Z</time>
      </trkpt>
      <trkpt lat="47.22945" lon="0.03074">
        <ele>30.43</ele>
        <time>2023-06-10T17:59:30.915Z</time>
      </trkpt>
      <trkpt lat="47.22947" lon="0.03065">
        <ele>30.5</ele>
        <time>2023-06-10T18:00:02.543Z</time>
      </trkpt>
      <trkpt lat="47.22957" lon="0.03021">
        <ele>30.57</ele>
        <time>2023-06-10T18:00:34.177Z</time>
      </trkpt>
      <trkpt lat="47.22963" lon="0.02995">
        <ele>30.68</ele>
        <time>2023-06-10T18:01:05.813Z</time>
      </trkpt>
      <trkpt lat="47.22965" lon="0.0299">
        <ele>30.71</ele>
        <time>2023-06-10T18:01:37.450Z</time>
      </trkpt>
      <trkpt lat="47.22968" lon="0.02977">
        <ele>30.71</ele>
        <time>2023-06-10T18:02:09.089Z</time>
      </trkpt>
      <trkpt lat="47.2297" lon="0.02971">
        <ele>30.69</ele>
        <time>2023-06-10T18:02:40.728Z</time>
      </trkpt>
      <trkpt lat="47.22973" lon="0.02959">
        <ele>30.6</ele>
        <time>2023-06-10T18:03:12.369Z</time>
      </trkpt>
      <trkpt lat="47.22982" lon="0.02929">
        <ele>30.26</ele>
        <time>2023-06-10T18:03:44.013Z</time>
      </trkpt>
      <trkpt lat="47.22987" lon="0.02911">
        <ele>30.09</ele>
        <time>2023-06-10T18:04:15.659Z</time>
      </trkpt>
      <trkpt lat="47.22988" lon="0.02908">
        <ele>30.07</ele>
        <time>2023-06-10T18:04:47.306Z</time>
      </trkpt>
      <trkpt lat="47.22989" lon="0.02898">
        <ele>30.01</ele>
        <time>2023-06-10T18:05:18.954Z</time>
      </trkpt>
      <trkpt lat="47.22989" lon="0.02892">
        <ele>29.98</ele>
        <time>2023-06-10T18:05:50.603Z</time>
      </trkpt>
      <trkpt lat="47.22986" lon="0.02876">
        <ele>29.9</ele>
        <time>2023-06-10T18:06:22.253Z</time>
      </trkpt>
      <trkpt lat="47.22983" lon="0.02866">
        <ele>29.85</ele>
        <time>2023-06-10T18:06:53.905Z</time>
      </trkpt>
      <trkpt lat="47.22979" lon="0.02855">
        <ele>29.85</ele>
        <time>2023-06-10T18:07:25.558Z</time>
      </trkpt>
      <trkpt lat="47.22977" lon="0.02849">
        <ele>29.88</ele>
        <time>2023-06-10T18:07:57.212Z</time>
      </trkpt>
      <trkpt lat="47.2297" lon="0.02828">
        <ele>30.03</ele>
        <time>2023-06-10T18:08:28.868Z</time>
      </trkpt>
      <trkpt lat="47.2297" lon="0.02825">
        <ele>30.06</ele>
        <time>2023-06-10T18:09:00.525Z</time>
      </trkpt>
      <trkpt lat="47.22969" lon="0.02815">
        <ele>30.07</ele>
        <time>2023-06-10T18:09:32.183Z</time>
      </trkpt>
      <trkpt lat="47.22969" lon="0.02812">
        <ele>30.08</ele>
        <time>2023-06-10T18:10:03.841Z</time>
      </trkpt>
      <trkpt lat="47.2297" lon="0.02805">
        <ele>30.06</ele>
        <time>2023-06-10T18:10:35.500Z</time>
      </trkpt>
      <trkpt lat="47.22972" lon="0.0279">
        <ele>29.96</ele>
        <time>2023-06-10T18:11:07.160Z</time>
      </trkpt>
      <trkpt lat="47.22977" lon="0.02782">
        <ele>29.9</ele>
        <time>2023-06-10T18:11:38.822Z</time>
      </trkpt>
      <trkpt lat="47.22995" lon="0.02753">
        <ele>29.84</ele>
        <time>2023-06-10T18:12:10.488Z</time>
      </trkpt>
      <trkpt lat="47.23008" lon="0.02733">
        <ele>29.73</ele>
        <time>2023-06-10T18:12:42.157Z</time>
      </trkpt>
      <trkpt lat="47.23011" lon="0.02721">
        <ele>29.69</ele>
        <time>2023-06-10T18:13:13.827Z</time>
      </trkpt>
      <trkpt lat="47.23015" lon="0.02706">
        <ele>29.65</ele>
        <time>2023-06-10T18:13:45.499Z</time>
      </trkpt>
      <trkpt lat="47.23017" lon="0.02676">
        <ele>29.6</ele>
        <time>2023-06-10T18:14:17.174Z</time>
      </trkpt>
      <trkpt lat="47.23018" lon="0.02651">
        <ele>29.48</ele>
        <time>2023-06-10T18:14:48.852Z</time>
      </trkpt>
      <trkpt lat="47.23022" lon="0.02631">
        <ele>29.39</ele>
        <time>2023-06-10T18:15:20.532Z</time>
      </trkpt>
      <trkpt lat="47.23023" lon="0.02625">
        <ele>29.39</ele>
        <time>2023-06-10T18:15:52.213Z</time>
      </trkpt>
      <trkpt lat="47.23024" lon="0.02619">
        <ele>29.42</ele>
        <time>2023-06-10T18:16:23.895Z</time>
      </trkpt>
      <trkpt lat="47.23028" lon="0.02599">
        <ele>29.59</ele>
        <time>2023-06-10T18:16:55.579Z</time>
      </trkpt>
      <trkpt lat="47.23029" lon="0.02593">
        <ele>29.62</ele>
        <time>2023-06-10T18:17:27.264Z</time>
      </trkpt>
      <trkpt lat="47.23032" lon="0.0258">
        <ele>29.62</ele>
        <time>2023-06-10T18:17:58.950Z</time>
      </trkpt>
      <trkpt lat="47.23032" lon="0.0258">
        <ele>29.62</ele>
        <time>2023-06-10T18:18:30.636Z</time>
      </trkpt>
      <trkpt lat="47.23034" lon="0.02561">
        <ele>29.53</ele>
        <time>2023-06-10T18:19:02.324Z</time>
      </trkpt>
      <trkpt lat="47.23035" lon="0.02548">
        <ele>29.55</ele>
        <time>2023-06-10T18:19:34.014Z</time>
      </trkpt>
      <trkpt lat="47.23036" lon="0.02541">
        <ele>29.58</ele>
        <time>2023-06-10T18:20:05.704Z</time>
      </trkpt>
      <trkpt lat="47.23036" lon="0.02537">
        <ele>29.6</ele>
        <time>2023-06-10T18:20:37.395Z</time>
      </trkpt>
      <trkpt lat="47.23048" lon="0.02509">
        <ele>29.81</ele>
        <time>2023-06-10T18:21:09.089Z</time>
      </trkpt>
      <trkpt lat="47.23055" lon="0.02483">
        <ele>30</ele>
        <time>2023-06-10T18:21:40.787Z</time>
      </trkpt>
      <trkpt lat="47.23057" lon="0.02477">
        <ele>30.01</ele>
        <time>2023-06-10T18:22:12.485Z</time>
      </trkpt>
      <trkpt lat="47.2306" lon="0.02464">
        <ele>30.06</ele>
        <time>2023-06-10T18:22:44.185Z</time>
      </trkpt>
      <trkpt lat="47.23063" lon="0.02445">
        <ele>30.02</ele>
        <time>2023-06-10T18:23:15.887Z</time>
      </trkpt>
      <trkpt lat="47.23067" lon="0.02426">
        <ele>29.89</ele>
        <time>2023-06-10T18:23:47.591Z</time>
      </trkpt>
      <trkpt lat="47.23069" lon="0.02413">
        <ele>29.83</ele>
        <time>2023-06-10T18:24:19.296Z</time>
      </trkpt>
      <trkpt lat="47.23071" lon="0.02405">
        <ele>29.82</ele>
        <time>2023-06-10T18:24:51.002Z</time>
      </trkpt>
      <trkpt lat="47.23067" lon="0.02377">
        <ele>29.78</ele>
        <time>2023-06-10T18:25:22.711Z</time>
      </trkpt>
      <trkpt lat="47.2307" lon="0.02364">
        <ele>29.77</ele>
        <time>2023-06-10T18:25:54.422Z</time>
      </trkpt>
      <trkpt lat="47.23071" lon="0.02362">
        <ele>29.77</ele>
        <time>2023-06-10T18:26:26.133Z</time>
      </trkpt>
      <trkpt lat="47.23084" lon="0.02336">
        <ele>29.64</ele>
        <time>2023-06-10T18:26:57.848Z</time>
      </trkpt>
      <trkpt lat="47.23085" lon="0.02334">
        <ele>29.63</ele>
        <time>2023-06-10T18:27:29.563Z</time>
      </trkpt>
      <trkpt lat="47.23088" lon="0.02325">
        <ele>29.61</ele>
        <time>2023-06-10T18:28:01.279Z</time>
      </trkpt>
      <trkpt lat="47.23088" lon="0.02324">
        <ele>29.61</ele>
        <time>2023-06-10T18:28:32.995Z</time>
      </trkpt>
      <trkpt lat="47.23093" lon="0.02279">
        <ele>29.6</ele>
        <time>2023-06-10T18:29:04.716Z</time>
      </trkpt>
      <trkpt lat="47.23095" lon="0.02259">
        <ele>29.49</ele>
        <time>2023-06-10T18:29:36.439Z</time>
      </trkpt>
      <trkpt lat="47.23096" lon="0.02252">
        <ele>29.47</ele>
        <time>2023-06-10T18:30:08.163Z</time>
      </trkpt>
      <trkpt lat="47.23097" lon="0.02243">
        <ele>29.49</ele>
        <time>2023-06-10T18:30:39.888Z</time>
      </trkpt>
      <trkpt lat="47.23101" lon="0.02228">
        <ele>29.54</ele>
        <time>2023-06-10T18:31:11.615Z</time>
      </trkpt>
      <trkpt lat="47.2311" lon="0.02197">
        <ele>29.5</ele>
        <time>2023-06-10T18:31:43.346Z</time>
      </trkpt>
      <trkpt lat="47.23116" lon="0.02178">
        <ele>29.44</ele>
        <time>2023-06-10T18:32:15.079Z</time>
      </trkpt>
      <trkpt lat="47.23115" lon="0.02148">
        <ele>29.37</ele>
        <time>2023-06-10T18:32:46.815Z</time>
      </trkpt>
      <trkpt lat="47.23115" lon="0.02146">
        <ele>29.37</ele>
        <time>2023-06-10T18:33:18.551Z</time>
      </trkpt>
      <trkpt lat="47.2312" lon="0.02114">
        <ele>29.18</ele>
        <time>2023-06-10T18:33:50.291Z</time>
      </trkpt>
      <trkpt lat="47.23122" lon="0.02101">
        <ele>29.15</ele>
        <time>2023-06-10T18:34:22.032Z</time>
      </trkpt>
      <trkpt lat="47.23124" lon="0.02089">
        <ele>29.18</ele>
        <time>2023-06-10T18:34:53.775Z</time>
      </trkpt>
      <trkpt lat="47.23124" lon="0.02088">
        <ele>29.18</ele>
        <time>2023-06-10T18:35:25.518Z</time>
      </trkpt>
      <trkpt lat="47.23128" lon="0.02077">
        <ele>29.25</ele>
        <time>2023-06-10T18:35:57.262Z</time>
      </trkpt>
      <trkpt lat="47.23133" lon="0.02064">
        <ele>29.35</ele>
        <time>2023-06-10T18:36:29.008Z</time>
      </trkpt>
      <trkpt lat="47.23133" lon="0.02064">
        <ele>29.35</ele>
        <time>2023-06-10T18:37:00.754Z</time>
      </trkpt>
      <trkpt lat="47.23137" lon="0.02046">
        <ele>29.55</ele>
        <time>2023-06-10T18:37:32.502Z</time>
      </trkpt>
      <trkpt lat="47.23139" lon="0.0204">
        <ele>29.6</ele>
        <time>2023-06-10T18:38:04.251Z</time>
      </trkpt>
      <trkpt lat="47.2314" lon="0.02034">
        <ele>29.63</ele>
        <time>2023-06-10T18:38:36.000Z</time>
      </trkpt>
      <trkpt lat="47.23143" lon="0.02021">
        <ele>29.65</ele>
        <time>2023-06-10T18:39:07.751Z</time>
      </trkpt>
      <trkpt lat="47.23146" lon="0.0201">
        <ele>29.63</ele>
        <time>2023-06-10T18:39:39.503Z</time>
      </trkpt>
      <trkpt lat="47.23146" lon="0.02009">
        <ele>29.63</ele>
        <time>2023-06-10T18:40:11.255Z</time>
      </trkpt>
      <trkpt lat="47.23147" lon="0.01987">
        <ele>29.55</ele>
        <time>2023-06-10T18:40:43.010Z</time>
      </trkpt>
      <trkpt lat="47.23154" lon="0.01965">
        <ele>29.48</ele>
        <time>2023-06-10T18:41:14.767Z</time>
      </trkpt>
      <trkpt lat="47.23157" lon="0.01956">
        <ele>29.45</ele>
        <time>2023-06-10T18:41:46.525Z</time>
      </trkpt>
      <trkpt lat="47.2316" lon="0.0194">
        <ele>29.42</ele>
        <time>2023-06-10T18:42:18.285Z</time>
      </trkpt>
      <trkpt lat="47.23162" lon="0.0193">
        <ele>29.41</ele>
        <time>2023-06-10T18:42:50.046Z</time>
      </trkpt>
      <trkpt lat="47.23159" lon="0.01908">
        <ele>29.39</ele>
        <time>2023-06-10T18:43:21.810Z</time>
      </trkpt>
      <trkpt lat="47.23156" lon="0.01889">
        <ele>29.33</ele>
        <time>2023-06-10T18:43:53.576Z</time>
      </trkpt>
      <trkpt lat="47.2315" lon="0.01871">
        <ele>29.27</ele>
        <time>2023-06-10T18:44:25.344Z</time>
      </trkpt>
      <trkpt lat="47.23145" lon="0.01857">
        <ele>29.26</ele>
        <time>2023-06-10T18:44:57.114Z</time>
      </trkpt>
      <trkpt lat="47.23141" lon="0.0184">
        <ele>29.25</ele>
        <time>2023-06-10T18:45:28.886Z</time>
      </trkpt>
      <trkpt lat="47.23135" lon="0.01815">
        <ele>29.28</ele>
        <time>2023-06-10T18:46:00.661Z</time>
      </trkpt>
      <trkpt lat="47.23135" lon="0.01815">
        <ele>31.62</ele>
        <time>2023-06-10T18:46:32.436Z</time>
      </trkpt>
      <trkpt lat="47.23135" lon="0.01814">
        <ele>29.29</ele>
        <time>2023-06-10T18:47:04.211Z</time>
      </trkpt>
      <trkpt lat="47.23128" lon="0.018">
        <ele>29.48</ele>
        <time>2023-06-10T18:47:35.988Z</time>
      </trkpt>
      <trkpt lat="47.2312" lon="0.01795">
        <ele>29.61</ele>
        <time>2023-06-10T18:48:07.766Z</time>
      </trkpt>
      <trkpt lat="47.23109" lon="0.01792">
        <ele>29.79</ele>
        <time>2023-06-10T18:48:39.546Z</time>
      </trkpt>
      <trkpt lat="47.23107" lon="0.01791">
        <ele>29.75</ele>
        <time>2023-06-10T18:49:11.326Z</time>
      </trkpt>
      <trkpt lat="47.2312" lon="0.01778">
        <ele>29.55</ele>
        <time>2023-06-10T18:49:43.109Z</time>
      </trkpt>
      <trkpt lat="47.23127" lon="0.01771">
        <ele>29.45</ele>
        <time>2023-06-10T18:50:14.893Z</time>
      </trkpt>
      <trkpt lat="47.23142" lon="0.0177">
        <ele>29.29</ele>
        <time>2023-06-10T18:50:46.679Z</time>
      </trkpt>
      <trkpt lat="47.23149" lon="0.01766">
        <ele>29.21</ele>
        <time>2023-06-10T18:51:18.467Z</time>
      </trkpt>
      <trkpt lat="47.23171" lon="0.01756">
        <ele>29.03</ele>
        <time>2023-06-10T18:51:50.258Z</time>
      </trkpt>
      <trkpt lat="47.23171" lon="0.01756">
        <ele>29.03</ele>
        <time>2023-06-10T18:52:22.049Z</time>
      </trkpt>
      <trkpt lat="47.23176" lon="0.01745">
        <ele>28.99</ele>
        <time>2023-06-10T18:52:53.842Z</time>
      </trkpt>
      <trkpt lat="47.23177" lon="0.01743">
        <ele>28.98</ele>
        <time>2023-06-10T18:53:25.635Z</time>
      </trkpt>
      <trkpt lat="47.23179" lon="0.0174">
        <ele>28.98</ele>
        <time>2023-06-10T18:53:57.428Z</time>
      </trkpt>
      <trkpt lat="47.23185" lon="0.01731">
        <ele>29.01</ele>
        <time>2023-06-10T18:54:29.223Z</time>
      </trkpt>
      <trkpt lat="47.23203" lon="0.01704">
        <ele>29.18</ele>
        <time>2023-06-10T18:55:01.022Z</time>
      </trkpt>
      <trkpt lat="47.23205" lon="0.01696">
        <ele>29.22</ele>
        <time>2023-06-10T18:55:32.822Z</time>
      </trkpt>
      <trkpt lat="47.23209" lon="0.01679">
        <ele>29.25</ele>
        <time>2023-06-10T18:56:04.624Z</time>
      </trkpt>
      <trkpt lat="47.2321" lon="0.01671">
        <ele>29.27</ele>
        <time>2023-06-10T18:56:36.427Z</time>
      </trkpt>
      <trkpt lat="47.23214" lon="0.01652">
        <ele>29.25</ele>
        <time>2023-06-10T18:57:08.232Z</time>
      </trkpt>
      <trkpt lat="47.23221" lon="0.01611">
        <ele>29.13</ele>
        <time>2023-06-10T18:57:40.042Z</time>
      </trkpt>
      <trkpt lat="47.23225" lon="0.01602">
        <ele>29.1</ele>
        <time>2023-06-10T18:58:11.853Z</time>
      </trkpt>
      <trkpt lat="47.23233" lon="0.01581">
        <ele>29.07</ele>
        <time>2023-06-10T18:58:43.666Z</time>
      </trkpt>
      <trkpt lat="47.23243" lon="0.01565">
        <ele>29.06</ele>
        <time>2023-06-10T18:59:15.482Z</time>
      </trkpt>
      <trkpt lat="47.23254" lon="0.01548">
        <ele>29.09</ele>
        <time>2023-06-10T18:59:47.300Z</time>
      </trkpt>
      <trkpt lat="47.23264" lon="0.01508">
        <ele>29.15</ele>
        <time>2023-06-10T19:00:19.123Z</time>
      </trkpt>
      <trkpt lat="47.23268" lon="0.01489">
        <ele>29.03</ele>
        <time>2023-06-10T19:00:50.948Z</time>
      </trkpt>
      <trkpt lat="47.23275" lon="0.0146">
        <ele>28.88</ele>
        <time>2023-06-10T19:01:22.776Z</time>
      </trkpt>
      <trkpt lat="47.23267" lon="0.01452">
        <ele>28.82</ele>
        <time>2023-06-10T19:01:54.606Z</time>
      </trkpt>
      <trkpt lat="47.23256" lon="0.01442">
        <ele>28.79</ele>
        <time>2023-06-10T19:02:26.438Z</time>
      </trkpt>
      <trkpt lat="47.2325" lon="0.01431">
        <ele>28.78</ele>
        <time>2023-06-10T19:02:58.272Z</time>
      </trkpt>
      <trkpt lat="47.23244" lon="0.01422">
        <ele>28.73</ele>
        <time>2023-06-10T19:03:30.107Z</time>
      </trkpt>
      <trkpt lat="47.23244" lon="0.01422">
        <ele>28.73</ele>
        <time>2023-06-10T19:04:01.942Z</time>
      </trkpt>
      <trkpt lat="47.23228" lon="0.01411">
        <ele>28.54</ele>
        <time>2023-06-10T19:04:33.780Z</time>
      </trkpt>
      <trkpt lat="47.23224" lon="0.01408">
        <ele>28.48</ele>
        <time>2023-06-10T19:05:05.618Z</time>
      </trkpt>
      <trkpt lat="47.23214" lon="0.01397">
        <ele>28.31</ele>
        <time>2023-06-10T19:05:37.458Z</time>
      </trkpt>
      <trkpt lat="47.23214" lon="0.01395">
        <ele>28.3</ele>
        <time>2023-06-10T19:06:09.299Z</time>
      </trkpt>
      <trkpt lat="47.23212" lon="0.01364">
        <ele>28.12</ele>
        <time>2023-06-10T19:06:41.143Z</time>
      </trkpt>
      <trkpt lat="47.23212" lon="0.01363">
        <ele>28.12</ele>
        <time>2023-06-10T19:07:12.987Z</time>
      </trkpt>
      <trkpt lat="47.2321" lon="0.01354">
        <ele>28.04</ele>
        <time>2023-06-10T19:07:44.832Z</time>
      </trkpt>
      <trkpt lat="47.23198" lon="0.01339">
        <ele>27.84</ele>
        <time>2023-06-10T19:08:16.680Z</time>
      </trkpt>
      <trkpt lat="47.23183" lon="0.01321">
        <ele>27.77</ele>
        <time>2023-06-10T19:08:48.531Z</time>
      </trkpt>
      <trkpt lat="47.23178" lon="0.01305">
        <ele>27.73</ele>
        <time>2023-06-10T19:09:20.384Z</time>
      </trkpt>
      <trkpt lat="47.23178" lon="0.01305">
        <ele>27.73</ele>
        <time>2023-06-10T19:09:52.237Z</time>
      </trkpt>
      <trkpt lat="47.23177" lon="0.01286">
        <ele>27.99</ele>
        <time>2023-06-10T19:10:24.092Z</time>
      </trkpt>
      <trkpt lat="47.23176" lon="0.01256">
        <ele>28.54</ele>
        <time>2023-06-10T19:10:55.950Z</time>
      </trkpt>
      <trkpt lat="47.23173" lon="0.01249">
        <ele>28.7</ele>
        <time>2023-06-10T19:11:27.809Z</time>
      </trkpt>
      <trkpt lat="47.23172" lon="0.01245">
        <ele>28.79</ele>
        <time>2023-06-10T19:11:59.668Z</time>
      </trkpt>
      <trkpt lat="47.23171" lon="0.01243">
        <ele>28.85</ele>
        <time>2023-06-10T19:12:31.528Z</time>
      </trkpt>
      <trkpt lat="47.23168" lon="0.01239">
        <ele>29.02</ele>
        <time>2023-06-10T19:13:03.388Z</time>
      </trkpt>
      <trkpt lat="47.23165" lon="0.01235">
        <ele>29.22</ele>
        <time>2023-06-10T19:13:35.249Z</time>
      </trkpt>
      <trkpt lat="47.23162" lon="0.0123">
        <ele>29.46</ele>
        <time>2023-06-10T19:14:07.111Z</time>
      </trkpt>
      <trkpt lat="47.23159" lon="0.01226">
        <ele>29.73</ele>
        <time>2023-06-10T19:14:38.974Z</time>
      </trkpt>
      <trkpt lat="47.23155" lon="0.01221">
        <ele>30.04</ele>
        <time>2023-06-10T19:15:10.837Z</time>
      </trkpt>
      <trkpt lat="47.23152" lon="0.01217">
        <ele>30.38</ele>
        <time>2023-06-10T19:15:42.701Z</time>
      </trkpt>
      <trkpt lat="47.23149" lon="0.01212">
        <ele>30.76</ele>
        <time>2023-06-10T19:16:14.566Z</time>
      </trkpt>
      <trkpt lat="47.23133" lon="0.01189">
        <ele>32.84</ele>
        <time>2023-06-10T19:16:46.434Z</time>
      </trkpt>
      <trkpt lat="47.23127" lon="0.01183">
        <ele>33.56</ele>
        <time>2023-06-10T19:17:18.303Z</time>
      </trkpt>
      <trkpt lat="47.23109" lon="0.01166">
        <ele>33.63</ele>
        <time>2023-06-10T19:17:50.176Z</time>
      </trkpt>
      <trkpt lat="47.23102" lon="0.01159">
        <ele>34.68</ele>
        <time>2023-06-10T19:18:22.050Z</time>
      </trkpt>
      <trkpt lat="47.23099" lon="0.01156">
        <ele>34.76</ele>
        <time>2023-06-10T19:18:53.925Z</time>
      </trkpt>
      <trkpt lat="47.23098" lon="0.01159">
        <ele>34.82</ele>
        <time>2023-06-10T19:19:25.800Z</time>
      </trkpt>
      <trkpt lat="47.23096" lon="0.01165">
        <ele>35.31</ele>
        <time>2023-06-10T19:19:57.676Z</time>
      </trkpt>
      <trkpt lat="47.23094" lon="0.01171">
        <ele>35.88</ele>
        <time>2023-06-10T19:20:29.553Z</time>
      </trkpt>
      <trkpt lat="47.23092" lon="0.01177">
        <ele>36.55</ele>
        <time>2023-06-10T19:21:01.430Z</time>
      </trkpt>
      <trkpt lat="47.2309" lon="0.01183">
        <ele>37.34</ele>
        <time>2023-06-10T19:21:33.308Z</time>
      </trkpt>
      <trkpt lat="47.2309" lon="0.01183">
        <ele>37.34</ele>
        <time>2023-06-10T19:22:05.186Z</time>
      </trkpt>
      <trkpt lat="47.23086" lon="0.01181">
        <ele>38.2</ele>
        <time>2023-06-10T19:22:37.065Z</time>
      </trkpt>
      <trkpt lat="47.23082" lon="0.01179">
        <ele>39.05</ele>
        <time>2023-06-10T19:23:08.944Z</time>
      </trkpt>
      <trkpt lat="47.23076" lon="0.01181">
        <ele>40.29</ele>
        <time>2023-06-10T19:23:40.824Z</time>
      </trkpt>
      <trkpt lat="47.23069" lon="0.0117">
        <ele>42.36</ele>
        <time>2023-06-10T19:24:12.706Z</time>
      </trkpt>
      <trkpt lat="47.23069" lon="0.01167">
        <ele>42.72</ele>
        <time>2023-06-10T19:24:44.588Z</time>
      </trkpt>
      <trkpt lat="47.23069" lon="0.01163">
        <ele>43.28</ele>
        <time>2023-06-10T19:25:16.471Z</time>
      </trkpt>
      <trkpt lat="47.23074" lon="0.0115">
        <ele>45.26</ele>
        <time>2023-06-10T19:25:48.355Z</time>
      </trkpt>
      <trkpt lat="47.23079" lon="0.01138">
        <ele>46.85</ele>
        <time>2023-06-10T19:26:20.241Z</time>
      </trkpt>
      <trkpt lat="47.23082" lon="0.01131">
        <ele>47.85</ele>
        <time>2023-06-10T19:26:52.128Z</time>
      </trkpt>
      <trkpt lat="47.23087" lon="0.01108">
        <ele>50.66</ele>
        <time>2023-06-10T19:27:24.017Z</time>
      </trkpt>
      <trkpt lat="47.23089" lon="0.01095">
        <ele>52.12</ele>
        <time>2023-06-10T19:27:55.908Z</time>
      </trkpt>
      <trkpt lat="47.2309" lon="0.01089">
        <ele>52.8</ele>
        <time>2023-06-10T19:28:27.800Z</time>
      </trkpt>
      <trkpt lat="47.23093" lon="0.01076">
        <ele>54.04</ele>
        <time>2023-06-10T19:28:59.693Z</time>
      </trkpt>
      <trkpt lat="47.23096" lon="0.01063">
        <ele>55.19</ele>
        <time>2023-06-10T19:29:31.588Z</time>
      </trkpt>
      <trkpt lat="47.23097" lon="0.01057">
        <ele>55.8</ele>
        <time>2023-06-10T19:30:03.483Z</time>
      </trkpt>
      <trkpt lat="47.23098" lon="0.01051">
        <ele>56.48</ele>
        <time>2023-06-10T19:30:35.379Z</time>
      </trkpt>
      <trkpt lat="47.23099" lon="0.01044">
        <ele>57.22</ele>
        <time>2023-06-10T19:31:07.276Z</time>
      </trkpt>
      <trkpt lat="47.23104" lon="0.01021">
        <ele>60.22</ele>
        <time>2023-06-10T19:31:39.175Z</time>
      </trkpt>
      <trkpt lat="47.23105" lon="0.01019">
        <ele>60.48</ele>
        <time>2023-06-10T19:32:11.075Z</time>
      </trkpt>
      <trkpt lat="47.23109" lon="0.01008">
        <ele>62.04</ele>
        <time>2023-06-10T19:32:42.976Z</time>
      </trkpt>
      <trkpt lat="47.23111" lon="0.01002">
        <ele>62.72</ele>
        <time>2023-06-10T19:33:14.878Z</time>
      </trkpt>
      <trkpt lat="47.23112" lon="0.00995">
        <ele>63.47</ele>
        <time>2023-06-10T19:33:46.780Z</time>
      </trkpt>
      <trkpt lat="47.23115" lon="0.00983">
        <ele>64.84</ele>
        <time>2023-06-10T19:34:18.684Z</time>
      </trkpt>
      <trkpt lat="47.23116" lon="0.00976">
        <ele>64.86</ele>
        <time>2023-06-10T19:34:50.589Z</time>
      </trkpt>
      <trkpt lat="47.23116" lon="0.0095">
        <ele>64.95</ele>
        <time>2023-06-10T19:35:22.496Z</time>
      </trkpt>
      <trkpt lat="47.23112" lon="0.00936">
        <ele>65.01</ele>
        <time>2023-06-10T19:35:54.405Z</time>
      </trkpt>
      <trkpt lat="47.23103" lon="0.00971">
        <ele>65.15</ele>
        <time>2023-06-10T19:36:26.318Z</time>
      </trkpt>
      <trkpt lat="47.23098" lon="0.0099">
        <ele>65.19</ele>
        <time>2023-06-10T19:36:58.233Z</time>
      </trkpt>
      <trkpt lat="47.23095" lon="0.01002">
        <ele>65.16</ele>
        <time>2023-06-10T19:37:30.150Z</time>
      </trkpt>
      <trkpt lat="47.23094" lon="0.01007">
        <ele>65.13</ele>
        <time>2023-06-10T19:38:02.067Z</time>
      </trkpt>
      <trkpt lat="47.2308" lon="0.0105">
        <ele>64.88</ele>
        <time>2023-06-10T19:38:33.990Z</time>
      </trkpt>
      <trkpt lat="47.23073" lon="0.01071">
        <ele>64.78</ele>
        <time>2023-06-10T19:39:05.915Z</time>
      </trkpt>
      <trkpt lat="47.23063" lon="0.01096">
        <ele>64.68</ele>
        <time>2023-06-10T19:39:37.843Z</time>
      </trkpt>
      <trkpt lat="47.23051" lon="0.01123">
        <ele>64.48</ele>
        <time>2023-06-10T19:40:09.775Z</time>
      </trkpt>
      <trkpt lat="47.23046" lon="0.01135">
        <ele>64.36</ele>
        <time>2023-06-10T19:40:41.708Z</time>
      </trkpt>
      <trkpt lat="47.23044" lon="0.0114">
        <ele>64.27</ele>
        <time>2023-06-10T19:41:13.642Z</time>
      </trkpt>
      <trkpt lat="47.23041" lon="0.01146">
        <ele>64.15</ele>
        <time>2023-06-10T19:41:45.577Z</time>
      </trkpt>
      <trkpt lat="47.2304" lon="0.01149">
        <ele>64.06</ele>
        <time>2023-06-10T19:42:17.512Z</time>
      </trkpt>
      <trkpt lat="47.23039" lon="0.01151">
        <ele>64</ele>
        <time>2023-06-10T19:42:49.447Z</time>
      </trkpt>
      <trkpt lat="47.23029" lon="0.01173">
        <ele>63.25</ele>
        <time>2023-06-10T19:43:21.385Z</time>
      </trkpt>
      <trkpt lat="47.23026" lon="0.01179">
        <ele>63.09</ele>
        <time>2023-06-10T19:43:53.324Z</time>
      </trkpt>
      <trkpt lat="47.23024" lon="0.01184">
        <ele>62.97</ele>
        <time>2023-06-10T19:44:25.264Z</time>
      </trkpt>
      <trkpt lat="47.23021" lon="0.0119">
        <ele>62.89</ele>
        <time>2023-06-10T19:44:57.204Z</time>
      </trkpt>
      <trkpt lat="47.23019" lon="0.01195">
        <ele>62.85</ele>
        <time>2023-06-10T19:45:29.145Z</time>
      </trkpt>
      <trkpt lat="47.23016" lon="0.01201">
        <ele>62.85</ele>
        <time>2023-06-10T19:46:01.087Z</time>
      </trkpt>
      <trkpt lat="47.23014" lon="0.01206">
        <ele>62.88</ele>
        <time>2023-06-10T19:46:33.030Z</time>
      </trkpt>
      <trkpt lat="47.23001" lon="0.01233">
        <ele>63.27</ele>
        <time>2023-06-10T19:47:04.976Z</time>
      </trkpt>
      <trkpt lat="47.22996" lon="0.01244">
        <ele>63.36</ele>
        <time>2023-06-10T19:47:36.924Z</time>
      </trkpt>
      <trkpt lat="47.22991" lon="0.01256">
        <ele>63.41</ele>
        <time>2023-06-10T19:48:08.873Z</time>
      </trkpt>
      <trkpt lat="47.2297" lon="0.01277">
        <ele>63.55</ele>
        <time>2023-06-10T19:48:40.826Z</time>
      </trkpt>
      <trkpt lat="47.22953" lon="0.01288">
        <ele>63.66</ele>
        <time>2023-06-10T19:49:12.782Z</time>
      </trkpt>
      <trkpt lat="47.22936" lon="0.01298">
        <ele>63.74</ele>
        <time>2023-06-10T19:49:44.741Z</time>
      </trkpt>
      <trkpt lat="47.22928" lon="0.01303">
        <ele>63.81</ele>
        <time>2023-06-10T19:50:16.702Z</time>
      </trkpt>
      <trkpt lat="47.22923" lon="0.01306">
        <ele>63.86</ele>
        <time>2023-06-10T19:50:48.663Z</time>
      </trkpt>
      <trkpt lat="47.22921" lon="0.0131">
        <ele>63.9</ele>
        <time>2023-06-10T19:51:20.625Z</time>
      </trkpt>
      <trkpt lat="47.22906" lon="0.01334">
        <ele>64.27</ele>
        <time>2023-06-10T19:51:52.591Z</time>
      </trkpt>
      <trkpt lat="47.22885" lon="0.01368">
        <ele>64.91</ele>
        <time>2023-06-10T19:52:24.562Z</time>
      </trkpt>
      <trkpt lat="47.22882" lon="0.01373">
        <ele>64.98</ele>
        <time>2023-06-10T19:52:56.533Z</time>
      </trkpt>
      <trkpt lat="47.22879" lon="0.01378">
        <ele>65.02</ele>
        <time>2023-06-10T19:53:28.505Z</time>
      </trkpt>
      <trkpt lat="47.22876" lon="0.01383">
        <ele>65.04</ele>
        <time>2023-06-10T19:54:00.478Z</time>
      </trkpt>
      <trkpt lat="47.2287" lon="0.01393">
        <ele>65.03</ele>
        <time>2023-06-10T19:54:32.452Z</time>
      </trkpt>
      <trkpt lat="47.22866" lon="0.01399">
        <ele>64.99</ele>
        <time>2023-06-10T19:55:04.427Z</time>
      </trkpt>
      <trkpt lat="47.22863" lon="0.01402">
        <ele>64.97</ele>
        <time>2023-06-10T19:55:36.403Z</time>
      </trkpt>
      <trkpt lat="47.22861" lon="0.01405">
        <ele>64.93</ele>
        <time>2023-06-10T19:56:08.379Z</time>
      </trkpt>
      <trkpt lat="47.22855" lon="0.01403">
        <ele>64.87</ele>
        <time>2023-06-10T19:56:40.356Z</time>
      </trkpt>
      <trkpt lat="47.2285" lon="0.01401">
        <ele>64.73</ele>
        <time>2023-06-10T19:57:12.334Z</time>
      </trkpt>
      <trkpt lat="47.22847" lon="0.01398">
        <ele>64.66</ele>
        <time>2023-06-10T19:57:44.312Z</time>
      </trkpt>
      <trkpt lat="47.22841" lon="0.01389">
        <ele>64.52</ele>
        <time>2023-06-10T19:58:16.292Z</time>
      </trkpt>
      <trkpt lat="47.22837" lon="0.01385">
        <ele>64.49</ele>
        <time>2023-06-10T19:58:48.273Z</time>
      </trkpt>
      <trkpt lat="47.2283" lon="0.01377">
        <ele>64.47</ele>
        <time>2023-06-10T19:59:20.255Z</time>
      </trkpt>
      <trkpt lat="47.22829" lon="0.01375">
        <ele>64.48</ele>
        <time>2023-06-10T19:59:52.237Z</time>
      </trkpt>
      <trkpt lat="47.22823" lon="0.01369">
        <ele>64.52</ele>
        <time>2023-06-10T20:00:24.220Z</time>
      </trkpt>
      <trkpt lat="47.22816" lon="0.01361">
        <ele>64.61</ele>
        <time>2023-06-10T20:00:56.205Z</time>
      </trkpt>
      <trkpt lat="47.22799" lon="0.01342">
        <ele>64.94</ele>
        <time>2023-06-10T20:01:28.193Z</time>
      </trkpt>
      <trkpt lat="47.22788" lon="0.0133">
        <ele>65.24</ele>
        <time>2023-06-10T20:02:00.184Z</time>
      </trkpt>
      <trkpt lat="47.22781" lon="0.01322">
        <ele>65.48</ele>
        <time>2023-06-10T20:02:32.176Z</time>
      </trkpt>
      <trkpt lat="47.22772" lon="0.01312">
        <ele>65.83</ele>
        <time>2023-06-10T20:03:04.170Z</time>
      </trkpt>
      <trkpt lat="47.2276" lon="0.01299">
        <ele>66.33</ele>
        <time>2023-06-10T20:03:36.166Z</time>
      </trkpt>
      <trkpt lat="47.22752" lon="0.01291">
        <ele>66.6</ele>
        <time>2023-06-10T20:04:08.164Z</time>
      </trkpt>
      <trkpt lat="47.22745" lon="0.01284">
        <ele>66.83</ele>
        <time>2023-06-10T20:04:40.163Z</time>
      </trkpt>
      <trkpt lat="47.22727" lon="0.01265">
        <ele>67.35</ele>
        <time>2023-06-10T20:05:12.166Z</time>
      </trkpt>
      <trkpt lat="47.2272" lon="0.01257">
        <ele>67.52</ele>
        <time>2023-06-10T20:05:44.170Z</time>
      </trkpt>
      <trkpt lat="47.22713" lon="0.01249">
        <ele>67.66</ele>
        <time>2023-06-10T20:06:16.175Z</time>
      </trkpt>
      <trkpt lat="47.22695" lon="0.0123">
        <ele>67.91</ele>
        <time>2023-06-10T20:06:48.184Z</time>
      </trkpt>
      <trkpt lat="47.22686" lon="0.01221">
        <ele>68.07</ele>
        <time>2023-06-10T20:07:20.195Z</time>
      </trkpt>
      <trkpt lat="47.2267" lon="0.01202">
        <ele>68.37</ele>
        <time>2023-06-10T20:07:52.209Z</time>
      </trkpt>
      <trkpt lat="47.22655" lon="0.01189">
        <ele>68.63</ele>
        <time>2023-06-10T20:08:24.226Z</time>
      </trkpt>
      <trkpt lat="47.22644" lon="0.0118">
        <ele>68.87</ele>
        <time>2023-06-10T20:08:56.245Z</time>
      </trkpt>
      <trkpt lat="47.22625" lon="0.01163">
        <ele>69.35</ele>
        <time>2023-06-10T20:09:28.267Z</time>
      </trkpt>
      <trkpt lat="47.22605" lon="0.01146">
        <ele>69.61</ele>
        <time>2023-06-10T20:10:00.293Z</time>
      </trkpt>
      <trkpt lat="47.22597" lon="0.01139">
        <ele>69.76</ele>
        <time>2023-06-10T20:10:32.321Z</time>
      </trkpt>
      <trkpt lat="47.22594" lon="0.01135">
        <ele>69.84</ele>
        <time>2023-06-10T20:11:04.349Z</time>
      </trkpt>
      <trkpt lat="47.22585" lon="0.01126">
        <ele>70.1</ele>
        <time>2023-06-10T20:11:36.379Z</time>
      </trkpt>
      <trkpt lat="47.22569" lon="0.01106">
        <ele>70.62</ele>
        <time>2023-06-10T20:12:08.412Z</time>
      </trkpt>
      <trkpt lat="47.22553" lon="0.01085">
        <ele>71.23</ele>
        <time>2023-06-10T20:12:40.449Z</time>
      </trkpt>
      <trkpt lat="47.22546" lon="0.01077">
        <ele>71.41</ele>
        <time>2023-06-10T20:13:12.487Z</time>
      </trkpt>
      <trkpt lat="47.22539" lon="0.01068">
        <ele>71.47</ele>
        <time>2023-06-10T20:13:44.527Z</time>
      </trkpt>
      <trkpt lat="47.22538" lon="0.01067">
        <ele>71.46</ele>
        <time>2023-06-10T20:14:16.567Z</time>
      </trkpt>
      <trkpt lat="47.22532" lon="0.01061">
        <ele>71.45</ele>
        <time>2023-06-10T20:14:48.608Z</time>
      </trkpt>
      <trkpt lat="47.22528" lon="0.01058">
        <ele>71.41</ele>
        <time>2023-06-10T20:15:20.650Z</time>
      </trkpt>
      <trkpt lat="47.22524" lon="0.01055">
        <ele>71.34</ele>
        <time>2023-06-10T20:15:52.692Z</time>
      </trkpt>
      <trkpt lat="47.2252" lon="0.01052">
        <ele>71.22</ele>
        <time>2023-06-10T20:16:24.735Z</time>
      </trkpt>
      <trkpt lat="47.22516" lon="0.01048">
        <ele>71.07</ele>
        <time>2023-06-10T20:16:56.779Z</time>
      </trkpt>
      <trkpt lat="47.22509" lon="0.01042">
        <ele>70.67</ele>
        <time>2023-06-10T20:17:28.824Z</time>
      </trkpt>
      <trkpt lat="47.2249" lon="0.01025">
        <ele>69.26</ele>
        <time>2023-06-10T20:18:00.873Z</time>
      </trkpt>
      <trkpt lat="47.22478" lon="0.01015">
        <ele>68.48</ele>
        <time>2023-06-10T20:18:32.924Z</time>
      </trkpt>
      <trkpt lat="47.22474" lon="0.01012">
        <ele>68.25</ele>
        <time>2023-06-10T20:19:04.976Z</time>
      </trkpt>
      <trkpt lat="47.22455" lon="0.00984">
        <ele>66.95</ele>
        <time>2023-06-10T20:19:37.032Z</time>
      </trkpt>
      <trkpt lat="47.22451" lon="0.00978">
        <ele>66.67</ele>
        <time>2023-06-10T20:20:09.089Z</time>
      </trkpt>
      <trkpt lat="47.22442" lon="0.00959">
        <ele>65.94</ele>
        <time>2023-06-10T20:20:41.149Z</time>
      </trkpt>
      <trkpt lat="47.22436" lon="0.00949">
        <ele>65.49</ele>
        <time>2023-06-10T20:21:13.210Z</time>
      </trkpt>
      <trkpt lat="47.22434" lon="0.00943">
        <ele>65.24</ele>
        <time>2023-06-10T20:21:45.272Z</time>
      </trkpt>
      <trkpt lat="47.22428" lon="0.00933">
        <ele>64.67</ele>
        <time>2023-06-10T20:22:17.335Z</time>
      </trkpt>
      <trkpt lat="47.22426" lon="0.00927">
        <ele>64.35</ele>
        <time>2023-06-10T20:22:49.399Z</time>
      </trkpt>
      <trkpt lat="47.2242" lon="0.00917">
        <ele>63.65</ele>
        <time>2023-06-10T20:23:21.464Z</time>
      </trkpt>
      <trkpt lat="47.22413" lon="0.00901">
        <ele>62.54</ele>
        <time>2023-06-10T20:23:53.531Z</time>
      </trkpt>
      <trkpt lat="47.22409" lon="0.00895">
        <ele>62.5</ele>
        <time>2023-06-10T20:24:25.599Z</time>
      </trkpt>
      <trkpt lat="47.22404" lon="0.00884">
        <ele>62.54</ele>
        <time>2023-06-10T20:24:57.669Z</time>
      </trkpt>
      <trkpt lat="47.22401" lon="0.00879">
        <ele>62.59</ele>
        <time>2023-06-10T20:25:29.739Z</time>
      </trkpt>
      <trkpt lat="47.22399" lon="0.00873">
        <ele>62.67</ele>
        <time>2023-06-10T20:26:01.810Z</time>
      </trkpt>
      <trkpt lat="47.22393" lon="0.00862">
        <ele>62.89</ele>
        <time>2023-06-10T20:26:33.883Z</time>
      </trkpt>
      <trkpt lat="47.22389" lon="0.00864">
        <ele>62.99</ele>
        <time>2023-06-10T20:27:05.956Z</time>
      </trkpt>
      <trkpt lat="47.22388" lon="0.00865">
        <ele>63.02</ele>
        <time>2023-06-10T20:27:38.030Z</time>
      </trkpt>
      <trkpt lat="47.22387" lon="0.00861">
        <ele>63.08</ele>
        <time>2023-06-10T20:28:10.104Z</time>
      </trkpt>
      <trkpt lat="47.22384" lon="0.00849">
        <ele>63.19</ele>
        <time>2023-06-10T20:28:42.179Z</time>
      </trkpt>
      <trkpt lat="47.22381" lon="0.00836">
        <ele>63.22</ele>
        <time>2023-06-10T20:29:14.256Z</time>
      </trkpt>
      <trkpt lat="47.22377" lon="0.00824">
        <ele>63.19</ele>
        <time>2023-06-10T20:29:46.334Z</time>
      </trkpt>
      <trkpt lat="47.22374" lon="0.00811">
        <ele>63.11</ele>
        <time>2023-06-10T20:30:18.414Z</time>
      </trkpt>
      <trkpt lat="47.2237" lon="0.008">
        <ele>63.05</ele>
        <time>2023-06-10T20:30:50.495Z</time>
      </trkpt>
      <trkpt lat="47.22368" lon="0.00795">
        <ele>62.99</ele>
        <time>2023-06-10T20:31:22.577Z</time>
      </trkpt>
      <trkpt lat="47.22365" lon="0.00789">
        <ele>62.93</ele>
        <time>2023-06-10T20:31:54.660Z</time>
      </trkpt>
      <trkpt lat="47.22345" lon="0.00753">
        <ele>62.45</ele>
        <time>2023-06-10T20:32:26.748Z</time>
      </trkpt>
      <trkpt lat="47.22338" lon="0.0074">
        <ele>62.31</ele>
        <time>2023-06-10T20:32:58.837Z</time>
      </trkpt>
      <trkpt lat="47.22325" lon="0.00709">
        <ele>62.04</ele>
        <time>2023-06-10T20:33:30.930Z</time>
      </trkpt>
      <trkpt lat="47.22323" lon="0.00704">
        <ele>62.01</ele>
        <time>2023-06-10T20:34:03.024Z</time>
      </trkpt>
      <trkpt lat="47.22318" lon="0.00693">
        <ele>61.99</ele>
        <time>2023-06-10T20:34:35.120Z</time>
      </trkpt>
      <trkpt lat="47.22313" lon="0.00681">
        <ele>62.03</ele>
        <time>2023-06-10T20:35:07.217Z</time>
      </trkpt>
      <trkpt lat="47.2231" lon="0.00676">
        <ele>62.05</ele>
        <time>2023-06-10T20:35:39.315Z</time>
      </trkpt>
      <trkpt lat="47.22306" lon="0.00669">
        <ele>62.1</ele>
        <time>2023-06-10T20:36:11.414Z</time>
      </trkpt>
      <trkpt lat="47.22304" lon="0.00667">
        <ele>62.12</ele>
        <time>2023-06-10T20:36:43.513Z</time>
      </trkpt>
      <trkpt lat="47.22297" lon="0.00659">
        <ele>62.22</ele>
        <time>2023-06-10T20:37:15.614Z</time>
      </trkpt>
      <trkpt lat="47.2229" lon="0.00651">
        <ele>62.35</ele>
        <time>2023-06-10T20:37:47.716Z</time>
      </trkpt>
      <trkpt lat="47.22279" lon="0.00639">
        <ele>62.6</ele>
        <time>2023-06-10T20:38:19.820Z</time>
      </trkpt>
      <trkpt lat="47.22261" lon="0.00619">
        <ele>63.17</ele>
        <time>2023-06-10T20:38:51.928Z</time>
      </trkpt>
      <trkpt lat="47.2225" lon="0.00607">
        <ele>63.55</ele>
        <time>2023-06-10T20:39:24.038Z</time>
      </trkpt>
      <trkpt lat="47.2224" lon="0.00595">
        <ele>63.9</ele>
        <time>2023-06-10T20:39:56.150Z</time>
      </trkpt>
      <trkpt lat="47.22237" lon="0.00592">
        <ele>63.99</ele>
        <time>2023-06-10T20:40:28.263Z</time>
      </trkpt>
      <trkpt lat="47.22233" lon="0.00586">
        <ele>64.16</ele>
        <time>2023-06-10T20:41:00.377Z</time>
      </trkpt>
      <trkpt lat="47.22227" lon="0.00576">
        <ele>64.65</ele>
        <time>2023-06-10T20:41:32.492Z</time>
      </trkpt>
      <trkpt lat="47.22221" lon="0.00567">
        <ele>65.07</ele>
        <time>2023-06-10T20:42:04.608Z</time>
      </trkpt>
      <trkpt lat="47.22215" lon="0.00557">
        <ele>65.41</ele>
        <time>2023-06-10T20:42:36.726Z</time>
      </trkpt>
      <trkpt lat="47.22215" lon="0.00557">
        <ele>65.41</ele>
        <time>2023-06-10T20:43:08.844Z</time>
      </trkpt>
      <trkpt lat="47.22209" lon="0.00555">
        <ele>65.63</ele>
        <time>2023-06-10T20:43:40.963Z</time>
      </trkpt>
      <trkpt lat="47.22204" lon="0.0054">
        <ele>66.03</ele>
        <time>2023-06-10T20:44:13.084Z</time>
      </trkpt>
      <trkpt lat="47.22204" lon="0.0054">
        <ele>66.03</ele>
        <time>2023-06-10T20:44:45.205Z</time>
      </trkpt>
      <trkpt lat="47.22197" lon="0.00532">
        <ele>66.4</ele>
        <time>2023-06-10T20:45:17.327Z</time>
      </trkpt>
      <trkpt lat="47.2219" lon="0.00524">
        <ele>66.84</ele>
        <time>2023-06-10T20:45:49.450Z</time>
      </trkpt>
      <trkpt lat="47.22173" lon="0.00504">
        <ele>68.04</ele>
        <time>2023-06-10T20:46:21.577Z</time>
      </trkpt>
      <trkpt lat="47.22167" lon="0.00497">
        <ele>68.4</ele>
        <time>2023-06-10T20:46:53.705Z</time>
      </trkpt>
      <trkpt lat="47.22166" lon="0.00495">
        <ele>68.47</ele>
        <time>2023-06-10T20:47:25.833Z</time>
      </trkpt>
      <trkpt lat="47.22161" lon="0.00485">
        <ele>68.84</ele>
        <time>2023-06-10T20:47:57.963Z</time>
      </trkpt>
      <trkpt lat="47.22158" lon="0.0048">
        <ele>69</ele>
        <time>2023-06-10T20:48:30.094Z</time>
      </trkpt>
      <trkpt lat="47.22155" lon="0.00468">
        <ele>69.33</ele>
        <time>2023-06-10T20:49:02.226Z</time>
      </trkpt>
      <trkpt lat="47.22152" lon="0.00456">
        <ele>69.6</ele>
        <time>2023-06-10T20:49:34.359Z</time>
      </trkpt>
      <trkpt lat="47.2215" lon="0.0045">
        <ele>69.7</ele>
        <time>2023-06-10T20:50:06.493Z</time>
      </trkpt>
      <trkpt lat="47.22148" lon="0.00441">
        <ele>69.78</ele>
        <time>2023-06-10T20:50:38.628Z</time>
      </trkpt>
      <trkpt lat="47.22148" lon="0.00437">
        <ele>69.82</ele>
        <time>2023-06-10T20:51:10.764Z</time>
      </trkpt>
      <trkpt lat="47.22147" lon="0.00431">
        <ele>69.83</ele>
        <time>2023-06-10T20:51:42.900Z</time>
      </trkpt>
      <trkpt lat="47.22145" lon="0.00418">
        <ele>69.79</ele>
        <time>2023-06-10T20:52:15.038Z</time>
      </trkpt>
      <trkpt lat="47.22144" lon="0.00405">
        <ele>69.69</ele>
        <time>2023-06-10T20:52:47.177Z</time>
      </trkpt>
      <trkpt lat="47.22144" lon="0.00405">
        <ele>69.69</ele>
        <time>2023-06-10T20:53:19.316Z</time>
      </trkpt>
      <trkpt lat="47.22144" lon="0.00392">
        <ele>69.53</ele>
        <time>2023-06-10T20:53:51.457Z</time>
      </trkpt>
      <trkpt lat="47.22144" lon="0.00379">
        <ele>69.3</ele>
        <time>2023-06-10T20:54:23.599Z</time>
      </trkpt>
      <trkpt lat="47.22144" lon="0.00377">
        <ele>69.25</ele>
        <time>2023-06-10T20:54:55.741Z</time>
      </trkpt>
      <trkpt lat="47.2215" lon="0.00348">
        <ele>68.58</ele>
        <time>2023-06-10T20:55:27.886Z</time>
      </trkpt>
      <trkpt lat="47.22152" lon="0.00335">
        <ele>68.33</ele>
        <time>2023-06-10T20:56:00.033Z</time>
      </trkpt>
      <trkpt lat="47.22155" lon="0.00323">
        <ele>68.15</ele>
        <time>2023-06-10T20:56:32.181Z</time>
      </trkpt>
      <trkpt lat="47.22156" lon="0.00317">
        <ele>68.13</ele>
        <time>2023-06-10T20:57:04.330Z</time>
      </trkpt>
      <trkpt lat="47.2216" lon="0.00304">
        <ele>68.1</ele>
        <time>2023-06-10T20:57:36.480Z</time>
      </trkpt>
      <trkpt lat="47.22165" lon="0.00286">
        <ele>68.09</ele>
        <time>2023-06-10T20:58:08.633Z</time>
      </trkpt>
      <trkpt lat="47.22167" lon="0.00278">
        <ele>68.11</ele>
        <time>2023-06-10T20:58:40.787Z</time>
      </trkpt>
      <trkpt lat="47.22168" lon="0.00274">
        <ele>68.13</ele>
        <time>2023-06-10T20:59:12.941Z</time>
      </trkpt>
      <trkpt lat="47.22172" lon="0.00258">
        <ele>68.24</ele>
        <time>2023-06-10T20:59:45.097Z</time>
      </trkpt>
      <trkpt lat="47.22173" lon="0.00255">
        <ele>68.27</ele>
        <time>2023-06-10T21:00:17.253Z</time>
      </trkpt>
      <trkpt lat="47.22178" lon="0.00244">
        <ele>68.42</ele>
        <time>2023-06-10T21:00:49.411Z</time>
      </trkpt>
      <trkpt lat="47.22183" lon="0.00233">
        <ele>68.62</ele>
        <time>2023-06-10T21:01:21.570Z</time>
      </trkpt>
      <trkpt lat="47.22197" lon="0.00199">
        <ele>69.42</ele>
        <time>2023-06-10T21:01:53.733Z</time>
      </trkpt>
      <trkpt lat="47.22201" lon="0.00188">
        <ele>69.74</ele>
        <time>2023-06-10T21:02:25.898Z</time>
      </trkpt>
      <trkpt lat="47.22204" lon="0.00183">
        <ele>69.92</ele>
        <time>2023-06-10T21:02:58.064Z</time>
      </trkpt>
      <trkpt lat="47.22208" lon="0.00171">
        <ele>70.32</ele>
        <time>2023-06-10T21:03:30.231Z</time>
      </trkpt>
      <trkpt lat="47.22213" lon="0.0016">
        <ele>70.74</ele>
        <time>2023-06-10T21:04:02.399Z</time>
      </trkpt>
      <trkpt lat="47.22218" lon="0.00149">
        <ele>71.2</ele>
        <time>2023-06-10T21:04:34.569Z</time>
      </trkpt>
      <trkpt lat="47.22225" lon="0.00132">
        <ele>71.93</ele>
        <time>2023-06-10T21:05:06.741Z</time>
      </trkpt>
      <trkpt lat="47.22227" lon="0.00126">
        <ele>72.18</ele>
        <time>2023-06-10T21:05:38.914Z</time>
      </trkpt>
      <trkpt lat="47.22234" lon="0.00101">
        <ele>73.1</ele>
        <time>2023-06-10T21:06:11.090Z</time>
      </trkpt>
      <trkpt lat="47.22235" lon="0.00075">
        <ele>73.98</ele>
        <time>2023-06-10T21:06:43.269Z</time>
      </trkpt>
      <trkpt lat="47.22236" lon="0.00062">
        <ele>74.45</ele>
        <time>2023-06-10T21:07:15.449Z</time>
      </trkpt>
      <trkpt lat="47.22237" lon="0.00043">
        <ele>75.21</ele>
        <time>2023-06-10T21:07:47.631Z</time>
      </trkpt>
      <trkpt lat="47.22238" lon="0.00026">
        <ele>75.28</ele>
        <time>2023-06-10T21:08:19.815Z</time>
      </trkpt>
      <trkpt lat="47.22238" lon="7.0E-5">
        <ele>75.93</ele>
        <time>2023-06-10T21:08:52.001Z</time>
      </trkpt>
      <trkpt lat="47.22239" lon="-5.0E-5">
        <ele>76.28</ele>
        <time>2023-06-10T21:09:24.188Z</time>
      </trkpt>
      <trkpt lat="47.2224" lon="-0.0002">
        <ele>76.74</ele>
        <time>2023-06-10T21:09:56.377Z</time>
      </trkpt>
      <trkpt lat="47.22243" lon="-0.00053">
        <ele>77.78</ele>
        <time>2023-06-10T21:10:28.570Z</time>
      </trkpt>
      <trkpt lat="47.22245" lon="-0.00072">
        <ele>78.32</ele>
        <time>2023-06-10T21:11:00.765Z</time>
      </trkpt>
      <trkpt lat="47.22245" lon="-0.00076">
        <ele>78.39</ele>
        <time>2023-06-10T21:11:32.960Z</time>
      </trkpt>
      <trkpt lat="47.22247" lon="-0.00085">
        <ele>78.58</ele>
        <time>2023-06-10T21:12:05.156Z</time>
      </trkpt>
      <trkpt lat="47.2225" lon="-0.00097">
        <ele>78.78</ele>
        <time>2023-06-10T21:12:37.354Z</time>
      </trkpt>
      <trkpt lat="47.22253" lon="-0.0011">
        <ele>78.93</ele>
        <time>2023-06-10T21:13:09.553Z</time>
      </trkpt>
      <trkpt lat="47.22259" lon="-0.00135">
        <ele>79.15</ele>
        <time>2023-06-10T21:13:41.755Z</time>
      </trkpt>
      <trkpt lat="47.22268" lon="-0.00172">
        <ele>79.54</ele>
        <time>2023-06-10T21:14:13.961Z</time>
      </trkpt>
      <trkpt lat="47.22272" lon="-0.00191">
        <ele>79.69</ele>
        <time>2023-06-10T21:14:46.169Z</time>
      </trkpt>
      <trkpt lat="47.2228" lon="-0.00223">
        <ele>79.84</ele>
        <time>2023-06-10T21:15:18.381Z</time>
      </trkpt>
      <trkpt lat="47.22281" lon="-0.00229">
        <ele>79.87</ele>
        <time>2023-06-10T21:15:50.594Z</time>
      </trkpt>
      <trkpt lat="47.22284" lon="-0.00248">
        <ele>80.02</ele>
        <time>2023-06-10T21:16:22.809Z</time>
      </trkpt>
      <trkpt lat="47.2229" lon="-0.0028">
        <ele>80.39</ele>
        <time>2023-06-10T21:16:55.028Z</time>
      </trkpt>
      <trkpt lat="47.22293" lon="-0.00293">
        <ele>80.57</ele>
        <time>2023-06-10T21:17:27.248Z</time>
      </trkpt>
      <trkpt lat="47.22294" lon="-0.00299">
        <ele>80.69</ele>
        <time>2023-06-10T21:17:59.469Z</time>
      </trkpt>
      <trkpt lat="47.22295" lon="-0.00305">
        <ele>80.84</ele>
        <time>2023-06-10T21:18:31.690Z</time>
      </trkpt>
      <trkpt lat="47.22296" lon="-0.00312">
        <ele>81.01</ele>
        <time>2023-06-10T21:19:03.912Z</time>
      </trkpt>
      <trkpt lat="47.22298" lon="-0.00324">
        <ele>81.39</ele>
        <time>2023-06-10T21:19:36.136Z</time>
      </trkpt>
      <trkpt lat="47.22302" lon="-0.00344">
        <ele>82.02</ele>
        <time>2023-06-10T21:20:08.362Z</time>
      </trkpt>
      <trkpt lat="47.22303" lon="-0.0035">
        <ele>82.24</ele>
        <time>2023-06-10T21:20:40.588Z</time>
      </trkpt>
      <trkpt lat="47.22305" lon="-0.00356">
        <ele>82.48</ele>
        <time>2023-06-10T21:21:12.815Z</time>
      </trkpt>
      <trkpt lat="47.22308" lon="-0.00369">
        <ele>83.04</ele>
        <time>2023-06-10T21:21:45.044Z</time>
      </trkpt>
      <trkpt lat="47.22309" lon="-0.00375">
        <ele>83.35</ele>
        <time>2023-06-10T21:22:17.273Z</time>
      </trkpt>
      <trkpt lat="47.22311" lon="-0.00381">
        <ele>83.7</ele>
        <time>2023-06-10T21:22:49.503Z</time>
      </trkpt>
      <trkpt lat="47.22312" lon="-0.00387">
        <ele>84.08</ele>
        <time>2023-06-10T21:23:21.734Z</time>
      </trkpt>
      <trkpt lat="47.22314" lon="-0.00394">
        <ele>84.49</ele>
        <time>2023-06-10T21:23:53.965Z</time>
      </trkpt>
      <trkpt lat="47.22315" lon="-0.004">
        <ele>84.95</ele>
        <time>2023-06-10T21:24:26.197Z</time>
      </trkpt>
      <trkpt lat="47.22318" lon="-0.00412">
        <ele>85.94</ele>
        <time>2023-06-10T21:24:58.431Z</time>
      </trkpt>
      <trkpt lat="47.22322" lon="-0.00427">
        <ele>87.18</ele>
        <time>2023-06-10T21:25:30.666Z</time>
      </trkpt>
      <trkpt lat="47.22323" lon="-0.00438">
        <ele>88.04</ele>
        <time>2023-06-10T21:26:02.903Z</time>
      </trkpt>
      <trkpt lat="47.22323" lon="-0.00443">
        <ele>88.23</ele>
        <time>2023-06-10T21:26:35.140Z</time>
      </trkpt>
      <trkpt lat="47.22323" lon="-0.00451">
        <ele>88.45</ele>
        <time>2023-06-10T21:27:07.378Z</time>
      </trkpt>
      <trkpt lat="47.22326" lon="-0.00483">
        <ele>89.81</ele>
        <time>2023-06-10T21:27:39.620Z</time>
      </trkpt>
      <trkpt lat="47.22326" lon="-0.00491">
        <ele>90.08</ele>
        <time>2023-06-10T21:28:11.862Z</time>
      </trkpt>
      <trkpt lat="47.22323" lon="-0.00494">
        <ele>90.28</ele>
        <time>2023-06-10T21:28:44.105Z</time>
      </trkpt>
      <trkpt lat="47.22322" lon="-0.00496">
        <ele>90.35</ele>
        <time>2023-06-10T21:29:16.348Z</time>
      </trkpt>
      <trkpt lat="47.22321" lon="-0.005">
        <ele>90.49</ele>
        <time>2023-06-10T21:29:48.592Z</time>
      </trkpt>
      <trkpt lat="47.2232" lon="-0.00506">
        <ele>90.67</ele>
        <time>2023-06-10T21:30:20.836Z</time>
      </trkpt>
      <trkpt lat="47.22318" lon="-0.00519">
        <ele>90.98</ele>
        <time>2023-06-10T21:30:53.082Z</time>
      </trkpt>
      <trkpt lat="47.22316" lon="-0.00532">
        <ele>91.24</ele>
        <time>2023-06-10T21:31:25.329Z</time>
      </trkpt>
      <trkpt lat="47.22314" lon="-0.00544">
        <ele>91.45</ele>
        <time>2023-06-10T21:31:57.578Z</time>
      </trkpt>
      <trkpt lat="47.22311" lon="-0.00557">
        <ele>91.6</ele>
        <time>2023-06-10T21:32:29.828Z</time>
      </trkpt>
      <trkpt lat="47.22311" lon="-0.00559">
        <ele>91.62</ele>
        <time>2023-06-10T21:33:02.078Z</time>
      </trkpt>
      <trkpt lat="47.22303" lon="-0.00587">
        <ele>91.91</ele>
        <time>2023-06-10T21:33:34.332Z</time>
      </trkpt>
      <trkpt lat="47.223" lon="-0.00599">
        <ele>92.01</ele>
        <time>2023-06-10T21:34:06.587Z</time>
      </trkpt>
      <trkpt lat="47.22293" lon="-0.00625">
        <ele>92.13</ele>
        <time>2023-06-10T21:34:38.845Z</time>
      </trkpt>
      <trkpt lat="47.22285" lon="-0.00647">
        <ele>92.25</ele>
        <time>2023-06-10T21:35:11.106Z</time>
      </trkpt>
      <trkpt lat="47.22281" lon="-0.00658">
        <ele>92.29</ele>
        <time>2023-06-10T21:35:43.368Z</time>
      </trkpt>
      <trkpt lat="47.22274" lon="-0.00675">
        <ele>92.3</ele>
        <time>2023-06-10T21:36:15.632Z</time>
      </trkpt>
      <trkpt lat="47.22266" lon="-0.00698">
        <ele>92.26</ele>
        <time>2023-06-10T21:36:47.899Z</time>
      </trkpt>
      <trkpt lat="47.22262" lon="-0.0071">
        <ele>92.19</ele>
        <time>2023-06-10T21:37:20.168Z</time>
      </trkpt>
      <trkpt lat="47.2225" lon="-0.00741">
        <ele>91.94</ele>
        <time>2023-06-10T21:37:52.440Z</time>
      </trkpt>
      <trkpt lat="47.22248" lon="-0.00744">
        <ele>91.92</ele>
        <time>2023-06-10T21:38:24.713Z</time>
      </trkpt>
      <trkpt lat="47.22233" lon="-0.00777">
        <ele>91.71</ele>
        <time>2023-06-10T21:38:56.990Z</time>
      </trkpt>
      <trkpt lat="47.22222" lon="-0.00799">
        <ele>91.51</ele>
        <time>2023-06-10T21:39:29.270Z</time>
      </trkpt>
      <trkpt lat="47.22219" lon="-0.00803">
        <ele>91.48</ele>
        <time>2023-06-10T21:40:01.551Z</time>
      </trkpt>
      <trkpt lat="47.22206" lon="-0.00822">
        <ele>91.36</ele>
        <time>2023-06-10T21:40:33.835Z</time>
      </trkpt>
      <trkpt lat="47.22204" lon="-0.00826">
        <ele>91.34</ele>
        <time>2023-06-10T21:41:06.119Z</time>
      </trkpt>
      <trkpt lat="47.22198" lon="-0.00837">
        <ele>91.26</ele>
        <time>2023-06-10T21:41:38.405Z</time>
      </trkpt>
      <trkpt lat="47.22189" lon="-0.00852">
        <ele>91.1</ele>
        <time>2023-06-10T21:42:10.693Z</time>
      </trkpt>
      <trkpt lat="47.22184" lon="-0.00863">
        <ele>90.95</ele>
        <time>2023-06-10T21:42:42.982Z</time>
      </trkpt>
      <trkpt lat="47.22178" lon="-0.00873">
        <ele>90.74</ele>
        <time>2023-06-10T21:43:15.273Z</time>
      </trkpt>
      <trkpt lat="47.22158" lon="-0.00909">
        <ele>89.95</ele>
        <time>2023-06-10T21:43:47.569Z</time>
      </trkpt>
      <trkpt lat="47.2215" lon="-0.00924">
        <ele>89.64</ele>
        <time>2023-06-10T21:44:19.867Z</time>
      </trkpt>
      <trkpt lat="47.22144" lon="-0.00934">
        <ele>89.4</ele>
        <time>2023-06-10T21:44:52.167Z</time>
      </trkpt>
      <trkpt lat="47.22136" lon="-0.0095">
        <ele>89</ele>
        <time>2023-06-10T21:45:24.469Z</time>
      </trkpt>
      <trkpt lat="47.22134" lon="-0.00953">
        <ele>88.93</ele>
        <time>2023-06-10T21:45:56.771Z</time>
      </trkpt>
      <trkpt lat="47.22122" lon="-0.00976">
        <ele>88.47</ele>
        <time>2023-06-10T21:46:29.076Z</time>
      </trkpt>
      <trkpt lat="47.22117" lon="-0.00987">
        <ele>88.23</ele>
        <time>2023-06-10T21:47:01.383Z</time>
      </trkpt>
      <trkpt lat="47.22106" lon="-0.01008">
        <ele>87.67</ele>
        <time>2023-06-10T21:47:33.693Z</time>
      </trkpt>
      <trkpt lat="47.22095" lon="-0.01029">
        <ele>87</ele>
        <time>2023-06-10T21:48:06.006Z</time>
      </trkpt>
      <trkpt lat="47.2209" lon="-0.0104">
        <ele>86.69</ele>
        <time>2023-06-10T21:48:38.320Z</time>
      </trkpt>
      <trkpt lat="47.22088" lon="-0.01043">
        <ele>86.59</ele>
        <time>2023-06-10T21:49:10.634Z</time>
      </trkpt>
      <trkpt lat="47.22067" lon="-0.01072">
        <ele>85.66</ele>
        <time>2023-06-10T21:49:42.953Z</time>
      </trkpt>
      <trkpt lat="47.22061" lon="-0.01081">
        <ele>85.4</ele>
        <time>2023-06-10T21:50:15.273Z</time>
      </trkpt>
      <trkpt lat="47.22056" lon="-0.01088">
        <ele>85.23</ele>
        <time>2023-06-10T21:50:47.595Z</time>
      </trkpt>
      <trkpt lat="47.22051" lon="-0.01094">
        <ele>85.06</ele>
        <time>2023-06-10T21:51:19.918Z</time>
      </trkpt>
      <trkpt lat="47.2204" lon="-0.01106">
        <ele>84.77</ele>
        <time>2023-06-10T21:51:52.243Z</time>
      </trkpt>
      <trkpt lat="47.22026" lon="-0.01123">
        <ele>84.45</ele>
        <time>2023-06-10T21:52:24.571Z</time>
      </trkpt>
      <trkpt lat="47.21989" lon="-0.01165">
        <ele>83.74</ele>
        <time>2023-06-10T21:52:56.906Z</time>
      </trkpt>
      <trkpt lat="47.21987" lon="-0.01167">
        <ele>83.71</ele>
        <time>2023-06-10T21:53:29.242Z</time>
      </trkpt>
      <trkpt lat="47.21973" lon="-0.0119">
        <ele>83.48</ele>
        <time>2023-06-10T21:54:01.581Z</time>
      </trkpt>
      <trkpt lat="47.21967" lon="-0.01202">
        <ele>83.38</ele>
        <time>2023-06-10T21:54:33.921Z</time>
      </trkpt>
      <trkpt lat="47.2195" lon="-0.01232">
        <ele>83.03</ele>
        <time>2023-06-10T21:55:06.266Z</time>
      </trkpt>
      <trkpt lat="47.2194" lon="-0.01251">
        <ele>82.85</ele>
        <time>2023-06-10T21:55:38.613Z</time>
      </trkpt>
      <trkpt lat="47.21929" lon="-0.01275">
        <ele>82.65</ele>
        <time>2023-06-10T21:56:10.964Z</time>
      </trkpt>
      <trkpt lat="47.21922" lon="-0.01291">
        <ele>82.56</ele>
        <time>2023-06-10T21:56:43.317Z</time>
      </trkpt>
      <trkpt lat="47.21904" lon="-0.01329">
        <ele>82.49</ele>
        <time>2023-06-10T21:57:15.675Z</time>
      </trkpt>
      <trkpt lat="47.21894" lon="-0.01351">
        <ele>82.47</ele>
        <time>2023-06-10T21:57:48.036Z</time>
      </trkpt>
      <trkpt lat="47.2189" lon="-0.0136">
        <ele>82.43</ele>
        <time>2023-06-10T21:58:20.398Z</time>
      </trkpt>
      <trkpt lat="47.21886" lon="-0.01366">
        <ele>82.4</ele>
        <time>2023-06-10T21:58:52.761Z</time>
      </trkpt>
      <trkpt lat="47.21875" lon="-0.01378">
        <ele>82.24</ele>
        <time>2023-06-10T21:59:25.126Z</time>
      </trkpt>
      <trkpt lat="47.21852" lon="-0.01408">
        <ele>81.74</ele>
        <time>2023-06-10T21:59:57.496Z</time>
      </trkpt>
      <trkpt lat="47.21837" lon="-0.01426">
        <ele>81.46</ele>
        <time>2023-06-10T22:00:29.869Z</time>
      </trkpt>
      <trkpt lat="47.21827" lon="-0.01439">
        <ele>81.19</ele>
        <time>2023-06-10T22:01:02.244Z</time>
      </trkpt>
      <trkpt lat="47.21814" lon="-0.01456">
        <ele>80.92</ele>
        <time>2023-06-10T22:01:34.622Z</time>
      </trkpt>
      <trkpt lat="47.21812" lon="-0.01458">
        <ele>80.89</ele>
        <time>2023-06-10T22:02:07.000Z</time>
      </trkpt>
      <trkpt lat="47.21789" lon="-0.01484">
        <ele>80.58</ele>
        <time>2023-06-10T22:02:39.383Z</time>
      </trkpt>
      <trkpt lat="47.21775" lon="-0.01501">
        <ele>80.44</ele>
        <time>2023-06-10T22:03:11.769Z</time>
      </trkpt>
      <trkpt lat="47.21764" lon="-0.01513">
        <ele>80.39</ele>
        <time>2023-06-10T22:03:44.157Z</time>
      </trkpt>
      <trkpt lat="47.2175" lon="-0.01529">
        <ele>80.39</ele>
        <time>2023-06-10T22:04:16.548Z</time>
      </trkpt>
      <trkpt lat="47.21729" lon="-0.01553">
        <ele>80.35</ele>
        <time>2023-06-10T22:04:48.943Z</time>
      </trkpt>
      <trkpt lat="47.21718" lon="-0.01566">
        <ele>80.4</ele>
        <time>2023-06-10T22:05:21.340Z</time>
      </trkpt>
      <trkpt lat="47.21704" lon="-0.01582">
        <ele>80.51</ele>
        <time>2023-06-10T22:05:53.740Z</time>
      </trkpt>
      <trkpt lat="47.21697" lon="-0.0159">
        <ele>80.55</ele>
        <time>2023-06-10T22:06:26.142Z</time>
      </trkpt>
      <trkpt lat="47.2169" lon="-0.01598">
        <ele>80.57</ele>
        <time>2023-06-10T22:06:58.545Z</time>
      </trkpt>
      <trkpt lat="47.21683" lon="-0.01606">
        <ele>80.56</ele>
        <time>2023-06-10T22:07:30.949Z</time>
      </trkpt>
      <trkpt lat="47.21676" lon="-0.01614">
        <ele>80.51</ele>
        <time>2023-06-10T22:08:03.355Z</time>
      </trkpt>
      <trkpt lat="47.21661" lon="-0.01631">
        <ele>80.37</ele>
        <time>2023-06-10T22:08:35.764Z</time>
      </trkpt>
      <trkpt lat="47.21644" lon="-0.01651">
        <ele>80.24</ele>
        <time>2023-06-10T22:09:08.176Z</time>
      </trkpt>
      <trkpt lat="47.21637" lon="-0.01659">
        <ele>80.2</ele>
        <time>2023-06-10T22:09:40.590Z</time>
      </trkpt>
      <trkpt lat="47.21623" lon="-0.01675">
        <ele>80.17</ele>
        <time>2023-06-10T22:10:13.007Z</time>
      </trkpt>
      <trkpt lat="47.21608" lon="-0.01692">
        <ele>80.08</ele>
        <time>2023-06-10T22:10:45.427Z</time>
      </trkpt>
      <trkpt lat="47.21608" lon="-0.01692">
        <ele>80.08</ele>
        <time>2023-06-10T22:11:17.847Z</time>
      </trkpt>
      <trkpt lat="47.21596" lon="-0.01711">
        <ele>79.93</ele>
        <time>2023-06-10T22:11:50.269Z</time>
      </trkpt>
      <trkpt lat="47.21582" lon="-0.01735">
        <ele>79.77</ele>
        <time>2023-06-10T22:12:22.695Z</time>
      </trkpt>
      <trkpt lat="47.21576" lon="-0.01747">
        <ele>79.71</ele>
        <time>2023-06-10T22:12:55.122Z</time>
      </trkpt>
      <trkpt lat="47.21571" lon="-0.01758">
        <ele>79.63</ele>
        <time>2023-06-10T22:13:27.551Z</time>
      </trkpt>
      <trkpt lat="47.21571" lon="-0.01758">
        <ele>79.63</ele>
        <time>2023-06-10T22:13:59.980Z</time>
      </trkpt>
      <trkpt lat="47.21563" lon="-0.01781">
        <ele>79.42</ele>
        <time>2023-06-10T22:14:32.412Z</time>
      </trkpt>
      <trkpt lat="47.21556" lon="-0.01798">
        <ele>79.3</ele>
        <time>2023-06-10T22:15:04.846Z</time>
      </trkpt>
      <trkpt lat="47.21546" lon="-0.01827">
        <ele>79.16</ele>
        <time>2023-06-10T22:15:37.283Z</time>
      </trkpt>
      <trkpt lat="47.21541" lon="-0.01839">
        <ele>79.13</ele>
        <time>2023-06-10T22:16:09.722Z</time>
      </trkpt>
      <trkpt lat="47.21537" lon="-0.0185">
        <ele>79.13</ele>
        <time>2023-06-10T22:16:42.162Z</time>
      </trkpt>
      <trkpt lat="47.21529" lon="-0.01874">
        <ele>79.19</ele>
        <time>2023-06-10T22:17:14.605Z</time>
      </trkpt>
      <trkpt lat="47.21515" lon="-0.01911">
        <ele>79.38</ele>
        <time>2023-06-10T22:17:47.053Z</time>
      </trkpt>
      <trkpt lat="47.21514" lon="-0.01914">
        <ele>79.4</ele>
        <time>2023-06-10T22:18:19.501Z</time>
      </trkpt>
      <trkpt lat="47.21508" lon="-0.01925">
        <ele>79.48</ele>
        <time>2023-06-10T22:18:51.951Z</time>
      </trkpt>
      <trkpt lat="47.21501" lon="-0.01941">
        <ele>79.65</ele>
        <time>2023-06-10T22:19:24.403Z</time>
      </trkpt>
      <trkpt lat="47.2149" lon="-0.01965">
        <ele>80</ele>
        <time>2023-06-10T22:19:56.858Z</time>
      </trkpt>
      <trkpt lat="47.21483" lon="-0.01979">
        <ele>80.22</ele>
        <time>2023-06-10T22:20:29.315Z</time>
      </trkpt>
      <trkpt lat="47.21478" lon="-0.0199">
        <ele>80.36</ele>
        <time>2023-06-10T22:21:01.773Z</time>
      </trkpt>
      <trkpt lat="47.21472" lon="-0.02">
        <ele>80.43</ele>
        <time>2023-06-10T22:21:34.233Z</time>
      </trkpt>
      <trkpt lat="47.21464" lon="-0.02016">
        <ele>80.49</ele>
        <time>2023-06-10T22:22:06.695Z</time>
      </trkpt>
      <trkpt lat="47.21459" lon="-0.02027">
        <ele>80.57</ele>
        <time>2023-06-10T22:22:39.158Z</time>
      </trkpt>
      <trkpt lat="47.21449" lon="-0.02047">
        <ele>80.65</ele>
        <time>2023-06-10T22:23:11.624Z</time>
      </trkpt>
      <trkpt lat="47.21439" lon="-0.02067">
        <ele>80.75</ele>
        <time>2023-06-10T22:23:44.093Z</time>
      </trkpt>
      <trkpt lat="47.21434" lon="-0.02077">
        <ele>80.78</ele>
        <time>2023-06-10T22:24:16.563Z</time>
      </trkpt>
      <trkpt lat="47.21426" lon="-0.02091">
        <ele>80.78</ele>
        <time>2023-06-10T22:24:49.035Z</time>
      </trkpt>
      <trkpt lat="47.21419" lon="-0.02105">
        <ele>81.04</ele>
        <time>2023-06-10T22:25:21.509Z</time>
      </trkpt>
      <trkpt lat="47.21414" lon="-0.02115">
        <ele>81.12</ele>
        <time>2023-06-10T22:25:53.984Z</time>
      </trkpt>
      <trkpt lat="47.21413" lon="-0.02118">
        <ele>81.16</ele>
        <time>2023-06-10T22:26:26.460Z</time>
      </trkpt>
      <trkpt lat="47.21406" lon="-0.0213">
        <ele>81.34</ele>
        <time>2023-06-10T22:26:58.937Z</time>
      </trkpt>
      <trkpt lat="47.21409" lon="-0.02146">
        <ele>81.53</ele>
        <time>2023-06-10T22:27:31.416Z</time>
      </trkpt>
      <trkpt lat="47.21415" lon="-0.02148">
        <ele>81.64</ele>
        <time>2023-06-10T22:28:03.896Z</time>
      </trkpt>
      <trkpt lat="47.21419" lon="-0.02149">
        <ele>81.7</ele>
        <time>2023-06-10T22:28:36.377Z</time>
      </trkpt>
      <trkpt lat="47.21428" lon="-0.02151">
        <ele>81.78</ele>
        <time>2023-06-10T22:29:08.859Z</time>
      </trkpt>
      <trkpt lat="47.2144" lon="-0.02155">
        <ele>81.84</ele>
        <time>2023-06-10T22:29:41.343Z</time>
      </trkpt>
      <trkpt lat="47.21453" lon="-0.02158">
        <ele>81.85</ele>
        <time>2023-06-10T22:30:13.829Z</time>
      </trkpt>
      <trkpt lat="47.21466" lon="-0.02162">
        <ele>81.82</ele>
        <time>2023-06-10T22:30:46.318Z</time>
      </trkpt>
      <trkpt lat="47.21508" lon="-0.02174">
        <ele>81.63</ele>
        <time>2023-06-10T22:31:18.813Z</time>
      </trkpt>
      <trkpt lat="47.21555" lon="-0.02187">
        <ele>81.17</ele>
        <time>2023-06-10T22:31:51.316Z</time>
      </trkpt>
      <trkpt lat="47.21562" lon="-0.02189">
        <ele>81.1</ele>
        <time>2023-06-10T22:32:23.820Z</time>
      </trkpt>
      <trkpt lat="47.21579" lon="-0.02192">
        <ele>80.78</ele>
        <time>2023-06-10T22:32:56.327Z</time>
      </trkpt>
      <trkpt lat="47.21579" lon="-0.02192">
        <ele>80.78</ele>
        <time>2023-06-10T22:33:28.834Z</time>
      </trkpt>
      <trkpt lat="47.21591" lon="-0.02189">
        <ele>80.6</ele>
        <time>2023-06-10T22:34:01.343Z</time>
      </trkpt>
      <trkpt lat="47.21595" lon="-0.02188">
        <ele>80.52</ele>
        <time>2023-06-10T22:34:33.853Z</time>
      </trkpt>
      <trkpt lat="47.21598" lon="-0.02201">
        <ele>80.36</ele>
        <time>2023-06-10T22:35:06.364Z</time>
      </trkpt>
      <trkpt lat="47.216" lon="-0.02209">
        <ele>80.28</ele>
        <time>2023-06-10T22:35:38.876Z</time>
      </trkpt>
      <trkpt lat="47.21602" lon="-0.02212">
        <ele>80.24</ele>
        <time>2023-06-10T22:36:11.388Z</time>
      </trkpt>
      <trkpt lat="47.21617" lon="-0.02228">
        <ele>80.07</ele>
        <time>2023-06-10T22:36:43.903Z</time>
      </trkpt>
      <trkpt lat="47.21623" lon="-0.02236">
        <ele>80.04</ele>
        <time>2023-06-10T22:37:16.420Z</time>
      </trkpt>
      <trkpt lat="47.21627" lon="-0.02241">
        <ele>80.05</ele>
        <time>2023-06-10T22:37:48.938Z</time>
      </trkpt>
      <trkpt lat="47.21634" lon="-0.02249">
        <ele>80.1</ele>
        <time>2023-06-10T22:38:21.457Z</time>
      </trkpt>
      <trkpt lat="47.21636" lon="-0.02251">
        <ele>80.12</ele>
        <time>2023-06-10T22:38:53.976Z</time>
      </trkpt>
      <trkpt lat="47.21657" lon="-0.02281">
        <ele>80.37</ele>
        <time>2023-06-10T22:39:26.500Z</time>
      </trkpt>
      <trkpt lat="47.21673" lon="-0.02303">
        <ele>80.44</ele>
        <time>2023-06-10T22:39:59.028Z</time>
      </trkpt>
      <trkpt lat="47.21679" lon="-0.02313">
        <ele>80.24</ele>
        <time>2023-06-10T22:40:31.557Z</time>
      </trkpt>
      <trkpt lat="47.21682" lon="-0.02317">
        <ele>80.09</ele>
        <time>2023-06-10T22:41:04.087Z</time>
      </trkpt>
      <trkpt lat="47.21685" lon="-0.02322">
        <ele>79.89</ele>
        <time>2023-06-10T22:41:36.617Z</time>
      </trkpt>
      <trkpt lat="47.21689" lon="-0.02326">
        <ele>79.65</ele>
        <time>2023-06-10T22:42:09.148Z</time>
      </trkpt>
      <trkpt lat="47.21692" lon="-0.02331">
        <ele>79.37</ele>
        <time>2023-06-10T22:42:41.680Z</time>
      </trkpt>
      <trkpt lat="47.21695" lon="-0.02336">
        <ele>79.06</ele>
        <time>2023-06-10T22:43:14.213Z</time>
      </trkpt>
      <trkpt lat="47.21696" lon="-0.02337">
        <ele>78.94</ele>
        <time>2023-06-10T22:43:46.746Z</time>
      </trkpt>
      <trkpt lat="47.21695" lon="-0.02341">
        <ele>78.71</ele>
        <time>2023-06-10T22:44:19.279Z</time>
      </trkpt>
      <trkpt lat="47.21692" lon="-0.02367">
        <ele>77.15</ele>
        <time>2023-06-10T22:44:51.815Z</time>
      </trkpt>
      <trkpt lat="47.21691" lon="-0.02374">
        <ele>76.79</ele>
        <time>2023-06-10T22:45:24.352Z</time>
      </trkpt>
      <trkpt lat="47.2169" lon="-0.02381">
        <ele>76.45</ele>
        <time>2023-06-10T22:45:56.890Z</time>
      </trkpt>
      <trkpt lat="47.2169" lon="-0.02381">
        <ele>76.45</ele>
        <time>2023-06-10T22:46:29.428Z</time>
      </trkpt>
      <trkpt lat="47.21689" lon="-0.02393">
        <ele>75.87</ele>
        <time>2023-06-10T22:47:01.967Z</time>
      </trkpt>
      <trkpt lat="47.21689" lon="-0.024">
        <ele>75.61</ele>
        <time>2023-06-10T22:47:34.507Z</time>
      </trkpt>
      <trkpt lat="47.21688" lon="-0.02406">
        <ele>75.38</ele>
        <time>2023-06-10T22:48:07.047Z</time>
      </trkpt>
      <trkpt lat="47.21688" lon="-0.02419">
        <ele>74.97</ele>
        <time>2023-06-10T22:48:39.589Z</time>
      </trkpt>
      <trkpt lat="47.21687" lon="-0.02432">
        <ele>74.63</ele>
        <time>2023-06-10T22:49:12.132Z</time>
      </trkpt>
      <trkpt lat="47.21687" lon="-0.02439">
        <ele>74.49</ele>
        <time>2023-06-10T22:49:44.676Z</time>
      </trkpt>
      <trkpt lat="47.21686" lon="-0.02452">
        <ele>74.27</ele>
        <time>2023-06-10T22:50:17.221Z</time>
      </trkpt>
      <trkpt lat="47.21684" lon="-0.02478">
        <ele>73.9</ele>
        <time>2023-06-10T22:50:49.769Z</time>
      </trkpt>
      <trkpt lat="47.21683" lon="-0.02491">
        <ele>73.77</ele>
        <time>2023-06-10T22:51:22.319Z</time>
      </trkpt>
      <trkpt lat="47.21683" lon="-0.02498">
        <ele>73.74</ele>
        <time>2023-06-10T22:51:54.869Z</time>
      </trkpt>
      <trkpt lat="47.21682" lon="-0.02504">
        <ele>73.72</ele>
        <time>2023-06-10T22:52:27.420Z</time>
      </trkpt>
      <trkpt lat="47.21678" lon="-0.0253">
        <ele>73.72</ele>
        <time>2023-06-10T22:52:59.974Z</time>
      </trkpt>
      <trkpt lat="47.21677" lon="-0.02543">
        <ele>73.77</ele>
        <time>2023-06-10T22:53:32.529Z</time>
      </trkpt>
      <trkpt lat="47.21674" lon="-0.02562">
        <ele>73.89</ele>
        <time>2023-06-10T22:54:05.087Z</time>
      </trkpt>
      <trkpt lat="47.2167" lon="-0.02587">
        <ele>74.11</ele>
        <time>2023-06-10T22:54:37.647Z</time>
      </trkpt>
      <trkpt lat="47.21667" lon="-0.0261">
        <ele>74.4</ele>
        <time>2023-06-10T22:55:10.210Z</time>
      </trkpt>
      <trkpt lat="47.21666" lon="-0.02619">
        <ele>74.52</ele>
        <time>2023-06-10T22:55:42.774Z</time>
      </trkpt>
      <trkpt lat="47.21664" lon="-0.02638">
        <ele>74.8</ele>
        <time>2023-06-10T22:56:15.340Z</time>
      </trkpt>
      <trkpt lat="47.21662" lon="-0.02657">
        <ele>75.15</ele>
        <time>2023-06-10T22:56:47.908Z</time>
      </trkpt>
      <trkpt lat="47.21657" lon="-0.02708">
        <ele>76.17</ele>
        <time>2023-06-10T22:57:20.482Z</time>
      </trkpt>
      <trkpt lat="47.21655" lon="-0.02721">
        <ele>76.44</ele>
        <time>2023-06-10T22:57:53.057Z</time>
      </trkpt>
      <trkpt lat="47.21654" lon="-0.02734">
        <ele>76.75</ele>
        <time>2023-06-10T22:58:25.634Z</time>
      </trkpt>
      <trkpt lat="47.21649" lon="-0.02779">
        <ele>77.89</ele>
        <time>2023-06-10T22:58:58.216Z</time>
      </trkpt>
      <trkpt lat="47.21649" lon="-0.02779">
        <ele>77.89</ele>
        <time>2023-06-10T22:59:30.798Z</time>
      </trkpt>
      <trkpt lat="47.21649" lon="-0.02804">
        <ele>78.6</ele>
        <time>2023-06-10T23:00:03.382Z</time>
      </trkpt>
      <trkpt lat="47.2165" lon="-0.02829">
        <ele>79.17</ele>
        <time>2023-06-10T23:00:35.969Z</time>
      </trkpt>
      <trkpt lat="47.2165" lon="-0.02848">
        <ele>79.54</ele>
        <time>2023-06-10T23:01:08.558Z</time>
      </trkpt>
      <trkpt lat="47.2165" lon="-0.02853">
        <ele>79.61</ele>
        <time>2023-06-10T23:01:41.148Z</time>
      </trkpt>
      <trkpt lat="47.21652" lon="-0.02874">
        <ele>79.95</ele>
        <time>2023-06-10T23:02:13.740Z</time>
      </trkpt>
      <trkpt lat="47.21654" lon="-0.02887">
        <ele>80.12</ele>
        <time>2023-06-10T23:02:46.333Z</time>
      </trkpt>
      <trkpt lat="47.21655" lon="-0.02896">
        <ele>80.21</ele>
        <time>2023-06-10T23:03:18.927Z</time>
      </trkpt>
      <trkpt lat="47.21654" lon="-0.029">
        <ele>80.26</ele>
        <time>2023-06-10T23:03:51.522Z</time>
      </trkpt>
      <trkpt lat="47.21651" lon="-0.02926">
        <ele>80.5</ele>
        <time>2023-06-10T23:04:24.120Z</time>
      </trkpt>
      <trkpt lat="47.21648" lon="-0.02947">
        <ele>80.64</ele>
        <time>2023-06-10T23:04:56.720Z</time>
      </trkpt>
      <trkpt lat="47.21648" lon="-0.02965">
        <ele>80.77</ele>
        <time>2023-06-10T23:05:29.322Z</time>
      </trkpt>
      <trkpt lat="47.21648" lon="-0.02972">
        <ele>80.8</ele>
        <time>2023-06-10T23:06:01.925Z</time>
      </trkpt>
      <trkpt lat="47.21649" lon="-0.02985">
        <ele>80.8</ele>
        <time>2023-06-10T23:06:34.529Z</time>
      </trkpt>
      <trkpt lat="47.21649" lon="-0.03011">
        <ele>80.7</ele>
        <time>2023-06-10T23:07:07.136Z</time>
      </trkpt>
      <trkpt lat="47.21649" lon="-0.03021">
        <ele>80.64</ele>
        <time>2023-06-10T23:07:39.744Z</time>
      </trkpt>
      <trkpt lat="47.21652" lon="-0.03044">
        <ele>80.52</ele>
        <time>2023-06-10T23:08:12.355Z</time>
      </trkpt>
      <trkpt lat="47.21657" lon="-0.03083">
        <ele>80.46</ele>
        <time>2023-06-10T23:08:44.970Z</time>
      </trkpt>
      <trkpt lat="47.21657" lon="-0.03086">
        <ele>80.46</ele>
        <time>2023-06-10T23:09:17.585Z</time>
      </trkpt>
      <trkpt lat="47.21665" lon="-0.03104">
        <ele>80.52</ele>
        <time>2023-06-10T23:09:50.203Z</time>
      </trkpt>
      <trkpt lat="47.21674" lon="-0.03124">
        <ele>80.7</ele>
        <time>2023-06-10T23:10:22.823Z</time>
      </trkpt>
      <trkpt lat="47.21678" lon="-0.03128">
        <ele>80.77</ele>
        <time>2023-06-10T23:10:55.444Z</time>
      </trkpt>
      <trkpt lat="47.21699" lon="-0.03149">
        <ele>81.04</ele>
        <time>2023-06-10T23:11:28.069Z</time>
      </trkpt>
      <trkpt lat="47.21705" lon="-0.03155">
        <ele>81.07</ele>
        <time>2023-06-10T23:12:00.695Z</time>
      </trkpt>
      <trkpt lat="47.21706" lon="-0.03157">
        <ele>81.09</ele>
        <time>2023-06-10T23:12:33.322Z</time>
      </trkpt>
      <trkpt lat="47.21711" lon="-0.03167">
        <ele>81.1</ele>
        <time>2023-06-10T23:13:05.950Z</time>
      </trkpt>
      <trkpt lat="47.21719" lon="-0.03184">
        <ele>81.07</ele>
        <time>2023-06-10T23:13:38.580Z</time>
      </trkpt>
      <trkpt lat="47.21721" lon="-0.03189">
        <ele>81.04</ele>
        <time>2023-06-10T23:14:11.211Z</time>
      </trkpt>
      <trkpt lat="47.21724" lon="-0.03194">
        <ele>80.98</ele>
        <time>2023-06-10T23:14:43.843Z</time>
      </trkpt>
      <trkpt lat="47.2173" lon="-0.03207">
        <ele>80.75</ele>
        <time>2023-06-10T23:15:16.476Z</time>
      </trkpt>
      <trkpt lat="47.2174" lon="-0.03217">
        <ele>80.49</ele>
        <time>2023-06-10T23:15:49.111Z</time>
      </trkpt>
      <trkpt lat="47.2175" lon="-0.03229">
        <ele>80.22</ele>
        <time>2023-06-10T23:16:21.748Z</time>
      </trkpt>
      <trkpt lat="47.21759" lon="-0.03238">
        <ele>80.04</ele>
        <time>2023-06-10T23:16:54.387Z</time>
      </trkpt>
      <trkpt lat="47.21759" lon="-0.03238">
        <ele>82.15</ele>
        <time>2023-06-10T23:17:27.026Z</time>
      </trkpt>
      <trkpt lat="47.21767" lon="-0.03248">
        <ele>82.18</ele>
        <time>2023-06-10T23:17:59.667Z</time>
      </trkpt>
      <trkpt lat="47.21767" lon="-0.03248">
        <ele>80.21</ele>
        <time>2023-06-10T23:18:32.308Z</time>
      </trkpt>
      <trkpt lat="47.21776" lon="-0.03257">
        <ele>80.42</ele>
        <time>2023-06-10T23:19:04.950Z</time>
      </trkpt>
      <trkpt lat="47.21778" lon="-0.0326">
        <ele>80.49</ele>
        <time>2023-06-10T23:19:37.593Z</time>
      </trkpt>
      <trkpt lat="47.21783" lon="-0.0327">
        <ele>80.67</ele>
        <time>2023-06-10T23:20:10.237Z</time>
      </trkpt>
      <trkpt lat="47.21776" lon="-0.03257">
        <ele>80.91</ele>
        <time>2023-06-10T23:20:42.883Z</time>
      </trkpt>
      <trkpt lat="47.21774" lon="-0.03254">
        <ele>80.98</ele>
        <time>2023-06-10T23:21:15.530Z</time>
      </trkpt>
      <trkpt lat="47.2177" lon="-0.03251">
        <ele>81.04</ele>
        <time>2023-06-10T23:21:48.177Z</time>
      </trkpt>
      <trkpt lat="47.21766" lon="-0.03247">
        <ele>81.07</ele>
        <time>2023-06-10T23:22:20.825Z</time>
      </trkpt>
      <trkpt lat="47.21756" lon="-0.03235">
        <ele>81.1</ele>
        <time>2023-06-10T23:22:53.475Z</time>
      </trkpt>
      <trkpt lat="47.2173" lon="-0.03207">
        <ele>80.79</ele>
        <time>2023-06-10T23:23:26.130Z</time>
      </trkpt>
      <trkpt lat="47.21729" lon="-0.03213">
        <ele>80.76</ele>
        <time>2023-06-10T23:23:58.786Z</time>
      </trkpt>
      <trkpt lat="47.21727" lon="-0.03225">
        <ele>80.64</ele>
        <time>2023-06-10T23:24:31.443Z</time>
      </trkpt>
      <trkpt lat="47.21726" lon="-0.03232">
        <ele>80.56</ele>
        <time>2023-06-10T23:25:04.101Z</time>
      </trkpt>
      <trkpt lat="47.21724" lon="-0.03245">
        <ele>80.34</ele>
        <time>2023-06-10T23:25:36.760Z</time>
      </trkpt>
      <trkpt lat="47.21723" lon="-0.03248">
        <ele>80.27</ele>
        <time>2023-06-10T23:26:09.420Z</time>
      </trkpt>
      <trkpt lat="47.21723" lon="-0.03251">
        <ele>80.21</ele>
        <time>2023-06-10T23:26:42.080Z</time>
      </trkpt>
      <trkpt lat="47.21724" lon="-0.03258">
        <ele>80.06</ele>
        <time>2023-06-10T23:27:14.741Z</time>
      </trkpt>
      <trkpt lat="47.21725" lon="-0.03279">
        <ele>79.5</ele>
        <time>2023-06-10T23:27:47.404Z</time>
      </trkpt>
      <trkpt lat="47.21726" lon="-0.03283">
        <ele>79.37</ele>
        <time>2023-06-10T23:28:20.068Z</time>
      </trkpt>
      <trkpt lat="47.21728" lon="-0.03289">
        <ele>79.22</ele>
        <time>2023-06-10T23:28:52.733Z</time>
      </trkpt>
      <trkpt lat="47.2173" lon="-0.03295">
        <ele>79.09</ele>
        <time>2023-06-10T23:29:25.398Z</time>
      </trkpt>
      <trkpt lat="47.21732" lon="-0.03301">
        <ele>78.99</ele>
        <time>2023-06-10T23:29:58.064Z</time>
      </trkpt>
      <trkpt lat="47.21733" lon="-0.03304">
        <ele>78.96</ele>
        <time>2023-06-10T23:30:30.730Z</time>
      </trkpt>
      <trkpt lat="47.21734" lon="-0.03307">
        <ele>78.93</ele>
        <time>2023-06-10T23:31:03.397Z</time>
      </trkpt>
      <trkpt lat="47.21737" lon="-0.03312">
        <ele>78.9</ele>
        <time>2023-06-10T23:31:36.064Z</time>
      </trkpt>
      <trkpt lat="47.21739" lon="-0.03318">
        <ele>78.9</ele>
        <time>2023-06-10T23:32:08.732Z</time>
      </trkpt>
      <trkpt lat="47.21745" lon="-0.03329">
        <ele>78.95</ele>
        <time>2023-06-10T23:32:41.402Z</time>
      </trkpt>
      <trkpt lat="47.21765" lon="-0.03372">
        <ele>79.32</ele>
        <time>2023-06-10T23:33:14.077Z</time>
      </trkpt>
      <trkpt lat="47.21768" lon="-0.03379">
        <ele>79.35</ele>
        <time>2023-06-10T23:33:46.753Z</time>
      </trkpt>
      <trkpt lat="47.21769" lon="-0.03383">
        <ele>79.38</ele>
        <time>2023-06-10T23:34:19.430Z</time>
      </trkpt>
      <trkpt lat="47.21772" lon="-0.03389">
        <ele>79.38</ele>
        <time>2023-06-10T23:34:52.107Z</time>
      </trkpt>
      <trkpt lat="47.21774" lon="-0.03395">
        <ele>79.35</ele>
        <time>2023-06-10T23:35:24.785Z</time>
      </trkpt>
      <trkpt lat="47.21776" lon="-0.03401">
        <ele>79.3</ele>
        <time>2023-06-10T23:35:57.464Z</time>
      </trkpt>
      <trkpt lat="47.21778" lon="-0.03407">
        <ele>79.21</ele>
        <time>2023-06-10T23:36:30.144Z</time>
      </trkpt>
      <trkpt lat="47.2178" lon="-0.03413">
        <ele>79.08</ele>
        <time>2023-06-10T23:37:02.824Z</time>
      </trkpt>
      <trkpt lat="47.21782" lon="-0.03419">
        <ele>78.91</ele>
        <time>2023-06-10T23:37:35.505Z</time>
      </trkpt>
      <trkpt lat="47.21784" lon="-0.03425">
        <ele>78.69</ele>
        <time>2023-06-10T23:38:08.187Z</time>
      </trkpt>
      <trkpt lat="47.21786" lon="-0.0343">
        <ele>78.43</ele>
        <time>2023-06-10T23:38:40.869Z</time>
      </trkpt>
      <trkpt lat="47.21789" lon="-0.0344">
        <ele>77.97</ele>
        <time>2023-06-10T23:39:13.553Z</time>
      </trkpt>
      <trkpt lat="47.21792" lon="-0.03455">
        <ele>77.31</ele>
        <time>2023-06-10T23:39:46.238Z</time>
      </trkpt>
      <trkpt lat="47.21795" lon="-0.03467">
        <ele>76.78</ele>
        <time>2023-06-10T23:40:18.925Z</time>
      </trkpt>
      <trkpt lat="47.21796" lon="-0.03472">
        <ele>76.59</ele>
        <time>2023-06-10T23:40:51.612Z</time>
      </trkpt>
      <trkpt lat="47.2181" lon="-0.03491">
        <ele>75.56</ele>
        <time>2023-06-10T23:41:24.302Z</time>
      </trkpt>
      <trkpt lat="47.21814" lon="-0.03497">
        <ele>75.28</ele>
        <time>2023-06-10T23:41:56.993Z</time>
      </trkpt>
      <trkpt lat="47.21816" lon="-0.03501">
        <ele>75.12</ele>
        <time>2023-06-10T23:42:29.685Z</time>
      </trkpt>
      <trkpt lat="47.21818" lon="-0.03506">
        <ele>74.95</ele>
        <time>2023-06-10T23:43:02.378Z</time>
      </trkpt>
      <trkpt lat="47.21821" lon="-0.03512">
        <ele>74.81</ele>
        <time>2023-06-10T23:43:35.071Z</time>
      </trkpt>
      <trkpt lat="47.21823" lon="-0.03517">
        <ele>74.71</ele>
        <time>2023-06-10T23:44:07.765Z</time>
      </trkpt>
      <trkpt lat="47.21826" lon="-0.03523">
        <ele>74.65</ele>
        <time>2023-06-10T23:44:40.460Z</time>
      </trkpt>
      <trkpt lat="47.21828" lon="-0.03528">
        <ele>74.62</ele>
        <time>2023-06-10T23:45:13.155Z</time>
      </trkpt>
      <trkpt lat="47.21831" lon="-0.03534">
        <ele>74.62</ele>
        <time>2023-06-10T23:45:45.851Z</time>
      </trkpt>
      <trkpt lat="47.21834" lon="-0.0354">
        <ele>74.66</ele>
        <time>2023-06-10T23:46:18.548Z</time>
      </trkpt>
      <trkpt lat="47.21834" lon="-0.0354">
        <ele>74.66</ele>
        <time>2023-06-10T23:46:51.245Z</time>
      </trkpt>
      <trkpt lat="47.21836" lon="-0.03545">
        <ele>74.72</ele>
        <time>2023-06-10T23:47:23.943Z</time>
      </trkpt>
      <trkpt lat="47.2184" lon="-0.03556">
        <ele>74.98</ele>
        <time>2023-06-10T23:47:56.642Z</time>
      </trkpt>
      <trkpt lat="47.21847" lon="-0.03573">
        <ele>75.41</ele>
        <time>2023-06-10T23:48:29.343Z</time>
      </trkpt>
      <trkpt lat="47.21851" lon="-0.03584">
        <ele>75.65</ele>
        <time>2023-06-10T23:49:02.046Z</time>
      </trkpt>
      <trkpt lat="47.21852" lon="-0.03586">
        <ele>75.67</ele>
        <time>2023-06-10T23:49:34.749Z</time>
      </trkpt>
      <trkpt lat="47.21854" lon="-0.03597">
        <ele>75.82</ele>
        <time>2023-06-10T23:50:07.453Z</time>
      </trkpt>
      <trkpt lat="47.21857" lon="-0.03608">
        <ele>75.93</ele>
        <time>2023-06-10T23:50:40.158Z</time>
      </trkpt>
      <trkpt lat="47.21859" lon="-0.03622">
        <ele>76.07</ele>
        <time>2023-06-10T23:51:12.865Z</time>
      </trkpt>
      <trkpt lat="47.21862" lon="-0.03641">
        <ele>76.3</ele>
        <time>2023-06-10T23:51:45.574Z</time>
      </trkpt>
      <trkpt lat="47.21864" lon="-0.0366">
        <ele>76.56</ele>
        <time>2023-06-10T23:52:18.285Z</time>
      </trkpt>
      <trkpt lat="47.21868" lon="-0.03687">
        <ele>76.81</ele>
        <time>2023-06-10T23:52:50.999Z</time>
      </trkpt>
      <trkpt lat="47.21868" lon="-0.03687">
        <ele>76.81</ele>
        <time>2023-06-10T23:53:23.713Z</time>
      </trkpt>
      <trkpt lat="47.21873" lon="-0.03711">
        <ele>76.99</ele>
        <time>2023-06-10T23:53:56.430Z</time>
      </trkpt>
      <trkpt lat="47.21877" lon="-0.0373">
        <ele>77.04</ele>
        <time>2023-06-10T23:54:29.149Z</time>
      </trkpt>
      <trkpt lat="47.21881" lon="-0.03749">
        <ele>77.05</ele>
        <time>2023-06-10T23:55:01.870Z</time>
      </trkpt>
      <trkpt lat="47.21887" lon="-0.03774">
        <ele>77.03</ele>
        <time>2023-06-10T23:55:34.594Z</time>
      </trkpt>
      <trkpt lat="47.21887" lon="-0.03776">
        <ele>77.02</ele>
        <time>2023-06-10T23:56:07.318Z</time>
      </trkpt>
      <trkpt lat="47.21888" lon="-0.03803">
        <ele>76.9</ele>
        <time>2023-06-10T23:56:40.045Z</time>
      </trkpt>
      <trkpt lat="47.21887" lon="-0.03806">
        <ele>76.89</ele>
        <time>2023-06-10T23:57:12.773Z</time>
      </trkpt>
      <trkpt lat="47.21885" lon="-0.03826">
        <ele>76.83</ele>
        <time>2023-06-10T23:57:45.503Z</time>
      </trkpt>
      <trkpt lat="47.21883" lon="-0.03838">
        <ele>76.81</ele>
        <time>2023-06-10T23:58:18.234Z</time>
      </trkpt>
      <trkpt lat="47.21881" lon="-0.03851">
        <ele>76.84</ele>
        <time>2023-06-10T23:58:50.967Z</time>
      </trkpt>
      <trkpt lat="47.21878" lon="-0.03869">
        <ele>76.9</ele>
        <time>2023-06-10T23:59:23.702Z</time>
      </trkpt>
      <trkpt lat="47.21878" lon="-0.03877">
        <ele>76.94</ele>
        <time>2023-06-10T23:59:56.437Z</time>
      </trkpt>
      <trkpt lat="47.21876" lon="-0.03903">
        <ele>76.95</ele>
        <time>2023-06-11T00:00:29.175Z</time>
      </trkpt>
      <trkpt lat="47.21874" lon="-0.03936">
        <ele>77.04</ele>
        <time>2023-06-11T00:01:01.917Z</time>
      </trkpt>
      <trkpt lat="47.21873" lon="-0.03956">
        <ele>77.06</ele>
        <time>2023-06-11T00:01:34.661Z</time>
      </trkpt>
      <trkpt lat="47.21871" lon="-0.03989">
        <ele>76.97</ele>
        <time>2023-06-11T00:02:07.409Z</time>
      </trkpt>
      <trkpt lat="47.21871" lon="-0.03989">
        <ele>76.97</ele>
        <time>2023-06-11T00:02:40.157Z</time>
      </trkpt>
      <trkpt lat="47.21869" lon="-0.04001">
        <ele>76.91</ele>
        <time>2023-06-11T00:03:12.906Z</time>
      </trkpt>
      <trkpt lat="47.21868" lon="-0.04008">
        <ele>76.86</ele>
        <time>2023-06-11T00:03:45.656Z</time>
      </trkpt>
      <trkpt lat="47.21866" lon="-0.0402">
        <ele>76.7</ele>
        <time>2023-06-11T00:04:18.407Z</time>
      </trkpt>
      <trkpt lat="47.21864" lon="-0.0404">
        <ele>76.4</ele>
        <time>2023-06-11T00:04:51.160Z</time>
      </trkpt>
      <trkpt lat="47.21862" lon="-0.04053">
        <ele>76.14</ele>
        <time>2023-06-11T00:05:23.915Z</time>
      </trkpt>
      <trkpt lat="47.21861" lon="-0.04057">
        <ele>76.04</ele>
        <time>2023-06-11T00:05:56.670Z</time>
      </trkpt>
      <trkpt lat="47.21862" lon="-0.04066">
        <ele>75.85</ele>
        <time>2023-06-11T00:06:29.426Z</time>
      </trkpt>
      <trkpt lat="47.21863" lon="-0.04079">
        <ele>75.47</ele>
        <time>2023-06-11T00:07:02.184Z</time>
      </trkpt>
      <trkpt lat="47.21864" lon="-0.04091">
        <ele>75.06</ele>
        <time>2023-06-11T00:07:34.943Z</time>
      </trkpt>
      <trkpt lat="47.21873" lon="-0.04122">
        <ele>73.98</ele>
        <time>2023-06-11T00:08:07.706Z</time>
      </trkpt>
      <trkpt lat="47.21874" lon="-0.04127">
        <ele>73.82</ele>
        <time>2023-06-11T00:08:40.469Z</time>
      </trkpt>
      <trkpt lat="47.21874" lon="-0.04135">
        <ele>73.6</ele>
        <time>2023-06-11T00:09:13.233Z</time>
      </trkpt>
      <trkpt lat="47.21874" lon="-0.04141">
        <ele>73.44</ele>
        <time>2023-06-11T00:09:45.998Z</time>
      </trkpt>
      <trkpt lat="47.21872" lon="-0.04154">
        <ele>73.11</ele>
        <time>2023-06-11T00:10:18.764Z</time>
      </trkpt>
      <trkpt lat="47.21871" lon="-0.04157">
        <ele>73.02</ele>
        <time>2023-06-11T00:10:51.531Z</time>
      </trkpt>
      <trkpt lat="47.21865" lon="-0.04171">
        <ele>72.58</ele>
        <time>2023-06-11T00:11:24.299Z</time>
      </trkpt>
      <trkpt lat="47.21862" lon="-0.04176">
        <ele>72.42</ele>
        <time>2023-06-11T00:11:57.068Z</time>
      </trkpt>
      <trkpt lat="47.2186" lon="-0.04182">
        <ele>72.27</ele>
        <time>2023-06-11T00:12:29.838Z</time>
      </trkpt>
      <trkpt lat="47.2185" lon="-0.04194">
        <ele>71.85</ele>
        <time>2023-06-11T00:13:02.610Z</time>
      </trkpt>
      <trkpt lat="47.21832" lon="-0.04214">
        <ele>71.11</ele>
        <time>2023-06-11T00:13:35.386Z</time>
      </trkpt>
      <trkpt lat="47.21825" lon="-0.04223">
        <ele>70.83</ele>
        <time>2023-06-11T00:14:08.163Z</time>
      </trkpt>
      <trkpt lat="47.21817" lon="-0.04232">
        <ele>70.57</ele>
        <time>2023-06-11T00:14:40.942Z</time>
      </trkpt>
      <trkpt lat="47.21815" lon="-0.04235">
        <ele>70.5</ele>
        <time>2023-06-11T00:15:13.721Z</time>
      </trkpt>
      <trkpt lat="47.21808" lon="-0.04244">
        <ele>70.33</ele>
        <time>2023-06-11T00:15:46.502Z</time>
      </trkpt>
      <trkpt lat="47.21798" lon="-0.04258">
        <ele>70.17</ele>
        <time>2023-06-11T00:16:19.285Z</time>
      </trkpt>
      <trkpt lat="47.21792" lon="-0.04267">
        <ele>70.27</ele>
        <time>2023-06-11T00:16:52.069Z</time>
      </trkpt>
      <trkpt lat="47.21785" lon="-0.04276">
        <ele>70.43</ele>
        <time>2023-06-11T00:17:24.855Z</time>
      </trkpt>
      <trkpt lat="47.21782" lon="-0.0428">
        <ele>70.54</ele>
        <time>2023-06-11T00:17:57.641Z</time>
      </trkpt>
      <trkpt lat="47.21776" lon="-0.04289">
        <ele>70.8</ele>
        <time>2023-06-11T00:18:30.429Z</time>
      </trkpt>
      <trkpt lat="47.21775" lon="-0.0429">
        <ele>70.83</ele>
        <time>2023-06-11T00:19:03.217Z</time>
      </trkpt>
      <trkpt lat="47.21768" lon="-0.04305">
        <ele>71.26</ele>
        <time>2023-06-11T00:19:36.007Z</time>
      </trkpt>
      <trkpt lat="47.21766" lon="-0.04309">
        <ele>71.38</ele>
        <time>2023-06-11T00:20:08.797Z</time>
      </trkpt>
      <trkpt lat="47.21762" lon="-0.04315">
        <ele>71.59</ele>
        <time>2023-06-11T00:20:41.588Z</time>
      </trkpt>
      <trkpt lat="47.21751" lon="-0.04335">
        <ele>72.37</ele>
        <time>2023-06-11T00:21:14.382Z</time>
      </trkpt>
      <trkpt lat="47.21745" lon="-0.04345">
        <ele>72.74</ele>
        <time>2023-06-11T00:21:47.178Z</time>
      </trkpt>
      <trkpt lat="47.21741" lon="-0.04352">
        <ele>72.96</ele>
        <time>2023-06-11T00:22:19.975Z</time>
      </trkpt>
      <trkpt lat="47.21735" lon="-0.04367">
        <ele>73.39</ele>
        <time>2023-06-11T00:22:52.773Z</time>
      </trkpt>
      <trkpt lat="47.2173" lon="-0.04379">
        <ele>73.69</ele>
        <time>2023-06-11T00:23:25.573Z</time>
      </trkpt>
      <trkpt lat="47.2173" lon="-0.04385">
        <ele>73.82</ele>
        <time>2023-06-11T00:23:58.374Z</time>
      </trkpt>
      <trkpt lat="47.21728" lon="-0.04398">
        <ele>74.06</ele>
        <time>2023-06-11T00:24:31.176Z</time>
      </trkpt>
      <trkpt lat="47.21727" lon="-0.04411">
        <ele>74.27</ele>
        <time>2023-06-11T00:25:03.979Z</time>
      </trkpt>
      <trkpt lat="47.21727" lon="-0.04417">
        <ele>74.03</ele>
        <time>2023-06-11T00:25:36.783Z</time>
      </trkpt>
      <trkpt lat="47.21726" lon="-0.04424">
        <ele>73.75</ele>
        <time>2023-06-11T00:26:09.588Z</time>
      </trkpt>
      <trkpt lat="47.21725" lon="-0.0443">
        <ele>73.43</ele>
        <time>2023-06-11T00:26:42.394Z</time>
      </trkpt>
      <trkpt lat="47.21725" lon="-0.04436">
        <ele>73.07</ele>
        <time>2023-06-11T00:27:15.200Z</time>
      </trkpt>
      <trkpt lat="47.21724" lon="-0.04449">
        <ele>72.27</ele>
        <time>2023-06-11T00:27:48.008Z</time>
      </trkpt>
      <trkpt lat="47.21723" lon="-0.04457">
        <ele>71.77</ele>
        <time>2023-06-11T00:28:20.817Z</time>
      </trkpt>
      <trkpt lat="47.21726" lon="-0.0446">
        <ele>71.41</ele>
        <time>2023-06-11T00:28:53.626Z</time>
      </trkpt>
      <trkpt lat="47.21759" lon="-0.04494">
        <ele>67.44</ele>
        <time>2023-06-11T00:29:26.442Z</time>
      </trkpt>
      <trkpt lat="47.21777" lon="-0.04512">
        <ele>65.38</ele>
        <time>2023-06-11T00:29:59.261Z</time>
      </trkpt>
      <trkpt lat="47.21787" lon="-0.04522">
        <ele>64.27</ele>
        <time>2023-06-11T00:30:32.082Z</time>
      </trkpt>
      <trkpt lat="47.21788" lon="-0.04523">
        <ele>64.12</ele>
        <time>2023-06-11T00:31:04.903Z</time>
      </trkpt>
      <trkpt lat="47.21801" lon="-0.04531">
        <ele>62.72</ele>
        <time>2023-06-11T00:31:37.726Z</time>
      </trkpt>
      <trkpt lat="47.21821" lon="-0.04545">
        <ele>60.55</ele>
        <time>2023-06-11T00:32:10.553Z</time>
      </trkpt>
      <trkpt lat="47.21829" lon="-0.04551">
        <ele>59.73</ele>
        <time>2023-06-11T00:32:43.381Z</time>
      </trkpt>
      <trkpt lat="47.2183" lon="-0.04552">
        <ele>59.6</ele>
        <time>2023-06-11T00:33:16.210Z</time>
      </trkpt>
      <trkpt lat="47.21836" lon="-0.04558">
        <ele>58.97</ele>
        <time>2023-06-11T00:33:49.040Z</time>
      </trkpt>
      <trkpt lat="47.2184" lon="-0.04561">
        <ele>58.61</ele>
        <time>2023-06-11T00:34:21.871Z</time>
      </trkpt>
      <trkpt lat="47.21846" lon="-0.04567">
        <ele>58.1</ele>
        <time>2023-06-11T00:34:54.703Z</time>
      </trkpt>
      <trkpt lat="47.2185" lon="-0.04574">
        <ele>57.64</ele>
        <time>2023-06-11T00:35:27.536Z</time>
      </trkpt>
      <trkpt lat="47.21856" lon="-0.04584">
        <ele>57.04</ele>
        <time>2023-06-11T00:36:00.370Z</time>
      </trkpt>
      <trkpt lat="47.21865" lon="-0.04598">
        <ele>56.2</ele>
        <time>2023-06-11T00:36:33.206Z</time>
      </trkpt>
      <trkpt lat="47.21871" lon="-0.04608">
        <ele>55.69</ele>
        <time>2023-06-11T00:37:06.044Z</time>
      </trkpt>
      <trkpt lat="47.21886" lon="-0.04633">
        <ele>54.54</ele>
        <time>2023-06-11T00:37:38.885Z</time>
      </trkpt>
      <trkpt lat="47.21892" lon="-0.04642">
        <ele>54.13</ele>
        <time>2023-06-11T00:38:11.728Z</time>
      </trkpt>
      <trkpt lat="47.21898" lon="-0.04652">
        <ele>53.76</ele>
        <time>2023-06-11T00:38:44.572Z</time>
      </trkpt>
      <trkpt lat="47.2191" lon="-0.04672">
        <ele>53.26</ele>
        <time>2023-06-11T00:39:17.419Z</time>
      </trkpt>
      <trkpt lat="47.21916" lon="-0.04682">
        <ele>53.03</ele>
        <time>2023-06-11T00:39:50.267Z</time>
      </trkpt>
      <trkpt lat="47.2192" lon="-0.04688">
        <ele>52.9</ele>
        <time>2023-06-11T00:40:23.116Z</time>
      </trkpt>
      <trkpt lat="47.21922" lon="-0.04692">
        <ele>52.84</ele>
        <time>2023-06-11T00:40:55.966Z</time>
      </trkpt>
      <trkpt lat="47.21944" lon="-0.04734">
        <ele>52.14</ele>
        <time>2023-06-11T00:41:28.822Z</time>
      </trkpt>
      <trkpt lat="47.21952" lon="-0.0475">
        <ele>51.91</ele>
        <time>2023-06-11T00:42:01.680Z</time>
      </trkpt>
      <trkpt lat="47.21973" lon="-0.04792">
        <ele>51.46</ele>
        <time>2023-06-11T00:42:34.544Z</time>
      </trkpt>
      <trkpt lat="47.21982" lon="-0.04808">
        <ele>51.22</ele>
        <time>2023-06-11T00:43:07.410Z</time>
      </trkpt>
      <trkpt lat="47.21984" lon="-0.04813">
        <ele>51.12</ele>
        <time>2023-06-11T00:43:40.276Z</time>
      </trkpt>
      <trkpt lat="47.2199" lon="-0.04823">
        <ele>50.87</ele>
        <time>2023-06-11T00:44:13.144Z</time>
      </trkpt>
      <trkpt lat="47.22003" lon="-0.0485">
        <ele>50.16</ele>
        <time>2023-06-11T00:44:46.016Z</time>
      </trkpt>
      <trkpt lat="47.22007" lon="-0.04857">
        <ele>50.01</ele>
        <time>2023-06-11T00:45:18.889Z</time>
      </trkpt>
      <trkpt lat="47.22009" lon="-0.04859">
        <ele>49.95</ele>
        <time>2023-06-11T00:45:51.762Z</time>
      </trkpt>
      <trkpt lat="47.22016" lon="-0.04866">
        <ele>49.81</ele>
        <time>2023-06-11T00:46:24.636Z</time>
      </trkpt>
      <trkpt lat="47.22024" lon="-0.04868">
        <ele>49.67</ele>
        <time>2023-06-11T00:46:57.512Z</time>
      </trkpt>
      <trkpt lat="47.22025" lon="-0.04867">
        <ele>49.65</ele>
        <time>2023-06-11T00:47:30.388Z</time>
      </trkpt>
      <trkpt lat="47.2204" lon="-0.04853">
        <ele>49.41</ele>
        <time>2023-06-11T00:48:03.267Z</time>
      </trkpt>
      <trkpt lat="47.22045" lon="-0.04855">
        <ele>49.35</ele>
        <time>2023-06-11T00:48:36.146Z</time>
      </trkpt>
      <trkpt lat="47.22048" lon="-0.04857">
        <ele>49.28</ele>
        <time>2023-06-11T00:49:09.026Z</time>
      </trkpt>
      <trkpt lat="47.22051" lon="-0.04864">
        <ele>49.18</ele>
        <time>2023-06-11T00:49:41.907Z</time>
      </trkpt>
      <trkpt lat="47.22061" lon="-0.04894">
        <ele>48.62</ele>
        <time>2023-06-11T00:50:14.791Z</time>
      </trkpt>
      <trkpt lat="47.22065" lon="-0.04905">
        <ele>48.38</ele>
        <time>2023-06-11T00:50:47.677Z</time>
      </trkpt>
      <trkpt lat="47.22076" lon="-0.04935">
        <ele>47.67</ele>
        <time>2023-06-11T00:51:20.567Z</time>
      </trkpt>
      <trkpt lat="47.22086" lon="-0.04964">
        <ele>46.99</ele>
        <time>2023-06-11T00:51:53.460Z</time>
      </trkpt>
      <trkpt lat="47.2209" lon="-0.04976">
        <ele>46.75</ele>
        <time>2023-06-11T00:52:26.355Z</time>
      </trkpt>
      <trkpt lat="47.22092" lon="-0.04981">
        <ele>46.65</ele>
        <time>2023-06-11T00:52:59.250Z</time>
      </trkpt>
      <trkpt lat="47.22097" lon="-0.04995">
        <ele>46.45</ele>
        <time>2023-06-11T00:53:32.147Z</time>
      </trkpt>
      <trkpt lat="47.22106" lon="-0.05002">
        <ele>46.26</ele>
        <time>2023-06-11T00:54:05.046Z</time>
      </trkpt>
      <trkpt lat="47.22121" lon="-0.05008">
        <ele>45.98</ele>
        <time>2023-06-11T00:54:37.947Z</time>
      </trkpt>
      <trkpt lat="47.22129" lon="-0.05012">
        <ele>45.85</ele>
        <time>2023-06-11T00:55:10.849Z</time>
      </trkpt>
      <trkpt lat="47.22133" lon="-0.05013">
        <ele>45.8</ele>
        <time>2023-06-11T00:55:43.752Z</time>
      </trkpt>
      <trkpt lat="47.22142" lon="-0.05066">
        <ele>45.35</ele>
        <time>2023-06-11T00:56:16.661Z</time>
      </trkpt>
      <trkpt lat="47.22147" lon="-0.05098">
        <ele>45.01</ele>
        <time>2023-06-11T00:56:49.574Z</time>
      </trkpt>
      <trkpt lat="47.2215" lon="-0.05117">
        <ele>44.77</ele>
        <time>2023-06-11T00:57:22.489Z</time>
      </trkpt>
      <trkpt lat="47.22152" lon="-0.0513">
        <ele>44.64</ele>
        <time>2023-06-11T00:57:55.405Z</time>
      </trkpt>
      <trkpt lat="47.22154" lon="-0.05142">
        <ele>44.54</ele>
        <time>2023-06-11T00:58:28.323Z</time>
      </trkpt>
      <trkpt lat="47.22158" lon="-0.05165">
        <ele>44.41</ele>
        <time>2023-06-11T00:59:01.243Z</time>
      </trkpt>
      <trkpt lat="47.22162" lon="-0.05181">
        <ele>44.33</ele>
        <time>2023-06-11T00:59:34.165Z</time>
      </trkpt>
      <trkpt lat="47.2217" lon="-0.05212">
        <ele>44.12</ele>
        <time>2023-06-11T01:00:07.091Z</time>
      </trkpt>
      <trkpt lat="47.22173" lon="-0.05224">
        <ele>44.06</ele>
        <time>2023-06-11T01:00:40.018Z</time>
      </trkpt>
      <trkpt lat="47.22183" lon="-0.05261">
        <ele>43.93</ele>
        <time>2023-06-11T01:01:12.949Z</time>
      </trkpt>
      <trkpt lat="47.22183" lon="-0.05263">
        <ele>43.91</ele>
        <time>2023-06-11T01:01:45.881Z</time>
      </trkpt>
      <trkpt lat="47.22189" lon="-0.05279">
        <ele>43.81</ele>
        <time>2023-06-11T01:02:18.814Z</time>
      </trkpt>
      <trkpt lat="47.22193" lon="-0.0529">
        <ele>43.67</ele>
        <time>2023-06-11T01:02:51.749Z</time>
      </trkpt>
      <trkpt lat="47.22206" lon="-0.05325">
        <ele>43.17</ele>
        <time>2023-06-11T01:03:24.688Z</time>
      </trkpt>
      <trkpt lat="47.22212" lon="-0.0534">
        <ele>42.97</ele>
        <time>2023-06-11T01:03:57.629Z</time>
      </trkpt>
      <trkpt lat="47.22213" lon="-0.05342">
        <ele>42.94</ele>
        <time>2023-06-11T01:04:30.570Z</time>
      </trkpt>
      <trkpt lat="47.22216" lon="-0.05355">
        <ele>42.82</ele>
        <time>2023-06-11T01:05:03.513Z</time>
      </trkpt>
      <trkpt lat="47.2222" lon="-0.05374">
        <ele>42.72</ele>
        <time>2023-06-11T01:05:36.458Z</time>
      </trkpt>
      <trkpt lat="47.2222" lon="-0.05374">
        <ele>42.72</ele>
        <time>2023-06-11T01:06:09.403Z</time>
      </trkpt>
      <trkpt lat="47.22239" lon="-0.05434">
        <ele>42.66</ele>
        <time>2023-06-11T01:06:42.355Z</time>
      </trkpt>
      <trkpt lat="47.22242" lon="-0.05446">
        <ele>42.6</ele>
        <time>2023-06-11T01:07:15.309Z</time>
      </trkpt>
      <trkpt lat="47.22246" lon="-0.05458">
        <ele>42.46</ele>
        <time>2023-06-11T01:07:48.264Z</time>
      </trkpt>
      <trkpt lat="47.2225" lon="-0.05471">
        <ele>42.28</ele>
        <time>2023-06-11T01:08:21.221Z</time>
      </trkpt>
      <trkpt lat="47.22249" lon="-0.05483">
        <ele>42.13</ele>
        <time>2023-06-11T01:08:54.179Z</time>
      </trkpt>
      <trkpt lat="47.22248" lon="-0.05496">
        <ele>42.01</ele>
        <time>2023-06-11T01:09:27.138Z</time>
      </trkpt>
      <trkpt lat="47.22246" lon="-0.05509">
        <ele>41.91</ele>
        <time>2023-06-11T01:10:00.099Z</time>
      </trkpt>
      <trkpt lat="47.22246" lon="-0.05512">
        <ele>41.89</ele>
        <time>2023-06-11T01:10:33.060Z</time>
      </trkpt>
      <trkpt lat="47.22253" lon="-0.05554">
        <ele>41.64</ele>
        <time>2023-06-11T01:11:06.026Z</time>
      </trkpt>
      <trkpt lat="47.22259" lon="-0.05587">
        <ele>41.4</ele>
        <time>2023-06-11T01:11:38.996Z</time>
      </trkpt>
      <trkpt lat="47.22259" lon="-0.05589">
        <ele>41.36</ele>
        <time>2023-06-11T01:12:11.966Z</time>
      </trkpt>
      <trkpt lat="47.22259" lon="-0.056">
        <ele>41.23</ele>
        <time>2023-06-11T01:12:44.937Z</time>
      </trkpt>
      <trkpt lat="47.2226" lon="-0.05612">
        <ele>41.02</ele>
        <time>2023-06-11T01:13:17.909Z</time>
      </trkpt>
      <trkpt lat="47.22264" lon="-0.05639">
        <ele>40.57</ele>
        <time>2023-06-11T01:13:50.884Z</time>
      </trkpt>
      <trkpt lat="47.22267" lon="-0.05662">
        <ele>40.33</ele>
        <time>2023-06-11T01:14:23.862Z</time>
      </trkpt>
      <trkpt lat="47.22269" lon="-0.05674">
        <ele>40.23</ele>
        <time>2023-06-11T01:14:56.841Z</time>
      </trkpt>
      <trkpt lat="47.22271" lon="-0.05686">
        <ele>40.17</ele>
        <time>2023-06-11T01:15:29.822Z</time>
      </trkpt>
      <trkpt lat="47.22271" lon="-0.05686">
        <ele>40.17</ele>
        <time>2023-06-11T01:16:02.803Z</time>
      </trkpt>
      <trkpt lat="47.2228" lon="-0.05699">
        <ele>40.12</ele>
        <time>2023-06-11T01:16:35.786Z</time>
      </trkpt>
      <trkpt lat="47.22298" lon="-0.05723">
        <ele>39.83</ele>
        <time>2023-06-11T01:17:08.773Z</time>
      </trkpt>
      <trkpt lat="47.22303" lon="-0.05734">
        <ele>39.72</ele>
        <time>2023-06-11T01:17:41.761Z</time>
      </trkpt>
      <trkpt lat="47.22306" lon="-0.05738">
        <ele>39.68</ele>
        <time>2023-06-11T01:18:14.750Z</time>
      </trkpt>
      <trkpt lat="47.22329" lon="-0.05768">
        <ele>39.22</ele>
        <time>2023-06-11T01:18:47.744Z</time>
      </trkpt>
      <trkpt lat="47.22342" lon="-0.05785">
        <ele>39.01</ele>
        <time>2023-06-11T01:19:20.740Z</time>
      </trkpt>
      <trkpt lat="47.22352" lon="-0.05798">
        <ele>38.89</ele>
        <time>2023-06-11T01:19:53.738Z</time>
      </trkpt>
      <trkpt lat="47.22366" lon="-0.05815">
        <ele>38.82</ele>
        <time>2023-06-11T01:20:26.739Z</time>
      </trkpt>
      <trkpt lat="47.22386" lon="-0.05841">
        <ele>38.81</ele>
        <time>2023-06-11T01:20:59.745Z</time>
      </trkpt>
      <trkpt lat="47.22395" lon="-0.05854">
        <ele>38.83</ele>
        <time>2023-06-11T01:21:32.753Z</time>
      </trkpt>
      <trkpt lat="47.22405" lon="-0.05867">
        <ele>38.63</ele>
        <time>2023-06-11T01:22:05.763Z</time>
      </trkpt>
      <trkpt lat="47.22415" lon="-0.0588">
        <ele>38.47</ele>
        <time>2023-06-11T01:22:38.775Z</time>
      </trkpt>
      <trkpt lat="47.2242" lon="-0.05886">
        <ele>38.41</ele>
        <time>2023-06-11T01:23:11.788Z</time>
      </trkpt>
      <trkpt lat="47.22414" lon="-0.05906">
        <ele>38.28</ele>
        <time>2023-06-11T01:23:44.803Z</time>
      </trkpt>
      <trkpt lat="47.22407" lon="-0.05923">
        <ele>38.17</ele>
        <time>2023-06-11T01:24:17.821Z</time>
      </trkpt>
      <trkpt lat="47.22393" lon="-0.05956">
        <ele>37.9</ele>
        <time>2023-06-11T01:24:50.843Z</time>
      </trkpt>
      <trkpt lat="47.22389" lon="-0.05967">
        <ele>37.78</ele>
        <time>2023-06-11T01:25:23.866Z</time>
      </trkpt>
      <trkpt lat="47.22384" lon="-0.05979">
        <ele>37.63</ele>
        <time>2023-06-11T01:25:56.891Z</time>
      </trkpt>
      <trkpt lat="47.22377" lon="-0.0599">
        <ele>37.46</ele>
        <time>2023-06-11T01:26:29.917Z</time>
      </trkpt>
      <trkpt lat="47.22371" lon="-0.05993">
        <ele>37.36</ele>
        <time>2023-06-11T01:27:02.944Z</time>
      </trkpt>
      <trkpt lat="47.22364" lon="-0.05997">
        <ele>37.27</ele>
        <time>2023-06-11T01:27:35.973Z</time>
      </trkpt>
      <trkpt lat="47.22363" lon="-0.05999">
        <ele>37.26</ele>
        <time>2023-06-11T01:28:09.002Z</time>
      </trkpt>
      <trkpt lat="47.22358" lon="-0.06013">
        <ele>37.17</ele>
        <time>2023-06-11T01:28:42.033Z</time>
      </trkpt>
      <trkpt lat="47.22351" lon="-0.0603">
        <ele>36.88</ele>
        <time>2023-06-11T01:29:15.066Z</time>
      </trkpt>
      <trkpt lat="47.22347" lon="-0.06042">
        <ele>36.74</ele>
        <time>2023-06-11T01:29:48.100Z</time>
      </trkpt>
      <trkpt lat="47.22343" lon="-0.06052">
        <ele>36.65</ele>
        <time>2023-06-11T01:30:21.135Z</time>
      </trkpt>
      <trkpt lat="47.22345" lon="-0.06054">
        <ele>36.63</ele>
        <time>2023-06-11T01:30:54.171Z</time>
      </trkpt>
      <trkpt lat="47.22343" lon="-0.06058">
        <ele>36.6</ele>
        <time>2023-06-11T01:31:27.207Z</time>
      </trkpt>
      <trkpt lat="47.22339" lon="-0.06069">
        <ele>36.54</ele>
        <time>2023-06-11T01:32:00.245Z</time>
      </trkpt>
      <trkpt lat="47.22334" lon="-0.0608">
        <ele>36.53</ele>
        <time>2023-06-11T01:32:33.284Z</time>
      </trkpt>
      <trkpt lat="47.22327" lon="-0.06097">
        <ele>36.6</ele>
        <time>2023-06-11T01:33:06.325Z</time>
      </trkpt>
      <trkpt lat="47.22322" lon="-0.06108">
        <ele>36.68</ele>
        <time>2023-06-11T01:33:39.368Z</time>
      </trkpt>
      <trkpt lat="47.22316" lon="-0.06122">
        <ele>36.82</ele>
        <time>2023-06-11T01:34:12.413Z</time>
      </trkpt>
      <trkpt lat="47.22315" lon="-0.06125">
        <ele>36.85</ele>
        <time>2023-06-11T01:34:45.458Z</time>
      </trkpt>
      <trkpt lat="47.22312" lon="-0.06137">
        <ele>36.94</ele>
        <time>2023-06-11T01:35:18.504Z</time>
      </trkpt>
      <trkpt lat="47.22309" lon="-0.06147">
        <ele>36.58</ele>
        <time>2023-06-11T01:35:51.551Z</time>
      </trkpt>
      <trkpt lat="47.22306" lon="-0.06158">
        <ele>36.65</ele>
        <time>2023-06-11T01:36:24.600Z</time>
      </trkpt>
      <trkpt lat="47.22305" lon="-0.06159">
        <ele>36.65</ele>
        <time>2023-06-11T01:36:57.649Z</time>
      </trkpt>
      <trkpt lat="47.22297" lon="-0.06174">
        <ele>36.79</ele>
        <time>2023-06-11T01:37:30.700Z</time>
      </trkpt>
      <trkpt lat="47.22294" lon="-0.06178">
        <ele>36.81</ele>
        <time>2023-06-11T01:38:03.752Z</time>
      </trkpt>
      <trkpt lat="47.2229" lon="-0.06183">
        <ele>36.85</ele>
        <time>2023-06-11T01:38:36.804Z</time>
      </trkpt>
      <trkpt lat="47.22275" lon="-0.06207">
        <ele>36.91</ele>
        <time>2023-06-11T01:39:09.860Z</time>
      </trkpt>
      <trkpt lat="47.22266" lon="-0.06221">
        <ele>36.89</ele>
        <time>2023-06-11T01:39:42.918Z</time>
      </trkpt>
      <trkpt lat="47.2226" lon="-0.06231">
        <ele>36.83</ele>
        <time>2023-06-11T01:40:15.978Z</time>
      </trkpt>
      <trkpt lat="47.22232" lon="-0.06273">
        <ele>36.46</ele>
        <time>2023-06-11T01:40:49.044Z</time>
      </trkpt>
      <trkpt lat="47.22226" lon="-0.06283">
        <ele>36.36</ele>
        <time>2023-06-11T01:41:22.112Z</time>
      </trkpt>
      <trkpt lat="47.22213" lon="-0.06302">
        <ele>36.12</ele>
        <time>2023-06-11T01:41:55.182Z</time>
      </trkpt>
      <trkpt lat="47.22189" lon="-0.0634">
        <ele>35.77</ele>
        <time>2023-06-11T01:42:28.258Z</time>
      </trkpt>
      <trkpt lat="47.22183" lon="-0.06348">
        <ele>35.72</ele>
        <time>2023-06-11T01:43:01.335Z</time>
      </trkpt>
      <trkpt lat="47.22175" lon="-0.0636">
        <ele>35.72</ele>
        <time>2023-06-11T01:43:34.414Z</time>
      </trkpt>
      <trkpt lat="47.22171" lon="-0.06367">
        <ele>35.7</ele>
        <time>2023-06-11T01:44:07.494Z</time>
      </trkpt>
      <trkpt lat="47.2217" lon="-0.06371">
        <ele>35.7</ele>
        <time>2023-06-11T01:44:40.575Z</time>
      </trkpt>
      <trkpt lat="47.22166" lon="-0.06382">
        <ele>35.71</ele>
        <time>2023-06-11T01:45:13.657Z</time>
      </trkpt>
      <trkpt lat="47.22166" lon="-0.06383">
        <ele>35.71</ele>
        <time>2023-06-11T01:45:46.739Z</time>
      </trkpt>
      <trkpt lat="47.22168" lon="-0.06389">
        <ele>35.74</ele>
        <time>2023-06-11T01:46:19.822Z</time>
      </trkpt>
      <trkpt lat="47.22177" lon="-0.06397">
        <ele>35.8</ele>
        <time>2023-06-11T01:46:52.907Z</time>
      </trkpt>
      <trkpt lat="47.22171" lon="-0.06407">
        <ele>35.86</ele>
        <time>2023-06-11T01:47:25.993Z</time>
      </trkpt>
      <trkpt lat="47.22156" lon="-0.06415">
        <ele>35.97</ele>
        <time>2023-06-11T01:47:59.082Z</time>
      </trkpt>
      <trkpt lat="47.22148" lon="-0.06419">
        <ele>36.06</ele>
        <time>2023-06-11T01:48:32.172Z</time>
      </trkpt>
      <trkpt lat="47.22126" lon="-0.0643">
        <ele>36.32</ele>
        <time>2023-06-11T01:49:05.266Z</time>
      </trkpt>
      <trkpt lat="47.22109" lon="-0.06439">
        <ele>36.49</ele>
        <time>2023-06-11T01:49:38.362Z</time>
      </trkpt>
      <trkpt lat="47.22101" lon="-0.06443">
        <ele>36.58</ele>
        <time>2023-06-11T01:50:11.460Z</time>
      </trkpt>
      <trkpt lat="47.22092" lon="-0.06446">
        <ele>36.69</ele>
        <time>2023-06-11T01:50:44.559Z</time>
      </trkpt>
      <trkpt lat="47.22075" lon="-0.06452">
        <ele>36.85</ele>
        <time>2023-06-11T01:51:17.661Z</time>
      </trkpt>
      <trkpt lat="47.22053" lon="-0.06459">
        <ele>37.08</ele>
        <time>2023-06-11T01:51:50.767Z</time>
      </trkpt>
      <trkpt lat="47.22044" lon="-0.06462">
        <ele>37.16</ele>
        <time>2023-06-11T01:52:23.874Z</time>
      </trkpt>
      <trkpt lat="47.22018" lon="-0.06471">
        <ele>37.32</ele>
        <time>2023-06-11T01:52:56.985Z</time>
      </trkpt>
      <trkpt lat="47.22005" lon="-0.06476">
        <ele>37.43</ele>
        <time>2023-06-11T01:53:30.099Z</time>
      </trkpt>
      <trkpt lat="47.21987" lon="-0.06482">
        <ele>37.59</ele>
        <time>2023-06-11T01:54:03.216Z</time>
      </trkpt>
      <trkpt lat="47.21984" lon="-0.06483">
        <ele>37.63</ele>
        <time>2023-06-11T01:54:36.333Z</time>
      </trkpt>
      <trkpt lat="47.21966" lon="-0.06491">
        <ele>37.86</ele>
        <time>2023-06-11T01:55:09.453Z</time>
      </trkpt>
      <trkpt lat="47.21957" lon="-0.06494">
        <ele>37.94</ele>
        <time>2023-06-11T01:55:42.575Z</time>
      </trkpt>
      <trkpt lat="47.21934" lon="-0.06504">
        <ele>38.07</ele>
        <time>2023-06-11T01:56:15.700Z</time>
      </trkpt>
      <trkpt lat="47.21932" lon="-0.06505">
        <ele>38.09</ele>
        <time>2023-06-11T01:56:48.826Z</time>
      </trkpt>
      <trkpt lat="47.21906" lon="-0.06521">
        <ele>38.27</ele>
        <time>2023-06-11T01:57:21.956Z</time>
      </trkpt>
      <trkpt lat="47.21903" lon="-0.06524">
        <ele>38.3</ele>
        <time>2023-06-11T01:57:55.087Z</time>
      </trkpt>
      <trkpt lat="47.21895" lon="-0.0653">
        <ele>38.34</ele>
        <time>2023-06-11T01:58:28.219Z</time>
      </trkpt>
      <trkpt lat="47.21884" lon="-0.06539">
        <ele>38.34</ele>
        <time>2023-06-11T01:59:01.353Z</time>
      </trkpt>
      <trkpt lat="47.2188" lon="-0.06544">
        <ele>38.35</ele>
        <time>2023-06-11T01:59:34.488Z</time>
      </trkpt>
      <trkpt lat="47.21873" lon="-0.06553">
        <ele>38.38</ele>
        <time>2023-06-11T02:00:07.625Z</time>
      </trkpt>
      <trkpt lat="47.2186" lon="-0.06568">
        <ele>38.46</ele>
        <time>2023-06-11T02:00:40.764Z</time>
      </trkpt>
      <trkpt lat="47.21836" lon="-0.06601">
        <ele>38.64</ele>
        <time>2023-06-11T02:01:13.908Z</time>
      </trkpt>
      <trkpt lat="47.21817" lon="-0.06628">
        <ele>38.86</ele>
        <time>2023-06-11T02:01:47.057Z</time>
      </trkpt>
      <trkpt lat="47.21801" lon="-0.0665">
        <ele>38.86</ele>
        <time>2023-06-11T02:02:20.209Z</time>
      </trkpt>
      <trkpt lat="47.21798" lon="-0.06654">
        <ele>38.87</ele>
        <time>2023-06-11T02:02:53.362Z</time>
      </trkpt>
      <trkpt lat="47.21794" lon="-0.06664">
        <ele>38.91</ele>
        <time>2023-06-11T02:03:26.516Z</time>
      </trkpt>
      <trkpt lat="47.21795" lon="-0.06679">
        <ele>38.96</ele>
        <time>2023-06-11T02:03:59.672Z</time>
      </trkpt>
      <trkpt lat="47.21798" lon="-0.06698">
        <ele>39.02</ele>
        <time>2023-06-11T02:04:32.830Z</time>
      </trkpt>
      <trkpt lat="47.21801" lon="-0.06723">
        <ele>39.04</ele>
        <time>2023-06-11T02:05:05.991Z</time>
      </trkpt>
      <trkpt lat="47.21804" lon="-0.06743">
        <ele>39.12</ele>
        <time>2023-06-11T02:05:39.154Z</time>
      </trkpt>
      <trkpt lat="47.21806" lon="-0.06755">
        <ele>39.24</ele>
        <time>2023-06-11T02:06:12.318Z</time>
      </trkpt>
      <trkpt lat="47.21809" lon="-0.06775">
        <ele>39.47</ele>
        <time>2023-06-11T02:06:45.485Z</time>
      </trkpt>
      <trkpt lat="47.21816" lon="-0.06823">
        <ele>39.75</ele>
        <time>2023-06-11T02:07:18.657Z</time>
      </trkpt>
      <trkpt lat="47.21815" lon="-0.06823">
        <ele>39.77</ele>
        <time>2023-06-11T02:07:51.829Z</time>
      </trkpt>
      <trkpt lat="47.218" lon="-0.06828">
        <ele>39.78</ele>
        <time>2023-06-11T02:08:25.004Z</time>
      </trkpt>
      <trkpt lat="47.21792" lon="-0.06832">
        <ele>39.8</ele>
        <time>2023-06-11T02:08:58.180Z</time>
      </trkpt>
      <trkpt lat="47.21772" lon="-0.0684">
        <ele>40.14</ele>
        <time>2023-06-11T02:09:31.359Z</time>
      </trkpt>
      <trkpt lat="47.21771" lon="-0.0684">
        <ele>40.16</ele>
        <time>2023-06-11T02:10:04.538Z</time>
      </trkpt>
      <trkpt lat="47.21737" lon="-0.06835">
        <ele>40.35</ele>
        <time>2023-06-11T02:10:37.723Z</time>
      </trkpt>
      <trkpt lat="47.21737" lon="-0.06835">
        <ele>40.35</ele>
        <time>2023-06-11T02:11:10.908Z</time>
      </trkpt>
      <trkpt lat="47.21728" lon="-0.06837">
        <ele>40.38</ele>
        <time>2023-06-11T02:11:44.094Z</time>
      </trkpt>
      <trkpt lat="47.21719" lon="-0.06838">
        <ele>40.37</ele>
        <time>2023-06-11T02:12:17.282Z</time>
      </trkpt>
      <trkpt lat="47.21681" lon="-0.06846">
        <ele>40.18</ele>
        <time>2023-06-11T02:12:50.476Z</time>
      </trkpt>
      <trkpt lat="47.21647" lon="-0.06852">
        <ele>39.57</ele>
        <time>2023-06-11T02:13:23.675Z</time>
      </trkpt>
      <trkpt lat="47.21627" lon="-0.06855">
        <ele>39.23</ele>
        <time>2023-06-11T02:13:56.878Z</time>
      </trkpt>
      <trkpt lat="47.21614" lon="-0.06858">
        <ele>38.96</ele>
        <time>2023-06-11T02:14:30.083Z</time>
      </trkpt>
      <trkpt lat="47.21605" lon="-0.06859">
        <ele>38.76</ele>
        <time>2023-06-11T02:15:03.289Z</time>
      </trkpt>
      <trkpt lat="47.21596" lon="-0.06861">
        <ele>38.52</ele>
        <time>2023-06-11T02:15:36.497Z</time>
      </trkpt>
      <trkpt lat="47.21574" lon="-0.06864">
        <ele>37.83</ele>
        <time>2023-06-11T02:16:09.708Z</time>
      </trkpt>
      <trkpt lat="47.2157" lon="-0.06865">
        <ele>37.72</ele>
        <time>2023-06-11T02:16:42.920Z</time>
      </trkpt>
      <trkpt lat="47.21565" lon="-0.06865">
        <ele>37.58</ele>
        <time>2023-06-11T02:17:16.133Z</time>
      </trkpt>
      <trkpt lat="47.21556" lon="-0.06865">
        <ele>37.36</ele>
        <time>2023-06-11T02:17:49.347Z</time>
      </trkpt>
      <trkpt lat="47.21538" lon="-0.06865">
        <ele>37.01</ele>
        <time>2023-06-11T02:18:22.564Z</time>
      </trkpt>
      <trkpt lat="47.21514" lon="-0.06865">
        <ele>36.65</ele>
        <time>2023-06-11T02:18:55.785Z</time>
      </trkpt>
      <trkpt lat="47.21505" lon="-0.06865">
        <ele>36.54</ele>
        <time>2023-06-11T02:19:29.007Z</time>
      </trkpt>
      <trkpt lat="47.21496" lon="-0.06865">
        <ele>36.51</ele>
        <time>2023-06-11T02:20:02.231Z</time>
      </trkpt>
      <trkpt lat="47.21487" lon="-0.06865">
        <ele>36.56</ele>
        <time>2023-06-11T02:20:35.456Z</time>
      </trkpt>
      <trkpt lat="47.2148" lon="-0.06865">
        <ele>36.62</ele>
        <time>2023-06-11T02:21:08.682Z</time>
      </trkpt>
      <trkpt lat="47.2148" lon="-0.06874">
        <ele>36.68</ele>
        <time>2023-06-11T02:21:41.909Z</time>
      </trkpt>
      <trkpt lat="47.2148" lon="-0.06881">
        <ele>36.68</ele>
        <time>2023-06-11T02:22:15.137Z</time>
      </trkpt>
      <trkpt lat="47.2148" lon="-0.06887">
        <ele>36.66</ele>
        <time>2023-06-11T02:22:48.366Z</time>
      </trkpt>
      <trkpt lat="47.2148" lon="-0.0689">
        <ele>36.63</ele>
        <time>2023-06-11T02:23:21.595Z</time>
      </trkpt>
      <trkpt lat="47.21479" lon="-0.06897">
        <ele>36.56</ele>
        <time>2023-06-11T02:23:54.825Z</time>
      </trkpt>
      <trkpt lat="47.21476" lon="-0.06901">
        <ele>36.5</ele>
        <time>2023-06-11T02:24:28.055Z</time>
      </trkpt>
      <trkpt lat="47.21465" lon="-0.06904">
        <ele>36.34</ele>
        <time>2023-06-11T02:25:01.287Z</time>
      </trkpt>
      <trkpt lat="47.21456" lon="-0.06907">
        <ele>36.16</ele>
        <time>2023-06-11T02:25:34.521Z</time>
      </trkpt>
      <trkpt lat="47.21439" lon="-0.06911">
        <ele>36.21</ele>
        <time>2023-06-11T02:26:07.757Z</time>
      </trkpt>
      <trkpt lat="47.21427" lon="-0.06915">
        <ele>36.29</ele>
        <time>2023-06-11T02:26:40.995Z</time>
      </trkpt>
      <trkpt lat="47.21423" lon="-0.06916">
        <ele>36.33</ele>
        <time>2023-06-11T02:27:14.234Z</time>
      </trkpt>
      <trkpt lat="47.21425" lon="-0.06967">
        <ele>36.74</ele>
        <time>2023-06-11T02:27:47.478Z</time>
      </trkpt>
      <trkpt lat="47.21425" lon="-0.06986">
        <ele>36.85</ele>
        <time>2023-06-11T02:28:20.725Z</time>
      </trkpt>
      <trkpt lat="47.21426" lon="-0.07">
        <ele>36.95</ele>
        <time>2023-06-11T02:28:53.973Z</time>
      </trkpt>
      <trkpt lat="47.21426" lon="-0.07016">
        <ele>37.08</ele>
        <time>2023-06-11T02:29:27.223Z</time>
      </trkpt>
      <trkpt lat="47.21428" lon="-0.07046">
        <ele>37.32</ele>
        <time>2023-06-11T02:30:00.476Z</time>
      </trkpt>
      <trkpt lat="47.21429" lon="-0.07059">
        <ele>37.45</ele>
        <time>2023-06-11T02:30:33.731Z</time>
      </trkpt>
      <trkpt lat="47.21431" lon="-0.07091">
        <ele>37.89</ele>
        <time>2023-06-11T02:31:06.989Z</time>
      </trkpt>
      <trkpt lat="47.21436" lon="-0.07157">
        <ele>38.65</ele>
        <time>2023-06-11T02:31:40.254Z</time>
      </trkpt>
      <trkpt lat="47.21438" lon="-0.0719">
        <ele>39.1</ele>
        <time>2023-06-11T02:32:13.523Z</time>
      </trkpt>
      <trkpt lat="47.2144" lon="-0.07209">
        <ele>39.43</ele>
        <time>2023-06-11T02:32:46.794Z</time>
      </trkpt>
      <trkpt lat="47.21441" lon="-0.07229">
        <ele>39.63</ele>
        <time>2023-06-11T02:33:20.067Z</time>
      </trkpt>
      <trkpt lat="47.21442" lon="-0.07242">
        <ele>39.79</ele>
        <time>2023-06-11T02:33:53.342Z</time>
      </trkpt>
      <trkpt lat="47.21443" lon="-0.07262">
        <ele>40.08</ele>
        <time>2023-06-11T02:34:26.619Z</time>
      </trkpt>
      <trkpt lat="47.21445" lon="-0.07288">
        <ele>40.42</ele>
        <time>2023-06-11T02:34:59.899Z</time>
      </trkpt>
      <trkpt lat="47.21449" lon="-0.0734">
        <ele>41.19</ele>
        <time>2023-06-11T02:35:33.184Z</time>
      </trkpt>
      <trkpt lat="47.2145" lon="-0.07359">
        <ele>41.51</ele>
        <time>2023-06-11T02:36:06.472Z</time>
      </trkpt>
      <trkpt lat="47.21452" lon="-0.07379">
        <ele>41.86</ele>
        <time>2023-06-11T02:36:39.762Z</time>
      </trkpt>
      <trkpt lat="47.21453" lon="-0.07405">
        <ele>42.4</ele>
        <time>2023-06-11T02:37:13.055Z</time>
      </trkpt>
      <trkpt lat="47.21457" lon="-0.07449">
        <ele>43.01</ele>
        <time>2023-06-11T02:37:46.352Z</time>
      </trkpt>
      <trkpt lat="47.2146" lon="-0.07498">
        <ele>43.51</ele>
        <time>2023-06-11T02:38:19.655Z</time>
      </trkpt>
      <trkpt lat="47.2146" lon="-0.075">
        <ele>43.54</ele>
        <time>2023-06-11T02:38:52.958Z</time>
      </trkpt>
      <trkpt lat="47.21465" lon="-0.07518">
        <ele>43.69</ele>
        <time>2023-06-11T02:39:26.263Z</time>
      </trkpt>
      <trkpt lat="47.21468" lon="-0.07531">
        <ele>43.72</ele>
        <time>2023-06-11T02:39:59.569Z</time>
      </trkpt>
      <trkpt lat="47.21469" lon="-0.07537">
        <ele>43.7</ele>
        <time>2023-06-11T02:40:32.876Z</time>
      </trkpt>
      <trkpt lat="47.21471" lon="-0.07543">
        <ele>43.64</ele>
        <time>2023-06-11T02:41:06.184Z</time>
      </trkpt>
      <trkpt lat="47.21472" lon="-0.07549">
        <ele>43.54</ele>
        <time>2023-06-11T02:41:39.493Z</time>
      </trkpt>
      <trkpt lat="47.21474" lon="-0.07555">
        <ele>43.45</ele>
        <time>2023-06-11T02:42:12.802Z</time>
      </trkpt>
      <trkpt lat="47.21477" lon="-0.07567">
        <ele>43.31</ele>
        <time>2023-06-11T02:42:46.113Z</time>
      </trkpt>
      <trkpt lat="47.2148" lon="-0.07579">
        <ele>42.83</ele>
        <time>2023-06-11T02:43:19.425Z</time>
      </trkpt>
      <trkpt lat="47.21482" lon="-0.07585">
        <ele>42.56</ele>
        <time>2023-06-11T02:43:52.738Z</time>
      </trkpt>
      <trkpt lat="47.21486" lon="-0.07597">
        <ele>41.96</ele>
        <time>2023-06-11T02:44:26.052Z</time>
      </trkpt>
      <trkpt lat="47.21487" lon="-0.07603">
        <ele>41.63</ele>
        <time>2023-06-11T02:44:59.367Z</time>
      </trkpt>
      <trkpt lat="47.2149" lon="-0.07613">
        <ele>41.06</ele>
        <time>2023-06-11T02:45:32.683Z</time>
      </trkpt>
      <trkpt lat="47.21486" lon="-0.07621">
        <ele>40.56</ele>
        <time>2023-06-11T02:46:06.000Z</time>
      </trkpt>
      <trkpt lat="47.21483" lon="-0.07627">
        <ele>40.14</ele>
        <time>2023-06-11T02:46:39.318Z</time>
      </trkpt>
      <trkpt lat="47.21482" lon="-0.07632">
        <ele>39.87</ele>
        <time>2023-06-11T02:47:12.637Z</time>
      </trkpt>
      <trkpt lat="47.21478" lon="-0.07651">
        <ele>38.91</ele>
        <time>2023-06-11T02:47:45.958Z</time>
      </trkpt>
      <trkpt lat="47.21475" lon="-0.07663">
        <ele>38.31</ele>
        <time>2023-06-11T02:48:19.280Z</time>
      </trkpt>
      <trkpt lat="47.21472" lon="-0.07676">
        <ele>37.77</ele>
        <time>2023-06-11T02:48:52.604Z</time>
      </trkpt>
      <trkpt lat="47.21469" lon="-0.07688">
        <ele>37.31</ele>
        <time>2023-06-11T02:49:25.929Z</time>
      </trkpt>
      <trkpt lat="47.21469" lon="-0.07688">
        <ele>37.31</ele>
        <time>2023-06-11T02:49:59.254Z</time>
      </trkpt>
      <trkpt lat="47.21465" lon="-0.077">
        <ele>36.88</ele>
        <time>2023-06-11T02:50:32.581Z</time>
      </trkpt>
      <trkpt lat="47.21462" lon="-0.07706">
        <ele>36.67</ele>
        <time>2023-06-11T02:51:05.908Z</time>
      </trkpt>
      <trkpt lat="47.2146" lon="-0.07711">
        <ele>36.51</ele>
        <time>2023-06-11T02:51:39.236Z</time>
      </trkpt>
      <trkpt lat="47.21457" lon="-0.07716">
        <ele>36.34</ele>
        <time>2023-06-11T02:52:12.565Z</time>
      </trkpt>
      <trkpt lat="47.21452" lon="-0.07727">
        <ele>36.04</ele>
        <time>2023-06-11T02:52:45.895Z</time>
      </trkpt>
      <trkpt lat="47.21437" lon="-0.0776">
        <ele>35.19</ele>
        <time>2023-06-11T02:53:19.229Z</time>
      </trkpt>
      <trkpt lat="47.21434" lon="-0.07767">
        <ele>35.03</ele>
        <time>2023-06-11T02:53:52.564Z</time>
      </trkpt>
      <trkpt lat="47.21421" lon="-0.07791">
        <ele>34.47</ele>
        <time>2023-06-11T02:54:25.903Z</time>
      </trkpt>
      <trkpt lat="47.21415" lon="-0.07801">
        <ele>34.26</ele>
        <time>2023-06-11T02:54:59.243Z</time>
      </trkpt>
      <trkpt lat="47.21406" lon="-0.07816">
        <ele>34</ele>
        <time>2023-06-11T02:55:32.585Z</time>
      </trkpt>
      <trkpt lat="47.21392" lon="-0.07842">
        <ele>33.64</ele>
        <time>2023-06-11T02:56:05.931Z</time>
      </trkpt>
      <trkpt lat="47.21385" lon="-0.07859">
        <ele>33.44</ele>
        <time>2023-06-11T02:56:39.279Z</time>
      </trkpt>
      <trkpt lat="47.21381" lon="-0.0787">
        <ele>33.36</ele>
        <time>2023-06-11T02:57:12.629Z</time>
      </trkpt>
      <trkpt lat="47.2137" lon="-0.07899">
        <ele>33.24</ele>
        <time>2023-06-11T02:57:45.982Z</time>
      </trkpt>
      <trkpt lat="47.21365" lon="-0.0791">
        <ele>33.37</ele>
        <time>2023-06-11T02:58:19.336Z</time>
      </trkpt>
      <trkpt lat="47.21361" lon="-0.07921">
        <ele>33.47</ele>
        <time>2023-06-11T02:58:52.692Z</time>
      </trkpt>
      <trkpt lat="47.21359" lon="-0.07926">
        <ele>33.49</ele>
        <time>2023-06-11T02:59:26.049Z</time>
      </trkpt>
      <trkpt lat="47.21358" lon="-0.07928">
        <ele>33.49</ele>
        <time>2023-06-11T02:59:59.406Z</time>
      </trkpt>
      <trkpt lat="47.21352" lon="-0.07936">
        <ele>33.49</ele>
        <time>2023-06-11T03:00:32.764Z</time>
      </trkpt>
      <trkpt lat="47.2135" lon="-0.07939">
        <ele>33.47</ele>
        <time>2023-06-11T03:01:06.123Z</time>
      </trkpt>
      <trkpt lat="47.21345" lon="-0.07942">
        <ele>33.45</ele>
        <time>2023-06-11T03:01:39.482Z</time>
      </trkpt>
      <trkpt lat="47.21345" lon="-0.07942">
        <ele>33.45</ele>
        <time>2023-06-11T03:02:12.841Z</time>
      </trkpt>
      <trkpt lat="47.21327" lon="-0.07946">
        <ele>33.3</ele>
        <time>2023-06-11T03:02:46.203Z</time>
      </trkpt>
      <trkpt lat="47.21325" lon="-0.07946">
        <ele>33.27</ele>
        <time>2023-06-11T03:03:19.566Z</time>
      </trkpt>
      <trkpt lat="47.21319" lon="-0.07949">
        <ele>33.2</ele>
        <time>2023-06-11T03:03:52.930Z</time>
      </trkpt>
      <trkpt lat="47.2131" lon="-0.07953">
        <ele>33.04</ele>
        <time>2023-06-11T03:04:26.295Z</time>
      </trkpt>
      <trkpt lat="47.21302" lon="-0.07957">
        <ele>32.81</ele>
        <time>2023-06-11T03:04:59.662Z</time>
      </trkpt>
      <trkpt lat="47.21295" lon="-0.0796">
        <ele>32.57</ele>
        <time>2023-06-11T03:05:33.030Z</time>
      </trkpt>
      <trkpt lat="47.21293" lon="-0.07961">
        <ele>32.52</ele>
        <time>2023-06-11T03:06:06.398Z</time>
      </trkpt>
      <trkpt lat="47.21289" lon="-0.07964">
        <ele>32.35</ele>
        <time>2023-06-11T03:06:39.767Z</time>
      </trkpt>
      <trkpt lat="47.21281" lon="-0.07969">
        <ele>31.97</ele>
        <time>2023-06-11T03:07:13.137Z</time>
      </trkpt>
      <trkpt lat="47.21273" lon="-0.07975">
        <ele>31.54</ele>
        <time>2023-06-11T03:07:46.509Z</time>
      </trkpt>
      <trkpt lat="47.21265" lon="-0.07977">
        <ele>31.16</ele>
        <time>2023-06-11T03:08:19.882Z</time>
      </trkpt>
      <trkpt lat="47.21243" lon="-0.07981">
        <ele>30.3</ele>
        <time>2023-06-11T03:08:53.258Z</time>
      </trkpt>
      <trkpt lat="47.21235" lon="-0.07982">
        <ele>30.07</ele>
        <time>2023-06-11T03:09:26.636Z</time>
      </trkpt>
      <trkpt lat="47.21222" lon="-0.07978">
        <ele>29.69</ele>
        <time>2023-06-11T03:10:00.016Z</time>
      </trkpt>
      <trkpt lat="47.2121" lon="-0.07973">
        <ele>29.4</ele>
        <time>2023-06-11T03:10:33.398Z</time>
      </trkpt>
      <trkpt lat="47.21202" lon="-0.0797">
        <ele>29.26</ele>
        <time>2023-06-11T03:11:06.781Z</time>
      </trkpt>
      <trkpt lat="47.21193" lon="-0.07968">
        <ele>29.16</ele>
        <time>2023-06-11T03:11:40.166Z</time>
      </trkpt>
      <trkpt lat="47.21177" lon="-0.07962">
        <ele>29.06</ele>
        <time>2023-06-11T03:12:13.553Z</time>
      </trkpt>
      <trkpt lat="47.21163" lon="-0.07957">
        <ele>29.04</ele>
        <time>2023-06-11T03:12:46.943Z</time>
      </trkpt>
      <trkpt lat="47.21151" lon="-0.07955">
        <ele>29.03</ele>
        <time>2023-06-11T03:13:20.335Z</time>
      </trkpt>
      <trkpt lat="47.21142" lon="-0.07954">
        <ele>29.02</ele>
        <time>2023-06-11T03:13:53.728Z</time>
      </trkpt>
      <trkpt lat="47.21121" lon="-0.07957">
        <ele>29.01</ele>
        <time>2023-06-11T03:14:27.124Z</time>
      </trkpt>
      <trkpt lat="47.21111" lon="-0.0796">
        <ele>29.01</ele>
        <time>2023-06-11T03:15:00.522Z</time>
      </trkpt>
      <trkpt lat="47.21102" lon="-0.07962">
        <ele>29.03</ele>
        <time>2023-06-11T03:15:33.921Z</time>
      </trkpt>
      <trkpt lat="47.21076" lon="-0.07968">
        <ele>29.13</ele>
        <time>2023-06-11T03:16:07.325Z</time>
      </trkpt>
      <trkpt lat="47.21067" lon="-0.07971">
        <ele>29.19</ele>
        <time>2023-06-11T03:16:40.730Z</time>
      </trkpt>
      <trkpt lat="47.21058" lon="-0.07973">
        <ele>29.27</ele>
        <time>2023-06-11T03:17:14.137Z</time>
      </trkpt>
      <trkpt lat="47.21049" lon="-0.07975">
        <ele>29.39</ele>
        <time>2023-06-11T03:17:47.545Z</time>
      </trkpt>
      <trkpt lat="47.21041" lon="-0.07977">
        <ele>29.38</ele>
        <time>2023-06-11T03:18:20.954Z</time>
      </trkpt>
      <trkpt lat="47.21037" lon="-0.07978">
        <ele>29.36</ele>
        <time>2023-06-11T03:18:54.364Z</time>
      </trkpt>
      <trkpt lat="47.21032" lon="-0.07978">
        <ele>29.34</ele>
        <time>2023-06-11T03:19:27.775Z</time>
      </trkpt>
      <trkpt lat="47.21015" lon="-0.0798">
        <ele>29.13</ele>
        <time>2023-06-11T03:20:01.188Z</time>
      </trkpt>
      <trkpt lat="47.21014" lon="-0.07988">
        <ele>29.07</ele>
        <time>2023-06-11T03:20:34.602Z</time>
      </trkpt>
      <trkpt lat="47.21013" lon="-0.08001">
        <ele>29</ele>
        <time>2023-06-11T03:21:08.018Z</time>
      </trkpt>
      <trkpt lat="47.21012" lon="-0.0801">
        <ele>28.96</ele>
        <time>2023-06-11T03:21:41.435Z</time>
      </trkpt>
      <trkpt lat="47.21007" lon="-0.08028">
        <ele>28.89</ele>
        <time>2023-06-11T03:22:14.854Z</time>
      </trkpt>
      <trkpt lat="47.20997" lon="-0.08039">
        <ele>28.82</ele>
        <time>2023-06-11T03:22:48.275Z</time>
      </trkpt>
      <trkpt lat="47.20957" lon="-0.08062">
        <ele>28.59</ele>
        <time>2023-06-11T03:23:21.703Z</time>
      </trkpt>
      <trkpt lat="47.20954" lon="-0.08064">
        <ele>28.56</ele>
        <time>2023-06-11T03:23:55.131Z</time>
      </trkpt>
      <trkpt lat="47.20941" lon="-0.08085">
        <ele>28.44</ele>
        <time>2023-06-11T03:24:28.562Z</time>
      </trkpt>
      <trkpt lat="47.20933" lon="-0.081">
        <ele>28.38</ele>
        <time>2023-06-11T03:25:01.995Z</time>
      </trkpt>
      <trkpt lat="47.2092" lon="-0.08121">
        <ele>28.24</ele>
        <time>2023-06-11T03:25:35.432Z</time>
      </trkpt>
      <trkpt lat="47.20906" lon="-0.08133">
        <ele>28.13</ele>
        <time>2023-06-11T03:26:08.871Z</time>
      </trkpt>
      <trkpt lat="47.20906" lon="-0.08133">
        <ele>28.13</ele>
        <time>2023-06-11T03:26:42.310Z</time>
      </trkpt>
      <trkpt lat="47.20902" lon="-0.08135">
        <ele>28.11</ele>
        <time>2023-06-11T03:27:15.750Z</time>
      </trkpt>
      <trkpt lat="47.20881" lon="-0.08147">
        <ele>28.11</ele>
        <time>2023-06-11T03:27:49.193Z</time>
      </trkpt>
      <trkpt lat="47.20861" lon="-0.08157">
        <ele>28.09</ele>
        <time>2023-06-11T03:28:22.640Z</time>
      </trkpt>
      <trkpt lat="47.20829" lon="-0.08166">
        <ele>28.06</ele>
        <time>2023-06-11T03:28:56.092Z</time>
      </trkpt>
      <trkpt lat="47.20811" lon="-0.08171">
        <ele>28.12</ele>
        <time>2023-06-11T03:29:29.547Z</time>
      </trkpt>
      <trkpt lat="47.20787" lon="-0.08178">
        <ele>28.3</ele>
        <time>2023-06-11T03:30:03.006Z</time>
      </trkpt>
      <trkpt lat="47.20771" lon="-0.08183">
        <ele>28.43</ele>
        <time>2023-06-11T03:30:36.467Z</time>
      </trkpt>
      <trkpt lat="47.20763" lon="-0.08185">
        <ele>28.48</ele>
        <time>2023-06-11T03:31:09.930Z</time>
      </trkpt>
      <trkpt lat="47.20754" lon="-0.08188">
        <ele>28.51</ele>
        <time>2023-06-11T03:31:43.394Z</time>
      </trkpt>
      <trkpt lat="47.20732" lon="-0.08195">
        <ele>28.52</ele>
        <time>2023-06-11T03:32:16.862Z</time>
      </trkpt>
      <trkpt lat="47.20719" lon="-0.08199">
        <ele>28.57</ele>
        <time>2023-06-11T03:32:50.332Z</time>
      </trkpt>
      <trkpt lat="47.20697" lon="-0.08205">
        <ele>28.62</ele>
        <time>2023-06-11T03:33:23.806Z</time>
      </trkpt>
      <trkpt lat="47.20688" lon="-0.08208">
        <ele>28.6</ele>
        <time>2023-06-11T03:33:57.281Z</time>
      </trkpt>
      <trkpt lat="47.20682" lon="-0.0821">
        <ele>28.56</ele>
        <time>2023-06-11T03:34:30.757Z</time>
      </trkpt>
      <trkpt lat="47.20654" lon="-0.08222">
        <ele>28.39</ele>
        <time>2023-06-11T03:35:04.238Z</time>
      </trkpt>
      <trkpt lat="47.20619" lon="-0.08237">
        <ele>28.14</ele>
        <time>2023-06-11T03:35:37.725Z</time>
      </trkpt>
      <trkpt lat="47.20585" lon="-0.08252">
        <ele>27.83</ele>
        <time>2023-06-11T03:36:11.217Z</time>
      </trkpt>
      <trkpt lat="47.20559" lon="-0.08263">
        <ele>27.73</ele>
        <time>2023-06-11T03:36:44.714Z</time>
      </trkpt>
      <trkpt lat="47.20537" lon="-0.08273">
        <ele>27.6</ele>
        <time>2023-06-11T03:37:18.214Z</time>
      </trkpt>
      <trkpt lat="47.20525" lon="-0.08278">
        <ele>27.55</ele>
        <time>2023-06-11T03:37:51.716Z</time>
      </trkpt>
      <trkpt lat="47.20511" lon="-0.0828">
        <ele>27.5</ele>
        <time>2023-06-11T03:38:25.221Z</time>
      </trkpt>
      <trkpt lat="47.20502" lon="-0.08282">
        <ele>27.49</ele>
        <time>2023-06-11T03:38:58.727Z</time>
      </trkpt>
      <trkpt lat="47.20493" lon="-0.08283">
        <ele>27.51</ele>
        <time>2023-06-11T03:39:32.234Z</time>
      </trkpt>
      <trkpt lat="47.20476" lon="-0.08286">
        <ele>27.6</ele>
        <time>2023-06-11T03:40:05.744Z</time>
      </trkpt>
      <trkpt lat="47.20467" lon="-0.08288">
        <ele>27.62</ele>
        <time>2023-06-11T03:40:39.256Z</time>
      </trkpt>
      <trkpt lat="47.2046" lon="-0.08289">
        <ele>27.6</ele>
        <time>2023-06-11T03:41:12.769Z</time>
      </trkpt>
      <trkpt lat="47.20431" lon="-0.08286">
        <ele>27.56</ele>
        <time>2023-06-11T03:41:46.286Z</time>
      </trkpt>
      <trkpt lat="47.204" lon="-0.08283">
        <ele>27.79</ele>
        <time>2023-06-11T03:42:19.808Z</time>
      </trkpt>
      <trkpt lat="47.20386" lon="-0.08281">
        <ele>27.85</ele>
        <time>2023-06-11T03:42:53.333Z</time>
      </trkpt>
      <trkpt lat="47.20377" lon="-0.0828">
        <ele>27.85</ele>
        <time>2023-06-11T03:43:26.859Z</time>
      </trkpt>
      <trkpt lat="47.20366" lon="-0.08279">
        <ele>27.79</ele>
        <time>2023-06-11T03:44:00.387Z</time>
      </trkpt>
      <trkpt lat="47.20364" lon="-0.08279">
        <ele>27.79</ele>
        <time>2023-06-11T03:44:33.915Z</time>
      </trkpt>
      <trkpt lat="47.20346" lon="-0.08278">
        <ele>27.65</ele>
        <time>2023-06-11T03:45:07.446Z</time>
      </trkpt>
      <trkpt lat="47.20337" lon="-0.08278">
        <ele>27.62</ele>
        <time>2023-06-11T03:45:40.978Z</time>
      </trkpt>
      <trkpt lat="47.20315" lon="-0.08277">
        <ele>27.6</ele>
        <time>2023-06-11T03:46:14.514Z</time>
      </trkpt>
      <trkpt lat="47.20304" lon="-0.08276">
        <ele>27.53</ele>
        <time>2023-06-11T03:46:48.052Z</time>
      </trkpt>
      <trkpt lat="47.20274" lon="-0.08272">
        <ele>27.34</ele>
        <time>2023-06-11T03:47:21.595Z</time>
      </trkpt>
      <trkpt lat="47.20261" lon="-0.0827">
        <ele>27.29</ele>
        <time>2023-06-11T03:47:55.140Z</time>
      </trkpt>
      <trkpt lat="47.20252" lon="-0.08269">
        <ele>27.3</ele>
        <time>2023-06-11T03:48:28.686Z</time>
      </trkpt>
      <trkpt lat="47.20241" lon="-0.08267">
        <ele>27.38</ele>
        <time>2023-06-11T03:49:02.234Z</time>
      </trkpt>
      <trkpt lat="47.20239" lon="-0.08266">
        <ele>27.4</ele>
        <time>2023-06-11T03:49:35.782Z</time>
      </trkpt>
      <trkpt lat="47.20217" lon="-0.0826">
        <ele>27.66</ele>
        <time>2023-06-11T03:50:09.334Z</time>
      </trkpt>
      <trkpt lat="47.20208" lon="-0.08258">
        <ele>27.79</ele>
        <time>2023-06-11T03:50:42.887Z</time>
      </trkpt>
      <trkpt lat="47.20206" lon="-0.08257">
        <ele>27.82</ele>
        <time>2023-06-11T03:51:16.441Z</time>
      </trkpt>
      <trkpt lat="47.20194" lon="-0.08258">
        <ele>28.01</ele>
        <time>2023-06-11T03:51:49.997Z</time>
      </trkpt>
      <trkpt lat="47.2019" lon="-0.08256">
        <ele>28.08</ele>
        <time>2023-06-11T03:52:23.553Z</time>
      </trkpt>
      <trkpt lat="47.20177" lon="-0.08251">
        <ele>28.24</ele>
        <time>2023-06-11T03:52:57.111Z</time>
      </trkpt>
      <trkpt lat="47.20164" lon="-0.08245">
        <ele>28.3</ele>
        <time>2023-06-11T03:53:30.671Z</time>
      </trkpt>
      <trkpt lat="47.20151" lon="-0.08239">
        <ele>28.27</ele>
        <time>2023-06-11T03:54:04.234Z</time>
      </trkpt>
      <trkpt lat="47.20134" lon="-0.0824">
        <ele>28.25</ele>
        <time>2023-06-11T03:54:37.799Z</time>
      </trkpt>
      <trkpt lat="47.20125" lon="-0.08241">
        <ele>28.25</ele>
        <time>2023-06-11T03:55:11.366Z</time>
      </trkpt>
      <trkpt lat="47.2012" lon="-0.08242">
        <ele>28.29</ele>
        <time>2023-06-11T03:55:44.934Z</time>
      </trkpt>
      <trkpt lat="47.20115" lon="-0.08242">
        <ele>28.36</ele>
        <time>2023-06-11T03:56:18.502Z</time>
      </trkpt>
      <trkpt lat="47.20115" lon="-0.08242">
        <ele>28.36</ele>
        <time>2023-06-11T03:56:52.070Z</time>
      </trkpt>
      <trkpt lat="47.20112" lon="-0.0824">
        <ele>28.46</ele>
        <time>2023-06-11T03:57:25.639Z</time>
      </trkpt>
      <trkpt lat="47.20107" lon="-0.08238">
        <ele>28.6</ele>
        <time>2023-06-11T03:57:59.209Z</time>
      </trkpt>
      <trkpt lat="47.20103" lon="-0.08237">
        <ele>28.8</ele>
        <time>2023-06-11T03:58:32.780Z</time>
      </trkpt>
      <trkpt lat="47.20099" lon="-0.08235">
        <ele>29.06</ele>
        <time>2023-06-11T03:59:06.351Z</time>
      </trkpt>
      <trkpt lat="47.20094" lon="-0.08233">
        <ele>29.39</ele>
        <time>2023-06-11T03:59:39.923Z</time>
      </trkpt>
      <trkpt lat="47.2009" lon="-0.08231">
        <ele>29.79</ele>
        <time>2023-06-11T04:00:13.496Z</time>
      </trkpt>
      <trkpt lat="47.20084" lon="-0.08228">
        <ele>30.41</ele>
        <time>2023-06-11T04:00:47.070Z</time>
      </trkpt>
      <trkpt lat="47.20074" lon="-0.08219">
        <ele>31.55</ele>
        <time>2023-06-11T04:01:20.646Z</time>
      </trkpt>
      <trkpt lat="47.20067" lon="-0.08213">
        <ele>32.32</ele>
        <time>2023-06-11T04:01:54.223Z</time>
      </trkpt>
      <trkpt lat="47.20067" lon="-0.08212">
        <ele>32.32</ele>
        <time>2023-06-11T04:02:27.800Z</time>
      </trkpt>
      <trkpt lat="47.20061" lon="-0.08203">
        <ele>31.95</ele>
        <time>2023-06-11T04:03:01.378Z</time>
      </trkpt>
      <trkpt lat="47.20052" lon="-0.08189">
        <ele>31.33</ele>
        <time>2023-06-11T04:03:34.958Z</time>
      </trkpt>
      <trkpt lat="47.20052" lon="-0.08189">
        <ele>31.33</ele>
        <time>2023-06-11T04:04:08.538Z</time>
      </trkpt>
      <trkpt lat="47.20049" lon="-0.08179">
        <ele>30.95</ele>
        <time>2023-06-11T04:04:42.120Z</time>
      </trkpt>
      <trkpt lat="47.20047" lon="-0.08169">
        <ele>30.69</ele>
        <time>2023-06-11T04:05:15.703Z</time>
      </trkpt>
      <trkpt lat="47.20046" lon="-0.08169">
        <ele>30.65</ele>
        <time>2023-06-11T04:05:49.286Z</time>
      </trkpt>
      <trkpt lat="47.20042" lon="-0.08168">
        <ele>30.52</ele>
        <time>2023-06-11T04:06:22.870Z</time>
      </trkpt>
      <trkpt lat="47.20033" lon="-0.08167">
        <ele>30.31</ele>
        <time>2023-06-11T04:06:56.455Z</time>
      </trkpt>
      <trkpt lat="47.2002" lon="-0.08165">
        <ele>29.12</ele>
        <time>2023-06-11T04:07:30.042Z</time>
      </trkpt>
      <trkpt lat="47.20016" lon="-0.08165">
        <ele>28.75</ele>
        <time>2023-06-11T04:08:03.630Z</time>
      </trkpt>
      <trkpt lat="47.20011" lon="-0.08164">
        <ele>28.41</ele>
        <time>2023-06-11T04:08:37.218Z</time>
      </trkpt>
      <trkpt lat="47.20009" lon="-0.08164">
        <ele>28.26</ele>
        <time>2023-06-11T04:09:10.807Z</time>
      </trkpt>
      <trkpt lat="47.20007" lon="-0.08164">
        <ele>28.12</ele>
        <time>2023-06-11T04:09:44.396Z</time>
      </trkpt>
      <trkpt lat="47.20002" lon="-0.08165">
        <ele>27.89</ele>
        <time>2023-06-11T04:10:17.986Z</time>
      </trkpt>
      <trkpt lat="47.19998" lon="-0.08166">
        <ele>27.71</ele>
        <time>2023-06-11T04:10:51.577Z</time>
      </trkpt>
      <trkpt lat="47.19998" lon="-0.08166">
        <ele>27.71</ele>
        <time>2023-06-11T04:11:25.168Z</time>
      </trkpt>
      <trkpt lat="47.19995" lon="-0.08171">
        <ele>27.58</ele>
        <time>2023-06-11T04:11:58.759Z</time>
      </trkpt>
      <trkpt lat="47.19992" lon="-0.08176">
        <ele>27.51</ele>
        <time>2023-06-11T04:12:32.351Z</time>
      </trkpt>
      <trkpt lat="47.19989" lon="-0.0818">
        <ele>27.49</ele>
        <time>2023-06-11T04:13:05.944Z</time>
      </trkpt>
      <trkpt lat="47.19986" lon="-0.08185">
        <ele>27.52</ele>
        <time>2023-06-11T04:13:39.537Z</time>
      </trkpt>
      <trkpt lat="47.19984" lon="-0.08189">
        <ele>27.58</ele>
        <time>2023-06-11T04:14:13.131Z</time>
      </trkpt>
      <trkpt lat="47.19983" lon="-0.08189">
        <ele>27.6</ele>
        <time>2023-06-11T04:14:46.725Z</time>
      </trkpt>
      <trkpt lat="47.19972" lon="-0.08195">
        <ele>27.89</ele>
        <time>2023-06-11T04:15:20.321Z</time>
      </trkpt>
      <trkpt lat="47.1997" lon="-0.08195">
        <ele>27.94</ele>
        <time>2023-06-11T04:15:53.917Z</time>
      </trkpt>
      <trkpt lat="47.19966" lon="-0.08194">
        <ele>28.03</ele>
        <time>2023-06-11T04:16:27.514Z</time>
      </trkpt>
      <trkpt lat="47.19962" lon="-0.08193">
        <ele>28.1</ele>
        <time>2023-06-11T04:17:01.112Z</time>
      </trkpt>
      <trkpt lat="47.19953" lon="-0.08191">
        <ele>28.16</ele>
        <time>2023-06-11T04:17:34.711Z</time>
      </trkpt>
      <trkpt lat="47.19943" lon="-0.08189">
        <ele>28.09</ele>
        <time>2023-06-11T04:18:08.312Z</time>
      </trkpt>
      <trkpt lat="47.19929" lon="-0.08189">
        <ele>28.01</ele>
        <time>2023-06-11T04:18:41.915Z</time>
      </trkpt>
      <trkpt lat="47.19917" lon="-0.08189">
        <ele>27.72</ele>
        <time>2023-06-11T04:19:15.520Z</time>
      </trkpt>
      <trkpt lat="47.19916" lon="-0.08192">
        <ele>27.68</ele>
        <time>2023-06-11T04:19:49.125Z</time>
      </trkpt>
      <trkpt lat="47.19914" lon="-0.08204">
        <ele>27.5</ele>
        <time>2023-06-11T04:20:22.732Z</time>
      </trkpt>
      <trkpt lat="47.1991" lon="-0.08224">
        <ele>27.35</ele>
        <time>2023-06-11T04:20:56.341Z</time>
      </trkpt>
      <trkpt lat="47.1991" lon="-0.08224">
        <ele>27.35</ele>
        <time>2023-06-11T04:21:29.950Z</time>
      </trkpt>
      <trkpt lat="47.19906" lon="-0.08225">
        <ele>27.33</ele>
        <time>2023-06-11T04:22:03.559Z</time>
      </trkpt>
      <trkpt lat="47.19902" lon="-0.08221">
        <ele>27.31</ele>
        <time>2023-06-11T04:22:37.169Z</time>
      </trkpt>
      <trkpt lat="47.19887" lon="-0.08207">
        <ele>27.35</ele>
        <time>2023-06-11T04:23:10.782Z</time>
      </trkpt>
      <trkpt lat="47.19874" lon="-0.08189">
        <ele>27.4</ele>
        <time>2023-06-11T04:23:44.398Z</time>
      </trkpt>
      <trkpt lat="47.19871" lon="-0.08185">
        <ele>27.39</ele>
        <time>2023-06-11T04:24:18.015Z</time>
      </trkpt>
      <trkpt lat="47.19861" lon="-0.08172">
        <ele>27.28</ele>
        <time>2023-06-11T04:24:51.634Z</time>
      </trkpt>
      <trkpt lat="47.19861" lon="-0.08172">
        <ele>27.28</ele>
        <time>2023-06-11T04:25:25.253Z</time>
      </trkpt>
      <trkpt lat="47.19857" lon="-0.08167">
        <ele>27.26</ele>
        <time>2023-06-11T04:25:58.873Z</time>
      </trkpt>
      <trkpt lat="47.19854" lon="-0.08163">
        <ele>27.26</ele>
        <time>2023-06-11T04:26:32.493Z</time>
      </trkpt>
      <trkpt lat="47.19847" lon="-0.08155">
        <ele>27.34</ele>
        <time>2023-06-11T04:27:06.115Z</time>
      </trkpt>
      <trkpt lat="47.19843" lon="-0.0815">
        <ele>27.4</ele>
        <time>2023-06-11T04:27:39.738Z</time>
      </trkpt>
      <trkpt lat="47.19835" lon="-0.08144">
        <ele>27.51</ele>
        <time>2023-06-11T04:28:13.362Z</time>
      </trkpt>
      <trkpt lat="47.19827" lon="-0.08139">
        <ele>27.57</ele>
        <time>2023-06-11T04:28:46.987Z</time>
      </trkpt>
      <trkpt lat="47.19818" lon="-0.08132">
        <ele>27.59</ele>
        <time>2023-06-11T04:29:20.614Z</time>
      </trkpt>
      <trkpt lat="47.19811" lon="-0.08127">
        <ele>27.61</ele>
        <time>2023-06-11T04:29:54.242Z</time>
      </trkpt>
      <trkpt lat="47.19792" lon="-0.08111">
        <ele>27.56</ele>
        <time>2023-06-11T04:30:27.874Z</time>
      </trkpt>
      <trkpt lat="47.19784" lon="-0.08104">
        <ele>27.6</ele>
        <time>2023-06-11T04:31:01.507Z</time>
      </trkpt>
      <trkpt lat="47.19772" lon="-0.08095">
        <ele>27.69</ele>
        <time>2023-06-11T04:31:35.142Z</time>
      </trkpt>
      <trkpt lat="47.19758" lon="-0.08084">
        <ele>27.67</ele>
        <time>2023-06-11T04:32:08.780Z</time>
      </trkpt>
      <trkpt lat="47.19752" lon="-0.08079">
        <ele>27.54</ele>
        <time>2023-06-11T04:32:42.419Z</time>
      </trkpt>
      <trkpt lat="47.19746" lon="-0.08081">
        <ele>27.44</ele>
        <time>2023-06-11T04:33:16.059Z</time>
      </trkpt>
      <trkpt lat="47.19741" lon="-0.08083">
        <ele>27.39</ele>
        <time>2023-06-11T04:33:49.700Z</time>
      </trkpt>
      <trkpt lat="47.19739" lon="-0.08088">
        <ele>27.36</ele>
        <time>2023-06-11T04:34:23.341Z</time>
      </trkpt>
      <trkpt lat="47.19734" lon="-0.081">
        <ele>27.36</ele>
        <time>2023-06-11T04:34:56.984Z</time>
      </trkpt>
      <trkpt lat="47.19713" lon="-0.08104">
        <ele>27.36</ele>
        <time>2023-06-11T04:35:30.630Z</time>
      </trkpt>
      <trkpt lat="47.19713" lon="-0.08104">
        <ele>27.36</ele>
        <time>2023-06-11T04:36:04.276Z</time>
      </trkpt>
      <trkpt lat="47.19702" lon="-0.08104">
        <ele>27.34</ele>
        <time>2023-06-11T04:36:37.924Z</time>
      </trkpt>
      <trkpt lat="47.19691" lon="-0.08111">
        <ele>27.32</ele>
        <time>2023-06-11T04:37:11.574Z</time>
      </trkpt>
      <trkpt lat="47.19691" lon="-0.08111">
        <ele>27.32</ele>
        <time>2023-06-11T04:37:45.224Z</time>
      </trkpt>
      <trkpt lat="47.19676" lon="-0.08125">
        <ele>27.26</ele>
        <time>2023-06-11T04:38:18.877Z</time>
      </trkpt>
      <trkpt lat="47.19669" lon="-0.08133">
        <ele>27.26</ele>
        <time>2023-06-11T04:38:52.531Z</time>
      </trkpt>
      <trkpt lat="47.19647" lon="-0.08154">
        <ele>27.35</ele>
        <time>2023-06-11T04:39:26.190Z</time>
      </trkpt>
      <trkpt lat="47.19636" lon="-0.08172">
        <ele>27.41</ele>
        <time>2023-06-11T04:39:59.851Z</time>
      </trkpt>
      <trkpt lat="47.1963" lon="-0.08186">
        <ele>27.46</ele>
        <time>2023-06-11T04:40:33.514Z</time>
      </trkpt>
      <trkpt lat="47.19623" lon="-0.08203">
        <ele>27.49</ele>
        <time>2023-06-11T04:41:07.179Z</time>
      </trkpt>
      <trkpt lat="47.19608" lon="-0.08218">
        <ele>27.53</ele>
        <time>2023-06-11T04:41:40.847Z</time>
      </trkpt>
      <trkpt lat="47.19601" lon="-0.08224">
        <ele>27.55</ele>
        <time>2023-06-11T04:42:14.516Z</time>
      </trkpt>
      <trkpt lat="47.19588" lon="-0.08233">
        <ele>27.53</ele>
        <time>2023-06-11T04:42:48.188Z</time>
      </trkpt>
      <trkpt lat="47.19578" lon="-0.08245">
        <ele>27.53</ele>
        <time>2023-06-11T04:43:21.862Z</time>
      </trkpt>
      <trkpt lat="47.19561" lon="-0.08265">
        <ele>27.57</ele>
        <time>2023-06-11T04:43:55.539Z</time>
      </trkpt>
      <trkpt lat="47.19533" lon="-0.08298">
        <ele>27.56</ele>
        <time>2023-06-11T04:44:29.222Z</time>
      </trkpt>
      <trkpt lat="47.19522" lon="-0.08311">
        <ele>27.52</ele>
        <time>2023-06-11T04:45:02.907Z</time>
      </trkpt>
      <trkpt lat="47.19516" lon="-0.08318">
        <ele>27.5</ele>
        <time>2023-06-11T04:45:36.593Z</time>
      </trkpt>
      <trkpt lat="47.19507" lon="-0.08334">
        <ele>27.49</ele>
        <time>2023-06-11T04:46:10.282Z</time>
      </trkpt>
      <trkpt lat="47.19495" lon="-0.08354">
        <ele>27.41</ele>
        <time>2023-06-11T04:46:43.974Z</time>
      </trkpt>
      <trkpt lat="47.19489" lon="-0.08364">
        <ele>27.4</ele>
        <time>2023-06-11T04:47:17.667Z</time>
      </trkpt>
      <trkpt lat="47.19477" lon="-0.08385">
        <ele>27.44</ele>
        <time>2023-06-11T04:47:51.363Z</time>
      </trkpt>
      <trkpt lat="47.19467" lon="-0.08397">
        <ele>27.48</ele>
        <time>2023-06-11T04:48:25.061Z</time>
      </trkpt>
      <trkpt lat="47.19445" lon="-0.08425">
        <ele>27.58</ele>
        <time>2023-06-11T04:48:58.764Z</time>
      </trkpt>
      <trkpt lat="47.19426" lon="-0.08435">
        <ele>27.66</ele>
        <time>2023-06-11T04:49:32.470Z</time>
      </trkpt>
      <trkpt lat="47.19418" lon="-0.08439">
        <ele>27.68</ele>
        <time>2023-06-11T04:50:06.177Z</time>
      </trkpt>
      <trkpt lat="47.19411" lon="-0.08443">
        <ele>27.67</ele>
        <time>2023-06-11T04:50:39.886Z</time>
      </trkpt>
      <trkpt lat="47.1941" lon="-0.08443">
        <ele>27.67</ele>
        <time>2023-06-11T04:51:13.595Z</time>
      </trkpt>
      <trkpt lat="47.19397" lon="-0.0844">
        <ele>27.63</ele>
        <time>2023-06-11T04:51:47.306Z</time>
      </trkpt>
      <trkpt lat="47.19392" lon="-0.08439">
        <ele>27.64</ele>
        <time>2023-06-11T04:52:21.018Z</time>
      </trkpt>
      <trkpt lat="47.19376" lon="-0.0843">
        <ele>27.68</ele>
        <time>2023-06-11T04:52:54.732Z</time>
      </trkpt>
      <trkpt lat="47.19371" lon="-0.08421">
        <ele>27.7</ele>
        <time>2023-06-11T04:53:28.448Z</time>
      </trkpt>
      <trkpt lat="47.19365" lon="-0.08412">
        <ele>27.7</ele>
        <time>2023-06-11T04:54:02.165Z</time>
      </trkpt>
      <trkpt lat="47.19347" lon="-0.08376">
        <ele>27.7</ele>
        <time>2023-06-11T04:54:35.887Z</time>
      </trkpt>
      <trkpt lat="47.19332" lon="-0.08345">
        <ele>27.74</ele>
        <time>2023-06-11T04:55:09.613Z</time>
      </trkpt>
      <trkpt lat="47.19315" lon="-0.08329">
        <ele>27.78</ele>
        <time>2023-06-11T04:55:43.342Z</time>
      </trkpt>
      <trkpt lat="47.19307" lon="-0.0833">
        <ele>27.8</ele>
        <time>2023-06-11T04:56:17.073Z</time>
      </trkpt>
      <trkpt lat="47.19294" lon="-0.0833">
        <ele>27.75</ele>
        <time>2023-06-11T04:56:50.806Z</time>
      </trkpt>
      <trkpt lat="47.1927" lon="-0.08332">
        <ele>27.69</ele>
        <time>2023-06-11T04:57:24.542Z</time>
      </trkpt>
      <trkpt lat="47.19262" lon="-0.08331">
        <ele>27.68</ele>
        <time>2023-06-11T04:57:58.280Z</time>
      </trkpt>
      <trkpt lat="47.19227" lon="-0.08327">
        <ele>27.71</ele>
        <time>2023-06-11T04:58:32.023Z</time>
      </trkpt>
      <trkpt lat="47.19195" lon="-0.08324">
        <ele>27.67</ele>
        <time>2023-06-11T04:59:05.771Z</time>
      </trkpt>
      <trkpt lat="47.19182" lon="-0.08322">
        <ele>27.71</ele>
        <time>2023-06-11T04:59:39.522Z</time>
      </trkpt>
      <trkpt lat="47.19182" lon="-0.08322">
        <ele>27.71</ele>
        <time>2023-06-11T05:00:13.273Z</time>
      </trkpt>
      <trkpt lat="47.1916" lon="-0.08323">
        <ele>27.89</ele>
        <time>2023-06-11T05:00:47.027Z</time>
      </trkpt>
      <trkpt lat="47.19131" lon="-0.08324">
        <ele>27.95</ele>
        <time>2023-06-11T05:01:20.786Z</time>
      </trkpt>
      <trkpt lat="47.19124" lon="-0.08326">
        <ele>27.97</ele>
        <time>2023-06-11T05:01:54.546Z</time>
      </trkpt>
      <trkpt lat="47.19106" lon="-0.0833">
        <ele>27.92</ele>
        <time>2023-06-11T05:02:28.309Z</time>
      </trkpt>
      <trkpt lat="47.19093" lon="-0.08333">
        <ele>27.85</ele>
        <time>2023-06-11T05:03:02.074Z</time>
      </trkpt>
      <trkpt lat="47.1908" lon="-0.08336">
        <ele>27.75</ele>
        <time>2023-06-11T05:03:35.841Z</time>
      </trkpt>
      <trkpt lat="47.19049" lon="-0.08343">
        <ele>27.68</ele>
        <time>2023-06-11T05:04:09.613Z</time>
      </trkpt>
      <trkpt lat="47.19031" lon="-0.08347">
        <ele>27.7</ele>
        <time>2023-06-11T05:04:43.388Z</time>
      </trkpt>
      <trkpt lat="47.18987" lon="-0.08357">
        <ele>27.7</ele>
        <time>2023-06-11T05:05:17.170Z</time>
      </trkpt>
      <trkpt lat="47.18983" lon="-0.0836">
        <ele>27.71</ele>
        <time>2023-06-11T05:05:50.953Z</time>
      </trkpt>
      <trkpt lat="47.1896" lon="-0.0838">
        <ele>27.78</ele>
        <time>2023-06-11T05:06:24.740Z</time>
      </trkpt>
      <trkpt lat="47.1894" lon="-0.08396">
        <ele>27.89</ele>
        <time>2023-06-11T05:06:58.531Z</time>
      </trkpt>
      <trkpt lat="47.18934" lon="-0.08401">
        <ele>27.88</ele>
        <time>2023-06-11T05:07:32.323Z</time>
      </trkpt>
      <trkpt lat="47.18923" lon="-0.08418">
        <ele>27.87</ele>
        <time>2023-06-11T05:08:06.117Z</time>
      </trkpt>
      <trkpt lat="47.18908" lon="-0.08441">
        <ele>27.96</ele>
        <time>2023-06-11T05:08:39.915Z</time>
      </trkpt>
      <trkpt lat="47.18902" lon="-0.08451">
        <ele>27.93</ele>
        <time>2023-06-11T05:09:13.714Z</time>
      </trkpt>
      <trkpt lat="47.18893" lon="-0.08465">
        <ele>27.85</ele>
        <time>2023-06-11T05:09:47.516Z</time>
      </trkpt>
      <trkpt lat="47.18887" lon="-0.08475">
        <ele>27.82</ele>
        <time>2023-06-11T05:10:21.319Z</time>
      </trkpt>
      <trkpt lat="47.18865" lon="-0.08509">
        <ele>27.89</ele>
        <time>2023-06-11T05:10:55.127Z</time>
      </trkpt>
      <trkpt lat="47.18852" lon="-0.08529">
        <ele>27.89</ele>
        <time>2023-06-11T05:11:28.938Z</time>
      </trkpt>
      <trkpt lat="47.1885" lon="-0.08533">
        <ele>27.89</ele>
        <time>2023-06-11T05:12:02.750Z</time>
      </trkpt>
      <trkpt lat="47.18842" lon="-0.08549">
        <ele>27.97</ele>
        <time>2023-06-11T05:12:36.564Z</time>
      </trkpt>
      <trkpt lat="47.18837" lon="-0.0856">
        <ele>27.99</ele>
        <time>2023-06-11T05:13:10.379Z</time>
      </trkpt>
      <trkpt lat="47.18827" lon="-0.08582">
        <ele>27.96</ele>
        <time>2023-06-11T05:13:44.197Z</time>
      </trkpt>
      <trkpt lat="47.18815" lon="-0.08607">
        <ele>27.88</ele>
        <time>2023-06-11T05:14:18.018Z</time>
      </trkpt>
      <trkpt lat="47.18815" lon="-0.08609">
        <ele>27.88</ele>
        <time>2023-06-11T05:14:51.840Z</time>
      </trkpt>
      <trkpt lat="47.18813" lon="-0.08622">
        <ele>27.88</ele>
        <time>2023-06-11T05:15:25.663Z</time>
      </trkpt>
      <trkpt lat="47.18803" lon="-0.0868">
        <ele>27.95</ele>
        <time>2023-06-11T05:15:59.493Z</time>
      </trkpt>
      <trkpt lat="47.18799" lon="-0.08708">
        <ele>27.91</ele>
        <time>2023-06-11T05:16:33.326Z</time>
      </trkpt>
      <trkpt lat="47.18798" lon="-0.08718">
        <ele>27.9</ele>
        <time>2023-06-11T05:17:07.160Z</time>
      </trkpt>
      <trkpt lat="47.18792" lon="-0.0879">
        <ele>28.02</ele>
        <time>2023-06-11T05:17:41.002Z</time>
      </trkpt>
      <trkpt lat="47.1879" lon="-0.0881">
        <ele>28.08</ele>
        <time>2023-06-11T05:18:14.846Z</time>
      </trkpt>
      <trkpt lat="47.18788" lon="-0.08836">
        <ele>28.2</ele>
        <time>2023-06-11T05:18:48.693Z</time>
      </trkpt>
      <trkpt lat="47.18786" lon="-0.08856">
        <ele>28.25</ele>
        <time>2023-06-11T05:19:22.542Z</time>
      </trkpt>
      <trkpt lat="47.18784" lon="-0.08882">
        <ele>28.27</ele>
        <time>2023-06-11T05:19:56.394Z</time>
      </trkpt>
      <trkpt lat="47.18781" lon="-0.08914">
        <ele>28.22</ele>
        <time>2023-06-11T05:20:30.249Z</time>
      </trkpt>
      <trkpt lat="47.18781" lon="-0.0892">
        <ele>28.22</ele>
        <time>2023-06-11T05:21:04.105Z</time>
      </trkpt>
      <trkpt lat="47.18783" lon="-0.08927">
        <ele>28.22</ele>
        <time>2023-06-11T05:21:37.962Z</time>
      </trkpt>
      <trkpt lat="47.18784" lon="-0.08933">
        <ele>28.26</ele>
        <time>2023-06-11T05:22:11.820Z</time>
      </trkpt>
      <trkpt lat="47.18785" lon="-0.0894">
        <ele>28.33</ele>
        <time>2023-06-11T05:22:45.678Z</time>
      </trkpt>
      <trkpt lat="47.18787" lon="-0.08946">
        <ele>28.45</ele>
        <time>2023-06-11T05:23:19.537Z</time>
      </trkpt>
      <trkpt lat="47.18788" lon="-0.08952">
        <ele>28.62</ele>
        <time>2023-06-11T05:23:53.397Z</time>
      </trkpt>
      <trkpt lat="47.1879" lon="-0.08959">
        <ele>28.85</ele>
        <time>2023-06-11T05:24:27.257Z</time>
      </trkpt>
      <trkpt lat="47.18791" lon="-0.08965">
        <ele>29.12</ele>
        <time>2023-06-11T05:25:01.118Z</time>
      </trkpt>
      <trkpt lat="47.18794" lon="-0.08977">
        <ele>29.76</ele>
        <time>2023-06-11T05:25:34.981Z</time>
      </trkpt>
      <trkpt lat="47.18795" lon="-0.08983">
        <ele>30.07</ele>
        <time>2023-06-11T05:26:08.844Z</time>
      </trkpt>
      <trkpt lat="47.18799" lon="-0.08987">
        <ele>30.44</ele>
        <time>2023-06-11T05:26:42.708Z</time>
      </trkpt>
      <trkpt lat="47.18809" lon="-0.08997">
        <ele>30.51</ele>
        <time>2023-06-11T05:27:16.574Z</time>
      </trkpt>
      <trkpt lat="47.18817" lon="-0.09012">
        <ele>30.59</ele>
        <time>2023-06-11T05:27:50.442Z</time>
      </trkpt>
      <trkpt lat="47.1882" lon="-0.09023">
        <ele>30.64</ele>
        <time>2023-06-11T05:28:24.311Z</time>
      </trkpt>
      <trkpt lat="47.1882" lon="-0.09023">
        <ele>30.64</ele>
        <time>2023-06-11T05:28:58.180Z</time>
      </trkpt>
      <trkpt lat="47.18791" lon="-0.09012">
        <ele>30.85</ele>
        <time>2023-06-11T05:29:32.054Z</time>
      </trkpt>
      <trkpt lat="47.18779" lon="-0.09007">
        <ele>30.86</ele>
        <time>2023-06-11T05:30:05.930Z</time>
      </trkpt>
      <trkpt lat="47.18772" lon="-0.09004">
        <ele>30.83</ele>
        <time>2023-06-11T05:30:39.807Z</time>
      </trkpt>
      <trkpt lat="47.18766" lon="-0.09002">
        <ele>30.82</ele>
        <time>2023-06-11T05:31:13.685Z</time>
      </trkpt>
      <trkpt lat="47.18712" lon="-0.08987">
        <ele>30.58</ele>
        <time>2023-06-11T05:31:47.572Z</time>
      </trkpt>
      <trkpt lat="47.18691" lon="-0.08981">
        <ele>30.43</ele>
        <time>2023-06-11T05:32:21.462Z</time>
      </trkpt>
      <trkpt lat="47.18659" lon="-0.08972">
        <ele>30.23</ele>
        <time>2023-06-11T05:32:55.358Z</time>
      </trkpt>
      <trkpt lat="47.18629" lon="-0.08966">
        <ele>30.06</ele>
        <time>2023-06-11T05:33:29.259Z</time>
      </trkpt>
      <trkpt lat="47.18604" lon="-0.0896">
        <ele>29.99</ele>
        <time>2023-06-11T05:34:03.164Z</time>
      </trkpt>
      <trkpt lat="47.18597" lon="-0.08959">
        <ele>29.98</ele>
        <time>2023-06-11T05:34:37.070Z</time>
      </trkpt>
      <trkpt lat="47.18591" lon="-0.08959">
        <ele>29.98</ele>
        <time>2023-06-11T05:35:10.977Z</time>
      </trkpt>
      <trkpt lat="47.18582" lon="-0.08959">
        <ele>29.94</ele>
        <time>2023-06-11T05:35:44.885Z</time>
      </trkpt>
      <trkpt lat="47.18577" lon="-0.0896">
        <ele>29.93</ele>
        <time>2023-06-11T05:36:18.794Z</time>
      </trkpt>
      <trkpt lat="47.1856" lon="-0.08963">
        <ele>29.93</ele>
        <time>2023-06-11T05:36:52.706Z</time>
      </trkpt>
      <trkpt lat="47.18558" lon="-0.08963">
        <ele>29.92</ele>
        <time>2023-06-11T05:37:26.618Z</time>
      </trkpt>
      <trkpt lat="47.18517" lon="-0.08979">
        <ele>29.86</ele>
        <time>2023-06-11T05:38:00.537Z</time>
      </trkpt>
      <trkpt lat="47.18474" lon="-0.08995">
        <ele>29.83</ele>
        <time>2023-06-11T05:38:34.463Z</time>
      </trkpt>
      <trkpt lat="47.18431" lon="-0.09011">
        <ele>29.89</ele>
        <time>2023-06-11T05:39:08.396Z</time>
      </trkpt>
      <trkpt lat="47.18418" lon="-0.09016">
        <ele>29.99</ele>
        <time>2023-06-11T05:39:42.331Z</time>
      </trkpt>
      <trkpt lat="47.18406" lon="-0.09021">
        <ele>30.12</ele>
        <time>2023-06-11T05:40:16.268Z</time>
      </trkpt>
      <trkpt lat="47.184" lon="-0.09023">
        <ele>30.06</ele>
        <time>2023-06-11T05:40:50.206Z</time>
      </trkpt>
      <trkpt lat="47.18397" lon="-0.09024">
        <ele>30.04</ele>
        <time>2023-06-11T05:41:24.145Z</time>
      </trkpt>
      <trkpt lat="47.18393" lon="-0.09025">
        <ele>29.98</ele>
        <time>2023-06-11T05:41:58.084Z</time>
      </trkpt>
      <trkpt lat="47.18375" lon="-0.0903">
        <ele>29.69</ele>
        <time>2023-06-11T05:42:32.026Z</time>
      </trkpt>
      <trkpt lat="47.18373" lon="-0.09031">
        <ele>29.65</ele>
        <time>2023-06-11T05:43:05.969Z</time>
      </trkpt>
      <trkpt lat="47.18372" lon="-0.09021">
        <ele>29.56</ele>
        <time>2023-06-11T05:43:39.913Z</time>
      </trkpt>
      <trkpt lat="47.18371" lon="-0.09008">
        <ele>29.47</ele>
        <time>2023-06-11T05:44:13.858Z</time>
      </trkpt>
      <trkpt lat="47.1837" lon="-0.09001">
        <ele>29.44</ele>
        <time>2023-06-11T05:44:47.804Z</time>
      </trkpt>
      <trkpt lat="47.18369" lon="-0.08988">
        <ele>29.42</ele>
        <time>2023-06-11T05:45:21.751Z</time>
      </trkpt>
      <trkpt lat="47.18365" lon="-0.08949">
        <ele>29.46</ele>
        <time>2023-06-11T05:45:55.703Z</time>
      </trkpt>
      <trkpt lat="47.18363" lon="-0.08923">
        <ele>29.44</ele>
        <time>2023-06-11T05:46:29.657Z</time>
      </trkpt>
      <trkpt lat="47.18358" lon="-0.08878">
        <ele>29.45</ele>
        <time>2023-06-11T05:47:03.616Z</time>
      </trkpt>
      <trkpt lat="47.18354" lon="-0.08833">
        <ele>29.53</ele>
        <time>2023-06-11T05:47:37.580Z</time>
      </trkpt>
      <trkpt lat="47.18354" lon="-0.08813">
        <ele>29.57</ele>
        <time>2023-06-11T05:48:11.547Z</time>
      </trkpt>
      <trkpt lat="47.18353" lon="-0.08747">
        <ele>29.77</ele>
        <time>2023-06-11T05:48:45.521Z</time>
      </trkpt>
      <trkpt lat="47.18352" lon="-0.08711">
        <ele>29.86</ele>
        <time>2023-06-11T05:49:19.499Z</time>
      </trkpt>
      <trkpt lat="47.18348" lon="-0.08668">
        <ele>29.97</ele>
        <time>2023-06-11T05:49:53.481Z</time>
      </trkpt>
      <trkpt lat="47.18347" lon="-0.08655">
        <ele>29.99</ele>
        <time>2023-06-11T05:50:27.465Z</time>
      </trkpt>
      <trkpt lat="47.18345" lon="-0.08629">
        <ele>29.99</ele>
        <time>2023-06-11T05:51:01.452Z</time>
      </trkpt>
      <trkpt lat="47.18342" lon="-0.08594">
        <ele>30.13</ele>
        <time>2023-06-11T05:51:35.443Z</time>
      </trkpt>
      <trkpt lat="47.1834" lon="-0.08577">
        <ele>30.2</ele>
        <time>2023-06-11T05:52:09.435Z</time>
      </trkpt>
      <trkpt lat="47.18336" lon="-0.08538">
        <ele>30.29</ele>
        <time>2023-06-11T05:52:43.432Z</time>
      </trkpt>
      <trkpt lat="47.18332" lon="-0.08506">
        <ele>30.48</ele>
        <time>2023-06-11T05:53:17.432Z</time>
      </trkpt>
      <trkpt lat="47.18331" lon="-0.08493">
        <ele>30.54</ele>
        <time>2023-06-11T05:53:51.434Z</time>
      </trkpt>
      <trkpt lat="47.18327" lon="-0.0846">
        <ele>30.62</ele>
        <time>2023-06-11T05:54:25.439Z</time>
      </trkpt>
      <trkpt lat="47.18321" lon="-0.08402">
        <ele>30.61</ele>
        <time>2023-06-11T05:54:59.451Z</time>
      </trkpt>
      <trkpt lat="47.18319" lon="-0.08382">
        <ele>30.61</ele>
        <time>2023-06-11T05:55:33.465Z</time>
      </trkpt>
      <trkpt lat="47.18319" lon="-0.0837">
        <ele>30.63</ele>
        <time>2023-06-11T05:56:07.480Z</time>
      </trkpt>
      <trkpt lat="47.18318" lon="-0.08357">
        <ele>30.69</ele>
        <time>2023-06-11T05:56:41.497Z</time>
      </trkpt>
      <trkpt lat="47.18316" lon="-0.08333">
        <ele>30.85</ele>
        <time>2023-06-11T05:57:15.516Z</time>
      </trkpt>
      <trkpt lat="47.18315" lon="-0.0832">
        <ele>30.62</ele>
        <time>2023-06-11T05:57:49.537Z</time>
      </trkpt>
      <trkpt lat="47.18313" lon="-0.08294">
        <ele>30.08</ele>
        <time>2023-06-11T05:58:23.561Z</time>
      </trkpt>
      <trkpt lat="47.18312" lon="-0.08284">
        <ele>29.91</ele>
        <time>2023-06-11T05:58:57.586Z</time>
      </trkpt>
      <trkpt lat="47.1831" lon="-0.08284">
        <ele>29.86</ele>
        <time>2023-06-11T05:59:31.611Z</time>
      </trkpt>
      <trkpt lat="47.18292" lon="-0.08287">
        <ele>29.51</ele>
        <time>2023-06-11T06:00:05.639Z</time>
      </trkpt>
      <trkpt lat="47.18276" lon="-0.08289">
        <ele>29.24</ele>
        <time>2023-06-11T06:00:39.670Z</time>
      </trkpt>
      <trkpt lat="47.1827" lon="-0.08289">
        <ele>29.14</ele>
        <time>2023-06-11T06:01:13.702Z</time>
      </trkpt>
      <trkpt lat="47.18261" lon="-0.0829">
        <ele>29.04</ele>
        <time>2023-06-11T06:01:47.735Z</time>
      </trkpt>
      <trkpt lat="47.18252" lon="-0.0829">
        <ele>28.97</ele>
        <time>2023-06-11T06:02:21.769Z</time>
      </trkpt>
      <trkpt lat="47.18243" lon="-0.0829">
        <ele>28.94</ele>
        <time>2023-06-11T06:02:55.805Z</time>
      </trkpt>
      <trkpt lat="47.18225" lon="-0.08291">
        <ele>28.93</ele>
        <time>2023-06-11T06:03:29.844Z</time>
      </trkpt>
      <trkpt lat="47.18216" lon="-0.08291">
        <ele>28.88</ele>
        <time>2023-06-11T06:04:03.884Z</time>
      </trkpt>
      <trkpt lat="47.18198" lon="-0.08292">
        <ele>28.74</ele>
        <time>2023-06-11T06:04:37.927Z</time>
      </trkpt>
      <trkpt lat="47.18194" lon="-0.08292">
        <ele>28.72</ele>
        <time>2023-06-11T06:05:11.971Z</time>
      </trkpt>
      <trkpt lat="47.18185" lon="-0.08293">
        <ele>28.73</ele>
        <time>2023-06-11T06:05:46.016Z</time>
      </trkpt>
      <trkpt lat="47.18179" lon="-0.08293">
        <ele>28.75</ele>
        <time>2023-06-11T06:06:20.062Z</time>
      </trkpt>
      <trkpt lat="47.18158" lon="-0.08291">
        <ele>28.85</ele>
        <time>2023-06-11T06:06:54.111Z</time>
      </trkpt>
      <trkpt lat="47.18144" lon="-0.0829">
        <ele>28.84</ele>
        <time>2023-06-11T06:07:28.163Z</time>
      </trkpt>
      <trkpt lat="47.18122" lon="-0.08288">
        <ele>28.77</ele>
        <time>2023-06-11T06:08:02.218Z</time>
      </trkpt>
      <trkpt lat="47.18118" lon="-0.08288">
        <ele>28.77</ele>
        <time>2023-06-11T06:08:36.274Z</time>
      </trkpt>
      <trkpt lat="47.18095" lon="-0.08286">
        <ele>28.88</ele>
        <time>2023-06-11T06:09:10.334Z</time>
      </trkpt>
      <trkpt lat="47.18069" lon="-0.08283">
        <ele>28.94</ele>
        <time>2023-06-11T06:09:44.398Z</time>
      </trkpt>
      <trkpt lat="47.18043" lon="-0.08281">
        <ele>28.95</ele>
        <time>2023-06-11T06:10:18.466Z</time>
      </trkpt>
      <trkpt lat="47.18042" lon="-0.08281">
        <ele>28.96</ele>
        <time>2023-06-11T06:10:52.534Z</time>
      </trkpt>
      <trkpt lat="47.18029" lon="-0.08277">
        <ele>28.94</ele>
        <time>2023-06-11T06:11:26.604Z</time>
      </trkpt>
      <trkpt lat="47.18025" lon="-0.08276">
        <ele>28.91</ele>
        <time>2023-06-11T06:12:00.675Z</time>
      </trkpt>
      <trkpt lat="47.18017" lon="-0.08269">
        <ele>28.85</ele>
        <time>2023-06-11T06:12:34.747Z</time>
      </trkpt>
      <trkpt lat="47.18009" lon="-0.08263">
        <ele>28.81</ele>
        <time>2023-06-11T06:13:08.821Z</time>
      </trkpt>
      <trkpt lat="47.17985" lon="-0.08243">
        <ele>28.8</ele>
        <time>2023-06-11T06:13:42.899Z</time>
      </trkpt>
      <trkpt lat="47.17981" lon="-0.08241">
        <ele>28.8</ele>
        <time>2023-06-11T06:14:16.978Z</time>
      </trkpt>
      <trkpt lat="47.17968" lon="-0.08235">
        <ele>28.82</ele>
        <time>2023-06-11T06:14:51.059Z</time>
      </trkpt>
      <trkpt lat="47.1796" lon="-0.0823">
        <ele>28.85</ele>
        <time>2023-06-11T06:15:25.141Z</time>
      </trkpt>
      <trkpt lat="47.17948" lon="-0.08224">
        <ele>28.96</ele>
        <time>2023-06-11T06:15:59.225Z</time>
      </trkpt>
      <trkpt lat="47.1793" lon="-0.08217">
        <ele>29.13</ele>
        <time>2023-06-11T06:16:33.312Z</time>
      </trkpt>
      <trkpt lat="47.17913" lon="-0.08209">
        <ele>29.43</ele>
        <time>2023-06-11T06:17:07.402Z</time>
      </trkpt>
      <trkpt lat="47.17888" lon="-0.08199">
        <ele>29.28</ele>
        <time>2023-06-11T06:17:41.496Z</time>
      </trkpt>
      <trkpt lat="47.17888" lon="-0.08198">
        <ele>29.28</ele>
        <time>2023-06-11T06:18:15.591Z</time>
      </trkpt>
      <trkpt lat="47.17884" lon="-0.08191">
        <ele>29.26</ele>
        <time>2023-06-11T06:18:49.687Z</time>
      </trkpt>
      <trkpt lat="47.17885" lon="-0.08187">
        <ele>29.26</ele>
        <time>2023-06-11T06:19:23.783Z</time>
      </trkpt>
      <trkpt lat="47.17886" lon="-0.08178">
        <ele>29.28</ele>
        <time>2023-06-11T06:19:57.880Z</time>
      </trkpt>
      <trkpt lat="47.17887" lon="-0.08174">
        <ele>29.3</ele>
        <time>2023-06-11T06:20:31.977Z</time>
      </trkpt>
      <trkpt lat="47.17896" lon="-0.08144">
        <ele>29.45</ele>
        <time>2023-06-11T06:21:06.078Z</time>
      </trkpt>
      <trkpt lat="47.17914" lon="-0.08083">
        <ele>29.84</ele>
        <time>2023-06-11T06:21:40.186Z</time>
      </trkpt>
      <trkpt lat="47.17921" lon="-0.08059">
        <ele>30.04</ele>
        <time>2023-06-11T06:22:14.297Z</time>
      </trkpt>
      <trkpt lat="47.1793" lon="-0.08029">
        <ele>30.23</ele>
        <time>2023-06-11T06:22:48.412Z</time>
      </trkpt>
      <trkpt lat="47.17934" lon="-0.08017">
        <ele>30.35</ele>
        <time>2023-06-11T06:23:22.528Z</time>
      </trkpt>
      <trkpt lat="47.17941" lon="-0.07993">
        <ele>30.74</ele>
        <time>2023-06-11T06:23:56.647Z</time>
      </trkpt>
      <trkpt lat="47.17942" lon="-0.07989">
        <ele>30.81</ele>
        <time>2023-06-11T06:24:30.766Z</time>
      </trkpt>
      <trkpt lat="47.17944" lon="-0.07981">
        <ele>30.96</ele>
        <time>2023-06-11T06:25:04.886Z</time>
      </trkpt>
      <trkpt lat="47.17951" lon="-0.07956">
        <ele>31.53</ele>
        <time>2023-06-11T06:25:39.009Z</time>
      </trkpt>
      <trkpt lat="47.17958" lon="-0.07932">
        <ele>32.02</ele>
        <time>2023-06-11T06:26:13.135Z</time>
      </trkpt>
      <trkpt lat="47.1796" lon="-0.07926">
        <ele>32.16</ele>
        <time>2023-06-11T06:26:47.262Z</time>
      </trkpt>
      <trkpt lat="47.1797" lon="-0.07889">
        <ele>33.11</ele>
        <time>2023-06-11T06:27:21.393Z</time>
      </trkpt>
      <trkpt lat="47.17975" lon="-0.07871">
        <ele>33.63</ele>
        <time>2023-06-11T06:27:55.526Z</time>
      </trkpt>
      <trkpt lat="47.17987" lon="-0.07828">
        <ele>34.89</ele>
        <time>2023-06-11T06:28:29.664Z</time>
      </trkpt>
      <trkpt lat="47.17994" lon="-0.07804">
        <ele>35.69</ele>
        <time>2023-06-11T06:29:03.805Z</time>
      </trkpt>
      <trkpt lat="47.18002" lon="-0.07774">
        <ele>36.62</ele>
        <time>2023-06-11T06:29:37.950Z</time>
      </trkpt>
      <trkpt lat="47.18009" lon="-0.07749">
        <ele>37.29</ele>
        <time>2023-06-11T06:30:12.098Z</time>
      </trkpt>
      <trkpt lat="47.18011" lon="-0.07743">
        <ele>37.49</ele>
        <time>2023-06-11T06:30:46.247Z</time>
      </trkpt>
      <trkpt lat="47.18016" lon="-0.07725">
        <ele>38.18</ele>
        <time>2023-06-11T06:31:20.398Z</time>
      </trkpt>
      <trkpt lat="47.18018" lon="-0.07719">
        <ele>38.39</ele>
        <time>2023-06-11T06:31:54.549Z</time>
      </trkpt>
      <trkpt lat="47.18021" lon="-0.07707">
        <ele>38.76</ele>
        <time>2023-06-11T06:32:28.702Z</time>
      </trkpt>
      <trkpt lat="47.18025" lon="-0.07694">
        <ele>39.09</ele>
        <time>2023-06-11T06:33:02.856Z</time>
      </trkpt>
      <trkpt lat="47.18028" lon="-0.07682">
        <ele>39.37</ele>
        <time>2023-06-11T06:33:37.012Z</time>
      </trkpt>
      <trkpt lat="47.18032" lon="-0.0767">
        <ele>39.53</ele>
        <time>2023-06-11T06:34:11.169Z</time>
      </trkpt>
      <trkpt lat="47.1804" lon="-0.0764">
        <ele>39.74</ele>
        <time>2023-06-11T06:34:45.330Z</time>
      </trkpt>
      <trkpt lat="47.18049" lon="-0.07609">
        <ele>39.82</ele>
        <time>2023-06-11T06:35:19.494Z</time>
      </trkpt>
      <trkpt lat="47.18057" lon="-0.07579">
        <ele>39.94</ele>
        <time>2023-06-11T06:35:53.662Z</time>
      </trkpt>
      <trkpt lat="47.18061" lon="-0.07566">
        <ele>39.95</ele>
        <time>2023-06-11T06:36:27.831Z</time>
      </trkpt>
      <trkpt lat="47.18068" lon="-0.07542">
        <ele>39.94</ele>
        <time>2023-06-11T06:37:02.003Z</time>
      </trkpt>
      <trkpt lat="47.18074" lon="-0.07518">
        <ele>40</ele>
        <time>2023-06-11T06:37:36.178Z</time>
      </trkpt>
      <trkpt lat="47.18078" lon="-0.07505">
        <ele>39.97</ele>
        <time>2023-06-11T06:38:10.355Z</time>
      </trkpt>
      <trkpt lat="47.18081" lon="-0.07493">
        <ele>39.88</ele>
        <time>2023-06-11T06:38:44.533Z</time>
      </trkpt>
      <trkpt lat="47.18085" lon="-0.07481">
        <ele>39.76</ele>
        <time>2023-06-11T06:39:18.712Z</time>
      </trkpt>
      <trkpt lat="47.18092" lon="-0.07457">
        <ele>39.43</ele>
        <time>2023-06-11T06:39:52.894Z</time>
      </trkpt>
      <trkpt lat="47.181" lon="-0.07426">
        <ele>39.09</ele>
        <time>2023-06-11T06:40:27.080Z</time>
      </trkpt>
      <trkpt lat="47.18112" lon="-0.07384">
        <ele>38.44</ele>
        <time>2023-06-11T06:41:01.271Z</time>
      </trkpt>
      <trkpt lat="47.18121" lon="-0.07353">
        <ele>37.92</ele>
        <time>2023-06-11T06:41:35.466Z</time>
      </trkpt>
      <trkpt lat="47.18122" lon="-0.07347">
        <ele>37.83</ele>
        <time>2023-06-11T06:42:09.661Z</time>
      </trkpt>
      <trkpt lat="47.18126" lon="-0.07335">
        <ele>37.7</ele>
        <time>2023-06-11T06:42:43.858Z</time>
      </trkpt>
      <trkpt lat="47.18129" lon="-0.07323">
        <ele>37.63</ele>
        <time>2023-06-11T06:43:18.056Z</time>
      </trkpt>
      <trkpt lat="47.18131" lon="-0.07317">
        <ele>37.61</ele>
        <time>2023-06-11T06:43:52.255Z</time>
      </trkpt>
      <trkpt lat="47.18139" lon="-0.07286">
        <ele>37.62</ele>
        <time>2023-06-11T06:44:26.457Z</time>
      </trkpt>
      <trkpt lat="47.18143" lon="-0.07274">
        <ele>37.66</ele>
        <time>2023-06-11T06:45:00.661Z</time>
      </trkpt>
      <trkpt lat="47.18148" lon="-0.07256">
        <ele>37.79</ele>
        <time>2023-06-11T06:45:34.867Z</time>
      </trkpt>
      <trkpt lat="47.18153" lon="-0.07237">
        <ele>37.88</ele>
        <time>2023-06-11T06:46:09.075Z</time>
      </trkpt>
      <trkpt lat="47.1816" lon="-0.07213">
        <ele>38.06</ele>
        <time>2023-06-11T06:46:43.286Z</time>
      </trkpt>
      <trkpt lat="47.18162" lon="-0.07206">
        <ele>38.1</ele>
        <time>2023-06-11T06:47:17.498Z</time>
      </trkpt>
      <trkpt lat="47.18167" lon="-0.07194">
        <ele>38.17</ele>
        <time>2023-06-11T06:47:51.711Z</time>
      </trkpt>
      <trkpt lat="47.18164" lon="-0.07194">
        <ele>38.19</ele>
        <time>2023-06-11T06:48:25.925Z</time>
      </trkpt>
      <trkpt lat="47.18142" lon="-0.07198">
        <ele>38.32</ele>
        <time>2023-06-11T06:49:00.142Z</time>
      </trkpt>
      <trkpt lat="47.18118" lon="-0.07202">
        <ele>38.5</ele>
        <time>2023-06-11T06:49:34.363Z</time>
      </trkpt>
      <trkpt lat="47.18107" lon="-0.072">
        <ele>38.59</ele>
        <time>2023-06-11T06:50:08.586Z</time>
      </trkpt>
      <trkpt lat="47.18094" lon="-0.07197">
        <ele>38.72</ele>
        <time>2023-06-11T06:50:42.811Z</time>
      </trkpt>
      <trkpt lat="47.18086" lon="-0.07195">
        <ele>38.82</ele>
        <time>2023-06-11T06:51:17.038Z</time>
      </trkpt>
      <trkpt lat="47.18064" lon="-0.07189">
        <ele>39.11</ele>
        <time>2023-06-11T06:51:51.268Z</time>
      </trkpt>
      <trkpt lat="47.18046" lon="-0.07184">
        <ele>39.35</ele>
        <time>2023-06-11T06:52:25.501Z</time>
      </trkpt>
      <trkpt lat="47.18044" lon="-0.07183">
        <ele>39.39</ele>
        <time>2023-06-11T06:52:59.734Z</time>
      </trkpt>
      <trkpt lat="47.17992" lon="-0.07158">
        <ele>40.3</ele>
        <time>2023-06-11T06:53:33.976Z</time>
      </trkpt>
      <trkpt lat="47.17975" lon="-0.0715">
        <ele>40.63</ele>
        <time>2023-06-11T06:54:08.221Z</time>
      </trkpt>
      <trkpt lat="47.17967" lon="-0.07146">
        <ele>40.64</ele>
        <time>2023-06-11T06:54:42.467Z</time>
      </trkpt>
      <trkpt lat="47.17958" lon="-0.07141">
        <ele>40.69</ele>
        <time>2023-06-11T06:55:16.715Z</time>
      </trkpt>
      <trkpt lat="47.17943" lon="-0.07134">
        <ele>40.88</ele>
        <time>2023-06-11T06:55:50.965Z</time>
      </trkpt>
      <trkpt lat="47.17942" lon="-0.07134">
        <ele>40.9</ele>
        <time>2023-06-11T06:56:25.216Z</time>
      </trkpt>
      <trkpt lat="47.17929" lon="-0.07129">
        <ele>41.11</ele>
        <time>2023-06-11T06:56:59.469Z</time>
      </trkpt>
      <trkpt lat="47.17899" lon="-0.07119">
        <ele>41.7</ele>
        <time>2023-06-11T06:57:33.727Z</time>
      </trkpt>
      <trkpt lat="47.17886" lon="-0.07115">
        <ele>41.89</ele>
        <time>2023-06-11T06:58:07.987Z</time>
      </trkpt>
      <trkpt lat="47.17847" lon="-0.07102">
        <ele>42.41</ele>
        <time>2023-06-11T06:58:42.253Z</time>
      </trkpt>
      <trkpt lat="47.1783" lon="-0.07096">
        <ele>42.68</ele>
        <time>2023-06-11T06:59:16.522Z</time>
      </trkpt>
      <trkpt lat="47.17814" lon="-0.07091">
        <ele>42.96</ele>
        <time>2023-06-11T06:59:50.794Z</time>
      </trkpt>
      <trkpt lat="47.17814" lon="-0.07091">
        <ele>40.66</ele>
        <time>2023-06-11T07:00:25.066Z</time>
      </trkpt>
      <trkpt lat="47.1779" lon="-0.07083">
        <ele>40.5</ele>
        <time>2023-06-11T07:00:59.341Z</time>
      </trkpt>
      <trkpt lat="47.17782" lon="-0.0708">
        <ele>40.49</ele>
        <time>2023-06-11T07:01:33.618Z</time>
      </trkpt>
      <trkpt lat="47.17784" lon="-0.07064">
        <ele>40.49</ele>
        <time>2023-06-11T07:02:07.897Z</time>
      </trkpt>
      <trkpt lat="47.17787" lon="-0.07055">
        <ele>40.49</ele>
        <time>2023-06-11T07:02:42.177Z</time>
      </trkpt>
      <trkpt lat="47.17791" lon="-0.07043">
        <ele>40.46</ele>
        <time>2023-06-11T07:03:16.458Z</time>
      </trkpt>
      <trkpt lat="47.178" lon="-0.07019">
        <ele>40.27</ele>
        <time>2023-06-11T07:03:50.742Z</time>
      </trkpt>
      <trkpt lat="47.17809" lon="-0.06994">
        <ele>39.97</ele>
        <time>2023-06-11T07:04:25.029Z</time>
      </trkpt>
      <trkpt lat="47.17813" lon="-0.06982">
        <ele>39.78</ele>
        <time>2023-06-11T07:04:59.318Z</time>
      </trkpt>
      <trkpt lat="47.17817" lon="-0.06971">
        <ele>39.68</ele>
        <time>2023-06-11T07:05:33.608Z</time>
      </trkpt>
      <trkpt lat="47.17821" lon="-0.06959">
        <ele>39.53</ele>
        <time>2023-06-11T07:06:07.900Z</time>
      </trkpt>
      <trkpt lat="47.17833" lon="-0.06925">
        <ele>39.2</ele>
        <time>2023-06-11T07:06:42.196Z</time>
      </trkpt>
      <trkpt lat="47.17845" lon="-0.06891">
        <ele>38.79</ele>
        <time>2023-06-11T07:07:16.496Z</time>
      </trkpt>
      <trkpt lat="47.17851" lon="-0.06875">
        <ele>38.69</ele>
        <time>2023-06-11T07:07:50.798Z</time>
      </trkpt>
      <trkpt lat="47.17857" lon="-0.06859">
        <ele>38.72</ele>
        <time>2023-06-11T07:08:25.102Z</time>
      </trkpt>
      <trkpt lat="47.17863" lon="-0.06842">
        <ele>38.93</ele>
        <time>2023-06-11T07:08:59.408Z</time>
      </trkpt>
      <trkpt lat="47.17868" lon="-0.06827">
        <ele>39.3</ele>
        <time>2023-06-11T07:09:33.716Z</time>
      </trkpt>
      <trkpt lat="47.17874" lon="-0.06811">
        <ele>39.6</ele>
        <time>2023-06-11T07:10:08.026Z</time>
      </trkpt>
      <trkpt lat="47.17878" lon="-0.06799">
        <ele>39.8</ele>
        <time>2023-06-11T07:10:42.337Z</time>
      </trkpt>
      <trkpt lat="47.17879" lon="-0.06796">
        <ele>39.86</ele>
        <time>2023-06-11T07:11:16.649Z</time>
      </trkpt>
      <trkpt lat="47.17886" lon="-0.06783">
        <ele>40.05</ele>
        <time>2023-06-11T07:11:50.962Z</time>
      </trkpt>
      <trkpt lat="47.17892" lon="-0.06771">
        <ele>40.15</ele>
        <time>2023-06-11T07:12:25.277Z</time>
      </trkpt>
      <trkpt lat="47.17893" lon="-0.06769">
        <ele>40.17</ele>
        <time>2023-06-11T07:12:59.592Z</time>
      </trkpt>
      <trkpt lat="47.179" lon="-0.06755">
        <ele>40.17</ele>
        <time>2023-06-11T07:13:33.909Z</time>
      </trkpt>
      <trkpt lat="47.17906" lon="-0.06744">
        <ele>40.13</ele>
        <time>2023-06-11T07:14:08.228Z</time>
      </trkpt>
      <trkpt lat="47.17908" lon="-0.06741">
        <ele>40.12</ele>
        <time>2023-06-11T07:14:42.547Z</time>
      </trkpt>
      <trkpt lat="47.17915" lon="-0.0673">
        <ele>40.03</ele>
        <time>2023-06-11T07:15:16.868Z</time>
      </trkpt>
      <trkpt lat="47.17923" lon="-0.0672">
        <ele>40.08</ele>
        <time>2023-06-11T07:15:51.190Z</time>
      </trkpt>
      <trkpt lat="47.17939" lon="-0.06696">
        <ele>40.31</ele>
        <time>2023-06-11T07:16:25.516Z</time>
      </trkpt>
      <trkpt lat="47.17939" lon="-0.06696">
        <ele>40.31</ele>
        <time>2023-06-11T07:16:59.842Z</time>
      </trkpt>
      <trkpt lat="47.17933" lon="-0.06684">
        <ele>40.36</ele>
        <time>2023-06-11T07:17:34.170Z</time>
      </trkpt>
      <trkpt lat="47.17921" lon="-0.0668">
        <ele>40.43</ele>
        <time>2023-06-11T07:18:08.500Z</time>
      </trkpt>
      <trkpt lat="47.17909" lon="-0.06675">
        <ele>40.45</ele>
        <time>2023-06-11T07:18:42.832Z</time>
      </trkpt>
      <trkpt lat="47.179" lon="-0.06672">
        <ele>40.45</ele>
        <time>2023-06-11T07:19:17.165Z</time>
      </trkpt>
      <trkpt lat="47.17857" lon="-0.06654">
        <ele>40.46</ele>
        <time>2023-06-11T07:19:51.505Z</time>
      </trkpt>
      <trkpt lat="47.17836" lon="-0.06645">
        <ele>40.51</ele>
        <time>2023-06-11T07:20:25.849Z</time>
      </trkpt>
      <trkpt lat="47.17815" lon="-0.06636">
        <ele>40.61</ele>
        <time>2023-06-11T07:21:00.196Z</time>
      </trkpt>
      <trkpt lat="47.17805" lon="-0.06632">
        <ele>40.68</ele>
        <time>2023-06-11T07:21:34.545Z</time>
      </trkpt>
      <trkpt lat="47.17794" lon="-0.06627">
        <ele>40.78</ele>
        <time>2023-06-11T07:22:08.896Z</time>
      </trkpt>
      <trkpt lat="47.17772" lon="-0.06618">
        <ele>41.05</ele>
        <time>2023-06-11T07:22:43.251Z</time>
      </trkpt>
      <trkpt lat="47.17759" lon="-0.06612">
        <ele>41.32</ele>
        <time>2023-06-11T07:23:17.608Z</time>
      </trkpt>
      <trkpt lat="47.17759" lon="-0.06612">
        <ele>41.75</ele>
        <time>2023-06-11T07:23:51.965Z</time>
      </trkpt>
      <trkpt lat="47.17753" lon="-0.0661">
        <ele>41.7</ele>
        <time>2023-06-11T07:24:26.323Z</time>
      </trkpt>
      <trkpt lat="47.17745" lon="-0.06606">
        <ele>41.66</ele>
        <time>2023-06-11T07:25:00.682Z</time>
      </trkpt>
      <trkpt lat="47.1774" lon="-0.06604">
        <ele>41.68</ele>
        <time>2023-06-11T07:25:35.042Z</time>
      </trkpt>
      <trkpt lat="47.17737" lon="-0.066">
        <ele>41.7</ele>
        <time>2023-06-11T07:26:09.403Z</time>
      </trkpt>
      <trkpt lat="47.1773" lon="-0.0659">
        <ele>41.81</ele>
        <time>2023-06-11T07:26:43.765Z</time>
      </trkpt>
      <trkpt lat="47.1773" lon="-0.0659">
        <ele>41.81</ele>
        <time>2023-06-11T07:27:18.127Z</time>
      </trkpt>
      <trkpt lat="47.17736" lon="-0.06575">
        <ele>42.07</ele>
        <time>2023-06-11T07:27:52.491Z</time>
      </trkpt>
      <trkpt lat="47.17736" lon="-0.06574">
        <ele>42.07</ele>
        <time>2023-06-11T07:28:26.855Z</time>
      </trkpt>
      <trkpt lat="47.17739" lon="-0.06561">
        <ele>42.28</ele>
        <time>2023-06-11T07:29:01.221Z</time>
      </trkpt>
      <trkpt lat="47.17744" lon="-0.06536">
        <ele>42.76</ele>
        <time>2023-06-11T07:29:35.589Z</time>
      </trkpt>
      <trkpt lat="47.17749" lon="-0.06511">
        <ele>43.16</ele>
        <time>2023-06-11T07:30:09.960Z</time>
      </trkpt>
      <trkpt lat="47.17751" lon="-0.06498">
        <ele>43.41</ele>
        <time>2023-06-11T07:30:44.333Z</time>
      </trkpt>
      <trkpt lat="47.17753" lon="-0.06485">
        <ele>43.72</ele>
        <time>2023-06-11T07:31:18.707Z</time>
      </trkpt>
      <trkpt lat="47.17756" lon="-0.06473">
        <ele>44.09</ele>
        <time>2023-06-11T07:31:53.083Z</time>
      </trkpt>
      <trkpt lat="47.17762" lon="-0.06441">
        <ele>45.11</ele>
        <time>2023-06-11T07:32:27.462Z</time>
      </trkpt>
      <trkpt lat="47.17768" lon="-0.0641">
        <ele>46.09</ele>
        <time>2023-06-11T07:33:01.845Z</time>
      </trkpt>
      <trkpt lat="47.17773" lon="-0.06385">
        <ele>46.81</ele>
        <time>2023-06-11T07:33:36.231Z</time>
      </trkpt>
      <trkpt lat="47.17773" lon="-0.06378">
        <ele>47.03</ele>
        <time>2023-06-11T07:34:10.617Z</time>
      </trkpt>
      <trkpt lat="47.17774" lon="-0.06365">
        <ele>47.37</ele>
        <time>2023-06-11T07:34:45.005Z</time>
      </trkpt>
      <trkpt lat="47.17776" lon="-0.06338">
        <ele>47.94</ele>
        <time>2023-06-11T07:35:19.396Z</time>
      </trkpt>
      <trkpt lat="47.17778" lon="-0.06306">
        <ele>48.74</ele>
        <time>2023-06-11T07:35:53.790Z</time>
      </trkpt>
      <trkpt lat="47.17779" lon="-0.06296">
        <ele>48.95</ele>
        <time>2023-06-11T07:36:28.185Z</time>
      </trkpt>
      <trkpt lat="47.17779" lon="-0.06293">
        <ele>49.03</ele>
        <time>2023-06-11T07:37:02.581Z</time>
      </trkpt>
      <trkpt lat="47.17782" lon="-0.06273">
        <ele>49.43</ele>
        <time>2023-06-11T07:37:36.979Z</time>
      </trkpt>
      <trkpt lat="47.17787" lon="-0.06241">
        <ele>50</ele>
        <time>2023-06-11T07:38:11.380Z</time>
      </trkpt>
      <trkpt lat="47.17787" lon="-0.0624">
        <ele>50.06</ele>
        <time>2023-06-11T07:38:45.782Z</time>
      </trkpt>
      <trkpt lat="47.17786" lon="-0.06208">
        <ele>51.44</ele>
        <time>2023-06-11T07:39:20.187Z</time>
      </trkpt>
      <trkpt lat="47.17781" lon="-0.06193">
        <ele>52.18</ele>
        <time>2023-06-11T07:39:54.594Z</time>
      </trkpt>
      <trkpt lat="47.17778" lon="-0.06181">
        <ele>52.79</ele>
        <time>2023-06-11T07:40:29.002Z</time>
      </trkpt>
      <trkpt lat="47.17769" lon="-0.06153">
        <ele>54.39</ele>
        <time>2023-06-11T07:41:03.414Z</time>
      </trkpt>
      <trkpt lat="47.17764" lon="-0.06135">
        <ele>54.23</ele>
        <time>2023-06-11T07:41:37.828Z</time>
      </trkpt>
      <trkpt lat="47.17762" lon="-0.0611">
        <ele>54.03</ele>
        <time>2023-06-11T07:42:12.245Z</time>
      </trkpt>
      <trkpt lat="47.17761" lon="-0.06104">
        <ele>53.96</ele>
        <time>2023-06-11T07:42:46.662Z</time>
      </trkpt>
      <trkpt lat="47.17783" lon="-0.0611">
        <ele>53.62</ele>
        <time>2023-06-11T07:43:21.083Z</time>
      </trkpt>
      <trkpt lat="47.17793" lon="-0.06113">
        <ele>53.75</ele>
        <time>2023-06-11T07:43:55.505Z</time>
      </trkpt>
      <trkpt lat="47.17796" lon="-0.06113">
        <ele>53.79</ele>
        <time>2023-06-11T07:44:29.928Z</time>
      </trkpt>
      <trkpt lat="47.17817" lon="-0.06113">
        <ele>54</ele>
        <time>2023-06-11T07:45:04.354Z</time>
      </trkpt>
      <trkpt lat="47.17817" lon="-0.06111">
        <ele>54.02</ele>
        <time>2023-06-11T07:45:38.780Z</time>
      </trkpt>
      <trkpt lat="47.17817" lon="-0.06101">
        <ele>54.1</ele>
        <time>2023-06-11T07:46:13.208Z</time>
      </trkpt>
      <trkpt lat="47.17818" lon="-0.06098">
        <ele>54.13</ele>
        <time>2023-06-11T07:46:47.636Z</time>
      </trkpt>
      <trkpt lat="47.17823" lon="-0.06073">
        <ele>54.42</ele>
        <time>2023-06-11T07:47:22.067Z</time>
      </trkpt>
      <trkpt lat="47.17828" lon="-0.06047">
        <ele>54.77</ele>
        <time>2023-06-11T07:47:56.501Z</time>
      </trkpt>
      <trkpt lat="47.1783" lon="-0.06035">
        <ele>54.99</ele>
        <time>2023-06-11T07:48:30.936Z</time>
      </trkpt>
      <trkpt lat="47.17833" lon="-0.06023">
        <ele>55.24</ele>
        <time>2023-06-11T07:49:05.373Z</time>
      </trkpt>
      <trkpt lat="47.17836" lon="-0.0601">
        <ele>55.53</ele>
        <time>2023-06-11T07:49:39.811Z</time>
      </trkpt>
      <trkpt lat="47.17836" lon="-0.06008">
        <ele>55.58</ele>
        <time>2023-06-11T07:50:14.249Z</time>
      </trkpt>
      <trkpt lat="47.17835" lon="-0.05998">
        <ele>55.84</ele>
        <time>2023-06-11T07:50:48.688Z</time>
      </trkpt>
      <trkpt lat="47.17837" lon="-0.05992">
        <ele>56.02</ele>
        <time>2023-06-11T07:51:23.128Z</time>
      </trkpt>
      <trkpt lat="47.17839" lon="-0.05988">
        <ele>56.14</ele>
        <time>2023-06-11T07:51:57.569Z</time>
      </trkpt>
      <trkpt lat="47.17841" lon="-0.0598">
        <ele>56.39</ele>
        <time>2023-06-11T07:52:32.010Z</time>
      </trkpt>
      <trkpt lat="47.17847" lon="-0.05945">
        <ele>57.51</ele>
        <time>2023-06-11T07:53:06.455Z</time>
      </trkpt>
      <trkpt lat="47.17847" lon="-0.05935">
        <ele>57.82</ele>
        <time>2023-06-11T07:53:40.901Z</time>
      </trkpt>
      <trkpt lat="47.17848" lon="-0.05872">
        <ele>60.04</ele>
        <time>2023-06-11T07:54:15.354Z</time>
      </trkpt>
      <trkpt lat="47.17848" lon="-0.05858">
        <ele>60.54</ele>
        <time>2023-06-11T07:54:49.809Z</time>
      </trkpt>
      <trkpt lat="47.17843" lon="-0.05863">
        <ele>60.87</ele>
        <time>2023-06-11T07:55:24.265Z</time>
      </trkpt>
      <trkpt lat="47.17837" lon="-0.05863">
        <ele>61.2</ele>
        <time>2023-06-11T07:55:58.722Z</time>
      </trkpt>
      <trkpt lat="47.17828" lon="-0.05863">
        <ele>61.61</ele>
        <time>2023-06-11T07:56:33.180Z</time>
      </trkpt>
      <trkpt lat="47.17811" lon="-0.05863">
        <ele>62.34</ele>
        <time>2023-06-11T07:57:07.641Z</time>
      </trkpt>
      <trkpt lat="47.17809" lon="-0.05863">
        <ele>62.4</ele>
        <time>2023-06-11T07:57:42.102Z</time>
      </trkpt>
      <trkpt lat="47.17803" lon="-0.05864">
        <ele>62.57</ele>
        <time>2023-06-11T07:58:16.564Z</time>
      </trkpt>
      <trkpt lat="47.17798" lon="-0.05864">
        <ele>62.71</ele>
        <time>2023-06-11T07:58:51.027Z</time>
      </trkpt>
      <trkpt lat="47.17794" lon="-0.05864">
        <ele>62.88</ele>
        <time>2023-06-11T07:59:25.491Z</time>
      </trkpt>
      <trkpt lat="47.17789" lon="-0.05865">
        <ele>63.09</ele>
        <time>2023-06-11T07:59:59.956Z</time>
      </trkpt>
      <trkpt lat="47.17785" lon="-0.05865">
        <ele>63.33</ele>
        <time>2023-06-11T08:00:34.421Z</time>
      </trkpt>
      <trkpt lat="47.17776" lon="-0.05866">
        <ele>63.82</ele>
        <time>2023-06-11T08:01:08.888Z</time>
      </trkpt>
      <trkpt lat="47.17774" lon="-0.05846">
        <ele>64.62</ele>
        <time>2023-06-11T08:01:43.357Z</time>
      </trkpt>
      <trkpt lat="47.17773" lon="-0.05833">
        <ele>65.17</ele>
        <time>2023-06-11T08:02:17.827Z</time>
      </trkpt>
      <trkpt lat="47.17769" lon="-0.058">
        <ele>66.61</ele>
        <time>2023-06-11T08:02:52.301Z</time>
      </trkpt>
      <trkpt lat="47.17767" lon="-0.05777">
        <ele>67.71</ele>
        <time>2023-06-11T08:03:26.777Z</time>
      </trkpt>
      <trkpt lat="47.17767" lon="-0.05768">
        <ele>68.14</ele>
        <time>2023-06-11T08:04:01.254Z</time>
      </trkpt>
      <trkpt lat="47.17767" lon="-0.05755">
        <ele>68.66</ele>
        <time>2023-06-11T08:04:35.733Z</time>
      </trkpt>
      <trkpt lat="47.17768" lon="-0.05748">
        <ele>68.87</ele>
        <time>2023-06-11T08:05:10.213Z</time>
      </trkpt>
      <trkpt lat="47.17768" lon="-0.05741">
        <ele>69.03</ele>
        <time>2023-06-11T08:05:44.693Z</time>
      </trkpt>
      <trkpt lat="47.17768" lon="-0.05735">
        <ele>69.17</ele>
        <time>2023-06-11T08:06:19.174Z</time>
      </trkpt>
      <trkpt lat="47.17768" lon="-0.05728">
        <ele>69.27</ele>
        <time>2023-06-11T08:06:53.656Z</time>
      </trkpt>
      <trkpt lat="47.17769" lon="-0.05722">
        <ele>69.37</ele>
        <time>2023-06-11T08:07:28.138Z</time>
      </trkpt>
      <trkpt lat="47.1777" lon="-0.05709">
        <ele>69.49</ele>
        <time>2023-06-11T08:08:02.622Z</time>
      </trkpt>
      <trkpt lat="47.17771" lon="-0.05696">
        <ele>69.54</ele>
        <time>2023-06-11T08:08:37.107Z</time>
      </trkpt>
      <trkpt lat="47.17772" lon="-0.05682">
        <ele>69.52</ele>
        <time>2023-06-11T08:09:11.594Z</time>
      </trkpt>
      <trkpt lat="47.17772" lon="-0.05682">
        <ele>69.52</ele>
        <time>2023-06-11T08:09:46.081Z</time>
      </trkpt>
      <trkpt lat="47.17773" lon="-0.05676">
        <ele>69.48</ele>
        <time>2023-06-11T08:10:20.569Z</time>
      </trkpt>
      <trkpt lat="47.17775" lon="-0.05663">
        <ele>69.34</ele>
        <time>2023-06-11T08:10:55.058Z</time>
      </trkpt>
      <trkpt lat="47.17776" lon="-0.05657">
        <ele>69.23</ele>
        <time>2023-06-11T08:11:29.548Z</time>
      </trkpt>
      <trkpt lat="47.17777" lon="-0.05651">
        <ele>69.1</ele>
        <time>2023-06-11T08:12:04.038Z</time>
      </trkpt>
      <trkpt lat="47.17778" lon="-0.05644">
        <ele>68.94</ele>
        <time>2023-06-11T08:12:38.529Z</time>
      </trkpt>
      <trkpt lat="47.17779" lon="-0.05638">
        <ele>68.77</ele>
        <time>2023-06-11T08:13:13.021Z</time>
      </trkpt>
      <trkpt lat="47.17783" lon="-0.05612">
        <ele>67.99</ele>
        <time>2023-06-11T08:13:47.516Z</time>
      </trkpt>
      <trkpt lat="47.17784" lon="-0.05606">
        <ele>67.83</ele>
        <time>2023-06-11T08:14:22.011Z</time>
      </trkpt>
      <trkpt lat="47.17785" lon="-0.05601">
        <ele>67.72</ele>
        <time>2023-06-11T08:14:56.507Z</time>
      </trkpt>
      <trkpt lat="47.17789" lon="-0.0558">
        <ele>67.25</ele>
        <time>2023-06-11T08:15:31.005Z</time>
      </trkpt>
      <trkpt lat="47.17792" lon="-0.05568">
        <ele>66.92</ele>
        <time>2023-06-11T08:16:05.505Z</time>
      </trkpt>
      <trkpt lat="47.17797" lon="-0.05542">
        <ele>68.47</ele>
        <time>2023-06-11T08:16:40.008Z</time>
      </trkpt>
      <trkpt lat="47.17794" lon="-0.05524">
        <ele>69.57</ele>
        <time>2023-06-11T08:17:14.513Z</time>
      </trkpt>
      <trkpt lat="47.17793" lon="-0.05517">
        <ele>69.95</ele>
        <time>2023-06-11T08:17:49.018Z</time>
      </trkpt>
      <trkpt lat="47.17773" lon="-0.05502">
        <ele>71.75</ele>
        <time>2023-06-11T08:18:23.527Z</time>
      </trkpt>
      <trkpt lat="47.17766" lon="-0.05496">
        <ele>72.44</ele>
        <time>2023-06-11T08:18:58.037Z</time>
      </trkpt>
      <trkpt lat="47.17758" lon="-0.0549">
        <ele>73.07</ele>
        <time>2023-06-11T08:19:32.549Z</time>
      </trkpt>
      <trkpt lat="47.1775" lon="-0.05485">
        <ele>73.64</ele>
        <time>2023-06-11T08:20:07.062Z</time>
      </trkpt>
      <trkpt lat="47.17742" lon="-0.05479">
        <ele>74.19</ele>
        <time>2023-06-11T08:20:41.577Z</time>
      </trkpt>
      <trkpt lat="47.17734" lon="-0.05473">
        <ele>74.71</ele>
        <time>2023-06-11T08:21:16.093Z</time>
      </trkpt>
      <trkpt lat="47.17717" lon="-0.0546">
        <ele>75.73</ele>
        <time>2023-06-11T08:21:50.612Z</time>
      </trkpt>
      <trkpt lat="47.17701" lon="-0.05453">
        <ele>76.63</ele>
        <time>2023-06-11T08:22:25.134Z</time>
      </trkpt>
      <trkpt lat="47.17697" lon="-0.05452">
        <ele>76.87</ele>
        <time>2023-06-11T08:22:59.656Z</time>
      </trkpt>
      <trkpt lat="47.17687" lon="-0.0545">
        <ele>76.97</ele>
        <time>2023-06-11T08:23:34.180Z</time>
      </trkpt>
      <trkpt lat="47.17683" lon="-0.0545">
        <ele>76.8</ele>
        <time>2023-06-11T08:24:08.705Z</time>
      </trkpt>
      <trkpt lat="47.1768" lon="-0.05449">
        <ele>76.65</ele>
        <time>2023-06-11T08:24:43.230Z</time>
      </trkpt>
      <trkpt lat="47.17679" lon="-0.05449">
        <ele>76.59</ele>
        <time>2023-06-11T08:25:17.755Z</time>
      </trkpt>
      <trkpt lat="47.17674" lon="-0.05449">
        <ele>76.35</ele>
        <time>2023-06-11T08:25:52.281Z</time>
      </trkpt>
      <trkpt lat="47.17671" lon="-0.05449">
        <ele>76.15</ele>
        <time>2023-06-11T08:26:26.808Z</time>
      </trkpt>
      <trkpt lat="47.17662" lon="-0.05452">
        <ele>75.59</ele>
        <time>2023-06-11T08:27:01.336Z</time>
      </trkpt>
      <trkpt lat="47.17661" lon="-0.05453">
        <ele>75.54</ele>
        <time>2023-06-11T08:27:35.864Z</time>
      </trkpt>
      <trkpt lat="47.17657" lon="-0.05456">
        <ele>75.29</ele>
        <time>2023-06-11T08:28:10.393Z</time>
      </trkpt>
      <trkpt lat="47.17654" lon="-0.05458">
        <ele>75.11</ele>
        <time>2023-06-11T08:28:44.923Z</time>
      </trkpt>
      <trkpt lat="47.17644" lon="-0.05444">
        <ele>74.4</ele>
        <time>2023-06-11T08:29:19.455Z</time>
      </trkpt>
      <trkpt lat="47.17637" lon="-0.05435">
        <ele>73.98</ele>
        <time>2023-06-11T08:29:53.988Z</time>
      </trkpt>
      <trkpt lat="47.17636" lon="-0.05433">
        <ele>73.91</ele>
        <time>2023-06-11T08:30:28.522Z</time>
      </trkpt>
      <trkpt lat="47.1763" lon="-0.05427">
        <ele>73.6</ele>
        <time>2023-06-11T08:31:03.057Z</time>
      </trkpt>
      <trkpt lat="47.17626" lon="-0.05424">
        <ele>73.44</ele>
        <time>2023-06-11T08:31:37.592Z</time>
      </trkpt>
      <trkpt lat="47.17626" lon="-0.05424">
        <ele>73.44</ele>
        <time>2023-06-11T08:32:12.127Z</time>
      </trkpt>
      <trkpt lat="47.17621" lon="-0.05413">
        <ele>73.15</ele>
        <time>2023-06-11T08:32:46.664Z</time>
      </trkpt>
      <trkpt lat="47.17616" lon="-0.05402">
        <ele>72.91</ele>
        <time>2023-06-11T08:33:21.202Z</time>
      </trkpt>
      <trkpt lat="47.17609" lon="-0.05386">
        <ele>72.62</ele>
        <time>2023-06-11T08:33:55.742Z</time>
      </trkpt>
      <trkpt lat="47.17606" lon="-0.0538">
        <ele>72.54</ele>
        <time>2023-06-11T08:34:30.283Z</time>
      </trkpt>
      <trkpt lat="47.17601" lon="-0.05369">
        <ele>72.43</ele>
        <time>2023-06-11T08:35:04.826Z</time>
      </trkpt>
      <trkpt lat="47.17594" lon="-0.05353">
        <ele>72.33</ele>
        <time>2023-06-11T08:35:39.371Z</time>
      </trkpt>
      <trkpt lat="47.17585" lon="-0.05333">
        <ele>72.28</ele>
        <time>2023-06-11T08:36:13.918Z</time>
      </trkpt>
      <trkpt lat="47.17584" lon="-0.05331">
        <ele>72.28</ele>
        <time>2023-06-11T08:36:48.466Z</time>
      </trkpt>
      <trkpt lat="47.17577" lon="-0.05322">
        <ele>72.24</ele>
        <time>2023-06-11T08:37:23.015Z</time>
      </trkpt>
      <trkpt lat="47.17575" lon="-0.05319">
        <ele>72.2</ele>
        <time>2023-06-11T08:37:57.565Z</time>
      </trkpt>
      <trkpt lat="47.1757" lon="-0.05314">
        <ele>72.14</ele>
        <time>2023-06-11T08:38:32.115Z</time>
      </trkpt>
      <trkpt lat="47.17549" lon="-0.0529">
        <ele>71.69</ele>
        <time>2023-06-11T08:39:06.670Z</time>
      </trkpt>
      <trkpt lat="47.17547" lon="-0.05288">
        <ele>71.65</ele>
        <time>2023-06-11T08:39:41.225Z</time>
      </trkpt>
      <trkpt lat="47.17543" lon="-0.05281">
        <ele>71.58</ele>
        <time>2023-06-11T08:40:15.781Z</time>
      </trkpt>
      <trkpt lat="47.17538" lon="-0.05274">
        <ele>71.51</ele>
        <time>2023-06-11T08:40:50.338Z</time>
      </trkpt>
      <trkpt lat="47.17534" lon="-0.05266">
        <ele>71.45</ele>
        <time>2023-06-11T08:41:24.896Z</time>
      </trkpt>
      <trkpt lat="47.1753" lon="-0.05256">
        <ele>71.4</ele>
        <time>2023-06-11T08:41:59.456Z</time>
      </trkpt>
      <trkpt lat="47.17528" lon="-0.05248">
        <ele>71.37</ele>
        <time>2023-06-11T08:42:34.016Z</time>
      </trkpt>
      <trkpt lat="47.17526" lon="-0.05236">
        <ele>71.37</ele>
        <time>2023-06-11T08:43:08.578Z</time>
      </trkpt>
      <trkpt lat="47.17521" lon="-0.05225">
        <ele>71.38</ele>
        <time>2023-06-11T08:43:43.141Z</time>
      </trkpt>
      <trkpt lat="47.17517" lon="-0.05215">
        <ele>71.4</ele>
        <time>2023-06-11T08:44:17.706Z</time>
      </trkpt>
      <trkpt lat="47.17512" lon="-0.0521">
        <ele>71.42</ele>
        <time>2023-06-11T08:44:52.271Z</time>
      </trkpt>
      <trkpt lat="47.17505" lon="-0.05203">
        <ele>71.5</ele>
        <time>2023-06-11T08:45:26.838Z</time>
      </trkpt>
      <trkpt lat="47.17504" lon="-0.05202">
        <ele>71.51</ele>
        <time>2023-06-11T08:46:01.405Z</time>
      </trkpt>
      <trkpt lat="47.17497" lon="-0.05196">
        <ele>71.63</ele>
        <time>2023-06-11T08:46:35.973Z</time>
      </trkpt>
      <trkpt lat="47.17494" lon="-0.05193">
        <ele>71.71</ele>
        <time>2023-06-11T08:47:10.542Z</time>
      </trkpt>
      <trkpt lat="47.17486" lon="-0.05186">
        <ele>71.92</ele>
        <time>2023-06-11T08:47:45.112Z</time>
      </trkpt>
      <trkpt lat="47.17452" lon="-0.05155">
        <ele>73.08</ele>
        <time>2023-06-11T08:48:19.689Z</time>
      </trkpt>
      <trkpt lat="47.17445" lon="-0.05149">
        <ele>73.29</ele>
        <time>2023-06-11T08:48:54.267Z</time>
      </trkpt>
      <trkpt lat="47.17444" lon="-0.05148">
        <ele>73.32</ele>
        <time>2023-06-11T08:49:28.845Z</time>
      </trkpt>
      <trkpt lat="47.17437" lon="-0.0514">
        <ele>73.52</ele>
        <time>2023-06-11T08:50:03.425Z</time>
      </trkpt>
      <trkpt lat="47.17424" lon="-0.05123">
        <ele>73.85</ele>
        <time>2023-06-11T08:50:38.008Z</time>
      </trkpt>
      <trkpt lat="47.17407" lon="-0.05102">
        <ele>74.15</ele>
        <time>2023-06-11T08:51:12.594Z</time>
      </trkpt>
      <trkpt lat="47.17401" lon="-0.05095">
        <ele>74.27</ele>
        <time>2023-06-11T08:51:47.181Z</time>
      </trkpt>
      <trkpt lat="47.17397" lon="-0.05088">
        <ele>74.38</ele>
        <time>2023-06-11T08:52:21.769Z</time>
      </trkpt>
      <trkpt lat="47.17383" lon="-0.05063">
        <ele>74.88</ele>
        <time>2023-06-11T08:52:56.361Z</time>
      </trkpt>
      <trkpt lat="47.17381" lon="-0.05059">
        <ele>74.95</ele>
        <time>2023-06-11T08:53:30.953Z</time>
      </trkpt>
      <trkpt lat="47.17377" lon="-0.05053">
        <ele>75.1</ele>
        <time>2023-06-11T08:54:05.546Z</time>
      </trkpt>
      <trkpt lat="47.17368" lon="-0.05041">
        <ele>75.43</ele>
        <time>2023-06-11T08:54:40.141Z</time>
      </trkpt>
      <trkpt lat="47.17359" lon="-0.05033">
        <ele>75.71</ele>
        <time>2023-06-11T08:55:14.738Z</time>
      </trkpt>
      <trkpt lat="47.17352" lon="-0.05026">
        <ele>75.9</ele>
        <time>2023-06-11T08:55:49.336Z</time>
      </trkpt>
      <trkpt lat="47.17348" lon="-0.05023">
        <ele>75.98</ele>
        <time>2023-06-11T08:56:23.935Z</time>
      </trkpt>
      <trkpt lat="47.1734" lon="-0.05016">
        <ele>76.09</ele>
        <time>2023-06-11T08:56:58.535Z</time>
      </trkpt>
      <trkpt lat="47.17318" lon="-0.04995">
        <ele>76.33</ele>
        <time>2023-06-11T08:57:33.140Z</time>
      </trkpt>
      <trkpt lat="47.17306" lon="-0.04985">
        <ele>76.31</ele>
        <time>2023-06-11T08:58:07.747Z</time>
      </trkpt>
      <trkpt lat="47.17291" lon="-0.04971">
        <ele>76.34</ele>
        <time>2023-06-11T08:58:42.357Z</time>
      </trkpt>
      <trkpt lat="47.17288" lon="-0.04968">
        <ele>76.33</ele>
        <time>2023-06-11T08:59:16.967Z</time>
      </trkpt>
      <trkpt lat="47.17284" lon="-0.04963">
        <ele>76.33</ele>
        <time>2023-06-11T08:59:51.578Z</time>
      </trkpt>
      <trkpt lat="47.17281" lon="-0.04958">
        <ele>76.3</ele>
        <time>2023-06-11T09:00:26.190Z</time>
      </trkpt>
      <trkpt lat="47.17277" lon="-0.04954">
        <ele>76.25</ele>
        <time>2023-06-11T09:01:00.803Z</time>
      </trkpt>
      <trkpt lat="47.17274" lon="-0.0495">
        <ele>76.17</ele>
        <time>2023-06-11T09:01:35.416Z</time>
      </trkpt>
      <trkpt lat="47.17257" lon="-0.04927">
        <ele>75.64</ele>
        <time>2023-06-11T09:02:10.033Z</time>
      </trkpt>
      <trkpt lat="47.17248" lon="-0.04913">
        <ele>75.36</ele>
        <time>2023-06-11T09:02:44.652Z</time>
      </trkpt>
      <trkpt lat="47.17244" lon="-0.04907">
        <ele>75.23</ele>
        <time>2023-06-11T09:03:19.272Z</time>
      </trkpt>
      <trkpt lat="47.17234" lon="-0.04888">
        <ele>74.89</ele>
        <time>2023-06-11T09:03:53.895Z</time>
      </trkpt>
      <trkpt lat="47.17218" lon="-0.04856">
        <ele>74.23</ele>
        <time>2023-06-11T09:04:28.522Z</time>
      </trkpt>
      <trkpt lat="47.17205" lon="-0.04829">
        <ele>73.74</ele>
        <time>2023-06-11T09:05:03.153Z</time>
      </trkpt>
      <trkpt lat="47.17197" lon="-0.04814">
        <ele>73.4</ele>
        <time>2023-06-11T09:05:37.786Z</time>
      </trkpt>
      <trkpt lat="47.17191" lon="-0.04804">
        <ele>73.17</ele>
        <time>2023-06-11T09:06:12.420Z</time>
      </trkpt>
      <trkpt lat="47.17175" lon="-0.0478">
        <ele>72.74</ele>
        <time>2023-06-11T09:06:47.058Z</time>
      </trkpt>
      <trkpt lat="47.17166" lon="-0.04765">
        <ele>72.56</ele>
        <time>2023-06-11T09:07:21.698Z</time>
      </trkpt>
      <trkpt lat="47.17163" lon="-0.0476">
        <ele>72.52</ele>
        <time>2023-06-11T09:07:56.339Z</time>
      </trkpt>
      <trkpt lat="47.17157" lon="-0.04751">
        <ele>72.48</ele>
        <time>2023-06-11T09:08:30.981Z</time>
      </trkpt>
      <trkpt lat="47.1715" lon="-0.04739">
        <ele>72.48</ele>
        <time>2023-06-11T09:09:05.625Z</time>
      </trkpt>
      <trkpt lat="47.17148" lon="-0.04736">
        <ele>72.49</ele>
        <time>2023-06-11T09:09:40.269Z</time>
      </trkpt>
      <trkpt lat="47.17131" lon="-0.04705">
        <ele>72.6</ele>
        <time>2023-06-11T09:10:14.918Z</time>
      </trkpt>
      <trkpt lat="47.17115" lon="-0.04674">
        <ele>72.77</ele>
        <time>2023-06-11T09:10:49.571Z</time>
      </trkpt>
      <trkpt lat="47.17109" lon="-0.04664">
        <ele>72.8</ele>
        <time>2023-06-11T09:11:24.225Z</time>
      </trkpt>
      <trkpt lat="47.17103" lon="-0.04653">
        <ele>72.78</ele>
        <time>2023-06-11T09:11:58.881Z</time>
      </trkpt>
      <trkpt lat="47.17103" lon="-0.04653">
        <ele>72.78</ele>
        <time>2023-06-11T09:12:33.537Z</time>
      </trkpt>
      <trkpt lat="47.17086" lon="-0.04633">
        <ele>72.66</ele>
        <time>2023-06-11T09:13:08.196Z</time>
      </trkpt>
      <trkpt lat="47.17084" lon="-0.0463">
        <ele>72.65</ele>
        <time>2023-06-11T09:13:42.856Z</time>
      </trkpt>
      <trkpt lat="47.17071" lon="-0.04621">
        <ele>72.61</ele>
        <time>2023-06-11T09:14:17.518Z</time>
      </trkpt>
      <trkpt lat="47.1707" lon="-0.04621">
        <ele>72.61</ele>
        <time>2023-06-11T09:14:52.180Z</time>
      </trkpt>
      <trkpt lat="47.17057" lon="-0.04617">
        <ele>72.49</ele>
        <time>2023-06-11T09:15:26.844Z</time>
      </trkpt>
      <trkpt lat="47.17053" lon="-0.04616">
        <ele>72.42</ele>
        <time>2023-06-11T09:16:01.509Z</time>
      </trkpt>
      <trkpt lat="47.17044" lon="-0.04613">
        <ele>72.24</ele>
        <time>2023-06-11T09:16:36.176Z</time>
      </trkpt>
      <trkpt lat="47.17035" lon="-0.0461">
        <ele>72</ele>
        <time>2023-06-11T09:17:10.844Z</time>
      </trkpt>
      <trkpt lat="47.17034" lon="-0.0461">
        <ele>71.96</ele>
        <time>2023-06-11T09:17:45.512Z</time>
      </trkpt>
      <trkpt lat="47.17025" lon="-0.04603">
        <ele>71.67</ele>
        <time>2023-06-11T09:18:20.182Z</time>
      </trkpt>
      <trkpt lat="47.17017" lon="-0.04591">
        <ele>71.36</ele>
        <time>2023-06-11T09:18:54.854Z</time>
      </trkpt>
      <trkpt lat="47.17002" lon="-0.04567">
        <ele>70.58</ele>
        <time>2023-06-11T09:19:29.529Z</time>
      </trkpt>
      <trkpt lat="47.16996" lon="-0.04558">
        <ele>70.24</ele>
        <time>2023-06-11T09:20:04.206Z</time>
      </trkpt>
      <trkpt lat="47.16987" lon="-0.04543">
        <ele>69.69</ele>
        <time>2023-06-11T09:20:38.885Z</time>
      </trkpt>
      <trkpt lat="47.16984" lon="-0.04539">
        <ele>69.53</ele>
        <time>2023-06-11T09:21:13.564Z</time>
      </trkpt>
      <trkpt lat="47.16977" lon="-0.04529">
        <ele>69.26</ele>
        <time>2023-06-11T09:21:48.245Z</time>
      </trkpt>
      <trkpt lat="47.16971" lon="-0.04519">
        <ele>69.14</ele>
        <time>2023-06-11T09:22:22.927Z</time>
      </trkpt>
      <trkpt lat="47.16969" lon="-0.04514">
        <ele>69.1</ele>
        <time>2023-06-11T09:22:57.610Z</time>
      </trkpt>
      <trkpt lat="47.16956" lon="-0.04488">
        <ele>68.95</ele>
        <time>2023-06-11T09:23:32.297Z</time>
      </trkpt>
      <trkpt lat="47.16952" lon="-0.04483">
        <ele>68.92</ele>
        <time>2023-06-11T09:24:06.984Z</time>
      </trkpt>
      <trkpt lat="47.1693" lon="-0.04451">
        <ele>68.66</ele>
        <time>2023-06-11T09:24:41.676Z</time>
      </trkpt>
      <trkpt lat="47.16924" lon="-0.04441">
        <ele>68.56</ele>
        <time>2023-06-11T09:25:16.370Z</time>
      </trkpt>
      <trkpt lat="47.16918" lon="-0.04432">
        <ele>68.37</ele>
        <time>2023-06-11T09:25:51.065Z</time>
      </trkpt>
      <trkpt lat="47.16905" lon="-0.04414">
        <ele>67.88</ele>
        <time>2023-06-11T09:26:25.763Z</time>
      </trkpt>
      <trkpt lat="47.16903" lon="-0.04411">
        <ele>67.8</ele>
        <time>2023-06-11T09:27:00.461Z</time>
      </trkpt>
      <trkpt lat="47.16902" lon="-0.04409">
        <ele>67.74</ele>
        <time>2023-06-11T09:27:35.160Z</time>
      </trkpt>
      <trkpt lat="47.16896" lon="-0.04398">
        <ele>67.42</ele>
        <time>2023-06-11T09:28:09.860Z</time>
      </trkpt>
      <trkpt lat="47.16891" lon="-0.04388">
        <ele>67.03</ele>
        <time>2023-06-11T09:28:44.562Z</time>
      </trkpt>
      <trkpt lat="47.16885" lon="-0.04378">
        <ele>66.57</ele>
        <time>2023-06-11T09:29:19.265Z</time>
      </trkpt>
      <trkpt lat="47.16874" lon="-0.04357">
        <ele>65.52</ele>
        <time>2023-06-11T09:29:53.971Z</time>
      </trkpt>
      <trkpt lat="47.16872" lon="-0.04352">
        <ele>65.29</ele>
        <time>2023-06-11T09:30:28.678Z</time>
      </trkpt>
      <trkpt lat="47.1687" lon="-0.04349">
        <ele>65.17</ele>
        <time>2023-06-11T09:31:03.385Z</time>
      </trkpt>
      <trkpt lat="47.16862" lon="-0.04338">
        <ele>64.66</ele>
        <time>2023-06-11T09:31:38.094Z</time>
      </trkpt>
      <trkpt lat="47.16846" lon="-0.04316">
        <ele>63.54</ele>
        <time>2023-06-11T09:32:12.806Z</time>
      </trkpt>
      <trkpt lat="47.16829" lon="-0.04293">
        <ele>62.53</ele>
        <time>2023-06-11T09:32:47.522Z</time>
      </trkpt>
      <trkpt lat="47.16826" lon="-0.04289">
        <ele>62.3</ele>
        <time>2023-06-11T09:33:22.239Z</time>
      </trkpt>
      <trkpt lat="47.16817" lon="-0.04275">
        <ele>61.61</ele>
        <time>2023-06-11T09:33:56.958Z</time>
      </trkpt>
      <trkpt lat="47.16813" lon="-0.0427">
        <ele>61.42</ele>
        <time>2023-06-11T09:34:31.678Z</time>
      </trkpt>
      <trkpt lat="47.16807" lon="-0.0426">
        <ele>61.09</ele>
        <time>2023-06-11T09:35:06.399Z</time>
      </trkpt>
      <trkpt lat="47.16801" lon="-0.04251">
        <ele>60.99</ele>
        <time>2023-06-11T09:35:41.121Z</time>
      </trkpt>
      <trkpt lat="47.1679" lon="-0.04234">
        <ele>60.65</ele>
        <time>2023-06-11T09:36:15.846Z</time>
      </trkpt>
      <trkpt lat="47.16785" lon="-0.04221">
        <ele>60.45</ele>
        <time>2023-06-11T09:36:50.573Z</time>
      </trkpt>
      <trkpt lat="47.16785" lon="-0.04221">
        <ele>60.45</ele>
        <time>2023-06-11T09:37:25.300Z</time>
      </trkpt>
      <trkpt lat="47.16787" lon="-0.04211">
        <ele>60.23</ele>
        <time>2023-06-11T09:38:00.028Z</time>
      </trkpt>
      <trkpt lat="47.16787" lon="-0.04209">
        <ele>60.21</ele>
        <time>2023-06-11T09:38:34.756Z</time>
      </trkpt>
      <trkpt lat="47.16785" lon="-0.04197">
        <ele>59.94</ele>
        <time>2023-06-11T09:39:09.485Z</time>
      </trkpt>
      <trkpt lat="47.16781" lon="-0.04179">
        <ele>59.56</ele>
        <time>2023-06-11T09:39:44.216Z</time>
      </trkpt>
      <trkpt lat="47.16777" lon="-0.04161">
        <ele>59.23</ele>
        <time>2023-06-11T09:40:18.949Z</time>
      </trkpt>
      <trkpt lat="47.16772" lon="-0.04136">
        <ele>58.82</ele>
        <time>2023-06-11T09:40:53.685Z</time>
      </trkpt>
      <trkpt lat="47.16765" lon="-0.04105">
        <ele>58.08</ele>
        <time>2023-06-11T09:41:28.425Z</time>
      </trkpt>
      <trkpt lat="47.16761" lon="-0.04087">
        <ele>57.68</ele>
        <time>2023-06-11T09:42:03.167Z</time>
      </trkpt>
      <trkpt lat="47.16761" lon="-0.04087">
        <ele>57.68</ele>
        <time>2023-06-11T09:42:37.909Z</time>
      </trkpt>
      <trkpt lat="47.16758" lon="-0.04074">
        <ele>57.46</ele>
        <time>2023-06-11T09:43:12.652Z</time>
      </trkpt>
      <trkpt lat="47.16753" lon="-0.04056">
        <ele>57.19</ele>
        <time>2023-06-11T09:43:47.398Z</time>
      </trkpt>
      <trkpt lat="47.16747" lon="-0.04032">
        <ele>56.87</ele>
        <time>2023-06-11T09:44:22.146Z</time>
      </trkpt>
      <trkpt lat="47.16744" lon="-0.04019">
        <ele>56.74</ele>
        <time>2023-06-11T09:44:56.896Z</time>
      </trkpt>
      <trkpt lat="47.16739" lon="-0.04002">
        <ele>56.62</ele>
        <time>2023-06-11T09:45:31.648Z</time>
      </trkpt>
      <trkpt lat="47.16739" lon="-0.04001">
        <ele>56.62</ele>
        <time>2023-06-11T09:46:06.400Z</time>
      </trkpt>
      <trkpt lat="47.16739" lon="-0.03989">
        <ele>56.57</ele>
        <time>2023-06-11T09:46:41.153Z</time>
      </trkpt>
      <trkpt lat="47.16743" lon="-0.03969">
        <ele>56.5</ele>
        <time>2023-06-11T09:47:15.909Z</time>
      </trkpt>
      <trkpt lat="47.16745" lon="-0.03956">
        <ele>56.39</ele>
        <time>2023-06-11T09:47:50.666Z</time>
      </trkpt>
      <trkpt lat="47.16746" lon="-0.0395">
        <ele>56.3</ele>
        <time>2023-06-11T09:48:25.424Z</time>
      </trkpt>
      <trkpt lat="47.16747" lon="-0.03944">
        <ele>56.18</ele>
        <time>2023-06-11T09:49:00.182Z</time>
      </trkpt>
      <trkpt lat="47.16748" lon="-0.03938">
        <ele>56.04</ele>
        <time>2023-06-11T09:49:34.941Z</time>
      </trkpt>
      <trkpt lat="47.1675" lon="-0.03925">
        <ele>55.72</ele>
        <time>2023-06-11T09:50:09.702Z</time>
      </trkpt>
      <trkpt lat="47.16753" lon="-0.03912">
        <ele>55.36</ele>
        <time>2023-06-11T09:50:44.464Z</time>
      </trkpt>
      <trkpt lat="47.16755" lon="-0.039">
        <ele>54.95</ele>
        <time>2023-06-11T09:51:19.227Z</time>
      </trkpt>
      <trkpt lat="47.16756" lon="-0.03894">
        <ele>54.74</ele>
        <time>2023-06-11T09:51:53.991Z</time>
      </trkpt>
      <trkpt lat="47.16754" lon="-0.0388">
        <ele>54.25</ele>
        <time>2023-06-11T09:52:28.757Z</time>
      </trkpt>
      <trkpt lat="47.16745" lon="-0.03866">
        <ele>53.6</ele>
        <time>2023-06-11T09:53:03.525Z</time>
      </trkpt>
      <trkpt lat="47.16739" lon="-0.03856">
        <ele>53.21</ele>
        <time>2023-06-11T09:53:38.294Z</time>
      </trkpt>
      <trkpt lat="47.16733" lon="-0.03847">
        <ele>52.9</ele>
        <time>2023-06-11T09:54:13.064Z</time>
      </trkpt>
      <trkpt lat="47.16727" lon="-0.03837">
        <ele>52.65</ele>
        <time>2023-06-11T09:54:47.836Z</time>
      </trkpt>
      <trkpt lat="47.16726" lon="-0.03835">
        <ele>52.6</ele>
        <time>2023-06-11T09:55:22.608Z</time>
      </trkpt>
      <trkpt lat="47.16724" lon="-0.03832">
        <ele>52.55</ele>
        <time>2023-06-11T09:55:57.381Z</time>
      </trkpt>
      <trkpt lat="47.16719" lon="-0.03822">
        <ele>52.4</ele>
        <time>2023-06-11T09:56:32.155Z</time>
      </trkpt>
      <trkpt lat="47.16707" lon="-0.03802">
        <ele>52.21</ele>
        <time>2023-06-11T09:57:06.932Z</time>
      </trkpt>
      <trkpt lat="47.16701" lon="-0.03792">
        <ele>52.17</ele>
        <time>2023-06-11T09:57:41.710Z</time>
      </trkpt>
      <trkpt lat="47.16696" lon="-0.03782">
        <ele>52.18</ele>
        <time>2023-06-11T09:58:16.490Z</time>
      </trkpt>
      <trkpt lat="47.16684" lon="-0.03763">
        <ele>52.27</ele>
        <time>2023-06-11T09:58:51.273Z</time>
      </trkpt>
      <trkpt lat="47.16676" lon="-0.03748">
        <ele>52.4</ele>
        <time>2023-06-11T09:59:26.058Z</time>
      </trkpt>
      <trkpt lat="47.16673" lon="-0.03743">
        <ele>52.47</ele>
        <time>2023-06-11T10:00:00.843Z</time>
      </trkpt>
      <trkpt lat="47.16673" lon="-0.03743">
        <ele>52.47</ele>
        <time>2023-06-11T10:00:35.628Z</time>
      </trkpt>
      <trkpt lat="47.16679" lon="-0.03735">
        <ele>52.64</ele>
        <time>2023-06-11T10:01:10.415Z</time>
      </trkpt>
      <trkpt lat="47.16689" lon="-0.03722">
        <ele>52.95</ele>
        <time>2023-06-11T10:01:45.204Z</time>
      </trkpt>
      <trkpt lat="47.16696" lon="-0.03713">
        <ele>53.03</ele>
        <time>2023-06-11T10:02:19.994Z</time>
      </trkpt>
      <trkpt lat="47.16699" lon="-0.03709">
        <ele>53.05</ele>
        <time>2023-06-11T10:02:54.785Z</time>
      </trkpt>
      <trkpt lat="47.16709" lon="-0.03696">
        <ele>53.04</ele>
        <time>2023-06-11T10:03:29.578Z</time>
      </trkpt>
      <trkpt lat="47.16715" lon="-0.03688">
        <ele>53.05</ele>
        <time>2023-06-11T10:04:04.372Z</time>
      </trkpt>
      <trkpt lat="47.16714" lon="-0.03686">
        <ele>53.06</ele>
        <time>2023-06-11T10:04:39.167Z</time>
      </trkpt>
      <trkpt lat="47.16712" lon="-0.0368">
        <ele>53.1</ele>
        <time>2023-06-11T10:05:13.962Z</time>
      </trkpt>
      <trkpt lat="47.16708" lon="-0.03669">
        <ele>53.28</ele>
        <time>2023-06-11T10:05:48.759Z</time>
      </trkpt>
      <trkpt lat="47.16706" lon="-0.03663">
        <ele>53.42</ele>
        <time>2023-06-11T10:06:23.556Z</time>
      </trkpt>
      <trkpt lat="47.16704" lon="-0.03657">
        <ele>53.59</ele>
        <time>2023-06-11T10:06:58.354Z</time>
      </trkpt>
      <trkpt lat="47.16701" lon="-0.03651">
        <ele>53.79</ele>
        <time>2023-06-11T10:07:33.153Z</time>
      </trkpt>
      <trkpt lat="47.16698" lon="-0.03642">
        <ele>54.14</ele>
        <time>2023-06-11T10:08:07.953Z</time>
      </trkpt>
      <trkpt lat="47.16696" lon="-0.03628">
        <ele>54.62</ele>
        <time>2023-06-11T10:08:42.755Z</time>
      </trkpt>
      <trkpt lat="47.16696" lon="-0.03627">
        <ele>54.67</ele>
        <time>2023-06-11T10:09:17.557Z</time>
      </trkpt>
      <trkpt lat="47.16697" lon="-0.036">
        <ele>55.49</ele>
        <time>2023-06-11T10:09:52.362Z</time>
      </trkpt>
      <trkpt lat="47.16697" lon="-0.03587">
        <ele>55.95</ele>
        <time>2023-06-11T10:10:27.168Z</time>
      </trkpt>
      <trkpt lat="47.16697" lon="-0.03581">
        <ele>56.18</ele>
        <time>2023-06-11T10:11:01.975Z</time>
      </trkpt>
      <trkpt lat="47.16697" lon="-0.03574">
        <ele>56.47</ele>
        <time>2023-06-11T10:11:36.783Z</time>
      </trkpt>
      <trkpt lat="47.16696" lon="-0.03565">
        <ele>56.83</ele>
        <time>2023-06-11T10:12:11.592Z</time>
      </trkpt>
      <trkpt lat="47.16692" lon="-0.03548">
        <ele>57.57</ele>
        <time>2023-06-11T10:12:46.402Z</time>
      </trkpt>
      <trkpt lat="47.16688" lon="-0.03529">
        <ele>58.32</ele>
        <time>2023-06-11T10:13:21.215Z</time>
      </trkpt>
      <trkpt lat="47.1669" lon="-0.0351">
        <ele>59.05</ele>
        <time>2023-06-11T10:13:56.030Z</time>
      </trkpt>
      <trkpt lat="47.16691" lon="-0.03501">
        <ele>59.41</ele>
        <time>2023-06-11T10:14:30.846Z</time>
      </trkpt>
      <trkpt lat="47.1669" lon="-0.03486">
        <ele>60.04</ele>
        <time>2023-06-11T10:15:05.663Z</time>
      </trkpt>
      <trkpt lat="47.16689" lon="-0.03484">
        <ele>60.15</ele>
        <time>2023-06-11T10:15:40.481Z</time>
      </trkpt>
      <trkpt lat="47.16684" lon="-0.03473">
        <ele>60.63</ele>
        <time>2023-06-11T10:16:15.300Z</time>
      </trkpt>
      <trkpt lat="47.16679" lon="-0.03462">
        <ele>61.02</ele>
        <time>2023-06-11T10:16:50.121Z</time>
      </trkpt>
      <trkpt lat="47.16672" lon="-0.03445">
        <ele>61.5</ele>
        <time>2023-06-11T10:17:24.944Z</time>
      </trkpt>
      <trkpt lat="47.16666" lon="-0.03431">
        <ele>61.84</ele>
        <time>2023-06-11T10:17:59.769Z</time>
      </trkpt>
      <trkpt lat="47.16662" lon="-0.03423">
        <ele>62.05</ele>
        <time>2023-06-11T10:18:34.595Z</time>
      </trkpt>
      <trkpt lat="47.16656" lon="-0.03413">
        <ele>62.31</ele>
        <time>2023-06-11T10:19:09.422Z</time>
      </trkpt>
      <trkpt lat="47.16651" lon="-0.03402">
        <ele>62.5</ele>
        <time>2023-06-11T10:19:44.250Z</time>
      </trkpt>
      <trkpt lat="47.16645" lon="-0.03392">
        <ele>62.62</ele>
        <time>2023-06-11T10:20:19.080Z</time>
      </trkpt>
      <trkpt lat="47.1664" lon="-0.03381">
        <ele>62.69</ele>
        <time>2023-06-11T10:20:53.911Z</time>
      </trkpt>
      <trkpt lat="47.16634" lon="-0.03371">
        <ele>62.7</ele>
        <time>2023-06-11T10:21:28.744Z</time>
      </trkpt>
      <trkpt lat="47.16629" lon="-0.03361">
        <ele>62.67</ele>
        <time>2023-06-11T10:22:03.578Z</time>
      </trkpt>
      <trkpt lat="47.16618" lon="-0.0334">
        <ele>63.87</ele>
        <time>2023-06-11T10:22:38.415Z</time>
      </trkpt>
      <trkpt lat="47.16608" lon="-0.03321">
        <ele>65.07</ele>
        <time>2023-06-11T10:23:13.255Z</time>
      </trkpt>
      <trkpt lat="47.16609" lon="-0.0332">
        <ele>65.15</ele>
        <time>2023-06-11T10:23:48.095Z</time>
      </trkpt>
      <trkpt lat="47.16612" lon="-0.03316">
        <ele>65.44</ele>
        <time>2023-06-11T10:24:22.936Z</time>
      </trkpt>
      <trkpt lat="47.16619" lon="-0.03308">
        <ele>65.97</ele>
        <time>2023-06-11T10:24:57.778Z</time>
      </trkpt>
      <trkpt lat="47.16633" lon="-0.03293">
        <ele>66.91</ele>
        <time>2023-06-11T10:25:32.623Z</time>
      </trkpt>
      <trkpt lat="47.16638" lon="-0.03288">
        <ele>67.23</ele>
        <time>2023-06-11T10:26:07.469Z</time>
      </trkpt>
      <trkpt lat="47.1664" lon="-0.03285">
        <ele>67.41</ele>
        <time>2023-06-11T10:26:42.315Z</time>
      </trkpt>
      <trkpt lat="47.16647" lon="-0.03276">
        <ele>67.96</ele>
        <time>2023-06-11T10:27:17.163Z</time>
      </trkpt>
      <trkpt lat="47.16654" lon="-0.03266">
        <ele>68.65</ele>
        <time>2023-06-11T10:27:52.012Z</time>
      </trkpt>
      <trkpt lat="47.16659" lon="-0.03258">
        <ele>69.17</ele>
        <time>2023-06-11T10:28:26.862Z</time>
      </trkpt>
      <trkpt lat="47.16682" lon="-0.03219">
        <ele>69.19</ele>
        <time>2023-06-11T10:29:01.718Z</time>
      </trkpt>
      <trkpt lat="47.16682" lon="-0.03218">
        <ele>69.19</ele>
        <time>2023-06-11T10:29:36.574Z</time>
      </trkpt>
      <trkpt lat="47.16669" lon="-0.03183">
        <ele>69.27</ele>
        <time>2023-06-11T10:30:11.434Z</time>
      </trkpt>
      <trkpt lat="47.16665" lon="-0.03171">
        <ele>69.32</ele>
        <time>2023-06-11T10:30:46.296Z</time>
      </trkpt>
      <trkpt lat="47.16661" lon="-0.0316">
        <ele>69.39</ele>
        <time>2023-06-11T10:31:21.159Z</time>
      </trkpt>
      <trkpt lat="47.16655" lon="-0.03142">
        <ele>69.53</ele>
        <time>2023-06-11T10:31:56.025Z</time>
      </trkpt>
      <trkpt lat="47.16642" lon="-0.03107">
        <ele>69.89</ele>
        <time>2023-06-11T10:32:30.895Z</time>
      </trkpt>
      <trkpt lat="47.16636" lon="-0.0309">
        <ele>70.12</ele>
        <time>2023-06-11T10:33:05.767Z</time>
      </trkpt>
      <trkpt lat="47.1663" lon="-0.03072">
        <ele>70.39</ele>
        <time>2023-06-11T10:33:40.641Z</time>
      </trkpt>
      <trkpt lat="47.16626" lon="-0.0306">
        <ele>70.59</ele>
        <time>2023-06-11T10:34:15.517Z</time>
      </trkpt>
      <trkpt lat="47.1662" lon="-0.03043">
        <ele>70.93</ele>
        <time>2023-06-11T10:34:50.395Z</time>
      </trkpt>
      <trkpt lat="47.16618" lon="-0.03038">
        <ele>71.02</ele>
        <time>2023-06-11T10:35:25.273Z</time>
      </trkpt>
      <trkpt lat="47.16614" lon="-0.03025">
        <ele>71.3</ele>
        <time>2023-06-11T10:36:00.153Z</time>
      </trkpt>
      <trkpt lat="47.16604" lon="-0.02988">
        <ele>72.2</ele>
        <time>2023-06-11T10:36:35.037Z</time>
      </trkpt>
      <trkpt lat="47.16601" lon="-0.02976">
        <ele>72.48</ele>
        <time>2023-06-11T10:37:09.923Z</time>
      </trkpt>
      <trkpt lat="47.16597" lon="-0.02964">
        <ele>72.7</ele>
        <time>2023-06-11T10:37:44.810Z</time>
      </trkpt>
      <trkpt lat="47.16592" lon="-0.02946">
        <ele>72.98</ele>
        <time>2023-06-11T10:38:19.699Z</time>
      </trkpt>
      <trkpt lat="47.16581" lon="-0.02905">
        <ele>73.53</ele>
        <time>2023-06-11T10:38:54.593Z</time>
      </trkpt>
      <trkpt lat="47.16578" lon="-0.02893">
        <ele>73.65</ele>
        <time>2023-06-11T10:39:29.488Z</time>
      </trkpt>
      <trkpt lat="47.16574" lon="-0.02881">
        <ele>73.74</ele>
        <time>2023-06-11T10:40:04.385Z</time>
      </trkpt>
      <trkpt lat="47.16571" lon="-0.0287">
        <ele>73.8</ele>
        <time>2023-06-11T10:40:39.283Z</time>
      </trkpt>
      <trkpt lat="47.16568" lon="-0.02858">
        <ele>73.84</ele>
        <time>2023-06-11T10:41:14.183Z</time>
      </trkpt>
      <trkpt lat="47.16565" lon="-0.02848">
        <ele>73.85</ele>
        <time>2023-06-11T10:41:49.084Z</time>
      </trkpt>
      <trkpt lat="47.16556" lon="-0.02793">
        <ele>73.91</ele>
        <time>2023-06-11T10:42:23.991Z</time>
      </trkpt>
      <trkpt lat="47.16552" lon="-0.02775">
        <ele>73.83</ele>
        <time>2023-06-11T10:42:58.900Z</time>
      </trkpt>
      <trkpt lat="47.16547" lon="-0.02743">
        <ele>73.53</ele>
        <time>2023-06-11T10:43:33.813Z</time>
      </trkpt>
      <trkpt lat="47.16547" lon="-0.02743">
        <ele>73.53</ele>
        <time>2023-06-11T10:44:08.726Z</time>
      </trkpt>
      <trkpt lat="47.16543" lon="-0.02725">
        <ele>73.28</ele>
        <time>2023-06-11T10:44:43.641Z</time>
      </trkpt>
      <trkpt lat="47.1654" lon="-0.02718">
        <ele>73.18</ele>
        <time>2023-06-11T10:45:18.556Z</time>
      </trkpt>
      <trkpt lat="47.16536" lon="-0.02707">
        <ele>73.03</ele>
        <time>2023-06-11T10:45:53.473Z</time>
      </trkpt>
      <trkpt lat="47.16529" lon="-0.0269">
        <ele>72.91</ele>
        <time>2023-06-11T10:46:28.392Z</time>
      </trkpt>
      <trkpt lat="47.16525" lon="-0.02678">
        <ele>72.9</ele>
        <time>2023-06-11T10:47:03.312Z</time>
      </trkpt>
      <trkpt lat="47.1652" lon="-0.02667">
        <ele>72.94</ele>
        <time>2023-06-11T10:47:38.234Z</time>
      </trkpt>
      <trkpt lat="47.16516" lon="-0.02655">
        <ele>73.04</ele>
        <time>2023-06-11T10:48:13.157Z</time>
      </trkpt>
      <trkpt lat="47.16511" lon="-0.02643">
        <ele>73.19</ele>
        <time>2023-06-11T10:48:48.082Z</time>
      </trkpt>
      <trkpt lat="47.16508" lon="-0.02639">
        <ele>73.25</ele>
        <time>2023-06-11T10:49:23.008Z</time>
      </trkpt>
      <trkpt lat="47.16505" lon="-0.02634">
        <ele>73.3</ele>
        <time>2023-06-11T10:49:57.934Z</time>
      </trkpt>
      <trkpt lat="47.16499" lon="-0.02625">
        <ele>73.34</ele>
        <time>2023-06-11T10:50:32.862Z</time>
      </trkpt>
      <trkpt lat="47.16494" lon="-0.02618">
        <ele>73.35</ele>
        <time>2023-06-11T10:51:07.791Z</time>
      </trkpt>
      <trkpt lat="47.16492" lon="-0.02616">
        <ele>73.36</ele>
        <time>2023-06-11T10:51:42.720Z</time>
      </trkpt>
      <trkpt lat="47.16488" lon="-0.02613">
        <ele>73.35</ele>
        <time>2023-06-11T10:52:17.650Z</time>
      </trkpt>
      <trkpt lat="47.16481" lon="-0.02606">
        <ele>73.27</ele>
        <time>2023-06-11T10:52:52.581Z</time>
      </trkpt>
      <trkpt lat="47.16473" lon="-0.02599">
        <ele>73.09</ele>
        <time>2023-06-11T10:53:27.514Z</time>
      </trkpt>
      <trkpt lat="47.16465" lon="-0.02593">
        <ele>72.84</ele>
        <time>2023-06-11T10:54:02.448Z</time>
      </trkpt>
      <trkpt lat="47.16457" lon="-0.02586">
        <ele>72.55</ele>
        <time>2023-06-11T10:54:37.384Z</time>
      </trkpt>
      <trkpt lat="47.16436" lon="-0.02567">
        <ele>71.51</ele>
        <time>2023-06-11T10:55:12.324Z</time>
      </trkpt>
      <trkpt lat="47.16425" lon="-0.02564">
        <ele>71.07</ele>
        <time>2023-06-11T10:55:47.265Z</time>
      </trkpt>
      <trkpt lat="47.16417" lon="-0.02561">
        <ele>70.65</ele>
        <time>2023-06-11T10:56:22.208Z</time>
      </trkpt>
      <trkpt lat="47.16408" lon="-0.02559">
        <ele>70.19</ele>
        <time>2023-06-11T10:56:57.152Z</time>
      </trkpt>
      <trkpt lat="47.16386" lon="-0.02552">
        <ele>68.9</ele>
        <time>2023-06-11T10:57:32.100Z</time>
      </trkpt>
      <trkpt lat="47.16381" lon="-0.02552">
        <ele>68.63</ele>
        <time>2023-06-11T10:58:07.049Z</time>
      </trkpt>
      <trkpt lat="47.16363" lon="-0.02551">
        <ele>67.71</ele>
        <time>2023-06-11T10:58:42.000Z</time>
      </trkpt>
      <trkpt lat="47.16359" lon="-0.02551">
        <ele>67.5</ele>
        <time>2023-06-11T10:59:16.952Z</time>
      </trkpt>
      <trkpt lat="47.1635" lon="-0.02551">
        <ele>67.15</ele>
        <time>2023-06-11T10:59:51.906Z</time>
      </trkpt>
      <trkpt lat="47.16341" lon="-0.0255">
        <ele>66.85</ele>
        <time>2023-06-11T11:00:26.861Z</time>
      </trkpt>
      <trkpt lat="47.16332" lon="-0.0255">
        <ele>66.6</ele>
        <time>2023-06-11T11:01:01.817Z</time>
      </trkpt>
      <trkpt lat="47.16326" lon="-0.0255">
        <ele>66.97</ele>
        <time>2023-06-11T11:01:36.774Z</time>
      </trkpt>
      <trkpt lat="47.1631" lon="-0.02543">
        <ele>68.03</ele>
        <time>2023-06-11T11:02:11.734Z</time>
      </trkpt>
      <trkpt lat="47.16298" lon="-0.02538">
        <ele>68.86</ele>
        <time>2023-06-11T11:02:46.696Z</time>
      </trkpt>
      <trkpt lat="47.1631" lon="-0.02509">
        <ele>70.38</ele>
        <time>2023-06-11T11:03:21.662Z</time>
      </trkpt>
      <trkpt lat="47.16314" lon="-0.02497">
        <ele>70.93</ele>
        <time>2023-06-11T11:03:56.629Z</time>
      </trkpt>
      <trkpt lat="47.16319" lon="-0.02486">
        <ele>71.44</ele>
        <time>2023-06-11T11:04:31.598Z</time>
      </trkpt>
      <trkpt lat="47.16321" lon="-0.0248">
        <ele>71.67</ele>
        <time>2023-06-11T11:05:06.567Z</time>
      </trkpt>
      <trkpt lat="47.16326" lon="-0.02469">
        <ele>72.06</ele>
        <time>2023-06-11T11:05:41.538Z</time>
      </trkpt>
      <trkpt lat="47.16335" lon="-0.02446">
        <ele>72.75</ele>
        <time>2023-06-11T11:06:16.512Z</time>
      </trkpt>
      <trkpt lat="47.16342" lon="-0.02429">
        <ele>73.23</ele>
        <time>2023-06-11T11:06:51.488Z</time>
      </trkpt>
      <trkpt lat="47.16346" lon="-0.02417">
        <ele>73.47</ele>
        <time>2023-06-11T11:07:26.465Z</time>
      </trkpt>
      <trkpt lat="47.16348" lon="-0.02412">
        <ele>73.56</ele>
        <time>2023-06-11T11:08:01.443Z</time>
      </trkpt>
      <trkpt lat="47.16351" lon="-0.02406">
        <ele>73.62</ele>
        <time>2023-06-11T11:08:36.422Z</time>
      </trkpt>
      <trkpt lat="47.16353" lon="-0.024">
        <ele>73.64</ele>
        <time>2023-06-11T11:09:11.401Z</time>
      </trkpt>
      <trkpt lat="47.16355" lon="-0.02395">
        <ele>73.61</ele>
        <time>2023-06-11T11:09:46.381Z</time>
      </trkpt>
      <trkpt lat="47.16357" lon="-0.02389">
        <ele>73.54</ele>
        <time>2023-06-11T11:10:21.362Z</time>
      </trkpt>
      <trkpt lat="47.1636" lon="-0.02383">
        <ele>73.42</ele>
        <time>2023-06-11T11:10:56.344Z</time>
      </trkpt>
      <trkpt lat="47.16362" lon="-0.02378">
        <ele>73.23</ele>
        <time>2023-06-11T11:11:31.326Z</time>
      </trkpt>
      <trkpt lat="47.16364" lon="-0.02372">
        <ele>73</ele>
        <time>2023-06-11T11:12:06.309Z</time>
      </trkpt>
      <trkpt lat="47.16371" lon="-0.02355">
        <ele>72.13</ele>
        <time>2023-06-11T11:12:41.294Z</time>
      </trkpt>
      <trkpt lat="47.16373" lon="-0.02349">
        <ele>71.87</ele>
        <time>2023-06-11T11:13:16.280Z</time>
      </trkpt>
      <trkpt lat="47.16375" lon="-0.02345">
        <ele>71.7</ele>
        <time>2023-06-11T11:13:51.266Z</time>
      </trkpt>
      <trkpt lat="47.16375" lon="-0.02343">
        <ele>71.64</ele>
        <time>2023-06-11T11:14:26.253Z</time>
      </trkpt>
      <trkpt lat="47.16373" lon="-0.02337">
        <ele>71.45</ele>
        <time>2023-06-11T11:15:01.240Z</time>
      </trkpt>
      <trkpt lat="47.16373" lon="-0.02337">
        <ele>71.45</ele>
        <time>2023-06-11T11:15:36.227Z</time>
      </trkpt>
      <trkpt lat="47.16369" lon="-0.02333">
        <ele>71.3</ele>
        <time>2023-06-11T11:16:11.215Z</time>
      </trkpt>
      <trkpt lat="47.16366" lon="-0.02329">
        <ele>71.2</ele>
        <time>2023-06-11T11:16:46.204Z</time>
      </trkpt>
      <trkpt lat="47.16362" lon="-0.02325">
        <ele>71.13</ele>
        <time>2023-06-11T11:17:21.194Z</time>
      </trkpt>
      <trkpt lat="47.16359" lon="-0.02321">
        <ele>71.11</ele>
        <time>2023-06-11T11:17:56.184Z</time>
      </trkpt>
      <trkpt lat="47.16355" lon="-0.02318">
        <ele>71.12</ele>
        <time>2023-06-11T11:18:31.175Z</time>
      </trkpt>
      <trkpt lat="47.16351" lon="-0.02314">
        <ele>71.18</ele>
        <time>2023-06-11T11:19:06.167Z</time>
      </trkpt>
      <trkpt lat="47.16348" lon="-0.0231">
        <ele>71.28</ele>
        <time>2023-06-11T11:19:41.159Z</time>
      </trkpt>
      <trkpt lat="47.16344" lon="-0.02306">
        <ele>71.41</ele>
        <time>2023-06-11T11:20:16.152Z</time>
      </trkpt>
      <trkpt lat="47.16337" lon="-0.02298">
        <ele>71.72</ele>
        <time>2023-06-11T11:20:51.147Z</time>
      </trkpt>
      <trkpt lat="47.1633" lon="-0.0229">
        <ele>72.09</ele>
        <time>2023-06-11T11:21:26.143Z</time>
      </trkpt>
      <trkpt lat="47.16319" lon="-0.02279">
        <ele>72.7</ele>
        <time>2023-06-11T11:22:01.141Z</time>
      </trkpt>
      <trkpt lat="47.16311" lon="-0.02271">
        <ele>73.18</ele>
        <time>2023-06-11T11:22:36.141Z</time>
      </trkpt>
      <trkpt lat="47.16308" lon="-0.02267">
        <ele>73.44</ele>
        <time>2023-06-11T11:23:11.141Z</time>
      </trkpt>
      <trkpt lat="47.16301" lon="-0.02259">
        <ele>74.01</ele>
        <time>2023-06-11T11:23:46.143Z</time>
      </trkpt>
      <trkpt lat="47.16293" lon="-0.02251">
        <ele>74.66</ele>
        <time>2023-06-11T11:24:21.146Z</time>
      </trkpt>
      <trkpt lat="47.16278" lon="-0.02227">
        <ele>76.2</ele>
        <time>2023-06-11T11:24:56.153Z</time>
      </trkpt>
      <trkpt lat="47.16269" lon="-0.02212">
        <ele>77.2</ele>
        <time>2023-06-11T11:25:31.162Z</time>
      </trkpt>
      <trkpt lat="47.16267" lon="-0.02209">
        <ele>77.45</ele>
        <time>2023-06-11T11:26:06.171Z</time>
      </trkpt>
      <trkpt lat="47.16264" lon="-0.02202">
        <ele>77.92</ele>
        <time>2023-06-11T11:26:41.181Z</time>
      </trkpt>
      <trkpt lat="47.16261" lon="-0.02197">
        <ele>78.3</ele>
        <time>2023-06-11T11:27:16.192Z</time>
      </trkpt>
      <trkpt lat="47.16258" lon="-0.02192">
        <ele>78.7</ele>
        <time>2023-06-11T11:27:51.204Z</time>
      </trkpt>
      <trkpt lat="47.16253" lon="-0.02181">
        <ele>79.55</ele>
        <time>2023-06-11T11:28:26.217Z</time>
      </trkpt>
      <trkpt lat="47.16237" lon="-0.02151">
        <ele>80.26</ele>
        <time>2023-06-11T11:29:01.234Z</time>
      </trkpt>
      <trkpt lat="47.16232" lon="-0.02141">
        <ele>80.45</ele>
        <time>2023-06-11T11:29:36.253Z</time>
      </trkpt>
      <trkpt lat="47.16231" lon="-0.02141">
        <ele>80.45</ele>
        <time>2023-06-11T11:30:11.272Z</time>
      </trkpt>
      <trkpt lat="47.16214" lon="-0.02142">
        <ele>80.78</ele>
        <time>2023-06-11T11:30:46.294Z</time>
      </trkpt>
      <trkpt lat="47.16192" lon="-0.02142">
        <ele>81.17</ele>
        <time>2023-06-11T11:31:21.319Z</time>
      </trkpt>
      <trkpt lat="47.16175" lon="-0.02143">
        <ele>81.44</ele>
        <time>2023-06-11T11:31:56.347Z</time>
      </trkpt>
      <trkpt lat="47.1617" lon="-0.02143">
        <ele>81.52</ele>
        <time>2023-06-11T11:32:31.376Z</time>
      </trkpt>
      <trkpt lat="47.16169" lon="-0.02143">
        <ele>81.55</ele>
        <time>2023-06-11T11:33:06.405Z</time>
      </trkpt>
      <trkpt lat="47.16166" lon="-0.02142">
        <ele>81.63</ele>
        <time>2023-06-11T11:33:41.434Z</time>
      </trkpt>
      <trkpt lat="47.16162" lon="-0.02141">
        <ele>81.77</ele>
        <time>2023-06-11T11:34:16.464Z</time>
      </trkpt>
      <trkpt lat="47.16157" lon="-0.0214">
        <ele>81.94</ele>
        <time>2023-06-11T11:34:51.495Z</time>
      </trkpt>
      <trkpt lat="47.1614" lon="-0.02136">
        <ele>82.73</ele>
        <time>2023-06-11T11:35:26.529Z</time>
      </trkpt>
      <trkpt lat="47.16137" lon="-0.02135">
        <ele>82.76</ele>
        <time>2023-06-11T11:36:01.563Z</time>
      </trkpt>
      <trkpt lat="47.16123" lon="-0.02128">
        <ele>82.93</ele>
        <time>2023-06-11T11:36:36.599Z</time>
      </trkpt>
      <trkpt lat="47.16122" lon="-0.02127">
        <ele>82.95</ele>
        <time>2023-06-11T11:37:11.636Z</time>
      </trkpt>
      <trkpt lat="47.16119" lon="-0.02125">
        <ele>83</ele>
        <time>2023-06-11T11:37:46.673Z</time>
      </trkpt>
      <trkpt lat="47.16115" lon="-0.02121">
        <ele>83.09</ele>
        <time>2023-06-11T11:38:21.711Z</time>
      </trkpt>
      <trkpt lat="47.16109" lon="-0.02116">
        <ele>83.27</ele>
        <time>2023-06-11T11:38:56.750Z</time>
      </trkpt>
      <trkpt lat="47.16111" lon="-0.02116">
        <ele>83.31</ele>
        <time>2023-06-11T11:39:31.789Z</time>
      </trkpt>
      <trkpt lat="47.1612" lon="-0.02115">
        <ele>83.6</ele>
        <time>2023-06-11T11:40:06.830Z</time>
      </trkpt>
      <trkpt lat="47.16123" lon="-0.02111">
        <ele>83.72</ele>
        <time>2023-06-11T11:40:41.871Z</time>
      </trkpt>
      <trkpt lat="47.16138" lon="-0.02087">
        <ele>84.52</ele>
        <time>2023-06-11T11:41:16.916Z</time>
      </trkpt>
      <trkpt lat="47.16144" lon="-0.02078">
        <ele>84.92</ele>
        <time>2023-06-11T11:41:51.962Z</time>
      </trkpt>
      <trkpt lat="47.16151" lon="-0.02068">
        <ele>85.39</ele>
        <time>2023-06-11T11:42:27.010Z</time>
      </trkpt>
      <trkpt lat="47.16169" lon="-0.0204">
        <ele>86.84</ele>
        <time>2023-06-11T11:43:02.062Z</time>
      </trkpt>
      <trkpt lat="47.16175" lon="-0.0203">
        <ele>87.34</ele>
        <time>2023-06-11T11:43:37.116Z</time>
      </trkpt>
      <trkpt lat="47.16181" lon="-0.02021">
        <ele>87.92</ele>
        <time>2023-06-11T11:44:12.171Z</time>
      </trkpt>
      <trkpt lat="47.16184" lon="-0.02016">
        <ele>88.23</ele>
        <time>2023-06-11T11:44:47.227Z</time>
      </trkpt>
      <trkpt lat="47.16187" lon="-0.02012">
        <ele>88.5</ele>
        <time>2023-06-11T11:45:22.283Z</time>
      </trkpt>
      <trkpt lat="47.1619" lon="-0.01998">
        <ele>89.23</ele>
        <time>2023-06-11T11:45:57.341Z</time>
      </trkpt>
      <trkpt lat="47.16192" lon="-0.01992">
        <ele>89.55</ele>
        <time>2023-06-11T11:46:32.400Z</time>
      </trkpt>
      <trkpt lat="47.16192" lon="-0.0199">
        <ele>89.64</ele>
        <time>2023-06-11T11:47:07.459Z</time>
      </trkpt>
      <trkpt lat="47.16192" lon="-0.01986">
        <ele>89.84</ele>
        <time>2023-06-11T11:47:42.518Z</time>
      </trkpt>
      <trkpt lat="47.16193" lon="-0.01973">
        <ele>90.37</ele>
        <time>2023-06-11T11:48:17.579Z</time>
      </trkpt>
      <trkpt lat="47.16194" lon="-0.01948">
        <ele>91.33</ele>
        <time>2023-06-11T11:48:52.642Z</time>
      </trkpt>
      <trkpt lat="47.16192" lon="-0.01927">
        <ele>92.18</ele>
        <time>2023-06-11T11:49:27.708Z</time>
      </trkpt>
      <trkpt lat="47.16191" lon="-0.0192">
        <ele>92.47</ele>
        <time>2023-06-11T11:50:02.775Z</time>
      </trkpt>
      <trkpt lat="47.1618" lon="-0.019">
        <ele>93.59</ele>
        <time>2023-06-11T11:50:37.844Z</time>
      </trkpt>
      <trkpt lat="47.16178" lon="-0.01897">
        <ele>93.74</ele>
        <time>2023-06-11T11:51:12.914Z</time>
      </trkpt>
      <trkpt lat="47.16176" lon="-0.01896">
        <ele>93.84</ele>
        <time>2023-06-11T11:51:47.984Z</time>
      </trkpt>
      <trkpt lat="47.16172" lon="-0.01893">
        <ele>94.06</ele>
        <time>2023-06-11T11:52:23.055Z</time>
      </trkpt>
      <trkpt lat="47.16169" lon="-0.0189">
        <ele>94.24</ele>
        <time>2023-06-11T11:52:58.127Z</time>
      </trkpt>
      <trkpt lat="47.16165" lon="-0.01886">
        <ele>94.39</ele>
        <time>2023-06-11T11:53:33.199Z</time>
      </trkpt>
      <trkpt lat="47.16161" lon="-0.01883">
        <ele>94.5</ele>
        <time>2023-06-11T11:54:08.272Z</time>
      </trkpt>
      <trkpt lat="47.16153" lon="-0.01877">
        <ele>94.66</ele>
        <time>2023-06-11T11:54:43.346Z</time>
      </trkpt>
      <trkpt lat="47.16145" lon="-0.01871">
        <ele>94.76</ele>
        <time>2023-06-11T11:55:18.422Z</time>
      </trkpt>
      <trkpt lat="47.16141" lon="-0.01869">
        <ele>94.82</ele>
        <time>2023-06-11T11:55:53.499Z</time>
      </trkpt>
      <trkpt lat="47.16132" lon="-0.01864">
        <ele>94.9</ele>
        <time>2023-06-11T11:56:28.577Z</time>
      </trkpt>
      <trkpt lat="47.16115" lon="-0.01855">
        <ele>94.98</ele>
        <time>2023-06-11T11:57:03.658Z</time>
      </trkpt>
      <trkpt lat="47.16109" lon="-0.01852">
        <ele>94.97</ele>
        <time>2023-06-11T11:57:38.740Z</time>
      </trkpt>
      <trkpt lat="47.16108" lon="-0.0185">
        <ele>94.97</ele>
        <time>2023-06-11T11:58:13.822Z</time>
      </trkpt>
      <trkpt lat="47.16101" lon="-0.0184">
        <ele>94.92</ele>
        <time>2023-06-11T11:58:48.906Z</time>
      </trkpt>
      <trkpt lat="47.16095" lon="-0.01831">
        <ele>94.83</ele>
        <time>2023-06-11T11:59:23.991Z</time>
      </trkpt>
      <trkpt lat="47.16089" lon="-0.01821">
        <ele>94.68</ele>
        <time>2023-06-11T11:59:59.078Z</time>
      </trkpt>
      <trkpt lat="47.16078" lon="-0.01803">
        <ele>94.23</ele>
        <time>2023-06-11T12:00:34.167Z</time>
      </trkpt>
      <trkpt lat="47.16074" lon="-0.01797">
        <ele>94.08</ele>
        <time>2023-06-11T12:01:09.257Z</time>
      </trkpt>
      <trkpt lat="47.16068" lon="-0.01788">
        <ele>93.89</ele>
        <time>2023-06-11T12:01:44.349Z</time>
      </trkpt>
      <trkpt lat="47.16055" lon="-0.01769">
        <ele>93.56</ele>
        <time>2023-06-11T12:02:19.443Z</time>
      </trkpt>
      <trkpt lat="47.16048" lon="-0.0176">
        <ele>93.41</ele>
        <time>2023-06-11T12:02:54.539Z</time>
      </trkpt>
      <trkpt lat="47.16039" lon="-0.01746">
        <ele>93.27</ele>
        <time>2023-06-11T12:03:29.637Z</time>
      </trkpt>
      <trkpt lat="47.16033" lon="-0.01737">
        <ele>93.15</ele>
        <time>2023-06-11T12:04:04.736Z</time>
      </trkpt>
      <trkpt lat="47.16023" lon="-0.01723">
        <ele>92.64</ele>
        <time>2023-06-11T12:04:39.838Z</time>
      </trkpt>
      <trkpt lat="47.16017" lon="-0.01714">
        <ele>92.33</ele>
        <time>2023-06-11T12:05:14.941Z</time>
      </trkpt>
      <trkpt lat="47.1601" lon="-0.01705">
        <ele>92.06</ele>
        <time>2023-06-11T12:05:50.045Z</time>
      </trkpt>
      <trkpt lat="47.16008" lon="-0.01701">
        <ele>91.98</ele>
        <time>2023-06-11T12:06:25.150Z</time>
      </trkpt>
      <trkpt lat="47.16004" lon="-0.01696">
        <ele>91.85</ele>
        <time>2023-06-11T12:07:00.256Z</time>
      </trkpt>
      <trkpt lat="47.16" lon="-0.01691">
        <ele>91.77</ele>
        <time>2023-06-11T12:07:35.363Z</time>
      </trkpt>
      <trkpt lat="47.15994" lon="-0.01683">
        <ele>91.69</ele>
        <time>2023-06-11T12:08:10.471Z</time>
      </trkpt>
      <trkpt lat="47.15989" lon="-0.01677">
        <ele>91.67</ele>
        <time>2023-06-11T12:08:45.580Z</time>
      </trkpt>
      <trkpt lat="47.15973" lon="-0.01648">
        <ele>91.61</ele>
        <time>2023-06-11T12:09:20.693Z</time>
      </trkpt>
      <trkpt lat="47.1596" lon="-0.01622">
        <ele>91.62</ele>
        <time>2023-06-11T12:09:55.810Z</time>
      </trkpt>
      <trkpt lat="47.15952" lon="-0.01606">
        <ele>91.7</ele>
        <time>2023-06-11T12:10:30.929Z</time>
      </trkpt>
      <trkpt lat="47.15949" lon="-0.01601">
        <ele>91.74</ele>
        <time>2023-06-11T12:11:06.049Z</time>
      </trkpt>
      <trkpt lat="47.15947" lon="-0.01595">
        <ele>91.8</ele>
        <time>2023-06-11T12:11:41.169Z</time>
      </trkpt>
      <trkpt lat="47.15945" lon="-0.01589">
        <ele>91.87</ele>
        <time>2023-06-11T12:12:16.290Z</time>
      </trkpt>
      <trkpt lat="47.15941" lon="-0.01577">
        <ele>92.07</ele>
        <time>2023-06-11T12:12:51.412Z</time>
      </trkpt>
      <trkpt lat="47.15939" lon="-0.01571">
        <ele>92.21</ele>
        <time>2023-06-11T12:13:26.535Z</time>
      </trkpt>
      <trkpt lat="47.15929" lon="-0.01542">
        <ele>93.07</ele>
        <time>2023-06-11T12:14:01.662Z</time>
      </trkpt>
      <trkpt lat="47.15928" lon="-0.01539">
        <ele>93.15</ele>
        <time>2023-06-11T12:14:36.789Z</time>
      </trkpt>
      <trkpt lat="47.15926" lon="-0.01529">
        <ele>93.44</ele>
        <time>2023-06-11T12:15:11.917Z</time>
      </trkpt>
      <trkpt lat="47.15917" lon="-0.01471">
        <ele>95.24</ele>
        <time>2023-06-11T12:15:47.052Z</time>
      </trkpt>
      <trkpt lat="47.15913" lon="-0.01452">
        <ele>95.81</ele>
        <time>2023-06-11T12:16:22.189Z</time>
      </trkpt>
      <trkpt lat="47.15912" lon="-0.01445">
        <ele>96.05</ele>
        <time>2023-06-11T12:16:57.327Z</time>
      </trkpt>
      <trkpt lat="47.15909" lon="-0.01433">
        <ele>96.46</ele>
        <time>2023-06-11T12:17:32.466Z</time>
      </trkpt>
      <trkpt lat="47.15908" lon="-0.01427">
        <ele>96.65</ele>
        <time>2023-06-11T12:18:07.606Z</time>
      </trkpt>
      <trkpt lat="47.15905" lon="-0.01415">
        <ele>96.98</ele>
        <time>2023-06-11T12:18:42.747Z</time>
      </trkpt>
      <trkpt lat="47.15904" lon="-0.01408">
        <ele>97.12</ele>
        <time>2023-06-11T12:19:17.889Z</time>
      </trkpt>
      <trkpt lat="47.15902" lon="-0.01402">
        <ele>97.22</ele>
        <time>2023-06-11T12:19:53.032Z</time>
      </trkpt>
      <trkpt lat="47.15899" lon="-0.0139">
        <ele>97.37</ele>
        <time>2023-06-11T12:20:28.176Z</time>
      </trkpt>
      <trkpt lat="47.15895" lon="-0.01371">
        <ele>97.51</ele>
        <time>2023-06-11T12:21:03.322Z</time>
      </trkpt>
      <trkpt lat="47.15891" lon="-0.01352">
        <ele>97.59</ele>
        <time>2023-06-11T12:21:38.470Z</time>
      </trkpt>
      <trkpt lat="47.15886" lon="-0.01333">
        <ele>97.62</ele>
        <time>2023-06-11T12:22:13.621Z</time>
      </trkpt>
      <trkpt lat="47.15884" lon="-0.01321">
        <ele>97.6</ele>
        <time>2023-06-11T12:22:48.773Z</time>
      </trkpt>
      <trkpt lat="47.15882" lon="-0.01315">
        <ele>97.57</ele>
        <time>2023-06-11T12:23:23.926Z</time>
      </trkpt>
      <trkpt lat="47.15881" lon="-0.01308">
        <ele>97.53</ele>
        <time>2023-06-11T12:23:59.079Z</time>
      </trkpt>
      <trkpt lat="47.15877" lon="-0.01292">
        <ele>97.38</ele>
        <time>2023-06-11T12:24:34.234Z</time>
      </trkpt>
      <trkpt lat="47.15875" lon="-0.01284">
        <ele>97.31</ele>
        <time>2023-06-11T12:25:09.390Z</time>
      </trkpt>
      <trkpt lat="47.15869" lon="-0.01265">
        <ele>97.2</ele>
        <time>2023-06-11T12:25:44.548Z</time>
      </trkpt>
      <trkpt lat="47.15866" lon="-0.01253">
        <ele>97.1</ele>
        <time>2023-06-11T12:26:19.708Z</time>
      </trkpt>
      <trkpt lat="47.1586" lon="-0.01232">
        <ele>96.84</ele>
        <time>2023-06-11T12:26:54.870Z</time>
      </trkpt>
      <trkpt lat="47.15859" lon="-0.01229">
        <ele>96.81</ele>
        <time>2023-06-11T12:27:30.033Z</time>
      </trkpt>
      <trkpt lat="47.1585" lon="-0.01214">
        <ele>96.54</ele>
        <time>2023-06-11T12:28:05.198Z</time>
      </trkpt>
      <trkpt lat="47.15842" lon="-0.01199">
        <ele>96.35</ele>
        <time>2023-06-11T12:28:40.365Z</time>
      </trkpt>
      <trkpt lat="47.15834" lon="-0.01191">
        <ele>96.23</ele>
        <time>2023-06-11T12:29:15.533Z</time>
      </trkpt>
      <trkpt lat="47.15833" lon="-0.0119">
        <ele>96.21</ele>
        <time>2023-06-11T12:29:50.702Z</time>
      </trkpt>
      <trkpt lat="47.15826" lon="-0.01187">
        <ele>96.14</ele>
        <time>2023-06-11T12:30:25.872Z</time>
      </trkpt>
      <trkpt lat="47.15823" lon="-0.01186">
        <ele>96.12</ele>
        <time>2023-06-11T12:31:01.042Z</time>
      </trkpt>
      <trkpt lat="47.15822" lon="-0.01185">
        <ele>96.12</ele>
        <time>2023-06-11T12:31:36.213Z</time>
      </trkpt>
      <trkpt lat="47.15818" lon="-0.01181">
        <ele>96.14</ele>
        <time>2023-06-11T12:32:11.384Z</time>
      </trkpt>
      <trkpt lat="47.15814" lon="-0.01177">
        <ele>96.17</ele>
        <time>2023-06-11T12:32:46.556Z</time>
      </trkpt>
      <trkpt lat="47.1581" lon="-0.01173">
        <ele>96.23</ele>
        <time>2023-06-11T12:33:21.729Z</time>
      </trkpt>
      <trkpt lat="47.15808" lon="-0.01168">
        <ele>96.28</ele>
        <time>2023-06-11T12:33:56.903Z</time>
      </trkpt>
      <trkpt lat="47.15798" lon="-0.01146">
        <ele>96.57</ele>
        <time>2023-06-11T12:34:32.079Z</time>
      </trkpt>
      <trkpt lat="47.15792" lon="-0.01132">
        <ele>96.8</ele>
        <time>2023-06-11T12:35:07.257Z</time>
      </trkpt>
      <trkpt lat="47.15788" lon="-0.01117">
        <ele>97.02</ele>
        <time>2023-06-11T12:35:42.437Z</time>
      </trkpt>
      <trkpt lat="47.15786" lon="-0.01109">
        <ele>97.16</ele>
        <time>2023-06-11T12:36:17.618Z</time>
      </trkpt>
      <trkpt lat="47.15786" lon="-0.01091">
        <ele>97.46</ele>
        <time>2023-06-11T12:36:52.801Z</time>
      </trkpt>
      <trkpt lat="47.15786" lon="-0.01079">
        <ele>97.63</ele>
        <time>2023-06-11T12:37:27.985Z</time>
      </trkpt>
      <trkpt lat="47.15787" lon="-0.01072">
        <ele>97.74</ele>
        <time>2023-06-11T12:38:03.170Z</time>
      </trkpt>
      <trkpt lat="47.15788" lon="-0.0106">
        <ele>97.87</ele>
        <time>2023-06-11T12:38:38.356Z</time>
      </trkpt>
      <trkpt lat="47.15787" lon="-0.01042">
        <ele>98.08</ele>
        <time>2023-06-11T12:39:13.544Z</time>
      </trkpt>
      <trkpt lat="47.15785" lon="-0.01033">
        <ele>98.19</ele>
        <time>2023-06-11T12:39:48.733Z</time>
      </trkpt>
      <trkpt lat="47.15784" lon="-0.01028">
        <ele>98.25</ele>
        <time>2023-06-11T12:40:23.923Z</time>
      </trkpt>
      <trkpt lat="47.15775" lon="-0.01003">
        <ele>98.64</ele>
        <time>2023-06-11T12:40:59.116Z</time>
      </trkpt>
      <trkpt lat="47.15771" lon="-0.00991">
        <ele>98.77</ele>
        <time>2023-06-11T12:41:34.310Z</time>
      </trkpt>
      <trkpt lat="47.1577" lon="-0.00987">
        <ele>98.8</ele>
        <time>2023-06-11T12:42:09.505Z</time>
      </trkpt>
      <trkpt lat="47.15764" lon="-0.00953">
        <ele>99.06</ele>
        <time>2023-06-11T12:42:44.704Z</time>
      </trkpt>
      <trkpt lat="47.15759" lon="-0.00923">
        <ele>99.22</ele>
        <time>2023-06-11T12:43:19.906Z</time>
      </trkpt>
      <trkpt lat="47.15757" lon="-0.00915">
        <ele>99.27</ele>
        <time>2023-06-11T12:43:55.109Z</time>
      </trkpt>
      <trkpt lat="47.15743" lon="-0.00874">
        <ele>99.32</ele>
        <time>2023-06-11T12:44:30.317Z</time>
      </trkpt>
      <trkpt lat="47.15738" lon="-0.00856">
        <ele>99.39</ele>
        <time>2023-06-11T12:45:05.527Z</time>
      </trkpt>
      <trkpt lat="47.15734" lon="-0.00844">
        <ele>99.39</ele>
        <time>2023-06-11T12:45:40.739Z</time>
      </trkpt>
      <trkpt lat="47.15732" lon="-0.00838">
        <ele>99.36</ele>
        <time>2023-06-11T12:46:15.951Z</time>
      </trkpt>
      <trkpt lat="47.15722" lon="-0.00808">
        <ele>99.12</ele>
        <time>2023-06-11T12:46:51.167Z</time>
      </trkpt>
      <trkpt lat="47.15713" lon="-0.00778">
        <ele>99.05</ele>
        <time>2023-06-11T12:47:26.387Z</time>
      </trkpt>
      <trkpt lat="47.15701" lon="-0.00742">
        <ele>98.88</ele>
        <time>2023-06-11T12:48:01.611Z</time>
      </trkpt>
      <trkpt lat="47.15698" lon="-0.0073">
        <ele>98.8</ele>
        <time>2023-06-11T12:48:36.836Z</time>
      </trkpt>
      <trkpt lat="47.15694" lon="-0.00718">
        <ele>98.69</ele>
        <time>2023-06-11T12:49:12.063Z</time>
      </trkpt>
      <trkpt lat="47.1569" lon="-0.00707">
        <ele>98.54</ele>
        <time>2023-06-11T12:49:47.291Z</time>
      </trkpt>
      <trkpt lat="47.15688" lon="-0.00701">
        <ele>98.43</ele>
        <time>2023-06-11T12:50:22.520Z</time>
      </trkpt>
      <trkpt lat="47.15686" lon="-0.00695">
        <ele>98.28</ele>
        <time>2023-06-11T12:50:57.750Z</time>
      </trkpt>
      <trkpt lat="47.15684" lon="-0.00689">
        <ele>98.09</ele>
        <time>2023-06-11T12:51:32.980Z</time>
      </trkpt>
      <trkpt lat="47.15682" lon="-0.00683">
        <ele>97.85</ele>
        <time>2023-06-11T12:52:08.211Z</time>
      </trkpt>
      <trkpt lat="47.15681" lon="-0.00677">
        <ele>97.57</ele>
        <time>2023-06-11T12:52:43.443Z</time>
      </trkpt>
      <trkpt lat="47.15679" lon="-0.00671">
        <ele>97.23</ele>
        <time>2023-06-11T12:53:18.675Z</time>
      </trkpt>
      <trkpt lat="47.15677" lon="-0.00665">
        <ele>96.82</ele>
        <time>2023-06-11T12:53:53.908Z</time>
      </trkpt>
      <trkpt lat="47.15675" lon="-0.00659">
        <ele>96.36</ele>
        <time>2023-06-11T12:54:29.142Z</time>
      </trkpt>
      <trkpt lat="47.15673" lon="-0.00653">
        <ele>95.84</ele>
        <time>2023-06-11T12:55:04.377Z</time>
      </trkpt>
      <trkpt lat="47.15673" lon="-0.00653">
        <ele>95.84</ele>
        <time>2023-06-11T12:55:39.612Z</time>
      </trkpt>
      <trkpt lat="47.15667" lon="-0.00642">
        <ele>94.74</ele>
        <time>2023-06-11T12:56:14.848Z</time>
      </trkpt>
      <trkpt lat="47.15665" lon="-0.00637">
        <ele>94.14</ele>
        <time>2023-06-11T12:56:50.085Z</time>
      </trkpt>
      <trkpt lat="47.15662" lon="-0.00632">
        <ele>93.5</ele>
        <time>2023-06-11T12:57:25.323Z</time>
      </trkpt>
      <trkpt lat="47.15651" lon="-0.00612">
        <ele>90.81</ele>
        <time>2023-06-11T12:58:00.563Z</time>
      </trkpt>
      <trkpt lat="47.15651" lon="-0.00611">
        <ele>90.81</ele>
        <time>2023-06-11T12:58:35.803Z</time>
      </trkpt>
      <trkpt lat="47.15638" lon="-0.00593">
        <ele>88.03</ele>
        <time>2023-06-11T12:59:11.046Z</time>
      </trkpt>
      <trkpt lat="47.15629" lon="-0.00579">
        <ele>86</ele>
        <time>2023-06-11T12:59:46.291Z</time>
      </trkpt>
      <trkpt lat="47.15627" lon="-0.00576">
        <ele>85.59</ele>
        <time>2023-06-11T13:00:21.537Z</time>
      </trkpt>
      <trkpt lat="47.15614" lon="-0.00564">
        <ele>83.4</ele>
        <time>2023-06-11T13:00:56.785Z</time>
      </trkpt>
      <trkpt lat="47.15607" lon="-0.00558">
        <ele>82.19</ele>
        <time>2023-06-11T13:01:32.035Z</time>
      </trkpt>
      <trkpt lat="47.15603" lon="-0.00554">
        <ele>81.63</ele>
        <time>2023-06-11T13:02:07.285Z</time>
      </trkpt>
      <trkpt lat="47.15599" lon="-0.00551">
        <ele>81.12</ele>
        <time>2023-06-11T13:02:42.536Z</time>
      </trkpt>
      <trkpt lat="47.15595" lon="-0.00547">
        <ele>80.65</ele>
        <time>2023-06-11T13:03:17.788Z</time>
      </trkpt>
      <trkpt lat="47.15585" lon="-0.00538">
        <ele>79.46</ele>
        <time>2023-06-11T13:03:53.042Z</time>
      </trkpt>
      <trkpt lat="47.15577" lon="-0.00529">
        <ele>78.49</ele>
        <time>2023-06-11T13:04:28.297Z</time>
      </trkpt>
      <trkpt lat="47.15574" lon="-0.00525">
        <ele>78.02</ele>
        <time>2023-06-11T13:05:03.553Z</time>
      </trkpt>
      <trkpt lat="47.15567" lon="-0.00517">
        <ele>77</ele>
        <time>2023-06-11T13:05:38.810Z</time>
      </trkpt>
      <trkpt lat="47.1556" lon="-0.00509">
        <ele>75.9</ele>
        <time>2023-06-11T13:06:14.069Z</time>
      </trkpt>
      <trkpt lat="47.15553" lon="-0.00501">
        <ele>74.73</ele>
        <time>2023-06-11T13:06:49.329Z</time>
      </trkpt>
      <trkpt lat="47.15528" lon="-0.00473">
        <ele>70.36</ele>
        <time>2023-06-11T13:07:24.594Z</time>
      </trkpt>
      <trkpt lat="47.15527" lon="-0.00472">
        <ele>70.19</ele>
        <time>2023-06-11T13:07:59.859Z</time>
      </trkpt>
      <trkpt lat="47.15517" lon="-0.00462">
        <ele>68.58</ele>
        <time>2023-06-11T13:08:35.126Z</time>
      </trkpt>
      <trkpt lat="47.1551" lon="-0.00455">
        <ele>67.47</ele>
        <time>2023-06-11T13:09:10.395Z</time>
      </trkpt>
      <trkpt lat="47.15502" lon="-0.00447">
        <ele>66.45</ele>
        <time>2023-06-11T13:09:45.665Z</time>
      </trkpt>
      <trkpt lat="47.15495" lon="-0.0044">
        <ele>65.5</ele>
        <time>2023-06-11T13:10:20.937Z</time>
      </trkpt>
      <trkpt lat="47.15484" lon="-0.00429">
        <ele>64.77</ele>
        <time>2023-06-11T13:10:56.211Z</time>
      </trkpt>
      <trkpt lat="47.15477" lon="-0.00422">
        <ele>64.33</ele>
        <time>2023-06-11T13:11:31.486Z</time>
      </trkpt>
      <trkpt lat="47.15473" lon="-0.00418">
        <ele>64.13</ele>
        <time>2023-06-11T13:12:06.762Z</time>
      </trkpt>
      <trkpt lat="47.15467" lon="-0.00412">
        <ele>63.83</ele>
        <time>2023-06-11T13:12:42.039Z</time>
      </trkpt>
      <trkpt lat="47.15465" lon="-0.00412">
        <ele>63.77</ele>
        <time>2023-06-11T13:13:17.316Z</time>
      </trkpt>
      <trkpt lat="47.15462" lon="-0.00413">
        <ele>63.64</ele>
        <time>2023-06-11T13:13:52.594Z</time>
      </trkpt>
      <trkpt lat="47.15457" lon="-0.00421">
        <ele>63.37</ele>
        <time>2023-06-11T13:14:27.873Z</time>
      </trkpt>
      <trkpt lat="47.15456" lon="-0.00424">
        <ele>63.28</ele>
        <time>2023-06-11T13:15:03.152Z</time>
      </trkpt>
      <trkpt lat="47.15454" lon="-0.0043">
        <ele>63.1</ele>
        <time>2023-06-11T13:15:38.432Z</time>
      </trkpt>
      <trkpt lat="47.15452" lon="-0.00436">
        <ele>62.89</ele>
        <time>2023-06-11T13:16:13.713Z</time>
      </trkpt>
      <trkpt lat="47.1545" lon="-0.00442">
        <ele>62.64</ele>
        <time>2023-06-11T13:16:48.995Z</time>
      </trkpt>
      <trkpt lat="47.15448" lon="-0.00447">
        <ele>62.36</ele>
        <time>2023-06-11T13:17:24.277Z</time>
      </trkpt>
      <trkpt lat="47.15444" lon="-0.00459">
        <ele>61.69</ele>
        <time>2023-06-11T13:17:59.561Z</time>
      </trkpt>
      <trkpt lat="47.15434" lon="-0.00489">
        <ele>60.18</ele>
        <time>2023-06-11T13:18:34.848Z</time>
      </trkpt>
      <trkpt lat="47.15434" lon="-0.00489">
        <ele>60.18</ele>
        <time>2023-06-11T13:19:10.135Z</time>
      </trkpt>
      <trkpt lat="47.15431" lon="-0.00493">
        <ele>59.91</ele>
        <time>2023-06-11T13:19:45.423Z</time>
      </trkpt>
      <trkpt lat="47.15429" lon="-0.00496">
        <ele>59.74</ele>
        <time>2023-06-11T13:20:20.711Z</time>
      </trkpt>
      <trkpt lat="47.15428" lon="-0.00495">
        <ele>59.68</ele>
        <time>2023-06-11T13:20:56.000Z</time>
      </trkpt>
      <trkpt lat="47.15424" lon="-0.00493">
        <ele>59.47</ele>
        <time>2023-06-11T13:21:31.289Z</time>
      </trkpt>
      <trkpt lat="47.15424" lon="-0.00493">
        <ele>59.47</ele>
        <time>2023-06-11T13:22:06.578Z</time>
      </trkpt>
      <trkpt lat="47.1542" lon="-0.00489">
        <ele>59.3</ele>
        <time>2023-06-11T13:22:41.868Z</time>
      </trkpt>
      <trkpt lat="47.15413" lon="-0.00482">
        <ele>59.04</ele>
        <time>2023-06-11T13:23:17.160Z</time>
      </trkpt>
      <trkpt lat="47.15405" lon="-0.00474">
        <ele>58.86</ele>
        <time>2023-06-11T13:23:52.453Z</time>
      </trkpt>
      <trkpt lat="47.15395" lon="-0.00464">
        <ele>58.67</ele>
        <time>2023-06-11T13:24:27.748Z</time>
      </trkpt>
      <trkpt lat="47.15394" lon="-0.00463">
        <ele>58.67</ele>
        <time>2023-06-11T13:25:03.043Z</time>
      </trkpt>
      <trkpt lat="47.1538" lon="-0.00448">
        <ele>58.46</ele>
        <time>2023-06-11T13:25:38.341Z</time>
      </trkpt>
      <trkpt lat="47.15373" lon="-0.0044">
        <ele>58.8</ele>
        <time>2023-06-11T13:26:13.640Z</time>
      </trkpt>
      <trkpt lat="47.1537" lon="-0.00436">
        <ele>59</ele>
        <time>2023-06-11T13:26:48.940Z</time>
      </trkpt>
      <trkpt lat="47.15366" lon="-0.00432">
        <ele>59.25</ele>
        <time>2023-06-11T13:27:24.241Z</time>
      </trkpt>
      <trkpt lat="47.15363" lon="-0.00428">
        <ele>59.54</ele>
        <time>2023-06-11T13:27:59.542Z</time>
      </trkpt>
      <trkpt lat="47.15342" lon="-0.00405">
        <ele>61.51</ele>
        <time>2023-06-11T13:28:34.848Z</time>
      </trkpt>
      <trkpt lat="47.15335" lon="-0.00397">
        <ele>62.26</ele>
        <time>2023-06-11T13:29:10.155Z</time>
      </trkpt>
      <trkpt lat="47.15328" lon="-0.00389">
        <ele>63.09</ele>
        <time>2023-06-11T13:29:45.464Z</time>
      </trkpt>
      <trkpt lat="47.15321" lon="-0.00382">
        <ele>64</ele>
        <time>2023-06-11T13:30:20.774Z</time>
      </trkpt>
      <trkpt lat="47.15317" lon="-0.00378">
        <ele>64.48</ele>
        <time>2023-06-11T13:30:56.085Z</time>
      </trkpt>
      <trkpt lat="47.15313" lon="-0.00374">
        <ele>65</ele>
        <time>2023-06-11T13:31:31.396Z</time>
      </trkpt>
      <trkpt lat="47.1531" lon="-0.0037">
        <ele>65.56</ele>
        <time>2023-06-11T13:32:06.708Z</time>
      </trkpt>
      <trkpt lat="47.15306" lon="-0.00366">
        <ele>66.18</ele>
        <time>2023-06-11T13:32:42.021Z</time>
      </trkpt>
      <trkpt lat="47.15296" lon="-0.00354">
        <ele>68.18</ele>
        <time>2023-06-11T13:33:17.336Z</time>
      </trkpt>
      <trkpt lat="47.15282" lon="-0.00339">
        <ele>70.75</ele>
        <time>2023-06-11T13:33:52.654Z</time>
      </trkpt>
      <trkpt lat="47.15267" lon="-0.00323">
        <ele>71.76</ele>
        <time>2023-06-11T13:34:27.975Z</time>
      </trkpt>
      <trkpt lat="47.15257" lon="-0.00311">
        <ele>72.47</ele>
        <time>2023-06-11T13:35:03.298Z</time>
      </trkpt>
      <trkpt lat="47.15254" lon="-0.00308">
        <ele>72.65</ele>
        <time>2023-06-11T13:35:38.621Z</time>
      </trkpt>
      <trkpt lat="47.15244" lon="-0.00308">
        <ele>73.22</ele>
        <time>2023-06-11T13:36:13.946Z</time>
      </trkpt>
      <trkpt lat="47.1524" lon="-0.00309">
        <ele>73.45</ele>
        <time>2023-06-11T13:36:49.272Z</time>
      </trkpt>
      <trkpt lat="47.15235" lon="-0.00309">
        <ele>73.63</ele>
        <time>2023-06-11T13:37:24.598Z</time>
      </trkpt>
      <trkpt lat="47.15231" lon="-0.00309">
        <ele>73.79</ele>
        <time>2023-06-11T13:37:59.925Z</time>
      </trkpt>
      <trkpt lat="47.15226" lon="-0.00309">
        <ele>73.9</ele>
        <time>2023-06-11T13:38:35.253Z</time>
      </trkpt>
      <trkpt lat="47.15217" lon="-0.0031">
        <ele>74.06</ele>
        <time>2023-06-11T13:39:10.582Z</time>
      </trkpt>
      <trkpt lat="47.15208" lon="-0.0031">
        <ele>74.14</ele>
        <time>2023-06-11T13:39:45.913Z</time>
      </trkpt>
      <trkpt lat="47.15204" lon="-0.0031">
        <ele>74.16</ele>
        <time>2023-06-11T13:40:21.244Z</time>
      </trkpt>
      <trkpt lat="47.15195" lon="-0.00311">
        <ele>74.13</ele>
        <time>2023-06-11T13:40:56.577Z</time>
      </trkpt>
      <trkpt lat="47.15188" lon="-0.00311">
        <ele>74.08</ele>
        <time>2023-06-11T13:41:31.911Z</time>
      </trkpt>
      <trkpt lat="47.15186" lon="-0.00312">
        <ele>74.07</ele>
        <time>2023-06-11T13:42:07.245Z</time>
      </trkpt>
      <trkpt lat="47.15177" lon="-0.00316">
        <ele>73.98</ele>
        <time>2023-06-11T13:42:42.581Z</time>
      </trkpt>
      <trkpt lat="47.15169" lon="-0.0032">
        <ele>73.87</ele>
        <time>2023-06-11T13:43:17.918Z</time>
      </trkpt>
      <trkpt lat="47.15164" lon="-0.00322">
        <ele>73.79</ele>
        <time>2023-06-11T13:43:53.256Z</time>
      </trkpt>
      <trkpt lat="47.15156" lon="-0.00327">
        <ele>73.59</ele>
        <time>2023-06-11T13:44:28.595Z</time>
      </trkpt>
      <trkpt lat="47.15152" lon="-0.00329">
        <ele>73.46</ele>
        <time>2023-06-11T13:45:03.935Z</time>
      </trkpt>
      <trkpt lat="47.15149" lon="-0.0033">
        <ele>73.36</ele>
        <time>2023-06-11T13:45:39.275Z</time>
      </trkpt>
      <trkpt lat="47.15144" lon="-0.00334">
        <ele>73.15</ele>
        <time>2023-06-11T13:46:14.616Z</time>
      </trkpt>
      <trkpt lat="47.15128" lon="-0.00347">
        <ele>72.47</ele>
        <time>2023-06-11T13:46:49.960Z</time>
      </trkpt>
      <trkpt lat="47.1512" lon="-0.00353">
        <ele>72.06</ele>
        <time>2023-06-11T13:47:25.306Z</time>
      </trkpt>
      <trkpt lat="47.15112" lon="-0.0036">
        <ele>71.59</ele>
        <time>2023-06-11T13:48:00.653Z</time>
      </trkpt>
      <trkpt lat="47.15092" lon="-0.00375">
        <ele>70.28</ele>
        <time>2023-06-11T13:48:36.004Z</time>
      </trkpt>
      <trkpt lat="47.15088" lon="-0.00378">
        <ele>70.04</ele>
        <time>2023-06-11T13:49:11.355Z</time>
      </trkpt>
      <trkpt lat="47.15084" lon="-0.00382">
        <ele>69.82</ele>
        <time>2023-06-11T13:49:46.707Z</time>
      </trkpt>
      <trkpt lat="47.1508" lon="-0.00385">
        <ele>69.64</ele>
        <time>2023-06-11T13:50:22.060Z</time>
      </trkpt>
      <trkpt lat="47.15079" lon="-0.00386">
        <ele>69.58</ele>
        <time>2023-06-11T13:50:57.413Z</time>
      </trkpt>
      <trkpt lat="47.15072" lon="-0.00388">
        <ele>69.36</ele>
        <time>2023-06-11T13:51:32.767Z</time>
      </trkpt>
      <trkpt lat="47.1505" lon="-0.00394">
        <ele>69.71</ele>
        <time>2023-06-11T13:52:08.125Z</time>
      </trkpt>
      <trkpt lat="47.15041" lon="-0.00397">
        <ele>69.75</ele>
        <time>2023-06-11T13:52:43.484Z</time>
      </trkpt>
      <trkpt lat="47.15038" lon="-0.00398">
        <ele>69.72</ele>
        <time>2023-06-11T13:53:18.844Z</time>
      </trkpt>
      <trkpt lat="47.15032" lon="-0.00399">
        <ele>69.69</ele>
        <time>2023-06-11T13:53:54.205Z</time>
      </trkpt>
      <trkpt lat="47.15015" lon="-0.00402">
        <ele>69.5</ele>
        <time>2023-06-11T13:54:29.569Z</time>
      </trkpt>
      <trkpt lat="47.15015" lon="-0.00402">
        <ele>69.5</ele>
        <time>2023-06-11T13:55:04.933Z</time>
      </trkpt>
      <trkpt lat="47.15001" lon="-0.00403">
        <ele>69.4</ele>
        <time>2023-06-11T13:55:40.299Z</time>
      </trkpt>
      <trkpt lat="47.14992" lon="-0.00404">
        <ele>69.38</ele>
        <time>2023-06-11T13:56:15.666Z</time>
      </trkpt>
      <trkpt lat="47.14983" lon="-0.00405">
        <ele>69.4</ele>
        <time>2023-06-11T13:56:51.035Z</time>
      </trkpt>
      <trkpt lat="47.14974" lon="-0.00406">
        <ele>69.45</ele>
        <time>2023-06-11T13:57:26.405Z</time>
      </trkpt>
      <trkpt lat="47.14974" lon="-0.00406">
        <ele>69.45</ele>
        <time>2023-06-11T13:58:01.775Z</time>
      </trkpt>
      <trkpt lat="47.14943" lon="-0.00404">
        <ele>69.84</ele>
        <time>2023-06-11T13:58:37.150Z</time>
      </trkpt>
      <trkpt lat="47.14942" lon="-0.00404">
        <ele>69.82</ele>
        <time>2023-06-11T13:59:12.525Z</time>
      </trkpt>
      <trkpt lat="47.14909" lon="-0.00397">
        <ele>69.28</ele>
        <time>2023-06-11T13:59:47.906Z</time>
      </trkpt>
      <trkpt lat="47.14808" lon="-0.00432">
        <ele>67.61</ele>
        <time>2023-06-11T14:00:23.303Z</time>
      </trkpt>
      <trkpt lat="47.14789" lon="-0.00428">
        <ele>67.3</ele>
        <time>2023-06-11T14:00:58.703Z</time>
      </trkpt>
      <trkpt lat="47.14775" lon="-0.00423">
        <ele>67.07</ele>
        <time>2023-06-11T14:01:34.106Z</time>
      </trkpt>
      <trkpt lat="47.14758" lon="-0.00418">
        <ele>67.19</ele>
        <time>2023-06-11T14:02:09.511Z</time>
      </trkpt>
      <trkpt lat="47.14743" lon="-0.00413">
        <ele>67.89</ele>
        <time>2023-06-11T14:02:44.919Z</time>
      </trkpt>
      <trkpt lat="47.1474" lon="-0.00412">
        <ele>67.95</ele>
        <time>2023-06-11T14:03:20.327Z</time>
      </trkpt>
      <trkpt lat="47.14728" lon="-0.00396">
        <ele>68.3</ele>
        <time>2023-06-11T14:03:55.738Z</time>
      </trkpt>
      <trkpt lat="47.14725" lon="-0.00395">
        <ele>68.37</ele>
        <time>2023-06-11T14:04:31.149Z</time>
      </trkpt>
      <trkpt lat="47.14716" lon="-0.00394">
        <ele>68.53</ele>
        <time>2023-06-11T14:05:06.562Z</time>
      </trkpt>
      <trkpt lat="47.14712" lon="-0.00393">
        <ele>68.58</ele>
        <time>2023-06-11T14:05:41.976Z</time>
      </trkpt>
      <trkpt lat="47.14709" lon="-0.00388">
        <ele>68.65</ele>
        <time>2023-06-11T14:06:17.390Z</time>
      </trkpt>
      <trkpt lat="47.14702" lon="-0.00379">
        <ele>68.72</ele>
        <time>2023-06-11T14:06:52.806Z</time>
      </trkpt>
      <trkpt lat="47.14694" lon="-0.00367">
        <ele>68.74</ele>
        <time>2023-06-11T14:07:28.224Z</time>
      </trkpt>
      <trkpt lat="47.14692" lon="-0.00366">
        <ele>68.75</ele>
        <time>2023-06-11T14:08:03.642Z</time>
      </trkpt>
      <trkpt lat="47.14684" lon="-0.00359">
        <ele>68.71</ele>
        <time>2023-06-11T14:08:39.061Z</time>
      </trkpt>
      <trkpt lat="47.14674" lon="-0.0035">
        <ele>68.6</ele>
        <time>2023-06-11T14:09:14.482Z</time>
      </trkpt>
      <trkpt lat="47.14657" lon="-0.00337">
        <ele>68.43</ele>
        <time>2023-06-11T14:09:49.906Z</time>
      </trkpt>
      <trkpt lat="47.14651" lon="-0.00333">
        <ele>68.4</ele>
        <time>2023-06-11T14:10:25.331Z</time>
      </trkpt>
      <trkpt lat="47.14641" lon="-0.00328">
        <ele>68.35</ele>
        <time>2023-06-11T14:11:00.758Z</time>
      </trkpt>
      <trkpt lat="47.14624" lon="-0.0032">
        <ele>68.23</ele>
        <time>2023-06-11T14:11:36.188Z</time>
      </trkpt>
      <trkpt lat="47.14599" lon="-0.00319">
        <ele>68.07</ele>
        <time>2023-06-11T14:12:11.622Z</time>
      </trkpt>
      <trkpt lat="47.14586" lon="-0.00319">
        <ele>68.03</ele>
        <time>2023-06-11T14:12:47.058Z</time>
      </trkpt>
      <trkpt lat="47.14581" lon="-0.00318">
        <ele>67.74</ele>
        <time>2023-06-11T14:13:22.495Z</time>
      </trkpt>
      <trkpt lat="47.14577" lon="-0.00318">
        <ele>67.39</ele>
        <time>2023-06-11T14:13:57.933Z</time>
      </trkpt>
      <trkpt lat="47.14572" lon="-0.00318">
        <ele>66.97</ele>
        <time>2023-06-11T14:14:33.371Z</time>
      </trkpt>
      <trkpt lat="47.14567" lon="-0.00318">
        <ele>66.49</ele>
        <time>2023-06-11T14:15:08.810Z</time>
      </trkpt>
      <trkpt lat="47.14567" lon="-0.00318">
        <ele>66.49</ele>
        <time>2023-06-11T14:15:44.249Z</time>
      </trkpt>
      <trkpt lat="47.14558" lon="-0.00316">
        <ele>65.35</ele>
        <time>2023-06-11T14:16:19.690Z</time>
      </trkpt>
      <trkpt lat="47.14555" lon="-0.00314">
        <ele>64.96</ele>
        <time>2023-06-11T14:16:55.131Z</time>
      </trkpt>
      <trkpt lat="47.14551" lon="-0.00311">
        <ele>64.48</ele>
        <time>2023-06-11T14:17:30.573Z</time>
      </trkpt>
      <trkpt lat="47.14551" lon="-0.00311">
        <ele>64.48</ele>
        <time>2023-06-11T14:18:06.015Z</time>
      </trkpt>
      <trkpt lat="47.14547" lon="-0.00314">
        <ele>64.03</ele>
        <time>2023-06-11T14:18:41.458Z</time>
      </trkpt>
      <trkpt lat="47.14535" lon="-0.00323">
        <ele>62.73</ele>
        <time>2023-06-11T14:19:16.903Z</time>
      </trkpt>
      <trkpt lat="47.14534" lon="-0.00324">
        <ele>62.6</ele>
        <time>2023-06-11T14:19:52.348Z</time>
      </trkpt>
      <trkpt lat="47.14513" lon="-0.00326">
        <ele>60.35</ele>
        <time>2023-06-11T14:20:27.796Z</time>
      </trkpt>
      <trkpt lat="47.14509" lon="-0.00326">
        <ele>59.89</ele>
        <time>2023-06-11T14:21:03.245Z</time>
      </trkpt>
      <trkpt lat="47.145" lon="-0.00327">
        <ele>59.03</ele>
        <time>2023-06-11T14:21:38.695Z</time>
      </trkpt>
      <trkpt lat="47.14497" lon="-0.00327">
        <ele>58.78</ele>
        <time>2023-06-11T14:22:14.146Z</time>
      </trkpt>
      <trkpt lat="47.14491" lon="-0.00328">
        <ele>58.25</ele>
        <time>2023-06-11T14:22:49.598Z</time>
      </trkpt>
      <trkpt lat="47.14488" lon="-0.00329">
        <ele>58.02</ele>
        <time>2023-06-11T14:23:25.050Z</time>
      </trkpt>
      <trkpt lat="47.14474" lon="-0.00335">
        <ele>56.9</ele>
        <time>2023-06-11T14:24:00.505Z</time>
      </trkpt>
      <trkpt lat="47.14461" lon="-0.0034">
        <ele>55.83</ele>
        <time>2023-06-11T14:24:35.962Z</time>
      </trkpt>
      <trkpt lat="47.14456" lon="-0.00341">
        <ele>55.51</ele>
        <time>2023-06-11T14:25:11.419Z</time>
      </trkpt>
      <trkpt lat="47.14452" lon="-0.00343">
        <ele>55.22</ele>
        <time>2023-06-11T14:25:46.877Z</time>
      </trkpt>
      <trkpt lat="47.1444" lon="-0.00348">
        <ele>54.62</ele>
        <time>2023-06-11T14:26:22.337Z</time>
      </trkpt>
      <trkpt lat="47.14431" lon="-0.00351">
        <ele>54.32</ele>
        <time>2023-06-11T14:26:57.799Z</time>
      </trkpt>
      <trkpt lat="47.14423" lon="-0.00354">
        <ele>54.1</ele>
        <time>2023-06-11T14:27:33.262Z</time>
      </trkpt>
      <trkpt lat="47.14418" lon="-0.00356">
        <ele>54</ele>
        <time>2023-06-11T14:28:08.726Z</time>
      </trkpt>
      <trkpt lat="47.14415" lon="-0.00354">
        <ele>53.93</ele>
        <time>2023-06-11T14:28:44.190Z</time>
      </trkpt>
      <trkpt lat="47.14398" lon="-0.00345">
        <ele>53.64</ele>
        <time>2023-06-11T14:29:19.657Z</time>
      </trkpt>
      <trkpt lat="47.1439" lon="-0.0034">
        <ele>53.48</ele>
        <time>2023-06-11T14:29:55.126Z</time>
      </trkpt>
      <trkpt lat="47.14362" lon="-0.00324">
        <ele>52.84</ele>
        <time>2023-06-11T14:30:30.599Z</time>
      </trkpt>
      <trkpt lat="47.14358" lon="-0.00322">
        <ele>52.78</ele>
        <time>2023-06-11T14:31:06.073Z</time>
      </trkpt>
      <trkpt lat="47.14349" lon="-0.00321">
        <ele>52.66</ele>
        <time>2023-06-11T14:31:41.549Z</time>
      </trkpt>
      <trkpt lat="47.14346" lon="-0.0032">
        <ele>52.63</ele>
        <time>2023-06-11T14:32:17.025Z</time>
      </trkpt>
      <trkpt lat="47.1434" lon="-0.00321">
        <ele>52.59</ele>
        <time>2023-06-11T14:32:52.502Z</time>
      </trkpt>
      <trkpt lat="47.14323" lon="-0.00324">
        <ele>52.52</ele>
        <time>2023-06-11T14:33:27.982Z</time>
      </trkpt>
      <trkpt lat="47.14314" lon="-0.00324">
        <ele>52.49</ele>
        <time>2023-06-11T14:34:03.463Z</time>
      </trkpt>
      <trkpt lat="47.14291" lon="-0.00345">
        <ele>52.4</ele>
        <time>2023-06-11T14:34:38.949Z</time>
      </trkpt>
      <trkpt lat="47.14264" lon="-0.00369">
        <ele>52.35</ele>
        <time>2023-06-11T14:35:14.440Z</time>
      </trkpt>
      <trkpt lat="47.14219" lon="-0.00411">
        <ele>52.14</ele>
        <time>2023-06-11T14:35:49.939Z</time>
      </trkpt>
      <trkpt lat="47.14196" lon="-0.00431">
        <ele>52.1</ele>
        <time>2023-06-11T14:36:25.442Z</time>
      </trkpt>
      <trkpt lat="47.14177" lon="-0.00449">
        <ele>52.04</ele>
        <time>2023-06-11T14:37:00.949Z</time>
      </trkpt>
      <trkpt lat="47.14166" lon="-0.00459">
        <ele>52.03</ele>
        <time>2023-06-11T14:37:36.458Z</time>
      </trkpt>
      <trkpt lat="47.14143" lon="-0.0048">
        <ele>52.17</ele>
        <time>2023-06-11T14:38:11.971Z</time>
      </trkpt>
      <trkpt lat="47.14136" lon="-0.00486">
        <ele>52.19</ele>
        <time>2023-06-11T14:38:47.486Z</time>
      </trkpt>
      <trkpt lat="47.14135" lon="-0.00485">
        <ele>52.19</ele>
        <time>2023-06-11T14:39:23.001Z</time>
      </trkpt>
      <trkpt lat="47.14116" lon="-0.00469">
        <ele>52.1</ele>
        <time>2023-06-11T14:39:58.519Z</time>
      </trkpt>
      <trkpt lat="47.14112" lon="-0.00466">
        <ele>52.1</ele>
        <time>2023-06-11T14:40:34.038Z</time>
      </trkpt>
      <trkpt lat="47.14097" lon="-0.00453">
        <ele>52.17</ele>
        <time>2023-06-11T14:41:09.560Z</time>
      </trkpt>
      <trkpt lat="47.14089" lon="-0.00446">
        <ele>52.16</ele>
        <time>2023-06-11T14:41:45.083Z</time>
      </trkpt>
      <trkpt lat="47.14081" lon="-0.0044">
        <ele>52.12</ele>
        <time>2023-06-11T14:42:20.608Z</time>
      </trkpt>
      <trkpt lat="47.14058" lon="-0.0042">
        <ele>51.92</ele>
        <time>2023-06-11T14:42:56.137Z</time>
      </trkpt>
      <trkpt lat="47.14035" lon="-0.00401">
        <ele>51.79</ele>
        <time>2023-06-11T14:43:31.670Z</time>
      </trkpt>
      <trkpt lat="47.14011" lon="-0.00381">
        <ele>51.6</ele>
        <time>2023-06-11T14:44:07.208Z</time>
      </trkpt>
      <trkpt lat="47.14004" lon="-0.00374">
        <ele>51.5</ele>
        <time>2023-06-11T14:44:42.747Z</time>
      </trkpt>
      <trkpt lat="47.13988" lon="-0.00361">
        <ele>51.25</ele>
        <time>2023-06-11T14:45:18.289Z</time>
      </trkpt>
      <trkpt lat="47.13976" lon="-0.00352">
        <ele>51.09</ele>
        <time>2023-06-11T14:45:53.833Z</time>
      </trkpt>
      <trkpt lat="47.13961" lon="-0.00339">
        <ele>50.9</ele>
        <time>2023-06-11T14:46:29.380Z</time>
      </trkpt>
      <trkpt lat="47.13934" lon="-0.00316">
        <ele>50.63</ele>
        <time>2023-06-11T14:47:04.932Z</time>
      </trkpt>
      <trkpt lat="47.13914" lon="-0.00299">
        <ele>50.53</ele>
        <time>2023-06-11T14:47:40.488Z</time>
      </trkpt>
      <trkpt lat="47.13887" lon="-0.00277">
        <ele>50.32</ele>
        <time>2023-06-11T14:48:16.049Z</time>
      </trkpt>
      <trkpt lat="47.13876" lon="-0.00267">
        <ele>50.27</ele>
        <time>2023-06-11T14:48:51.612Z</time>
      </trkpt>
      <trkpt lat="47.13856" lon="-0.0025">
        <ele>50.23</ele>
        <time>2023-06-11T14:49:27.178Z</time>
      </trkpt>
      <trkpt lat="47.13845" lon="-0.00241">
        <ele>50.14</ele>
        <time>2023-06-11T14:50:02.747Z</time>
      </trkpt>
      <trkpt lat="47.13838" lon="-0.00235">
        <ele>50.12</ele>
        <time>2023-06-11T14:50:38.317Z</time>
      </trkpt>
      <trkpt lat="47.13827" lon="-0.00223">
        <ele>50.09</ele>
        <time>2023-06-11T14:51:13.889Z</time>
      </trkpt>
      <trkpt lat="47.13819" lon="-0.00206">
        <ele>50.07</ele>
        <time>2023-06-11T14:51:49.463Z</time>
      </trkpt>
      <trkpt lat="47.13809" lon="-0.00184">
        <ele>49.96</ele>
        <time>2023-06-11T14:52:25.040Z</time>
      </trkpt>
      <trkpt lat="47.13802" lon="-0.00169">
        <ele>49.96</ele>
        <time>2023-06-11T14:53:00.619Z</time>
      </trkpt>
      <trkpt lat="47.13802" lon="-0.00169">
        <ele>49.96</ele>
        <time>2023-06-11T14:53:36.198Z</time>
      </trkpt>
      <trkpt lat="47.13796" lon="-0.00159">
        <ele>49.94</ele>
        <time>2023-06-11T14:54:11.778Z</time>
      </trkpt>
      <trkpt lat="47.13787" lon="-0.00144">
        <ele>49.85</ele>
        <time>2023-06-11T14:54:47.361Z</time>
      </trkpt>
      <trkpt lat="47.13767" lon="-0.00123">
        <ele>49.71</ele>
        <time>2023-06-11T14:55:22.948Z</time>
      </trkpt>
      <trkpt lat="47.13759" lon="-0.00116">
        <ele>49.69</ele>
        <time>2023-06-11T14:55:58.536Z</time>
      </trkpt>
      <trkpt lat="47.13753" lon="-0.00109">
        <ele>49.72</ele>
        <time>2023-06-11T14:56:34.125Z</time>
      </trkpt>
      <trkpt lat="47.13748" lon="-0.00106">
        <ele>49.75</ele>
        <time>2023-06-11T14:57:09.715Z</time>
      </trkpt>
      <trkpt lat="47.13733" lon="-0.00097">
        <ele>49.9</ele>
        <time>2023-06-11T14:57:45.308Z</time>
      </trkpt>
      <trkpt lat="47.13722" lon="-0.00081">
        <ele>50.04</ele>
        <time>2023-06-11T14:58:20.903Z</time>
      </trkpt>
      <trkpt lat="47.1372" lon="-0.00075">
        <ele>50.09</ele>
        <time>2023-06-11T14:58:56.499Z</time>
      </trkpt>
      <trkpt lat="47.13714" lon="-0.00062">
        <ele>50.15</ele>
        <time>2023-06-11T14:59:32.097Z</time>
      </trkpt>
      <trkpt lat="47.1371" lon="-0.00046">
        <ele>50.22</ele>
        <time>2023-06-11T15:00:07.697Z</time>
      </trkpt>
      <trkpt lat="47.137" lon="-9.0E-5">
        <ele>49.95</ele>
        <time>2023-06-11T15:00:43.301Z</time>
      </trkpt>
      <trkpt lat="47.13697" lon="2.0E-5">
        <ele>49.91</ele>
        <time>2023-06-11T15:01:18.906Z</time>
      </trkpt>
      <trkpt lat="47.13681" lon="-0.00011">
        <ele>49.84</ele>
        <time>2023-06-11T15:01:54.514Z</time>
      </trkpt>
      <trkpt lat="47.13675" lon="-0.00016">
        <ele>49.82</ele>
        <time>2023-06-11T15:02:30.123Z</time>
      </trkpt>
      <trkpt lat="47.13669" lon="-0.00018">
        <ele>49.81</ele>
        <time>2023-06-11T15:03:05.733Z</time>
      </trkpt>
      <trkpt lat="47.13654" lon="-0.00021">
        <ele>49.79</ele>
        <time>2023-06-11T15:03:41.346Z</time>
      </trkpt>
      <trkpt lat="47.13634" lon="-0.00025">
        <ele>49.77</ele>
        <time>2023-06-11T15:04:16.962Z</time>
      </trkpt>
      <trkpt lat="47.13633" lon="-0.00025">
        <ele>49.76</ele>
        <time>2023-06-11T15:04:52.578Z</time>
      </trkpt>
      <trkpt lat="47.13621" lon="-0.00025">
        <ele>49.69</ele>
        <time>2023-06-11T15:05:28.196Z</time>
      </trkpt>
      <trkpt lat="47.13603" lon="-0.00024">
        <ele>49.55</ele>
        <time>2023-06-11T15:06:03.817Z</time>
      </trkpt>
      <trkpt lat="47.13598" lon="-0.00024">
        <ele>49.52</ele>
        <time>2023-06-11T15:06:39.439Z</time>
      </trkpt>
      <trkpt lat="47.13567" lon="-0.00027">
        <ele>49.39</ele>
        <time>2023-06-11T15:07:15.066Z</time>
      </trkpt>
      <trkpt lat="47.13562" lon="-0.00027">
        <ele>49.39</ele>
        <time>2023-06-11T15:07:50.693Z</time>
      </trkpt>
      <trkpt lat="47.13554" lon="-0.00029">
        <ele>49.39</ele>
        <time>2023-06-11T15:08:26.322Z</time>
      </trkpt>
      <trkpt lat="47.13541" lon="-0.00034">
        <ele>49.46</ele>
        <time>2023-06-11T15:09:01.953Z</time>
      </trkpt>
      <trkpt lat="47.13532" lon="-0.00036">
        <ele>49.16</ele>
        <time>2023-06-11T15:09:37.585Z</time>
      </trkpt>
      <trkpt lat="47.13527" lon="-0.00038">
        <ele>48.95</ele>
        <time>2023-06-11T15:10:13.218Z</time>
      </trkpt>
      <trkpt lat="47.13511" lon="-0.00048">
        <ele>48.32</ele>
        <time>2023-06-11T15:10:48.854Z</time>
      </trkpt>
      <trkpt lat="47.13507" lon="-0.00051">
        <ele>48.17</ele>
        <time>2023-06-11T15:11:24.491Z</time>
      </trkpt>
      <trkpt lat="47.13506" lon="-0.00045">
        <ele>48.05</ele>
        <time>2023-06-11T15:12:00.128Z</time>
      </trkpt>
      <trkpt lat="47.13504" lon="-0.00039">
        <ele>47.94</ele>
        <time>2023-06-11T15:12:35.766Z</time>
      </trkpt>
      <trkpt lat="47.13503" lon="-0.00033">
        <ele>47.86</ele>
        <time>2023-06-11T15:13:11.405Z</time>
      </trkpt>
      <trkpt lat="47.135" lon="-0.0002">
        <ele>47.75</ele>
        <time>2023-06-11T15:13:47.045Z</time>
      </trkpt>
      <trkpt lat="47.13497" lon="-8.0E-5">
        <ele>47.72</ele>
        <time>2023-06-11T15:14:22.687Z</time>
      </trkpt>
      <trkpt lat="47.13494" lon="5.0E-5">
        <ele>47.74</ele>
        <time>2023-06-11T15:14:58.330Z</time>
      </trkpt>
      <trkpt lat="47.13492" lon="0.00017">
        <ele>47.82</ele>
        <time>2023-06-11T15:15:33.975Z</time>
      </trkpt>
      <trkpt lat="47.13489" lon="0.00029">
        <ele>47.92</ele>
        <time>2023-06-11T15:16:09.621Z</time>
      </trkpt>
      <trkpt lat="47.13488" lon="0.00036">
        <ele>47.99</ele>
        <time>2023-06-11T15:16:45.268Z</time>
      </trkpt>
      <trkpt lat="47.13484" lon="0.00062">
        <ele>48.31</ele>
        <time>2023-06-11T15:17:20.918Z</time>
      </trkpt>
      <trkpt lat="47.13479" lon="0.00094">
        <ele>48.61</ele>
        <time>2023-06-11T15:17:56.571Z</time>
      </trkpt>
      <trkpt lat="47.13477" lon="0.00107">
        <ele>48.77</ele>
        <time>2023-06-11T15:18:32.226Z</time>
      </trkpt>
      <trkpt lat="47.13474" lon="0.00126">
        <ele>49.04</ele>
        <time>2023-06-11T15:19:07.883Z</time>
      </trkpt>
      <trkpt lat="47.13467" lon="0.00178">
        <ele>49.83</ele>
        <time>2023-06-11T15:19:43.546Z</time>
      </trkpt>
      <trkpt lat="47.13464" lon="0.00197">
        <ele>50.15</ele>
        <time>2023-06-11T15:20:19.211Z</time>
      </trkpt>
      <trkpt lat="47.13462" lon="0.00208">
        <ele>50.36</ele>
        <time>2023-06-11T15:20:54.877Z</time>
      </trkpt>
      <trkpt lat="47.1346" lon="0.00216">
        <ele>50.52</ele>
        <time>2023-06-11T15:21:30.544Z</time>
      </trkpt>
      <trkpt lat="47.13457" lon="0.00229">
        <ele>50.53</ele>
        <time>2023-06-11T15:22:06.212Z</time>
      </trkpt>
      <trkpt lat="47.13455" lon="0.00241">
        <ele>50.59</ele>
        <time>2023-06-11T15:22:41.882Z</time>
      </trkpt>
      <trkpt lat="47.13452" lon="0.00253">
        <ele>50.69</ele>
        <time>2023-06-11T15:23:17.553Z</time>
      </trkpt>
      <trkpt lat="47.13447" lon="0.00266">
        <ele>50.82</ele>
        <time>2023-06-11T15:23:53.226Z</time>
      </trkpt>
      <trkpt lat="47.13447" lon="0.00266">
        <ele>50.82</ele>
        <time>2023-06-11T15:24:28.899Z</time>
      </trkpt>
      <trkpt lat="47.1344" lon="0.00279">
        <ele>50.99</ele>
        <time>2023-06-11T15:25:04.574Z</time>
      </trkpt>
      <trkpt lat="47.13435" lon="0.00285">
        <ele>51.08</ele>
        <time>2023-06-11T15:25:40.250Z</time>
      </trkpt>
      <trkpt lat="47.13433" lon="0.00288">
        <ele>51.14</ele>
        <time>2023-06-11T15:26:15.926Z</time>
      </trkpt>
      <trkpt lat="47.13415" lon="0.00299">
        <ele>51.49</ele>
        <time>2023-06-11T15:26:51.605Z</time>
      </trkpt>
      <trkpt lat="47.1339" lon="0.00313">
        <ele>52.09</ele>
        <time>2023-06-11T15:27:27.288Z</time>
      </trkpt>
      <trkpt lat="47.13382" lon="0.00318">
        <ele>52.27</ele>
        <time>2023-06-11T15:28:02.973Z</time>
      </trkpt>
      <trkpt lat="47.13379" lon="0.0032">
        <ele>52.32</ele>
        <time>2023-06-11T15:28:38.658Z</time>
      </trkpt>
      <trkpt lat="47.13356" lon="0.0034">
        <ele>52.8</ele>
        <time>2023-06-11T15:29:14.348Z</time>
      </trkpt>
      <trkpt lat="47.13337" lon="0.00361">
        <ele>53.24</ele>
        <time>2023-06-11T15:29:50.041Z</time>
      </trkpt>
      <trkpt lat="47.13326" lon="0.00373">
        <ele>53.55</ele>
        <time>2023-06-11T15:30:25.737Z</time>
      </trkpt>
      <trkpt lat="47.13312" lon="0.00389">
        <ele>54.08</ele>
        <time>2023-06-11T15:31:01.436Z</time>
      </trkpt>
      <trkpt lat="47.13294" lon="0.00409">
        <ele>54.54</ele>
        <time>2023-06-11T15:31:37.138Z</time>
      </trkpt>
      <trkpt lat="47.13287" lon="0.00417">
        <ele>54.74</ele>
        <time>2023-06-11T15:32:12.842Z</time>
      </trkpt>
      <trkpt lat="47.13276" lon="0.00429">
        <ele>55.08</ele>
        <time>2023-06-11T15:32:48.548Z</time>
      </trkpt>
      <trkpt lat="47.13258" lon="0.00449">
        <ele>55.69</ele>
        <time>2023-06-11T15:33:24.257Z</time>
      </trkpt>
      <trkpt lat="47.13253" lon="0.00454">
        <ele>55.82</ele>
        <time>2023-06-11T15:33:59.967Z</time>
      </trkpt>
      <trkpt lat="47.13251" lon="0.00457">
        <ele>55.89</ele>
        <time>2023-06-11T15:34:35.678Z</time>
      </trkpt>
      <trkpt lat="47.13247" lon="0.00461">
        <ele>55.97</ele>
        <time>2023-06-11T15:35:11.389Z</time>
      </trkpt>
      <trkpt lat="47.13205" lon="0.0051">
        <ele>56.76</ele>
        <time>2023-06-11T15:35:47.109Z</time>
      </trkpt>
      <trkpt lat="47.13191" lon="0.00527">
        <ele>57.06</ele>
        <time>2023-06-11T15:36:22.832Z</time>
      </trkpt>
      <trkpt lat="47.13177" lon="0.00543">
        <ele>57.31</ele>
        <time>2023-06-11T15:36:58.558Z</time>
      </trkpt>
      <trkpt lat="47.13167" lon="0.00556">
        <ele>57.47</ele>
        <time>2023-06-11T15:37:34.286Z</time>
      </trkpt>
      <trkpt lat="47.1316" lon="0.00564">
        <ele>57.54</ele>
        <time>2023-06-11T15:38:10.015Z</time>
      </trkpt>
      <trkpt lat="47.13156" lon="0.00568">
        <ele>57.54</ele>
        <time>2023-06-11T15:38:45.745Z</time>
      </trkpt>
      <trkpt lat="47.13155" lon="0.0057">
        <ele>57.53</ele>
        <time>2023-06-11T15:39:21.475Z</time>
      </trkpt>
      <trkpt lat="47.13138" lon="0.00588">
        <ele>57.46</ele>
        <time>2023-06-11T15:39:57.209Z</time>
      </trkpt>
      <trkpt lat="47.13131" lon="0.00595">
        <ele>57.67</ele>
        <time>2023-06-11T15:40:32.944Z</time>
      </trkpt>
      <trkpt lat="47.13124" lon="0.00603">
        <ele>57.86</ele>
        <time>2023-06-11T15:41:08.681Z</time>
      </trkpt>
      <trkpt lat="47.13124" lon="0.00603">
        <ele>57.86</ele>
        <time>2023-06-11T15:41:44.418Z</time>
      </trkpt>
      <trkpt lat="47.13101" lon="0.00623">
        <ele>58.31</ele>
        <time>2023-06-11T15:42:20.159Z</time>
      </trkpt>
      <trkpt lat="47.13085" lon="0.00636">
        <ele>58.65</ele>
        <time>2023-06-11T15:42:55.903Z</time>
      </trkpt>
      <trkpt lat="47.13078" lon="0.00643">
        <ele>58.79</ele>
        <time>2023-06-11T15:43:31.648Z</time>
      </trkpt>
      <trkpt lat="47.13063" lon="0.00655">
        <ele>58.95</ele>
        <time>2023-06-11T15:44:07.396Z</time>
      </trkpt>
      <trkpt lat="47.13062" lon="0.00656">
        <ele>58.96</ele>
        <time>2023-06-11T15:44:43.144Z</time>
      </trkpt>
      <trkpt lat="47.13052" lon="0.00668">
        <ele>59.11</ele>
        <time>2023-06-11T15:45:18.894Z</time>
      </trkpt>
      <trkpt lat="47.13046" lon="0.00674">
        <ele>59.17</ele>
        <time>2023-06-11T15:45:54.645Z</time>
      </trkpt>
      <trkpt lat="47.13038" lon="0.00685">
        <ele>59.27</ele>
        <time>2023-06-11T15:46:30.398Z</time>
      </trkpt>
      <trkpt lat="47.13028" lon="0.007">
        <ele>59.47</ele>
        <time>2023-06-11T15:47:06.153Z</time>
      </trkpt>
      <trkpt lat="47.13023" lon="0.00709">
        <ele>59.59</ele>
        <time>2023-06-11T15:47:41.910Z</time>
      </trkpt>
      <trkpt lat="47.13015" lon="0.00725">
        <ele>59.76</ele>
        <time>2023-06-11T15:48:17.669Z</time>
      </trkpt>
      <trkpt lat="47.13002" lon="0.00752">
        <ele>59.99</ele>
        <time>2023-06-11T15:48:53.431Z</time>
      </trkpt>
      <trkpt lat="47.12984" lon="0.00789">
        <ele>60.35</ele>
        <time>2023-06-11T15:49:29.198Z</time>
      </trkpt>
      <trkpt lat="47.12965" lon="0.00826">
        <ele>60.65</ele>
        <time>2023-06-11T15:50:04.970Z</time>
      </trkpt>
      <trkpt lat="47.12955" lon="0.00847">
        <ele>60.88</ele>
        <time>2023-06-11T15:50:40.745Z</time>
      </trkpt>
      <trkpt lat="47.12939" lon="0.00879">
        <ele>61.14</ele>
        <time>2023-06-11T15:51:16.525Z</time>
      </trkpt>
      <trkpt lat="47.12923" lon="0.0091">
        <ele>61.48</ele>
        <time>2023-06-11T15:51:52.309Z</time>
      </trkpt>
      <trkpt lat="47.12912" lon="0.00931">
        <ele>61.74</ele>
        <time>2023-06-11T15:52:28.096Z</time>
      </trkpt>
      <trkpt lat="47.12907" lon="0.00942">
        <ele>61.85</ele>
        <time>2023-06-11T15:53:03.884Z</time>
      </trkpt>
      <trkpt lat="47.12902" lon="0.00952">
        <ele>61.92</ele>
        <time>2023-06-11T15:53:39.674Z</time>
      </trkpt>
      <trkpt lat="47.12899" lon="0.00958">
        <ele>61.94</ele>
        <time>2023-06-11T15:54:15.464Z</time>
      </trkpt>
      <trkpt lat="47.12886" lon="0.00984">
        <ele>61.94</ele>
        <time>2023-06-11T15:54:51.258Z</time>
      </trkpt>
      <trkpt lat="47.12883" lon="0.0099">
        <ele>61.93</ele>
        <time>2023-06-11T15:55:27.053Z</time>
      </trkpt>
      <trkpt lat="47.12875" lon="0.01005">
        <ele>61.91</ele>
        <time>2023-06-11T15:56:02.850Z</time>
      </trkpt>
      <trkpt lat="47.12864" lon="0.01025">
        <ele>61.77</ele>
        <time>2023-06-11T15:56:38.650Z</time>
      </trkpt>
      <trkpt lat="47.12861" lon="0.0103">
        <ele>61.74</ele>
        <time>2023-06-11T15:57:14.450Z</time>
      </trkpt>
      <trkpt lat="47.12854" lon="0.01039">
        <ele>61.73</ele>
        <time>2023-06-11T15:57:50.252Z</time>
      </trkpt>
      <trkpt lat="47.12841" lon="0.01059">
        <ele>61.63</ele>
        <time>2023-06-11T15:58:26.057Z</time>
      </trkpt>
      <trkpt lat="47.12822" lon="0.01087">
        <ele>60.68</ele>
        <time>2023-06-11T15:59:01.866Z</time>
      </trkpt>
      <trkpt lat="47.12815" lon="0.01097">
        <ele>60.31</ele>
        <time>2023-06-11T15:59:37.677Z</time>
      </trkpt>
      <trkpt lat="47.12807" lon="0.01111">
        <ele>59.85</ele>
        <time>2023-06-11T16:00:13.490Z</time>
      </trkpt>
      <trkpt lat="47.12778" lon="0.01161">
        <ele>58.1</ele>
        <time>2023-06-11T16:00:49.310Z</time>
      </trkpt>
      <trkpt lat="47.12773" lon="0.01171">
        <ele>57.77</ele>
        <time>2023-06-11T16:01:25.131Z</time>
      </trkpt>
      <trkpt lat="47.12767" lon="0.01181">
        <ele>57.46</ele>
        <time>2023-06-11T16:02:00.954Z</time>
      </trkpt>
      <trkpt lat="47.12755" lon="0.01201">
        <ele>56.89</ele>
        <time>2023-06-11T16:02:36.780Z</time>
      </trkpt>
      <trkpt lat="47.12749" lon="0.01211">
        <ele>56.57</ele>
        <time>2023-06-11T16:03:12.607Z</time>
      </trkpt>
      <trkpt lat="47.12732" lon="0.01242">
        <ele>55.49</ele>
        <time>2023-06-11T16:03:48.438Z</time>
      </trkpt>
      <trkpt lat="47.12718" lon="0.01267">
        <ele>54.68</ele>
        <time>2023-06-11T16:04:24.273Z</time>
      </trkpt>
      <trkpt lat="47.12695" lon="0.01307">
        <ele>53.16</ele>
        <time>2023-06-11T16:05:00.114Z</time>
      </trkpt>
      <trkpt lat="47.12683" lon="0.01327">
        <ele>52.47</ele>
        <time>2023-06-11T16:05:35.957Z</time>
      </trkpt>
      <trkpt lat="47.12677" lon="0.01337">
        <ele>52.15</ele>
        <time>2023-06-11T16:06:11.802Z</time>
      </trkpt>
      <trkpt lat="47.12672" lon="0.01347">
        <ele>51.86</ele>
        <time>2023-06-11T16:06:47.648Z</time>
      </trkpt>
      <trkpt lat="47.12657" lon="0.01372">
        <ele>51.26</ele>
        <time>2023-06-11T16:07:23.498Z</time>
      </trkpt>
      <trkpt lat="47.12652" lon="0.01382">
        <ele>51.09</ele>
        <time>2023-06-11T16:07:59.349Z</time>
      </trkpt>
      <trkpt lat="47.12649" lon="0.01387">
        <ele>51.04</ele>
        <time>2023-06-11T16:08:35.201Z</time>
      </trkpt>
      <trkpt lat="47.12646" lon="0.01392">
        <ele>51.02</ele>
        <time>2023-06-11T16:09:11.054Z</time>
      </trkpt>
      <trkpt lat="47.12637" lon="0.01407">
        <ele>51.03</ele>
        <time>2023-06-11T16:09:46.909Z</time>
      </trkpt>
      <trkpt lat="47.12634" lon="0.01413">
        <ele>51.01</ele>
        <time>2023-06-11T16:10:22.765Z</time>
      </trkpt>
      <trkpt lat="47.12634" lon="0.01413">
        <ele>51.01</ele>
        <time>2023-06-11T16:10:58.621Z</time>
      </trkpt>
      <trkpt lat="47.12632" lon="0.01408">
        <ele>50.98</ele>
        <time>2023-06-11T16:11:34.477Z</time>
      </trkpt>
      <trkpt lat="47.12627" lon="0.0139">
        <ele>50.83</ele>
        <time>2023-06-11T16:12:10.335Z</time>
      </trkpt>
      <trkpt lat="47.12626" lon="0.01384">
        <ele>50.79</ele>
        <time>2023-06-11T16:12:46.194Z</time>
      </trkpt>
      <trkpt lat="47.12625" lon="0.01377">
        <ele>50.8</ele>
        <time>2023-06-11T16:13:22.054Z</time>
      </trkpt>
      <trkpt lat="47.12624" lon="0.01371">
        <ele>50.83</ele>
        <time>2023-06-11T16:13:57.915Z</time>
      </trkpt>
      <trkpt lat="47.12618" lon="0.01333">
        <ele>51.25</ele>
        <time>2023-06-11T16:14:33.780Z</time>
      </trkpt>
      <trkpt lat="47.12617" lon="0.01328">
        <ele>51.28</ele>
        <time>2023-06-11T16:15:09.645Z</time>
      </trkpt>
      <trkpt lat="47.12615" lon="0.0132">
        <ele>51.35</ele>
        <time>2023-06-11T16:15:45.511Z</time>
      </trkpt>
      <trkpt lat="47.12614" lon="0.01314">
        <ele>51.38</ele>
        <time>2023-06-11T16:16:21.378Z</time>
      </trkpt>
      <trkpt lat="47.12611" lon="0.01302">
        <ele>51.39</ele>
        <time>2023-06-11T16:16:57.246Z</time>
      </trkpt>
      <trkpt lat="47.12603" lon="0.01271">
        <ele>51.34</ele>
        <time>2023-06-11T16:17:33.118Z</time>
      </trkpt>
      <trkpt lat="47.12599" lon="0.01255">
        <ele>51.35</ele>
        <time>2023-06-11T16:18:08.992Z</time>
      </trkpt>
      <trkpt lat="47.12596" lon="0.01247">
        <ele>51.37</ele>
        <time>2023-06-11T16:18:44.867Z</time>
      </trkpt>
      <trkpt lat="47.12594" lon="0.01241">
        <ele>51.36</ele>
        <time>2023-06-11T16:19:20.743Z</time>
      </trkpt>
      <trkpt lat="47.1259" lon="0.0123">
        <ele>51.28</ele>
        <time>2023-06-11T16:19:56.620Z</time>
      </trkpt>
      <trkpt lat="47.12588" lon="0.01225">
        <ele>51.21</ele>
        <time>2023-06-11T16:20:32.498Z</time>
      </trkpt>
      <trkpt lat="47.12575" lon="0.01197">
        <ele>50.8</ele>
        <time>2023-06-11T16:21:08.379Z</time>
      </trkpt>
      <trkpt lat="47.12556" lon="0.01154">
        <ele>50.28</ele>
        <time>2023-06-11T16:21:44.266Z</time>
      </trkpt>
      <trkpt lat="47.12553" lon="0.01148">
        <ele>50.25</ele>
        <time>2023-06-11T16:22:20.154Z</time>
      </trkpt>
      <trkpt lat="47.1255" lon="0.01141">
        <ele>50.23</ele>
        <time>2023-06-11T16:22:56.043Z</time>
      </trkpt>
      <trkpt lat="47.12548" lon="0.01137">
        <ele>50.23</ele>
        <time>2023-06-11T16:23:31.932Z</time>
      </trkpt>
      <trkpt lat="47.12545" lon="0.01132">
        <ele>50.24</ele>
        <time>2023-06-11T16:24:07.822Z</time>
      </trkpt>
      <trkpt lat="47.1254" lon="0.01122">
        <ele>50.31</ele>
        <time>2023-06-11T16:24:43.713Z</time>
      </trkpt>
      <trkpt lat="47.12535" lon="0.01113">
        <ele>50.25</ele>
        <time>2023-06-11T16:25:19.606Z</time>
      </trkpt>
      <trkpt lat="47.12497" lon="0.0105">
        <ele>49.88</ele>
        <time>2023-06-11T16:25:55.508Z</time>
      </trkpt>
      <trkpt lat="47.12476" lon="0.00991">
        <ele>49.58</ele>
        <time>2023-06-11T16:26:31.417Z</time>
      </trkpt>
      <trkpt lat="47.12464" lon="0.00966">
        <ele>49.45</ele>
        <time>2023-06-11T16:27:07.329Z</time>
      </trkpt>
      <trkpt lat="47.1242" lon="0.00917">
        <ele>49.08</ele>
        <time>2023-06-11T16:27:43.250Z</time>
      </trkpt>
      <trkpt lat="47.12397" lon="0.00894">
        <ele>48.9</ele>
        <time>2023-06-11T16:28:19.176Z</time>
      </trkpt>
      <trkpt lat="47.12364" lon="0.00854">
        <ele>48.62</ele>
        <time>2023-06-11T16:28:55.108Z</time>
      </trkpt>
      <trkpt lat="47.12351" lon="0.00841">
        <ele>48.52</ele>
        <time>2023-06-11T16:29:31.043Z</time>
      </trkpt>
      <trkpt lat="47.1233" lon="0.00824">
        <ele>48.36</ele>
        <time>2023-06-11T16:30:06.982Z</time>
      </trkpt>
      <trkpt lat="47.12315" lon="0.00815">
        <ele>48.26</ele>
        <time>2023-06-11T16:30:42.923Z</time>
      </trkpt>
      <trkpt lat="47.12248" lon="0.00786">
        <ele>47.8</ele>
        <time>2023-06-11T16:31:18.876Z</time>
      </trkpt>
      <trkpt lat="47.12226" lon="0.00784">
        <ele>47.66</ele>
        <time>2023-06-11T16:31:54.832Z</time>
      </trkpt>
      <trkpt lat="47.12174" lon="0.00768">
        <ele>47.31</ele>
        <time>2023-06-11T16:32:30.797Z</time>
      </trkpt>
      <trkpt lat="47.12141" lon="0.00762">
        <ele>47.09</ele>
        <time>2023-06-11T16:33:06.767Z</time>
      </trkpt>
      <trkpt lat="47.12127" lon="0.00755">
        <ele>46.99</ele>
        <time>2023-06-11T16:33:42.739Z</time>
      </trkpt>
      <trkpt lat="47.12085" lon="0.00728">
        <ele>46.69</ele>
        <time>2023-06-11T16:34:18.719Z</time>
      </trkpt>
      <trkpt lat="47.12016" lon="0.0069">
        <ele>46.21</ele>
        <time>2023-06-11T16:34:54.711Z</time>
      </trkpt>
      <trkpt lat="47.11991" lon="0.00669">
        <ele>46.02</ele>
        <time>2023-06-11T16:35:30.707Z</time>
      </trkpt>
      <trkpt lat="47.11988" lon="0.00662">
        <ele>45.99</ele>
        <time>2023-06-11T16:36:06.704Z</time>
      </trkpt>
      <trkpt lat="47.11984" lon="0.00649">
        <ele>45.92</ele>
        <time>2023-06-11T16:36:42.703Z</time>
      </trkpt>
      <trkpt lat="47.11981" lon="0.00623">
        <ele>45.81</ele>
        <time>2023-06-11T16:37:18.704Z</time>
      </trkpt>
      <trkpt lat="47.11981" lon="0.00623">
        <ele>45.91</ele>
        <time>2023-06-11T16:37:54.705Z</time>
      </trkpt>
      <trkpt lat="47.11979" lon="0.00604">
        <ele>46.41</ele>
        <time>2023-06-11T16:38:30.709Z</time>
      </trkpt>
      <trkpt lat="47.11978" lon="0.00596">
        <ele>46.66</ele>
        <time>2023-06-11T16:39:06.713Z</time>
      </trkpt>
      <trkpt lat="47.11974" lon="0.00579">
        <ele>47.27</ele>
        <time>2023-06-11T16:39:42.719Z</time>
      </trkpt>
      <trkpt lat="47.11972" lon="0.00572">
        <ele>47.46</ele>
        <time>2023-06-11T16:40:18.726Z</time>
      </trkpt>
      <trkpt lat="47.11972" lon="0.00572">
        <ele>47.46</ele>
        <time>2023-06-11T16:40:54.733Z</time>
      </trkpt>
      <trkpt lat="47.11963" lon="0.00585">
        <ele>47.99</ele>
        <time>2023-06-11T16:41:30.742Z</time>
      </trkpt>
      <trkpt lat="47.11957" lon="0.00595">
        <ele>48.38</ele>
        <time>2023-06-11T16:42:06.753Z</time>
      </trkpt>
      <trkpt lat="47.11953" lon="0.006">
        <ele>48.63</ele>
        <time>2023-06-11T16:42:42.765Z</time>
      </trkpt>
      <trkpt lat="47.1195" lon="0.00602">
        <ele>48.82</ele>
        <time>2023-06-11T16:43:18.777Z</time>
      </trkpt>
      <trkpt lat="47.11945" lon="0.00605">
        <ele>49.08</ele>
        <time>2023-06-11T16:43:54.790Z</time>
      </trkpt>
      <trkpt lat="47.11932" lon="0.00606">
        <ele>49.77</ele>
        <time>2023-06-11T16:44:30.805Z</time>
      </trkpt>
      <trkpt lat="47.11926" lon="0.00607">
        <ele>50.05</ele>
        <time>2023-06-11T16:45:06.821Z</time>
      </trkpt>
      <trkpt lat="47.11915" lon="0.00603">
        <ele>50.6</ele>
        <time>2023-06-11T16:45:42.839Z</time>
      </trkpt>
      <trkpt lat="47.11893" lon="0.00595">
        <ele>51.75</ele>
        <time>2023-06-11T16:46:18.860Z</time>
      </trkpt>
      <trkpt lat="47.11876" lon="0.00589">
        <ele>52.69</ele>
        <time>2023-06-11T16:46:54.884Z</time>
      </trkpt>
      <trkpt lat="47.11853" lon="0.0058">
        <ele>51.88</ele>
        <time>2023-06-11T16:47:30.912Z</time>
      </trkpt>
      <trkpt lat="47.1185" lon="0.0058">
        <ele>51.78</ele>
        <time>2023-06-11T16:48:06.941Z</time>
      </trkpt>
      <trkpt lat="47.11846" lon="0.00581">
        <ele>51.65</ele>
        <time>2023-06-11T16:48:42.970Z</time>
      </trkpt>
      <trkpt lat="47.11841" lon="0.00581">
        <ele>51.56</ele>
        <time>2023-06-11T16:49:19.000Z</time>
      </trkpt>
      <trkpt lat="47.11841" lon="0.00581">
        <ele>51.56</ele>
        <time>2023-06-11T16:49:55.030Z</time>
      </trkpt>
      <trkpt lat="47.11837" lon="0.00584">
        <ele>51.49</ele>
        <time>2023-06-11T16:50:31.061Z</time>
      </trkpt>
      <trkpt lat="47.1183" lon="0.00589">
        <ele>51.41</ele>
        <time>2023-06-11T16:51:07.093Z</time>
      </trkpt>
      <trkpt lat="47.11829" lon="0.0059">
        <ele>51.41</ele>
        <time>2023-06-11T16:51:43.125Z</time>
      </trkpt>
      <trkpt lat="47.11824" lon="0.00595">
        <ele>51.37</ele>
        <time>2023-06-11T16:52:19.158Z</time>
      </trkpt>
      <trkpt lat="47.11816" lon="0.00607">
        <ele>51.32</ele>
        <time>2023-06-11T16:52:55.193Z</time>
      </trkpt>
      <trkpt lat="47.11814" lon="0.00611">
        <ele>51.31</ele>
        <time>2023-06-11T16:53:31.228Z</time>
      </trkpt>
      <trkpt lat="47.11811" lon="0.00618">
        <ele>51.31</ele>
        <time>2023-06-11T16:54:07.264Z</time>
      </trkpt>
      <trkpt lat="47.118" lon="0.00639">
        <ele>51.43</ele>
        <time>2023-06-11T16:54:43.303Z</time>
      </trkpt>
      <trkpt lat="47.11798" lon="0.00644">
        <ele>51.42</ele>
        <time>2023-06-11T16:55:19.343Z</time>
      </trkpt>
      <trkpt lat="47.11795" lon="0.00649">
        <ele>51.36</ele>
        <time>2023-06-11T16:55:55.384Z</time>
      </trkpt>
      <trkpt lat="47.11794" lon="0.00652">
        <ele>51.3</ele>
        <time>2023-06-11T16:56:31.425Z</time>
      </trkpt>
      <trkpt lat="47.11792" lon="0.00654">
        <ele>51.25</ele>
        <time>2023-06-11T16:57:07.466Z</time>
      </trkpt>
      <trkpt lat="47.11789" lon="0.00659">
        <ele>51.09</ele>
        <time>2023-06-11T16:57:43.508Z</time>
      </trkpt>
      <trkpt lat="47.11779" lon="0.00672">
        <ele>50.47</ele>
        <time>2023-06-11T16:58:19.552Z</time>
      </trkpt>
      <trkpt lat="47.11776" lon="0.00676">
        <ele>50.29</ele>
        <time>2023-06-11T16:58:55.597Z</time>
      </trkpt>
      <trkpt lat="47.11769" lon="0.00685">
        <ele>50.03</ele>
        <time>2023-06-11T16:59:31.643Z</time>
      </trkpt>
      <trkpt lat="47.11766" lon="0.0069">
        <ele>49.93</ele>
        <time>2023-06-11T17:00:07.690Z</time>
      </trkpt>
      <trkpt lat="47.11754" lon="0.00706">
        <ele>49.68</ele>
        <time>2023-06-11T17:00:43.740Z</time>
      </trkpt>
      <trkpt lat="47.11746" lon="0.00714">
        <ele>49.54</ele>
        <time>2023-06-11T17:01:19.791Z</time>
      </trkpt>
      <trkpt lat="47.11738" lon="0.00722">
        <ele>49.38</ele>
        <time>2023-06-11T17:01:55.844Z</time>
      </trkpt>
      <trkpt lat="47.11734" lon="0.00725">
        <ele>49.32</ele>
        <time>2023-06-11T17:02:31.897Z</time>
      </trkpt>
      <trkpt lat="47.11714" lon="0.00739">
        <ele>48.86</ele>
        <time>2023-06-11T17:03:07.954Z</time>
      </trkpt>
      <trkpt lat="47.11694" lon="0.00754">
        <ele>48.59</ele>
        <time>2023-06-11T17:03:44.015Z</time>
      </trkpt>
      <trkpt lat="47.11676" lon="0.00767">
        <ele>48.27</ele>
        <time>2023-06-11T17:04:20.079Z</time>
      </trkpt>
      <trkpt lat="47.11675" lon="0.00768">
        <ele>48.25</ele>
        <time>2023-06-11T17:04:56.143Z</time>
      </trkpt>
      <trkpt lat="47.11667" lon="0.00775">
        <ele>48.17</ele>
        <time>2023-06-11T17:05:32.209Z</time>
      </trkpt>
      <trkpt lat="47.11663" lon="0.00778">
        <ele>48.16</ele>
        <time>2023-06-11T17:06:08.275Z</time>
      </trkpt>
      <trkpt lat="47.11659" lon="0.00781">
        <ele>48.17</ele>
        <time>2023-06-11T17:06:44.342Z</time>
      </trkpt>
      <trkpt lat="47.11656" lon="0.00784">
        <ele>48.19</ele>
        <time>2023-06-11T17:07:20.410Z</time>
      </trkpt>
      <trkpt lat="47.11652" lon="0.00788">
        <ele>48.23</ele>
        <time>2023-06-11T17:07:56.478Z</time>
      </trkpt>
      <trkpt lat="47.11645" lon="0.00796">
        <ele>46.89</ele>
        <time>2023-06-11T17:08:32.548Z</time>
      </trkpt>
      <trkpt lat="47.11641" lon="0.00799">
        <ele>46.26</ele>
        <time>2023-06-11T17:09:08.618Z</time>
      </trkpt>
      <trkpt lat="47.11634" lon="0.00807">
        <ele>45.07</ele>
        <time>2023-06-11T17:09:44.690Z</time>
      </trkpt>
      <trkpt lat="47.11627" lon="0.00814">
        <ele>43.97</ele>
        <time>2023-06-11T17:10:20.763Z</time>
      </trkpt>
      <trkpt lat="47.11623" lon="0.00818">
        <ele>43.37</ele>
        <time>2023-06-11T17:10:56.837Z</time>
      </trkpt>
      <trkpt lat="47.11612" lon="0.00827">
        <ele>41.87</ele>
        <time>2023-06-11T17:11:32.913Z</time>
      </trkpt>
      <trkpt lat="47.11608" lon="0.0083">
        <ele>41.28</ele>
        <time>2023-06-11T17:12:08.990Z</time>
      </trkpt>
      <trkpt lat="47.11604" lon="0.00832">
        <ele>40.79</ele>
        <time>2023-06-11T17:12:45.067Z</time>
      </trkpt>
      <trkpt lat="47.1159" lon="0.0084">
        <ele>40.79</ele>
        <time>2023-06-11T17:13:21.147Z</time>
      </trkpt>
      <trkpt lat="47.11579" lon="0.00844">
        <ele>40.8</ele>
        <time>2023-06-11T17:13:57.229Z</time>
      </trkpt>
      <trkpt lat="47.1157" lon="0.00848">
        <ele>40.82</ele>
        <time>2023-06-11T17:14:33.312Z</time>
      </trkpt>
      <trkpt lat="47.11573" lon="0.0086">
        <ele>40.85</ele>
        <time>2023-06-11T17:15:09.397Z</time>
      </trkpt>
      <trkpt lat="47.11576" lon="0.00872">
        <ele>40.92</ele>
        <time>2023-06-11T17:15:45.483Z</time>
      </trkpt>
      <trkpt lat="47.11584" lon="0.00909">
        <ele>41.18</ele>
        <time>2023-06-11T17:16:21.573Z</time>
      </trkpt>
      <trkpt lat="47.11597" lon="0.00965">
        <ele>41.75</ele>
        <time>2023-06-11T17:16:57.670Z</time>
      </trkpt>
      <trkpt lat="47.11612" lon="0.01027">
        <ele>42.54</ele>
        <time>2023-06-11T17:17:33.774Z</time>
      </trkpt>
      <trkpt lat="47.11616" lon="0.01045">
        <ele>42.75</ele>
        <time>2023-06-11T17:18:09.880Z</time>
      </trkpt>
      <trkpt lat="47.11623" lon="0.01076">
        <ele>43.05</ele>
        <time>2023-06-11T17:18:45.990Z</time>
      </trkpt>
      <trkpt lat="47.1163" lon="0.01107">
        <ele>43.38</ele>
        <time>2023-06-11T17:19:22.103Z</time>
      </trkpt>
      <trkpt lat="47.11636" lon="0.01132">
        <ele>43.6</ele>
        <time>2023-06-11T17:19:58.219Z</time>
      </trkpt>
      <trkpt lat="47.11646" lon="0.01175">
        <ele>43.94</ele>
        <time>2023-06-11T17:20:34.340Z</time>
      </trkpt>
      <trkpt lat="47.11652" lon="0.012">
        <ele>44.06</ele>
        <time>2023-06-11T17:21:10.464Z</time>
      </trkpt>
      <trkpt lat="47.11654" lon="0.01212">
        <ele>44.13</ele>
        <time>2023-06-11T17:21:46.589Z</time>
      </trkpt>
      <trkpt lat="47.1166" lon="0.01244">
        <ele>44.24</ele>
        <time>2023-06-11T17:22:22.718Z</time>
      </trkpt>
      <trkpt lat="47.11662" lon="0.01252">
        <ele>44.28</ele>
        <time>2023-06-11T17:22:58.848Z</time>
      </trkpt>
      <trkpt lat="47.11665" lon="0.01276">
        <ele>44.41</ele>
        <time>2023-06-11T17:23:34.980Z</time>
      </trkpt>
      <trkpt lat="47.11672" lon="0.01327">
        <ele>44.54</ele>
        <time>2023-06-11T17:24:11.118Z</time>
      </trkpt>
      <trkpt lat="47.11674" lon="0.0134">
        <ele>44.54</ele>
        <time>2023-06-11T17:24:47.258Z</time>
      </trkpt>
      <trkpt lat="47.11676" lon="0.01353">
        <ele>44.5</ele>
        <time>2023-06-11T17:25:23.399Z</time>
      </trkpt>
      <trkpt lat="47.11678" lon="0.01365">
        <ele>44.26</ele>
        <time>2023-06-11T17:25:59.541Z</time>
      </trkpt>
      <trkpt lat="47.1168" lon="0.01385">
        <ele>43.84</ele>
        <time>2023-06-11T17:26:35.686Z</time>
      </trkpt>
      <trkpt lat="47.11681" lon="0.01391">
        <ele>43.73</ele>
        <time>2023-06-11T17:27:11.831Z</time>
      </trkpt>
      <trkpt lat="47.11683" lon="0.01404">
        <ele>43.53</ele>
        <time>2023-06-11T17:27:47.978Z</time>
      </trkpt>
      <trkpt lat="47.11679" lon="0.01401">
        <ele>43.44</ele>
        <time>2023-06-11T17:28:24.125Z</time>
      </trkpt>
      <trkpt lat="47.11627" lon="0.01362">
        <ele>41.86</ele>
        <time>2023-06-11T17:29:00.282Z</time>
      </trkpt>
      <trkpt lat="47.1162" lon="0.01357">
        <ele>41.65</ele>
        <time>2023-06-11T17:29:36.440Z</time>
      </trkpt>
      <trkpt lat="47.11616" lon="0.01354">
        <ele>41.56</ele>
        <time>2023-06-11T17:30:12.599Z</time>
      </trkpt>
      <trkpt lat="47.11612" lon="0.01351">
        <ele>41.5</ele>
        <time>2023-06-11T17:30:48.758Z</time>
      </trkpt>
      <trkpt lat="47.11608" lon="0.01348">
        <ele>41.45</ele>
        <time>2023-06-11T17:31:24.918Z</time>
      </trkpt>
      <trkpt lat="47.11596" lon="0.01339">
        <ele>41.37</ele>
        <time>2023-06-11T17:32:01.080Z</time>
      </trkpt>
      <trkpt lat="47.11584" lon="0.0133">
        <ele>41.22</ele>
        <time>2023-06-11T17:32:37.244Z</time>
      </trkpt>
      <trkpt lat="47.11568" lon="0.01318">
        <ele>41.06</ele>
        <time>2023-06-11T17:33:13.411Z</time>
      </trkpt>
      <trkpt lat="47.11544" lon="0.01299">
        <ele>40.84</ele>
        <time>2023-06-11T17:33:49.583Z</time>
      </trkpt>
      <trkpt lat="47.11529" lon="0.01287">
        <ele>40.58</ele>
        <time>2023-06-11T17:34:25.757Z</time>
      </trkpt>
      <trkpt lat="47.11524" lon="0.01283">
        <ele>40.47</ele>
        <time>2023-06-11T17:35:01.932Z</time>
      </trkpt>
      <trkpt lat="47.11521" lon="0.0128">
        <ele>40.41</ele>
        <time>2023-06-11T17:35:38.108Z</time>
      </trkpt>
      <trkpt lat="47.11514" lon="0.01273">
        <ele>40.19</ele>
        <time>2023-06-11T17:36:14.285Z</time>
      </trkpt>
      <trkpt lat="47.1151" lon="0.01269">
        <ele>40.1</ele>
        <time>2023-06-11T17:36:50.463Z</time>
      </trkpt>
      <trkpt lat="47.11502" lon="0.01262">
        <ele>40.01</ele>
        <time>2023-06-11T17:37:26.642Z</time>
      </trkpt>
      <trkpt lat="47.11491" lon="0.01252">
        <ele>39.96</ele>
        <time>2023-06-11T17:38:02.824Z</time>
      </trkpt>
      <trkpt lat="47.1148" lon="0.01241">
        <ele>39.87</ele>
        <time>2023-06-11T17:38:39.008Z</time>
      </trkpt>
      <trkpt lat="47.11469" lon="0.0123">
        <ele>39.82</ele>
        <time>2023-06-11T17:39:15.194Z</time>
      </trkpt>
      <trkpt lat="47.11458" lon="0.01219">
        <ele>39.84</ele>
        <time>2023-06-11T17:39:51.382Z</time>
      </trkpt>
      <trkpt lat="47.11454" lon="0.01216">
        <ele>39.87</ele>
        <time>2023-06-11T17:40:27.571Z</time>
      </trkpt>
      <trkpt lat="47.11443" lon="0.01205">
        <ele>40.02</ele>
        <time>2023-06-11T17:41:03.762Z</time>
      </trkpt>
      <trkpt lat="47.11439" lon="0.01202">
        <ele>40.02</ele>
        <time>2023-06-11T17:41:39.954Z</time>
      </trkpt>
      <trkpt lat="47.11435" lon="0.01198">
        <ele>39.99</ele>
        <time>2023-06-11T17:42:16.146Z</time>
      </trkpt>
      <trkpt lat="47.1143" lon="0.01193">
        <ele>39.89</ele>
        <time>2023-06-11T17:42:52.339Z</time>
      </trkpt>
      <trkpt lat="47.11422" lon="0.01181">
        <ele>39.72</ele>
        <time>2023-06-11T17:43:28.534Z</time>
      </trkpt>
      <trkpt lat="47.11403" lon="0.01153">
        <ele>39.54</ele>
        <time>2023-06-11T17:44:04.733Z</time>
      </trkpt>
      <trkpt lat="47.11381" lon="0.01121">
        <ele>39.19</ele>
        <time>2023-06-11T17:44:40.937Z</time>
      </trkpt>
      <trkpt lat="47.11368" lon="0.01103">
        <ele>38.93</ele>
        <time>2023-06-11T17:45:17.144Z</time>
      </trkpt>
      <trkpt lat="47.11365" lon="0.01098">
        <ele>38.88</ele>
        <time>2023-06-11T17:45:53.352Z</time>
      </trkpt>
      <trkpt lat="47.11355" lon="0.01084">
        <ele>38.8</ele>
        <time>2023-06-11T17:46:29.562Z</time>
      </trkpt>
      <trkpt lat="47.11347" lon="0.01072">
        <ele>38.8</ele>
        <time>2023-06-11T17:47:05.774Z</time>
      </trkpt>
      <trkpt lat="47.11339" lon="0.01062">
        <ele>38.8</ele>
        <time>2023-06-11T17:47:41.988Z</time>
      </trkpt>
      <trkpt lat="47.11313" lon="0.01027">
        <ele>38.86</ele>
        <time>2023-06-11T17:48:18.207Z</time>
      </trkpt>
      <trkpt lat="47.11233" lon="0.01194">
        <ele>39.11</ele>
        <time>2023-06-11T17:48:54.449Z</time>
      </trkpt>
      <trkpt lat="47.11126" lon="0.01418">
        <ele>39.07</ele>
        <time>2023-06-11T17:49:30.721Z</time>
      </trkpt>
      <trkpt lat="47.11106" lon="0.01461">
        <ele>38.94</ele>
        <time>2023-06-11T17:50:06.998Z</time>
      </trkpt>
      <trkpt lat="47.10884" lon="0.01206">
        <ele>37.94</ele>
        <time>2023-06-11T17:50:43.320Z</time>
      </trkpt>
      <trkpt lat="47.10743" lon="0.01042">
        <ele>37.3</ele>
        <time>2023-06-11T17:51:19.671Z</time>
      </trkpt>
      <trkpt lat="47.10717" lon="0.01012">
        <ele>37.34</ele>
        <time>2023-06-11T17:51:56.028Z</time>
      </trkpt>
      <trkpt lat="47.10715" lon="0.01009">
        <ele>37.33</ele>
        <time>2023-06-11T17:52:32.385Z</time>
      </trkpt>
      <trkpt lat="47.1071" lon="0.01021">
        <ele>37.32</ele>
        <time>2023-06-11T17:53:08.744Z</time>
      </trkpt>
      <trkpt lat="47.10703" lon="0.01038">
        <ele>37.37</ele>
        <time>2023-06-11T17:53:45.105Z</time>
      </trkpt>
      <trkpt lat="47.10693" lon="0.0106">
        <ele>37.53</ele>
        <time>2023-06-11T17:54:21.469Z</time>
      </trkpt>
      <trkpt lat="47.10691" lon="0.01065">
        <ele>37.55</ele>
        <time>2023-06-11T17:54:57.833Z</time>
      </trkpt>
      <trkpt lat="47.10689" lon="0.01071">
        <ele>37.59</ele>
        <time>2023-06-11T17:55:34.198Z</time>
      </trkpt>
      <trkpt lat="47.10679" lon="0.01101">
        <ele>37.63</ele>
        <time>2023-06-11T17:56:10.567Z</time>
      </trkpt>
      <trkpt lat="47.1067" lon="0.01131">
        <ele>37.76</ele>
        <time>2023-06-11T17:56:46.939Z</time>
      </trkpt>
      <trkpt lat="47.1067" lon="0.01131">
        <ele>37.76</ele>
        <time>2023-06-11T17:57:23.311Z</time>
      </trkpt>
      <trkpt lat="47.10661" lon="0.01161">
        <ele>37.79</ele>
        <time>2023-06-11T17:57:59.687Z</time>
      </trkpt>
      <trkpt lat="47.10653" lon="0.01191">
        <ele>37.87</ele>
        <time>2023-06-11T17:58:36.066Z</time>
      </trkpt>
      <trkpt lat="47.10649" lon="0.01204">
        <ele>37.93</ele>
        <time>2023-06-11T17:59:12.447Z</time>
      </trkpt>
      <trkpt lat="47.10644" lon="0.01222">
        <ele>38.06</ele>
        <time>2023-06-11T17:59:48.830Z</time>
      </trkpt>
      <trkpt lat="47.1064" lon="0.01234">
        <ele>38.11</ele>
        <time>2023-06-11T18:00:25.214Z</time>
      </trkpt>
      <trkpt lat="47.10639" lon="0.0124">
        <ele>38.12</ele>
        <time>2023-06-11T18:01:01.599Z</time>
      </trkpt>
      <trkpt lat="47.10633" lon="0.01258">
        <ele>38.09</ele>
        <time>2023-06-11T18:01:37.986Z</time>
      </trkpt>
      <trkpt lat="47.1063" lon="0.0127">
        <ele>38.12</ele>
        <time>2023-06-11T18:02:14.375Z</time>
      </trkpt>
      <trkpt lat="47.10619" lon="0.01307">
        <ele>38.39</ele>
        <time>2023-06-11T18:02:50.768Z</time>
      </trkpt>
      <trkpt lat="47.10616" lon="0.01319">
        <ele>38.51</ele>
        <time>2023-06-11T18:03:27.162Z</time>
      </trkpt>
      <trkpt lat="47.10609" lon="0.01343">
        <ele>38.81</ele>
        <time>2023-06-11T18:04:03.559Z</time>
      </trkpt>
      <trkpt lat="47.10604" lon="0.01361">
        <ele>38.99</ele>
        <time>2023-06-11T18:04:39.958Z</time>
      </trkpt>
      <trkpt lat="47.106" lon="0.01373">
        <ele>39.08</ele>
        <time>2023-06-11T18:05:16.359Z</time>
      </trkpt>
      <trkpt lat="47.10597" lon="0.01385">
        <ele>39.15</ele>
        <time>2023-06-11T18:05:52.761Z</time>
      </trkpt>
      <trkpt lat="47.10595" lon="0.01391">
        <ele>39.15</ele>
        <time>2023-06-11T18:06:29.164Z</time>
      </trkpt>
      <trkpt lat="47.10593" lon="0.01397">
        <ele>39.13</ele>
        <time>2023-06-11T18:07:05.568Z</time>
      </trkpt>
      <trkpt lat="47.10591" lon="0.01403">
        <ele>39.08</ele>
        <time>2023-06-11T18:07:41.973Z</time>
      </trkpt>
      <trkpt lat="47.10588" lon="0.01415">
        <ele>38.88</ele>
        <time>2023-06-11T18:08:18.379Z</time>
      </trkpt>
      <trkpt lat="47.10588" lon="0.01416">
        <ele>38.88</ele>
        <time>2023-06-11T18:08:54.785Z</time>
      </trkpt>
      <trkpt lat="47.10585" lon="0.01428">
        <ele>38.61</ele>
        <time>2023-06-11T18:09:31.192Z</time>
      </trkpt>
      <trkpt lat="47.10584" lon="0.01434">
        <ele>38.5</ele>
        <time>2023-06-11T18:10:07.600Z</time>
      </trkpt>
      <trkpt lat="47.10583" lon="0.01441">
        <ele>38.43</ele>
        <time>2023-06-11T18:10:44.009Z</time>
      </trkpt>
      <trkpt lat="47.1058" lon="0.01453">
        <ele>38.36</ele>
        <time>2023-06-11T18:11:20.419Z</time>
      </trkpt>
      <trkpt lat="47.10573" lon="0.01484">
        <ele>38.29</ele>
        <time>2023-06-11T18:11:56.833Z</time>
      </trkpt>
      <trkpt lat="47.1057" lon="0.01497">
        <ele>38.29</ele>
        <time>2023-06-11T18:12:33.248Z</time>
      </trkpt>
      <trkpt lat="47.10565" lon="0.01522">
        <ele>38.38</ele>
        <time>2023-06-11T18:13:09.666Z</time>
      </trkpt>
      <trkpt lat="47.10564" lon="0.01527">
        <ele>38.39</ele>
        <time>2023-06-11T18:13:46.085Z</time>
      </trkpt>
      <trkpt lat="47.10563" lon="0.01535">
        <ele>38.41</ele>
        <time>2023-06-11T18:14:22.505Z</time>
      </trkpt>
      <trkpt lat="47.10559" lon="0.01574">
        <ele>38.4</ele>
        <time>2023-06-11T18:14:58.929Z</time>
      </trkpt>
      <trkpt lat="47.10557" lon="0.01587">
        <ele>38.43</ele>
        <time>2023-06-11T18:15:35.354Z</time>
      </trkpt>
      <trkpt lat="47.10555" lon="0.01606">
        <ele>38.55</ele>
        <time>2023-06-11T18:16:11.781Z</time>
      </trkpt>
      <trkpt lat="47.10552" lon="0.01632">
        <ele>38.81</ele>
        <time>2023-06-11T18:16:48.211Z</time>
      </trkpt>
      <trkpt lat="47.1055" lon="0.01651">
        <ele>38.94</ele>
        <time>2023-06-11T18:17:24.643Z</time>
      </trkpt>
      <trkpt lat="47.1055" lon="0.01652">
        <ele>38.94</ele>
        <time>2023-06-11T18:18:01.076Z</time>
      </trkpt>
      <trkpt lat="47.10541" lon="0.01676">
        <ele>38.89</ele>
        <time>2023-06-11T18:18:37.512Z</time>
      </trkpt>
      <trkpt lat="47.10539" lon="0.01679">
        <ele>38.89</ele>
        <time>2023-06-11T18:19:13.948Z</time>
      </trkpt>
      <trkpt lat="47.10488" lon="0.0176">
        <ele>38.44</ele>
        <time>2023-06-11T18:19:50.396Z</time>
      </trkpt>
      <trkpt lat="47.10485" lon="0.01765">
        <ele>38.4</ele>
        <time>2023-06-11T18:20:26.845Z</time>
      </trkpt>
      <trkpt lat="47.10468" lon="0.01796">
        <ele>38.21</ele>
        <time>2023-06-11T18:21:03.298Z</time>
      </trkpt>
      <trkpt lat="47.10459" lon="0.01811">
        <ele>38.13</ele>
        <time>2023-06-11T18:21:39.753Z</time>
      </trkpt>
      <trkpt lat="47.10425" lon="0.01873">
        <ele>38.01</ele>
        <time>2023-06-11T18:22:16.217Z</time>
      </trkpt>
      <trkpt lat="47.10397" lon="0.01924">
        <ele>37.77</ele>
        <time>2023-06-11T18:22:52.688Z</time>
      </trkpt>
      <trkpt lat="47.10388" lon="0.0194">
        <ele>37.72</ele>
        <time>2023-06-11T18:23:29.161Z</time>
      </trkpt>
      <trkpt lat="47.10377" lon="0.0196">
        <ele>37.7</ele>
        <time>2023-06-11T18:24:05.637Z</time>
      </trkpt>
      <trkpt lat="47.10377" lon="0.0196">
        <ele>37.7</ele>
        <time>2023-06-11T18:24:42.113Z</time>
      </trkpt>
      <trkpt lat="47.10369" lon="0.01976">
        <ele>37.71</ele>
        <time>2023-06-11T18:25:18.591Z</time>
      </trkpt>
      <trkpt lat="47.10355" lon="0.02002">
        <ele>37.81</ele>
        <time>2023-06-11T18:25:55.073Z</time>
      </trkpt>
      <trkpt lat="47.10349" lon="0.02012">
        <ele>37.83</ele>
        <time>2023-06-11T18:26:31.556Z</time>
      </trkpt>
      <trkpt lat="47.10341" lon="0.02028">
        <ele>37.81</ele>
        <time>2023-06-11T18:27:08.042Z</time>
      </trkpt>
      <trkpt lat="47.10327" lon="0.02054">
        <ele>37.71</ele>
        <time>2023-06-11T18:27:44.531Z</time>
      </trkpt>
      <trkpt lat="47.10305" lon="0.02095">
        <ele>37.77</ele>
        <time>2023-06-11T18:28:21.026Z</time>
      </trkpt>
      <trkpt lat="47.10291" lon="0.02121">
        <ele>37.85</ele>
        <time>2023-06-11T18:28:57.525Z</time>
      </trkpt>
      <trkpt lat="47.10283" lon="0.02137">
        <ele>37.79</ele>
        <time>2023-06-11T18:29:34.026Z</time>
      </trkpt>
      <trkpt lat="47.10283" lon="0.02137">
        <ele>37.79</ele>
        <time>2023-06-11T18:30:10.527Z</time>
      </trkpt>
      <trkpt lat="47.10274" lon="0.02159">
        <ele>37.75</ele>
        <time>2023-06-11T18:30:47.031Z</time>
      </trkpt>
      <trkpt lat="47.1027" lon="0.02174">
        <ele>37.74</ele>
        <time>2023-06-11T18:31:23.536Z</time>
      </trkpt>
      <trkpt lat="47.10268" lon="0.02184">
        <ele>37.7</ele>
        <time>2023-06-11T18:32:00.042Z</time>
      </trkpt>
      <trkpt lat="47.10269" lon="0.02193">
        <ele>37.67</ele>
        <time>2023-06-11T18:32:36.549Z</time>
      </trkpt>
      <trkpt lat="47.10261" lon="0.02189">
        <ele>37.63</ele>
        <time>2023-06-11T18:33:13.058Z</time>
      </trkpt>
      <trkpt lat="47.10261" lon="0.02189">
        <ele>37.63</ele>
        <time>2023-06-11T18:33:49.567Z</time>
      </trkpt>
      <trkpt lat="47.10251" lon="0.02179">
        <ele>37.6</ele>
        <time>2023-06-11T18:34:26.078Z</time>
      </trkpt>
      <trkpt lat="47.10244" lon="0.02169">
        <ele>37.58</ele>
        <time>2023-06-11T18:35:02.590Z</time>
      </trkpt>
      <trkpt lat="47.10231" lon="0.02152">
        <ele>37.42</ele>
        <time>2023-06-11T18:35:39.105Z</time>
      </trkpt>
      <trkpt lat="47.10224" lon="0.02143">
        <ele>37.36</ele>
        <time>2023-06-11T18:36:15.622Z</time>
      </trkpt>
      <trkpt lat="47.10218" lon="0.02135">
        <ele>37.34</ele>
        <time>2023-06-11T18:36:52.140Z</time>
      </trkpt>
      <trkpt lat="47.1021" lon="0.02124">
        <ele>37.33</ele>
        <time>2023-06-11T18:37:28.660Z</time>
      </trkpt>
      <trkpt lat="47.10204" lon="0.02118">
        <ele>37.33</ele>
        <time>2023-06-11T18:38:05.181Z</time>
      </trkpt>
      <trkpt lat="47.10201" lon="0.02114">
        <ele>37.31</ele>
        <time>2023-06-11T18:38:41.702Z</time>
      </trkpt>
      <trkpt lat="47.1019" lon="0.02103">
        <ele>37.19</ele>
        <time>2023-06-11T18:39:18.226Z</time>
      </trkpt>
      <trkpt lat="47.10173" lon="0.02084">
        <ele>36.89</ele>
        <time>2023-06-11T18:39:54.753Z</time>
      </trkpt>
      <trkpt lat="47.10168" lon="0.02079">
        <ele>36.89</ele>
        <time>2023-06-11T18:40:31.281Z</time>
      </trkpt>
      <trkpt lat="47.10161" lon="0.02071">
        <ele>36.98</ele>
        <time>2023-06-11T18:41:07.810Z</time>
      </trkpt>
      <trkpt lat="47.10154" lon="0.02064">
        <ele>37.04</ele>
        <time>2023-06-11T18:41:44.341Z</time>
      </trkpt>
      <trkpt lat="47.10145" lon="0.02054">
        <ele>37.09</ele>
        <time>2023-06-11T18:42:20.874Z</time>
      </trkpt>
      <trkpt lat="47.10134" lon="0.0204">
        <ele>37.16</ele>
        <time>2023-06-11T18:42:57.409Z</time>
      </trkpt>
      <trkpt lat="47.10127" lon="0.02031">
        <ele>37.23</ele>
        <time>2023-06-11T18:43:33.945Z</time>
      </trkpt>
      <trkpt lat="47.10121" lon="0.02023">
        <ele>37.35</ele>
        <time>2023-06-11T18:44:10.483Z</time>
      </trkpt>
      <trkpt lat="47.10114" lon="0.02014">
        <ele>37.51</ele>
        <time>2023-06-11T18:44:47.022Z</time>
      </trkpt>
      <trkpt lat="47.10107" lon="0.02006">
        <ele>37.7</ele>
        <time>2023-06-11T18:45:23.563Z</time>
      </trkpt>
      <trkpt lat="47.10101" lon="0.01998">
        <ele>37.94</ele>
        <time>2023-06-11T18:46:00.105Z</time>
      </trkpt>
      <trkpt lat="47.10084" lon="0.01977">
        <ele>38.73</ele>
        <time>2023-06-11T18:46:36.650Z</time>
      </trkpt>
      <trkpt lat="47.10071" lon="0.0196">
        <ele>39.32</ele>
        <time>2023-06-11T18:47:13.198Z</time>
      </trkpt>
      <trkpt lat="47.10068" lon="0.01955">
        <ele>39.47</ele>
        <time>2023-06-11T18:47:49.747Z</time>
      </trkpt>
      <trkpt lat="47.10062" lon="0.01946">
        <ele>39.5</ele>
        <time>2023-06-11T18:48:26.297Z</time>
      </trkpt>
      <trkpt lat="47.10055" lon="0.01936">
        <ele>39.55</ele>
        <time>2023-06-11T18:49:02.849Z</time>
      </trkpt>
      <trkpt lat="47.10044" lon="0.01927">
        <ele>39.62</ele>
        <time>2023-06-11T18:49:39.403Z</time>
      </trkpt>
      <trkpt lat="47.10041" lon="0.01925">
        <ele>39.62</ele>
        <time>2023-06-11T18:50:15.957Z</time>
      </trkpt>
      <trkpt lat="47.1004" lon="0.01929">
        <ele>39.63</ele>
        <time>2023-06-11T18:50:52.512Z</time>
      </trkpt>
      <trkpt lat="47.10035" lon="0.01937">
        <ele>39.65</ele>
        <time>2023-06-11T18:51:29.068Z</time>
      </trkpt>
      <trkpt lat="47.1001" lon="0.01975">
        <ele>39.68</ele>
        <time>2023-06-11T18:52:05.630Z</time>
      </trkpt>
      <trkpt lat="47.09998" lon="0.01994">
        <ele>39.63</ele>
        <time>2023-06-11T18:52:42.195Z</time>
      </trkpt>
      <trkpt lat="47.09989" lon="0.02009">
        <ele>39.63</ele>
        <time>2023-06-11T18:53:18.762Z</time>
      </trkpt>
      <trkpt lat="47.09977" lon="0.02028">
        <ele>39.67</ele>
        <time>2023-06-11T18:53:55.332Z</time>
      </trkpt>
      <trkpt lat="47.09958" lon="0.02057">
        <ele>39.79</ele>
        <time>2023-06-11T18:54:31.906Z</time>
      </trkpt>
      <trkpt lat="47.09934" lon="0.02095">
        <ele>39.77</ele>
        <time>2023-06-11T18:55:08.486Z</time>
      </trkpt>
      <trkpt lat="47.0993" lon="0.021">
        <ele>39.79</ele>
        <time>2023-06-11T18:55:45.067Z</time>
      </trkpt>
      <trkpt lat="47.09921" lon="0.02114">
        <ele>39.89</ele>
        <time>2023-06-11T18:56:21.650Z</time>
      </trkpt>
      <trkpt lat="47.09915" lon="0.02124">
        <ele>39.92</ele>
        <time>2023-06-11T18:56:58.234Z</time>
      </trkpt>
      <trkpt lat="47.09909" lon="0.02133">
        <ele>39.91</ele>
        <time>2023-06-11T18:57:34.820Z</time>
      </trkpt>
      <trkpt lat="47.09881" lon="0.02176">
        <ele>39.8</ele>
        <time>2023-06-11T18:58:11.412Z</time>
      </trkpt>
      <trkpt lat="47.09875" lon="0.02186">
        <ele>39.8</ele>
        <time>2023-06-11T18:58:48.005Z</time>
      </trkpt>
      <trkpt lat="47.09872" lon="0.02191">
        <ele>39.83</ele>
        <time>2023-06-11T18:59:24.599Z</time>
      </trkpt>
      <trkpt lat="47.09863" lon="0.02205">
        <ele>39.98</ele>
        <time>2023-06-11T19:00:01.195Z</time>
      </trkpt>
      <trkpt lat="47.09861" lon="0.02208">
        <ele>39.99</ele>
        <time>2023-06-11T19:00:37.792Z</time>
      </trkpt>
      <trkpt lat="47.09851" lon="0.0221">
        <ele>40.06</ele>
        <time>2023-06-11T19:01:14.390Z</time>
      </trkpt>
      <trkpt lat="47.09846" lon="0.02208">
        <ele>40.1</ele>
        <time>2023-06-11T19:01:50.989Z</time>
      </trkpt>
      <trkpt lat="47.09833" lon="0.02202">
        <ele>40.07</ele>
        <time>2023-06-11T19:02:27.590Z</time>
      </trkpt>
      <trkpt lat="47.09824" lon="0.02198">
        <ele>40</ele>
        <time>2023-06-11T19:03:04.193Z</time>
      </trkpt>
      <trkpt lat="47.09807" lon="0.02208">
        <ele>39.89</ele>
        <time>2023-06-11T19:03:40.799Z</time>
      </trkpt>
      <trkpt lat="47.09805" lon="0.02212">
        <ele>39.87</ele>
        <time>2023-06-11T19:04:17.405Z</time>
      </trkpt>
      <trkpt lat="47.09802" lon="0.02217">
        <ele>39.87</ele>
        <time>2023-06-11T19:04:54.012Z</time>
      </trkpt>
      <trkpt lat="47.09791" lon="0.02238">
        <ele>39.93</ele>
        <time>2023-06-11T19:05:30.622Z</time>
      </trkpt>
      <trkpt lat="47.09781" lon="0.02259">
        <ele>39.88</ele>
        <time>2023-06-11T19:06:07.235Z</time>
      </trkpt>
      <trkpt lat="47.09767" lon="0.02285">
        <ele>39.85</ele>
        <time>2023-06-11T19:06:43.851Z</time>
      </trkpt>
      <trkpt lat="47.09762" lon="0.02296">
        <ele>39.77</ele>
        <time>2023-06-11T19:07:20.469Z</time>
      </trkpt>
      <trkpt lat="47.09751" lon="0.02317">
        <ele>39.55</ele>
        <time>2023-06-11T19:07:57.090Z</time>
      </trkpt>
      <trkpt lat="47.09746" lon="0.02327">
        <ele>39.51</ele>
        <time>2023-06-11T19:08:33.712Z</time>
      </trkpt>
      <trkpt lat="47.09737" lon="0.02343">
        <ele>39.54</ele>
        <time>2023-06-11T19:09:10.336Z</time>
      </trkpt>
      <trkpt lat="47.09729" lon="0.02359">
        <ele>39.54</ele>
        <time>2023-06-11T19:09:46.962Z</time>
      </trkpt>
      <trkpt lat="47.09723" lon="0.02371">
        <ele>39.61</ele>
        <time>2023-06-11T19:10:23.590Z</time>
      </trkpt>
      <trkpt lat="47.09718" lon="0.02378">
        <ele>39.66</ele>
        <time>2023-06-11T19:11:00.219Z</time>
      </trkpt>
      <trkpt lat="47.09714" lon="0.02383">
        <ele>39.67</ele>
        <time>2023-06-11T19:11:36.849Z</time>
      </trkpt>
      <trkpt lat="47.09708" lon="0.02392">
        <ele>39.65</ele>
        <time>2023-06-11T19:12:13.480Z</time>
      </trkpt>
      <trkpt lat="47.097" lon="0.02397">
        <ele>39.64</ele>
        <time>2023-06-11T19:12:50.113Z</time>
      </trkpt>
      <trkpt lat="47.09686" lon="0.02405">
        <ele>39.71</ele>
        <time>2023-06-11T19:13:26.748Z</time>
      </trkpt>
      <trkpt lat="47.0967" lon="0.02434">
        <ele>39.84</ele>
        <time>2023-06-11T19:14:03.387Z</time>
      </trkpt>
      <trkpt lat="47.09656" lon="0.0246">
        <ele>40</ele>
        <time>2023-06-11T19:14:40.030Z</time>
      </trkpt>
      <trkpt lat="47.09642" lon="0.02486">
        <ele>39.96</ele>
        <time>2023-06-11T19:15:16.677Z</time>
      </trkpt>
      <trkpt lat="47.09634" lon="0.02501">
        <ele>39.97</ele>
        <time>2023-06-11T19:15:53.326Z</time>
      </trkpt>
      <trkpt lat="47.09628" lon="0.02512">
        <ele>40.02</ele>
        <time>2023-06-11T19:16:29.976Z</time>
      </trkpt>
      <trkpt lat="47.09618" lon="0.0253">
        <ele>40.16</ele>
        <time>2023-06-11T19:17:06.629Z</time>
      </trkpt>
      <trkpt lat="47.09616" lon="0.02529">
        <ele>40.18</ele>
        <time>2023-06-11T19:17:43.282Z</time>
      </trkpt>
      <trkpt lat="47.09601" lon="0.02523">
        <ele>40.21</ele>
        <time>2023-06-11T19:18:19.938Z</time>
      </trkpt>
      <trkpt lat="47.09595" lon="0.02519">
        <ele>40.23</ele>
        <time>2023-06-11T19:18:56.595Z</time>
      </trkpt>
      <trkpt lat="47.09591" lon="0.02516">
        <ele>40.26</ele>
        <time>2023-06-11T19:19:33.252Z</time>
      </trkpt>
      <trkpt lat="47.09579" lon="0.02507">
        <ele>40.4</ele>
        <time>2023-06-11T19:20:09.911Z</time>
      </trkpt>
      <trkpt lat="47.09535" lon="0.02474">
        <ele>41.02</ele>
        <time>2023-06-11T19:20:46.578Z</time>
      </trkpt>
      <trkpt lat="47.09523" lon="0.02466">
        <ele>41.14</ele>
        <time>2023-06-11T19:21:23.248Z</time>
      </trkpt>
      <trkpt lat="47.09507" lon="0.02454">
        <ele>41.24</ele>
        <time>2023-06-11T19:21:59.920Z</time>
      </trkpt>
      <trkpt lat="47.09499" lon="0.02448">
        <ele>41.32</ele>
        <time>2023-06-11T19:22:36.594Z</time>
      </trkpt>
      <trkpt lat="47.09491" lon="0.02442">
        <ele>41.45</ele>
        <time>2023-06-11T19:23:13.269Z</time>
      </trkpt>
      <trkpt lat="47.09483" lon="0.02436">
        <ele>41.64</ele>
        <time>2023-06-11T19:23:49.946Z</time>
      </trkpt>
      <trkpt lat="47.09453" lon="0.02414">
        <ele>40.78</ele>
        <time>2023-06-11T19:24:26.628Z</time>
      </trkpt>
      <trkpt lat="47.09452" lon="0.02417">
        <ele>40.73</ele>
        <time>2023-06-11T19:25:03.310Z</time>
      </trkpt>
      <trkpt lat="47.09449" lon="0.0243">
        <ele>40.55</ele>
        <time>2023-06-11T19:25:39.994Z</time>
      </trkpt>
      <trkpt lat="47.09438" lon="0.02473">
        <ele>40.01</ele>
        <time>2023-06-11T19:26:16.683Z</time>
      </trkpt>
      <trkpt lat="47.09425" lon="0.02522">
        <ele>39.55</ele>
        <time>2023-06-11T19:26:53.378Z</time>
      </trkpt>
      <trkpt lat="47.09416" lon="0.02559">
        <ele>39.15</ele>
        <time>2023-06-11T19:27:30.077Z</time>
      </trkpt>
      <trkpt lat="47.09399" lon="0.02628">
        <ele>38.59</ele>
        <time>2023-06-11T19:28:06.784Z</time>
      </trkpt>
      <trkpt lat="47.09388" lon="0.02671">
        <ele>38.21</ele>
        <time>2023-06-11T19:28:43.496Z</time>
      </trkpt>
      <trkpt lat="47.09374" lon="0.02727">
        <ele>37.64</ele>
        <time>2023-06-11T19:29:20.215Z</time>
      </trkpt>
      <trkpt lat="47.09369" lon="0.02745">
        <ele>37.5</ele>
        <time>2023-06-11T19:29:56.936Z</time>
      </trkpt>
      <trkpt lat="47.09356" lon="0.02795">
        <ele>37.18</ele>
        <time>2023-06-11T19:30:33.662Z</time>
      </trkpt>
      <trkpt lat="47.09352" lon="0.02813">
        <ele>37.04</ele>
        <time>2023-06-11T19:31:10.391Z</time>
      </trkpt>
      <trkpt lat="47.09349" lon="0.02822">
        <ele>37.05</ele>
        <time>2023-06-11T19:31:47.121Z</time>
      </trkpt>
      <trkpt lat="47.09346" lon="0.02834">
        <ele>37.23</ele>
        <time>2023-06-11T19:32:23.852Z</time>
      </trkpt>
      <trkpt lat="47.09345" lon="0.0284">
        <ele>37.3</ele>
        <time>2023-06-11T19:33:00.584Z</time>
      </trkpt>
      <trkpt lat="47.09343" lon="0.02847">
        <ele>37.35</ele>
        <time>2023-06-11T19:33:37.317Z</time>
      </trkpt>
      <trkpt lat="47.09337" lon="0.02871">
        <ele>37.48</ele>
        <time>2023-06-11T19:34:14.052Z</time>
      </trkpt>
      <trkpt lat="47.09327" lon="0.02908">
        <ele>37.8</ele>
        <time>2023-06-11T19:34:50.792Z</time>
      </trkpt>
      <trkpt lat="47.09321" lon="0.02933">
        <ele>37.98</ele>
        <time>2023-06-11T19:35:27.535Z</time>
      </trkpt>
      <trkpt lat="47.09313" lon="0.02964">
        <ele>38.27</ele>
        <time>2023-06-11T19:36:04.281Z</time>
      </trkpt>
      <trkpt lat="47.09305" lon="0.02994">
        <ele>38.45</ele>
        <time>2023-06-11T19:36:41.031Z</time>
      </trkpt>
      <trkpt lat="47.09304" lon="0.03">
        <ele>38.51</ele>
        <time>2023-06-11T19:37:17.781Z</time>
      </trkpt>
      <trkpt lat="47.09301" lon="0.03013">
        <ele>38.67</ele>
        <time>2023-06-11T19:37:54.533Z</time>
      </trkpt>
      <trkpt lat="47.09296" lon="0.03031">
        <ele>38.95</ele>
        <time>2023-06-11T19:38:31.287Z</time>
      </trkpt>
      <trkpt lat="47.0929" lon="0.03056">
        <ele>39.29</ele>
        <time>2023-06-11T19:39:08.044Z</time>
      </trkpt>
      <trkpt lat="47.09287" lon="0.03068">
        <ele>39.49</ele>
        <time>2023-06-11T19:39:44.802Z</time>
      </trkpt>
      <trkpt lat="47.09282" lon="0.03085">
        <ele>39.55</ele>
        <time>2023-06-11T19:40:21.562Z</time>
      </trkpt>
      <trkpt lat="47.09279" lon="0.03097">
        <ele>39.62</ele>
        <time>2023-06-11T19:40:58.324Z</time>
      </trkpt>
      <trkpt lat="47.09275" lon="0.03114">
        <ele>39.75</ele>
        <time>2023-06-11T19:41:35.088Z</time>
      </trkpt>
      <trkpt lat="47.09251" lon="0.03099">
        <ele>40.03</ele>
        <time>2023-06-11T19:42:11.856Z</time>
      </trkpt>
      <trkpt lat="47.09222" lon="0.03081">
        <ele>40.26</ele>
        <time>2023-06-11T19:42:48.629Z</time>
      </trkpt>
      <trkpt lat="47.09218" lon="0.03078">
        <ele>40.28</ele>
        <time>2023-06-11T19:43:25.403Z</time>
      </trkpt>
      <trkpt lat="47.09191" lon="0.03062">
        <ele>40.26</ele>
        <time>2023-06-11T19:44:02.181Z</time>
      </trkpt>
      <trkpt lat="47.09189" lon="0.0306">
        <ele>40.26</ele>
        <time>2023-06-11T19:44:38.960Z</time>
      </trkpt>
      <trkpt lat="47.09177" lon="0.03052">
        <ele>40.28</ele>
        <time>2023-06-11T19:45:15.741Z</time>
      </trkpt>
      <trkpt lat="47.09165" lon="0.03043">
        <ele>40.34</ele>
        <time>2023-06-11T19:45:52.524Z</time>
      </trkpt>
      <trkpt lat="47.09149" lon="0.03032">
        <ele>40.45</ele>
        <time>2023-06-11T19:46:29.310Z</time>
      </trkpt>
      <trkpt lat="47.09125" lon="0.03015">
        <ele>40.52</ele>
        <time>2023-06-11T19:47:06.100Z</time>
      </trkpt>
      <trkpt lat="47.09109" lon="0.03003">
        <ele>40.6</ele>
        <time>2023-06-11T19:47:42.893Z</time>
      </trkpt>
      <trkpt lat="47.09101" lon="0.02997">
        <ele>40.66</ele>
        <time>2023-06-11T19:48:19.687Z</time>
      </trkpt>
      <trkpt lat="47.09081" lon="0.02983">
        <ele>40.87</ele>
        <time>2023-06-11T19:48:56.485Z</time>
      </trkpt>
      <trkpt lat="47.09044" lon="0.02957">
        <ele>41.18</ele>
        <time>2023-06-11T19:49:33.289Z</time>
      </trkpt>
      <trkpt lat="47.09032" lon="0.02949">
        <ele>41.3</ele>
        <time>2023-06-11T19:50:10.096Z</time>
      </trkpt>
      <trkpt lat="47.09008" lon="0.02932">
        <ele>41.59</ele>
        <time>2023-06-11T19:50:46.907Z</time>
      </trkpt>
      <trkpt lat="47.09" lon="0.02926">
        <ele>41.65</ele>
        <time>2023-06-11T19:51:23.719Z</time>
      </trkpt>
      <trkpt lat="47.08984" lon="0.02914">
        <ele>41.72</ele>
        <time>2023-06-11T19:52:00.534Z</time>
      </trkpt>
      <trkpt lat="47.08982" lon="0.02913">
        <ele>41.73</ele>
        <time>2023-06-11T19:52:37.350Z</time>
      </trkpt>
      <trkpt lat="47.08976" lon="0.02909">
        <ele>41.77</ele>
        <time>2023-06-11T19:53:14.167Z</time>
      </trkpt>
      <trkpt lat="47.08956" lon="0.02896">
        <ele>41.98</ele>
        <time>2023-06-11T19:53:50.987Z</time>
      </trkpt>
      <trkpt lat="47.08943" lon="0.02888">
        <ele>42.05</ele>
        <time>2023-06-11T19:54:27.809Z</time>
      </trkpt>
      <trkpt lat="47.0894" lon="0.02886">
        <ele>42.05</ele>
        <time>2023-06-11T19:55:04.632Z</time>
      </trkpt>
      <trkpt lat="47.08932" lon="0.02883">
        <ele>42.07</ele>
        <time>2023-06-11T19:55:41.456Z</time>
      </trkpt>
      <trkpt lat="47.08926" lon="0.02882">
        <ele>42.09</ele>
        <time>2023-06-11T19:56:18.281Z</time>
      </trkpt>
      <trkpt lat="47.08923" lon="0.02882">
        <ele>42.1</ele>
        <time>2023-06-11T19:56:55.107Z</time>
      </trkpt>
      <trkpt lat="47.08908" lon="0.02884">
        <ele>42.17</ele>
        <time>2023-06-11T19:57:31.935Z</time>
      </trkpt>
      <trkpt lat="47.08907" lon="0.02884">
        <ele>42.17</ele>
        <time>2023-06-11T19:58:08.763Z</time>
      </trkpt>
      <trkpt lat="47.08891" lon="0.02893">
        <ele>42.19</ele>
        <time>2023-06-11T19:58:45.594Z</time>
      </trkpt>
      <trkpt lat="47.08889" lon="0.02894">
        <ele>42.2</ele>
        <time>2023-06-11T19:59:22.425Z</time>
      </trkpt>
      <trkpt lat="47.08879" lon="0.029">
        <ele>42.26</ele>
        <time>2023-06-11T19:59:59.258Z</time>
      </trkpt>
      <trkpt lat="47.08863" lon="0.02911">
        <ele>42.44</ele>
        <time>2023-06-11T20:00:36.094Z</time>
      </trkpt>
      <trkpt lat="47.08822" lon="0.02937">
        <ele>43.03</ele>
        <time>2023-06-11T20:01:12.937Z</time>
      </trkpt>
      <trkpt lat="47.0881" lon="0.02945">
        <ele>43.16</ele>
        <time>2023-06-11T20:01:49.782Z</time>
      </trkpt>
      <trkpt lat="47.08797" lon="0.02953">
        <ele>43.2</ele>
        <time>2023-06-11T20:02:26.629Z</time>
      </trkpt>
      <trkpt lat="47.08773" lon="0.02969">
        <ele>43.17</ele>
        <time>2023-06-11T20:03:03.481Z</time>
      </trkpt>
      <trkpt lat="47.08765" lon="0.02974">
        <ele>43.18</ele>
        <time>2023-06-11T20:03:40.334Z</time>
      </trkpt>
      <trkpt lat="47.0874" lon="0.0299">
        <ele>43.29</ele>
        <time>2023-06-11T20:04:17.191Z</time>
      </trkpt>
      <trkpt lat="47.08728" lon="0.02998">
        <ele>43.4</ele>
        <time>2023-06-11T20:04:54.050Z</time>
      </trkpt>
      <trkpt lat="47.08697" lon="0.03018">
        <ele>43.63</ele>
        <time>2023-06-11T20:05:30.915Z</time>
      </trkpt>
      <trkpt lat="47.08682" lon="0.03025">
        <ele>43.74</ele>
        <time>2023-06-11T20:06:07.782Z</time>
      </trkpt>
      <trkpt lat="47.08666" lon="0.03032">
        <ele>43.89</ele>
        <time>2023-06-11T20:06:44.652Z</time>
      </trkpt>
      <trkpt lat="47.08663" lon="0.03035">
        <ele>43.93</ele>
        <time>2023-06-11T20:07:21.523Z</time>
      </trkpt>
      <trkpt lat="47.08643" lon="0.03051">
        <ele>44.03</ele>
        <time>2023-06-11T20:07:58.397Z</time>
      </trkpt>
      <trkpt lat="47.08633" lon="0.03059">
        <ele>44.1</ele>
        <time>2023-06-11T20:08:35.273Z</time>
      </trkpt>
      <trkpt lat="47.08623" lon="0.03065">
        <ele>44.18</ele>
        <time>2023-06-11T20:09:12.151Z</time>
      </trkpt>
      <trkpt lat="47.08607" lon="0.03076">
        <ele>44.27</ele>
        <time>2023-06-11T20:09:49.032Z</time>
      </trkpt>
      <trkpt lat="47.0857" lon="0.031">
        <ele>44.38</ele>
        <time>2023-06-11T20:10:25.919Z</time>
      </trkpt>
      <trkpt lat="47.08517" lon="0.03135">
        <ele>44.95</ele>
        <time>2023-06-11T20:11:02.815Z</time>
      </trkpt>
      <trkpt lat="47.08481" lon="0.0316">
        <ele>45.23</ele>
        <time>2023-06-11T20:11:39.718Z</time>
      </trkpt>
      <trkpt lat="47.08473" lon="0.03165">
        <ele>45.32</ele>
        <time>2023-06-11T20:12:16.622Z</time>
      </trkpt>
      <trkpt lat="47.08456" lon="0.03176">
        <ele>45.54</ele>
        <time>2023-06-11T20:12:53.529Z</time>
      </trkpt>
      <trkpt lat="47.08436" lon="0.03189">
        <ele>45.73</ele>
        <time>2023-06-11T20:13:30.440Z</time>
      </trkpt>
      <trkpt lat="47.08416" lon="0.03203">
        <ele>45.89</ele>
        <time>2023-06-11T20:14:07.354Z</time>
      </trkpt>
      <trkpt lat="47.08391" lon="0.03219">
        <ele>46.03</ele>
        <time>2023-06-11T20:14:44.273Z</time>
      </trkpt>
      <trkpt lat="47.08367" lon="0.03235">
        <ele>46.23</ele>
        <time>2023-06-11T20:15:21.196Z</time>
      </trkpt>
      <trkpt lat="47.0835" lon="0.03246">
        <ele>46.31</ele>
        <time>2023-06-11T20:15:58.122Z</time>
      </trkpt>
      <trkpt lat="47.08314" lon="0.0327">
        <ele>46.45</ele>
        <time>2023-06-11T20:16:35.054Z</time>
      </trkpt>
      <trkpt lat="47.08289" lon="0.03286">
        <ele>46.63</ele>
        <time>2023-06-11T20:17:11.991Z</time>
      </trkpt>
      <trkpt lat="47.08261" lon="0.03305">
        <ele>46.73</ele>
        <time>2023-06-11T20:17:48.933Z</time>
      </trkpt>
      <trkpt lat="47.08232" lon="0.03324">
        <ele>46.97</ele>
        <time>2023-06-11T20:18:25.880Z</time>
      </trkpt>
      <trkpt lat="47.08216" lon="0.03334">
        <ele>46.98</ele>
        <time>2023-06-11T20:19:02.829Z</time>
      </trkpt>
      <trkpt lat="47.08208" lon="0.0334">
        <ele>46.96</ele>
        <time>2023-06-11T20:19:39.780Z</time>
      </trkpt>
      <trkpt lat="47.082" lon="0.03345">
        <ele>46.91</ele>
        <time>2023-06-11T20:20:16.732Z</time>
      </trkpt>
      <trkpt lat="47.08187" lon="0.03353">
        <ele>46.76</ele>
        <time>2023-06-11T20:20:53.686Z</time>
      </trkpt>
      <trkpt lat="47.08171" lon="0.03364">
        <ele>46.46</ele>
        <time>2023-06-11T20:21:30.643Z</time>
      </trkpt>
      <trkpt lat="47.08163" lon="0.03369">
        <ele>46.34</ele>
        <time>2023-06-11T20:22:07.602Z</time>
      </trkpt>
      <trkpt lat="47.0815" lon="0.03378">
        <ele>46.21</ele>
        <time>2023-06-11T20:22:44.563Z</time>
      </trkpt>
      <trkpt lat="47.08131" lon="0.03385">
        <ele>46.05</ele>
        <time>2023-06-11T20:23:21.527Z</time>
      </trkpt>
      <trkpt lat="47.08129" lon="0.03385">
        <ele>46.04</ele>
        <time>2023-06-11T20:23:58.491Z</time>
      </trkpt>
      <trkpt lat="47.08114" lon="0.03383">
        <ele>45.95</ele>
        <time>2023-06-11T20:24:35.458Z</time>
      </trkpt>
      <trkpt lat="47.08103" lon="0.03379">
        <ele>45.9</ele>
        <time>2023-06-11T20:25:12.427Z</time>
      </trkpt>
      <trkpt lat="47.08094" lon="0.03376">
        <ele>45.88</ele>
        <time>2023-06-11T20:25:49.397Z</time>
      </trkpt>
      <trkpt lat="47.08069" lon="0.03366">
        <ele>45.9</ele>
        <time>2023-06-11T20:26:26.371Z</time>
      </trkpt>
      <trkpt lat="47.08043" lon="0.03356">
        <ele>45.96</ele>
        <time>2023-06-11T20:27:03.350Z</time>
      </trkpt>
      <trkpt lat="47.08038" lon="0.03354">
        <ele>45.98</ele>
        <time>2023-06-11T20:27:40.329Z</time>
      </trkpt>
      <trkpt lat="47.07994" lon="0.03343">
        <ele>46.17</ele>
        <time>2023-06-11T20:28:17.316Z</time>
      </trkpt>
      <trkpt lat="47.07964" lon="0.03336">
        <ele>46.37</ele>
        <time>2023-06-11T20:28:54.307Z</time>
      </trkpt>
      <trkpt lat="47.07942" lon="0.03331">
        <ele>46.45</ele>
        <time>2023-06-11T20:29:31.302Z</time>
      </trkpt>
      <trkpt lat="47.07923" lon="0.03326">
        <ele>46.55</ele>
        <time>2023-06-11T20:30:08.300Z</time>
      </trkpt>
      <trkpt lat="47.07911" lon="0.03322">
        <ele>46.63</ele>
        <time>2023-06-11T20:30:45.300Z</time>
      </trkpt>
      <trkpt lat="47.07869" lon="0.03306">
        <ele>47.01</ele>
        <time>2023-06-11T20:31:22.307Z</time>
      </trkpt>
      <trkpt lat="47.0786" lon="0.03301">
        <ele>47.1</ele>
        <time>2023-06-11T20:31:59.316Z</time>
      </trkpt>
      <trkpt lat="47.07851" lon="0.03297">
        <ele>47.2</ele>
        <time>2023-06-11T20:32:36.326Z</time>
      </trkpt>
      <trkpt lat="47.07843" lon="0.03293">
        <ele>47.33</ele>
        <time>2023-06-11T20:33:13.337Z</time>
      </trkpt>
      <trkpt lat="47.07832" lon="0.03288">
        <ele>47.54</ele>
        <time>2023-06-11T20:33:50.350Z</time>
      </trkpt>
      <trkpt lat="47.07826" lon="0.03284">
        <ele>47.67</ele>
        <time>2023-06-11T20:34:27.364Z</time>
      </trkpt>
      <trkpt lat="47.07818" lon="0.03278">
        <ele>47.82</ele>
        <time>2023-06-11T20:35:04.380Z</time>
      </trkpt>
      <trkpt lat="47.07806" lon="0.03269">
        <ele>47.99</ele>
        <time>2023-06-11T20:35:41.398Z</time>
      </trkpt>
      <trkpt lat="47.07797" lon="0.03263">
        <ele>48.08</ele>
        <time>2023-06-11T20:36:18.417Z</time>
      </trkpt>
      <trkpt lat="47.07794" lon="0.0326">
        <ele>48.11</ele>
        <time>2023-06-11T20:36:55.437Z</time>
      </trkpt>
      <trkpt lat="47.0777" lon="0.03236">
        <ele>48.34</ele>
        <time>2023-06-11T20:37:32.462Z</time>
      </trkpt>
      <trkpt lat="47.07766" lon="0.03232">
        <ele>48.36</ele>
        <time>2023-06-11T20:38:09.487Z</time>
      </trkpt>
      <trkpt lat="47.0775" lon="0.03209">
        <ele>48.5</ele>
        <time>2023-06-11T20:38:46.516Z</time>
      </trkpt>
      <trkpt lat="47.07741" lon="0.03196">
        <ele>48.54</ele>
        <time>2023-06-11T20:39:23.547Z</time>
      </trkpt>
      <trkpt lat="47.07728" lon="0.03178">
        <ele>48.5</ele>
        <time>2023-06-11T20:40:00.581Z</time>
      </trkpt>
      <trkpt lat="47.07709" lon="0.0315">
        <ele>48.33</ele>
        <time>2023-06-11T20:40:37.619Z</time>
      </trkpt>
      <trkpt lat="47.07695" lon="0.03131">
        <ele>48.38</ele>
        <time>2023-06-11T20:41:14.660Z</time>
      </trkpt>
      <trkpt lat="47.07684" lon="0.03115">
        <ele>48.43</ele>
        <time>2023-06-11T20:41:51.704Z</time>
      </trkpt>
      <trkpt lat="47.07676" lon="0.03106">
        <ele>48.47</ele>
        <time>2023-06-11T20:42:28.749Z</time>
      </trkpt>
      <trkpt lat="47.07669" lon="0.03099">
        <ele>48.51</ele>
        <time>2023-06-11T20:43:05.796Z</time>
      </trkpt>
      <trkpt lat="47.07659" lon="0.03089">
        <ele>48.58</ele>
        <time>2023-06-11T20:43:42.845Z</time>
      </trkpt>
      <trkpt lat="47.0763" lon="0.03071">
        <ele>48.77</ele>
        <time>2023-06-11T20:44:19.899Z</time>
      </trkpt>
      <trkpt lat="47.07621" lon="0.03066">
        <ele>48.8</ele>
        <time>2023-06-11T20:44:56.954Z</time>
      </trkpt>
      <trkpt lat="47.07609" lon="0.03062">
        <ele>48.84</ele>
        <time>2023-06-11T20:45:34.011Z</time>
      </trkpt>
      <trkpt lat="47.07579" lon="0.03052">
        <ele>49.01</ele>
        <time>2023-06-11T20:46:11.073Z</time>
      </trkpt>
      <trkpt lat="47.07567" lon="0.03048">
        <ele>49.05</ele>
        <time>2023-06-11T20:46:48.137Z</time>
      </trkpt>
      <trkpt lat="47.07553" lon="0.03045">
        <ele>49.11</ele>
        <time>2023-06-11T20:47:25.203Z</time>
      </trkpt>
      <trkpt lat="47.07553" lon="0.03045">
        <ele>49.11</ele>
        <time>2023-06-11T20:48:02.269Z</time>
      </trkpt>
      <trkpt lat="47.07544" lon="0.03046">
        <ele>49.16</ele>
        <time>2023-06-11T20:48:39.337Z</time>
      </trkpt>
      <trkpt lat="47.07522" lon="0.03048">
        <ele>49.34</ele>
        <time>2023-06-11T20:49:16.408Z</time>
      </trkpt>
      <trkpt lat="47.07518" lon="0.03049">
        <ele>49.36</ele>
        <time>2023-06-11T20:49:53.480Z</time>
      </trkpt>
      <trkpt lat="47.07504" lon="0.0305">
        <ele>49.35</ele>
        <time>2023-06-11T20:50:30.554Z</time>
      </trkpt>
      <trkpt lat="47.07495" lon="0.03051">
        <ele>49.37</ele>
        <time>2023-06-11T20:51:07.630Z</time>
      </trkpt>
      <trkpt lat="47.07453" lon="0.03055">
        <ele>49.53</ele>
        <time>2023-06-11T20:51:44.713Z</time>
      </trkpt>
      <trkpt lat="47.07451" lon="0.03055">
        <ele>49.54</ele>
        <time>2023-06-11T20:52:21.796Z</time>
      </trkpt>
      <trkpt lat="47.07438" lon="0.03058">
        <ele>49.61</ele>
        <time>2023-06-11T20:52:58.881Z</time>
      </trkpt>
      <trkpt lat="47.07427" lon="0.0306">
        <ele>49.69</ele>
        <time>2023-06-11T20:53:35.968Z</time>
      </trkpt>
      <trkpt lat="47.07425" lon="0.03061">
        <ele>49.71</ele>
        <time>2023-06-11T20:54:13.055Z</time>
      </trkpt>
      <trkpt lat="47.07412" lon="0.03068">
        <ele>49.85</ele>
        <time>2023-06-11T20:54:50.144Z</time>
      </trkpt>
      <trkpt lat="47.0741" lon="0.03069">
        <ele>49.88</ele>
        <time>2023-06-11T20:55:27.234Z</time>
      </trkpt>
      <trkpt lat="47.074" lon="0.03077">
        <ele>50.06</ele>
        <time>2023-06-11T20:56:04.325Z</time>
      </trkpt>
      <trkpt lat="47.074" lon="0.03077">
        <ele>50.06</ele>
        <time>2023-06-11T20:56:41.416Z</time>
      </trkpt>
      <trkpt lat="47.0739" lon="0.03088">
        <ele>50.34</ele>
        <time>2023-06-11T20:57:18.509Z</time>
      </trkpt>
      <trkpt lat="47.07383" lon="0.03096">
        <ele>50.31</ele>
        <time>2023-06-11T20:57:55.604Z</time>
      </trkpt>
      <trkpt lat="47.07375" lon="0.03105">
        <ele>50.24</ele>
        <time>2023-06-11T20:58:32.700Z</time>
      </trkpt>
      <trkpt lat="47.07375" lon="0.03105">
        <ele>50.24</ele>
        <time>2023-06-11T20:59:09.796Z</time>
      </trkpt>
      <trkpt lat="47.07369" lon="0.03113">
        <ele>50.13</ele>
        <time>2023-06-11T20:59:46.894Z</time>
      </trkpt>
      <trkpt lat="47.07363" lon="0.0312">
        <ele>50.02</ele>
        <time>2023-06-11T21:00:23.993Z</time>
      </trkpt>
      <trkpt lat="47.07354" lon="0.03113">
        <ele>49.87</ele>
        <time>2023-06-11T21:01:01.094Z</time>
      </trkpt>
      <trkpt lat="47.07342" lon="0.03104">
        <ele>49.71</ele>
        <time>2023-06-11T21:01:38.197Z</time>
      </trkpt>
      <trkpt lat="47.07326" lon="0.03092">
        <ele>49.53</ele>
        <time>2023-06-11T21:02:15.303Z</time>
      </trkpt>
      <trkpt lat="47.07314" lon="0.03083">
        <ele>49.43</ele>
        <time>2023-06-11T21:02:52.411Z</time>
      </trkpt>
      <trkpt lat="47.07302" lon="0.03075">
        <ele>49.4</ele>
        <time>2023-06-11T21:03:29.521Z</time>
      </trkpt>
      <trkpt lat="47.07271" lon="0.03052">
        <ele>49.44</ele>
        <time>2023-06-11T21:04:06.636Z</time>
      </trkpt>
      <trkpt lat="47.07265" lon="0.03049">
        <ele>49.45</ele>
        <time>2023-06-11T21:04:43.752Z</time>
      </trkpt>
      <trkpt lat="47.07249" lon="0.03039">
        <ele>49.42</ele>
        <time>2023-06-11T21:05:20.871Z</time>
      </trkpt>
      <trkpt lat="47.07246" lon="0.03037">
        <ele>49.4</ele>
        <time>2023-06-11T21:05:57.991Z</time>
      </trkpt>
      <trkpt lat="47.07236" lon="0.03032">
        <ele>49.36</ele>
        <time>2023-06-11T21:06:35.113Z</time>
      </trkpt>
      <trkpt lat="47.07215" lon="0.0302">
        <ele>49.18</ele>
        <time>2023-06-11T21:07:12.238Z</time>
      </trkpt>
      <trkpt lat="47.07198" lon="0.03011">
        <ele>49.06</ele>
        <time>2023-06-11T21:07:49.366Z</time>
      </trkpt>
      <trkpt lat="47.07148" lon="0.02984">
        <ele>48.83</ele>
        <time>2023-06-11T21:08:26.503Z</time>
      </trkpt>
      <trkpt lat="47.07126" lon="0.02973">
        <ele>48.71</ele>
        <time>2023-06-11T21:09:03.643Z</time>
      </trkpt>
      <trkpt lat="47.07114" lon="0.02966">
        <ele>48.67</ele>
        <time>2023-06-11T21:09:40.785Z</time>
      </trkpt>
      <trkpt lat="47.0708" lon="0.02948">
        <ele>48.64</ele>
        <time>2023-06-11T21:10:17.933Z</time>
      </trkpt>
      <trkpt lat="47.07059" lon="0.02936">
        <ele>48.57</ele>
        <time>2023-06-11T21:10:55.085Z</time>
      </trkpt>
      <trkpt lat="47.07047" lon="0.0293">
        <ele>48.61</ele>
        <time>2023-06-11T21:11:32.239Z</time>
      </trkpt>
      <trkpt lat="47.07028" lon="0.02916">
        <ele>48.69</ele>
        <time>2023-06-11T21:12:09.396Z</time>
      </trkpt>
      <trkpt lat="47.07089" lon="0.02722">
        <ele>49.22</ele>
        <time>2023-06-11T21:12:46.577Z</time>
      </trkpt>
      <trkpt lat="47.07104" lon="0.02676">
        <ele>48.86</ele>
        <time>2023-06-11T21:13:23.763Z</time>
      </trkpt>
      <trkpt lat="47.07064" lon="0.02646">
        <ele>48.41</ele>
        <time>2023-06-11T21:14:00.956Z</time>
      </trkpt>
      <trkpt lat="47.06974" lon="0.02571">
        <ele>47.35</ele>
        <time>2023-06-11T21:14:38.166Z</time>
      </trkpt>
      <trkpt lat="47.06892" lon="0.025">
        <ele>46.39</ele>
        <time>2023-06-11T21:15:15.391Z</time>
      </trkpt>
      <trkpt lat="47.06881" lon="0.02489">
        <ele>46.09</ele>
        <time>2023-06-11T21:15:52.618Z</time>
      </trkpt>
      <trkpt lat="47.06869" lon="0.02479">
        <ele>45.82</ele>
        <time>2023-06-11T21:16:29.847Z</time>
      </trkpt>
      <trkpt lat="47.06862" lon="0.02473">
        <ele>45.66</ele>
        <time>2023-06-11T21:17:07.078Z</time>
      </trkpt>
      <trkpt lat="47.06862" lon="0.02472">
        <ele>45.66</ele>
        <time>2023-06-11T21:17:44.309Z</time>
      </trkpt>
      <trkpt lat="47.06865" lon="0.02467">
        <ele>45.6</ele>
        <time>2023-06-11T21:18:21.541Z</time>
      </trkpt>
      <trkpt lat="47.06867" lon="0.02461">
        <ele>45.57</ele>
        <time>2023-06-11T21:18:58.773Z</time>
      </trkpt>
      <trkpt lat="47.06875" lon="0.02445">
        <ele>45.6</ele>
        <time>2023-06-11T21:19:36.007Z</time>
      </trkpt>
      <trkpt lat="47.06877" lon="0.0244">
        <ele>45.57</ele>
        <time>2023-06-11T21:20:13.242Z</time>
      </trkpt>
      <trkpt lat="47.06877" lon="0.02439">
        <ele>45.57</ele>
        <time>2023-06-11T21:20:50.477Z</time>
      </trkpt>
      <trkpt lat="47.06883" lon="0.0243">
        <ele>45.45</ele>
        <time>2023-06-11T21:21:27.714Z</time>
      </trkpt>
      <trkpt lat="47.06886" lon="0.02424">
        <ele>45.37</ele>
        <time>2023-06-11T21:22:04.951Z</time>
      </trkpt>
      <trkpt lat="47.06892" lon="0.02414">
        <ele>45.13</ele>
        <time>2023-06-11T21:22:42.190Z</time>
      </trkpt>
      <trkpt lat="47.06901" lon="0.02399">
        <ele>44.64</ele>
        <time>2023-06-11T21:23:19.431Z</time>
      </trkpt>
      <trkpt lat="47.06906" lon="0.02389">
        <ele>44.38</ele>
        <time>2023-06-11T21:23:56.673Z</time>
      </trkpt>
      <trkpt lat="47.06909" lon="0.02384">
        <ele>44.29</ele>
        <time>2023-06-11T21:24:33.916Z</time>
      </trkpt>
      <trkpt lat="47.06915" lon="0.02374">
        <ele>44.17</ele>
        <time>2023-06-11T21:25:11.161Z</time>
      </trkpt>
      <trkpt lat="47.06918" lon="0.0237">
        <ele>44.04</ele>
        <time>2023-06-11T21:25:48.406Z</time>
      </trkpt>
      <trkpt lat="47.06921" lon="0.02365">
        <ele>43.94</ele>
        <time>2023-06-11T21:26:25.652Z</time>
      </trkpt>
      <trkpt lat="47.06924" lon="0.0236">
        <ele>43.89</ele>
        <time>2023-06-11T21:27:02.899Z</time>
      </trkpt>
      <trkpt lat="47.06927" lon="0.02354">
        <ele>43.89</ele>
        <time>2023-06-11T21:27:40.146Z</time>
      </trkpt>
      <trkpt lat="47.06927" lon="0.02354">
        <ele>43.89</ele>
        <time>2023-06-11T21:28:17.393Z</time>
      </trkpt>
      <trkpt lat="47.06928" lon="0.02349">
        <ele>43.94</ele>
        <time>2023-06-11T21:28:54.641Z</time>
      </trkpt>
      <trkpt lat="47.06931" lon="0.02337">
        <ele>44.07</ele>
        <time>2023-06-11T21:29:31.890Z</time>
      </trkpt>
      <trkpt lat="47.06931" lon="0.02337">
        <ele>44.07</ele>
        <time>2023-06-11T21:30:09.139Z</time>
      </trkpt>
      <trkpt lat="47.06928" lon="0.02332">
        <ele>44.1</ele>
        <time>2023-06-11T21:30:46.389Z</time>
      </trkpt>
      <trkpt lat="47.06926" lon="0.02326">
        <ele>44.08</ele>
        <time>2023-06-11T21:31:23.640Z</time>
      </trkpt>
      <trkpt lat="47.06923" lon="0.02321">
        <ele>43.99</ele>
        <time>2023-06-11T21:32:00.892Z</time>
      </trkpt>
      <trkpt lat="47.06916" lon="0.02306">
        <ele>43.61</ele>
        <time>2023-06-11T21:32:38.146Z</time>
      </trkpt>
      <trkpt lat="47.06913" lon="0.02301">
        <ele>43.54</ele>
        <time>2023-06-11T21:33:15.400Z</time>
      </trkpt>
      <trkpt lat="47.06911" lon="0.02296">
        <ele>43.51</ele>
        <time>2023-06-11T21:33:52.655Z</time>
      </trkpt>
      <trkpt lat="47.06908" lon="0.02292">
        <ele>43.53</ele>
        <time>2023-06-11T21:34:29.911Z</time>
      </trkpt>
      <trkpt lat="47.06906" lon="0.02287">
        <ele>43.59</ele>
        <time>2023-06-11T21:35:07.167Z</time>
      </trkpt>
      <trkpt lat="47.06905" lon="0.02285">
        <ele>43.62</ele>
        <time>2023-06-11T21:35:44.423Z</time>
      </trkpt>
      <trkpt lat="47.06905" lon="0.02281">
        <ele>43.69</ele>
        <time>2023-06-11T21:36:21.680Z</time>
      </trkpt>
      <trkpt lat="47.06905" lon="0.02275">
        <ele>43.81</ele>
        <time>2023-06-11T21:36:58.938Z</time>
      </trkpt>
      <trkpt lat="47.06905" lon="0.02263">
        <ele>44.12</ele>
        <time>2023-06-11T21:37:36.197Z</time>
      </trkpt>
      <trkpt lat="47.06905" lon="0.02233">
        <ele>44.42</ele>
        <time>2023-06-11T21:38:13.459Z</time>
      </trkpt>
      <trkpt lat="47.06905" lon="0.0222">
        <ele>44.51</ele>
        <time>2023-06-11T21:38:50.723Z</time>
      </trkpt>
      <trkpt lat="47.06905" lon="0.02214">
        <ele>44.51</ele>
        <time>2023-06-11T21:39:27.987Z</time>
      </trkpt>
      <trkpt lat="47.06905" lon="0.02211">
        <ele>44.49</ele>
        <time>2023-06-11T21:40:05.252Z</time>
      </trkpt>
      <trkpt lat="47.06905" lon="0.02207">
        <ele>44.47</ele>
        <time>2023-06-11T21:40:42.517Z</time>
      </trkpt>
      <trkpt lat="47.06904" lon="0.02187">
        <ele>44.22</ele>
        <time>2023-06-11T21:41:19.784Z</time>
      </trkpt>
      <trkpt lat="47.06904" lon="0.02182">
        <ele>44.16</ele>
        <time>2023-06-11T21:41:57.052Z</time>
      </trkpt>
      <trkpt lat="47.06903" lon="0.02182">
        <ele>44.16</ele>
        <time>2023-06-11T21:42:34.320Z</time>
      </trkpt>
      <trkpt lat="47.06899" lon="0.0218">
        <ele>44.14</ele>
        <time>2023-06-11T21:43:11.589Z</time>
      </trkpt>
      <trkpt lat="47.06894" lon="0.02179">
        <ele>44.18</ele>
        <time>2023-06-11T21:43:48.858Z</time>
      </trkpt>
      <trkpt lat="47.0689" lon="0.02177">
        <ele>44.28</ele>
        <time>2023-06-11T21:44:26.128Z</time>
      </trkpt>
      <trkpt lat="47.06886" lon="0.02176">
        <ele>44.46</ele>
        <time>2023-06-11T21:45:03.399Z</time>
      </trkpt>
      <trkpt lat="47.06886" lon="0.02176">
        <ele>44.46</ele>
        <time>2023-06-11T21:45:40.670Z</time>
      </trkpt>
      <trkpt lat="47.06882" lon="0.02172">
        <ele>44.7</ele>
        <time>2023-06-11T21:46:17.941Z</time>
      </trkpt>
      <trkpt lat="47.06876" lon="0.02165">
        <ele>45.13</ele>
        <time>2023-06-11T21:46:55.214Z</time>
      </trkpt>
      <trkpt lat="47.06875" lon="0.02163">
        <ele>45.21</ele>
        <time>2023-06-11T21:47:32.487Z</time>
      </trkpt>
      <trkpt lat="47.06874" lon="0.02157">
        <ele>45.44</ele>
        <time>2023-06-11T21:48:09.761Z</time>
      </trkpt>
      <trkpt lat="47.06872" lon="0.02151">
        <ele>45.62</ele>
        <time>2023-06-11T21:48:47.035Z</time>
      </trkpt>
      <trkpt lat="47.0687" lon="0.02145">
        <ele>45.76</ele>
        <time>2023-06-11T21:49:24.310Z</time>
      </trkpt>
      <trkpt lat="47.06866" lon="0.02133">
        <ele>45.97</ele>
        <time>2023-06-11T21:50:01.586Z</time>
      </trkpt>
      <trkpt lat="47.06866" lon="0.02132">
        <ele>45.98</ele>
        <time>2023-06-11T21:50:38.863Z</time>
      </trkpt>
      <trkpt lat="47.06865" lon="0.0212">
        <ele>46.14</ele>
        <time>2023-06-11T21:51:16.141Z</time>
      </trkpt>
      <trkpt lat="47.06865" lon="0.02117">
        <ele>46.17</ele>
        <time>2023-06-11T21:51:53.419Z</time>
      </trkpt>
      <trkpt lat="47.06868" lon="0.02108">
        <ele>46.26</ele>
        <time>2023-06-11T21:52:30.698Z</time>
      </trkpt>
      <trkpt lat="47.06869" lon="0.02104">
        <ele>46.27</ele>
        <time>2023-06-11T21:53:07.978Z</time>
      </trkpt>
      <trkpt lat="47.0687" lon="0.02102">
        <ele>46.28</ele>
        <time>2023-06-11T21:53:45.258Z</time>
      </trkpt>
      <trkpt lat="47.06872" lon="0.02097">
        <ele>46.27</ele>
        <time>2023-06-11T21:54:22.539Z</time>
      </trkpt>
      <trkpt lat="47.06877" lon="0.02086">
        <ele>46.2</ele>
        <time>2023-06-11T21:54:59.821Z</time>
      </trkpt>
      <trkpt lat="47.06883" lon="0.02075">
        <ele>46.18</ele>
        <time>2023-06-11T21:55:37.105Z</time>
      </trkpt>
      <trkpt lat="47.06886" lon="0.02068">
        <ele>46.18</ele>
        <time>2023-06-11T21:56:14.390Z</time>
      </trkpt>
      <trkpt lat="47.06894" lon="0.02047">
        <ele>46.21</ele>
        <time>2023-06-11T21:56:51.677Z</time>
      </trkpt>
      <trkpt lat="47.06897" lon="0.0204">
        <ele>46.17</ele>
        <time>2023-06-11T21:57:28.965Z</time>
      </trkpt>
      <trkpt lat="47.06898" lon="0.02035">
        <ele>46.16</ele>
        <time>2023-06-11T21:58:06.254Z</time>
      </trkpt>
      <trkpt lat="47.06904" lon="0.02011">
        <ele>45.96</ele>
        <time>2023-06-11T21:58:43.546Z</time>
      </trkpt>
      <trkpt lat="47.06907" lon="0.01999">
        <ele>45.93</ele>
        <time>2023-06-11T21:59:20.839Z</time>
      </trkpt>
      <trkpt lat="47.06914" lon="0.01974">
        <ele>45.92</ele>
        <time>2023-06-11T21:59:58.135Z</time>
      </trkpt>
      <trkpt lat="47.06924" lon="0.01931">
        <ele>46.42</ele>
        <time>2023-06-11T22:00:35.436Z</time>
      </trkpt>
      <trkpt lat="47.06926" lon="0.01925">
        <ele>46.51</ele>
        <time>2023-06-11T22:01:12.738Z</time>
      </trkpt>
      <trkpt lat="47.06861" lon="0.01938">
        <ele>47.89</ele>
        <time>2023-06-11T22:01:50.050Z</time>
      </trkpt>
      <trkpt lat="47.06848" lon="0.0194">
        <ele>48.13</ele>
        <time>2023-06-11T22:02:27.364Z</time>
      </trkpt>
      <trkpt lat="47.06847" lon="0.0194">
        <ele>48.13</ele>
        <time>2023-06-11T22:03:04.678Z</time>
      </trkpt>
      <trkpt lat="47.0683" lon="0.01946">
        <ele>48.39</ele>
        <time>2023-06-11T22:03:41.995Z</time>
      </trkpt>
      <trkpt lat="47.06821" lon="0.01949">
        <ele>48.49</ele>
        <time>2023-06-11T22:04:19.314Z</time>
      </trkpt>
      <trkpt lat="47.06821" lon="0.01949">
        <ele>48.49</ele>
        <time>2023-06-11T22:04:56.633Z</time>
      </trkpt>
      <trkpt lat="47.06813" lon="0.01952">
        <ele>48.56</ele>
        <time>2023-06-11T22:05:33.953Z</time>
      </trkpt>
      <trkpt lat="47.06779" lon="0.01967">
        <ele>48.71</ele>
        <time>2023-06-11T22:06:11.279Z</time>
      </trkpt>
      <trkpt lat="47.06758" lon="0.01976">
        <ele>48.75</ele>
        <time>2023-06-11T22:06:48.608Z</time>
      </trkpt>
      <trkpt lat="47.06737" lon="0.01985">
        <ele>48.84</ele>
        <time>2023-06-11T22:07:25.941Z</time>
      </trkpt>
      <trkpt lat="47.0673" lon="0.01988">
        <ele>48.84</ele>
        <time>2023-06-11T22:08:03.275Z</time>
      </trkpt>
      <trkpt lat="47.06715" lon="0.01992">
        <ele>48.87</ele>
        <time>2023-06-11T22:08:40.611Z</time>
      </trkpt>
      <trkpt lat="47.06706" lon="0.01994">
        <ele>48.9</ele>
        <time>2023-06-11T22:09:17.949Z</time>
      </trkpt>
      <trkpt lat="47.06693" lon="0.01997">
        <ele>48.98</ele>
        <time>2023-06-11T22:09:55.289Z</time>
      </trkpt>
      <trkpt lat="47.06684" lon="0.01999">
        <ele>49.06</ele>
        <time>2023-06-11T22:10:32.630Z</time>
      </trkpt>
      <trkpt lat="47.06677" lon="0.02001">
        <ele>49.14</ele>
        <time>2023-06-11T22:11:09.972Z</time>
      </trkpt>
      <trkpt lat="47.0666" lon="0.02002">
        <ele>49.33</ele>
        <time>2023-06-11T22:11:47.317Z</time>
      </trkpt>
      <trkpt lat="47.06658" lon="0.02002">
        <ele>49.36</ele>
        <time>2023-06-11T22:12:24.662Z</time>
      </trkpt>
      <trkpt lat="47.06624" lon="0.01996">
        <ele>49.42</ele>
        <time>2023-06-11T22:13:02.013Z</time>
      </trkpt>
      <trkpt lat="47.06597" lon="0.01991">
        <ele>49.49</ele>
        <time>2023-06-11T22:13:39.368Z</time>
      </trkpt>
      <trkpt lat="47.06597" lon="0.01991">
        <ele>49.49</ele>
        <time>2023-06-11T22:14:16.723Z</time>
      </trkpt>
      <trkpt lat="47.06577" lon="0.01995">
        <ele>49.64</ele>
        <time>2023-06-11T22:14:54.081Z</time>
      </trkpt>
      <trkpt lat="47.06572" lon="0.01998">
        <ele>49.69</ele>
        <time>2023-06-11T22:15:31.440Z</time>
      </trkpt>
      <trkpt lat="47.06532" lon="0.0202">
        <ele>49.95</ele>
        <time>2023-06-11T22:16:08.806Z</time>
      </trkpt>
      <trkpt lat="47.06531" lon="0.0202">
        <ele>49.96</ele>
        <time>2023-06-11T22:16:46.172Z</time>
      </trkpt>
      <trkpt lat="47.06522" lon="0.02023">
        <ele>50.09</ele>
        <time>2023-06-11T22:17:23.540Z</time>
      </trkpt>
      <trkpt lat="47.06514" lon="0.02026">
        <ele>50.25</ele>
        <time>2023-06-11T22:18:00.909Z</time>
      </trkpt>
      <trkpt lat="47.06509" lon="0.02028">
        <ele>50.36</ele>
        <time>2023-06-11T22:18:38.279Z</time>
      </trkpt>
      <trkpt lat="47.06496" lon="0.02028">
        <ele>50.69</ele>
        <time>2023-06-11T22:19:15.651Z</time>
      </trkpt>
      <trkpt lat="47.06481" lon="0.02024">
        <ele>51.06</ele>
        <time>2023-06-11T22:19:53.025Z</time>
      </trkpt>
      <trkpt lat="47.06475" lon="0.02021">
        <ele>51.22</ele>
        <time>2023-06-11T22:20:30.400Z</time>
      </trkpt>
      <trkpt lat="47.06462" lon="0.02015">
        <ele>51.59</ele>
        <time>2023-06-11T22:21:07.778Z</time>
      </trkpt>
      <trkpt lat="47.06462" lon="0.02015">
        <ele>51.59</ele>
        <time>2023-06-11T22:21:45.156Z</time>
      </trkpt>
      <trkpt lat="47.06455" lon="0.0201">
        <ele>51.86</ele>
        <time>2023-06-11T22:22:22.535Z</time>
      </trkpt>
      <trkpt lat="47.06423" lon="0.01988">
        <ele>53.04</ele>
        <time>2023-06-11T22:22:59.920Z</time>
      </trkpt>
      <trkpt lat="47.0642" lon="0.01986">
        <ele>53.18</ele>
        <time>2023-06-11T22:23:37.305Z</time>
      </trkpt>
      <trkpt lat="47.0641" lon="0.01979">
        <ele>53.41</ele>
        <time>2023-06-11T22:24:14.692Z</time>
      </trkpt>
      <trkpt lat="47.06402" lon="0.01972">
        <ele>53.61</ele>
        <time>2023-06-11T22:24:52.080Z</time>
      </trkpt>
      <trkpt lat="47.06395" lon="0.01966">
        <ele>53.76</ele>
        <time>2023-06-11T22:25:29.470Z</time>
      </trkpt>
      <trkpt lat="47.06392" lon="0.01964">
        <ele>53.79</ele>
        <time>2023-06-11T22:26:06.860Z</time>
      </trkpt>
      <trkpt lat="47.0639" lon="0.01967">
        <ele>53.83</ele>
        <time>2023-06-11T22:26:44.251Z</time>
      </trkpt>
      <trkpt lat="47.06385" lon="0.01965">
        <ele>53.9</ele>
        <time>2023-06-11T22:27:21.643Z</time>
      </trkpt>
      <trkpt lat="47.06384" lon="0.01964">
        <ele>53.92</ele>
        <time>2023-06-11T22:27:59.035Z</time>
      </trkpt>
      <trkpt lat="47.06383" lon="0.01961">
        <ele>53.93</ele>
        <time>2023-06-11T22:28:36.427Z</time>
      </trkpt>
      <trkpt lat="47.06367" lon="0.0196">
        <ele>54.06</ele>
        <time>2023-06-11T22:29:13.822Z</time>
      </trkpt>
      <trkpt lat="47.06365" lon="0.0196">
        <ele>54.07</ele>
        <time>2023-06-11T22:29:51.217Z</time>
      </trkpt>
      <trkpt lat="47.06359" lon="0.01962">
        <ele>54.1</ele>
        <time>2023-06-11T22:30:28.613Z</time>
      </trkpt>
      <trkpt lat="47.06354" lon="0.01964">
        <ele>54.09</ele>
        <time>2023-06-11T22:31:06.010Z</time>
      </trkpt>
      <trkpt lat="47.0635" lon="0.01965">
        <ele>54.06</ele>
        <time>2023-06-11T22:31:43.407Z</time>
      </trkpt>
      <trkpt lat="47.06346" lon="0.01968">
        <ele>54.05</ele>
        <time>2023-06-11T22:32:20.805Z</time>
      </trkpt>
      <trkpt lat="47.06328" lon="0.01986">
        <ele>53.86</ele>
        <time>2023-06-11T22:32:58.207Z</time>
      </trkpt>
      <trkpt lat="47.06313" lon="0.02">
        <ele>53.73</ele>
        <time>2023-06-11T22:33:35.612Z</time>
      </trkpt>
      <trkpt lat="47.06301" lon="0.02011">
        <ele>53.68</ele>
        <time>2023-06-11T22:34:13.019Z</time>
      </trkpt>
      <trkpt lat="47.06301" lon="0.02011">
        <ele>53.68</ele>
        <time>2023-06-11T22:34:50.426Z</time>
      </trkpt>
      <trkpt lat="47.06294" lon="0.02019">
        <ele>53.74</ele>
        <time>2023-06-11T22:35:27.834Z</time>
      </trkpt>
      <trkpt lat="47.06284" lon="0.0203">
        <ele>53.94</ele>
        <time>2023-06-11T22:36:05.244Z</time>
      </trkpt>
      <trkpt lat="47.06268" lon="0.02049">
        <ele>54.11</ele>
        <time>2023-06-11T22:36:42.657Z</time>
      </trkpt>
      <trkpt lat="47.06256" lon="0.02062">
        <ele>54.26</ele>
        <time>2023-06-11T22:37:20.073Z</time>
      </trkpt>
      <trkpt lat="47.06252" lon="0.02056">
        <ele>54.33</ele>
        <time>2023-06-11T22:37:57.490Z</time>
      </trkpt>
      <trkpt lat="47.06242" lon="0.02043">
        <ele>54.43</ele>
        <time>2023-06-11T22:38:34.909Z</time>
      </trkpt>
      <trkpt lat="47.06236" lon="0.02034">
        <ele>54.47</ele>
        <time>2023-06-11T22:39:12.329Z</time>
      </trkpt>
      <trkpt lat="47.06229" lon="0.02025">
        <ele>54.46</ele>
        <time>2023-06-11T22:39:49.751Z</time>
      </trkpt>
      <trkpt lat="47.06226" lon="0.0202">
        <ele>54.43</ele>
        <time>2023-06-11T22:40:27.173Z</time>
      </trkpt>
      <trkpt lat="47.0622" lon="0.02029">
        <ele>54.38</ele>
        <time>2023-06-11T22:41:04.597Z</time>
      </trkpt>
      <trkpt lat="47.06214" lon="0.02039">
        <ele>54.24</ele>
        <time>2023-06-11T22:41:42.022Z</time>
      </trkpt>
      <trkpt lat="47.06202" lon="0.02058">
        <ele>53.9</ele>
        <time>2023-06-11T22:42:19.450Z</time>
      </trkpt>
      <trkpt lat="47.06196" lon="0.02068">
        <ele>53.78</ele>
        <time>2023-06-11T22:42:56.880Z</time>
      </trkpt>
      <trkpt lat="47.06196" lon="0.02068">
        <ele>53.78</ele>
        <time>2023-06-11T22:43:34.310Z</time>
      </trkpt>
      <trkpt lat="47.0619" lon="0.0206">
        <ele>53.75</ele>
        <time>2023-06-11T22:44:11.741Z</time>
      </trkpt>
      <trkpt lat="47.06183" lon="0.02051">
        <ele>53.81</ele>
        <time>2023-06-11T22:44:49.173Z</time>
      </trkpt>
      <trkpt lat="47.0618" lon="0.02047">
        <ele>53.88</ele>
        <time>2023-06-11T22:45:26.606Z</time>
      </trkpt>
      <trkpt lat="47.06176" lon="0.02043">
        <ele>53.97</ele>
        <time>2023-06-11T22:46:04.040Z</time>
      </trkpt>
      <trkpt lat="47.06168" lon="0.02032">
        <ele>54.24</ele>
        <time>2023-06-11T22:46:41.476Z</time>
      </trkpt>
      <trkpt lat="47.06166" lon="0.0203">
        <ele>54.3</ele>
        <time>2023-06-11T22:47:18.912Z</time>
      </trkpt>
      <trkpt lat="47.06152" lon="0.02015">
        <ele>55</ele>
        <time>2023-06-11T22:47:56.351Z</time>
      </trkpt>
      <trkpt lat="47.06137" lon="0.01999">
        <ele>55.58</ele>
        <time>2023-06-11T22:48:33.793Z</time>
      </trkpt>
      <trkpt lat="47.06146" lon="0.01978">
        <ele>56.12</ele>
        <time>2023-06-11T22:49:11.237Z</time>
      </trkpt>
      <trkpt lat="47.06158" lon="0.01951">
        <ele>56.08</ele>
        <time>2023-06-11T22:49:48.685Z</time>
      </trkpt>
      <trkpt lat="47.06166" lon="0.01934">
        <ele>56.08</ele>
        <time>2023-06-11T22:50:26.135Z</time>
      </trkpt>
      <trkpt lat="47.06163" lon="0.0193">
        <ele>56.08</ele>
        <time>2023-06-11T22:51:03.586Z</time>
      </trkpt>
      <trkpt lat="47.06157" lon="0.01921">
        <ele>56.09</ele>
        <time>2023-06-11T22:51:41.038Z</time>
      </trkpt>
      <trkpt lat="47.06151" lon="0.01911">
        <ele>56.14</ele>
        <time>2023-06-11T22:52:18.492Z</time>
      </trkpt>
      <trkpt lat="47.06138" lon="0.01893">
        <ele>56.33</ele>
        <time>2023-06-11T22:52:55.949Z</time>
      </trkpt>
      <trkpt lat="47.06127" lon="0.01876">
        <ele>56.46</ele>
        <time>2023-06-11T22:53:33.408Z</time>
      </trkpt>
      <trkpt lat="47.0612" lon="0.01864">
        <ele>56.56</ele>
        <time>2023-06-11T22:54:10.869Z</time>
      </trkpt>
      <trkpt lat="47.06114" lon="0.01855">
        <ele>56.66</ele>
        <time>2023-06-11T22:54:48.331Z</time>
      </trkpt>
      <trkpt lat="47.06105" lon="0.0184">
        <ele>56.83</ele>
        <time>2023-06-11T22:55:25.795Z</time>
      </trkpt>
      <trkpt lat="47.06081" lon="0.01802">
        <ele>57.35</ele>
        <time>2023-06-11T22:56:03.265Z</time>
      </trkpt>
      <trkpt lat="47.06066" lon="0.01777">
        <ele>57.59</ele>
        <time>2023-06-11T22:56:40.739Z</time>
      </trkpt>
      <trkpt lat="47.06021" lon="0.01705">
        <ele>58.42</ele>
        <time>2023-06-11T22:57:18.223Z</time>
      </trkpt>
      <trkpt lat="47.06012" lon="0.0169">
        <ele>58.57</ele>
        <time>2023-06-11T22:57:55.710Z</time>
      </trkpt>
      <trkpt lat="47.06003" lon="0.01676">
        <ele>58.01</ele>
        <time>2023-06-11T22:58:33.199Z</time>
      </trkpt>
      <trkpt lat="47.05997" lon="0.01666">
        <ele>57.66</ele>
        <time>2023-06-11T22:59:10.689Z</time>
      </trkpt>
      <trkpt lat="47.05994" lon="0.01661">
        <ele>57.51</ele>
        <time>2023-06-11T22:59:48.180Z</time>
      </trkpt>
      <trkpt lat="47.05988" lon="0.01652">
        <ele>57.24</ele>
        <time>2023-06-11T23:00:25.672Z</time>
      </trkpt>
      <trkpt lat="47.05988" lon="0.01652">
        <ele>57.24</ele>
        <time>2023-06-11T23:01:03.164Z</time>
      </trkpt>
      <trkpt lat="47.06003" lon="0.01619">
        <ele>57.35</ele>
        <time>2023-06-11T23:01:40.660Z</time>
      </trkpt>
      <trkpt lat="47.06007" lon="0.01608">
        <ele>57.43</ele>
        <time>2023-06-11T23:02:18.158Z</time>
      </trkpt>
      <trkpt lat="47.06015" lon="0.01591">
        <ele>57.66</ele>
        <time>2023-06-11T23:02:55.658Z</time>
      </trkpt>
      <trkpt lat="47.06017" lon="0.01586">
        <ele>57.77</ele>
        <time>2023-06-11T23:03:33.159Z</time>
      </trkpt>
      <trkpt lat="47.06039" lon="0.01537">
        <ele>58.91</ele>
        <time>2023-06-11T23:04:10.666Z</time>
      </trkpt>
      <trkpt lat="47.06046" lon="0.0152">
        <ele>59.37</ele>
        <time>2023-06-11T23:04:48.175Z</time>
      </trkpt>
      <trkpt lat="47.06053" lon="0.01504">
        <ele>59.91</ele>
        <time>2023-06-11T23:05:25.686Z</time>
      </trkpt>
      <trkpt lat="47.06065" lon="0.01477">
        <ele>60.89</ele>
        <time>2023-06-11T23:06:03.201Z</time>
      </trkpt>
      <trkpt lat="47.0608" lon="0.01444">
        <ele>62</ele>
        <time>2023-06-11T23:06:40.720Z</time>
      </trkpt>
      <trkpt lat="47.06084" lon="0.01433">
        <ele>62.34</ele>
        <time>2023-06-11T23:07:18.241Z</time>
      </trkpt>
      <trkpt lat="47.06089" lon="0.01422">
        <ele>62.61</ele>
        <time>2023-06-11T23:07:55.763Z</time>
      </trkpt>
      <trkpt lat="47.06096" lon="0.01405">
        <ele>63.51</ele>
        <time>2023-06-11T23:08:33.287Z</time>
      </trkpt>
      <trkpt lat="47.06106" lon="0.01383">
        <ele>64.63</ele>
        <time>2023-06-11T23:09:10.814Z</time>
      </trkpt>
      <trkpt lat="47.06111" lon="0.01373">
        <ele>65.15</ele>
        <time>2023-06-11T23:09:48.343Z</time>
      </trkpt>
      <trkpt lat="47.06113" lon="0.01367">
        <ele>65.39</ele>
        <time>2023-06-11T23:10:25.872Z</time>
      </trkpt>
      <trkpt lat="47.06118" lon="0.01356">
        <ele>65.82</ele>
        <time>2023-06-11T23:11:03.403Z</time>
      </trkpt>
      <trkpt lat="47.06125" lon="0.0134">
        <ele>66.35</ele>
        <time>2023-06-11T23:11:40.936Z</time>
      </trkpt>
      <trkpt lat="47.0613" lon="0.01329">
        <ele>66.63</ele>
        <time>2023-06-11T23:12:18.470Z</time>
      </trkpt>
      <trkpt lat="47.06132" lon="0.01323">
        <ele>66.75</ele>
        <time>2023-06-11T23:12:56.005Z</time>
      </trkpt>
      <trkpt lat="47.06135" lon="0.01318">
        <ele>66.84</ele>
        <time>2023-06-11T23:13:33.541Z</time>
      </trkpt>
      <trkpt lat="47.06137" lon="0.01312">
        <ele>66.91</ele>
        <time>2023-06-11T23:14:11.077Z</time>
      </trkpt>
      <trkpt lat="47.06142" lon="0.01301">
        <ele>66.96</ele>
        <time>2023-06-11T23:14:48.615Z</time>
      </trkpt>
      <trkpt lat="47.06147" lon="0.01291">
        <ele>67.26</ele>
        <time>2023-06-11T23:15:26.154Z</time>
      </trkpt>
      <trkpt lat="47.06155" lon="0.01272">
        <ele>67.56</ele>
        <time>2023-06-11T23:16:03.696Z</time>
      </trkpt>
      <trkpt lat="47.06157" lon="0.0127">
        <ele>67.61</ele>
        <time>2023-06-11T23:16:41.238Z</time>
      </trkpt>
      <trkpt lat="47.06159" lon="0.01266">
        <ele>67.68</ele>
        <time>2023-06-11T23:17:18.781Z</time>
      </trkpt>
      <trkpt lat="47.06164" lon="0.01262">
        <ele>67.81</ele>
        <time>2023-06-11T23:17:56.324Z</time>
      </trkpt>
      <trkpt lat="47.06163" lon="0.0125">
        <ele>67.99</ele>
        <time>2023-06-11T23:18:33.869Z</time>
      </trkpt>
      <trkpt lat="47.06162" lon="0.01243">
        <ele>68.1</ele>
        <time>2023-06-11T23:19:11.415Z</time>
      </trkpt>
      <trkpt lat="47.0616" lon="0.0123">
        <ele>68.34</ele>
        <time>2023-06-11T23:19:48.962Z</time>
      </trkpt>
      <trkpt lat="47.06159" lon="0.01224">
        <ele>68.48</ele>
        <time>2023-06-11T23:20:26.510Z</time>
      </trkpt>
      <trkpt lat="47.06157" lon="0.01211">
        <ele>68.79</ele>
        <time>2023-06-11T23:21:04.059Z</time>
      </trkpt>
      <trkpt lat="47.06153" lon="0.01179">
        <ele>69.61</ele>
        <time>2023-06-11T23:21:41.612Z</time>
      </trkpt>
      <trkpt lat="47.06151" lon="0.01166">
        <ele>69.89</ele>
        <time>2023-06-11T23:22:19.166Z</time>
      </trkpt>
      <trkpt lat="47.0615" lon="0.0116">
        <ele>70.01</ele>
        <time>2023-06-11T23:22:56.721Z</time>
      </trkpt>
      <trkpt lat="47.06148" lon="0.01147">
        <ele>70.19</ele>
        <time>2023-06-11T23:23:34.277Z</time>
      </trkpt>
      <trkpt lat="47.06146" lon="0.01134">
        <ele>70.33</ele>
        <time>2023-06-11T23:24:11.835Z</time>
      </trkpt>
      <trkpt lat="47.0614" lon="0.01096">
        <ele>70.6</ele>
        <time>2023-06-11T23:24:49.397Z</time>
      </trkpt>
      <trkpt lat="47.06137" lon="0.0107">
        <ele>70.76</ele>
        <time>2023-06-11T23:25:26.962Z</time>
      </trkpt>
      <trkpt lat="47.06135" lon="0.01057">
        <ele>70.88</ele>
        <time>2023-06-11T23:26:04.528Z</time>
      </trkpt>
      <trkpt lat="47.0613" lon="0.01025">
        <ele>71.22</ele>
        <time>2023-06-11T23:26:42.098Z</time>
      </trkpt>
      <trkpt lat="47.06128" lon="0.01013">
        <ele>71.33</ele>
        <time>2023-06-11T23:27:19.669Z</time>
      </trkpt>
      <trkpt lat="47.06123" lon="0.00974">
        <ele>71.52</ele>
        <time>2023-06-11T23:27:57.245Z</time>
      </trkpt>
      <trkpt lat="47.0612" lon="0.00955">
        <ele>71.67</ele>
        <time>2023-06-11T23:28:34.823Z</time>
      </trkpt>
      <trkpt lat="47.06115" lon="0.00923">
        <ele>72.02</ele>
        <time>2023-06-11T23:29:12.404Z</time>
      </trkpt>
      <trkpt lat="47.0611" lon="0.00891">
        <ele>72.26</ele>
        <time>2023-06-11T23:29:49.989Z</time>
      </trkpt>
      <trkpt lat="47.06105" lon="0.00852">
        <ele>72.62</ele>
        <time>2023-06-11T23:30:27.578Z</time>
      </trkpt>
      <trkpt lat="47.06103" lon="0.00839">
        <ele>72.77</ele>
        <time>2023-06-11T23:31:05.169Z</time>
      </trkpt>
      <trkpt lat="47.06097" lon="0.00801">
        <ele>73.3</ele>
        <time>2023-06-11T23:31:42.764Z</time>
      </trkpt>
      <trkpt lat="47.06094" lon="0.00781">
        <ele>73.52</ele>
        <time>2023-06-11T23:32:20.361Z</time>
      </trkpt>
      <trkpt lat="47.06092" lon="0.00768">
        <ele>73.62</ele>
        <time>2023-06-11T23:32:57.960Z</time>
      </trkpt>
      <trkpt lat="47.06089" lon="0.00743">
        <ele>73.71</ele>
        <time>2023-06-11T23:33:35.562Z</time>
      </trkpt>
      <trkpt lat="47.06087" lon="0.0073">
        <ele>73.78</ele>
        <time>2023-06-11T23:34:13.165Z</time>
      </trkpt>
      <trkpt lat="47.06086" lon="0.00724">
        <ele>73.84</ele>
        <time>2023-06-11T23:34:50.769Z</time>
      </trkpt>
      <trkpt lat="47.06082" lon="0.00698">
        <ele>74.13</ele>
        <time>2023-06-11T23:35:28.376Z</time>
      </trkpt>
      <trkpt lat="47.0608" lon="0.00685">
        <ele>74.23</ele>
        <time>2023-06-11T23:36:05.984Z</time>
      </trkpt>
      <trkpt lat="47.06078" lon="0.00673">
        <ele>74.05</ele>
        <time>2023-06-11T23:36:43.593Z</time>
      </trkpt>
      <trkpt lat="47.06078" lon="0.00666">
        <ele>73.98</ele>
        <time>2023-06-11T23:37:21.203Z</time>
      </trkpt>
      <trkpt lat="47.06077" lon="0.0066">
        <ele>73.93</ele>
        <time>2023-06-11T23:37:58.814Z</time>
      </trkpt>
      <trkpt lat="47.06075" lon="0.00649">
        <ele>73.88</ele>
        <time>2023-06-11T23:38:36.426Z</time>
      </trkpt>
      <trkpt lat="47.06075" lon="0.00647">
        <ele>73.88</ele>
        <time>2023-06-11T23:39:14.038Z</time>
      </trkpt>
      <trkpt lat="47.06076" lon="0.00634">
        <ele>73.85</ele>
        <time>2023-06-11T23:39:51.652Z</time>
      </trkpt>
      <trkpt lat="47.06065" lon="0.00616">
        <ele>73.8</ele>
        <time>2023-06-11T23:40:29.268Z</time>
      </trkpt>
      <trkpt lat="47.06061" lon="0.00611">
        <ele>73.79</ele>
        <time>2023-06-11T23:41:06.885Z</time>
      </trkpt>
      <trkpt lat="47.06058" lon="0.00607">
        <ele>73.79</ele>
        <time>2023-06-11T23:41:44.503Z</time>
      </trkpt>
      <trkpt lat="47.06045" lon="0.00589">
        <ele>73.87</ele>
        <time>2023-06-11T23:42:22.124Z</time>
      </trkpt>
      <trkpt lat="47.06041" lon="0.00585">
        <ele>73.87</ele>
        <time>2023-06-11T23:42:59.745Z</time>
      </trkpt>
      <trkpt lat="47.06035" lon="0.00577">
        <ele>73.84</ele>
        <time>2023-06-11T23:43:37.368Z</time>
      </trkpt>
      <trkpt lat="47.06015" lon="0.00551">
        <ele>73.66</ele>
        <time>2023-06-11T23:44:14.995Z</time>
      </trkpt>
      <trkpt lat="47.06008" lon="0.00542">
        <ele>73.62</ele>
        <time>2023-06-11T23:44:52.623Z</time>
      </trkpt>
      <trkpt lat="47.06002" lon="0.00534">
        <ele>73.63</ele>
        <time>2023-06-11T23:45:30.253Z</time>
      </trkpt>
      <trkpt lat="47.05992" lon="0.00521">
        <ele>73.69</ele>
        <time>2023-06-11T23:46:07.885Z</time>
      </trkpt>
      <trkpt lat="47.05989" lon="0.00516">
        <ele>73.69</ele>
        <time>2023-06-11T23:46:45.518Z</time>
      </trkpt>
      <trkpt lat="47.05982" lon="0.00508">
        <ele>73.64</ele>
        <time>2023-06-11T23:47:23.152Z</time>
      </trkpt>
      <trkpt lat="47.05972" lon="0.00495">
        <ele>73.49</ele>
        <time>2023-06-11T23:48:00.788Z</time>
      </trkpt>
      <trkpt lat="47.05966" lon="0.00486">
        <ele>73.42</ele>
        <time>2023-06-11T23:48:38.426Z</time>
      </trkpt>
      <trkpt lat="47.05959" lon="0.00478">
        <ele>73.39</ele>
        <time>2023-06-11T23:49:16.065Z</time>
      </trkpt>
      <trkpt lat="47.05942" lon="0.00456">
        <ele>73.4</ele>
        <time>2023-06-11T23:49:53.708Z</time>
      </trkpt>
      <trkpt lat="47.05927" lon="0.00436">
        <ele>73.46</ele>
        <time>2023-06-11T23:50:31.354Z</time>
      </trkpt>
      <trkpt lat="47.05921" lon="0.00433">
        <ele>73.48</ele>
        <time>2023-06-11T23:51:09.001Z</time>
      </trkpt>
      <trkpt lat="47.0593" lon="0.00419">
        <ele>73.52</ele>
        <time>2023-06-11T23:51:46.650Z</time>
      </trkpt>
      <trkpt lat="47.05952" lon="0.00386">
        <ele>73.86</ele>
        <time>2023-06-11T23:52:24.304Z</time>
      </trkpt>
      <trkpt lat="47.05971" lon="0.00358">
        <ele>74.19</ele>
        <time>2023-06-11T23:53:01.962Z</time>
      </trkpt>
      <trkpt lat="47.05987" lon="0.00335">
        <ele>74.35</ele>
        <time>2023-06-11T23:53:39.624Z</time>
      </trkpt>
      <trkpt lat="47.06003" lon="0.00311">
        <ele>74.42</ele>
        <time>2023-06-11T23:54:17.290Z</time>
      </trkpt>
      <trkpt lat="47.06009" lon="0.00302">
        <ele>74.38</ele>
        <time>2023-06-11T23:54:54.957Z</time>
      </trkpt>
      <trkpt lat="47.06016" lon="0.00291">
        <ele>74.24</ele>
        <time>2023-06-11T23:55:32.626Z</time>
      </trkpt>
      <trkpt lat="47.06023" lon="0.00277">
        <ele>74.08</ele>
        <time>2023-06-11T23:56:10.297Z</time>
      </trkpt>
      <trkpt lat="47.06031" lon="0.00262">
        <ele>73.98</ele>
        <time>2023-06-11T23:56:47.970Z</time>
      </trkpt>
      <trkpt lat="47.06033" lon="0.00255">
        <ele>73.94</ele>
        <time>2023-06-11T23:57:25.643Z</time>
      </trkpt>
      <trkpt lat="47.06041" lon="0.00231">
        <ele>73.68</ele>
        <time>2023-06-11T23:58:03.319Z</time>
      </trkpt>
      <trkpt lat="47.06063" lon="0.00167">
        <ele>73.24</ele>
        <time>2023-06-11T23:58:41.003Z</time>
      </trkpt>
      <trkpt lat="47.06065" lon="0.00161">
        <ele>73.37</ele>
        <time>2023-06-11T23:59:18.688Z</time>
      </trkpt>
      <trkpt lat="47.06067" lon="0.00155">
        <ele>73.47</ele>
        <time>2023-06-11T23:59:56.374Z</time>
      </trkpt>
      <trkpt lat="47.06069" lon="0.00149">
        <ele>73.52</ele>
        <time>2023-06-12T00:00:34.060Z</time>
      </trkpt>
      <trkpt lat="47.06071" lon="0.00143">
        <ele>73.52</ele>
        <time>2023-06-12T00:01:11.747Z</time>
      </trkpt>
      <trkpt lat="47.06079" lon="0.0012">
        <ele>73.36</ele>
        <time>2023-06-12T00:01:49.437Z</time>
      </trkpt>
      <trkpt lat="47.06081" lon="0.00114">
        <ele>73.27</ele>
        <time>2023-06-12T00:02:27.128Z</time>
      </trkpt>
      <trkpt lat="47.06083" lon="0.00108">
        <ele>73.1</ele>
        <time>2023-06-12T00:03:04.819Z</time>
      </trkpt>
      <trkpt lat="47.06089" lon="0.0009">
        <ele>72.35</ele>
        <time>2023-06-12T00:03:42.513Z</time>
      </trkpt>
      <trkpt lat="47.06091" lon="0.00084">
        <ele>72.19</ele>
        <time>2023-06-12T00:04:20.207Z</time>
      </trkpt>
      <trkpt lat="47.06093" lon="0.00078">
        <ele>72.11</ele>
        <time>2023-06-12T00:04:57.902Z</time>
      </trkpt>
      <trkpt lat="47.06095" lon="0.00072">
        <ele>72.11</ele>
        <time>2023-06-12T00:05:35.598Z</time>
      </trkpt>
      <trkpt lat="47.06099" lon="0.00061">
        <ele>72.19</ele>
        <time>2023-06-12T00:06:13.295Z</time>
      </trkpt>
      <trkpt lat="47.06101" lon="0.00055">
        <ele>72.21</ele>
        <time>2023-06-12T00:06:50.993Z</time>
      </trkpt>
      <trkpt lat="47.06103" lon="0.00049">
        <ele>72.18</ele>
        <time>2023-06-12T00:07:28.692Z</time>
      </trkpt>
      <trkpt lat="47.06105" lon="0.00043">
        <ele>72.11</ele>
        <time>2023-06-12T00:08:06.391Z</time>
      </trkpt>
      <trkpt lat="47.06113" lon="0.00019">
        <ele>71.72</ele>
        <time>2023-06-12T00:08:44.093Z</time>
      </trkpt>
      <trkpt lat="47.06115" lon="0.00013">
        <ele>71.6</ele>
        <time>2023-06-12T00:09:21.796Z</time>
      </trkpt>
      <trkpt lat="47.06117" lon="7.0E-5">
        <ele>71.45</ele>
        <time>2023-06-12T00:09:59.500Z</time>
      </trkpt>
      <trkpt lat="47.06125" lon="-0.00016">
        <ele>70.79</ele>
        <time>2023-06-12T00:10:37.207Z</time>
      </trkpt>
      <trkpt lat="47.06131" lon="-0.00034">
        <ele>70.24</ele>
        <time>2023-06-12T00:11:14.916Z</time>
      </trkpt>
      <trkpt lat="47.06138" lon="-0.00054">
        <ele>69.78</ele>
        <time>2023-06-12T00:11:52.627Z</time>
      </trkpt>
      <trkpt lat="47.06139" lon="-0.00057">
        <ele>69.71</ele>
        <time>2023-06-12T00:12:30.339Z</time>
      </trkpt>
      <trkpt lat="47.06141" lon="-0.00063">
        <ele>69.54</ele>
        <time>2023-06-12T00:13:08.051Z</time>
      </trkpt>
      <trkpt lat="47.06143" lon="-0.00069">
        <ele>69.34</ele>
        <time>2023-06-12T00:13:45.764Z</time>
      </trkpt>
      <trkpt lat="47.06145" lon="-0.00075">
        <ele>69.09</ele>
        <time>2023-06-12T00:14:23.478Z</time>
      </trkpt>
      <trkpt lat="47.06148" lon="-0.00087">
        <ele>68.47</ele>
        <time>2023-06-12T00:15:01.193Z</time>
      </trkpt>
      <trkpt lat="47.0615" lon="-0.00093">
        <ele>68.18</ele>
        <time>2023-06-12T00:15:38.909Z</time>
      </trkpt>
      <trkpt lat="47.06152" lon="-0.00099">
        <ele>67.98</ele>
        <time>2023-06-12T00:16:16.626Z</time>
      </trkpt>
      <trkpt lat="47.06154" lon="-0.00105">
        <ele>67.88</ele>
        <time>2023-06-12T00:16:54.343Z</time>
      </trkpt>
      <trkpt lat="47.06156" lon="-0.00111">
        <ele>67.87</ele>
        <time>2023-06-12T00:17:32.061Z</time>
      </trkpt>
      <trkpt lat="47.0616" lon="-0.00123">
        <ele>67.93</ele>
        <time>2023-06-12T00:18:09.781Z</time>
      </trkpt>
      <trkpt lat="47.06161" lon="-0.00129">
        <ele>67.9</ele>
        <time>2023-06-12T00:18:47.501Z</time>
      </trkpt>
      <trkpt lat="47.06163" lon="-0.00135">
        <ele>67.77</ele>
        <time>2023-06-12T00:19:25.222Z</time>
      </trkpt>
      <trkpt lat="47.06165" lon="-0.00141">
        <ele>67.55</ele>
        <time>2023-06-12T00:20:02.944Z</time>
      </trkpt>
      <trkpt lat="47.06169" lon="-0.00153">
        <ele>67</ele>
        <time>2023-06-12T00:20:40.667Z</time>
      </trkpt>
      <trkpt lat="47.06171" lon="-0.00159">
        <ele>66.79</ele>
        <time>2023-06-12T00:21:18.391Z</time>
      </trkpt>
      <trkpt lat="47.06173" lon="-0.00165">
        <ele>66.66</ele>
        <time>2023-06-12T00:21:56.116Z</time>
      </trkpt>
      <trkpt lat="47.06175" lon="-0.00171">
        <ele>66.59</ele>
        <time>2023-06-12T00:22:33.841Z</time>
      </trkpt>
      <trkpt lat="47.06178" lon="-0.00183">
        <ele>66.51</ele>
        <time>2023-06-12T00:23:11.568Z</time>
      </trkpt>
      <trkpt lat="47.0618" lon="-0.00189">
        <ele>66.44</ele>
        <time>2023-06-12T00:23:49.295Z</time>
      </trkpt>
      <trkpt lat="47.06182" lon="-0.00195">
        <ele>66.34</ele>
        <time>2023-06-12T00:24:27.023Z</time>
      </trkpt>
      <trkpt lat="47.06184" lon="-0.00201">
        <ele>66.2</ele>
        <time>2023-06-12T00:25:04.752Z</time>
      </trkpt>
      <trkpt lat="47.06188" lon="-0.00213">
        <ele>65.83</ele>
        <time>2023-06-12T00:25:42.482Z</time>
      </trkpt>
      <trkpt lat="47.06189" lon="-0.00219">
        <ele>65.68</ele>
        <time>2023-06-12T00:26:20.213Z</time>
      </trkpt>
      <trkpt lat="47.06191" lon="-0.00225">
        <ele>65.58</ele>
        <time>2023-06-12T00:26:57.945Z</time>
      </trkpt>
      <trkpt lat="47.06193" lon="-0.00231">
        <ele>65.51</ele>
        <time>2023-06-12T00:27:35.677Z</time>
      </trkpt>
      <trkpt lat="47.06199" lon="-0.00249">
        <ele>65.38</ele>
        <time>2023-06-12T00:28:13.412Z</time>
      </trkpt>
      <trkpt lat="47.06201" lon="-0.00256">
        <ele>65.3</ele>
        <time>2023-06-12T00:28:51.147Z</time>
      </trkpt>
      <trkpt lat="47.06201" lon="-0.00256">
        <ele>65.3</ele>
        <time>2023-06-12T00:29:28.882Z</time>
      </trkpt>
      <trkpt lat="47.06203" lon="-0.00261">
        <ele>65.18</ele>
        <time>2023-06-12T00:30:06.618Z</time>
      </trkpt>
      <trkpt lat="47.06214" lon="-0.00289">
        <ele>64.44</ele>
        <time>2023-06-12T00:30:44.358Z</time>
      </trkpt>
      <trkpt lat="47.06216" lon="-0.00295">
        <ele>64.32</ele>
        <time>2023-06-12T00:31:22.098Z</time>
      </trkpt>
      <trkpt lat="47.06218" lon="-0.00301">
        <ele>64.25</ele>
        <time>2023-06-12T00:31:59.839Z</time>
      </trkpt>
      <trkpt lat="47.06221" lon="-0.00306">
        <ele>64.26</ele>
        <time>2023-06-12T00:32:37.581Z</time>
      </trkpt>
      <trkpt lat="47.06223" lon="-0.00312">
        <ele>64.34</ele>
        <time>2023-06-12T00:33:15.324Z</time>
      </trkpt>
      <trkpt lat="47.06225" lon="-0.00318">
        <ele>64.44</ele>
        <time>2023-06-12T00:33:53.067Z</time>
      </trkpt>
      <trkpt lat="47.06227" lon="-0.00323">
        <ele>64.55</ele>
        <time>2023-06-12T00:34:30.811Z</time>
      </trkpt>
      <trkpt lat="47.0623" lon="-0.00329">
        <ele>64.63</ele>
        <time>2023-06-12T00:35:08.556Z</time>
      </trkpt>
      <trkpt lat="47.06239" lon="-0.00351">
        <ele>64.76</ele>
        <time>2023-06-12T00:35:46.304Z</time>
      </trkpt>
      <trkpt lat="47.06246" lon="-0.00368">
        <ele>64.8</ele>
        <time>2023-06-12T00:36:24.054Z</time>
      </trkpt>
      <trkpt lat="47.06263" lon="-0.00407">
        <ele>65.12</ele>
        <time>2023-06-12T00:37:01.809Z</time>
      </trkpt>
      <trkpt lat="47.06268" lon="-0.00419">
        <ele>65.13</ele>
        <time>2023-06-12T00:37:39.565Z</time>
      </trkpt>
      <trkpt lat="47.0627" lon="-0.00424">
        <ele>65.16</ele>
        <time>2023-06-12T00:38:17.322Z</time>
      </trkpt>
      <trkpt lat="47.06272" lon="-0.0043">
        <ele>65.24</ele>
        <time>2023-06-12T00:38:55.080Z</time>
      </trkpt>
      <trkpt lat="47.06275" lon="-0.00435">
        <ele>65.39</ele>
        <time>2023-06-12T00:39:32.838Z</time>
      </trkpt>
      <trkpt lat="47.06279" lon="-0.00446">
        <ele>65.84</ele>
        <time>2023-06-12T00:40:10.598Z</time>
      </trkpt>
      <trkpt lat="47.06284" lon="-0.00457">
        <ele>66.23</ele>
        <time>2023-06-12T00:40:48.359Z</time>
      </trkpt>
      <trkpt lat="47.06291" lon="-0.00473">
        <ele>66.76</ele>
        <time>2023-06-12T00:41:26.122Z</time>
      </trkpt>
      <trkpt lat="47.06294" lon="-0.00481">
        <ele>67</ele>
        <time>2023-06-12T00:42:03.886Z</time>
      </trkpt>
      <trkpt lat="47.06289" lon="-0.00487">
        <ele>67.25</ele>
        <time>2023-06-12T00:42:41.651Z</time>
      </trkpt>
      <trkpt lat="47.06273" lon="-0.00509">
        <ele>68.02</ele>
        <time>2023-06-12T00:43:19.420Z</time>
      </trkpt>
      <trkpt lat="47.06251" lon="-0.00538">
        <ele>68.9</ele>
        <time>2023-06-12T00:43:57.194Z</time>
      </trkpt>
      <trkpt lat="47.06238" lon="-0.00556">
        <ele>69.16</ele>
        <time>2023-06-12T00:44:34.970Z</time>
      </trkpt>
      <trkpt lat="47.06224" lon="-0.00574">
        <ele>69.53</ele>
        <time>2023-06-12T00:45:12.749Z</time>
      </trkpt>
      <trkpt lat="47.06218" lon="-0.00581">
        <ele>69.69</ele>
        <time>2023-06-12T00:45:50.530Z</time>
      </trkpt>
      <trkpt lat="47.06197" lon="-0.00606">
        <ele>70.16</ele>
        <time>2023-06-12T00:46:28.315Z</time>
      </trkpt>
      <trkpt lat="47.06184" lon="-0.00623">
        <ele>70.44</ele>
        <time>2023-06-12T00:47:06.103Z</time>
      </trkpt>
      <trkpt lat="47.06167" lon="-0.00643">
        <ele>70.82</ele>
        <time>2023-06-12T00:47:43.894Z</time>
      </trkpt>
      <trkpt lat="47.0616" lon="-0.00652">
        <ele>70.94</ele>
        <time>2023-06-12T00:48:21.687Z</time>
      </trkpt>
      <trkpt lat="47.06148" lon="-0.00666">
        <ele>71.1</ele>
        <time>2023-06-12T00:48:59.482Z</time>
      </trkpt>
      <trkpt lat="47.06146" lon="-0.00667">
        <ele>71.13</ele>
        <time>2023-06-12T00:49:37.278Z</time>
      </trkpt>
      <trkpt lat="47.06113" lon="-0.00692">
        <ele>71.64</ele>
        <time>2023-06-12T00:50:15.079Z</time>
      </trkpt>
      <trkpt lat="47.06107" lon="-0.00697">
        <ele>71.75</ele>
        <time>2023-06-12T00:50:52.882Z</time>
      </trkpt>
      <trkpt lat="47.06099" lon="-0.00703">
        <ele>71.84</ele>
        <time>2023-06-12T00:51:30.686Z</time>
      </trkpt>
      <trkpt lat="47.06098" lon="-0.00705">
        <ele>71.9</ele>
        <time>2023-06-12T00:52:08.490Z</time>
      </trkpt>
      <trkpt lat="47.06076" lon="-0.00723">
        <ele>71.98</ele>
        <time>2023-06-12T00:52:46.298Z</time>
      </trkpt>
      <trkpt lat="47.06067" lon="-0.0073">
        <ele>71.96</ele>
        <time>2023-06-12T00:53:24.108Z</time>
      </trkpt>
      <trkpt lat="47.06023" lon="-0.0076">
        <ele>71.91</ele>
        <time>2023-06-12T00:54:01.926Z</time>
      </trkpt>
      <trkpt lat="47.06017" lon="-0.00763">
        <ele>71.91</ele>
        <time>2023-06-12T00:54:39.745Z</time>
      </trkpt>
      <trkpt lat="47.06002" lon="-0.00772">
        <ele>71.94</ele>
        <time>2023-06-12T00:55:17.566Z</time>
      </trkpt>
      <trkpt lat="47.05973" lon="-0.00795">
        <ele>72.01</ele>
        <time>2023-06-12T00:55:55.393Z</time>
      </trkpt>
      <trkpt lat="47.05971" lon="-0.00797">
        <ele>72.02</ele>
        <time>2023-06-12T00:56:33.220Z</time>
      </trkpt>
      <trkpt lat="47.05956" lon="-0.00812">
        <ele>72.12</ele>
        <time>2023-06-12T00:57:11.050Z</time>
      </trkpt>
      <trkpt lat="47.05949" lon="-0.0082">
        <ele>72.12</ele>
        <time>2023-06-12T00:57:48.881Z</time>
      </trkpt>
      <trkpt lat="47.05948" lon="-0.00821">
        <ele>72.11</ele>
        <time>2023-06-12T00:58:26.712Z</time>
      </trkpt>
      <trkpt lat="47.05945" lon="-0.00823">
        <ele>72.09</ele>
        <time>2023-06-12T00:59:04.544Z</time>
      </trkpt>
      <trkpt lat="47.05929" lon="-0.00834">
        <ele>71.91</ele>
        <time>2023-06-12T00:59:42.379Z</time>
      </trkpt>
      <trkpt lat="47.05909" lon="-0.00848">
        <ele>71.72</ele>
        <time>2023-06-12T01:00:20.217Z</time>
      </trkpt>
      <trkpt lat="47.05902" lon="-0.00854">
        <ele>71.66</ele>
        <time>2023-06-12T01:00:58.057Z</time>
      </trkpt>
      <trkpt lat="47.05894" lon="-0.00859">
        <ele>71.52</ele>
        <time>2023-06-12T01:01:35.898Z</time>
      </trkpt>
      <trkpt lat="47.0589" lon="-0.00862">
        <ele>71.47</ele>
        <time>2023-06-12T01:02:13.740Z</time>
      </trkpt>
      <trkpt lat="47.05869" lon="-0.00876">
        <ele>71.42</ele>
        <time>2023-06-12T01:02:51.585Z</time>
      </trkpt>
      <trkpt lat="47.05868" lon="-0.00877">
        <ele>71.41</ele>
        <time>2023-06-12T01:03:29.431Z</time>
      </trkpt>
      <trkpt lat="47.05849" lon="-0.0089">
        <ele>71.29</ele>
        <time>2023-06-12T01:04:07.280Z</time>
      </trkpt>
      <trkpt lat="47.05841" lon="-0.00895">
        <ele>71.27</ele>
        <time>2023-06-12T01:04:45.130Z</time>
      </trkpt>
      <trkpt lat="47.05833" lon="-0.009">
        <ele>71.3</ele>
        <time>2023-06-12T01:05:22.982Z</time>
      </trkpt>
      <trkpt lat="47.05829" lon="-0.00903">
        <ele>71.34</ele>
        <time>2023-06-12T01:06:00.835Z</time>
      </trkpt>
      <trkpt lat="47.05805" lon="-0.00919">
        <ele>71.7</ele>
        <time>2023-06-12T01:06:38.692Z</time>
      </trkpt>
      <trkpt lat="47.05801" lon="-0.00922">
        <ele>71.78</ele>
        <time>2023-06-12T01:07:16.549Z</time>
      </trkpt>
      <trkpt lat="47.05797" lon="-0.00925">
        <ele>71.86</ele>
        <time>2023-06-12T01:07:54.407Z</time>
      </trkpt>
      <trkpt lat="47.05789" lon="-0.0093">
        <ele>72.08</ele>
        <time>2023-06-12T01:08:32.267Z</time>
      </trkpt>
      <trkpt lat="47.05769" lon="-0.00944">
        <ele>72.8</ele>
        <time>2023-06-12T01:09:10.130Z</time>
      </trkpt>
      <trkpt lat="47.05761" lon="-0.0095">
        <ele>73.05</ele>
        <time>2023-06-12T01:09:47.995Z</time>
      </trkpt>
      <trkpt lat="47.05753" lon="-0.00956">
        <ele>73.24</ele>
        <time>2023-06-12T01:10:25.861Z</time>
      </trkpt>
      <trkpt lat="47.05751" lon="-0.00957">
        <ele>73.28</ele>
        <time>2023-06-12T01:11:03.727Z</time>
      </trkpt>
      <trkpt lat="47.05742" lon="-0.00967">
        <ele>73.5</ele>
        <time>2023-06-12T01:11:41.595Z</time>
      </trkpt>
      <trkpt lat="47.05735" lon="-0.00975">
        <ele>73.74</ele>
        <time>2023-06-12T01:12:19.465Z</time>
      </trkpt>
      <trkpt lat="47.05731" lon="-0.00979">
        <ele>73.89</ele>
        <time>2023-06-12T01:12:57.335Z</time>
      </trkpt>
      <trkpt lat="47.05731" lon="-0.00979">
        <ele>73.89</ele>
        <time>2023-06-12T01:13:35.205Z</time>
      </trkpt>
      <trkpt lat="47.05728" lon="-0.00983">
        <ele>74.07</ele>
        <time>2023-06-12T01:14:13.076Z</time>
      </trkpt>
      <trkpt lat="47.05713" lon="-0.01007">
        <ele>75.13</ele>
        <time>2023-06-12T01:14:50.951Z</time>
      </trkpt>
      <trkpt lat="47.05688" lon="-0.01046">
        <ele>75.69</ele>
        <time>2023-06-12T01:15:28.831Z</time>
      </trkpt>
      <trkpt lat="47.05561" lon="-0.01272">
        <ele>78.77</ele>
        <time>2023-06-12T01:16:06.743Z</time>
      </trkpt>
      <trkpt lat="47.05556" lon="-0.01288">
        <ele>78.95</ele>
        <time>2023-06-12T01:16:44.657Z</time>
      </trkpt>
      <trkpt lat="47.05539" lon="-0.01404">
        <ele>80.2</ele>
        <time>2023-06-12T01:17:22.584Z</time>
      </trkpt>
      <trkpt lat="47.05521" lon="-0.01478">
        <ele>81.03</ele>
        <time>2023-06-12T01:18:00.520Z</time>
      </trkpt>
      <trkpt lat="47.05518" lon="-0.01491">
        <ele>81.25</ele>
        <time>2023-06-12T01:18:38.457Z</time>
      </trkpt>
      <trkpt lat="47.05512" lon="-0.01515">
        <ele>81.64</ele>
        <time>2023-06-12T01:19:16.397Z</time>
      </trkpt>
      <trkpt lat="47.05509" lon="-0.0153">
        <ele>81.9</ele>
        <time>2023-06-12T01:19:54.339Z</time>
      </trkpt>
      <trkpt lat="47.05507" lon="-0.0154">
        <ele>82.1</ele>
        <time>2023-06-12T01:20:32.282Z</time>
      </trkpt>
      <trkpt lat="47.05505" lon="-0.01547">
        <ele>82.2</ele>
        <time>2023-06-12T01:21:10.226Z</time>
      </trkpt>
      <trkpt lat="47.05495" lon="-0.01576">
        <ele>82.68</ele>
        <time>2023-06-12T01:21:48.173Z</time>
      </trkpt>
      <trkpt lat="47.05493" lon="-0.01581">
        <ele>82.8</ele>
        <time>2023-06-12T01:22:26.121Z</time>
      </trkpt>
      <trkpt lat="47.05486" lon="-0.01599">
        <ele>83.22</ele>
        <time>2023-06-12T01:23:04.071Z</time>
      </trkpt>
      <trkpt lat="47.05474" lon="-0.01633">
        <ele>83.93</ele>
        <time>2023-06-12T01:23:42.026Z</time>
      </trkpt>
      <trkpt lat="47.05471" lon="-0.01646">
        <ele>84.19</ele>
        <time>2023-06-12T01:24:19.982Z</time>
      </trkpt>
      <trkpt lat="47.05459" lon="-0.01688">
        <ele>85.19</ele>
        <time>2023-06-12T01:24:57.943Z</time>
      </trkpt>
      <trkpt lat="47.05456" lon="-0.01701">
        <ele>85.45</ele>
        <time>2023-06-12T01:25:35.906Z</time>
      </trkpt>
      <trkpt lat="47.05452" lon="-0.01713">
        <ele>85.68</ele>
        <time>2023-06-12T01:26:13.870Z</time>
      </trkpt>
      <trkpt lat="47.05446" lon="-0.01737">
        <ele>86.09</ele>
        <time>2023-06-12T01:26:51.837Z</time>
      </trkpt>
      <trkpt lat="47.05439" lon="-0.01762">
        <ele>86.58</ele>
        <time>2023-06-12T01:27:29.807Z</time>
      </trkpt>
      <trkpt lat="47.05436" lon="-0.01774">
        <ele>86.84</ele>
        <time>2023-06-12T01:28:07.778Z</time>
      </trkpt>
      <trkpt lat="47.05434" lon="-0.0178">
        <ele>87</ele>
        <time>2023-06-12T01:28:45.750Z</time>
      </trkpt>
      <trkpt lat="47.05428" lon="-0.01804">
        <ele>87.74</ele>
        <time>2023-06-12T01:29:23.725Z</time>
      </trkpt>
      <trkpt lat="47.05423" lon="-0.01823">
        <ele>88.2</ele>
        <time>2023-06-12T01:30:01.702Z</time>
      </trkpt>
      <trkpt lat="47.05419" lon="-0.01835">
        <ele>88.53</ele>
        <time>2023-06-12T01:30:39.680Z</time>
      </trkpt>
      <trkpt lat="47.05418" lon="-0.01841">
        <ele>88.72</ele>
        <time>2023-06-12T01:31:17.659Z</time>
      </trkpt>
      <trkpt lat="47.05416" lon="-0.01847">
        <ele>88.94</ele>
        <time>2023-06-12T01:31:55.639Z</time>
      </trkpt>
      <trkpt lat="47.05412" lon="-0.01862">
        <ele>89.52</ele>
        <time>2023-06-12T01:32:33.620Z</time>
      </trkpt>
      <trkpt lat="47.05405" lon="-0.01875">
        <ele>90.14</ele>
        <time>2023-06-12T01:33:11.603Z</time>
      </trkpt>
      <trkpt lat="47.05389" lon="-0.01907">
        <ele>91.5</ele>
        <time>2023-06-12T01:33:49.591Z</time>
      </trkpt>
      <trkpt lat="47.05381" lon="-0.01923">
        <ele>92.21</ele>
        <time>2023-06-12T01:34:27.581Z</time>
      </trkpt>
      <trkpt lat="47.0537" lon="-0.01944">
        <ele>93.08</ele>
        <time>2023-06-12T01:35:05.574Z</time>
      </trkpt>
      <trkpt lat="47.05354" lon="-0.01975">
        <ele>94.6</ele>
        <time>2023-06-12T01:35:43.571Z</time>
      </trkpt>
      <trkpt lat="47.05352" lon="-0.01981">
        <ele>94.82</ele>
        <time>2023-06-12T01:36:21.569Z</time>
      </trkpt>
      <trkpt lat="47.05349" lon="-0.01986">
        <ele>95.02</ele>
        <time>2023-06-12T01:36:59.567Z</time>
      </trkpt>
      <trkpt lat="47.0533" lon="-0.02023">
        <ele>96.25</ele>
        <time>2023-06-12T01:37:37.570Z</time>
      </trkpt>
      <trkpt lat="47.05314" lon="-0.02054">
        <ele>97.16</ele>
        <time>2023-06-12T01:38:15.578Z</time>
      </trkpt>
      <trkpt lat="47.05303" lon="-0.02076">
        <ele>97.84</ele>
        <time>2023-06-12T01:38:53.589Z</time>
      </trkpt>
      <trkpt lat="47.05303" lon="-0.02076">
        <ele>97.84</ele>
        <time>2023-06-12T01:39:31.600Z</time>
      </trkpt>
      <trkpt lat="47.05302" lon="-0.02081">
        <ele>97.95</ele>
        <time>2023-06-12T01:40:09.611Z</time>
      </trkpt>
      <trkpt lat="47.053" lon="-0.02088">
        <ele>97.97</ele>
        <time>2023-06-12T01:40:47.623Z</time>
      </trkpt>
      <trkpt lat="47.05299" lon="-0.02094">
        <ele>97.88</ele>
        <time>2023-06-12T01:41:25.636Z</time>
      </trkpt>
      <trkpt lat="47.05298" lon="-0.021">
        <ele>97.72</ele>
        <time>2023-06-12T01:42:03.649Z</time>
      </trkpt>
      <trkpt lat="47.05296" lon="-0.02106">
        <ele>97.88</ele>
        <time>2023-06-12T01:42:41.663Z</time>
      </trkpt>
      <trkpt lat="47.05295" lon="-0.02112">
        <ele>98.01</ele>
        <time>2023-06-12T01:43:19.678Z</time>
      </trkpt>
      <trkpt lat="47.05293" lon="-0.02119">
        <ele>98.08</ele>
        <time>2023-06-12T01:43:57.694Z</time>
      </trkpt>
      <trkpt lat="47.05288" lon="-0.02143">
        <ele>98.1</ele>
        <time>2023-06-12T01:44:35.712Z</time>
      </trkpt>
      <trkpt lat="47.05286" lon="-0.02152">
        <ele>98.14</ele>
        <time>2023-06-12T01:45:13.731Z</time>
      </trkpt>
      <trkpt lat="47.05283" lon="-0.02151">
        <ele>98.17</ele>
        <time>2023-06-12T01:45:51.751Z</time>
      </trkpt>
      <trkpt lat="47.05248" lon="-0.02141">
        <ele>98.64</ele>
        <time>2023-06-12T01:46:29.777Z</time>
      </trkpt>
      <trkpt lat="47.05247" lon="-0.02141">
        <ele>98.66</ele>
        <time>2023-06-12T01:47:07.803Z</time>
      </trkpt>
      <trkpt lat="47.05244" lon="-0.02139">
        <ele>98.73</ele>
        <time>2023-06-12T01:47:45.829Z</time>
      </trkpt>
      <trkpt lat="47.05232" lon="-0.02132">
        <ele>99.1</ele>
        <time>2023-06-12T01:48:23.857Z</time>
      </trkpt>
      <trkpt lat="47.05227" lon="-0.02129">
        <ele>99.18</ele>
        <time>2023-06-12T01:49:01.886Z</time>
      </trkpt>
      <trkpt lat="47.0522" lon="-0.02125">
        <ele>99.26</ele>
        <time>2023-06-12T01:49:39.916Z</time>
      </trkpt>
      <trkpt lat="47.05211" lon="-0.02118">
        <ele>99.37</ele>
        <time>2023-06-12T01:50:17.948Z</time>
      </trkpt>
      <trkpt lat="47.05199" lon="-0.02109">
        <ele>99.56</ele>
        <time>2023-06-12T01:50:55.982Z</time>
      </trkpt>
      <trkpt lat="47.05191" lon="-0.02103">
        <ele>99.74</ele>
        <time>2023-06-12T01:51:34.018Z</time>
      </trkpt>
      <trkpt lat="47.05183" lon="-0.02097">
        <ele>99.98</ele>
        <time>2023-06-12T01:52:12.055Z</time>
      </trkpt>
      <trkpt lat="47.05179" lon="-0.02094">
        <ele>100.07</ele>
        <time>2023-06-12T01:52:50.093Z</time>
      </trkpt>
      <trkpt lat="47.05175" lon="-0.02091">
        <ele>100.13</ele>
        <time>2023-06-12T01:53:28.132Z</time>
      </trkpt>
      <trkpt lat="47.05156" lon="-0.02076">
        <ele>100.28</ele>
        <time>2023-06-12T01:54:06.174Z</time>
      </trkpt>
      <trkpt lat="47.0514" lon="-0.02064">
        <ele>100.34</ele>
        <time>2023-06-12T01:54:44.219Z</time>
      </trkpt>
      <trkpt lat="47.05128" lon="-0.02055">
        <ele>100.51</ele>
        <time>2023-06-12T01:55:22.266Z</time>
      </trkpt>
      <trkpt lat="47.05124" lon="-0.02052">
        <ele>100.52</ele>
        <time>2023-06-12T01:56:00.314Z</time>
      </trkpt>
      <trkpt lat="47.0512" lon="-0.02049">
        <ele>100.46</ele>
        <time>2023-06-12T01:56:38.363Z</time>
      </trkpt>
      <trkpt lat="47.05112" lon="-0.02043">
        <ele>100.23</ele>
        <time>2023-06-12T01:57:16.413Z</time>
      </trkpt>
      <trkpt lat="47.05108" lon="-0.0204">
        <ele>100.14</ele>
        <time>2023-06-12T01:57:54.464Z</time>
      </trkpt>
      <trkpt lat="47.05104" lon="-0.02037">
        <ele>100.1</ele>
        <time>2023-06-12T01:58:32.515Z</time>
      </trkpt>
      <trkpt lat="47.05092" lon="-0.02028">
        <ele>100.16</ele>
        <time>2023-06-12T01:59:10.569Z</time>
      </trkpt>
      <trkpt lat="47.05088" lon="-0.02025">
        <ele>100.12</ele>
        <time>2023-06-12T01:59:48.623Z</time>
      </trkpt>
      <trkpt lat="47.05076" lon="-0.02016">
        <ele>99.89</ele>
        <time>2023-06-12T02:00:26.679Z</time>
      </trkpt>
      <trkpt lat="47.05064" lon="-0.02007">
        <ele>99.61</ele>
        <time>2023-06-12T02:01:04.738Z</time>
      </trkpt>
      <trkpt lat="47.0506" lon="-0.02004">
        <ele>99.55</ele>
        <time>2023-06-12T02:01:42.797Z</time>
      </trkpt>
      <trkpt lat="47.05056" lon="-0.02001">
        <ele>99.52</ele>
        <time>2023-06-12T02:02:20.857Z</time>
      </trkpt>
      <trkpt lat="47.05048" lon="-0.01995">
        <ele>99.49</ele>
        <time>2023-06-12T02:02:58.918Z</time>
      </trkpt>
      <trkpt lat="47.05032" lon="-0.01983">
        <ele>99.51</ele>
        <time>2023-06-12T02:03:36.982Z</time>
      </trkpt>
      <trkpt lat="47.05029" lon="-0.0198">
        <ele>99.53</ele>
        <time>2023-06-12T02:04:15.047Z</time>
      </trkpt>
      <trkpt lat="47.05025" lon="-0.01977">
        <ele>99.59</ele>
        <time>2023-06-12T02:04:53.113Z</time>
      </trkpt>
      <trkpt lat="47.05021" lon="-0.01974">
        <ele>99.67</ele>
        <time>2023-06-12T02:05:31.179Z</time>
      </trkpt>
      <trkpt lat="47.05013" lon="-0.01968">
        <ele>99.43</ele>
        <time>2023-06-12T02:06:09.247Z</time>
      </trkpt>
      <trkpt lat="47.05005" lon="-0.01962">
        <ele>99.16</ele>
        <time>2023-06-12T02:06:47.316Z</time>
      </trkpt>
      <trkpt lat="47.04997" lon="-0.01956">
        <ele>98.84</ele>
        <time>2023-06-12T02:07:25.387Z</time>
      </trkpt>
      <trkpt lat="47.04988" lon="-0.01949">
        <ele>98.41</ele>
        <time>2023-06-12T02:08:03.459Z</time>
      </trkpt>
      <trkpt lat="47.04985" lon="-0.01938">
        <ele>98.08</ele>
        <time>2023-06-12T02:08:41.533Z</time>
      </trkpt>
      <trkpt lat="47.04983" lon="-0.01932">
        <ele>97.88</ele>
        <time>2023-06-12T02:09:19.607Z</time>
      </trkpt>
      <trkpt lat="47.04981" lon="-0.01926">
        <ele>97.65</ele>
        <time>2023-06-12T02:09:57.682Z</time>
      </trkpt>
      <trkpt lat="47.04977" lon="-0.01914">
        <ele>97.12</ele>
        <time>2023-06-12T02:10:35.758Z</time>
      </trkpt>
      <trkpt lat="47.04972" lon="-0.01896">
        <ele>96.27</ele>
        <time>2023-06-12T02:11:13.837Z</time>
      </trkpt>
      <trkpt lat="47.0497" lon="-0.0189">
        <ele>95.96</ele>
        <time>2023-06-12T02:11:51.916Z</time>
      </trkpt>
      <trkpt lat="47.04964" lon="-0.01872">
        <ele>94.94</ele>
        <time>2023-06-12T02:12:29.998Z</time>
      </trkpt>
      <trkpt lat="47.04962" lon="-0.01866">
        <ele>94.64</ele>
        <time>2023-06-12T02:13:08.080Z</time>
      </trkpt>
      <trkpt lat="47.04957" lon="-0.01848">
        <ele>93.82</ele>
        <time>2023-06-12T02:13:46.164Z</time>
      </trkpt>
      <trkpt lat="47.04955" lon="-0.01842">
        <ele>93.52</ele>
        <time>2023-06-12T02:14:24.249Z</time>
      </trkpt>
      <trkpt lat="47.0495" lon="-0.01824">
        <ele>92.54</ele>
        <time>2023-06-12T02:15:02.336Z</time>
      </trkpt>
      <trkpt lat="47.04948" lon="-0.01818">
        <ele>92.24</ele>
        <time>2023-06-12T02:15:40.424Z</time>
      </trkpt>
      <trkpt lat="47.04942" lon="-0.018">
        <ele>91.51</ele>
        <time>2023-06-12T02:16:18.514Z</time>
      </trkpt>
      <trkpt lat="47.04937" lon="-0.01782">
        <ele>90.75</ele>
        <time>2023-06-12T02:16:56.606Z</time>
      </trkpt>
      <trkpt lat="47.04935" lon="-0.01776">
        <ele>90.51</ele>
        <time>2023-06-12T02:17:34.699Z</time>
      </trkpt>
      <trkpt lat="47.04933" lon="-0.0177">
        <ele>90.31</ele>
        <time>2023-06-12T02:18:12.793Z</time>
      </trkpt>
      <trkpt lat="47.04931" lon="-0.01764">
        <ele>90.15</ele>
        <time>2023-06-12T02:18:50.887Z</time>
      </trkpt>
      <trkpt lat="47.04929" lon="-0.01759">
        <ele>90.02</ele>
        <time>2023-06-12T02:19:28.982Z</time>
      </trkpt>
      <trkpt lat="47.04918" lon="-0.01723">
        <ele>89.35</ele>
        <time>2023-06-12T02:20:07.081Z</time>
      </trkpt>
      <trkpt lat="47.04914" lon="-0.01711">
        <ele>89.23</ele>
        <time>2023-06-12T02:20:45.182Z</time>
      </trkpt>
      <trkpt lat="47.04909" lon="-0.01693">
        <ele>89.16</ele>
        <time>2023-06-12T02:21:23.285Z</time>
      </trkpt>
      <trkpt lat="47.04903" lon="-0.01675">
        <ele>89</ele>
        <time>2023-06-12T02:22:01.390Z</time>
      </trkpt>
      <trkpt lat="47.049" lon="-0.01663">
        <ele>88.93</ele>
        <time>2023-06-12T02:22:39.497Z</time>
      </trkpt>
      <trkpt lat="47.04896" lon="-0.01651">
        <ele>88.68</ele>
        <time>2023-06-12T02:23:17.605Z</time>
      </trkpt>
      <trkpt lat="47.04893" lon="-0.01641">
        <ele>88.48</ele>
        <time>2023-06-12T02:23:55.714Z</time>
      </trkpt>
      <trkpt lat="47.04893" lon="-0.01639">
        <ele>88.45</ele>
        <time>2023-06-12T02:24:33.824Z</time>
      </trkpt>
      <trkpt lat="47.04892" lon="-0.01633">
        <ele>88.36</ele>
        <time>2023-06-12T02:25:11.934Z</time>
      </trkpt>
      <trkpt lat="47.04889" lon="-0.0162">
        <ele>88.22</ele>
        <time>2023-06-12T02:25:50.046Z</time>
      </trkpt>
      <trkpt lat="47.04887" lon="-0.01607">
        <ele>88.11</ele>
        <time>2023-06-12T02:26:28.159Z</time>
      </trkpt>
      <trkpt lat="47.04885" lon="-0.01595">
        <ele>88.03</ele>
        <time>2023-06-12T02:27:06.273Z</time>
      </trkpt>
      <trkpt lat="47.04883" lon="-0.01582">
        <ele>88</ele>
        <time>2023-06-12T02:27:44.389Z</time>
      </trkpt>
      <trkpt lat="47.0488" lon="-0.0157">
        <ele>88.03</ele>
        <time>2023-06-12T02:28:22.506Z</time>
      </trkpt>
      <trkpt lat="47.04878" lon="-0.01557">
        <ele>88.03</ele>
        <time>2023-06-12T02:29:00.625Z</time>
      </trkpt>
      <trkpt lat="47.04876" lon="-0.01544">
        <ele>88.06</ele>
        <time>2023-06-12T02:29:38.745Z</time>
      </trkpt>
      <trkpt lat="47.04869" lon="-0.01506">
        <ele>88.24</ele>
        <time>2023-06-12T02:30:16.870Z</time>
      </trkpt>
      <trkpt lat="47.04867" lon="-0.01493">
        <ele>88.34</ele>
        <time>2023-06-12T02:30:54.996Z</time>
      </trkpt>
      <trkpt lat="47.04865" lon="-0.01487">
        <ele>88.39</ele>
        <time>2023-06-12T02:31:33.123Z</time>
      </trkpt>
      <trkpt lat="47.04854" lon="-0.01458">
        <ele>88.7</ele>
        <time>2023-06-12T02:32:11.253Z</time>
      </trkpt>
      <trkpt lat="47.0485" lon="-0.01447">
        <ele>88.77</ele>
        <time>2023-06-12T02:32:49.385Z</time>
      </trkpt>
      <trkpt lat="47.04837" lon="-0.01412">
        <ele>88.83</ele>
        <time>2023-06-12T02:33:27.521Z</time>
      </trkpt>
      <trkpt lat="47.04833" lon="-0.01401">
        <ele>88.81</ele>
        <time>2023-06-12T02:34:05.659Z</time>
      </trkpt>
      <trkpt lat="47.0483" lon="-0.01395">
        <ele>88.77</ele>
        <time>2023-06-12T02:34:43.797Z</time>
      </trkpt>
      <trkpt lat="47.04826" lon="-0.01383">
        <ele>88.64</ele>
        <time>2023-06-12T02:35:21.937Z</time>
      </trkpt>
      <trkpt lat="47.04822" lon="-0.01372">
        <ele>88.47</ele>
        <time>2023-06-12T02:36:00.078Z</time>
      </trkpt>
      <trkpt lat="47.04818" lon="-0.0136">
        <ele>88.25</ele>
        <time>2023-06-12T02:36:38.221Z</time>
      </trkpt>
      <trkpt lat="47.04816" lon="-0.01356">
        <ele>88.16</ele>
        <time>2023-06-12T02:37:16.364Z</time>
      </trkpt>
      <trkpt lat="47.04809" lon="-0.01345">
        <ele>87.88</ele>
        <time>2023-06-12T02:37:54.509Z</time>
      </trkpt>
      <trkpt lat="47.04794" lon="-0.01321">
        <ele>87.43</ele>
        <time>2023-06-12T02:38:32.657Z</time>
      </trkpt>
      <trkpt lat="47.04786" lon="-0.01309">
        <ele>87.1</ele>
        <time>2023-06-12T02:39:10.807Z</time>
      </trkpt>
      <trkpt lat="47.0478" lon="-0.01295">
        <ele>86.78</ele>
        <time>2023-06-12T02:39:48.959Z</time>
      </trkpt>
      <trkpt lat="47.04775" lon="-0.01284">
        <ele>86.57</ele>
        <time>2023-06-12T02:40:27.112Z</time>
      </trkpt>
      <trkpt lat="47.04773" lon="-0.01278">
        <ele>86.48</ele>
        <time>2023-06-12T02:41:05.266Z</time>
      </trkpt>
      <trkpt lat="47.04761" lon="-0.0125">
        <ele>86.16</ele>
        <time>2023-06-12T02:41:43.424Z</time>
      </trkpt>
      <trkpt lat="47.04757" lon="-0.01239">
        <ele>86.01</ele>
        <time>2023-06-12T02:42:21.583Z</time>
      </trkpt>
      <trkpt lat="47.04742" lon="-0.01205">
        <ele>85.44</ele>
        <time>2023-06-12T02:42:59.746Z</time>
      </trkpt>
      <trkpt lat="47.04742" lon="-0.01204">
        <ele>85.42</ele>
        <time>2023-06-12T02:43:37.910Z</time>
      </trkpt>
      <trkpt lat="47.04741" lon="-0.01187">
        <ele>85.19</ele>
        <time>2023-06-12T02:44:16.075Z</time>
      </trkpt>
      <trkpt lat="47.04746" lon="-0.01174">
        <ele>85.01</ele>
        <time>2023-06-12T02:44:54.242Z</time>
      </trkpt>
      <trkpt lat="47.0475" lon="-0.01162">
        <ele>84.9</ele>
        <time>2023-06-12T02:45:32.410Z</time>
      </trkpt>
      <trkpt lat="47.04752" lon="-0.01156">
        <ele>84.88</ele>
        <time>2023-06-12T02:46:10.579Z</time>
      </trkpt>
      <trkpt lat="47.04756" lon="-0.01145">
        <ele>84.9</ele>
        <time>2023-06-12T02:46:48.750Z</time>
      </trkpt>
      <trkpt lat="47.04764" lon="-0.01121">
        <ele>84.98</ele>
        <time>2023-06-12T02:47:26.924Z</time>
      </trkpt>
      <trkpt lat="47.0477" lon="-0.01104">
        <ele>84.68</ele>
        <time>2023-06-12T02:48:05.100Z</time>
      </trkpt>
      <trkpt lat="47.04776" lon="-0.01086">
        <ele>84.46</ele>
        <time>2023-06-12T02:48:43.278Z</time>
      </trkpt>
      <trkpt lat="47.0478" lon="-0.01075">
        <ele>84.37</ele>
        <time>2023-06-12T02:49:21.457Z</time>
      </trkpt>
      <trkpt lat="47.04781" lon="-0.01073">
        <ele>84.36</ele>
        <time>2023-06-12T02:49:59.636Z</time>
      </trkpt>
      <trkpt lat="47.04778" lon="-0.0107">
        <ele>84.35</ele>
        <time>2023-06-12T02:50:37.816Z</time>
      </trkpt>
      <trkpt lat="47.04768" lon="-0.01058">
        <ele>84.34</ele>
        <time>2023-06-12T02:51:15.998Z</time>
      </trkpt>
      <trkpt lat="47.04761" lon="-0.0105">
        <ele>84.26</ele>
        <time>2023-06-12T02:51:54.182Z</time>
      </trkpt>
      <trkpt lat="47.0475" lon="-0.01038">
        <ele>84</ele>
        <time>2023-06-12T02:52:32.368Z</time>
      </trkpt>
      <trkpt lat="47.04738" lon="-0.01024">
        <ele>83.74</ele>
        <time>2023-06-12T02:53:10.556Z</time>
      </trkpt>
      <trkpt lat="47.04733" lon="-0.01016">
        <ele>83.63</ele>
        <time>2023-06-12T02:53:48.745Z</time>
      </trkpt>
      <trkpt lat="47.04727" lon="-0.01006">
        <ele>83.52</ele>
        <time>2023-06-12T02:54:26.936Z</time>
      </trkpt>
      <trkpt lat="47.04718" lon="-0.00991">
        <ele>83.4</ele>
        <time>2023-06-12T02:55:05.129Z</time>
      </trkpt>
      <trkpt lat="47.04716" lon="-0.00986">
        <ele>83.34</ele>
        <time>2023-06-12T02:55:43.323Z</time>
      </trkpt>
      <trkpt lat="47.0471" lon="-0.00976">
        <ele>83.16</ele>
        <time>2023-06-12T02:56:21.518Z</time>
      </trkpt>
      <trkpt lat="47.04701" lon="-0.00962">
        <ele>82.84</ele>
        <time>2023-06-12T02:56:59.715Z</time>
      </trkpt>
      <trkpt lat="47.04701" lon="-0.00961">
        <ele>82.84</ele>
        <time>2023-06-12T02:57:37.912Z</time>
      </trkpt>
      <trkpt lat="47.04699" lon="-0.00956">
        <ele>82.7</ele>
        <time>2023-06-12T02:58:16.110Z</time>
      </trkpt>
      <trkpt lat="47.04692" lon="-0.00938">
        <ele>82.21</ele>
        <time>2023-06-12T02:58:54.310Z</time>
      </trkpt>
      <trkpt lat="47.0469" lon="-0.00932">
        <ele>82.1</ele>
        <time>2023-06-12T02:59:32.511Z</time>
      </trkpt>
      <trkpt lat="47.04688" lon="-0.00927">
        <ele>82.01</ele>
        <time>2023-06-12T03:00:10.713Z</time>
      </trkpt>
      <trkpt lat="47.04682" lon="-0.00909">
        <ele>81.82</ele>
        <time>2023-06-12T03:00:48.917Z</time>
      </trkpt>
      <trkpt lat="47.04678" lon="-0.00897">
        <ele>81.78</ele>
        <time>2023-06-12T03:01:27.122Z</time>
      </trkpt>
      <trkpt lat="47.04676" lon="-0.00892">
        <ele>81.81</ele>
        <time>2023-06-12T03:02:05.328Z</time>
      </trkpt>
      <trkpt lat="47.04671" lon="-0.0088">
        <ele>81.92</ele>
        <time>2023-06-12T03:02:43.535Z</time>
      </trkpt>
      <trkpt lat="47.0467" lon="-0.00876">
        <ele>81.94</ele>
        <time>2023-06-12T03:03:21.743Z</time>
      </trkpt>
      <trkpt lat="47.04669" lon="-0.00874">
        <ele>81.95</ele>
        <time>2023-06-12T03:03:59.951Z</time>
      </trkpt>
      <trkpt lat="47.04658" lon="-0.00846">
        <ele>81.95</ele>
        <time>2023-06-12T03:04:38.163Z</time>
      </trkpt>
      <trkpt lat="47.04651" lon="-0.00829">
        <ele>81.86</ele>
        <time>2023-06-12T03:05:16.377Z</time>
      </trkpt>
      <trkpt lat="47.04642" lon="-0.00806">
        <ele>81.52</ele>
        <time>2023-06-12T03:05:54.594Z</time>
      </trkpt>
      <trkpt lat="47.04635" lon="-0.00789">
        <ele>81.3</ele>
        <time>2023-06-12T03:06:32.813Z</time>
      </trkpt>
      <trkpt lat="47.04632" lon="-0.00781">
        <ele>81.21</ele>
        <time>2023-06-12T03:07:11.033Z</time>
      </trkpt>
      <trkpt lat="47.04628" lon="-0.00778">
        <ele>81.15</ele>
        <time>2023-06-12T03:07:49.254Z</time>
      </trkpt>
      <trkpt lat="47.04611" lon="-0.00761">
        <ele>80.89</ele>
        <time>2023-06-12T03:08:27.478Z</time>
      </trkpt>
      <trkpt lat="47.04596" lon="-0.00746">
        <ele>80.71</ele>
        <time>2023-06-12T03:09:05.705Z</time>
      </trkpt>
      <trkpt lat="47.04594" lon="-0.00744">
        <ele>80.67</ele>
        <time>2023-06-12T03:09:43.932Z</time>
      </trkpt>
      <trkpt lat="47.04589" lon="-0.00738">
        <ele>80.58</ele>
        <time>2023-06-12T03:10:22.160Z</time>
      </trkpt>
      <trkpt lat="47.04579" lon="-0.00725">
        <ele>80.32</ele>
        <time>2023-06-12T03:11:00.390Z</time>
      </trkpt>
      <trkpt lat="47.04573" lon="-0.00716">
        <ele>80.15</ele>
        <time>2023-06-12T03:11:38.622Z</time>
      </trkpt>
      <trkpt lat="47.04566" lon="-0.00706">
        <ele>79.98</ele>
        <time>2023-06-12T03:12:16.855Z</time>
      </trkpt>
      <trkpt lat="47.04563" lon="-0.00701">
        <ele>79.91</ele>
        <time>2023-06-12T03:12:55.089Z</time>
      </trkpt>
      <trkpt lat="47.04558" lon="-0.00692">
        <ele>79.56</ele>
        <time>2023-06-12T03:13:33.324Z</time>
      </trkpt>
      <trkpt lat="47.04552" lon="-0.00681">
        <ele>79.28</ele>
        <time>2023-06-12T03:14:11.561Z</time>
      </trkpt>
      <trkpt lat="47.04546" lon="-0.00672">
        <ele>79.1</ele>
        <time>2023-06-12T03:14:49.799Z</time>
      </trkpt>
      <trkpt lat="47.04543" lon="-0.00666">
        <ele>79.05</ele>
        <time>2023-06-12T03:15:28.038Z</time>
      </trkpt>
      <trkpt lat="47.0454" lon="-0.00661">
        <ele>79.03</ele>
        <time>2023-06-12T03:16:06.278Z</time>
      </trkpt>
      <trkpt lat="47.04539" lon="-0.00659">
        <ele>79.03</ele>
        <time>2023-06-12T03:16:44.518Z</time>
      </trkpt>
      <trkpt lat="47.04534" lon="-0.00666">
        <ele>79.04</ele>
        <time>2023-06-12T03:17:22.759Z</time>
      </trkpt>
      <trkpt lat="47.04522" lon="-0.00685">
        <ele>79.09</ele>
        <time>2023-06-12T03:18:01.003Z</time>
      </trkpt>
      <trkpt lat="47.04513" lon="-0.007">
        <ele>79.18</ele>
        <time>2023-06-12T03:18:39.249Z</time>
      </trkpt>
      <trkpt lat="47.0451" lon="-0.00705">
        <ele>79.23</ele>
        <time>2023-06-12T03:19:17.496Z</time>
      </trkpt>
      <trkpt lat="47.04502" lon="-0.00719">
        <ele>79.42</ele>
        <time>2023-06-12T03:19:55.745Z</time>
      </trkpt>
      <trkpt lat="47.04494" lon="-0.00731">
        <ele>79.55</ele>
        <time>2023-06-12T03:20:33.996Z</time>
      </trkpt>
      <trkpt lat="47.04485" lon="-0.00741">
        <ele>79.69</ele>
        <time>2023-06-12T03:21:12.249Z</time>
      </trkpt>
      <trkpt lat="47.04478" lon="-0.00749">
        <ele>79.82</ele>
        <time>2023-06-12T03:21:50.503Z</time>
      </trkpt>
      <trkpt lat="47.04474" lon="-0.00753">
        <ele>79.91</ele>
        <time>2023-06-12T03:22:28.758Z</time>
      </trkpt>
      <trkpt lat="47.04471" lon="-0.00756">
        <ele>80.03</ele>
        <time>2023-06-12T03:23:07.013Z</time>
      </trkpt>
      <trkpt lat="47.04467" lon="-0.0076">
        <ele>80.17</ele>
        <time>2023-06-12T03:23:45.269Z</time>
      </trkpt>
      <trkpt lat="47.04453" lon="-0.00776">
        <ele>80.83</ele>
        <time>2023-06-12T03:24:23.528Z</time>
      </trkpt>
      <trkpt lat="47.04449" lon="-0.0078">
        <ele>81.01</ele>
        <time>2023-06-12T03:25:01.788Z</time>
      </trkpt>
      <trkpt lat="47.04442" lon="-0.00788">
        <ele>81.43</ele>
        <time>2023-06-12T03:25:40.049Z</time>
      </trkpt>
      <trkpt lat="47.04425" lon="-0.00807">
        <ele>82.6</ele>
        <time>2023-06-12T03:26:18.314Z</time>
      </trkpt>
      <trkpt lat="47.04421" lon="-0.00811">
        <ele>82.79</ele>
        <time>2023-06-12T03:26:56.579Z</time>
      </trkpt>
      <trkpt lat="47.0441" lon="-0.00823">
        <ele>83.26</ele>
        <time>2023-06-12T03:27:34.846Z</time>
      </trkpt>
      <trkpt lat="47.044" lon="-0.00834">
        <ele>83.74</ele>
        <time>2023-06-12T03:28:13.115Z</time>
      </trkpt>
      <trkpt lat="47.0439" lon="-0.00845">
        <ele>84.13</ele>
        <time>2023-06-12T03:28:51.387Z</time>
      </trkpt>
      <trkpt lat="47.04383" lon="-0.00853">
        <ele>84.44</ele>
        <time>2023-06-12T03:29:29.660Z</time>
      </trkpt>
      <trkpt lat="47.0438" lon="-0.00856">
        <ele>84.61</ele>
        <time>2023-06-12T03:30:07.934Z</time>
      </trkpt>
      <trkpt lat="47.04376" lon="-0.00859">
        <ele>84.82</ele>
        <time>2023-06-12T03:30:46.208Z</time>
      </trkpt>
      <trkpt lat="47.04369" lon="-0.00865">
        <ele>85.26</ele>
        <time>2023-06-12T03:31:24.484Z</time>
      </trkpt>
      <trkpt lat="47.04366" lon="-0.00868">
        <ele>85.52</ele>
        <time>2023-06-12T03:32:02.760Z</time>
      </trkpt>
      <trkpt lat="47.04362" lon="-0.0087">
        <ele>85.81</ele>
        <time>2023-06-12T03:32:41.037Z</time>
      </trkpt>
      <trkpt lat="47.04355" lon="-0.00876">
        <ele>86.43</ele>
        <time>2023-06-12T03:33:19.315Z</time>
      </trkpt>
      <trkpt lat="47.04351" lon="-0.00875">
        <ele>86.76</ele>
        <time>2023-06-12T03:33:57.594Z</time>
      </trkpt>
      <trkpt lat="47.04349" lon="-0.00874">
        <ele>86.83</ele>
        <time>2023-06-12T03:34:35.873Z</time>
      </trkpt>
      <trkpt lat="47.04346" lon="-0.00858">
        <ele>87.29</ele>
        <time>2023-06-12T03:35:14.154Z</time>
      </trkpt>
      <trkpt lat="47.04345" lon="-0.00851">
        <ele>87.49</ele>
        <time>2023-06-12T03:35:52.436Z</time>
      </trkpt>
      <trkpt lat="47.04344" lon="-0.00845">
        <ele>87.72</ele>
        <time>2023-06-12T03:36:30.718Z</time>
      </trkpt>
      <trkpt lat="47.04343" lon="-0.00838">
        <ele>87.99</ele>
        <time>2023-06-12T03:37:09.001Z</time>
      </trkpt>
      <trkpt lat="47.04343" lon="-0.00832">
        <ele>88.31</ele>
        <time>2023-06-12T03:37:47.285Z</time>
      </trkpt>
      <trkpt lat="47.04342" lon="-0.00825">
        <ele>88.71</ele>
        <time>2023-06-12T03:38:25.570Z</time>
      </trkpt>
      <trkpt lat="47.04341" lon="-0.00822">
        <ele>88.94</ele>
        <time>2023-06-12T03:39:03.855Z</time>
      </trkpt>
      <trkpt lat="47.04339" lon="-0.00822">
        <ele>89.17</ele>
        <time>2023-06-12T03:39:42.140Z</time>
      </trkpt>
      <trkpt lat="47.04334" lon="-0.00823">
        <ele>89.7</ele>
        <time>2023-06-12T03:40:20.426Z</time>
      </trkpt>
      <trkpt lat="47.04321" lon="-0.00826">
        <ele>91.43</ele>
        <time>2023-06-12T03:40:58.714Z</time>
      </trkpt>
      <trkpt lat="47.04317" lon="-0.00827">
        <ele>91.94</ele>
        <time>2023-06-12T03:41:37.003Z</time>
      </trkpt>
      <trkpt lat="47.04312" lon="-0.00829">
        <ele>92.38</ele>
        <time>2023-06-12T03:42:15.293Z</time>
      </trkpt>
      <trkpt lat="47.0431" lon="-0.00829">
        <ele>92.57</ele>
        <time>2023-06-12T03:42:53.583Z</time>
      </trkpt>
      <trkpt lat="47.04308" lon="-0.00829">
        <ele>92.77</ele>
        <time>2023-06-12T03:43:31.873Z</time>
      </trkpt>
      <trkpt lat="47.04303" lon="-0.00829">
        <ele>93.12</ele>
        <time>2023-06-12T03:44:10.164Z</time>
      </trkpt>
      <trkpt lat="47.04296" lon="-0.00829">
        <ele>93.66</ele>
        <time>2023-06-12T03:44:48.456Z</time>
      </trkpt>
      <trkpt lat="47.04289" lon="-0.00825">
        <ele>94.23</ele>
        <time>2023-06-12T03:45:26.749Z</time>
      </trkpt>
      <trkpt lat="47.04277" lon="-0.0083">
        <ele>95.15</ele>
        <time>2023-06-12T03:46:05.044Z</time>
      </trkpt>
      <trkpt lat="47.04273" lon="-0.00832">
        <ele>95.51</ele>
        <time>2023-06-12T03:46:43.340Z</time>
      </trkpt>
      <trkpt lat="47.04269" lon="-0.00834">
        <ele>95.9</ele>
        <time>2023-06-12T03:47:21.637Z</time>
      </trkpt>
      <trkpt lat="47.04261" lon="-0.00837">
        <ele>96.67</ele>
        <time>2023-06-12T03:47:59.935Z</time>
      </trkpt>
      <trkpt lat="47.0426" lon="-0.00837">
        <ele>96.77</ele>
        <time>2023-06-12T03:48:38.233Z</time>
      </trkpt>
      <trkpt lat="47.04247" lon="-0.00831">
        <ele>98.26</ele>
        <time>2023-06-12T03:49:16.533Z</time>
      </trkpt>
      <trkpt lat="47.04243" lon="-0.00829">
        <ele>98.68</ele>
        <time>2023-06-12T03:49:54.834Z</time>
      </trkpt>
      <trkpt lat="47.04239" lon="-0.00827">
        <ele>99.01</ele>
        <time>2023-06-12T03:50:33.136Z</time>
      </trkpt>
      <trkpt lat="47.04235" lon="-0.00825">
        <ele>99.23</ele>
        <time>2023-06-12T03:51:11.438Z</time>
      </trkpt>
      <trkpt lat="47.04225" lon="-0.00826">
        <ele>99.79</ele>
        <time>2023-06-12T03:51:49.742Z</time>
      </trkpt>
      <trkpt lat="47.04221" lon="-0.00826">
        <ele>100.09</ele>
        <time>2023-06-12T03:52:28.047Z</time>
      </trkpt>
      <trkpt lat="47.04216" lon="-0.00827">
        <ele>100.44</ele>
        <time>2023-06-12T03:53:06.352Z</time>
      </trkpt>
      <trkpt lat="47.04212" lon="-0.00827">
        <ele>100.83</ele>
        <time>2023-06-12T03:53:44.658Z</time>
      </trkpt>
      <trkpt lat="47.04194" lon="-0.00829">
        <ele>102.5</ele>
        <time>2023-06-12T03:54:22.967Z</time>
      </trkpt>
      <trkpt lat="47.0419" lon="-0.00828">
        <ele>102.92</ele>
        <time>2023-06-12T03:55:01.277Z</time>
      </trkpt>
      <trkpt lat="47.04181" lon="-0.00826">
        <ele>103.68</ele>
        <time>2023-06-12T03:55:39.588Z</time>
      </trkpt>
      <trkpt lat="47.04176" lon="-0.00825">
        <ele>104.04</ele>
        <time>2023-06-12T03:56:17.900Z</time>
      </trkpt>
      <trkpt lat="47.04172" lon="-0.00822">
        <ele>104.37</ele>
        <time>2023-06-12T03:56:56.213Z</time>
      </trkpt>
      <trkpt lat="47.04167" lon="-0.00817">
        <ele>104.83</ele>
        <time>2023-06-12T03:57:34.527Z</time>
      </trkpt>
      <trkpt lat="47.04157" lon="-0.00817">
        <ele>105.58</ele>
        <time>2023-06-12T03:58:12.842Z</time>
      </trkpt>
      <trkpt lat="47.04151" lon="-0.0082">
        <ele>106.05</ele>
        <time>2023-06-12T03:58:51.158Z</time>
      </trkpt>
      <trkpt lat="47.04148" lon="-0.00822">
        <ele>106.28</ele>
        <time>2023-06-12T03:59:29.475Z</time>
      </trkpt>
      <trkpt lat="47.04139" lon="-0.00821">
        <ele>106.89</ele>
        <time>2023-06-12T04:00:07.793Z</time>
      </trkpt>
      <trkpt lat="47.04134" lon="-0.00819">
        <ele>107.27</ele>
        <time>2023-06-12T04:00:46.112Z</time>
      </trkpt>
      <trkpt lat="47.04128" lon="-0.00817">
        <ele>107.69</ele>
        <time>2023-06-12T04:01:24.432Z</time>
      </trkpt>
      <trkpt lat="47.04125" lon="-0.00818">
        <ele>107.93</ele>
        <time>2023-06-12T04:02:02.752Z</time>
      </trkpt>
      <trkpt lat="47.04117" lon="-0.00823">
        <ele>108.68</ele>
        <time>2023-06-12T04:02:41.074Z</time>
      </trkpt>
      <trkpt lat="47.04112" lon="-0.00825">
        <ele>109.11</ele>
        <time>2023-06-12T04:03:19.397Z</time>
      </trkpt>
      <trkpt lat="47.04094" lon="-0.00828">
        <ele>110.72</ele>
        <time>2023-06-12T04:03:57.723Z</time>
      </trkpt>
      <trkpt lat="47.04091" lon="-0.00829">
        <ele>111.01</ele>
        <time>2023-06-12T04:04:36.049Z</time>
      </trkpt>
      <trkpt lat="47.04085" lon="-0.00829">
        <ele>111.49</ele>
        <time>2023-06-12T04:05:14.376Z</time>
      </trkpt>
      <trkpt lat="47.04076" lon="-0.0083">
        <ele>112.21</ele>
        <time>2023-06-12T04:05:52.704Z</time>
      </trkpt>
      <trkpt lat="47.04072" lon="-0.0083">
        <ele>112.53</ele>
        <time>2023-06-12T04:06:31.033Z</time>
      </trkpt>
      <trkpt lat="47.04072" lon="-0.0083">
        <ele>112.53</ele>
        <time>2023-06-12T04:07:09.362Z</time>
      </trkpt>
      <trkpt lat="47.04068" lon="-0.00832">
        <ele>112.82</ele>
        <time>2023-06-12T04:07:47.692Z</time>
      </trkpt>
      <trkpt lat="47.04038" lon="-0.00847">
        <ele>114.49</ele>
        <time>2023-06-12T04:08:26.027Z</time>
      </trkpt>
      <trkpt lat="47.04034" lon="-0.00849">
        <ele>114.71</ele>
        <time>2023-06-12T04:09:04.363Z</time>
      </trkpt>
      <trkpt lat="47.04029" lon="-0.00851">
        <ele>114.9</ele>
        <time>2023-06-12T04:09:42.699Z</time>
      </trkpt>
      <trkpt lat="47.04029" lon="-0.00851">
        <ele>114.9</ele>
        <time>2023-06-12T04:10:21.035Z</time>
      </trkpt>
      <trkpt lat="47.04025" lon="-0.0085">
        <ele>115.06</ele>
        <time>2023-06-12T04:10:59.372Z</time>
      </trkpt>
      <trkpt lat="47.04016" lon="-0.00846">
        <ele>115.3</ele>
        <time>2023-06-12T04:11:37.710Z</time>
      </trkpt>
      <trkpt lat="47.04012" lon="-0.00845">
        <ele>115.38</ele>
        <time>2023-06-12T04:12:16.049Z</time>
      </trkpt>
      <trkpt lat="47.04003" lon="-0.00841">
        <ele>115.44</ele>
        <time>2023-06-12T04:12:54.390Z</time>
      </trkpt>
      <trkpt lat="47.03997" lon="-0.00839">
        <ele>115.42</ele>
        <time>2023-06-12T04:13:32.732Z</time>
      </trkpt>
      <trkpt lat="47.03991" lon="-0.00843">
        <ele>115.4</ele>
        <time>2023-06-12T04:14:11.075Z</time>
      </trkpt>
      <trkpt lat="47.03987" lon="-0.00846">
        <ele>115.36</ele>
        <time>2023-06-12T04:14:49.418Z</time>
      </trkpt>
      <trkpt lat="47.03983" lon="-0.00843">
        <ele>115.32</ele>
        <time>2023-06-12T04:15:27.762Z</time>
      </trkpt>
      <trkpt lat="47.03983" lon="-0.00842">
        <ele>115.32</ele>
        <time>2023-06-12T04:16:06.106Z</time>
      </trkpt>
      <trkpt lat="47.03983" lon="-0.00834">
        <ele>115.23</ele>
        <time>2023-06-12T04:16:44.451Z</time>
      </trkpt>
      <trkpt lat="47.03984" lon="-0.00829">
        <ele>115.19</ele>
        <time>2023-06-12T04:17:22.797Z</time>
      </trkpt>
      <trkpt lat="47.03987" lon="-0.00817">
        <ele>115.01</ele>
        <time>2023-06-12T04:18:01.144Z</time>
      </trkpt>
      <trkpt lat="47.03988" lon="-0.00812">
        <ele>114.9</ele>
        <time>2023-06-12T04:18:39.492Z</time>
      </trkpt>
      <trkpt lat="47.03991" lon="-0.00806">
        <ele>114.75</ele>
        <time>2023-06-12T04:19:17.841Z</time>
      </trkpt>
      <trkpt lat="47.03994" lon="-0.00801">
        <ele>114.57</ele>
        <time>2023-06-12T04:19:56.190Z</time>
      </trkpt>
      <trkpt lat="47.03995" lon="-0.008">
        <ele>114.52</ele>
        <time>2023-06-12T04:20:34.539Z</time>
      </trkpt>
      <trkpt lat="47.04001" lon="-0.00778">
        <ele>113.76</ele>
        <time>2023-06-12T04:21:12.891Z</time>
      </trkpt>
      <trkpt lat="47.04003" lon="-0.00764">
        <ele>113.29</ele>
        <time>2023-06-12T04:21:51.245Z</time>
      </trkpt>
      <trkpt lat="47.04004" lon="-0.00757">
        <ele>113.05</ele>
        <time>2023-06-12T04:22:29.599Z</time>
      </trkpt>
      <trkpt lat="47.04006" lon="-0.00751">
        <ele>112.84</ele>
        <time>2023-06-12T04:23:07.954Z</time>
      </trkpt>
      <trkpt lat="47.04009" lon="-0.0074">
        <ele>112.48</ele>
        <time>2023-06-12T04:23:46.310Z</time>
      </trkpt>
      <trkpt lat="47.04009" lon="-0.00739">
        <ele>112.48</ele>
        <time>2023-06-12T04:24:24.666Z</time>
      </trkpt>
      <trkpt lat="47.04008" lon="-0.00726">
        <ele>112.17</ele>
        <time>2023-06-12T04:25:03.024Z</time>
      </trkpt>
      <trkpt lat="47.04005" lon="-0.00699">
        <ele>111.59</ele>
        <time>2023-06-12T04:25:41.385Z</time>
      </trkpt>
      <trkpt lat="47.04005" lon="-0.00699">
        <ele>111.59</ele>
        <time>2023-06-12T04:26:19.746Z</time>
      </trkpt>
      <trkpt lat="47.04002" lon="-0.00681">
        <ele>111.08</ele>
        <time>2023-06-12T04:26:58.109Z</time>
      </trkpt>
      <trkpt lat="47.04" lon="-0.00675">
        <ele>110.93</ele>
        <time>2023-06-12T04:27:36.473Z</time>
      </trkpt>
      <trkpt lat="47.03999" lon="-0.00668">
        <ele>110.8</ele>
        <time>2023-06-12T04:28:14.837Z</time>
      </trkpt>
      <trkpt lat="47.03997" lon="-0.00655">
        <ele>110.64</ele>
        <time>2023-06-12T04:28:53.203Z</time>
      </trkpt>
      <trkpt lat="47.03993" lon="-0.00636">
        <ele>110.49</ele>
        <time>2023-06-12T04:29:31.571Z</time>
      </trkpt>
      <trkpt lat="47.0399" lon="-0.00621">
        <ele>110.34</ele>
        <time>2023-06-12T04:30:09.941Z</time>
      </trkpt>
      <trkpt lat="47.03989" lon="-0.00611">
        <ele>110.25</ele>
        <time>2023-06-12T04:30:48.312Z</time>
      </trkpt>
      <trkpt lat="47.03989" lon="-0.00602">
        <ele>110.22</ele>
        <time>2023-06-12T04:31:26.684Z</time>
      </trkpt>
      <trkpt lat="47.03988" lon="-0.00598">
        <ele>110.21</ele>
        <time>2023-06-12T04:32:05.056Z</time>
      </trkpt>
      <trkpt lat="47.03983" lon="-0.00563">
        <ele>110.21</ele>
        <time>2023-06-12T04:32:43.432Z</time>
      </trkpt>
      <trkpt lat="47.03981" lon="-0.0056">
        <ele>110.21</ele>
        <time>2023-06-12T04:33:21.809Z</time>
      </trkpt>
      <trkpt lat="47.03976" lon="-0.0055">
        <ele>110.29</ele>
        <time>2023-06-12T04:34:00.187Z</time>
      </trkpt>
      <trkpt lat="47.03968" lon="-0.00536">
        <ele>110.46</ele>
        <time>2023-06-12T04:34:38.567Z</time>
      </trkpt>
      <trkpt lat="47.03967" lon="-0.00534">
        <ele>110.49</ele>
        <time>2023-06-12T04:35:16.947Z</time>
      </trkpt>
      <trkpt lat="47.03961" lon="-0.00516">
        <ele>110.73</ele>
        <time>2023-06-12T04:35:55.329Z</time>
      </trkpt>
      <trkpt lat="47.03955" lon="-0.00498">
        <ele>111.03</ele>
        <time>2023-06-12T04:36:33.714Z</time>
      </trkpt>
      <trkpt lat="47.03955" lon="-0.00498">
        <ele>111.03</ele>
        <time>2023-06-12T04:37:12.099Z</time>
      </trkpt>
      <trkpt lat="47.03942" lon="-0.00472">
        <ele>110.63</ele>
        <time>2023-06-12T04:37:50.487Z</time>
      </trkpt>
      <trkpt lat="47.03935" lon="-0.00464">
        <ele>110.47</ele>
        <time>2023-06-12T04:38:28.877Z</time>
      </trkpt>
      <trkpt lat="47.03928" lon="-0.00464">
        <ele>110.35</ele>
        <time>2023-06-12T04:39:07.268Z</time>
      </trkpt>
      <trkpt lat="47.03921" lon="-0.00478">
        <ele>110.14</ele>
        <time>2023-06-12T04:39:45.661Z</time>
      </trkpt>
      <trkpt lat="47.0391" lon="-0.00485">
        <ele>109.93</ele>
        <time>2023-06-12T04:40:24.056Z</time>
      </trkpt>
      <trkpt lat="47.03888" lon="-0.00496">
        <ele>109.53</ele>
        <time>2023-06-12T04:41:02.454Z</time>
      </trkpt>
      <trkpt lat="47.03829" lon="-0.00519">
        <ele>108.46</ele>
        <time>2023-06-12T04:41:40.862Z</time>
      </trkpt>
      <trkpt lat="47.03818" lon="-0.0053">
        <ele>108.22</ele>
        <time>2023-06-12T04:42:19.272Z</time>
      </trkpt>
      <trkpt lat="47.03811" lon="-0.00546">
        <ele>108</ele>
        <time>2023-06-12T04:42:57.684Z</time>
      </trkpt>
      <trkpt lat="47.03811" lon="-0.00563">
        <ele>107.79</ele>
        <time>2023-06-12T04:43:36.098Z</time>
      </trkpt>
      <trkpt lat="47.0382" lon="-0.00593">
        <ele>107.4</ele>
        <time>2023-06-12T04:44:14.516Z</time>
      </trkpt>
      <trkpt lat="47.03823" lon="-0.00629">
        <ele>106.97</ele>
        <time>2023-06-12T04:44:52.938Z</time>
      </trkpt>
      <trkpt lat="47.03816" lon="-0.00638">
        <ele>106.81</ele>
        <time>2023-06-12T04:45:31.361Z</time>
      </trkpt>
      <trkpt lat="47.0379" lon="-0.00661">
        <ele>106.27</ele>
        <time>2023-06-12T04:46:09.789Z</time>
      </trkpt>
      <trkpt lat="47.03783" lon="-0.00659">
        <ele>106.15</ele>
        <time>2023-06-12T04:46:48.218Z</time>
      </trkpt>
      <trkpt lat="47.03784" lon="-0.00651">
        <ele>106.05</ele>
        <time>2023-06-12T04:47:26.648Z</time>
      </trkpt>
      <trkpt lat="47.03793" lon="-0.00636">
        <ele>105.81</ele>
        <time>2023-06-12T04:48:05.080Z</time>
      </trkpt>
      <trkpt lat="47.03792" lon="-0.00629">
        <ele>105.73</ele>
        <time>2023-06-12T04:48:43.513Z</time>
      </trkpt>
      <trkpt lat="47.03785" lon="-0.00625">
        <ele>105.6</ele>
        <time>2023-06-12T04:49:21.947Z</time>
      </trkpt>
      <trkpt lat="47.03767" lon="-0.00623">
        <ele>105.28</ele>
        <time>2023-06-12T04:50:00.384Z</time>
      </trkpt>
      <trkpt lat="47.03758" lon="-0.00617">
        <ele>105.11</ele>
        <time>2023-06-12T04:50:38.823Z</time>
      </trkpt>
      <trkpt lat="47.03748" lon="-0.00604">
        <ele>104.87</ele>
        <time>2023-06-12T04:51:17.264Z</time>
      </trkpt>
      <trkpt lat="47.03723" lon="-0.00598">
        <ele>104.43</ele>
        <time>2023-06-12T04:51:55.709Z</time>
      </trkpt>
      <trkpt lat="47.03717" lon="-0.00593">
        <ele>104.31</ele>
        <time>2023-06-12T04:52:34.155Z</time>
      </trkpt>
      <trkpt lat="47.03718" lon="-0.00576">
        <ele>104.1</ele>
        <time>2023-06-12T04:53:12.603Z</time>
      </trkpt>
      <trkpt lat="47.03725" lon="-0.00561">
        <ele>103.89</ele>
        <time>2023-06-12T04:53:51.053Z</time>
      </trkpt>
      <trkpt lat="47.03744" lon="-0.00559">
        <ele>103.55</ele>
        <time>2023-06-12T04:54:29.506Z</time>
      </trkpt>
      <trkpt lat="47.03748" lon="-0.0056">
        <ele>103.48</ele>
        <time>2023-06-12T04:55:07.960Z</time>
      </trkpt>
      <trkpt lat="47.03748" lon="-0.0056">
        <ele>111.19</ele>
        <time>2023-06-12T04:55:46.414Z</time>
      </trkpt>
      <trkpt lat="47.03759" lon="-0.00561">
        <ele>112.44</ele>
        <time>2023-06-12T04:56:24.869Z</time>
      </trkpt>
      <trkpt lat="47.03763" lon="-0.00564">
        <ele>112.96</ele>
        <time>2023-06-12T04:57:03.325Z</time>
      </trkpt>
      <trkpt lat="47.03769" lon="-0.00568">
        <ele>112.96</ele>
        <time>2023-06-12T04:57:41.782Z</time>
      </trkpt>
      <trkpt lat="47.03771" lon="-0.00566">
        <ele>112.96</ele>
        <time>2023-06-12T04:58:20.240Z</time>
      </trkpt>
      <trkpt lat="47.03778" lon="-0.00561">
        <ele>111.71</ele>
        <time>2023-06-12T04:58:58.699Z</time>
      </trkpt>
      <trkpt lat="47.03778" lon="-0.00559">
        <ele>111.44</ele>
        <time>2023-06-12T04:59:37.158Z</time>
      </trkpt>
      <trkpt lat="47.03779" lon="-0.00554">
        <ele>110.77</ele>
        <time>2023-06-12T05:00:15.618Z</time>
      </trkpt>
      <trkpt lat="47.03786" lon="-0.00556">
        <ele>109.39</ele>
        <time>2023-06-12T05:00:54.079Z</time>
      </trkpt>
      <trkpt lat="47.03794" lon="-0.00559">
        <ele>109.62</ele>
        <time>2023-06-12T05:01:32.541Z</time>
      </trkpt>
      <trkpt lat="47.03793" lon="-0.0056">
        <ele>109.66</ele>
        <time>2023-06-12T05:02:11.003Z</time>
      </trkpt>
      <trkpt lat="47.03784" lon="-0.00566">
        <ele>107.91</ele>
        <time>2023-06-12T05:02:49.467Z</time>
      </trkpt>
      <trkpt lat="47.03777" lon="-0.00571">
        <ele>107.98</ele>
        <time>2023-06-12T05:03:27.932Z</time>
      </trkpt>
      <trkpt lat="47.03773" lon="-0.00577">
        <ele>108.04</ele>
        <time>2023-06-12T05:04:06.398Z</time>
      </trkpt>
      <trkpt lat="47.03764" lon="-0.00589">
        <ele>107.05</ele>
        <time>2023-06-12T05:04:44.866Z</time>
      </trkpt>
      <trkpt lat="47.03762" lon="-0.00591">
        <ele>107.05</ele>
        <time>2023-06-12T05:05:23.334Z</time>
      </trkpt>
      <trkpt lat="47.03756" lon="-0.00602">
        <ele>107.05</ele>
        <time>2023-06-12T05:06:01.804Z</time>
      </trkpt>
      <trkpt lat="47.03756" lon="-0.00602">
        <ele>107.05</ele>
        <time>2023-06-12T05:06:40.274Z</time>
      </trkpt>
      <trkpt lat="47.03752" lon="-0.00614">
        <ele>107.51</ele>
        <time>2023-06-12T05:07:18.745Z</time>
      </trkpt>
      <trkpt lat="47.0375" lon="-0.00619">
        <ele>107.67</ele>
        <time>2023-06-12T05:07:57.217Z</time>
      </trkpt>
      <trkpt lat="47.03748" lon="-0.00628">
        <ele>107.92</ele>
        <time>2023-06-12T05:08:35.690Z</time>
      </trkpt>
      <trkpt lat="47.03746" lon="-0.00636">
        <ele>107.43</ele>
        <time>2023-06-12T05:09:14.164Z</time>
      </trkpt>
      <trkpt lat="47.03745" lon="-0.00642">
        <ele>107.1</ele>
        <time>2023-06-12T05:09:52.639Z</time>
      </trkpt>
      <trkpt lat="47.03743" lon="-0.00657">
        <ele>107.27</ele>
        <time>2023-06-12T05:10:31.115Z</time>
      </trkpt>
      <trkpt lat="47.0374" lon="-0.00674">
        <ele>107.27</ele>
        <time>2023-06-12T05:11:09.593Z</time>
      </trkpt>
      <trkpt lat="47.03737" lon="-0.00689">
        <ele>106.1</ele>
        <time>2023-06-12T05:11:48.073Z</time>
      </trkpt>
      <trkpt lat="47.03736" lon="-0.00696">
        <ele>106.01</ele>
        <time>2023-06-12T05:12:26.554Z</time>
      </trkpt>
      <trkpt lat="47.03733" lon="-0.00705">
        <ele>105.89</ele>
        <time>2023-06-12T05:13:05.036Z</time>
      </trkpt>
      <trkpt lat="47.03728" lon="-0.00718">
        <ele>105.55</ele>
        <time>2023-06-12T05:13:43.519Z</time>
      </trkpt>
      <trkpt lat="47.03726" lon="-0.00724">
        <ele>105.37</ele>
        <time>2023-06-12T05:14:22.003Z</time>
      </trkpt>
      <trkpt lat="47.03721" lon="-0.00709">
        <ele>104.92</ele>
        <time>2023-06-12T05:15:00.489Z</time>
      </trkpt>
      <trkpt lat="47.03721" lon="-0.00702">
        <ele>104.74</ele>
        <time>2023-06-12T05:15:38.976Z</time>
      </trkpt>
      <trkpt lat="47.0372" lon="-0.00692">
        <ele>104.39</ele>
        <time>2023-06-12T05:16:17.464Z</time>
      </trkpt>
      <trkpt lat="47.0372" lon="-0.00687">
        <ele>104.23</ele>
        <time>2023-06-12T05:16:55.952Z</time>
      </trkpt>
      <trkpt lat="47.0372" lon="-0.00669">
        <ele>103.67</ele>
        <time>2023-06-12T05:17:34.442Z</time>
      </trkpt>
      <trkpt lat="47.0372" lon="-0.00651">
        <ele>103.16</ele>
        <time>2023-06-12T05:18:12.934Z</time>
      </trkpt>
      <trkpt lat="47.0372" lon="-0.00636">
        <ele>102.68</ele>
        <time>2023-06-12T05:18:51.428Z</time>
      </trkpt>
      <trkpt lat="47.0372" lon="-0.00621">
        <ele>103.88</ele>
        <time>2023-06-12T05:19:29.924Z</time>
      </trkpt>
      <trkpt lat="47.0372" lon="-0.00613">
        <ele>103.7</ele>
        <time>2023-06-12T05:20:08.420Z</time>
      </trkpt>
      <trkpt lat="47.0372" lon="-0.00603">
        <ele>103.48</ele>
        <time>2023-06-12T05:20:46.917Z</time>
      </trkpt>
      <trkpt lat="47.0372" lon="-0.00595">
        <ele>103.22</ele>
        <time>2023-06-12T05:21:25.415Z</time>
      </trkpt>
      <trkpt lat="47.03721" lon="-0.0059">
        <ele>103.07</ele>
        <time>2023-06-12T05:22:03.914Z</time>
      </trkpt>
      <trkpt lat="47.03723" lon="-0.00581">
        <ele>102.83</ele>
        <time>2023-06-12T05:22:42.414Z</time>
      </trkpt>
      <trkpt lat="47.03726" lon="-0.00568">
        <ele>102.5</ele>
        <time>2023-06-12T05:23:20.915Z</time>
      </trkpt>
      <trkpt lat="47.03726" lon="-0.00568">
        <ele>102.36</ele>
        <time>2023-06-12T05:23:59.416Z</time>
      </trkpt>
      <trkpt lat="47.0373" lon="-0.00551">
        <ele>102.14</ele>
        <time>2023-06-12T05:24:37.919Z</time>
      </trkpt>
      <trkpt lat="47.03732" lon="-0.00514">
        <ele>101.7</ele>
        <time>2023-06-12T05:25:16.427Z</time>
      </trkpt>
      <trkpt lat="47.0371" lon="-0.00512">
        <ele>101.31</ele>
        <time>2023-06-12T05:25:54.938Z</time>
      </trkpt>
      <trkpt lat="47.03698" lon="-0.00521">
        <ele>101.07</ele>
        <time>2023-06-12T05:26:33.451Z</time>
      </trkpt>
      <trkpt lat="47.03693" lon="-0.00531">
        <ele>100.93</ele>
        <time>2023-06-12T05:27:11.966Z</time>
      </trkpt>
      <trkpt lat="47.03681" lon="-0.00531">
        <ele>100.72</ele>
        <time>2023-06-12T05:27:50.483Z</time>
      </trkpt>
      <trkpt lat="47.03679" lon="-0.00512">
        <ele>100.49</ele>
        <time>2023-06-12T05:28:29.002Z</time>
      </trkpt>
      <trkpt lat="47.03673" lon="-0.005">
        <ele>100.31</ele>
        <time>2023-06-12T05:29:07.522Z</time>
      </trkpt>
      <trkpt lat="47.03652" lon="-0.00487">
        <ele>99.91</ele>
        <time>2023-06-12T05:29:46.046Z</time>
      </trkpt>
      <trkpt lat="47.03602" lon="-0.00434">
        <ele>98.83</ele>
        <time>2023-06-12T05:30:24.580Z</time>
      </trkpt>
      <trkpt lat="47.03564" lon="-0.00423">
        <ele>98.15</ele>
        <time>2023-06-12T05:31:03.120Z</time>
      </trkpt>
      <trkpt lat="47.03488" lon="-0.00417">
        <ele>96.82</ele>
        <time>2023-06-12T05:31:41.672Z</time>
      </trkpt>
      <trkpt lat="47.03492" lon="-0.00341">
        <ele>95.91</ele>
        <time>2023-06-12T05:32:20.233Z</time>
      </trkpt>
      <trkpt lat="47.03488" lon="-0.00293">
        <ele>95.34</ele>
        <time>2023-06-12T05:32:58.799Z</time>
      </trkpt>
      <trkpt lat="47.03487" lon="-0.00282">
        <ele>95.17</ele>
        <time>2023-06-12T05:33:37.366Z</time>
      </trkpt>
      <trkpt lat="47.03487" lon="-0.00273">
        <ele>95.05</ele>
        <time>2023-06-12T05:34:15.934Z</time>
      </trkpt>
      <trkpt lat="47.03488" lon="-0.00247">
        <ele>94.73</ele>
        <time>2023-06-12T05:34:54.505Z</time>
      </trkpt>
      <trkpt lat="47.03488" lon="-0.0024">
        <ele>94.63</ele>
        <time>2023-06-12T05:35:33.077Z</time>
      </trkpt>
      <trkpt lat="47.03488" lon="-0.00234">
        <ele>94.55</ele>
        <time>2023-06-12T05:36:11.649Z</time>
      </trkpt>
      <trkpt lat="47.03488" lon="-0.00228">
        <ele>94.42</ele>
        <time>2023-06-12T05:36:50.222Z</time>
      </trkpt>
      <trkpt lat="47.03487" lon="-0.00221">
        <ele>94.27</ele>
        <time>2023-06-12T05:37:28.796Z</time>
      </trkpt>
      <trkpt lat="47.03487" lon="-0.00212">
        <ele>94.02</ele>
        <time>2023-06-12T05:38:07.371Z</time>
      </trkpt>
      <trkpt lat="47.03488" lon="-0.00208">
        <ele>93.91</ele>
        <time>2023-06-12T05:38:45.946Z</time>
      </trkpt>
      <trkpt lat="47.03489" lon="-0.00202">
        <ele>93.76</ele>
        <time>2023-06-12T05:39:24.522Z</time>
      </trkpt>
      <trkpt lat="47.0349" lon="-0.00196">
        <ele>93.63</ele>
        <time>2023-06-12T05:40:03.099Z</time>
      </trkpt>
      <trkpt lat="47.03493" lon="-0.00183">
        <ele>93.43</ele>
        <time>2023-06-12T05:40:41.677Z</time>
      </trkpt>
      <trkpt lat="47.03494" lon="-0.00177">
        <ele>93.33</ele>
        <time>2023-06-12T05:41:20.256Z</time>
      </trkpt>
      <trkpt lat="47.03493" lon="-0.0017">
        <ele>93.24</ele>
        <time>2023-06-12T05:41:58.835Z</time>
      </trkpt>
      <trkpt lat="47.0349" lon="-0.00158">
        <ele>93.08</ele>
        <time>2023-06-12T05:42:37.416Z</time>
      </trkpt>
      <trkpt lat="47.03482" lon="-0.00114">
        <ele>92.58</ele>
        <time>2023-06-12T05:43:16.002Z</time>
      </trkpt>
      <trkpt lat="47.03481" lon="-0.00107">
        <ele>92.51</ele>
        <time>2023-06-12T05:43:54.589Z</time>
      </trkpt>
      <trkpt lat="47.0348" lon="-0.00094">
        <ele>92.39</ele>
        <time>2023-06-12T05:44:33.177Z</time>
      </trkpt>
      <trkpt lat="47.0348" lon="-0.00088">
        <ele>92.29</ele>
        <time>2023-06-12T05:45:11.766Z</time>
      </trkpt>
      <trkpt lat="47.0348" lon="-0.00081">
        <ele>92.16</ele>
        <time>2023-06-12T05:45:50.355Z</time>
      </trkpt>
      <trkpt lat="47.03479" lon="-0.00058">
        <ele>91.54</ele>
        <time>2023-06-12T05:46:28.947Z</time>
      </trkpt>
      <trkpt lat="47.03481" lon="-0.00049">
        <ele>91.29</ele>
        <time>2023-06-12T05:47:07.540Z</time>
      </trkpt>
      <trkpt lat="47.03483" lon="-0.0004">
        <ele>91.09</ele>
        <time>2023-06-12T05:47:46.134Z</time>
      </trkpt>
      <trkpt lat="47.03482" lon="-0.00036">
        <ele>91.01</ele>
        <time>2023-06-12T05:48:24.728Z</time>
      </trkpt>
      <trkpt lat="47.03478" lon="-0.00011">
        <ele>90.49</ele>
        <time>2023-06-12T05:49:03.325Z</time>
      </trkpt>
      <trkpt lat="47.03475" lon="1.0E-5">
        <ele>90.29</ele>
        <time>2023-06-12T05:49:41.924Z</time>
      </trkpt>
      <trkpt lat="47.03472" lon="0.0002">
        <ele>90.07</ele>
        <time>2023-06-12T05:50:20.525Z</time>
      </trkpt>
      <trkpt lat="47.03469" lon="0.00033">
        <ele>89.89</ele>
        <time>2023-06-12T05:50:59.127Z</time>
      </trkpt>
      <trkpt lat="47.03465" lon="0.00058">
        <ele>89.38</ele>
        <time>2023-06-12T05:51:37.732Z</time>
      </trkpt>
      <trkpt lat="47.03461" lon="0.00077">
        <ele>89.03</ele>
        <time>2023-06-12T05:52:16.339Z</time>
      </trkpt>
      <trkpt lat="47.03461" lon="0.00077">
        <ele>89.03</ele>
        <time>2023-06-12T05:52:54.946Z</time>
      </trkpt>
      <trkpt lat="47.03458" lon="0.00096">
        <ele>88.6</ele>
        <time>2023-06-12T05:53:33.556Z</time>
      </trkpt>
      <trkpt lat="47.03457" lon="0.00103">
        <ele>88.48</ele>
        <time>2023-06-12T05:54:12.166Z</time>
      </trkpt>
      <trkpt lat="47.03457" lon="0.00109">
        <ele>88.38</ele>
        <time>2023-06-12T05:54:50.777Z</time>
      </trkpt>
      <trkpt lat="47.03456" lon="0.00116">
        <ele>88.32</ele>
        <time>2023-06-12T05:55:29.389Z</time>
      </trkpt>
      <trkpt lat="47.03453" lon="0.00135">
        <ele>88.21</ele>
        <time>2023-06-12T05:56:08.003Z</time>
      </trkpt>
      <trkpt lat="47.03452" lon="0.00141">
        <ele>88.15</ele>
        <time>2023-06-12T05:56:46.618Z</time>
      </trkpt>
      <trkpt lat="47.03451" lon="0.00148">
        <ele>88.04</ele>
        <time>2023-06-12T05:57:25.233Z</time>
      </trkpt>
      <trkpt lat="47.0345" lon="0.00161">
        <ele>87.75</ele>
        <time>2023-06-12T05:58:03.850Z</time>
      </trkpt>
      <trkpt lat="47.03447" lon="0.00179">
        <ele>87.26</ele>
        <time>2023-06-12T05:58:42.469Z</time>
      </trkpt>
      <trkpt lat="47.0344" lon="0.00188">
        <ele>86.89</ele>
        <time>2023-06-12T05:59:21.089Z</time>
      </trkpt>
      <trkpt lat="47.03436" lon="0.00192">
        <ele>86.74</ele>
        <time>2023-06-12T05:59:59.710Z</time>
      </trkpt>
      <trkpt lat="47.03431" lon="0.00199">
        <ele>86.53</ele>
        <time>2023-06-12T06:00:38.332Z</time>
      </trkpt>
      <trkpt lat="47.0342" lon="0.002">
        <ele>86.2</ele>
        <time>2023-06-12T06:01:16.956Z</time>
      </trkpt>
      <trkpt lat="47.03411" lon="0.00201">
        <ele>85.96</ele>
        <time>2023-06-12T06:01:55.581Z</time>
      </trkpt>
      <trkpt lat="47.03398" lon="0.00202">
        <ele>85.71</ele>
        <time>2023-06-12T06:02:34.208Z</time>
      </trkpt>
      <trkpt lat="47.03389" lon="0.002">
        <ele>85.54</ele>
        <time>2023-06-12T06:03:12.837Z</time>
      </trkpt>
      <trkpt lat="47.03372" lon="0.00195">
        <ele>85.24</ele>
        <time>2023-06-12T06:03:51.469Z</time>
      </trkpt>
      <trkpt lat="47.0337" lon="0.00195">
        <ele>85.22</ele>
        <time>2023-06-12T06:04:30.101Z</time>
      </trkpt>
      <trkpt lat="47.03363" lon="0.00194">
        <ele>85.14</ele>
        <time>2023-06-12T06:05:08.734Z</time>
      </trkpt>
      <trkpt lat="47.03351" lon="0.00192">
        <ele>85.08</ele>
        <time>2023-06-12T06:05:47.369Z</time>
      </trkpt>
      <trkpt lat="47.03345" lon="0.00188">
        <ele>85.05</ele>
        <time>2023-06-12T06:06:26.005Z</time>
      </trkpt>
      <trkpt lat="47.03337" lon="0.00183">
        <ele>84.66</ele>
        <time>2023-06-12T06:07:04.642Z</time>
      </trkpt>
      <trkpt lat="47.03329" lon="0.00178">
        <ele>84.35</ele>
        <time>2023-06-12T06:07:43.281Z</time>
      </trkpt>
      <trkpt lat="47.03321" lon="0.00173">
        <ele>84.11</ele>
        <time>2023-06-12T06:08:21.921Z</time>
      </trkpt>
      <trkpt lat="47.03312" lon="0.00167">
        <ele>83.91</ele>
        <time>2023-06-12T06:09:00.563Z</time>
      </trkpt>
      <trkpt lat="47.03312" lon="0.00167">
        <ele>83.91</ele>
        <time>2023-06-12T06:09:39.205Z</time>
      </trkpt>
      <trkpt lat="47.0331" lon="0.00179">
        <ele>83.75</ele>
        <time>2023-06-12T06:10:17.848Z</time>
      </trkpt>
      <trkpt lat="47.0331" lon="0.00185">
        <ele>83.7</ele>
        <time>2023-06-12T06:10:56.492Z</time>
      </trkpt>
      <trkpt lat="47.03306" lon="0.00211">
        <ele>83.63</ele>
        <time>2023-06-12T06:11:35.139Z</time>
      </trkpt>
      <trkpt lat="47.03305" lon="0.00217">
        <ele>83.56</ele>
        <time>2023-06-12T06:12:13.786Z</time>
      </trkpt>
      <trkpt lat="47.03305" lon="0.00224">
        <ele>83.43</ele>
        <time>2023-06-12T06:12:52.434Z</time>
      </trkpt>
      <trkpt lat="47.03304" lon="0.00229">
        <ele>83.25</ele>
        <time>2023-06-12T06:13:31.083Z</time>
      </trkpt>
      <trkpt lat="47.03304" lon="0.0023">
        <ele>83.25</ele>
        <time>2023-06-12T06:14:09.732Z</time>
      </trkpt>
      <trkpt lat="47.033" lon="0.00242">
        <ele>82.84</ele>
        <time>2023-06-12T06:14:48.382Z</time>
      </trkpt>
      <trkpt lat="47.03298" lon="0.00248">
        <ele>82.65</ele>
        <time>2023-06-12T06:15:27.033Z</time>
      </trkpt>
      <trkpt lat="47.03296" lon="0.00254">
        <ele>82.49</ele>
        <time>2023-06-12T06:16:05.685Z</time>
      </trkpt>
      <trkpt lat="47.03293" lon="0.00263">
        <ele>82.27</ele>
        <time>2023-06-12T06:16:44.338Z</time>
      </trkpt>
      <trkpt lat="47.03292" lon="0.00265">
        <ele>82.21</ele>
        <time>2023-06-12T06:17:22.991Z</time>
      </trkpt>
      <trkpt lat="47.03283" lon="0.00281">
        <ele>81.86</ele>
        <time>2023-06-12T06:18:01.646Z</time>
      </trkpt>
      <trkpt lat="47.03281" lon="0.00286">
        <ele>81.72</ele>
        <time>2023-06-12T06:18:40.302Z</time>
      </trkpt>
      <trkpt lat="47.03278" lon="0.00291">
        <ele>81.55</ele>
        <time>2023-06-12T06:19:18.959Z</time>
      </trkpt>
      <trkpt lat="47.03267" lon="0.00311">
        <ele>80.71</ele>
        <time>2023-06-12T06:19:57.619Z</time>
      </trkpt>
      <trkpt lat="47.03264" lon="0.00316">
        <ele>80.53</ele>
        <time>2023-06-12T06:20:36.279Z</time>
      </trkpt>
      <trkpt lat="47.0326" lon="0.00321">
        <ele>80.35</ele>
        <time>2023-06-12T06:21:14.940Z</time>
      </trkpt>
      <trkpt lat="47.03254" lon="0.00329">
        <ele>80.05</ele>
        <time>2023-06-12T06:21:53.602Z</time>
      </trkpt>
      <trkpt lat="47.03244" lon="0.00342">
        <ele>79.67</ele>
        <time>2023-06-12T06:22:32.267Z</time>
      </trkpt>
      <trkpt lat="47.03241" lon="0.00347">
        <ele>79.56</ele>
        <time>2023-06-12T06:23:10.932Z</time>
      </trkpt>
      <trkpt lat="47.03237" lon="0.00351">
        <ele>79.48</ele>
        <time>2023-06-12T06:23:49.598Z</time>
      </trkpt>
      <trkpt lat="47.03234" lon="0.00356">
        <ele>79.43</ele>
        <time>2023-06-12T06:24:28.265Z</time>
      </trkpt>
      <trkpt lat="47.03231" lon="0.0036">
        <ele>79.41</ele>
        <time>2023-06-12T06:25:06.932Z</time>
      </trkpt>
      <trkpt lat="47.03223" lon="0.0037">
        <ele>79.41</ele>
        <time>2023-06-12T06:25:45.601Z</time>
      </trkpt>
      <trkpt lat="47.03217" lon="0.00376">
        <ele>79.41</ele>
        <time>2023-06-12T06:26:24.271Z</time>
      </trkpt>
      <trkpt lat="47.03209" lon="0.00384">
        <ele>79.24</ele>
        <time>2023-06-12T06:27:02.943Z</time>
      </trkpt>
      <trkpt lat="47.03206" lon="0.00387">
        <ele>79.19</ele>
        <time>2023-06-12T06:27:41.615Z</time>
      </trkpt>
      <trkpt lat="47.03202" lon="0.00391">
        <ele>79.18</ele>
        <time>2023-06-12T06:28:20.288Z</time>
      </trkpt>
      <trkpt lat="47.03191" lon="0.00402">
        <ele>79.28</ele>
        <time>2023-06-12T06:28:58.963Z</time>
      </trkpt>
      <trkpt lat="47.03186" lon="0.00407">
        <ele>79.28</ele>
        <time>2023-06-12T06:29:37.639Z</time>
      </trkpt>
      <trkpt lat="47.0318" lon="0.00414">
        <ele>79.28</ele>
        <time>2023-06-12T06:30:16.316Z</time>
      </trkpt>
      <trkpt lat="47.03174" lon="0.00423">
        <ele>79.33</ele>
        <time>2023-06-12T06:30:54.995Z</time>
      </trkpt>
      <trkpt lat="47.0317" lon="0.00427">
        <ele>79.4</ele>
        <time>2023-06-12T06:31:33.675Z</time>
      </trkpt>
      <trkpt lat="47.03167" lon="0.00431">
        <ele>79.5</ele>
        <time>2023-06-12T06:32:12.355Z</time>
      </trkpt>
      <trkpt lat="47.03157" lon="0.00444">
        <ele>79.89</ele>
        <time>2023-06-12T06:32:51.037Z</time>
      </trkpt>
      <trkpt lat="47.03143" lon="0.00461">
        <ele>80.32</ele>
        <time>2023-06-12T06:33:29.722Z</time>
      </trkpt>
      <trkpt lat="47.03136" lon="0.00469">
        <ele>80.51</ele>
        <time>2023-06-12T06:34:08.409Z</time>
      </trkpt>
      <trkpt lat="47.03129" lon="0.00478">
        <ele>80.66</ele>
        <time>2023-06-12T06:34:47.097Z</time>
      </trkpt>
      <trkpt lat="47.03119" lon="0.00491">
        <ele>80.83</ele>
        <time>2023-06-12T06:35:25.787Z</time>
      </trkpt>
      <trkpt lat="47.03109" lon="0.00503">
        <ele>80.96</ele>
        <time>2023-06-12T06:36:04.479Z</time>
      </trkpt>
      <trkpt lat="47.03107" lon="0.00506">
        <ele>80.99</ele>
        <time>2023-06-12T06:36:43.172Z</time>
      </trkpt>
      <trkpt lat="47.03106" lon="0.00508">
        <ele>81.02</ele>
        <time>2023-06-12T06:37:21.865Z</time>
      </trkpt>
      <trkpt lat="47.03102" lon="0.00512">
        <ele>81.1</ele>
        <time>2023-06-12T06:38:00.559Z</time>
      </trkpt>
      <trkpt lat="47.03096" lon="0.00521">
        <ele>81.32</ele>
        <time>2023-06-12T06:38:39.254Z</time>
      </trkpt>
      <trkpt lat="47.0309" lon="0.0053">
        <ele>81.46</ele>
        <time>2023-06-12T06:39:17.951Z</time>
      </trkpt>
      <trkpt lat="47.03083" lon="0.0054">
        <ele>81.52</ele>
        <time>2023-06-12T06:39:56.649Z</time>
      </trkpt>
      <trkpt lat="47.03073" lon="0.00553">
        <ele>81.53</ele>
        <time>2023-06-12T06:40:35.349Z</time>
      </trkpt>
      <trkpt lat="47.0307" lon="0.00558">
        <ele>81.55</ele>
        <time>2023-06-12T06:41:14.050Z</time>
      </trkpt>
      <trkpt lat="47.03057" lon="0.00576">
        <ele>81.73</ele>
        <time>2023-06-12T06:41:52.754Z</time>
      </trkpt>
      <trkpt lat="47.03041" lon="0.00598">
        <ele>81.82</ele>
        <time>2023-06-12T06:42:31.462Z</time>
      </trkpt>
      <trkpt lat="47.0304" lon="0.006">
        <ele>81.82</ele>
        <time>2023-06-12T06:43:10.170Z</time>
      </trkpt>
      <trkpt lat="47.03028" lon="0.00616">
        <ele>81.92</ele>
        <time>2023-06-12T06:43:48.880Z</time>
      </trkpt>
      <trkpt lat="47.03018" lon="0.00629">
        <ele>81.92</ele>
        <time>2023-06-12T06:44:27.593Z</time>
      </trkpt>
      <trkpt lat="47.03005" lon="0.00647">
        <ele>81.96</ele>
        <time>2023-06-12T06:45:06.308Z</time>
      </trkpt>
      <trkpt lat="47.02996" lon="0.00658">
        <ele>81.93</ele>
        <time>2023-06-12T06:45:45.025Z</time>
      </trkpt>
      <trkpt lat="47.02995" lon="0.0066">
        <ele>81.93</ele>
        <time>2023-06-12T06:46:23.743Z</time>
      </trkpt>
      <trkpt lat="47.02986" lon="0.00675">
        <ele>82.01</ele>
        <time>2023-06-12T06:47:02.463Z</time>
      </trkpt>
      <trkpt lat="47.02983" lon="0.0068">
        <ele>82.02</ele>
        <time>2023-06-12T06:47:41.183Z</time>
      </trkpt>
      <trkpt lat="47.0298" lon="0.00685">
        <ele>82.01</ele>
        <time>2023-06-12T06:48:19.904Z</time>
      </trkpt>
      <trkpt lat="47.02977" lon="0.00691">
        <ele>81.97</ele>
        <time>2023-06-12T06:48:58.626Z</time>
      </trkpt>
      <trkpt lat="47.02977" lon="0.00691">
        <ele>81.97</ele>
        <time>2023-06-12T06:49:37.348Z</time>
      </trkpt>
      <trkpt lat="47.0297" lon="0.00707">
        <ele>81.77</ele>
        <time>2023-06-12T06:50:16.072Z</time>
      </trkpt>
      <trkpt lat="47.02968" lon="0.00712">
        <ele>81.72</ele>
        <time>2023-06-12T06:50:54.797Z</time>
      </trkpt>
      <trkpt lat="47.02959" lon="0.00735">
        <ele>81.59</ele>
        <time>2023-06-12T06:51:33.525Z</time>
      </trkpt>
      <trkpt lat="47.02954" lon="0.00746">
        <ele>81.56</ele>
        <time>2023-06-12T06:52:12.254Z</time>
      </trkpt>
      <trkpt lat="47.02944" lon="0.00768">
        <ele>81.61</ele>
        <time>2023-06-12T06:52:50.986Z</time>
      </trkpt>
      <trkpt lat="47.02935" lon="0.0079">
        <ele>81.5</ele>
        <time>2023-06-12T06:53:29.721Z</time>
      </trkpt>
      <trkpt lat="47.02935" lon="0.0079">
        <ele>81.5</ele>
        <time>2023-06-12T06:54:08.456Z</time>
      </trkpt>
      <trkpt lat="47.02923" lon="0.00817">
        <ele>81.48</ele>
        <time>2023-06-12T06:54:47.194Z</time>
      </trkpt>
      <trkpt lat="47.0292" lon="0.00823">
        <ele>81.49</ele>
        <time>2023-06-12T06:55:25.933Z</time>
      </trkpt>
      <trkpt lat="47.02918" lon="0.00828">
        <ele>81.53</ele>
        <time>2023-06-12T06:56:04.673Z</time>
      </trkpt>
      <trkpt lat="47.0291" lon="0.00845">
        <ele>81.77</ele>
        <time>2023-06-12T06:56:43.415Z</time>
      </trkpt>
      <trkpt lat="47.02908" lon="0.0085">
        <ele>81.83</ele>
        <time>2023-06-12T06:57:22.158Z</time>
      </trkpt>
      <trkpt lat="47.029" lon="0.00866">
        <ele>81.92</ele>
        <time>2023-06-12T06:58:00.903Z</time>
      </trkpt>
      <trkpt lat="47.02895" lon="0.00877">
        <ele>82.05</ele>
        <time>2023-06-12T06:58:39.649Z</time>
      </trkpt>
      <trkpt lat="47.02888" lon="0.00894">
        <ele>82.27</ele>
        <time>2023-06-12T06:59:18.397Z</time>
      </trkpt>
      <trkpt lat="47.02885" lon="0.00899">
        <ele>82.31</ele>
        <time>2023-06-12T06:59:57.146Z</time>
      </trkpt>
      <trkpt lat="47.02883" lon="0.00905">
        <ele>82.32</ele>
        <time>2023-06-12T07:00:35.896Z</time>
      </trkpt>
      <trkpt lat="47.0288" lon="0.0091">
        <ele>82.29</ele>
        <time>2023-06-12T07:01:14.647Z</time>
      </trkpt>
      <trkpt lat="47.02873" lon="0.00927">
        <ele>82.08</ele>
        <time>2023-06-12T07:01:53.400Z</time>
      </trkpt>
      <trkpt lat="47.02871" lon="0.00931">
        <ele>82.03</ele>
        <time>2023-06-12T07:02:32.153Z</time>
      </trkpt>
      <trkpt lat="47.0287" lon="0.00932">
        <ele>82.03</ele>
        <time>2023-06-12T07:03:10.906Z</time>
      </trkpt>
      <trkpt lat="47.02868" lon="0.00937">
        <ele>82.02</ele>
        <time>2023-06-12T07:03:49.660Z</time>
      </trkpt>
      <trkpt lat="47.02865" lon="0.00942">
        <ele>82.06</ele>
        <time>2023-06-12T07:04:28.415Z</time>
      </trkpt>
      <trkpt lat="47.02862" lon="0.00947">
        <ele>82.13</ele>
        <time>2023-06-12T07:05:07.171Z</time>
      </trkpt>
      <trkpt lat="47.0285" lon="0.00967">
        <ele>82.19</ele>
        <time>2023-06-12T07:05:45.929Z</time>
      </trkpt>
      <trkpt lat="47.02838" lon="0.00988">
        <ele>82.32</ele>
        <time>2023-06-12T07:06:24.690Z</time>
      </trkpt>
      <trkpt lat="47.02835" lon="0.00985">
        <ele>82.35</ele>
        <time>2023-06-12T07:07:03.452Z</time>
      </trkpt>
      <trkpt lat="47.02828" lon="0.00978">
        <ele>82.45</ele>
        <time>2023-06-12T07:07:42.215Z</time>
      </trkpt>
      <trkpt lat="47.02813" lon="0.00963">
        <ele>82.71</ele>
        <time>2023-06-12T07:08:20.981Z</time>
      </trkpt>
      <trkpt lat="47.02806" lon="0.00956">
        <ele>82.78</ele>
        <time>2023-06-12T07:08:59.749Z</time>
      </trkpt>
      <trkpt lat="47.02773" lon="0.00923">
        <ele>82.94</ele>
        <time>2023-06-12T07:09:38.523Z</time>
      </trkpt>
      <trkpt lat="47.02758" lon="0.00908">
        <ele>82.95</ele>
        <time>2023-06-12T07:10:17.300Z</time>
      </trkpt>
      <trkpt lat="47.02733" lon="0.00882">
        <ele>83.02</ele>
        <time>2023-06-12T07:10:56.082Z</time>
      </trkpt>
      <trkpt lat="47.02722" lon="0.00871">
        <ele>83.11</ele>
        <time>2023-06-12T07:11:34.866Z</time>
      </trkpt>
      <trkpt lat="47.02703" lon="0.00853">
        <ele>83.33</ele>
        <time>2023-06-12T07:12:13.654Z</time>
      </trkpt>
      <trkpt lat="47.02685" lon="0.00834">
        <ele>83.42</ele>
        <time>2023-06-12T07:12:52.445Z</time>
      </trkpt>
      <trkpt lat="47.0267" lon="0.0082">
        <ele>83.59</ele>
        <time>2023-06-12T07:13:31.239Z</time>
      </trkpt>
      <trkpt lat="47.02652" lon="0.00801">
        <ele>83.76</ele>
        <time>2023-06-12T07:14:10.037Z</time>
      </trkpt>
      <trkpt lat="47.0263" lon="0.00779">
        <ele>83.92</ele>
        <time>2023-06-12T07:14:48.839Z</time>
      </trkpt>
      <trkpt lat="47.02622" lon="0.00772">
        <ele>84.03</ele>
        <time>2023-06-12T07:15:27.642Z</time>
      </trkpt>
      <trkpt lat="47.02619" lon="0.00768">
        <ele>84.1</ele>
        <time>2023-06-12T07:16:06.446Z</time>
      </trkpt>
      <trkpt lat="47.02615" lon="0.00764">
        <ele>84.19</ele>
        <time>2023-06-12T07:16:45.251Z</time>
      </trkpt>
      <trkpt lat="47.02608" lon="0.00757">
        <ele>84.41</ele>
        <time>2023-06-12T07:17:24.057Z</time>
      </trkpt>
      <trkpt lat="47.02589" lon="0.00738">
        <ele>84.44</ele>
        <time>2023-06-12T07:18:02.867Z</time>
      </trkpt>
      <trkpt lat="47.02582" lon="0.00731">
        <ele>84.47</ele>
        <time>2023-06-12T07:18:41.678Z</time>
      </trkpt>
      <trkpt lat="47.02577" lon="0.00726">
        <ele>84.52</ele>
        <time>2023-06-12T07:19:20.490Z</time>
      </trkpt>
      <trkpt lat="47.02564" lon="0.00757">
        <ele>84.74</ele>
        <time>2023-06-12T07:19:59.306Z</time>
      </trkpt>
      <trkpt lat="47.02545" lon="0.00802">
        <ele>84.96</ele>
        <time>2023-06-12T07:20:38.128Z</time>
      </trkpt>
      <trkpt lat="47.02531" lon="0.00835">
        <ele>85.2</ele>
        <time>2023-06-12T07:21:16.954Z</time>
      </trkpt>
      <trkpt lat="47.02527" lon="0.00846">
        <ele>85.29</ele>
        <time>2023-06-12T07:21:55.782Z</time>
      </trkpt>
      <trkpt lat="47.02513" lon="0.0088">
        <ele>85.63</ele>
        <time>2023-06-12T07:22:34.614Z</time>
      </trkpt>
      <trkpt lat="47.02496" lon="0.00919">
        <ele>85.97</ele>
        <time>2023-06-12T07:23:13.451Z</time>
      </trkpt>
      <trkpt lat="47.02496" lon="0.00919">
        <ele>85.97</ele>
        <time>2023-06-12T07:23:52.288Z</time>
      </trkpt>
      <trkpt lat="47.02491" lon="0.00929">
        <ele>86.1</ele>
        <time>2023-06-12T07:24:31.126Z</time>
      </trkpt>
      <trkpt lat="47.02478" lon="0.00956">
        <ele>86.47</ele>
        <time>2023-06-12T07:25:09.968Z</time>
      </trkpt>
      <trkpt lat="47.02471" lon="0.00972">
        <ele>86.64</ele>
        <time>2023-06-12T07:25:48.812Z</time>
      </trkpt>
      <trkpt lat="47.0247" lon="0.00974">
        <ele>86.65</ele>
        <time>2023-06-12T07:26:27.656Z</time>
      </trkpt>
      <trkpt lat="47.02462" lon="0.00988">
        <ele>86.79</ele>
        <time>2023-06-12T07:27:06.502Z</time>
      </trkpt>
      <trkpt lat="47.02454" lon="0.01003">
        <ele>86.89</ele>
        <time>2023-06-12T07:27:45.350Z</time>
      </trkpt>
      <trkpt lat="47.0244" lon="0.01028">
        <ele>87</ele>
        <time>2023-06-12T07:28:24.202Z</time>
      </trkpt>
      <trkpt lat="47.02435" lon="0.01038">
        <ele>87</ele>
        <time>2023-06-12T07:29:03.055Z</time>
      </trkpt>
      <trkpt lat="47.02432" lon="0.01043">
        <ele>86.97</ele>
        <time>2023-06-12T07:29:41.909Z</time>
      </trkpt>
      <trkpt lat="47.02426" lon="0.01053">
        <ele>86.86</ele>
        <time>2023-06-12T07:30:20.764Z</time>
      </trkpt>
      <trkpt lat="47.02421" lon="0.01063">
        <ele>86.68</ele>
        <time>2023-06-12T07:30:59.621Z</time>
      </trkpt>
      <trkpt lat="47.02418" lon="0.01068">
        <ele>86.57</ele>
        <time>2023-06-12T07:31:38.478Z</time>
      </trkpt>
      <trkpt lat="47.02413" lon="0.01079">
        <ele>86.27</ele>
        <time>2023-06-12T07:32:17.337Z</time>
      </trkpt>
      <trkpt lat="47.0241" lon="0.01084">
        <ele>86.08</ele>
        <time>2023-06-12T07:32:56.197Z</time>
      </trkpt>
      <trkpt lat="47.02404" lon="0.01094">
        <ele>85.64</ele>
        <time>2023-06-12T07:33:35.058Z</time>
      </trkpt>
      <trkpt lat="47.02393" lon="0.01114">
        <ele>84.65</ele>
        <time>2023-06-12T07:34:13.922Z</time>
      </trkpt>
      <trkpt lat="47.02388" lon="0.01124">
        <ele>84.18</ele>
        <time>2023-06-12T07:34:52.787Z</time>
      </trkpt>
      <trkpt lat="47.02379" lon="0.01139">
        <ele>83.56</ele>
        <time>2023-06-12T07:35:31.654Z</time>
      </trkpt>
      <trkpt lat="47.02371" lon="0.01154">
        <ele>83.01</ele>
        <time>2023-06-12T07:36:10.524Z</time>
      </trkpt>
      <trkpt lat="47.02363" lon="0.01169">
        <ele>82.54</ele>
        <time>2023-06-12T07:36:49.396Z</time>
      </trkpt>
      <trkpt lat="47.0236" lon="0.01174">
        <ele>82.4</ele>
        <time>2023-06-12T07:37:28.268Z</time>
      </trkpt>
      <trkpt lat="47.02357" lon="0.0118">
        <ele>82.26</ele>
        <time>2023-06-12T07:38:07.141Z</time>
      </trkpt>
      <trkpt lat="47.02355" lon="0.01185">
        <ele>82.14</ele>
        <time>2023-06-12T07:38:46.015Z</time>
      </trkpt>
      <trkpt lat="47.02349" lon="0.01195">
        <ele>81.96</ele>
        <time>2023-06-12T07:39:24.890Z</time>
      </trkpt>
      <trkpt lat="47.02344" lon="0.01206">
        <ele>81.83</ele>
        <time>2023-06-12T07:40:03.767Z</time>
      </trkpt>
      <trkpt lat="47.02334" lon="0.01225">
        <ele>81.96</ele>
        <time>2023-06-12T07:40:42.646Z</time>
      </trkpt>
      <trkpt lat="47.02329" lon="0.01235">
        <ele>82.08</ele>
        <time>2023-06-12T07:41:21.527Z</time>
      </trkpt>
      <trkpt lat="47.02326" lon="0.0124">
        <ele>82.16</ele>
        <time>2023-06-12T07:42:00.408Z</time>
      </trkpt>
      <trkpt lat="47.02319" lon="0.01255">
        <ele>82.49</ele>
        <time>2023-06-12T07:42:39.291Z</time>
      </trkpt>
      <trkpt lat="47.02314" lon="0.01265">
        <ele>82.76</ele>
        <time>2023-06-12T07:43:18.176Z</time>
      </trkpt>
      <trkpt lat="47.02306" lon="0.0128">
        <ele>83.22</ele>
        <time>2023-06-12T07:43:57.063Z</time>
      </trkpt>
      <trkpt lat="47.02299" lon="0.01293">
        <ele>83.33</ele>
        <time>2023-06-12T07:44:35.952Z</time>
      </trkpt>
      <trkpt lat="47.02292" lon="0.01308">
        <ele>83.84</ele>
        <time>2023-06-12T07:45:14.843Z</time>
      </trkpt>
      <trkpt lat="47.02286" lon="0.01318">
        <ele>84.22</ele>
        <time>2023-06-12T07:45:53.735Z</time>
      </trkpt>
      <trkpt lat="47.02279" lon="0.01334">
        <ele>84.87</ele>
        <time>2023-06-12T07:46:32.629Z</time>
      </trkpt>
      <trkpt lat="47.02277" lon="0.01337">
        <ele>85.02</ele>
        <time>2023-06-12T07:47:11.524Z</time>
      </trkpt>
      <trkpt lat="47.02268" lon="0.01361">
        <ele>86.06</ele>
        <time>2023-06-12T07:47:50.422Z</time>
      </trkpt>
      <trkpt lat="47.02261" lon="0.01377">
        <ele>86.74</ele>
        <time>2023-06-12T07:48:29.322Z</time>
      </trkpt>
      <trkpt lat="47.02253" lon="0.01399">
        <ele>87.55</ele>
        <time>2023-06-12T07:49:08.224Z</time>
      </trkpt>
      <trkpt lat="47.02244" lon="0.01421">
        <ele>88.32</ele>
        <time>2023-06-12T07:49:47.129Z</time>
      </trkpt>
      <trkpt lat="47.0224" lon="0.01433">
        <ele>89.02</ele>
        <time>2023-06-12T07:50:26.036Z</time>
      </trkpt>
      <trkpt lat="47.02238" lon="0.01439">
        <ele>89.33</ele>
        <time>2023-06-12T07:51:04.943Z</time>
      </trkpt>
      <trkpt lat="47.02233" lon="0.0145">
        <ele>89.88</ele>
        <time>2023-06-12T07:51:43.852Z</time>
      </trkpt>
      <trkpt lat="47.02227" lon="0.01467">
        <ele>90.67</ele>
        <time>2023-06-12T07:52:22.763Z</time>
      </trkpt>
      <trkpt lat="47.02226" lon="0.01469">
        <ele>90.74</ele>
        <time>2023-06-12T07:53:01.674Z</time>
      </trkpt>
      <trkpt lat="47.02211" lon="0.01458">
        <ele>91.56</ele>
        <time>2023-06-12T07:53:40.588Z</time>
      </trkpt>
      <trkpt lat="47.02204" lon="0.01451">
        <ele>92.09</ele>
        <time>2023-06-12T07:54:19.503Z</time>
      </trkpt>
      <trkpt lat="47.02196" lon="0.01445">
        <ele>92.69</ele>
        <time>2023-06-12T07:54:58.420Z</time>
      </trkpt>
      <trkpt lat="47.02192" lon="0.01442">
        <ele>93.04</ele>
        <time>2023-06-12T07:55:37.337Z</time>
      </trkpt>
      <trkpt lat="47.02188" lon="0.01439">
        <ele>93.44</ele>
        <time>2023-06-12T07:56:16.255Z</time>
      </trkpt>
      <trkpt lat="47.02184" lon="0.01436">
        <ele>93.88</ele>
        <time>2023-06-12T07:56:55.174Z</time>
      </trkpt>
      <trkpt lat="47.02168" lon="0.01424">
        <ele>95.78</ele>
        <time>2023-06-12T07:57:34.096Z</time>
      </trkpt>
      <trkpt lat="47.02164" lon="0.01421">
        <ele>96.29</ele>
        <time>2023-06-12T07:58:13.018Z</time>
      </trkpt>
      <trkpt lat="47.0216" lon="0.01418">
        <ele>96.86</ele>
        <time>2023-06-12T07:58:51.941Z</time>
      </trkpt>
      <trkpt lat="47.02158" lon="0.01416">
        <ele>97.15</ele>
        <time>2023-06-12T07:59:30.865Z</time>
      </trkpt>
      <trkpt lat="47.0215" lon="0.01419">
        <ele>98.25</ele>
        <time>2023-06-12T08:00:09.790Z</time>
      </trkpt>
      <trkpt lat="47.02148" lon="0.01421">
        <ele>98.65</ele>
        <time>2023-06-12T08:00:48.715Z</time>
      </trkpt>
      <trkpt lat="47.02145" lon="0.01424">
        <ele>99.05</ele>
        <time>2023-06-12T08:01:27.641Z</time>
      </trkpt>
      <trkpt lat="47.02139" lon="0.01426">
        <ele>99.81</ele>
        <time>2023-06-12T08:02:06.568Z</time>
      </trkpt>
      <trkpt lat="47.02122" lon="0.01433">
        <ele>102.18</ele>
        <time>2023-06-12T08:02:45.498Z</time>
      </trkpt>
      <trkpt lat="47.02113" lon="0.01436">
        <ele>103.28</ele>
        <time>2023-06-12T08:03:24.429Z</time>
      </trkpt>
      <trkpt lat="47.02112" lon="0.01437">
        <ele>103.44</ele>
        <time>2023-06-12T08:04:03.360Z</time>
      </trkpt>
      <trkpt lat="47.02091" lon="0.01437">
        <ele>105.89</ele>
        <time>2023-06-12T08:04:42.295Z</time>
      </trkpt>
      <trkpt lat="47.02082" lon="0.01437">
        <ele>106.91</ele>
        <time>2023-06-12T08:05:21.231Z</time>
      </trkpt>
      <trkpt lat="47.02078" lon="0.01437">
        <ele>107.4</ele>
        <time>2023-06-12T08:06:00.168Z</time>
      </trkpt>
      <trkpt lat="47.02069" lon="0.01437">
        <ele>108.32</ele>
        <time>2023-06-12T08:06:39.106Z</time>
      </trkpt>
      <trkpt lat="47.02064" lon="0.01437">
        <ele>108.74</ele>
        <time>2023-06-12T08:07:18.045Z</time>
      </trkpt>
      <trkpt lat="47.02063" lon="0.01437">
        <ele>108.82</ele>
        <time>2023-06-12T08:07:56.984Z</time>
      </trkpt>
      <trkpt lat="47.02055" lon="0.01438">
        <ele>109.47</ele>
        <time>2023-06-12T08:08:35.924Z</time>
      </trkpt>
      <trkpt lat="47.02051" lon="0.01438">
        <ele>109.78</ele>
        <time>2023-06-12T08:09:14.865Z</time>
      </trkpt>
      <trkpt lat="47.02033" lon="0.01439">
        <ele>110.91</ele>
        <time>2023-06-12T08:09:53.809Z</time>
      </trkpt>
      <trkpt lat="47.02024" lon="0.0144">
        <ele>111.52</ele>
        <time>2023-06-12T08:10:32.754Z</time>
      </trkpt>
      <trkpt lat="47.02019" lon="0.0144">
        <ele>111.81</ele>
        <time>2023-06-12T08:11:11.700Z</time>
      </trkpt>
      <trkpt lat="47.02019" lon="0.0144">
        <ele>111.81</ele>
        <time>2023-06-12T08:11:50.646Z</time>
      </trkpt>
      <trkpt lat="47.02015" lon="0.01441">
        <ele>112.06</ele>
        <time>2023-06-12T08:12:29.593Z</time>
      </trkpt>
      <trkpt lat="47.0201" lon="0.01443">
        <ele>112.27</ele>
        <time>2023-06-12T08:13:08.541Z</time>
      </trkpt>
      <trkpt lat="47.01997" lon="0.01447">
        <ele>112.82</ele>
        <time>2023-06-12T08:13:47.491Z</time>
      </trkpt>
      <trkpt lat="47.01993" lon="0.01448">
        <ele>113.03</ele>
        <time>2023-06-12T08:14:26.441Z</time>
      </trkpt>
      <trkpt lat="47.01984" lon="0.01451">
        <ele>113.51</ele>
        <time>2023-06-12T08:15:05.393Z</time>
      </trkpt>
      <trkpt lat="47.01971" lon="0.01455">
        <ele>114.32</ele>
        <time>2023-06-12T08:15:44.347Z</time>
      </trkpt>
      <trkpt lat="47.01949" lon="0.01462">
        <ele>115.81</ele>
        <time>2023-06-12T08:16:23.305Z</time>
      </trkpt>
      <trkpt lat="47.01945" lon="0.01463">
        <ele>116.07</ele>
        <time>2023-06-12T08:17:02.263Z</time>
      </trkpt>
      <trkpt lat="47.01943" lon="0.01464">
        <ele>116.15</ele>
        <time>2023-06-12T08:17:41.222Z</time>
      </trkpt>
      <trkpt lat="47.0194" lon="0.01465">
        <ele>116.28</ele>
        <time>2023-06-12T08:18:20.181Z</time>
      </trkpt>
      <trkpt lat="47.01936" lon="0.01468">
        <ele>116.43</ele>
        <time>2023-06-12T08:18:59.141Z</time>
      </trkpt>
      <trkpt lat="47.01928" lon="0.01473">
        <ele>116.67</ele>
        <time>2023-06-12T08:19:38.102Z</time>
      </trkpt>
      <trkpt lat="47.0192" lon="0.01478">
        <ele>116.97</ele>
        <time>2023-06-12T08:20:17.065Z</time>
      </trkpt>
      <trkpt lat="47.01912" lon="0.01482">
        <ele>117.36</ele>
        <time>2023-06-12T08:20:56.029Z</time>
      </trkpt>
      <trkpt lat="47.01911" lon="0.01483">
        <ele>117.36</ele>
        <time>2023-06-12T08:21:34.993Z</time>
      </trkpt>
      <trkpt lat="47.019" lon="0.01492">
        <ele>117.97</ele>
        <time>2023-06-12T08:22:13.959Z</time>
      </trkpt>
      <trkpt lat="47.01888" lon="0.01502">
        <ele>118.52</ele>
        <time>2023-06-12T08:22:52.927Z</time>
      </trkpt>
      <trkpt lat="47.01877" lon="0.01512">
        <ele>117.71</ele>
        <time>2023-06-12T08:23:31.898Z</time>
      </trkpt>
      <trkpt lat="47.01873" lon="0.01516">
        <ele>117.42</ele>
        <time>2023-06-12T08:24:10.869Z</time>
      </trkpt>
      <trkpt lat="47.01869" lon="0.01519">
        <ele>117.11</ele>
        <time>2023-06-12T08:24:49.841Z</time>
      </trkpt>
      <trkpt lat="47.01865" lon="0.01522">
        <ele>116.76</ele>
        <time>2023-06-12T08:25:28.814Z</time>
      </trkpt>
      <trkpt lat="47.01857" lon="0.01529">
        <ele>115.97</ele>
        <time>2023-06-12T08:26:07.788Z</time>
      </trkpt>
      <trkpt lat="47.01842" lon="0.01542">
        <ele>114.2</ele>
        <time>2023-06-12T08:26:46.765Z</time>
      </trkpt>
      <trkpt lat="47.01842" lon="0.01542">
        <ele>114.2</ele>
        <time>2023-06-12T08:27:25.742Z</time>
      </trkpt>
      <trkpt lat="47.01839" lon="0.01547">
        <ele>113.78</ele>
        <time>2023-06-12T08:28:04.720Z</time>
      </trkpt>
      <trkpt lat="47.01836" lon="0.01551">
        <ele>113.39</ele>
        <time>2023-06-12T08:28:43.698Z</time>
      </trkpt>
      <trkpt lat="47.01833" lon="0.01556">
        <ele>113.05</ele>
        <time>2023-06-12T08:29:22.677Z</time>
      </trkpt>
      <trkpt lat="47.0183" lon="0.0156">
        <ele>112.77</ele>
        <time>2023-06-12T08:30:01.657Z</time>
      </trkpt>
      <trkpt lat="47.0183" lon="0.01561">
        <ele>112.77</ele>
        <time>2023-06-12T08:30:40.637Z</time>
      </trkpt>
      <trkpt lat="47.01827" lon="0.01566">
        <ele>112.54</ele>
        <time>2023-06-12T08:31:19.618Z</time>
      </trkpt>
      <trkpt lat="47.0182" lon="0.01583">
        <ele>111.96</ele>
        <time>2023-06-12T08:31:58.601Z</time>
      </trkpt>
      <trkpt lat="47.01818" lon="0.01589">
        <ele>111.72</ele>
        <time>2023-06-12T08:32:37.584Z</time>
      </trkpt>
      <trkpt lat="47.01813" lon="0.016">
        <ele>111.19</ele>
        <time>2023-06-12T08:33:16.569Z</time>
      </trkpt>
      <trkpt lat="47.01809" lon="0.01611">
        <ele>110.58</ele>
        <time>2023-06-12T08:33:55.555Z</time>
      </trkpt>
      <trkpt lat="47.01804" lon="0.01622">
        <ele>109.92</ele>
        <time>2023-06-12T08:34:34.543Z</time>
      </trkpt>
      <trkpt lat="47.01794" lon="0.01644">
        <ele>108.5</ele>
        <time>2023-06-12T08:35:13.534Z</time>
      </trkpt>
      <trkpt lat="47.01789" lon="0.01657">
        <ele>107.65</ele>
        <time>2023-06-12T08:35:52.526Z</time>
      </trkpt>
      <trkpt lat="47.01775" lon="0.01688">
        <ele>105.55</ele>
        <time>2023-06-12T08:36:31.522Z</time>
      </trkpt>
      <trkpt lat="47.01765" lon="0.0171">
        <ele>104.18</ele>
        <time>2023-06-12T08:37:10.521Z</time>
      </trkpt>
      <trkpt lat="47.01757" lon="0.01726">
        <ele>103.13</ele>
        <time>2023-06-12T08:37:49.522Z</time>
      </trkpt>
      <trkpt lat="47.01752" lon="0.01737">
        <ele>102.47</ele>
        <time>2023-06-12T08:38:28.525Z</time>
      </trkpt>
      <trkpt lat="47.01745" lon="0.01753">
        <ele>101.56</ele>
        <time>2023-06-12T08:39:07.530Z</time>
      </trkpt>
      <trkpt lat="47.01737" lon="0.01769">
        <ele>100.71</ele>
        <time>2023-06-12T08:39:46.537Z</time>
      </trkpt>
      <trkpt lat="47.01731" lon="0.01783">
        <ele>100.02</ele>
        <time>2023-06-12T08:40:25.546Z</time>
      </trkpt>
      <trkpt lat="47.0173" lon="0.01785">
        <ele>99.91</ele>
        <time>2023-06-12T08:41:04.555Z</time>
      </trkpt>
      <trkpt lat="47.01706" lon="0.01815">
        <ele>98.11</ele>
        <time>2023-06-12T08:41:43.569Z</time>
      </trkpt>
      <trkpt lat="47.01702" lon="0.01821">
        <ele>97.82</ele>
        <time>2023-06-12T08:42:22.584Z</time>
      </trkpt>
      <trkpt lat="47.01696" lon="0.01828">
        <ele>97.44</ele>
        <time>2023-06-12T08:43:01.600Z</time>
      </trkpt>
      <trkpt lat="47.01689" lon="0.01836">
        <ele>97.02</ele>
        <time>2023-06-12T08:43:40.618Z</time>
      </trkpt>
      <trkpt lat="47.01682" lon="0.01844">
        <ele>96.65</ele>
        <time>2023-06-12T08:44:19.637Z</time>
      </trkpt>
      <trkpt lat="47.01668" lon="0.0186">
        <ele>95.95</ele>
        <time>2023-06-12T08:44:58.659Z</time>
      </trkpt>
      <trkpt lat="47.01645" lon="0.01886">
        <ele>94.71</ele>
        <time>2023-06-12T08:45:37.686Z</time>
      </trkpt>
      <trkpt lat="47.01643" lon="0.01888">
        <ele>94.62</ele>
        <time>2023-06-12T08:46:16.713Z</time>
      </trkpt>
      <trkpt lat="47.0163" lon="0.01905">
        <ele>93.98</ele>
        <time>2023-06-12T08:46:55.743Z</time>
      </trkpt>
      <trkpt lat="47.01613" lon="0.01926">
        <ele>93.21</ele>
        <time>2023-06-12T08:47:34.776Z</time>
      </trkpt>
      <trkpt lat="47.01606" lon="0.01935">
        <ele>92.92</ele>
        <time>2023-06-12T08:48:13.811Z</time>
      </trkpt>
      <trkpt lat="47.01599" lon="0.01943">
        <ele>92.68</ele>
        <time>2023-06-12T08:48:52.847Z</time>
      </trkpt>
      <trkpt lat="47.01585" lon="0.0196">
        <ele>92.29</ele>
        <time>2023-06-12T08:49:31.886Z</time>
      </trkpt>
      <trkpt lat="47.01579" lon="0.01968">
        <ele>92.12</ele>
        <time>2023-06-12T08:50:10.927Z</time>
      </trkpt>
      <trkpt lat="47.01568" lon="0.01981">
        <ele>91.94</ele>
        <time>2023-06-12T08:50:49.970Z</time>
      </trkpt>
      <trkpt lat="47.01558" lon="0.01994">
        <ele>91.82</ele>
        <time>2023-06-12T08:51:29.015Z</time>
      </trkpt>
      <trkpt lat="47.01551" lon="0.02002">
        <ele>91.77</ele>
        <time>2023-06-12T08:52:08.061Z</time>
      </trkpt>
      <trkpt lat="47.01548" lon="0.02007">
        <ele>91.78</ele>
        <time>2023-06-12T08:52:47.108Z</time>
      </trkpt>
      <trkpt lat="47.01545" lon="0.02011">
        <ele>91.82</ele>
        <time>2023-06-12T08:53:26.156Z</time>
      </trkpt>
      <trkpt lat="47.01538" lon="0.02019">
        <ele>91.97</ele>
        <time>2023-06-12T08:54:05.205Z</time>
      </trkpt>
      <trkpt lat="47.01514" lon="0.02049">
        <ele>91.15</ele>
        <time>2023-06-12T08:54:44.259Z</time>
      </trkpt>
      <trkpt lat="47.01509" lon="0.02055">
        <ele>90.99</ele>
        <time>2023-06-12T08:55:23.314Z</time>
      </trkpt>
      <trkpt lat="47.01514" lon="0.0207">
        <ele>90.73</ele>
        <time>2023-06-12T08:56:02.371Z</time>
      </trkpt>
      <trkpt lat="47.01521" lon="0.02094">
        <ele>90.33</ele>
        <time>2023-06-12T08:56:41.431Z</time>
      </trkpt>
      <trkpt lat="47.01524" lon="0.02106">
        <ele>90.11</ele>
        <time>2023-06-12T08:57:20.492Z</time>
      </trkpt>
      <trkpt lat="47.01532" lon="0.02129">
        <ele>89.6</ele>
        <time>2023-06-12T08:57:59.556Z</time>
      </trkpt>
      <trkpt lat="47.01533" lon="0.02134">
        <ele>89.49</ele>
        <time>2023-06-12T08:58:38.621Z</time>
      </trkpt>
      <trkpt lat="47.01536" lon="0.02155">
        <ele>89.02</ele>
        <time>2023-06-12T08:59:17.688Z</time>
      </trkpt>
      <trkpt lat="47.01537" lon="0.02168">
        <ele>88.75</ele>
        <time>2023-06-12T08:59:56.756Z</time>
      </trkpt>
      <trkpt lat="47.01538" lon="0.02181">
        <ele>88.48</ele>
        <time>2023-06-12T09:00:35.826Z</time>
      </trkpt>
      <trkpt lat="47.01538" lon="0.02194">
        <ele>88.24</ele>
        <time>2023-06-12T09:01:14.897Z</time>
      </trkpt>
      <trkpt lat="47.0154" lon="0.02213">
        <ele>87.92</ele>
        <time>2023-06-12T09:01:53.970Z</time>
      </trkpt>
      <trkpt lat="47.01541" lon="0.02239">
        <ele>87.43</ele>
        <time>2023-06-12T09:02:33.046Z</time>
      </trkpt>
      <trkpt lat="47.01542" lon="0.02252">
        <ele>87.23</ele>
        <time>2023-06-12T09:03:12.124Z</time>
      </trkpt>
      <trkpt lat="47.01543" lon="0.02271">
        <ele>86.99</ele>
        <time>2023-06-12T09:03:51.204Z</time>
      </trkpt>
      <trkpt lat="47.01543" lon="0.02272">
        <ele>86.99</ele>
        <time>2023-06-12T09:04:30.284Z</time>
      </trkpt>
      <trkpt lat="47.01546" lon="0.02286">
        <ele>86.82</ele>
        <time>2023-06-12T09:05:09.365Z</time>
      </trkpt>
      <trkpt lat="47.01549" lon="0.02296">
        <ele>86.71</ele>
        <time>2023-06-12T09:05:48.448Z</time>
      </trkpt>
      <trkpt lat="47.0155" lon="0.02299">
        <ele>86.67</ele>
        <time>2023-06-12T09:06:27.531Z</time>
      </trkpt>
      <trkpt lat="47.01567" lon="0.02325">
        <ele>86.32</ele>
        <time>2023-06-12T09:07:06.618Z</time>
      </trkpt>
      <trkpt lat="47.01573" lon="0.02334">
        <ele>86.22</ele>
        <time>2023-06-12T09:07:45.706Z</time>
      </trkpt>
      <trkpt lat="47.0158" lon="0.02343">
        <ele>86.16</ele>
        <time>2023-06-12T09:08:24.796Z</time>
      </trkpt>
      <trkpt lat="47.01584" lon="0.0235">
        <ele>86.13</ele>
        <time>2023-06-12T09:09:03.887Z</time>
      </trkpt>
      <trkpt lat="47.01585" lon="0.02353">
        <ele>86.13</ele>
        <time>2023-06-12T09:09:42.978Z</time>
      </trkpt>
      <trkpt lat="47.01596" lon="0.02377">
        <ele>86.09</ele>
        <time>2023-06-12T09:10:22.072Z</time>
      </trkpt>
      <trkpt lat="47.01599" lon="0.02387">
        <ele>86.08</ele>
        <time>2023-06-12T09:11:01.168Z</time>
      </trkpt>
      <trkpt lat="47.01603" lon="0.024">
        <ele>86.08</ele>
        <time>2023-06-12T09:11:40.265Z</time>
      </trkpt>
      <trkpt lat="47.01604" lon="0.02405">
        <ele>86.08</ele>
        <time>2023-06-12T09:12:19.363Z</time>
      </trkpt>
      <trkpt lat="47.01607" lon="0.02417">
        <ele>86.15</ele>
        <time>2023-06-12T09:12:58.462Z</time>
      </trkpt>
      <trkpt lat="47.0161" lon="0.02433">
        <ele>86.26</ele>
        <time>2023-06-12T09:13:37.563Z</time>
      </trkpt>
      <trkpt lat="47.01611" lon="0.02449">
        <ele>86.37</ele>
        <time>2023-06-12T09:14:16.666Z</time>
      </trkpt>
      <trkpt lat="47.01612" lon="0.02459">
        <ele>86.39</ele>
        <time>2023-06-12T09:14:55.770Z</time>
      </trkpt>
      <trkpt lat="47.01601" lon="0.02459">
        <ele>86.44</ele>
        <time>2023-06-12T09:15:34.876Z</time>
      </trkpt>
      <trkpt lat="47.01599" lon="0.02459">
        <ele>86.45</ele>
        <time>2023-06-12T09:16:13.982Z</time>
      </trkpt>
      <trkpt lat="47.01596" lon="0.02458">
        <ele>86.48</ele>
        <time>2023-06-12T09:16:53.088Z</time>
      </trkpt>
      <trkpt lat="47.01592" lon="0.02457">
        <ele>86.56</ele>
        <time>2023-06-12T09:17:32.195Z</time>
      </trkpt>
      <trkpt lat="47.01587" lon="0.02456">
        <ele>86.68</ele>
        <time>2023-06-12T09:18:11.303Z</time>
      </trkpt>
      <trkpt lat="47.0157" lon="0.02451">
        <ele>87.34</ele>
        <time>2023-06-12T09:18:50.414Z</time>
      </trkpt>
      <trkpt lat="47.01561" lon="0.02448">
        <ele>87.63</ele>
        <time>2023-06-12T09:19:29.526Z</time>
      </trkpt>
      <trkpt lat="47.0156" lon="0.02448">
        <ele>87.65</ele>
        <time>2023-06-12T09:20:08.638Z</time>
      </trkpt>
      <trkpt lat="47.01525" lon="0.02435">
        <ele>88.7</ele>
        <time>2023-06-12T09:20:47.756Z</time>
      </trkpt>
      <trkpt lat="47.01518" lon="0.02432">
        <ele>88.93</ele>
        <time>2023-06-12T09:21:26.875Z</time>
      </trkpt>
      <trkpt lat="47.01513" lon="0.0243">
        <ele>89.04</ele>
        <time>2023-06-12T09:22:05.995Z</time>
      </trkpt>
      <trkpt lat="47.01509" lon="0.02428">
        <ele>89.12</ele>
        <time>2023-06-12T09:22:45.116Z</time>
      </trkpt>
      <trkpt lat="47.01496" lon="0.02422">
        <ele>89.3</ele>
        <time>2023-06-12T09:23:24.239Z</time>
      </trkpt>
      <trkpt lat="47.01488" lon="0.02418">
        <ele>89.44</ele>
        <time>2023-06-12T09:24:03.363Z</time>
      </trkpt>
      <trkpt lat="47.01475" lon="0.02412">
        <ele>89.75</ele>
        <time>2023-06-12T09:24:42.489Z</time>
      </trkpt>
      <trkpt lat="47.01453" lon="0.02402">
        <ele>90.39</ele>
        <time>2023-06-12T09:25:21.619Z</time>
      </trkpt>
      <trkpt lat="47.01449" lon="0.024">
        <ele>90.49</ele>
        <time>2023-06-12T09:26:00.750Z</time>
      </trkpt>
      <trkpt lat="47.01445" lon="0.02398">
        <ele>90.56</ele>
        <time>2023-06-12T09:26:39.881Z</time>
      </trkpt>
      <trkpt lat="47.01437" lon="0.02394">
        <ele>90.64</ele>
        <time>2023-06-12T09:27:19.014Z</time>
      </trkpt>
      <trkpt lat="47.01436" lon="0.02394">
        <ele>90.65</ele>
        <time>2023-06-12T09:27:58.147Z</time>
      </trkpt>
      <trkpt lat="47.01414" lon="0.02388">
        <ele>90.67</ele>
        <time>2023-06-12T09:28:37.283Z</time>
      </trkpt>
      <trkpt lat="47.01401" lon="0.02384">
        <ele>90.75</ele>
        <time>2023-06-12T09:29:16.422Z</time>
      </trkpt>
      <trkpt lat="47.01396" lon="0.02383">
        <ele>90.75</ele>
        <time>2023-06-12T09:29:55.561Z</time>
      </trkpt>
      <trkpt lat="47.01392" lon="0.02382">
        <ele>90.73</ele>
        <time>2023-06-12T09:30:34.701Z</time>
      </trkpt>
      <trkpt lat="47.01383" lon="0.0238">
        <ele>90.65</ele>
        <time>2023-06-12T09:31:13.843Z</time>
      </trkpt>
      <trkpt lat="47.01365" lon="0.02375">
        <ele>90.42</ele>
        <time>2023-06-12T09:31:52.987Z</time>
      </trkpt>
      <trkpt lat="47.01361" lon="0.02374">
        <ele>90.38</ele>
        <time>2023-06-12T09:32:32.132Z</time>
      </trkpt>
      <trkpt lat="47.01356" lon="0.02373">
        <ele>90.37</ele>
        <time>2023-06-12T09:33:11.278Z</time>
      </trkpt>
      <trkpt lat="47.01343" lon="0.02369">
        <ele>90.4</ele>
        <time>2023-06-12T09:33:50.426Z</time>
      </trkpt>
      <trkpt lat="47.01339" lon="0.02368">
        <ele>90.39</ele>
        <time>2023-06-12T09:34:29.575Z</time>
      </trkpt>
      <trkpt lat="47.01334" lon="0.02367">
        <ele>90.35</ele>
        <time>2023-06-12T09:35:08.724Z</time>
      </trkpt>
      <trkpt lat="47.01321" lon="0.02363">
        <ele>90.17</ele>
        <time>2023-06-12T09:35:47.876Z</time>
      </trkpt>
      <trkpt lat="47.0129" lon="0.02355">
        <ele>89.88</ele>
        <time>2023-06-12T09:36:27.033Z</time>
      </trkpt>
      <trkpt lat="47.01282" lon="0.02353">
        <ele>89.76</ele>
        <time>2023-06-12T09:37:06.191Z</time>
      </trkpt>
      <trkpt lat="47.01281" lon="0.02353">
        <ele>89.76</ele>
        <time>2023-06-12T09:37:45.349Z</time>
      </trkpt>
      <trkpt lat="47.01237" lon="0.02346">
        <ele>88.89</ele>
        <time>2023-06-12T09:38:24.514Z</time>
      </trkpt>
      <trkpt lat="47.0122" lon="0.02344">
        <ele>88.63</ele>
        <time>2023-06-12T09:39:03.682Z</time>
      </trkpt>
      <trkpt lat="47.01219" lon="0.02344">
        <ele>88.61</ele>
        <time>2023-06-12T09:39:42.850Z</time>
      </trkpt>
      <trkpt lat="47.01214" lon="0.02344">
        <ele>88.51</ele>
        <time>2023-06-12T09:40:22.019Z</time>
      </trkpt>
      <trkpt lat="47.01201" lon="0.02344">
        <ele>88.14</ele>
        <time>2023-06-12T09:41:01.190Z</time>
      </trkpt>
      <trkpt lat="47.01192" lon="0.02344">
        <ele>87.94</ele>
        <time>2023-06-12T09:41:40.362Z</time>
      </trkpt>
      <trkpt lat="47.01183" lon="0.02345">
        <ele>87.86</ele>
        <time>2023-06-12T09:42:19.536Z</time>
      </trkpt>
      <trkpt lat="47.01165" lon="0.02345">
        <ele>87.76</ele>
        <time>2023-06-12T09:42:58.713Z</time>
      </trkpt>
      <trkpt lat="47.01142" lon="0.02345">
        <ele>87.69</ele>
        <time>2023-06-12T09:43:37.893Z</time>
      </trkpt>
      <trkpt lat="47.01133" lon="0.02346">
        <ele>87.7</ele>
        <time>2023-06-12T09:44:17.075Z</time>
      </trkpt>
      <trkpt lat="47.01129" lon="0.02346">
        <ele>87.73</ele>
        <time>2023-06-12T09:44:56.258Z</time>
      </trkpt>
      <trkpt lat="47.01124" lon="0.02346">
        <ele>87.79</ele>
        <time>2023-06-12T09:45:35.441Z</time>
      </trkpt>
      <trkpt lat="47.0112" lon="0.02346">
        <ele>87.9</ele>
        <time>2023-06-12T09:46:14.625Z</time>
      </trkpt>
      <trkpt lat="47.01115" lon="0.02346">
        <ele>88.05</ele>
        <time>2023-06-12T09:46:53.810Z</time>
      </trkpt>
      <trkpt lat="47.01102" lon="0.02346">
        <ele>88.55</ele>
        <time>2023-06-12T09:47:32.997Z</time>
      </trkpt>
      <trkpt lat="47.01088" lon="0.02346">
        <ele>89.01</ele>
        <time>2023-06-12T09:48:12.186Z</time>
      </trkpt>
      <trkpt lat="47.01084" lon="0.02346">
        <ele>89.2</ele>
        <time>2023-06-12T09:48:51.376Z</time>
      </trkpt>
      <trkpt lat="47.01075" lon="0.02347">
        <ele>89.65</ele>
        <time>2023-06-12T09:49:30.567Z</time>
      </trkpt>
      <trkpt lat="47.01053" lon="0.02347">
        <ele>90.53</ele>
        <time>2023-06-12T09:50:09.762Z</time>
      </trkpt>
      <trkpt lat="47.01044" lon="0.02347">
        <ele>90.83</ele>
        <time>2023-06-12T09:50:48.958Z</time>
      </trkpt>
      <trkpt lat="47.0103" lon="0.02347">
        <ele>91.24</ele>
        <time>2023-06-12T09:51:28.156Z</time>
      </trkpt>
      <trkpt lat="47.01026" lon="0.02347">
        <ele>91.36</ele>
        <time>2023-06-12T09:52:07.355Z</time>
      </trkpt>
      <trkpt lat="47.01022" lon="0.02347">
        <ele>91.44</ele>
        <time>2023-06-12T09:52:46.555Z</time>
      </trkpt>
      <trkpt lat="47.01017" lon="0.02348">
        <ele>91.49</ele>
        <time>2023-06-12T09:53:25.755Z</time>
      </trkpt>
      <trkpt lat="47.01013" lon="0.02348">
        <ele>91.51</ele>
        <time>2023-06-12T09:54:04.956Z</time>
      </trkpt>
      <trkpt lat="47.0099" lon="0.02348">
        <ele>91.45</ele>
        <time>2023-06-12T09:54:44.161Z</time>
      </trkpt>
      <trkpt lat="47.00973" lon="0.02348">
        <ele>91.26</ele>
        <time>2023-06-12T09:55:23.369Z</time>
      </trkpt>
      <trkpt lat="47.00968" lon="0.02348">
        <ele>91.23</ele>
        <time>2023-06-12T09:56:02.577Z</time>
      </trkpt>
      <trkpt lat="47.00959" lon="0.02349">
        <ele>91.25</ele>
        <time>2023-06-12T09:56:41.787Z</time>
      </trkpt>
      <trkpt lat="47.0095" lon="0.02349">
        <ele>91.35</ele>
        <time>2023-06-12T09:57:20.998Z</time>
      </trkpt>
      <trkpt lat="47.00946" lon="0.02349">
        <ele>91.37</ele>
        <time>2023-06-12T09:58:00.210Z</time>
      </trkpt>
      <trkpt lat="47.00941" lon="0.02349">
        <ele>91.36</ele>
        <time>2023-06-12T09:58:39.423Z</time>
      </trkpt>
      <trkpt lat="47.00937" lon="0.02349">
        <ele>91.31</ele>
        <time>2023-06-12T09:59:18.636Z</time>
      </trkpt>
      <trkpt lat="47.00924" lon="0.02349">
        <ele>91.04</ele>
        <time>2023-06-12T09:59:57.851Z</time>
      </trkpt>
      <trkpt lat="47.00906" lon="0.0235">
        <ele>90.71</ele>
        <time>2023-06-12T10:00:37.069Z</time>
      </trkpt>
      <trkpt lat="47.00901" lon="0.0235">
        <ele>90.59</ele>
        <time>2023-06-12T10:01:16.288Z</time>
      </trkpt>
      <trkpt lat="47.00888" lon="0.0235">
        <ele>90.18</ele>
        <time>2023-06-12T10:01:55.509Z</time>
      </trkpt>
      <trkpt lat="47.00884" lon="0.0235">
        <ele>90.06</ele>
        <time>2023-06-12T10:02:34.731Z</time>
      </trkpt>
      <trkpt lat="47.0088" lon="0.0235">
        <ele>89.98</ele>
        <time>2023-06-12T10:03:13.953Z</time>
      </trkpt>
      <trkpt lat="47.00875" lon="0.02351">
        <ele>89.87</ele>
        <time>2023-06-12T10:03:53.176Z</time>
      </trkpt>
      <trkpt lat="47.00866" lon="0.02352">
        <ele>89.71</ele>
        <time>2023-06-12T10:04:32.401Z</time>
      </trkpt>
      <trkpt lat="47.00857" lon="0.02353">
        <ele>89.58</ele>
        <time>2023-06-12T10:05:11.627Z</time>
      </trkpt>
      <trkpt lat="47.00844" lon="0.02354">
        <ele>89.47</ele>
        <time>2023-06-12T10:05:50.855Z</time>
      </trkpt>
      <trkpt lat="47.00817" lon="0.02361">
        <ele>89.25</ele>
        <time>2023-06-12T10:06:30.087Z</time>
      </trkpt>
      <trkpt lat="47.00804" lon="0.02365">
        <ele>89.25</ele>
        <time>2023-06-12T10:07:09.322Z</time>
      </trkpt>
      <trkpt lat="47.00793" lon="0.02368">
        <ele>89.29</ele>
        <time>2023-06-12T10:07:48.558Z</time>
      </trkpt>
      <trkpt lat="47.00787" lon="0.0237">
        <ele>89.32</ele>
        <time>2023-06-12T10:08:27.796Z</time>
      </trkpt>
      <trkpt lat="47.00778" lon="0.02372">
        <ele>89.41</ele>
        <time>2023-06-12T10:09:07.035Z</time>
      </trkpt>
      <trkpt lat="47.00769" lon="0.02374">
        <ele>89.59</ele>
        <time>2023-06-12T10:09:46.275Z</time>
      </trkpt>
      <trkpt lat="47.00765" lon="0.02375">
        <ele>89.71</ele>
        <time>2023-06-12T10:10:25.516Z</time>
      </trkpt>
      <trkpt lat="47.0076" lon="0.02376">
        <ele>89.86</ele>
        <time>2023-06-12T10:11:04.758Z</time>
      </trkpt>
      <trkpt lat="47.00756" lon="0.02377">
        <ele>90.03</ele>
        <time>2023-06-12T10:11:44.001Z</time>
      </trkpt>
      <trkpt lat="47.00738" lon="0.02381">
        <ele>90.82</ele>
        <time>2023-06-12T10:12:23.246Z</time>
      </trkpt>
      <trkpt lat="47.00729" lon="0.02383">
        <ele>91.15</ele>
        <time>2023-06-12T10:13:02.493Z</time>
      </trkpt>
      <trkpt lat="47.00707" lon="0.02388">
        <ele>91.83</ele>
        <time>2023-06-12T10:13:41.743Z</time>
      </trkpt>
      <trkpt lat="47.0069" lon="0.02392">
        <ele>92.24</ele>
        <time>2023-06-12T10:14:20.996Z</time>
      </trkpt>
      <trkpt lat="47.00685" lon="0.02393">
        <ele>92.36</ele>
        <time>2023-06-12T10:15:00.250Z</time>
      </trkpt>
      <trkpt lat="47.00681" lon="0.02395">
        <ele>92.5</ele>
        <time>2023-06-12T10:15:39.505Z</time>
      </trkpt>
      <trkpt lat="47.00668" lon="0.02398">
        <ele>92.99</ele>
        <time>2023-06-12T10:16:18.762Z</time>
      </trkpt>
      <trkpt lat="47.00654" lon="0.02401">
        <ele>93.37</ele>
        <time>2023-06-12T10:16:58.021Z</time>
      </trkpt>
      <trkpt lat="47.00641" lon="0.02404">
        <ele>93.64</ele>
        <time>2023-06-12T10:17:37.282Z</time>
      </trkpt>
      <trkpt lat="47.00623" lon="0.02408">
        <ele>93.91</ele>
        <time>2023-06-12T10:18:16.546Z</time>
      </trkpt>
      <trkpt lat="47.00601" lon="0.02413">
        <ele>94.28</ele>
        <time>2023-06-12T10:18:55.814Z</time>
      </trkpt>
      <trkpt lat="47.00597" lon="0.02414">
        <ele>94.34</ele>
        <time>2023-06-12T10:19:35.082Z</time>
      </trkpt>
      <trkpt lat="47.00593" lon="0.02415">
        <ele>94.37</ele>
        <time>2023-06-12T10:20:14.351Z</time>
      </trkpt>
      <trkpt lat="47.00575" lon="0.0242">
        <ele>94.42</ele>
        <time>2023-06-12T10:20:53.623Z</time>
      </trkpt>
      <trkpt lat="47.00566" lon="0.02422">
        <ele>94.42</ele>
        <time>2023-06-12T10:21:32.896Z</time>
      </trkpt>
      <trkpt lat="47.00557" lon="0.02424">
        <ele>94.36</ele>
        <time>2023-06-12T10:22:12.171Z</time>
      </trkpt>
      <trkpt lat="47.00553" lon="0.02425">
        <ele>94.3</ele>
        <time>2023-06-12T10:22:51.446Z</time>
      </trkpt>
      <trkpt lat="47.00544" lon="0.02427">
        <ele>94.1</ele>
        <time>2023-06-12T10:23:30.723Z</time>
      </trkpt>
      <trkpt lat="47.00522" lon="0.02432">
        <ele>93.41</ele>
        <time>2023-06-12T10:24:10.003Z</time>
      </trkpt>
      <trkpt lat="47.00505" lon="0.02436">
        <ele>93.28</ele>
        <time>2023-06-12T10:24:49.286Z</time>
      </trkpt>
      <trkpt lat="47.00488" lon="0.0244">
        <ele>93.09</ele>
        <time>2023-06-12T10:25:28.572Z</time>
      </trkpt>
      <trkpt lat="47.00467" lon="0.02445">
        <ele>92.83</ele>
        <time>2023-06-12T10:26:07.861Z</time>
      </trkpt>
      <trkpt lat="47.00453" lon="0.02451">
        <ele>92.65</ele>
        <time>2023-06-12T10:26:47.153Z</time>
      </trkpt>
      <trkpt lat="47.0045" lon="0.02452">
        <ele>92.59</ele>
        <time>2023-06-12T10:27:26.445Z</time>
      </trkpt>
      <trkpt lat="47.00438" lon="0.02451">
        <ele>92.4</ele>
        <time>2023-06-12T10:28:05.739Z</time>
      </trkpt>
      <trkpt lat="47.00431" lon="0.0245">
        <ele>92.36</ele>
        <time>2023-06-12T10:28:45.034Z</time>
      </trkpt>
      <trkpt lat="47.00415" lon="0.0245">
        <ele>92.3</ele>
        <time>2023-06-12T10:29:24.332Z</time>
      </trkpt>
      <trkpt lat="47.00413" lon="0.02429">
        <ele>92.24</ele>
        <time>2023-06-12T10:30:03.632Z</time>
      </trkpt>
      <trkpt lat="47.00357" lon="0.02407">
        <ele>91.99</ele>
        <time>2023-06-12T10:30:42.941Z</time>
      </trkpt>
      <trkpt lat="47.00335" lon="0.02392">
        <ele>91.89</ele>
        <time>2023-06-12T10:31:22.254Z</time>
      </trkpt>
      <trkpt lat="47.00318" lon="0.02367">
        <ele>91.79</ele>
        <time>2023-06-12T10:32:01.571Z</time>
      </trkpt>
      <trkpt lat="47.00306" lon="0.0233">
        <ele>91.68</ele>
        <time>2023-06-12T10:32:40.893Z</time>
      </trkpt>
      <trkpt lat="47.00304" lon="0.02324">
        <ele>91.72</ele>
        <time>2023-06-12T10:33:20.215Z</time>
      </trkpt>
      <trkpt lat="47.00286" lon="0.02208">
        <ele>92.5</ele>
        <time>2023-06-12T10:33:59.550Z</time>
      </trkpt>
      <trkpt lat="47.00273" lon="0.02089">
        <ele>93.3</ele>
        <time>2023-06-12T10:34:38.899Z</time>
      </trkpt>
      <trkpt lat="47.00263" lon="0.02023">
        <ele>93.75</ele>
        <time>2023-06-12T10:35:18.255Z</time>
      </trkpt>
      <trkpt lat="47.00256" lon="0.01988">
        <ele>93.99</ele>
        <time>2023-06-12T10:35:57.615Z</time>
      </trkpt>
      <trkpt lat="47.00245" lon="0.01951">
        <ele>94.25</ele>
        <time>2023-06-12T10:36:36.979Z</time>
      </trkpt>
      <trkpt lat="47.00233" lon="0.0189">
        <ele>94.68</ele>
        <time>2023-06-12T10:37:16.350Z</time>
      </trkpt>
      <trkpt lat="47.0023" lon="0.01878">
        <ele>94.67</ele>
        <time>2023-06-12T10:37:55.723Z</time>
      </trkpt>
      <trkpt lat="47.00229" lon="0.01872">
        <ele>94.74</ele>
        <time>2023-06-12T10:38:35.096Z</time>
      </trkpt>
      <trkpt lat="47.00226" lon="0.01836">
        <ele>95.13</ele>
        <time>2023-06-12T10:39:14.473Z</time>
      </trkpt>
      <trkpt lat="47.00219" lon="0.01843">
        <ele>95.26</ele>
        <time>2023-06-12T10:39:53.852Z</time>
      </trkpt>
      <trkpt lat="47.00219" lon="0.018">
        <ele>95.73</ele>
        <time>2023-06-12T10:40:33.235Z</time>
      </trkpt>
      <trkpt lat="47.00209" lon="0.0171">
        <ele>96.72</ele>
        <time>2023-06-12T10:41:12.628Z</time>
      </trkpt>
      <trkpt lat="47.00196" lon="0.01631">
        <ele>97.6</ele>
        <time>2023-06-12T10:41:52.030Z</time>
      </trkpt>
      <trkpt lat="47.00153" lon="0.01495">
        <ele>99.23</ele>
        <time>2023-06-12T10:42:31.449Z</time>
      </trkpt>
      <trkpt lat="47.00132" lon="0.01439">
        <ele>99.92</ele>
        <time>2023-06-12T10:43:10.875Z</time>
      </trkpt>
      <trkpt lat="47.00118" lon="0.01412">
        <ele>100.29</ele>
        <time>2023-06-12T10:43:50.304Z</time>
      </trkpt>
      <trkpt lat="47.00086" lon="0.0136">
        <ele>101.05</ele>
        <time>2023-06-12T10:44:29.741Z</time>
      </trkpt>
      <trkpt lat="47.00055" lon="0.0132">
        <ele>101.7</ele>
        <time>2023-06-12T10:45:09.185Z</time>
      </trkpt>
      <trkpt lat="47.0003" lon="0.0128">
        <ele>102.29</ele>
        <time>2023-06-12T10:45:48.635Z</time>
      </trkpt>
      <trkpt lat="46.99998" lon="0.01236">
        <ele>102.99</ele>
        <time>2023-06-12T10:46:28.092Z</time>
      </trkpt>
      <trkpt lat="46.99976" lon="0.01198">
        <ele>103.53</ele>
        <time>2023-06-12T10:47:07.554Z</time>
      </trkpt>
      <trkpt lat="46.99943" lon="0.01127">
        <ele>104.46</ele>
        <time>2023-06-12T10:47:47.026Z</time>
      </trkpt>
      <trkpt lat="46.99935" lon="0.01102">
        <ele>104.77</ele>
        <time>2023-06-12T10:48:26.501Z</time>
      </trkpt>
      <trkpt lat="46.99926" lon="0.01076">
        <ele>103.11</ele>
        <time>2023-06-12T10:49:05.979Z</time>
      </trkpt>
      <trkpt lat="46.99918" lon="0.01053">
        <ele>103.16</ele>
        <time>2023-06-12T10:49:45.460Z</time>
      </trkpt>
      <trkpt lat="46.99918" lon="0.01053">
        <ele>103.16</ele>
        <time>2023-06-12T10:50:24.941Z</time>
      </trkpt>
      <trkpt lat="46.99913" lon="0.01035">
        <ele>103.28</ele>
        <time>2023-06-12T10:51:04.424Z</time>
      </trkpt>
      <trkpt lat="46.99911" lon="0.01025">
        <ele>103.39</ele>
        <time>2023-06-12T10:51:43.908Z</time>
      </trkpt>
      <trkpt lat="46.99911" lon="0.01023">
        <ele>103.42</ele>
        <time>2023-06-12T10:52:23.392Z</time>
      </trkpt>
      <trkpt lat="46.9991" lon="0.01016">
        <ele>103.51</ele>
        <time>2023-06-12T10:53:02.877Z</time>
      </trkpt>
      <trkpt lat="46.99907" lon="0.00998">
        <ele>103.85</ele>
        <time>2023-06-12T10:53:42.364Z</time>
      </trkpt>
      <trkpt lat="46.99907" lon="0.00992">
        <ele>103.94</ele>
        <time>2023-06-12T10:54:21.852Z</time>
      </trkpt>
      <trkpt lat="46.99903" lon="0.00967">
        <ele>104.16</ele>
        <time>2023-06-12T10:55:01.342Z</time>
      </trkpt>
      <trkpt lat="46.99902" lon="0.00954">
        <ele>104.3</ele>
        <time>2023-06-12T10:55:40.834Z</time>
      </trkpt>
      <trkpt lat="46.99901" lon="0.00948">
        <ele>104.4</ele>
        <time>2023-06-12T10:56:20.326Z</time>
      </trkpt>
      <trkpt lat="46.999" lon="0.00942">
        <ele>104.54</ele>
        <time>2023-06-12T10:56:59.819Z</time>
      </trkpt>
      <trkpt lat="46.99899" lon="0.00935">
        <ele>104.71</ele>
        <time>2023-06-12T10:57:39.313Z</time>
      </trkpt>
      <trkpt lat="46.99897" lon="0.00917">
        <ele>105.29</ele>
        <time>2023-06-12T10:58:18.809Z</time>
      </trkpt>
      <trkpt lat="46.99896" lon="0.0091">
        <ele>105.46</ele>
        <time>2023-06-12T10:58:58.306Z</time>
      </trkpt>
      <trkpt lat="46.99894" lon="0.00898">
        <ele>105.76</ele>
        <time>2023-06-12T10:59:37.804Z</time>
      </trkpt>
      <trkpt lat="46.99887" lon="0.00844">
        <ele>106.56</ele>
        <time>2023-06-12T11:00:17.308Z</time>
      </trkpt>
      <trkpt lat="46.99748" lon="0.00774">
        <ele>109.75</ele>
        <time>2023-06-12T11:00:56.836Z</time>
      </trkpt>
      <trkpt lat="46.99684" lon="0.00753">
        <ele>111.17</ele>
        <time>2023-06-12T11:01:36.374Z</time>
      </trkpt>
      <trkpt lat="46.99529" lon="0.00676">
        <ele>114.72</ele>
        <time>2023-06-12T11:02:15.938Z</time>
      </trkpt>
      <trkpt lat="46.99501" lon="0.00662">
        <ele>115.04</ele>
        <time>2023-06-12T11:02:55.507Z</time>
      </trkpt>
      <trkpt lat="46.99447" lon="0.00652">
        <ele>115.65</ele>
        <time>2023-06-12T11:03:35.085Z</time>
      </trkpt>
      <trkpt lat="46.9933" lon="0.00639">
        <ele>116.95</ele>
        <time>2023-06-12T11:04:14.682Z</time>
      </trkpt>
      <trkpt lat="46.99282" lon="0.00621">
        <ele>117.5</ele>
        <time>2023-06-12T11:04:54.286Z</time>
      </trkpt>
      <trkpt lat="46.99246" lon="0.00608">
        <ele>116.85</ele>
        <time>2023-06-12T11:05:33.896Z</time>
      </trkpt>
      <trkpt lat="46.99223" lon="0.00604">
        <ele>116.45</ele>
        <time>2023-06-12T11:06:13.510Z</time>
      </trkpt>
      <trkpt lat="46.99141" lon="0.00612">
        <ele>115.01</ele>
        <time>2023-06-12T11:06:53.137Z</time>
      </trkpt>
      <trkpt lat="46.99135" lon="0.00612">
        <ele>114.92</ele>
        <time>2023-06-12T11:07:32.765Z</time>
      </trkpt>
      <trkpt lat="46.99122" lon="0.00611">
        <ele>114.92</ele>
        <time>2023-06-12T11:08:12.395Z</time>
      </trkpt>
      <trkpt lat="46.99098" lon="0.0061">
        <ele>113.47</ele>
        <time>2023-06-12T11:08:52.029Z</time>
      </trkpt>
      <trkpt lat="46.99069" lon="0.00602">
        <ele>111.72</ele>
        <time>2023-06-12T11:09:31.668Z</time>
      </trkpt>
      <trkpt lat="46.99038" lon="0.00577">
        <ele>109.61</ele>
        <time>2023-06-12T11:10:11.313Z</time>
      </trkpt>
      <trkpt lat="46.99002" lon="0.0054">
        <ele>106.99</ele>
        <time>2023-06-12T11:10:50.965Z</time>
      </trkpt>
      <trkpt lat="46.98955" lon="0.00504">
        <ele>103.82</ele>
        <time>2023-06-12T11:11:30.625Z</time>
      </trkpt>
      <trkpt lat="46.9892" lon="0.00487">
        <ele>101.63</ele>
        <time>2023-06-12T11:12:10.291Z</time>
      </trkpt>
      <trkpt lat="46.98896" lon="0.00475">
        <ele>100.96</ele>
        <time>2023-06-12T11:12:49.961Z</time>
      </trkpt>
      <trkpt lat="46.98884" lon="0.00472">
        <ele>100.63</ele>
        <time>2023-06-12T11:13:29.633Z</time>
      </trkpt>
      <trkpt lat="46.98865" lon="0.00399">
        <ele>99.22</ele>
        <time>2023-06-12T11:14:09.314Z</time>
      </trkpt>
      <trkpt lat="46.98851" lon="0.00363">
        <ele>98.48</ele>
        <time>2023-06-12T11:14:48.999Z</time>
      </trkpt>
      <trkpt lat="46.98819" lon="0.00308">
        <ele>97.17</ele>
        <time>2023-06-12T11:15:28.692Z</time>
      </trkpt>
      <trkpt lat="46.9878" lon="0.00247">
        <ele>95.67</ele>
        <time>2023-06-12T11:16:08.394Z</time>
      </trkpt>
      <trkpt lat="46.98771" lon="0.00232">
        <ele>95.56</ele>
        <time>2023-06-12T11:16:48.098Z</time>
      </trkpt>
      <trkpt lat="46.98771" lon="0.00232">
        <ele>95.56</ele>
        <time>2023-06-12T11:17:27.802Z</time>
      </trkpt>
      <trkpt lat="46.98766" lon="0.00222">
        <ele>95.47</ele>
        <time>2023-06-12T11:18:07.508Z</time>
      </trkpt>
      <trkpt lat="46.98761" lon="0.00212">
        <ele>95.34</ele>
        <time>2023-06-12T11:18:47.215Z</time>
      </trkpt>
      <trkpt lat="46.98757" lon="0.00205">
        <ele>95.23</ele>
        <time>2023-06-12T11:19:26.923Z</time>
      </trkpt>
      <trkpt lat="46.9874" lon="0.00221">
        <ele>94.9</ele>
        <time>2023-06-12T11:20:06.634Z</time>
      </trkpt>
      <trkpt lat="46.98733" lon="0.00228">
        <ele>94.79</ele>
        <time>2023-06-12T11:20:46.347Z</time>
      </trkpt>
      <trkpt lat="46.98726" lon="0.00235">
        <ele>94.7</ele>
        <time>2023-06-12T11:21:26.061Z</time>
      </trkpt>
      <trkpt lat="46.98718" lon="0.00242">
        <ele>94.64</ele>
        <time>2023-06-12T11:22:05.776Z</time>
      </trkpt>
      <trkpt lat="46.98707" lon="0.00253">
        <ele>94.62</ele>
        <time>2023-06-12T11:22:45.494Z</time>
      </trkpt>
      <trkpt lat="46.987" lon="0.0026">
        <ele>94.54</ele>
        <time>2023-06-12T11:23:25.213Z</time>
      </trkpt>
      <trkpt lat="46.98693" lon="0.00267">
        <ele>94.36</ele>
        <time>2023-06-12T11:24:04.933Z</time>
      </trkpt>
      <trkpt lat="46.98686" lon="0.00274">
        <ele>94.08</ele>
        <time>2023-06-12T11:24:44.655Z</time>
      </trkpt>
      <trkpt lat="46.98679" lon="0.0028">
        <ele>94.01</ele>
        <time>2023-06-12T11:25:24.378Z</time>
      </trkpt>
      <trkpt lat="46.98676" lon="0.00283">
        <ele>93.99</ele>
        <time>2023-06-12T11:26:04.102Z</time>
      </trkpt>
      <trkpt lat="46.98672" lon="0.00285">
        <ele>93.98</ele>
        <time>2023-06-12T11:26:43.826Z</time>
      </trkpt>
      <trkpt lat="46.9866" lon="0.00291">
        <ele>94.04</ele>
        <time>2023-06-12T11:27:23.552Z</time>
      </trkpt>
      <trkpt lat="46.98652" lon="0.00295">
        <ele>94.04</ele>
        <time>2023-06-12T11:28:03.280Z</time>
      </trkpt>
      <trkpt lat="46.98646" lon="0.00302">
        <ele>94.04</ele>
        <time>2023-06-12T11:28:43.009Z</time>
      </trkpt>
      <trkpt lat="46.9864" lon="0.00308">
        <ele>94.06</ele>
        <time>2023-06-12T11:29:22.739Z</time>
      </trkpt>
      <trkpt lat="46.98636" lon="0.00314">
        <ele>94.09</ele>
        <time>2023-06-12T11:30:02.470Z</time>
      </trkpt>
      <trkpt lat="46.98631" lon="0.00323">
        <ele>94.18</ele>
        <time>2023-06-12T11:30:42.202Z</time>
      </trkpt>
      <trkpt lat="46.98612" lon="0.00342">
        <ele>94.47</ele>
        <time>2023-06-12T11:31:21.938Z</time>
      </trkpt>
      <trkpt lat="46.98604" lon="0.00349">
        <ele>94.6</ele>
        <time>2023-06-12T11:32:01.675Z</time>
      </trkpt>
      <trkpt lat="46.98597" lon="0.00357">
        <ele>94.76</ele>
        <time>2023-06-12T11:32:41.414Z</time>
      </trkpt>
      <trkpt lat="46.98556" lon="0.00397">
        <ele>95.96</ele>
        <time>2023-06-12T11:33:21.161Z</time>
      </trkpt>
      <trkpt lat="46.98548" lon="0.00404">
        <ele>96.23</ele>
        <time>2023-06-12T11:34:00.909Z</time>
      </trkpt>
      <trkpt lat="46.98537" lon="0.00415">
        <ele>96.69</ele>
        <time>2023-06-12T11:34:40.659Z</time>
      </trkpt>
      <trkpt lat="46.98518" lon="0.00434">
        <ele>97.56</ele>
        <time>2023-06-12T11:35:20.413Z</time>
      </trkpt>
      <trkpt lat="46.98503" lon="0.00448">
        <ele>98.22</ele>
        <time>2023-06-12T11:36:00.170Z</time>
      </trkpt>
      <trkpt lat="46.98492" lon="0.00459">
        <ele>98.79</ele>
        <time>2023-06-12T11:36:39.929Z</time>
      </trkpt>
      <trkpt lat="46.98489" lon="0.00463">
        <ele>99.02</ele>
        <time>2023-06-12T11:37:19.689Z</time>
      </trkpt>
      <trkpt lat="46.98481" lon="0.0047">
        <ele>99.53</ele>
        <time>2023-06-12T11:37:59.450Z</time>
      </trkpt>
      <trkpt lat="46.98447" lon="0.00503">
        <ele>102.03</ele>
        <time>2023-06-12T11:38:39.218Z</time>
      </trkpt>
      <trkpt lat="46.9844" lon="0.0051">
        <ele>102.54</ele>
        <time>2023-06-12T11:39:18.987Z</time>
      </trkpt>
      <trkpt lat="46.98433" lon="0.00518">
        <ele>103.01</ele>
        <time>2023-06-12T11:39:58.757Z</time>
      </trkpt>
      <trkpt lat="46.98425" lon="0.00525">
        <ele>103.45</ele>
        <time>2023-06-12T11:40:38.529Z</time>
      </trkpt>
      <trkpt lat="46.98414" lon="0.00536">
        <ele>104.02</ele>
        <time>2023-06-12T11:41:18.303Z</time>
      </trkpt>
      <trkpt lat="46.98395" lon="0.00554">
        <ele>104.89</ele>
        <time>2023-06-12T11:41:58.081Z</time>
      </trkpt>
      <trkpt lat="46.98384" lon="0.00565">
        <ele>105.35</ele>
        <time>2023-06-12T11:42:37.861Z</time>
      </trkpt>
      <trkpt lat="46.98377" lon="0.00573">
        <ele>105.6</ele>
        <time>2023-06-12T11:43:17.642Z</time>
      </trkpt>
      <trkpt lat="46.98365" lon="0.00584">
        <ele>105.89</ele>
        <time>2023-06-12T11:43:57.425Z</time>
      </trkpt>
      <trkpt lat="46.98362" lon="0.00587">
        <ele>105.96</ele>
        <time>2023-06-12T11:44:37.209Z</time>
      </trkpt>
      <trkpt lat="46.98354" lon="0.00595">
        <ele>106.13</ele>
        <time>2023-06-12T11:45:16.995Z</time>
      </trkpt>
      <trkpt lat="46.98344" lon="0.00607">
        <ele>106.31</ele>
        <time>2023-06-12T11:45:56.783Z</time>
      </trkpt>
      <trkpt lat="46.98333" lon="0.00619">
        <ele>106.45</ele>
        <time>2023-06-12T11:46:36.573Z</time>
      </trkpt>
      <trkpt lat="46.98332" lon="0.0062">
        <ele>106.45</ele>
        <time>2023-06-12T11:47:16.363Z</time>
      </trkpt>
      <trkpt lat="46.98319" lon="0.00636">
        <ele>106.55</ele>
        <time>2023-06-12T11:47:56.156Z</time>
      </trkpt>
      <trkpt lat="46.98295" lon="0.00666">
        <ele>106.61</ele>
        <time>2023-06-12T11:48:35.954Z</time>
      </trkpt>
      <trkpt lat="46.98288" lon="0.00674">
        <ele>106.6</ele>
        <time>2023-06-12T11:49:15.753Z</time>
      </trkpt>
      <trkpt lat="46.98281" lon="0.00683">
        <ele>106.52</ele>
        <time>2023-06-12T11:49:55.554Z</time>
      </trkpt>
      <trkpt lat="46.98274" lon="0.00691">
        <ele>106.37</ele>
        <time>2023-06-12T11:50:35.356Z</time>
      </trkpt>
      <trkpt lat="46.98264" lon="0.00704">
        <ele>106.04</ele>
        <time>2023-06-12T11:51:15.160Z</time>
      </trkpt>
      <trkpt lat="46.98254" lon="0.00716">
        <ele>105.59</ele>
        <time>2023-06-12T11:51:54.966Z</time>
      </trkpt>
      <trkpt lat="46.98237" lon="0.00738">
        <ele>104.77</ele>
        <time>2023-06-12T11:52:34.776Z</time>
      </trkpt>
      <trkpt lat="46.98219" lon="0.00759">
        <ele>104</ele>
        <time>2023-06-12T11:53:14.590Z</time>
      </trkpt>
      <trkpt lat="46.98199" lon="0.00784">
        <ele>102.96</ele>
        <time>2023-06-12T11:53:54.408Z</time>
      </trkpt>
      <trkpt lat="46.98199" lon="0.00784">
        <ele>102.96</ele>
        <time>2023-06-12T11:54:34.226Z</time>
      </trkpt>
      <trkpt lat="46.98191" lon="0.00791">
        <ele>102.65</ele>
        <time>2023-06-12T11:55:14.045Z</time>
      </trkpt>
      <trkpt lat="46.98184" lon="0.00799">
        <ele>102.4</ele>
        <time>2023-06-12T11:55:53.866Z</time>
      </trkpt>
      <trkpt lat="46.98162" lon="0.00819">
        <ele>101.78</ele>
        <time>2023-06-12T11:56:33.691Z</time>
      </trkpt>
      <trkpt lat="46.98161" lon="0.0082">
        <ele>101.76</ele>
        <time>2023-06-12T11:57:13.516Z</time>
      </trkpt>
      <trkpt lat="46.98153" lon="0.00825">
        <ele>101.52</ele>
        <time>2023-06-12T11:57:53.343Z</time>
      </trkpt>
      <trkpt lat="46.98132" lon="0.00837">
        <ele>100.83</ele>
        <time>2023-06-12T11:58:33.173Z</time>
      </trkpt>
      <trkpt lat="46.98119" lon="0.00842">
        <ele>100.42</ele>
        <time>2023-06-12T11:59:13.005Z</time>
      </trkpt>
      <trkpt lat="46.98115" lon="0.00844">
        <ele>100.31</ele>
        <time>2023-06-12T11:59:52.838Z</time>
      </trkpt>
      <trkpt lat="46.98101" lon="0.00846">
        <ele>99.92</ele>
        <time>2023-06-12T12:00:32.673Z</time>
      </trkpt>
      <trkpt lat="46.98077" lon="0.0085">
        <ele>99.31</ele>
        <time>2023-06-12T12:01:12.512Z</time>
      </trkpt>
      <trkpt lat="46.98058" lon="0.00849">
        <ele>98.83</ele>
        <time>2023-06-12T12:01:52.354Z</time>
      </trkpt>
      <trkpt lat="46.98034" lon="0.00845">
        <ele>98.23</ele>
        <time>2023-06-12T12:02:32.200Z</time>
      </trkpt>
      <trkpt lat="46.98025" lon="0.00843">
        <ele>98.05</ele>
        <time>2023-06-12T12:03:12.047Z</time>
      </trkpt>
      <trkpt lat="46.98015" lon="0.00841">
        <ele>97.86</ele>
        <time>2023-06-12T12:03:51.896Z</time>
      </trkpt>
      <trkpt lat="46.97994" lon="0.00836">
        <ele>97.49</ele>
        <time>2023-06-12T12:04:31.749Z</time>
      </trkpt>
      <trkpt lat="46.97981" lon="0.00833">
        <ele>97.21</ele>
        <time>2023-06-12T12:05:11.604Z</time>
      </trkpt>
      <trkpt lat="46.97972" lon="0.00831">
        <ele>96.99</ele>
        <time>2023-06-12T12:05:51.460Z</time>
      </trkpt>
      <trkpt lat="46.97963" lon="0.00829">
        <ele>96.74</ele>
        <time>2023-06-12T12:06:31.318Z</time>
      </trkpt>
      <trkpt lat="46.97927" lon="0.00821">
        <ele>95.65</ele>
        <time>2023-06-12T12:07:11.181Z</time>
      </trkpt>
      <trkpt lat="46.97897" lon="0.00814">
        <ele>94.86</ele>
        <time>2023-06-12T12:07:51.049Z</time>
      </trkpt>
      <trkpt lat="46.97884" lon="0.00814">
        <ele>94.53</ele>
        <time>2023-06-12T12:08:30.919Z</time>
      </trkpt>
      <trkpt lat="46.97883" lon="0.00814">
        <ele>94.5</ele>
        <time>2023-06-12T12:09:10.789Z</time>
      </trkpt>
      <trkpt lat="46.97874" lon="0.00816">
        <ele>94.31</ele>
        <time>2023-06-12T12:09:50.661Z</time>
      </trkpt>
      <trkpt lat="46.97869" lon="0.00816">
        <ele>94.24</ele>
        <time>2023-06-12T12:10:30.534Z</time>
      </trkpt>
      <trkpt lat="46.97865" lon="0.00817">
        <ele>94.2</ele>
        <time>2023-06-12T12:11:10.407Z</time>
      </trkpt>
      <trkpt lat="46.97861" lon="0.00818">
        <ele>94.17</ele>
        <time>2023-06-12T12:11:50.281Z</time>
      </trkpt>
      <trkpt lat="46.97835" lon="0.00825">
        <ele>93.85</ele>
        <time>2023-06-12T12:12:30.159Z</time>
      </trkpt>
      <trkpt lat="46.97824" lon="0.00828">
        <ele>93.73</ele>
        <time>2023-06-12T12:13:10.039Z</time>
      </trkpt>
      <trkpt lat="46.9781" lon="0.00832">
        <ele>93.6</ele>
        <time>2023-06-12T12:13:49.921Z</time>
      </trkpt>
      <trkpt lat="46.97788" lon="0.00839">
        <ele>93.58</ele>
        <time>2023-06-12T12:14:29.807Z</time>
      </trkpt>
      <trkpt lat="46.9778" lon="0.00842">
        <ele>93.55</ele>
        <time>2023-06-12T12:15:09.694Z</time>
      </trkpt>
      <trkpt lat="46.97762" lon="0.00848">
        <ele>93.46</ele>
        <time>2023-06-12T12:15:49.584Z</time>
      </trkpt>
      <trkpt lat="46.97753" lon="0.00851">
        <ele>93.38</ele>
        <time>2023-06-12T12:16:29.476Z</time>
      </trkpt>
      <trkpt lat="46.97745" lon="0.00853">
        <ele>93.25</ele>
        <time>2023-06-12T12:17:09.369Z</time>
      </trkpt>
      <trkpt lat="46.97736" lon="0.00856">
        <ele>93.08</ele>
        <time>2023-06-12T12:17:49.263Z</time>
      </trkpt>
      <trkpt lat="46.97692" lon="0.0087">
        <ele>92.01</ele>
        <time>2023-06-12T12:18:29.165Z</time>
      </trkpt>
      <trkpt lat="46.97684" lon="0.00873">
        <ele>91.73</ele>
        <time>2023-06-12T12:19:09.068Z</time>
      </trkpt>
      <trkpt lat="46.97675" lon="0.00876">
        <ele>91.42</ele>
        <time>2023-06-12T12:19:48.972Z</time>
      </trkpt>
      <trkpt lat="46.97655" lon="0.00882">
        <ele>90.65</ele>
        <time>2023-06-12T12:20:28.880Z</time>
      </trkpt>
      <trkpt lat="46.97645" lon="0.00885">
        <ele>90.29</ele>
        <time>2023-06-12T12:21:08.789Z</time>
      </trkpt>
      <trkpt lat="46.97624" lon="0.00891">
        <ele>89.56</ele>
        <time>2023-06-12T12:21:48.702Z</time>
      </trkpt>
      <trkpt lat="46.97602" lon="0.00897">
        <ele>88.86</ele>
        <time>2023-06-12T12:22:28.618Z</time>
      </trkpt>
      <trkpt lat="46.9759" lon="0.00901">
        <ele>88.42</ele>
        <time>2023-06-12T12:23:08.536Z</time>
      </trkpt>
      <trkpt lat="46.97577" lon="0.00905">
        <ele>87.91</ele>
        <time>2023-06-12T12:23:48.456Z</time>
      </trkpt>
      <trkpt lat="46.97568" lon="0.00908">
        <ele>87.54</ele>
        <time>2023-06-12T12:24:28.378Z</time>
      </trkpt>
      <trkpt lat="46.9756" lon="0.0091">
        <ele>87.14</ele>
        <time>2023-06-12T12:25:08.301Z</time>
      </trkpt>
      <trkpt lat="46.97529" lon="0.00919">
        <ele>85.67</ele>
        <time>2023-06-12T12:25:48.229Z</time>
      </trkpt>
      <trkpt lat="46.97516" lon="0.00923">
        <ele>85.08</ele>
        <time>2023-06-12T12:26:28.159Z</time>
      </trkpt>
      <trkpt lat="46.97475" lon="0.00935">
        <ele>83.44</ele>
        <time>2023-06-12T12:27:08.096Z</time>
      </trkpt>
      <trkpt lat="46.97465" lon="0.00941">
        <ele>83.04</ele>
        <time>2023-06-12T12:27:48.035Z</time>
      </trkpt>
      <trkpt lat="46.97454" lon="0.00949">
        <ele>82.79</ele>
        <time>2023-06-12T12:28:27.976Z</time>
      </trkpt>
      <trkpt lat="46.97435" lon="0.00972">
        <ele>82.3</ele>
        <time>2023-06-12T12:29:07.921Z</time>
      </trkpt>
      <trkpt lat="46.97421" lon="0.00994">
        <ele>81.9</ele>
        <time>2023-06-12T12:29:47.869Z</time>
      </trkpt>
      <trkpt lat="46.97415" lon="0.01003">
        <ele>81.58</ele>
        <time>2023-06-12T12:30:27.818Z</time>
      </trkpt>
      <trkpt lat="46.97409" lon="0.01012">
        <ele>81.28</ele>
        <time>2023-06-12T12:31:07.769Z</time>
      </trkpt>
      <trkpt lat="46.97403" lon="0.01021">
        <ele>81.02</ele>
        <time>2023-06-12T12:31:47.721Z</time>
      </trkpt>
      <trkpt lat="46.97395" lon="0.01033">
        <ele>80.74</ele>
        <time>2023-06-12T12:32:27.675Z</time>
      </trkpt>
      <trkpt lat="46.97394" lon="0.01035">
        <ele>80.7</ele>
        <time>2023-06-12T12:33:07.629Z</time>
      </trkpt>
      <trkpt lat="46.97376" lon="0.01078">
        <ele>80.01</ele>
        <time>2023-06-12T12:33:47.589Z</time>
      </trkpt>
      <trkpt lat="46.97364" lon="0.01105">
        <ele>79.66</ele>
        <time>2023-06-12T12:34:27.552Z</time>
      </trkpt>
      <trkpt lat="46.97357" lon="0.01121">
        <ele>79.42</ele>
        <time>2023-06-12T12:35:07.517Z</time>
      </trkpt>
      <trkpt lat="46.97343" lon="0.01154">
        <ele>78.76</ele>
        <time>2023-06-12T12:35:47.487Z</time>
      </trkpt>
      <trkpt lat="46.97338" lon="0.01165">
        <ele>78.57</ele>
        <time>2023-06-12T12:36:27.458Z</time>
      </trkpt>
      <trkpt lat="46.97337" lon="0.01168">
        <ele>78.52</ele>
        <time>2023-06-12T12:37:07.429Z</time>
      </trkpt>
      <trkpt lat="46.97326" lon="0.01184">
        <ele>78.22</ele>
        <time>2023-06-12T12:37:47.403Z</time>
      </trkpt>
      <trkpt lat="46.97317" lon="0.01198">
        <ele>78.02</ele>
        <time>2023-06-12T12:38:27.379Z</time>
      </trkpt>
      <trkpt lat="46.97307" lon="0.01212">
        <ele>77.89</ele>
        <time>2023-06-12T12:39:07.357Z</time>
      </trkpt>
      <trkpt lat="46.97298" lon="0.01226">
        <ele>77.84</ele>
        <time>2023-06-12T12:39:47.337Z</time>
      </trkpt>
      <trkpt lat="46.97295" lon="0.01231">
        <ele>77.84</ele>
        <time>2023-06-12T12:40:27.318Z</time>
      </trkpt>
      <trkpt lat="46.97292" lon="0.01236">
        <ele>77.86</ele>
        <time>2023-06-12T12:41:07.300Z</time>
      </trkpt>
      <trkpt lat="46.97289" lon="0.01241">
        <ele>77.89</ele>
        <time>2023-06-12T12:41:47.283Z</time>
      </trkpt>
      <trkpt lat="46.97284" lon="0.01251">
        <ele>77.99</ele>
        <time>2023-06-12T12:42:27.267Z</time>
      </trkpt>
      <trkpt lat="46.97268" lon="0.0128">
        <ele>77.76</ele>
        <time>2023-06-12T12:43:07.255Z</time>
      </trkpt>
      <trkpt lat="46.97255" lon="0.01304">
        <ele>77.53</ele>
        <time>2023-06-12T12:43:47.246Z</time>
      </trkpt>
      <trkpt lat="46.97247" lon="0.01319">
        <ele>77.41</ele>
        <time>2023-06-12T12:44:27.239Z</time>
      </trkpt>
      <trkpt lat="46.97238" lon="0.01334">
        <ele>77.21</ele>
        <time>2023-06-12T12:45:07.235Z</time>
      </trkpt>
      <trkpt lat="46.97225" lon="0.01359">
        <ele>76.81</ele>
        <time>2023-06-12T12:45:47.234Z</time>
      </trkpt>
      <trkpt lat="46.97213" lon="0.01379">
        <ele>76.55</ele>
        <time>2023-06-12T12:46:27.236Z</time>
      </trkpt>
      <trkpt lat="46.97205" lon="0.01394">
        <ele>76.41</ele>
        <time>2023-06-12T12:47:07.240Z</time>
      </trkpt>
      <trkpt lat="46.97197" lon="0.01409">
        <ele>76.35</ele>
        <time>2023-06-12T12:47:47.246Z</time>
      </trkpt>
      <trkpt lat="46.97182" lon="0.01436">
        <ele>76.19</ele>
        <time>2023-06-12T12:48:27.256Z</time>
      </trkpt>
      <trkpt lat="46.97176" lon="0.01446">
        <ele>76.08</ele>
        <time>2023-06-12T12:49:07.267Z</time>
      </trkpt>
      <trkpt lat="46.97173" lon="0.01452">
        <ele>76.02</ele>
        <time>2023-06-12T12:49:47.279Z</time>
      </trkpt>
      <trkpt lat="46.97169" lon="0.01453">
        <ele>75.99</ele>
        <time>2023-06-12T12:50:27.292Z</time>
      </trkpt>
      <trkpt lat="46.97149" lon="0.01456">
        <ele>75.86</ele>
        <time>2023-06-12T12:51:07.308Z</time>
      </trkpt>
      <trkpt lat="46.97135" lon="0.0145">
        <ele>75.77</ele>
        <time>2023-06-12T12:51:47.326Z</time>
      </trkpt>
      <trkpt lat="46.97123" lon="0.01445">
        <ele>75.71</ele>
        <time>2023-06-12T12:52:27.346Z</time>
      </trkpt>
      <trkpt lat="46.97103" lon="0.01436">
        <ele>75.58</ele>
        <time>2023-06-12T12:53:07.370Z</time>
      </trkpt>
      <trkpt lat="46.97099" lon="0.01434">
        <ele>75.56</ele>
        <time>2023-06-12T12:53:47.394Z</time>
      </trkpt>
      <trkpt lat="46.97092" lon="0.01425">
        <ele>75.54</ele>
        <time>2023-06-12T12:54:27.420Z</time>
      </trkpt>
      <trkpt lat="46.97083" lon="0.01413">
        <ele>75.56</ele>
        <time>2023-06-12T12:55:07.448Z</time>
      </trkpt>
      <trkpt lat="46.97053" lon="0.01374">
        <ele>75.81</ele>
        <time>2023-06-12T12:55:47.482Z</time>
      </trkpt>
      <trkpt lat="46.97053" lon="0.01374">
        <ele>75.81</ele>
        <time>2023-06-12T12:56:27.516Z</time>
      </trkpt>
      <trkpt lat="46.97039" lon="0.01364">
        <ele>75.94</ele>
        <time>2023-06-12T12:57:07.553Z</time>
      </trkpt>
      <trkpt lat="46.97038" lon="0.01364">
        <ele>75.96</ele>
        <time>2023-06-12T12:57:47.590Z</time>
      </trkpt>
      <trkpt lat="46.97026" lon="0.01365">
        <ele>76.08</ele>
        <time>2023-06-12T12:58:27.629Z</time>
      </trkpt>
      <trkpt lat="46.97007" lon="0.01369">
        <ele>76.3</ele>
        <time>2023-06-12T12:59:07.671Z</time>
      </trkpt>
      <trkpt lat="46.96985" lon="0.01374">
        <ele>76.44</ele>
        <time>2023-06-12T12:59:47.717Z</time>
      </trkpt>
      <trkpt lat="46.96969" lon="0.01378">
        <ele>76.65</ele>
        <time>2023-06-12T13:00:27.765Z</time>
      </trkpt>
      <trkpt lat="46.96963" lon="0.01377">
        <ele>76.73</ele>
        <time>2023-06-12T13:01:07.814Z</time>
      </trkpt>
      <trkpt lat="46.96949" lon="0.01373">
        <ele>76.84</ele>
        <time>2023-06-12T13:01:47.865Z</time>
      </trkpt>
      <trkpt lat="46.96936" lon="0.0137">
        <ele>76.87</ele>
        <time>2023-06-12T13:02:27.919Z</time>
      </trkpt>
      <trkpt lat="46.96917" lon="0.01366">
        <ele>76.47</ele>
        <time>2023-06-12T13:03:07.976Z</time>
      </trkpt>
      <trkpt lat="46.96914" lon="0.01367">
        <ele>76.41</ele>
        <time>2023-06-12T13:03:48.033Z</time>
      </trkpt>
      <trkpt lat="46.96911" lon="0.01368">
        <ele>76.34</ele>
        <time>2023-06-12T13:04:28.091Z</time>
      </trkpt>
      <trkpt lat="46.96898" lon="0.01368">
        <ele>76.05</ele>
        <time>2023-06-12T13:05:08.151Z</time>
      </trkpt>
      <trkpt lat="46.96896" lon="0.01367">
        <ele>76.01</ele>
        <time>2023-06-12T13:05:48.211Z</time>
      </trkpt>
      <trkpt lat="46.96883" lon="0.01363">
        <ele>75.85</ele>
        <time>2023-06-12T13:06:28.273Z</time>
      </trkpt>
      <trkpt lat="46.9687" lon="0.01358">
        <ele>75.66</ele>
        <time>2023-06-12T13:07:08.337Z</time>
      </trkpt>
      <trkpt lat="46.9687" lon="0.01358">
        <ele>75.66</ele>
        <time>2023-06-12T13:07:48.401Z</time>
      </trkpt>
      <trkpt lat="46.96859" lon="0.01357">
        <ele>75.44</ele>
        <time>2023-06-12T13:08:28.467Z</time>
      </trkpt>
      <trkpt lat="46.96851" lon="0.0136">
        <ele>75.29</ele>
        <time>2023-06-12T13:09:08.534Z</time>
      </trkpt>
      <trkpt lat="46.96839" lon="0.01367">
        <ele>75.06</ele>
        <time>2023-06-12T13:09:48.603Z</time>
      </trkpt>
      <trkpt lat="46.96834" lon="0.0137">
        <ele>74.93</ele>
        <time>2023-06-12T13:10:28.673Z</time>
      </trkpt>
      <trkpt lat="46.96827" lon="0.01366">
        <ele>74.75</ele>
        <time>2023-06-12T13:11:08.745Z</time>
      </trkpt>
      <trkpt lat="46.96824" lon="0.01365">
        <ele>74.66</ele>
        <time>2023-06-12T13:11:48.817Z</time>
      </trkpt>
      <trkpt lat="46.96806" lon="0.01347">
        <ele>74.05</ele>
        <time>2023-06-12T13:12:28.892Z</time>
      </trkpt>
      <trkpt lat="46.96805" lon="0.01345">
        <ele>74.01</ele>
        <time>2023-06-12T13:13:08.968Z</time>
      </trkpt>
      <trkpt lat="46.96799" lon="0.01335">
        <ele>73.78</ele>
        <time>2023-06-12T13:13:49.045Z</time>
      </trkpt>
      <trkpt lat="46.96794" lon="0.01326">
        <ele>73.62</ele>
        <time>2023-06-12T13:14:29.123Z</time>
      </trkpt>
      <trkpt lat="46.96777" lon="0.01287">
        <ele>73.01</ele>
        <time>2023-06-12T13:15:09.207Z</time>
      </trkpt>
      <trkpt lat="46.96772" lon="0.01276">
        <ele>72.87</ele>
        <time>2023-06-12T13:15:49.292Z</time>
      </trkpt>
      <trkpt lat="46.96763" lon="0.01255">
        <ele>72.63</ele>
        <time>2023-06-12T13:16:29.380Z</time>
      </trkpt>
      <trkpt lat="46.96753" lon="0.01233">
        <ele>72.43</ele>
        <time>2023-06-12T13:17:09.471Z</time>
      </trkpt>
      <trkpt lat="46.9675" lon="0.01226">
        <ele>72.35</ele>
        <time>2023-06-12T13:17:49.562Z</time>
      </trkpt>
      <trkpt lat="46.96741" lon="0.01209">
        <ele>72.16</ele>
        <time>2023-06-12T13:18:29.656Z</time>
      </trkpt>
      <trkpt lat="46.9674" lon="0.01207">
        <ele>72.14</ele>
        <time>2023-06-12T13:19:09.750Z</time>
      </trkpt>
      <trkpt lat="46.96715" lon="0.01177">
        <ele>72.09</ele>
        <time>2023-06-12T13:19:49.849Z</time>
      </trkpt>
      <trkpt lat="46.9671" lon="0.01173">
        <ele>72.08</ele>
        <time>2023-06-12T13:20:29.949Z</time>
      </trkpt>
      <trkpt lat="46.96708" lon="0.01163">
        <ele>72.07</ele>
        <time>2023-06-12T13:21:10.050Z</time>
      </trkpt>
      <trkpt lat="46.96697" lon="0.01134">
        <ele>72.03</ele>
        <time>2023-06-12T13:21:50.155Z</time>
      </trkpt>
      <trkpt lat="46.96694" lon="0.01115">
        <ele>72.01</ele>
        <time>2023-06-12T13:22:30.262Z</time>
      </trkpt>
      <trkpt lat="46.96688" lon="0.01059">
        <ele>71.95</ele>
        <time>2023-06-12T13:23:10.375Z</time>
      </trkpt>
      <trkpt lat="46.96682" lon="0.00961">
        <ele>71.85</ele>
        <time>2023-06-12T13:23:50.499Z</time>
      </trkpt>
      <trkpt lat="46.96677" lon="0.00925">
        <ele>71.81</ele>
        <time>2023-06-12T13:24:30.627Z</time>
      </trkpt>
      <trkpt lat="46.96665" lon="0.00888">
        <ele>71.77</ele>
        <time>2023-06-12T13:25:10.760Z</time>
      </trkpt>
      <trkpt lat="46.96649" lon="0.00852">
        <ele>71.73</ele>
        <time>2023-06-12T13:25:50.897Z</time>
      </trkpt>
      <trkpt lat="46.96645" lon="0.00839">
        <ele>71.71</ele>
        <time>2023-06-12T13:26:31.036Z</time>
      </trkpt>
      <trkpt lat="46.96644" lon="0.00826">
        <ele>71.7</ele>
        <time>2023-06-12T13:27:11.176Z</time>
      </trkpt>
      <trkpt lat="46.96646" lon="0.00809">
        <ele>71.68</ele>
        <time>2023-06-12T13:27:51.318Z</time>
      </trkpt>
      <trkpt lat="46.96657" lon="0.00776">
        <ele>71.64</ele>
        <time>2023-06-12T13:28:31.464Z</time>
      </trkpt>
      <trkpt lat="46.96695" lon="0.0068">
        <ele>71.53</ele>
        <time>2023-06-12T13:29:11.622Z</time>
      </trkpt>
      <trkpt lat="46.96706" lon="0.00648">
        <ele>71.49</ele>
        <time>2023-06-12T13:29:51.784Z</time>
      </trkpt>
      <trkpt lat="46.9671" lon="0.00632">
        <ele>71.48</ele>
        <time>2023-06-12T13:30:31.948Z</time>
      </trkpt>
      <trkpt lat="46.96714" lon="0.00618">
        <ele>71.54</ele>
        <time>2023-06-12T13:31:12.114Z</time>
      </trkpt>
      <trkpt lat="46.96716" lon="0.00609">
        <ele>71.58</ele>
        <time>2023-06-12T13:31:52.281Z</time>
      </trkpt>
      <trkpt lat="46.96719" lon="0.0059">
        <ele>71.9</ele>
        <time>2023-06-12T13:32:32.450Z</time>
      </trkpt>
      <trkpt lat="46.96722" lon="0.00571">
        <ele>72.14</ele>
        <time>2023-06-12T13:33:12.621Z</time>
      </trkpt>
      <trkpt lat="46.96725" lon="0.00555">
        <ele>72.64</ele>
        <time>2023-06-12T13:33:52.794Z</time>
      </trkpt>
      <trkpt lat="46.96728" lon="0.00516">
        <ele>73.83</ele>
        <time>2023-06-12T13:34:32.971Z</time>
      </trkpt>
      <trkpt lat="46.96727" lon="0.00502">
        <ele>74.26</ele>
        <time>2023-06-12T13:35:13.150Z</time>
      </trkpt>
      <trkpt lat="46.96731" lon="0.0039">
        <ele>77.66</ele>
        <time>2023-06-12T13:35:53.341Z</time>
      </trkpt>
      <trkpt lat="46.96729" lon="0.00319">
        <ele>79.82</ele>
        <time>2023-06-12T13:36:33.540Z</time>
      </trkpt>
      <trkpt lat="46.96726" lon="0.00299">
        <ele>80.46</ele>
        <time>2023-06-12T13:37:13.741Z</time>
      </trkpt>
      <trkpt lat="46.96723" lon="0.00284">
        <ele>80.22</ele>
        <time>2023-06-12T13:37:53.944Z</time>
      </trkpt>
      <trkpt lat="46.96712" lon="0.00247">
        <ele>79.58</ele>
        <time>2023-06-12T13:38:34.151Z</time>
      </trkpt>
      <trkpt lat="46.967" lon="0.0024">
        <ele>79.28</ele>
        <time>2023-06-12T13:39:14.360Z</time>
      </trkpt>
      <trkpt lat="46.96674" lon="0.00235">
        <ele>78.67</ele>
        <time>2023-06-12T13:39:54.574Z</time>
      </trkpt>
      <trkpt lat="46.96658" lon="0.00229">
        <ele>78.29</ele>
        <time>2023-06-12T13:40:34.790Z</time>
      </trkpt>
      <trkpt lat="46.96601" lon="0.00201">
        <ele>76.9</ele>
        <time>2023-06-12T13:41:15.016Z</time>
      </trkpt>
      <trkpt lat="46.96553" lon="0.00186">
        <ele>75.77</ele>
        <time>2023-06-12T13:41:55.250Z</time>
      </trkpt>
      <trkpt lat="46.96515" lon="0.00181">
        <ele>74.89</ele>
        <time>2023-06-12T13:42:35.490Z</time>
      </trkpt>
      <trkpt lat="46.9647" lon="0.0018">
        <ele>73.85</ele>
        <time>2023-06-12T13:43:15.737Z</time>
      </trkpt>
      <trkpt lat="46.96463" lon="0.00176">
        <ele>73.67</ele>
        <time>2023-06-12T13:43:55.985Z</time>
      </trkpt>
      <trkpt lat="46.96447" lon="0.00162">
        <ele>73.24</ele>
        <time>2023-06-12T13:44:36.236Z</time>
      </trkpt>
      <trkpt lat="46.96399" lon="0.00107">
        <ele>71.83</ele>
        <time>2023-06-12T13:45:16.497Z</time>
      </trkpt>
      <trkpt lat="46.96337" lon="-8.0E-5">
        <ele>69.52</ele>
        <time>2023-06-12T13:45:56.774Z</time>
      </trkpt>
      <trkpt lat="46.96328" lon="-0.00019">
        <ele>69.25</ele>
        <time>2023-06-12T13:46:37.053Z</time>
      </trkpt>
      <trkpt lat="46.9621" lon="-0.00141">
        <ele>65.91</ele>
        <time>2023-06-12T13:47:17.355Z</time>
      </trkpt>
      <trkpt lat="46.96189" lon="-0.00176">
        <ele>65.18</ele>
        <time>2023-06-12T13:47:57.662Z</time>
      </trkpt>
      <trkpt lat="46.9613" lon="-0.00298">
        <ele>62.82</ele>
        <time>2023-06-12T13:48:37.985Z</time>
      </trkpt>
      <trkpt lat="46.96128" lon="-0.00302">
        <ele>62.74</ele>
        <time>2023-06-12T13:49:18.309Z</time>
      </trkpt>
      <trkpt lat="46.95996" lon="-0.00513">
        <ele>63.3</ele>
        <time>2023-06-12T13:49:58.664Z</time>
      </trkpt>
      <trkpt lat="46.95979" lon="-0.00536">
        <ele>63.36</ele>
        <time>2023-06-12T13:50:39.023Z</time>
      </trkpt>
      <trkpt lat="46.95847" lon="-0.00687">
        <ele>63.84</ele>
        <time>2023-06-12T13:51:19.409Z</time>
      </trkpt>
      <trkpt lat="46.95782" lon="-0.00783">
        <ele>64.11</ele>
        <time>2023-06-12T13:51:59.810Z</time>
      </trkpt>
      <trkpt lat="46.95761" lon="-0.00808">
        <ele>64.19</ele>
        <time>2023-06-12T13:52:40.215Z</time>
      </trkpt>
      <trkpt lat="46.95689" lon="-0.0088">
        <ele>64.44</ele>
        <time>2023-06-12T13:53:20.634Z</time>
      </trkpt>
      <trkpt lat="46.95658" lon="-0.00918">
        <ele>64.56</ele>
        <time>2023-06-12T13:54:01.059Z</time>
      </trkpt>
      <trkpt lat="46.95594" lon="-0.01004">
        <ele>64.8</ele>
        <time>2023-06-12T13:54:41.498Z</time>
      </trkpt>
      <trkpt lat="46.95592" lon="-0.01008">
        <ele>64.82</ele>
        <time>2023-06-12T13:55:21.938Z</time>
      </trkpt>
      <trkpt lat="46.95569" lon="-0.01053">
        <ele>64.7</ele>
        <time>2023-06-12T13:56:02.384Z</time>
      </trkpt>
      <trkpt lat="46.95503" lon="-0.00941">
        <ele>64.39</ele>
        <time>2023-06-12T13:56:42.846Z</time>
      </trkpt>
      <trkpt lat="46.95309" lon="-0.00613">
        <ele>61.35</ele>
        <time>2023-06-12T13:57:23.356Z</time>
      </trkpt>
      <trkpt lat="46.95284" lon="-0.00571">
        <ele>61.12</ele>
        <time>2023-06-12T13:58:03.872Z</time>
      </trkpt>
      <trkpt lat="46.95039" lon="-0.00135">
        <ele>58.88</ele>
        <time>2023-06-12T13:58:44.450Z</time>
      </trkpt>
      <trkpt lat="46.94993" lon="-0.00092">
        <ele>58.56</ele>
        <time>2023-06-12T13:59:25.036Z</time>
      </trkpt>
      <trkpt lat="46.94978" lon="-0.00083">
        <ele>58.47</ele>
        <time>2023-06-12T14:00:05.625Z</time>
      </trkpt>
      <trkpt lat="46.94967" lon="-0.00076">
        <ele>58.53</ele>
        <time>2023-06-12T14:00:46.216Z</time>
      </trkpt>
      <trkpt lat="46.94942" lon="-0.00066">
        <ele>58.67</ele>
        <time>2023-06-12T14:01:26.811Z</time>
      </trkpt>
      <trkpt lat="46.94939" lon="-0.00075">
        <ele>58.71</ele>
        <time>2023-06-12T14:02:07.407Z</time>
      </trkpt>
      <trkpt lat="46.94934" lon="-0.00079">
        <ele>58.74</ele>
        <time>2023-06-12T14:02:48.004Z</time>
      </trkpt>
      <trkpt lat="46.94905" lon="-0.00094">
        <ele>58.91</ele>
        <time>2023-06-12T14:03:28.606Z</time>
      </trkpt>
      <trkpt lat="46.94869" lon="-0.00112">
        <ele>58.61</ele>
        <time>2023-06-12T14:04:09.214Z</time>
      </trkpt>
      <trkpt lat="46.94827" lon="-0.00136">
        <ele>58.27</ele>
        <time>2023-06-12T14:04:49.829Z</time>
      </trkpt>
      <trkpt lat="46.94786" lon="-0.00167">
        <ele>57.91</ele>
        <time>2023-06-12T14:05:30.452Z</time>
      </trkpt>
      <trkpt lat="46.94717" lon="-0.00212">
        <ele>57.34</ele>
        <time>2023-06-12T14:06:11.087Z</time>
      </trkpt>
      <trkpt lat="46.94716" lon="-0.00213">
        <ele>57.32</ele>
        <time>2023-06-12T14:06:51.722Z</time>
      </trkpt>
      <trkpt lat="46.94707" lon="-0.00212">
        <ele>57.23</ele>
        <time>2023-06-12T14:07:32.358Z</time>
      </trkpt>
      <trkpt lat="46.94703" lon="-0.0021">
        <ele>57.19</ele>
        <time>2023-06-12T14:08:12.995Z</time>
      </trkpt>
      <trkpt lat="46.94697" lon="-0.00207">
        <ele>57.21</ele>
        <time>2023-06-12T14:08:53.633Z</time>
      </trkpt>
      <trkpt lat="46.94689" lon="-0.00202">
        <ele>57.21</ele>
        <time>2023-06-12T14:09:34.273Z</time>
      </trkpt>
      <trkpt lat="46.94679" lon="-0.00197">
        <ele>57.08</ele>
        <time>2023-06-12T14:10:14.914Z</time>
      </trkpt>
      <trkpt lat="46.94672" lon="-0.00195">
        <ele>56.99</ele>
        <time>2023-06-12T14:10:55.556Z</time>
      </trkpt>
      <trkpt lat="46.94665" lon="-0.00193">
        <ele>56.92</ele>
        <time>2023-06-12T14:11:36.200Z</time>
      </trkpt>
      <trkpt lat="46.94663" lon="-0.00193">
        <ele>56.91</ele>
        <time>2023-06-12T14:12:16.844Z</time>
      </trkpt>
      <trkpt lat="46.94659" lon="-0.00193">
        <ele>56.88</ele>
        <time>2023-06-12T14:12:57.489Z</time>
      </trkpt>
      <trkpt lat="46.94654" lon="-0.00182">
        <ele>56.82</ele>
        <time>2023-06-12T14:13:38.135Z</time>
      </trkpt>
      <trkpt lat="46.9465" lon="-0.00167">
        <ele>56.75</ele>
        <time>2023-06-12T14:14:18.783Z</time>
      </trkpt>
      <trkpt lat="46.9465" lon="-0.00164">
        <ele>56.74</ele>
        <time>2023-06-12T14:14:59.431Z</time>
      </trkpt>
      <trkpt lat="46.94652" lon="-0.00144">
        <ele>56.71</ele>
        <time>2023-06-12T14:15:40.081Z</time>
      </trkpt>
      <trkpt lat="46.94653" lon="-0.00125">
        <ele>56.72</ele>
        <time>2023-06-12T14:16:20.733Z</time>
      </trkpt>
      <trkpt lat="46.94654" lon="-0.00116">
        <ele>56.75</ele>
        <time>2023-06-12T14:17:01.386Z</time>
      </trkpt>
      <trkpt lat="46.94653" lon="-0.00112">
        <ele>56.77</ele>
        <time>2023-06-12T14:17:42.040Z</time>
      </trkpt>
      <trkpt lat="46.94651" lon="-0.001">
        <ele>56.87</ele>
        <time>2023-06-12T14:18:22.695Z</time>
      </trkpt>
      <trkpt lat="46.94647" lon="-0.00081">
        <ele>57.1</ele>
        <time>2023-06-12T14:19:03.352Z</time>
      </trkpt>
      <trkpt lat="46.94645" lon="-0.00066">
        <ele>57.07</ele>
        <time>2023-06-12T14:19:44.011Z</time>
      </trkpt>
      <trkpt lat="46.94643" lon="-0.00059">
        <ele>57.04</ele>
        <time>2023-06-12T14:20:24.671Z</time>
      </trkpt>
      <trkpt lat="46.94637" lon="-0.00025">
        <ele>56.57</ele>
        <time>2023-06-12T14:21:05.335Z</time>
      </trkpt>
      <trkpt lat="46.94628" lon="-0.00033">
        <ele>56.36</ele>
        <time>2023-06-12T14:21:46.000Z</time>
      </trkpt>
      <trkpt lat="46.94623" lon="-0.00035">
        <ele>56.26</ele>
        <time>2023-06-12T14:22:26.666Z</time>
      </trkpt>
      <trkpt lat="46.94623" lon="-0.00035">
        <ele>56.26</ele>
        <time>2023-06-12T14:23:07.332Z</time>
      </trkpt>
      <trkpt lat="46.94609" lon="-0.00036">
        <ele>56.05</ele>
        <time>2023-06-12T14:23:48.000Z</time>
      </trkpt>
      <trkpt lat="46.94606" lon="-0.00036">
        <ele>56.01</ele>
        <time>2023-06-12T14:24:28.669Z</time>
      </trkpt>
      <trkpt lat="46.94601" lon="-0.00035">
        <ele>55.96</ele>
        <time>2023-06-12T14:25:09.339Z</time>
      </trkpt>
      <trkpt lat="46.94592" lon="-0.00032">
        <ele>55.91</ele>
        <time>2023-06-12T14:25:50.010Z</time>
      </trkpt>
      <trkpt lat="46.94583" lon="-0.0003">
        <ele>55.9</ele>
        <time>2023-06-12T14:26:30.683Z</time>
      </trkpt>
      <trkpt lat="46.94574" lon="-0.00028">
        <ele>55.95</ele>
        <time>2023-06-12T14:27:11.357Z</time>
      </trkpt>
      <trkpt lat="46.94557" lon="-0.00024">
        <ele>56.14</ele>
        <time>2023-06-12T14:27:52.034Z</time>
      </trkpt>
      <trkpt lat="46.94548" lon="-0.00022">
        <ele>55.78</ele>
        <time>2023-06-12T14:28:32.712Z</time>
      </trkpt>
      <trkpt lat="46.94544" lon="-0.0002">
        <ele>55.64</ele>
        <time>2023-06-12T14:29:13.391Z</time>
      </trkpt>
      <trkpt lat="46.94535" lon="-0.00018">
        <ele>55.44</ele>
        <time>2023-06-12T14:29:54.071Z</time>
      </trkpt>
      <trkpt lat="46.94526" lon="-0.00016">
        <ele>55.33</ele>
        <time>2023-06-12T14:30:34.753Z</time>
      </trkpt>
      <trkpt lat="46.94518" lon="-0.00014">
        <ele>55.24</ele>
        <time>2023-06-12T14:31:15.436Z</time>
      </trkpt>
      <trkpt lat="46.94513" lon="-0.00019">
        <ele>55.18</ele>
        <time>2023-06-12T14:31:56.120Z</time>
      </trkpt>
      <trkpt lat="46.94511" lon="-0.00023">
        <ele>55.15</ele>
        <time>2023-06-12T14:32:36.805Z</time>
      </trkpt>
      <trkpt lat="46.94503" lon="-0.00039">
        <ele>55.06</ele>
        <time>2023-06-12T14:33:17.492Z</time>
      </trkpt>
      <trkpt lat="46.94498" lon="-0.0005">
        <ele>55.03</ele>
        <time>2023-06-12T14:33:58.180Z</time>
      </trkpt>
      <trkpt lat="46.94485" lon="-0.00075">
        <ele>55.02</ele>
        <time>2023-06-12T14:34:38.872Z</time>
      </trkpt>
      <trkpt lat="46.94462" lon="-0.00109">
        <ele>55.02</ele>
        <time>2023-06-12T14:35:19.569Z</time>
      </trkpt>
      <trkpt lat="46.94434" lon="-0.00151">
        <ele>55.08</ele>
        <time>2023-06-12T14:36:00.272Z</time>
      </trkpt>
      <trkpt lat="46.9443" lon="-0.00158">
        <ele>55.07</ele>
        <time>2023-06-12T14:36:40.976Z</time>
      </trkpt>
      <trkpt lat="46.94409" lon="-0.00184">
        <ele>55.05</ele>
        <time>2023-06-12T14:37:21.685Z</time>
      </trkpt>
      <trkpt lat="46.94403" lon="-0.00189">
        <ele>55.05</ele>
        <time>2023-06-12T14:38:02.395Z</time>
      </trkpt>
      <trkpt lat="46.94379" lon="-0.00207">
        <ele>54.97</ele>
        <time>2023-06-12T14:38:43.109Z</time>
      </trkpt>
      <trkpt lat="46.9435" lon="-0.00229">
        <ele>54.93</ele>
        <time>2023-06-12T14:39:23.829Z</time>
      </trkpt>
      <trkpt lat="46.94339" lon="-0.0024">
        <ele>54.92</ele>
        <time>2023-06-12T14:40:04.551Z</time>
      </trkpt>
      <trkpt lat="46.94333" lon="-0.00247">
        <ele>54.92</ele>
        <time>2023-06-12T14:40:45.274Z</time>
      </trkpt>
      <trkpt lat="46.94323" lon="-0.0026">
        <ele>54.96</ele>
        <time>2023-06-12T14:41:25.999Z</time>
      </trkpt>
      <trkpt lat="46.94317" lon="-0.00269">
        <ele>55.01</ele>
        <time>2023-06-12T14:42:06.725Z</time>
      </trkpt>
      <trkpt lat="46.94313" lon="-0.00274">
        <ele>55.04</ele>
        <time>2023-06-12T14:42:47.452Z</time>
      </trkpt>
      <trkpt lat="46.94301" lon="-0.00292">
        <ele>55.17</ele>
        <time>2023-06-12T14:43:28.182Z</time>
      </trkpt>
      <trkpt lat="46.94289" lon="-0.00311">
        <ele>55.34</ele>
        <time>2023-06-12T14:44:08.915Z</time>
      </trkpt>
      <trkpt lat="46.94282" lon="-0.00321">
        <ele>55.41</ele>
        <time>2023-06-12T14:44:49.649Z</time>
      </trkpt>
      <trkpt lat="46.94256" lon="-0.00362">
        <ele>55.39</ele>
        <time>2023-06-12T14:45:30.390Z</time>
      </trkpt>
      <trkpt lat="46.94237" lon="-0.0039">
        <ele>55.49</ele>
        <time>2023-06-12T14:46:11.135Z</time>
      </trkpt>
      <trkpt lat="46.94228" lon="-0.00404">
        <ele>55.54</ele>
        <time>2023-06-12T14:46:51.882Z</time>
      </trkpt>
      <trkpt lat="46.94214" lon="-0.00421">
        <ele>55.63</ele>
        <time>2023-06-12T14:47:32.632Z</time>
      </trkpt>
      <trkpt lat="46.94209" lon="-0.00428">
        <ele>55.62</ele>
        <time>2023-06-12T14:48:13.383Z</time>
      </trkpt>
      <trkpt lat="46.94208" lon="-0.0043">
        <ele>55.62</ele>
        <time>2023-06-12T14:48:54.134Z</time>
      </trkpt>
      <trkpt lat="46.94186" lon="-0.00454">
        <ele>55.5</ele>
        <time>2023-06-12T14:49:34.890Z</time>
      </trkpt>
      <trkpt lat="46.94162" lon="-0.00482">
        <ele>55.44</ele>
        <time>2023-06-12T14:50:15.651Z</time>
      </trkpt>
      <trkpt lat="46.94141" lon="-0.00506">
        <ele>55.33</ele>
        <time>2023-06-12T14:50:56.416Z</time>
      </trkpt>
      <trkpt lat="46.94134" lon="-0.00514">
        <ele>55.32</ele>
        <time>2023-06-12T14:51:37.182Z</time>
      </trkpt>
      <trkpt lat="46.94127" lon="-0.00522">
        <ele>55.36</ele>
        <time>2023-06-12T14:52:17.950Z</time>
      </trkpt>
      <trkpt lat="46.9412" lon="-0.0053">
        <ele>55.47</ele>
        <time>2023-06-12T14:52:58.719Z</time>
      </trkpt>
      <trkpt lat="46.94112" lon="-0.00538">
        <ele>55.54</ele>
        <time>2023-06-12T14:53:39.490Z</time>
      </trkpt>
      <trkpt lat="46.94109" lon="-0.00542">
        <ele>55.55</ele>
        <time>2023-06-12T14:54:20.261Z</time>
      </trkpt>
      <trkpt lat="46.94096" lon="-0.00559">
        <ele>55.59</ele>
        <time>2023-06-12T14:55:01.035Z</time>
      </trkpt>
      <trkpt lat="46.9409" lon="-0.0057">
        <ele>55.62</ele>
        <time>2023-06-12T14:55:41.811Z</time>
      </trkpt>
      <trkpt lat="46.94082" lon="-0.00586">
        <ele>55.71</ele>
        <time>2023-06-12T14:56:22.589Z</time>
      </trkpt>
      <trkpt lat="46.94078" lon="-0.00595">
        <ele>55.79</ele>
        <time>2023-06-12T14:57:03.368Z</time>
      </trkpt>
      <trkpt lat="46.94077" lon="-0.00597">
        <ele>55.81</ele>
        <time>2023-06-12T14:57:44.147Z</time>
      </trkpt>
      <trkpt lat="46.94071" lon="-0.00613">
        <ele>56.01</ele>
        <time>2023-06-12T14:58:24.928Z</time>
      </trkpt>
      <trkpt lat="46.94057" lon="-0.00647">
        <ele>56.46</ele>
        <time>2023-06-12T14:59:05.714Z</time>
      </trkpt>
      <trkpt lat="46.94048" lon="-0.0067">
        <ele>56.64</ele>
        <time>2023-06-12T14:59:46.502Z</time>
      </trkpt>
      <trkpt lat="46.94041" lon="-0.00687">
        <ele>56.73</ele>
        <time>2023-06-12T15:00:27.293Z</time>
      </trkpt>
      <trkpt lat="46.94036" lon="-0.007">
        <ele>56.75</ele>
        <time>2023-06-12T15:01:08.085Z</time>
      </trkpt>
      <trkpt lat="46.94032" lon="-0.00709">
        <ele>56.77</ele>
        <time>2023-06-12T15:01:48.878Z</time>
      </trkpt>
      <trkpt lat="46.94021" lon="-0.0073">
        <ele>56.96</ele>
        <time>2023-06-12T15:02:29.674Z</time>
      </trkpt>
      <trkpt lat="46.94019" lon="-0.00734">
        <ele>56.97</ele>
        <time>2023-06-12T15:03:10.471Z</time>
      </trkpt>
      <trkpt lat="46.94018" lon="-0.00735">
        <ele>56.98</ele>
        <time>2023-06-12T15:03:51.268Z</time>
      </trkpt>
      <trkpt lat="46.94009" lon="-0.00749">
        <ele>56.99</ele>
        <time>2023-06-12T15:04:32.067Z</time>
      </trkpt>
      <trkpt lat="46.94003" lon="-0.00759">
        <ele>56.98</ele>
        <time>2023-06-12T15:05:12.868Z</time>
      </trkpt>
      <trkpt lat="46.94001" lon="-0.00763">
        <ele>56.96</ele>
        <time>2023-06-12T15:05:53.669Z</time>
      </trkpt>
      <trkpt lat="46.93994" lon="-0.00773">
        <ele>56.93</ele>
        <time>2023-06-12T15:06:34.472Z</time>
      </trkpt>
      <trkpt lat="46.93985" lon="-0.00787">
        <ele>56.83</ele>
        <time>2023-06-12T15:07:15.277Z</time>
      </trkpt>
      <trkpt lat="46.93978" lon="-0.00796">
        <ele>56.73</ele>
        <time>2023-06-12T15:07:56.083Z</time>
      </trkpt>
      <trkpt lat="46.93957" lon="-0.00829">
        <ele>56.25</ele>
        <time>2023-06-12T15:08:36.894Z</time>
      </trkpt>
      <trkpt lat="46.93938" lon="-0.00857">
        <ele>55.77</ele>
        <time>2023-06-12T15:09:17.710Z</time>
      </trkpt>
      <trkpt lat="46.93931" lon="-0.00867">
        <ele>55.61</ele>
        <time>2023-06-12T15:09:58.527Z</time>
      </trkpt>
      <trkpt lat="46.93923" lon="-0.00882">
        <ele>55.41</ele>
        <time>2023-06-12T15:10:39.346Z</time>
      </trkpt>
      <trkpt lat="46.93915" lon="-0.00897">
        <ele>55.21</ele>
        <time>2023-06-12T15:11:20.167Z</time>
      </trkpt>
      <trkpt lat="46.93914" lon="-0.00898">
        <ele>55.19</ele>
        <time>2023-06-12T15:12:00.989Z</time>
      </trkpt>
      <trkpt lat="46.93908" lon="-0.00914">
        <ele>55.06</ele>
        <time>2023-06-12T15:12:41.813Z</time>
      </trkpt>
      <trkpt lat="46.93905" lon="-0.00923">
        <ele>55.02</ele>
        <time>2023-06-12T15:13:22.638Z</time>
      </trkpt>
      <trkpt lat="46.93904" lon="-0.00926">
        <ele>55.01</ele>
        <time>2023-06-12T15:14:03.463Z</time>
      </trkpt>
      <trkpt lat="46.93902" lon="-0.00936">
        <ele>55.01</ele>
        <time>2023-06-12T15:14:44.289Z</time>
      </trkpt>
      <trkpt lat="46.93902" lon="-0.00938">
        <ele>55.02</ele>
        <time>2023-06-12T15:15:25.115Z</time>
      </trkpt>
      <trkpt lat="46.93901" lon="-0.00945">
        <ele>55.06</ele>
        <time>2023-06-12T15:16:05.942Z</time>
      </trkpt>
      <trkpt lat="46.93901" lon="-0.00951">
        <ele>55.13</ele>
        <time>2023-06-12T15:16:46.770Z</time>
      </trkpt>
      <trkpt lat="46.939" lon="-0.00964">
        <ele>55.33</ele>
        <time>2023-06-12T15:17:27.599Z</time>
      </trkpt>
      <trkpt lat="46.939" lon="-0.0097">
        <ele>55.34</ele>
        <time>2023-06-12T15:18:08.429Z</time>
      </trkpt>
      <trkpt lat="46.93899" lon="-0.00977">
        <ele>55.37</ele>
        <time>2023-06-12T15:18:49.260Z</time>
      </trkpt>
      <trkpt lat="46.93898" lon="-0.00983">
        <ele>55.37</ele>
        <time>2023-06-12T15:19:30.091Z</time>
      </trkpt>
      <trkpt lat="46.93896" lon="-0.00995">
        <ele>55.33</ele>
        <time>2023-06-12T15:20:10.924Z</time>
      </trkpt>
      <trkpt lat="46.93894" lon="-0.01">
        <ele>55.32</ele>
        <time>2023-06-12T15:20:51.757Z</time>
      </trkpt>
      <trkpt lat="46.93887" lon="-0.01018">
        <ele>54.95</ele>
        <time>2023-06-12T15:21:32.593Z</time>
      </trkpt>
      <trkpt lat="46.93887" lon="-0.01018">
        <ele>54.95</ele>
        <time>2023-06-12T15:22:13.429Z</time>
      </trkpt>
      <trkpt lat="46.93881" lon="-0.01028">
        <ele>54.74</ele>
        <time>2023-06-12T15:22:54.266Z</time>
      </trkpt>
      <trkpt lat="46.93876" lon="-0.01037">
        <ele>54.6</ele>
        <time>2023-06-12T15:23:35.104Z</time>
      </trkpt>
      <trkpt lat="46.93873" lon="-0.01042">
        <ele>54.57</ele>
        <time>2023-06-12T15:24:15.943Z</time>
      </trkpt>
      <trkpt lat="46.93869" lon="-0.01045">
        <ele>54.54</ele>
        <time>2023-06-12T15:24:56.783Z</time>
      </trkpt>
      <trkpt lat="46.93869" lon="-0.01045">
        <ele>54.54</ele>
        <time>2023-06-12T15:25:37.623Z</time>
      </trkpt>
      <trkpt lat="46.9386" lon="-0.01042">
        <ele>54.54</ele>
        <time>2023-06-12T15:26:18.464Z</time>
      </trkpt>
      <trkpt lat="46.9386" lon="-0.01042">
        <ele>54.54</ele>
        <time>2023-06-12T15:26:59.305Z</time>
      </trkpt>
      <trkpt lat="46.9384" lon="-0.01026">
        <ele>54.67</ele>
        <time>2023-06-12T15:27:40.150Z</time>
      </trkpt>
      <trkpt lat="46.93821" lon="-0.0101">
        <ele>54.75</ele>
        <time>2023-06-12T15:28:20.998Z</time>
      </trkpt>
      <trkpt lat="46.93812" lon="-0.01003">
        <ele>54.75</ele>
        <time>2023-06-12T15:29:01.848Z</time>
      </trkpt>
      <trkpt lat="46.93809" lon="-0.01001">
        <ele>54.75</ele>
        <time>2023-06-12T15:29:42.699Z</time>
      </trkpt>
      <trkpt lat="46.93792" lon="-0.00987">
        <ele>54.69</ele>
        <time>2023-06-12T15:30:23.553Z</time>
      </trkpt>
      <trkpt lat="46.93785" lon="-0.00983">
        <ele>54.68</ele>
        <time>2023-06-12T15:31:04.408Z</time>
      </trkpt>
      <trkpt lat="46.93775" lon="-0.00978">
        <ele>54.67</ele>
        <time>2023-06-12T15:31:45.265Z</time>
      </trkpt>
      <trkpt lat="46.93772" lon="-0.00978">
        <ele>54.67</ele>
        <time>2023-06-12T15:32:26.122Z</time>
      </trkpt>
      <trkpt lat="46.93764" lon="-0.00976">
        <ele>54.69</ele>
        <time>2023-06-12T15:33:06.980Z</time>
      </trkpt>
      <trkpt lat="46.93746" lon="-0.00973">
        <ele>54.79</ele>
        <time>2023-06-12T15:33:47.841Z</time>
      </trkpt>
      <trkpt lat="46.93732" lon="-0.0097">
        <ele>54.82</ele>
        <time>2023-06-12T15:34:28.704Z</time>
      </trkpt>
      <trkpt lat="46.93724" lon="-0.00969">
        <ele>54.82</ele>
        <time>2023-06-12T15:35:09.569Z</time>
      </trkpt>
      <trkpt lat="46.93708" lon="-0.00966">
        <ele>54.76</ele>
        <time>2023-06-12T15:35:50.436Z</time>
      </trkpt>
      <trkpt lat="46.93697" lon="-0.00966">
        <ele>54.72</ele>
        <time>2023-06-12T15:36:31.305Z</time>
      </trkpt>
      <trkpt lat="46.93684" lon="-0.00966">
        <ele>54.71</ele>
        <time>2023-06-12T15:37:12.176Z</time>
      </trkpt>
      <trkpt lat="46.9367" lon="-0.00965">
        <ele>54.73</ele>
        <time>2023-06-12T15:37:53.049Z</time>
      </trkpt>
      <trkpt lat="46.93644" lon="-0.00965">
        <ele>54.81</ele>
        <time>2023-06-12T15:38:33.927Z</time>
      </trkpt>
      <trkpt lat="46.9363" lon="-0.00967">
        <ele>54.86</ele>
        <time>2023-06-12T15:39:14.807Z</time>
      </trkpt>
      <trkpt lat="46.93612" lon="-0.00969">
        <ele>54.85</ele>
        <time>2023-06-12T15:39:55.690Z</time>
      </trkpt>
      <trkpt lat="46.93594" lon="-0.00972">
        <ele>54.85</ele>
        <time>2023-06-12T15:40:36.576Z</time>
      </trkpt>
      <trkpt lat="46.93581" lon="-0.00974">
        <ele>54.61</ele>
        <time>2023-06-12T15:41:17.464Z</time>
      </trkpt>
      <trkpt lat="46.93572" lon="-0.00976">
        <ele>54.52</ele>
        <time>2023-06-12T15:41:58.353Z</time>
      </trkpt>
      <trkpt lat="46.93541" lon="-0.00981">
        <ele>54.42</ele>
        <time>2023-06-12T15:42:39.247Z</time>
      </trkpt>
      <trkpt lat="46.93514" lon="-0.00985">
        <ele>54.22</ele>
        <time>2023-06-12T15:43:20.146Z</time>
      </trkpt>
      <trkpt lat="46.93505" lon="-0.00987">
        <ele>54.18</ele>
        <time>2023-06-12T15:44:01.046Z</time>
      </trkpt>
      <trkpt lat="46.93503" lon="-0.00987">
        <ele>54.17</ele>
        <time>2023-06-12T15:44:41.946Z</time>
      </trkpt>
      <trkpt lat="46.93479" lon="-0.0099">
        <ele>54.15</ele>
        <time>2023-06-12T15:45:22.850Z</time>
      </trkpt>
      <trkpt lat="46.93474" lon="-0.0099">
        <ele>54.13</ele>
        <time>2023-06-12T15:46:03.755Z</time>
      </trkpt>
      <trkpt lat="46.93465" lon="-0.00992">
        <ele>54.04</ele>
        <time>2023-06-12T15:46:44.661Z</time>
      </trkpt>
      <trkpt lat="46.93447" lon="-0.00994">
        <ele>53.79</ele>
        <time>2023-06-12T15:47:25.570Z</time>
      </trkpt>
      <trkpt lat="46.93434" lon="-0.00995">
        <ele>53.65</ele>
        <time>2023-06-12T15:48:06.481Z</time>
      </trkpt>
      <trkpt lat="46.93416" lon="-0.00997">
        <ele>53.53</ele>
        <time>2023-06-12T15:48:47.395Z</time>
      </trkpt>
      <trkpt lat="46.93394" lon="-0.01">
        <ele>53.46</ele>
        <time>2023-06-12T15:49:28.313Z</time>
      </trkpt>
      <trkpt lat="46.93385" lon="-0.01001">
        <ele>53.47</ele>
        <time>2023-06-12T15:50:09.232Z</time>
      </trkpt>
      <trkpt lat="46.9338" lon="-0.01002">
        <ele>53.49</ele>
        <time>2023-06-12T15:50:50.152Z</time>
      </trkpt>
      <trkpt lat="46.93376" lon="-0.01002">
        <ele>53.54</ele>
        <time>2023-06-12T15:51:31.073Z</time>
      </trkpt>
      <trkpt lat="46.93367" lon="-0.01003">
        <ele>53.72</ele>
        <time>2023-06-12T15:52:11.995Z</time>
      </trkpt>
      <trkpt lat="46.93358" lon="-0.01004">
        <ele>54</ele>
        <time>2023-06-12T15:52:52.919Z</time>
      </trkpt>
      <trkpt lat="46.93345" lon="-0.01006">
        <ele>54.56</ele>
        <time>2023-06-12T15:53:33.845Z</time>
      </trkpt>
      <trkpt lat="46.93337" lon="-0.01007">
        <ele>54.54</ele>
        <time>2023-06-12T15:54:14.772Z</time>
      </trkpt>
      <trkpt lat="46.93332" lon="-0.01008">
        <ele>54.54</ele>
        <time>2023-06-12T15:54:55.700Z</time>
      </trkpt>
      <trkpt lat="46.93319" lon="-0.01012">
        <ele>54.21</ele>
        <time>2023-06-12T15:55:36.630Z</time>
      </trkpt>
      <trkpt lat="46.93315" lon="-0.01014">
        <ele>54.11</ele>
        <time>2023-06-12T15:56:17.561Z</time>
      </trkpt>
      <trkpt lat="46.93307" lon="-0.01018">
        <ele>53.94</ele>
        <time>2023-06-12T15:56:58.493Z</time>
      </trkpt>
      <trkpt lat="46.93306" lon="-0.01019">
        <ele>53.93</ele>
        <time>2023-06-12T15:57:39.425Z</time>
      </trkpt>
      <trkpt lat="46.93298" lon="-0.01024">
        <ele>53.84</ele>
        <time>2023-06-12T15:58:20.359Z</time>
      </trkpt>
      <trkpt lat="46.93296" lon="-0.01026">
        <ele>53.82</ele>
        <time>2023-06-12T15:59:01.293Z</time>
      </trkpt>
      <trkpt lat="46.93283" lon="-0.01039">
        <ele>53.71</ele>
        <time>2023-06-12T15:59:42.229Z</time>
      </trkpt>
      <trkpt lat="46.93279" lon="-0.01043">
        <ele>53.65</ele>
        <time>2023-06-12T16:00:23.166Z</time>
      </trkpt>
      <trkpt lat="46.93277" lon="-0.01048">
        <ele>53.62</ele>
        <time>2023-06-12T16:01:04.104Z</time>
      </trkpt>
      <trkpt lat="46.9327" lon="-0.01065">
        <ele>53.42</ele>
        <time>2023-06-12T16:01:45.044Z</time>
      </trkpt>
      <trkpt lat="46.93258" lon="-0.01093">
        <ele>53.06</ele>
        <time>2023-06-12T16:02:25.988Z</time>
      </trkpt>
      <trkpt lat="46.93254" lon="-0.01104">
        <ele>52.94</ele>
        <time>2023-06-12T16:03:06.933Z</time>
      </trkpt>
      <trkpt lat="46.93249" lon="-0.01115">
        <ele>52.86</ele>
        <time>2023-06-12T16:03:47.879Z</time>
      </trkpt>
      <trkpt lat="46.93244" lon="-0.01126">
        <ele>52.83</ele>
        <time>2023-06-12T16:04:28.827Z</time>
      </trkpt>
      <trkpt lat="46.93214" lon="-0.01199">
        <ele>52.72</ele>
        <time>2023-06-12T16:05:09.784Z</time>
      </trkpt>
      <trkpt lat="46.93207" lon="-0.01216">
        <ele>52.72</ele>
        <time>2023-06-12T16:05:50.743Z</time>
      </trkpt>
      <trkpt lat="46.93167" lon="-0.01311">
        <ele>52.79</ele>
        <time>2023-06-12T16:06:31.715Z</time>
      </trkpt>
      <trkpt lat="46.93146" lon="-0.01362">
        <ele>52.76</ele>
        <time>2023-06-12T16:07:12.693Z</time>
      </trkpt>
      <trkpt lat="46.93139" lon="-0.01379">
        <ele>52.8</ele>
        <time>2023-06-12T16:07:53.673Z</time>
      </trkpt>
      <trkpt lat="46.93125" lon="-0.01412">
        <ele>52.99</ele>
        <time>2023-06-12T16:08:34.658Z</time>
      </trkpt>
      <trkpt lat="46.93118" lon="-0.01429">
        <ele>53.11</ele>
        <time>2023-06-12T16:09:15.645Z</time>
      </trkpt>
      <trkpt lat="46.93113" lon="-0.0144">
        <ele>53.24</ele>
        <time>2023-06-12T16:09:56.633Z</time>
      </trkpt>
      <trkpt lat="46.93101" lon="-0.01469">
        <ele>53.73</ele>
        <time>2023-06-12T16:10:37.625Z</time>
      </trkpt>
      <trkpt lat="46.93092" lon="-0.01491">
        <ele>54.03</ele>
        <time>2023-06-12T16:11:18.620Z</time>
      </trkpt>
      <trkpt lat="46.93087" lon="-0.01502">
        <ele>54.13</ele>
        <time>2023-06-12T16:11:59.616Z</time>
      </trkpt>
      <trkpt lat="46.9308" lon="-0.01519">
        <ele>54.19</ele>
        <time>2023-06-12T16:12:40.614Z</time>
      </trkpt>
      <trkpt lat="46.93075" lon="-0.01533">
        <ele>54.17</ele>
        <time>2023-06-12T16:13:21.614Z</time>
      </trkpt>
      <trkpt lat="46.93068" lon="-0.01548">
        <ele>53.95</ele>
        <time>2023-06-12T16:14:02.616Z</time>
      </trkpt>
      <trkpt lat="46.93064" lon="-0.01559">
        <ele>53.83</ele>
        <time>2023-06-12T16:14:43.620Z</time>
      </trkpt>
      <trkpt lat="46.93059" lon="-0.0157">
        <ele>53.75</ele>
        <time>2023-06-12T16:15:24.625Z</time>
      </trkpt>
      <trkpt lat="46.93057" lon="-0.01576">
        <ele>53.74</ele>
        <time>2023-06-12T16:16:05.631Z</time>
      </trkpt>
      <trkpt lat="46.93052" lon="-0.01586">
        <ele>53.76</ele>
        <time>2023-06-12T16:16:46.638Z</time>
      </trkpt>
      <trkpt lat="46.93043" lon="-0.01608">
        <ele>53.86</ele>
        <time>2023-06-12T16:17:27.648Z</time>
      </trkpt>
      <trkpt lat="46.93039" lon="-0.01619">
        <ele>53.95</ele>
        <time>2023-06-12T16:18:08.659Z</time>
      </trkpt>
      <trkpt lat="46.93034" lon="-0.01629">
        <ele>54.07</ele>
        <time>2023-06-12T16:18:49.672Z</time>
      </trkpt>
      <trkpt lat="46.93027" lon="-0.01646">
        <ele>54.19</ele>
        <time>2023-06-12T16:19:30.687Z</time>
      </trkpt>
      <trkpt lat="46.93016" lon="-0.01674">
        <ele>54.46</ele>
        <time>2023-06-12T16:20:11.705Z</time>
      </trkpt>
      <trkpt lat="46.93009" lon="-0.01691">
        <ele>54.57</ele>
        <time>2023-06-12T16:20:52.725Z</time>
      </trkpt>
      <trkpt lat="46.92983" lon="-0.01753">
        <ele>54.82</ele>
        <time>2023-06-12T16:21:33.753Z</time>
      </trkpt>
      <trkpt lat="46.92971" lon="-0.01781">
        <ele>54.79</ele>
        <time>2023-06-12T16:22:14.785Z</time>
      </trkpt>
      <trkpt lat="46.92963" lon="-0.01801">
        <ele>54.82</ele>
        <time>2023-06-12T16:22:55.820Z</time>
      </trkpt>
      <trkpt lat="46.92958" lon="-0.01811">
        <ele>54.77</ele>
        <time>2023-06-12T16:23:36.856Z</time>
      </trkpt>
      <trkpt lat="46.92952" lon="-0.01828">
        <ele>54.72</ele>
        <time>2023-06-12T16:24:17.894Z</time>
      </trkpt>
      <trkpt lat="46.92951" lon="-0.01829">
        <ele>54.71</ele>
        <time>2023-06-12T16:24:58.932Z</time>
      </trkpt>
      <trkpt lat="46.92943" lon="-0.0185">
        <ele>54.67</ele>
        <time>2023-06-12T16:25:39.973Z</time>
      </trkpt>
      <trkpt lat="46.92938" lon="-0.01861">
        <ele>54.67</ele>
        <time>2023-06-12T16:26:21.015Z</time>
      </trkpt>
      <trkpt lat="46.92932" lon="-0.01877">
        <ele>54.72</ele>
        <time>2023-06-12T16:27:02.059Z</time>
      </trkpt>
      <trkpt lat="46.92917" lon="-0.01916">
        <ele>54.94</ele>
        <time>2023-06-12T16:27:43.108Z</time>
      </trkpt>
      <trkpt lat="46.92909" lon="-0.01934">
        <ele>54.96</ele>
        <time>2023-06-12T16:28:24.160Z</time>
      </trkpt>
      <trkpt lat="46.929" lon="-0.01957">
        <ele>54.86</ele>
        <time>2023-06-12T16:29:05.214Z</time>
      </trkpt>
      <trkpt lat="46.92897" lon="-0.01965">
        <ele>54.87</ele>
        <time>2023-06-12T16:29:46.269Z</time>
      </trkpt>
      <trkpt lat="46.92896" lon="-0.01968">
        <ele>54.88</ele>
        <time>2023-06-12T16:30:27.325Z</time>
      </trkpt>
      <trkpt lat="46.92892" lon="-0.01987">
        <ele>54.97</ele>
        <time>2023-06-12T16:31:08.383Z</time>
      </trkpt>
      <trkpt lat="46.92885" lon="-0.02017">
        <ele>55.17</ele>
        <time>2023-06-12T16:31:49.444Z</time>
      </trkpt>
      <trkpt lat="46.92876" lon="-0.02054">
        <ele>55.51</ele>
        <time>2023-06-12T16:32:30.510Z</time>
      </trkpt>
      <trkpt lat="46.92871" lon="-0.02079">
        <ele>55.7</ele>
        <time>2023-06-12T16:33:11.579Z</time>
      </trkpt>
      <trkpt lat="46.92865" lon="-0.02103">
        <ele>55.93</ele>
        <time>2023-06-12T16:33:52.650Z</time>
      </trkpt>
      <trkpt lat="46.92862" lon="-0.02115">
        <ele>56.01</ele>
        <time>2023-06-12T16:34:33.723Z</time>
      </trkpt>
      <trkpt lat="46.92858" lon="-0.02134">
        <ele>56.07</ele>
        <time>2023-06-12T16:35:14.798Z</time>
      </trkpt>
      <trkpt lat="46.92855" lon="-0.02146">
        <ele>56.15</ele>
        <time>2023-06-12T16:35:55.874Z</time>
      </trkpt>
      <trkpt lat="46.92846" lon="-0.02183">
        <ele>56.57</ele>
        <time>2023-06-12T16:36:36.955Z</time>
      </trkpt>
      <trkpt lat="46.92838" lon="-0.02219">
        <ele>56.96</ele>
        <time>2023-06-12T16:37:18.040Z</time>
      </trkpt>
      <trkpt lat="46.92835" lon="-0.02232">
        <ele>57.07</ele>
        <time>2023-06-12T16:37:59.126Z</time>
      </trkpt>
      <trkpt lat="46.92831" lon="-0.0225">
        <ele>57.18</ele>
        <time>2023-06-12T16:38:40.214Z</time>
      </trkpt>
      <trkpt lat="46.92828" lon="-0.02262">
        <ele>57.43</ele>
        <time>2023-06-12T16:39:21.304Z</time>
      </trkpt>
      <trkpt lat="46.92825" lon="-0.02275">
        <ele>57.62</ele>
        <time>2023-06-12T16:40:02.395Z</time>
      </trkpt>
      <trkpt lat="46.92822" lon="-0.02287">
        <ele>57.76</ele>
        <time>2023-06-12T16:40:43.488Z</time>
      </trkpt>
      <trkpt lat="46.92818" lon="-0.02304">
        <ele>57.93</ele>
        <time>2023-06-12T16:41:24.583Z</time>
      </trkpt>
      <trkpt lat="46.92818" lon="-0.0232">
        <ele>58.08</ele>
        <time>2023-06-12T16:42:05.679Z</time>
      </trkpt>
      <trkpt lat="46.92823" lon="-0.02357">
        <ele>58.45</ele>
        <time>2023-06-12T16:42:46.780Z</time>
      </trkpt>
      <trkpt lat="46.92824" lon="-0.02361">
        <ele>58.5</ele>
        <time>2023-06-12T16:43:27.881Z</time>
      </trkpt>
      <trkpt lat="46.92826" lon="-0.0237">
        <ele>58.62</ele>
        <time>2023-06-12T16:44:08.983Z</time>
      </trkpt>
      <trkpt lat="46.92829" lon="-0.02389">
        <ele>58.94</ele>
        <time>2023-06-12T16:44:50.087Z</time>
      </trkpt>
      <trkpt lat="46.92832" lon="-0.02401">
        <ele>59.13</ele>
        <time>2023-06-12T16:45:31.193Z</time>
      </trkpt>
      <trkpt lat="46.92834" lon="-0.02414">
        <ele>59.25</ele>
        <time>2023-06-12T16:46:12.300Z</time>
      </trkpt>
      <trkpt lat="46.92837" lon="-0.02426">
        <ele>59.33</ele>
        <time>2023-06-12T16:46:53.408Z</time>
      </trkpt>
      <trkpt lat="46.9284" lon="-0.02443">
        <ele>59.3</ele>
        <time>2023-06-12T16:47:34.518Z</time>
      </trkpt>
      <trkpt lat="46.9284" lon="-0.02445">
        <ele>59.3</ele>
        <time>2023-06-12T16:48:15.629Z</time>
      </trkpt>
      <trkpt lat="46.9284" lon="-0.02458">
        <ele>59.21</ele>
        <time>2023-06-12T16:48:56.741Z</time>
      </trkpt>
      <trkpt lat="46.9284" lon="-0.02464">
        <ele>59.16</ele>
        <time>2023-06-12T16:49:37.854Z</time>
      </trkpt>
      <trkpt lat="46.92837" lon="-0.02481">
        <ele>59.01</ele>
        <time>2023-06-12T16:50:18.969Z</time>
      </trkpt>
      <trkpt lat="46.92832" lon="-0.02487">
        <ele>58.94</ele>
        <time>2023-06-12T16:51:00.085Z</time>
      </trkpt>
      <trkpt lat="46.92827" lon="-0.02492">
        <ele>58.89</ele>
        <time>2023-06-12T16:51:41.202Z</time>
      </trkpt>
      <trkpt lat="46.92817" lon="-0.02498">
        <ele>58.82</ele>
        <time>2023-06-12T16:52:22.320Z</time>
      </trkpt>
      <trkpt lat="46.92816" lon="-0.02498">
        <ele>58.82</ele>
        <time>2023-06-12T16:53:03.438Z</time>
      </trkpt>
      <trkpt lat="46.92795" lon="-0.02508">
        <ele>58.78</ele>
        <time>2023-06-12T16:53:44.560Z</time>
      </trkpt>
      <trkpt lat="46.92778" lon="-0.02515">
        <ele>58.82</ele>
        <time>2023-06-12T16:54:25.685Z</time>
      </trkpt>
      <trkpt lat="46.92765" lon="-0.02521">
        <ele>58.8</ele>
        <time>2023-06-12T16:55:06.812Z</time>
      </trkpt>
      <trkpt lat="46.92757" lon="-0.02524">
        <ele>58.74</ele>
        <time>2023-06-12T16:55:47.940Z</time>
      </trkpt>
      <trkpt lat="46.92756" lon="-0.02524">
        <ele>58.74</ele>
        <time>2023-06-12T16:56:29.068Z</time>
      </trkpt>
      <trkpt lat="46.92744" lon="-0.02531">
        <ele>58.54</ele>
        <time>2023-06-12T16:57:10.199Z</time>
      </trkpt>
      <trkpt lat="46.92741" lon="-0.02532">
        <ele>58.51</ele>
        <time>2023-06-12T16:57:51.330Z</time>
      </trkpt>
      <trkpt lat="46.92724" lon="-0.02546">
        <ele>58.37</ele>
        <time>2023-06-12T16:58:32.464Z</time>
      </trkpt>
      <trkpt lat="46.92697" lon="-0.02568">
        <ele>58.18</ele>
        <time>2023-06-12T16:59:13.603Z</time>
      </trkpt>
      <trkpt lat="46.92689" lon="-0.02574">
        <ele>58.09</ele>
        <time>2023-06-12T16:59:54.744Z</time>
      </trkpt>
      <trkpt lat="46.92679" lon="-0.02583">
        <ele>57.92</ele>
        <time>2023-06-12T17:00:35.886Z</time>
      </trkpt>
      <trkpt lat="46.92678" lon="-0.02584">
        <ele>57.91</ele>
        <time>2023-06-12T17:01:17.029Z</time>
      </trkpt>
      <trkpt lat="46.92662" lon="-0.02594">
        <ele>57.61</ele>
        <time>2023-06-12T17:01:58.174Z</time>
      </trkpt>
      <trkpt lat="46.92645" lon="-0.02602">
        <ele>57.31</ele>
        <time>2023-06-12T17:02:39.322Z</time>
      </trkpt>
      <trkpt lat="46.92642" lon="-0.02603">
        <ele>57.26</ele>
        <time>2023-06-12T17:03:20.471Z</time>
      </trkpt>
      <trkpt lat="46.92623" lon="-0.02609">
        <ele>56.97</ele>
        <time>2023-06-12T17:04:01.623Z</time>
      </trkpt>
      <trkpt lat="46.9261" lon="-0.02614">
        <ele>56.8</ele>
        <time>2023-06-12T17:04:42.777Z</time>
      </trkpt>
      <trkpt lat="46.92597" lon="-0.02618">
        <ele>56.67</ele>
        <time>2023-06-12T17:05:23.933Z</time>
      </trkpt>
      <trkpt lat="46.92584" lon="-0.02623">
        <ele>56.6</ele>
        <time>2023-06-12T17:06:05.091Z</time>
      </trkpt>
      <trkpt lat="46.92566" lon="-0.02629">
        <ele>56.52</ele>
        <time>2023-06-12T17:06:46.252Z</time>
      </trkpt>
      <trkpt lat="46.92563" lon="-0.0263">
        <ele>56.51</ele>
        <time>2023-06-12T17:07:27.414Z</time>
      </trkpt>
      <trkpt lat="46.92541" lon="-0.02637">
        <ele>56.36</ele>
        <time>2023-06-12T17:08:08.579Z</time>
      </trkpt>
      <trkpt lat="46.92533" lon="-0.0264">
        <ele>56.33</ele>
        <time>2023-06-12T17:08:49.746Z</time>
      </trkpt>
      <trkpt lat="46.92524" lon="-0.02642">
        <ele>56.36</ele>
        <time>2023-06-12T17:09:30.914Z</time>
      </trkpt>
      <trkpt lat="46.9252" lon="-0.02644">
        <ele>56.4</ele>
        <time>2023-06-12T17:10:12.083Z</time>
      </trkpt>
      <trkpt lat="46.92515" lon="-0.02645">
        <ele>56.46</ele>
        <time>2023-06-12T17:10:53.253Z</time>
      </trkpt>
      <trkpt lat="46.92507" lon="-0.02648">
        <ele>56.63</ele>
        <time>2023-06-12T17:11:34.424Z</time>
      </trkpt>
      <trkpt lat="46.92499" lon="-0.02651">
        <ele>55.54</ele>
        <time>2023-06-12T17:12:15.596Z</time>
      </trkpt>
      <trkpt lat="46.92469" lon="-0.0266">
        <ele>55.53</ele>
        <time>2023-06-12T17:12:56.773Z</time>
      </trkpt>
      <trkpt lat="46.92465" lon="-0.02649">
        <ele>55.53</ele>
        <time>2023-06-12T17:13:37.952Z</time>
      </trkpt>
      <trkpt lat="46.92453" lon="-0.02634">
        <ele>55.53</ele>
        <time>2023-06-12T17:14:19.133Z</time>
      </trkpt>
      <trkpt lat="46.92442" lon="-0.02626">
        <ele>55.52</ele>
        <time>2023-06-12T17:15:00.316Z</time>
      </trkpt>
      <trkpt lat="46.92433" lon="-0.02626">
        <ele>55.52</ele>
        <time>2023-06-12T17:15:41.500Z</time>
      </trkpt>
      <trkpt lat="46.92394" lon="-0.02634">
        <ele>55.52</ele>
        <time>2023-06-12T17:16:22.691Z</time>
      </trkpt>
      <trkpt lat="46.92278" lon="-0.02663">
        <ele>55.5</ele>
        <time>2023-06-12T17:17:03.901Z</time>
      </trkpt>
      <trkpt lat="46.92241" lon="-0.02672">
        <ele>55.45</ele>
        <time>2023-06-12T17:17:45.117Z</time>
      </trkpt>
      <trkpt lat="46.92149" lon="-0.02697">
        <ele>55.32</ele>
        <time>2023-06-12T17:18:26.348Z</time>
      </trkpt>
      <trkpt lat="46.92135" lon="-0.02703">
        <ele>55.3</ele>
        <time>2023-06-12T17:19:07.581Z</time>
      </trkpt>
      <trkpt lat="46.92112" lon="-0.02722">
        <ele>55.27</ele>
        <time>2023-06-12T17:19:48.818Z</time>
      </trkpt>
      <trkpt lat="46.92081" lon="-0.02762">
        <ele>55.22</ele>
        <time>2023-06-12T17:20:30.062Z</time>
      </trkpt>
      <trkpt lat="46.9207" lon="-0.02777">
        <ele>55.35</ele>
        <time>2023-06-12T17:21:11.308Z</time>
      </trkpt>
      <trkpt lat="46.92" lon="-0.02847">
        <ele>56.09</ele>
        <time>2023-06-12T17:21:52.568Z</time>
      </trkpt>
      <trkpt lat="46.91782" lon="-0.03105">
        <ele>58.57</ele>
        <time>2023-06-12T17:22:33.873Z</time>
      </trkpt>
      <trkpt lat="46.91757" lon="-0.03134">
        <ele>58.44</ele>
        <time>2023-06-12T17:23:15.183Z</time>
      </trkpt>
      <trkpt lat="46.91751" lon="-0.03136">
        <ele>58.42</ele>
        <time>2023-06-12T17:23:56.494Z</time>
      </trkpt>
      <trkpt lat="46.91752" lon="-0.03059">
        <ele>58.21</ele>
        <time>2023-06-12T17:24:37.813Z</time>
      </trkpt>
      <trkpt lat="46.91739" lon="-0.02934">
        <ele>57.87</ele>
        <time>2023-06-12T17:25:19.146Z</time>
      </trkpt>
      <trkpt lat="46.91691" lon="-0.0259">
        <ele>56.92</ele>
        <time>2023-06-12T17:26:00.518Z</time>
      </trkpt>
      <trkpt lat="46.9169" lon="-0.0256">
        <ele>56.84</ele>
        <time>2023-06-12T17:26:41.893Z</time>
      </trkpt>
      <trkpt lat="46.91693" lon="-0.02507">
        <ele>56.7</ele>
        <time>2023-06-12T17:27:23.274Z</time>
      </trkpt>
      <trkpt lat="46.9169" lon="-0.0249">
        <ele>56.65</ele>
        <time>2023-06-12T17:28:04.657Z</time>
      </trkpt>
      <trkpt lat="46.91643" lon="-0.02379">
        <ele>56.3</ele>
        <time>2023-06-12T17:28:46.054Z</time>
      </trkpt>
      <trkpt lat="46.91634" lon="-0.02348">
        <ele>56.21</ele>
        <time>2023-06-12T17:29:27.455Z</time>
      </trkpt>
      <trkpt lat="46.91624" lon="-0.02281">
        <ele>56.02</ele>
        <time>2023-06-12T17:30:08.863Z</time>
      </trkpt>
      <trkpt lat="46.91616" lon="-0.02259">
        <ele>55.95</ele>
        <time>2023-06-12T17:30:50.274Z</time>
      </trkpt>
      <trkpt lat="46.91607" lon="-0.02238">
        <ele>55.89</ele>
        <time>2023-06-12T17:31:31.688Z</time>
      </trkpt>
      <trkpt lat="46.91605" lon="-0.02211">
        <ele>55.82</ele>
        <time>2023-06-12T17:32:13.105Z</time>
      </trkpt>
      <trkpt lat="46.916" lon="-0.02133">
        <ele>55.96</ele>
        <time>2023-06-12T17:32:54.530Z</time>
      </trkpt>
      <trkpt lat="46.916" lon="-0.02133">
        <ele>56.19</ele>
        <time>2023-06-12T17:33:35.955Z</time>
      </trkpt>
      <trkpt lat="46.91598" lon="-0.02107">
        <ele>56.09</ele>
        <time>2023-06-12T17:34:17.383Z</time>
      </trkpt>
      <trkpt lat="46.91597" lon="-0.02098">
        <ele>55.98</ele>
        <time>2023-06-12T17:34:58.812Z</time>
      </trkpt>
      <trkpt lat="46.91597" lon="-0.02092">
        <ele>55.92</ele>
        <time>2023-06-12T17:35:40.242Z</time>
      </trkpt>
      <trkpt lat="46.91598" lon="-0.02078">
        <ele>56.15</ele>
        <time>2023-06-12T17:36:21.673Z</time>
      </trkpt>
      <trkpt lat="46.91598" lon="-0.02077">
        <ele>56.15</ele>
        <time>2023-06-12T17:37:03.104Z</time>
      </trkpt>
      <trkpt lat="46.91605" lon="-0.02064">
        <ele>56.2</ele>
        <time>2023-06-12T17:37:44.537Z</time>
      </trkpt>
      <trkpt lat="46.91609" lon="-0.02056">
        <ele>56.22</ele>
        <time>2023-06-12T17:38:25.971Z</time>
      </trkpt>
      <trkpt lat="46.91607" lon="-0.0205">
        <ele>56.24</ele>
        <time>2023-06-12T17:39:07.406Z</time>
      </trkpt>
      <trkpt lat="46.91605" lon="-0.02041">
        <ele>56.23</ele>
        <time>2023-06-12T17:39:48.842Z</time>
      </trkpt>
      <trkpt lat="46.91595" lon="-0.02045">
        <ele>56.21</ele>
        <time>2023-06-12T17:40:30.280Z</time>
      </trkpt>
      <trkpt lat="46.91587" lon="-0.02046">
        <ele>56.21</ele>
        <time>2023-06-12T17:41:11.719Z</time>
      </trkpt>
      <trkpt lat="46.91585" lon="-0.02046">
        <ele>56.2</ele>
        <time>2023-06-12T17:41:53.158Z</time>
      </trkpt>
      <trkpt lat="46.91574" lon="-0.02043">
        <ele>56.17</ele>
        <time>2023-06-12T17:42:34.599Z</time>
      </trkpt>
      <trkpt lat="46.91574" lon="-0.02043">
        <ele>56.17</ele>
        <time>2023-06-12T17:43:16.040Z</time>
      </trkpt>
      <trkpt lat="46.91553" lon="-0.02038">
        <ele>56.05</ele>
        <time>2023-06-12T17:43:57.485Z</time>
      </trkpt>
      <trkpt lat="46.91541" lon="-0.02035">
        <ele>55.82</ele>
        <time>2023-06-12T17:44:38.931Z</time>
      </trkpt>
      <trkpt lat="46.91537" lon="-0.02034">
        <ele>55.79</ele>
        <time>2023-06-12T17:45:20.378Z</time>
      </trkpt>
      <trkpt lat="46.9152" lon="-0.02029">
        <ele>55.72</ele>
        <time>2023-06-12T17:46:01.828Z</time>
      </trkpt>
      <trkpt lat="46.91498" lon="-0.02023">
        <ele>55.68</ele>
        <time>2023-06-12T17:46:43.281Z</time>
      </trkpt>
      <trkpt lat="46.91488" lon="-0.0202">
        <ele>55.5</ele>
        <time>2023-06-12T17:47:24.736Z</time>
      </trkpt>
      <trkpt lat="46.91456" lon="-0.0201">
        <ele>55.5</ele>
        <time>2023-06-12T17:48:06.196Z</time>
      </trkpt>
      <trkpt lat="46.91435" lon="-0.02004">
        <ele>55.38</ele>
        <time>2023-06-12T17:48:47.660Z</time>
      </trkpt>
      <trkpt lat="46.91422" lon="-0.02">
        <ele>55.15</ele>
        <time>2023-06-12T17:49:29.126Z</time>
      </trkpt>
      <trkpt lat="46.91404" lon="-0.01995">
        <ele>54.85</ele>
        <time>2023-06-12T17:50:10.595Z</time>
      </trkpt>
      <trkpt lat="46.91397" lon="-0.01993">
        <ele>54.76</ele>
        <time>2023-06-12T17:50:52.065Z</time>
      </trkpt>
      <trkpt lat="46.91391" lon="-0.01991">
        <ele>54.69</ele>
        <time>2023-06-12T17:51:33.536Z</time>
      </trkpt>
      <trkpt lat="46.91382" lon="-0.01988">
        <ele>54.56</ele>
        <time>2023-06-12T17:52:15.008Z</time>
      </trkpt>
      <trkpt lat="46.91373" lon="-0.01985">
        <ele>54.38</ele>
        <time>2023-06-12T17:52:56.482Z</time>
      </trkpt>
      <trkpt lat="46.91363" lon="-0.01981">
        <ele>54.24</ele>
        <time>2023-06-12T17:53:37.958Z</time>
      </trkpt>
      <trkpt lat="46.91353" lon="-0.01978">
        <ele>54.15</ele>
        <time>2023-06-12T17:54:19.435Z</time>
      </trkpt>
      <trkpt lat="46.91344" lon="-0.01975">
        <ele>54.09</ele>
        <time>2023-06-12T17:55:00.914Z</time>
      </trkpt>
      <trkpt lat="46.91343" lon="-0.01975">
        <ele>54.09</ele>
        <time>2023-06-12T17:55:42.393Z</time>
      </trkpt>
      <trkpt lat="46.91333" lon="-0.01972">
        <ele>54.07</ele>
        <time>2023-06-12T17:56:23.874Z</time>
      </trkpt>
      <trkpt lat="46.91325" lon="-0.0197">
        <ele>54.07</ele>
        <time>2023-06-12T17:57:05.356Z</time>
      </trkpt>
      <trkpt lat="46.91315" lon="-0.01969">
        <ele>54.07</ele>
        <time>2023-06-12T17:57:46.839Z</time>
      </trkpt>
      <trkpt lat="46.91312" lon="-0.01969">
        <ele>54.07</ele>
        <time>2023-06-12T17:58:28.323Z</time>
      </trkpt>
      <trkpt lat="46.91302" lon="-0.01971">
        <ele>54.32</ele>
        <time>2023-06-12T17:59:09.809Z</time>
      </trkpt>
      <trkpt lat="46.9128" lon="-0.01973">
        <ele>54.32</ele>
        <time>2023-06-12T17:59:51.298Z</time>
      </trkpt>
      <trkpt lat="46.91269" lon="-0.01974">
        <ele>54.27</ele>
        <time>2023-06-12T18:00:32.789Z</time>
      </trkpt>
      <trkpt lat="46.91263" lon="-0.01975">
        <ele>54.39</ele>
        <time>2023-06-12T18:01:14.281Z</time>
      </trkpt>
      <trkpt lat="46.91259" lon="-0.01976">
        <ele>54.49</ele>
        <time>2023-06-12T18:01:55.773Z</time>
      </trkpt>
      <trkpt lat="46.91249" lon="-0.01979">
        <ele>54.44</ele>
        <time>2023-06-12T18:02:37.267Z</time>
      </trkpt>
      <trkpt lat="46.91241" lon="-0.01981">
        <ele>54.44</ele>
        <time>2023-06-12T18:03:18.762Z</time>
      </trkpt>
      <trkpt lat="46.9124" lon="-0.01982">
        <ele>54.44</ele>
        <time>2023-06-12T18:04:00.258Z</time>
      </trkpt>
      <trkpt lat="46.91231" lon="-0.01987">
        <ele>54.96</ele>
        <time>2023-06-12T18:04:41.755Z</time>
      </trkpt>
      <trkpt lat="46.91222" lon="-0.01993">
        <ele>55.05</ele>
        <time>2023-06-12T18:05:23.254Z</time>
      </trkpt>
      <trkpt lat="46.91221" lon="-0.01993">
        <ele>55.05</ele>
        <time>2023-06-12T18:06:04.753Z</time>
      </trkpt>
      <trkpt lat="46.91212" lon="-0.02003">
        <ele>55.94</ele>
        <time>2023-06-12T18:06:46.254Z</time>
      </trkpt>
      <trkpt lat="46.91203" lon="-0.02011">
        <ele>55.94</ele>
        <time>2023-06-12T18:07:27.756Z</time>
      </trkpt>
      <trkpt lat="46.91194" lon="-0.0202">
        <ele>56.32</ele>
        <time>2023-06-12T18:08:09.260Z</time>
      </trkpt>
      <trkpt lat="46.91185" lon="-0.02029">
        <ele>56.47</ele>
        <time>2023-06-12T18:08:50.766Z</time>
      </trkpt>
      <trkpt lat="46.91176" lon="-0.02037">
        <ele>56.35</ele>
        <time>2023-06-12T18:09:32.273Z</time>
      </trkpt>
      <trkpt lat="46.91171" lon="-0.02042">
        <ele>56.35</ele>
        <time>2023-06-12T18:10:13.781Z</time>
      </trkpt>
      <trkpt lat="46.91168" lon="-0.02045">
        <ele>56.35</ele>
        <time>2023-06-12T18:10:55.290Z</time>
      </trkpt>
      <trkpt lat="46.91159" lon="-0.02052">
        <ele>56.07</ele>
        <time>2023-06-12T18:11:36.801Z</time>
      </trkpt>
      <trkpt lat="46.9115" lon="-0.02061">
        <ele>55.84</ele>
        <time>2023-06-12T18:12:18.313Z</time>
      </trkpt>
      <trkpt lat="46.9114" lon="-0.02069">
        <ele>55.27</ele>
        <time>2023-06-12T18:12:59.827Z</time>
      </trkpt>
      <trkpt lat="46.91132" lon="-0.02075">
        <ele>54.93</ele>
        <time>2023-06-12T18:13:41.343Z</time>
      </trkpt>
      <trkpt lat="46.91126" lon="-0.02081">
        <ele>54.93</ele>
        <time>2023-06-12T18:14:22.860Z</time>
      </trkpt>
      <trkpt lat="46.91124" lon="-0.02082">
        <ele>54.93</ele>
        <time>2023-06-12T18:15:04.377Z</time>
      </trkpt>
      <trkpt lat="46.91116" lon="-0.02089">
        <ele>54.67</ele>
        <time>2023-06-12T18:15:45.896Z</time>
      </trkpt>
      <trkpt lat="46.91109" lon="-0.02095">
        <ele>54.52</ele>
        <time>2023-06-12T18:16:27.416Z</time>
      </trkpt>
      <trkpt lat="46.91109" lon="-0.02095">
        <ele>54.8</ele>
        <time>2023-06-12T18:17:08.936Z</time>
      </trkpt>
      <trkpt lat="46.91099" lon="-0.02102">
        <ele>54.48</ele>
        <time>2023-06-12T18:17:50.458Z</time>
      </trkpt>
      <trkpt lat="46.91095" lon="-0.02104">
        <ele>54.36</ele>
        <time>2023-06-12T18:18:31.980Z</time>
      </trkpt>
      <trkpt lat="46.91091" lon="-0.02107">
        <ele>54.24</ele>
        <time>2023-06-12T18:19:13.503Z</time>
      </trkpt>
      <trkpt lat="46.91083" lon="-0.02111">
        <ele>54.04</ele>
        <time>2023-06-12T18:19:55.027Z</time>
      </trkpt>
      <trkpt lat="46.91074" lon="-0.02116">
        <ele>53.89</ele>
        <time>2023-06-12T18:20:36.553Z</time>
      </trkpt>
      <trkpt lat="46.91073" lon="-0.02117">
        <ele>53.87</ele>
        <time>2023-06-12T18:21:18.079Z</time>
      </trkpt>
      <trkpt lat="46.91071" lon="-0.02107">
        <ele>53.78</ele>
        <time>2023-06-12T18:21:59.606Z</time>
      </trkpt>
      <trkpt lat="46.91068" lon="-0.02094">
        <ele>53.69</ele>
        <time>2023-06-12T18:22:41.135Z</time>
      </trkpt>
      <trkpt lat="46.91065" lon="-0.02082">
        <ele>53.65</ele>
        <time>2023-06-12T18:23:22.665Z</time>
      </trkpt>
      <trkpt lat="46.91057" lon="-0.02051">
        <ele>53.64</ele>
        <time>2023-06-12T18:24:04.199Z</time>
      </trkpt>
      <trkpt lat="46.9105" lon="-0.0202">
        <ele>53.59</ele>
        <time>2023-06-12T18:24:45.736Z</time>
      </trkpt>
      <trkpt lat="46.91044" lon="-0.01995">
        <ele>53.58</ele>
        <time>2023-06-12T18:25:27.276Z</time>
      </trkpt>
      <trkpt lat="46.91042" lon="-0.01982">
        <ele>53.61</ele>
        <time>2023-06-12T18:26:08.818Z</time>
      </trkpt>
      <trkpt lat="46.91037" lon="-0.01964">
        <ele>53.72</ele>
        <time>2023-06-12T18:26:50.362Z</time>
      </trkpt>
      <trkpt lat="46.91034" lon="-0.01951">
        <ele>53.77</ele>
        <time>2023-06-12T18:27:31.907Z</time>
      </trkpt>
      <trkpt lat="46.91031" lon="-0.01939">
        <ele>53.78</ele>
        <time>2023-06-12T18:28:13.454Z</time>
      </trkpt>
      <trkpt lat="46.91018" lon="-0.01883">
        <ele>53.76</ele>
        <time>2023-06-12T18:28:55.007Z</time>
      </trkpt>
      <trkpt lat="46.91015" lon="-0.01871">
        <ele>53.79</ele>
        <time>2023-06-12T18:29:36.562Z</time>
      </trkpt>
      <trkpt lat="46.9101" lon="-0.01846">
        <ele>53.88</ele>
        <time>2023-06-12T18:30:18.120Z</time>
      </trkpt>
      <trkpt lat="46.91004" lon="-0.01821">
        <ele>53.9</ele>
        <time>2023-06-12T18:30:59.680Z</time>
      </trkpt>
      <trkpt lat="46.90995" lon="-0.01784">
        <ele>53.99</ele>
        <time>2023-06-12T18:31:41.245Z</time>
      </trkpt>
      <trkpt lat="46.90989" lon="-0.01759">
        <ele>54.09</ele>
        <time>2023-06-12T18:32:22.813Z</time>
      </trkpt>
      <trkpt lat="46.90983" lon="-0.01735">
        <ele>54.01</ele>
        <time>2023-06-12T18:33:04.384Z</time>
      </trkpt>
      <trkpt lat="46.90975" lon="-0.01698">
        <ele>53.96</ele>
        <time>2023-06-12T18:33:45.959Z</time>
      </trkpt>
      <trkpt lat="46.90966" lon="-0.0166">
        <ele>53.86</ele>
        <time>2023-06-12T18:34:27.538Z</time>
      </trkpt>
      <trkpt lat="46.90956" lon="-0.01617">
        <ele>53.85</ele>
        <time>2023-06-12T18:35:09.122Z</time>
      </trkpt>
      <trkpt lat="46.9094" lon="-0.01549">
        <ele>53.8</ele>
        <time>2023-06-12T18:35:50.714Z</time>
      </trkpt>
      <trkpt lat="46.9093" lon="-0.01506">
        <ele>53.84</ele>
        <time>2023-06-12T18:36:32.311Z</time>
      </trkpt>
      <trkpt lat="46.90924" lon="-0.01481">
        <ele>53.93</ele>
        <time>2023-06-12T18:37:13.911Z</time>
      </trkpt>
      <trkpt lat="46.90921" lon="-0.01469">
        <ele>53.95</ele>
        <time>2023-06-12T18:37:55.512Z</time>
      </trkpt>
      <trkpt lat="46.90913" lon="-0.01432">
        <ele>53.85</ele>
        <time>2023-06-12T18:38:37.118Z</time>
      </trkpt>
      <trkpt lat="46.90905" lon="-0.01401">
        <ele>53.79</ele>
        <time>2023-06-12T18:39:18.727Z</time>
      </trkpt>
      <trkpt lat="46.9089" lon="-0.01333">
        <ele>53.77</ele>
        <time>2023-06-12T18:40:00.344Z</time>
      </trkpt>
      <trkpt lat="46.90878" lon="-0.01284">
        <ele>53.69</ele>
        <time>2023-06-12T18:40:41.967Z</time>
      </trkpt>
      <trkpt lat="46.90866" lon="-0.01234">
        <ele>53.75</ele>
        <time>2023-06-12T18:41:23.595Z</time>
      </trkpt>
      <trkpt lat="46.90863" lon="-0.01222">
        <ele>53.78</ele>
        <time>2023-06-12T18:42:05.225Z</time>
      </trkpt>
      <trkpt lat="46.90858" lon="-0.01197">
        <ele>53.88</ele>
        <time>2023-06-12T18:42:46.858Z</time>
      </trkpt>
      <trkpt lat="46.90846" lon="-0.01148">
        <ele>53.55</ele>
        <time>2023-06-12T18:43:28.497Z</time>
      </trkpt>
      <trkpt lat="46.9083" lon="-0.01079">
        <ele>53.26</ele>
        <time>2023-06-12T18:44:10.143Z</time>
      </trkpt>
      <trkpt lat="46.90826" lon="-0.01061">
        <ele>53.21</ele>
        <time>2023-06-12T18:44:51.792Z</time>
      </trkpt>
      <trkpt lat="46.90821" lon="-0.01042">
        <ele>53.24</ele>
        <time>2023-06-12T18:45:33.443Z</time>
      </trkpt>
      <trkpt lat="46.90817" lon="-0.01023">
        <ele>53.24</ele>
        <time>2023-06-12T18:46:15.096Z</time>
      </trkpt>
      <trkpt lat="46.90814" lon="-0.01011">
        <ele>53.26</ele>
        <time>2023-06-12T18:46:56.750Z</time>
      </trkpt>
      <trkpt lat="46.9081" lon="-0.00992">
        <ele>53.39</ele>
        <time>2023-06-12T18:47:38.407Z</time>
      </trkpt>
      <trkpt lat="46.90802" lon="-0.00961">
        <ele>53.69</ele>
        <time>2023-06-12T18:48:20.067Z</time>
      </trkpt>
      <trkpt lat="46.908" lon="-0.00949">
        <ele>53.71</ele>
        <time>2023-06-12T18:49:01.729Z</time>
      </trkpt>
      <trkpt lat="46.90797" lon="-0.00937">
        <ele>53.51</ele>
        <time>2023-06-12T18:49:43.392Z</time>
      </trkpt>
      <trkpt lat="46.90791" lon="-0.00912">
        <ele>53.01</ele>
        <time>2023-06-12T18:50:25.058Z</time>
      </trkpt>
      <trkpt lat="46.9079" lon="-0.00908">
        <ele>52.93</ele>
        <time>2023-06-12T18:51:06.724Z</time>
      </trkpt>
      <trkpt lat="46.9079" lon="-0.00906">
        <ele>52.9</ele>
        <time>2023-06-12T18:51:48.391Z</time>
      </trkpt>
      <trkpt lat="46.90789" lon="-0.009">
        <ele>52.81</ele>
        <time>2023-06-12T18:52:30.058Z</time>
      </trkpt>
      <trkpt lat="46.90788" lon="-0.00887">
        <ele>52.67</ele>
        <time>2023-06-12T18:53:11.727Z</time>
      </trkpt>
      <trkpt lat="46.90787" lon="-0.00874">
        <ele>52.6</ele>
        <time>2023-06-12T18:53:53.397Z</time>
      </trkpt>
      <trkpt lat="46.90786" lon="-0.00868">
        <ele>52.59</ele>
        <time>2023-06-12T18:54:35.068Z</time>
      </trkpt>
      <trkpt lat="46.90788" lon="-0.00846">
        <ele>52.56</ele>
        <time>2023-06-12T18:55:16.741Z</time>
      </trkpt>
      <trkpt lat="46.90792" lon="-0.00816">
        <ele>52.52</ele>
        <time>2023-06-12T18:55:58.418Z</time>
      </trkpt>
      <trkpt lat="46.90794" lon="-0.00803">
        <ele>52.53</ele>
        <time>2023-06-12T18:56:40.096Z</time>
      </trkpt>
      <trkpt lat="46.90794" lon="-0.00797">
        <ele>52.55</ele>
        <time>2023-06-12T18:57:21.775Z</time>
      </trkpt>
      <trkpt lat="46.90796" lon="-0.00784">
        <ele>52.65</ele>
        <time>2023-06-12T18:58:03.455Z</time>
      </trkpt>
      <trkpt lat="46.90798" lon="-0.00771">
        <ele>52.82</ele>
        <time>2023-06-12T18:58:45.137Z</time>
      </trkpt>
      <trkpt lat="46.90799" lon="-0.00759">
        <ele>53.04</ele>
        <time>2023-06-12T18:59:26.820Z</time>
      </trkpt>
      <trkpt lat="46.90803" lon="-0.00733">
        <ele>53.57</ele>
        <time>2023-06-12T19:00:08.506Z</time>
      </trkpt>
      <trkpt lat="46.90805" lon="-0.00714">
        <ele>54</ele>
        <time>2023-06-12T19:00:50.194Z</time>
      </trkpt>
      <trkpt lat="46.90807" lon="-0.00701">
        <ele>54.33</ele>
        <time>2023-06-12T19:01:31.883Z</time>
      </trkpt>
      <trkpt lat="46.90809" lon="-0.00682">
        <ele>54.86</ele>
        <time>2023-06-12T19:02:13.575Z</time>
      </trkpt>
      <trkpt lat="46.90812" lon="-0.00663">
        <ele>55.45</ele>
        <time>2023-06-12T19:02:55.269Z</time>
      </trkpt>
      <trkpt lat="46.90814" lon="-0.0065">
        <ele>55.17</ele>
        <time>2023-06-12T19:03:36.964Z</time>
      </trkpt>
      <trkpt lat="46.90814" lon="-0.00644">
        <ele>55.07</ele>
        <time>2023-06-12T19:04:18.660Z</time>
      </trkpt>
      <trkpt lat="46.90815" lon="-0.00637">
        <ele>55.01</ele>
        <time>2023-06-12T19:05:00.357Z</time>
      </trkpt>
      <trkpt lat="46.90817" lon="-0.00624">
        <ele>54.99</ele>
        <time>2023-06-12T19:05:42.055Z</time>
      </trkpt>
      <trkpt lat="46.90818" lon="-0.00618">
        <ele>55.03</ele>
        <time>2023-06-12T19:06:23.754Z</time>
      </trkpt>
      <trkpt lat="46.90819" lon="-0.00612">
        <ele>55.09</ele>
        <time>2023-06-12T19:07:05.453Z</time>
      </trkpt>
      <trkpt lat="46.90819" lon="-0.00608">
        <ele>55.12</ele>
        <time>2023-06-12T19:07:47.153Z</time>
      </trkpt>
      <trkpt lat="46.90802" lon="-0.00598">
        <ele>55.42</ele>
        <time>2023-06-12T19:08:28.856Z</time>
      </trkpt>
      <trkpt lat="46.908" lon="-0.00598">
        <ele>55.45</ele>
        <time>2023-06-12T19:09:10.559Z</time>
      </trkpt>
      <trkpt lat="46.90789" lon="-0.00595">
        <ele>55.57</ele>
        <time>2023-06-12T19:09:52.264Z</time>
      </trkpt>
      <trkpt lat="46.90783" lon="-0.00597">
        <ele>55.64</ele>
        <time>2023-06-12T19:10:33.970Z</time>
      </trkpt>
      <trkpt lat="46.90774" lon="-0.006">
        <ele>55.76</ele>
        <time>2023-06-12T19:11:15.677Z</time>
      </trkpt>
      <trkpt lat="46.90765" lon="-0.00603">
        <ele>55.92</ele>
        <time>2023-06-12T19:11:57.386Z</time>
      </trkpt>
      <trkpt lat="46.90757" lon="-0.00605">
        <ele>56.12</ele>
        <time>2023-06-12T19:12:39.096Z</time>
      </trkpt>
      <trkpt lat="46.90752" lon="-0.00607">
        <ele>56.19</ele>
        <time>2023-06-12T19:13:20.807Z</time>
      </trkpt>
      <trkpt lat="46.90748" lon="-0.00608">
        <ele>56.21</ele>
        <time>2023-06-12T19:14:02.519Z</time>
      </trkpt>
      <trkpt lat="46.90739" lon="-0.00611">
        <ele>56.19</ele>
        <time>2023-06-12T19:14:44.232Z</time>
      </trkpt>
      <trkpt lat="46.90735" lon="-0.00612">
        <ele>56.21</ele>
        <time>2023-06-12T19:15:25.946Z</time>
      </trkpt>
      <trkpt lat="46.9073" lon="-0.00614">
        <ele>56.27</ele>
        <time>2023-06-12T19:16:07.660Z</time>
      </trkpt>
      <trkpt lat="46.90726" lon="-0.00615">
        <ele>56.37</ele>
        <time>2023-06-12T19:16:49.375Z</time>
      </trkpt>
      <trkpt lat="46.90709" lon="-0.00621">
        <ele>56.84</ele>
        <time>2023-06-12T19:17:31.093Z</time>
      </trkpt>
      <trkpt lat="46.90704" lon="-0.00622">
        <ele>56.92</ele>
        <time>2023-06-12T19:18:12.812Z</time>
      </trkpt>
      <trkpt lat="46.90695" lon="-0.00625">
        <ele>57.01</ele>
        <time>2023-06-12T19:18:54.532Z</time>
      </trkpt>
      <trkpt lat="46.90687" lon="-0.00626">
        <ele>57.1</ele>
        <time>2023-06-12T19:19:36.254Z</time>
      </trkpt>
      <trkpt lat="46.90682" lon="-0.00627">
        <ele>57.16</ele>
        <time>2023-06-12T19:20:17.976Z</time>
      </trkpt>
      <trkpt lat="46.90664" lon="-0.00629">
        <ele>57.48</ele>
        <time>2023-06-12T19:20:59.701Z</time>
      </trkpt>
      <trkpt lat="46.90661" lon="-0.00629">
        <ele>57.54</ele>
        <time>2023-06-12T19:21:41.427Z</time>
      </trkpt>
      <trkpt lat="46.90648" lon="-0.0064">
        <ele>57.83</ele>
        <time>2023-06-12T19:22:23.155Z</time>
      </trkpt>
      <trkpt lat="46.90645" lon="-0.00643">
        <ele>57.9</ele>
        <time>2023-06-12T19:23:04.884Z</time>
      </trkpt>
      <trkpt lat="46.90633" lon="-0.00653">
        <ele>58.04</ele>
        <time>2023-06-12T19:23:46.615Z</time>
      </trkpt>
      <trkpt lat="46.90629" lon="-0.00656">
        <ele>58.11</ele>
        <time>2023-06-12T19:24:28.347Z</time>
      </trkpt>
      <trkpt lat="46.90598" lon="-0.00682">
        <ele>58.81</ele>
        <time>2023-06-12T19:25:10.084Z</time>
      </trkpt>
      <trkpt lat="46.90595" lon="-0.00685">
        <ele>58.85</ele>
        <time>2023-06-12T19:25:51.822Z</time>
      </trkpt>
      <trkpt lat="46.90583" lon="-0.00697">
        <ele>59.02</ele>
        <time>2023-06-12T19:26:33.562Z</time>
      </trkpt>
      <trkpt lat="46.90572" lon="-0.00708">
        <ele>59.21</ele>
        <time>2023-06-12T19:27:15.304Z</time>
      </trkpt>
      <trkpt lat="46.90569" lon="-0.00712">
        <ele>59.23</ele>
        <time>2023-06-12T19:27:57.047Z</time>
      </trkpt>
      <trkpt lat="46.90566" lon="-0.00717">
        <ele>59.27</ele>
        <time>2023-06-12T19:28:38.791Z</time>
      </trkpt>
      <trkpt lat="46.9056" lon="-0.00727">
        <ele>59.27</ele>
        <time>2023-06-12T19:29:20.536Z</time>
      </trkpt>
      <trkpt lat="46.90557" lon="-0.00731">
        <ele>59.23</ele>
        <time>2023-06-12T19:30:02.282Z</time>
      </trkpt>
      <trkpt lat="46.90554" lon="-0.00736">
        <ele>59.15</ele>
        <time>2023-06-12T19:30:44.029Z</time>
      </trkpt>
      <trkpt lat="46.90548" lon="-0.00746">
        <ele>58.89</ele>
        <time>2023-06-12T19:31:25.777Z</time>
      </trkpt>
      <trkpt lat="46.90529" lon="-0.00775">
        <ele>58.59</ele>
        <time>2023-06-12T19:32:07.529Z</time>
      </trkpt>
      <trkpt lat="46.9052" lon="-0.00789">
        <ele>58.48</ele>
        <time>2023-06-12T19:32:49.284Z</time>
      </trkpt>
      <trkpt lat="46.90502" lon="-0.00818">
        <ele>58.36</ele>
        <time>2023-06-12T19:33:31.043Z</time>
      </trkpt>
      <trkpt lat="46.905" lon="-0.00821">
        <ele>58.36</ele>
        <time>2023-06-12T19:34:12.802Z</time>
      </trkpt>
      <trkpt lat="46.90499" lon="-0.00823">
        <ele>58.37</ele>
        <time>2023-06-12T19:34:54.562Z</time>
      </trkpt>
      <trkpt lat="46.90489" lon="-0.00836">
        <ele>58.47</ele>
        <time>2023-06-12T19:35:36.324Z</time>
      </trkpt>
      <trkpt lat="46.90486" lon="-0.0084">
        <ele>58.48</ele>
        <time>2023-06-12T19:36:18.086Z</time>
      </trkpt>
      <trkpt lat="46.90482" lon="-0.00845">
        <ele>58.46</ele>
        <time>2023-06-12T19:36:59.849Z</time>
      </trkpt>
      <trkpt lat="46.90476" lon="-0.00854">
        <ele>58.38</ele>
        <time>2023-06-12T19:37:41.614Z</time>
      </trkpt>
      <trkpt lat="46.90469" lon="-0.00862">
        <ele>58.34</ele>
        <time>2023-06-12T19:38:23.380Z</time>
      </trkpt>
      <trkpt lat="46.90468" lon="-0.00864">
        <ele>58.34</ele>
        <time>2023-06-12T19:39:05.146Z</time>
      </trkpt>
      <trkpt lat="46.90446" lon="-0.00881">
        <ele>58.42</ele>
        <time>2023-06-12T19:39:46.916Z</time>
      </trkpt>
      <trkpt lat="46.90442" lon="-0.00884">
        <ele>58.45</ele>
        <time>2023-06-12T19:40:28.687Z</time>
      </trkpt>
      <trkpt lat="46.90438" lon="-0.00887">
        <ele>58.5</ele>
        <time>2023-06-12T19:41:10.459Z</time>
      </trkpt>
      <trkpt lat="46.90435" lon="-0.00889">
        <ele>58.55</ele>
        <time>2023-06-12T19:41:52.231Z</time>
      </trkpt>
      <trkpt lat="46.9042" lon="-0.00891">
        <ele>58.81</ele>
        <time>2023-06-12T19:42:34.006Z</time>
      </trkpt>
      <trkpt lat="46.90411" lon="-0.00893">
        <ele>58.88</ele>
        <time>2023-06-12T19:43:15.782Z</time>
      </trkpt>
      <trkpt lat="46.90411" lon="-0.00893">
        <ele>58.88</ele>
        <time>2023-06-12T19:43:57.558Z</time>
      </trkpt>
      <trkpt lat="46.90402" lon="-0.00896">
        <ele>58.86</ele>
        <time>2023-06-12T19:44:39.335Z</time>
      </trkpt>
      <trkpt lat="46.90389" lon="-0.009">
        <ele>58.78</ele>
        <time>2023-06-12T19:45:21.115Z</time>
      </trkpt>
      <trkpt lat="46.90376" lon="-0.00904">
        <ele>58.74</ele>
        <time>2023-06-12T19:46:02.897Z</time>
      </trkpt>
      <trkpt lat="46.90363" lon="-0.00908">
        <ele>58.67</ele>
        <time>2023-06-12T19:46:44.681Z</time>
      </trkpt>
      <trkpt lat="46.90357" lon="-0.0091">
        <ele>58.66</ele>
        <time>2023-06-12T19:47:26.466Z</time>
      </trkpt>
      <trkpt lat="46.90355" lon="-0.00912">
        <ele>58.66</ele>
        <time>2023-06-12T19:48:08.251Z</time>
      </trkpt>
      <trkpt lat="46.90347" lon="-0.00918">
        <ele>58.67</ele>
        <time>2023-06-12T19:48:50.038Z</time>
      </trkpt>
      <trkpt lat="46.90339" lon="-0.00925">
        <ele>58.72</ele>
        <time>2023-06-12T19:49:31.826Z</time>
      </trkpt>
      <trkpt lat="46.90304" lon="-0.00953">
        <ele>59.06</ele>
        <time>2023-06-12T19:50:13.621Z</time>
      </trkpt>
      <trkpt lat="46.90295" lon="-0.00958">
        <ele>59.14</ele>
        <time>2023-06-12T19:50:55.417Z</time>
      </trkpt>
      <trkpt lat="46.90283" lon="-0.00966">
        <ele>59.2</ele>
        <time>2023-06-12T19:51:37.215Z</time>
      </trkpt>
      <trkpt lat="46.90267" lon="-0.00977">
        <ele>59.12</ele>
        <time>2023-06-12T19:52:19.016Z</time>
      </trkpt>
      <trkpt lat="46.90259" lon="-0.00982">
        <ele>59.06</ele>
        <time>2023-06-12T19:53:00.819Z</time>
      </trkpt>
      <trkpt lat="46.90251" lon="-0.00987">
        <ele>58.94</ele>
        <time>2023-06-12T19:53:42.623Z</time>
      </trkpt>
      <trkpt lat="46.9025" lon="-0.00988">
        <ele>58.94</ele>
        <time>2023-06-12T19:54:24.427Z</time>
      </trkpt>
      <trkpt lat="46.90241" lon="-0.01002">
        <ele>58.71</ele>
        <time>2023-06-12T19:55:06.233Z</time>
      </trkpt>
      <trkpt lat="46.90234" lon="-0.01011">
        <ele>58.61</ele>
        <time>2023-06-12T19:55:48.041Z</time>
      </trkpt>
      <trkpt lat="46.9023" lon="-0.01017">
        <ele>58.58</ele>
        <time>2023-06-12T19:56:29.850Z</time>
      </trkpt>
      <trkpt lat="46.90226" lon="-0.01026">
        <ele>58.56</ele>
        <time>2023-06-12T19:57:11.660Z</time>
      </trkpt>
      <trkpt lat="46.90218" lon="-0.01042">
        <ele>58.59</ele>
        <time>2023-06-12T19:57:53.472Z</time>
      </trkpt>
      <trkpt lat="46.90215" lon="-0.01047">
        <ele>58.58</ele>
        <time>2023-06-12T19:58:35.285Z</time>
      </trkpt>
      <trkpt lat="46.90213" lon="-0.01053">
        <ele>58.54</ele>
        <time>2023-06-12T19:59:17.098Z</time>
      </trkpt>
      <trkpt lat="46.90208" lon="-0.01063">
        <ele>58.41</ele>
        <time>2023-06-12T19:59:58.913Z</time>
      </trkpt>
      <trkpt lat="46.90205" lon="-0.01069">
        <ele>58.37</ele>
        <time>2023-06-12T20:00:40.729Z</time>
      </trkpt>
      <trkpt lat="46.90203" lon="-0.01074">
        <ele>58.35</ele>
        <time>2023-06-12T20:01:22.545Z</time>
      </trkpt>
      <trkpt lat="46.90195" lon="-0.0109">
        <ele>58.37</ele>
        <time>2023-06-12T20:02:04.363Z</time>
      </trkpt>
      <trkpt lat="46.90193" lon="-0.01094">
        <ele>58.34</ele>
        <time>2023-06-12T20:02:46.182Z</time>
      </trkpt>
      <trkpt lat="46.90192" lon="-0.01095">
        <ele>58.34</ele>
        <time>2023-06-12T20:03:28.001Z</time>
      </trkpt>
      <trkpt lat="46.90184" lon="-0.01111">
        <ele>58.13</ele>
        <time>2023-06-12T20:04:09.822Z</time>
      </trkpt>
      <trkpt lat="46.90181" lon="-0.01117">
        <ele>58.09</ele>
        <time>2023-06-12T20:04:51.644Z</time>
      </trkpt>
      <trkpt lat="46.90168" lon="-0.01143">
        <ele>58.13</ele>
        <time>2023-06-12T20:05:33.470Z</time>
      </trkpt>
      <trkpt lat="46.90161" lon="-0.01156">
        <ele>58.06</ele>
        <time>2023-06-12T20:06:15.297Z</time>
      </trkpt>
      <trkpt lat="46.90159" lon="-0.01158">
        <ele>58.05</ele>
        <time>2023-06-12T20:06:57.125Z</time>
      </trkpt>
      <trkpt lat="46.90148" lon="-0.01168">
        <ele>58.03</ele>
        <time>2023-06-12T20:07:38.955Z</time>
      </trkpt>
      <trkpt lat="46.90136" lon="-0.01178">
        <ele>58.08</ele>
        <time>2023-06-12T20:08:20.787Z</time>
      </trkpt>
      <trkpt lat="46.90132" lon="-0.01181">
        <ele>58.08</ele>
        <time>2023-06-12T20:09:02.620Z</time>
      </trkpt>
      <trkpt lat="46.90132" lon="-0.01181">
        <ele>58.08</ele>
        <time>2023-06-12T20:09:44.453Z</time>
      </trkpt>
      <trkpt lat="46.90128" lon="-0.01183">
        <ele>58.06</ele>
        <time>2023-06-12T20:10:26.287Z</time>
      </trkpt>
      <trkpt lat="46.90111" lon="-0.0119">
        <ele>57.87</ele>
        <time>2023-06-12T20:11:08.123Z</time>
      </trkpt>
      <trkpt lat="46.90107" lon="-0.01191">
        <ele>57.85</ele>
        <time>2023-06-12T20:11:49.960Z</time>
      </trkpt>
      <trkpt lat="46.90097" lon="-0.01189">
        <ele>57.81</ele>
        <time>2023-06-12T20:12:31.799Z</time>
      </trkpt>
      <trkpt lat="46.90088" lon="-0.01187">
        <ele>57.82</ele>
        <time>2023-06-12T20:13:13.639Z</time>
      </trkpt>
      <trkpt lat="46.90081" lon="-0.01186">
        <ele>57.85</ele>
        <time>2023-06-12T20:13:55.480Z</time>
      </trkpt>
      <trkpt lat="46.90075" lon="-0.01186">
        <ele>57.88</ele>
        <time>2023-06-12T20:14:37.322Z</time>
      </trkpt>
      <trkpt lat="46.9007" lon="-0.01186">
        <ele>57.87</ele>
        <time>2023-06-12T20:15:19.165Z</time>
      </trkpt>
      <trkpt lat="46.90061" lon="-0.01186">
        <ele>57.77</ele>
        <time>2023-06-12T20:16:01.009Z</time>
      </trkpt>
      <trkpt lat="46.90057" lon="-0.01186">
        <ele>57.74</ele>
        <time>2023-06-12T20:16:42.854Z</time>
      </trkpt>
      <trkpt lat="46.90048" lon="-0.01188">
        <ele>57.69</ele>
        <time>2023-06-12T20:17:24.700Z</time>
      </trkpt>
      <trkpt lat="46.90021" lon="-0.01191">
        <ele>57.58</ele>
        <time>2023-06-12T20:18:06.551Z</time>
      </trkpt>
      <trkpt lat="46.90021" lon="-0.01191">
        <ele>57.58</ele>
        <time>2023-06-12T20:18:48.402Z</time>
      </trkpt>
      <trkpt lat="46.90011" lon="-0.01204">
        <ele>57.56</ele>
        <time>2023-06-12T20:19:30.255Z</time>
      </trkpt>
      <trkpt lat="46.90008" lon="-0.01208">
        <ele>57.53</ele>
        <time>2023-06-12T20:20:12.109Z</time>
      </trkpt>
      <trkpt lat="46.90008" lon="-0.01208">
        <ele>57.53</ele>
        <time>2023-06-12T20:20:53.963Z</time>
      </trkpt>
      <trkpt lat="46.90011" lon="-0.01234">
        <ele>57.34</ele>
        <time>2023-06-12T20:21:35.819Z</time>
      </trkpt>
      <trkpt lat="46.90011" lon="-0.01234">
        <ele>57.34</ele>
        <time>2023-06-12T20:22:17.676Z</time>
      </trkpt>
      <trkpt lat="46.90005" lon="-0.01252">
        <ele>57.27</ele>
        <time>2023-06-12T20:22:59.535Z</time>
      </trkpt>
      <trkpt lat="46.90002" lon="-0.01262">
        <ele>57.17</ele>
        <time>2023-06-12T20:23:41.395Z</time>
      </trkpt>
      <trkpt lat="46.89996" lon="-0.01265">
        <ele>57.1</ele>
        <time>2023-06-12T20:24:23.256Z</time>
      </trkpt>
      <trkpt lat="46.89992" lon="-0.01266">
        <ele>57.07</ele>
        <time>2023-06-12T20:25:05.118Z</time>
      </trkpt>
      <trkpt lat="46.89975" lon="-0.01274">
        <ele>57.06</ele>
        <time>2023-06-12T20:25:46.982Z</time>
      </trkpt>
      <trkpt lat="46.89958" lon="-0.01282">
        <ele>56.93</ele>
        <time>2023-06-12T20:26:28.849Z</time>
      </trkpt>
      <trkpt lat="46.89953" lon="-0.01284">
        <ele>56.94</ele>
        <time>2023-06-12T20:27:10.717Z</time>
      </trkpt>
      <trkpt lat="46.8994" lon="-0.0129">
        <ele>57.03</ele>
        <time>2023-06-12T20:27:52.587Z</time>
      </trkpt>
      <trkpt lat="46.89932" lon="-0.01293">
        <ele>57.02</ele>
        <time>2023-06-12T20:28:34.459Z</time>
      </trkpt>
      <trkpt lat="46.89928" lon="-0.01295">
        <ele>56.98</ele>
        <time>2023-06-12T20:29:16.331Z</time>
      </trkpt>
      <trkpt lat="46.89915" lon="-0.01301">
        <ele>56.8</ele>
        <time>2023-06-12T20:29:58.206Z</time>
      </trkpt>
      <trkpt lat="46.89906" lon="-0.01305">
        <ele>56.74</ele>
        <time>2023-06-12T20:30:40.082Z</time>
      </trkpt>
      <trkpt lat="46.89897" lon="-0.01309">
        <ele>56.78</ele>
        <time>2023-06-12T20:31:21.959Z</time>
      </trkpt>
      <trkpt lat="46.89885" lon="-0.01315">
        <ele>56.97</ele>
        <time>2023-06-12T20:32:03.839Z</time>
      </trkpt>
      <trkpt lat="46.8988" lon="-0.01317">
        <ele>57.02</ele>
        <time>2023-06-12T20:32:45.719Z</time>
      </trkpt>
      <trkpt lat="46.89877" lon="-0.01318">
        <ele>57.03</ele>
        <time>2023-06-12T20:33:27.600Z</time>
      </trkpt>
      <trkpt lat="46.89876" lon="-0.01318">
        <ele>57.04</ele>
        <time>2023-06-12T20:34:09.481Z</time>
      </trkpt>
      <trkpt lat="46.89872" lon="-0.01319">
        <ele>57.03</ele>
        <time>2023-06-12T20:34:51.363Z</time>
      </trkpt>
      <trkpt lat="46.89858" lon="-0.01323">
        <ele>56.93</ele>
        <time>2023-06-12T20:35:33.247Z</time>
      </trkpt>
      <trkpt lat="46.89849" lon="-0.01325">
        <ele>56.9</ele>
        <time>2023-06-12T20:36:15.132Z</time>
      </trkpt>
      <trkpt lat="46.89831" lon="-0.0133">
        <ele>56.92</ele>
        <time>2023-06-12T20:36:57.020Z</time>
      </trkpt>
      <trkpt lat="46.89831" lon="-0.0133">
        <ele>56.92</ele>
        <time>2023-06-12T20:37:38.908Z</time>
      </trkpt>
      <trkpt lat="46.89829" lon="-0.01334">
        <ele>56.91</ele>
        <time>2023-06-12T20:38:20.797Z</time>
      </trkpt>
      <trkpt lat="46.89822" lon="-0.01347">
        <ele>56.78</ele>
        <time>2023-06-12T20:39:02.688Z</time>
      </trkpt>
      <trkpt lat="46.89823" lon="-0.01364">
        <ele>56.66</ele>
        <time>2023-06-12T20:39:44.580Z</time>
      </trkpt>
      <trkpt lat="46.89823" lon="-0.0137">
        <ele>56.63</ele>
        <time>2023-06-12T20:40:26.473Z</time>
      </trkpt>
      <trkpt lat="46.89825" lon="-0.0139">
        <ele>56.66</ele>
        <time>2023-06-12T20:41:08.368Z</time>
      </trkpt>
      <trkpt lat="46.89825" lon="-0.01394">
        <ele>56.65</ele>
        <time>2023-06-12T20:41:50.264Z</time>
      </trkpt>
      <trkpt lat="46.89826" lon="-0.01396">
        <ele>56.65</ele>
        <time>2023-06-12T20:42:32.160Z</time>
      </trkpt>
      <trkpt lat="46.89829" lon="-0.01401">
        <ele>56.62</ele>
        <time>2023-06-12T20:43:14.057Z</time>
      </trkpt>
      <trkpt lat="46.89839" lon="-0.01422">
        <ele>56.37</ele>
        <time>2023-06-12T20:43:55.957Z</time>
      </trkpt>
      <trkpt lat="46.89844" lon="-0.01432">
        <ele>56.29</ele>
        <time>2023-06-12T20:44:37.858Z</time>
      </trkpt>
      <trkpt lat="46.89844" lon="-0.01433">
        <ele>56.29</ele>
        <time>2023-06-12T20:45:19.759Z</time>
      </trkpt>
      <trkpt lat="46.89847" lon="-0.01446">
        <ele>56.24</ele>
        <time>2023-06-12T20:46:01.662Z</time>
      </trkpt>
      <trkpt lat="46.89849" lon="-0.01452">
        <ele>56.23</ele>
        <time>2023-06-12T20:46:43.565Z</time>
      </trkpt>
      <trkpt lat="46.89853" lon="-0.01471">
        <ele>56.29</ele>
        <time>2023-06-12T20:47:25.470Z</time>
      </trkpt>
      <trkpt lat="46.89856" lon="-0.01484">
        <ele>56.26</ele>
        <time>2023-06-12T20:48:07.377Z</time>
      </trkpt>
      <trkpt lat="46.89857" lon="-0.01489">
        <ele>56.26</ele>
        <time>2023-06-12T20:48:49.285Z</time>
      </trkpt>
      <trkpt lat="46.8986" lon="-0.01515">
        <ele>56.29</ele>
        <time>2023-06-12T20:49:31.196Z</time>
      </trkpt>
      <trkpt lat="46.89864" lon="-0.01541">
        <ele>56.2</ele>
        <time>2023-06-12T20:50:13.109Z</time>
      </trkpt>
      <trkpt lat="46.89869" lon="-0.01573">
        <ele>56.06</ele>
        <time>2023-06-12T20:50:55.026Z</time>
      </trkpt>
      <trkpt lat="46.8987" lon="-0.01579">
        <ele>56.07</ele>
        <time>2023-06-12T20:51:36.944Z</time>
      </trkpt>
      <trkpt lat="46.89872" lon="-0.01592">
        <ele>56.19</ele>
        <time>2023-06-12T20:52:18.863Z</time>
      </trkpt>
      <trkpt lat="46.89875" lon="-0.01618">
        <ele>56.56</ele>
        <time>2023-06-12T20:53:00.785Z</time>
      </trkpt>
      <trkpt lat="46.89877" lon="-0.01629">
        <ele>56.65</ele>
        <time>2023-06-12T20:53:42.708Z</time>
      </trkpt>
      <trkpt lat="46.89878" lon="-0.01637">
        <ele>56.79</ele>
        <time>2023-06-12T20:54:24.632Z</time>
      </trkpt>
      <trkpt lat="46.89881" lon="-0.01656">
        <ele>56.24</ele>
        <time>2023-06-12T20:55:06.558Z</time>
      </trkpt>
      <trkpt lat="46.89881" lon="-0.01658">
        <ele>56.2</ele>
        <time>2023-06-12T20:55:48.485Z</time>
      </trkpt>
      <trkpt lat="46.89881" lon="-0.01663">
        <ele>56.09</ele>
        <time>2023-06-12T20:56:30.412Z</time>
      </trkpt>
      <trkpt lat="46.8988" lon="-0.01669">
        <ele>55.97</ele>
        <time>2023-06-12T20:57:12.340Z</time>
      </trkpt>
      <trkpt lat="46.8988" lon="-0.01669">
        <ele>55.97</ele>
        <time>2023-06-12T20:57:54.268Z</time>
      </trkpt>
      <trkpt lat="46.89875" lon="-0.0167">
        <ele>55.88</ele>
        <time>2023-06-12T20:58:36.196Z</time>
      </trkpt>
      <trkpt lat="46.89866" lon="-0.01672">
        <ele>55.74</ele>
        <time>2023-06-12T20:59:18.126Z</time>
      </trkpt>
      <trkpt lat="46.89865" lon="-0.01672">
        <ele>55.72</ele>
        <time>2023-06-12T21:00:00.056Z</time>
      </trkpt>
      <trkpt lat="46.89859" lon="-0.01679">
        <ele>55.66</ele>
        <time>2023-06-12T21:00:41.987Z</time>
      </trkpt>
      <trkpt lat="46.89858" lon="-0.01681">
        <ele>55.65</ele>
        <time>2023-06-12T21:01:23.919Z</time>
      </trkpt>
      <trkpt lat="46.89853" lon="-0.01696">
        <ele>55.59</ele>
        <time>2023-06-12T21:02:05.853Z</time>
      </trkpt>
      <trkpt lat="46.89842" lon="-0.01725">
        <ele>55.52</ele>
        <time>2023-06-12T21:02:47.790Z</time>
      </trkpt>
      <trkpt lat="46.89834" lon="-0.01748">
        <ele>55.5</ele>
        <time>2023-06-12T21:03:29.730Z</time>
      </trkpt>
      <trkpt lat="46.89823" lon="-0.01778">
        <ele>55.33</ele>
        <time>2023-06-12T21:04:11.674Z</time>
      </trkpt>
      <trkpt lat="46.89815" lon="-0.01801">
        <ele>55.31</ele>
        <time>2023-06-12T21:04:53.620Z</time>
      </trkpt>
      <trkpt lat="46.89809" lon="-0.01818">
        <ele>55.24</ele>
        <time>2023-06-12T21:05:35.569Z</time>
      </trkpt>
      <trkpt lat="46.89798" lon="-0.01847">
        <ele>55.25</ele>
        <time>2023-06-12T21:06:17.521Z</time>
      </trkpt>
      <trkpt lat="46.8978" lon="-0.019">
        <ele>55.4</ele>
        <time>2023-06-12T21:06:59.480Z</time>
      </trkpt>
      <trkpt lat="46.89771" lon="-0.01923">
        <ele>55.41</ele>
        <time>2023-06-12T21:07:41.442Z</time>
      </trkpt>
      <trkpt lat="46.89765" lon="-0.0194">
        <ele>55.47</ele>
        <time>2023-06-12T21:08:23.406Z</time>
      </trkpt>
      <trkpt lat="46.89761" lon="-0.01952">
        <ele>55.53</ele>
        <time>2023-06-12T21:09:05.371Z</time>
      </trkpt>
      <trkpt lat="46.89753" lon="-0.01975">
        <ele>55.72</ele>
        <time>2023-06-12T21:09:47.339Z</time>
      </trkpt>
      <trkpt lat="46.89748" lon="-0.01987">
        <ele>55.76</ele>
        <time>2023-06-12T21:10:29.309Z</time>
      </trkpt>
      <trkpt lat="46.89738" lon="-0.02016">
        <ele>55.65</ele>
        <time>2023-06-12T21:11:11.282Z</time>
      </trkpt>
      <trkpt lat="46.89738" lon="-0.02016">
        <ele>55.65</ele>
        <time>2023-06-12T21:11:53.255Z</time>
      </trkpt>
      <trkpt lat="46.8973" lon="-0.0204">
        <ele>55.49</ele>
        <time>2023-06-12T21:12:35.231Z</time>
      </trkpt>
      <trkpt lat="46.89726" lon="-0.02052">
        <ele>55.47</ele>
        <time>2023-06-12T21:13:17.208Z</time>
      </trkpt>
      <trkpt lat="46.89724" lon="-0.02057">
        <ele>55.53</ele>
        <time>2023-06-12T21:13:59.186Z</time>
      </trkpt>
      <trkpt lat="46.89722" lon="-0.02063">
        <ele>55.64</ele>
        <time>2023-06-12T21:14:41.165Z</time>
      </trkpt>
      <trkpt lat="46.89718" lon="-0.02075">
        <ele>55.9</ele>
        <time>2023-06-12T21:15:23.145Z</time>
      </trkpt>
      <trkpt lat="46.89716" lon="-0.02081">
        <ele>56.07</ele>
        <time>2023-06-12T21:16:05.126Z</time>
      </trkpt>
      <trkpt lat="46.89712" lon="-0.02093">
        <ele>56.49</ele>
        <time>2023-06-12T21:16:47.109Z</time>
      </trkpt>
      <trkpt lat="46.8971" lon="-0.02099">
        <ele>56.65</ele>
        <time>2023-06-12T21:17:29.092Z</time>
      </trkpt>
      <trkpt lat="46.89708" lon="-0.02105">
        <ele>56.72</ele>
        <time>2023-06-12T21:18:11.076Z</time>
      </trkpt>
      <trkpt lat="46.89707" lon="-0.02108">
        <ele>56.71</ele>
        <time>2023-06-12T21:18:53.060Z</time>
      </trkpt>
      <trkpt lat="46.89705" lon="-0.0211">
        <ele>56.71</ele>
        <time>2023-06-12T21:19:35.045Z</time>
      </trkpt>
      <trkpt lat="46.89702" lon="-0.02113">
        <ele>56.65</ele>
        <time>2023-06-12T21:20:17.030Z</time>
      </trkpt>
      <trkpt lat="46.89694" lon="-0.02121">
        <ele>56.5</ele>
        <time>2023-06-12T21:20:59.017Z</time>
      </trkpt>
      <trkpt lat="46.89691" lon="-0.02124">
        <ele>56.48</ele>
        <time>2023-06-12T21:21:41.005Z</time>
      </trkpt>
      <trkpt lat="46.89687" lon="-0.02128">
        <ele>56.52</ele>
        <time>2023-06-12T21:22:22.993Z</time>
      </trkpt>
      <trkpt lat="46.89683" lon="-0.02132">
        <ele>56.63</ele>
        <time>2023-06-12T21:23:04.982Z</time>
      </trkpt>
      <trkpt lat="46.89683" lon="-0.02132">
        <ele>56.63</ele>
        <time>2023-06-12T21:23:46.971Z</time>
      </trkpt>
      <trkpt lat="46.89681" lon="-0.02137">
        <ele>56.82</ele>
        <time>2023-06-12T21:24:28.961Z</time>
      </trkpt>
      <trkpt lat="46.89679" lon="-0.02143">
        <ele>57.07</ele>
        <time>2023-06-12T21:25:10.951Z</time>
      </trkpt>
      <trkpt lat="46.89669" lon="-0.02166">
        <ele>58.24</ele>
        <time>2023-06-12T21:25:52.944Z</time>
      </trkpt>
      <trkpt lat="46.89665" lon="-0.02169">
        <ele>58.5</ele>
        <time>2023-06-12T21:26:34.938Z</time>
      </trkpt>
      <trkpt lat="46.89657" lon="-0.02174">
        <ele>59.01</ele>
        <time>2023-06-12T21:27:16.933Z</time>
      </trkpt>
      <trkpt lat="46.89654" lon="-0.02177">
        <ele>59.19</ele>
        <time>2023-06-12T21:27:58.929Z</time>
      </trkpt>
      <trkpt lat="46.89649" lon="-0.0218">
        <ele>59.45</ele>
        <time>2023-06-12T21:28:40.926Z</time>
      </trkpt>
      <trkpt lat="46.89641" lon="-0.02185">
        <ele>59.84</ele>
        <time>2023-06-12T21:29:22.924Z</time>
      </trkpt>
      <trkpt lat="46.89637" lon="-0.02188">
        <ele>60</ele>
        <time>2023-06-12T21:30:04.923Z</time>
      </trkpt>
      <trkpt lat="46.89633" lon="-0.02191">
        <ele>60.13</ele>
        <time>2023-06-12T21:30:46.923Z</time>
      </trkpt>
      <trkpt lat="46.89629" lon="-0.02193">
        <ele>60.22</ele>
        <time>2023-06-12T21:31:28.923Z</time>
      </trkpt>
      <trkpt lat="46.89625" lon="-0.02196">
        <ele>60.27</ele>
        <time>2023-06-12T21:32:10.924Z</time>
      </trkpt>
      <trkpt lat="46.89621" lon="-0.02199">
        <ele>60.29</ele>
        <time>2023-06-12T21:32:52.926Z</time>
      </trkpt>
      <trkpt lat="46.89608" lon="-0.02207">
        <ele>60.22</ele>
        <time>2023-06-12T21:33:34.930Z</time>
      </trkpt>
      <trkpt lat="46.89605" lon="-0.02209">
        <ele>60.22</ele>
        <time>2023-06-12T21:34:16.935Z</time>
      </trkpt>
      <trkpt lat="46.896" lon="-0.02211">
        <ele>60.22</ele>
        <time>2023-06-12T21:34:58.941Z</time>
      </trkpt>
      <trkpt lat="46.89577" lon="-0.02219">
        <ele>60.42</ele>
        <time>2023-06-12T21:35:40.950Z</time>
      </trkpt>
      <trkpt lat="46.89574" lon="-0.0222">
        <ele>60.45</ele>
        <time>2023-06-12T21:36:22.960Z</time>
      </trkpt>
      <trkpt lat="46.8956" lon="-0.02224">
        <ele>60.59</ele>
        <time>2023-06-12T21:37:04.972Z</time>
      </trkpt>
      <trkpt lat="46.89556" lon="-0.02225">
        <ele>60.62</ele>
        <time>2023-06-12T21:37:46.985Z</time>
      </trkpt>
      <trkpt lat="46.89552" lon="-0.02226">
        <ele>60.62</ele>
        <time>2023-06-12T21:38:28.998Z</time>
      </trkpt>
      <trkpt lat="46.89547" lon="-0.02227">
        <ele>60.59</ele>
        <time>2023-06-12T21:39:11.012Z</time>
      </trkpt>
      <trkpt lat="46.89543" lon="-0.02229">
        <ele>60.53</ele>
        <time>2023-06-12T21:39:53.027Z</time>
      </trkpt>
      <trkpt lat="46.89538" lon="-0.0223">
        <ele>60.44</ele>
        <time>2023-06-12T21:40:35.043Z</time>
      </trkpt>
      <trkpt lat="46.89538" lon="-0.0223">
        <ele>60.44</ele>
        <time>2023-06-12T21:41:17.059Z</time>
      </trkpt>
      <trkpt lat="46.89534" lon="-0.02231">
        <ele>60.33</ele>
        <time>2023-06-12T21:41:59.075Z</time>
      </trkpt>
      <trkpt lat="46.89521" lon="-0.02232">
        <ele>59.95</ele>
        <time>2023-06-12T21:42:41.093Z</time>
      </trkpt>
      <trkpt lat="46.8951" lon="-0.02234">
        <ele>59.66</ele>
        <time>2023-06-12T21:43:23.113Z</time>
      </trkpt>
      <trkpt lat="46.89507" lon="-0.02234">
        <ele>59.59</ele>
        <time>2023-06-12T21:44:05.134Z</time>
      </trkpt>
      <trkpt lat="46.89498" lon="-0.02232">
        <ele>59.29</ele>
        <time>2023-06-12T21:44:47.156Z</time>
      </trkpt>
      <trkpt lat="46.89494" lon="-0.02232">
        <ele>59.11</ele>
        <time>2023-06-12T21:45:29.179Z</time>
      </trkpt>
      <trkpt lat="46.89489" lon="-0.02231">
        <ele>58.89</ele>
        <time>2023-06-12T21:46:11.202Z</time>
      </trkpt>
      <trkpt lat="46.89485" lon="-0.02231">
        <ele>58.63</ele>
        <time>2023-06-12T21:46:53.226Z</time>
      </trkpt>
      <trkpt lat="46.89464" lon="-0.02228">
        <ele>57.3</ele>
        <time>2023-06-12T21:47:35.254Z</time>
      </trkpt>
      <trkpt lat="46.89458" lon="-0.02228">
        <ele>56.91</ele>
        <time>2023-06-12T21:48:17.283Z</time>
      </trkpt>
      <trkpt lat="46.89449" lon="-0.02228">
        <ele>57.74</ele>
        <time>2023-06-12T21:48:59.313Z</time>
      </trkpt>
      <trkpt lat="46.89444" lon="-0.02227">
        <ele>58.1</ele>
        <time>2023-06-12T21:49:41.344Z</time>
      </trkpt>
      <trkpt lat="46.8944" lon="-0.02227">
        <ele>58.4</ele>
        <time>2023-06-12T21:50:23.375Z</time>
      </trkpt>
      <trkpt lat="46.89435" lon="-0.02227">
        <ele>58.64</ele>
        <time>2023-06-12T21:51:05.407Z</time>
      </trkpt>
      <trkpt lat="46.89431" lon="-0.02227">
        <ele>58.81</ele>
        <time>2023-06-12T21:51:47.440Z</time>
      </trkpt>
      <trkpt lat="46.89427" lon="-0.02227">
        <ele>58.95</ele>
        <time>2023-06-12T21:52:29.474Z</time>
      </trkpt>
      <trkpt lat="46.89425" lon="-0.02227">
        <ele>58.99</ele>
        <time>2023-06-12T21:53:11.508Z</time>
      </trkpt>
      <trkpt lat="46.89423" lon="-0.0223">
        <ele>59.07</ele>
        <time>2023-06-12T21:53:53.542Z</time>
      </trkpt>
      <trkpt lat="46.89422" lon="-0.02232">
        <ele>59.1</ele>
        <time>2023-06-12T21:54:35.577Z</time>
      </trkpt>
      <trkpt lat="46.89422" lon="-0.02227">
        <ele>59.17</ele>
        <time>2023-06-12T21:55:17.612Z</time>
      </trkpt>
      <trkpt lat="46.89412" lon="-0.02216">
        <ele>59.43</ele>
        <time>2023-06-12T21:55:59.649Z</time>
      </trkpt>
      <trkpt lat="46.89401" lon="-0.02204">
        <ele>59.77</ele>
        <time>2023-06-12T21:56:41.688Z</time>
      </trkpt>
      <trkpt lat="46.89394" lon="-0.02196">
        <ele>59.92</ele>
        <time>2023-06-12T21:57:23.729Z</time>
      </trkpt>
      <trkpt lat="46.89383" lon="-0.02183">
        <ele>60.07</ele>
        <time>2023-06-12T21:58:05.772Z</time>
      </trkpt>
      <trkpt lat="46.8938" lon="-0.02179">
        <ele>60.12</ele>
        <time>2023-06-12T21:58:47.816Z</time>
      </trkpt>
      <trkpt lat="46.89374" lon="-0.0217">
        <ele>60.27</ele>
        <time>2023-06-12T21:59:29.861Z</time>
      </trkpt>
      <trkpt lat="46.89368" lon="-0.0216">
        <ele>60.46</ele>
        <time>2023-06-12T22:00:11.907Z</time>
      </trkpt>
      <trkpt lat="46.89355" lon="-0.02142">
        <ele>60.87</ele>
        <time>2023-06-12T22:00:53.956Z</time>
      </trkpt>
      <trkpt lat="46.89349" lon="-0.02132">
        <ele>61.1</ele>
        <time>2023-06-12T22:01:36.007Z</time>
      </trkpt>
      <trkpt lat="46.89343" lon="-0.02123">
        <ele>61.38</ele>
        <time>2023-06-12T22:02:18.059Z</time>
      </trkpt>
      <trkpt lat="46.89334" lon="-0.0211">
        <ele>61.81</ele>
        <time>2023-06-12T22:03:00.113Z</time>
      </trkpt>
      <trkpt lat="46.89333" lon="-0.02109">
        <ele>61.85</ele>
        <time>2023-06-12T22:03:42.167Z</time>
      </trkpt>
      <trkpt lat="46.89323" lon="-0.02087">
        <ele>62.35</ele>
        <time>2023-06-12T22:04:24.224Z</time>
      </trkpt>
      <trkpt lat="46.8932" lon="-0.02081">
        <ele>62.51</ele>
        <time>2023-06-12T22:05:06.282Z</time>
      </trkpt>
      <trkpt lat="46.89317" lon="-0.0207">
        <ele>62.75</ele>
        <time>2023-06-12T22:05:48.341Z</time>
      </trkpt>
      <trkpt lat="46.89315" lon="-0.02064">
        <ele>62.85</ele>
        <time>2023-06-12T22:06:30.401Z</time>
      </trkpt>
      <trkpt lat="46.89314" lon="-0.02058">
        <ele>62.93</ele>
        <time>2023-06-12T22:07:12.462Z</time>
      </trkpt>
      <trkpt lat="46.89313" lon="-0.02055">
        <ele>62.95</ele>
        <time>2023-06-12T22:07:54.523Z</time>
      </trkpt>
      <trkpt lat="46.89311" lon="-0.02046">
        <ele>63.04</ele>
        <time>2023-06-12T22:08:36.585Z</time>
      </trkpt>
      <trkpt lat="46.8931" lon="-0.02039">
        <ele>63.06</ele>
        <time>2023-06-12T22:09:18.648Z</time>
      </trkpt>
      <trkpt lat="46.89309" lon="-0.02033">
        <ele>63.05</ele>
        <time>2023-06-12T22:10:00.712Z</time>
      </trkpt>
      <trkpt lat="46.89308" lon="-0.02026">
        <ele>63.01</ele>
        <time>2023-06-12T22:10:42.776Z</time>
      </trkpt>
      <trkpt lat="46.89307" lon="-0.0202">
        <ele>62.94</ele>
        <time>2023-06-12T22:11:24.841Z</time>
      </trkpt>
      <trkpt lat="46.89306" lon="-0.02014">
        <ele>62.85</ele>
        <time>2023-06-12T22:12:06.907Z</time>
      </trkpt>
      <trkpt lat="46.89303" lon="-0.02001">
        <ele>62.59</ele>
        <time>2023-06-12T22:12:48.974Z</time>
      </trkpt>
      <trkpt lat="46.89301" lon="-0.01989">
        <ele>62.26</ele>
        <time>2023-06-12T22:13:31.043Z</time>
      </trkpt>
      <trkpt lat="46.89295" lon="-0.01957">
        <ele>61.33</ele>
        <time>2023-06-12T22:14:13.115Z</time>
      </trkpt>
      <trkpt lat="46.89293" lon="-0.01944">
        <ele>60.88</ele>
        <time>2023-06-12T22:14:55.189Z</time>
      </trkpt>
      <trkpt lat="46.89293" lon="-0.01944">
        <ele>60.88</ele>
        <time>2023-06-12T22:15:37.263Z</time>
      </trkpt>
      <trkpt lat="46.8929" lon="-0.01932">
        <ele>60.39</ele>
        <time>2023-06-12T22:16:19.338Z</time>
      </trkpt>
      <trkpt lat="46.89289" lon="-0.01925">
        <ele>60.16</ele>
        <time>2023-06-12T22:17:01.414Z</time>
      </trkpt>
      <trkpt lat="46.89288" lon="-0.01919">
        <ele>59.96</ele>
        <time>2023-06-12T22:17:43.491Z</time>
      </trkpt>
      <trkpt lat="46.89285" lon="-0.01907">
        <ele>59.63</ele>
        <time>2023-06-12T22:18:25.569Z</time>
      </trkpt>
      <trkpt lat="46.89281" lon="-0.01888">
        <ele>59.24</ele>
        <time>2023-06-12T22:19:07.649Z</time>
      </trkpt>
      <trkpt lat="46.89275" lon="-0.01857">
        <ele>58.76</ele>
        <time>2023-06-12T22:19:49.733Z</time>
      </trkpt>
      <trkpt lat="46.89273" lon="-0.01851">
        <ele>58.65</ele>
        <time>2023-06-12T22:20:31.817Z</time>
      </trkpt>
      <trkpt lat="46.89269" lon="-0.01832">
        <ele>58.24</ele>
        <time>2023-06-12T22:21:13.904Z</time>
      </trkpt>
      <trkpt lat="46.89264" lon="-0.01807">
        <ele>57.65</ele>
        <time>2023-06-12T22:21:55.993Z</time>
      </trkpt>
      <trkpt lat="46.89261" lon="-0.01794">
        <ele>57.39</ele>
        <time>2023-06-12T22:22:38.084Z</time>
      </trkpt>
      <trkpt lat="46.89259" lon="-0.01783">
        <ele>57.4</ele>
        <time>2023-06-12T22:23:20.176Z</time>
      </trkpt>
      <trkpt lat="46.89256" lon="-0.01771">
        <ele>57.51</ele>
        <time>2023-06-12T22:24:02.270Z</time>
      </trkpt>
      <trkpt lat="46.89256" lon="-0.01769">
        <ele>57.51</ele>
        <time>2023-06-12T22:24:44.364Z</time>
      </trkpt>
      <trkpt lat="46.89255" lon="-0.01765">
        <ele>57.54</ele>
        <time>2023-06-12T22:25:26.458Z</time>
      </trkpt>
      <trkpt lat="46.8925" lon="-0.01746">
        <ele>57.57</ele>
        <time>2023-06-12T22:26:08.554Z</time>
      </trkpt>
      <trkpt lat="46.89249" lon="-0.0174">
        <ele>57.6</ele>
        <time>2023-06-12T22:26:50.651Z</time>
      </trkpt>
      <trkpt lat="46.89244" lon="-0.01722">
        <ele>57.75</ele>
        <time>2023-06-12T22:27:32.750Z</time>
      </trkpt>
      <trkpt lat="46.89241" lon="-0.0171">
        <ele>57.89</ele>
        <time>2023-06-12T22:28:14.851Z</time>
      </trkpt>
      <trkpt lat="46.89239" lon="-0.01701">
        <ele>58.01</ele>
        <time>2023-06-12T22:28:56.953Z</time>
      </trkpt>
      <trkpt lat="46.89232" lon="-0.01683">
        <ele>58.3</ele>
        <time>2023-06-12T22:29:39.057Z</time>
      </trkpt>
      <trkpt lat="46.89228" lon="-0.01676">
        <ele>58.42</ele>
        <time>2023-06-12T22:30:21.162Z</time>
      </trkpt>
      <trkpt lat="46.89223" lon="-0.01666">
        <ele>58.64</ele>
        <time>2023-06-12T22:31:03.268Z</time>
      </trkpt>
      <trkpt lat="46.89219" lon="-0.01659">
        <ele>58.81</ele>
        <time>2023-06-12T22:31:45.375Z</time>
      </trkpt>
      <trkpt lat="46.89213" lon="-0.01654">
        <ele>59.02</ele>
        <time>2023-06-12T22:32:27.484Z</time>
      </trkpt>
      <trkpt lat="46.89197" lon="-0.01642">
        <ele>59.44</ele>
        <time>2023-06-12T22:33:09.595Z</time>
      </trkpt>
      <trkpt lat="46.89195" lon="-0.01641">
        <ele>59.49</ele>
        <time>2023-06-12T22:33:51.707Z</time>
      </trkpt>
      <trkpt lat="46.89193" lon="-0.0164">
        <ele>59.56</ele>
        <time>2023-06-12T22:34:33.819Z</time>
      </trkpt>
      <trkpt lat="46.8918" lon="-0.01633">
        <ele>60.01</ele>
        <time>2023-06-12T22:35:15.933Z</time>
      </trkpt>
      <trkpt lat="46.89176" lon="-0.01633">
        <ele>60.15</ele>
        <time>2023-06-12T22:35:58.048Z</time>
      </trkpt>
      <trkpt lat="46.89164" lon="-0.01632">
        <ele>60.52</ele>
        <time>2023-06-12T22:36:40.165Z</time>
      </trkpt>
      <trkpt lat="46.89163" lon="-0.01632">
        <ele>60.57</ele>
        <time>2023-06-12T22:37:22.282Z</time>
      </trkpt>
      <trkpt lat="46.89138" lon="-0.01638">
        <ele>61.28</ele>
        <time>2023-06-12T22:38:04.403Z</time>
      </trkpt>
      <trkpt lat="46.89128" lon="-0.01642">
        <ele>61.59</ele>
        <time>2023-06-12T22:38:46.526Z</time>
      </trkpt>
      <trkpt lat="46.89124" lon="-0.01644">
        <ele>61.74</ele>
        <time>2023-06-12T22:39:28.649Z</time>
      </trkpt>
      <trkpt lat="46.89115" lon="-0.01648">
        <ele>62.11</ele>
        <time>2023-06-12T22:40:10.774Z</time>
      </trkpt>
      <trkpt lat="46.89085" lon="-0.0166">
        <ele>63.51</ele>
        <time>2023-06-12T22:40:52.904Z</time>
      </trkpt>
      <trkpt lat="46.89064" lon="-0.01669">
        <ele>64.57</ele>
        <time>2023-06-12T22:41:35.037Z</time>
      </trkpt>
      <trkpt lat="46.89058" lon="-0.01672">
        <ele>64.91</ele>
        <time>2023-06-12T22:42:17.171Z</time>
      </trkpt>
      <trkpt lat="46.89051" lon="-0.01673">
        <ele>65.28</ele>
        <time>2023-06-12T22:42:59.306Z</time>
      </trkpt>
      <trkpt lat="46.89044" lon="-0.01674">
        <ele>65.5</ele>
        <time>2023-06-12T22:43:41.443Z</time>
      </trkpt>
      <trkpt lat="46.89038" lon="-0.01674">
        <ele>65.69</ele>
        <time>2023-06-12T22:44:23.581Z</time>
      </trkpt>
      <trkpt lat="46.8903" lon="-0.01673">
        <ele>65.91</ele>
        <time>2023-06-12T22:45:05.720Z</time>
      </trkpt>
      <trkpt lat="46.89029" lon="-0.01673">
        <ele>65.94</ele>
        <time>2023-06-12T22:45:47.859Z</time>
      </trkpt>
      <trkpt lat="46.89021" lon="-0.01669">
        <ele>66.11</ele>
        <time>2023-06-12T22:46:29.999Z</time>
      </trkpt>
      <trkpt lat="46.89016" lon="-0.01667">
        <ele>66.16</ele>
        <time>2023-06-12T22:47:12.140Z</time>
      </trkpt>
      <trkpt lat="46.89015" lon="-0.01666">
        <ele>66.17</ele>
        <time>2023-06-12T22:47:54.281Z</time>
      </trkpt>
      <trkpt lat="46.89012" lon="-0.01665">
        <ele>66.19</ele>
        <time>2023-06-12T22:48:36.423Z</time>
      </trkpt>
      <trkpt lat="46.89003" lon="-0.01663">
        <ele>66.17</ele>
        <time>2023-06-12T22:49:18.566Z</time>
      </trkpt>
      <trkpt lat="46.88986" lon="-0.01659">
        <ele>65.97</ele>
        <time>2023-06-12T22:50:00.712Z</time>
      </trkpt>
      <trkpt lat="46.88977" lon="-0.01657">
        <ele>65.84</ele>
        <time>2023-06-12T22:50:42.860Z</time>
      </trkpt>
      <trkpt lat="46.88975" lon="-0.01657">
        <ele>65.8</ele>
        <time>2023-06-12T22:51:25.008Z</time>
      </trkpt>
      <trkpt lat="46.8894" lon="-0.0165">
        <ele>65.23</ele>
        <time>2023-06-12T22:52:07.162Z</time>
      </trkpt>
      <trkpt lat="46.88937" lon="-0.01651">
        <ele>65.19</ele>
        <time>2023-06-12T22:52:49.316Z</time>
      </trkpt>
      <trkpt lat="46.88929" lon="-0.01654">
        <ele>65.1</ele>
        <time>2023-06-12T22:53:31.471Z</time>
      </trkpt>
      <trkpt lat="46.8892" lon="-0.01657">
        <ele>65.06</ele>
        <time>2023-06-12T22:54:13.628Z</time>
      </trkpt>
      <trkpt lat="46.88916" lon="-0.01659">
        <ele>65.08</ele>
        <time>2023-06-12T22:54:55.786Z</time>
      </trkpt>
      <trkpt lat="46.88911" lon="-0.0166">
        <ele>65.12</ele>
        <time>2023-06-12T22:55:37.944Z</time>
      </trkpt>
      <trkpt lat="46.88903" lon="-0.01663">
        <ele>65.23</ele>
        <time>2023-06-12T22:56:20.104Z</time>
      </trkpt>
      <trkpt lat="46.8889" lon="-0.01668">
        <ele>65.45</ele>
        <time>2023-06-12T22:57:02.266Z</time>
      </trkpt>
      <trkpt lat="46.88881" lon="-0.01671">
        <ele>65.62</ele>
        <time>2023-06-12T22:57:44.429Z</time>
      </trkpt>
      <trkpt lat="46.88868" lon="-0.01675">
        <ele>65.95</ele>
        <time>2023-06-12T22:58:26.594Z</time>
      </trkpt>
      <trkpt lat="46.88859" lon="-0.01678">
        <ele>66.2</ele>
        <time>2023-06-12T22:59:08.761Z</time>
      </trkpt>
      <trkpt lat="46.88847" lon="-0.01683">
        <ele>66.61</ele>
        <time>2023-06-12T22:59:50.930Z</time>
      </trkpt>
      <trkpt lat="46.88838" lon="-0.01686">
        <ele>66.94</ele>
        <time>2023-06-12T23:00:33.100Z</time>
      </trkpt>
      <trkpt lat="46.88838" lon="-0.01686">
        <ele>66.94</ele>
        <time>2023-06-12T23:01:15.270Z</time>
      </trkpt>
      <trkpt lat="46.8882" lon="-0.01684">
        <ele>67.71</ele>
        <time>2023-06-12T23:01:57.443Z</time>
      </trkpt>
      <trkpt lat="46.88807" lon="-0.01682">
        <ele>68.26</ele>
        <time>2023-06-12T23:02:39.618Z</time>
      </trkpt>
      <trkpt lat="46.88798" lon="-0.01681">
        <ele>68.69</ele>
        <time>2023-06-12T23:03:21.795Z</time>
      </trkpt>
      <trkpt lat="46.88789" lon="-0.0168">
        <ele>69.23</ele>
        <time>2023-06-12T23:04:03.973Z</time>
      </trkpt>
      <trkpt lat="46.8878" lon="-0.01678">
        <ele>69.85</ele>
        <time>2023-06-12T23:04:46.153Z</time>
      </trkpt>
      <trkpt lat="46.88771" lon="-0.01677">
        <ele>70.51</ele>
        <time>2023-06-12T23:05:28.334Z</time>
      </trkpt>
      <trkpt lat="46.88763" lon="-0.01676">
        <ele>71.24</ele>
        <time>2023-06-12T23:06:10.516Z</time>
      </trkpt>
      <trkpt lat="46.88749" lon="-0.01674">
        <ele>72.48</ele>
        <time>2023-06-12T23:06:52.701Z</time>
      </trkpt>
      <trkpt lat="46.88745" lon="-0.01674">
        <ele>72.87</ele>
        <time>2023-06-12T23:07:34.886Z</time>
      </trkpt>
      <trkpt lat="46.8874" lon="-0.01673">
        <ele>73.24</ele>
        <time>2023-06-12T23:08:17.072Z</time>
      </trkpt>
      <trkpt lat="46.88736" lon="-0.01673">
        <ele>73.57</ele>
        <time>2023-06-12T23:08:59.259Z</time>
      </trkpt>
      <trkpt lat="46.88732" lon="-0.01672">
        <ele>73.83</ele>
        <time>2023-06-12T23:09:41.446Z</time>
      </trkpt>
      <trkpt lat="46.88727" lon="-0.01671">
        <ele>74.05</ele>
        <time>2023-06-12T23:10:23.634Z</time>
      </trkpt>
      <trkpt lat="46.88723" lon="-0.01671">
        <ele>74.23</ele>
        <time>2023-06-12T23:11:05.823Z</time>
      </trkpt>
      <trkpt lat="46.88718" lon="-0.0167">
        <ele>70.92</ele>
        <time>2023-06-12T23:11:48.013Z</time>
      </trkpt>
      <trkpt lat="46.88714" lon="-0.0167">
        <ele>71.06</ele>
        <time>2023-06-12T23:12:30.203Z</time>
      </trkpt>
      <trkpt lat="46.88706" lon="-0.01669">
        <ele>71.28</ele>
        <time>2023-06-12T23:13:12.395Z</time>
      </trkpt>
      <trkpt lat="46.88693" lon="-0.01667">
        <ele>71.51</ele>
        <time>2023-06-12T23:13:54.589Z</time>
      </trkpt>
      <trkpt lat="46.88689" lon="-0.01666">
        <ele>71.6</ele>
        <time>2023-06-12T23:14:36.783Z</time>
      </trkpt>
      <trkpt lat="46.88686" lon="-0.01666">
        <ele>71.72</ele>
        <time>2023-06-12T23:15:18.978Z</time>
      </trkpt>
      <trkpt lat="46.88685" lon="-0.01666">
        <ele>71.72</ele>
        <time>2023-06-12T23:16:01.173Z</time>
      </trkpt>
      <trkpt lat="46.88681" lon="-0.01667">
        <ele>71.86</ele>
        <time>2023-06-12T23:16:43.369Z</time>
      </trkpt>
      <trkpt lat="46.88677" lon="-0.01668">
        <ele>72.03</ele>
        <time>2023-06-12T23:17:25.565Z</time>
      </trkpt>
      <trkpt lat="46.8866" lon="-0.0167">
        <ele>72.73</ele>
        <time>2023-06-12T23:18:07.764Z</time>
      </trkpt>
      <trkpt lat="46.88647" lon="-0.01673">
        <ele>72.99</ele>
        <time>2023-06-12T23:18:49.965Z</time>
      </trkpt>
      <trkpt lat="46.88639" lon="-0.01674">
        <ele>73.07</ele>
        <time>2023-06-12T23:19:32.167Z</time>
      </trkpt>
      <trkpt lat="46.88634" lon="-0.01675">
        <ele>73.07</ele>
        <time>2023-06-12T23:20:14.370Z</time>
      </trkpt>
      <trkpt lat="46.88634" lon="-0.01675">
        <ele>73.07</ele>
        <time>2023-06-12T23:20:56.573Z</time>
      </trkpt>
      <trkpt lat="46.8863" lon="-0.01674">
        <ele>73.05</ele>
        <time>2023-06-12T23:21:38.777Z</time>
      </trkpt>
      <trkpt lat="46.88626" lon="-0.01674">
        <ele>73</ele>
        <time>2023-06-12T23:22:20.981Z</time>
      </trkpt>
      <trkpt lat="46.88623" lon="-0.01673">
        <ele>72.95</ele>
        <time>2023-06-12T23:23:03.186Z</time>
      </trkpt>
      <trkpt lat="46.88627" lon="-0.01667">
        <ele>72.86</ele>
        <time>2023-06-12T23:23:45.392Z</time>
      </trkpt>
      <trkpt lat="46.88633" lon="-0.01658">
        <ele>72.68</ele>
        <time>2023-06-12T23:24:27.599Z</time>
      </trkpt>
      <trkpt lat="46.88633" lon="-0.01658">
        <ele>72.68</ele>
        <time>2023-06-12T23:25:09.806Z</time>
      </trkpt>
      <trkpt lat="46.88639" lon="-0.01644">
        <ele>72.48</ele>
        <time>2023-06-12T23:25:52.015Z</time>
      </trkpt>
      <trkpt lat="46.8864" lon="-0.0164">
        <ele>72.53</ele>
        <time>2023-06-12T23:26:34.224Z</time>
      </trkpt>
      <trkpt lat="46.88649" lon="-0.01608">
        <ele>73</ele>
        <time>2023-06-12T23:27:16.437Z</time>
      </trkpt>
      <trkpt lat="46.88652" lon="-0.01596">
        <ele>73.15</ele>
        <time>2023-06-12T23:27:58.652Z</time>
      </trkpt>
      <trkpt lat="46.88653" lon="-0.01592">
        <ele>73.18</ele>
        <time>2023-06-12T23:28:40.867Z</time>
      </trkpt>
      <trkpt lat="46.88647" lon="-0.01589">
        <ele>73.26</ele>
        <time>2023-06-12T23:29:23.083Z</time>
      </trkpt>
      <trkpt lat="46.88626" lon="-0.0158">
        <ele>73.34</ele>
        <time>2023-06-12T23:30:05.303Z</time>
      </trkpt>
      <trkpt lat="46.88617" lon="-0.01576">
        <ele>73.43</ele>
        <time>2023-06-12T23:30:47.524Z</time>
      </trkpt>
      <trkpt lat="46.886" lon="-0.01568">
        <ele>73.71</ele>
        <time>2023-06-12T23:31:29.748Z</time>
      </trkpt>
      <trkpt lat="46.88579" lon="-0.01558">
        <ele>74.13</ele>
        <time>2023-06-12T23:32:11.976Z</time>
      </trkpt>
      <trkpt lat="46.88571" lon="-0.01554">
        <ele>74.35</ele>
        <time>2023-06-12T23:32:54.205Z</time>
      </trkpt>
      <trkpt lat="46.88566" lon="-0.01552">
        <ele>74.48</ele>
        <time>2023-06-12T23:33:36.435Z</time>
      </trkpt>
      <trkpt lat="46.88553" lon="-0.01543">
        <ele>74.87</ele>
        <time>2023-06-12T23:34:18.667Z</time>
      </trkpt>
      <trkpt lat="46.88551" lon="-0.0154">
        <ele>74.95</ele>
        <time>2023-06-12T23:35:00.899Z</time>
      </trkpt>
      <trkpt lat="46.88543" lon="-0.01527">
        <ele>75.34</ele>
        <time>2023-06-12T23:35:43.133Z</time>
      </trkpt>
      <trkpt lat="46.88542" lon="-0.01526">
        <ele>75.38</ele>
        <time>2023-06-12T23:36:25.368Z</time>
      </trkpt>
      <trkpt lat="46.88537" lon="-0.01515">
        <ele>75.7</ele>
        <time>2023-06-12T23:37:07.604Z</time>
      </trkpt>
      <trkpt lat="46.88531" lon="-0.01505">
        <ele>76.08</ele>
        <time>2023-06-12T23:37:49.841Z</time>
      </trkpt>
      <trkpt lat="46.88526" lon="-0.01495">
        <ele>76.51</ele>
        <time>2023-06-12T23:38:32.080Z</time>
      </trkpt>
      <trkpt lat="46.8852" lon="-0.01485">
        <ele>76.96</ele>
        <time>2023-06-12T23:39:14.320Z</time>
      </trkpt>
      <trkpt lat="46.88513" lon="-0.01471">
        <ele>77.24</ele>
        <time>2023-06-12T23:39:56.562Z</time>
      </trkpt>
      <trkpt lat="46.88505" lon="-0.01457">
        <ele>77.6</ele>
        <time>2023-06-12T23:40:38.806Z</time>
      </trkpt>
      <trkpt lat="46.885" lon="-0.01446">
        <ele>78.02</ele>
        <time>2023-06-12T23:41:21.052Z</time>
      </trkpt>
      <trkpt lat="46.88497" lon="-0.01441">
        <ele>78.21</ele>
        <time>2023-06-12T23:42:03.298Z</time>
      </trkpt>
      <trkpt lat="46.88491" lon="-0.01431">
        <ele>78.51</ele>
        <time>2023-06-12T23:42:45.546Z</time>
      </trkpt>
      <trkpt lat="46.88486" lon="-0.01421">
        <ele>78.73</ele>
        <time>2023-06-12T23:43:27.795Z</time>
      </trkpt>
      <trkpt lat="46.88481" lon="-0.01412">
        <ele>78.86</ele>
        <time>2023-06-12T23:44:10.045Z</time>
      </trkpt>
      <trkpt lat="46.88479" lon="-0.01404">
        <ele>78.97</ele>
        <time>2023-06-12T23:44:52.296Z</time>
      </trkpt>
      <trkpt lat="46.88474" lon="-0.01386">
        <ele>79.14</ele>
        <time>2023-06-12T23:45:34.550Z</time>
      </trkpt>
      <trkpt lat="46.88469" lon="-0.01368">
        <ele>79.22</ele>
        <time>2023-06-12T23:46:16.806Z</time>
      </trkpt>
      <trkpt lat="46.88461" lon="-0.01337">
        <ele>79.22</ele>
        <time>2023-06-12T23:46:59.065Z</time>
      </trkpt>
      <trkpt lat="46.88458" lon="-0.01325">
        <ele>79.17</ele>
        <time>2023-06-12T23:47:41.326Z</time>
      </trkpt>
      <trkpt lat="46.88457" lon="-0.01319">
        <ele>79.1</ele>
        <time>2023-06-12T23:48:23.587Z</time>
      </trkpt>
      <trkpt lat="46.88455" lon="-0.01313">
        <ele>79</ele>
        <time>2023-06-12T23:49:05.849Z</time>
      </trkpt>
      <trkpt lat="46.88454" lon="-0.01309">
        <ele>78.9</ele>
        <time>2023-06-12T23:49:48.112Z</time>
      </trkpt>
      <trkpt lat="46.88454" lon="-0.01307">
        <ele>78.85</ele>
        <time>2023-06-12T23:50:30.375Z</time>
      </trkpt>
      <trkpt lat="46.88452" lon="-0.013">
        <ele>78.67</ele>
        <time>2023-06-12T23:51:12.639Z</time>
      </trkpt>
      <trkpt lat="46.88451" lon="-0.01294">
        <ele>78.45</ele>
        <time>2023-06-12T23:51:54.903Z</time>
      </trkpt>
      <trkpt lat="46.88448" lon="-0.01281">
        <ele>77.93</ele>
        <time>2023-06-12T23:52:37.169Z</time>
      </trkpt>
      <trkpt lat="46.88448" lon="-0.01279">
        <ele>77.81</ele>
        <time>2023-06-12T23:53:19.435Z</time>
      </trkpt>
      <trkpt lat="46.88448" lon="-0.01275">
        <ele>77.63</ele>
        <time>2023-06-12T23:54:01.701Z</time>
      </trkpt>
      <trkpt lat="46.88447" lon="-0.01249">
        <ele>76.37</ele>
        <time>2023-06-12T23:54:43.970Z</time>
      </trkpt>
      <trkpt lat="46.88447" lon="-0.01242">
        <ele>76.07</ele>
        <time>2023-06-12T23:55:26.240Z</time>
      </trkpt>
      <trkpt lat="46.88447" lon="-0.01229">
        <ele>75.54</ele>
        <time>2023-06-12T23:56:08.512Z</time>
      </trkpt>
      <trkpt lat="46.88447" lon="-0.01229">
        <ele>75.54</ele>
        <time>2023-06-12T23:56:50.784Z</time>
      </trkpt>
      <trkpt lat="46.88448" lon="-0.01217">
        <ele>75.52</ele>
        <time>2023-06-12T23:57:33.057Z</time>
      </trkpt>
      <trkpt lat="46.88449" lon="-0.01211">
        <ele>75.54</ele>
        <time>2023-06-12T23:58:15.330Z</time>
      </trkpt>
      <trkpt lat="46.88451" lon="-0.01199">
        <ele>75.66</ele>
        <time>2023-06-12T23:58:57.605Z</time>
      </trkpt>
      <trkpt lat="46.88452" lon="-0.01187">
        <ele>75.9</ele>
        <time>2023-06-12T23:59:39.881Z</time>
      </trkpt>
      <trkpt lat="46.88454" lon="-0.01173">
        <ele>76.35</ele>
        <time>2023-06-13T00:00:22.159Z</time>
      </trkpt>
      <trkpt lat="46.88452" lon="-0.01171">
        <ele>76.49</ele>
        <time>2023-06-13T00:01:04.437Z</time>
      </trkpt>
      <trkpt lat="46.8844" lon="-0.01161">
        <ele>78.15</ele>
        <time>2023-06-13T00:01:46.717Z</time>
      </trkpt>
      <trkpt lat="46.88438" lon="-0.0116">
        <ele>78.45</ele>
        <time>2023-06-13T00:02:28.998Z</time>
      </trkpt>
      <trkpt lat="46.88426" lon="-0.01155">
        <ele>78.75</ele>
        <time>2023-06-13T00:03:11.281Z</time>
      </trkpt>
      <trkpt lat="46.88421" lon="-0.01154">
        <ele>78.87</ele>
        <time>2023-06-13T00:03:53.564Z</time>
      </trkpt>
      <trkpt lat="46.88417" lon="-0.01152">
        <ele>79.02</ele>
        <time>2023-06-13T00:04:35.848Z</time>
      </trkpt>
      <trkpt lat="46.88415" lon="-0.01151">
        <ele>79.13</ele>
        <time>2023-06-13T00:05:18.133Z</time>
      </trkpt>
      <trkpt lat="46.88405" lon="-0.01166">
        <ele>79.78</ele>
        <time>2023-06-13T00:06:00.420Z</time>
      </trkpt>
      <trkpt lat="46.88404" lon="-0.01168">
        <ele>79.86</ele>
        <time>2023-06-13T00:06:42.707Z</time>
      </trkpt>
      <trkpt lat="46.88392" lon="-0.01191">
        <ele>80.85</ele>
        <time>2023-06-13T00:07:24.997Z</time>
      </trkpt>
      <trkpt lat="46.88368" lon="-0.01237">
        <ele>81.03</ele>
        <time>2023-06-13T00:08:07.294Z</time>
      </trkpt>
      <trkpt lat="46.88357" lon="-0.01225">
        <ele>81.1</ele>
        <time>2023-06-13T00:08:49.593Z</time>
      </trkpt>
      <trkpt lat="46.88349" lon="-0.01217">
        <ele>80.81</ele>
        <time>2023-06-13T00:09:31.893Z</time>
      </trkpt>
      <trkpt lat="46.88344" lon="-0.01216">
        <ele>80.66</ele>
        <time>2023-06-13T00:10:14.194Z</time>
      </trkpt>
      <trkpt lat="46.88319" lon="-0.01218">
        <ele>79.91</ele>
        <time>2023-06-13T00:10:56.499Z</time>
      </trkpt>
      <trkpt lat="46.8831" lon="-0.0122">
        <ele>79.64</ele>
        <time>2023-06-13T00:11:38.806Z</time>
      </trkpt>
      <trkpt lat="46.88261" lon="-0.01215">
        <ele>78.18</ele>
        <time>2023-06-13T00:12:21.120Z</time>
      </trkpt>
      <trkpt lat="46.88255" lon="-0.01217">
        <ele>78.01</ele>
        <time>2023-06-13T00:13:03.435Z</time>
      </trkpt>
      <trkpt lat="46.88235" lon="-0.01223">
        <ele>80.38</ele>
        <time>2023-06-13T00:13:45.754Z</time>
      </trkpt>
      <trkpt lat="46.88228" lon="-0.01225">
        <ele>81.17</ele>
        <time>2023-06-13T00:14:28.074Z</time>
      </trkpt>
      <trkpt lat="46.88223" lon="-0.01228">
        <ele>81.72</ele>
        <time>2023-06-13T00:15:10.395Z</time>
      </trkpt>
      <trkpt lat="46.88217" lon="-0.01231">
        <ele>82.64</ele>
        <time>2023-06-13T00:15:52.717Z</time>
      </trkpt>
      <trkpt lat="46.88215" lon="-0.0124">
        <ele>83.48</ele>
        <time>2023-06-13T00:16:35.040Z</time>
      </trkpt>
      <trkpt lat="46.8821" lon="-0.0127">
        <ele>86.32</ele>
        <time>2023-06-13T00:17:17.366Z</time>
      </trkpt>
      <trkpt lat="46.88209" lon="-0.01277">
        <ele>86.63</ele>
        <time>2023-06-13T00:17:59.693Z</time>
      </trkpt>
      <trkpt lat="46.88208" lon="-0.01289">
        <ele>87.21</ele>
        <time>2023-06-13T00:18:42.021Z</time>
      </trkpt>
      <trkpt lat="46.88207" lon="-0.01302">
        <ele>87.74</ele>
        <time>2023-06-13T00:19:24.351Z</time>
      </trkpt>
      <trkpt lat="46.88207" lon="-0.01308">
        <ele>87.99</ele>
        <time>2023-06-13T00:20:06.681Z</time>
      </trkpt>
      <trkpt lat="46.88206" lon="-0.01321">
        <ele>88.42</ele>
        <time>2023-06-13T00:20:49.013Z</time>
      </trkpt>
      <trkpt lat="46.88205" lon="-0.01328">
        <ele>88.61</ele>
        <time>2023-06-13T00:21:31.346Z</time>
      </trkpt>
      <trkpt lat="46.88205" lon="-0.01334">
        <ele>88.77</ele>
        <time>2023-06-13T00:22:13.679Z</time>
      </trkpt>
      <trkpt lat="46.88206" lon="-0.01345">
        <ele>88.76</ele>
        <time>2023-06-13T00:22:56.013Z</time>
      </trkpt>
      <trkpt lat="46.88206" lon="-0.0135">
        <ele>88.73</ele>
        <time>2023-06-13T00:23:38.348Z</time>
      </trkpt>
      <trkpt lat="46.88207" lon="-0.01361">
        <ele>88.62</ele>
        <time>2023-06-13T00:24:20.684Z</time>
      </trkpt>
      <trkpt lat="46.88208" lon="-0.01391">
        <ele>87.25</ele>
        <time>2023-06-13T00:25:03.024Z</time>
      </trkpt>
      <trkpt lat="46.88204" lon="-0.01396">
        <ele>86.89</ele>
        <time>2023-06-13T00:25:45.364Z</time>
      </trkpt>
      <trkpt lat="46.88193" lon="-0.01409">
        <ele>85.89</ele>
        <time>2023-06-13T00:26:27.707Z</time>
      </trkpt>
      <trkpt lat="46.88191" lon="-0.01413">
        <ele>85.64</ele>
        <time>2023-06-13T00:27:10.050Z</time>
      </trkpt>
      <trkpt lat="46.88186" lon="-0.01425">
        <ele>84.9</ele>
        <time>2023-06-13T00:27:52.395Z</time>
      </trkpt>
      <trkpt lat="46.88184" lon="-0.01436">
        <ele>84.3</ele>
        <time>2023-06-13T00:28:34.741Z</time>
      </trkpt>
      <trkpt lat="46.88182" lon="-0.01445">
        <ele>83.75</ele>
        <time>2023-06-13T00:29:17.088Z</time>
      </trkpt>
      <trkpt lat="46.88181" lon="-0.01467">
        <ele>82.46</ele>
        <time>2023-06-13T00:29:59.437Z</time>
      </trkpt>
      <trkpt lat="46.88182" lon="-0.01473">
        <ele>82.07</ele>
        <time>2023-06-13T00:30:41.787Z</time>
      </trkpt>
      <trkpt lat="46.88186" lon="-0.01498">
        <ele>80.28</ele>
        <time>2023-06-13T00:31:24.140Z</time>
      </trkpt>
      <trkpt lat="46.8819" lon="-0.01522">
        <ele>78.38</ele>
        <time>2023-06-13T00:32:06.496Z</time>
      </trkpt>
      <trkpt lat="46.88191" lon="-0.01529">
        <ele>77.87</ele>
        <time>2023-06-13T00:32:48.852Z</time>
      </trkpt>
      <trkpt lat="46.88192" lon="-0.01534">
        <ele>77.51</ele>
        <time>2023-06-13T00:33:31.209Z</time>
      </trkpt>
      <trkpt lat="46.88193" lon="-0.01547">
        <ele>76.57</ele>
        <time>2023-06-13T00:34:13.567Z</time>
      </trkpt>
      <trkpt lat="46.88195" lon="-0.01566">
        <ele>75.08</ele>
        <time>2023-06-13T00:34:55.928Z</time>
      </trkpt>
      <trkpt lat="46.88197" lon="-0.01578">
        <ele>74.08</ele>
        <time>2023-06-13T00:35:38.290Z</time>
      </trkpt>
      <trkpt lat="46.88197" lon="-0.01585">
        <ele>73.54</ele>
        <time>2023-06-13T00:36:20.653Z</time>
      </trkpt>
      <trkpt lat="46.882" lon="-0.01623">
        <ele>70.41</ele>
        <time>2023-06-13T00:37:03.020Z</time>
      </trkpt>
      <trkpt lat="46.88201" lon="-0.01629">
        <ele>69.93</ele>
        <time>2023-06-13T00:37:45.388Z</time>
      </trkpt>
      <trkpt lat="46.88201" lon="-0.01632">
        <ele>69.72</ele>
        <time>2023-06-13T00:38:27.756Z</time>
      </trkpt>
      <trkpt lat="46.882" lon="-0.01642">
        <ele>69.05</ele>
        <time>2023-06-13T00:39:10.125Z</time>
      </trkpt>
      <trkpt lat="46.88198" lon="-0.01654">
        <ele>68.3</ele>
        <time>2023-06-13T00:39:52.495Z</time>
      </trkpt>
      <trkpt lat="46.88195" lon="-0.01679">
        <ele>66.73</ele>
        <time>2023-06-13T00:40:34.868Z</time>
      </trkpt>
      <trkpt lat="46.88194" lon="-0.01692">
        <ele>66</ele>
        <time>2023-06-13T00:41:17.243Z</time>
      </trkpt>
      <trkpt lat="46.88193" lon="-0.01698">
        <ele>65.65</ele>
        <time>2023-06-13T00:41:59.618Z</time>
      </trkpt>
      <trkpt lat="46.88192" lon="-0.01704">
        <ele>65.31</ele>
        <time>2023-06-13T00:42:41.994Z</time>
      </trkpt>
      <trkpt lat="46.88189" lon="-0.01729">
        <ele>64.37</ele>
        <time>2023-06-13T00:43:24.373Z</time>
      </trkpt>
      <trkpt lat="46.88184" lon="-0.01758">
        <ele>64.2</ele>
        <time>2023-06-13T00:44:06.755Z</time>
      </trkpt>
      <trkpt lat="46.88184" lon="-0.01758">
        <ele>66.79</ele>
        <time>2023-06-13T00:44:49.137Z</time>
      </trkpt>
      <trkpt lat="46.88184" lon="-0.0176">
        <ele>66.83</ele>
        <time>2023-06-13T00:45:31.519Z</time>
      </trkpt>
      <trkpt lat="46.88177" lon="-0.01763">
        <ele>67.04</ele>
        <time>2023-06-13T00:46:13.902Z</time>
      </trkpt>
      <trkpt lat="46.88177" lon="-0.01763">
        <ele>64.14</ele>
        <time>2023-06-13T00:46:56.285Z</time>
      </trkpt>
      <trkpt lat="46.88167" lon="-0.01767">
        <ele>64.21</ele>
        <time>2023-06-13T00:47:38.670Z</time>
      </trkpt>
      <trkpt lat="46.88167" lon="-0.01767">
        <ele>64.21</ele>
        <time>2023-06-13T00:48:21.055Z</time>
      </trkpt>
      <trkpt lat="46.88162" lon="-0.01741">
        <ele>64.37</ele>
        <time>2023-06-13T00:49:03.443Z</time>
      </trkpt>
      <trkpt lat="46.88159" lon="-0.01727">
        <ele>63.67</ele>
        <time>2023-06-13T00:49:45.833Z</time>
      </trkpt>
      <trkpt lat="46.88162" lon="-0.01743">
        <ele>62.9</ele>
        <time>2023-06-13T00:50:28.224Z</time>
      </trkpt>
      <trkpt lat="46.88165" lon="-0.01755">
        <ele>62.35</ele>
        <time>2023-06-13T00:51:10.617Z</time>
      </trkpt>
      <trkpt lat="46.88166" lon="-0.01761">
        <ele>62.1</ele>
        <time>2023-06-13T00:51:53.010Z</time>
      </trkpt>
      <trkpt lat="46.88167" lon="-0.01767">
        <ele>61.86</ele>
        <time>2023-06-13T00:52:35.404Z</time>
      </trkpt>
      <trkpt lat="46.88166" lon="-0.01779">
        <ele>61.44</ele>
        <time>2023-06-13T00:53:17.799Z</time>
      </trkpt>
      <trkpt lat="46.88165" lon="-0.01794">
        <ele>60.99</ele>
        <time>2023-06-13T00:54:00.196Z</time>
      </trkpt>
      <trkpt lat="46.88164" lon="-0.01797">
        <ele>60.88</ele>
        <time>2023-06-13T00:54:42.594Z</time>
      </trkpt>
      <trkpt lat="46.88154" lon="-0.01826">
        <ele>60.68</ele>
        <time>2023-06-13T00:55:24.995Z</time>
      </trkpt>
      <trkpt lat="46.88151" lon="-0.01833">
        <ele>60.64</ele>
        <time>2023-06-13T00:56:07.397Z</time>
      </trkpt>
      <trkpt lat="46.8815" lon="-0.01834">
        <ele>60.58</ele>
        <time>2023-06-13T00:56:49.799Z</time>
      </trkpt>
      <trkpt lat="46.88138" lon="-0.01862">
        <ele>60.06</ele>
        <time>2023-06-13T00:57:32.205Z</time>
      </trkpt>
      <trkpt lat="46.88132" lon="-0.01876">
        <ele>59.84</ele>
        <time>2023-06-13T00:58:14.613Z</time>
      </trkpt>
      <trkpt lat="46.88131" lon="-0.01879">
        <ele>59.8</ele>
        <time>2023-06-13T00:58:57.021Z</time>
      </trkpt>
      <trkpt lat="46.88123" lon="-0.01895">
        <ele>59.59</ele>
        <time>2023-06-13T00:59:39.431Z</time>
      </trkpt>
      <trkpt lat="46.88111" lon="-0.01922">
        <ele>59.35</ele>
        <time>2023-06-13T01:00:21.845Z</time>
      </trkpt>
      <trkpt lat="46.88103" lon="-0.0194">
        <ele>59.22</ele>
        <time>2023-06-13T01:01:04.261Z</time>
      </trkpt>
      <trkpt lat="46.88097" lon="-0.01953">
        <ele>59.18</ele>
        <time>2023-06-13T01:01:46.679Z</time>
      </trkpt>
      <trkpt lat="46.88094" lon="-0.0196">
        <ele>59.18</ele>
        <time>2023-06-13T01:02:29.098Z</time>
      </trkpt>
      <trkpt lat="46.88085" lon="-0.01981">
        <ele>59.09</ele>
        <time>2023-06-13T01:03:11.519Z</time>
      </trkpt>
      <trkpt lat="46.88076" lon="-0.02">
        <ele>59.06</ele>
        <time>2023-06-13T01:03:53.943Z</time>
      </trkpt>
      <trkpt lat="46.88075" lon="-0.02002">
        <ele>59.06</ele>
        <time>2023-06-13T01:04:36.367Z</time>
      </trkpt>
      <trkpt lat="46.88067" lon="-0.02017">
        <ele>59.06</ele>
        <time>2023-06-13T01:05:18.793Z</time>
      </trkpt>
      <trkpt lat="46.88057" lon="-0.02038">
        <ele>59.1</ele>
        <time>2023-06-13T01:06:01.222Z</time>
      </trkpt>
      <trkpt lat="46.88034" lon="-0.02085">
        <ele>59.05</ele>
        <time>2023-06-13T01:06:43.657Z</time>
      </trkpt>
      <trkpt lat="46.88006" lon="-0.02142">
        <ele>59.09</ele>
        <time>2023-06-13T01:07:26.100Z</time>
      </trkpt>
      <trkpt lat="46.88006" lon="-0.02142">
        <ele>58.41</ele>
        <time>2023-06-13T01:08:08.543Z</time>
      </trkpt>
      <trkpt lat="46.88001" lon="-0.02153">
        <ele>58.46</ele>
        <time>2023-06-13T01:08:50.988Z</time>
      </trkpt>
      <trkpt lat="46.88001" lon="-0.02153">
        <ele>59.08</ele>
        <time>2023-06-13T01:09:33.433Z</time>
      </trkpt>
      <trkpt lat="46.87983" lon="-0.02189">
        <ele>59.05</ele>
        <time>2023-06-13T01:10:15.882Z</time>
      </trkpt>
      <trkpt lat="46.87988" lon="-0.02179">
        <ele>59.05</ele>
        <time>2023-06-13T01:10:58.333Z</time>
      </trkpt>
      <trkpt lat="46.88011" lon="-0.02132">
        <ele>59.1</ele>
        <time>2023-06-13T01:11:40.790Z</time>
      </trkpt>
      <trkpt lat="46.88021" lon="-0.02112">
        <ele>59.06</ele>
        <time>2023-06-13T01:12:23.250Z</time>
      </trkpt>
      <trkpt lat="46.88029" lon="-0.02096">
        <ele>59.06</ele>
        <time>2023-06-13T01:13:05.712Z</time>
      </trkpt>
      <trkpt lat="46.88039" lon="-0.02076">
        <ele>59.09</ele>
        <time>2023-06-13T01:13:48.177Z</time>
      </trkpt>
      <trkpt lat="46.88049" lon="-0.02055">
        <ele>59.18</ele>
        <time>2023-06-13T01:14:30.644Z</time>
      </trkpt>
      <trkpt lat="46.88052" lon="-0.02048">
        <ele>59.18</ele>
        <time>2023-06-13T01:15:13.112Z</time>
      </trkpt>
      <trkpt lat="46.88059" lon="-0.02035">
        <ele>59.22</ele>
        <time>2023-06-13T01:15:55.582Z</time>
      </trkpt>
      <trkpt lat="46.88067" lon="-0.02019">
        <ele>59.35</ele>
        <time>2023-06-13T01:16:38.054Z</time>
      </trkpt>
      <trkpt lat="46.88076" lon="-0.02">
        <ele>59.51</ele>
        <time>2023-06-13T01:17:20.529Z</time>
      </trkpt>
      <trkpt lat="46.8808" lon="-0.01992">
        <ele>59.59</ele>
        <time>2023-06-13T01:18:03.005Z</time>
      </trkpt>
      <trkpt lat="46.88087" lon="-0.01975">
        <ele>59.8</ele>
        <time>2023-06-13T01:18:45.483Z</time>
      </trkpt>
      <trkpt lat="46.88095" lon="-0.01959">
        <ele>60.06</ele>
        <time>2023-06-13T01:19:27.963Z</time>
      </trkpt>
      <trkpt lat="46.88107" lon="-0.01932">
        <ele>60.58</ele>
        <time>2023-06-13T01:20:10.447Z</time>
      </trkpt>
      <trkpt lat="46.88108" lon="-0.0193">
        <ele>60.64</ele>
        <time>2023-06-13T01:20:52.931Z</time>
      </trkpt>
      <trkpt lat="46.88123" lon="-0.01896">
        <ele>60.88</ele>
        <time>2023-06-13T01:21:35.420Z</time>
      </trkpt>
      <trkpt lat="46.8813" lon="-0.01881">
        <ele>61.44</ele>
        <time>2023-06-13T01:22:17.911Z</time>
      </trkpt>
      <trkpt lat="46.88132" lon="-0.01876">
        <ele>61.64</ele>
        <time>2023-06-13T01:23:00.402Z</time>
      </trkpt>
      <trkpt lat="46.88137" lon="-0.01865">
        <ele>62.1</ele>
        <time>2023-06-13T01:23:42.895Z</time>
      </trkpt>
      <trkpt lat="46.88139" lon="-0.0186">
        <ele>62.35</ele>
        <time>2023-06-13T01:24:25.388Z</time>
      </trkpt>
      <trkpt lat="46.88144" lon="-0.01849">
        <ele>62.9</ele>
        <time>2023-06-13T01:25:07.883Z</time>
      </trkpt>
      <trkpt lat="46.88154" lon="-0.01826">
        <ele>64.21</ele>
        <time>2023-06-13T01:25:50.381Z</time>
      </trkpt>
      <trkpt lat="46.88155" lon="-0.01823">
        <ele>64.37</ele>
        <time>2023-06-13T01:26:32.879Z</time>
      </trkpt>
      <trkpt lat="46.88164" lon="-0.01797">
        <ele>64.2</ele>
        <time>2023-06-13T01:27:15.380Z</time>
      </trkpt>
      <trkpt lat="46.88164" lon="-0.01797">
        <ele>66.79</ele>
        <time>2023-06-13T01:27:57.881Z</time>
      </trkpt>
      <trkpt lat="46.88165" lon="-0.01794">
        <ele>66.85</ele>
        <time>2023-06-13T01:28:40.383Z</time>
      </trkpt>
      <trkpt lat="46.88166" lon="-0.01784">
        <ele>67.04</ele>
        <time>2023-06-13T01:29:22.886Z</time>
      </trkpt>
      <trkpt lat="46.88166" lon="-0.01784">
        <ele>64.14</ele>
        <time>2023-06-13T01:30:05.389Z</time>
      </trkpt>
      <trkpt lat="46.88167" lon="-0.01769">
        <ele>64.21</ele>
        <time>2023-06-13T01:30:47.893Z</time>
      </trkpt>
      <trkpt lat="46.88167" lon="-0.01767">
        <ele>64.21</ele>
        <time>2023-06-13T01:31:30.398Z</time>
      </trkpt>
      <trkpt lat="46.88162" lon="-0.01742">
        <ele>64.37</ele>
        <time>2023-06-13T01:32:12.906Z</time>
      </trkpt>
      <trkpt lat="46.88159" lon="-0.01726">
        <ele>63.58</ele>
        <time>2023-06-13T01:32:55.415Z</time>
      </trkpt>
      <trkpt lat="46.88162" lon="-0.0174">
        <ele>62.9</ele>
        <time>2023-06-13T01:33:37.926Z</time>
      </trkpt>
      <trkpt lat="46.88164" lon="-0.01752">
        <ele>62.35</ele>
        <time>2023-06-13T01:34:20.438Z</time>
      </trkpt>
      <trkpt lat="46.88165" lon="-0.01758">
        <ele>62.1</ele>
        <time>2023-06-13T01:35:02.951Z</time>
      </trkpt>
      <trkpt lat="46.88167" lon="-0.01767">
        <ele>61.76</ele>
        <time>2023-06-13T01:35:45.465Z</time>
      </trkpt>
      <trkpt lat="46.88166" lon="-0.01776">
        <ele>61.44</ele>
        <time>2023-06-13T01:36:27.980Z</time>
      </trkpt>
      <trkpt lat="46.88165" lon="-0.01794">
        <ele>60.88</ele>
        <time>2023-06-13T01:37:10.497Z</time>
      </trkpt>
      <trkpt lat="46.88165" lon="-0.01795">
        <ele>60.88</ele>
        <time>2023-06-13T01:37:53.014Z</time>
      </trkpt>
      <trkpt lat="46.88154" lon="-0.01826">
        <ele>60.66</ele>
        <time>2023-06-13T01:38:35.535Z</time>
      </trkpt>
      <trkpt lat="46.88152" lon="-0.0183">
        <ele>60.64</ele>
        <time>2023-06-13T01:39:18.056Z</time>
      </trkpt>
      <trkpt lat="46.88151" lon="-0.01832">
        <ele>60.58</ele>
        <time>2023-06-13T01:40:00.578Z</time>
      </trkpt>
      <trkpt lat="46.88139" lon="-0.0186">
        <ele>60.06</ele>
        <time>2023-06-13T01:40:43.103Z</time>
      </trkpt>
      <trkpt lat="46.88132" lon="-0.01876">
        <ele>59.8</ele>
        <time>2023-06-13T01:41:25.630Z</time>
      </trkpt>
      <trkpt lat="46.88132" lon="-0.01876">
        <ele>59.8</ele>
        <time>2023-06-13T01:42:08.157Z</time>
      </trkpt>
      <trkpt lat="46.88124" lon="-0.01893">
        <ele>59.59</ele>
        <time>2023-06-13T01:42:50.687Z</time>
      </trkpt>
      <trkpt lat="46.88112" lon="-0.0192">
        <ele>59.35</ele>
        <time>2023-06-13T01:43:33.220Z</time>
      </trkpt>
      <trkpt lat="46.88104" lon="-0.01937">
        <ele>59.22</ele>
        <time>2023-06-13T01:44:15.755Z</time>
      </trkpt>
      <trkpt lat="46.88099" lon="-0.0195">
        <ele>59.18</ele>
        <time>2023-06-13T01:44:58.292Z</time>
      </trkpt>
      <trkpt lat="46.88095" lon="-0.01957">
        <ele>59.18</ele>
        <time>2023-06-13T01:45:40.830Z</time>
      </trkpt>
      <trkpt lat="46.88086" lon="-0.01979">
        <ele>59.09</ele>
        <time>2023-06-13T01:46:23.371Z</time>
      </trkpt>
      <trkpt lat="46.88076" lon="-0.02">
        <ele>59.06</ele>
        <time>2023-06-13T01:47:05.915Z</time>
      </trkpt>
      <trkpt lat="46.88076" lon="-0.02">
        <ele>59.06</ele>
        <time>2023-06-13T01:47:48.459Z</time>
      </trkpt>
      <trkpt lat="46.88069" lon="-0.02015">
        <ele>59.06</ele>
        <time>2023-06-13T01:48:31.005Z</time>
      </trkpt>
      <trkpt lat="46.88058" lon="-0.02035">
        <ele>59.1</ele>
        <time>2023-06-13T01:49:13.554Z</time>
      </trkpt>
      <trkpt lat="46.88035" lon="-0.02083">
        <ele>59.05</ele>
        <time>2023-06-13T01:49:56.109Z</time>
      </trkpt>
      <trkpt lat="46.87994" lon="-0.02165">
        <ele>59.12</ele>
        <time>2023-06-13T01:50:38.675Z</time>
      </trkpt>
      <trkpt lat="46.87979" lon="-0.02196">
        <ele>59.09</ele>
        <time>2023-06-13T01:51:21.245Z</time>
      </trkpt>
      <trkpt lat="46.87974" lon="-0.02206">
        <ele>59.1</ele>
        <time>2023-06-13T01:52:03.817Z</time>
      </trkpt>
      <trkpt lat="46.87969" lon="-0.02217">
        <ele>59.15</ele>
        <time>2023-06-13T01:52:46.390Z</time>
      </trkpt>
      <trkpt lat="46.87964" lon="-0.02227">
        <ele>59.23</ele>
        <time>2023-06-13T01:53:28.964Z</time>
      </trkpt>
      <trkpt lat="46.87959" lon="-0.02237">
        <ele>59.35</ele>
        <time>2023-06-13T01:54:11.540Z</time>
      </trkpt>
      <trkpt lat="46.87954" lon="-0.02247">
        <ele>59.5</ele>
        <time>2023-06-13T01:54:54.117Z</time>
      </trkpt>
      <trkpt lat="46.87946" lon="-0.02263">
        <ele>59.77</ele>
        <time>2023-06-13T01:55:36.696Z</time>
      </trkpt>
      <trkpt lat="46.87943" lon="-0.0227">
        <ele>59.88</ele>
        <time>2023-06-13T01:56:19.276Z</time>
      </trkpt>
      <trkpt lat="46.8793" lon="-0.02297">
        <ele>59.97</ele>
        <time>2023-06-13T01:57:01.860Z</time>
      </trkpt>
      <trkpt lat="46.87924" lon="-0.02307">
        <ele>60.06</ele>
        <time>2023-06-13T01:57:44.445Z</time>
      </trkpt>
      <trkpt lat="46.87918" lon="-0.0232">
        <ele>60.22</ele>
        <time>2023-06-13T01:58:27.032Z</time>
      </trkpt>
      <trkpt lat="46.87915" lon="-0.02318">
        <ele>60.27</ele>
        <time>2023-06-13T01:59:09.619Z</time>
      </trkpt>
      <trkpt lat="46.87907" lon="-0.02313">
        <ele>60.47</ele>
        <time>2023-06-13T01:59:52.208Z</time>
      </trkpt>
      <trkpt lat="46.87893" lon="-0.02304">
        <ele>60.86</ele>
        <time>2023-06-13T02:00:34.799Z</time>
      </trkpt>
      <trkpt lat="46.87887" lon="-0.02301">
        <ele>61.03</ele>
        <time>2023-06-13T02:01:17.391Z</time>
      </trkpt>
      <trkpt lat="46.87885" lon="-0.023">
        <ele>61.09</ele>
        <time>2023-06-13T02:01:59.984Z</time>
      </trkpt>
      <trkpt lat="46.87864" lon="-0.02291">
        <ele>61.34</ele>
        <time>2023-06-13T02:02:42.580Z</time>
      </trkpt>
      <trkpt lat="46.87864" lon="-0.02291">
        <ele>61.61</ele>
        <time>2023-06-13T02:03:25.176Z</time>
      </trkpt>
      <trkpt lat="46.87858" lon="-0.02288">
        <ele>61.49</ele>
        <time>2023-06-13T02:04:07.773Z</time>
      </trkpt>
      <trkpt lat="46.87858" lon="-0.02288">
        <ele>61.49</ele>
        <time>2023-06-13T02:04:50.370Z</time>
      </trkpt>
      <trkpt lat="46.87858" lon="-0.02288">
        <ele>61.26</ele>
        <time>2023-06-13T02:05:32.967Z</time>
      </trkpt>
      <trkpt lat="46.87842" lon="-0.02288">
        <ele>61.09</ele>
        <time>2023-06-13T02:06:15.567Z</time>
      </trkpt>
      <trkpt lat="46.87841" lon="-0.02288">
        <ele>61.03</ele>
        <time>2023-06-13T02:06:58.167Z</time>
      </trkpt>
      <trkpt lat="46.87833" lon="-0.02288">
        <ele>61.1</ele>
        <time>2023-06-13T02:07:40.768Z</time>
      </trkpt>
      <trkpt lat="46.87823" lon="-0.02288">
        <ele>61.14</ele>
        <time>2023-06-13T02:08:23.371Z</time>
      </trkpt>
      <trkpt lat="46.87839" lon="-0.02288">
        <ele>61.22</ele>
        <time>2023-06-13T02:09:05.976Z</time>
      </trkpt>
      <trkpt lat="46.87846" lon="-0.02288">
        <ele>61.29</ele>
        <time>2023-06-13T02:09:48.583Z</time>
      </trkpt>
      <trkpt lat="46.87845" lon="-0.02286">
        <ele>61.31</ele>
        <time>2023-06-13T02:10:31.190Z</time>
      </trkpt>
      <trkpt lat="46.87838" lon="-0.02264">
        <ele>61.55</ele>
        <time>2023-06-13T02:11:13.800Z</time>
      </trkpt>
      <trkpt lat="46.87834" lon="-0.02252">
        <ele>61.39</ele>
        <time>2023-06-13T02:11:56.411Z</time>
      </trkpt>
      <trkpt lat="46.87832" lon="-0.02246">
        <ele>61.28</ele>
        <time>2023-06-13T02:12:39.023Z</time>
      </trkpt>
      <trkpt lat="46.87826" lon="-0.02228">
        <ele>60.87</ele>
        <time>2023-06-13T02:13:21.637Z</time>
      </trkpt>
      <trkpt lat="46.87824" lon="-0.02223">
        <ele>60.76</ele>
        <time>2023-06-13T02:14:04.252Z</time>
      </trkpt>
      <trkpt lat="46.87823" lon="-0.02217">
        <ele>60.68</ele>
        <time>2023-06-13T02:14:46.867Z</time>
      </trkpt>
      <trkpt lat="46.8782" lon="-0.02209">
        <ele>60.62</ele>
        <time>2023-06-13T02:15:29.483Z</time>
      </trkpt>
      <trkpt lat="46.87818" lon="-0.02205">
        <ele>60.59</ele>
        <time>2023-06-13T02:16:12.100Z</time>
      </trkpt>
      <trkpt lat="46.87814" lon="-0.02194">
        <ele>60.56</ele>
        <time>2023-06-13T02:16:54.718Z</time>
      </trkpt>
      <trkpt lat="46.8781" lon="-0.02184">
        <ele>60.57</ele>
        <time>2023-06-13T02:17:37.337Z</time>
      </trkpt>
      <trkpt lat="46.87808" lon="-0.02176">
        <ele>60.59</ele>
        <time>2023-06-13T02:18:19.957Z</time>
      </trkpt>
      <trkpt lat="46.878" lon="-0.02146">
        <ele>60.74</ele>
        <time>2023-06-13T02:19:02.581Z</time>
      </trkpt>
      <trkpt lat="46.87793" lon="-0.02122">
        <ele>60.79</ele>
        <time>2023-06-13T02:19:45.208Z</time>
      </trkpt>
      <trkpt lat="46.8779" lon="-0.0211">
        <ele>60.87</ele>
        <time>2023-06-13T02:20:27.836Z</time>
      </trkpt>
      <trkpt lat="46.87785" lon="-0.02092">
        <ele>61.02</ele>
        <time>2023-06-13T02:21:10.466Z</time>
      </trkpt>
      <trkpt lat="46.87783" lon="-0.02083">
        <ele>61.05</ele>
        <time>2023-06-13T02:21:53.097Z</time>
      </trkpt>
      <trkpt lat="46.87782" lon="-0.0208">
        <ele>61.07</ele>
        <time>2023-06-13T02:22:35.729Z</time>
      </trkpt>
      <trkpt lat="46.87774" lon="-0.02063">
        <ele>61.05</ele>
        <time>2023-06-13T02:23:18.363Z</time>
      </trkpt>
      <trkpt lat="46.87763" lon="-0.02038">
        <ele>60.91</ele>
        <time>2023-06-13T02:24:01.000Z</time>
      </trkpt>
      <trkpt lat="46.87762" lon="-0.02036">
        <ele>60.9</ele>
        <time>2023-06-13T02:24:43.637Z</time>
      </trkpt>
      <trkpt lat="46.87749" lon="-0.01995">
        <ele>60.82</ele>
        <time>2023-06-13T02:25:26.279Z</time>
      </trkpt>
      <trkpt lat="46.87742" lon="-0.01972">
        <ele>60.7</ele>
        <time>2023-06-13T02:26:08.924Z</time>
      </trkpt>
      <trkpt lat="46.87742" lon="-0.01971">
        <ele>60.7</ele>
        <time>2023-06-13T02:26:51.569Z</time>
      </trkpt>
      <trkpt lat="46.87734" lon="-0.01955">
        <ele>60.65</ele>
        <time>2023-06-13T02:27:34.216Z</time>
      </trkpt>
      <trkpt lat="46.87729" lon="-0.01944">
        <ele>60.68</ele>
        <time>2023-06-13T02:28:16.865Z</time>
      </trkpt>
      <trkpt lat="46.87727" lon="-0.01939">
        <ele>60.71</ele>
        <time>2023-06-13T02:28:59.515Z</time>
      </trkpt>
      <trkpt lat="46.87722" lon="-0.01928">
        <ele>60.82</ele>
        <time>2023-06-13T02:29:42.166Z</time>
      </trkpt>
      <trkpt lat="46.87717" lon="-0.01917">
        <ele>60.97</ele>
        <time>2023-06-13T02:30:24.818Z</time>
      </trkpt>
      <trkpt lat="46.87714" lon="-0.01912">
        <ele>61.03</ele>
        <time>2023-06-13T02:31:07.471Z</time>
      </trkpt>
      <trkpt lat="46.87712" lon="-0.01907">
        <ele>61.05</ele>
        <time>2023-06-13T02:31:50.125Z</time>
      </trkpt>
      <trkpt lat="46.87704" lon="-0.0189">
        <ele>60.99</ele>
        <time>2023-06-13T02:32:32.781Z</time>
      </trkpt>
      <trkpt lat="46.87699" lon="-0.0188">
        <ele>60.96</ele>
        <time>2023-06-13T02:33:15.438Z</time>
      </trkpt>
      <trkpt lat="46.87687" lon="-0.0186">
        <ele>60.94</ele>
        <time>2023-06-13T02:33:58.098Z</time>
      </trkpt>
      <trkpt lat="46.87679" lon="-0.01845">
        <ele>60.9</ele>
        <time>2023-06-13T02:34:40.760Z</time>
      </trkpt>
      <trkpt lat="46.87669" lon="-0.01824">
        <ele>60.86</ele>
        <time>2023-06-13T02:35:23.425Z</time>
      </trkpt>
      <trkpt lat="46.87656" lon="-0.01797">
        <ele>60.85</ele>
        <time>2023-06-13T02:36:06.094Z</time>
      </trkpt>
      <trkpt lat="46.87654" lon="-0.01793">
        <ele>60.86</ele>
        <time>2023-06-13T02:36:48.763Z</time>
      </trkpt>
      <trkpt lat="46.87644" lon="-0.01778">
        <ele>60.95</ele>
        <time>2023-06-13T02:37:31.435Z</time>
      </trkpt>
      <trkpt lat="46.87628" lon="-0.01756">
        <ele>60.94</ele>
        <time>2023-06-13T02:38:14.110Z</time>
      </trkpt>
      <trkpt lat="46.87627" lon="-0.01755">
        <ele>60.94</ele>
        <time>2023-06-13T02:38:56.785Z</time>
      </trkpt>
      <trkpt lat="46.87622" lon="-0.01746">
        <ele>60.96</ele>
        <time>2023-06-13T02:39:39.462Z</time>
      </trkpt>
      <trkpt lat="46.87617" lon="-0.01735">
        <ele>61.01</ele>
        <time>2023-06-13T02:40:22.140Z</time>
      </trkpt>
      <trkpt lat="46.8761" lon="-0.01719">
        <ele>61.15</ele>
        <time>2023-06-13T02:41:04.820Z</time>
      </trkpt>
      <trkpt lat="46.87597" lon="-0.01693">
        <ele>61.49</ele>
        <time>2023-06-13T02:41:47.504Z</time>
      </trkpt>
      <trkpt lat="46.87588" lon="-0.01675">
        <ele>61.58</ele>
        <time>2023-06-13T02:42:30.190Z</time>
      </trkpt>
      <trkpt lat="46.87584" lon="-0.01666">
        <ele>61.64</ele>
        <time>2023-06-13T02:43:12.877Z</time>
      </trkpt>
      <trkpt lat="46.87579" lon="-0.01655">
        <ele>61.58</ele>
        <time>2023-06-13T02:43:55.566Z</time>
      </trkpt>
      <trkpt lat="46.87576" lon="-0.01649">
        <ele>61.58</ele>
        <time>2023-06-13T02:44:38.255Z</time>
      </trkpt>
      <trkpt lat="46.87566" lon="-0.01628">
        <ele>61.67</ele>
        <time>2023-06-13T02:45:20.947Z</time>
      </trkpt>
      <trkpt lat="46.87566" lon="-0.01628">
        <ele>61.67</ele>
        <time>2023-06-13T02:46:03.639Z</time>
      </trkpt>
      <trkpt lat="46.87565" lon="-0.01622">
        <ele>61.67</ele>
        <time>2023-06-13T02:46:46.332Z</time>
      </trkpt>
      <trkpt lat="46.87563" lon="-0.01614">
        <ele>61.65</ele>
        <time>2023-06-13T02:47:29.026Z</time>
      </trkpt>
      <trkpt lat="46.87555" lon="-0.01592">
        <ele>61.61</ele>
        <time>2023-06-13T02:48:11.723Z</time>
      </trkpt>
      <trkpt lat="46.87554" lon="-0.0159">
        <ele>61.61</ele>
        <time>2023-06-13T02:48:54.420Z</time>
      </trkpt>
      <trkpt lat="46.87551" lon="-0.01573">
        <ele>61.63</ele>
        <time>2023-06-13T02:49:37.119Z</time>
      </trkpt>
      <trkpt lat="46.87549" lon="-0.01561">
        <ele>61.59</ele>
        <time>2023-06-13T02:50:19.819Z</time>
      </trkpt>
      <trkpt lat="46.87544" lon="-0.01529">
        <ele>61.35</ele>
        <time>2023-06-13T02:51:02.523Z</time>
      </trkpt>
      <trkpt lat="46.87541" lon="-0.0151">
        <ele>61.24</ele>
        <time>2023-06-13T02:51:45.229Z</time>
      </trkpt>
      <trkpt lat="46.8754" lon="-0.01506">
        <ele>61.22</ele>
        <time>2023-06-13T02:52:27.935Z</time>
      </trkpt>
      <trkpt lat="46.87544" lon="-0.01498">
        <ele>61.2</ele>
        <time>2023-06-13T02:53:10.642Z</time>
      </trkpt>
      <trkpt lat="46.87546" lon="-0.01493">
        <ele>61.21</ele>
        <time>2023-06-13T02:53:53.350Z</time>
      </trkpt>
      <trkpt lat="46.87554" lon="-0.01477">
        <ele>61.32</ele>
        <time>2023-06-13T02:54:36.060Z</time>
      </trkpt>
      <trkpt lat="46.87559" lon="-0.01466">
        <ele>61.35</ele>
        <time>2023-06-13T02:55:18.772Z</time>
      </trkpt>
      <trkpt lat="46.87564" lon="-0.01455">
        <ele>61.33</ele>
        <time>2023-06-13T02:56:01.485Z</time>
      </trkpt>
      <trkpt lat="46.87574" lon="-0.01434">
        <ele>61.15</ele>
        <time>2023-06-13T02:56:44.201Z</time>
      </trkpt>
      <trkpt lat="46.87577" lon="-0.01428">
        <ele>61.12</ele>
        <time>2023-06-13T02:57:26.918Z</time>
      </trkpt>
      <trkpt lat="46.87582" lon="-0.01418">
        <ele>61.13</ele>
        <time>2023-06-13T02:58:09.636Z</time>
      </trkpt>
      <trkpt lat="46.87587" lon="-0.01407">
        <ele>61.19</ele>
        <time>2023-06-13T02:58:52.356Z</time>
      </trkpt>
      <trkpt lat="46.87595" lon="-0.01401">
        <ele>61.27</ele>
        <time>2023-06-13T02:59:35.077Z</time>
      </trkpt>
      <trkpt lat="46.87603" lon="-0.01395">
        <ele>61.28</ele>
        <time>2023-06-13T03:00:17.800Z</time>
      </trkpt>
      <trkpt lat="46.87609" lon="-0.01391">
        <ele>61.26</ele>
        <time>2023-06-13T03:01:00.524Z</time>
      </trkpt>
      <trkpt lat="46.8761" lon="-0.01388">
        <ele>61.26</ele>
        <time>2023-06-13T03:01:43.248Z</time>
      </trkpt>
      <trkpt lat="46.87613" lon="-0.01378">
        <ele>61.21</ele>
        <time>2023-06-13T03:02:25.973Z</time>
      </trkpt>
      <trkpt lat="46.87613" lon="-0.01369">
        <ele>61.17</ele>
        <time>2023-06-13T03:03:08.699Z</time>
      </trkpt>
      <trkpt lat="46.87613" lon="-0.01348">
        <ele>60.97</ele>
        <time>2023-06-13T03:03:51.427Z</time>
      </trkpt>
      <trkpt lat="46.87617" lon="-0.01331">
        <ele>60.81</ele>
        <time>2023-06-13T03:04:34.157Z</time>
      </trkpt>
      <trkpt lat="46.87621" lon="-0.01319">
        <ele>60.71</ele>
        <time>2023-06-13T03:05:16.889Z</time>
      </trkpt>
      <trkpt lat="46.87622" lon="-0.01312">
        <ele>60.68</ele>
        <time>2023-06-13T03:05:59.622Z</time>
      </trkpt>
      <trkpt lat="46.87623" lon="-0.01309">
        <ele>60.68</ele>
        <time>2023-06-13T03:06:42.355Z</time>
      </trkpt>
      <trkpt lat="46.87624" lon="-0.013">
        <ele>60.68</ele>
        <time>2023-06-13T03:07:25.089Z</time>
      </trkpt>
      <trkpt lat="46.87626" lon="-0.01274">
        <ele>60.76</ele>
        <time>2023-06-13T03:08:07.826Z</time>
      </trkpt>
      <trkpt lat="46.87628" lon="-0.01261">
        <ele>60.76</ele>
        <time>2023-06-13T03:08:50.564Z</time>
      </trkpt>
      <trkpt lat="46.8763" lon="-0.01237">
        <ele>60.67</ele>
        <time>2023-06-13T03:09:33.305Z</time>
      </trkpt>
      <trkpt lat="46.87628" lon="-0.01216">
        <ele>60.6</ele>
        <time>2023-06-13T03:10:16.048Z</time>
      </trkpt>
      <trkpt lat="46.8762" lon="-0.01199">
        <ele>60.54</ele>
        <time>2023-06-13T03:10:58.794Z</time>
      </trkpt>
      <trkpt lat="46.87616" lon="-0.01188">
        <ele>60.57</ele>
        <time>2023-06-13T03:11:41.541Z</time>
      </trkpt>
      <trkpt lat="46.87606" lon="-0.01166">
        <ele>60.68</ele>
        <time>2023-06-13T03:12:24.291Z</time>
      </trkpt>
      <trkpt lat="46.87602" lon="-0.01157">
        <ele>60.68</ele>
        <time>2023-06-13T03:13:07.042Z</time>
      </trkpt>
      <trkpt lat="46.87601" lon="-0.01155">
        <ele>60.68</ele>
        <time>2023-06-13T03:13:49.793Z</time>
      </trkpt>
      <trkpt lat="46.87597" lon="-0.01143">
        <ele>60.61</ele>
        <time>2023-06-13T03:14:32.546Z</time>
      </trkpt>
      <trkpt lat="46.87588" lon="-0.0112">
        <ele>60.38</ele>
        <time>2023-06-13T03:15:15.302Z</time>
      </trkpt>
      <trkpt lat="46.87579" lon="-0.01098">
        <ele>60.25</ele>
        <time>2023-06-13T03:15:58.061Z</time>
      </trkpt>
      <trkpt lat="46.87577" lon="-0.01092">
        <ele>60.2</ele>
        <time>2023-06-13T03:16:40.820Z</time>
      </trkpt>
      <trkpt lat="46.87566" lon="-0.01064">
        <ele>59.88</ele>
        <time>2023-06-13T03:17:23.583Z</time>
      </trkpt>
      <trkpt lat="46.87562" lon="-0.01055">
        <ele>59.88</ele>
        <time>2023-06-13T03:18:06.347Z</time>
      </trkpt>
      <trkpt lat="46.87557" lon="-0.01041">
        <ele>59.83</ele>
        <time>2023-06-13T03:18:49.113Z</time>
      </trkpt>
      <trkpt lat="46.87554" lon="-0.01031">
        <ele>59.8</ele>
        <time>2023-06-13T03:19:31.880Z</time>
      </trkpt>
      <trkpt lat="46.87551" lon="-0.01019">
        <ele>59.79</ele>
        <time>2023-06-13T03:20:14.648Z</time>
      </trkpt>
      <trkpt lat="46.87549" lon="-0.0101">
        <ele>59.79</ele>
        <time>2023-06-13T03:20:57.417Z</time>
      </trkpt>
      <trkpt lat="46.87548" lon="-0.01007">
        <ele>59.8</ele>
        <time>2023-06-13T03:21:40.187Z</time>
      </trkpt>
      <trkpt lat="46.87545" lon="-0.01002">
        <ele>59.81</ele>
        <time>2023-06-13T03:22:22.957Z</time>
      </trkpt>
      <trkpt lat="46.87516" lon="-0.00983">
        <ele>59.95</ele>
        <time>2023-06-13T03:23:05.732Z</time>
      </trkpt>
      <trkpt lat="46.87496" lon="-0.00969">
        <ele>60.09</ele>
        <time>2023-06-13T03:23:48.511Z</time>
      </trkpt>
      <trkpt lat="46.87474" lon="-0.00966">
        <ele>60.24</ele>
        <time>2023-06-13T03:24:31.294Z</time>
      </trkpt>
      <trkpt lat="46.87462" lon="-0.00965">
        <ele>60.29</ele>
        <time>2023-06-13T03:25:14.078Z</time>
      </trkpt>
      <trkpt lat="46.87457" lon="-0.00959">
        <ele>60.33</ele>
        <time>2023-06-13T03:25:56.864Z</time>
      </trkpt>
      <trkpt lat="46.87439" lon="-0.00936">
        <ele>60.33</ele>
        <time>2023-06-13T03:26:39.653Z</time>
      </trkpt>
      <trkpt lat="46.87436" lon="-0.00934">
        <ele>60.34</ele>
        <time>2023-06-13T03:27:22.443Z</time>
      </trkpt>
      <trkpt lat="46.87411" lon="-0.00919">
        <ele>60.45</ele>
        <time>2023-06-13T03:28:05.237Z</time>
      </trkpt>
      <trkpt lat="46.87404" lon="-0.00913">
        <ele>60.49</ele>
        <time>2023-06-13T03:28:48.033Z</time>
      </trkpt>
      <trkpt lat="46.87388" lon="-0.00899">
        <ele>60.52</ele>
        <time>2023-06-13T03:29:30.831Z</time>
      </trkpt>
      <trkpt lat="46.87376" lon="-0.00889">
        <ele>60.56</ele>
        <time>2023-06-13T03:30:13.632Z</time>
      </trkpt>
      <trkpt lat="46.87373" lon="-0.00887">
        <ele>60.58</ele>
        <time>2023-06-13T03:30:56.433Z</time>
      </trkpt>
      <trkpt lat="46.87356" lon="-0.00875">
        <ele>60.58</ele>
        <time>2023-06-13T03:31:39.237Z</time>
      </trkpt>
      <trkpt lat="46.87339" lon="-0.00863">
        <ele>60.7</ele>
        <time>2023-06-13T03:32:22.044Z</time>
      </trkpt>
      <trkpt lat="46.87336" lon="-0.00861">
        <ele>60.72</ele>
        <time>2023-06-13T03:33:04.852Z</time>
      </trkpt>
      <trkpt lat="46.87312" lon="-0.00843">
        <ele>60.73</ele>
        <time>2023-06-13T03:33:47.664Z</time>
      </trkpt>
      <trkpt lat="46.873" lon="-0.00834">
        <ele>60.82</ele>
        <time>2023-06-13T03:34:30.478Z</time>
      </trkpt>
      <trkpt lat="46.87294" lon="-0.00829">
        <ele>60.88</ele>
        <time>2023-06-13T03:35:13.293Z</time>
      </trkpt>
      <trkpt lat="46.87268" lon="-0.00821">
        <ele>61.13</ele>
        <time>2023-06-13T03:35:56.113Z</time>
      </trkpt>
      <trkpt lat="46.87257" lon="-0.00826">
        <ele>61.24</ele>
        <time>2023-06-13T03:36:38.934Z</time>
      </trkpt>
      <trkpt lat="46.87252" lon="-0.00829">
        <ele>61.29</ele>
        <time>2023-06-13T03:37:21.756Z</time>
      </trkpt>
      <trkpt lat="46.87244" lon="-0.00829">
        <ele>61.38</ele>
        <time>2023-06-13T03:38:04.580Z</time>
      </trkpt>
      <trkpt lat="46.87242" lon="-0.00829">
        <ele>61.39</ele>
        <time>2023-06-13T03:38:47.404Z</time>
      </trkpt>
      <trkpt lat="46.87233" lon="-0.00821">
        <ele>61.48</ele>
        <time>2023-06-13T03:39:30.230Z</time>
      </trkpt>
      <trkpt lat="46.87233" lon="-0.0082">
        <ele>61.48</ele>
        <time>2023-06-13T03:40:13.056Z</time>
      </trkpt>
      <trkpt lat="46.8723" lon="-0.00807">
        <ele>61.51</ele>
        <time>2023-06-13T03:40:55.883Z</time>
      </trkpt>
      <trkpt lat="46.87228" lon="-0.00801">
        <ele>61.5</ele>
        <time>2023-06-13T03:41:38.711Z</time>
      </trkpt>
      <trkpt lat="46.87228" lon="-0.008">
        <ele>61.49</ele>
        <time>2023-06-13T03:42:21.539Z</time>
      </trkpt>
      <trkpt lat="46.87222" lon="-0.00791">
        <ele>61.42</ele>
        <time>2023-06-13T03:43:04.368Z</time>
      </trkpt>
      <trkpt lat="46.87218" lon="-0.00789">
        <ele>61.4</ele>
        <time>2023-06-13T03:43:47.198Z</time>
      </trkpt>
      <trkpt lat="46.87216" lon="-0.00787">
        <ele>61.4</ele>
        <time>2023-06-13T03:44:30.029Z</time>
      </trkpt>
      <trkpt lat="46.87211" lon="-0.0079">
        <ele>61.43</ele>
        <time>2023-06-13T03:45:12.860Z</time>
      </trkpt>
      <trkpt lat="46.87202" lon="-0.00795">
        <ele>61.38</ele>
        <time>2023-06-13T03:45:55.693Z</time>
      </trkpt>
      <trkpt lat="46.87192" lon="-0.00816">
        <ele>61.31</ele>
        <time>2023-06-13T03:46:38.529Z</time>
      </trkpt>
      <trkpt lat="46.87188" lon="-0.00826">
        <ele>61.3</ele>
        <time>2023-06-13T03:47:21.366Z</time>
      </trkpt>
      <trkpt lat="46.87185" lon="-0.00832">
        <ele>61.3</ele>
        <time>2023-06-13T03:48:04.204Z</time>
      </trkpt>
      <trkpt lat="46.87178" lon="-0.00839">
        <ele>61.32</ele>
        <time>2023-06-13T03:48:47.043Z</time>
      </trkpt>
      <trkpt lat="46.87166" lon="-0.00849">
        <ele>61.37</ele>
        <time>2023-06-13T03:49:29.884Z</time>
      </trkpt>
      <trkpt lat="46.87164" lon="-0.00851">
        <ele>61.39</ele>
        <time>2023-06-13T03:50:12.726Z</time>
      </trkpt>
      <trkpt lat="46.87159" lon="-0.00878">
        <ele>61.58</ele>
        <time>2023-06-13T03:50:55.571Z</time>
      </trkpt>
      <trkpt lat="46.87154" lon="-0.00903">
        <ele>61.67</ele>
        <time>2023-06-13T03:51:38.419Z</time>
      </trkpt>
      <trkpt lat="46.87151" lon="-0.00922">
        <ele>61.71</ele>
        <time>2023-06-13T03:52:21.269Z</time>
      </trkpt>
      <trkpt lat="46.87148" lon="-0.00936">
        <ele>61.71</ele>
        <time>2023-06-13T03:53:04.120Z</time>
      </trkpt>
      <trkpt lat="46.87147" lon="-0.0094">
        <ele>61.72</ele>
        <time>2023-06-13T03:53:46.972Z</time>
      </trkpt>
      <trkpt lat="46.87142" lon="-0.00952">
        <ele>61.76</ele>
        <time>2023-06-13T03:54:29.825Z</time>
      </trkpt>
      <trkpt lat="46.8714" lon="-0.00963">
        <ele>61.8</ele>
        <time>2023-06-13T03:55:12.680Z</time>
      </trkpt>
      <trkpt lat="46.87135" lon="-0.00988">
        <ele>61.85</ele>
        <time>2023-06-13T03:55:55.538Z</time>
      </trkpt>
      <trkpt lat="46.87135" lon="-0.00991">
        <ele>61.85</ele>
        <time>2023-06-13T03:56:38.396Z</time>
      </trkpt>
      <trkpt lat="46.87131" lon="-0.01">
        <ele>61.85</ele>
        <time>2023-06-13T03:57:21.255Z</time>
      </trkpt>
      <trkpt lat="46.8713" lon="-0.01003">
        <ele>61.83</ele>
        <time>2023-06-13T03:58:04.114Z</time>
      </trkpt>
      <trkpt lat="46.87128" lon="-0.01012">
        <ele>61.8</ele>
        <time>2023-06-13T03:58:46.974Z</time>
      </trkpt>
      <trkpt lat="46.87128" lon="-0.01012">
        <ele>65.9</ele>
        <time>2023-06-13T03:59:29.834Z</time>
      </trkpt>
      <trkpt lat="46.87123" lon="-0.01037">
        <ele>61.36</ele>
        <time>2023-06-13T04:00:12.697Z</time>
      </trkpt>
      <trkpt lat="46.87122" lon="-0.01043">
        <ele>61.28</ele>
        <time>2023-06-13T04:00:55.561Z</time>
      </trkpt>
      <trkpt lat="46.8712" lon="-0.01049">
        <ele>61.23</ele>
        <time>2023-06-13T04:01:38.426Z</time>
      </trkpt>
      <trkpt lat="46.87118" lon="-0.01062">
        <ele>61.19</ele>
        <time>2023-06-13T04:02:21.292Z</time>
      </trkpt>
      <trkpt lat="46.87117" lon="-0.01066">
        <ele>61.18</ele>
        <time>2023-06-13T04:03:04.159Z</time>
      </trkpt>
      <trkpt lat="46.87113" lon="-0.01059">
        <ele>61.18</ele>
        <time>2023-06-13T04:03:47.027Z</time>
      </trkpt>
      <trkpt lat="46.87107" lon="-0.01038">
        <ele>61.18</ele>
        <time>2023-06-13T04:04:29.897Z</time>
      </trkpt>
      <trkpt lat="46.87104" lon="-0.01022">
        <ele>61.18</ele>
        <time>2023-06-13T04:05:12.769Z</time>
      </trkpt>
      <trkpt lat="46.87101" lon="-0.01004">
        <ele>61.25</ele>
        <time>2023-06-13T04:05:55.643Z</time>
      </trkpt>
      <trkpt lat="46.87096" lon="-0.00973">
        <ele>61.4</ele>
        <time>2023-06-13T04:06:38.521Z</time>
      </trkpt>
      <trkpt lat="46.87093" lon="-0.0096">
        <ele>61.44</ele>
        <time>2023-06-13T04:07:21.400Z</time>
      </trkpt>
      <trkpt lat="46.87093" lon="-0.00958">
        <ele>61.44</ele>
        <time>2023-06-13T04:08:04.279Z</time>
      </trkpt>
      <trkpt lat="46.87086" lon="-0.00937">
        <ele>61.46</ele>
        <time>2023-06-13T04:08:47.161Z</time>
      </trkpt>
      <trkpt lat="46.87082" lon="-0.00926">
        <ele>61.51</ele>
        <time>2023-06-13T04:09:30.044Z</time>
      </trkpt>
      <trkpt lat="46.8708" lon="-0.0092">
        <ele>61.56</ele>
        <time>2023-06-13T04:10:12.928Z</time>
      </trkpt>
      <trkpt lat="46.87073" lon="-0.00903">
        <ele>61.77</ele>
        <time>2023-06-13T04:10:55.814Z</time>
      </trkpt>
      <trkpt lat="46.87067" lon="-0.00885">
        <ele>62.05</ele>
        <time>2023-06-13T04:11:38.702Z</time>
      </trkpt>
      <trkpt lat="46.87067" lon="-0.00885">
        <ele>62.05</ele>
        <time>2023-06-13T04:12:21.590Z</time>
      </trkpt>
      <trkpt lat="46.87062" lon="-0.00876">
        <ele>62.29</ele>
        <time>2023-06-13T04:13:04.480Z</time>
      </trkpt>
      <trkpt lat="46.87057" lon="-0.00866">
        <ele>62.58</ele>
        <time>2023-06-13T04:13:47.371Z</time>
      </trkpt>
      <trkpt lat="46.87049" lon="-0.00851">
        <ele>63.64</ele>
        <time>2023-06-13T04:14:30.264Z</time>
      </trkpt>
      <trkpt lat="46.87033" lon="-0.00821">
        <ele>65.77</ele>
        <time>2023-06-13T04:15:13.161Z</time>
      </trkpt>
      <trkpt lat="46.87026" lon="-0.00833">
        <ele>66.66</ele>
        <time>2023-06-13T04:15:56.060Z</time>
      </trkpt>
      <trkpt lat="46.87019" lon="-0.00842">
        <ele>66.58</ele>
        <time>2023-06-13T04:16:38.960Z</time>
      </trkpt>
      <trkpt lat="46.87016" lon="-0.00847">
        <ele>66.56</ele>
        <time>2023-06-13T04:17:21.861Z</time>
      </trkpt>
      <trkpt lat="46.8701" lon="-0.00857">
        <ele>66.57</ele>
        <time>2023-06-13T04:18:04.763Z</time>
      </trkpt>
      <trkpt lat="46.87004" lon="-0.00866">
        <ele>66.65</ele>
        <time>2023-06-13T04:18:47.667Z</time>
      </trkpt>
      <trkpt lat="46.86999" lon="-0.00874">
        <ele>66.77</ele>
        <time>2023-06-13T04:19:30.572Z</time>
      </trkpt>
      <trkpt lat="46.86998" lon="-0.00876">
        <ele>66.8</ele>
        <time>2023-06-13T04:20:13.477Z</time>
      </trkpt>
      <trkpt lat="46.86995" lon="-0.00881">
        <ele>66.82</ele>
        <time>2023-06-13T04:20:56.383Z</time>
      </trkpt>
      <trkpt lat="46.86987" lon="-0.00896">
        <ele>66.72</ele>
        <time>2023-06-13T04:21:39.291Z</time>
      </trkpt>
      <trkpt lat="46.86978" lon="-0.00911">
        <ele>66.76</ele>
        <time>2023-06-13T04:22:22.201Z</time>
      </trkpt>
      <trkpt lat="46.86975" lon="-0.00916">
        <ele>66.73</ele>
        <time>2023-06-13T04:23:05.112Z</time>
      </trkpt>
      <trkpt lat="46.86969" lon="-0.00927">
        <ele>66.63</ele>
        <time>2023-06-13T04:23:48.025Z</time>
      </trkpt>
      <trkpt lat="46.86967" lon="-0.00932">
        <ele>66.63</ele>
        <time>2023-06-13T04:24:30.938Z</time>
      </trkpt>
      <trkpt lat="46.86964" lon="-0.00937">
        <ele>66.67</ele>
        <time>2023-06-13T04:25:13.852Z</time>
      </trkpt>
      <trkpt lat="46.86962" lon="-0.0094">
        <ele>66.71</ele>
        <time>2023-06-13T04:25:56.766Z</time>
      </trkpt>
      <trkpt lat="46.86961" lon="-0.00942">
        <ele>66.74</ele>
        <time>2023-06-13T04:26:39.681Z</time>
      </trkpt>
      <trkpt lat="46.86952" lon="-0.00957">
        <ele>67.01</ele>
        <time>2023-06-13T04:27:22.598Z</time>
      </trkpt>
      <trkpt lat="46.86949" lon="-0.00962">
        <ele>67.06</ele>
        <time>2023-06-13T04:28:05.516Z</time>
      </trkpt>
      <trkpt lat="46.86943" lon="-0.00972">
        <ele>67.09</ele>
        <time>2023-06-13T04:28:48.435Z</time>
      </trkpt>
      <trkpt lat="46.86937" lon="-0.00981">
        <ele>67.07</ele>
        <time>2023-06-13T04:29:31.355Z</time>
      </trkpt>
      <trkpt lat="46.86926" lon="-0.01001">
        <ele>66.93</ele>
        <time>2023-06-13T04:30:14.278Z</time>
      </trkpt>
      <trkpt lat="46.86924" lon="-0.01004">
        <ele>66.92</ele>
        <time>2023-06-13T04:30:57.202Z</time>
      </trkpt>
      <trkpt lat="46.86898" lon="-0.01035">
        <ele>66.84</ele>
        <time>2023-06-13T04:31:40.131Z</time>
      </trkpt>
      <trkpt lat="46.86884" lon="-0.01051">
        <ele>66.72</ele>
        <time>2023-06-13T04:32:23.063Z</time>
      </trkpt>
      <trkpt lat="46.86882" lon="-0.01054">
        <ele>66.71</ele>
        <time>2023-06-13T04:33:05.995Z</time>
      </trkpt>
      <trkpt lat="46.86877" lon="-0.01059">
        <ele>66.7</ele>
        <time>2023-06-13T04:33:48.928Z</time>
      </trkpt>
      <trkpt lat="46.86866" lon="-0.0107">
        <ele>66.79</ele>
        <time>2023-06-13T04:34:31.864Z</time>
      </trkpt>
      <trkpt lat="46.86858" lon="-0.01077">
        <ele>66.82</ele>
        <time>2023-06-13T04:35:14.801Z</time>
      </trkpt>
      <trkpt lat="46.86847" lon="-0.01087">
        <ele>66.88</ele>
        <time>2023-06-13T04:35:57.740Z</time>
      </trkpt>
      <trkpt lat="46.86831" lon="-0.01101">
        <ele>67.04</ele>
        <time>2023-06-13T04:36:40.682Z</time>
      </trkpt>
      <trkpt lat="46.86816" lon="-0.01114">
        <ele>67.1</ele>
        <time>2023-06-13T04:37:23.627Z</time>
      </trkpt>
      <trkpt lat="46.86796" lon="-0.01131">
        <ele>67.34</ele>
        <time>2023-06-13T04:38:06.576Z</time>
      </trkpt>
      <trkpt lat="46.86785" lon="-0.01141">
        <ele>67.37</ele>
        <time>2023-06-13T04:38:49.527Z</time>
      </trkpt>
      <trkpt lat="46.86769" lon="-0.01155">
        <ele>67.51</ele>
        <time>2023-06-13T04:39:32.481Z</time>
      </trkpt>
      <trkpt lat="46.86758" lon="-0.01165">
        <ele>67.5</ele>
        <time>2023-06-13T04:40:15.437Z</time>
      </trkpt>
      <trkpt lat="46.86743" lon="-0.01178">
        <ele>67.54</ele>
        <time>2023-06-13T04:40:58.396Z</time>
      </trkpt>
      <trkpt lat="46.86731" lon="-0.01188">
        <ele>67.51</ele>
        <time>2023-06-13T04:41:41.357Z</time>
      </trkpt>
      <trkpt lat="46.86729" lon="-0.0119">
        <ele>67.51</ele>
        <time>2023-06-13T04:42:24.318Z</time>
      </trkpt>
      <trkpt lat="46.86727" lon="-0.01191">
        <ele>67.52</ele>
        <time>2023-06-13T04:43:07.279Z</time>
      </trkpt>
      <trkpt lat="46.86719" lon="-0.01197">
        <ele>67.6</ele>
        <time>2023-06-13T04:43:50.242Z</time>
      </trkpt>
      <trkpt lat="46.86699" lon="-0.01211">
        <ele>67.95</ele>
        <time>2023-06-13T04:44:33.208Z</time>
      </trkpt>
      <trkpt lat="46.86699" lon="-0.01211">
        <ele>67.95</ele>
        <time>2023-06-13T04:45:16.174Z</time>
      </trkpt>
      <trkpt lat="46.86686" lon="-0.01219">
        <ele>68.1</ele>
        <time>2023-06-13T04:45:59.143Z</time>
      </trkpt>
      <trkpt lat="46.86678" lon="-0.01224">
        <ele>68.16</ele>
        <time>2023-06-13T04:46:42.113Z</time>
      </trkpt>
      <trkpt lat="46.8667" lon="-0.0123">
        <ele>68.15</ele>
        <time>2023-06-13T04:47:25.085Z</time>
      </trkpt>
      <trkpt lat="46.86658" lon="-0.01238">
        <ele>68.03</ele>
        <time>2023-06-13T04:48:08.059Z</time>
      </trkpt>
      <trkpt lat="46.86649" lon="-0.01243">
        <ele>67.98</ele>
        <time>2023-06-13T04:48:51.034Z</time>
      </trkpt>
      <trkpt lat="46.86629" lon="-0.01256">
        <ele>68.03</ele>
        <time>2023-06-13T04:49:34.013Z</time>
      </trkpt>
      <trkpt lat="46.86625" lon="-0.01259">
        <ele>68.02</ele>
        <time>2023-06-13T04:50:16.992Z</time>
      </trkpt>
      <trkpt lat="46.86614" lon="-0.01266">
        <ele>67.94</ele>
        <time>2023-06-13T04:50:59.973Z</time>
      </trkpt>
      <trkpt lat="46.86609" lon="-0.0127">
        <ele>67.91</ele>
        <time>2023-06-13T04:51:42.955Z</time>
      </trkpt>
      <trkpt lat="46.86605" lon="-0.01274">
        <ele>67.92</ele>
        <time>2023-06-13T04:52:25.938Z</time>
      </trkpt>
      <trkpt lat="46.86589" lon="-0.01287">
        <ele>68.02</ele>
        <time>2023-06-13T04:53:08.924Z</time>
      </trkpt>
      <trkpt lat="46.8657" lon="-0.01303">
        <ele>68.03</ele>
        <time>2023-06-13T04:53:51.913Z</time>
      </trkpt>
      <trkpt lat="46.86562" lon="-0.01309">
        <ele>68.01</ele>
        <time>2023-06-13T04:54:34.904Z</time>
      </trkpt>
      <trkpt lat="46.86556" lon="-0.01314">
        <ele>67.95</ele>
        <time>2023-06-13T04:55:17.896Z</time>
      </trkpt>
      <trkpt lat="46.86554" lon="-0.01316">
        <ele>67.93</ele>
        <time>2023-06-13T04:56:00.888Z</time>
      </trkpt>
      <trkpt lat="46.86539" lon="-0.01329">
        <ele>67.7</ele>
        <time>2023-06-13T04:56:43.883Z</time>
      </trkpt>
      <trkpt lat="46.86531" lon="-0.01336">
        <ele>67.62</ele>
        <time>2023-06-13T04:57:26.880Z</time>
      </trkpt>
      <trkpt lat="46.86508" lon="-0.01357">
        <ele>67.55</ele>
        <time>2023-06-13T04:58:09.881Z</time>
      </trkpt>
      <trkpt lat="46.86504" lon="-0.0136">
        <ele>67.52</ele>
        <time>2023-06-13T04:58:52.883Z</time>
      </trkpt>
      <trkpt lat="46.865" lon="-0.01363">
        <ele>67.48</ele>
        <time>2023-06-13T04:59:35.885Z</time>
      </trkpt>
      <trkpt lat="46.86474" lon="-0.01387">
        <ele>67.07</ele>
        <time>2023-06-13T05:00:18.892Z</time>
      </trkpt>
      <trkpt lat="46.8647" lon="-0.01391">
        <ele>67.03</ele>
        <time>2023-06-13T05:01:01.900Z</time>
      </trkpt>
      <trkpt lat="46.86466" lon="-0.01394">
        <ele>67.02</ele>
        <time>2023-06-13T05:01:44.909Z</time>
      </trkpt>
      <trkpt lat="46.86454" lon="-0.01404">
        <ele>67.11</ele>
        <time>2023-06-13T05:02:27.920Z</time>
      </trkpt>
      <trkpt lat="46.86447" lon="-0.01411">
        <ele>67.14</ele>
        <time>2023-06-13T05:03:10.932Z</time>
      </trkpt>
      <trkpt lat="46.86443" lon="-0.01415">
        <ele>67.16</ele>
        <time>2023-06-13T05:03:53.945Z</time>
      </trkpt>
      <trkpt lat="46.86429" lon="-0.01431">
        <ele>67.35</ele>
        <time>2023-06-13T05:04:36.961Z</time>
      </trkpt>
      <trkpt lat="46.86425" lon="-0.01434">
        <ele>67.37</ele>
        <time>2023-06-13T05:05:19.978Z</time>
      </trkpt>
      <trkpt lat="46.8641" lon="-0.0145">
        <ele>67.39</ele>
        <time>2023-06-13T05:06:02.998Z</time>
      </trkpt>
      <trkpt lat="46.86389" lon="-0.01473">
        <ele>67.5</ele>
        <time>2023-06-13T05:06:46.022Z</time>
      </trkpt>
      <trkpt lat="46.86374" lon="-0.01489">
        <ele>67.51</ele>
        <time>2023-06-13T05:07:29.049Z</time>
      </trkpt>
      <trkpt lat="46.8636" lon="-0.01504">
        <ele>67.55</ele>
        <time>2023-06-13T05:08:12.079Z</time>
      </trkpt>
      <trkpt lat="46.86352" lon="-0.01512">
        <ele>67.6</ele>
        <time>2023-06-13T05:08:55.110Z</time>
      </trkpt>
      <trkpt lat="46.86342" lon="-0.01523">
        <ele>67.73</ele>
        <time>2023-06-13T05:09:38.143Z</time>
      </trkpt>
      <trkpt lat="46.86338" lon="-0.01527">
        <ele>67.75</ele>
        <time>2023-06-13T05:10:21.177Z</time>
      </trkpt>
      <trkpt lat="46.86334" lon="-0.0153">
        <ele>67.79</ele>
        <time>2023-06-13T05:11:04.212Z</time>
      </trkpt>
      <trkpt lat="46.8633" lon="-0.01533">
        <ele>67.8</ele>
        <time>2023-06-13T05:11:47.248Z</time>
      </trkpt>
      <trkpt lat="46.86326" lon="-0.01535">
        <ele>67.78</ele>
        <time>2023-06-13T05:12:30.284Z</time>
      </trkpt>
      <trkpt lat="46.86321" lon="-0.01538">
        <ele>67.73</ele>
        <time>2023-06-13T05:13:13.321Z</time>
      </trkpt>
      <trkpt lat="46.86313" lon="-0.01543">
        <ele>67.54</ele>
        <time>2023-06-13T05:13:56.359Z</time>
      </trkpt>
      <trkpt lat="46.86305" lon="-0.01549">
        <ele>67.42</ele>
        <time>2023-06-13T05:14:39.399Z</time>
      </trkpt>
      <trkpt lat="46.86301" lon="-0.01551">
        <ele>67.34</ele>
        <time>2023-06-13T05:15:22.440Z</time>
      </trkpt>
      <trkpt lat="46.86278" lon="-0.01567">
        <ele>66.8</ele>
        <time>2023-06-13T05:16:05.485Z</time>
      </trkpt>
      <trkpt lat="46.86277" lon="-0.01567">
        <ele>66.79</ele>
        <time>2023-06-13T05:16:48.530Z</time>
      </trkpt>
      <trkpt lat="46.86269" lon="-0.01572">
        <ele>66.63</ele>
        <time>2023-06-13T05:17:31.576Z</time>
      </trkpt>
      <trkpt lat="46.86252" lon="-0.01582">
        <ele>66.42</ele>
        <time>2023-06-13T05:18:14.625Z</time>
      </trkpt>
      <trkpt lat="46.86248" lon="-0.01584">
        <ele>66.35</ele>
        <time>2023-06-13T05:18:57.675Z</time>
      </trkpt>
      <trkpt lat="46.86228" lon="-0.01596">
        <ele>65.9</ele>
        <time>2023-06-13T05:19:40.728Z</time>
      </trkpt>
      <trkpt lat="46.86207" lon="-0.01607">
        <ele>65.59</ele>
        <time>2023-06-13T05:20:23.785Z</time>
      </trkpt>
      <trkpt lat="46.86192" lon="-0.01616">
        <ele>65.29</ele>
        <time>2023-06-13T05:21:06.844Z</time>
      </trkpt>
      <trkpt lat="46.8619" lon="-0.01617">
        <ele>65.26</ele>
        <time>2023-06-13T05:21:49.904Z</time>
      </trkpt>
      <trkpt lat="46.86178" lon="-0.01624">
        <ele>65.08</ele>
        <time>2023-06-13T05:22:32.966Z</time>
      </trkpt>
      <trkpt lat="46.86153" lon="-0.01637">
        <ele>64.77</ele>
        <time>2023-06-13T05:23:16.032Z</time>
      </trkpt>
      <trkpt lat="46.86145" lon="-0.01642">
        <ele>64.65</ele>
        <time>2023-06-13T05:23:59.099Z</time>
      </trkpt>
      <trkpt lat="46.86132" lon="-0.01649">
        <ele>64.43</ele>
        <time>2023-06-13T05:24:42.169Z</time>
      </trkpt>
      <trkpt lat="46.86099" lon="-0.01667">
        <ele>65.15</ele>
        <time>2023-06-13T05:25:25.244Z</time>
      </trkpt>
      <trkpt lat="46.86074" lon="-0.01681">
        <ele>65.64</ele>
        <time>2023-06-13T05:26:08.324Z</time>
      </trkpt>
      <trkpt lat="46.86074" lon="-0.01681">
        <ele>65.64</ele>
        <time>2023-06-13T05:26:51.404Z</time>
      </trkpt>
      <trkpt lat="46.86066" lon="-0.01683">
        <ele>65.87</ele>
        <time>2023-06-13T05:27:34.485Z</time>
      </trkpt>
      <trkpt lat="46.86053" lon="-0.01686">
        <ele>66.22</ele>
        <time>2023-06-13T05:28:17.568Z</time>
      </trkpt>
      <trkpt lat="46.86048" lon="-0.01687">
        <ele>66.37</ele>
        <time>2023-06-13T05:29:00.652Z</time>
      </trkpt>
      <trkpt lat="46.86035" lon="-0.0169">
        <ele>66.71</ele>
        <time>2023-06-13T05:29:43.738Z</time>
      </trkpt>
      <trkpt lat="46.86025" lon="-0.01692">
        <ele>66.78</ele>
        <time>2023-06-13T05:30:26.826Z</time>
      </trkpt>
      <trkpt lat="46.86004" lon="-0.01689">
        <ele>66.95</ele>
        <time>2023-06-13T05:31:09.917Z</time>
      </trkpt>
      <trkpt lat="46.85995" lon="-0.01687">
        <ele>67.05</ele>
        <time>2023-06-13T05:31:53.009Z</time>
      </trkpt>
      <trkpt lat="46.85995" lon="-0.01687">
        <ele>67.05</ele>
        <time>2023-06-13T05:32:36.101Z</time>
      </trkpt>
      <trkpt lat="46.85987" lon="-0.01689">
        <ele>67.23</ele>
        <time>2023-06-13T05:33:19.195Z</time>
      </trkpt>
      <trkpt lat="46.85966" lon="-0.01695">
        <ele>67.82</ele>
        <time>2023-06-13T05:34:02.292Z</time>
      </trkpt>
      <trkpt lat="46.85965" lon="-0.01695">
        <ele>67.82</ele>
        <time>2023-06-13T05:34:45.389Z</time>
      </trkpt>
      <trkpt lat="46.85957" lon="-0.01695">
        <ele>67.91</ele>
        <time>2023-06-13T05:35:28.488Z</time>
      </trkpt>
      <trkpt lat="46.85952" lon="-0.01695">
        <ele>67.94</ele>
        <time>2023-06-13T05:36:11.587Z</time>
      </trkpt>
      <trkpt lat="46.85941" lon="-0.01695">
        <ele>67.95</ele>
        <time>2023-06-13T05:36:54.688Z</time>
      </trkpt>
      <trkpt lat="46.85934" lon="-0.01693">
        <ele>67.97</ele>
        <time>2023-06-13T05:37:37.790Z</time>
      </trkpt>
      <trkpt lat="46.85925" lon="-0.01691">
        <ele>68.02</ele>
        <time>2023-06-13T05:38:20.894Z</time>
      </trkpt>
      <trkpt lat="46.85908" lon="-0.01686">
        <ele>68.18</ele>
        <time>2023-06-13T05:39:04.001Z</time>
      </trkpt>
      <trkpt lat="46.85905" lon="-0.01685">
        <ele>68.21</ele>
        <time>2023-06-13T05:39:47.108Z</time>
      </trkpt>
      <trkpt lat="46.85891" lon="-0.01679">
        <ele>68.43</ele>
        <time>2023-06-13T05:40:30.217Z</time>
      </trkpt>
      <trkpt lat="46.85886" lon="-0.01677">
        <ele>68.48</ele>
        <time>2023-06-13T05:41:13.327Z</time>
      </trkpt>
      <trkpt lat="46.85878" lon="-0.01673">
        <ele>68.54</ele>
        <time>2023-06-13T05:41:56.439Z</time>
      </trkpt>
      <trkpt lat="46.85865" lon="-0.01667">
        <ele>68.59</ele>
        <time>2023-06-13T05:42:39.553Z</time>
      </trkpt>
      <trkpt lat="46.85844" lon="-0.01658">
        <ele>68.54</ele>
        <time>2023-06-13T05:43:22.670Z</time>
      </trkpt>
      <trkpt lat="46.85843" lon="-0.01658">
        <ele>68.54</ele>
        <time>2023-06-13T05:44:05.787Z</time>
      </trkpt>
      <trkpt lat="46.85826" lon="-0.01652">
        <ele>68.45</ele>
        <time>2023-06-13T05:44:48.907Z</time>
      </trkpt>
      <trkpt lat="46.85817" lon="-0.0165">
        <ele>68.38</ele>
        <time>2023-06-13T05:45:32.029Z</time>
      </trkpt>
      <trkpt lat="46.85809" lon="-0.01647">
        <ele>68.29</ele>
        <time>2023-06-13T05:46:15.152Z</time>
      </trkpt>
      <trkpt lat="46.85799" lon="-0.01645">
        <ele>68.2</ele>
        <time>2023-06-13T05:46:58.276Z</time>
      </trkpt>
      <trkpt lat="46.85786" lon="-0.01642">
        <ele>68.12</ele>
        <time>2023-06-13T05:47:41.403Z</time>
      </trkpt>
      <trkpt lat="46.85759" lon="-0.01636">
        <ele>68.13</ele>
        <time>2023-06-13T05:48:24.534Z</time>
      </trkpt>
      <trkpt lat="46.85742" lon="-0.01632">
        <ele>68.06</ele>
        <time>2023-06-13T05:49:07.668Z</time>
      </trkpt>
      <trkpt lat="46.85715" lon="-0.01627">
        <ele>68.07</ele>
        <time>2023-06-13T05:49:50.806Z</time>
      </trkpt>
      <trkpt lat="46.85706" lon="-0.01625">
        <ele>68.09</ele>
        <time>2023-06-13T05:50:33.946Z</time>
      </trkpt>
      <trkpt lat="46.85698" lon="-0.01623">
        <ele>68.15</ele>
        <time>2023-06-13T05:51:17.087Z</time>
      </trkpt>
      <trkpt lat="46.85693" lon="-0.01623">
        <ele>68.2</ele>
        <time>2023-06-13T05:52:00.229Z</time>
      </trkpt>
      <trkpt lat="46.85684" lon="-0.01624">
        <ele>68.33</ele>
        <time>2023-06-13T05:52:43.372Z</time>
      </trkpt>
      <trkpt lat="46.85679" lon="-0.01624">
        <ele>68.43</ele>
        <time>2023-06-13T05:53:26.516Z</time>
      </trkpt>
      <trkpt lat="46.85675" lon="-0.01624">
        <ele>68.54</ele>
        <time>2023-06-13T05:54:09.661Z</time>
      </trkpt>
      <trkpt lat="46.85661" lon="-0.01624">
        <ele>68.91</ele>
        <time>2023-06-13T05:54:52.808Z</time>
      </trkpt>
      <trkpt lat="46.85653" lon="-0.01624">
        <ele>68.61</ele>
        <time>2023-06-13T05:55:35.956Z</time>
      </trkpt>
      <trkpt lat="46.85641" lon="-0.01624">
        <ele>68.28</ele>
        <time>2023-06-13T05:56:19.106Z</time>
      </trkpt>
      <trkpt lat="46.8564" lon="-0.01624">
        <ele>68.27</ele>
        <time>2023-06-13T05:57:02.256Z</time>
      </trkpt>
      <trkpt lat="46.85623" lon="-0.01628">
        <ele>68.27</ele>
        <time>2023-06-13T05:57:45.409Z</time>
      </trkpt>
      <trkpt lat="46.85623" lon="-0.01632">
        <ele>68.27</ele>
        <time>2023-06-13T05:58:28.562Z</time>
      </trkpt>
      <trkpt lat="46.85624" lon="-0.01636">
        <ele>68.36</ele>
        <time>2023-06-13T05:59:11.716Z</time>
      </trkpt>
      <trkpt lat="46.85629" lon="-0.01673">
        <ele>68.56</ele>
        <time>2023-06-13T05:59:54.874Z</time>
      </trkpt>
      <trkpt lat="46.85629" lon="-0.01679">
        <ele>68.61</ele>
        <time>2023-06-13T06:00:38.033Z</time>
      </trkpt>
      <trkpt lat="46.85631" lon="-0.01692">
        <ele>68.74</ele>
        <time>2023-06-13T06:01:21.193Z</time>
      </trkpt>
      <trkpt lat="46.85631" lon="-0.01692">
        <ele>68.74</ele>
        <time>2023-06-13T06:02:04.353Z</time>
      </trkpt>
      <trkpt lat="46.85625" lon="-0.01698">
        <ele>68.91</ele>
        <time>2023-06-13T06:02:47.514Z</time>
      </trkpt>
      <trkpt lat="46.85617" lon="-0.01705">
        <ele>69.12</ele>
        <time>2023-06-13T06:03:30.677Z</time>
      </trkpt>
      <trkpt lat="46.85614" lon="-0.01708">
        <ele>69.25</ele>
        <time>2023-06-13T06:04:13.840Z</time>
      </trkpt>
      <trkpt lat="46.85611" lon="-0.01711">
        <ele>69.37</ele>
        <time>2023-06-13T06:04:57.004Z</time>
      </trkpt>
      <trkpt lat="46.85607" lon="-0.01716">
        <ele>69.57</ele>
        <time>2023-06-13T06:05:40.169Z</time>
      </trkpt>
      <trkpt lat="46.856" lon="-0.01723">
        <ele>69.64</ele>
        <time>2023-06-13T06:06:23.335Z</time>
      </trkpt>
      <trkpt lat="46.85598" lon="-0.01726">
        <ele>69.7</ele>
        <time>2023-06-13T06:07:06.502Z</time>
      </trkpt>
      <trkpt lat="46.85597" lon="-0.01727">
        <ele>69.72</ele>
        <time>2023-06-13T06:07:49.669Z</time>
      </trkpt>
      <trkpt lat="46.85595" lon="-0.01731">
        <ele>69.83</ele>
        <time>2023-06-13T06:08:32.836Z</time>
      </trkpt>
      <trkpt lat="46.85587" lon="-0.01744">
        <ele>70.24</ele>
        <time>2023-06-13T06:09:16.005Z</time>
      </trkpt>
      <trkpt lat="46.85586" lon="-0.01751">
        <ele>70.43</ele>
        <time>2023-06-13T06:09:59.175Z</time>
      </trkpt>
      <trkpt lat="46.85584" lon="-0.01759">
        <ele>70.61</ele>
        <time>2023-06-13T06:10:42.346Z</time>
      </trkpt>
      <trkpt lat="46.85585" lon="-0.01769">
        <ele>70.83</ele>
        <time>2023-06-13T06:11:25.518Z</time>
      </trkpt>
      <trkpt lat="46.85586" lon="-0.01779">
        <ele>70.89</ele>
        <time>2023-06-13T06:12:08.691Z</time>
      </trkpt>
      <trkpt lat="46.85587" lon="-0.01792">
        <ele>71.06</ele>
        <time>2023-06-13T06:12:51.865Z</time>
      </trkpt>
      <trkpt lat="46.85588" lon="-0.01798">
        <ele>71.18</ele>
        <time>2023-06-13T06:13:35.040Z</time>
      </trkpt>
      <trkpt lat="46.85588" lon="-0.01805">
        <ele>71.33</ele>
        <time>2023-06-13T06:14:18.216Z</time>
      </trkpt>
      <trkpt lat="46.85589" lon="-0.01811">
        <ele>71.52</ele>
        <time>2023-06-13T06:15:01.393Z</time>
      </trkpt>
      <trkpt lat="46.8559" lon="-0.01824">
        <ele>71.95</ele>
        <time>2023-06-13T06:15:44.571Z</time>
      </trkpt>
      <trkpt lat="46.85591" lon="-0.01834">
        <ele>72.34</ele>
        <time>2023-06-13T06:16:27.750Z</time>
      </trkpt>
      <trkpt lat="46.85591" lon="-0.01837">
        <ele>72.45</ele>
        <time>2023-06-13T06:17:10.929Z</time>
      </trkpt>
      <trkpt lat="46.85591" lon="-0.01843">
        <ele>72.74</ele>
        <time>2023-06-13T06:17:54.109Z</time>
      </trkpt>
      <trkpt lat="46.85591" lon="-0.01859">
        <ele>73.46</ele>
        <time>2023-06-13T06:18:37.291Z</time>
      </trkpt>
      <trkpt lat="46.85593" lon="-0.01869">
        <ele>73.95</ele>
        <time>2023-06-13T06:19:20.474Z</time>
      </trkpt>
      <trkpt lat="46.85596" lon="-0.01888">
        <ele>74.76</ele>
        <time>2023-06-13T06:20:03.659Z</time>
      </trkpt>
      <trkpt lat="46.85599" lon="-0.01907">
        <ele>75.65</ele>
        <time>2023-06-13T06:20:46.846Z</time>
      </trkpt>
      <trkpt lat="46.856" lon="-0.01913">
        <ele>75.9</ele>
        <time>2023-06-13T06:21:30.034Z</time>
      </trkpt>
      <trkpt lat="46.856" lon="-0.0192">
        <ele>76.19</ele>
        <time>2023-06-13T06:22:13.223Z</time>
      </trkpt>
      <trkpt lat="46.856" lon="-0.01926">
        <ele>76.43</ele>
        <time>2023-06-13T06:22:56.413Z</time>
      </trkpt>
      <trkpt lat="46.85599" lon="-0.01939">
        <ele>76.83</ele>
        <time>2023-06-13T06:23:39.604Z</time>
      </trkpt>
      <trkpt lat="46.85598" lon="-0.0197">
        <ele>77.67</ele>
        <time>2023-06-13T06:24:22.798Z</time>
      </trkpt>
      <trkpt lat="46.85598" lon="-0.01972">
        <ele>77.73</ele>
        <time>2023-06-13T06:25:05.993Z</time>
      </trkpt>
      <trkpt lat="46.85595" lon="-0.02004">
        <ele>78.66</ele>
        <time>2023-06-13T06:25:49.191Z</time>
      </trkpt>
      <trkpt lat="46.85594" lon="-0.02011">
        <ele>78.87</ele>
        <time>2023-06-13T06:26:32.390Z</time>
      </trkpt>
      <trkpt lat="46.85594" lon="-0.02015">
        <ele>79.03</ele>
        <time>2023-06-13T06:27:15.589Z</time>
      </trkpt>
      <trkpt lat="46.85594" lon="-0.02017">
        <ele>79.11</ele>
        <time>2023-06-13T06:27:58.789Z</time>
      </trkpt>
      <trkpt lat="46.85588" lon="-0.02042">
        <ele>80.15</ele>
        <time>2023-06-13T06:28:41.991Z</time>
      </trkpt>
      <trkpt lat="46.85581" lon="-0.02072">
        <ele>81.26</ele>
        <time>2023-06-13T06:29:25.197Z</time>
      </trkpt>
      <trkpt lat="46.85575" lon="-0.02095">
        <ele>82.06</ele>
        <time>2023-06-13T06:30:08.406Z</time>
      </trkpt>
      <trkpt lat="46.85538" lon="-0.02115">
        <ele>83.94</ele>
        <time>2023-06-13T06:30:51.621Z</time>
      </trkpt>
      <trkpt lat="46.85531" lon="-0.02117">
        <ele>84.26</ele>
        <time>2023-06-13T06:31:34.837Z</time>
      </trkpt>
      <trkpt lat="46.85531" lon="-0.02117">
        <ele>84.26</ele>
        <time>2023-06-13T06:32:18.053Z</time>
      </trkpt>
      <trkpt lat="46.85523" lon="-0.02117">
        <ele>84.43</ele>
        <time>2023-06-13T06:33:01.270Z</time>
      </trkpt>
      <trkpt lat="46.85518" lon="-0.02116">
        <ele>84.49</ele>
        <time>2023-06-13T06:33:44.488Z</time>
      </trkpt>
      <trkpt lat="46.85514" lon="-0.02116">
        <ele>84.5</ele>
        <time>2023-06-13T06:34:27.707Z</time>
      </trkpt>
      <trkpt lat="46.85509" lon="-0.02116">
        <ele>84.45</ele>
        <time>2023-06-13T06:35:10.927Z</time>
      </trkpt>
      <trkpt lat="46.85506" lon="-0.02116">
        <ele>84.34</ele>
        <time>2023-06-13T06:35:54.147Z</time>
      </trkpt>
      <trkpt lat="46.85505" lon="-0.02116">
        <ele>84.3</ele>
        <time>2023-06-13T06:36:37.367Z</time>
      </trkpt>
      <trkpt lat="46.855" lon="-0.02117">
        <ele>84.07</ele>
        <time>2023-06-13T06:37:20.588Z</time>
      </trkpt>
      <trkpt lat="46.85496" lon="-0.02118">
        <ele>83.8</ele>
        <time>2023-06-13T06:38:03.810Z</time>
      </trkpt>
      <trkpt lat="46.85493" lon="-0.02118">
        <ele>83.6</ele>
        <time>2023-06-13T06:38:47.032Z</time>
      </trkpt>
      <trkpt lat="46.85485" lon="-0.02108">
        <ele>82.86</ele>
        <time>2023-06-13T06:39:30.256Z</time>
      </trkpt>
      <trkpt lat="46.85481" lon="-0.02104">
        <ele>82.57</ele>
        <time>2023-06-13T06:40:13.481Z</time>
      </trkpt>
      <trkpt lat="46.85478" lon="-0.021">
        <ele>82.31</ele>
        <time>2023-06-13T06:40:56.706Z</time>
      </trkpt>
      <trkpt lat="46.85474" lon="-0.02096">
        <ele>82.08</ele>
        <time>2023-06-13T06:41:39.932Z</time>
      </trkpt>
      <trkpt lat="46.85467" lon="-0.02087">
        <ele>81.74</ele>
        <time>2023-06-13T06:42:23.159Z</time>
      </trkpt>
      <trkpt lat="46.85462" lon="-0.02081">
        <ele>81.55</ele>
        <time>2023-06-13T06:43:06.388Z</time>
      </trkpt>
      <trkpt lat="46.85458" lon="-0.02074">
        <ele>81.37</ele>
        <time>2023-06-13T06:43:49.618Z</time>
      </trkpt>
      <trkpt lat="46.85452" lon="-0.02064">
        <ele>81.11</ele>
        <time>2023-06-13T06:44:32.849Z</time>
      </trkpt>
      <trkpt lat="46.85444" lon="-0.02057">
        <ele>80.84</ele>
        <time>2023-06-13T06:45:16.082Z</time>
      </trkpt>
      <trkpt lat="46.85444" lon="-0.02057">
        <ele>80.84</ele>
        <time>2023-06-13T06:45:59.315Z</time>
      </trkpt>
      <trkpt lat="46.85436" lon="-0.0206">
        <ele>80.62</ele>
        <time>2023-06-13T06:46:42.549Z</time>
      </trkpt>
      <trkpt lat="46.85432" lon="-0.02064">
        <ele>80.5</ele>
        <time>2023-06-13T06:47:25.784Z</time>
      </trkpt>
      <trkpt lat="46.85428" lon="-0.02067">
        <ele>80.37</ele>
        <time>2023-06-13T06:48:09.019Z</time>
      </trkpt>
      <trkpt lat="46.85424" lon="-0.02071">
        <ele>80.21</ele>
        <time>2023-06-13T06:48:52.255Z</time>
      </trkpt>
      <trkpt lat="46.85416" lon="-0.02077">
        <ele>79.83</ele>
        <time>2023-06-13T06:49:35.493Z</time>
      </trkpt>
      <trkpt lat="46.85405" lon="-0.02088">
        <ele>79.19</ele>
        <time>2023-06-13T06:50:18.733Z</time>
      </trkpt>
      <trkpt lat="46.85401" lon="-0.02091">
        <ele>78.99</ele>
        <time>2023-06-13T06:51:01.973Z</time>
      </trkpt>
      <trkpt lat="46.85397" lon="-0.02094">
        <ele>78.85</ele>
        <time>2023-06-13T06:51:45.214Z</time>
      </trkpt>
      <trkpt lat="46.85393" lon="-0.02098">
        <ele>78.79</ele>
        <time>2023-06-13T06:52:28.456Z</time>
      </trkpt>
      <trkpt lat="46.85392" lon="-0.02099">
        <ele>78.78</ele>
        <time>2023-06-13T06:53:11.698Z</time>
      </trkpt>
      <trkpt lat="46.85385" lon="-0.02104">
        <ele>78.73</ele>
        <time>2023-06-13T06:53:54.941Z</time>
      </trkpt>
      <trkpt lat="46.85374" lon="-0.02114">
        <ele>78.59</ele>
        <time>2023-06-13T06:54:38.186Z</time>
      </trkpt>
      <trkpt lat="46.85361" lon="-0.02124">
        <ele>78.46</ele>
        <time>2023-06-13T06:55:21.434Z</time>
      </trkpt>
      <trkpt lat="46.85358" lon="-0.02126">
        <ele>78.44</ele>
        <time>2023-06-13T06:56:04.682Z</time>
      </trkpt>
      <trkpt lat="46.85349" lon="-0.02131">
        <ele>78.43</ele>
        <time>2023-06-13T06:56:47.932Z</time>
      </trkpt>
      <trkpt lat="46.85345" lon="-0.02133">
        <ele>78.46</ele>
        <time>2023-06-13T06:57:31.182Z</time>
      </trkpt>
      <trkpt lat="46.85338" lon="-0.02137">
        <ele>78.57</ele>
        <time>2023-06-13T06:58:14.434Z</time>
      </trkpt>
      <trkpt lat="46.85337" lon="-0.02138">
        <ele>78.59</ele>
        <time>2023-06-13T06:58:57.686Z</time>
      </trkpt>
      <trkpt lat="46.85327" lon="-0.02151">
        <ele>78.41</ele>
        <time>2023-06-13T06:59:40.940Z</time>
      </trkpt>
      <trkpt lat="46.85317" lon="-0.02164">
        <ele>78.3</ele>
        <time>2023-06-13T07:00:24.196Z</time>
      </trkpt>
      <trkpt lat="46.85308" lon="-0.02176">
        <ele>78.27</ele>
        <time>2023-06-13T07:01:07.454Z</time>
      </trkpt>
      <trkpt lat="46.85297" lon="-0.02192">
        <ele>78.25</ele>
        <time>2023-06-13T07:01:50.715Z</time>
      </trkpt>
      <trkpt lat="46.85282" lon="-0.02215">
        <ele>78.06</ele>
        <time>2023-06-13T07:02:33.979Z</time>
      </trkpt>
      <trkpt lat="46.85269" lon="-0.02234">
        <ele>78.05</ele>
        <time>2023-06-13T07:03:17.246Z</time>
      </trkpt>
      <trkpt lat="46.85266" lon="-0.02239">
        <ele>78.03</ele>
        <time>2023-06-13T07:04:00.514Z</time>
      </trkpt>
      <trkpt lat="46.85253" lon="-0.02258">
        <ele>77.87</ele>
        <time>2023-06-13T07:04:43.785Z</time>
      </trkpt>
      <trkpt lat="46.8525" lon="-0.02262">
        <ele>77.86</ele>
        <time>2023-06-13T07:05:27.056Z</time>
      </trkpt>
      <trkpt lat="46.85241" lon="-0.02276">
        <ele>77.9</ele>
        <time>2023-06-13T07:06:10.330Z</time>
      </trkpt>
      <trkpt lat="46.85235" lon="-0.02286">
        <ele>77.85</ele>
        <time>2023-06-13T07:06:53.605Z</time>
      </trkpt>
      <trkpt lat="46.85227" lon="-0.02297">
        <ele>77.69</ele>
        <time>2023-06-13T07:07:36.882Z</time>
      </trkpt>
      <trkpt lat="46.85221" lon="-0.02303">
        <ele>77.59</ele>
        <time>2023-06-13T07:08:20.160Z</time>
      </trkpt>
      <trkpt lat="46.8521" lon="-0.02315">
        <ele>77.46</ele>
        <time>2023-06-13T07:09:03.440Z</time>
      </trkpt>
      <trkpt lat="46.85207" lon="-0.02319">
        <ele>77.38</ele>
        <time>2023-06-13T07:09:46.721Z</time>
      </trkpt>
      <trkpt lat="46.85205" lon="-0.02321">
        <ele>77.31</ele>
        <time>2023-06-13T07:10:30.002Z</time>
      </trkpt>
      <trkpt lat="46.85203" lon="-0.02322">
        <ele>77.25</ele>
        <time>2023-06-13T07:11:13.283Z</time>
      </trkpt>
      <trkpt lat="46.85191" lon="-0.0233">
        <ele>76.81</ele>
        <time>2023-06-13T07:11:56.567Z</time>
      </trkpt>
      <trkpt lat="46.85187" lon="-0.02333">
        <ele>76.71</ele>
        <time>2023-06-13T07:12:39.851Z</time>
      </trkpt>
      <trkpt lat="46.85182" lon="-0.02336">
        <ele>76.66</ele>
        <time>2023-06-13T07:13:23.136Z</time>
      </trkpt>
      <trkpt lat="46.85179" lon="-0.02338">
        <ele>76.64</ele>
        <time>2023-06-13T07:14:06.422Z</time>
      </trkpt>
      <trkpt lat="46.85178" lon="-0.02338">
        <ele>76.64</ele>
        <time>2023-06-13T07:14:49.708Z</time>
      </trkpt>
      <trkpt lat="46.85161" lon="-0.02344">
        <ele>76.65</ele>
        <time>2023-06-13T07:15:32.997Z</time>
      </trkpt>
      <trkpt lat="46.85143" lon="-0.02349">
        <ele>76.71</ele>
        <time>2023-06-13T07:16:16.289Z</time>
      </trkpt>
      <trkpt lat="46.85139" lon="-0.02351">
        <ele>76.73</ele>
        <time>2023-06-13T07:16:59.581Z</time>
      </trkpt>
      <trkpt lat="46.85128" lon="-0.02354">
        <ele>76.83</ele>
        <time>2023-06-13T07:17:42.875Z</time>
      </trkpt>
      <trkpt lat="46.85126" lon="-0.02354">
        <ele>76.86</ele>
        <time>2023-06-13T07:18:26.169Z</time>
      </trkpt>
      <trkpt lat="46.85121" lon="-0.02355">
        <ele>76.87</ele>
        <time>2023-06-13T07:19:09.464Z</time>
      </trkpt>
      <trkpt lat="46.85109" lon="-0.02357">
        <ele>76.83</ele>
        <time>2023-06-13T07:19:52.761Z</time>
      </trkpt>
      <trkpt lat="46.85103" lon="-0.02357">
        <ele>76.82</ele>
        <time>2023-06-13T07:20:36.059Z</time>
      </trkpt>
      <trkpt lat="46.8509" lon="-0.02358">
        <ele>76.85</ele>
        <time>2023-06-13T07:21:19.359Z</time>
      </trkpt>
      <trkpt lat="46.85076" lon="-0.02358">
        <ele>76.92</ele>
        <time>2023-06-13T07:22:02.661Z</time>
      </trkpt>
      <trkpt lat="46.85058" lon="-0.02359">
        <ele>77.07</ele>
        <time>2023-06-13T07:22:45.966Z</time>
      </trkpt>
      <trkpt lat="46.85045" lon="-0.02359">
        <ele>77.14</ele>
        <time>2023-06-13T07:23:29.273Z</time>
      </trkpt>
      <trkpt lat="46.8504" lon="-0.02359">
        <ele>77.18</ele>
        <time>2023-06-13T07:24:12.581Z</time>
      </trkpt>
      <trkpt lat="46.85036" lon="-0.02359">
        <ele>77.26</ele>
        <time>2023-06-13T07:24:55.890Z</time>
      </trkpt>
      <trkpt lat="46.85022" lon="-0.0236">
        <ele>77.58</ele>
        <time>2023-06-13T07:25:39.201Z</time>
      </trkpt>
      <trkpt lat="46.85004" lon="-0.02361">
        <ele>77.82</ele>
        <time>2023-06-13T07:26:22.515Z</time>
      </trkpt>
      <trkpt lat="46.85" lon="-0.02361">
        <ele>77.91</ele>
        <time>2023-06-13T07:27:05.830Z</time>
      </trkpt>
      <trkpt lat="46.84995" lon="-0.02361">
        <ele>78.03</ele>
        <time>2023-06-13T07:27:49.145Z</time>
      </trkpt>
      <trkpt lat="46.84992" lon="-0.02361">
        <ele>78.13</ele>
        <time>2023-06-13T07:28:32.461Z</time>
      </trkpt>
      <trkpt lat="46.84986" lon="-0.0236">
        <ele>78.31</ele>
        <time>2023-06-13T07:29:15.778Z</time>
      </trkpt>
      <trkpt lat="46.84982" lon="-0.02358">
        <ele>78.42</ele>
        <time>2023-06-13T07:29:59.095Z</time>
      </trkpt>
      <trkpt lat="46.8498" lon="-0.02358">
        <ele>78.44</ele>
        <time>2023-06-13T07:30:42.413Z</time>
      </trkpt>
      <trkpt lat="46.84978" lon="-0.02357">
        <ele>78.48</ele>
        <time>2023-06-13T07:31:25.731Z</time>
      </trkpt>
      <trkpt lat="46.84973" lon="-0.02356">
        <ele>78.49</ele>
        <time>2023-06-13T07:32:09.050Z</time>
      </trkpt>
      <trkpt lat="46.84965" lon="-0.02353">
        <ele>78.46</ele>
        <time>2023-06-13T07:32:52.370Z</time>
      </trkpt>
      <trkpt lat="46.84948" lon="-0.02341">
        <ele>78.41</ele>
        <time>2023-06-13T07:33:35.693Z</time>
      </trkpt>
      <trkpt lat="46.8494" lon="-0.02335">
        <ele>78.42</ele>
        <time>2023-06-13T07:34:19.018Z</time>
      </trkpt>
      <trkpt lat="46.84937" lon="-0.02332">
        <ele>78.45</ele>
        <time>2023-06-13T07:35:02.343Z</time>
      </trkpt>
      <trkpt lat="46.84936" lon="-0.02332">
        <ele>78.45</ele>
        <time>2023-06-13T07:35:45.668Z</time>
      </trkpt>
      <trkpt lat="46.84929" lon="-0.02325">
        <ele>78.59</ele>
        <time>2023-06-13T07:36:28.995Z</time>
      </trkpt>
      <trkpt lat="46.84917" lon="-0.02314">
        <ele>78.89</ele>
        <time>2023-06-13T07:37:12.324Z</time>
      </trkpt>
      <trkpt lat="46.8491" lon="-0.02307">
        <ele>79.05</ele>
        <time>2023-06-13T07:37:55.654Z</time>
      </trkpt>
      <trkpt lat="46.84898" lon="-0.02297">
        <ele>79.2</ele>
        <time>2023-06-13T07:38:38.987Z</time>
      </trkpt>
      <trkpt lat="46.84888" lon="-0.02288">
        <ele>79.23</ele>
        <time>2023-06-13T07:39:22.321Z</time>
      </trkpt>
      <trkpt lat="46.84887" lon="-0.02287">
        <ele>79.24</ele>
        <time>2023-06-13T07:40:05.656Z</time>
      </trkpt>
      <trkpt lat="46.8488" lon="-0.02279">
        <ele>79.23</ele>
        <time>2023-06-13T07:40:48.992Z</time>
      </trkpt>
      <trkpt lat="46.84876" lon="-0.02275">
        <ele>79.19</ele>
        <time>2023-06-13T07:41:32.329Z</time>
      </trkpt>
      <trkpt lat="46.84865" lon="-0.02263">
        <ele>78.93</ele>
        <time>2023-06-13T07:42:15.668Z</time>
      </trkpt>
      <trkpt lat="46.84865" lon="-0.02263">
        <ele>78.93</ele>
        <time>2023-06-13T07:42:59.007Z</time>
      </trkpt>
      <trkpt lat="46.84859" lon="-0.02254">
        <ele>78.83</ele>
        <time>2023-06-13T07:43:42.347Z</time>
      </trkpt>
      <trkpt lat="46.84855" lon="-0.0225">
        <ele>78.82</ele>
        <time>2023-06-13T07:44:25.688Z</time>
      </trkpt>
      <trkpt lat="46.84852" lon="-0.02245">
        <ele>78.83</ele>
        <time>2023-06-13T07:45:09.030Z</time>
      </trkpt>
      <trkpt lat="46.84845" lon="-0.02236">
        <ele>78.88</ele>
        <time>2023-06-13T07:45:52.373Z</time>
      </trkpt>
      <trkpt lat="46.84844" lon="-0.02234">
        <ele>78.89</ele>
        <time>2023-06-13T07:46:35.717Z</time>
      </trkpt>
      <trkpt lat="46.84834" lon="-0.02216">
        <ele>79.05</ele>
        <time>2023-06-13T07:47:19.063Z</time>
      </trkpt>
      <trkpt lat="46.84831" lon="-0.02211">
        <ele>79.06</ele>
        <time>2023-06-13T07:48:02.410Z</time>
      </trkpt>
      <trkpt lat="46.84828" lon="-0.02206">
        <ele>79.04</ele>
        <time>2023-06-13T07:48:45.758Z</time>
      </trkpt>
      <trkpt lat="46.84825" lon="-0.02201">
        <ele>78.95</ele>
        <time>2023-06-13T07:49:29.106Z</time>
      </trkpt>
      <trkpt lat="46.84822" lon="-0.02195">
        <ele>78.83</ele>
        <time>2023-06-13T07:50:12.455Z</time>
      </trkpt>
      <trkpt lat="46.84822" lon="-0.02195">
        <ele>78.83</ele>
        <time>2023-06-13T07:50:55.804Z</time>
      </trkpt>
      <trkpt lat="46.84818" lon="-0.02184">
        <ele>78.47</ele>
        <time>2023-06-13T07:51:39.155Z</time>
      </trkpt>
      <trkpt lat="46.84816" lon="-0.02179">
        <ele>78.33</ele>
        <time>2023-06-13T07:52:22.506Z</time>
      </trkpt>
      <trkpt lat="46.84813" lon="-0.02173">
        <ele>78.25</ele>
        <time>2023-06-13T07:53:05.858Z</time>
      </trkpt>
      <trkpt lat="46.84811" lon="-0.02167">
        <ele>78.2</ele>
        <time>2023-06-13T07:53:49.211Z</time>
      </trkpt>
      <trkpt lat="46.84804" lon="-0.0215">
        <ele>78.11</ele>
        <time>2023-06-13T07:54:32.566Z</time>
      </trkpt>
      <trkpt lat="46.84804" lon="-0.02149">
        <ele>78.1</ele>
        <time>2023-06-13T07:55:15.921Z</time>
      </trkpt>
      <trkpt lat="46.84799" lon="-0.02132">
        <ele>77.97</ele>
        <time>2023-06-13T07:55:59.278Z</time>
      </trkpt>
      <trkpt lat="46.84798" lon="-0.02126">
        <ele>77.94</ele>
        <time>2023-06-13T07:56:42.636Z</time>
      </trkpt>
      <trkpt lat="46.84796" lon="-0.0212">
        <ele>77.93</ele>
        <time>2023-06-13T07:57:25.995Z</time>
      </trkpt>
      <trkpt lat="46.84793" lon="-0.02108">
        <ele>77.96</ele>
        <time>2023-06-13T07:58:09.355Z</time>
      </trkpt>
      <trkpt lat="46.84791" lon="-0.02102">
        <ele>77.99</ele>
        <time>2023-06-13T07:58:52.716Z</time>
      </trkpt>
      <trkpt lat="46.8479" lon="-0.02095">
        <ele>78.04</ele>
        <time>2023-06-13T07:59:36.077Z</time>
      </trkpt>
      <trkpt lat="46.84788" lon="-0.02082">
        <ele>78.15</ele>
        <time>2023-06-13T08:00:19.440Z</time>
      </trkpt>
      <trkpt lat="46.84786" lon="-0.02069">
        <ele>78.21</ele>
        <time>2023-06-13T08:01:02.804Z</time>
      </trkpt>
      <trkpt lat="46.84784" lon="-0.02056">
        <ele>78.2</ele>
        <time>2023-06-13T08:01:46.170Z</time>
      </trkpt>
      <trkpt lat="46.84784" lon="-0.02037">
        <ele>78.19</ele>
        <time>2023-06-13T08:02:29.538Z</time>
      </trkpt>
      <trkpt lat="46.84784" lon="-0.02024">
        <ele>78.17</ele>
        <time>2023-06-13T08:03:12.907Z</time>
      </trkpt>
      <trkpt lat="46.84784" lon="-0.02021">
        <ele>78.15</ele>
        <time>2023-06-13T08:03:56.277Z</time>
      </trkpt>
      <trkpt lat="46.84784" lon="-0.02017">
        <ele>78.14</ele>
        <time>2023-06-13T08:04:39.647Z</time>
      </trkpt>
      <trkpt lat="46.84786" lon="-0.02004">
        <ele>78.04</ele>
        <time>2023-06-13T08:05:23.018Z</time>
      </trkpt>
      <trkpt lat="46.84787" lon="-0.01998">
        <ele>77.97</ele>
        <time>2023-06-13T08:06:06.390Z</time>
      </trkpt>
      <trkpt lat="46.84789" lon="-0.01978">
        <ele>77.68</ele>
        <time>2023-06-13T08:06:49.764Z</time>
      </trkpt>
      <trkpt lat="46.8479" lon="-0.01972">
        <ele>77.6</ele>
        <time>2023-06-13T08:07:33.139Z</time>
      </trkpt>
      <trkpt lat="46.84791" lon="-0.01966">
        <ele>77.55</ele>
        <time>2023-06-13T08:08:16.515Z</time>
      </trkpt>
      <trkpt lat="46.84793" lon="-0.01946">
        <ele>77.48</ele>
        <time>2023-06-13T08:08:59.893Z</time>
      </trkpt>
      <trkpt lat="46.84797" lon="-0.0192">
        <ele>77.29</ele>
        <time>2023-06-13T08:09:43.274Z</time>
      </trkpt>
      <trkpt lat="46.84799" lon="-0.01901">
        <ele>77.24</ele>
        <time>2023-06-13T08:10:26.657Z</time>
      </trkpt>
      <trkpt lat="46.84802" lon="-0.01875">
        <ele>77.04</ele>
        <time>2023-06-13T08:11:10.043Z</time>
      </trkpt>
      <trkpt lat="46.84804" lon="-0.01862">
        <ele>76.99</ele>
        <time>2023-06-13T08:11:53.430Z</time>
      </trkpt>
      <trkpt lat="46.84806" lon="-0.01856">
        <ele>76.97</ele>
        <time>2023-06-13T08:12:36.818Z</time>
      </trkpt>
      <trkpt lat="46.84813" lon="-0.01832">
        <ele>76.75</ele>
        <time>2023-06-13T08:13:20.209Z</time>
      </trkpt>
      <trkpt lat="46.84814" lon="-0.01827">
        <ele>76.75</ele>
        <time>2023-06-13T08:14:03.601Z</time>
      </trkpt>
      <trkpt lat="46.84815" lon="-0.01826">
        <ele>76.76</ele>
        <time>2023-06-13T08:14:46.993Z</time>
      </trkpt>
      <trkpt lat="46.84817" lon="-0.0182">
        <ele>76.81</ele>
        <time>2023-06-13T08:15:30.385Z</time>
      </trkpt>
      <trkpt lat="46.84819" lon="-0.01815">
        <ele>76.9</ele>
        <time>2023-06-13T08:16:13.778Z</time>
      </trkpt>
      <trkpt lat="46.84824" lon="-0.01803">
        <ele>77.16</ele>
        <time>2023-06-13T08:16:57.173Z</time>
      </trkpt>
      <trkpt lat="46.84827" lon="-0.01798">
        <ele>77.29</ele>
        <time>2023-06-13T08:17:40.568Z</time>
      </trkpt>
      <trkpt lat="46.84842" lon="-0.0177">
        <ele>77.64</ele>
        <time>2023-06-13T08:18:23.967Z</time>
      </trkpt>
      <trkpt lat="46.84843" lon="-0.01767">
        <ele>77.68</ele>
        <time>2023-06-13T08:19:07.367Z</time>
      </trkpt>
      <trkpt lat="46.84847" lon="-0.01751">
        <ele>77.93</ele>
        <time>2023-06-13T08:19:50.769Z</time>
      </trkpt>
      <trkpt lat="46.84846" lon="-0.01742">
        <ele>78.07</ele>
        <time>2023-06-13T08:20:34.171Z</time>
      </trkpt>
      <trkpt lat="46.84845" lon="-0.01736">
        <ele>78.15</ele>
        <time>2023-06-13T08:21:17.574Z</time>
      </trkpt>
      <trkpt lat="46.84844" lon="-0.01725">
        <ele>78.23</ele>
        <time>2023-06-13T08:22:00.978Z</time>
      </trkpt>
      <trkpt lat="46.84838" lon="-0.01705">
        <ele>78.41</ele>
        <time>2023-06-13T08:22:44.385Z</time>
      </trkpt>
      <trkpt lat="46.84835" lon="-0.01693">
        <ele>78.49</ele>
        <time>2023-06-13T08:23:27.793Z</time>
      </trkpt>
      <trkpt lat="46.84833" lon="-0.01687">
        <ele>78.5</ele>
        <time>2023-06-13T08:24:11.202Z</time>
      </trkpt>
      <trkpt lat="46.84829" lon="-0.01675">
        <ele>78.45</ele>
        <time>2023-06-13T08:24:54.612Z</time>
      </trkpt>
      <trkpt lat="46.84827" lon="-0.01669">
        <ele>78.38</ele>
        <time>2023-06-13T08:25:38.023Z</time>
      </trkpt>
      <trkpt lat="46.84826" lon="-0.01663">
        <ele>78.28</ele>
        <time>2023-06-13T08:26:21.435Z</time>
      </trkpt>
      <trkpt lat="46.84824" lon="-0.01657">
        <ele>78.12</ele>
        <time>2023-06-13T08:27:04.848Z</time>
      </trkpt>
      <trkpt lat="46.84822" lon="-0.01651">
        <ele>77.92</ele>
        <time>2023-06-13T08:27:48.261Z</time>
      </trkpt>
      <trkpt lat="46.8482" lon="-0.01645">
        <ele>77.69</ele>
        <time>2023-06-13T08:28:31.675Z</time>
      </trkpt>
      <trkpt lat="46.84818" lon="-0.01638">
        <ele>77.54</ele>
        <time>2023-06-13T08:29:15.090Z</time>
      </trkpt>
      <trkpt lat="46.84813" lon="-0.01614">
        <ele>77.11</ele>
        <time>2023-06-13T08:29:58.508Z</time>
      </trkpt>
      <trkpt lat="46.84809" lon="-0.01592">
        <ele>76.81</ele>
        <time>2023-06-13T08:30:41.928Z</time>
      </trkpt>
      <trkpt lat="46.84811" lon="-0.0159">
        <ele>76.78</ele>
        <time>2023-06-13T08:31:25.348Z</time>
      </trkpt>
      <trkpt lat="46.84819" lon="-0.01584">
        <ele>76.55</ele>
        <time>2023-06-13T08:32:08.770Z</time>
      </trkpt>
      <trkpt lat="46.84831" lon="-0.01577">
        <ele>76.24</ele>
        <time>2023-06-13T08:32:52.194Z</time>
      </trkpt>
      <trkpt lat="46.84852" lon="-0.01565">
        <ele>75.75</ele>
        <time>2023-06-13T08:33:35.622Z</time>
      </trkpt>
      <trkpt lat="46.84902" lon="-0.01536">
        <ele>74.88</ele>
        <time>2023-06-13T08:34:19.058Z</time>
      </trkpt>
      <trkpt lat="46.84904" lon="-0.01535">
        <ele>74.83</ele>
        <time>2023-06-13T08:35:02.495Z</time>
      </trkpt>
      <trkpt lat="46.8491" lon="-0.01531">
        <ele>74.7</ele>
        <time>2023-06-13T08:35:45.933Z</time>
      </trkpt>
      <trkpt lat="46.84923" lon="-0.01523">
        <ele>74.39</ele>
        <time>2023-06-13T08:36:29.373Z</time>
      </trkpt>
      <trkpt lat="46.84931" lon="-0.01518">
        <ele>74.23</ele>
        <time>2023-06-13T08:37:12.814Z</time>
      </trkpt>
      <trkpt lat="46.84943" lon="-0.0151">
        <ele>74.04</ele>
        <time>2023-06-13T08:37:56.257Z</time>
      </trkpt>
      <trkpt lat="46.84951" lon="-0.01505">
        <ele>73.97</ele>
        <time>2023-06-13T08:38:39.702Z</time>
      </trkpt>
      <trkpt lat="46.84976" lon="-0.0149">
        <ele>73.88</ele>
        <time>2023-06-13T08:39:23.151Z</time>
      </trkpt>
      <trkpt lat="46.84977" lon="-0.01489">
        <ele>73.88</ele>
        <time>2023-06-13T08:40:06.600Z</time>
      </trkpt>
      <trkpt lat="46.84984" lon="-0.01483">
        <ele>73.89</ele>
        <time>2023-06-13T08:40:50.051Z</time>
      </trkpt>
      <trkpt lat="46.84988" lon="-0.01479">
        <ele>73.91</ele>
        <time>2023-06-13T08:41:33.502Z</time>
      </trkpt>
      <trkpt lat="46.8499" lon="-0.01474">
        <ele>73.93</ele>
        <time>2023-06-13T08:42:16.954Z</time>
      </trkpt>
      <trkpt lat="46.84992" lon="-0.01467">
        <ele>73.96</ele>
        <time>2023-06-13T08:43:00.407Z</time>
      </trkpt>
      <trkpt lat="46.84994" lon="-0.01445">
        <ele>74.07</ele>
        <time>2023-06-13T08:43:43.862Z</time>
      </trkpt>
      <trkpt lat="46.84993" lon="-0.01442">
        <ele>74.09</ele>
        <time>2023-06-13T08:44:27.318Z</time>
      </trkpt>
      <trkpt lat="46.84991" lon="-0.01428">
        <ele>74.23</ele>
        <time>2023-06-13T08:45:10.775Z</time>
      </trkpt>
      <trkpt lat="46.84989" lon="-0.01424">
        <ele>74.29</ele>
        <time>2023-06-13T08:45:54.233Z</time>
      </trkpt>
      <trkpt lat="46.84976" lon="-0.01395">
        <ele>74.72</ele>
        <time>2023-06-13T08:46:37.695Z</time>
      </trkpt>
      <trkpt lat="46.84974" lon="-0.01391">
        <ele>74.78</ele>
        <time>2023-06-13T08:47:21.157Z</time>
      </trkpt>
      <trkpt lat="46.84965" lon="-0.01376">
        <ele>75.05</ele>
        <time>2023-06-13T08:48:04.621Z</time>
      </trkpt>
      <trkpt lat="46.8496" lon="-0.01366">
        <ele>75.27</ele>
        <time>2023-06-13T08:48:48.087Z</time>
      </trkpt>
      <trkpt lat="46.84957" lon="-0.01361">
        <ele>75.41</ele>
        <time>2023-06-13T08:49:31.553Z</time>
      </trkpt>
      <trkpt lat="46.84951" lon="-0.01351">
        <ele>75.75</ele>
        <time>2023-06-13T08:50:15.021Z</time>
      </trkpt>
      <trkpt lat="46.84945" lon="-0.01341">
        <ele>76.02</ele>
        <time>2023-06-13T08:50:58.490Z</time>
      </trkpt>
      <trkpt lat="46.84942" lon="-0.01335">
        <ele>76.19</ele>
        <time>2023-06-13T08:51:41.960Z</time>
      </trkpt>
      <trkpt lat="46.8494" lon="-0.01331">
        <ele>76.31</ele>
        <time>2023-06-13T08:52:25.431Z</time>
      </trkpt>
      <trkpt lat="46.84937" lon="-0.01326">
        <ele>76.43</ele>
        <time>2023-06-13T08:53:08.902Z</time>
      </trkpt>
      <trkpt lat="46.84935" lon="-0.0132">
        <ele>76.5</ele>
        <time>2023-06-13T08:53:52.374Z</time>
      </trkpt>
      <trkpt lat="46.84932" lon="-0.01315">
        <ele>76.55</ele>
        <time>2023-06-13T08:54:35.847Z</time>
      </trkpt>
      <trkpt lat="46.8493" lon="-0.0131">
        <ele>76.56</ele>
        <time>2023-06-13T08:55:19.320Z</time>
      </trkpt>
      <trkpt lat="46.84928" lon="-0.01306">
        <ele>76.54</ele>
        <time>2023-06-13T08:56:02.794Z</time>
      </trkpt>
      <trkpt lat="46.84918" lon="-0.01308">
        <ele>76.5</ele>
        <time>2023-06-13T08:56:46.270Z</time>
      </trkpt>
      <trkpt lat="46.84914" lon="-0.01309">
        <ele>76.53</ele>
        <time>2023-06-13T08:57:29.746Z</time>
      </trkpt>
      <trkpt lat="46.84911" lon="-0.0131">
        <ele>76.58</ele>
        <time>2023-06-13T08:58:13.223Z</time>
      </trkpt>
      <trkpt lat="46.84909" lon="-0.01309">
        <ele>76.63</ele>
        <time>2023-06-13T08:58:56.700Z</time>
      </trkpt>
      <trkpt lat="46.84905" lon="-0.01308">
        <ele>76.75</ele>
        <time>2023-06-13T08:59:40.178Z</time>
      </trkpt>
      <trkpt lat="46.84901" lon="-0.01306">
        <ele>76.84</ele>
        <time>2023-06-13T09:00:23.656Z</time>
      </trkpt>
      <trkpt lat="46.84897" lon="-0.01305">
        <ele>76.88</ele>
        <time>2023-06-13T09:01:07.135Z</time>
      </trkpt>
      <trkpt lat="46.84896" lon="-0.01305">
        <ele>76.88</ele>
        <time>2023-06-13T09:01:50.614Z</time>
      </trkpt>
      <trkpt lat="46.84893" lon="-0.01301">
        <ele>76.88</ele>
        <time>2023-06-13T09:02:34.094Z</time>
      </trkpt>
      <trkpt lat="46.84889" lon="-0.01298">
        <ele>76.85</ele>
        <time>2023-06-13T09:03:17.575Z</time>
      </trkpt>
      <trkpt lat="46.8487" lon="-0.0128">
        <ele>76.63</ele>
        <time>2023-06-13T09:04:01.059Z</time>
      </trkpt>
      <trkpt lat="46.84865" lon="-0.01275">
        <ele>76.6</ele>
        <time>2023-06-13T09:04:44.544Z</time>
      </trkpt>
      <trkpt lat="46.84863" lon="-0.01274">
        <ele>76.59</ele>
        <time>2023-06-13T09:05:28.029Z</time>
      </trkpt>
      <trkpt lat="46.84855" lon="-0.01269">
        <ele>76.62</ele>
        <time>2023-06-13T09:06:11.516Z</time>
      </trkpt>
      <trkpt lat="46.84836" lon="-0.01258">
        <ele>76.82</ele>
        <time>2023-06-13T09:06:55.006Z</time>
      </trkpt>
      <trkpt lat="46.84834" lon="-0.01257">
        <ele>76.85</ele>
        <time>2023-06-13T09:07:38.496Z</time>
      </trkpt>
      <trkpt lat="46.8483" lon="-0.01255">
        <ele>76.85</ele>
        <time>2023-06-13T09:08:21.987Z</time>
      </trkpt>
      <trkpt lat="46.84826" lon="-0.01252">
        <ele>76.8</ele>
        <time>2023-06-13T09:09:05.479Z</time>
      </trkpt>
      <trkpt lat="46.84813" lon="-0.01245">
        <ele>76.46</ele>
        <time>2023-06-13T09:09:48.973Z</time>
      </trkpt>
      <trkpt lat="46.84809" lon="-0.01243">
        <ele>76.4</ele>
        <time>2023-06-13T09:10:32.468Z</time>
      </trkpt>
      <trkpt lat="46.84797" lon="-0.01236">
        <ele>76.4</ele>
        <time>2023-06-13T09:11:15.965Z</time>
      </trkpt>
      <trkpt lat="46.84793" lon="-0.01234">
        <ele>76.38</ele>
        <time>2023-06-13T09:11:59.463Z</time>
      </trkpt>
      <trkpt lat="46.84789" lon="-0.01232">
        <ele>76.34</ele>
        <time>2023-06-13T09:12:42.961Z</time>
      </trkpt>
      <trkpt lat="46.84784" lon="-0.0123">
        <ele>76.3</ele>
        <time>2023-06-13T09:13:26.460Z</time>
      </trkpt>
      <trkpt lat="46.84771" lon="-0.01226">
        <ele>76.13</ele>
        <time>2023-06-13T09:14:09.961Z</time>
      </trkpt>
      <trkpt lat="46.84765" lon="-0.01224">
        <ele>76.09</ele>
        <time>2023-06-13T09:14:53.463Z</time>
      </trkpt>
      <trkpt lat="46.84763" lon="-0.01224">
        <ele>76.08</ele>
        <time>2023-06-13T09:15:36.965Z</time>
      </trkpt>
      <trkpt lat="46.84754" lon="-0.01225">
        <ele>76.1</ele>
        <time>2023-06-13T09:16:20.469Z</time>
      </trkpt>
      <trkpt lat="46.84741" lon="-0.01226">
        <ele>76.19</ele>
        <time>2023-06-13T09:17:03.975Z</time>
      </trkpt>
      <trkpt lat="46.84736" lon="-0.01226">
        <ele>76.17</ele>
        <time>2023-06-13T09:17:47.482Z</time>
      </trkpt>
      <trkpt lat="46.84727" lon="-0.01227">
        <ele>76.03</ele>
        <time>2023-06-13T09:18:30.990Z</time>
      </trkpt>
      <trkpt lat="46.84717" lon="-0.01228">
        <ele>76.04</ele>
        <time>2023-06-13T09:19:14.500Z</time>
      </trkpt>
      <trkpt lat="46.84715" lon="-0.01228">
        <ele>75.93</ele>
        <time>2023-06-13T09:19:58.010Z</time>
      </trkpt>
      <trkpt lat="46.84713" lon="-0.01229">
        <ele>75.8</ele>
        <time>2023-06-13T09:20:41.521Z</time>
      </trkpt>
      <trkpt lat="46.84708" lon="-0.01231">
        <ele>75.61</ele>
        <time>2023-06-13T09:21:25.032Z</time>
      </trkpt>
      <trkpt lat="46.84704" lon="-0.01233">
        <ele>75.47</ele>
        <time>2023-06-13T09:22:08.544Z</time>
      </trkpt>
      <trkpt lat="46.847" lon="-0.01235">
        <ele>75.38</ele>
        <time>2023-06-13T09:22:52.057Z</time>
      </trkpt>
      <trkpt lat="46.84696" lon="-0.01237">
        <ele>75.32</ele>
        <time>2023-06-13T09:23:35.570Z</time>
      </trkpt>
      <trkpt lat="46.84691" lon="-0.01239">
        <ele>75.28</ele>
        <time>2023-06-13T09:24:19.084Z</time>
      </trkpt>
      <trkpt lat="46.84688" lon="-0.01242">
        <ele>75.26</ele>
        <time>2023-06-13T09:25:02.599Z</time>
      </trkpt>
      <trkpt lat="46.84676" lon="-0.01254">
        <ele>75.31</ele>
        <time>2023-06-13T09:25:46.116Z</time>
      </trkpt>
      <trkpt lat="46.84673" lon="-0.01258">
        <ele>75.33</ele>
        <time>2023-06-13T09:26:29.634Z</time>
      </trkpt>
      <trkpt lat="46.84661" lon="-0.01278">
        <ele>75.29</ele>
        <time>2023-06-13T09:27:13.155Z</time>
      </trkpt>
      <trkpt lat="46.84655" lon="-0.01288">
        <ele>75.35</ele>
        <time>2023-06-13T09:27:56.677Z</time>
      </trkpt>
      <trkpt lat="46.84646" lon="-0.01302">
        <ele>75.47</ele>
        <time>2023-06-13T09:28:40.201Z</time>
      </trkpt>
      <trkpt lat="46.84643" lon="-0.01307">
        <ele>75.49</ele>
        <time>2023-06-13T09:29:23.726Z</time>
      </trkpt>
      <trkpt lat="46.8464" lon="-0.01312">
        <ele>75.47</ele>
        <time>2023-06-13T09:30:07.252Z</time>
      </trkpt>
      <trkpt lat="46.84631" lon="-0.01327">
        <ele>75.35</ele>
        <time>2023-06-13T09:30:50.780Z</time>
      </trkpt>
      <trkpt lat="46.84628" lon="-0.01331">
        <ele>75.33</ele>
        <time>2023-06-13T09:31:34.308Z</time>
      </trkpt>
      <trkpt lat="46.84625" lon="-0.01336">
        <ele>75.34</ele>
        <time>2023-06-13T09:32:17.837Z</time>
      </trkpt>
      <trkpt lat="46.84613" lon="-0.01356">
        <ele>75.49</ele>
        <time>2023-06-13T09:33:01.369Z</time>
      </trkpt>
      <trkpt lat="46.84601" lon="-0.01375">
        <ele>75.57</ele>
        <time>2023-06-13T09:33:44.904Z</time>
      </trkpt>
      <trkpt lat="46.84596" lon="-0.01385">
        <ele>75.54</ele>
        <time>2023-06-13T09:34:28.440Z</time>
      </trkpt>
      <trkpt lat="46.84586" lon="-0.014">
        <ele>75.45</ele>
        <time>2023-06-13T09:35:11.979Z</time>
      </trkpt>
      <trkpt lat="46.84583" lon="-0.01404">
        <ele>75.45</ele>
        <time>2023-06-13T09:35:55.518Z</time>
      </trkpt>
      <trkpt lat="46.84563" lon="-0.01438">
        <ele>75.54</ele>
        <time>2023-06-13T09:36:39.062Z</time>
      </trkpt>
      <trkpt lat="46.84553" lon="-0.01454">
        <ele>75.6</ele>
        <time>2023-06-13T09:37:22.609Z</time>
      </trkpt>
      <trkpt lat="46.84553" lon="-0.01454">
        <ele>75.6</ele>
        <time>2023-06-13T09:38:06.156Z</time>
      </trkpt>
      <trkpt lat="46.8455" lon="-0.01457">
        <ele>75.59</ele>
        <time>2023-06-13T09:38:49.703Z</time>
      </trkpt>
      <trkpt lat="46.84538" lon="-0.01466">
        <ele>75.5</ele>
        <time>2023-06-13T09:39:33.252Z</time>
      </trkpt>
      <trkpt lat="46.84534" lon="-0.01469">
        <ele>75.49</ele>
        <time>2023-06-13T09:40:16.802Z</time>
      </trkpt>
      <trkpt lat="46.84522" lon="-0.01478">
        <ele>75.53</ele>
        <time>2023-06-13T09:41:00.354Z</time>
      </trkpt>
      <trkpt lat="46.8451" lon="-0.01488">
        <ele>75.53</ele>
        <time>2023-06-13T09:41:43.908Z</time>
      </trkpt>
      <trkpt lat="46.84498" lon="-0.01497">
        <ele>75.67</ele>
        <time>2023-06-13T09:42:27.464Z</time>
      </trkpt>
      <trkpt lat="46.84491" lon="-0.01503">
        <ele>75.74</ele>
        <time>2023-06-13T09:43:11.022Z</time>
      </trkpt>
      <trkpt lat="46.84483" lon="-0.01509">
        <ele>75.76</ele>
        <time>2023-06-13T09:43:54.581Z</time>
      </trkpt>
      <trkpt lat="46.84471" lon="-0.01518">
        <ele>75.75</ele>
        <time>2023-06-13T09:44:38.143Z</time>
      </trkpt>
      <trkpt lat="46.84467" lon="-0.01522">
        <ele>75.77</ele>
        <time>2023-06-13T09:45:21.705Z</time>
      </trkpt>
      <trkpt lat="46.8446" lon="-0.01527">
        <ele>75.82</ele>
        <time>2023-06-13T09:46:05.268Z</time>
      </trkpt>
      <trkpt lat="46.8445" lon="-0.0153">
        <ele>75.9</ele>
        <time>2023-06-13T09:46:48.833Z</time>
      </trkpt>
      <trkpt lat="46.84441" lon="-0.01533">
        <ele>75.9</ele>
        <time>2023-06-13T09:47:32.400Z</time>
      </trkpt>
      <trkpt lat="46.84428" lon="-0.01538">
        <ele>75.84</ele>
        <time>2023-06-13T09:48:15.969Z</time>
      </trkpt>
      <trkpt lat="46.84411" lon="-0.01543">
        <ele>75.83</ele>
        <time>2023-06-13T09:48:59.541Z</time>
      </trkpt>
      <trkpt lat="46.84402" lon="-0.01546">
        <ele>75.9</ele>
        <time>2023-06-13T09:49:43.114Z</time>
      </trkpt>
      <trkpt lat="46.844" lon="-0.01547">
        <ele>75.92</ele>
        <time>2023-06-13T09:50:26.687Z</time>
      </trkpt>
      <trkpt lat="46.84389" lon="-0.01548">
        <ele>76.08</ele>
        <time>2023-06-13T09:51:10.262Z</time>
      </trkpt>
      <trkpt lat="46.84375" lon="-0.0155">
        <ele>76.22</ele>
        <time>2023-06-13T09:51:53.839Z</time>
      </trkpt>
      <trkpt lat="46.84371" lon="-0.01551">
        <ele>76.3</ele>
        <time>2023-06-13T09:52:37.417Z</time>
      </trkpt>
      <trkpt lat="46.84359" lon="-0.01552">
        <ele>76.59</ele>
        <time>2023-06-13T09:53:20.997Z</time>
      </trkpt>
      <trkpt lat="46.84358" lon="-0.01552">
        <ele>76.63</ele>
        <time>2023-06-13T09:54:04.577Z</time>
      </trkpt>
      <trkpt lat="46.84353" lon="-0.01553">
        <ele>76.71</ele>
        <time>2023-06-13T09:54:48.158Z</time>
      </trkpt>
      <trkpt lat="46.84349" lon="-0.01553">
        <ele>76.77</ele>
        <time>2023-06-13T09:55:31.740Z</time>
      </trkpt>
      <trkpt lat="46.8434" lon="-0.01554">
        <ele>76.83</ele>
        <time>2023-06-13T09:56:15.323Z</time>
      </trkpt>
      <trkpt lat="46.84327" lon="-0.01556">
        <ele>76.98</ele>
        <time>2023-06-13T09:56:58.908Z</time>
      </trkpt>
      <trkpt lat="46.84322" lon="-0.01559">
        <ele>77.05</ele>
        <time>2023-06-13T09:57:42.494Z</time>
      </trkpt>
      <trkpt lat="46.84318" lon="-0.01562">
        <ele>77.08</ele>
        <time>2023-06-13T09:58:26.081Z</time>
      </trkpt>
      <trkpt lat="46.84314" lon="-0.01564">
        <ele>77.08</ele>
        <time>2023-06-13T09:59:09.668Z</time>
      </trkpt>
      <trkpt lat="46.84298" lon="-0.01574">
        <ele>76.99</ele>
        <time>2023-06-13T09:59:53.258Z</time>
      </trkpt>
      <trkpt lat="46.84269" lon="-0.01593">
        <ele>76.94</ele>
        <time>2023-06-13T10:00:36.853Z</time>
      </trkpt>
      <trkpt lat="46.8426" lon="-0.01598">
        <ele>76.96</ele>
        <time>2023-06-13T10:01:20.450Z</time>
      </trkpt>
      <trkpt lat="46.84244" lon="-0.01608">
        <ele>77.14</ele>
        <time>2023-06-13T10:02:04.050Z</time>
      </trkpt>
      <trkpt lat="46.84228" lon="-0.01618">
        <ele>77.27</ele>
        <time>2023-06-13T10:02:47.652Z</time>
      </trkpt>
      <trkpt lat="46.84214" lon="-0.01635">
        <ele>77.42</ele>
        <time>2023-06-13T10:03:31.257Z</time>
      </trkpt>
      <trkpt lat="46.8421" lon="-0.01639">
        <ele>77.47</ele>
        <time>2023-06-13T10:04:14.863Z</time>
      </trkpt>
      <trkpt lat="46.842" lon="-0.01652">
        <ele>77.69</ele>
        <time>2023-06-13T10:04:58.471Z</time>
      </trkpt>
      <trkpt lat="46.84193" lon="-0.0166">
        <ele>77.78</ele>
        <time>2023-06-13T10:05:42.081Z</time>
      </trkpt>
      <trkpt lat="46.84176" lon="-0.01681">
        <ele>77.73</ele>
        <time>2023-06-13T10:06:25.694Z</time>
      </trkpt>
      <trkpt lat="46.84162" lon="-0.01698">
        <ele>77.58</ele>
        <time>2023-06-13T10:07:09.310Z</time>
      </trkpt>
      <trkpt lat="46.84161" lon="-0.01699">
        <ele>77.57</ele>
        <time>2023-06-13T10:07:52.926Z</time>
      </trkpt>
      <trkpt lat="46.84158" lon="-0.01701">
        <ele>77.56</ele>
        <time>2023-06-13T10:08:36.543Z</time>
      </trkpt>
      <trkpt lat="46.84142" lon="-0.01711">
        <ele>77.58</ele>
        <time>2023-06-13T10:09:20.163Z</time>
      </trkpt>
      <trkpt lat="46.84137" lon="-0.01714">
        <ele>77.57</ele>
        <time>2023-06-13T10:10:03.783Z</time>
      </trkpt>
      <trkpt lat="46.84131" lon="-0.01718">
        <ele>77.51</ele>
        <time>2023-06-13T10:10:47.404Z</time>
      </trkpt>
      <trkpt lat="46.84129" lon="-0.01718">
        <ele>77.5</ele>
        <time>2023-06-13T10:11:31.026Z</time>
      </trkpt>
      <trkpt lat="46.84111" lon="-0.01723">
        <ele>77.33</ele>
        <time>2023-06-13T10:12:14.651Z</time>
      </trkpt>
      <trkpt lat="46.84089" lon="-0.01729">
        <ele>76.96</ele>
        <time>2023-06-13T10:12:58.279Z</time>
      </trkpt>
      <trkpt lat="46.84085" lon="-0.0173">
        <ele>76.9</ele>
        <time>2023-06-13T10:13:41.908Z</time>
      </trkpt>
      <trkpt lat="46.84072" lon="-0.01732">
        <ele>76.76</ele>
        <time>2023-06-13T10:14:25.539Z</time>
      </trkpt>
      <trkpt lat="46.84063" lon="-0.01734">
        <ele>76.69</ele>
        <time>2023-06-13T10:15:09.172Z</time>
      </trkpt>
      <trkpt lat="46.84058" lon="-0.01735">
        <ele>76.68</ele>
        <time>2023-06-13T10:15:52.805Z</time>
      </trkpt>
      <trkpt lat="46.84049" lon="-0.01735">
        <ele>76.67</ele>
        <time>2023-06-13T10:16:36.440Z</time>
      </trkpt>
      <trkpt lat="46.84045" lon="-0.01735">
        <ele>76.64</ele>
        <time>2023-06-13T10:17:20.075Z</time>
      </trkpt>
      <trkpt lat="46.84038" lon="-0.01735">
        <ele>76.56</ele>
        <time>2023-06-13T10:18:03.712Z</time>
      </trkpt>
      <trkpt lat="46.84027" lon="-0.01734">
        <ele>76.45</ele>
        <time>2023-06-13T10:18:47.350Z</time>
      </trkpt>
      <trkpt lat="46.84015" lon="-0.01733">
        <ele>76.39</ele>
        <time>2023-06-13T10:19:30.990Z</time>
      </trkpt>
      <trkpt lat="46.84005" lon="-0.01727">
        <ele>76.34</ele>
        <time>2023-06-13T10:20:14.632Z</time>
      </trkpt>
      <trkpt lat="46.84003" lon="-0.01726">
        <ele>76.31</ele>
        <time>2023-06-13T10:20:58.274Z</time>
      </trkpt>
      <trkpt lat="46.83997" lon="-0.01722">
        <ele>76.26</ele>
        <time>2023-06-13T10:21:41.917Z</time>
      </trkpt>
      <trkpt lat="46.83991" lon="-0.01718">
        <ele>76.17</ele>
        <time>2023-06-13T10:22:25.561Z</time>
      </trkpt>
      <trkpt lat="46.83989" lon="-0.01716">
        <ele>76.14</ele>
        <time>2023-06-13T10:23:09.206Z</time>
      </trkpt>
      <trkpt lat="46.83981" lon="-0.01703">
        <ele>75.93</ele>
        <time>2023-06-13T10:23:52.853Z</time>
      </trkpt>
      <trkpt lat="46.83977" lon="-0.01689">
        <ele>75.76</ele>
        <time>2023-06-13T10:24:36.501Z</time>
      </trkpt>
      <trkpt lat="46.83975" lon="-0.01683">
        <ele>75.7</ele>
        <time>2023-06-13T10:25:20.150Z</time>
      </trkpt>
      <trkpt lat="46.83973" lon="-0.01677">
        <ele>75.67</ele>
        <time>2023-06-13T10:26:03.800Z</time>
      </trkpt>
      <trkpt lat="46.83969" lon="-0.01666">
        <ele>75.66</ele>
        <time>2023-06-13T10:26:47.451Z</time>
      </trkpt>
      <trkpt lat="46.83963" lon="-0.01648">
        <ele>75.69</ele>
        <time>2023-06-13T10:27:31.104Z</time>
      </trkpt>
      <trkpt lat="46.83961" lon="-0.01642">
        <ele>75.72</ele>
        <time>2023-06-13T10:28:14.758Z</time>
      </trkpt>
      <trkpt lat="46.83958" lon="-0.01637">
        <ele>75.75</ele>
        <time>2023-06-13T10:28:58.413Z</time>
      </trkpt>
      <trkpt lat="46.83951" lon="-0.0162">
        <ele>75.87</ele>
        <time>2023-06-13T10:29:42.070Z</time>
      </trkpt>
      <trkpt lat="46.83948" lon="-0.01615">
        <ele>75.85</ele>
        <time>2023-06-13T10:30:25.728Z</time>
      </trkpt>
      <trkpt lat="46.83946" lon="-0.0161">
        <ele>75.78</ele>
        <time>2023-06-13T10:31:09.386Z</time>
      </trkpt>
      <trkpt lat="46.83938" lon="-0.01594">
        <ele>75.42</ele>
        <time>2023-06-13T10:31:53.047Z</time>
      </trkpt>
      <trkpt lat="46.83935" lon="-0.01588">
        <ele>75.34</ele>
        <time>2023-06-13T10:32:36.708Z</time>
      </trkpt>
      <trkpt lat="46.8393" lon="-0.01577">
        <ele>75.23</ele>
        <time>2023-06-13T10:33:20.371Z</time>
      </trkpt>
      <trkpt lat="46.83924" lon="-0.01564">
        <ele>75.15</ele>
        <time>2023-06-13T10:34:04.036Z</time>
      </trkpt>
      <trkpt lat="46.8392" lon="-0.01556">
        <ele>75.11</ele>
        <time>2023-06-13T10:34:47.702Z</time>
      </trkpt>
      <trkpt lat="46.83917" lon="-0.01551">
        <ele>75.1</ele>
        <time>2023-06-13T10:35:31.368Z</time>
      </trkpt>
      <trkpt lat="46.83914" lon="-0.01547">
        <ele>75.12</ele>
        <time>2023-06-13T10:36:15.035Z</time>
      </trkpt>
      <trkpt lat="46.83911" lon="-0.01542">
        <ele>75.18</ele>
        <time>2023-06-13T10:36:58.703Z</time>
      </trkpt>
      <trkpt lat="46.83908" lon="-0.01537">
        <ele>75.26</ele>
        <time>2023-06-13T10:37:42.372Z</time>
      </trkpt>
      <trkpt lat="46.83896" lon="-0.01517">
        <ele>75.66</ele>
        <time>2023-06-13T10:38:26.043Z</time>
      </trkpt>
      <trkpt lat="46.8389" lon="-0.01507">
        <ele>75.81</ele>
        <time>2023-06-13T10:39:09.716Z</time>
      </trkpt>
      <trkpt lat="46.83884" lon="-0.01497">
        <ele>75.89</ele>
        <time>2023-06-13T10:39:53.390Z</time>
      </trkpt>
      <trkpt lat="46.83881" lon="-0.01492">
        <ele>75.9</ele>
        <time>2023-06-13T10:40:37.065Z</time>
      </trkpt>
      <trkpt lat="46.83878" lon="-0.01487">
        <ele>75.87</ele>
        <time>2023-06-13T10:41:20.741Z</time>
      </trkpt>
      <trkpt lat="46.83876" lon="-0.01482">
        <ele>75.79</ele>
        <time>2023-06-13T10:42:04.417Z</time>
      </trkpt>
      <trkpt lat="46.83873" lon="-0.01477">
        <ele>75.64</ele>
        <time>2023-06-13T10:42:48.094Z</time>
      </trkpt>
      <trkpt lat="46.83864" lon="-0.01462">
        <ele>74.95</ele>
        <time>2023-06-13T10:43:31.773Z</time>
      </trkpt>
      <trkpt lat="46.83861" lon="-0.01457">
        <ele>74.74</ele>
        <time>2023-06-13T10:44:15.453Z</time>
      </trkpt>
      <trkpt lat="46.83852" lon="-0.01442">
        <ele>74.81</ele>
        <time>2023-06-13T10:44:59.135Z</time>
      </trkpt>
      <trkpt lat="46.83847" lon="-0.01434">
        <ele>74.81</ele>
        <time>2023-06-13T10:45:42.818Z</time>
      </trkpt>
      <trkpt lat="46.8384" lon="-0.01424">
        <ele>74.81</ele>
        <time>2023-06-13T10:46:26.503Z</time>
      </trkpt>
      <trkpt lat="46.83834" lon="-0.01416">
        <ele>74.83</ele>
        <time>2023-06-13T10:47:10.189Z</time>
      </trkpt>
      <trkpt lat="46.83835" lon="-0.01415">
        <ele>74.84</ele>
        <time>2023-06-13T10:47:53.875Z</time>
      </trkpt>
      <trkpt lat="46.83843" lon="-0.01409">
        <ele>74.91</ele>
        <time>2023-06-13T10:48:37.563Z</time>
      </trkpt>
      <trkpt lat="46.83859" lon="-0.01396">
        <ele>75.16</ele>
        <time>2023-06-13T10:49:21.254Z</time>
      </trkpt>
      <trkpt lat="46.83867" lon="-0.0139">
        <ele>75.23</ele>
        <time>2023-06-13T10:50:04.946Z</time>
      </trkpt>
      <trkpt lat="46.8387" lon="-0.01386">
        <ele>75.24</ele>
        <time>2023-06-13T10:50:48.639Z</time>
      </trkpt>
      <trkpt lat="46.83886" lon="-0.01374">
        <ele>75.22</ele>
        <time>2023-06-13T10:51:32.335Z</time>
      </trkpt>
      <trkpt lat="46.83914" lon="-0.01351">
        <ele>75.24</ele>
        <time>2023-06-13T10:52:16.036Z</time>
      </trkpt>
      <trkpt lat="46.83934" lon="-0.01335">
        <ele>75.4</ele>
        <time>2023-06-13T10:52:59.741Z</time>
      </trkpt>
      <trkpt lat="46.83948" lon="-0.01326">
        <ele>75.5</ele>
        <time>2023-06-13T10:53:43.448Z</time>
      </trkpt>
      <trkpt lat="46.83948" lon="-0.01326">
        <ele>75.5</ele>
        <time>2023-06-13T10:54:27.155Z</time>
      </trkpt>
      <trkpt lat="46.8395" lon="-0.01318">
        <ele>75.5</ele>
        <time>2023-06-13T10:55:10.863Z</time>
      </trkpt>
      <trkpt lat="46.8395" lon="-0.01315">
        <ele>75.51</ele>
        <time>2023-06-13T10:55:54.571Z</time>
      </trkpt>
      <trkpt lat="46.83948" lon="-0.01297">
        <ele>75.45</ele>
        <time>2023-06-13T10:56:38.281Z</time>
      </trkpt>
      <trkpt lat="46.83948" lon="-0.01292">
        <ele>75.45</ele>
        <time>2023-06-13T10:57:21.992Z</time>
      </trkpt>
      <trkpt lat="46.83947" lon="-0.01285">
        <ele>75.46</ele>
        <time>2023-06-13T10:58:05.704Z</time>
      </trkpt>
      <trkpt lat="46.83945" lon="-0.01272">
        <ele>75.5</ele>
        <time>2023-06-13T10:58:49.417Z</time>
      </trkpt>
      <trkpt lat="46.83941" lon="-0.01241">
        <ele>75.73</ele>
        <time>2023-06-13T10:59:33.134Z</time>
      </trkpt>
      <trkpt lat="46.83937" lon="-0.01239">
        <ele>75.78</ele>
        <time>2023-06-13T11:00:16.851Z</time>
      </trkpt>
      <trkpt lat="46.83929" lon="-0.01233">
        <ele>75.81</ele>
        <time>2023-06-13T11:01:00.570Z</time>
      </trkpt>
      <trkpt lat="46.83927" lon="-0.01232">
        <ele>75.8</ele>
        <time>2023-06-13T11:01:44.289Z</time>
      </trkpt>
      <trkpt lat="46.83917" lon="-0.01229">
        <ele>75.8</ele>
        <time>2023-06-13T11:02:28.010Z</time>
      </trkpt>
      <trkpt lat="46.83908" lon="-0.01226">
        <ele>75.83</ele>
        <time>2023-06-13T11:03:11.732Z</time>
      </trkpt>
      <trkpt lat="46.83879" lon="-0.01216">
        <ele>76.15</ele>
        <time>2023-06-13T11:03:55.459Z</time>
      </trkpt>
      <trkpt lat="46.83874" lon="-0.01215">
        <ele>76.21</ele>
        <time>2023-06-13T11:04:39.187Z</time>
      </trkpt>
      <trkpt lat="46.83869" lon="-0.01213">
        <ele>76.31</ele>
        <time>2023-06-13T11:05:22.916Z</time>
      </trkpt>
      <trkpt lat="46.83866" lon="-0.01213">
        <ele>76.37</ele>
        <time>2023-06-13T11:06:06.645Z</time>
      </trkpt>
      <trkpt lat="46.83857" lon="-0.01212">
        <ele>76.46</ele>
        <time>2023-06-13T11:06:50.375Z</time>
      </trkpt>
      <trkpt lat="46.83852" lon="-0.01212">
        <ele>76.46</ele>
        <time>2023-06-13T11:07:34.106Z</time>
      </trkpt>
      <trkpt lat="46.83848" lon="-0.01212">
        <ele>76.44</ele>
        <time>2023-06-13T11:08:17.838Z</time>
      </trkpt>
      <trkpt lat="46.83839" lon="-0.01212">
        <ele>76.35</ele>
        <time>2023-06-13T11:09:01.571Z</time>
      </trkpt>
      <trkpt lat="46.83827" lon="-0.01211">
        <ele>76.18</ele>
        <time>2023-06-13T11:09:45.306Z</time>
      </trkpt>
      <trkpt lat="46.838" lon="-0.01223">
        <ele>75.81</ele>
        <time>2023-06-13T11:10:29.046Z</time>
      </trkpt>
      <trkpt lat="46.83796" lon="-0.01224">
        <ele>75.77</ele>
        <time>2023-06-13T11:11:12.786Z</time>
      </trkpt>
      <trkpt lat="46.83785" lon="-0.01229">
        <ele>75.74</ele>
        <time>2023-06-13T11:11:56.528Z</time>
      </trkpt>
      <trkpt lat="46.83769" lon="-0.01228">
        <ele>75.72</ele>
        <time>2023-06-13T11:12:40.273Z</time>
      </trkpt>
      <trkpt lat="46.83757" lon="-0.01228">
        <ele>75.75</ele>
        <time>2023-06-13T11:13:24.020Z</time>
      </trkpt>
      <trkpt lat="46.83756" lon="-0.01228">
        <ele>75.76</ele>
        <time>2023-06-13T11:14:07.767Z</time>
      </trkpt>
      <trkpt lat="46.83747" lon="-0.01227">
        <ele>75.75</ele>
        <time>2023-06-13T11:14:51.515Z</time>
      </trkpt>
      <trkpt lat="46.83738" lon="-0.01225">
        <ele>75.68</ele>
        <time>2023-06-13T11:15:35.265Z</time>
      </trkpt>
      <trkpt lat="46.83721" lon="-0.01223">
        <ele>75.5</ele>
        <time>2023-06-13T11:16:19.018Z</time>
      </trkpt>
      <trkpt lat="46.83703" lon="-0.0122">
        <ele>75.38</ele>
        <time>2023-06-13T11:17:02.773Z</time>
      </trkpt>
      <trkpt lat="46.83699" lon="-0.01223">
        <ele>75.35</ele>
        <time>2023-06-13T11:17:46.529Z</time>
      </trkpt>
      <trkpt lat="46.83682" lon="-0.01232">
        <ele>75.32</ele>
        <time>2023-06-13T11:18:30.288Z</time>
      </trkpt>
      <trkpt lat="46.83667" lon="-0.01241">
        <ele>75.32</ele>
        <time>2023-06-13T11:19:14.050Z</time>
      </trkpt>
      <trkpt lat="46.83665" lon="-0.01241">
        <ele>75.32</ele>
        <time>2023-06-13T11:19:57.812Z</time>
      </trkpt>
      <trkpt lat="46.83639" lon="-0.01237">
        <ele>75.2</ele>
        <time>2023-06-13T11:20:41.578Z</time>
      </trkpt>
      <trkpt lat="46.83625" lon="-0.01235">
        <ele>75.07</ele>
        <time>2023-06-13T11:21:25.346Z</time>
      </trkpt>
      <trkpt lat="46.83617" lon="-0.01234">
        <ele>74.92</ele>
        <time>2023-06-13T11:22:09.116Z</time>
      </trkpt>
      <trkpt lat="46.83616" lon="-0.01234">
        <ele>74.92</ele>
        <time>2023-06-13T11:22:52.886Z</time>
      </trkpt>
      <trkpt lat="46.83603" lon="-0.01237">
        <ele>74.66</ele>
        <time>2023-06-13T11:23:36.658Z</time>
      </trkpt>
      <trkpt lat="46.83599" lon="-0.01237">
        <ele>74.61</ele>
        <time>2023-06-13T11:24:20.431Z</time>
      </trkpt>
      <trkpt lat="46.83594" lon="-0.01238">
        <ele>74.61</ele>
        <time>2023-06-13T11:25:04.204Z</time>
      </trkpt>
      <trkpt lat="46.83581" lon="-0.01241">
        <ele>74.7</ele>
        <time>2023-06-13T11:25:47.979Z</time>
      </trkpt>
      <trkpt lat="46.83579" lon="-0.01241">
        <ele>74.7</ele>
        <time>2023-06-13T11:26:31.755Z</time>
      </trkpt>
      <trkpt lat="46.83572" lon="-0.01239">
        <ele>74.71</ele>
        <time>2023-06-13T11:27:15.532Z</time>
      </trkpt>
      <trkpt lat="46.83559" lon="-0.01234">
        <ele>74.63</ele>
        <time>2023-06-13T11:27:59.311Z</time>
      </trkpt>
      <trkpt lat="46.83555" lon="-0.01233">
        <ele>74.63</ele>
        <time>2023-06-13T11:28:43.091Z</time>
      </trkpt>
      <trkpt lat="46.83555" lon="-0.01233">
        <ele>74.63</ele>
        <time>2023-06-13T11:29:26.871Z</time>
      </trkpt>
      <trkpt lat="46.83541" lon="-0.01231">
        <ele>74.68</ele>
        <time>2023-06-13T11:30:10.653Z</time>
      </trkpt>
      <trkpt lat="46.83528" lon="-0.01229">
        <ele>74.63</ele>
        <time>2023-06-13T11:30:54.437Z</time>
      </trkpt>
      <trkpt lat="46.8351" lon="-0.01226">
        <ele>74.66</ele>
        <time>2023-06-13T11:31:38.224Z</time>
      </trkpt>
      <trkpt lat="46.83497" lon="-0.01224">
        <ele>74.62</ele>
        <time>2023-06-13T11:32:22.013Z</time>
      </trkpt>
      <trkpt lat="46.83495" lon="-0.01224">
        <ele>74.62</ele>
        <time>2023-06-13T11:33:05.802Z</time>
      </trkpt>
      <trkpt lat="46.83481" lon="-0.01214">
        <ele>74.62</ele>
        <time>2023-06-13T11:33:49.594Z</time>
      </trkpt>
      <trkpt lat="46.83464" lon="-0.01204">
        <ele>74.56</ele>
        <time>2023-06-13T11:34:33.389Z</time>
      </trkpt>
      <trkpt lat="46.83452" lon="-0.01196">
        <ele>74.56</ele>
        <time>2023-06-13T11:35:17.186Z</time>
      </trkpt>
      <trkpt lat="46.83427" lon="-0.01179">
        <ele>74.42</ele>
        <time>2023-06-13T11:36:00.987Z</time>
      </trkpt>
      <trkpt lat="46.83427" lon="-0.01179">
        <ele>74.42</ele>
        <time>2023-06-13T11:36:44.788Z</time>
      </trkpt>
      <trkpt lat="46.83417" lon="-0.01169">
        <ele>74.33</ele>
        <time>2023-06-13T11:37:28.591Z</time>
      </trkpt>
      <trkpt lat="46.83405" lon="-0.01157">
        <ele>74.27</ele>
        <time>2023-06-13T11:38:12.397Z</time>
      </trkpt>
      <trkpt lat="46.834" lon="-0.01152">
        <ele>74.2</ele>
        <time>2023-06-13T11:38:56.204Z</time>
      </trkpt>
      <trkpt lat="46.83398" lon="-0.01149">
        <ele>74.18</ele>
        <time>2023-06-13T11:39:40.011Z</time>
      </trkpt>
      <trkpt lat="46.83389" lon="-0.01135">
        <ele>73.96</ele>
        <time>2023-06-13T11:40:23.820Z</time>
      </trkpt>
      <trkpt lat="46.83386" lon="-0.0113">
        <ele>73.91</ele>
        <time>2023-06-13T11:41:07.630Z</time>
      </trkpt>
      <trkpt lat="46.83384" lon="-0.01126">
        <ele>73.89</ele>
        <time>2023-06-13T11:41:51.440Z</time>
      </trkpt>
      <trkpt lat="46.83384" lon="-0.01125">
        <ele>73.89</ele>
        <time>2023-06-13T11:42:35.251Z</time>
      </trkpt>
      <trkpt lat="46.83379" lon="-0.01114">
        <ele>73.93</ele>
        <time>2023-06-13T11:43:19.063Z</time>
      </trkpt>
      <trkpt lat="46.83374" lon="-0.01103">
        <ele>74.01</ele>
        <time>2023-06-13T11:44:02.876Z</time>
      </trkpt>
      <trkpt lat="46.83369" lon="-0.01089">
        <ele>74.13</ele>
        <time>2023-06-13T11:44:46.691Z</time>
      </trkpt>
      <trkpt lat="46.83367" lon="-0.01087">
        <ele>74.16</ele>
        <time>2023-06-13T11:45:30.507Z</time>
      </trkpt>
      <trkpt lat="46.83363" lon="-0.01085">
        <ele>74.18</ele>
        <time>2023-06-13T11:46:14.323Z</time>
      </trkpt>
      <trkpt lat="46.8336" lon="-0.01083">
        <ele>74.17</ele>
        <time>2023-06-13T11:46:58.140Z</time>
      </trkpt>
      <trkpt lat="46.83358" lon="-0.01082">
        <ele>74.17</ele>
        <time>2023-06-13T11:47:41.957Z</time>
      </trkpt>
      <trkpt lat="46.83354" lon="-0.0108">
        <ele>74.13</ele>
        <time>2023-06-13T11:48:25.775Z</time>
      </trkpt>
      <trkpt lat="46.83337" lon="-0.01072">
        <ele>73.85</ele>
        <time>2023-06-13T11:49:09.596Z</time>
      </trkpt>
      <trkpt lat="46.83329" lon="-0.01069">
        <ele>73.77</ele>
        <time>2023-06-13T11:49:53.418Z</time>
      </trkpt>
      <trkpt lat="46.83323" lon="-0.01066">
        <ele>73.77</ele>
        <time>2023-06-13T11:50:37.241Z</time>
      </trkpt>
      <trkpt lat="46.83321" lon="-0.01063">
        <ele>73.78</ele>
        <time>2023-06-13T11:51:21.064Z</time>
      </trkpt>
      <trkpt lat="46.83317" lon="-0.01059">
        <ele>73.81</ele>
        <time>2023-06-13T11:52:04.888Z</time>
      </trkpt>
      <trkpt lat="46.8331" lon="-0.01051">
        <ele>73.9</ele>
        <time>2023-06-13T11:52:48.714Z</time>
      </trkpt>
      <trkpt lat="46.83301" lon="-0.01041">
        <ele>73.85</ele>
        <time>2023-06-13T11:53:32.541Z</time>
      </trkpt>
      <trkpt lat="46.83299" lon="-0.01033">
        <ele>73.83</ele>
        <time>2023-06-13T11:54:16.369Z</time>
      </trkpt>
      <trkpt lat="46.83296" lon="-0.01024">
        <ele>73.78</ele>
        <time>2023-06-13T11:55:00.198Z</time>
      </trkpt>
      <trkpt lat="46.83295" lon="-0.01">
        <ele>73.69</ele>
        <time>2023-06-13T11:55:44.030Z</time>
      </trkpt>
      <trkpt lat="46.83295" lon="-0.01">
        <ele>73.69</ele>
        <time>2023-06-13T11:56:27.862Z</time>
      </trkpt>
      <trkpt lat="46.83287" lon="-0.01">
        <ele>73.65</ele>
        <time>2023-06-13T11:57:11.695Z</time>
      </trkpt>
      <trkpt lat="46.83278" lon="-0.01">
        <ele>73.67</ele>
        <time>2023-06-13T11:57:55.530Z</time>
      </trkpt>
      <trkpt lat="46.8325" lon="-0.00999">
        <ele>73.8</ele>
        <time>2023-06-13T11:58:39.369Z</time>
      </trkpt>
      <trkpt lat="46.83234" lon="-0.00996">
        <ele>73.89</ele>
        <time>2023-06-13T11:59:23.211Z</time>
      </trkpt>
      <trkpt lat="46.83231" lon="-0.00995">
        <ele>74.17</ele>
        <time>2023-06-13T12:00:07.053Z</time>
      </trkpt>
      <trkpt lat="46.83225" lon="-0.00996">
        <ele>74.76</ele>
        <time>2023-06-13T12:00:50.896Z</time>
      </trkpt>
      <trkpt lat="46.8322" lon="-0.00996">
        <ele>75.22</ele>
        <time>2023-06-13T12:01:34.740Z</time>
      </trkpt>
      <trkpt lat="46.83217" lon="-0.00999">
        <ele>75.59</ele>
        <time>2023-06-13T12:02:18.585Z</time>
      </trkpt>
      <trkpt lat="46.83213" lon="-0.01002">
        <ele>75.96</ele>
        <time>2023-06-13T12:03:02.430Z</time>
      </trkpt>
      <trkpt lat="46.83206" lon="-0.01007">
        <ele>76.52</ele>
        <time>2023-06-13T12:03:46.277Z</time>
      </trkpt>
      <trkpt lat="46.83205" lon="-0.01009">
        <ele>76.64</ele>
        <time>2023-06-13T12:04:30.124Z</time>
      </trkpt>
      <trkpt lat="46.832" lon="-0.01018">
        <ele>76.74</ele>
        <time>2023-06-13T12:05:13.972Z</time>
      </trkpt>
      <trkpt lat="46.83199" lon="-0.01019">
        <ele>76.74</ele>
        <time>2023-06-13T12:05:57.820Z</time>
      </trkpt>
      <trkpt lat="46.83197" lon="-0.01016">
        <ele>76.77</ele>
        <time>2023-06-13T12:06:41.669Z</time>
      </trkpt>
      <trkpt lat="46.83187" lon="-0.01004">
        <ele>76.78</ele>
        <time>2023-06-13T12:07:25.520Z</time>
      </trkpt>
      <trkpt lat="46.83184" lon="-0.01001">
        <ele>76.81</ele>
        <time>2023-06-13T12:08:09.372Z</time>
      </trkpt>
      <trkpt lat="46.8318" lon="-0.00997">
        <ele>76.88</ele>
        <time>2023-06-13T12:08:53.224Z</time>
      </trkpt>
      <trkpt lat="46.83179" lon="-0.00995">
        <ele>76.92</ele>
        <time>2023-06-13T12:09:37.077Z</time>
      </trkpt>
      <trkpt lat="46.83177" lon="-0.00995">
        <ele>76.99</ele>
        <time>2023-06-13T12:10:20.930Z</time>
      </trkpt>
      <trkpt lat="46.83174" lon="-0.00994">
        <ele>77.09</ele>
        <time>2023-06-13T12:11:04.783Z</time>
      </trkpt>
      <trkpt lat="46.83162" lon="-0.00975">
        <ele>77.78</ele>
        <time>2023-06-13T12:11:48.639Z</time>
      </trkpt>
      <trkpt lat="46.83158" lon="-0.00969">
        <ele>77.8</ele>
        <time>2023-06-13T12:12:32.496Z</time>
      </trkpt>
      <trkpt lat="46.83156" lon="-0.00965">
        <ele>77.82</ele>
        <time>2023-06-13T12:13:16.354Z</time>
      </trkpt>
      <trkpt lat="46.83139" lon="-0.00923">
        <ele>77.57</ele>
        <time>2023-06-13T12:14:00.217Z</time>
      </trkpt>
      <trkpt lat="46.83137" lon="-0.00914">
        <ele>77.52</ele>
        <time>2023-06-13T12:14:44.081Z</time>
      </trkpt>
      <trkpt lat="46.83138" lon="-0.00906">
        <ele>77.48</ele>
        <time>2023-06-13T12:15:27.946Z</time>
      </trkpt>
      <trkpt lat="46.83136" lon="-0.00888">
        <ele>77.39</ele>
        <time>2023-06-13T12:16:11.813Z</time>
      </trkpt>
      <trkpt lat="46.83134" lon="-0.00875">
        <ele>77.35</ele>
        <time>2023-06-13T12:16:55.681Z</time>
      </trkpt>
      <trkpt lat="46.83132" lon="-0.00862">
        <ele>77.34</ele>
        <time>2023-06-13T12:17:39.551Z</time>
      </trkpt>
      <trkpt lat="46.8313" lon="-0.00849">
        <ele>77.38</ele>
        <time>2023-06-13T12:18:23.422Z</time>
      </trkpt>
      <trkpt lat="46.83128" lon="-0.0083">
        <ele>77.56</ele>
        <time>2023-06-13T12:19:07.295Z</time>
      </trkpt>
      <trkpt lat="46.83127" lon="-0.00823">
        <ele>77.66</ele>
        <time>2023-06-13T12:19:51.169Z</time>
      </trkpt>
      <trkpt lat="46.83126" lon="-0.00817">
        <ele>77.79</ele>
        <time>2023-06-13T12:20:35.044Z</time>
      </trkpt>
      <trkpt lat="46.83125" lon="-0.00811">
        <ele>77.98</ele>
        <time>2023-06-13T12:21:18.920Z</time>
      </trkpt>
      <trkpt lat="46.83124" lon="-0.00804">
        <ele>78.24</ele>
        <time>2023-06-13T12:22:02.796Z</time>
      </trkpt>
      <trkpt lat="46.83124" lon="-0.00798">
        <ele>78.6</ele>
        <time>2023-06-13T12:22:46.673Z</time>
      </trkpt>
      <trkpt lat="46.83123" lon="-0.00791">
        <ele>79.05</ele>
        <time>2023-06-13T12:23:30.551Z</time>
      </trkpt>
      <trkpt lat="46.83121" lon="-0.00778">
        <ele>80.15</ele>
        <time>2023-06-13T12:24:14.430Z</time>
      </trkpt>
      <trkpt lat="46.83121" lon="-0.00778">
        <ele>80.15</ele>
        <time>2023-06-13T12:24:58.309Z</time>
      </trkpt>
      <trkpt lat="46.83121" lon="-0.00763">
        <ele>81.6</ele>
        <time>2023-06-13T12:25:42.190Z</time>
      </trkpt>
      <trkpt lat="46.83117" lon="-0.00754">
        <ele>82.6</ele>
        <time>2023-06-13T12:26:26.072Z</time>
      </trkpt>
      <trkpt lat="46.83108" lon="-0.00734">
        <ele>84.63</ele>
        <time>2023-06-13T12:27:09.957Z</time>
      </trkpt>
      <trkpt lat="46.83107" lon="-0.00725">
        <ele>85.36</ele>
        <time>2023-06-13T12:27:53.843Z</time>
      </trkpt>
      <trkpt lat="46.83107" lon="-0.00721">
        <ele>85.14</ele>
        <time>2023-06-13T12:28:37.729Z</time>
      </trkpt>
      <trkpt lat="46.83112" lon="-0.00702">
        <ele>84.14</ele>
        <time>2023-06-13T12:29:21.617Z</time>
      </trkpt>
      <trkpt lat="46.83129" lon="-0.00689">
        <ele>82.77</ele>
        <time>2023-06-13T12:30:05.508Z</time>
      </trkpt>
      <trkpt lat="46.83132" lon="-0.00685">
        <ele>82.47</ele>
        <time>2023-06-13T12:30:49.400Z</time>
      </trkpt>
      <trkpt lat="46.83131" lon="-0.00685">
        <ele>82.39</ele>
        <time>2023-06-13T12:31:33.292Z</time>
      </trkpt>
      <trkpt lat="46.83127" lon="-0.00686">
        <ele>82.07</ele>
        <time>2023-06-13T12:32:17.185Z</time>
      </trkpt>
      <trkpt lat="46.83118" lon="-0.00688">
        <ele>81.38</ele>
        <time>2023-06-13T12:33:01.079Z</time>
      </trkpt>
      <trkpt lat="46.831" lon="-0.00691">
        <ele>82.28</ele>
        <time>2023-06-13T12:33:44.976Z</time>
      </trkpt>
      <trkpt lat="46.83096" lon="-0.00691">
        <ele>82.46</ele>
        <time>2023-06-13T12:34:28.874Z</time>
      </trkpt>
      <trkpt lat="46.83092" lon="-0.00691">
        <ele>82.64</ele>
        <time>2023-06-13T12:35:12.773Z</time>
      </trkpt>
      <trkpt lat="46.83087" lon="-0.00691">
        <ele>82.79</ele>
        <time>2023-06-13T12:35:56.672Z</time>
      </trkpt>
      <trkpt lat="46.83078" lon="-0.00691">
        <ele>83.01</ele>
        <time>2023-06-13T12:36:40.573Z</time>
      </trkpt>
      <trkpt lat="46.83078" lon="-0.00691">
        <ele>83.01</ele>
        <time>2023-06-13T12:37:24.474Z</time>
      </trkpt>
      <trkpt lat="46.8306" lon="-0.00692">
        <ele>83.34</ele>
        <time>2023-06-13T12:38:08.378Z</time>
      </trkpt>
      <trkpt lat="46.83056" lon="-0.00693">
        <ele>83.39</ele>
        <time>2023-06-13T12:38:52.282Z</time>
      </trkpt>
      <trkpt lat="46.83053" lon="-0.00693">
        <ele>83.4</ele>
        <time>2023-06-13T12:39:36.187Z</time>
      </trkpt>
      <trkpt lat="46.83052" lon="-0.00694">
        <ele>83.42</ele>
        <time>2023-06-13T12:40:20.092Z</time>
      </trkpt>
      <trkpt lat="46.83047" lon="-0.00695">
        <ele>83.4</ele>
        <time>2023-06-13T12:41:03.998Z</time>
      </trkpt>
      <trkpt lat="46.83034" lon="-0.00701">
        <ele>83.28</ele>
        <time>2023-06-13T12:41:47.906Z</time>
      </trkpt>
      <trkpt lat="46.83021" lon="-0.00706">
        <ele>83.09</ele>
        <time>2023-06-13T12:42:31.816Z</time>
      </trkpt>
      <trkpt lat="46.83013" lon="-0.00709">
        <ele>83.04</ele>
        <time>2023-06-13T12:43:15.728Z</time>
      </trkpt>
      <trkpt lat="46.83011" lon="-0.0071">
        <ele>83.03</ele>
        <time>2023-06-13T12:43:59.640Z</time>
      </trkpt>
      <trkpt lat="46.82998" lon="-0.00724">
        <ele>82.98</ele>
        <time>2023-06-13T12:44:43.554Z</time>
      </trkpt>
      <trkpt lat="46.82978" lon="-0.00744">
        <ele>82.77</ele>
        <time>2023-06-13T12:45:27.472Z</time>
      </trkpt>
      <trkpt lat="46.82976" lon="-0.00746">
        <ele>82.75</ele>
        <time>2023-06-13T12:46:11.391Z</time>
      </trkpt>
      <trkpt lat="46.82968" lon="-0.00753">
        <ele>82.63</ele>
        <time>2023-06-13T12:46:55.311Z</time>
      </trkpt>
      <trkpt lat="46.82964" lon="-0.00756">
        <ele>82.53</ele>
        <time>2023-06-13T12:47:39.232Z</time>
      </trkpt>
      <trkpt lat="46.82953" lon="-0.00766">
        <ele>82.18</ele>
        <time>2023-06-13T12:48:23.155Z</time>
      </trkpt>
      <trkpt lat="46.82949" lon="-0.00769">
        <ele>82.05</ele>
        <time>2023-06-13T12:49:07.079Z</time>
      </trkpt>
      <trkpt lat="46.82945" lon="-0.00772">
        <ele>81.89</ele>
        <time>2023-06-13T12:49:51.003Z</time>
      </trkpt>
      <trkpt lat="46.82941" lon="-0.00776">
        <ele>81.69</ele>
        <time>2023-06-13T12:50:34.928Z</time>
      </trkpt>
      <trkpt lat="46.82937" lon="-0.00779">
        <ele>81.45</ele>
        <time>2023-06-13T12:51:18.854Z</time>
      </trkpt>
      <trkpt lat="46.82928" lon="-0.00787">
        <ele>80.79</ele>
        <time>2023-06-13T12:52:02.782Z</time>
      </trkpt>
      <trkpt lat="46.82923" lon="-0.00795">
        <ele>80.35</ele>
        <time>2023-06-13T12:52:46.711Z</time>
      </trkpt>
      <trkpt lat="46.8292" lon="-0.00799">
        <ele>80.1</ele>
        <time>2023-06-13T12:53:30.640Z</time>
      </trkpt>
      <trkpt lat="46.82917" lon="-0.00804">
        <ele>79.89</ele>
        <time>2023-06-13T12:54:14.570Z</time>
      </trkpt>
      <trkpt lat="46.82917" lon="-0.00804">
        <ele>79.89</ele>
        <time>2023-06-13T12:54:58.500Z</time>
      </trkpt>
      <trkpt lat="46.82915" lon="-0.0081">
        <ele>79.71</ele>
        <time>2023-06-13T12:55:42.431Z</time>
      </trkpt>
      <trkpt lat="46.82907" lon="-0.00834">
        <ele>79.07</ele>
        <time>2023-06-13T12:56:26.365Z</time>
      </trkpt>
      <trkpt lat="46.82907" lon="-0.00834">
        <ele>79.07</ele>
        <time>2023-06-13T12:57:10.299Z</time>
      </trkpt>
      <trkpt lat="46.82907" lon="-0.00847">
        <ele>78.7</ele>
        <time>2023-06-13T12:57:54.234Z</time>
      </trkpt>
      <trkpt lat="46.82907" lon="-0.00853">
        <ele>78.53</ele>
        <time>2023-06-13T12:58:38.170Z</time>
      </trkpt>
      <trkpt lat="46.82907" lon="-0.0086">
        <ele>78.41</ele>
        <time>2023-06-13T12:59:22.107Z</time>
      </trkpt>
      <trkpt lat="46.82907" lon="-0.00866">
        <ele>78.33</ele>
        <time>2023-06-13T13:00:06.044Z</time>
      </trkpt>
      <trkpt lat="46.82908" lon="-0.00879">
        <ele>78.24</ele>
        <time>2023-06-13T13:00:49.983Z</time>
      </trkpt>
      <trkpt lat="46.82908" lon="-0.00906">
        <ele>78.13</ele>
        <time>2023-06-13T13:01:33.925Z</time>
      </trkpt>
      <trkpt lat="46.82908" lon="-0.00906">
        <ele>78.13</ele>
        <time>2023-06-13T13:02:17.867Z</time>
      </trkpt>
      <trkpt lat="46.8291" lon="-0.00945">
        <ele>78.07</ele>
        <time>2023-06-13T13:03:01.813Z</time>
      </trkpt>
      <trkpt lat="46.82911" lon="-0.00957">
        <ele>78</ele>
        <time>2023-06-13T13:03:45.760Z</time>
      </trkpt>
      <trkpt lat="46.82911" lon="-0.00958">
        <ele>78</ele>
        <time>2023-06-13T13:04:29.707Z</time>
      </trkpt>
      <trkpt lat="46.82908" lon="-0.00977">
        <ele>77.86</ele>
        <time>2023-06-13T13:05:13.657Z</time>
      </trkpt>
      <trkpt lat="46.82907" lon="-0.00983">
        <ele>77.84</ele>
        <time>2023-06-13T13:05:57.607Z</time>
      </trkpt>
      <trkpt lat="46.82904" lon="-0.01003">
        <ele>77.84</ele>
        <time>2023-06-13T13:06:41.560Z</time>
      </trkpt>
      <trkpt lat="46.82902" lon="-0.01008">
        <ele>77.85</ele>
        <time>2023-06-13T13:07:25.513Z</time>
      </trkpt>
      <trkpt lat="46.82895" lon="-0.01025">
        <ele>77.94</ele>
        <time>2023-06-13T13:08:09.468Z</time>
      </trkpt>
      <trkpt lat="46.82884" lon="-0.01053">
        <ele>78.05</ele>
        <time>2023-06-13T13:08:53.427Z</time>
      </trkpt>
      <trkpt lat="46.8288" lon="-0.01065">
        <ele>78.14</ele>
        <time>2023-06-13T13:09:37.387Z</time>
      </trkpt>
      <trkpt lat="46.82873" lon="-0.01082">
        <ele>78.36</ele>
        <time>2023-06-13T13:10:21.349Z</time>
      </trkpt>
      <trkpt lat="46.82864" lon="-0.01104">
        <ele>78.73</ele>
        <time>2023-06-13T13:11:05.314Z</time>
      </trkpt>
      <trkpt lat="46.82855" lon="-0.01127">
        <ele>79.07</ele>
        <time>2023-06-13T13:11:49.282Z</time>
      </trkpt>
      <trkpt lat="46.82848" lon="-0.01145">
        <ele>79.28</ele>
        <time>2023-06-13T13:12:33.252Z</time>
      </trkpt>
      <trkpt lat="46.82821" lon="-0.01196">
        <ele>79.94</ele>
        <time>2023-06-13T13:13:17.230Z</time>
      </trkpt>
      <trkpt lat="46.82808" lon="-0.01222">
        <ele>80.31</ele>
        <time>2023-06-13T13:14:01.211Z</time>
      </trkpt>
      <trkpt lat="46.82806" lon="-0.01225">
        <ele>80.34</ele>
        <time>2023-06-13T13:14:45.193Z</time>
      </trkpt>
      <trkpt lat="46.82784" lon="-0.01259">
        <ele>80.74</ele>
        <time>2023-06-13T13:15:29.180Z</time>
      </trkpt>
      <trkpt lat="46.82779" lon="-0.01264">
        <ele>80.82</ele>
        <time>2023-06-13T13:16:13.168Z</time>
      </trkpt>
      <trkpt lat="46.82772" lon="-0.01271">
        <ele>80.9</ele>
        <time>2023-06-13T13:16:57.157Z</time>
      </trkpt>
      <trkpt lat="46.82757" lon="-0.01286">
        <ele>80.99</ele>
        <time>2023-06-13T13:17:41.149Z</time>
      </trkpt>
      <trkpt lat="46.82754" lon="-0.01289">
        <ele>81.03</ele>
        <time>2023-06-13T13:18:25.142Z</time>
      </trkpt>
      <trkpt lat="46.8275" lon="-0.01293">
        <ele>81.1</ele>
        <time>2023-06-13T13:19:09.135Z</time>
      </trkpt>
      <trkpt lat="46.82746" lon="-0.01297">
        <ele>81.21</ele>
        <time>2023-06-13T13:19:53.129Z</time>
      </trkpt>
      <trkpt lat="46.82742" lon="-0.01301">
        <ele>81.37</ele>
        <time>2023-06-13T13:20:37.124Z</time>
      </trkpt>
      <trkpt lat="46.82735" lon="-0.01308">
        <ele>81.74</ele>
        <time>2023-06-13T13:21:21.120Z</time>
      </trkpt>
      <trkpt lat="46.82731" lon="-0.01312">
        <ele>81.9</ele>
        <time>2023-06-13T13:22:05.117Z</time>
      </trkpt>
      <trkpt lat="46.82724" lon="-0.01319">
        <ele>82.15</ele>
        <time>2023-06-13T13:22:49.115Z</time>
      </trkpt>
      <trkpt lat="46.8272" lon="-0.01323">
        <ele>82.25</ele>
        <time>2023-06-13T13:23:33.114Z</time>
      </trkpt>
      <trkpt lat="46.82708" lon="-0.01331">
        <ele>82.55</ele>
        <time>2023-06-13T13:24:17.115Z</time>
      </trkpt>
      <trkpt lat="46.827" lon="-0.01337">
        <ele>82.69</ele>
        <time>2023-06-13T13:25:01.118Z</time>
      </trkpt>
      <trkpt lat="46.82692" lon="-0.01343">
        <ele>82.8</ele>
        <time>2023-06-13T13:25:45.122Z</time>
      </trkpt>
      <trkpt lat="46.82688" lon="-0.01346">
        <ele>82.86</ele>
        <time>2023-06-13T13:26:29.127Z</time>
      </trkpt>
      <trkpt lat="46.8268" lon="-0.01352">
        <ele>82.82</ele>
        <time>2023-06-13T13:27:13.133Z</time>
      </trkpt>
      <trkpt lat="46.82673" lon="-0.01358">
        <ele>82.81</ele>
        <time>2023-06-13T13:27:57.141Z</time>
      </trkpt>
      <trkpt lat="46.82657" lon="-0.0137">
        <ele>82.88</ele>
        <time>2023-06-13T13:28:41.151Z</time>
      </trkpt>
      <trkpt lat="46.82653" lon="-0.01373">
        <ele>82.88</ele>
        <time>2023-06-13T13:29:25.162Z</time>
      </trkpt>
      <trkpt lat="46.82644" lon="-0.01377">
        <ele>82.9</ele>
        <time>2023-06-13T13:30:09.175Z</time>
      </trkpt>
      <trkpt lat="46.82598" lon="-0.01397">
        <ele>83.19</ele>
        <time>2023-06-13T13:30:53.195Z</time>
      </trkpt>
      <trkpt lat="46.82585" lon="-0.01403">
        <ele>83.24</ele>
        <time>2023-06-13T13:31:37.218Z</time>
      </trkpt>
      <trkpt lat="46.82572" lon="-0.01409">
        <ele>83.23</ele>
        <time>2023-06-13T13:32:21.243Z</time>
      </trkpt>
      <trkpt lat="46.82551" lon="-0.01418">
        <ele>83.17</ele>
        <time>2023-06-13T13:33:05.271Z</time>
      </trkpt>
      <trkpt lat="46.82546" lon="-0.0142">
        <ele>83.17</ele>
        <time>2023-06-13T13:33:49.300Z</time>
      </trkpt>
      <trkpt lat="46.82542" lon="-0.01422">
        <ele>83.17</ele>
        <time>2023-06-13T13:34:33.330Z</time>
      </trkpt>
      <trkpt lat="46.82525" lon="-0.0143">
        <ele>83.28</ele>
        <time>2023-06-13T13:35:17.363Z</time>
      </trkpt>
      <trkpt lat="46.82508" lon="-0.01438">
        <ele>83.32</ele>
        <time>2023-06-13T13:36:01.398Z</time>
      </trkpt>
      <trkpt lat="46.82491" lon="-0.01446">
        <ele>83.49</ele>
        <time>2023-06-13T13:36:45.436Z</time>
      </trkpt>
      <trkpt lat="46.82466" lon="-0.01458">
        <ele>83.67</ele>
        <time>2023-06-13T13:37:29.479Z</time>
      </trkpt>
      <trkpt lat="46.82462" lon="-0.0146">
        <ele>83.67</ele>
        <time>2023-06-13T13:38:13.522Z</time>
      </trkpt>
      <trkpt lat="46.82457" lon="-0.01462">
        <ele>83.63</ele>
        <time>2023-06-13T13:38:57.566Z</time>
      </trkpt>
      <trkpt lat="46.8245" lon="-0.01467">
        <ele>83.57</ele>
        <time>2023-06-13T13:39:41.611Z</time>
      </trkpt>
      <trkpt lat="46.82445" lon="-0.0147">
        <ele>83.56</ele>
        <time>2023-06-13T13:40:25.657Z</time>
      </trkpt>
      <trkpt lat="46.82442" lon="-0.01473">
        <ele>83.56</ele>
        <time>2023-06-13T13:41:09.704Z</time>
      </trkpt>
      <trkpt lat="46.82429" lon="-0.01482">
        <ele>83.64</ele>
        <time>2023-06-13T13:41:53.753Z</time>
      </trkpt>
      <trkpt lat="46.82426" lon="-0.01484">
        <ele>83.65</ele>
        <time>2023-06-13T13:42:37.803Z</time>
      </trkpt>
      <trkpt lat="46.82401" lon="-0.01501">
        <ele>83.53</ele>
        <time>2023-06-13T13:43:21.857Z</time>
      </trkpt>
      <trkpt lat="46.82398" lon="-0.01504">
        <ele>83.49</ele>
        <time>2023-06-13T13:44:05.912Z</time>
      </trkpt>
      <trkpt lat="46.82385" lon="-0.01513">
        <ele>83.3</ele>
        <time>2023-06-13T13:44:49.969Z</time>
      </trkpt>
      <trkpt lat="46.82382" lon="-0.01516">
        <ele>83.27</ele>
        <time>2023-06-13T13:45:34.026Z</time>
      </trkpt>
      <trkpt lat="46.82377" lon="-0.01519">
        <ele>83.27</ele>
        <time>2023-06-13T13:46:18.084Z</time>
      </trkpt>
      <trkpt lat="46.82374" lon="-0.01521">
        <ele>83.3</ele>
        <time>2023-06-13T13:47:02.143Z</time>
      </trkpt>
      <trkpt lat="46.82357" lon="-0.01533">
        <ele>83.51</ele>
        <time>2023-06-13T13:47:46.205Z</time>
      </trkpt>
      <trkpt lat="46.82325" lon="-0.01556">
        <ele>83.73</ele>
        <time>2023-06-13T13:48:30.272Z</time>
      </trkpt>
      <trkpt lat="46.82313" lon="-0.01564">
        <ele>83.91</ele>
        <time>2023-06-13T13:49:14.342Z</time>
      </trkpt>
      <trkpt lat="46.82309" lon="-0.01567">
        <ele>83.95</ele>
        <time>2023-06-13T13:49:58.412Z</time>
      </trkpt>
      <trkpt lat="46.82301" lon="-0.01573">
        <ele>83.97</ele>
        <time>2023-06-13T13:50:42.484Z</time>
      </trkpt>
      <trkpt lat="46.82301" lon="-0.01573">
        <ele>83.97</ele>
        <time>2023-06-13T13:51:26.556Z</time>
      </trkpt>
      <trkpt lat="46.82297" lon="-0.01579">
        <ele>83.9</ele>
        <time>2023-06-13T13:52:10.629Z</time>
      </trkpt>
      <trkpt lat="46.82294" lon="-0.0158">
        <ele>83.87</ele>
        <time>2023-06-13T13:52:54.702Z</time>
      </trkpt>
      <trkpt lat="46.8229" lon="-0.01582">
        <ele>83.78</ele>
        <time>2023-06-13T13:53:38.776Z</time>
      </trkpt>
      <trkpt lat="46.82285" lon="-0.01583">
        <ele>83.64</ele>
        <time>2023-06-13T13:54:22.851Z</time>
      </trkpt>
      <trkpt lat="46.82283" lon="-0.01584">
        <ele>83.54</ele>
        <time>2023-06-13T13:55:06.926Z</time>
      </trkpt>
      <trkpt lat="46.82281" lon="-0.01585">
        <ele>83.47</ele>
        <time>2023-06-13T13:55:51.001Z</time>
      </trkpt>
      <trkpt lat="46.82269" lon="-0.01594">
        <ele>82.89</ele>
        <time>2023-06-13T13:56:35.079Z</time>
      </trkpt>
      <trkpt lat="46.82265" lon="-0.01597">
        <ele>82.74</ele>
        <time>2023-06-13T13:57:19.157Z</time>
      </trkpt>
      <trkpt lat="46.82261" lon="-0.016">
        <ele>82.62</ele>
        <time>2023-06-13T13:58:03.236Z</time>
      </trkpt>
      <trkpt lat="46.82253" lon="-0.01606">
        <ele>82.44</ele>
        <time>2023-06-13T13:58:47.316Z</time>
      </trkpt>
      <trkpt lat="46.82241" lon="-0.01615">
        <ele>82.25</ele>
        <time>2023-06-13T13:59:31.399Z</time>
      </trkpt>
      <trkpt lat="46.82233" lon="-0.01621">
        <ele>82.18</ele>
        <time>2023-06-13T14:00:15.483Z</time>
      </trkpt>
      <trkpt lat="46.8223" lon="-0.01624">
        <ele>82.18</ele>
        <time>2023-06-13T14:00:59.568Z</time>
      </trkpt>
      <trkpt lat="46.82221" lon="-0.01629">
        <ele>82.2</ele>
        <time>2023-06-13T14:01:43.654Z</time>
      </trkpt>
      <trkpt lat="46.82214" lon="-0.01634">
        <ele>82.18</ele>
        <time>2023-06-13T14:02:27.741Z</time>
      </trkpt>
      <trkpt lat="46.82213" lon="-0.01634">
        <ele>82.18</ele>
        <time>2023-06-13T14:03:11.829Z</time>
      </trkpt>
      <trkpt lat="46.82192" lon="-0.01644">
        <ele>81.99</ele>
        <time>2023-06-13T14:03:55.920Z</time>
      </trkpt>
      <trkpt lat="46.82182" lon="-0.01649">
        <ele>81.91</ele>
        <time>2023-06-13T14:04:40.013Z</time>
      </trkpt>
      <trkpt lat="46.82156" lon="-0.01648">
        <ele>81.72</ele>
        <time>2023-06-13T14:05:24.110Z</time>
      </trkpt>
      <trkpt lat="46.82152" lon="-0.01648">
        <ele>81.71</ele>
        <time>2023-06-13T14:06:08.208Z</time>
      </trkpt>
      <trkpt lat="46.82143" lon="-0.01648">
        <ele>81.7</ele>
        <time>2023-06-13T14:06:52.307Z</time>
      </trkpt>
      <trkpt lat="46.82125" lon="-0.01647">
        <ele>81.73</ele>
        <time>2023-06-13T14:07:36.409Z</time>
      </trkpt>
      <trkpt lat="46.82116" lon="-0.01647">
        <ele>81.68</ele>
        <time>2023-06-13T14:08:20.512Z</time>
      </trkpt>
      <trkpt lat="46.82109" lon="-0.01647">
        <ele>81.61</ele>
        <time>2023-06-13T14:09:04.616Z</time>
      </trkpt>
      <trkpt lat="46.82111" lon="-0.01647">
        <ele>81.59</ele>
        <time>2023-06-13T14:09:48.721Z</time>
      </trkpt>
      <trkpt lat="46.82107" lon="-0.01646">
        <ele>81.55</ele>
        <time>2023-06-13T14:10:32.827Z</time>
      </trkpt>
      <trkpt lat="46.82098" lon="-0.01643">
        <ele>81.44</ele>
        <time>2023-06-13T14:11:16.934Z</time>
      </trkpt>
      <trkpt lat="46.82089" lon="-0.0164">
        <ele>81.28</ele>
        <time>2023-06-13T14:12:01.042Z</time>
      </trkpt>
      <trkpt lat="46.82072" lon="-0.01634">
        <ele>80.9</ele>
        <time>2023-06-13T14:12:45.153Z</time>
      </trkpt>
      <trkpt lat="46.8207" lon="-0.01633">
        <ele>80.87</ele>
        <time>2023-06-13T14:13:29.265Z</time>
      </trkpt>
      <trkpt lat="46.82063" lon="-0.01629">
        <ele>80.76</ele>
        <time>2023-06-13T14:14:13.378Z</time>
      </trkpt>
      <trkpt lat="46.82055" lon="-0.01625">
        <ele>80.68</ele>
        <time>2023-06-13T14:14:57.492Z</time>
      </trkpt>
      <trkpt lat="46.82046" lon="-0.0162">
        <ele>80.69</ele>
        <time>2023-06-13T14:15:41.608Z</time>
      </trkpt>
      <trkpt lat="46.8203" lon="-0.01611">
        <ele>80.83</ele>
        <time>2023-06-13T14:16:25.726Z</time>
      </trkpt>
      <trkpt lat="46.82025" lon="-0.01608">
        <ele>80.85</ele>
        <time>2023-06-13T14:17:09.845Z</time>
      </trkpt>
      <trkpt lat="46.82017" lon="-0.01604">
        <ele>80.84</ele>
        <time>2023-06-13T14:17:53.966Z</time>
      </trkpt>
      <trkpt lat="46.82005" lon="-0.01597">
        <ele>80.79</ele>
        <time>2023-06-13T14:18:38.089Z</time>
      </trkpt>
      <trkpt lat="46.82001" lon="-0.01594">
        <ele>80.78</ele>
        <time>2023-06-13T14:19:22.212Z</time>
      </trkpt>
      <trkpt lat="46.81989" lon="-0.01585">
        <ele>80.7</ele>
        <time>2023-06-13T14:20:06.338Z</time>
      </trkpt>
      <trkpt lat="46.81973" lon="-0.01573">
        <ele>80.66</ele>
        <time>2023-06-13T14:20:50.466Z</time>
      </trkpt>
      <trkpt lat="46.81969" lon="-0.01568">
        <ele>80.65</ele>
        <time>2023-06-13T14:21:34.595Z</time>
      </trkpt>
      <trkpt lat="46.81957" lon="-0.01552">
        <ele>80.54</ele>
        <time>2023-06-13T14:22:18.727Z</time>
      </trkpt>
      <trkpt lat="46.81956" lon="-0.0155">
        <ele>80.54</ele>
        <time>2023-06-13T14:23:02.859Z</time>
      </trkpt>
      <trkpt lat="46.81948" lon="-0.01527">
        <ele>80.48</ele>
        <time>2023-06-13T14:23:46.994Z</time>
      </trkpt>
      <trkpt lat="46.81947" lon="-0.01526">
        <ele>80.47</ele>
        <time>2023-06-13T14:24:31.129Z</time>
      </trkpt>
      <trkpt lat="46.81948" lon="-0.01515">
        <ele>80.42</ele>
        <time>2023-06-13T14:25:15.265Z</time>
      </trkpt>
      <trkpt lat="46.81948" lon="-0.01513">
        <ele>80.4</ele>
        <time>2023-06-13T14:25:59.402Z</time>
      </trkpt>
      <trkpt lat="46.81949" lon="-0.01508">
        <ele>80.36</ele>
        <time>2023-06-13T14:26:43.539Z</time>
      </trkpt>
      <trkpt lat="46.81952" lon="-0.01496">
        <ele>80.19</ele>
        <time>2023-06-13T14:27:27.678Z</time>
      </trkpt>
      <trkpt lat="46.81952" lon="-0.01496">
        <ele>80.19</ele>
        <time>2023-06-13T14:28:11.817Z</time>
      </trkpt>
      <trkpt lat="46.81969" lon="-0.01466">
        <ele>79.45</ele>
        <time>2023-06-13T14:28:55.960Z</time>
      </trkpt>
      <trkpt lat="46.81975" lon="-0.01456">
        <ele>79.25</ele>
        <time>2023-06-13T14:29:40.104Z</time>
      </trkpt>
      <trkpt lat="46.81978" lon="-0.01451">
        <ele>79.17</ele>
        <time>2023-06-13T14:30:24.249Z</time>
      </trkpt>
      <trkpt lat="46.81984" lon="-0.01441">
        <ele>79.05</ele>
        <time>2023-06-13T14:31:08.395Z</time>
      </trkpt>
      <trkpt lat="46.8199" lon="-0.01432">
        <ele>78.95</ele>
        <time>2023-06-13T14:31:52.543Z</time>
      </trkpt>
      <trkpt lat="46.81994" lon="-0.01428">
        <ele>78.93</ele>
        <time>2023-06-13T14:32:36.692Z</time>
      </trkpt>
      <trkpt lat="46.82" lon="-0.01418">
        <ele>78.92</ele>
        <time>2023-06-13T14:33:20.842Z</time>
      </trkpt>
      <trkpt lat="46.82003" lon="-0.01414">
        <ele>78.95</ele>
        <time>2023-06-13T14:34:04.993Z</time>
      </trkpt>
      <trkpt lat="46.8201" lon="-0.01405">
        <ele>79.09</ele>
        <time>2023-06-13T14:34:49.145Z</time>
      </trkpt>
      <trkpt lat="46.82016" lon="-0.01396">
        <ele>79.33</ele>
        <time>2023-06-13T14:35:33.299Z</time>
      </trkpt>
      <trkpt lat="46.82023" lon="-0.01387">
        <ele>79.61</ele>
        <time>2023-06-13T14:36:17.454Z</time>
      </trkpt>
      <trkpt lat="46.82033" lon="-0.01373">
        <ele>80.14</ele>
        <time>2023-06-13T14:37:01.611Z</time>
      </trkpt>
      <trkpt lat="46.82036" lon="-0.01369">
        <ele>80.3</ele>
        <time>2023-06-13T14:37:45.769Z</time>
      </trkpt>
      <trkpt lat="46.82042" lon="-0.01362">
        <ele>80.37</ele>
        <time>2023-06-13T14:38:29.928Z</time>
      </trkpt>
      <trkpt lat="46.82061" lon="-0.0134">
        <ele>80.48</ele>
        <time>2023-06-13T14:39:14.091Z</time>
      </trkpt>
      <trkpt lat="46.82072" lon="-0.01328">
        <ele>79.9</ele>
        <time>2023-06-13T14:39:58.256Z</time>
      </trkpt>
      <trkpt lat="46.82072" lon="-0.01328">
        <ele>79.9</ele>
        <time>2023-06-13T14:40:42.421Z</time>
      </trkpt>
      <trkpt lat="46.82069" lon="-0.01324">
        <ele>79.72</ele>
        <time>2023-06-13T14:41:26.587Z</time>
      </trkpt>
      <trkpt lat="46.82063" lon="-0.01316">
        <ele>79.45</ele>
        <time>2023-06-13T14:42:10.754Z</time>
      </trkpt>
      <trkpt lat="46.8205" lon="-0.01298">
        <ele>79</ele>
        <time>2023-06-13T14:42:54.924Z</time>
      </trkpt>
      <trkpt lat="46.82049" lon="-0.01297">
        <ele>78.97</ele>
        <time>2023-06-13T14:43:39.094Z</time>
      </trkpt>
      <trkpt lat="46.82028" lon="-0.01277">
        <ele>78.48</ele>
        <time>2023-06-13T14:44:23.268Z</time>
      </trkpt>
      <trkpt lat="46.82025" lon="-0.01273">
        <ele>78.41</ele>
        <time>2023-06-13T14:45:07.443Z</time>
      </trkpt>
      <trkpt lat="46.82021" lon="-0.0127">
        <ele>78.38</ele>
        <time>2023-06-13T14:45:51.619Z</time>
      </trkpt>
      <trkpt lat="46.82017" lon="-0.01266">
        <ele>78.4</ele>
        <time>2023-06-13T14:46:35.795Z</time>
      </trkpt>
      <trkpt lat="46.82014" lon="-0.01262">
        <ele>78.45</ele>
        <time>2023-06-13T14:47:19.972Z</time>
      </trkpt>
      <trkpt lat="46.82009" lon="-0.01258">
        <ele>79.04</ele>
        <time>2023-06-13T14:48:04.150Z</time>
      </trkpt>
      <trkpt lat="46.82006" lon="-0.01257">
        <ele>79.38</ele>
        <time>2023-06-13T14:48:48.329Z</time>
      </trkpt>
      <trkpt lat="46.81997" lon="-0.01255">
        <ele>80.34</ele>
        <time>2023-06-13T14:49:32.509Z</time>
      </trkpt>
      <trkpt lat="46.81972" lon="-0.01247">
        <ele>83.34</ele>
        <time>2023-06-13T14:50:16.693Z</time>
      </trkpt>
      <trkpt lat="46.8197" lon="-0.01247">
        <ele>83.5</ele>
        <time>2023-06-13T14:51:00.877Z</time>
      </trkpt>
      <trkpt lat="46.81963" lon="-0.01249">
        <ele>84.28</ele>
        <time>2023-06-13T14:51:45.063Z</time>
      </trkpt>
      <trkpt lat="46.81945" lon="-0.01252">
        <ele>86.38</ele>
        <time>2023-06-13T14:52:29.251Z</time>
      </trkpt>
      <trkpt lat="46.81941" lon="-0.01253">
        <ele>86.88</ele>
        <time>2023-06-13T14:53:13.440Z</time>
      </trkpt>
      <trkpt lat="46.81927" lon="-0.01256">
        <ele>88.31</ele>
        <time>2023-06-13T14:53:57.631Z</time>
      </trkpt>
      <trkpt lat="46.81923" lon="-0.01255">
        <ele>88.75</ele>
        <time>2023-06-13T14:54:41.823Z</time>
      </trkpt>
      <trkpt lat="46.81919" lon="-0.01254">
        <ele>89.18</ele>
        <time>2023-06-13T14:55:26.016Z</time>
      </trkpt>
      <trkpt lat="46.81919" lon="-0.01254">
        <ele>89.18</ele>
        <time>2023-06-13T14:56:10.209Z</time>
      </trkpt>
      <trkpt lat="46.81915" lon="-0.0125">
        <ele>89.57</ele>
        <time>2023-06-13T14:56:54.402Z</time>
      </trkpt>
      <trkpt lat="46.81911" lon="-0.01245">
        <ele>89.92</ele>
        <time>2023-06-13T14:57:38.596Z</time>
      </trkpt>
      <trkpt lat="46.81911" lon="-0.01245">
        <ele>89.92</ele>
        <time>2023-06-13T14:58:22.790Z</time>
      </trkpt>
      <trkpt lat="46.8191" lon="-0.0124">
        <ele>90.21</ele>
        <time>2023-06-13T14:59:06.985Z</time>
      </trkpt>
      <trkpt lat="46.81906" lon="-0.0122">
        <ele>91.02</ele>
        <time>2023-06-13T14:59:51.182Z</time>
      </trkpt>
      <trkpt lat="46.81906" lon="-0.0122">
        <ele>91.02</ele>
        <time>2023-06-13T15:00:35.379Z</time>
      </trkpt>
      <trkpt lat="46.81904" lon="-0.01215">
        <ele>91.32</ele>
        <time>2023-06-13T15:01:19.577Z</time>
      </trkpt>
      <trkpt lat="46.81897" lon="-0.01198">
        <ele>92.3</ele>
        <time>2023-06-13T15:02:03.777Z</time>
      </trkpt>
      <trkpt lat="46.81894" lon="-0.01194">
        <ele>92.6</ele>
        <time>2023-06-13T15:02:47.978Z</time>
      </trkpt>
      <trkpt lat="46.81888" lon="-0.01184">
        <ele>93.19</ele>
        <time>2023-06-13T15:03:32.180Z</time>
      </trkpt>
      <trkpt lat="46.81885" lon="-0.0118">
        <ele>93.46</ele>
        <time>2023-06-13T15:04:16.383Z</time>
      </trkpt>
      <trkpt lat="46.81878" lon="-0.01171">
        <ele>93.94</ele>
        <time>2023-06-13T15:05:00.587Z</time>
      </trkpt>
      <trkpt lat="46.81875" lon="-0.01166">
        <ele>94.14</ele>
        <time>2023-06-13T15:05:44.792Z</time>
      </trkpt>
      <trkpt lat="46.81863" lon="-0.01146">
        <ele>94.94</ele>
        <time>2023-06-13T15:06:29.000Z</time>
      </trkpt>
      <trkpt lat="46.81858" lon="-0.01136">
        <ele>95.42</ele>
        <time>2023-06-13T15:07:13.209Z</time>
      </trkpt>
      <trkpt lat="46.81852" lon="-0.01126">
        <ele>95.95</ele>
        <time>2023-06-13T15:07:57.420Z</time>
      </trkpt>
      <trkpt lat="46.81849" lon="-0.01121">
        <ele>96.19</ele>
        <time>2023-06-13T15:08:41.631Z</time>
      </trkpt>
      <trkpt lat="46.81846" lon="-0.01116">
        <ele>96.4</ele>
        <time>2023-06-13T15:09:25.843Z</time>
      </trkpt>
      <trkpt lat="46.81843" lon="-0.01111">
        <ele>96.55</ele>
        <time>2023-06-13T15:10:10.056Z</time>
      </trkpt>
      <trkpt lat="46.8184" lon="-0.01106">
        <ele>96.65</ele>
        <time>2023-06-13T15:10:54.269Z</time>
      </trkpt>
      <trkpt lat="46.81837" lon="-0.01101">
        <ele>96.7</ele>
        <time>2023-06-13T15:11:38.483Z</time>
      </trkpt>
      <trkpt lat="46.81829" lon="-0.01087">
        <ele>96.76</ele>
        <time>2023-06-13T15:12:22.699Z</time>
      </trkpt>
      <trkpt lat="46.81826" lon="-0.01082">
        <ele>96.8</ele>
        <time>2023-06-13T15:13:06.916Z</time>
      </trkpt>
      <trkpt lat="46.81817" lon="-0.01067">
        <ele>96.97</ele>
        <time>2023-06-13T15:13:51.135Z</time>
      </trkpt>
      <trkpt lat="46.81811" lon="-0.01057">
        <ele>97.02</ele>
        <time>2023-06-13T15:14:35.356Z</time>
      </trkpt>
      <trkpt lat="46.81808" lon="-0.01052">
        <ele>97.02</ele>
        <time>2023-06-13T15:15:19.577Z</time>
      </trkpt>
      <trkpt lat="46.81803" lon="-0.01042">
        <ele>96.98</ele>
        <time>2023-06-13T15:16:03.800Z</time>
      </trkpt>
      <trkpt lat="46.81797" lon="-0.01032">
        <ele>96.86</ele>
        <time>2023-06-13T15:16:48.024Z</time>
      </trkpt>
      <trkpt lat="46.81788" lon="-0.01017">
        <ele>96.59</ele>
        <time>2023-06-13T15:17:32.250Z</time>
      </trkpt>
      <trkpt lat="46.81782" lon="-0.01007">
        <ele>96.37</ele>
        <time>2023-06-13T15:18:16.478Z</time>
      </trkpt>
      <trkpt lat="46.81779" lon="-0.01002">
        <ele>96.23</ele>
        <time>2023-06-13T15:19:00.707Z</time>
      </trkpt>
      <trkpt lat="46.81777" lon="-0.00997">
        <ele>96.07</ele>
        <time>2023-06-13T15:19:44.936Z</time>
      </trkpt>
      <trkpt lat="46.81771" lon="-0.00987">
        <ele>95.69</ele>
        <time>2023-06-13T15:20:29.167Z</time>
      </trkpt>
      <trkpt lat="46.81762" lon="-0.00972">
        <ele>95.04</ele>
        <time>2023-06-13T15:21:13.400Z</time>
      </trkpt>
      <trkpt lat="46.81748" lon="-0.00948">
        <ele>93.99</ele>
        <time>2023-06-13T15:21:57.636Z</time>
      </trkpt>
      <trkpt lat="46.81745" lon="-0.00943">
        <ele>93.75</ele>
        <time>2023-06-13T15:22:41.873Z</time>
      </trkpt>
      <trkpt lat="46.81739" lon="-0.00933">
        <ele>93.19</ele>
        <time>2023-06-13T15:23:26.112Z</time>
      </trkpt>
      <trkpt lat="46.81736" lon="-0.00928">
        <ele>92.86</ele>
        <time>2023-06-13T15:24:10.351Z</time>
      </trkpt>
      <trkpt lat="46.81733" lon="-0.00923">
        <ele>92.51</ele>
        <time>2023-06-13T15:24:54.591Z</time>
      </trkpt>
      <trkpt lat="46.81724" lon="-0.00908">
        <ele>91.34</ele>
        <time>2023-06-13T15:25:38.833Z</time>
      </trkpt>
      <trkpt lat="46.81722" lon="-0.00903">
        <ele>90.93</ele>
        <time>2023-06-13T15:26:23.076Z</time>
      </trkpt>
      <trkpt lat="46.81713" lon="-0.00888">
        <ele>89.52</ele>
        <time>2023-06-13T15:27:07.321Z</time>
      </trkpt>
      <trkpt lat="46.81701" lon="-0.00868">
        <ele>87.7</ele>
        <time>2023-06-13T15:27:51.569Z</time>
      </trkpt>
      <trkpt lat="46.81698" lon="-0.00863">
        <ele>87.27</ele>
        <time>2023-06-13T15:28:35.818Z</time>
      </trkpt>
      <trkpt lat="46.81696" lon="-0.00859">
        <ele>86.93</ele>
        <time>2023-06-13T15:29:20.067Z</time>
      </trkpt>
      <trkpt lat="46.81683" lon="-0.00849">
        <ele>85.64</ele>
        <time>2023-06-13T15:30:04.318Z</time>
      </trkpt>
      <trkpt lat="46.81679" lon="-0.00846">
        <ele>85.15</ele>
        <time>2023-06-13T15:30:48.570Z</time>
      </trkpt>
      <trkpt lat="46.81673" lon="-0.00838">
        <ele>84.36</ele>
        <time>2023-06-13T15:31:32.824Z</time>
      </trkpt>
      <trkpt lat="46.81663" lon="-0.00825">
        <ele>83.71</ele>
        <time>2023-06-13T15:32:17.080Z</time>
      </trkpt>
      <trkpt lat="46.8166" lon="-0.00821">
        <ele>83.53</ele>
        <time>2023-06-13T15:33:01.336Z</time>
      </trkpt>
      <trkpt lat="46.81657" lon="-0.00817">
        <ele>83.39</ele>
        <time>2023-06-13T15:33:45.593Z</time>
      </trkpt>
      <trkpt lat="46.81653" lon="-0.00812">
        <ele>83.32</ele>
        <time>2023-06-13T15:34:29.851Z</time>
      </trkpt>
      <trkpt lat="46.8165" lon="-0.00808">
        <ele>83.3</ele>
        <time>2023-06-13T15:35:14.109Z</time>
      </trkpt>
      <trkpt lat="46.81647" lon="-0.00804">
        <ele>83.31</ele>
        <time>2023-06-13T15:35:58.368Z</time>
      </trkpt>
      <trkpt lat="46.81637" lon="-0.00791">
        <ele>83.44</ele>
        <time>2023-06-13T15:36:42.629Z</time>
      </trkpt>
      <trkpt lat="46.81634" lon="-0.00787">
        <ele>83.46</ele>
        <time>2023-06-13T15:37:26.891Z</time>
      </trkpt>
      <trkpt lat="46.81626" lon="-0.00784">
        <ele>83.52</ele>
        <time>2023-06-13T15:38:11.154Z</time>
      </trkpt>
      <trkpt lat="46.81621" lon="-0.00782">
        <ele>83.56</ele>
        <time>2023-06-13T15:38:55.418Z</time>
      </trkpt>
      <trkpt lat="46.81596" lon="-0.00771">
        <ele>84.01</ele>
        <time>2023-06-13T15:39:39.686Z</time>
      </trkpt>
      <trkpt lat="46.81588" lon="-0.00768">
        <ele>84.19</ele>
        <time>2023-06-13T15:40:23.956Z</time>
      </trkpt>
      <trkpt lat="46.81579" lon="-0.00764">
        <ele>84.29</ele>
        <time>2023-06-13T15:41:08.227Z</time>
      </trkpt>
      <trkpt lat="46.81571" lon="-0.00761">
        <ele>84.31</ele>
        <time>2023-06-13T15:41:52.499Z</time>
      </trkpt>
      <trkpt lat="46.81571" lon="-0.00761">
        <ele>84.31</ele>
        <time>2023-06-13T15:42:36.771Z</time>
      </trkpt>
      <trkpt lat="46.81567" lon="-0.00758">
        <ele>84.29</ele>
        <time>2023-06-13T15:43:21.044Z</time>
      </trkpt>
      <trkpt lat="46.81563" lon="-0.00755">
        <ele>84.22</ele>
        <time>2023-06-13T15:44:05.318Z</time>
      </trkpt>
      <trkpt lat="46.81559" lon="-0.00753">
        <ele>84.12</ele>
        <time>2023-06-13T15:44:49.593Z</time>
      </trkpt>
      <trkpt lat="46.81556" lon="-0.00751">
        <ele>84.03</ele>
        <time>2023-06-13T15:45:33.868Z</time>
      </trkpt>
      <trkpt lat="46.81549" lon="-0.0074">
        <ele>83.71</ele>
        <time>2023-06-13T15:46:18.145Z</time>
      </trkpt>
      <trkpt lat="46.81548" lon="-0.00739">
        <ele>83.68</ele>
        <time>2023-06-13T15:47:02.422Z</time>
      </trkpt>
      <trkpt lat="46.8155" lon="-0.00735">
        <ele>83.6</ele>
        <time>2023-06-13T15:47:46.699Z</time>
      </trkpt>
      <trkpt lat="46.81553" lon="-0.0073">
        <ele>83.53</ele>
        <time>2023-06-13T15:48:30.977Z</time>
      </trkpt>
      <trkpt lat="46.81556" lon="-0.00725">
        <ele>83.5</ele>
        <time>2023-06-13T15:49:15.256Z</time>
      </trkpt>
      <trkpt lat="46.81559" lon="-0.0072">
        <ele>83.5</ele>
        <time>2023-06-13T15:49:59.536Z</time>
      </trkpt>
      <trkpt lat="46.81572" lon="-0.00694">
        <ele>83.75</ele>
        <time>2023-06-13T15:50:43.819Z</time>
      </trkpt>
      <trkpt lat="46.81578" lon="-0.00684">
        <ele>83.79</ele>
        <time>2023-06-13T15:51:28.104Z</time>
      </trkpt>
      <trkpt lat="46.81581" lon="-0.00679">
        <ele>83.77</ele>
        <time>2023-06-13T15:52:12.389Z</time>
      </trkpt>
      <trkpt lat="46.81583" lon="-0.00673">
        <ele>83.72</ele>
        <time>2023-06-13T15:52:56.675Z</time>
      </trkpt>
      <trkpt lat="46.81592" lon="-0.00658">
        <ele>83.5</ele>
        <time>2023-06-13T15:53:40.963Z</time>
      </trkpt>
      <trkpt lat="46.81597" lon="-0.00648">
        <ele>83.43</ele>
        <time>2023-06-13T15:54:25.253Z</time>
      </trkpt>
      <trkpt lat="46.816" lon="-0.00643">
        <ele>83.44</ele>
        <time>2023-06-13T15:55:09.543Z</time>
      </trkpt>
      <trkpt lat="46.81603" lon="-0.00638">
        <ele>83.48</ele>
        <time>2023-06-13T15:55:53.834Z</time>
      </trkpt>
      <trkpt lat="46.81611" lon="-0.00622">
        <ele>83.64</ele>
        <time>2023-06-13T15:56:38.127Z</time>
      </trkpt>
      <trkpt lat="46.81614" lon="-0.00617">
        <ele>83.66</ele>
        <time>2023-06-13T15:57:22.421Z</time>
      </trkpt>
      <trkpt lat="46.81617" lon="-0.00612">
        <ele>83.66</ele>
        <time>2023-06-13T15:58:06.716Z</time>
      </trkpt>
      <trkpt lat="46.81621" lon="-0.00604">
        <ele>83.61</ele>
        <time>2023-06-13T15:58:51.012Z</time>
      </trkpt>
      <trkpt lat="46.81629" lon="-0.00593">
        <ele>83.55</ele>
        <time>2023-06-13T15:59:35.310Z</time>
      </trkpt>
      <trkpt lat="46.81651" lon="-0.0056">
        <ele>83.48</ele>
        <time>2023-06-13T16:00:19.613Z</time>
      </trkpt>
      <trkpt lat="46.81653" lon="-0.00557">
        <ele>83.47</ele>
        <time>2023-06-13T16:01:03.916Z</time>
      </trkpt>
      <trkpt lat="46.81674" lon="-0.0053">
        <ele>83.47</ele>
        <time>2023-06-13T16:01:48.224Z</time>
      </trkpt>
      <trkpt lat="46.81691" lon="-0.00508">
        <ele>83.6</ele>
        <time>2023-06-13T16:02:32.535Z</time>
      </trkpt>
      <trkpt lat="46.81701" lon="-0.00496">
        <ele>83.52</ele>
        <time>2023-06-13T16:03:16.848Z</time>
      </trkpt>
      <trkpt lat="46.81703" lon="-0.00493">
        <ele>83.49</ele>
        <time>2023-06-13T16:04:01.162Z</time>
      </trkpt>
      <trkpt lat="46.81712" lon="-0.00476">
        <ele>83.36</ele>
        <time>2023-06-13T16:04:45.478Z</time>
      </trkpt>
      <trkpt lat="46.81715" lon="-0.00471">
        <ele>83.34</ele>
        <time>2023-06-13T16:05:29.795Z</time>
      </trkpt>
      <trkpt lat="46.81726" lon="-0.0045">
        <ele>83.35</ele>
        <time>2023-06-13T16:06:14.115Z</time>
      </trkpt>
      <trkpt lat="46.81732" lon="-0.0044">
        <ele>83.3</ele>
        <time>2023-06-13T16:06:58.436Z</time>
      </trkpt>
      <trkpt lat="46.81743" lon="-0.00419">
        <ele>83.13</ele>
        <time>2023-06-13T16:07:42.760Z</time>
      </trkpt>
      <trkpt lat="46.81748" lon="-0.00409">
        <ele>83.1</ele>
        <time>2023-06-13T16:08:27.085Z</time>
      </trkpt>
      <trkpt lat="46.81754" lon="-0.00399">
        <ele>83.12</ele>
        <time>2023-06-13T16:09:11.412Z</time>
      </trkpt>
      <trkpt lat="46.81759" lon="-0.00389">
        <ele>83.17</ele>
        <time>2023-06-13T16:09:55.740Z</time>
      </trkpt>
      <trkpt lat="46.81759" lon="-0.00389">
        <ele>83.17</ele>
        <time>2023-06-13T16:10:40.068Z</time>
      </trkpt>
      <trkpt lat="46.81763" lon="-0.00386">
        <ele>83.21</ele>
        <time>2023-06-13T16:11:24.397Z</time>
      </trkpt>
      <trkpt lat="46.81767" lon="-0.00388">
        <ele>83.25</ele>
        <time>2023-06-13T16:12:08.727Z</time>
      </trkpt>
      <trkpt lat="46.81778" lon="-0.004">
        <ele>83.4</ele>
        <time>2023-06-13T16:12:53.059Z</time>
      </trkpt>
      <trkpt lat="46.81799" lon="-0.00424">
        <ele>83.49</ele>
        <time>2023-06-13T16:13:37.395Z</time>
      </trkpt>
      <trkpt lat="46.8182" lon="-0.00448">
        <ele>83.51</ele>
        <time>2023-06-13T16:14:21.735Z</time>
      </trkpt>
      <trkpt lat="46.81826" lon="-0.00455">
        <ele>83.54</ele>
        <time>2023-06-13T16:15:06.077Z</time>
      </trkpt>
      <trkpt lat="46.81827" lon="-0.00456">
        <ele>83.55</ele>
        <time>2023-06-13T16:15:50.419Z</time>
      </trkpt>
      <trkpt lat="46.8183" lon="-0.00457">
        <ele>83.57</ele>
        <time>2023-06-13T16:16:34.761Z</time>
      </trkpt>
      <trkpt lat="46.81836" lon="-0.00455">
        <ele>83.63</ele>
        <time>2023-06-13T16:17:19.104Z</time>
      </trkpt>
      <trkpt lat="46.81845" lon="-0.00441">
        <ele>83.76</ele>
        <time>2023-06-13T16:18:03.449Z</time>
      </trkpt>
      <trkpt lat="46.81858" lon="-0.00423">
        <ele>84.03</ele>
        <time>2023-06-13T16:18:47.797Z</time>
      </trkpt>
      <trkpt lat="46.81861" lon="-0.00418">
        <ele>84.08</ele>
        <time>2023-06-13T16:19:32.146Z</time>
      </trkpt>
      <trkpt lat="46.81873" lon="-0.00399">
        <ele>84.2</ele>
        <time>2023-06-13T16:20:16.498Z</time>
      </trkpt>
      <trkpt lat="46.81876" lon="-0.00395">
        <ele>84.26</ele>
        <time>2023-06-13T16:21:00.851Z</time>
      </trkpt>
      <trkpt lat="46.81883" lon="-0.00385">
        <ele>84.44</ele>
        <time>2023-06-13T16:21:45.205Z</time>
      </trkpt>
      <trkpt lat="46.81889" lon="-0.00376">
        <ele>84.23</ele>
        <time>2023-06-13T16:22:29.560Z</time>
      </trkpt>
      <trkpt lat="46.81914" lon="-0.00338">
        <ele>83.57</ele>
        <time>2023-06-13T16:23:13.921Z</time>
      </trkpt>
      <trkpt lat="46.81915" lon="-0.00337">
        <ele>83.54</ele>
        <time>2023-06-13T16:23:58.282Z</time>
      </trkpt>
      <trkpt lat="46.81915" lon="-0.00324">
        <ele>83.41</ele>
        <time>2023-06-13T16:24:42.645Z</time>
      </trkpt>
      <trkpt lat="46.81906" lon="-0.00312">
        <ele>83.24</ele>
        <time>2023-06-13T16:25:27.010Z</time>
      </trkpt>
      <trkpt lat="46.81897" lon="-0.00298">
        <ele>83.01</ele>
        <time>2023-06-13T16:26:11.377Z</time>
      </trkpt>
      <trkpt lat="46.81887" lon="-0.00284">
        <ele>82.85</ele>
        <time>2023-06-13T16:26:55.746Z</time>
      </trkpt>
      <trkpt lat="46.81874" lon="-0.00265">
        <ele>82.69</ele>
        <time>2023-06-13T16:27:40.118Z</time>
      </trkpt>
      <trkpt lat="46.81862" lon="-0.00247">
        <ele>82.41</ele>
        <time>2023-06-13T16:28:24.493Z</time>
      </trkpt>
      <trkpt lat="46.81854" lon="-0.00236">
        <ele>82.29</ele>
        <time>2023-06-13T16:29:08.870Z</time>
      </trkpt>
      <trkpt lat="46.81834" lon="-0.00213">
        <ele>82.02</ele>
        <time>2023-06-13T16:29:53.251Z</time>
      </trkpt>
      <trkpt lat="46.81828" lon="-0.00206">
        <ele>81.86</ele>
        <time>2023-06-13T16:30:37.633Z</time>
      </trkpt>
      <trkpt lat="46.81822" lon="-0.00194">
        <ele>81.67</ele>
        <time>2023-06-13T16:31:22.016Z</time>
      </trkpt>
      <trkpt lat="46.8182" lon="-0.00188">
        <ele>81.6</ele>
        <time>2023-06-13T16:32:06.400Z</time>
      </trkpt>
      <trkpt lat="46.81812" lon="-0.00172">
        <ele>81.5</ele>
        <time>2023-06-13T16:32:50.786Z</time>
      </trkpt>
      <trkpt lat="46.8181" lon="-0.00167">
        <ele>81.49</ele>
        <time>2023-06-13T16:33:35.173Z</time>
      </trkpt>
      <trkpt lat="46.81803" lon="-0.00158">
        <ele>81.47</ele>
        <time>2023-06-13T16:34:19.562Z</time>
      </trkpt>
      <trkpt lat="46.81799" lon="-0.00155">
        <ele>81.46</ele>
        <time>2023-06-13T16:35:03.951Z</time>
      </trkpt>
      <trkpt lat="46.81778" lon="-0.00143">
        <ele>81.3</ele>
        <time>2023-06-13T16:35:48.344Z</time>
      </trkpt>
      <trkpt lat="46.81776" lon="-0.00142">
        <ele>81.29</ele>
        <time>2023-06-13T16:36:32.737Z</time>
      </trkpt>
      <trkpt lat="46.81769" lon="-0.00141">
        <ele>81.29</ele>
        <time>2023-06-13T16:37:17.131Z</time>
      </trkpt>
      <trkpt lat="46.8176" lon="-0.0014">
        <ele>81.37</ele>
        <time>2023-06-13T16:38:01.527Z</time>
      </trkpt>
      <trkpt lat="46.81758" lon="-0.00139">
        <ele>81.37</ele>
        <time>2023-06-13T16:38:45.923Z</time>
      </trkpt>
      <trkpt lat="46.81749" lon="-0.00138">
        <ele>81.27</ele>
        <time>2023-06-13T16:39:30.321Z</time>
      </trkpt>
      <trkpt lat="46.81736" lon="-0.00136">
        <ele>81.08</ele>
        <time>2023-06-13T16:40:14.721Z</time>
      </trkpt>
      <trkpt lat="46.81728" lon="-0.00131">
        <ele>80.96</ele>
        <time>2023-06-13T16:40:59.122Z</time>
      </trkpt>
      <trkpt lat="46.81719" lon="-0.00127">
        <ele>80.9</ele>
        <time>2023-06-13T16:41:43.524Z</time>
      </trkpt>
      <trkpt lat="46.81713" lon="-0.00123">
        <ele>80.93</ele>
        <time>2023-06-13T16:42:27.928Z</time>
      </trkpt>
      <trkpt lat="46.81711" lon="-0.00125">
        <ele>80.94</ele>
        <time>2023-06-13T16:43:12.332Z</time>
      </trkpt>
      <trkpt lat="46.81704" lon="-0.00132">
        <ele>81.05</ele>
        <time>2023-06-13T16:43:56.737Z</time>
      </trkpt>
      <trkpt lat="46.81697" lon="-0.00139">
        <ele>81.23</ele>
        <time>2023-06-13T16:44:41.144Z</time>
      </trkpt>
      <trkpt lat="46.81689" lon="-0.00146">
        <ele>81.49</ele>
        <time>2023-06-13T16:45:25.552Z</time>
      </trkpt>
      <trkpt lat="46.81682" lon="-0.00153">
        <ele>81.31</ele>
        <time>2023-06-13T16:46:09.962Z</time>
      </trkpt>
      <trkpt lat="46.81678" lon="-0.00156">
        <ele>81.25</ele>
        <time>2023-06-13T16:46:54.372Z</time>
      </trkpt>
      <trkpt lat="46.81667" lon="-0.00167">
        <ele>81.16</ele>
        <time>2023-06-13T16:47:38.784Z</time>
      </trkpt>
      <trkpt lat="46.81664" lon="-0.00171">
        <ele>81.15</ele>
        <time>2023-06-13T16:48:23.197Z</time>
      </trkpt>
      <trkpt lat="46.8166" lon="-0.00174">
        <ele>81.16</ele>
        <time>2023-06-13T16:49:07.611Z</time>
      </trkpt>
      <trkpt lat="46.81657" lon="-0.00177">
        <ele>81.19</ele>
        <time>2023-06-13T16:49:52.025Z</time>
      </trkpt>
      <trkpt lat="46.81656" lon="-0.00177">
        <ele>81.2</ele>
        <time>2023-06-13T16:50:36.439Z</time>
      </trkpt>
      <trkpt lat="46.81652" lon="-0.00177">
        <ele>81.28</ele>
        <time>2023-06-13T16:51:20.854Z</time>
      </trkpt>
      <trkpt lat="46.81649" lon="-0.00177">
        <ele>81.34</ele>
        <time>2023-06-13T16:52:05.270Z</time>
      </trkpt>
      <trkpt lat="46.81645" lon="-0.00175">
        <ele>81.44</ele>
        <time>2023-06-13T16:52:49.686Z</time>
      </trkpt>
      <trkpt lat="46.81639" lon="-0.00162">
        <ele>81.71</ele>
        <time>2023-06-13T16:53:34.104Z</time>
      </trkpt>
      <trkpt lat="46.81636" lon="-0.00157">
        <ele>81.8</ele>
        <time>2023-06-13T16:54:18.523Z</time>
      </trkpt>
      <trkpt lat="46.81633" lon="-0.00152">
        <ele>81.87</ele>
        <time>2023-06-13T16:55:02.942Z</time>
      </trkpt>
      <trkpt lat="46.81623" lon="-0.00131">
        <ele>82.08</ele>
        <time>2023-06-13T16:55:47.364Z</time>
      </trkpt>
      <trkpt lat="46.81619" lon="-0.00123">
        <ele>82.19</ele>
        <time>2023-06-13T16:56:31.787Z</time>
      </trkpt>
      <trkpt lat="46.81618" lon="-0.0012">
        <ele>82.23</ele>
        <time>2023-06-13T16:57:16.211Z</time>
      </trkpt>
      <trkpt lat="46.81614" lon="-0.00109">
        <ele>82.41</ele>
        <time>2023-06-13T16:58:00.636Z</time>
      </trkpt>
      <trkpt lat="46.81613" lon="-0.00104">
        <ele>82.43</ele>
        <time>2023-06-13T16:58:45.062Z</time>
      </trkpt>
      <trkpt lat="46.81609" lon="-0.00099">
        <ele>82.47</ele>
        <time>2023-06-13T16:59:29.488Z</time>
      </trkpt>
      <trkpt lat="46.81608" lon="-0.00097">
        <ele>82.49</ele>
        <time>2023-06-13T17:00:13.915Z</time>
      </trkpt>
      <trkpt lat="46.81605" lon="-0.00095">
        <ele>82.53</ele>
        <time>2023-06-13T17:00:58.342Z</time>
      </trkpt>
      <trkpt lat="46.81594" lon="-0.00086">
        <ele>82.81</ele>
        <time>2023-06-13T17:01:42.771Z</time>
      </trkpt>
      <trkpt lat="46.81591" lon="-0.00084">
        <ele>82.86</ele>
        <time>2023-06-13T17:02:27.201Z</time>
      </trkpt>
      <trkpt lat="46.8159" lon="-0.00083">
        <ele>82.88</ele>
        <time>2023-06-13T17:03:11.631Z</time>
      </trkpt>
      <trkpt lat="46.81587" lon="-0.00078">
        <ele>82.92</ele>
        <time>2023-06-13T17:03:56.062Z</time>
      </trkpt>
      <trkpt lat="46.81582" lon="-0.00072">
        <ele>82.93</ele>
        <time>2023-06-13T17:04:40.494Z</time>
      </trkpt>
      <trkpt lat="46.8158" lon="-0.00071">
        <ele>82.94</ele>
        <time>2023-06-13T17:05:24.926Z</time>
      </trkpt>
      <trkpt lat="46.81578" lon="-0.00071">
        <ele>82.93</ele>
        <time>2023-06-13T17:06:09.358Z</time>
      </trkpt>
      <trkpt lat="46.81571" lon="-0.00058">
        <ele>82.88</ele>
        <time>2023-06-13T17:06:53.792Z</time>
      </trkpt>
      <trkpt lat="46.81566" lon="-0.00048">
        <ele>83.48</ele>
        <time>2023-06-13T17:07:38.228Z</time>
      </trkpt>
      <trkpt lat="46.81561" lon="-0.00038">
        <ele>84.02</ele>
        <time>2023-06-13T17:08:22.665Z</time>
      </trkpt>
      <trkpt lat="46.81557" lon="-0.00034">
        <ele>84.34</ele>
        <time>2023-06-13T17:09:07.103Z</time>
      </trkpt>
      <trkpt lat="46.8155" lon="-0.00027">
        <ele>84.86</ele>
        <time>2023-06-13T17:09:51.542Z</time>
      </trkpt>
      <trkpt lat="46.81539" lon="-0.00017">
        <ele>85.58</ele>
        <time>2023-06-13T17:10:35.983Z</time>
      </trkpt>
      <trkpt lat="46.81537" lon="-0.00015">
        <ele>85.68</ele>
        <time>2023-06-13T17:11:20.425Z</time>
      </trkpt>
      <trkpt lat="46.81534" lon="-0.00022">
        <ele>86.02</ele>
        <time>2023-06-13T17:12:04.867Z</time>
      </trkpt>
      <trkpt lat="46.81533" lon="-0.00023">
        <ele>86.09</ele>
        <time>2023-06-13T17:12:49.310Z</time>
      </trkpt>
      <trkpt lat="46.81525" lon="-0.00028">
        <ele>86.66</ele>
        <time>2023-06-13T17:13:33.754Z</time>
      </trkpt>
      <trkpt lat="46.81521" lon="-0.0003">
        <ele>86.99</ele>
        <time>2023-06-13T17:14:18.199Z</time>
      </trkpt>
      <trkpt lat="46.81513" lon="-0.00035">
        <ele>87.7</ele>
        <time>2023-06-13T17:15:02.645Z</time>
      </trkpt>
      <trkpt lat="46.81504" lon="-0.0004">
        <ele>88.48</ele>
        <time>2023-06-13T17:15:47.093Z</time>
      </trkpt>
      <trkpt lat="46.81504" lon="-0.0004">
        <ele>88.48</ele>
        <time>2023-06-13T17:16:31.541Z</time>
      </trkpt>
      <trkpt lat="46.81494" lon="-0.00044">
        <ele>89.52</ele>
        <time>2023-06-13T17:17:15.990Z</time>
      </trkpt>
      <trkpt lat="46.81492" lon="-0.00043">
        <ele>89.73</ele>
        <time>2023-06-13T17:18:00.440Z</time>
      </trkpt>
      <trkpt lat="46.81483" lon="-0.0004">
        <ele>89.99</ele>
        <time>2023-06-13T17:18:44.891Z</time>
      </trkpt>
      <trkpt lat="46.81475" lon="-0.00037">
        <ele>90.2</ele>
        <time>2023-06-13T17:19:29.343Z</time>
      </trkpt>
      <trkpt lat="46.81471" lon="-0.00036">
        <ele>90.26</ele>
        <time>2023-06-13T17:20:13.796Z</time>
      </trkpt>
      <trkpt lat="46.8146" lon="-0.00024">
        <ele>90.51</ele>
        <time>2023-06-13T17:20:58.251Z</time>
      </trkpt>
      <trkpt lat="46.81455" lon="-0.00019">
        <ele>90.58</ele>
        <time>2023-06-13T17:21:42.707Z</time>
      </trkpt>
      <trkpt lat="46.81452" lon="-0.00018">
        <ele>90.62</ele>
        <time>2023-06-13T17:22:27.164Z</time>
      </trkpt>
      <trkpt lat="46.81451" lon="-0.00018">
        <ele>90.62</ele>
        <time>2023-06-13T17:23:11.621Z</time>
      </trkpt>
      <trkpt lat="46.81451" lon="-0.00013">
        <ele>90.65</ele>
        <time>2023-06-13T17:23:56.078Z</time>
      </trkpt>
      <trkpt lat="46.81451" lon="0.00013">
        <ele>90.58</ele>
        <time>2023-06-13T17:25:24.997Z</time>
      </trkpt>
      <trkpt lat="46.81451" lon="0.00032">
        <ele>90.43</ele>
        <time>2023-06-13T17:26:09.459Z</time>
      </trkpt>
      <trkpt lat="46.81452" lon="0.00045">
        <ele>89.93</ele>
        <time>2023-06-13T17:26:53.923Z</time>
      </trkpt>
      <trkpt lat="46.81452" lon="0.00051">
        <ele>89.71</ele>
        <time>2023-06-13T17:27:38.388Z</time>
      </trkpt>
      <trkpt lat="46.81452" lon="0.00058">
        <ele>89.51</ele>
        <time>2023-06-13T17:28:22.853Z</time>
      </trkpt>
      <trkpt lat="46.81452" lon="0.00064">
        <ele>89.35</ele>
        <time>2023-06-13T17:29:07.319Z</time>
      </trkpt>
      <trkpt lat="46.81452" lon="0.00077">
        <ele>89.11</ele>
        <time>2023-06-13T17:29:51.786Z</time>
      </trkpt>
      <trkpt lat="46.81452" lon="0.00089">
        <ele>88.95</ele>
        <time>2023-06-13T17:30:36.255Z</time>
      </trkpt>
      <trkpt lat="46.81452" lon="0.00095">
        <ele>88.9</ele>
        <time>2023-06-13T17:31:20.724Z</time>
      </trkpt>
      <trkpt lat="46.81452" lon="0.00099">
        <ele>88.89</ele>
        <time>2023-06-13T17:32:05.194Z</time>
      </trkpt>
      <trkpt lat="46.81451" lon="0.00109">
        <ele>88.88</ele>
        <time>2023-06-13T17:32:49.665Z</time>
      </trkpt>
      <trkpt lat="46.81451" lon="0.00109">
        <ele>88.88</ele>
        <time>2023-06-13T17:33:34.136Z</time>
      </trkpt>
      <trkpt lat="46.81445" lon="0.00124">
        <ele>88.97</ele>
        <time>2023-06-13T17:34:18.609Z</time>
      </trkpt>
      <trkpt lat="46.81445" lon="0.00124">
        <ele>88.97</ele>
        <time>2023-06-13T17:35:03.082Z</time>
      </trkpt>
      <trkpt lat="46.81436" lon="0.00138">
        <ele>89.16</ele>
        <time>2023-06-13T17:35:47.557Z</time>
      </trkpt>
      <trkpt lat="46.81423" lon="0.00155">
        <ele>89.47</ele>
        <time>2023-06-13T17:36:32.035Z</time>
      </trkpt>
      <trkpt lat="46.81417" lon="0.00164">
        <ele>89.92</ele>
        <time>2023-06-13T17:37:16.514Z</time>
      </trkpt>
      <trkpt lat="46.81411" lon="0.00173">
        <ele>90.41</ele>
        <time>2023-06-13T17:38:00.994Z</time>
      </trkpt>
      <trkpt lat="46.81405" lon="0.00182">
        <ele>90.95</ele>
        <time>2023-06-13T17:38:45.476Z</time>
      </trkpt>
      <trkpt lat="46.81404" lon="0.00183">
        <ele>91.02</ele>
        <time>2023-06-13T17:39:29.958Z</time>
      </trkpt>
      <trkpt lat="46.81396" lon="0.00188">
        <ele>91.58</ele>
        <time>2023-06-13T17:40:14.441Z</time>
      </trkpt>
      <trkpt lat="46.81388" lon="0.00189">
        <ele>92.08</ele>
        <time>2023-06-13T17:40:58.926Z</time>
      </trkpt>
      <trkpt lat="46.81386" lon="0.0019">
        <ele>92.23</ele>
        <time>2023-06-13T17:41:43.411Z</time>
      </trkpt>
      <trkpt lat="46.81373" lon="0.00199">
        <ele>93.12</ele>
        <time>2023-06-13T17:42:27.898Z</time>
      </trkpt>
      <trkpt lat="46.81373" lon="0.00199">
        <ele>93.12</ele>
        <time>2023-06-13T17:43:12.385Z</time>
      </trkpt>
      <trkpt lat="46.8137" lon="0.00204">
        <ele>92.64</ele>
        <time>2023-06-13T17:43:56.873Z</time>
      </trkpt>
      <trkpt lat="46.81353" lon="0.00225">
        <ele>90.3</ele>
        <time>2023-06-13T17:44:41.365Z</time>
      </trkpt>
      <trkpt lat="46.81347" lon="0.00234">
        <ele>89.35</ele>
        <time>2023-06-13T17:45:25.858Z</time>
      </trkpt>
      <trkpt lat="46.81341" lon="0.00247">
        <ele>88.17</ele>
        <time>2023-06-13T17:46:10.353Z</time>
      </trkpt>
      <trkpt lat="46.81343" lon="0.00249">
        <ele>87.89</ele>
        <time>2023-06-13T17:46:54.848Z</time>
      </trkpt>
      <trkpt lat="46.81354" lon="0.00259">
        <ele>86.53</ele>
        <time>2023-06-13T17:47:39.345Z</time>
      </trkpt>
      <trkpt lat="46.81358" lon="0.00263">
        <ele>86.08</ele>
        <time>2023-06-13T17:48:23.843Z</time>
      </trkpt>
      <trkpt lat="46.81362" lon="0.00265">
        <ele>85.66</ele>
        <time>2023-06-13T17:49:08.342Z</time>
      </trkpt>
      <trkpt lat="46.8137" lon="0.0027">
        <ele>84.84</ele>
        <time>2023-06-13T17:49:52.842Z</time>
      </trkpt>
      <trkpt lat="46.81374" lon="0.00273">
        <ele>84.48</ele>
        <time>2023-06-13T17:50:37.343Z</time>
      </trkpt>
      <trkpt lat="46.81379" lon="0.00275">
        <ele>84.15</ele>
        <time>2023-06-13T17:51:21.845Z</time>
      </trkpt>
      <trkpt lat="46.81399" lon="0.00287">
        <ele>82.71</ele>
        <time>2023-06-13T17:52:06.350Z</time>
      </trkpt>
      <trkpt lat="46.81403" lon="0.0029">
        <ele>82.46</ele>
        <time>2023-06-13T17:52:50.856Z</time>
      </trkpt>
      <trkpt lat="46.81408" lon="0.00292">
        <ele>82.25</ele>
        <time>2023-06-13T17:53:35.363Z</time>
      </trkpt>
      <trkpt lat="46.81412" lon="0.00295">
        <ele>82.09</ele>
        <time>2023-06-13T17:54:19.870Z</time>
      </trkpt>
      <trkpt lat="46.81416" lon="0.00297">
        <ele>81.96</ele>
        <time>2023-06-13T17:55:04.378Z</time>
      </trkpt>
      <trkpt lat="46.81437" lon="0.00309">
        <ele>81.54</ele>
        <time>2023-06-13T17:55:48.890Z</time>
      </trkpt>
      <trkpt lat="46.81445" lon="0.00314">
        <ele>81.43</ele>
        <time>2023-06-13T17:56:33.403Z</time>
      </trkpt>
      <trkpt lat="46.81449" lon="0.00317">
        <ele>81.41</ele>
        <time>2023-06-13T17:57:17.917Z</time>
      </trkpt>
      <trkpt lat="46.81453" lon="0.00319">
        <ele>81.43</ele>
        <time>2023-06-13T17:58:02.431Z</time>
      </trkpt>
      <trkpt lat="46.81467" lon="0.00327">
        <ele>81.55</ele>
        <time>2023-06-13T17:58:46.948Z</time>
      </trkpt>
      <trkpt lat="46.81467" lon="0.00332">
        <ele>81.58</ele>
        <time>2023-06-13T17:59:31.465Z</time>
      </trkpt>
      <trkpt lat="46.81467" lon="0.00339">
        <ele>81.58</ele>
        <time>2023-06-13T18:00:15.983Z</time>
      </trkpt>
      <trkpt lat="46.81461" lon="0.00363">
        <ele>81.59</ele>
        <time>2023-06-13T18:01:00.504Z</time>
      </trkpt>
      <trkpt lat="46.81458" lon="0.00375">
        <ele>81.63</ele>
        <time>2023-06-13T18:01:45.026Z</time>
      </trkpt>
      <trkpt lat="46.81455" lon="0.00388">
        <ele>81.7</ele>
        <time>2023-06-13T18:02:29.550Z</time>
      </trkpt>
      <trkpt lat="46.81452" lon="0.00401">
        <ele>81.79</ele>
        <time>2023-06-13T18:03:14.075Z</time>
      </trkpt>
      <trkpt lat="46.81451" lon="0.00419">
        <ele>81.91</ele>
        <time>2023-06-13T18:03:58.602Z</time>
      </trkpt>
      <trkpt lat="46.81451" lon="0.00423">
        <ele>81.94</ele>
        <time>2023-06-13T18:04:43.130Z</time>
      </trkpt>
      <trkpt lat="46.81455" lon="0.00457">
        <ele>82.33</ele>
        <time>2023-06-13T18:05:27.662Z</time>
      </trkpt>
      <trkpt lat="46.81455" lon="0.00458">
        <ele>82.33</ele>
        <time>2023-06-13T18:06:12.194Z</time>
      </trkpt>
      <trkpt lat="46.81452" lon="0.00484">
        <ele>82.53</ele>
        <time>2023-06-13T18:06:56.729Z</time>
      </trkpt>
      <trkpt lat="46.81451" lon="0.00493">
        <ele>82.57</ele>
        <time>2023-06-13T18:07:41.265Z</time>
      </trkpt>
      <trkpt lat="46.81451" lon="0.00497">
        <ele>82.6</ele>
        <time>2023-06-13T18:08:25.801Z</time>
      </trkpt>
      <trkpt lat="46.81451" lon="0.00507">
        <ele>82.6</ele>
        <time>2023-06-13T18:09:10.338Z</time>
      </trkpt>
      <trkpt lat="46.81453" lon="0.00516">
        <ele>82.61</ele>
        <time>2023-06-13T18:09:54.876Z</time>
      </trkpt>
      <trkpt lat="46.81456" lon="0.00528">
        <ele>82.64</ele>
        <time>2023-06-13T18:10:39.416Z</time>
      </trkpt>
      <trkpt lat="46.8146" lon="0.00547">
        <ele>82.77</ele>
        <time>2023-06-13T18:11:23.958Z</time>
      </trkpt>
      <trkpt lat="46.81463" lon="0.00559">
        <ele>82.89</ele>
        <time>2023-06-13T18:12:08.501Z</time>
      </trkpt>
      <trkpt lat="46.81473" lon="0.00602">
        <ele>83.36</ele>
        <time>2023-06-13T18:12:53.049Z</time>
      </trkpt>
      <trkpt lat="46.81473" lon="0.0061">
        <ele>83.44</ele>
        <time>2023-06-13T18:13:37.598Z</time>
      </trkpt>
      <trkpt lat="46.81472" lon="0.00622">
        <ele>83.56</ele>
        <time>2023-06-13T18:14:22.148Z</time>
      </trkpt>
      <trkpt lat="46.81472" lon="0.00636">
        <ele>83.62</ele>
        <time>2023-06-13T18:15:06.700Z</time>
      </trkpt>
      <trkpt lat="46.81471" lon="0.00653">
        <ele>83.67</ele>
        <time>2023-06-13T18:15:51.254Z</time>
      </trkpt>
      <trkpt lat="46.8147" lon="0.00655">
        <ele>83.68</ele>
        <time>2023-06-13T18:16:35.808Z</time>
      </trkpt>
      <trkpt lat="46.81463" lon="0.00679">
        <ele>83.86</ele>
        <time>2023-06-13T18:17:20.365Z</time>
      </trkpt>
      <trkpt lat="46.81461" lon="0.00685">
        <ele>83.89</ele>
        <time>2023-06-13T18:18:04.923Z</time>
      </trkpt>
      <trkpt lat="46.81456" lon="0.00703">
        <ele>83.92</ele>
        <time>2023-06-13T18:18:49.483Z</time>
      </trkpt>
      <trkpt lat="46.81454" lon="0.00709">
        <ele>83.95</ele>
        <time>2023-06-13T18:19:34.043Z</time>
      </trkpt>
      <trkpt lat="46.81449" lon="0.00727">
        <ele>84.14</ele>
        <time>2023-06-13T18:20:18.606Z</time>
      </trkpt>
      <trkpt lat="46.81447" lon="0.00733">
        <ele>84.19</ele>
        <time>2023-06-13T18:21:03.169Z</time>
      </trkpt>
      <trkpt lat="46.8144" lon="0.00757">
        <ele>84.26</ele>
        <time>2023-06-13T18:21:47.735Z</time>
      </trkpt>
      <trkpt lat="46.81435" lon="0.00772">
        <ele>84.21</ele>
        <time>2023-06-13T18:22:32.303Z</time>
      </trkpt>
      <trkpt lat="46.81434" lon="0.00781">
        <ele>84.19</ele>
        <time>2023-06-13T18:23:16.872Z</time>
      </trkpt>
      <trkpt lat="46.81433" lon="0.008">
        <ele>84.21</ele>
        <time>2023-06-13T18:24:01.443Z</time>
      </trkpt>
      <trkpt lat="46.81432" lon="0.00819">
        <ele>84.3</ele>
        <time>2023-06-13T18:24:46.016Z</time>
      </trkpt>
      <trkpt lat="46.81432" lon="0.00832">
        <ele>84.39</ele>
        <time>2023-06-13T18:25:30.591Z</time>
      </trkpt>
      <trkpt lat="46.8143" lon="0.00859">
        <ele>84.68</ele>
        <time>2023-06-13T18:26:15.169Z</time>
      </trkpt>
      <trkpt lat="46.81428" lon="0.00871">
        <ele>84.81</ele>
        <time>2023-06-13T18:26:59.748Z</time>
      </trkpt>
      <trkpt lat="46.81427" lon="0.00883">
        <ele>84.91</ele>
        <time>2023-06-13T18:27:44.328Z</time>
      </trkpt>
      <trkpt lat="46.81426" lon="0.00889">
        <ele>84.93</ele>
        <time>2023-06-13T18:28:28.909Z</time>
      </trkpt>
      <trkpt lat="46.81425" lon="0.00896">
        <ele>84.92</ele>
        <time>2023-06-13T18:29:13.491Z</time>
      </trkpt>
      <trkpt lat="46.81422" lon="0.00915">
        <ele>84.84</ele>
        <time>2023-06-13T18:29:58.075Z</time>
      </trkpt>
      <trkpt lat="46.81421" lon="0.00921">
        <ele>84.85</ele>
        <time>2023-06-13T18:30:42.660Z</time>
      </trkpt>
      <trkpt lat="46.81416" lon="0.00958">
        <ele>85.01</ele>
        <time>2023-06-13T18:31:27.249Z</time>
      </trkpt>
      <trkpt lat="46.8142" lon="0.0097">
        <ele>85.07</ele>
        <time>2023-06-13T18:32:11.839Z</time>
      </trkpt>
      <trkpt lat="46.81428" lon="0.00994">
        <ele>84.05</ele>
        <time>2023-06-13T18:32:56.432Z</time>
      </trkpt>
      <trkpt lat="46.81436" lon="0.01017">
        <ele>83.09</ele>
        <time>2023-06-13T18:33:41.028Z</time>
      </trkpt>
      <trkpt lat="46.81438" lon="0.01023">
        <ele>82.88</ele>
        <time>2023-06-13T18:34:25.625Z</time>
      </trkpt>
      <trkpt lat="46.8144" lon="0.01029">
        <ele>82.7</ele>
        <time>2023-06-13T18:35:10.222Z</time>
      </trkpt>
      <trkpt lat="46.81427" lon="0.01031">
        <ele>82.18</ele>
        <time>2023-06-13T18:35:54.822Z</time>
      </trkpt>
      <trkpt lat="46.81418" lon="0.01032">
        <ele>81.81</ele>
        <time>2023-06-13T18:36:39.423Z</time>
      </trkpt>
      <trkpt lat="46.81404" lon="0.01034">
        <ele>81.88</ele>
        <time>2023-06-13T18:37:24.026Z</time>
      </trkpt>
      <trkpt lat="46.81403" lon="0.01034">
        <ele>81.87</ele>
        <time>2023-06-13T18:38:08.629Z</time>
      </trkpt>
      <trkpt lat="46.81405" lon="0.01044">
        <ele>81.86</ele>
        <time>2023-06-13T18:38:53.234Z</time>
      </trkpt>
      <trkpt lat="46.8141" lon="0.0107">
        <ele>81.75</ele>
        <time>2023-06-13T18:39:37.841Z</time>
      </trkpt>
      <trkpt lat="46.81411" lon="0.01076">
        <ele>81.75</ele>
        <time>2023-06-13T18:40:22.449Z</time>
      </trkpt>
      <trkpt lat="46.81411" lon="0.01076">
        <ele>81.75</ele>
        <time>2023-06-13T18:41:07.057Z</time>
      </trkpt>
      <trkpt lat="46.81402" lon="0.01074">
        <ele>81.81</ele>
        <time>2023-06-13T18:41:51.667Z</time>
      </trkpt>
      <trkpt lat="46.81393" lon="0.01072">
        <ele>81.92</ele>
        <time>2023-06-13T18:42:36.278Z</time>
      </trkpt>
      <trkpt lat="46.81384" lon="0.0107">
        <ele>82.1</ele>
        <time>2023-06-13T18:43:20.890Z</time>
      </trkpt>
      <trkpt lat="46.81376" lon="0.01068">
        <ele>82.37</ele>
        <time>2023-06-13T18:44:05.504Z</time>
      </trkpt>
      <trkpt lat="46.81362" lon="0.01064">
        <ele>82.86</ele>
        <time>2023-06-13T18:44:50.120Z</time>
      </trkpt>
      <trkpt lat="46.81349" lon="0.01061">
        <ele>83.04</ele>
        <time>2023-06-13T18:45:34.738Z</time>
      </trkpt>
      <trkpt lat="46.81341" lon="0.01059">
        <ele>83.1</ele>
        <time>2023-06-13T18:46:19.358Z</time>
      </trkpt>
      <trkpt lat="46.81336" lon="0.01058">
        <ele>83.11</ele>
        <time>2023-06-13T18:47:03.978Z</time>
      </trkpt>
      <trkpt lat="46.81318" lon="0.01054">
        <ele>83.05</ele>
        <time>2023-06-13T18:47:48.601Z</time>
      </trkpt>
      <trkpt lat="46.81317" lon="0.01059">
        <ele>83.05</ele>
        <time>2023-06-13T18:48:33.225Z</time>
      </trkpt>
      <trkpt lat="46.8131" lon="0.01096">
        <ele>82.85</ele>
        <time>2023-06-13T18:49:17.853Z</time>
      </trkpt>
      <trkpt lat="46.81306" lon="0.01115">
        <ele>82.78</ele>
        <time>2023-06-13T18:50:02.483Z</time>
      </trkpt>
      <trkpt lat="46.81305" lon="0.01121">
        <ele>82.74</ele>
        <time>2023-06-13T18:50:47.114Z</time>
      </trkpt>
      <trkpt lat="46.81302" lon="0.01133">
        <ele>82.56</ele>
        <time>2023-06-13T18:51:31.746Z</time>
      </trkpt>
      <trkpt lat="46.81297" lon="0.01158">
        <ele>82.07</ele>
        <time>2023-06-13T18:52:16.381Z</time>
      </trkpt>
      <trkpt lat="46.81295" lon="0.01171">
        <ele>81.85</ele>
        <time>2023-06-13T18:53:01.018Z</time>
      </trkpt>
      <trkpt lat="46.81288" lon="0.01201">
        <ele>80.34</ele>
        <time>2023-06-13T18:53:45.658Z</time>
      </trkpt>
      <trkpt lat="46.81287" lon="0.01207">
        <ele>80.06</ele>
        <time>2023-06-13T18:54:30.299Z</time>
      </trkpt>
      <trkpt lat="46.81286" lon="0.01213">
        <ele>79.82</ele>
        <time>2023-06-13T18:55:14.940Z</time>
      </trkpt>
      <trkpt lat="46.81286" lon="0.01213">
        <ele>79.82</ele>
        <time>2023-06-13T18:55:59.581Z</time>
      </trkpt>
      <trkpt lat="46.81284" lon="0.01219">
        <ele>79.64</ele>
        <time>2023-06-13T18:56:44.223Z</time>
      </trkpt>
      <trkpt lat="46.81282" lon="0.01223">
        <ele>79.52</ele>
        <time>2023-06-13T18:57:28.866Z</time>
      </trkpt>
      <trkpt lat="46.81281" lon="0.01224">
        <ele>79.49</ele>
        <time>2023-06-13T18:58:13.509Z</time>
      </trkpt>
      <trkpt lat="46.81278" lon="0.01228">
        <ele>79.38</ele>
        <time>2023-06-13T18:58:58.153Z</time>
      </trkpt>
      <trkpt lat="46.81277" lon="0.01229">
        <ele>79.36</ele>
        <time>2023-06-13T18:59:42.797Z</time>
      </trkpt>
      <trkpt lat="46.81282" lon="0.01245">
        <ele>79.16</ele>
        <time>2023-06-13T19:00:27.443Z</time>
      </trkpt>
      <trkpt lat="46.81286" lon="0.01255">
        <ele>79.07</ele>
        <time>2023-06-13T19:01:12.090Z</time>
      </trkpt>
      <trkpt lat="46.81286" lon="0.01256">
        <ele>79.06</ele>
        <time>2023-06-13T19:01:56.737Z</time>
      </trkpt>
      <trkpt lat="46.81287" lon="0.01263">
        <ele>79.02</ele>
        <time>2023-06-13T19:02:41.385Z</time>
      </trkpt>
      <trkpt lat="46.81286" lon="0.01269">
        <ele>79</ele>
        <time>2023-06-13T19:03:26.033Z</time>
      </trkpt>
      <trkpt lat="46.81283" lon="0.01278">
        <ele>79.01</ele>
        <time>2023-06-13T19:04:10.683Z</time>
      </trkpt>
      <trkpt lat="46.81279" lon="0.01285">
        <ele>79.02</ele>
        <time>2023-06-13T19:04:55.334Z</time>
      </trkpt>
      <trkpt lat="46.81275" lon="0.01291">
        <ele>79.07</ele>
        <time>2023-06-13T19:05:39.986Z</time>
      </trkpt>
      <trkpt lat="46.81272" lon="0.01293">
        <ele>79.1</ele>
        <time>2023-06-13T19:06:24.638Z</time>
      </trkpt>
      <trkpt lat="46.81272" lon="0.01293">
        <ele>79.1</ele>
        <time>2023-06-13T19:07:09.290Z</time>
      </trkpt>
      <trkpt lat="46.81264" lon="0.01292">
        <ele>79.25</ele>
        <time>2023-06-13T19:07:53.943Z</time>
      </trkpt>
      <trkpt lat="46.81255" lon="0.01291">
        <ele>79.46</ele>
        <time>2023-06-13T19:08:38.598Z</time>
      </trkpt>
      <trkpt lat="46.81251" lon="0.01291">
        <ele>79.59</ele>
        <time>2023-06-13T19:09:23.254Z</time>
      </trkpt>
      <trkpt lat="46.81242" lon="0.0129">
        <ele>79.93</ele>
        <time>2023-06-13T19:10:07.911Z</time>
      </trkpt>
      <trkpt lat="46.81242" lon="0.0129">
        <ele>79.93</ele>
        <time>2023-06-13T19:10:52.568Z</time>
      </trkpt>
      <trkpt lat="46.81229" lon="0.01296">
        <ele>80.49</ele>
        <time>2023-06-13T19:11:37.227Z</time>
      </trkpt>
      <trkpt lat="46.81209" lon="0.01305">
        <ele>82.98</ele>
        <time>2023-06-13T19:12:21.889Z</time>
      </trkpt>
      <trkpt lat="46.81207" lon="0.01306">
        <ele>82.96</ele>
        <time>2023-06-13T19:13:06.552Z</time>
      </trkpt>
      <trkpt lat="46.8119" lon="0.01322">
        <ele>82.78</ele>
        <time>2023-06-13T19:13:51.218Z</time>
      </trkpt>
      <trkpt lat="46.81186" lon="0.01317">
        <ele>82.74</ele>
        <time>2023-06-13T19:14:35.885Z</time>
      </trkpt>
      <trkpt lat="46.81179" lon="0.0131">
        <ele>82.73</ele>
        <time>2023-06-13T19:15:20.553Z</time>
      </trkpt>
      <trkpt lat="46.81173" lon="0.01303">
        <ele>82.75</ele>
        <time>2023-06-13T19:16:05.222Z</time>
      </trkpt>
      <trkpt lat="46.81164" lon="0.01295">
        <ele>82.79</ele>
        <time>2023-06-13T19:16:49.893Z</time>
      </trkpt>
      <trkpt lat="46.81156" lon="0.01288">
        <ele>82.76</ele>
        <time>2023-06-13T19:17:34.566Z</time>
      </trkpt>
      <trkpt lat="46.8113" lon="0.01263">
        <ele>82.42</ele>
        <time>2023-06-13T19:18:19.244Z</time>
      </trkpt>
      <trkpt lat="46.81126" lon="0.0126">
        <ele>82.39</ele>
        <time>2023-06-13T19:19:03.922Z</time>
      </trkpt>
      <trkpt lat="46.81122" lon="0.01256">
        <ele>82.36</ele>
        <time>2023-06-13T19:19:48.601Z</time>
      </trkpt>
      <trkpt lat="46.81119" lon="0.01252">
        <ele>82.36</ele>
        <time>2023-06-13T19:20:33.281Z</time>
      </trkpt>
      <trkpt lat="46.81111" lon="0.01244">
        <ele>82.4</ele>
        <time>2023-06-13T19:21:17.962Z</time>
      </trkpt>
      <trkpt lat="46.81104" lon="0.01237">
        <ele>82.48</ele>
        <time>2023-06-13T19:22:02.645Z</time>
      </trkpt>
      <trkpt lat="46.8109" lon="0.01221">
        <ele>82.71</ele>
        <time>2023-06-13T19:22:47.331Z</time>
      </trkpt>
      <trkpt lat="46.81086" lon="0.01217">
        <ele>82.75</ele>
        <time>2023-06-13T19:23:32.017Z</time>
      </trkpt>
      <trkpt lat="46.81085" lon="0.01216">
        <ele>82.75</ele>
        <time>2023-06-13T19:24:16.703Z</time>
      </trkpt>
      <trkpt lat="46.81078" lon="0.01211">
        <ele>82.76</ele>
        <time>2023-06-13T19:25:01.391Z</time>
      </trkpt>
      <trkpt lat="46.81074" lon="0.01209">
        <ele>82.73</ele>
        <time>2023-06-13T19:25:46.079Z</time>
      </trkpt>
      <trkpt lat="46.81057" lon="0.01198">
        <ele>82.55</ele>
        <time>2023-06-13T19:26:30.770Z</time>
      </trkpt>
      <trkpt lat="46.81046" lon="0.0119">
        <ele>82.49</ele>
        <time>2023-06-13T19:27:15.463Z</time>
      </trkpt>
      <trkpt lat="46.81032" lon="0.01186">
        <ele>82.43</ele>
        <time>2023-06-13T19:28:00.159Z</time>
      </trkpt>
      <trkpt lat="46.81014" lon="0.01181">
        <ele>82.37</ele>
        <time>2023-06-13T19:28:44.857Z</time>
      </trkpt>
      <trkpt lat="46.81005" lon="0.01178">
        <ele>82.28</ele>
        <time>2023-06-13T19:29:29.557Z</time>
      </trkpt>
      <trkpt lat="46.80988" lon="0.01173">
        <ele>81.99</ele>
        <time>2023-06-13T19:30:14.260Z</time>
      </trkpt>
      <trkpt lat="46.80983" lon="0.01172">
        <ele>81.94</ele>
        <time>2023-06-13T19:30:58.964Z</time>
      </trkpt>
      <trkpt lat="46.80979" lon="0.01171">
        <ele>81.92</ele>
        <time>2023-06-13T19:31:43.668Z</time>
      </trkpt>
      <trkpt lat="46.80975" lon="0.0117">
        <ele>81.93</ele>
        <time>2023-06-13T19:32:28.373Z</time>
      </trkpt>
      <trkpt lat="46.80961" lon="0.01166">
        <ele>82.05</ele>
        <time>2023-06-13T19:33:13.080Z</time>
      </trkpt>
      <trkpt lat="46.80958" lon="0.01165">
        <ele>82.05</ele>
        <time>2023-06-13T19:33:57.788Z</time>
      </trkpt>
      <trkpt lat="46.80957" lon="0.01165">
        <ele>82.06</ele>
        <time>2023-06-13T19:34:42.496Z</time>
      </trkpt>
      <trkpt lat="46.80944" lon="0.01169">
        <ele>82.03</ele>
        <time>2023-06-13T19:35:27.206Z</time>
      </trkpt>
      <trkpt lat="46.80935" lon="0.01172">
        <ele>81.98</ele>
        <time>2023-06-13T19:36:11.917Z</time>
      </trkpt>
      <trkpt lat="46.80927" lon="0.01177">
        <ele>81.93</ele>
        <time>2023-06-13T19:36:56.630Z</time>
      </trkpt>
      <trkpt lat="46.8091" lon="0.01188">
        <ele>81.86</ele>
        <time>2023-06-13T19:37:41.346Z</time>
      </trkpt>
      <trkpt lat="46.80906" lon="0.0119">
        <ele>81.85</ele>
        <time>2023-06-13T19:38:26.062Z</time>
      </trkpt>
      <trkpt lat="46.80888" lon="0.01199">
        <ele>81.69</ele>
        <time>2023-06-13T19:39:10.782Z</time>
      </trkpt>
      <trkpt lat="46.80876" lon="0.01196">
        <ele>81.6</ele>
        <time>2023-06-13T19:39:55.504Z</time>
      </trkpt>
      <trkpt lat="46.80871" lon="0.01195">
        <ele>81.58</ele>
        <time>2023-06-13T19:40:40.226Z</time>
      </trkpt>
      <trkpt lat="46.80858" lon="0.01192">
        <ele>81.6</ele>
        <time>2023-06-13T19:41:24.950Z</time>
      </trkpt>
      <trkpt lat="46.80856" lon="0.01192">
        <ele>81.59</ele>
        <time>2023-06-13T19:42:09.675Z</time>
      </trkpt>
      <trkpt lat="46.80854" lon="0.01194">
        <ele>81.58</ele>
        <time>2023-06-13T19:42:54.400Z</time>
      </trkpt>
      <trkpt lat="46.80842" lon="0.01205">
        <ele>81.44</ele>
        <time>2023-06-13T19:43:39.127Z</time>
      </trkpt>
      <trkpt lat="46.80827" lon="0.01219">
        <ele>81.29</ele>
        <time>2023-06-13T19:44:23.857Z</time>
      </trkpt>
      <trkpt lat="46.80816" lon="0.0123">
        <ele>81.2</ele>
        <time>2023-06-13T19:45:08.589Z</time>
      </trkpt>
      <trkpt lat="46.80811" lon="0.01235">
        <ele>81.17</ele>
        <time>2023-06-13T19:45:53.322Z</time>
      </trkpt>
      <trkpt lat="46.8081" lon="0.01239">
        <ele>81.16</ele>
        <time>2023-06-13T19:46:38.056Z</time>
      </trkpt>
      <trkpt lat="46.80808" lon="0.01252">
        <ele>81.15</ele>
        <time>2023-06-13T19:47:22.791Z</time>
      </trkpt>
      <trkpt lat="46.80805" lon="0.01271">
        <ele>81.2</ele>
        <time>2023-06-13T19:48:07.528Z</time>
      </trkpt>
      <trkpt lat="46.80803" lon="0.01284">
        <ele>81.21</ele>
        <time>2023-06-13T19:48:52.267Z</time>
      </trkpt>
      <trkpt lat="46.80797" lon="0.01322">
        <ele>81.09</ele>
        <time>2023-06-13T19:49:37.010Z</time>
      </trkpt>
      <trkpt lat="46.80793" lon="0.01348">
        <ele>80.96</ele>
        <time>2023-06-13T19:50:21.756Z</time>
      </trkpt>
      <trkpt lat="46.80791" lon="0.01361">
        <ele>80.94</ele>
        <time>2023-06-13T19:51:06.503Z</time>
      </trkpt>
      <trkpt lat="46.8079" lon="0.01369">
        <ele>80.94</ele>
        <time>2023-06-13T19:51:51.251Z</time>
      </trkpt>
      <trkpt lat="46.80789" lon="0.0138">
        <ele>80.96</ele>
        <time>2023-06-13T19:52:36.001Z</time>
      </trkpt>
      <trkpt lat="46.80787" lon="0.014">
        <ele>80.93</ele>
        <time>2023-06-13T19:53:20.753Z</time>
      </trkpt>
      <trkpt lat="46.80786" lon="0.01413">
        <ele>80.87</ele>
        <time>2023-06-13T19:54:05.506Z</time>
      </trkpt>
      <trkpt lat="46.80786" lon="0.01416">
        <ele>80.83</ele>
        <time>2023-06-13T19:54:50.260Z</time>
      </trkpt>
      <trkpt lat="46.80793" lon="0.01429">
        <ele>80.67</ele>
        <time>2023-06-13T19:55:35.015Z</time>
      </trkpt>
      <trkpt lat="46.80795" lon="0.01434">
        <ele>80.63</ele>
        <time>2023-06-13T19:56:19.771Z</time>
      </trkpt>
      <trkpt lat="46.80803" lon="0.01449">
        <ele>80.63</ele>
        <time>2023-06-13T19:57:04.529Z</time>
      </trkpt>
      <trkpt lat="46.8081" lon="0.01459">
        <ele>80.63</ele>
        <time>2023-06-13T19:57:49.289Z</time>
      </trkpt>
      <trkpt lat="46.80824" lon="0.01476">
        <ele>80.49</ele>
        <time>2023-06-13T19:58:34.052Z</time>
      </trkpt>
      <trkpt lat="46.80841" lon="0.01498">
        <ele>80.37</ele>
        <time>2023-06-13T19:59:18.818Z</time>
      </trkpt>
      <trkpt lat="46.80854" lon="0.01516">
        <ele>80.31</ele>
        <time>2023-06-13T20:00:03.587Z</time>
      </trkpt>
      <trkpt lat="46.80867" lon="0.01533">
        <ele>80.21</ele>
        <time>2023-06-13T20:00:48.359Z</time>
      </trkpt>
      <trkpt lat="46.80867" lon="0.01533">
        <ele>80.21</ele>
        <time>2023-06-13T20:01:33.131Z</time>
      </trkpt>
      <trkpt lat="46.80875" lon="0.01549">
        <ele>80.19</ele>
        <time>2023-06-13T20:02:17.905Z</time>
      </trkpt>
      <trkpt lat="46.80886" lon="0.01571">
        <ele>80.11</ele>
        <time>2023-06-13T20:03:02.682Z</time>
      </trkpt>
      <trkpt lat="46.80891" lon="0.01581">
        <ele>80.1</ele>
        <time>2023-06-13T20:03:47.461Z</time>
      </trkpt>
      <trkpt lat="46.80896" lon="0.01592">
        <ele>80.14</ele>
        <time>2023-06-13T20:04:32.241Z</time>
      </trkpt>
      <trkpt lat="46.80901" lon="0.01603">
        <ele>80.26</ele>
        <time>2023-06-13T20:05:17.022Z</time>
      </trkpt>
      <trkpt lat="46.80909" lon="0.01618">
        <ele>80.46</ele>
        <time>2023-06-13T20:06:01.805Z</time>
      </trkpt>
      <trkpt lat="46.80911" lon="0.01625">
        <ele>80.55</ele>
        <time>2023-06-13T20:06:46.589Z</time>
      </trkpt>
      <trkpt lat="46.80914" lon="0.01637">
        <ele>80.65</ele>
        <time>2023-06-13T20:07:31.375Z</time>
      </trkpt>
      <trkpt lat="46.80921" lon="0.01666">
        <ele>80.82</ele>
        <time>2023-06-13T20:08:16.164Z</time>
      </trkpt>
      <trkpt lat="46.80923" lon="0.01674">
        <ele>80.91</ele>
        <time>2023-06-13T20:09:00.954Z</time>
      </trkpt>
      <trkpt lat="46.80923" lon="0.01678">
        <ele>80.96</ele>
        <time>2023-06-13T20:09:45.744Z</time>
      </trkpt>
      <trkpt lat="46.80923" lon="0.0169">
        <ele>81.18</ele>
        <time>2023-06-13T20:10:30.536Z</time>
      </trkpt>
      <trkpt lat="46.80923" lon="0.01712">
        <ele>81.7</ele>
        <time>2023-06-13T20:11:15.330Z</time>
      </trkpt>
      <trkpt lat="46.80924" lon="0.01713">
        <ele>81.74</ele>
        <time>2023-06-13T20:12:00.124Z</time>
      </trkpt>
      <trkpt lat="46.80931" lon="0.0172">
        <ele>82.28</ele>
        <time>2023-06-13T20:12:44.920Z</time>
      </trkpt>
      <trkpt lat="46.80938" lon="0.01728">
        <ele>82.87</ele>
        <time>2023-06-13T20:13:29.717Z</time>
      </trkpt>
      <trkpt lat="46.80942" lon="0.01732">
        <ele>83.21</ele>
        <time>2023-06-13T20:14:14.515Z</time>
      </trkpt>
      <trkpt lat="46.80958" lon="0.01752">
        <ele>84.76</ele>
        <time>2023-06-13T20:14:59.316Z</time>
      </trkpt>
      <trkpt lat="46.80961" lon="0.01758">
        <ele>85.15</ele>
        <time>2023-06-13T20:15:44.118Z</time>
      </trkpt>
      <trkpt lat="46.80969" lon="0.01774">
        <ele>85.52</ele>
        <time>2023-06-13T20:16:28.922Z</time>
      </trkpt>
      <trkpt lat="46.80976" lon="0.0179">
        <ele>85.84</ele>
        <time>2023-06-13T20:17:13.728Z</time>
      </trkpt>
      <trkpt lat="46.80979" lon="0.01795">
        <ele>85.92</ele>
        <time>2023-06-13T20:17:58.535Z</time>
      </trkpt>
      <trkpt lat="46.80981" lon="0.018">
        <ele>85.95</ele>
        <time>2023-06-13T20:18:43.343Z</time>
      </trkpt>
      <trkpt lat="46.80984" lon="0.01806">
        <ele>85.93</ele>
        <time>2023-06-13T20:19:28.152Z</time>
      </trkpt>
      <trkpt lat="46.80986" lon="0.0181">
        <ele>85.87</ele>
        <time>2023-06-13T20:20:12.961Z</time>
      </trkpt>
      <trkpt lat="46.80991" lon="0.01822">
        <ele>85.74</ele>
        <time>2023-06-13T20:20:57.772Z</time>
      </trkpt>
      <trkpt lat="46.80996" lon="0.01833">
        <ele>85.68</ele>
        <time>2023-06-13T20:21:42.584Z</time>
      </trkpt>
      <trkpt lat="46.80998" lon="0.01837">
        <ele>85.68</ele>
        <time>2023-06-13T20:22:27.397Z</time>
      </trkpt>
      <trkpt lat="46.80995" lon="0.01854">
        <ele>85.7</ele>
        <time>2023-06-13T20:23:12.212Z</time>
      </trkpt>
      <trkpt lat="46.80996" lon="0.01864">
        <ele>85.72</ele>
        <time>2023-06-13T20:23:57.028Z</time>
      </trkpt>
      <trkpt lat="46.80998" lon="0.01887">
        <ele>85.69</ele>
        <time>2023-06-13T20:24:41.846Z</time>
      </trkpt>
      <trkpt lat="46.80999" lon="0.0189">
        <ele>85.69</ele>
        <time>2023-06-13T20:25:26.665Z</time>
      </trkpt>
      <trkpt lat="46.81006" lon="0.01921">
        <ele>85.78</ele>
        <time>2023-06-13T20:26:11.487Z</time>
      </trkpt>
      <trkpt lat="46.81012" lon="0.01945">
        <ele>85.78</ele>
        <time>2023-06-13T20:26:56.312Z</time>
      </trkpt>
      <trkpt lat="46.81013" lon="0.0195">
        <ele>85.79</ele>
        <time>2023-06-13T20:27:41.138Z</time>
      </trkpt>
      <trkpt lat="46.81014" lon="0.01951">
        <ele>85.8</ele>
        <time>2023-06-13T20:28:25.964Z</time>
      </trkpt>
      <trkpt lat="46.81024" lon="0.01973">
        <ele>85.94</ele>
        <time>2023-06-13T20:29:10.793Z</time>
      </trkpt>
      <trkpt lat="46.81029" lon="0.01983">
        <ele>85.95</ele>
        <time>2023-06-13T20:29:55.623Z</time>
      </trkpt>
      <trkpt lat="46.81041" lon="0.02004">
        <ele>85.98</ele>
        <time>2023-06-13T20:30:40.456Z</time>
      </trkpt>
      <trkpt lat="46.81052" lon="0.02024">
        <ele>86.03</ele>
        <time>2023-06-13T20:31:25.292Z</time>
      </trkpt>
      <trkpt lat="46.81066" lon="0.02049">
        <ele>85.93</ele>
        <time>2023-06-13T20:32:10.131Z</time>
      </trkpt>
      <trkpt lat="46.81069" lon="0.02054">
        <ele>85.89</ele>
        <time>2023-06-13T20:32:54.971Z</time>
      </trkpt>
      <trkpt lat="46.81081" lon="0.02081">
        <ele>85.69</ele>
        <time>2023-06-13T20:33:39.815Z</time>
      </trkpt>
      <trkpt lat="46.81105" lon="0.02135">
        <ele>85.5</ele>
        <time>2023-06-13T20:34:24.666Z</time>
      </trkpt>
      <trkpt lat="46.81107" lon="0.0214">
        <ele>85.49</ele>
        <time>2023-06-13T20:35:09.517Z</time>
      </trkpt>
      <trkpt lat="46.81114" lon="0.02156">
        <ele>85.4</ele>
        <time>2023-06-13T20:35:54.370Z</time>
      </trkpt>
      <trkpt lat="46.81116" lon="0.02162">
        <ele>85.4</ele>
        <time>2023-06-13T20:36:39.224Z</time>
      </trkpt>
      <trkpt lat="46.81118" lon="0.02167">
        <ele>85.42</ele>
        <time>2023-06-13T20:37:24.079Z</time>
      </trkpt>
      <trkpt lat="46.81121" lon="0.02173">
        <ele>85.49</ele>
        <time>2023-06-13T20:38:08.935Z</time>
      </trkpt>
      <trkpt lat="46.81123" lon="0.02178">
        <ele>85.6</ele>
        <time>2023-06-13T20:38:53.791Z</time>
      </trkpt>
      <trkpt lat="46.81127" lon="0.02189">
        <ele>85.86</ele>
        <time>2023-06-13T20:39:38.649Z</time>
      </trkpt>
      <trkpt lat="46.81136" lon="0.0221">
        <ele>85.53</ele>
        <time>2023-06-13T20:40:23.509Z</time>
      </trkpt>
      <trkpt lat="46.8114" lon="0.0222">
        <ele>85.34</ele>
        <time>2023-06-13T20:41:08.371Z</time>
      </trkpt>
      <trkpt lat="46.8114" lon="0.02221">
        <ele>85.32</ele>
        <time>2023-06-13T20:41:53.233Z</time>
      </trkpt>
      <trkpt lat="46.81143" lon="0.0223">
        <ele>85.13</ele>
        <time>2023-06-13T20:42:38.096Z</time>
      </trkpt>
      <trkpt lat="46.81145" lon="0.02245">
        <ele>84.84</ele>
        <time>2023-06-13T20:43:22.960Z</time>
      </trkpt>
      <trkpt lat="46.81145" lon="0.02247">
        <ele>84.81</ele>
        <time>2023-06-13T20:44:07.825Z</time>
      </trkpt>
      <trkpt lat="46.8113" lon="0.02252">
        <ele>84.47</ele>
        <time>2023-06-13T20:44:52.692Z</time>
      </trkpt>
      <trkpt lat="46.81125" lon="0.02253">
        <ele>84.39</ele>
        <time>2023-06-13T20:45:37.560Z</time>
      </trkpt>
      <trkpt lat="46.81121" lon="0.02255">
        <ele>84.33</ele>
        <time>2023-06-13T20:46:22.429Z</time>
      </trkpt>
      <trkpt lat="46.81109" lon="0.02259">
        <ele>84.24</ele>
        <time>2023-06-13T20:47:07.300Z</time>
      </trkpt>
      <trkpt lat="46.81105" lon="0.0226">
        <ele>84.19</ele>
        <time>2023-06-13T20:47:52.171Z</time>
      </trkpt>
      <trkpt lat="46.811" lon="0.02262">
        <ele>84.11</ele>
        <time>2023-06-13T20:48:37.043Z</time>
      </trkpt>
      <trkpt lat="46.81096" lon="0.02263">
        <ele>83.99</ele>
        <time>2023-06-13T20:49:21.916Z</time>
      </trkpt>
      <trkpt lat="46.81087" lon="0.02266">
        <ele>83.65</ele>
        <time>2023-06-13T20:50:06.790Z</time>
      </trkpt>
      <trkpt lat="46.81078" lon="0.02269">
        <ele>83.22</ele>
        <time>2023-06-13T20:50:51.666Z</time>
      </trkpt>
      <trkpt lat="46.81077" lon="0.02269">
        <ele>83.16</ele>
        <time>2023-06-13T20:51:36.542Z</time>
      </trkpt>
      <trkpt lat="46.81074" lon="0.02269">
        <ele>83.03</ele>
        <time>2023-06-13T20:52:21.418Z</time>
      </trkpt>
      <trkpt lat="46.81069" lon="0.02269">
        <ele>82.89</ele>
        <time>2023-06-13T20:53:06.295Z</time>
      </trkpt>
      <trkpt lat="46.81065" lon="0.0227">
        <ele>82.79</ele>
        <time>2023-06-13T20:53:51.173Z</time>
      </trkpt>
      <trkpt lat="46.81056" lon="0.0227">
        <ele>82.67</ele>
        <time>2023-06-13T20:54:36.052Z</time>
      </trkpt>
      <trkpt lat="46.81056" lon="0.0227">
        <ele>82.67</ele>
        <time>2023-06-13T20:55:20.931Z</time>
      </trkpt>
      <trkpt lat="46.81047" lon="0.02269">
        <ele>82.59</ele>
        <time>2023-06-13T20:56:05.812Z</time>
      </trkpt>
      <trkpt lat="46.81042" lon="0.02269">
        <ele>82.58</ele>
        <time>2023-06-13T20:56:50.693Z</time>
      </trkpt>
      <trkpt lat="46.81016" lon="0.02267">
        <ele>82.63</ele>
        <time>2023-06-13T20:57:35.579Z</time>
      </trkpt>
      <trkpt lat="46.81008" lon="0.02269">
        <ele>82.64</ele>
        <time>2023-06-13T20:58:20.466Z</time>
      </trkpt>
      <trkpt lat="46.81003" lon="0.02274">
        <ele>82.66</ele>
        <time>2023-06-13T20:59:05.354Z</time>
      </trkpt>
      <trkpt lat="46.81001" lon="0.02276">
        <ele>82.67</ele>
        <time>2023-06-13T20:59:50.242Z</time>
      </trkpt>
      <trkpt lat="46.80998" lon="0.02284">
        <ele>82.72</ele>
        <time>2023-06-13T21:00:35.131Z</time>
      </trkpt>
      <trkpt lat="46.80995" lon="0.02293">
        <ele>82.79</ele>
        <time>2023-06-13T21:01:20.021Z</time>
      </trkpt>
      <trkpt lat="46.80993" lon="0.02302">
        <ele>82.87</ele>
        <time>2023-06-13T21:02:04.912Z</time>
      </trkpt>
      <trkpt lat="46.80992" lon="0.02309">
        <ele>82.89</ele>
        <time>2023-06-13T21:02:49.804Z</time>
      </trkpt>
      <trkpt lat="46.80987" lon="0.02327">
        <ele>82.91</ele>
        <time>2023-06-13T21:03:34.698Z</time>
      </trkpt>
      <trkpt lat="46.80986" lon="0.02334">
        <ele>82.94</ele>
        <time>2023-06-13T21:04:19.593Z</time>
      </trkpt>
      <trkpt lat="46.80983" lon="0.02346">
        <ele>83.02</ele>
        <time>2023-06-13T21:05:04.490Z</time>
      </trkpt>
      <trkpt lat="46.80982" lon="0.02352">
        <ele>83.08</ele>
        <time>2023-06-13T21:05:49.387Z</time>
      </trkpt>
      <trkpt lat="46.80978" lon="0.02369">
        <ele>83.3</ele>
        <time>2023-06-13T21:06:34.286Z</time>
      </trkpt>
      <trkpt lat="46.80977" lon="0.02371">
        <ele>83.33</ele>
        <time>2023-06-13T21:07:19.185Z</time>
      </trkpt>
      <trkpt lat="46.80976" lon="0.02377">
        <ele>83.38</ele>
        <time>2023-06-13T21:08:04.085Z</time>
      </trkpt>
      <trkpt lat="46.80974" lon="0.02383">
        <ele>83.38</ele>
        <time>2023-06-13T21:08:48.986Z</time>
      </trkpt>
      <trkpt lat="46.80971" lon="0.02391">
        <ele>83.34</ele>
        <time>2023-06-13T21:09:33.888Z</time>
      </trkpt>
      <trkpt lat="46.80967" lon="0.024">
        <ele>83.31</ele>
        <time>2023-06-13T21:10:18.791Z</time>
      </trkpt>
      <trkpt lat="46.80964" lon="0.02405">
        <ele>83.31</ele>
        <time>2023-06-13T21:11:03.695Z</time>
      </trkpt>
      <trkpt lat="46.80951" lon="0.02432">
        <ele>83.43</ele>
        <time>2023-06-13T21:11:48.602Z</time>
      </trkpt>
      <trkpt lat="46.80948" lon="0.02438">
        <ele>83.49</ele>
        <time>2023-06-13T21:12:33.510Z</time>
      </trkpt>
      <trkpt lat="46.80936" lon="0.02456">
        <ele>83.68</ele>
        <time>2023-06-13T21:13:18.421Z</time>
      </trkpt>
      <trkpt lat="46.80924" lon="0.02475">
        <ele>83.81</ele>
        <time>2023-06-13T21:14:03.335Z</time>
      </trkpt>
      <trkpt lat="46.80921" lon="0.0248">
        <ele>83.88</ele>
        <time>2023-06-13T21:14:48.249Z</time>
      </trkpt>
      <trkpt lat="46.80918" lon="0.02484">
        <ele>83.98</ele>
        <time>2023-06-13T21:15:33.164Z</time>
      </trkpt>
      <trkpt lat="46.80911" lon="0.02494">
        <ele>84.24</ele>
        <time>2023-06-13T21:16:18.081Z</time>
      </trkpt>
      <trkpt lat="46.80908" lon="0.02499">
        <ele>84.33</ele>
        <time>2023-06-13T21:17:02.998Z</time>
      </trkpt>
      <trkpt lat="46.80905" lon="0.02503">
        <ele>84.32</ele>
        <time>2023-06-13T21:17:47.916Z</time>
      </trkpt>
      <trkpt lat="46.80902" lon="0.02508">
        <ele>84.22</ele>
        <time>2023-06-13T21:18:32.835Z</time>
      </trkpt>
      <trkpt lat="46.80902" lon="0.02508">
        <ele>84.22</ele>
        <time>2023-06-13T21:19:17.754Z</time>
      </trkpt>
      <trkpt lat="46.80895" lon="0.02515">
        <ele>83.98</ele>
        <time>2023-06-13T21:20:02.674Z</time>
      </trkpt>
      <trkpt lat="46.80891" lon="0.02519">
        <ele>83.88</ele>
        <time>2023-06-13T21:20:47.595Z</time>
      </trkpt>
      <trkpt lat="46.80883" lon="0.02526">
        <ele>83.75</ele>
        <time>2023-06-13T21:21:32.517Z</time>
      </trkpt>
      <trkpt lat="46.8088" lon="0.0253">
        <ele>83.73</ele>
        <time>2023-06-13T21:22:17.440Z</time>
      </trkpt>
      <trkpt lat="46.80876" lon="0.02534">
        <ele>83.72</ele>
        <time>2023-06-13T21:23:02.364Z</time>
      </trkpt>
      <trkpt lat="46.80872" lon="0.02537">
        <ele>83.74</ele>
        <time>2023-06-13T21:23:47.289Z</time>
      </trkpt>
      <trkpt lat="46.80857" lon="0.02552">
        <ele>83.92</ele>
        <time>2023-06-13T21:24:32.216Z</time>
      </trkpt>
      <trkpt lat="46.80855" lon="0.02554">
        <ele>83.92</ele>
        <time>2023-06-13T21:25:17.144Z</time>
      </trkpt>
      <trkpt lat="46.8085" lon="0.02558">
        <ele>83.95</ele>
        <time>2023-06-13T21:26:02.073Z</time>
      </trkpt>
      <trkpt lat="46.80834" lon="0.0257">
        <ele>83.91</ele>
        <time>2023-06-13T21:26:47.005Z</time>
      </trkpt>
      <trkpt lat="46.80822" lon="0.0258">
        <ele>83.94</ele>
        <time>2023-06-13T21:27:31.939Z</time>
      </trkpt>
      <trkpt lat="46.80818" lon="0.02583">
        <ele>83.92</ele>
        <time>2023-06-13T21:28:16.874Z</time>
      </trkpt>
      <trkpt lat="46.80806" lon="0.02592">
        <ele>83.81</ele>
        <time>2023-06-13T21:29:01.811Z</time>
      </trkpt>
      <trkpt lat="46.80802" lon="0.02595">
        <ele>83.83</ele>
        <time>2023-06-13T21:29:46.749Z</time>
      </trkpt>
      <trkpt lat="46.80798" lon="0.02598">
        <ele>83.9</ele>
        <time>2023-06-13T21:30:31.687Z</time>
      </trkpt>
      <trkpt lat="46.8079" lon="0.02604">
        <ele>84.15</ele>
        <time>2023-06-13T21:31:16.627Z</time>
      </trkpt>
      <trkpt lat="46.80786" lon="0.02607">
        <ele>84.25</ele>
        <time>2023-06-13T21:32:01.567Z</time>
      </trkpt>
      <trkpt lat="46.80782" lon="0.0261">
        <ele>84.32</ele>
        <time>2023-06-13T21:32:46.508Z</time>
      </trkpt>
      <trkpt lat="46.80778" lon="0.02613">
        <ele>84.36</ele>
        <time>2023-06-13T21:33:31.450Z</time>
      </trkpt>
      <trkpt lat="46.80777" lon="0.02614">
        <ele>84.36</ele>
        <time>2023-06-13T21:34:16.392Z</time>
      </trkpt>
      <trkpt lat="46.80767" lon="0.02624">
        <ele>84.4</ele>
        <time>2023-06-13T21:35:01.336Z</time>
      </trkpt>
      <trkpt lat="46.80754" lon="0.02638">
        <ele>84.47</ele>
        <time>2023-06-13T21:35:46.283Z</time>
      </trkpt>
      <trkpt lat="46.8075" lon="0.02645">
        <ele>84.5</ele>
        <time>2023-06-13T21:36:31.231Z</time>
      </trkpt>
      <trkpt lat="46.80741" lon="0.0266">
        <ele>84.64</ele>
        <time>2023-06-13T21:37:16.181Z</time>
      </trkpt>
      <trkpt lat="46.80738" lon="0.02665">
        <ele>84.67</ele>
        <time>2023-06-13T21:38:01.131Z</time>
      </trkpt>
      <trkpt lat="46.80735" lon="0.0267">
        <ele>84.68</ele>
        <time>2023-06-13T21:38:46.082Z</time>
      </trkpt>
      <trkpt lat="46.80726" lon="0.02684">
        <ele>84.65</ele>
        <time>2023-06-13T21:39:31.035Z</time>
      </trkpt>
      <trkpt lat="46.80723" lon="0.02689">
        <ele>84.67</ele>
        <time>2023-06-13T21:40:15.989Z</time>
      </trkpt>
      <trkpt lat="46.8072" lon="0.02694">
        <ele>84.73</ele>
        <time>2023-06-13T21:41:00.944Z</time>
      </trkpt>
      <trkpt lat="46.8071" lon="0.0271">
        <ele>84.97</ele>
        <time>2023-06-13T21:41:45.901Z</time>
      </trkpt>
      <trkpt lat="46.80708" lon="0.02714">
        <ele>85.03</ele>
        <time>2023-06-13T21:42:30.859Z</time>
      </trkpt>
      <trkpt lat="46.80706" lon="0.02719">
        <ele>85.07</ele>
        <time>2023-06-13T21:43:15.817Z</time>
      </trkpt>
      <trkpt lat="46.80702" lon="0.02728">
        <ele>85.07</ele>
        <time>2023-06-13T21:44:00.776Z</time>
      </trkpt>
      <trkpt lat="46.80701" lon="0.02731">
        <ele>85.08</ele>
        <time>2023-06-13T21:44:45.736Z</time>
      </trkpt>
      <trkpt lat="46.80693" lon="0.02761">
        <ele>84.94</ele>
        <time>2023-06-13T21:45:30.699Z</time>
      </trkpt>
      <trkpt lat="46.8069" lon="0.02774">
        <ele>84.92</ele>
        <time>2023-06-13T21:46:15.664Z</time>
      </trkpt>
      <trkpt lat="46.80689" lon="0.0278">
        <ele>84.96</ele>
        <time>2023-06-13T21:47:00.630Z</time>
      </trkpt>
      <trkpt lat="46.80684" lon="0.02798">
        <ele>85.23</ele>
        <time>2023-06-13T21:47:45.598Z</time>
      </trkpt>
      <trkpt lat="46.80682" lon="0.02804">
        <ele>85.25</ele>
        <time>2023-06-13T21:48:30.566Z</time>
      </trkpt>
      <trkpt lat="46.80682" lon="0.02806">
        <ele>85.24</ele>
        <time>2023-06-13T21:49:15.535Z</time>
      </trkpt>
      <trkpt lat="46.80683" lon="0.02811">
        <ele>85.23</ele>
        <time>2023-06-13T21:50:00.504Z</time>
      </trkpt>
      <trkpt lat="46.80683" lon="0.02814">
        <ele>85.19</ele>
        <time>2023-06-13T21:50:45.474Z</time>
      </trkpt>
      <trkpt lat="46.80686" lon="0.02822">
        <ele>85.1</ele>
        <time>2023-06-13T21:51:30.445Z</time>
      </trkpt>
      <trkpt lat="46.80687" lon="0.02824">
        <ele>85.09</ele>
        <time>2023-06-13T21:52:15.416Z</time>
      </trkpt>
      <trkpt lat="46.8069" lon="0.02827">
        <ele>85.07</ele>
        <time>2023-06-13T21:53:00.387Z</time>
      </trkpt>
      <trkpt lat="46.80697" lon="0.02835">
        <ele>85.07</ele>
        <time>2023-06-13T21:53:45.360Z</time>
      </trkpt>
      <trkpt lat="46.80704" lon="0.02843">
        <ele>85.01</ele>
        <time>2023-06-13T21:54:30.334Z</time>
      </trkpt>
      <trkpt lat="46.80718" lon="0.02859">
        <ele>84.79</ele>
        <time>2023-06-13T21:55:15.311Z</time>
      </trkpt>
      <trkpt lat="46.80729" lon="0.02871">
        <ele>84.56</ele>
        <time>2023-06-13T21:56:00.290Z</time>
      </trkpt>
      <trkpt lat="46.80736" lon="0.02879">
        <ele>84.5</ele>
        <time>2023-06-13T21:56:45.271Z</time>
      </trkpt>
      <trkpt lat="46.80743" lon="0.02887">
        <ele>84.49</ele>
        <time>2023-06-13T21:57:30.253Z</time>
      </trkpt>
      <trkpt lat="46.8075" lon="0.02895">
        <ele>84.52</ele>
        <time>2023-06-13T21:58:15.237Z</time>
      </trkpt>
      <trkpt lat="46.80772" lon="0.02918">
        <ele>84.74</ele>
        <time>2023-06-13T21:59:00.225Z</time>
      </trkpt>
      <trkpt lat="46.80775" lon="0.02922">
        <ele>84.76</ele>
        <time>2023-06-13T21:59:45.214Z</time>
      </trkpt>
      <trkpt lat="46.80786" lon="0.02934">
        <ele>84.73</ele>
        <time>2023-06-13T22:00:30.205Z</time>
      </trkpt>
      <trkpt lat="46.80791" lon="0.0294">
        <ele>84.74</ele>
        <time>2023-06-13T22:01:15.197Z</time>
      </trkpt>
      <trkpt lat="46.80796" lon="0.02947">
        <ele>84.77</ele>
        <time>2023-06-13T22:02:00.190Z</time>
      </trkpt>
      <trkpt lat="46.80799" lon="0.02952">
        <ele>84.75</ele>
        <time>2023-06-13T22:02:45.184Z</time>
      </trkpt>
      <trkpt lat="46.80805" lon="0.02961">
        <ele>84.61</ele>
        <time>2023-06-13T22:03:30.179Z</time>
      </trkpt>
      <trkpt lat="46.80809" lon="0.02966">
        <ele>84.57</ele>
        <time>2023-06-13T22:04:15.175Z</time>
      </trkpt>
      <trkpt lat="46.80812" lon="0.02971">
        <ele>84.61</ele>
        <time>2023-06-13T22:05:00.172Z</time>
      </trkpt>
      <trkpt lat="46.80814" lon="0.02974">
        <ele>84.7</ele>
        <time>2023-06-13T22:05:45.169Z</time>
      </trkpt>
      <trkpt lat="46.80815" lon="0.02976">
        <ele>84.74</ele>
        <time>2023-06-13T22:06:30.166Z</time>
      </trkpt>
      <trkpt lat="46.80819" lon="0.02987">
        <ele>85.06</ele>
        <time>2023-06-13T22:07:15.165Z</time>
      </trkpt>
      <trkpt lat="46.80822" lon="0.02992">
        <ele>85.11</ele>
        <time>2023-06-13T22:08:00.164Z</time>
      </trkpt>
      <trkpt lat="46.80824" lon="0.02998">
        <ele>85.07</ele>
        <time>2023-06-13T22:08:45.164Z</time>
      </trkpt>
      <trkpt lat="46.80829" lon="0.03009">
        <ele>84.91</ele>
        <time>2023-06-13T22:09:30.166Z</time>
      </trkpt>
      <trkpt lat="46.80831" lon="0.03015">
        <ele>84.86</ele>
        <time>2023-06-13T22:10:15.168Z</time>
      </trkpt>
      <trkpt lat="46.80833" lon="0.03021">
        <ele>84.85</ele>
        <time>2023-06-13T22:11:00.171Z</time>
      </trkpt>
      <trkpt lat="46.80837" lon="0.0303">
        <ele>84.86</ele>
        <time>2023-06-13T22:11:45.175Z</time>
      </trkpt>
      <trkpt lat="46.8084" lon="0.03045">
        <ele>84.89</ele>
        <time>2023-06-13T22:12:30.181Z</time>
      </trkpt>
      <trkpt lat="46.80844" lon="0.03063">
        <ele>84.96</ele>
        <time>2023-06-13T22:13:15.189Z</time>
      </trkpt>
      <trkpt lat="46.80845" lon="0.0307">
        <ele>84.96</ele>
        <time>2023-06-13T22:14:00.198Z</time>
      </trkpt>
      <trkpt lat="46.80851" lon="0.03095">
        <ele>84.76</ele>
        <time>2023-06-13T22:14:45.210Z</time>
      </trkpt>
      <trkpt lat="46.80852" lon="0.03101">
        <ele>84.73</ele>
        <time>2023-06-13T22:15:30.222Z</time>
      </trkpt>
      <trkpt lat="46.80853" lon="0.03105">
        <ele>84.72</ele>
        <time>2023-06-13T22:16:15.235Z</time>
      </trkpt>
      <trkpt lat="46.80853" lon="0.03107">
        <ele>84.72</ele>
        <time>2023-06-13T22:17:00.248Z</time>
      </trkpt>
      <trkpt lat="46.80855" lon="0.0312">
        <ele>84.76</ele>
        <time>2023-06-13T22:17:45.263Z</time>
      </trkpt>
      <trkpt lat="46.80857" lon="0.03138">
        <ele>84.69</ele>
        <time>2023-06-13T22:18:30.280Z</time>
      </trkpt>
      <trkpt lat="46.80858" lon="0.03145">
        <ele>84.67</ele>
        <time>2023-06-13T22:19:15.297Z</time>
      </trkpt>
      <trkpt lat="46.80858" lon="0.03157">
        <ele>84.65</ele>
        <time>2023-06-13T22:20:00.316Z</time>
      </trkpt>
      <trkpt lat="46.80857" lon="0.03169">
        <ele>84.67</ele>
        <time>2023-06-13T22:20:45.336Z</time>
      </trkpt>
      <trkpt lat="46.80857" lon="0.03184">
        <ele>84.75</ele>
        <time>2023-06-13T22:21:30.358Z</time>
      </trkpt>
      <trkpt lat="46.80856" lon="0.03187">
        <ele>84.78</ele>
        <time>2023-06-13T22:22:15.380Z</time>
      </trkpt>
      <trkpt lat="46.80852" lon="0.03209">
        <ele>84.54</ele>
        <time>2023-06-13T22:23:00.404Z</time>
      </trkpt>
      <trkpt lat="46.80849" lon="0.03222">
        <ele>84.46</ele>
        <time>2023-06-13T22:23:45.430Z</time>
      </trkpt>
      <trkpt lat="46.80848" lon="0.03228">
        <ele>84.39</ele>
        <time>2023-06-13T22:24:30.457Z</time>
      </trkpt>
      <trkpt lat="46.80844" lon="0.03249">
        <ele>84.1</ele>
        <time>2023-06-13T22:25:15.486Z</time>
      </trkpt>
      <trkpt lat="46.80848" lon="0.03258">
        <ele>83.97</ele>
        <time>2023-06-13T22:26:00.516Z</time>
      </trkpt>
      <trkpt lat="46.80853" lon="0.03268">
        <ele>83.85</ele>
        <time>2023-06-13T22:26:45.548Z</time>
      </trkpt>
      <trkpt lat="46.80858" lon="0.03287">
        <ele>83.66</ele>
        <time>2023-06-13T22:27:30.582Z</time>
      </trkpt>
      <trkpt lat="46.80861" lon="0.03292">
        <ele>83.6</ele>
        <time>2023-06-13T22:28:15.616Z</time>
      </trkpt>
      <trkpt lat="46.80867" lon="0.03302">
        <ele>83.53</ele>
        <time>2023-06-13T22:29:00.652Z</time>
      </trkpt>
      <trkpt lat="46.8088" lon="0.03326">
        <ele>83.53</ele>
        <time>2023-06-13T22:29:45.691Z</time>
      </trkpt>
      <trkpt lat="46.8088" lon="0.03326">
        <ele>83.49</ele>
        <time>2023-06-13T22:30:30.730Z</time>
      </trkpt>
      <trkpt lat="46.80886" lon="0.03335">
        <ele>83.49</ele>
        <time>2023-06-13T22:31:15.771Z</time>
      </trkpt>
      <trkpt lat="46.80894" lon="0.03349">
        <ele>83.57</ele>
        <time>2023-06-13T22:32:00.814Z</time>
      </trkpt>
      <trkpt lat="46.809" lon="0.03359">
        <ele>83.67</ele>
        <time>2023-06-13T22:32:45.858Z</time>
      </trkpt>
      <trkpt lat="46.80909" lon="0.03375">
        <ele>83.87</ele>
        <time>2023-06-13T22:33:30.904Z</time>
      </trkpt>
      <trkpt lat="46.80903" lon="0.03383">
        <ele>84</ele>
        <time>2023-06-13T22:34:15.952Z</time>
      </trkpt>
      <trkpt lat="46.80892" lon="0.03374">
        <ele>84.18</ele>
        <time>2023-06-13T22:35:01.002Z</time>
      </trkpt>
      <trkpt lat="46.80884" lon="0.03373">
        <ele>84.31</ele>
        <time>2023-06-13T22:35:46.053Z</time>
      </trkpt>
      <trkpt lat="46.80883" lon="0.03373">
        <ele>84.33</ele>
        <time>2023-06-13T22:36:31.104Z</time>
      </trkpt>
      <trkpt lat="46.80872" lon="0.03375">
        <ele>84.62</ele>
        <time>2023-06-13T22:37:16.157Z</time>
      </trkpt>
      <trkpt lat="46.80869" lon="0.03376">
        <ele>84.66</ele>
        <time>2023-06-13T22:38:01.210Z</time>
      </trkpt>
      <trkpt lat="46.80858" lon="0.03376">
        <ele>84.83</ele>
        <time>2023-06-13T22:38:46.265Z</time>
      </trkpt>
      <trkpt lat="46.80845" lon="0.03376">
        <ele>85.14</ele>
        <time>2023-06-13T22:39:31.322Z</time>
      </trkpt>
      <trkpt lat="46.8084" lon="0.03376">
        <ele>85.26</ele>
        <time>2023-06-13T22:40:16.380Z</time>
      </trkpt>
      <trkpt lat="46.80832" lon="0.03377">
        <ele>85.46</ele>
        <time>2023-06-13T22:41:01.439Z</time>
      </trkpt>
      <trkpt lat="46.80814" lon="0.03379">
        <ele>85.97</ele>
        <time>2023-06-13T22:41:46.501Z</time>
      </trkpt>
      <trkpt lat="46.808" lon="0.03381">
        <ele>86.32</ele>
        <time>2023-06-13T22:42:31.566Z</time>
      </trkpt>
      <trkpt lat="46.80788" lon="0.03383">
        <ele>86.39</ele>
        <time>2023-06-13T22:43:16.632Z</time>
      </trkpt>
      <trkpt lat="46.80787" lon="0.03383">
        <ele>86.4</ele>
        <time>2023-06-13T22:44:01.699Z</time>
      </trkpt>
      <trkpt lat="46.8077" lon="0.03383">
        <ele>86.29</ele>
        <time>2023-06-13T22:44:46.768Z</time>
      </trkpt>
      <trkpt lat="46.80768" lon="0.03383">
        <ele>86.28</ele>
        <time>2023-06-13T22:45:31.838Z</time>
      </trkpt>
      <trkpt lat="46.80759" lon="0.03385">
        <ele>86.11</ele>
        <time>2023-06-13T22:46:16.909Z</time>
      </trkpt>
      <trkpt lat="46.80756" lon="0.03386">
        <ele>86.01</ele>
        <time>2023-06-13T22:47:01.981Z</time>
      </trkpt>
      <trkpt lat="46.8075" lon="0.03389">
        <ele>85.84</ele>
        <time>2023-06-13T22:47:47.054Z</time>
      </trkpt>
      <trkpt lat="46.80744" lon="0.03393">
        <ele>85.68</ele>
        <time>2023-06-13T22:48:32.128Z</time>
      </trkpt>
      <trkpt lat="46.80742" lon="0.03395">
        <ele>85.62</ele>
        <time>2023-06-13T22:49:17.202Z</time>
      </trkpt>
      <trkpt lat="46.80728" lon="0.03407">
        <ele>85.13</ele>
        <time>2023-06-13T22:50:02.279Z</time>
      </trkpt>
      <trkpt lat="46.80726" lon="0.0341">
        <ele>85.04</ele>
        <time>2023-06-13T22:50:47.356Z</time>
      </trkpt>
      <trkpt lat="46.80717" lon="0.03419">
        <ele>84.81</ele>
        <time>2023-06-13T22:51:32.435Z</time>
      </trkpt>
      <trkpt lat="46.807" lon="0.03438">
        <ele>84.39</ele>
        <time>2023-06-13T22:52:17.517Z</time>
      </trkpt>
      <trkpt lat="46.80698" lon="0.0344">
        <ele>84.36</ele>
        <time>2023-06-13T22:53:02.600Z</time>
      </trkpt>
      <trkpt lat="46.8068" lon="0.03454">
        <ele>84.09</ele>
        <time>2023-06-13T22:53:47.686Z</time>
      </trkpt>
      <trkpt lat="46.80671" lon="0.03462">
        <ele>83.9</ele>
        <time>2023-06-13T22:54:32.774Z</time>
      </trkpt>
      <trkpt lat="46.80663" lon="0.03471">
        <ele>83.73</ele>
        <time>2023-06-13T22:55:17.863Z</time>
      </trkpt>
      <trkpt lat="46.80654" lon="0.03479">
        <ele>83.57</ele>
        <time>2023-06-13T22:56:02.954Z</time>
      </trkpt>
      <trkpt lat="46.80653" lon="0.03481">
        <ele>83.55</ele>
        <time>2023-06-13T22:56:48.045Z</time>
      </trkpt>
      <trkpt lat="46.80646" lon="0.03488">
        <ele>83.46</ele>
        <time>2023-06-13T22:57:33.138Z</time>
      </trkpt>
      <trkpt lat="46.80637" lon="0.03495">
        <ele>83.44</ele>
        <time>2023-06-13T22:58:18.232Z</time>
      </trkpt>
      <trkpt lat="46.80629" lon="0.03503">
        <ele>83.5</ele>
        <time>2023-06-13T22:59:03.328Z</time>
      </trkpt>
      <trkpt lat="46.80617" lon="0.03514">
        <ele>83.75</ele>
        <time>2023-06-13T22:59:48.426Z</time>
      </trkpt>
      <trkpt lat="46.8061" lon="0.03523">
        <ele>83.92</ele>
        <time>2023-06-13T23:00:33.525Z</time>
      </trkpt>
      <trkpt lat="46.80602" lon="0.03533">
        <ele>83.97</ele>
        <time>2023-06-13T23:01:18.626Z</time>
      </trkpt>
      <trkpt lat="46.806" lon="0.03536">
        <ele>83.99</ele>
        <time>2023-06-13T23:02:03.728Z</time>
      </trkpt>
      <trkpt lat="46.806" lon="0.03536">
        <ele>83.81</ele>
        <time>2023-06-13T23:02:48.830Z</time>
      </trkpt>
      <trkpt lat="46.80595" lon="0.03545">
        <ele>83.72</ele>
        <time>2023-06-13T23:03:33.933Z</time>
      </trkpt>
      <trkpt lat="46.8059" lon="0.03558">
        <ele>83.62</ele>
        <time>2023-06-13T23:04:19.038Z</time>
      </trkpt>
      <trkpt lat="46.8059" lon="0.03558">
        <ele>83.62</ele>
        <time>2023-06-13T23:05:04.143Z</time>
      </trkpt>
      <trkpt lat="46.80589" lon="0.03564">
        <ele>83.59</ele>
        <time>2023-06-13T23:05:49.248Z</time>
      </trkpt>
      <trkpt lat="46.80587" lon="0.03575">
        <ele>83.76</ele>
        <time>2023-06-13T23:06:34.355Z</time>
      </trkpt>
      <trkpt lat="46.80576" lon="0.03587">
        <ele>84.06</ele>
        <time>2023-06-13T23:07:19.464Z</time>
      </trkpt>
      <trkpt lat="46.80576" lon="0.03587">
        <ele>84.06</ele>
        <time>2023-06-13T23:08:04.573Z</time>
      </trkpt>
      <trkpt lat="46.80573" lon="0.03581">
        <ele>84.15</ele>
        <time>2023-06-13T23:08:49.683Z</time>
      </trkpt>
      <trkpt lat="46.8057" lon="0.03579">
        <ele>84.23</ele>
        <time>2023-06-13T23:09:34.793Z</time>
      </trkpt>
      <trkpt lat="46.80566" lon="0.03576">
        <ele>84.28</ele>
        <time>2023-06-13T23:10:19.904Z</time>
      </trkpt>
      <trkpt lat="46.80562" lon="0.03573">
        <ele>84.3</ele>
        <time>2023-06-13T23:11:05.015Z</time>
      </trkpt>
      <trkpt lat="46.80562" lon="0.03573">
        <ele>84.3</ele>
        <time>2023-06-13T23:11:50.127Z</time>
      </trkpt>
      <trkpt lat="46.8056" lon="0.03567">
        <ele>84.29</ele>
        <time>2023-06-13T23:12:35.239Z</time>
      </trkpt>
      <trkpt lat="46.8056" lon="0.03567">
        <ele>84.29</ele>
        <time>2023-06-13T23:13:20.351Z</time>
      </trkpt>
      <trkpt lat="46.80556" lon="0.03566">
        <ele>84.23</ele>
        <time>2023-06-13T23:14:05.464Z</time>
      </trkpt>
      <trkpt lat="46.80548" lon="0.0356">
        <ele>84.13</ele>
        <time>2023-06-13T23:14:50.578Z</time>
      </trkpt>
      <trkpt lat="46.80541" lon="0.03554">
        <ele>84.09</ele>
        <time>2023-06-13T23:15:35.694Z</time>
      </trkpt>
      <trkpt lat="46.80537" lon="0.03551">
        <ele>84.1</ele>
        <time>2023-06-13T23:16:20.810Z</time>
      </trkpt>
      <trkpt lat="46.80529" lon="0.03545">
        <ele>84.18</ele>
        <time>2023-06-13T23:17:05.928Z</time>
      </trkpt>
      <trkpt lat="46.80524" lon="0.03542">
        <ele>84.19</ele>
        <time>2023-06-13T23:17:51.047Z</time>
      </trkpt>
      <trkpt lat="46.80502" lon="0.03525">
        <ele>84.16</ele>
        <time>2023-06-13T23:18:36.170Z</time>
      </trkpt>
      <trkpt lat="46.80493" lon="0.0351">
        <ele>84.14</ele>
        <time>2023-06-13T23:19:21.295Z</time>
      </trkpt>
      <trkpt lat="46.80488" lon="0.03511">
        <ele>84.13</ele>
        <time>2023-06-13T23:20:06.421Z</time>
      </trkpt>
      <trkpt lat="46.80483" lon="0.03542">
        <ele>84.11</ele>
        <time>2023-06-13T23:20:51.550Z</time>
      </trkpt>
      <trkpt lat="46.80472" lon="0.03681">
        <ele>84</ele>
        <time>2023-06-13T23:21:36.695Z</time>
      </trkpt>
      <trkpt lat="46.80469" lon="0.03696">
        <ele>83.99</ele>
        <time>2023-06-13T23:22:21.841Z</time>
      </trkpt>
      <trkpt lat="46.80442" lon="0.03752">
        <ele>83.93</ele>
        <time>2023-06-13T23:23:06.995Z</time>
      </trkpt>
      <trkpt lat="46.80438" lon="0.03765">
        <ele>83.92</ele>
        <time>2023-06-13T23:23:52.150Z</time>
      </trkpt>
      <trkpt lat="46.80437" lon="0.03781">
        <ele>83.91</ele>
        <time>2023-06-13T23:24:37.307Z</time>
      </trkpt>
      <trkpt lat="46.80442" lon="0.039">
        <ele>83.82</ele>
        <time>2023-06-13T23:25:22.477Z</time>
      </trkpt>
      <trkpt lat="46.80442" lon="0.03945">
        <ele>83.78</ele>
        <time>2023-06-13T23:26:07.652Z</time>
      </trkpt>
      <trkpt lat="46.80437" lon="0.04011">
        <ele>83.73</ele>
        <time>2023-06-13T23:26:52.834Z</time>
      </trkpt>
      <trkpt lat="46.80429" lon="0.04049">
        <ele>83.7</ele>
        <time>2023-06-13T23:27:38.021Z</time>
      </trkpt>
      <trkpt lat="46.80418" lon="0.04076">
        <ele>83.67</ele>
        <time>2023-06-13T23:28:23.211Z</time>
      </trkpt>
      <trkpt lat="46.80407" lon="0.04097">
        <ele>83.65</ele>
        <time>2023-06-13T23:29:08.404Z</time>
      </trkpt>
      <trkpt lat="46.80396" lon="0.04108">
        <ele>83.64</ele>
        <time>2023-06-13T23:29:53.599Z</time>
      </trkpt>
      <trkpt lat="46.80381" lon="0.04117">
        <ele>83.62</ele>
        <time>2023-06-13T23:30:38.797Z</time>
      </trkpt>
      <trkpt lat="46.80363" lon="0.04122">
        <ele>83.6</ele>
        <time>2023-06-13T23:31:23.998Z</time>
      </trkpt>
      <trkpt lat="46.80303" lon="0.04129">
        <ele>83.53</ele>
        <time>2023-06-13T23:32:09.208Z</time>
      </trkpt>
      <trkpt lat="46.80292" lon="0.04127">
        <ele>83.52</ele>
        <time>2023-06-13T23:32:54.420Z</time>
      </trkpt>
      <trkpt lat="46.80279" lon="0.04125">
        <ele>83.26</ele>
        <time>2023-06-13T23:33:39.634Z</time>
      </trkpt>
      <trkpt lat="46.80275" lon="0.04122">
        <ele>83.19</ele>
        <time>2023-06-13T23:34:24.849Z</time>
      </trkpt>
      <trkpt lat="46.80263" lon="0.04114">
        <ele>82.98</ele>
        <time>2023-06-13T23:35:10.066Z</time>
      </trkpt>
      <trkpt lat="46.80255" lon="0.04109">
        <ele>82.88</ele>
        <time>2023-06-13T23:35:55.285Z</time>
      </trkpt>
      <trkpt lat="46.80251" lon="0.04106">
        <ele>82.84</ele>
        <time>2023-06-13T23:36:40.504Z</time>
      </trkpt>
      <trkpt lat="46.80244" lon="0.04122">
        <ele>82.73</ele>
        <time>2023-06-13T23:37:25.725Z</time>
      </trkpt>
      <trkpt lat="46.80241" lon="0.04131">
        <ele>82.69</ele>
        <time>2023-06-13T23:38:10.947Z</time>
      </trkpt>
      <trkpt lat="46.8024" lon="0.04133">
        <ele>82.68</ele>
        <time>2023-06-13T23:38:56.170Z</time>
      </trkpt>
      <trkpt lat="46.80237" lon="0.04139">
        <ele>82.68</ele>
        <time>2023-06-13T23:39:41.393Z</time>
      </trkpt>
      <trkpt lat="46.80232" lon="0.04149">
        <ele>82.72</ele>
        <time>2023-06-13T23:40:26.618Z</time>
      </trkpt>
      <trkpt lat="46.80224" lon="0.04165">
        <ele>82.89</ele>
        <time>2023-06-13T23:41:11.845Z</time>
      </trkpt>
      <trkpt lat="46.80222" lon="0.0417">
        <ele>82.92</ele>
        <time>2023-06-13T23:41:57.073Z</time>
      </trkpt>
      <trkpt lat="46.80214" lon="0.04186">
        <ele>82.93</ele>
        <time>2023-06-13T23:42:42.303Z</time>
      </trkpt>
      <trkpt lat="46.80211" lon="0.04191">
        <ele>82.95</ele>
        <time>2023-06-13T23:43:27.534Z</time>
      </trkpt>
      <trkpt lat="46.80209" lon="0.04196">
        <ele>83</ele>
        <time>2023-06-13T23:44:12.765Z</time>
      </trkpt>
      <trkpt lat="46.80204" lon="0.04206">
        <ele>83.18</ele>
        <time>2023-06-13T23:44:57.998Z</time>
      </trkpt>
      <trkpt lat="46.80196" lon="0.04222">
        <ele>83.53</ele>
        <time>2023-06-13T23:45:43.233Z</time>
      </trkpt>
      <trkpt lat="46.80191" lon="0.04233">
        <ele>83.74</ele>
        <time>2023-06-13T23:46:28.469Z</time>
      </trkpt>
      <trkpt lat="46.80178" lon="0.04259">
        <ele>83.61</ele>
        <time>2023-06-13T23:47:13.709Z</time>
      </trkpt>
      <trkpt lat="46.80168" lon="0.0428">
        <ele>83.55</ele>
        <time>2023-06-13T23:47:58.952Z</time>
      </trkpt>
      <trkpt lat="46.80165" lon="0.04285">
        <ele>83.54</ele>
        <time>2023-06-13T23:48:44.195Z</time>
      </trkpt>
      <trkpt lat="46.80158" lon="0.04277">
        <ele>83.52</ele>
        <time>2023-06-13T23:49:29.440Z</time>
      </trkpt>
      <trkpt lat="46.80154" lon="0.04275">
        <ele>83.52</ele>
        <time>2023-06-13T23:50:14.685Z</time>
      </trkpt>
      <trkpt lat="46.8015" lon="0.04274">
        <ele>83.52</ele>
        <time>2023-06-13T23:50:59.931Z</time>
      </trkpt>
      <trkpt lat="46.80144" lon="0.04281">
        <ele>83.53</ele>
        <time>2023-06-13T23:51:45.178Z</time>
      </trkpt>
      <trkpt lat="46.80143" lon="0.04283">
        <ele>83.54</ele>
        <time>2023-06-13T23:52:30.426Z</time>
      </trkpt>
      <trkpt lat="46.80138" lon="0.04294">
        <ele>83.59</ele>
        <time>2023-06-13T23:53:15.675Z</time>
      </trkpt>
      <trkpt lat="46.80131" lon="0.0431">
        <ele>83.71</ele>
        <time>2023-06-13T23:54:00.926Z</time>
      </trkpt>
      <trkpt lat="46.80129" lon="0.04315">
        <ele>83.73</ele>
        <time>2023-06-13T23:54:46.178Z</time>
      </trkpt>
      <trkpt lat="46.80114" lon="0.04347">
        <ele>83.74</ele>
        <time>2023-06-13T23:55:31.434Z</time>
      </trkpt>
      <trkpt lat="46.80106" lon="0.04365">
        <ele>83.79</ele>
        <time>2023-06-13T23:56:16.692Z</time>
      </trkpt>
      <trkpt lat="46.80116" lon="0.0438">
        <ele>83.84</ele>
        <time>2023-06-13T23:57:01.953Z</time>
      </trkpt>
      <trkpt lat="46.80117" lon="0.04385">
        <ele>83.85</ele>
        <time>2023-06-13T23:57:47.214Z</time>
      </trkpt>
      <trkpt lat="46.80108" lon="0.04405">
        <ele>83.91</ele>
        <time>2023-06-13T23:58:32.478Z</time>
      </trkpt>
      <trkpt lat="46.80103" lon="0.04415">
        <ele>83.99</ele>
        <time>2023-06-13T23:59:17.743Z</time>
      </trkpt>
      <trkpt lat="46.80096" lon="0.04431">
        <ele>84.14</ele>
        <time>2023-06-14T00:00:03.010Z</time>
      </trkpt>
      <trkpt lat="46.80093" lon="0.04437">
        <ele>84.21</ele>
        <time>2023-06-14T00:00:48.278Z</time>
      </trkpt>
      <trkpt lat="46.80088" lon="0.04447">
        <ele>84.4</ele>
        <time>2023-06-14T00:01:33.547Z</time>
      </trkpt>
      <trkpt lat="46.80085" lon="0.04454">
        <ele>84.42</ele>
        <time>2023-06-14T00:02:18.817Z</time>
      </trkpt>
      <trkpt lat="46.80064" lon="0.04501">
        <ele>84.43</ele>
        <time>2023-06-14T00:03:04.094Z</time>
      </trkpt>
      <trkpt lat="46.80058" lon="0.04499">
        <ele>84.43</ele>
        <time>2023-06-14T00:03:49.371Z</time>
      </trkpt>
      <trkpt lat="46.80039" lon="0.04511">
        <ele>84.44</ele>
        <time>2023-06-14T00:04:34.652Z</time>
      </trkpt>
      <trkpt lat="46.80033" lon="0.04523">
        <ele>84.44</ele>
        <time>2023-06-14T00:05:19.934Z</time>
      </trkpt>
      <trkpt lat="46.80025" lon="0.04557">
        <ele>84.45</ele>
        <time>2023-06-14T00:06:05.220Z</time>
      </trkpt>
      <trkpt lat="46.79976" lon="0.04811">
        <ele>84.52</ele>
        <time>2023-06-14T00:06:50.535Z</time>
      </trkpt>
      <trkpt lat="46.79964" lon="0.04912">
        <ele>84.55</ele>
        <time>2023-06-14T00:07:35.862Z</time>
      </trkpt>
      <trkpt lat="46.79956" lon="0.04966">
        <ele>84.56</ele>
        <time>2023-06-14T00:08:21.195Z</time>
      </trkpt>
      <trkpt lat="46.79946" lon="0.05013">
        <ele>84.57</ele>
        <time>2023-06-14T00:09:06.533Z</time>
      </trkpt>
      <trkpt lat="46.799" lon="0.05203">
        <ele>84.62</ele>
        <time>2023-06-14T00:09:51.893Z</time>
      </trkpt>
      <trkpt lat="46.79884" lon="0.05255">
        <ele>84.64</ele>
        <time>2023-06-14T00:10:37.260Z</time>
      </trkpt>
      <trkpt lat="46.79856" lon="0.05335">
        <ele>84.66</ele>
        <time>2023-06-14T00:11:22.636Z</time>
      </trkpt>
      <trkpt lat="46.79849" lon="0.05352">
        <ele>84.67</ele>
        <time>2023-06-14T00:12:08.015Z</time>
      </trkpt>
      <trkpt lat="46.79823" lon="0.05395">
        <ele>84.68</ele>
        <time>2023-06-14T00:12:53.400Z</time>
      </trkpt>
      <trkpt lat="46.79809" lon="0.05429">
        <ele>84.69</ele>
        <time>2023-06-14T00:13:38.789Z</time>
      </trkpt>
      <trkpt lat="46.79793" lon="0.05482">
        <ele>84.71</ele>
        <time>2023-06-14T00:14:24.185Z</time>
      </trkpt>
      <trkpt lat="46.79792" lon="0.05487">
        <ele>84.64</ele>
        <time>2023-06-14T00:15:09.581Z</time>
      </trkpt>
      <trkpt lat="46.79789" lon="0.055">
        <ele>84.49</ele>
        <time>2023-06-14T00:15:54.979Z</time>
      </trkpt>
      <trkpt lat="46.79785" lon="0.05519">
        <ele>84.19</ele>
        <time>2023-06-14T00:16:40.379Z</time>
      </trkpt>
      <trkpt lat="46.79782" lon="0.05531">
        <ele>84.02</ele>
        <time>2023-06-14T00:17:25.780Z</time>
      </trkpt>
      <trkpt lat="46.79779" lon="0.05543">
        <ele>83.91</ele>
        <time>2023-06-14T00:18:11.183Z</time>
      </trkpt>
      <trkpt lat="46.79779" lon="0.05543">
        <ele>83.91</ele>
        <time>2023-06-14T00:18:56.586Z</time>
      </trkpt>
      <trkpt lat="46.79778" lon="0.0555">
        <ele>83.88</ele>
        <time>2023-06-14T00:19:41.989Z</time>
      </trkpt>
      <trkpt lat="46.79776" lon="0.05562">
        <ele>83.86</ele>
        <time>2023-06-14T00:20:27.394Z</time>
      </trkpt>
      <trkpt lat="46.79774" lon="0.05575">
        <ele>83.88</ele>
        <time>2023-06-14T00:21:12.800Z</time>
      </trkpt>
      <trkpt lat="46.79774" lon="0.05575">
        <ele>83.88</ele>
        <time>2023-06-14T00:21:58.206Z</time>
      </trkpt>
      <trkpt lat="46.79774" lon="0.05608">
        <ele>84.03</ele>
        <time>2023-06-14T00:22:43.616Z</time>
      </trkpt>
      <trkpt lat="46.79774" lon="0.05633">
        <ele>84.12</ele>
        <time>2023-06-14T00:23:29.029Z</time>
      </trkpt>
      <trkpt lat="46.79775" lon="0.05679">
        <ele>84.13</ele>
        <time>2023-06-14T00:24:14.447Z</time>
      </trkpt>
      <trkpt lat="46.79775" lon="0.05694">
        <ele>84.16</ele>
        <time>2023-06-14T00:24:59.866Z</time>
      </trkpt>
      <trkpt lat="46.79775" lon="0.05698">
        <ele>84.17</ele>
        <time>2023-06-14T00:25:45.286Z</time>
      </trkpt>
      <trkpt lat="46.79772" lon="0.05724">
        <ele>84.27</ele>
        <time>2023-06-14T00:26:30.709Z</time>
      </trkpt>
      <trkpt lat="46.79771" lon="0.05737">
        <ele>84.3</ele>
        <time>2023-06-14T00:27:16.133Z</time>
      </trkpt>
      <trkpt lat="46.79769" lon="0.05756">
        <ele>84.27</ele>
        <time>2023-06-14T00:28:01.559Z</time>
      </trkpt>
      <trkpt lat="46.79766" lon="0.05795">
        <ele>84.18</ele>
        <time>2023-06-14T00:28:46.990Z</time>
      </trkpt>
      <trkpt lat="46.79765" lon="0.05802">
        <ele>84.18</ele>
        <time>2023-06-14T00:29:32.421Z</time>
      </trkpt>
      <trkpt lat="46.79762" lon="0.05814">
        <ele>84.18</ele>
        <time>2023-06-14T00:30:17.854Z</time>
      </trkpt>
      <trkpt lat="46.79758" lon="0.05832">
        <ele>84.25</ele>
        <time>2023-06-14T00:31:03.289Z</time>
      </trkpt>
      <trkpt lat="46.79756" lon="0.05841">
        <ele>84.32</ele>
        <time>2023-06-14T00:31:48.725Z</time>
      </trkpt>
      <trkpt lat="46.79755" lon="0.05844">
        <ele>84.36</ele>
        <time>2023-06-14T00:32:34.161Z</time>
      </trkpt>
      <trkpt lat="46.79751" lon="0.05856">
        <ele>84.5</ele>
        <time>2023-06-14T00:33:19.599Z</time>
      </trkpt>
      <trkpt lat="46.7975" lon="0.05858">
        <ele>84.49</ele>
        <time>2023-06-14T00:34:05.037Z</time>
      </trkpt>
      <trkpt lat="46.79746" lon="0.05867">
        <ele>84.47</ele>
        <time>2023-06-14T00:34:50.476Z</time>
      </trkpt>
      <trkpt lat="46.79743" lon="0.05872">
        <ele>84.43</ele>
        <time>2023-06-14T00:35:35.916Z</time>
      </trkpt>
      <trkpt lat="46.79736" lon="0.05887">
        <ele>84.25</ele>
        <time>2023-06-14T00:36:21.358Z</time>
      </trkpt>
      <trkpt lat="46.79728" lon="0.05896">
        <ele>84.11</ele>
        <time>2023-06-14T00:37:06.801Z</time>
      </trkpt>
      <trkpt lat="46.79722" lon="0.05904">
        <ele>84.01</ele>
        <time>2023-06-14T00:37:52.246Z</time>
      </trkpt>
      <trkpt lat="46.79722" lon="0.05905">
        <ele>84.01</ele>
        <time>2023-06-14T00:38:37.691Z</time>
      </trkpt>
      <trkpt lat="46.79724" lon="0.05918">
        <ele>83.93</ele>
        <time>2023-06-14T00:39:23.137Z</time>
      </trkpt>
      <trkpt lat="46.79726" lon="0.05931">
        <ele>83.9</ele>
        <time>2023-06-14T00:40:08.585Z</time>
      </trkpt>
      <trkpt lat="46.79726" lon="0.05932">
        <ele>83.9</ele>
        <time>2023-06-14T00:40:54.033Z</time>
      </trkpt>
      <trkpt lat="46.79727" lon="0.05937">
        <ele>83.92</ele>
        <time>2023-06-14T00:41:39.482Z</time>
      </trkpt>
      <trkpt lat="46.79732" lon="0.05955">
        <ele>84.05</ele>
        <time>2023-06-14T00:42:24.933Z</time>
      </trkpt>
      <trkpt lat="46.79742" lon="0.05991">
        <ele>84.11</ele>
        <time>2023-06-14T00:43:10.388Z</time>
      </trkpt>
      <trkpt lat="46.79749" lon="0.06009">
        <ele>84.15</ele>
        <time>2023-06-14T00:43:55.845Z</time>
      </trkpt>
      <trkpt lat="46.79756" lon="0.06028">
        <ele>84.23</ele>
        <time>2023-06-14T00:44:41.305Z</time>
      </trkpt>
      <trkpt lat="46.79757" lon="0.06032">
        <ele>84.25</ele>
        <time>2023-06-14T00:45:26.765Z</time>
      </trkpt>
      <trkpt lat="46.7976" lon="0.06045">
        <ele>84.33</ele>
        <time>2023-06-14T00:46:12.226Z</time>
      </trkpt>
      <trkpt lat="46.79767" lon="0.06079">
        <ele>84.67</ele>
        <time>2023-06-14T00:46:57.691Z</time>
      </trkpt>
      <trkpt lat="46.79767" lon="0.06082">
        <ele>84.71</ele>
        <time>2023-06-14T00:47:43.157Z</time>
      </trkpt>
      <trkpt lat="46.79766" lon="0.06095">
        <ele>84.78</ele>
        <time>2023-06-14T00:48:28.624Z</time>
      </trkpt>
      <trkpt lat="46.7976" lon="0.0616">
        <ele>84.81</ele>
        <time>2023-06-14T00:49:14.098Z</time>
      </trkpt>
      <trkpt lat="46.79759" lon="0.06191">
        <ele>84.83</ele>
        <time>2023-06-14T00:49:59.576Z</time>
      </trkpt>
      <trkpt lat="46.7975" lon="0.06237">
        <ele>84.86</ele>
        <time>2023-06-14T00:50:45.059Z</time>
      </trkpt>
      <trkpt lat="46.79744" lon="0.06269">
        <ele>84.92</ele>
        <time>2023-06-14T00:51:30.546Z</time>
      </trkpt>
      <trkpt lat="46.79736" lon="0.06307">
        <ele>85.05</ele>
        <time>2023-06-14T00:52:16.037Z</time>
      </trkpt>
      <trkpt lat="46.79735" lon="0.06314">
        <ele>85.03</ele>
        <time>2023-06-14T00:53:01.529Z</time>
      </trkpt>
      <trkpt lat="46.79734" lon="0.0632">
        <ele>85.02</ele>
        <time>2023-06-14T00:53:47.022Z</time>
      </trkpt>
      <trkpt lat="46.79733" lon="0.06332">
        <ele>84.95</ele>
        <time>2023-06-14T00:54:32.516Z</time>
      </trkpt>
      <trkpt lat="46.7973" lon="0.06356">
        <ele>85.44</ele>
        <time>2023-06-14T00:55:18.013Z</time>
      </trkpt>
      <trkpt lat="46.79725" lon="0.06396">
        <ele>86.32</ele>
        <time>2023-06-14T00:56:03.514Z</time>
      </trkpt>
      <trkpt lat="46.79715" lon="0.0642">
        <ele>86.92</ele>
        <time>2023-06-14T00:56:49.018Z</time>
      </trkpt>
      <trkpt lat="46.79715" lon="0.06421">
        <ele>86.94</ele>
        <time>2023-06-14T00:57:34.522Z</time>
      </trkpt>
      <trkpt lat="46.79708" lon="0.06429">
        <ele>87.17</ele>
        <time>2023-06-14T00:58:20.028Z</time>
      </trkpt>
      <trkpt lat="46.79705" lon="0.06429">
        <ele>87.26</ele>
        <time>2023-06-14T00:59:05.534Z</time>
      </trkpt>
      <trkpt lat="46.79705" lon="0.06429">
        <ele>87.26</ele>
        <time>2023-06-14T00:59:51.040Z</time>
      </trkpt>
      <trkpt lat="46.79697" lon="0.06423">
        <ele>87.07</ele>
        <time>2023-06-14T01:00:36.548Z</time>
      </trkpt>
      <trkpt lat="46.7969" lon="0.0642">
        <ele>86.91</ele>
        <time>2023-06-14T01:01:22.057Z</time>
      </trkpt>
      <trkpt lat="46.79684" lon="0.0642">
        <ele>86.78</ele>
        <time>2023-06-14T01:02:07.567Z</time>
      </trkpt>
      <trkpt lat="46.79669" lon="0.06421">
        <ele>86.41</ele>
        <time>2023-06-14T01:02:53.079Z</time>
      </trkpt>
      <trkpt lat="46.79663" lon="0.06424">
        <ele>86.25</ele>
        <time>2023-06-14T01:03:38.592Z</time>
      </trkpt>
      <trkpt lat="46.79658" lon="0.06444">
        <ele>85.9</ele>
        <time>2023-06-14T01:04:24.107Z</time>
      </trkpt>
      <trkpt lat="46.79655" lon="0.06456">
        <ele>85.72</ele>
        <time>2023-06-14T01:05:09.624Z</time>
      </trkpt>
      <trkpt lat="46.79649" lon="0.06478">
        <ele>85.48</ele>
        <time>2023-06-14T01:05:55.143Z</time>
      </trkpt>
      <trkpt lat="46.79649" lon="0.0648">
        <ele>85.46</ele>
        <time>2023-06-14T01:06:40.663Z</time>
      </trkpt>
      <trkpt lat="46.79647" lon="0.06493">
        <ele>85.36</ele>
        <time>2023-06-14T01:07:26.184Z</time>
      </trkpt>
      <trkpt lat="46.79645" lon="0.0651">
        <ele>85.3</ele>
        <time>2023-06-14T01:08:11.707Z</time>
      </trkpt>
      <trkpt lat="46.79642" lon="0.06518">
        <ele>85.27</ele>
        <time>2023-06-14T01:08:57.231Z</time>
      </trkpt>
      <trkpt lat="46.79637" lon="0.06529">
        <ele>85.28</ele>
        <time>2023-06-14T01:09:42.756Z</time>
      </trkpt>
      <trkpt lat="46.79633" lon="0.0654">
        <ele>85.32</ele>
        <time>2023-06-14T01:10:28.283Z</time>
      </trkpt>
      <trkpt lat="46.79626" lon="0.06557">
        <ele>85.44</ele>
        <time>2023-06-14T01:11:13.812Z</time>
      </trkpt>
      <trkpt lat="46.79623" lon="0.06562">
        <ele>85.52</ele>
        <time>2023-06-14T01:11:59.342Z</time>
      </trkpt>
      <trkpt lat="46.79621" lon="0.06568">
        <ele>85.63</ele>
        <time>2023-06-14T01:12:44.872Z</time>
      </trkpt>
      <trkpt lat="46.79619" lon="0.06573">
        <ele>85.76</ele>
        <time>2023-06-14T01:13:30.403Z</time>
      </trkpt>
      <trkpt lat="46.79616" lon="0.0658">
        <ele>85.93</ele>
        <time>2023-06-14T01:14:15.935Z</time>
      </trkpt>
      <trkpt lat="46.79616" lon="0.0658">
        <ele>85.93</ele>
        <time>2023-06-14T01:15:01.467Z</time>
      </trkpt>
      <trkpt lat="46.79609" lon="0.06603">
        <ele>86.74</ele>
        <time>2023-06-14T01:15:47.002Z</time>
      </trkpt>
      <trkpt lat="46.79601" lon="0.06633">
        <ele>87.71</ele>
        <time>2023-06-14T01:16:32.540Z</time>
      </trkpt>
      <trkpt lat="46.79599" lon="0.06639">
        <ele>87.87</ele>
        <time>2023-06-14T01:17:18.079Z</time>
      </trkpt>
      <trkpt lat="46.79597" lon="0.06645">
        <ele>87.98</ele>
        <time>2023-06-14T01:18:03.619Z</time>
      </trkpt>
      <trkpt lat="46.79596" lon="0.06651">
        <ele>88.03</ele>
        <time>2023-06-14T01:18:49.160Z</time>
      </trkpt>
      <trkpt lat="46.79594" lon="0.06657">
        <ele>88.05</ele>
        <time>2023-06-14T01:19:34.701Z</time>
      </trkpt>
      <trkpt lat="46.79587" lon="0.06681">
        <ele>88.04</ele>
        <time>2023-06-14T01:20:20.245Z</time>
      </trkpt>
      <trkpt lat="46.79582" lon="0.06699">
        <ele>88.08</ele>
        <time>2023-06-14T01:21:05.791Z</time>
      </trkpt>
      <trkpt lat="46.79577" lon="0.06717">
        <ele>87.84</ele>
        <time>2023-06-14T01:21:51.339Z</time>
      </trkpt>
      <trkpt lat="46.79575" lon="0.06723">
        <ele>87.79</ele>
        <time>2023-06-14T01:22:36.888Z</time>
      </trkpt>
      <trkpt lat="46.79572" lon="0.06735">
        <ele>87.72</ele>
        <time>2023-06-14T01:23:22.439Z</time>
      </trkpt>
      <trkpt lat="46.79571" lon="0.06737">
        <ele>87.71</ele>
        <time>2023-06-14T01:24:07.990Z</time>
      </trkpt>
      <trkpt lat="46.79567" lon="0.06759">
        <ele>87.61</ele>
        <time>2023-06-14T01:24:53.543Z</time>
      </trkpt>
      <trkpt lat="46.79577" lon="0.06759">
        <ele>87.55</ele>
        <time>2023-06-14T01:25:39.098Z</time>
      </trkpt>
      <trkpt lat="46.79587" lon="0.06758">
        <ele>87.46</ele>
        <time>2023-06-14T01:26:24.654Z</time>
      </trkpt>
      <trkpt lat="46.79603" lon="0.06761">
        <ele>87.34</ele>
        <time>2023-06-14T01:27:10.213Z</time>
      </trkpt>
      <trkpt lat="46.79608" lon="0.06762">
        <ele>87.34</ele>
        <time>2023-06-14T01:27:55.773Z</time>
      </trkpt>
      <trkpt lat="46.79616" lon="0.06766">
        <ele>87.34</ele>
        <time>2023-06-14T01:28:41.334Z</time>
      </trkpt>
      <trkpt lat="46.79633" lon="0.06773">
        <ele>87.42</ele>
        <time>2023-06-14T01:29:26.898Z</time>
      </trkpt>
      <trkpt lat="46.79637" lon="0.06775">
        <ele>87.42</ele>
        <time>2023-06-14T01:30:12.463Z</time>
      </trkpt>
      <trkpt lat="46.79642" lon="0.06778">
        <ele>87.43</ele>
        <time>2023-06-14T01:30:58.029Z</time>
      </trkpt>
      <trkpt lat="46.79646" lon="0.06781">
        <ele>87.4</ele>
        <time>2023-06-14T01:31:43.595Z</time>
      </trkpt>
      <trkpt lat="46.7965" lon="0.06789">
        <ele>87.37</ele>
        <time>2023-06-14T01:32:29.162Z</time>
      </trkpt>
      <trkpt lat="46.79651" lon="0.06798">
        <ele>87.34</ele>
        <time>2023-06-14T01:33:14.730Z</time>
      </trkpt>
      <trkpt lat="46.79653" lon="0.06815">
        <ele>87.24</ele>
        <time>2023-06-14T01:34:00.300Z</time>
      </trkpt>
      <trkpt lat="46.79653" lon="0.06824">
        <ele>87.2</ele>
        <time>2023-06-14T01:34:45.871Z</time>
      </trkpt>
      <trkpt lat="46.79653" lon="0.0683">
        <ele>87.2</ele>
        <time>2023-06-14T01:35:31.443Z</time>
      </trkpt>
      <trkpt lat="46.79653" lon="0.06835">
        <ele>87.21</ele>
        <time>2023-06-14T01:36:17.015Z</time>
      </trkpt>
      <trkpt lat="46.7965" lon="0.06863">
        <ele>87.28</ele>
        <time>2023-06-14T01:37:02.591Z</time>
      </trkpt>
      <trkpt lat="46.79648" lon="0.06882">
        <ele>87.31</ele>
        <time>2023-06-14T01:37:48.169Z</time>
      </trkpt>
      <trkpt lat="46.79645" lon="0.06912">
        <ele>87.39</ele>
        <time>2023-06-14T01:38:33.750Z</time>
      </trkpt>
      <trkpt lat="46.79639" lon="0.06945">
        <ele>87.48</ele>
        <time>2023-06-14T01:39:19.335Z</time>
      </trkpt>
      <trkpt lat="46.79629" lon="0.06984">
        <ele>87.6</ele>
        <time>2023-06-14T01:40:04.924Z</time>
      </trkpt>
      <trkpt lat="46.79614" lon="0.07027">
        <ele>87.73</ele>
        <time>2023-06-14T01:40:50.519Z</time>
      </trkpt>
      <trkpt lat="46.79607" lon="0.0704">
        <ele>87.78</ele>
        <time>2023-06-14T01:41:36.115Z</time>
      </trkpt>
      <trkpt lat="46.79588" lon="0.07061">
        <ele>87.88</ele>
        <time>2023-06-14T01:42:21.715Z</time>
      </trkpt>
      <trkpt lat="46.79576" lon="0.07069">
        <ele>87.93</ele>
        <time>2023-06-14T01:43:07.317Z</time>
      </trkpt>
      <trkpt lat="46.79566" lon="0.07082">
        <ele>87.98</ele>
        <time>2023-06-14T01:43:52.922Z</time>
      </trkpt>
      <trkpt lat="46.79534" lon="0.07189">
        <ele>88.31</ele>
        <time>2023-06-14T01:44:38.539Z</time>
      </trkpt>
      <trkpt lat="46.79528" lon="0.07216">
        <ele>88.39</ele>
        <time>2023-06-14T01:45:24.159Z</time>
      </trkpt>
      <trkpt lat="46.79527" lon="0.07241">
        <ele>88.45</ele>
        <time>2023-06-14T01:46:09.782Z</time>
      </trkpt>
      <trkpt lat="46.79532" lon="0.07284">
        <ele>88.58</ele>
        <time>2023-06-14T01:46:55.410Z</time>
      </trkpt>
      <trkpt lat="46.79534" lon="0.07337">
        <ele>88.72</ele>
        <time>2023-06-14T01:47:41.044Z</time>
      </trkpt>
      <trkpt lat="46.79529" lon="0.0744">
        <ele>89.01</ele>
        <time>2023-06-14T01:48:26.689Z</time>
      </trkpt>
      <trkpt lat="46.7953" lon="0.07455">
        <ele>89.05</ele>
        <time>2023-06-14T01:49:12.336Z</time>
      </trkpt>
      <trkpt lat="46.79541" lon="0.07525">
        <ele>89.25</ele>
        <time>2023-06-14T01:49:57.991Z</time>
      </trkpt>
      <trkpt lat="46.79541" lon="0.07551">
        <ele>89.32</ele>
        <time>2023-06-14T01:50:43.649Z</time>
      </trkpt>
      <trkpt lat="46.79538" lon="0.07577">
        <ele>89.39</ele>
        <time>2023-06-14T01:51:29.310Z</time>
      </trkpt>
      <trkpt lat="46.79528" lon="0.07606">
        <ele>89.48</ele>
        <time>2023-06-14T01:52:14.974Z</time>
      </trkpt>
      <trkpt lat="46.79511" lon="0.07639">
        <ele>89.6</ele>
        <time>2023-06-14T01:53:00.643Z</time>
      </trkpt>
      <trkpt lat="46.7945" lon="0.07722">
        <ele>89.94</ele>
        <time>2023-06-14T01:53:46.325Z</time>
      </trkpt>
      <trkpt lat="46.79446" lon="0.07733">
        <ele>89.97</ele>
        <time>2023-06-14T01:54:32.008Z</time>
      </trkpt>
      <trkpt lat="46.79443" lon="0.07744">
        <ele>90</ele>
        <time>2023-06-14T01:55:17.693Z</time>
      </trkpt>
      <trkpt lat="46.79441" lon="0.07768">
        <ele>90.07</ele>
        <time>2023-06-14T01:56:03.380Z</time>
      </trkpt>
      <trkpt lat="46.79445" lon="0.07856">
        <ele>90.32</ele>
        <time>2023-06-14T01:56:49.077Z</time>
      </trkpt>
      <trkpt lat="46.79443" lon="0.07882">
        <ele>90.39</ele>
        <time>2023-06-14T01:57:34.777Z</time>
      </trkpt>
      <trkpt lat="46.79442" lon="0.07884">
        <ele>90.4</ele>
        <time>2023-06-14T01:58:20.477Z</time>
      </trkpt>
      <trkpt lat="46.79439" lon="0.07891">
        <ele>90.42</ele>
        <time>2023-06-14T01:59:06.178Z</time>
      </trkpt>
      <trkpt lat="46.79427" lon="0.07906">
        <ele>90.47</ele>
        <time>2023-06-14T01:59:51.882Z</time>
      </trkpt>
      <trkpt lat="46.79409" lon="0.07921">
        <ele>90.55</ele>
        <time>2023-06-14T02:00:37.589Z</time>
      </trkpt>
      <trkpt lat="46.7938" lon="0.0794">
        <ele>90.67</ele>
        <time>2023-06-14T02:01:23.301Z</time>
      </trkpt>
      <trkpt lat="46.79343" lon="0.07951">
        <ele>90.81</ele>
        <time>2023-06-14T02:02:09.019Z</time>
      </trkpt>
      <trkpt lat="46.79294" lon="0.07961">
        <ele>90.99</ele>
        <time>2023-06-14T02:02:54.745Z</time>
      </trkpt>
      <trkpt lat="46.79277" lon="0.07967">
        <ele>91.05</ele>
        <time>2023-06-14T02:03:40.474Z</time>
      </trkpt>
      <trkpt lat="46.79235" lon="0.07986">
        <ele>91.21</ele>
        <time>2023-06-14T02:04:26.210Z</time>
      </trkpt>
      <trkpt lat="46.7923" lon="0.0799">
        <ele>91.24</ele>
        <time>2023-06-14T02:05:11.947Z</time>
      </trkpt>
      <trkpt lat="46.79191" lon="0.08016">
        <ele>91.06</ele>
        <time>2023-06-14T02:05:57.691Z</time>
      </trkpt>
      <trkpt lat="46.79167" lon="0.0803">
        <ele>90.96</ele>
        <time>2023-06-14T02:06:43.439Z</time>
      </trkpt>
      <trkpt lat="46.79158" lon="0.08037">
        <ele>90.91</ele>
        <time>2023-06-14T02:07:29.188Z</time>
      </trkpt>
      <trkpt lat="46.7915" lon="0.08048">
        <ele>90.87</ele>
        <time>2023-06-14T02:08:14.939Z</time>
      </trkpt>
      <trkpt lat="46.79122" lon="0.08101">
        <ele>90.68</ele>
        <time>2023-06-14T02:09:00.697Z</time>
      </trkpt>
      <trkpt lat="46.79112" lon="0.08128">
        <ele>90.6</ele>
        <time>2023-06-14T02:09:46.459Z</time>
      </trkpt>
      <trkpt lat="46.791" lon="0.0817">
        <ele>90.47</ele>
        <time>2023-06-14T02:10:32.226Z</time>
      </trkpt>
      <trkpt lat="46.79095" lon="0.0821">
        <ele>90.36</ele>
        <time>2023-06-14T02:11:17.997Z</time>
      </trkpt>
      <trkpt lat="46.79093" lon="0.08305">
        <ele>90.09</ele>
        <time>2023-06-14T02:12:03.779Z</time>
      </trkpt>
      <trkpt lat="46.79089" lon="0.08328">
        <ele>90.03</ele>
        <time>2023-06-14T02:12:49.563Z</time>
      </trkpt>
      <trkpt lat="46.79086" lon="0.0834">
        <ele>90.03</ele>
        <time>2023-06-14T02:13:35.349Z</time>
      </trkpt>
      <trkpt lat="46.79085" lon="0.08347">
        <ele>90.04</ele>
        <time>2023-06-14T02:14:21.136Z</time>
      </trkpt>
      <trkpt lat="46.79087" lon="0.08352">
        <ele>90.06</ele>
        <time>2023-06-14T02:15:06.923Z</time>
      </trkpt>
      <trkpt lat="46.7909" lon="0.08363">
        <ele>90.15</ele>
        <time>2023-06-14T02:15:52.712Z</time>
      </trkpt>
      <trkpt lat="46.79094" lon="0.08374">
        <ele>90.28</ele>
        <time>2023-06-14T02:16:38.502Z</time>
      </trkpt>
      <trkpt lat="46.79098" lon="0.08385">
        <ele>90.47</ele>
        <time>2023-06-14T02:17:24.293Z</time>
      </trkpt>
      <trkpt lat="46.79098" lon="0.08385">
        <ele>90.47</ele>
        <time>2023-06-14T02:18:10.084Z</time>
      </trkpt>
      <trkpt lat="46.79085" lon="0.08388">
        <ele>90.82</ele>
        <time>2023-06-14T02:18:55.877Z</time>
      </trkpt>
      <trkpt lat="46.7908" lon="0.08389">
        <ele>91</ele>
        <time>2023-06-14T02:19:41.671Z</time>
      </trkpt>
      <trkpt lat="46.79077" lon="0.08391">
        <ele>91.11</ele>
        <time>2023-06-14T02:20:27.466Z</time>
      </trkpt>
      <trkpt lat="46.79069" lon="0.08395">
        <ele>91.43</ele>
        <time>2023-06-14T02:21:13.262Z</time>
      </trkpt>
      <trkpt lat="46.79064" lon="0.08398">
        <ele>91.59</ele>
        <time>2023-06-14T02:21:59.059Z</time>
      </trkpt>
      <trkpt lat="46.79062" lon="0.084">
        <ele>91.67</ele>
        <time>2023-06-14T02:22:44.856Z</time>
      </trkpt>
      <trkpt lat="46.79055" lon="0.08406">
        <ele>91.88</ele>
        <time>2023-06-14T02:23:30.655Z</time>
      </trkpt>
      <trkpt lat="46.79044" lon="0.08414">
        <ele>92.15</ele>
        <time>2023-06-14T02:24:16.456Z</time>
      </trkpt>
      <trkpt lat="46.79041" lon="0.08417">
        <ele>92.34</ele>
        <time>2023-06-14T02:25:02.257Z</time>
      </trkpt>
      <trkpt lat="46.79031" lon="0.08422">
        <ele>92.86</ele>
        <time>2023-06-14T02:25:48.060Z</time>
      </trkpt>
      <trkpt lat="46.79016" lon="0.08423">
        <ele>93.6</ele>
        <time>2023-06-14T02:26:33.865Z</time>
      </trkpt>
      <trkpt lat="46.79007" lon="0.08419">
        <ele>94.09</ele>
        <time>2023-06-14T02:27:19.672Z</time>
      </trkpt>
      <trkpt lat="46.78986" lon="0.0841">
        <ele>95.13</ele>
        <time>2023-06-14T02:28:05.482Z</time>
      </trkpt>
      <trkpt lat="46.78976" lon="0.08406">
        <ele>95.62</ele>
        <time>2023-06-14T02:28:51.294Z</time>
      </trkpt>
      <trkpt lat="46.78965" lon="0.084">
        <ele>96.2</ele>
        <time>2023-06-14T02:29:37.108Z</time>
      </trkpt>
      <trkpt lat="46.78945" lon="0.08388">
        <ele>97.22</ele>
        <time>2023-06-14T02:30:22.925Z</time>
      </trkpt>
      <trkpt lat="46.78927" lon="0.08378">
        <ele>98.17</ele>
        <time>2023-06-14T02:31:08.745Z</time>
      </trkpt>
      <trkpt lat="46.78917" lon="0.08371">
        <ele>98.76</ele>
        <time>2023-06-14T02:31:54.567Z</time>
      </trkpt>
      <trkpt lat="46.78905" lon="0.08362">
        <ele>98.9</ele>
        <time>2023-06-14T02:32:40.391Z</time>
      </trkpt>
      <trkpt lat="46.78896" lon="0.08356">
        <ele>98.94</ele>
        <time>2023-06-14T02:33:26.217Z</time>
      </trkpt>
      <trkpt lat="46.78884" lon="0.08348">
        <ele>98.94</ele>
        <time>2023-06-14T02:34:12.045Z</time>
      </trkpt>
      <trkpt lat="46.78879" lon="0.08344">
        <ele>98.91</ele>
        <time>2023-06-14T02:34:57.874Z</time>
      </trkpt>
      <trkpt lat="46.78874" lon="0.08352">
        <ele>98.88</ele>
        <time>2023-06-14T02:35:43.704Z</time>
      </trkpt>
      <trkpt lat="46.78869" lon="0.08363">
        <ele>98.82</ele>
        <time>2023-06-14T02:36:29.535Z</time>
      </trkpt>
      <trkpt lat="46.78863" lon="0.08373">
        <ele>98.73</ele>
        <time>2023-06-14T02:37:15.368Z</time>
      </trkpt>
      <trkpt lat="46.78854" lon="0.0839">
        <ele>98.54</ele>
        <time>2023-06-14T02:38:01.203Z</time>
      </trkpt>
      <trkpt lat="46.78846" lon="0.0841">
        <ele>98.34</ele>
        <time>2023-06-14T02:38:47.041Z</time>
      </trkpt>
      <trkpt lat="46.78839" lon="0.08427">
        <ele>98.13</ele>
        <time>2023-06-14T02:39:32.881Z</time>
      </trkpt>
      <trkpt lat="46.78839" lon="0.08427">
        <ele>98.13</ele>
        <time>2023-06-14T02:40:18.721Z</time>
      </trkpt>
      <trkpt lat="46.78823" lon="0.08444">
        <ele>97.45</ele>
        <time>2023-06-14T02:41:04.564Z</time>
      </trkpt>
      <trkpt lat="46.78813" lon="0.08455">
        <ele>97.1</ele>
        <time>2023-06-14T02:41:50.409Z</time>
      </trkpt>
      <trkpt lat="46.78805" lon="0.08463">
        <ele>96.9</ele>
        <time>2023-06-14T02:42:36.256Z</time>
      </trkpt>
      <trkpt lat="46.78805" lon="0.08463">
        <ele>96.9</ele>
        <time>2023-06-14T02:43:22.103Z</time>
      </trkpt>
      <trkpt lat="46.78794" lon="0.08473">
        <ele>96.27</ele>
        <time>2023-06-14T02:44:07.952Z</time>
      </trkpt>
      <trkpt lat="46.78778" lon="0.08489">
        <ele>95.44</ele>
        <time>2023-06-14T02:44:53.804Z</time>
      </trkpt>
      <trkpt lat="46.78775" lon="0.0849">
        <ele>95.33</ele>
        <time>2023-06-14T02:45:39.656Z</time>
      </trkpt>
      <trkpt lat="46.7877" lon="0.08492">
        <ele>95.09</ele>
        <time>2023-06-14T02:46:25.509Z</time>
      </trkpt>
      <trkpt lat="46.78751" lon="0.08506">
        <ele>94.15</ele>
        <time>2023-06-14T02:47:11.366Z</time>
      </trkpt>
      <trkpt lat="46.78739" lon="0.08515">
        <ele>93.62</ele>
        <time>2023-06-14T02:47:57.225Z</time>
      </trkpt>
      <trkpt lat="46.78727" lon="0.08524">
        <ele>93.16</ele>
        <time>2023-06-14T02:48:43.086Z</time>
      </trkpt>
      <trkpt lat="46.78722" lon="0.08528">
        <ele>93</ele>
        <time>2023-06-14T02:49:28.948Z</time>
      </trkpt>
      <trkpt lat="46.78715" lon="0.08533">
        <ele>92.77</ele>
        <time>2023-06-14T02:50:14.811Z</time>
      </trkpt>
      <trkpt lat="46.78706" lon="0.08538">
        <ele>92.55</ele>
        <time>2023-06-14T02:51:00.676Z</time>
      </trkpt>
      <trkpt lat="46.78703" lon="0.0854">
        <ele>92.47</ele>
        <time>2023-06-14T02:51:46.541Z</time>
      </trkpt>
      <trkpt lat="46.78698" lon="0.08544">
        <ele>92.37</ele>
        <time>2023-06-14T02:52:32.407Z</time>
      </trkpt>
      <trkpt lat="46.78683" lon="0.08556">
        <ele>93.03</ele>
        <time>2023-06-14T02:53:18.276Z</time>
      </trkpt>
      <trkpt lat="46.78672" lon="0.08565">
        <ele>93.6</ele>
        <time>2023-06-14T02:54:04.147Z</time>
      </trkpt>
      <trkpt lat="46.78666" lon="0.08573">
        <ele>93.97</ele>
        <time>2023-06-14T02:54:50.019Z</time>
      </trkpt>
      <trkpt lat="46.78663" lon="0.08576">
        <ele>94.1</ele>
        <time>2023-06-14T02:55:35.892Z</time>
      </trkpt>
      <trkpt lat="46.78656" lon="0.08567">
        <ele>94.49</ele>
        <time>2023-06-14T02:56:21.766Z</time>
      </trkpt>
      <trkpt lat="46.78649" lon="0.08559">
        <ele>94.79</ele>
        <time>2023-06-14T02:57:07.642Z</time>
      </trkpt>
      <trkpt lat="46.78642" lon="0.08551">
        <ele>95.04</ele>
        <time>2023-06-14T02:57:53.519Z</time>
      </trkpt>
      <trkpt lat="46.78632" lon="0.08539">
        <ele>95.4</ele>
        <time>2023-06-14T02:58:39.398Z</time>
      </trkpt>
      <trkpt lat="46.78626" lon="0.08532">
        <ele>95.59</ele>
        <time>2023-06-14T02:59:25.279Z</time>
      </trkpt>
      <trkpt lat="46.78619" lon="0.08523">
        <ele>95.51</ele>
        <time>2023-06-14T03:00:11.161Z</time>
      </trkpt>
      <trkpt lat="46.78616" lon="0.0852">
        <ele>95.48</ele>
        <time>2023-06-14T03:00:57.044Z</time>
      </trkpt>
      <trkpt lat="46.78611" lon="0.08517">
        <ele>95.46</ele>
        <time>2023-06-14T03:01:42.927Z</time>
      </trkpt>
      <trkpt lat="46.78599" lon="0.08509">
        <ele>95.45</ele>
        <time>2023-06-14T03:02:28.813Z</time>
      </trkpt>
      <trkpt lat="46.78591" lon="0.08503">
        <ele>95.47</ele>
        <time>2023-06-14T03:03:14.700Z</time>
      </trkpt>
      <trkpt lat="46.78589" lon="0.08502">
        <ele>95.48</ele>
        <time>2023-06-14T03:04:00.587Z</time>
      </trkpt>
      <trkpt lat="46.78583" lon="0.08497">
        <ele>95.55</ele>
        <time>2023-06-14T03:04:46.475Z</time>
      </trkpt>
      <trkpt lat="46.78579" lon="0.08494">
        <ele>95.62</ele>
        <time>2023-06-14T03:05:32.364Z</time>
      </trkpt>
      <trkpt lat="46.78564" lon="0.0848">
        <ele>95.95</ele>
        <time>2023-06-14T03:06:18.256Z</time>
      </trkpt>
      <trkpt lat="46.78561" lon="0.08478">
        <ele>95.99</ele>
        <time>2023-06-14T03:07:04.148Z</time>
      </trkpt>
      <trkpt lat="46.78546" lon="0.08462">
        <ele>96.27</ele>
        <time>2023-06-14T03:07:50.043Z</time>
      </trkpt>
      <trkpt lat="46.78546" lon="0.08461">
        <ele>96.27</ele>
        <time>2023-06-14T03:08:35.939Z</time>
      </trkpt>
      <trkpt lat="46.78543" lon="0.08457">
        <ele>96.31</ele>
        <time>2023-06-14T03:09:21.835Z</time>
      </trkpt>
      <trkpt lat="46.7854" lon="0.08452">
        <ele>96.33</ele>
        <time>2023-06-14T03:10:07.732Z</time>
      </trkpt>
      <trkpt lat="46.78528" lon="0.08432">
        <ele>96.27</ele>
        <time>2023-06-14T03:10:53.632Z</time>
      </trkpt>
      <trkpt lat="46.78516" lon="0.08413">
        <ele>96.34</ele>
        <time>2023-06-14T03:11:39.535Z</time>
      </trkpt>
      <trkpt lat="46.78512" lon="0.08407">
        <ele>96.37</ele>
        <time>2023-06-14T03:12:25.439Z</time>
      </trkpt>
      <trkpt lat="46.78506" lon="0.08399">
        <ele>96.42</ele>
        <time>2023-06-14T03:13:11.344Z</time>
      </trkpt>
      <trkpt lat="46.78496" lon="0.08384">
        <ele>96.38</ele>
        <time>2023-06-14T03:13:57.251Z</time>
      </trkpt>
      <trkpt lat="46.78474" lon="0.0836">
        <ele>96.32</ele>
        <time>2023-06-14T03:14:43.163Z</time>
      </trkpt>
      <trkpt lat="46.78374" lon="0.08235">
        <ele>96.04</ele>
        <time>2023-06-14T03:15:29.096Z</time>
      </trkpt>
      <trkpt lat="46.78353" lon="0.08216">
        <ele>95.99</ele>
        <time>2023-06-14T03:16:15.033Z</time>
      </trkpt>
      <trkpt lat="46.78331" lon="0.08196">
        <ele>96.06</ele>
        <time>2023-06-14T03:17:00.974Z</time>
      </trkpt>
      <trkpt lat="46.78291" lon="0.08169">
        <ele>96.2</ele>
        <time>2023-06-14T03:17:46.922Z</time>
      </trkpt>
      <trkpt lat="46.78186" lon="0.08127">
        <ele>96.53</ele>
        <time>2023-06-14T03:18:32.887Z</time>
      </trkpt>
      <trkpt lat="46.78171" lon="0.08117">
        <ele>96.58</ele>
        <time>2023-06-14T03:19:18.855Z</time>
      </trkpt>
      <trkpt lat="46.78143" lon="0.08094">
        <ele>96.68</ele>
        <time>2023-06-14T03:20:04.828Z</time>
      </trkpt>
      <trkpt lat="46.78134" lon="0.08089">
        <ele>96.71</ele>
        <time>2023-06-14T03:20:50.803Z</time>
      </trkpt>
      <trkpt lat="46.78073" lon="0.08079">
        <ele>96.89</ele>
        <time>2023-06-14T03:21:36.787Z</time>
      </trkpt>
      <trkpt lat="46.78035" lon="0.08079">
        <ele>97.01</ele>
        <time>2023-06-14T03:22:22.778Z</time>
      </trkpt>
      <trkpt lat="46.78023" lon="0.08073">
        <ele>97.05</ele>
        <time>2023-06-14T03:23:08.771Z</time>
      </trkpt>
      <trkpt lat="46.78006" lon="0.0806">
        <ele>97.11</ele>
        <time>2023-06-14T03:23:54.767Z</time>
      </trkpt>
      <trkpt lat="46.77982" lon="0.08031">
        <ele>97.2</ele>
        <time>2023-06-14T03:24:40.768Z</time>
      </trkpt>
      <trkpt lat="46.77967" lon="0.08">
        <ele>97.28</ele>
        <time>2023-06-14T03:25:26.773Z</time>
      </trkpt>
      <trkpt lat="46.77962" lon="0.07966">
        <ele>97.35</ele>
        <time>2023-06-14T03:26:12.782Z</time>
      </trkpt>
      <trkpt lat="46.77958" lon="0.07954">
        <ele>97.38</ele>
        <time>2023-06-14T03:26:58.792Z</time>
      </trkpt>
      <trkpt lat="46.77954" lon="0.07951">
        <ele>97.39</ele>
        <time>2023-06-14T03:27:44.803Z</time>
      </trkpt>
      <trkpt lat="46.77883" lon="0.07939">
        <ele>97.61</ele>
        <time>2023-06-14T03:28:30.825Z</time>
      </trkpt>
      <trkpt lat="46.77865" lon="0.07932">
        <ele>97.67</ele>
        <time>2023-06-14T03:29:16.850Z</time>
      </trkpt>
      <trkpt lat="46.77726" lon="0.0784">
        <ele>98.13</ele>
        <time>2023-06-14T03:30:02.900Z</time>
      </trkpt>
      <trkpt lat="46.77554" lon="0.0772">
        <ele>98.72</ele>
        <time>2023-06-14T03:30:48.980Z</time>
      </trkpt>
      <trkpt lat="46.77542" lon="0.07712">
        <ele>98.18</ele>
        <time>2023-06-14T03:31:35.062Z</time>
      </trkpt>
      <trkpt lat="46.77534" lon="0.07706">
        <ele>97.87</ele>
        <time>2023-06-14T03:32:21.146Z</time>
      </trkpt>
      <trkpt lat="46.77524" lon="0.07699">
        <ele>97.56</ele>
        <time>2023-06-14T03:33:07.232Z</time>
      </trkpt>
      <trkpt lat="46.77522" lon="0.07699">
        <ele>97.51</ele>
        <time>2023-06-14T03:33:53.318Z</time>
      </trkpt>
      <trkpt lat="46.77516" lon="0.07698">
        <ele>97.39</ele>
        <time>2023-06-14T03:34:39.405Z</time>
      </trkpt>
      <trkpt lat="46.77517" lon="0.07708">
        <ele>97.25</ele>
        <time>2023-06-14T03:35:25.493Z</time>
      </trkpt>
      <trkpt lat="46.77518" lon="0.07721">
        <ele>97.13</ele>
        <time>2023-06-14T03:36:11.582Z</time>
      </trkpt>
      <trkpt lat="46.77518" lon="0.07734">
        <ele>97.09</ele>
        <time>2023-06-14T03:36:57.673Z</time>
      </trkpt>
      <trkpt lat="46.77519" lon="0.0774">
        <ele>97.09</ele>
        <time>2023-06-14T03:37:43.765Z</time>
      </trkpt>
      <trkpt lat="46.77519" lon="0.07747">
        <ele>97.12</ele>
        <time>2023-06-14T03:38:29.857Z</time>
      </trkpt>
      <trkpt lat="46.7752" lon="0.0776">
        <ele>97.23</ele>
        <time>2023-06-14T03:39:15.951Z</time>
      </trkpt>
      <trkpt lat="46.77521" lon="0.07773">
        <ele>97.05</ele>
        <time>2023-06-14T03:40:02.046Z</time>
      </trkpt>
      <trkpt lat="46.77518" lon="0.078">
        <ele>96.69</ele>
        <time>2023-06-14T03:40:48.144Z</time>
      </trkpt>
      <trkpt lat="46.77515" lon="0.07821">
        <ele>96.45</ele>
        <time>2023-06-14T03:41:34.244Z</time>
      </trkpt>
      <trkpt lat="46.77512" lon="0.07843">
        <ele>96.33</ele>
        <time>2023-06-14T03:42:20.347Z</time>
      </trkpt>
      <trkpt lat="46.77505" lon="0.07902">
        <ele>96.46</ele>
        <time>2023-06-14T03:43:06.457Z</time>
      </trkpt>
      <trkpt lat="46.77482" lon="0.07899">
        <ele>96.54</ele>
        <time>2023-06-14T03:43:52.570Z</time>
      </trkpt>
      <trkpt lat="46.77475" lon="0.07896">
        <ele>96.56</ele>
        <time>2023-06-14T03:44:38.684Z</time>
      </trkpt>
      <trkpt lat="46.77355" lon="0.07811">
        <ele>97.01</ele>
        <time>2023-06-14T03:45:24.820Z</time>
      </trkpt>
      <trkpt lat="46.77259" lon="0.07739">
        <ele>97.38</ele>
        <time>2023-06-14T03:46:10.973Z</time>
      </trkpt>
      <trkpt lat="46.77241" lon="0.07727">
        <ele>97.44</ele>
        <time>2023-06-14T03:46:57.129Z</time>
      </trkpt>
      <trkpt lat="46.77229" lon="0.07721">
        <ele>97.49</ele>
        <time>2023-06-14T03:47:43.287Z</time>
      </trkpt>
      <trkpt lat="46.77196" lon="0.07716">
        <ele>97.6</ele>
        <time>2023-06-14T03:48:29.451Z</time>
      </trkpt>
      <trkpt lat="46.77165" lon="0.07703">
        <ele>97.71</ele>
        <time>2023-06-14T03:49:15.620Z</time>
      </trkpt>
      <trkpt lat="46.77118" lon="0.07678">
        <ele>97.87</ele>
        <time>2023-06-14T03:50:01.797Z</time>
      </trkpt>
      <trkpt lat="46.77042" lon="0.07648">
        <ele>98.14</ele>
        <time>2023-06-14T03:50:47.986Z</time>
      </trkpt>
      <trkpt lat="46.77026" lon="0.07643">
        <ele>98.19</ele>
        <time>2023-06-14T03:51:34.178Z</time>
      </trkpt>
      <trkpt lat="46.76961" lon="0.07633">
        <ele>98.41</ele>
        <time>2023-06-14T03:52:20.380Z</time>
      </trkpt>
      <trkpt lat="46.7693" lon="0.07632">
        <ele>98.52</ele>
        <time>2023-06-14T03:53:06.587Z</time>
      </trkpt>
      <trkpt lat="46.76922" lon="0.07633">
        <ele>98.55</ele>
        <time>2023-06-14T03:53:52.796Z</time>
      </trkpt>
      <trkpt lat="46.76905" lon="0.07634">
        <ele>98.77</ele>
        <time>2023-06-14T03:54:39.007Z</time>
      </trkpt>
      <trkpt lat="46.76887" lon="0.07635">
        <ele>99.08</ele>
        <time>2023-06-14T03:55:25.221Z</time>
      </trkpt>
      <trkpt lat="46.76881" lon="0.07636">
        <ele>99.2</ele>
        <time>2023-06-14T03:56:11.436Z</time>
      </trkpt>
      <trkpt lat="46.76881" lon="0.0764">
        <ele>99.26</ele>
        <time>2023-06-14T03:56:57.652Z</time>
      </trkpt>
      <trkpt lat="46.76881" lon="0.07672">
        <ele>99.81</ele>
        <time>2023-06-14T03:57:43.871Z</time>
      </trkpt>
      <trkpt lat="46.7688" lon="0.07697">
        <ele>100.31</ele>
        <time>2023-06-14T03:58:30.093Z</time>
      </trkpt>
      <trkpt lat="46.7688" lon="0.07716">
        <ele>100.72</ele>
        <time>2023-06-14T03:59:16.317Z</time>
      </trkpt>
      <trkpt lat="46.7688" lon="0.07727">
        <ele>100.99</ele>
        <time>2023-06-14T04:00:02.542Z</time>
      </trkpt>
      <trkpt lat="46.76876" lon="0.0776">
        <ele>101.87</ele>
        <time>2023-06-14T04:00:48.771Z</time>
      </trkpt>
      <trkpt lat="46.76873" lon="0.07784">
        <ele>101.93</ele>
        <time>2023-06-14T04:01:35.003Z</time>
      </trkpt>
      <trkpt lat="46.76869" lon="0.0781">
        <ele>101.86</ele>
        <time>2023-06-14T04:02:21.238Z</time>
      </trkpt>
      <trkpt lat="46.76868" lon="0.07819">
        <ele>101.86</ele>
        <time>2023-06-14T04:03:07.474Z</time>
      </trkpt>
      <trkpt lat="46.76861" lon="0.07819">
        <ele>101.86</ele>
        <time>2023-06-14T04:03:53.711Z</time>
      </trkpt>
      <trkpt lat="46.76852" lon="0.0782">
        <ele>101.91</ele>
        <time>2023-06-14T04:04:39.949Z</time>
      </trkpt>
      <trkpt lat="46.76843" lon="0.07818">
        <ele>101.96</ele>
        <time>2023-06-14T04:05:26.189Z</time>
      </trkpt>
      <trkpt lat="46.76829" lon="0.07815">
        <ele>102.09</ele>
        <time>2023-06-14T04:06:12.431Z</time>
      </trkpt>
      <trkpt lat="46.76826" lon="0.07815">
        <ele>102.13</ele>
        <time>2023-06-14T04:06:58.673Z</time>
      </trkpt>
      <trkpt lat="46.76808" lon="0.07814">
        <ele>102.12</ele>
        <time>2023-06-14T04:07:44.918Z</time>
      </trkpt>
      <trkpt lat="46.76808" lon="0.07814">
        <ele>102.12</ele>
        <time>2023-06-14T04:08:31.163Z</time>
      </trkpt>
      <trkpt lat="46.76791" lon="0.07809">
        <ele>102.14</ele>
        <time>2023-06-14T04:09:17.411Z</time>
      </trkpt>
      <trkpt lat="46.76791" lon="0.07809">
        <ele>102.14</ele>
        <time>2023-06-14T04:10:03.659Z</time>
      </trkpt>
      <trkpt lat="46.76774" lon="0.07792">
        <ele>102.22</ele>
        <time>2023-06-14T04:10:49.910Z</time>
      </trkpt>
      <trkpt lat="46.76753" lon="0.07785">
        <ele>102.31</ele>
        <time>2023-06-14T04:11:36.165Z</time>
      </trkpt>
      <trkpt lat="46.76746" lon="0.07783">
        <ele>102.35</ele>
        <time>2023-06-14T04:12:22.421Z</time>
      </trkpt>
      <trkpt lat="46.76735" lon="0.07781">
        <ele>102.39</ele>
        <time>2023-06-14T04:13:08.679Z</time>
      </trkpt>
      <trkpt lat="46.76706" lon="0.07784">
        <ele>102.5</ele>
        <time>2023-06-14T04:13:54.941Z</time>
      </trkpt>
      <trkpt lat="46.76702" lon="0.07784">
        <ele>102.52</ele>
        <time>2023-06-14T04:14:41.204Z</time>
      </trkpt>
      <trkpt lat="46.76689" lon="0.07783">
        <ele>102.58</ele>
        <time>2023-06-14T04:15:27.469Z</time>
      </trkpt>
      <trkpt lat="46.7668" lon="0.07779">
        <ele>102.64</ele>
        <time>2023-06-14T04:16:13.736Z</time>
      </trkpt>
      <trkpt lat="46.76671" lon="0.07775">
        <ele>102.71</ele>
        <time>2023-06-14T04:17:00.004Z</time>
      </trkpt>
      <trkpt lat="46.76656" lon="0.07761">
        <ele>102.86</ele>
        <time>2023-06-14T04:17:46.275Z</time>
      </trkpt>
      <trkpt lat="46.76642" lon="0.07749">
        <ele>102.92</ele>
        <time>2023-06-14T04:18:32.548Z</time>
      </trkpt>
      <trkpt lat="46.7664" lon="0.07747">
        <ele>102.92</ele>
        <time>2023-06-14T04:19:18.822Z</time>
      </trkpt>
      <trkpt lat="46.76627" lon="0.07741">
        <ele>102.94</ele>
        <time>2023-06-14T04:20:05.098Z</time>
      </trkpt>
      <trkpt lat="46.76619" lon="0.07737">
        <ele>102.87</ele>
        <time>2023-06-14T04:20:51.375Z</time>
      </trkpt>
      <trkpt lat="46.76611" lon="0.07733">
        <ele>102.83</ele>
        <time>2023-06-14T04:21:37.654Z</time>
      </trkpt>
      <trkpt lat="46.76602" lon="0.07729">
        <ele>102.85</ele>
        <time>2023-06-14T04:22:23.934Z</time>
      </trkpt>
      <trkpt lat="46.76598" lon="0.07728">
        <ele>102.86</ele>
        <time>2023-06-14T04:23:10.215Z</time>
      </trkpt>
      <trkpt lat="46.7659" lon="0.07727">
        <ele>102.92</ele>
        <time>2023-06-14T04:23:56.497Z</time>
      </trkpt>
      <trkpt lat="46.76588" lon="0.07727">
        <ele>102.94</ele>
        <time>2023-06-14T04:24:42.780Z</time>
      </trkpt>
      <trkpt lat="46.76586" lon="0.07725">
        <ele>102.97</ele>
        <time>2023-06-14T04:25:29.063Z</time>
      </trkpt>
      <trkpt lat="46.76576" lon="0.07715">
        <ele>103.15</ele>
        <time>2023-06-14T04:26:15.348Z</time>
      </trkpt>
      <trkpt lat="46.76572" lon="0.07713">
        <ele>103.23</ele>
        <time>2023-06-14T04:27:01.634Z</time>
      </trkpt>
      <trkpt lat="46.76567" lon="0.07712">
        <ele>103.28</ele>
        <time>2023-06-14T04:27:47.920Z</time>
      </trkpt>
      <trkpt lat="46.76559" lon="0.07709">
        <ele>103.33</ele>
        <time>2023-06-14T04:28:34.208Z</time>
      </trkpt>
      <trkpt lat="46.76547" lon="0.07705">
        <ele>103.35</ele>
        <time>2023-06-14T04:29:20.498Z</time>
      </trkpt>
      <trkpt lat="46.76519" lon="0.07707">
        <ele>103.42</ele>
        <time>2023-06-14T04:30:06.792Z</time>
      </trkpt>
      <trkpt lat="46.76472" lon="0.07716">
        <ele>103.52</ele>
        <time>2023-06-14T04:30:53.094Z</time>
      </trkpt>
      <trkpt lat="46.76435" lon="0.07718">
        <ele>103.61</ele>
        <time>2023-06-14T04:31:39.402Z</time>
      </trkpt>
      <trkpt lat="46.76409" lon="0.07717">
        <ele>103.66</ele>
        <time>2023-06-14T04:32:25.714Z</time>
      </trkpt>
      <trkpt lat="46.76315" lon="0.077">
        <ele>103.88</ele>
        <time>2023-06-14T04:33:12.041Z</time>
      </trkpt>
      <trkpt lat="46.763" lon="0.07685">
        <ele>103.92</ele>
        <time>2023-06-14T04:33:58.371Z</time>
      </trkpt>
      <trkpt lat="46.76285" lon="0.07664">
        <ele>103.96</ele>
        <time>2023-06-14T04:34:44.704Z</time>
      </trkpt>
      <trkpt lat="46.76267" lon="0.07632">
        <ele>104.03</ele>
        <time>2023-06-14T04:35:31.042Z</time>
      </trkpt>
      <trkpt lat="46.76222" lon="0.0753">
        <ele>104.22</ele>
        <time>2023-06-14T04:36:17.393Z</time>
      </trkpt>
      <trkpt lat="46.7621" lon="0.07507">
        <ele>104.26</ele>
        <time>2023-06-14T04:37:03.747Z</time>
      </trkpt>
      <trkpt lat="46.76197" lon="0.07485">
        <ele>104.3</ele>
        <time>2023-06-14T04:37:50.104Z</time>
      </trkpt>
      <trkpt lat="46.76179" lon="0.07466">
        <ele>104.35</ele>
        <time>2023-06-14T04:38:36.465Z</time>
      </trkpt>
      <trkpt lat="46.76149" lon="0.07443">
        <ele>104.43</ele>
        <time>2023-06-14T04:39:22.831Z</time>
      </trkpt>
      <trkpt lat="46.76089" lon="0.07416">
        <ele>104.57</ele>
        <time>2023-06-14T04:40:09.207Z</time>
      </trkpt>
      <trkpt lat="46.76048" lon="0.07401">
        <ele>104.67</ele>
        <time>2023-06-14T04:40:55.590Z</time>
      </trkpt>
      <trkpt lat="46.75953" lon="0.07373">
        <ele>104.88</ele>
        <time>2023-06-14T04:41:41.989Z</time>
      </trkpt>
      <trkpt lat="46.75942" lon="0.07365">
        <ele>104.91</ele>
        <time>2023-06-14T04:42:28.390Z</time>
      </trkpt>
      <trkpt lat="46.75926" lon="0.0735">
        <ele>104.95</ele>
        <time>2023-06-14T04:43:14.794Z</time>
      </trkpt>
      <trkpt lat="46.75889" lon="0.07305">
        <ele>105.06</ele>
        <time>2023-06-14T04:44:01.206Z</time>
      </trkpt>
      <trkpt lat="46.75864" lon="0.07269">
        <ele>105.14</ele>
        <time>2023-06-14T04:44:47.623Z</time>
      </trkpt>
      <trkpt lat="46.75838" lon="0.07238">
        <ele>105.22</ele>
        <time>2023-06-14T04:45:34.046Z</time>
      </trkpt>
      <trkpt lat="46.75824" lon="0.07224">
        <ele>105.26</ele>
        <time>2023-06-14T04:46:20.471Z</time>
      </trkpt>
      <trkpt lat="46.75791" lon="0.07192">
        <ele>105.14</ele>
        <time>2023-06-14T04:47:06.903Z</time>
      </trkpt>
      <trkpt lat="46.75645" lon="0.07126">
        <ele>104.72</ele>
        <time>2023-06-14T04:47:53.359Z</time>
      </trkpt>
      <trkpt lat="46.75622" lon="0.07111">
        <ele>104.65</ele>
        <time>2023-06-14T04:48:39.819Z</time>
      </trkpt>
      <trkpt lat="46.75613" lon="0.07103">
        <ele>104.62</ele>
        <time>2023-06-14T04:49:26.281Z</time>
      </trkpt>
      <trkpt lat="46.75596" lon="0.07073">
        <ele>104.55</ele>
        <time>2023-06-14T04:50:12.747Z</time>
      </trkpt>
      <trkpt lat="46.7559" lon="0.06952">
        <ele>104.32</ele>
        <time>2023-06-14T04:50:59.226Z</time>
      </trkpt>
      <trkpt lat="46.75584" lon="0.06927">
        <ele>104.27</ele>
        <time>2023-06-14T04:51:45.708Z</time>
      </trkpt>
      <trkpt lat="46.7557" lon="0.06905">
        <ele>104.21</ele>
        <time>2023-06-14T04:52:32.194Z</time>
      </trkpt>
      <trkpt lat="46.75558" lon="0.06891">
        <ele>104.17</ele>
        <time>2023-06-14T04:53:18.682Z</time>
      </trkpt>
      <trkpt lat="46.75516" lon="0.06852">
        <ele>104.03</ele>
        <time>2023-06-14T04:54:05.178Z</time>
      </trkpt>
      <trkpt lat="46.75479" lon="0.06809">
        <ele>103.9</ele>
        <time>2023-06-14T04:54:51.682Z</time>
      </trkpt>
      <trkpt lat="46.7546" lon="0.0679">
        <ele>103.84</ele>
        <time>2023-06-14T04:55:38.189Z</time>
      </trkpt>
      <trkpt lat="46.7543" lon="0.06765">
        <ele>103.74</ele>
        <time>2023-06-14T04:56:24.702Z</time>
      </trkpt>
      <trkpt lat="46.75352" lon="0.06715">
        <ele>103.51</ele>
        <time>2023-06-14T04:57:11.229Z</time>
      </trkpt>
      <trkpt lat="46.75317" lon="0.067">
        <ele>103.41</ele>
        <time>2023-06-14T04:57:57.761Z</time>
      </trkpt>
      <trkpt lat="46.75307" lon="0.06696">
        <ele>103.42</ele>
        <time>2023-06-14T04:58:44.295Z</time>
      </trkpt>
      <trkpt lat="46.75299" lon="0.06692">
        <ele>103.7</ele>
        <time>2023-06-14T04:59:30.830Z</time>
      </trkpt>
      <trkpt lat="46.75294" lon="0.06691">
        <ele>103.8</ele>
        <time>2023-06-14T05:00:17.366Z</time>
      </trkpt>
      <trkpt lat="46.7529" lon="0.06689">
        <ele>103.87</ele>
        <time>2023-06-14T05:01:03.903Z</time>
      </trkpt>
      <trkpt lat="46.75286" lon="0.06687">
        <ele>103.91</ele>
        <time>2023-06-14T05:01:50.441Z</time>
      </trkpt>
      <trkpt lat="46.75286" lon="0.06687">
        <ele>103.91</ele>
        <time>2023-06-14T05:02:36.979Z</time>
      </trkpt>
      <trkpt lat="46.75278" lon="0.06687">
        <ele>103.94</ele>
        <time>2023-06-14T05:03:23.518Z</time>
      </trkpt>
      <trkpt lat="46.75272" lon="0.06676">
        <ele>103.99</ele>
        <time>2023-06-14T05:04:10.058Z</time>
      </trkpt>
      <trkpt lat="46.75271" lon="0.06675">
        <ele>103.99</ele>
        <time>2023-06-14T05:04:56.599Z</time>
      </trkpt>
      <trkpt lat="46.75263" lon="0.06684">
        <ele>104.06</ele>
        <time>2023-06-14T05:05:43.141Z</time>
      </trkpt>
      <trkpt lat="46.75261" lon="0.06685">
        <ele>104.08</ele>
        <time>2023-06-14T05:06:29.683Z</time>
      </trkpt>
      <trkpt lat="46.75256" lon="0.06687">
        <ele>104.08</ele>
        <time>2023-06-14T05:07:16.226Z</time>
      </trkpt>
      <trkpt lat="46.75239" lon="0.06686">
        <ele>104.09</ele>
        <time>2023-06-14T05:08:02.772Z</time>
      </trkpt>
      <trkpt lat="46.75234" lon="0.06686">
        <ele>104.13</ele>
        <time>2023-06-14T05:08:49.319Z</time>
      </trkpt>
      <trkpt lat="46.75222" lon="0.06683">
        <ele>104.25</ele>
        <time>2023-06-14T05:09:35.868Z</time>
      </trkpt>
      <trkpt lat="46.75211" lon="0.0668">
        <ele>104.28</ele>
        <time>2023-06-14T05:10:22.419Z</time>
      </trkpt>
      <trkpt lat="46.75201" lon="0.06674">
        <ele>104.33</ele>
        <time>2023-06-14T05:11:08.971Z</time>
      </trkpt>
      <trkpt lat="46.75197" lon="0.06671">
        <ele>104.38</ele>
        <time>2023-06-14T05:11:55.524Z</time>
      </trkpt>
      <trkpt lat="46.75192" lon="0.06668">
        <ele>104.45</ele>
        <time>2023-06-14T05:12:42.078Z</time>
      </trkpt>
      <trkpt lat="46.75192" lon="0.06668">
        <ele>104.45</ele>
        <time>2023-06-14T05:13:28.632Z</time>
      </trkpt>
      <trkpt lat="46.75165" lon="0.06648">
        <ele>105.15</ele>
        <time>2023-06-14T05:14:15.191Z</time>
      </trkpt>
      <trkpt lat="46.75149" lon="0.06637">
        <ele>105.58</ele>
        <time>2023-06-14T05:15:01.753Z</time>
      </trkpt>
      <trkpt lat="46.75146" lon="0.06634">
        <ele>105.66</ele>
        <time>2023-06-14T05:15:48.315Z</time>
      </trkpt>
      <trkpt lat="46.75142" lon="0.06631">
        <ele>105.71</ele>
        <time>2023-06-14T05:16:34.878Z</time>
      </trkpt>
      <trkpt lat="46.75138" lon="0.06628">
        <ele>105.72</ele>
        <time>2023-06-14T05:17:21.442Z</time>
      </trkpt>
      <trkpt lat="46.7513" lon="0.06622">
        <ele>105.67</ele>
        <time>2023-06-14T05:18:08.007Z</time>
      </trkpt>
      <trkpt lat="46.75126" lon="0.06619">
        <ele>106.35</ele>
        <time>2023-06-14T05:18:54.573Z</time>
      </trkpt>
      <trkpt lat="46.75122" lon="0.06616">
        <ele>106.91</ele>
        <time>2023-06-14T05:19:41.139Z</time>
      </trkpt>
      <trkpt lat="46.75118" lon="0.06613">
        <ele>107.28</ele>
        <time>2023-06-14T05:20:27.706Z</time>
      </trkpt>
      <trkpt lat="46.75114" lon="0.06611">
        <ele>107.48</ele>
        <time>2023-06-14T05:21:14.274Z</time>
      </trkpt>
      <trkpt lat="46.75112" lon="0.06609">
        <ele>107.52</ele>
        <time>2023-06-14T05:22:00.842Z</time>
      </trkpt>
      <trkpt lat="46.7511" lon="0.06607">
        <ele>107.57</ele>
        <time>2023-06-14T05:22:47.411Z</time>
      </trkpt>
      <trkpt lat="46.75107" lon="0.06603">
        <ele>107.62</ele>
        <time>2023-06-14T05:23:33.980Z</time>
      </trkpt>
      <trkpt lat="46.75096" lon="0.06591">
        <ele>107.72</ele>
        <time>2023-06-14T05:24:20.551Z</time>
      </trkpt>
      <trkpt lat="46.75096" lon="0.06591">
        <ele>107.72</ele>
        <time>2023-06-14T05:25:07.122Z</time>
      </trkpt>
      <trkpt lat="46.75086" lon="0.06579">
        <ele>107.86</ele>
        <time>2023-06-14T05:25:53.696Z</time>
      </trkpt>
      <trkpt lat="46.7508" lon="0.0657">
        <ele>107.93</ele>
        <time>2023-06-14T05:26:40.271Z</time>
      </trkpt>
      <trkpt lat="46.75073" lon="0.06562">
        <ele>107.97</ele>
        <time>2023-06-14T05:27:26.847Z</time>
      </trkpt>
      <trkpt lat="46.75059" lon="0.06545">
        <ele>107.96</ele>
        <time>2023-06-14T05:28:13.426Z</time>
      </trkpt>
      <trkpt lat="46.75056" lon="0.0654">
        <ele>107.99</ele>
        <time>2023-06-14T05:29:00.006Z</time>
      </trkpt>
      <trkpt lat="46.75053" lon="0.06536">
        <ele>108.05</ele>
        <time>2023-06-14T05:29:46.587Z</time>
      </trkpt>
      <trkpt lat="46.75046" lon="0.06528">
        <ele>108.22</ele>
        <time>2023-06-14T05:30:33.169Z</time>
      </trkpt>
      <trkpt lat="46.75043" lon="0.06523">
        <ele>108.26</ele>
        <time>2023-06-14T05:31:19.752Z</time>
      </trkpt>
      <trkpt lat="46.75039" lon="0.06519">
        <ele>108.26</ele>
        <time>2023-06-14T05:32:06.336Z</time>
      </trkpt>
      <trkpt lat="46.75036" lon="0.06515">
        <ele>108.23</ele>
        <time>2023-06-14T05:32:52.920Z</time>
      </trkpt>
      <trkpt lat="46.75026" lon="0.06502">
        <ele>108.1</ele>
        <time>2023-06-14T05:33:39.506Z</time>
      </trkpt>
      <trkpt lat="46.75019" lon="0.06494">
        <ele>108.03</ele>
        <time>2023-06-14T05:34:26.094Z</time>
      </trkpt>
      <trkpt lat="46.75016" lon="0.06489">
        <ele>108.02</ele>
        <time>2023-06-14T05:35:12.682Z</time>
      </trkpt>
      <trkpt lat="46.75012" lon="0.06485">
        <ele>108.04</ele>
        <time>2023-06-14T05:35:59.271Z</time>
      </trkpt>
      <trkpt lat="46.75009" lon="0.06481">
        <ele>108.09</ele>
        <time>2023-06-14T05:36:45.861Z</time>
      </trkpt>
      <trkpt lat="46.75006" lon="0.06477">
        <ele>108.17</ele>
        <time>2023-06-14T05:37:32.452Z</time>
      </trkpt>
      <trkpt lat="46.75003" lon="0.06472">
        <ele>108.28</ele>
        <time>2023-06-14T05:38:19.043Z</time>
      </trkpt>
      <trkpt lat="46.74992" lon="0.0646">
        <ele>108.73</ele>
        <time>2023-06-14T05:39:05.636Z</time>
      </trkpt>
      <trkpt lat="46.74986" lon="0.06451">
        <ele>109</ele>
        <time>2023-06-14T05:39:52.231Z</time>
      </trkpt>
      <trkpt lat="46.74969" lon="0.0643">
        <ele>109.45</ele>
        <time>2023-06-14T05:40:38.829Z</time>
      </trkpt>
      <trkpt lat="46.74959" lon="0.06417">
        <ele>109.78</ele>
        <time>2023-06-14T05:41:25.430Z</time>
      </trkpt>
      <trkpt lat="46.74956" lon="0.06413">
        <ele>109.86</ele>
        <time>2023-06-14T05:42:12.031Z</time>
      </trkpt>
      <trkpt lat="46.74952" lon="0.06409">
        <ele>109.89</ele>
        <time>2023-06-14T05:42:58.633Z</time>
      </trkpt>
      <trkpt lat="46.74951" lon="0.06407">
        <ele>109.87</ele>
        <time>2023-06-14T05:43:45.235Z</time>
      </trkpt>
      <trkpt lat="46.74949" lon="0.06405">
        <ele>109.84</ele>
        <time>2023-06-14T05:44:31.838Z</time>
      </trkpt>
      <trkpt lat="46.74945" lon="0.06401">
        <ele>109.72</ele>
        <time>2023-06-14T05:45:18.441Z</time>
      </trkpt>
      <trkpt lat="46.74938" lon="0.06393">
        <ele>109.39</ele>
        <time>2023-06-14T05:46:05.046Z</time>
      </trkpt>
      <trkpt lat="46.74935" lon="0.06389">
        <ele>109.26</ele>
        <time>2023-06-14T05:46:51.652Z</time>
      </trkpt>
      <trkpt lat="46.74931" lon="0.06385">
        <ele>109.15</ele>
        <time>2023-06-14T05:47:38.258Z</time>
      </trkpt>
      <trkpt lat="46.74927" lon="0.06382">
        <ele>109.06</ele>
        <time>2023-06-14T05:48:24.865Z</time>
      </trkpt>
      <trkpt lat="46.74925" lon="0.06379">
        <ele>109.01</ele>
        <time>2023-06-14T05:49:11.472Z</time>
      </trkpt>
      <trkpt lat="46.74911" lon="0.0637">
        <ele>108.78</ele>
        <time>2023-06-14T05:49:58.082Z</time>
      </trkpt>
      <trkpt lat="46.74911" lon="0.0637">
        <ele>108.78</ele>
        <time>2023-06-14T05:50:44.692Z</time>
      </trkpt>
      <trkpt lat="46.74913" lon="0.06365">
        <ele>108.68</ele>
        <time>2023-06-14T05:51:31.303Z</time>
      </trkpt>
      <trkpt lat="46.74922" lon="0.0635">
        <ele>108.23</ele>
        <time>2023-06-14T05:52:17.916Z</time>
      </trkpt>
      <trkpt lat="46.74927" lon="0.0634">
        <ele>107.95</ele>
        <time>2023-06-14T05:53:04.530Z</time>
      </trkpt>
      <trkpt lat="46.74935" lon="0.06325">
        <ele>107.45</ele>
        <time>2023-06-14T05:53:51.146Z</time>
      </trkpt>
      <trkpt lat="46.74941" lon="0.06314">
        <ele>107.15</ele>
        <time>2023-06-14T05:54:37.764Z</time>
      </trkpt>
      <trkpt lat="46.74943" lon="0.06309">
        <ele>106.98</ele>
        <time>2023-06-14T05:55:24.382Z</time>
      </trkpt>
      <trkpt lat="46.74951" lon="0.06295">
        <ele>106.36</ele>
        <time>2023-06-14T05:56:11.002Z</time>
      </trkpt>
      <trkpt lat="46.74952" lon="0.06294">
        <ele>106.31</ele>
        <time>2023-06-14T05:56:57.623Z</time>
      </trkpt>
      <trkpt lat="46.74954" lon="0.06288">
        <ele>106.13</ele>
        <time>2023-06-14T05:57:44.244Z</time>
      </trkpt>
      <trkpt lat="46.7496" lon="0.06271">
        <ele>105.67</ele>
        <time>2023-06-14T05:58:30.867Z</time>
      </trkpt>
      <trkpt lat="46.74967" lon="0.06254">
        <ele>105.31</ele>
        <time>2023-06-14T05:59:17.493Z</time>
      </trkpt>
      <trkpt lat="46.74969" lon="0.06249">
        <ele>105.13</ele>
        <time>2023-06-14T06:00:04.119Z</time>
      </trkpt>
      <trkpt lat="46.74969" lon="0.06249">
        <ele>105.13</ele>
        <time>2023-06-14T06:00:50.745Z</time>
      </trkpt>
      <trkpt lat="46.7497" lon="0.06242">
        <ele>104.88</ele>
        <time>2023-06-14T06:01:37.372Z</time>
      </trkpt>
      <trkpt lat="46.74972" lon="0.06236">
        <ele>104.59</ele>
        <time>2023-06-14T06:02:24.000Z</time>
      </trkpt>
      <trkpt lat="46.74973" lon="0.0623">
        <ele>104.34</ele>
        <time>2023-06-14T06:03:10.628Z</time>
      </trkpt>
      <trkpt lat="46.74974" lon="0.06224">
        <ele>104.17</ele>
        <time>2023-06-14T06:03:57.257Z</time>
      </trkpt>
      <trkpt lat="46.74976" lon="0.06218">
        <ele>104.09</ele>
        <time>2023-06-14T06:04:43.887Z</time>
      </trkpt>
      <trkpt lat="46.74976" lon="0.06216">
        <ele>104.07</ele>
        <time>2023-06-14T06:05:30.517Z</time>
      </trkpt>
      <trkpt lat="46.74976" lon="0.06211">
        <ele>104.05</ele>
        <time>2023-06-14T06:06:17.148Z</time>
      </trkpt>
      <trkpt lat="46.74975" lon="0.06198">
        <ele>104.05</ele>
        <time>2023-06-14T06:07:03.780Z</time>
      </trkpt>
      <trkpt lat="46.74975" lon="0.06192">
        <ele>104.07</ele>
        <time>2023-06-14T06:07:50.413Z</time>
      </trkpt>
      <trkpt lat="46.74975" lon="0.06189">
        <ele>104.08</ele>
        <time>2023-06-14T06:08:37.046Z</time>
      </trkpt>
      <trkpt lat="46.74972" lon="0.06179">
        <ele>104.14</ele>
        <time>2023-06-14T06:09:23.680Z</time>
      </trkpt>
      <trkpt lat="46.74972" lon="0.06179">
        <ele>104.14</ele>
        <time>2023-06-14T06:10:10.314Z</time>
      </trkpt>
      <trkpt lat="46.74967" lon="0.06169">
        <ele>104.26</ele>
        <time>2023-06-14T06:10:56.949Z</time>
      </trkpt>
      <trkpt lat="46.74966" lon="0.06167">
        <ele>104.29</ele>
        <time>2023-06-14T06:11:43.585Z</time>
      </trkpt>
      <trkpt lat="46.7496" lon="0.06161">
        <ele>104.44</ele>
        <time>2023-06-14T06:12:30.222Z</time>
      </trkpt>
      <trkpt lat="46.74952" lon="0.06151">
        <ele>104.71</ele>
        <time>2023-06-14T06:13:16.861Z</time>
      </trkpt>
      <trkpt lat="46.74939" lon="0.06138">
        <ele>105.13</ele>
        <time>2023-06-14T06:14:03.502Z</time>
      </trkpt>
      <trkpt lat="46.74931" lon="0.06131">
        <ele>105.39</ele>
        <time>2023-06-14T06:14:50.145Z</time>
      </trkpt>
      <trkpt lat="46.74928" lon="0.06127">
        <ele>105.55</ele>
        <time>2023-06-14T06:15:36.788Z</time>
      </trkpt>
      <trkpt lat="46.74924" lon="0.06124">
        <ele>105.74</ele>
        <time>2023-06-14T06:16:23.432Z</time>
      </trkpt>
      <trkpt lat="46.7492" lon="0.0612">
        <ele>105.96</ele>
        <time>2023-06-14T06:17:10.077Z</time>
      </trkpt>
      <trkpt lat="46.74913" lon="0.06113">
        <ele>106.44</ele>
        <time>2023-06-14T06:17:56.723Z</time>
      </trkpt>
      <trkpt lat="46.74909" lon="0.06109">
        <ele>106.64</ele>
        <time>2023-06-14T06:18:43.370Z</time>
      </trkpt>
      <trkpt lat="46.74905" lon="0.06105">
        <ele>106.85</ele>
        <time>2023-06-14T06:19:30.018Z</time>
      </trkpt>
      <trkpt lat="46.7489" lon="0.06093">
        <ele>107.55</ele>
        <time>2023-06-14T06:20:16.668Z</time>
      </trkpt>
      <trkpt lat="46.74886" lon="0.0609">
        <ele>107.71</ele>
        <time>2023-06-14T06:21:03.319Z</time>
      </trkpt>
      <trkpt lat="46.74882" lon="0.06087">
        <ele>107.84</ele>
        <time>2023-06-14T06:21:49.971Z</time>
      </trkpt>
      <trkpt lat="46.74875" lon="0.06081">
        <ele>108.01</ele>
        <time>2023-06-14T06:22:36.624Z</time>
      </trkpt>
      <trkpt lat="46.74863" lon="0.06071">
        <ele>107.84</ele>
        <time>2023-06-14T06:23:23.279Z</time>
      </trkpt>
      <trkpt lat="46.74855" lon="0.06065">
        <ele>107.78</ele>
        <time>2023-06-14T06:24:09.936Z</time>
      </trkpt>
      <trkpt lat="46.74855" lon="0.06065">
        <ele>107.78</ele>
        <time>2023-06-14T06:24:56.593Z</time>
      </trkpt>
      <trkpt lat="46.74835" lon="0.06041">
        <ele>107.78</ele>
        <time>2023-06-14T06:25:43.254Z</time>
      </trkpt>
      <trkpt lat="46.74806" lon="0.06015">
        <ele>107.78</ele>
        <time>2023-06-14T06:26:29.920Z</time>
      </trkpt>
      <trkpt lat="46.74783" lon="0.05998">
        <ele>107.78</ele>
        <time>2023-06-14T06:27:16.591Z</time>
      </trkpt>
      <trkpt lat="46.74772" lon="0.05989">
        <ele>107.76</ele>
        <time>2023-06-14T06:28:03.264Z</time>
      </trkpt>
      <trkpt lat="46.74769" lon="0.05987">
        <ele>107.75</ele>
        <time>2023-06-14T06:28:49.937Z</time>
      </trkpt>
      <trkpt lat="46.74757" lon="0.05974">
        <ele>107.7</ele>
        <time>2023-06-14T06:29:36.613Z</time>
      </trkpt>
      <trkpt lat="46.74753" lon="0.0597">
        <ele>107.71</ele>
        <time>2023-06-14T06:30:23.289Z</time>
      </trkpt>
      <trkpt lat="46.74751" lon="0.05968">
        <ele>107.73</ele>
        <time>2023-06-14T06:31:09.966Z</time>
      </trkpt>
      <trkpt lat="46.7475" lon="0.05966">
        <ele>107.76</ele>
        <time>2023-06-14T06:31:56.643Z</time>
      </trkpt>
      <trkpt lat="46.74746" lon="0.05962">
        <ele>107.86</ele>
        <time>2023-06-14T06:32:43.321Z</time>
      </trkpt>
      <trkpt lat="46.74739" lon="0.05954">
        <ele>108.14</ele>
        <time>2023-06-14T06:33:30.000Z</time>
      </trkpt>
      <trkpt lat="46.74736" lon="0.05949">
        <ele>108.23</ele>
        <time>2023-06-14T06:34:16.680Z</time>
      </trkpt>
      <trkpt lat="46.74732" lon="0.05945">
        <ele>108.26</ele>
        <time>2023-06-14T06:35:03.361Z</time>
      </trkpt>
      <trkpt lat="46.74708" lon="0.05915">
        <ele>108.27</ele>
        <time>2023-06-14T06:35:50.047Z</time>
      </trkpt>
      <trkpt lat="46.74708" lon="0.05915">
        <ele>108.27</ele>
        <time>2023-06-14T06:36:36.733Z</time>
      </trkpt>
      <trkpt lat="46.7469" lon="0.05897">
        <ele>108.3</ele>
        <time>2023-06-14T06:37:23.422Z</time>
      </trkpt>
      <trkpt lat="46.74685" lon="0.05891">
        <ele>108.29</ele>
        <time>2023-06-14T06:38:10.112Z</time>
      </trkpt>
      <trkpt lat="46.74668" lon="0.05875">
        <ele>108.26</ele>
        <time>2023-06-14T06:38:56.805Z</time>
      </trkpt>
      <trkpt lat="46.74646" lon="0.05853">
        <ele>108.27</ele>
        <time>2023-06-14T06:39:43.503Z</time>
      </trkpt>
      <trkpt lat="46.74619" lon="0.05828">
        <ele>108.25</ele>
        <time>2023-06-14T06:40:30.206Z</time>
      </trkpt>
      <trkpt lat="46.74612" lon="0.0582">
        <ele>108.22</ele>
        <time>2023-06-14T06:41:16.910Z</time>
      </trkpt>
      <trkpt lat="46.74596" lon="0.05805">
        <ele>108.11</ele>
        <time>2023-06-14T06:42:03.617Z</time>
      </trkpt>
      <trkpt lat="46.74575" lon="0.05783">
        <ele>107.97</ele>
        <time>2023-06-14T06:42:50.328Z</time>
      </trkpt>
      <trkpt lat="46.7456" lon="0.05766">
        <ele>107.93</ele>
        <time>2023-06-14T06:43:37.043Z</time>
      </trkpt>
      <trkpt lat="46.74551" lon="0.05754">
        <ele>107.91</ele>
        <time>2023-06-14T06:44:23.759Z</time>
      </trkpt>
      <trkpt lat="46.74525" lon="0.05719">
        <ele>107.79</ele>
        <time>2023-06-14T06:45:10.481Z</time>
      </trkpt>
      <trkpt lat="46.74508" lon="0.05699">
        <ele>107.72</ele>
        <time>2023-06-14T06:45:57.207Z</time>
      </trkpt>
      <trkpt lat="46.74503" lon="0.05695">
        <ele>107.71</ele>
        <time>2023-06-14T06:46:43.934Z</time>
      </trkpt>
      <trkpt lat="46.74498" lon="0.05691">
        <ele>107.7</ele>
        <time>2023-06-14T06:47:30.661Z</time>
      </trkpt>
      <trkpt lat="46.74491" lon="0.05687">
        <ele>107.7</ele>
        <time>2023-06-14T06:48:17.390Z</time>
      </trkpt>
      <trkpt lat="46.74474" lon="0.05679">
        <ele>107.8</ele>
        <time>2023-06-14T06:49:04.122Z</time>
      </trkpt>
      <trkpt lat="46.74465" lon="0.05674">
        <ele>107.8</ele>
        <time>2023-06-14T06:49:50.855Z</time>
      </trkpt>
      <trkpt lat="46.74461" lon="0.05672">
        <ele>107.77</ele>
        <time>2023-06-14T06:50:37.589Z</time>
      </trkpt>
      <trkpt lat="46.74453" lon="0.05668">
        <ele>107.62</ele>
        <time>2023-06-14T06:51:24.324Z</time>
      </trkpt>
      <trkpt lat="46.74445" lon="0.05662">
        <ele>107.47</ele>
        <time>2023-06-14T06:52:11.061Z</time>
      </trkpt>
      <trkpt lat="46.74437" lon="0.05656">
        <ele>107.28</ele>
        <time>2023-06-14T06:52:57.799Z</time>
      </trkpt>
      <trkpt lat="46.74432" lon="0.05654">
        <ele>107.18</ele>
        <time>2023-06-14T06:53:44.538Z</time>
      </trkpt>
      <trkpt lat="46.74428" lon="0.05653">
        <ele>107.1</ele>
        <time>2023-06-14T06:54:31.277Z</time>
      </trkpt>
      <trkpt lat="46.74419" lon="0.05649">
        <ele>107.06</ele>
        <time>2023-06-14T06:55:18.018Z</time>
      </trkpt>
      <trkpt lat="46.7441" lon="0.05646">
        <ele>107.07</ele>
        <time>2023-06-14T06:56:04.760Z</time>
      </trkpt>
      <trkpt lat="46.74402" lon="0.05644">
        <ele>107.09</ele>
        <time>2023-06-14T06:56:51.504Z</time>
      </trkpt>
      <trkpt lat="46.74393" lon="0.05643">
        <ele>107.08</ele>
        <time>2023-06-14T06:57:38.249Z</time>
      </trkpt>
      <trkpt lat="46.74388" lon="0.05642">
        <ele>107.05</ele>
        <time>2023-06-14T06:58:24.995Z</time>
      </trkpt>
      <trkpt lat="46.74383" lon="0.05641">
        <ele>106.97</ele>
        <time>2023-06-14T06:59:11.742Z</time>
      </trkpt>
      <trkpt lat="46.7438" lon="0.05641">
        <ele>106.92</ele>
        <time>2023-06-14T06:59:58.489Z</time>
      </trkpt>
      <trkpt lat="46.74356" lon="0.05639">
        <ele>106.95</ele>
        <time>2023-06-14T07:00:45.240Z</time>
      </trkpt>
      <trkpt lat="46.74339" lon="0.05644">
        <ele>106.97</ele>
        <time>2023-06-14T07:01:31.994Z</time>
      </trkpt>
      <trkpt lat="46.7429" lon="0.05676">
        <ele>107.05</ele>
        <time>2023-06-14T07:02:18.757Z</time>
      </trkpt>
      <trkpt lat="46.74275" lon="0.0569">
        <ele>107.07</ele>
        <time>2023-06-14T07:03:05.522Z</time>
      </trkpt>
      <trkpt lat="46.74218" lon="0.05763">
        <ele>107.18</ele>
        <time>2023-06-14T07:03:52.300Z</time>
      </trkpt>
      <trkpt lat="46.74203" lon="0.05779">
        <ele>107.21</ele>
        <time>2023-06-14T07:04:39.081Z</time>
      </trkpt>
      <trkpt lat="46.7417" lon="0.05814">
        <ele>108.05</ele>
        <time>2023-06-14T07:05:25.868Z</time>
      </trkpt>
      <trkpt lat="46.74156" lon="0.05837">
        <ele>108.49</ele>
        <time>2023-06-14T07:06:12.658Z</time>
      </trkpt>
      <trkpt lat="46.74096" lon="0.05914">
        <ele>110.15</ele>
        <time>2023-06-14T07:06:59.461Z</time>
      </trkpt>
      <trkpt lat="46.74083" lon="0.05924">
        <ele>110.46</ele>
        <time>2023-06-14T07:07:46.267Z</time>
      </trkpt>
      <trkpt lat="46.74079" lon="0.05926">
        <ele>110.55</ele>
        <time>2023-06-14T07:08:33.073Z</time>
      </trkpt>
      <trkpt lat="46.74041" lon="0.05947">
        <ele>109.44</ele>
        <time>2023-06-14T07:09:19.886Z</time>
      </trkpt>
      <trkpt lat="46.74035" lon="0.05853">
        <ele>107.68</ele>
        <time>2023-06-14T07:10:06.709Z</time>
      </trkpt>
      <trkpt lat="46.74035" lon="0.05853">
        <ele>107.68</ele>
        <time>2023-06-14T07:10:53.532Z</time>
      </trkpt>
      <trkpt lat="46.74033" lon="0.05836">
        <ele>107.58</ele>
        <time>2023-06-14T07:11:40.357Z</time>
      </trkpt>
      <trkpt lat="46.7403" lon="0.05825">
        <ele>107.52</ele>
        <time>2023-06-14T07:12:27.183Z</time>
      </trkpt>
      <trkpt lat="46.7402" lon="0.05804">
        <ele>107.38</ele>
        <time>2023-06-14T07:13:14.012Z</time>
      </trkpt>
      <trkpt lat="46.74018" lon="0.058">
        <ele>107.42</ele>
        <time>2023-06-14T07:14:00.842Z</time>
      </trkpt>
      <trkpt lat="46.74015" lon="0.05797">
        <ele>107.47</ele>
        <time>2023-06-14T07:14:47.672Z</time>
      </trkpt>
      <trkpt lat="46.74008" lon="0.05793">
        <ele>107.56</ele>
        <time>2023-06-14T07:15:34.503Z</time>
      </trkpt>
      <trkpt lat="46.73982" lon="0.05792">
        <ele>107.9</ele>
        <time>2023-06-14T07:16:21.339Z</time>
      </trkpt>
      <trkpt lat="46.73982" lon="0.05817">
        <ele>108.12</ele>
        <time>2023-06-14T07:17:08.177Z</time>
      </trkpt>
      <trkpt lat="46.73979" lon="0.05837">
        <ele>108.3</ele>
        <time>2023-06-14T07:17:55.018Z</time>
      </trkpt>
      <trkpt lat="46.73973" lon="0.05855">
        <ele>108.48</ele>
        <time>2023-06-14T07:18:41.861Z</time>
      </trkpt>
      <trkpt lat="46.73966" lon="0.05873">
        <ele>108.66</ele>
        <time>2023-06-14T07:19:28.706Z</time>
      </trkpt>
      <trkpt lat="46.73951" lon="0.05901">
        <ele>108.98</ele>
        <time>2023-06-14T07:20:15.555Z</time>
      </trkpt>
      <trkpt lat="46.73928" lon="0.05938">
        <ele>109.42</ele>
        <time>2023-06-14T07:21:02.410Z</time>
      </trkpt>
      <trkpt lat="46.73914" lon="0.05954">
        <ele>109.65</ele>
        <time>2023-06-14T07:21:49.267Z</time>
      </trkpt>
      <trkpt lat="46.739" lon="0.05966">
        <ele>109.86</ele>
        <time>2023-06-14T07:22:36.127Z</time>
      </trkpt>
      <trkpt lat="46.73893" lon="0.05969">
        <ele>109.96</ele>
        <time>2023-06-14T07:23:22.988Z</time>
      </trkpt>
      <trkpt lat="46.73854" lon="0.05986">
        <ele>111.04</ele>
        <time>2023-06-14T07:24:09.856Z</time>
      </trkpt>
      <trkpt lat="46.73837" lon="0.05936">
        <ele>112.06</ele>
        <time>2023-06-14T07:24:56.730Z</time>
      </trkpt>
      <trkpt lat="46.73806" lon="0.05806">
        <ele>114.56</ele>
        <time>2023-06-14T07:25:43.619Z</time>
      </trkpt>
      <trkpt lat="46.73795" lon="0.05779">
        <ele>115.13</ele>
        <time>2023-06-14T07:26:30.511Z</time>
      </trkpt>
      <trkpt lat="46.73784" lon="0.05758">
        <ele>115.62</ele>
        <time>2023-06-14T07:27:17.406Z</time>
      </trkpt>
      <trkpt lat="46.73736" lon="0.05689">
        <ele>117.41</ele>
        <time>2023-06-14T07:28:04.312Z</time>
      </trkpt>
      <trkpt lat="46.73708" lon="0.05643">
        <ele>118.53</ele>
        <time>2023-06-14T07:28:51.225Z</time>
      </trkpt>
      <trkpt lat="46.73707" lon="0.0564">
        <ele>118.59</ele>
        <time>2023-06-14T07:29:38.138Z</time>
      </trkpt>
      <trkpt lat="46.73683" lon="0.05592">
        <ele>118.95</ele>
        <time>2023-06-14T07:30:25.058Z</time>
      </trkpt>
      <trkpt lat="46.7366" lon="0.0552">
        <ele>119.44</ele>
        <time>2023-06-14T07:31:11.987Z</time>
      </trkpt>
      <trkpt lat="46.73642" lon="0.05451">
        <ele>119.89</ele>
        <time>2023-06-14T07:31:58.924Z</time>
      </trkpt>
      <trkpt lat="46.73629" lon="0.05388">
        <ele>120.29</ele>
        <time>2023-06-14T07:32:45.868Z</time>
      </trkpt>
      <trkpt lat="46.73621" lon="0.05361">
        <ele>120.47</ele>
        <time>2023-06-14T07:33:32.815Z</time>
      </trkpt>
      <trkpt lat="46.73576" lon="0.05235">
        <ele>121.34</ele>
        <time>2023-06-14T07:34:19.778Z</time>
      </trkpt>
      <trkpt lat="46.73543" lon="0.05153">
        <ele>121.93</ele>
        <time>2023-06-14T07:35:06.751Z</time>
      </trkpt>
      <trkpt lat="46.73524" lon="0.05111">
        <ele>122.24</ele>
        <time>2023-06-14T07:35:53.730Z</time>
      </trkpt>
      <trkpt lat="46.73502" lon="0.05061">
        <ele>122.56</ele>
        <time>2023-06-14T07:36:40.715Z</time>
      </trkpt>
      <trkpt lat="46.73457" lon="0.04988">
        <ele>123.11</ele>
        <time>2023-06-14T07:37:27.711Z</time>
      </trkpt>
      <trkpt lat="46.73397" lon="0.04914">
        <ele>123.74</ele>
        <time>2023-06-14T07:38:14.720Z</time>
      </trkpt>
      <trkpt lat="46.73389" lon="0.04903">
        <ele>123.83</ele>
        <time>2023-06-14T07:39:01.730Z</time>
      </trkpt>
      <trkpt lat="46.7336" lon="0.04862">
        <ele>124.16</ele>
        <time>2023-06-14T07:39:48.747Z</time>
      </trkpt>
      <trkpt lat="46.73329" lon="0.04814">
        <ele>124.53</ele>
        <time>2023-06-14T07:40:35.771Z</time>
      </trkpt>
      <trkpt lat="46.73293" lon="0.04746">
        <ele>125.01</ele>
        <time>2023-06-14T07:41:22.805Z</time>
      </trkpt>
      <trkpt lat="46.73284" lon="0.04728">
        <ele>125.09</ele>
        <time>2023-06-14T07:42:09.841Z</time>
      </trkpt>
      <trkpt lat="46.73258" lon="0.04688">
        <ele>125.29</ele>
        <time>2023-06-14T07:42:56.883Z</time>
      </trkpt>
      <trkpt lat="46.73173" lon="0.04584">
        <ele>125.87</ele>
        <time>2023-06-14T07:43:43.943Z</time>
      </trkpt>
      <trkpt lat="46.73121" lon="0.04504">
        <ele>126.27</ele>
        <time>2023-06-14T07:44:31.015Z</time>
      </trkpt>
      <trkpt lat="46.73065" lon="0.04412">
        <ele>126.72</ele>
        <time>2023-06-14T07:45:18.100Z</time>
      </trkpt>
      <trkpt lat="46.73061" lon="0.04406">
        <ele>126.73</ele>
        <time>2023-06-14T07:46:05.186Z</time>
      </trkpt>
      <trkpt lat="46.73034" lon="0.04361">
        <ele>126.62</ele>
        <time>2023-06-14T07:46:52.279Z</time>
      </trkpt>
      <trkpt lat="46.72971" lon="0.0427">
        <ele>126.39</ele>
        <time>2023-06-14T07:47:39.386Z</time>
      </trkpt>
      <trkpt lat="46.72915" lon="0.04197">
        <ele>126.19</ele>
        <time>2023-06-14T07:48:26.505Z</time>
      </trkpt>
      <trkpt lat="46.72847" lon="0.04126">
        <ele>125.98</ele>
        <time>2023-06-14T07:49:13.638Z</time>
      </trkpt>
      <trkpt lat="46.7284" lon="0.0412">
        <ele>125.96</ele>
        <time>2023-06-14T07:50:00.772Z</time>
      </trkpt>
      <trkpt lat="46.72818" lon="0.04101">
        <ele>125.54</ele>
        <time>2023-06-14T07:50:47.910Z</time>
      </trkpt>
      <trkpt lat="46.72805" lon="0.0409">
        <ele>125.49</ele>
        <time>2023-06-14T07:51:35.050Z</time>
      </trkpt>
      <trkpt lat="46.72737" lon="0.04029">
        <ele>125.26</ele>
        <time>2023-06-14T07:52:22.203Z</time>
      </trkpt>
      <trkpt lat="46.72651" lon="0.03931">
        <ele>124.95</ele>
        <time>2023-06-14T07:53:09.374Z</time>
      </trkpt>
      <trkpt lat="46.72559" lon="0.03837">
        <ele>124.63</ele>
        <time>2023-06-14T07:53:56.563Z</time>
      </trkpt>
      <trkpt lat="46.72533" lon="0.03801">
        <ele>124.53</ele>
        <time>2023-06-14T07:54:43.757Z</time>
      </trkpt>
      <trkpt lat="46.72527" lon="0.03792">
        <ele>123.14</ele>
        <time>2023-06-14T07:55:30.953Z</time>
      </trkpt>
      <trkpt lat="46.72524" lon="0.03787">
        <ele>122.51</ele>
        <time>2023-06-14T07:56:18.150Z</time>
      </trkpt>
      <trkpt lat="46.7252" lon="0.03783">
        <ele>121.95</ele>
        <time>2023-06-14T07:57:05.347Z</time>
      </trkpt>
      <trkpt lat="46.72519" lon="0.03781">
        <ele>121.74</ele>
        <time>2023-06-14T07:57:52.545Z</time>
      </trkpt>
      <trkpt lat="46.72517" lon="0.03779">
        <ele>121.47</ele>
        <time>2023-06-14T07:58:39.743Z</time>
      </trkpt>
      <trkpt lat="46.72513" lon="0.03775">
        <ele>121.08</ele>
        <time>2023-06-14T07:59:26.942Z</time>
      </trkpt>
      <trkpt lat="46.7251" lon="0.03772">
        <ele>120.81</ele>
        <time>2023-06-14T08:00:14.141Z</time>
      </trkpt>
      <trkpt lat="46.72506" lon="0.03768">
        <ele>120.64</ele>
        <time>2023-06-14T08:01:01.341Z</time>
      </trkpt>
      <trkpt lat="46.72502" lon="0.03764">
        <ele>120.56</ele>
        <time>2023-06-14T08:01:48.542Z</time>
      </trkpt>
      <trkpt lat="46.72501" lon="0.03763">
        <ele>120.55</ele>
        <time>2023-06-14T08:02:35.743Z</time>
      </trkpt>
      <trkpt lat="46.72502" lon="0.03759">
        <ele>120.55</ele>
        <time>2023-06-14T08:03:22.945Z</time>
      </trkpt>
      <trkpt lat="46.72505" lon="0.03754">
        <ele>120.59</ele>
        <time>2023-06-14T08:04:10.147Z</time>
      </trkpt>
      <trkpt lat="46.72509" lon="0.03743">
        <ele>120.75</ele>
        <time>2023-06-14T08:04:57.351Z</time>
      </trkpt>
      <trkpt lat="46.72511" lon="0.03737">
        <ele>120.87</ele>
        <time>2023-06-14T08:05:44.555Z</time>
      </trkpt>
      <trkpt lat="46.72516" lon="0.03726">
        <ele>121.17</ele>
        <time>2023-06-14T08:06:31.761Z</time>
      </trkpt>
      <trkpt lat="46.72518" lon="0.0372">
        <ele>121.36</ele>
        <time>2023-06-14T08:07:18.968Z</time>
      </trkpt>
      <trkpt lat="46.7252" lon="0.03715">
        <ele>121.61</ele>
        <time>2023-06-14T08:08:06.175Z</time>
      </trkpt>
      <trkpt lat="46.7252" lon="0.03715">
        <ele>121.61</ele>
        <time>2023-06-14T08:08:53.382Z</time>
      </trkpt>
      <trkpt lat="46.72522" lon="0.03709">
        <ele>121.91</ele>
        <time>2023-06-14T08:09:40.590Z</time>
      </trkpt>
      <trkpt lat="46.72524" lon="0.03703">
        <ele>122.28</ele>
        <time>2023-06-14T08:10:27.799Z</time>
      </trkpt>
      <trkpt lat="46.72526" lon="0.03697">
        <ele>122.72</ele>
        <time>2023-06-14T08:11:15.008Z</time>
      </trkpt>
      <trkpt lat="46.72527" lon="0.03691">
        <ele>123.21</ele>
        <time>2023-06-14T08:12:02.218Z</time>
      </trkpt>
      <trkpt lat="46.72537" lon="0.03661">
        <ele>126.02</ele>
        <time>2023-06-14T08:12:49.432Z</time>
      </trkpt>
      <trkpt lat="46.72538" lon="0.03657">
        <ele>126.22</ele>
        <time>2023-06-14T08:13:36.646Z</time>
      </trkpt>
      <trkpt lat="46.72539" lon="0.03651">
        <ele>126.49</ele>
        <time>2023-06-14T08:14:23.861Z</time>
      </trkpt>
      <trkpt lat="46.7254" lon="0.03645">
        <ele>126.69</ele>
        <time>2023-06-14T08:15:11.077Z</time>
      </trkpt>
      <trkpt lat="46.72543" lon="0.03623">
        <ele>127.36</ele>
        <time>2023-06-14T08:15:58.295Z</time>
      </trkpt>
      <trkpt lat="46.72544" lon="0.03617">
        <ele>127.58</ele>
        <time>2023-06-14T08:16:45.514Z</time>
      </trkpt>
      <trkpt lat="46.72545" lon="0.0361">
        <ele>127.83</ele>
        <time>2023-06-14T08:17:32.733Z</time>
      </trkpt>
      <trkpt lat="46.72546" lon="0.03604">
        <ele>128.12</ele>
        <time>2023-06-14T08:18:19.953Z</time>
      </trkpt>
      <trkpt lat="46.72548" lon="0.0359">
        <ele>128.76</ele>
        <time>2023-06-14T08:19:07.175Z</time>
      </trkpt>
      <trkpt lat="46.72548" lon="0.0359">
        <ele>128.76</ele>
        <time>2023-06-14T08:19:54.397Z</time>
      </trkpt>
      <trkpt lat="46.72549" lon="0.03586">
        <ele>129.06</ele>
        <time>2023-06-14T08:20:41.619Z</time>
      </trkpt>
      <trkpt lat="46.72549" lon="0.03586">
        <ele>128.51</ele>
        <time>2023-06-14T08:21:28.841Z</time>
      </trkpt>
      <trkpt lat="46.72554" lon="0.03574">
        <ele>127.84</ele>
        <time>2023-06-14T08:22:16.065Z</time>
      </trkpt>
      <trkpt lat="46.72554" lon="0.03574">
        <ele>128.32</ele>
        <time>2023-06-14T08:23:03.289Z</time>
      </trkpt>
      <trkpt lat="46.72558" lon="0.03565">
        <ele>127.83</ele>
        <time>2023-06-14T08:23:50.514Z</time>
      </trkpt>
      <trkpt lat="46.72561" lon="0.0356">
        <ele>127.58</ele>
        <time>2023-06-14T08:24:37.740Z</time>
      </trkpt>
      <trkpt lat="46.72563" lon="0.03554">
        <ele>127.36</ele>
        <time>2023-06-14T08:25:24.966Z</time>
      </trkpt>
      <trkpt lat="46.72571" lon="0.03535">
        <ele>126.69</ele>
        <time>2023-06-14T08:26:12.195Z</time>
      </trkpt>
      <trkpt lat="46.72571" lon="0.03535">
        <ele>126.69</ele>
        <time>2023-06-14T08:26:59.424Z</time>
      </trkpt>
      <trkpt lat="46.72569" lon="0.0354">
        <ele>126.49</ele>
        <time>2023-06-14T08:27:46.654Z</time>
      </trkpt>
      <trkpt lat="46.72565" lon="0.0355">
        <ele>126.02</ele>
        <time>2023-06-14T08:28:33.885Z</time>
      </trkpt>
      <trkpt lat="46.72548" lon="0.0359">
        <ele>126.16</ele>
        <time>2023-06-14T08:29:21.121Z</time>
      </trkpt>
      <trkpt lat="46.72545" lon="0.03603">
        <ele>126.2</ele>
        <time>2023-06-14T08:30:08.358Z</time>
      </trkpt>
      <trkpt lat="46.72527" lon="0.03567">
        <ele>126.33</ele>
        <time>2023-06-14T08:30:55.600Z</time>
      </trkpt>
      <trkpt lat="46.72507" lon="0.03504">
        <ele>126.54</ele>
        <time>2023-06-14T08:31:42.850Z</time>
      </trkpt>
      <trkpt lat="46.72471" lon="0.03357">
        <ele>127.01</ele>
        <time>2023-06-14T08:32:30.117Z</time>
      </trkpt>
      <trkpt lat="46.72424" lon="0.03197">
        <ele>127.53</ele>
        <time>2023-06-14T08:33:17.403Z</time>
      </trkpt>
      <trkpt lat="46.7241" lon="0.03167">
        <ele>127.64</ele>
        <time>2023-06-14T08:34:04.693Z</time>
      </trkpt>
      <trkpt lat="46.72375" lon="0.03035">
        <ele>128.06</ele>
        <time>2023-06-14T08:34:51.999Z</time>
      </trkpt>
      <trkpt lat="46.72344" lon="0.0293">
        <ele>128.4</ele>
        <time>2023-06-14T08:35:39.317Z</time>
      </trkpt>
      <trkpt lat="46.72327" lon="0.0288">
        <ele>128.57</ele>
        <time>2023-06-14T08:36:26.642Z</time>
      </trkpt>
      <trkpt lat="46.72311" lon="0.0282">
        <ele>128.76</ele>
        <time>2023-06-14T08:37:13.974Z</time>
      </trkpt>
      <trkpt lat="46.7231" lon="0.02816">
        <ele>128.78</ele>
        <time>2023-06-14T08:38:01.306Z</time>
      </trkpt>
      <trkpt lat="46.72305" lon="0.02791">
        <ele>129.54</ele>
        <time>2023-06-14T08:38:48.641Z</time>
      </trkpt>
      <trkpt lat="46.723" lon="0.02766">
        <ele>130.34</ele>
        <time>2023-06-14T08:39:35.979Z</time>
      </trkpt>
      <trkpt lat="46.72298" lon="0.0276">
        <ele>130.52</ele>
        <time>2023-06-14T08:40:23.318Z</time>
      </trkpt>
      <trkpt lat="46.72298" lon="0.02758">
        <ele>130.57</ele>
        <time>2023-06-14T08:41:10.657Z</time>
      </trkpt>
      <trkpt lat="46.72295" lon="0.02735">
        <ele>131.11</ele>
        <time>2023-06-14T08:41:57.998Z</time>
      </trkpt>
      <trkpt lat="46.72293" lon="0.02718">
        <ele>131.53</ele>
        <time>2023-06-14T08:42:45.341Z</time>
      </trkpt>
      <trkpt lat="46.72293" lon="0.02715">
        <ele>131.6</ele>
        <time>2023-06-14T08:43:32.685Z</time>
      </trkpt>
      <trkpt lat="46.72292" lon="0.02709">
        <ele>131.72</ele>
        <time>2023-06-14T08:44:20.029Z</time>
      </trkpt>
      <trkpt lat="46.72291" lon="0.02702">
        <ele>131.8</ele>
        <time>2023-06-14T08:45:07.374Z</time>
      </trkpt>
      <trkpt lat="46.7229" lon="0.0269">
        <ele>131.89</ele>
        <time>2023-06-14T08:45:54.720Z</time>
      </trkpt>
      <trkpt lat="46.72289" lon="0.02683">
        <ele>131.96</ele>
        <time>2023-06-14T08:46:42.067Z</time>
      </trkpt>
      <trkpt lat="46.72289" lon="0.02677">
        <ele>132.06</ele>
        <time>2023-06-14T08:47:29.415Z</time>
      </trkpt>
      <trkpt lat="46.72288" lon="0.0267">
        <ele>132.19</ele>
        <time>2023-06-14T08:48:16.764Z</time>
      </trkpt>
      <trkpt lat="46.72286" lon="0.02657">
        <ele>132.53</ele>
        <time>2023-06-14T08:49:04.114Z</time>
      </trkpt>
      <trkpt lat="46.72285" lon="0.02645">
        <ele>132.95</ele>
        <time>2023-06-14T08:49:51.465Z</time>
      </trkpt>
      <trkpt lat="46.72282" lon="0.02612">
        <ele>134.06</ele>
        <time>2023-06-14T08:50:38.820Z</time>
      </trkpt>
      <trkpt lat="46.7228" lon="0.02593">
        <ele>134.8</ele>
        <time>2023-06-14T08:51:26.177Z</time>
      </trkpt>
      <trkpt lat="46.72277" lon="0.02569">
        <ele>135.8</ele>
        <time>2023-06-14T08:52:13.537Z</time>
      </trkpt>
      <trkpt lat="46.72274" lon="0.02555">
        <ele>136.4</ele>
        <time>2023-06-14T08:53:00.899Z</time>
      </trkpt>
      <trkpt lat="46.72272" lon="0.02542">
        <ele>136.86</ele>
        <time>2023-06-14T08:53:48.262Z</time>
      </trkpt>
      <trkpt lat="46.72272" lon="0.02542">
        <ele>136.86</ele>
        <time>2023-06-14T08:54:35.625Z</time>
      </trkpt>
      <trkpt lat="46.72269" lon="0.0253">
        <ele>137.25</ele>
        <time>2023-06-14T08:55:22.989Z</time>
      </trkpt>
      <trkpt lat="46.72265" lon="0.02518">
        <ele>137.55</ele>
        <time>2023-06-14T08:56:10.355Z</time>
      </trkpt>
      <trkpt lat="46.72259" lon="0.02495">
        <ele>137.97</ele>
        <time>2023-06-14T08:56:57.724Z</time>
      </trkpt>
      <trkpt lat="46.72257" lon="0.02488">
        <ele>138.1</ele>
        <time>2023-06-14T08:57:45.093Z</time>
      </trkpt>
      <trkpt lat="46.72251" lon="0.02471">
        <ele>138.54</ele>
        <time>2023-06-14T08:58:32.465Z</time>
      </trkpt>
      <trkpt lat="46.72249" lon="0.02465">
        <ele>138.66</ele>
        <time>2023-06-14T08:59:19.837Z</time>
      </trkpt>
      <trkpt lat="46.72245" lon="0.02453">
        <ele>138.86</ele>
        <time>2023-06-14T09:00:07.211Z</time>
      </trkpt>
      <trkpt lat="46.72241" lon="0.02442">
        <ele>139.16</ele>
        <time>2023-06-14T09:00:54.586Z</time>
      </trkpt>
      <trkpt lat="46.7224" lon="0.02436">
        <ele>139.34</ele>
        <time>2023-06-14T09:01:41.962Z</time>
      </trkpt>
      <trkpt lat="46.72238" lon="0.0243">
        <ele>139.56</ele>
        <time>2023-06-14T09:02:29.338Z</time>
      </trkpt>
      <trkpt lat="46.72232" lon="0.02413">
        <ele>140.29</ele>
        <time>2023-06-14T09:03:16.717Z</time>
      </trkpt>
      <trkpt lat="46.72226" lon="0.02396">
        <ele>140.98</ele>
        <time>2023-06-14T09:04:04.098Z</time>
      </trkpt>
      <trkpt lat="46.72224" lon="0.0239">
        <ele>141.19</ele>
        <time>2023-06-14T09:04:51.479Z</time>
      </trkpt>
      <trkpt lat="46.72223" lon="0.02385">
        <ele>141.36</ele>
        <time>2023-06-14T09:05:38.861Z</time>
      </trkpt>
      <trkpt lat="46.72221" lon="0.0238">
        <ele>141.5</ele>
        <time>2023-06-14T09:06:26.244Z</time>
      </trkpt>
      <trkpt lat="46.72221" lon="0.02379">
        <ele>141.5</ele>
        <time>2023-06-14T09:07:13.627Z</time>
      </trkpt>
      <trkpt lat="46.72218" lon="0.02374">
        <ele>141.6</ele>
        <time>2023-06-14T09:08:01.010Z</time>
      </trkpt>
      <trkpt lat="46.72206" lon="0.02348">
        <ele>141.99</ele>
        <time>2023-06-14T09:08:48.397Z</time>
      </trkpt>
      <trkpt lat="46.72201" lon="0.02337">
        <ele>142.13</ele>
        <time>2023-06-14T09:09:35.785Z</time>
      </trkpt>
      <trkpt lat="46.72196" lon="0.02328">
        <ele>142.31</ele>
        <time>2023-06-14T09:10:23.175Z</time>
      </trkpt>
      <trkpt lat="46.72191" lon="0.02317">
        <ele>142.44</ele>
        <time>2023-06-14T09:11:10.566Z</time>
      </trkpt>
      <trkpt lat="46.72182" lon="0.02297">
        <ele>142.84</ele>
        <time>2023-06-14T09:11:57.960Z</time>
      </trkpt>
      <trkpt lat="46.72177" lon="0.02286">
        <ele>142.99</ele>
        <time>2023-06-14T09:12:45.355Z</time>
      </trkpt>
      <trkpt lat="46.72172" lon="0.02276">
        <ele>143.07</ele>
        <time>2023-06-14T09:13:32.752Z</time>
      </trkpt>
      <trkpt lat="46.72162" lon="0.02255">
        <ele>143.19</ele>
        <time>2023-06-14T09:14:20.151Z</time>
      </trkpt>
      <trkpt lat="46.72152" lon="0.02234">
        <ele>143.36</ele>
        <time>2023-06-14T09:15:07.553Z</time>
      </trkpt>
      <trkpt lat="46.72149" lon="0.02229">
        <ele>143.41</ele>
        <time>2023-06-14T09:15:54.956Z</time>
      </trkpt>
      <trkpt lat="46.72144" lon="0.02219">
        <ele>143.45</ele>
        <time>2023-06-14T09:16:42.360Z</time>
      </trkpt>
      <trkpt lat="46.72136" lon="0.02204">
        <ele>143.47</ele>
        <time>2023-06-14T09:17:29.766Z</time>
      </trkpt>
      <trkpt lat="46.7213" lon="0.02194">
        <ele>143.56</ele>
        <time>2023-06-14T09:18:17.174Z</time>
      </trkpt>
      <trkpt lat="46.72128" lon="0.02189">
        <ele>143.57</ele>
        <time>2023-06-14T09:19:04.582Z</time>
      </trkpt>
      <trkpt lat="46.72125" lon="0.02184">
        <ele>143.54</ele>
        <time>2023-06-14T09:19:51.991Z</time>
      </trkpt>
      <trkpt lat="46.72121" lon="0.02179">
        <ele>143.51</ele>
        <time>2023-06-14T09:20:39.401Z</time>
      </trkpt>
      <trkpt lat="46.72116" lon="0.02173">
        <ele>143.41</ele>
        <time>2023-06-14T09:21:26.812Z</time>
      </trkpt>
      <trkpt lat="46.7211" lon="0.02169">
        <ele>143.32</ele>
        <time>2023-06-14T09:22:14.224Z</time>
      </trkpt>
      <trkpt lat="46.72106" lon="0.02167">
        <ele>143.29</ele>
        <time>2023-06-14T09:23:01.637Z</time>
      </trkpt>
      <trkpt lat="46.72104" lon="0.02166">
        <ele>143.28</ele>
        <time>2023-06-14T09:23:49.050Z</time>
      </trkpt>
      <trkpt lat="46.72102" lon="0.02156">
        <ele>143.27</ele>
        <time>2023-06-14T09:24:36.464Z</time>
      </trkpt>
      <trkpt lat="46.72102" lon="0.02156">
        <ele>143.27</ele>
        <time>2023-06-14T09:25:23.878Z</time>
      </trkpt>
      <trkpt lat="46.72096" lon="0.02146">
        <ele>143.31</ele>
        <time>2023-06-14T09:26:11.294Z</time>
      </trkpt>
      <trkpt lat="46.72093" lon="0.02142">
        <ele>143.36</ele>
        <time>2023-06-14T09:26:58.710Z</time>
      </trkpt>
      <trkpt lat="46.72087" lon="0.02132">
        <ele>143.49</ele>
        <time>2023-06-14T09:27:46.128Z</time>
      </trkpt>
      <trkpt lat="46.72081" lon="0.02122">
        <ele>143.68</ele>
        <time>2023-06-14T09:28:33.547Z</time>
      </trkpt>
      <trkpt lat="46.72068" lon="0.02103">
        <ele>144.12</ele>
        <time>2023-06-14T09:29:20.969Z</time>
      </trkpt>
      <trkpt lat="46.72053" lon="0.02079">
        <ele>144.62</ele>
        <time>2023-06-14T09:30:08.395Z</time>
      </trkpt>
      <trkpt lat="46.72032" lon="0.02046">
        <ele>145.37</ele>
        <time>2023-06-14T09:30:55.826Z</time>
      </trkpt>
      <trkpt lat="46.72026" lon="0.02037">
        <ele>145.62</ele>
        <time>2023-06-14T09:31:43.258Z</time>
      </trkpt>
      <trkpt lat="46.7202" lon="0.02026">
        <ele>145.93</ele>
        <time>2023-06-14T09:32:30.692Z</time>
      </trkpt>
      <trkpt lat="46.72017" lon="0.02021">
        <ele>146.1</ele>
        <time>2023-06-14T09:33:18.126Z</time>
      </trkpt>
      <trkpt lat="46.72009" lon="0.02005">
        <ele>146.67</ele>
        <time>2023-06-14T09:34:05.563Z</time>
      </trkpt>
      <trkpt lat="46.72006" lon="0.02">
        <ele>146.8</ele>
        <time>2023-06-14T09:34:53.000Z</time>
      </trkpt>
      <trkpt lat="46.72003" lon="0.01995">
        <ele>146.83</ele>
        <time>2023-06-14T09:35:40.438Z</time>
      </trkpt>
      <trkpt lat="46.72003" lon="0.01995">
        <ele>146.83</ele>
        <time>2023-06-14T09:36:27.876Z</time>
      </trkpt>
      <trkpt lat="46.72001" lon="0.0199">
        <ele>146.76</ele>
        <time>2023-06-14T09:37:15.315Z</time>
      </trkpt>
      <trkpt lat="46.71999" lon="0.01984">
        <ele>146.65</ele>
        <time>2023-06-14T09:38:02.754Z</time>
      </trkpt>
      <trkpt lat="46.71997" lon="0.01978">
        <ele>146.6</ele>
        <time>2023-06-14T09:38:50.194Z</time>
      </trkpt>
      <trkpt lat="46.71994" lon="0.01972">
        <ele>146.71</ele>
        <time>2023-06-14T09:39:37.635Z</time>
      </trkpt>
      <trkpt lat="46.7199" lon="0.01961">
        <ele>147.23</ele>
        <time>2023-06-14T09:40:25.077Z</time>
      </trkpt>
      <trkpt lat="46.71988" lon="0.01955">
        <ele>147.47</ele>
        <time>2023-06-14T09:41:12.520Z</time>
      </trkpt>
      <trkpt lat="46.71986" lon="0.0195">
        <ele>147.64</ele>
        <time>2023-06-14T09:41:59.964Z</time>
      </trkpt>
      <trkpt lat="46.71983" lon="0.01944">
        <ele>147.77</ele>
        <time>2023-06-14T09:42:47.408Z</time>
      </trkpt>
      <trkpt lat="46.71982" lon="0.0194">
        <ele>147.83</ele>
        <time>2023-06-14T09:43:34.853Z</time>
      </trkpt>
      <trkpt lat="46.71981" lon="0.01938">
        <ele>147.87</ele>
        <time>2023-06-14T09:44:22.298Z</time>
      </trkpt>
      <trkpt lat="46.71974" lon="0.01915">
        <ele>147.63</ele>
        <time>2023-06-14T09:45:09.746Z</time>
      </trkpt>
      <trkpt lat="46.71972" lon="0.01909">
        <ele>147.58</ele>
        <time>2023-06-14T09:45:57.195Z</time>
      </trkpt>
      <trkpt lat="46.71965" lon="0.01882">
        <ele>147.41</ele>
        <time>2023-06-14T09:46:44.647Z</time>
      </trkpt>
      <trkpt lat="46.71961" lon="0.01861">
        <ele>147.29</ele>
        <time>2023-06-14T09:47:32.101Z</time>
      </trkpt>
      <trkpt lat="46.71953" lon="0.01821">
        <ele>147.13</ele>
        <time>2023-06-14T09:48:19.560Z</time>
      </trkpt>
      <trkpt lat="46.71948" lon="0.01794">
        <ele>146.97</ele>
        <time>2023-06-14T09:49:07.022Z</time>
      </trkpt>
      <trkpt lat="46.71939" lon="0.01752">
        <ele>146.68</ele>
        <time>2023-06-14T09:49:54.489Z</time>
      </trkpt>
      <trkpt lat="46.71936" lon="0.01735">
        <ele>146.21</ele>
        <time>2023-06-14T09:50:41.958Z</time>
      </trkpt>
      <trkpt lat="46.71934" lon="0.01728">
        <ele>146.02</ele>
        <time>2023-06-14T09:51:29.428Z</time>
      </trkpt>
      <trkpt lat="46.71932" lon="0.01723">
        <ele>145.87</ele>
        <time>2023-06-14T09:52:16.898Z</time>
      </trkpt>
      <trkpt lat="46.71929" lon="0.01714">
        <ele>145.65</ele>
        <time>2023-06-14T09:53:04.369Z</time>
      </trkpt>
      <trkpt lat="46.71925" lon="0.01707">
        <ele>145.46</ele>
        <time>2023-06-14T09:53:51.841Z</time>
      </trkpt>
      <trkpt lat="46.7192" lon="0.01698">
        <ele>145.16</ele>
        <time>2023-06-14T09:54:39.315Z</time>
      </trkpt>
      <trkpt lat="46.7192" lon="0.01697">
        <ele>145.16</ele>
        <time>2023-06-14T09:55:26.789Z</time>
      </trkpt>
      <trkpt lat="46.71918" lon="0.01692">
        <ele>144.99</ele>
        <time>2023-06-14T09:56:14.263Z</time>
      </trkpt>
      <trkpt lat="46.71914" lon="0.01681">
        <ele>144.59</ele>
        <time>2023-06-14T09:57:01.739Z</time>
      </trkpt>
      <trkpt lat="46.71909" lon="0.0167">
        <ele>145.03</ele>
        <time>2023-06-14T09:57:49.216Z</time>
      </trkpt>
      <trkpt lat="46.71903" lon="0.01654">
        <ele>145.62</ele>
        <time>2023-06-14T09:58:36.695Z</time>
      </trkpt>
      <trkpt lat="46.71899" lon="0.01643">
        <ele>145.97</ele>
        <time>2023-06-14T09:59:24.175Z</time>
      </trkpt>
      <trkpt lat="46.71895" lon="0.01632">
        <ele>146.27</ele>
        <time>2023-06-14T10:00:11.657Z</time>
      </trkpt>
      <trkpt lat="46.71893" lon="0.01628">
        <ele>146.36</ele>
        <time>2023-06-14T10:00:59.139Z</time>
      </trkpt>
      <trkpt lat="46.71889" lon="0.01632">
        <ele>146.51</ele>
        <time>2023-06-14T10:01:46.622Z</time>
      </trkpt>
      <trkpt lat="46.71882" lon="0.01639">
        <ele>146.68</ele>
        <time>2023-06-14T10:02:34.107Z</time>
      </trkpt>
      <trkpt lat="46.71875" lon="0.01646">
        <ele>146.79</ele>
        <time>2023-06-14T10:03:21.593Z</time>
      </trkpt>
      <trkpt lat="46.71868" lon="0.01653">
        <ele>146.84</ele>
        <time>2023-06-14T10:04:09.080Z</time>
      </trkpt>
      <trkpt lat="46.71856" lon="0.01664">
        <ele>146.88</ele>
        <time>2023-06-14T10:04:56.569Z</time>
      </trkpt>
      <trkpt lat="46.71848" lon="0.01672">
        <ele>146.89</ele>
        <time>2023-06-14T10:05:44.060Z</time>
      </trkpt>
      <trkpt lat="46.71843" lon="0.01674">
        <ele>146.89</ele>
        <time>2023-06-14T10:06:31.552Z</time>
      </trkpt>
      <trkpt lat="46.7184" lon="0.01673">
        <ele>146.9</ele>
        <time>2023-06-14T10:07:19.044Z</time>
      </trkpt>
      <trkpt lat="46.7183" lon="0.01669">
        <ele>146.94</ele>
        <time>2023-06-14T10:08:06.538Z</time>
      </trkpt>
      <trkpt lat="46.71828" lon="0.01668">
        <ele>146.95</ele>
        <time>2023-06-14T10:08:54.032Z</time>
      </trkpt>
      <trkpt lat="46.71803" lon="0.01653">
        <ele>146.9</ele>
        <time>2023-06-14T10:09:41.531Z</time>
      </trkpt>
      <trkpt lat="46.71794" lon="0.01648">
        <ele>146.9</ele>
        <time>2023-06-14T10:10:29.031Z</time>
      </trkpt>
      <trkpt lat="46.7178" lon="0.0164">
        <ele>146.92</ele>
        <time>2023-06-14T10:11:16.534Z</time>
      </trkpt>
      <trkpt lat="46.71777" lon="0.01639">
        <ele>146.93</ele>
        <time>2023-06-14T10:12:04.037Z</time>
      </trkpt>
      <trkpt lat="46.71774" lon="0.01638">
        <ele>146.94</ele>
        <time>2023-06-14T10:12:51.541Z</time>
      </trkpt>
      <trkpt lat="46.7176" lon="0.01642">
        <ele>146.99</ele>
        <time>2023-06-14T10:13:39.047Z</time>
      </trkpt>
      <trkpt lat="46.71753" lon="0.01644">
        <ele>146.99</ele>
        <time>2023-06-14T10:14:26.554Z</time>
      </trkpt>
      <trkpt lat="46.71752" lon="0.01644">
        <ele>146.98</ele>
        <time>2023-06-14T10:15:14.061Z</time>
      </trkpt>
      <trkpt lat="46.71746" lon="0.01648">
        <ele>146.97</ele>
        <time>2023-06-14T10:16:01.569Z</time>
      </trkpt>
      <trkpt lat="46.71742" lon="0.0165">
        <ele>146.95</ele>
        <time>2023-06-14T10:16:49.078Z</time>
      </trkpt>
      <trkpt lat="46.71721" lon="0.01666">
        <ele>146.85</ele>
        <time>2023-06-14T10:17:36.591Z</time>
      </trkpt>
      <trkpt lat="46.71713" lon="0.01672">
        <ele>146.68</ele>
        <time>2023-06-14T10:18:24.105Z</time>
      </trkpt>
      <trkpt lat="46.71709" lon="0.01675">
        <ele>146.55</ele>
        <time>2023-06-14T10:19:11.620Z</time>
      </trkpt>
      <trkpt lat="46.71706" lon="0.01678">
        <ele>146.34</ele>
        <time>2023-06-14T10:19:59.136Z</time>
      </trkpt>
      <trkpt lat="46.71698" lon="0.01684">
        <ele>145.85</ele>
        <time>2023-06-14T10:20:46.653Z</time>
      </trkpt>
      <trkpt lat="46.7169" lon="0.01692">
        <ele>145.32</ele>
        <time>2023-06-14T10:21:34.171Z</time>
      </trkpt>
      <trkpt lat="46.71685" lon="0.01697">
        <ele>144.99</ele>
        <time>2023-06-14T10:22:21.690Z</time>
      </trkpt>
      <trkpt lat="46.71682" lon="0.01691">
        <ele>144.73</ele>
        <time>2023-06-14T10:23:09.210Z</time>
      </trkpt>
      <trkpt lat="46.71679" lon="0.01683">
        <ele>144.42</ele>
        <time>2023-06-14T10:23:56.731Z</time>
      </trkpt>
      <trkpt lat="46.71672" lon="0.01659">
        <ele>143.39</ele>
        <time>2023-06-14T10:24:44.255Z</time>
      </trkpt>
      <trkpt lat="46.71664" lon="0.01636">
        <ele>142.4</ele>
        <time>2023-06-14T10:25:31.782Z</time>
      </trkpt>
      <trkpt lat="46.71662" lon="0.0163">
        <ele>142.17</ele>
        <time>2023-06-14T10:26:19.310Z</time>
      </trkpt>
      <trkpt lat="46.71658" lon="0.01618">
        <ele>141.81</ele>
        <time>2023-06-14T10:27:06.839Z</time>
      </trkpt>
      <trkpt lat="46.71656" lon="0.01613">
        <ele>141.67</ele>
        <time>2023-06-14T10:27:54.369Z</time>
      </trkpt>
      <trkpt lat="46.71653" lon="0.01601">
        <ele>140.63</ele>
        <time>2023-06-14T10:28:41.900Z</time>
      </trkpt>
      <trkpt lat="46.71651" lon="0.01596">
        <ele>140.2</ele>
        <time>2023-06-14T10:29:29.432Z</time>
      </trkpt>
      <trkpt lat="46.71649" lon="0.01583">
        <ele>139.17</ele>
        <time>2023-06-14T10:30:16.965Z</time>
      </trkpt>
      <trkpt lat="46.71646" lon="0.01564">
        <ele>137.66</ele>
        <time>2023-06-14T10:31:04.501Z</time>
      </trkpt>
      <trkpt lat="46.71645" lon="0.01557">
        <ele>137.2</ele>
        <time>2023-06-14T10:31:52.037Z</time>
      </trkpt>
      <trkpt lat="46.71642" lon="0.01538">
        <ele>135.91</ele>
        <time>2023-06-14T10:32:39.575Z</time>
      </trkpt>
      <trkpt lat="46.71639" lon="0.01519">
        <ele>134.58</ele>
        <time>2023-06-14T10:33:27.116Z</time>
      </trkpt>
      <trkpt lat="46.71638" lon="0.01513">
        <ele>134.17</ele>
        <time>2023-06-14T10:34:14.657Z</time>
      </trkpt>
      <trkpt lat="46.71637" lon="0.01507">
        <ele>133.79</ele>
        <time>2023-06-14T10:35:02.199Z</time>
      </trkpt>
      <trkpt lat="46.71636" lon="0.01501">
        <ele>133.46</ele>
        <time>2023-06-14T10:35:49.742Z</time>
      </trkpt>
      <trkpt lat="46.71635" lon="0.01494">
        <ele>133.16</ele>
        <time>2023-06-14T10:36:37.285Z</time>
      </trkpt>
      <trkpt lat="46.71634" lon="0.0149">
        <ele>132.98</ele>
        <time>2023-06-14T10:37:24.829Z</time>
      </trkpt>
      <trkpt lat="46.71632" lon="0.01482">
        <ele>132.64</ele>
        <time>2023-06-14T10:38:12.374Z</time>
      </trkpt>
      <trkpt lat="46.7163" lon="0.01469">
        <ele>132.17</ele>
        <time>2023-06-14T10:38:59.920Z</time>
      </trkpt>
      <trkpt lat="46.71624" lon="0.01445">
        <ele>131.28</ele>
        <time>2023-06-14T10:39:47.469Z</time>
      </trkpt>
      <trkpt lat="46.71623" lon="0.01438">
        <ele>131.06</ele>
        <time>2023-06-14T10:40:35.019Z</time>
      </trkpt>
      <trkpt lat="46.71618" lon="0.0142">
        <ele>130.5</ele>
        <time>2023-06-14T10:41:22.571Z</time>
      </trkpt>
      <trkpt lat="46.71615" lon="0.01409">
        <ele>130.16</ele>
        <time>2023-06-14T10:42:10.124Z</time>
      </trkpt>
      <trkpt lat="46.71613" lon="0.01402">
        <ele>130.02</ele>
        <time>2023-06-14T10:42:57.678Z</time>
      </trkpt>
      <trkpt lat="46.71611" lon="0.01396">
        <ele>129.91</ele>
        <time>2023-06-14T10:43:45.233Z</time>
      </trkpt>
      <trkpt lat="46.71608" lon="0.01384">
        <ele>129.77</ele>
        <time>2023-06-14T10:44:32.789Z</time>
      </trkpt>
      <trkpt lat="46.71605" lon="0.01373">
        <ele>129.67</ele>
        <time>2023-06-14T10:45:20.347Z</time>
      </trkpt>
      <trkpt lat="46.71598" lon="0.01349">
        <ele>129.95</ele>
        <time>2023-06-14T10:46:07.907Z</time>
      </trkpt>
      <trkpt lat="46.71596" lon="0.01341">
        <ele>130.05</ele>
        <time>2023-06-14T10:46:55.468Z</time>
      </trkpt>
      <trkpt lat="46.7159" lon="0.01327">
        <ele>130.28</ele>
        <time>2023-06-14T10:47:43.031Z</time>
      </trkpt>
      <trkpt lat="46.7159" lon="0.01327">
        <ele>130.28</ele>
        <time>2023-06-14T10:48:30.594Z</time>
      </trkpt>
      <trkpt lat="46.71584" lon="0.01321">
        <ele>130.39</ele>
        <time>2023-06-14T10:49:18.158Z</time>
      </trkpt>
      <trkpt lat="46.71577" lon="0.01321">
        <ele>130.5</ele>
        <time>2023-06-14T10:50:05.723Z</time>
      </trkpt>
      <trkpt lat="46.71571" lon="0.01325">
        <ele>130.6</ele>
        <time>2023-06-14T10:50:53.290Z</time>
      </trkpt>
      <trkpt lat="46.71563" lon="0.01334">
        <ele>130.77</ele>
        <time>2023-06-14T10:51:40.858Z</time>
      </trkpt>
      <trkpt lat="46.71542" lon="0.01356">
        <ele>131.31</ele>
        <time>2023-06-14T10:52:28.430Z</time>
      </trkpt>
      <trkpt lat="46.71531" lon="0.01368">
        <ele>131.54</ele>
        <time>2023-06-14T10:53:16.004Z</time>
      </trkpt>
      <trkpt lat="46.71524" lon="0.01375">
        <ele>131.35</ele>
        <time>2023-06-14T10:54:03.580Z</time>
      </trkpt>
      <trkpt lat="46.7152" lon="0.01379">
        <ele>131.24</ele>
        <time>2023-06-14T10:54:51.157Z</time>
      </trkpt>
      <trkpt lat="46.71513" lon="0.01387">
        <ele>130.97</ele>
        <time>2023-06-14T10:55:38.735Z</time>
      </trkpt>
      <trkpt lat="46.71497" lon="0.01399">
        <ele>130.47</ele>
        <time>2023-06-14T10:56:26.316Z</time>
      </trkpt>
      <trkpt lat="46.71495" lon="0.014">
        <ele>130.41</ele>
        <time>2023-06-14T10:57:13.897Z</time>
      </trkpt>
      <trkpt lat="46.71488" lon="0.01388">
        <ele>130.15</ele>
        <time>2023-06-14T10:58:01.480Z</time>
      </trkpt>
      <trkpt lat="46.71485" lon="0.01383">
        <ele>130.07</ele>
        <time>2023-06-14T10:58:49.064Z</time>
      </trkpt>
      <trkpt lat="46.71479" lon="0.01373">
        <ele>129.95</ele>
        <time>2023-06-14T10:59:36.649Z</time>
      </trkpt>
      <trkpt lat="46.71475" lon="0.01366">
        <ele>129.9</ele>
        <time>2023-06-14T11:00:24.235Z</time>
      </trkpt>
      <trkpt lat="46.71469" lon="0.01351">
        <ele>129.82</ele>
        <time>2023-06-14T11:01:11.823Z</time>
      </trkpt>
      <trkpt lat="46.71464" lon="0.0134">
        <ele>129.86</ele>
        <time>2023-06-14T11:01:59.412Z</time>
      </trkpt>
      <trkpt lat="46.7146" lon="0.01329">
        <ele>129.96</ele>
        <time>2023-06-14T11:02:47.003Z</time>
      </trkpt>
      <trkpt lat="46.71455" lon="0.01318">
        <ele>130.12</ele>
        <time>2023-06-14T11:03:34.595Z</time>
      </trkpt>
      <trkpt lat="46.71452" lon="0.01311">
        <ele>130.26</ele>
        <time>2023-06-14T11:04:22.188Z</time>
      </trkpt>
      <trkpt lat="46.71447" lon="0.01303">
        <ele>130.46</ele>
        <time>2023-06-14T11:05:09.782Z</time>
      </trkpt>
      <trkpt lat="46.71447" lon="0.01303">
        <ele>130.46</ele>
        <time>2023-06-14T11:05:57.376Z</time>
      </trkpt>
      <trkpt lat="46.71443" lon="0.01299">
        <ele>130.53</ele>
        <time>2023-06-14T11:06:44.971Z</time>
      </trkpt>
      <trkpt lat="46.71439" lon="0.01296">
        <ele>130.57</ele>
        <time>2023-06-14T11:07:32.567Z</time>
      </trkpt>
      <trkpt lat="46.71435" lon="0.01293">
        <ele>130.59</ele>
        <time>2023-06-14T11:08:20.164Z</time>
      </trkpt>
      <trkpt lat="46.71434" lon="0.01292">
        <ele>130.58</ele>
        <time>2023-06-14T11:09:07.761Z</time>
      </trkpt>
      <trkpt lat="46.71427" lon="0.01288">
        <ele>130.56</ele>
        <time>2023-06-14T11:09:55.359Z</time>
      </trkpt>
      <trkpt lat="46.71423" lon="0.01286">
        <ele>130.51</ele>
        <time>2023-06-14T11:10:42.958Z</time>
      </trkpt>
      <trkpt lat="46.71418" lon="0.01284">
        <ele>130.45</ele>
        <time>2023-06-14T11:11:30.558Z</time>
      </trkpt>
      <trkpt lat="46.71418" lon="0.01284">
        <ele>130.45</ele>
        <time>2023-06-14T11:12:18.158Z</time>
      </trkpt>
      <trkpt lat="46.71401" lon="0.01278">
        <ele>130.06</ele>
        <time>2023-06-14T11:13:05.760Z</time>
      </trkpt>
      <trkpt lat="46.71397" lon="0.01276">
        <ele>129.98</ele>
        <time>2023-06-14T11:13:53.363Z</time>
      </trkpt>
      <trkpt lat="46.71388" lon="0.01273">
        <ele>129.87</ele>
        <time>2023-06-14T11:14:40.968Z</time>
      </trkpt>
      <trkpt lat="46.71379" lon="0.0127">
        <ele>129.82</ele>
        <time>2023-06-14T11:15:28.574Z</time>
      </trkpt>
      <trkpt lat="46.71358" lon="0.01262">
        <ele>129.9</ele>
        <time>2023-06-14T11:16:16.184Z</time>
      </trkpt>
      <trkpt lat="46.7134" lon="0.01255">
        <ele>130.04</ele>
        <time>2023-06-14T11:17:03.796Z</time>
      </trkpt>
      <trkpt lat="46.71326" lon="0.0125">
        <ele>130.08</ele>
        <time>2023-06-14T11:17:51.411Z</time>
      </trkpt>
      <trkpt lat="46.71318" lon="0.01249">
        <ele>130.11</ele>
        <time>2023-06-14T11:18:39.027Z</time>
      </trkpt>
      <trkpt lat="46.7131" lon="0.01249">
        <ele>130.12</ele>
        <time>2023-06-14T11:19:26.644Z</time>
      </trkpt>
      <trkpt lat="46.71287" lon="0.01247">
        <ele>130.07</ele>
        <time>2023-06-14T11:20:14.265Z</time>
      </trkpt>
      <trkpt lat="46.71278" lon="0.01246">
        <ele>130.09</ele>
        <time>2023-06-14T11:21:01.887Z</time>
      </trkpt>
      <trkpt lat="46.71266" lon="0.01245">
        <ele>130.15</ele>
        <time>2023-06-14T11:21:49.511Z</time>
      </trkpt>
      <trkpt lat="46.71265" lon="0.01245">
        <ele>130.16</ele>
        <time>2023-06-14T11:22:37.136Z</time>
      </trkpt>
      <trkpt lat="46.71256" lon="0.01246">
        <ele>130.24</ele>
        <time>2023-06-14T11:23:24.762Z</time>
      </trkpt>
      <trkpt lat="46.71252" lon="0.01247">
        <ele>130.3</ele>
        <time>2023-06-14T11:24:12.389Z</time>
      </trkpt>
      <trkpt lat="46.71229" lon="0.01249">
        <ele>130.67</ele>
        <time>2023-06-14T11:25:00.019Z</time>
      </trkpt>
      <trkpt lat="46.71216" lon="0.01251">
        <ele>130.86</ele>
        <time>2023-06-14T11:25:47.651Z</time>
      </trkpt>
      <trkpt lat="46.71198" lon="0.01253">
        <ele>131.03</ele>
        <time>2023-06-14T11:26:35.286Z</time>
      </trkpt>
      <trkpt lat="46.71189" lon="0.01254">
        <ele>131.08</ele>
        <time>2023-06-14T11:27:22.923Z</time>
      </trkpt>
      <trkpt lat="46.71185" lon="0.01254">
        <ele>131.08</ele>
        <time>2023-06-14T11:28:10.560Z</time>
      </trkpt>
      <trkpt lat="46.71177" lon="0.01248">
        <ele>131.08</ele>
        <time>2023-06-14T11:28:58.199Z</time>
      </trkpt>
      <trkpt lat="46.71171" lon="0.01243">
        <ele>131.05</ele>
        <time>2023-06-14T11:29:45.839Z</time>
      </trkpt>
      <trkpt lat="46.71134" lon="0.01181">
        <ele>130.89</ele>
        <time>2023-06-14T11:30:33.488Z</time>
      </trkpt>
      <trkpt lat="46.7112" lon="0.01157">
        <ele>130.88</ele>
        <time>2023-06-14T11:31:21.140Z</time>
      </trkpt>
      <trkpt lat="46.71106" lon="0.01134">
        <ele>130.94</ele>
        <time>2023-06-14T11:32:08.796Z</time>
      </trkpt>
      <trkpt lat="46.71105" lon="0.01132">
        <ele>130.95</ele>
        <time>2023-06-14T11:32:56.452Z</time>
      </trkpt>
      <trkpt lat="46.71088" lon="0.01111">
        <ele>130.93</ele>
        <time>2023-06-14T11:33:44.112Z</time>
      </trkpt>
      <trkpt lat="46.71072" lon="0.01089">
        <ele>130.68</ele>
        <time>2023-06-14T11:34:31.775Z</time>
      </trkpt>
      <trkpt lat="46.71068" lon="0.01084">
        <ele>130.59</ele>
        <time>2023-06-14T11:35:19.439Z</time>
      </trkpt>
      <trkpt lat="46.71055" lon="0.01072">
        <ele>130.33</ele>
        <time>2023-06-14T11:36:07.105Z</time>
      </trkpt>
      <trkpt lat="46.71049" lon="0.0107">
        <ele>130.22</ele>
        <time>2023-06-14T11:36:54.773Z</time>
      </trkpt>
      <trkpt lat="46.71046" lon="0.01069">
        <ele>130.18</ele>
        <time>2023-06-14T11:37:42.441Z</time>
      </trkpt>
      <trkpt lat="46.71036" lon="0.01068">
        <ele>130.04</ele>
        <time>2023-06-14T11:38:30.111Z</time>
      </trkpt>
      <trkpt lat="46.71026" lon="0.01069">
        <ele>129.92</ele>
        <time>2023-06-14T11:39:17.782Z</time>
      </trkpt>
      <trkpt lat="46.71017" lon="0.0107">
        <ele>129.82</ele>
        <time>2023-06-14T11:40:05.455Z</time>
      </trkpt>
      <trkpt lat="46.70999" lon="0.01073">
        <ele>129.69</ele>
        <time>2023-06-14T11:40:53.131Z</time>
      </trkpt>
      <trkpt lat="46.70995" lon="0.01074">
        <ele>129.67</ele>
        <time>2023-06-14T11:41:40.807Z</time>
      </trkpt>
      <trkpt lat="46.70938" lon="0.01086">
        <ele>128.97</ele>
        <time>2023-06-14T11:42:28.492Z</time>
      </trkpt>
      <trkpt lat="46.70929" lon="0.01088">
        <ele>128.87</ele>
        <time>2023-06-14T11:43:16.179Z</time>
      </trkpt>
      <trkpt lat="46.7092" lon="0.0109">
        <ele>128.81</ele>
        <time>2023-06-14T11:44:03.867Z</time>
      </trkpt>
      <trkpt lat="46.70884" lon="0.01098">
        <ele>128.63</ele>
        <time>2023-06-14T11:44:51.561Z</time>
      </trkpt>
      <trkpt lat="46.70876" lon="0.011">
        <ele>128.6</ele>
        <time>2023-06-14T11:45:39.256Z</time>
      </trkpt>
      <trkpt lat="46.70862" lon="0.01103">
        <ele>128.66</ele>
        <time>2023-06-14T11:46:26.954Z</time>
      </trkpt>
      <trkpt lat="46.70813" lon="0.01113">
        <ele>128.95</ele>
        <time>2023-06-14T11:47:14.660Z</time>
      </trkpt>
      <trkpt lat="46.708" lon="0.01116">
        <ele>128.98</ele>
        <time>2023-06-14T11:48:02.368Z</time>
      </trkpt>
      <trkpt lat="46.70796" lon="0.01118">
        <ele>129</ele>
        <time>2023-06-14T11:48:50.076Z</time>
      </trkpt>
      <trkpt lat="46.70783" lon="0.01123">
        <ele>129.01</ele>
        <time>2023-06-14T11:49:37.787Z</time>
      </trkpt>
      <trkpt lat="46.70769" lon="0.01128">
        <ele>128.92</ele>
        <time>2023-06-14T11:50:25.500Z</time>
      </trkpt>
      <trkpt lat="46.70762" lon="0.01134">
        <ele>128.87</ele>
        <time>2023-06-14T11:51:13.214Z</time>
      </trkpt>
      <trkpt lat="46.70754" lon="0.0114">
        <ele>128.71</ele>
        <time>2023-06-14T11:52:00.930Z</time>
      </trkpt>
      <trkpt lat="46.7075" lon="0.01143">
        <ele>128.6</ele>
        <time>2023-06-14T11:52:48.646Z</time>
      </trkpt>
      <trkpt lat="46.70742" lon="0.01149">
        <ele>128.33</ele>
        <time>2023-06-14T11:53:36.364Z</time>
      </trkpt>
      <trkpt lat="46.70735" lon="0.01155">
        <ele>128.01</ele>
        <time>2023-06-14T11:54:24.083Z</time>
      </trkpt>
      <trkpt lat="46.70732" lon="0.01157">
        <ele>127.88</ele>
        <time>2023-06-14T11:55:11.803Z</time>
      </trkpt>
      <trkpt lat="46.70724" lon="0.01159">
        <ele>127.52</ele>
        <time>2023-06-14T11:55:59.524Z</time>
      </trkpt>
      <trkpt lat="46.70718" lon="0.0116">
        <ele>127.22</ele>
        <time>2023-06-14T11:56:47.246Z</time>
      </trkpt>
      <trkpt lat="46.70717" lon="0.0116">
        <ele>127.22</ele>
        <time>2023-06-14T11:57:34.968Z</time>
      </trkpt>
      <trkpt lat="46.70713" lon="0.01158">
        <ele>127.05</ele>
        <time>2023-06-14T11:58:22.691Z</time>
      </trkpt>
      <trkpt lat="46.70709" lon="0.01156">
        <ele>126.9</ele>
        <time>2023-06-14T11:59:10.414Z</time>
      </trkpt>
      <trkpt lat="46.70709" lon="0.01156">
        <ele>126.9</ele>
        <time>2023-06-14T11:59:58.137Z</time>
      </trkpt>
      <trkpt lat="46.70705" lon="0.01153">
        <ele>126.78</ele>
        <time>2023-06-14T12:00:45.861Z</time>
      </trkpt>
      <trkpt lat="46.70698" lon="0.01148">
        <ele>126.61</ele>
        <time>2023-06-14T12:01:33.586Z</time>
      </trkpt>
      <trkpt lat="46.70697" lon="0.01147">
        <ele>126.59</ele>
        <time>2023-06-14T12:02:21.312Z</time>
      </trkpt>
      <trkpt lat="46.70694" lon="0.01143">
        <ele>126.53</ele>
        <time>2023-06-14T12:03:09.038Z</time>
      </trkpt>
      <trkpt lat="46.7069" lon="0.01139">
        <ele>126.49</ele>
        <time>2023-06-14T12:03:56.765Z</time>
      </trkpt>
      <trkpt lat="46.70683" lon="0.01131">
        <ele>126.46</ele>
        <time>2023-06-14T12:04:44.493Z</time>
      </trkpt>
      <trkpt lat="46.7068" lon="0.01127">
        <ele>126.47</ele>
        <time>2023-06-14T12:05:32.222Z</time>
      </trkpt>
      <trkpt lat="46.70676" lon="0.01122">
        <ele>126.51</ele>
        <time>2023-06-14T12:06:19.952Z</time>
      </trkpt>
      <trkpt lat="46.70675" lon="0.01121">
        <ele>126.53</ele>
        <time>2023-06-14T12:07:07.682Z</time>
      </trkpt>
      <trkpt lat="46.70673" lon="0.01118">
        <ele>126.58</ele>
        <time>2023-06-14T12:07:55.413Z</time>
      </trkpt>
      <trkpt lat="46.70668" lon="0.01107">
        <ele>126.8</ele>
        <time>2023-06-14T12:08:43.145Z</time>
      </trkpt>
      <trkpt lat="46.70665" lon="0.01101">
        <ele>126.95</ele>
        <time>2023-06-14T12:09:30.878Z</time>
      </trkpt>
      <trkpt lat="46.70665" lon="0.01101">
        <ele>126.95</ele>
        <time>2023-06-14T12:10:18.611Z</time>
      </trkpt>
      <trkpt lat="46.70661" lon="0.01091">
        <ele>127.33</ele>
        <time>2023-06-14T12:11:06.345Z</time>
      </trkpt>
      <trkpt lat="46.70656" lon="0.0108">
        <ele>127.79</ele>
        <time>2023-06-14T12:11:54.081Z</time>
      </trkpt>
      <trkpt lat="46.7065" lon="0.01063">
        <ele>128.07</ele>
        <time>2023-06-14T12:12:41.819Z</time>
      </trkpt>
      <trkpt lat="46.70645" lon="0.01052">
        <ele>128.32</ele>
        <time>2023-06-14T12:13:29.558Z</time>
      </trkpt>
      <trkpt lat="46.70644" lon="0.01049">
        <ele>128.4</ele>
        <time>2023-06-14T12:14:17.297Z</time>
      </trkpt>
      <trkpt lat="46.70642" lon="0.01047">
        <ele>128.47</ele>
        <time>2023-06-14T12:15:05.037Z</time>
      </trkpt>
      <trkpt lat="46.70632" lon="0.01036">
        <ele>129</ele>
        <time>2023-06-14T12:15:52.779Z</time>
      </trkpt>
      <trkpt lat="46.70629" lon="0.01033">
        <ele>129.11</ele>
        <time>2023-06-14T12:16:40.521Z</time>
      </trkpt>
      <trkpt lat="46.70624" lon="0.01032">
        <ele>129.3</ele>
        <time>2023-06-14T12:17:28.264Z</time>
      </trkpt>
      <trkpt lat="46.70619" lon="0.01031">
        <ele>129.41</ele>
        <time>2023-06-14T12:18:16.008Z</time>
      </trkpt>
      <trkpt lat="46.70617" lon="0.0103">
        <ele>129.45</ele>
        <time>2023-06-14T12:19:03.752Z</time>
      </trkpt>
      <trkpt lat="46.70615" lon="0.0103">
        <ele>129.49</ele>
        <time>2023-06-14T12:19:51.497Z</time>
      </trkpt>
      <trkpt lat="46.70606" lon="0.01031">
        <ele>129.6</ele>
        <time>2023-06-14T12:20:39.243Z</time>
      </trkpt>
      <trkpt lat="46.70602" lon="0.01031">
        <ele>129.61</ele>
        <time>2023-06-14T12:21:26.990Z</time>
      </trkpt>
      <trkpt lat="46.70592" lon="0.01034">
        <ele>129.65</ele>
        <time>2023-06-14T12:22:14.738Z</time>
      </trkpt>
      <trkpt lat="46.70565" lon="0.01043">
        <ele>130.38</ele>
        <time>2023-06-14T12:23:02.491Z</time>
      </trkpt>
      <trkpt lat="46.7055" lon="0.01041">
        <ele>130.78</ele>
        <time>2023-06-14T12:23:50.246Z</time>
      </trkpt>
      <trkpt lat="46.70544" lon="0.01037">
        <ele>130.96</ele>
        <time>2023-06-14T12:24:38.002Z</time>
      </trkpt>
      <trkpt lat="46.70464" lon="0.00955">
        <ele>133.56</ele>
        <time>2023-06-14T12:25:25.774Z</time>
      </trkpt>
      <trkpt lat="46.70387" lon="0.00897">
        <ele>135.86</ele>
        <time>2023-06-14T12:26:13.560Z</time>
      </trkpt>
      <trkpt lat="46.70382" lon="0.00894">
        <ele>136.01</ele>
        <time>2023-06-14T12:27:01.347Z</time>
      </trkpt>
      <trkpt lat="46.70375" lon="0.0089">
        <ele>136.23</ele>
        <time>2023-06-14T12:27:49.135Z</time>
      </trkpt>
      <trkpt lat="46.70225" lon="0.00824">
        <ele>141.06</ele>
        <time>2023-06-14T12:28:36.948Z</time>
      </trkpt>
      <trkpt lat="46.70179" lon="0.00786">
        <ele>142.68</ele>
        <time>2023-06-14T12:29:24.769Z</time>
      </trkpt>
      <trkpt lat="46.70155" lon="0.00764">
        <ele>143.56</ele>
        <time>2023-06-14T12:30:12.595Z</time>
      </trkpt>
      <trkpt lat="46.70144" lon="0.00754">
        <ele>143.61</ele>
        <time>2023-06-14T12:31:00.423Z</time>
      </trkpt>
      <trkpt lat="46.70136" lon="0.00747">
        <ele>143.72</ele>
        <time>2023-06-14T12:31:48.253Z</time>
      </trkpt>
      <trkpt lat="46.70125" lon="0.00737">
        <ele>143.98</ele>
        <time>2023-06-14T12:32:36.085Z</time>
      </trkpt>
      <trkpt lat="46.70119" lon="0.00732">
        <ele>144.09</ele>
        <time>2023-06-14T12:33:23.918Z</time>
      </trkpt>
      <trkpt lat="46.70114" lon="0.00726">
        <ele>144.2</ele>
        <time>2023-06-14T12:34:11.752Z</time>
      </trkpt>
      <trkpt lat="46.70107" lon="0.00719">
        <ele>144.4</ele>
        <time>2023-06-14T12:34:59.587Z</time>
      </trkpt>
      <trkpt lat="46.701" lon="0.00711">
        <ele>144.12</ele>
        <time>2023-06-14T12:35:47.424Z</time>
      </trkpt>
      <trkpt lat="46.70093" lon="0.00704">
        <ele>143.91</ele>
        <time>2023-06-14T12:36:35.262Z</time>
      </trkpt>
      <trkpt lat="46.70089" lon="0.00701">
        <ele>143.85</ele>
        <time>2023-06-14T12:37:23.101Z</time>
      </trkpt>
      <trkpt lat="46.70086" lon="0.00697">
        <ele>143.83</ele>
        <time>2023-06-14T12:38:10.940Z</time>
      </trkpt>
      <trkpt lat="46.70083" lon="0.00693">
        <ele>143.84</ele>
        <time>2023-06-14T12:38:58.780Z</time>
      </trkpt>
      <trkpt lat="46.70072" lon="0.00682">
        <ele>143.96</ele>
        <time>2023-06-14T12:39:46.622Z</time>
      </trkpt>
      <trkpt lat="46.70072" lon="0.00682">
        <ele>143.96</ele>
        <time>2023-06-14T12:40:34.464Z</time>
      </trkpt>
      <trkpt lat="46.70067" lon="0.00674">
        <ele>143.93</ele>
        <time>2023-06-14T12:41:22.307Z</time>
      </trkpt>
      <trkpt lat="46.70063" lon="0.00669">
        <ele>143.91</ele>
        <time>2023-06-14T12:42:10.151Z</time>
      </trkpt>
      <trkpt lat="46.70059" lon="0.00666">
        <ele>143.92</ele>
        <time>2023-06-14T12:42:57.996Z</time>
      </trkpt>
      <trkpt lat="46.70048" lon="0.00655">
        <ele>144.02</ele>
        <time>2023-06-14T12:43:45.843Z</time>
      </trkpt>
      <trkpt lat="46.70044" lon="0.00651">
        <ele>144.04</ele>
        <time>2023-06-14T12:44:33.691Z</time>
      </trkpt>
      <trkpt lat="46.70019" lon="0.00625">
        <ele>144.06</ele>
        <time>2023-06-14T12:45:21.544Z</time>
      </trkpt>
      <trkpt lat="46.70015" lon="0.00621">
        <ele>144.09</ele>
        <time>2023-06-14T12:46:09.397Z</time>
      </trkpt>
      <trkpt lat="46.70011" lon="0.00617">
        <ele>144.17</ele>
        <time>2023-06-14T12:46:57.251Z</time>
      </trkpt>
      <trkpt lat="46.70011" lon="0.00617">
        <ele>144.17</ele>
        <time>2023-06-14T12:47:45.105Z</time>
      </trkpt>
      <trkpt lat="46.70002" lon="0.00603">
        <ele>144.55</ele>
        <time>2023-06-14T12:48:32.961Z</time>
      </trkpt>
      <trkpt lat="46.69999" lon="0.00598">
        <ele>144.63</ele>
        <time>2023-06-14T12:49:20.818Z</time>
      </trkpt>
      <trkpt lat="46.69996" lon="0.00593">
        <ele>144.67</ele>
        <time>2023-06-14T12:50:08.676Z</time>
      </trkpt>
      <trkpt lat="46.69982" lon="0.00572">
        <ele>144.7</ele>
        <time>2023-06-14T12:50:56.537Z</time>
      </trkpt>
      <trkpt lat="46.69975" lon="0.0056">
        <ele>144.72</ele>
        <time>2023-06-14T12:51:44.400Z</time>
      </trkpt>
      <trkpt lat="46.69969" lon="0.0055">
        <ele>144.79</ele>
        <time>2023-06-14T12:52:32.264Z</time>
      </trkpt>
      <trkpt lat="46.69961" lon="0.00535">
        <ele>144.99</ele>
        <time>2023-06-14T12:53:20.130Z</time>
      </trkpt>
      <trkpt lat="46.69958" lon="0.0053">
        <ele>145.02</ele>
        <time>2023-06-14T12:54:07.997Z</time>
      </trkpt>
      <trkpt lat="46.69939" lon="0.00497">
        <ele>145.05</ele>
        <time>2023-06-14T12:54:55.869Z</time>
      </trkpt>
      <trkpt lat="46.69937" lon="0.00496">
        <ele>145.06</ele>
        <time>2023-06-14T12:55:43.741Z</time>
      </trkpt>
      <trkpt lat="46.6993" lon="0.0049">
        <ele>145.08</ele>
        <time>2023-06-14T12:56:31.614Z</time>
      </trkpt>
      <trkpt lat="46.69929" lon="0.0049">
        <ele>145.09</ele>
        <time>2023-06-14T12:57:19.488Z</time>
      </trkpt>
      <trkpt lat="46.69921" lon="0.00486">
        <ele>145.19</ele>
        <time>2023-06-14T12:58:07.363Z</time>
      </trkpt>
      <trkpt lat="46.69904" lon="0.00478">
        <ele>145.5</ele>
        <time>2023-06-14T12:58:55.241Z</time>
      </trkpt>
      <trkpt lat="46.69895" lon="0.00474">
        <ele>145.6</ele>
        <time>2023-06-14T12:59:43.120Z</time>
      </trkpt>
      <trkpt lat="46.69891" lon="0.00472">
        <ele>145.62</ele>
        <time>2023-06-14T13:00:31.000Z</time>
      </trkpt>
      <trkpt lat="46.69886" lon="0.0047">
        <ele>145.62</ele>
        <time>2023-06-14T13:01:18.881Z</time>
      </trkpt>
      <trkpt lat="46.69874" lon="0.00461">
        <ele>145.62</ele>
        <time>2023-06-14T13:02:06.764Z</time>
      </trkpt>
      <trkpt lat="46.69863" lon="0.00453">
        <ele>145.64</ele>
        <time>2023-06-14T13:02:54.649Z</time>
      </trkpt>
      <trkpt lat="46.69855" lon="0.00445">
        <ele>145.66</ele>
        <time>2023-06-14T13:03:42.535Z</time>
      </trkpt>
      <trkpt lat="46.69848" lon="0.00437">
        <ele>145.73</ele>
        <time>2023-06-14T13:04:30.423Z</time>
      </trkpt>
      <trkpt lat="46.69846" lon="0.00435">
        <ele>145.76</ele>
        <time>2023-06-14T13:05:18.311Z</time>
      </trkpt>
      <trkpt lat="46.69841" lon="0.00429">
        <ele>145.85</ele>
        <time>2023-06-14T13:06:06.200Z</time>
      </trkpt>
      <trkpt lat="46.69834" lon="0.00421">
        <ele>145.92</ele>
        <time>2023-06-14T13:06:54.091Z</time>
      </trkpt>
      <trkpt lat="46.69817" lon="0.004">
        <ele>145.99</ele>
        <time>2023-06-14T13:07:41.985Z</time>
      </trkpt>
      <trkpt lat="46.69797" lon="0.00374">
        <ele>146.01</ele>
        <time>2023-06-14T13:08:29.884Z</time>
      </trkpt>
      <trkpt lat="46.69786" lon="0.00362">
        <ele>146.06</ele>
        <time>2023-06-14T13:09:17.785Z</time>
      </trkpt>
      <trkpt lat="46.69783" lon="0.00357">
        <ele>146.1</ele>
        <time>2023-06-14T13:10:05.686Z</time>
      </trkpt>
      <trkpt lat="46.6978" lon="0.00353">
        <ele>146.16</ele>
        <time>2023-06-14T13:10:53.588Z</time>
      </trkpt>
      <trkpt lat="46.69776" lon="0.00349">
        <ele>146.25</ele>
        <time>2023-06-14T13:11:41.491Z</time>
      </trkpt>
      <trkpt lat="46.69766" lon="0.00336">
        <ele>146.6</ele>
        <time>2023-06-14T13:12:29.396Z</time>
      </trkpt>
      <trkpt lat="46.69763" lon="0.00332">
        <ele>146.68</ele>
        <time>2023-06-14T13:13:17.302Z</time>
      </trkpt>
      <trkpt lat="46.69756" lon="0.00324">
        <ele>146.78</ele>
        <time>2023-06-14T13:14:05.209Z</time>
      </trkpt>
      <trkpt lat="46.69749" lon="0.00315">
        <ele>146.83</ele>
        <time>2023-06-14T13:14:53.118Z</time>
      </trkpt>
      <trkpt lat="46.69743" lon="0.00308">
        <ele>146.84</ele>
        <time>2023-06-14T13:15:41.028Z</time>
      </trkpt>
      <trkpt lat="46.69738" lon="0.00304">
        <ele>146.86</ele>
        <time>2023-06-14T13:16:28.939Z</time>
      </trkpt>
      <trkpt lat="46.69708" lon="0.00276">
        <ele>146.89</ele>
        <time>2023-06-14T13:17:16.856Z</time>
      </trkpt>
      <trkpt lat="46.69693" lon="0.00262">
        <ele>146.93</ele>
        <time>2023-06-14T13:18:04.775Z</time>
      </trkpt>
      <trkpt lat="46.69674" lon="0.00244">
        <ele>146.95</ele>
        <time>2023-06-14T13:18:52.698Z</time>
      </trkpt>
      <trkpt lat="46.69657" lon="0.00228">
        <ele>146.88</ele>
        <time>2023-06-14T13:19:40.624Z</time>
      </trkpt>
      <trkpt lat="46.69633" lon="0.00204">
        <ele>146.79</ele>
        <time>2023-06-14T13:20:28.555Z</time>
      </trkpt>
      <trkpt lat="46.69626" lon="0.00196">
        <ele>146.79</ele>
        <time>2023-06-14T13:21:16.487Z</time>
      </trkpt>
      <trkpt lat="46.69622" lon="0.00193">
        <ele>146.81</ele>
        <time>2023-06-14T13:22:04.420Z</time>
      </trkpt>
      <trkpt lat="46.69619" lon="0.00189">
        <ele>146.86</ele>
        <time>2023-06-14T13:22:52.354Z</time>
      </trkpt>
      <trkpt lat="46.69615" lon="0.00185">
        <ele>146.98</ele>
        <time>2023-06-14T13:23:40.288Z</time>
      </trkpt>
      <trkpt lat="46.69608" lon="0.00178">
        <ele>147.33</ele>
        <time>2023-06-14T13:24:28.224Z</time>
      </trkpt>
      <trkpt lat="46.69604" lon="0.00174">
        <ele>147.46</ele>
        <time>2023-06-14T13:25:16.161Z</time>
      </trkpt>
      <trkpt lat="46.69603" lon="0.00173">
        <ele>147.47</ele>
        <time>2023-06-14T13:26:04.098Z</time>
      </trkpt>
      <trkpt lat="46.696" lon="0.00171">
        <ele>147.52</ele>
        <time>2023-06-14T13:26:52.035Z</time>
      </trkpt>
      <trkpt lat="46.69596" lon="0.00168">
        <ele>147.54</ele>
        <time>2023-06-14T13:27:39.973Z</time>
      </trkpt>
      <trkpt lat="46.69572" lon="0.0015">
        <ele>147.48</ele>
        <time>2023-06-14T13:28:27.915Z</time>
      </trkpt>
      <trkpt lat="46.69557" lon="0.00139">
        <ele>147.47</ele>
        <time>2023-06-14T13:29:15.860Z</time>
      </trkpt>
      <trkpt lat="46.69544" lon="0.00128">
        <ele>147.47</ele>
        <time>2023-06-14T13:30:03.807Z</time>
      </trkpt>
      <trkpt lat="46.69504" lon="0.00095">
        <ele>147.53</ele>
        <time>2023-06-14T13:30:51.762Z</time>
      </trkpt>
      <trkpt lat="46.69501" lon="0.00093">
        <ele>147.54</ele>
        <time>2023-06-14T13:31:39.717Z</time>
      </trkpt>
      <trkpt lat="46.69494" lon="0.00086">
        <ele>147.66</ele>
        <time>2023-06-14T13:32:27.674Z</time>
      </trkpt>
      <trkpt lat="46.69486" lon="0.00079">
        <ele>147.88</ele>
        <time>2023-06-14T13:33:15.632Z</time>
      </trkpt>
      <trkpt lat="46.69482" lon="0.00075">
        <ele>147.95</ele>
        <time>2023-06-14T13:34:03.591Z</time>
      </trkpt>
      <trkpt lat="46.69471" lon="0.00065">
        <ele>148.06</ele>
        <time>2023-06-14T13:34:51.552Z</time>
      </trkpt>
      <trkpt lat="46.69468" lon="0.00062">
        <ele>148.11</ele>
        <time>2023-06-14T13:35:39.514Z</time>
      </trkpt>
      <trkpt lat="46.6946" lon="0.00054">
        <ele>148.27</ele>
        <time>2023-06-14T13:36:27.477Z</time>
      </trkpt>
      <trkpt lat="46.69456" lon="0.0005">
        <ele>148.3</ele>
        <time>2023-06-14T13:37:15.441Z</time>
      </trkpt>
      <trkpt lat="46.69452" lon="0.00046">
        <ele>148.27</ele>
        <time>2023-06-14T13:38:03.406Z</time>
      </trkpt>
      <trkpt lat="46.69449" lon="0.00043">
        <ele>148.2</ele>
        <time>2023-06-14T13:38:51.371Z</time>
      </trkpt>
      <trkpt lat="46.69438" lon="0.00032">
        <ele>147.9</ele>
        <time>2023-06-14T13:39:39.339Z</time>
      </trkpt>
      <trkpt lat="46.69423" lon="0.00017">
        <ele>147.61</ele>
        <time>2023-06-14T13:40:27.309Z</time>
      </trkpt>
      <trkpt lat="46.69419" lon="0.00013">
        <ele>147.55</ele>
        <time>2023-06-14T13:41:15.280Z</time>
      </trkpt>
      <trkpt lat="46.69419" lon="0.00013">
        <ele>147.55</ele>
        <time>2023-06-14T13:42:03.251Z</time>
      </trkpt>
      <trkpt lat="46.69411" lon="8.0E-5">
        <ele>147.52</ele>
        <time>2023-06-14T13:42:51.224Z</time>
      </trkpt>
      <trkpt lat="46.69365" lon="-0.0002">
        <ele>147.55</ele>
        <time>2023-06-14T13:43:39.205Z</time>
      </trkpt>
      <trkpt lat="46.69365" lon="-0.0002">
        <ele>147.55</ele>
        <time>2023-06-14T13:44:27.186Z</time>
      </trkpt>
      <trkpt lat="46.69335" lon="-0.00033">
        <ele>147.52</ele>
        <time>2023-06-14T13:45:15.172Z</time>
      </trkpt>
      <trkpt lat="46.69327" lon="-0.00036">
        <ele>147.47</ele>
        <time>2023-06-14T13:46:03.159Z</time>
      </trkpt>
      <trkpt lat="46.69318" lon="-0.0004">
        <ele>147.37</ele>
        <time>2023-06-14T13:46:51.147Z</time>
      </trkpt>
      <trkpt lat="46.69277" lon="-0.00057">
        <ele>146.47</ele>
        <time>2023-06-14T13:47:39.142Z</time>
      </trkpt>
      <trkpt lat="46.69246" lon="-0.00048">
        <ele>145.8</ele>
        <time>2023-06-14T13:48:27.142Z</time>
      </trkpt>
      <trkpt lat="46.69232" lon="-0.00043">
        <ele>145.86</ele>
        <time>2023-06-14T13:49:15.145Z</time>
      </trkpt>
      <trkpt lat="46.69204" lon="-0.00035">
        <ele>145.64</ele>
        <time>2023-06-14T13:50:03.152Z</time>
      </trkpt>
      <trkpt lat="46.69195" lon="-0.00019">
        <ele>145.53</ele>
        <time>2023-06-14T13:50:51.161Z</time>
      </trkpt>
      <trkpt lat="46.69156" lon="0.00014">
        <ele>145.17</ele>
        <time>2023-06-14T13:51:39.178Z</time>
      </trkpt>
      <trkpt lat="46.69153" lon="0.00018">
        <ele>145.15</ele>
        <time>2023-06-14T13:52:27.195Z</time>
      </trkpt>
      <trkpt lat="46.6915" lon="0.00022">
        <ele>145.16</ele>
        <time>2023-06-14T13:53:15.213Z</time>
      </trkpt>
      <trkpt lat="46.69126" lon="0.00065">
        <ele>145.32</ele>
        <time>2023-06-14T13:54:03.237Z</time>
      </trkpt>
      <trkpt lat="46.69098" lon="0.00091">
        <ele>145.46</ele>
        <time>2023-06-14T13:54:51.266Z</time>
      </trkpt>
      <trkpt lat="46.69061" lon="0.0014">
        <ele>145.66</ele>
        <time>2023-06-14T13:55:39.303Z</time>
      </trkpt>
      <trkpt lat="46.69045" lon="0.00142">
        <ele>145.73</ele>
        <time>2023-06-14T13:56:27.343Z</time>
      </trkpt>
      <trkpt lat="46.68976" lon="0.00206">
        <ele>146.07</ele>
        <time>2023-06-14T13:57:15.396Z</time>
      </trkpt>
      <trkpt lat="46.68941" lon="0.00239">
        <ele>146.89</ele>
        <time>2023-06-14T13:58:03.456Z</time>
      </trkpt>
      <trkpt lat="46.68879" lon="0.00258">
        <ele>148.13</ele>
        <time>2023-06-14T13:58:51.526Z</time>
      </trkpt>
      <trkpt lat="46.68858" lon="0.00277">
        <ele>148.61</ele>
        <time>2023-06-14T13:59:39.600Z</time>
      </trkpt>
      <trkpt lat="46.68853" lon="0.00288">
        <ele>148.79</ele>
        <time>2023-06-14T14:00:27.675Z</time>
      </trkpt>
      <trkpt lat="46.68842" lon="0.003">
        <ele>149.06</ele>
        <time>2023-06-14T14:01:15.752Z</time>
      </trkpt>
      <trkpt lat="46.68828" lon="0.00316">
        <ele>149.33</ele>
        <time>2023-06-14T14:02:03.832Z</time>
      </trkpt>
      <trkpt lat="46.68821" lon="0.00324">
        <ele>149.43</ele>
        <time>2023-06-14T14:02:51.914Z</time>
      </trkpt>
      <trkpt lat="46.68814" lon="0.00332">
        <ele>149.49</ele>
        <time>2023-06-14T14:03:39.997Z</time>
      </trkpt>
      <trkpt lat="46.68809" lon="0.00338">
        <ele>149.52</ele>
        <time>2023-06-14T14:04:28.081Z</time>
      </trkpt>
      <trkpt lat="46.68801" lon="0.00303">
        <ele>149.64</ele>
        <time>2023-06-14T14:05:16.169Z</time>
      </trkpt>
      <trkpt lat="46.68797" lon="0.00284">
        <ele>149.76</ele>
        <time>2023-06-14T14:06:04.259Z</time>
      </trkpt>
      <trkpt lat="46.68795" lon="0.00272">
        <ele>149.88</ele>
        <time>2023-06-14T14:06:52.351Z</time>
      </trkpt>
      <trkpt lat="46.68793" lon="0.00266">
        <ele>149.96</ele>
        <time>2023-06-14T14:07:40.444Z</time>
      </trkpt>
      <trkpt lat="46.68789" lon="0.00247">
        <ele>150.26</ele>
        <time>2023-06-14T14:08:28.539Z</time>
      </trkpt>
      <trkpt lat="46.68788" lon="0.00241">
        <ele>150.33</ele>
        <time>2023-06-14T14:09:16.634Z</time>
      </trkpt>
      <trkpt lat="46.68787" lon="0.00235">
        <ele>150.37</ele>
        <time>2023-06-14T14:10:04.730Z</time>
      </trkpt>
      <trkpt lat="46.68783" lon="0.00216">
        <ele>150.43</ele>
        <time>2023-06-14T14:10:52.828Z</time>
      </trkpt>
      <trkpt lat="46.68768" lon="0.00147">
        <ele>150.76</ele>
        <time>2023-06-14T14:11:40.934Z</time>
      </trkpt>
      <trkpt lat="46.68763" lon="0.00122">
        <ele>150.82</ele>
        <time>2023-06-14T14:12:29.043Z</time>
      </trkpt>
      <trkpt lat="46.68758" lon="0.00104">
        <ele>150.91</ele>
        <time>2023-06-14T14:13:17.154Z</time>
      </trkpt>
      <trkpt lat="46.68753" lon="0.00079">
        <ele>151</ele>
        <time>2023-06-14T14:14:05.268Z</time>
      </trkpt>
      <trkpt lat="46.68746" lon="0.00047">
        <ele>151.2</ele>
        <time>2023-06-14T14:14:53.386Z</time>
      </trkpt>
      <trkpt lat="46.68737" lon="4.0E-5">
        <ele>151.26</ele>
        <time>2023-06-14T14:15:41.509Z</time>
      </trkpt>
      <trkpt lat="46.68737" lon="4.0E-5">
        <ele>151.26</ele>
        <time>2023-06-14T14:16:29.632Z</time>
      </trkpt>
      <trkpt lat="46.68731" lon="-0.00021">
        <ele>151.26</ele>
        <time>2023-06-14T14:17:17.758Z</time>
      </trkpt>
      <trkpt lat="46.68723" lon="-0.00051">
        <ele>151.31</ele>
        <time>2023-06-14T14:18:05.887Z</time>
      </trkpt>
      <trkpt lat="46.68713" lon="-0.00088">
        <ele>151.42</ele>
        <time>2023-06-14T14:18:54.021Z</time>
      </trkpt>
      <trkpt lat="46.68706" lon="-0.00119">
        <ele>151.49</ele>
        <time>2023-06-14T14:19:42.158Z</time>
      </trkpt>
      <trkpt lat="46.68704" lon="-0.00125">
        <ele>151.49</ele>
        <time>2023-06-14T14:20:30.296Z</time>
      </trkpt>
      <trkpt lat="46.68699" lon="-0.00143">
        <ele>151.45</ele>
        <time>2023-06-14T14:21:18.436Z</time>
      </trkpt>
      <trkpt lat="46.68695" lon="-0.00162">
        <ele>151.46</ele>
        <time>2023-06-14T14:22:06.578Z</time>
      </trkpt>
      <trkpt lat="46.68688" lon="-0.00186">
        <ele>151.51</ele>
        <time>2023-06-14T14:22:54.723Z</time>
      </trkpt>
      <trkpt lat="46.68683" lon="-0.00207">
        <ele>151.59</ele>
        <time>2023-06-14T14:23:42.871Z</time>
      </trkpt>
      <trkpt lat="46.68682" lon="-0.0021">
        <ele>151.61</ele>
        <time>2023-06-14T14:24:31.019Z</time>
      </trkpt>
      <trkpt lat="46.6868" lon="-0.00216">
        <ele>151.62</ele>
        <time>2023-06-14T14:25:19.168Z</time>
      </trkpt>
      <trkpt lat="46.68678" lon="-0.00222">
        <ele>151.6</ele>
        <time>2023-06-14T14:26:07.317Z</time>
      </trkpt>
      <trkpt lat="46.68673" lon="-0.00233">
        <ele>151.52</ele>
        <time>2023-06-14T14:26:55.468Z</time>
      </trkpt>
      <trkpt lat="46.6867" lon="-0.00243">
        <ele>151.43</ele>
        <time>2023-06-14T14:27:43.620Z</time>
      </trkpt>
      <trkpt lat="46.68662" lon="-0.0026">
        <ele>151.26</ele>
        <time>2023-06-14T14:28:31.774Z</time>
      </trkpt>
      <trkpt lat="46.68657" lon="-0.00271">
        <ele>151.17</ele>
        <time>2023-06-14T14:29:19.930Z</time>
      </trkpt>
      <trkpt lat="46.68652" lon="-0.00281">
        <ele>151.12</ele>
        <time>2023-06-14T14:30:08.087Z</time>
      </trkpt>
      <trkpt lat="46.6865" lon="-0.00285">
        <ele>151.1</ele>
        <time>2023-06-14T14:30:56.245Z</time>
      </trkpt>
      <trkpt lat="46.68645" lon="-0.00281">
        <ele>151.09</ele>
        <time>2023-06-14T14:31:44.404Z</time>
      </trkpt>
      <trkpt lat="46.68626" lon="-0.00267">
        <ele>151.07</ele>
        <time>2023-06-14T14:32:32.566Z</time>
      </trkpt>
      <trkpt lat="46.68603" lon="-0.00249">
        <ele>151.09</ele>
        <time>2023-06-14T14:33:20.732Z</time>
      </trkpt>
      <trkpt lat="46.68587" lon="-0.00237">
        <ele>151.06</ele>
        <time>2023-06-14T14:34:08.901Z</time>
      </trkpt>
      <trkpt lat="46.68571" lon="-0.00225">
        <ele>150.71</ele>
        <time>2023-06-14T14:34:57.073Z</time>
      </trkpt>
      <trkpt lat="46.68559" lon="-0.00216">
        <ele>150.41</ele>
        <time>2023-06-14T14:35:45.247Z</time>
      </trkpt>
      <trkpt lat="46.6855" lon="-0.00209">
        <ele>150.21</ele>
        <time>2023-06-14T14:36:33.423Z</time>
      </trkpt>
      <trkpt lat="46.6855" lon="-0.00205">
        <ele>150.16</ele>
        <time>2023-06-14T14:37:21.599Z</time>
      </trkpt>
      <trkpt lat="46.6855" lon="-0.00201">
        <ele>150.09</ele>
        <time>2023-06-14T14:38:09.776Z</time>
      </trkpt>
      <trkpt lat="46.6855" lon="-0.00199">
        <ele>150.05</ele>
        <time>2023-06-14T14:38:57.953Z</time>
      </trkpt>
      <trkpt lat="46.68548" lon="-0.00192">
        <ele>149.9</ele>
        <time>2023-06-14T14:39:46.131Z</time>
      </trkpt>
      <trkpt lat="46.68545" lon="-0.00173">
        <ele>149.35</ele>
        <time>2023-06-14T14:40:34.311Z</time>
      </trkpt>
      <trkpt lat="46.68542" lon="-0.00161">
        <ele>149.01</ele>
        <time>2023-06-14T14:41:22.492Z</time>
      </trkpt>
      <trkpt lat="46.68536" lon="-0.00129">
        <ele>148.23</ele>
        <time>2023-06-14T14:42:10.677Z</time>
      </trkpt>
      <trkpt lat="46.68532" lon="-0.00109">
        <ele>147.69</ele>
        <time>2023-06-14T14:42:58.864Z</time>
      </trkpt>
      <trkpt lat="46.68524" lon="-0.00088">
        <ele>147.09</ele>
        <time>2023-06-14T14:43:47.054Z</time>
      </trkpt>
      <trkpt lat="46.6852" lon="-0.00076">
        <ele>146.81</ele>
        <time>2023-06-14T14:44:35.245Z</time>
      </trkpt>
      <trkpt lat="46.68511" lon="-0.00053">
        <ele>146.37</ele>
        <time>2023-06-14T14:45:23.439Z</time>
      </trkpt>
      <trkpt lat="46.68503" lon="-0.0003">
        <ele>145.87</ele>
        <time>2023-06-14T14:46:11.636Z</time>
      </trkpt>
      <trkpt lat="46.68498" lon="-0.00019">
        <ele>145.66</ele>
        <time>2023-06-14T14:46:59.834Z</time>
      </trkpt>
      <trkpt lat="46.6849" lon="4.0E-5">
        <ele>145.32</ele>
        <time>2023-06-14T14:47:48.035Z</time>
      </trkpt>
      <trkpt lat="46.68489" lon="6.0E-5">
        <ele>145.28</ele>
        <time>2023-06-14T14:48:36.237Z</time>
      </trkpt>
      <trkpt lat="46.68479" lon="0.00025">
        <ele>144.9</ele>
        <time>2023-06-14T14:49:24.441Z</time>
      </trkpt>
      <trkpt lat="46.68461" lon="0.00062">
        <ele>144.38</ele>
        <time>2023-06-14T14:50:12.650Z</time>
      </trkpt>
      <trkpt lat="46.68455" lon="0.00073">
        <ele>144.3</ele>
        <time>2023-06-14T14:51:00.861Z</time>
      </trkpt>
      <trkpt lat="46.68447" lon="0.00088">
        <ele>144.22</ele>
        <time>2023-06-14T14:51:49.074Z</time>
      </trkpt>
      <trkpt lat="46.68439" lon="0.00104">
        <ele>144.03</ele>
        <time>2023-06-14T14:52:37.289Z</time>
      </trkpt>
      <trkpt lat="46.68434" lon="0.00114">
        <ele>143.99</ele>
        <time>2023-06-14T14:53:25.505Z</time>
      </trkpt>
      <trkpt lat="46.68431" lon="0.0012">
        <ele>144.01</ele>
        <time>2023-06-14T14:54:13.722Z</time>
      </trkpt>
      <trkpt lat="46.68423" lon="0.00135">
        <ele>144.18</ele>
        <time>2023-06-14T14:55:01.941Z</time>
      </trkpt>
      <trkpt lat="46.68421" lon="0.00141">
        <ele>144.21</ele>
        <time>2023-06-14T14:55:50.161Z</time>
      </trkpt>
      <trkpt lat="46.68418" lon="0.00146">
        <ele>144.21</ele>
        <time>2023-06-14T14:56:38.382Z</time>
      </trkpt>
      <trkpt lat="46.68415" lon="0.00151">
        <ele>144.19</ele>
        <time>2023-06-14T14:57:26.603Z</time>
      </trkpt>
      <trkpt lat="46.68408" lon="0.00166">
        <ele>144.09</ele>
        <time>2023-06-14T14:58:14.826Z</time>
      </trkpt>
      <trkpt lat="46.68404" lon="0.00179">
        <ele>144.02</ele>
        <time>2023-06-14T14:59:03.051Z</time>
      </trkpt>
      <trkpt lat="46.68399" lon="0.00197">
        <ele>143.97</ele>
        <time>2023-06-14T14:59:51.278Z</time>
      </trkpt>
      <trkpt lat="46.68395" lon="0.00209">
        <ele>143.96</ele>
        <time>2023-06-14T15:00:39.507Z</time>
      </trkpt>
      <trkpt lat="46.68392" lon="0.00221">
        <ele>144.01</ele>
        <time>2023-06-14T15:01:27.737Z</time>
      </trkpt>
      <trkpt lat="46.68386" lon="0.00239">
        <ele>144.14</ele>
        <time>2023-06-14T15:02:15.969Z</time>
      </trkpt>
      <trkpt lat="46.68381" lon="0.00257">
        <ele>144.23</ele>
        <time>2023-06-14T15:03:04.203Z</time>
      </trkpt>
      <trkpt lat="46.68379" lon="0.00263">
        <ele>144.29</ele>
        <time>2023-06-14T15:03:52.438Z</time>
      </trkpt>
      <trkpt lat="46.68377" lon="0.00269">
        <ele>144.38</ele>
        <time>2023-06-14T15:04:40.674Z</time>
      </trkpt>
      <trkpt lat="46.68376" lon="0.00274">
        <ele>144.5</ele>
        <time>2023-06-14T15:05:28.910Z</time>
      </trkpt>
      <trkpt lat="46.68375" lon="0.00275">
        <ele>144.5</ele>
        <time>2023-06-14T15:06:17.147Z</time>
      </trkpt>
      <trkpt lat="46.68372" lon="0.0028">
        <ele>144.67</ele>
        <time>2023-06-14T15:07:05.384Z</time>
      </trkpt>
      <trkpt lat="46.68369" lon="0.00281">
        <ele>144.82</ele>
        <time>2023-06-14T15:07:53.622Z</time>
      </trkpt>
      <trkpt lat="46.68368" lon="0.00281">
        <ele>144.82</ele>
        <time>2023-06-14T15:08:41.860Z</time>
      </trkpt>
      <trkpt lat="46.68364" lon="0.00278">
        <ele>145.01</ele>
        <time>2023-06-14T15:09:30.099Z</time>
      </trkpt>
      <trkpt lat="46.68363" lon="0.00278">
        <ele>145.05</ele>
        <time>2023-06-14T15:10:18.338Z</time>
      </trkpt>
      <trkpt lat="46.6836" lon="0.00275">
        <ele>145.23</ele>
        <time>2023-06-14T15:11:06.577Z</time>
      </trkpt>
      <trkpt lat="46.68357" lon="0.00271">
        <ele>145.49</ele>
        <time>2023-06-14T15:11:54.817Z</time>
      </trkpt>
      <trkpt lat="46.6835" lon="0.00263">
        <ele>146.09</ele>
        <time>2023-06-14T15:12:43.059Z</time>
      </trkpt>
      <trkpt lat="46.68346" lon="0.00258">
        <ele>146.35</ele>
        <time>2023-06-14T15:13:31.301Z</time>
      </trkpt>
      <trkpt lat="46.68343" lon="0.00254">
        <ele>146.58</ele>
        <time>2023-06-14T15:14:19.544Z</time>
      </trkpt>
      <trkpt lat="46.6834" lon="0.0025">
        <ele>146.78</ele>
        <time>2023-06-14T15:15:07.788Z</time>
      </trkpt>
      <trkpt lat="46.68336" lon="0.00246">
        <ele>146.94</ele>
        <time>2023-06-14T15:15:56.032Z</time>
      </trkpt>
      <trkpt lat="46.68326" lon="0.00234">
        <ele>147.33</ele>
        <time>2023-06-14T15:16:44.279Z</time>
      </trkpt>
      <trkpt lat="46.68322" lon="0.0023">
        <ele>147.49</ele>
        <time>2023-06-14T15:17:32.526Z</time>
      </trkpt>
      <trkpt lat="46.68318" lon="0.00225">
        <ele>147.72</ele>
        <time>2023-06-14T15:18:20.774Z</time>
      </trkpt>
      <trkpt lat="46.68319" lon="0.0024">
        <ele>148.15</ele>
        <time>2023-06-14T15:19:09.024Z</time>
      </trkpt>
      <trkpt lat="46.6832" lon="0.00243">
        <ele>148.23</ele>
        <time>2023-06-14T15:19:57.274Z</time>
      </trkpt>
      <trkpt lat="46.68323" lon="0.0026">
        <ele>148.72</ele>
        <time>2023-06-14T15:20:45.526Z</time>
      </trkpt>
      <trkpt lat="46.68323" lon="0.00268">
        <ele>148.93</ele>
        <time>2023-06-14T15:21:33.779Z</time>
      </trkpt>
      <trkpt lat="46.68324" lon="0.00281">
        <ele>149.25</ele>
        <time>2023-06-14T15:22:22.033Z</time>
      </trkpt>
      <trkpt lat="46.68325" lon="0.00287">
        <ele>149.39</ele>
        <time>2023-06-14T15:23:10.288Z</time>
      </trkpt>
      <trkpt lat="46.68325" lon="0.00292">
        <ele>149.48</ele>
        <time>2023-06-14T15:23:58.544Z</time>
      </trkpt>
      <trkpt lat="46.68325" lon="0.00293">
        <ele>149.51</ele>
        <time>2023-06-14T15:24:46.800Z</time>
      </trkpt>
      <trkpt lat="46.68324" lon="0.00306">
        <ele>149.68</ele>
        <time>2023-06-14T15:25:35.057Z</time>
      </trkpt>
      <trkpt lat="46.68322" lon="0.00319">
        <ele>149.77</ele>
        <time>2023-06-14T15:26:23.316Z</time>
      </trkpt>
      <trkpt lat="46.68321" lon="0.00332">
        <ele>149.83</ele>
        <time>2023-06-14T15:27:11.576Z</time>
      </trkpt>
      <trkpt lat="46.6831" lon="0.00367">
        <ele>150.03</ele>
        <time>2023-06-14T15:27:59.840Z</time>
      </trkpt>
      <trkpt lat="46.68303" lon="0.00391">
        <ele>150.12</ele>
        <time>2023-06-14T15:28:48.107Z</time>
      </trkpt>
      <trkpt lat="46.68298" lon="0.00409">
        <ele>149.98</ele>
        <time>2023-06-14T15:29:36.376Z</time>
      </trkpt>
      <trkpt lat="46.68294" lon="0.00421">
        <ele>149.94</ele>
        <time>2023-06-14T15:30:24.647Z</time>
      </trkpt>
      <trkpt lat="46.68287" lon="0.00445">
        <ele>149.9</ele>
        <time>2023-06-14T15:31:12.921Z</time>
      </trkpt>
      <trkpt lat="46.68287" lon="0.00446">
        <ele>149.89</ele>
        <time>2023-06-14T15:32:01.195Z</time>
      </trkpt>
      <trkpt lat="46.68272" lon="0.00437">
        <ele>149.77</ele>
        <time>2023-06-14T15:32:49.471Z</time>
      </trkpt>
      <trkpt lat="46.68263" lon="0.00432">
        <ele>149.76</ele>
        <time>2023-06-14T15:33:37.749Z</time>
      </trkpt>
      <trkpt lat="46.68255" lon="0.00427">
        <ele>149.83</ele>
        <time>2023-06-14T15:34:26.028Z</time>
      </trkpt>
      <trkpt lat="46.68247" lon="0.00423">
        <ele>149.95</ele>
        <time>2023-06-14T15:35:14.309Z</time>
      </trkpt>
      <trkpt lat="46.68239" lon="0.00418">
        <ele>150.02</ele>
        <time>2023-06-14T15:36:02.591Z</time>
      </trkpt>
      <trkpt lat="46.68239" lon="0.00418">
        <ele>150.02</ele>
        <time>2023-06-14T15:36:50.873Z</time>
      </trkpt>
      <trkpt lat="46.68235" lon="0.00416">
        <ele>150.04</ele>
        <time>2023-06-14T15:37:39.156Z</time>
      </trkpt>
      <trkpt lat="46.68227" lon="0.00413">
        <ele>150.01</ele>
        <time>2023-06-14T15:38:27.440Z</time>
      </trkpt>
      <trkpt lat="46.68227" lon="0.00413">
        <ele>150.01</ele>
        <time>2023-06-14T15:39:15.724Z</time>
      </trkpt>
      <trkpt lat="46.68218" lon="0.00413">
        <ele>150.13</ele>
        <time>2023-06-14T15:40:04.010Z</time>
      </trkpt>
      <trkpt lat="46.6821" lon="0.00414">
        <ele>150.36</ele>
        <time>2023-06-14T15:40:52.297Z</time>
      </trkpt>
      <trkpt lat="46.68207" lon="0.00414">
        <ele>150.44</ele>
        <time>2023-06-14T15:41:40.584Z</time>
      </trkpt>
      <trkpt lat="46.682" lon="0.00419">
        <ele>150.66</ele>
        <time>2023-06-14T15:42:28.873Z</time>
      </trkpt>
      <trkpt lat="46.68188" lon="0.00426">
        <ele>150.89</ele>
        <time>2023-06-14T15:43:17.164Z</time>
      </trkpt>
      <trkpt lat="46.68187" lon="0.00425">
        <ele>150.89</ele>
        <time>2023-06-14T15:44:05.455Z</time>
      </trkpt>
      <trkpt lat="46.6817" lon="0.00405">
        <ele>151.2</ele>
        <time>2023-06-14T15:44:53.749Z</time>
      </trkpt>
      <trkpt lat="46.68157" lon="0.00389">
        <ele>151.27</ele>
        <time>2023-06-14T15:45:42.046Z</time>
      </trkpt>
      <trkpt lat="46.68144" lon="0.00374">
        <ele>151.41</ele>
        <time>2023-06-14T15:46:30.346Z</time>
      </trkpt>
      <trkpt lat="46.68143" lon="0.00372">
        <ele>151.42</ele>
        <time>2023-06-14T15:47:18.646Z</time>
      </trkpt>
      <trkpt lat="46.68138" lon="0.00368">
        <ele>151.45</ele>
        <time>2023-06-14T15:48:06.947Z</time>
      </trkpt>
      <trkpt lat="46.68133" lon="0.00366">
        <ele>151.49</ele>
        <time>2023-06-14T15:48:55.249Z</time>
      </trkpt>
      <trkpt lat="46.68125" lon="0.00363">
        <ele>151.62</ele>
        <time>2023-06-14T15:49:43.552Z</time>
      </trkpt>
      <trkpt lat="46.68108" lon="0.00356">
        <ele>151.8</ele>
        <time>2023-06-14T15:50:31.858Z</time>
      </trkpt>
      <trkpt lat="46.68108" lon="0.00356">
        <ele>151.8</ele>
        <time>2023-06-14T15:51:20.164Z</time>
      </trkpt>
      <trkpt lat="46.68095" lon="0.00345">
        <ele>152.01</ele>
        <time>2023-06-14T15:52:08.472Z</time>
      </trkpt>
      <trkpt lat="46.68092" lon="0.00343">
        <ele>152.06</ele>
        <time>2023-06-14T15:52:56.781Z</time>
      </trkpt>
      <trkpt lat="46.68085" lon="0.00335">
        <ele>152.17</ele>
        <time>2023-06-14T15:53:45.091Z</time>
      </trkpt>
      <trkpt lat="46.68078" lon="0.00328">
        <ele>152.23</ele>
        <time>2023-06-14T15:54:33.403Z</time>
      </trkpt>
      <trkpt lat="46.68063" lon="0.00314">
        <ele>152.26</ele>
        <time>2023-06-14T15:55:21.717Z</time>
      </trkpt>
      <trkpt lat="46.68056" lon="0.00306">
        <ele>152.11</ele>
        <time>2023-06-14T15:56:10.033Z</time>
      </trkpt>
      <trkpt lat="46.68052" lon="0.00303">
        <ele>152.07</ele>
        <time>2023-06-14T15:56:58.349Z</time>
      </trkpt>
      <trkpt lat="46.68049" lon="0.00299">
        <ele>152.05</ele>
        <time>2023-06-14T15:57:46.666Z</time>
      </trkpt>
      <trkpt lat="46.68041" lon="0.00292">
        <ele>152.09</ele>
        <time>2023-06-14T15:58:34.985Z</time>
      </trkpt>
      <trkpt lat="46.68029" lon="0.0028">
        <ele>152.2</ele>
        <time>2023-06-14T15:59:23.306Z</time>
      </trkpt>
      <trkpt lat="46.68023" lon="0.00275">
        <ele>152.26</ele>
        <time>2023-06-14T16:00:11.628Z</time>
      </trkpt>
      <trkpt lat="46.68012" lon="0.00266">
        <ele>152.38</ele>
        <time>2023-06-14T16:00:59.952Z</time>
      </trkpt>
      <trkpt lat="46.67996" lon="0.00254">
        <ele>152.26</ele>
        <time>2023-06-14T16:01:48.279Z</time>
      </trkpt>
      <trkpt lat="46.67996" lon="0.00254">
        <ele>152.26</ele>
        <time>2023-06-14T16:02:36.606Z</time>
      </trkpt>
      <trkpt lat="46.67979" lon="0.00246">
        <ele>152.19</ele>
        <time>2023-06-14T16:03:24.936Z</time>
      </trkpt>
      <trkpt lat="46.67974" lon="0.00244">
        <ele>152.18</ele>
        <time>2023-06-14T16:04:13.267Z</time>
      </trkpt>
      <trkpt lat="46.6797" lon="0.00244">
        <ele>152.18</ele>
        <time>2023-06-14T16:05:01.598Z</time>
      </trkpt>
      <trkpt lat="46.67943" lon="0.00241">
        <ele>152.21</ele>
        <time>2023-06-14T16:05:49.934Z</time>
      </trkpt>
      <trkpt lat="46.67921" lon="0.00239">
        <ele>152.11</ele>
        <time>2023-06-14T16:06:38.273Z</time>
      </trkpt>
      <trkpt lat="46.67912" lon="0.00238">
        <ele>152.1</ele>
        <time>2023-06-14T16:07:26.614Z</time>
      </trkpt>
      <trkpt lat="46.6791" lon="0.00238">
        <ele>152.11</ele>
        <time>2023-06-14T16:08:14.955Z</time>
      </trkpt>
      <trkpt lat="46.67898" lon="0.00234">
        <ele>152.16</ele>
        <time>2023-06-14T16:09:03.298Z</time>
      </trkpt>
      <trkpt lat="46.67891" lon="0.00229">
        <ele>152.2</ele>
        <time>2023-06-14T16:09:51.642Z</time>
      </trkpt>
      <trkpt lat="46.6789" lon="0.00228">
        <ele>152.19</ele>
        <time>2023-06-14T16:10:39.986Z</time>
      </trkpt>
      <trkpt lat="46.67884" lon="0.00221">
        <ele>152.18</ele>
        <time>2023-06-14T16:11:28.332Z</time>
      </trkpt>
      <trkpt lat="46.67867" lon="0.00201">
        <ele>152.08</ele>
        <time>2023-06-14T16:12:16.681Z</time>
      </trkpt>
      <trkpt lat="46.67851" lon="0.00181">
        <ele>152.61</ele>
        <time>2023-06-14T16:13:05.033Z</time>
      </trkpt>
      <trkpt lat="46.67835" lon="0.00162">
        <ele>152.89</ele>
        <time>2023-06-14T16:13:53.389Z</time>
      </trkpt>
      <trkpt lat="46.67832" lon="0.00167">
        <ele>152.97</ele>
        <time>2023-06-14T16:14:41.746Z</time>
      </trkpt>
      <trkpt lat="46.67823" lon="0.00181">
        <ele>153.13</ele>
        <time>2023-06-14T16:15:30.105Z</time>
      </trkpt>
      <trkpt lat="46.67821" lon="0.00184">
        <ele>153.17</ele>
        <time>2023-06-14T16:16:18.464Z</time>
      </trkpt>
      <trkpt lat="46.67812" lon="0.00201">
        <ele>153.41</ele>
        <time>2023-06-14T16:17:06.825Z</time>
      </trkpt>
      <trkpt lat="46.67806" lon="0.00211">
        <ele>153.52</ele>
        <time>2023-06-14T16:17:55.188Z</time>
      </trkpt>
      <trkpt lat="46.67801" lon="0.00222">
        <ele>153.59</ele>
        <time>2023-06-14T16:18:43.552Z</time>
      </trkpt>
      <trkpt lat="46.67797" lon="0.00228">
        <ele>153.62</ele>
        <time>2023-06-14T16:19:31.917Z</time>
      </trkpt>
      <trkpt lat="46.67786" lon="0.00246">
        <ele>153.72</ele>
        <time>2023-06-14T16:20:20.285Z</time>
      </trkpt>
      <trkpt lat="46.67772" lon="0.00271">
        <ele>153.91</ele>
        <time>2023-06-14T16:21:08.656Z</time>
      </trkpt>
      <trkpt lat="46.67763" lon="0.00286">
        <ele>153.96</ele>
        <time>2023-06-14T16:21:57.030Z</time>
      </trkpt>
      <trkpt lat="46.6776" lon="0.00291">
        <ele>153.95</ele>
        <time>2023-06-14T16:22:45.404Z</time>
      </trkpt>
      <trkpt lat="46.67753" lon="0.00307">
        <ele>153.95</ele>
        <time>2023-06-14T16:23:33.780Z</time>
      </trkpt>
      <trkpt lat="46.67747" lon="0.00322">
        <ele>153.97</ele>
        <time>2023-06-14T16:24:22.158Z</time>
      </trkpt>
      <trkpt lat="46.67744" lon="0.0033">
        <ele>153.99</ele>
        <time>2023-06-14T16:25:10.537Z</time>
      </trkpt>
      <trkpt lat="46.67736" lon="0.00354">
        <ele>154.07</ele>
        <time>2023-06-14T16:25:58.919Z</time>
      </trkpt>
      <trkpt lat="46.67725" lon="0.00389">
        <ele>154.15</ele>
        <time>2023-06-14T16:26:47.306Z</time>
      </trkpt>
      <trkpt lat="46.67715" lon="0.00418">
        <ele>154.27</ele>
        <time>2023-06-14T16:27:35.696Z</time>
      </trkpt>
      <trkpt lat="46.67713" lon="0.00423">
        <ele>154.28</ele>
        <time>2023-06-14T16:28:24.087Z</time>
      </trkpt>
      <trkpt lat="46.67708" lon="0.00442">
        <ele>154.32</ele>
        <time>2023-06-14T16:29:12.480Z</time>
      </trkpt>
      <trkpt lat="46.67703" lon="0.0046">
        <ele>154.39</ele>
        <time>2023-06-14T16:30:00.875Z</time>
      </trkpt>
      <trkpt lat="46.677" lon="0.00472">
        <ele>154.48</ele>
        <time>2023-06-14T16:30:49.272Z</time>
      </trkpt>
      <trkpt lat="46.67691" lon="0.00502">
        <ele>154.75</ele>
        <time>2023-06-14T16:31:37.672Z</time>
      </trkpt>
      <trkpt lat="46.67687" lon="0.00517">
        <ele>154.86</ele>
        <time>2023-06-14T16:32:26.074Z</time>
      </trkpt>
      <trkpt lat="46.67685" lon="0.00526">
        <ele>154.93</ele>
        <time>2023-06-14T16:33:14.477Z</time>
      </trkpt>
      <trkpt lat="46.67679" lon="0.00551">
        <ele>155.17</ele>
        <time>2023-06-14T16:34:02.883Z</time>
      </trkpt>
      <trkpt lat="46.67676" lon="0.00564">
        <ele>155.31</ele>
        <time>2023-06-14T16:34:51.290Z</time>
      </trkpt>
      <trkpt lat="46.67674" lon="0.00576">
        <ele>155.44</ele>
        <time>2023-06-14T16:35:39.699Z</time>
      </trkpt>
      <trkpt lat="46.67669" lon="0.00607">
        <ele>155.84</ele>
        <time>2023-06-14T16:36:28.111Z</time>
      </trkpt>
      <trkpt lat="46.67663" lon="0.00645">
        <ele>156.2</ele>
        <time>2023-06-14T16:37:16.528Z</time>
      </trkpt>
      <trkpt lat="46.67661" lon="0.00661">
        <ele>156.37</ele>
        <time>2023-06-14T16:38:04.946Z</time>
      </trkpt>
      <trkpt lat="46.67661" lon="0.00665">
        <ele>156.42</ele>
        <time>2023-06-14T16:38:53.365Z</time>
      </trkpt>
      <trkpt lat="46.67657" lon="0.00696">
        <ele>156.51</ele>
        <time>2023-06-14T16:39:41.787Z</time>
      </trkpt>
      <trkpt lat="46.67654" lon="0.00724">
        <ele>156.65</ele>
        <time>2023-06-14T16:40:30.212Z</time>
      </trkpt>
      <trkpt lat="46.67653" lon="0.00728">
        <ele>156.67</ele>
        <time>2023-06-14T16:41:18.638Z</time>
      </trkpt>
      <trkpt lat="46.67647" lon="0.00772">
        <ele>156.98</ele>
        <time>2023-06-14T16:42:07.069Z</time>
      </trkpt>
      <trkpt lat="46.67642" lon="0.00803">
        <ele>157.18</ele>
        <time>2023-06-14T16:42:55.503Z</time>
      </trkpt>
      <trkpt lat="46.67636" lon="0.00841">
        <ele>157.51</ele>
        <time>2023-06-14T16:43:43.942Z</time>
      </trkpt>
      <trkpt lat="46.67633" lon="0.00863">
        <ele>157.62</ele>
        <time>2023-06-14T16:44:32.383Z</time>
      </trkpt>
      <trkpt lat="46.6763" lon="0.00891">
        <ele>157.77</ele>
        <time>2023-06-14T16:45:20.827Z</time>
      </trkpt>
      <trkpt lat="46.67626" lon="0.0093">
        <ele>157.53</ele>
        <time>2023-06-14T16:46:09.276Z</time>
      </trkpt>
      <trkpt lat="46.67622" lon="0.0095">
        <ele>157.41</ele>
        <time>2023-06-14T16:46:57.727Z</time>
      </trkpt>
      <trkpt lat="46.67624" lon="0.00953">
        <ele>157.39</ele>
        <time>2023-06-14T16:47:46.178Z</time>
      </trkpt>
      <trkpt lat="46.67626" lon="0.00956">
        <ele>157.38</ele>
        <time>2023-06-14T16:48:34.630Z</time>
      </trkpt>
      <trkpt lat="46.67622" lon="0.00969">
        <ele>157.35</ele>
        <time>2023-06-14T16:49:23.083Z</time>
      </trkpt>
      <trkpt lat="46.67621" lon="0.00974">
        <ele>157.13</ele>
        <time>2023-06-14T16:50:11.537Z</time>
      </trkpt>
      <trkpt lat="46.67621" lon="0.00975">
        <ele>157.13</ele>
        <time>2023-06-14T16:50:59.991Z</time>
      </trkpt>
      <trkpt lat="46.6762" lon="0.00982">
        <ele>156.96</ele>
        <time>2023-06-14T16:51:48.446Z</time>
      </trkpt>
      <trkpt lat="46.67619" lon="0.00988">
        <ele>156.86</ele>
        <time>2023-06-14T16:52:36.901Z</time>
      </trkpt>
      <trkpt lat="46.67618" lon="0.00994">
        <ele>156.82</ele>
        <time>2023-06-14T16:53:25.357Z</time>
      </trkpt>
      <trkpt lat="46.67617" lon="0.01001">
        <ele>156.82</ele>
        <time>2023-06-14T16:54:13.814Z</time>
      </trkpt>
      <trkpt lat="46.67617" lon="0.01007">
        <ele>156.85</ele>
        <time>2023-06-14T16:55:02.272Z</time>
      </trkpt>
      <trkpt lat="46.67616" lon="0.01012">
        <ele>156.9</ele>
        <time>2023-06-14T16:55:50.730Z</time>
      </trkpt>
      <trkpt lat="46.67615" lon="0.01014">
        <ele>156.93</ele>
        <time>2023-06-14T16:56:39.188Z</time>
      </trkpt>
      <trkpt lat="46.67613" lon="0.01019">
        <ele>157.05</ele>
        <time>2023-06-14T16:57:27.647Z</time>
      </trkpt>
      <trkpt lat="46.6761" lon="0.01026">
        <ele>157.23</ele>
        <time>2023-06-14T16:58:16.107Z</time>
      </trkpt>
      <trkpt lat="46.67613" lon="0.01037">
        <ele>157.5</ele>
        <time>2023-06-14T16:59:04.568Z</time>
      </trkpt>
      <trkpt lat="46.67614" lon="0.01042">
        <ele>157.61</ele>
        <time>2023-06-14T16:59:53.030Z</time>
      </trkpt>
      <trkpt lat="46.67614" lon="0.01043">
        <ele>157.61</ele>
        <time>2023-06-14T17:00:41.492Z</time>
      </trkpt>
      <trkpt lat="46.67613" lon="0.01056">
        <ele>157.73</ele>
        <time>2023-06-14T17:01:29.955Z</time>
      </trkpt>
      <trkpt lat="46.67611" lon="0.01069">
        <ele>157.8</ele>
        <time>2023-06-14T17:02:18.420Z</time>
      </trkpt>
      <trkpt lat="46.67611" lon="0.01075">
        <ele>157.82</ele>
        <time>2023-06-14T17:03:06.886Z</time>
      </trkpt>
      <trkpt lat="46.67609" lon="0.01088">
        <ele>157.8</ele>
        <time>2023-06-14T17:03:55.353Z</time>
      </trkpt>
      <trkpt lat="46.67607" lon="0.01114">
        <ele>157.7</ele>
        <time>2023-06-14T17:04:43.823Z</time>
      </trkpt>
      <trkpt lat="46.67605" lon="0.01133">
        <ele>157.59</ele>
        <time>2023-06-14T17:05:32.295Z</time>
      </trkpt>
      <trkpt lat="46.67605" lon="0.01133">
        <ele>157.59</ele>
        <time>2023-06-14T17:06:20.767Z</time>
      </trkpt>
      <trkpt lat="46.67605" lon="0.0114">
        <ele>157.59</ele>
        <time>2023-06-14T17:07:09.240Z</time>
      </trkpt>
      <trkpt lat="46.67604" lon="0.01146">
        <ele>157.63</ele>
        <time>2023-06-14T17:07:57.713Z</time>
      </trkpt>
      <trkpt lat="46.67603" lon="0.01166">
        <ele>157.85</ele>
        <time>2023-06-14T17:08:46.189Z</time>
      </trkpt>
      <trkpt lat="46.67603" lon="0.01173">
        <ele>157.88</ele>
        <time>2023-06-14T17:09:34.665Z</time>
      </trkpt>
      <trkpt lat="46.67602" lon="0.01179">
        <ele>157.86</ele>
        <time>2023-06-14T17:10:23.142Z</time>
      </trkpt>
      <trkpt lat="46.67601" lon="0.01199">
        <ele>157.68</ele>
        <time>2023-06-14T17:11:11.621Z</time>
      </trkpt>
      <trkpt lat="46.67601" lon="0.01205">
        <ele>157.66</ele>
        <time>2023-06-14T17:12:00.101Z</time>
      </trkpt>
      <trkpt lat="46.676" lon="0.01212">
        <ele>157.7</ele>
        <time>2023-06-14T17:12:48.582Z</time>
      </trkpt>
      <trkpt lat="46.676" lon="0.01225">
        <ele>157.85</ele>
        <time>2023-06-14T17:13:37.064Z</time>
      </trkpt>
      <trkpt lat="46.67599" lon="0.01231">
        <ele>157.94</ele>
        <time>2023-06-14T17:14:25.547Z</time>
      </trkpt>
      <trkpt lat="46.67598" lon="0.01251">
        <ele>158.28</ele>
        <time>2023-06-14T17:15:14.032Z</time>
      </trkpt>
      <trkpt lat="46.67598" lon="0.01257">
        <ele>158.35</ele>
        <time>2023-06-14T17:16:02.518Z</time>
      </trkpt>
      <trkpt lat="46.67597" lon="0.01264">
        <ele>158.36</ele>
        <time>2023-06-14T17:16:51.004Z</time>
      </trkpt>
      <trkpt lat="46.67596" lon="0.01283">
        <ele>158.24</ele>
        <time>2023-06-14T17:17:39.493Z</time>
      </trkpt>
      <trkpt lat="46.67596" lon="0.0129">
        <ele>158.22</ele>
        <time>2023-06-14T17:18:27.982Z</time>
      </trkpt>
      <trkpt lat="46.67594" lon="0.01323">
        <ele>158.27</ele>
        <time>2023-06-14T17:19:16.475Z</time>
      </trkpt>
      <trkpt lat="46.67594" lon="0.01323">
        <ele>158.27</ele>
        <time>2023-06-14T17:20:04.968Z</time>
      </trkpt>
      <trkpt lat="46.67592" lon="0.01342">
        <ele>158.19</ele>
        <time>2023-06-14T17:20:53.463Z</time>
      </trkpt>
      <trkpt lat="46.67592" lon="0.01348">
        <ele>158.19</ele>
        <time>2023-06-14T17:21:41.959Z</time>
      </trkpt>
      <trkpt lat="46.67588" lon="0.01394">
        <ele>158.3</ele>
        <time>2023-06-14T17:22:30.460Z</time>
      </trkpt>
      <trkpt lat="46.67588" lon="0.014">
        <ele>158.35</ele>
        <time>2023-06-14T17:23:18.962Z</time>
      </trkpt>
      <trkpt lat="46.67587" lon="0.01407">
        <ele>158.44</ele>
        <time>2023-06-14T17:24:07.464Z</time>
      </trkpt>
      <trkpt lat="46.67586" lon="0.0142">
        <ele>158.69</ele>
        <time>2023-06-14T17:24:55.968Z</time>
      </trkpt>
      <trkpt lat="46.67586" lon="0.01426">
        <ele>158.79</ele>
        <time>2023-06-14T17:25:44.472Z</time>
      </trkpt>
      <trkpt lat="46.67583" lon="0.01459">
        <ele>159.15</ele>
        <time>2023-06-14T17:26:32.980Z</time>
      </trkpt>
      <trkpt lat="46.67581" lon="0.01478">
        <ele>159.44</ele>
        <time>2023-06-14T17:27:21.490Z</time>
      </trkpt>
      <trkpt lat="46.6758" lon="0.01491">
        <ele>159.68</ele>
        <time>2023-06-14T17:28:10.002Z</time>
      </trkpt>
      <trkpt lat="46.67579" lon="0.01506">
        <ele>160.05</ele>
        <time>2023-06-14T17:28:58.515Z</time>
      </trkpt>
      <trkpt lat="46.67578" lon="0.01517">
        <ele>160.33</ele>
        <time>2023-06-14T17:29:47.029Z</time>
      </trkpt>
      <trkpt lat="46.67578" lon="0.01523">
        <ele>160.44</ele>
        <time>2023-06-14T17:30:35.544Z</time>
      </trkpt>
      <trkpt lat="46.67577" lon="0.01543">
        <ele>160.68</ele>
        <time>2023-06-14T17:31:24.061Z</time>
      </trkpt>
      <trkpt lat="46.67577" lon="0.0155">
        <ele>160.78</ele>
        <time>2023-06-14T17:32:12.579Z</time>
      </trkpt>
      <trkpt lat="46.67576" lon="0.01556">
        <ele>160.9</ele>
        <time>2023-06-14T17:33:01.098Z</time>
      </trkpt>
      <trkpt lat="46.67575" lon="0.01576">
        <ele>161.32</ele>
        <time>2023-06-14T17:33:49.619Z</time>
      </trkpt>
      <trkpt lat="46.67575" lon="0.01582">
        <ele>161.43</ele>
        <time>2023-06-14T17:34:38.141Z</time>
      </trkpt>
      <trkpt lat="46.67574" lon="0.01595">
        <ele>161.57</ele>
        <time>2023-06-14T17:35:26.664Z</time>
      </trkpt>
      <trkpt lat="46.67574" lon="0.01602">
        <ele>161.59</ele>
        <time>2023-06-14T17:36:15.188Z</time>
      </trkpt>
      <trkpt lat="46.67573" lon="0.01615">
        <ele>161.55</ele>
        <time>2023-06-14T17:37:03.713Z</time>
      </trkpt>
      <trkpt lat="46.67573" lon="0.01628">
        <ele>161.4</ele>
        <time>2023-06-14T17:37:52.240Z</time>
      </trkpt>
      <trkpt lat="46.67572" lon="0.01639">
        <ele>161.19</ele>
        <time>2023-06-14T17:38:40.768Z</time>
      </trkpt>
      <trkpt lat="46.6757" lon="0.01667">
        <ele>160.7</ele>
        <time>2023-06-14T17:39:29.299Z</time>
      </trkpt>
      <trkpt lat="46.67569" lon="0.0168">
        <ele>160.52</ele>
        <time>2023-06-14T17:40:17.831Z</time>
      </trkpt>
      <trkpt lat="46.67567" lon="0.01699">
        <ele>160.35</ele>
        <time>2023-06-14T17:41:06.366Z</time>
      </trkpt>
      <trkpt lat="46.67567" lon="0.01704">
        <ele>160.32</ele>
        <time>2023-06-14T17:41:54.901Z</time>
      </trkpt>
      <trkpt lat="46.67566" lon="0.01712">
        <ele>160.28</ele>
        <time>2023-06-14T17:42:43.437Z</time>
      </trkpt>
      <trkpt lat="46.67565" lon="0.01719">
        <ele>160.27</ele>
        <time>2023-06-14T17:43:31.974Z</time>
      </trkpt>
      <trkpt lat="46.67563" lon="0.01738">
        <ele>160.33</ele>
        <time>2023-06-14T17:44:20.513Z</time>
      </trkpt>
      <trkpt lat="46.67563" lon="0.01744">
        <ele>160.33</ele>
        <time>2023-06-14T17:45:09.053Z</time>
      </trkpt>
      <trkpt lat="46.67562" lon="0.01751">
        <ele>160.3</ele>
        <time>2023-06-14T17:45:57.593Z</time>
      </trkpt>
      <trkpt lat="46.67561" lon="0.01757">
        <ele>160.24</ele>
        <time>2023-06-14T17:46:46.134Z</time>
      </trkpt>
      <trkpt lat="46.6756" lon="0.0177">
        <ele>160.07</ele>
        <time>2023-06-14T17:47:34.677Z</time>
      </trkpt>
      <trkpt lat="46.67558" lon="0.0179">
        <ele>159.74</ele>
        <time>2023-06-14T17:48:23.222Z</time>
      </trkpt>
      <trkpt lat="46.67557" lon="0.01803">
        <ele>159.7</ele>
        <time>2023-06-14T17:49:11.768Z</time>
      </trkpt>
      <trkpt lat="46.67556" lon="0.01809">
        <ele>159.66</ele>
        <time>2023-06-14T17:50:00.315Z</time>
      </trkpt>
      <trkpt lat="46.67553" lon="0.01835">
        <ele>159.33</ele>
        <time>2023-06-14T17:50:48.865Z</time>
      </trkpt>
      <trkpt lat="46.67551" lon="0.01854">
        <ele>159.11</ele>
        <time>2023-06-14T17:51:37.417Z</time>
      </trkpt>
      <trkpt lat="46.6755" lon="0.01867">
        <ele>158.89</ele>
        <time>2023-06-14T17:52:25.970Z</time>
      </trkpt>
      <trkpt lat="46.67547" lon="0.01893">
        <ele>158.36</ele>
        <time>2023-06-14T17:53:14.526Z</time>
      </trkpt>
      <trkpt lat="46.67546" lon="0.01906">
        <ele>158.12</ele>
        <time>2023-06-14T17:54:03.084Z</time>
      </trkpt>
      <trkpt lat="46.67545" lon="0.01912">
        <ele>157.97</ele>
        <time>2023-06-14T17:54:51.642Z</time>
      </trkpt>
      <trkpt lat="46.67545" lon="0.01919">
        <ele>157.79</ele>
        <time>2023-06-14T17:55:40.201Z</time>
      </trkpt>
      <trkpt lat="46.67543" lon="0.01938">
        <ele>157.16</ele>
        <time>2023-06-14T17:56:28.762Z</time>
      </trkpt>
      <trkpt lat="46.67541" lon="0.01953">
        <ele>156.7</ele>
        <time>2023-06-14T17:57:17.325Z</time>
      </trkpt>
      <trkpt lat="46.67541" lon="0.01958">
        <ele>156.56</ele>
        <time>2023-06-14T17:58:05.888Z</time>
      </trkpt>
      <trkpt lat="46.6754" lon="0.01977">
        <ele>155.85</ele>
        <time>2023-06-14T17:58:54.454Z</time>
      </trkpt>
      <trkpt lat="46.67539" lon="0.02003">
        <ele>154.97</ele>
        <time>2023-06-14T17:59:43.022Z</time>
      </trkpt>
      <trkpt lat="46.67539" lon="0.0201">
        <ele>154.78</ele>
        <time>2023-06-14T18:00:31.591Z</time>
      </trkpt>
      <trkpt lat="46.67537" lon="0.02036">
        <ele>154.11</ele>
        <time>2023-06-14T18:01:20.163Z</time>
      </trkpt>
      <trkpt lat="46.67537" lon="0.02042">
        <ele>153.88</ele>
        <time>2023-06-14T18:02:08.736Z</time>
      </trkpt>
      <trkpt lat="46.67537" lon="0.02047">
        <ele>153.7</ele>
        <time>2023-06-14T18:02:57.309Z</time>
      </trkpt>
      <trkpt lat="46.67534" lon="0.02061">
        <ele>153.14</ele>
        <time>2023-06-14T18:03:45.884Z</time>
      </trkpt>
      <trkpt lat="46.67533" lon="0.02067">
        <ele>152.93</ele>
        <time>2023-06-14T18:04:34.460Z</time>
      </trkpt>
      <trkpt lat="46.67531" lon="0.02074">
        <ele>152.74</ele>
        <time>2023-06-14T18:05:23.036Z</time>
      </trkpt>
      <trkpt lat="46.67527" lon="0.02094">
        <ele>152.21</ele>
        <time>2023-06-14T18:06:11.615Z</time>
      </trkpt>
      <trkpt lat="46.67523" lon="0.02117">
        <ele>151.64</ele>
        <time>2023-06-14T18:07:00.196Z</time>
      </trkpt>
      <trkpt lat="46.67519" lon="0.02149">
        <ele>150.91</ele>
        <time>2023-06-14T18:07:48.781Z</time>
      </trkpt>
      <trkpt lat="46.67517" lon="0.0216">
        <ele>150.54</ele>
        <time>2023-06-14T18:08:37.367Z</time>
      </trkpt>
      <trkpt lat="46.67516" lon="0.02168">
        <ele>150.29</ele>
        <time>2023-06-14T18:09:25.954Z</time>
      </trkpt>
      <trkpt lat="46.67514" lon="0.02187">
        <ele>149.62</ele>
        <time>2023-06-14T18:10:14.543Z</time>
      </trkpt>
      <trkpt lat="46.67513" lon="0.022">
        <ele>149.21</ele>
        <time>2023-06-14T18:11:03.134Z</time>
      </trkpt>
      <trkpt lat="46.67511" lon="0.02212">
        <ele>148.87</ele>
        <time>2023-06-14T18:11:51.726Z</time>
      </trkpt>
      <trkpt lat="46.6751" lon="0.02219">
        <ele>148.72</ele>
        <time>2023-06-14T18:12:40.319Z</time>
      </trkpt>
      <trkpt lat="46.67508" lon="0.02238">
        <ele>148.36</ele>
        <time>2023-06-14T18:13:28.914Z</time>
      </trkpt>
      <trkpt lat="46.67507" lon="0.02249">
        <ele>148.16</ele>
        <time>2023-06-14T18:14:17.510Z</time>
      </trkpt>
      <trkpt lat="46.67507" lon="0.02251">
        <ele>148.14</ele>
        <time>2023-06-14T18:15:06.106Z</time>
      </trkpt>
      <trkpt lat="46.67505" lon="0.02257">
        <ele>148.05</ele>
        <time>2023-06-14T18:15:54.703Z</time>
      </trkpt>
      <trkpt lat="46.67501" lon="0.02275">
        <ele>147.84</ele>
        <time>2023-06-14T18:16:43.302Z</time>
      </trkpt>
      <trkpt lat="46.675" lon="0.02281">
        <ele>147.75</ele>
        <time>2023-06-14T18:17:31.902Z</time>
      </trkpt>
      <trkpt lat="46.67498" lon="0.02292">
        <ele>147.53</ele>
        <time>2023-06-14T18:18:20.503Z</time>
      </trkpt>
      <trkpt lat="46.67498" lon="0.02294">
        <ele>147.5</ele>
        <time>2023-06-14T18:19:09.104Z</time>
      </trkpt>
      <trkpt lat="46.67492" lon="0.02312">
        <ele>147.06</ele>
        <time>2023-06-14T18:19:57.707Z</time>
      </trkpt>
      <trkpt lat="46.67491" lon="0.02318">
        <ele>146.94</ele>
        <time>2023-06-14T18:20:46.311Z</time>
      </trkpt>
      <trkpt lat="46.67489" lon="0.02324">
        <ele>146.84</ele>
        <time>2023-06-14T18:21:34.916Z</time>
      </trkpt>
      <trkpt lat="46.67486" lon="0.02335">
        <ele>146.7</ele>
        <time>2023-06-14T18:22:23.522Z</time>
      </trkpt>
      <trkpt lat="46.67479" lon="0.02359">
        <ele>146.34</ele>
        <time>2023-06-14T18:23:12.131Z</time>
      </trkpt>
      <trkpt lat="46.67472" lon="0.02383">
        <ele>146.12</ele>
        <time>2023-06-14T18:24:00.743Z</time>
      </trkpt>
      <trkpt lat="46.67464" lon="0.02413">
        <ele>145.71</ele>
        <time>2023-06-14T18:24:49.358Z</time>
      </trkpt>
      <trkpt lat="46.6746" lon="0.02425">
        <ele>145.5</ele>
        <time>2023-06-14T18:25:37.975Z</time>
      </trkpt>
      <trkpt lat="46.67455" lon="0.02443">
        <ele>145.12</ele>
        <time>2023-06-14T18:26:26.594Z</time>
      </trkpt>
      <trkpt lat="46.67454" lon="0.02449">
        <ele>145.03</ele>
        <time>2023-06-14T18:27:15.214Z</time>
      </trkpt>
      <trkpt lat="46.67449" lon="0.02465">
        <ele>144.84</ele>
        <time>2023-06-14T18:28:03.836Z</time>
      </trkpt>
      <trkpt lat="46.67447" lon="0.02473">
        <ele>144.76</ele>
        <time>2023-06-14T18:28:52.459Z</time>
      </trkpt>
      <trkpt lat="46.67444" lon="0.02485">
        <ele>144.57</ele>
        <time>2023-06-14T18:29:41.083Z</time>
      </trkpt>
      <trkpt lat="46.67441" lon="0.02497">
        <ele>144.36</ele>
        <time>2023-06-14T18:30:29.708Z</time>
      </trkpt>
      <trkpt lat="46.67434" lon="0.02528">
        <ele>143.78</ele>
        <time>2023-06-14T18:31:18.337Z</time>
      </trkpt>
      <trkpt lat="46.67432" lon="0.02538">
        <ele>143.7</ele>
        <time>2023-06-14T18:32:06.967Z</time>
      </trkpt>
      <trkpt lat="46.67431" lon="0.02547">
        <ele>143.64</ele>
        <time>2023-06-14T18:32:55.598Z</time>
      </trkpt>
      <trkpt lat="46.67428" lon="0.02559">
        <ele>143.52</ele>
        <time>2023-06-14T18:33:44.231Z</time>
      </trkpt>
      <trkpt lat="46.67425" lon="0.02578">
        <ele>143.24</ele>
        <time>2023-06-14T18:34:32.866Z</time>
      </trkpt>
      <trkpt lat="46.67424" lon="0.02585">
        <ele>143.17</ele>
        <time>2023-06-14T18:35:21.501Z</time>
      </trkpt>
      <trkpt lat="46.67424" lon="0.02586">
        <ele>143.16</ele>
        <time>2023-06-14T18:36:10.137Z</time>
      </trkpt>
      <trkpt lat="46.67423" lon="0.02591">
        <ele>143.14</ele>
        <time>2023-06-14T18:36:58.773Z</time>
      </trkpt>
      <trkpt lat="46.67418" lon="0.02609">
        <ele>143.1</ele>
        <time>2023-06-14T18:37:47.411Z</time>
      </trkpt>
      <trkpt lat="46.6741" lon="0.02641">
        <ele>142.95</ele>
        <time>2023-06-14T18:38:36.053Z</time>
      </trkpt>
      <trkpt lat="46.6741" lon="0.02641">
        <ele>142.95</ele>
        <time>2023-06-14T18:39:24.695Z</time>
      </trkpt>
      <trkpt lat="46.67408" lon="0.02646">
        <ele>142.89</ele>
        <time>2023-06-14T18:40:13.338Z</time>
      </trkpt>
      <trkpt lat="46.67406" lon="0.02651">
        <ele>142.77</ele>
        <time>2023-06-14T18:41:01.981Z</time>
      </trkpt>
      <trkpt lat="46.67402" lon="0.02663">
        <ele>142.43</ele>
        <time>2023-06-14T18:41:50.626Z</time>
      </trkpt>
      <trkpt lat="46.674" lon="0.02669">
        <ele>142.3</ele>
        <time>2023-06-14T18:42:39.272Z</time>
      </trkpt>
      <trkpt lat="46.67398" lon="0.02674">
        <ele>142.27</ele>
        <time>2023-06-14T18:43:27.918Z</time>
      </trkpt>
      <trkpt lat="46.67395" lon="0.0268">
        <ele>142.31</ele>
        <time>2023-06-14T18:44:16.565Z</time>
      </trkpt>
      <trkpt lat="46.67391" lon="0.02692">
        <ele>142.43</ele>
        <time>2023-06-14T18:45:05.213Z</time>
      </trkpt>
      <trkpt lat="46.67389" lon="0.02697">
        <ele>142.43</ele>
        <time>2023-06-14T18:45:53.862Z</time>
      </trkpt>
      <trkpt lat="46.67382" lon="0.02715">
        <ele>142.31</ele>
        <time>2023-06-14T18:46:42.513Z</time>
      </trkpt>
      <trkpt lat="46.67374" lon="0.02737">
        <ele>142.25</ele>
        <time>2023-06-14T18:47:31.167Z</time>
      </trkpt>
      <trkpt lat="46.6737" lon="0.02748">
        <ele>142.2</ele>
        <time>2023-06-14T18:48:19.822Z</time>
      </trkpt>
      <trkpt lat="46.67368" lon="0.02755">
        <ele>142.17</ele>
        <time>2023-06-14T18:49:08.478Z</time>
      </trkpt>
      <trkpt lat="46.67363" lon="0.02773">
        <ele>142.05</ele>
        <time>2023-06-14T18:49:57.136Z</time>
      </trkpt>
      <trkpt lat="46.67361" lon="0.02779">
        <ele>141.95</ele>
        <time>2023-06-14T18:50:45.795Z</time>
      </trkpt>
      <trkpt lat="46.67359" lon="0.02785">
        <ele>141.81</ele>
        <time>2023-06-14T18:51:34.455Z</time>
      </trkpt>
      <trkpt lat="46.67356" lon="0.02797">
        <ele>141.49</ele>
        <time>2023-06-14T18:52:23.116Z</time>
      </trkpt>
      <trkpt lat="46.67354" lon="0.02803">
        <ele>141.39</ele>
        <time>2023-06-14T18:53:11.778Z</time>
      </trkpt>
      <trkpt lat="46.67348" lon="0.02821">
        <ele>141.18</ele>
        <time>2023-06-14T18:54:00.442Z</time>
      </trkpt>
      <trkpt lat="46.67343" lon="0.02839">
        <ele>140.86</ele>
        <time>2023-06-14T18:54:49.108Z</time>
      </trkpt>
      <trkpt lat="46.6734" lon="0.02851">
        <ele>140.74</ele>
        <time>2023-06-14T18:55:37.776Z</time>
      </trkpt>
      <trkpt lat="46.67336" lon="0.02863">
        <ele>140.69</ele>
        <time>2023-06-14T18:56:26.445Z</time>
      </trkpt>
      <trkpt lat="46.67333" lon="0.02875">
        <ele>140.71</ele>
        <time>2023-06-14T18:57:15.116Z</time>
      </trkpt>
      <trkpt lat="46.67324" lon="0.02905">
        <ele>140.92</ele>
        <time>2023-06-14T18:58:03.790Z</time>
      </trkpt>
      <trkpt lat="46.67318" lon="0.02923">
        <ele>141.13</ele>
        <time>2023-06-14T18:58:52.466Z</time>
      </trkpt>
      <trkpt lat="46.67317" lon="0.02929">
        <ele>141.13</ele>
        <time>2023-06-14T18:59:41.143Z</time>
      </trkpt>
      <trkpt lat="46.67315" lon="0.02935">
        <ele>141.07</ele>
        <time>2023-06-14T19:00:29.821Z</time>
      </trkpt>
      <trkpt lat="46.67311" lon="0.02947">
        <ele>140.88</ele>
        <time>2023-06-14T19:01:18.500Z</time>
      </trkpt>
      <trkpt lat="46.6731" lon="0.02953">
        <ele>140.8</ele>
        <time>2023-06-14T19:02:07.180Z</time>
      </trkpt>
      <trkpt lat="46.67304" lon="0.02971">
        <ele>140.68</ele>
        <time>2023-06-14T19:02:55.862Z</time>
      </trkpt>
      <trkpt lat="46.67303" lon="0.02977">
        <ele>140.62</ele>
        <time>2023-06-14T19:03:44.545Z</time>
      </trkpt>
      <trkpt lat="46.67292" lon="0.03013">
        <ele>140.05</ele>
        <time>2023-06-14T19:04:33.232Z</time>
      </trkpt>
      <trkpt lat="46.67288" lon="0.03025">
        <ele>139.91</ele>
        <time>2023-06-14T19:05:21.921Z</time>
      </trkpt>
      <trkpt lat="46.67272" lon="0.03081">
        <ele>140.13</ele>
        <time>2023-06-14T19:06:10.616Z</time>
      </trkpt>
      <trkpt lat="46.67211" lon="0.0332">
        <ele>141.09</ele>
        <time>2023-06-14T19:06:59.339Z</time>
      </trkpt>
      <trkpt lat="46.67155" lon="0.03496">
        <ele>141.82</ele>
        <time>2023-06-14T19:07:48.084Z</time>
      </trkpt>
      <trkpt lat="46.67113" lon="0.03616">
        <ele>142.32</ele>
        <time>2023-06-14T19:08:36.844Z</time>
      </trkpt>
      <trkpt lat="46.67091" lon="0.03694">
        <ele>142.64</ele>
        <time>2023-06-14T19:09:25.613Z</time>
      </trkpt>
      <trkpt lat="46.66973" lon="0.04117">
        <ele>143.22</ele>
        <time>2023-06-14T19:10:14.432Z</time>
      </trkpt>
      <trkpt lat="46.66923" lon="0.0434">
        <ele>143.52</ele>
        <time>2023-06-14T19:11:03.277Z</time>
      </trkpt>
      <trkpt lat="46.669" lon="0.04449">
        <ele>143.67</ele>
        <time>2023-06-14T19:11:52.135Z</time>
      </trkpt>
      <trkpt lat="46.66891" lon="0.04492">
        <ele>143.89</ele>
        <time>2023-06-14T19:12:40.998Z</time>
      </trkpt>
      <trkpt lat="46.66886" lon="0.04506">
        <ele>143.96</ele>
        <time>2023-06-14T19:13:29.862Z</time>
      </trkpt>
      <trkpt lat="46.66937" lon="0.04622">
        <ele>144.65</ele>
        <time>2023-06-14T19:14:18.742Z</time>
      </trkpt>
      <trkpt lat="46.67071" lon="0.04884">
        <ele>146.28</ele>
        <time>2023-06-14T19:15:07.657Z</time>
      </trkpt>
      <trkpt lat="46.67091" lon="0.04923">
        <ele>147</ele>
        <time>2023-06-14T19:15:56.578Z</time>
      </trkpt>
      <trkpt lat="46.67091" lon="0.04926">
        <ele>147.05</ele>
        <time>2023-06-14T19:16:45.499Z</time>
      </trkpt>
      <trkpt lat="46.67092" lon="0.04935">
        <ele>147.15</ele>
        <time>2023-06-14T19:17:34.421Z</time>
      </trkpt>
      <trkpt lat="46.67089" lon="0.04936">
        <ele>147.2</ele>
        <time>2023-06-14T19:18:23.344Z</time>
      </trkpt>
      <trkpt lat="46.67077" lon="0.04943">
        <ele>147.35</ele>
        <time>2023-06-14T19:19:12.269Z</time>
      </trkpt>
      <trkpt lat="46.67073" lon="0.04945">
        <ele>147.37</ele>
        <time>2023-06-14T19:20:01.194Z</time>
      </trkpt>
      <trkpt lat="46.67068" lon="0.04948">
        <ele>147.41</ele>
        <time>2023-06-14T19:20:50.120Z</time>
      </trkpt>
      <trkpt lat="46.67064" lon="0.04951">
        <ele>147.42</ele>
        <time>2023-06-14T19:21:39.047Z</time>
      </trkpt>
      <trkpt lat="46.67058" lon="0.04955">
        <ele>147.38</ele>
        <time>2023-06-14T19:22:27.975Z</time>
      </trkpt>
      <trkpt lat="46.67056" lon="0.04957">
        <ele>147.38</ele>
        <time>2023-06-14T19:23:16.903Z</time>
      </trkpt>
      <trkpt lat="46.67049" lon="0.04964">
        <ele>147.3</ele>
        <time>2023-06-14T19:24:05.833Z</time>
      </trkpt>
      <trkpt lat="46.67042" lon="0.04972">
        <ele>147.17</ele>
        <time>2023-06-14T19:24:54.764Z</time>
      </trkpt>
      <trkpt lat="46.6704" lon="0.04974">
        <ele>147.12</ele>
        <time>2023-06-14T19:25:43.696Z</time>
      </trkpt>
      <trkpt lat="46.67023" lon="0.05006">
        <ele>146.59</ele>
        <time>2023-06-14T19:26:32.632Z</time>
      </trkpt>
      <trkpt lat="46.6702" lon="0.05013">
        <ele>146.49</ele>
        <time>2023-06-14T19:27:21.569Z</time>
      </trkpt>
      <trkpt lat="46.67016" lon="0.05024">
        <ele>146.35</ele>
        <time>2023-06-14T19:28:10.507Z</time>
      </trkpt>
      <trkpt lat="46.67007" lon="0.05047">
        <ele>146.12</ele>
        <time>2023-06-14T19:28:59.448Z</time>
      </trkpt>
      <trkpt lat="46.67004" lon="0.05052">
        <ele>146.04</ele>
        <time>2023-06-14T19:29:48.390Z</time>
      </trkpt>
      <trkpt lat="46.67" lon="0.05063">
        <ele>145.85</ele>
        <time>2023-06-14T19:30:37.333Z</time>
      </trkpt>
      <trkpt lat="46.66991" lon="0.05086">
        <ele>145.36</ele>
        <time>2023-06-14T19:31:26.279Z</time>
      </trkpt>
      <trkpt lat="46.66986" lon="0.05097">
        <ele>145.16</ele>
        <time>2023-06-14T19:32:15.227Z</time>
      </trkpt>
      <trkpt lat="46.6697" lon="0.05138">
        <ele>144.69</ele>
        <time>2023-06-14T19:33:04.180Z</time>
      </trkpt>
      <trkpt lat="46.66966" lon="0.05147">
        <ele>144.59</ele>
        <time>2023-06-14T19:33:53.134Z</time>
      </trkpt>
      <trkpt lat="46.66962" lon="0.05155">
        <ele>144.59</ele>
        <time>2023-06-14T19:34:42.089Z</time>
      </trkpt>
      <trkpt lat="46.66957" lon="0.05166">
        <ele>144.52</ele>
        <time>2023-06-14T19:35:31.046Z</time>
      </trkpt>
      <trkpt lat="46.66947" lon="0.05187">
        <ele>144.26</ele>
        <time>2023-06-14T19:36:20.005Z</time>
      </trkpt>
      <trkpt lat="46.66943" lon="0.05197">
        <ele>144.11</ele>
        <time>2023-06-14T19:37:08.966Z</time>
      </trkpt>
      <trkpt lat="46.66936" lon="0.05207">
        <ele>143.95</ele>
        <time>2023-06-14T19:37:57.928Z</time>
      </trkpt>
      <trkpt lat="46.66927" lon="0.0522">
        <ele>143.75</ele>
        <time>2023-06-14T19:38:46.892Z</time>
      </trkpt>
      <trkpt lat="46.66911" lon="0.05243">
        <ele>143.53</ele>
        <time>2023-06-14T19:39:35.860Z</time>
      </trkpt>
      <trkpt lat="46.66895" lon="0.05266">
        <ele>143.27</ele>
        <time>2023-06-14T19:40:24.832Z</time>
      </trkpt>
      <trkpt lat="46.66888" lon="0.05275">
        <ele>143.21</ele>
        <time>2023-06-14T19:41:13.805Z</time>
      </trkpt>
      <trkpt lat="46.66856" lon="0.0532">
        <ele>143.11</ele>
        <time>2023-06-14T19:42:02.785Z</time>
      </trkpt>
      <trkpt lat="46.6685" lon="0.05329">
        <ele>143.11</ele>
        <time>2023-06-14T19:42:51.767Z</time>
      </trkpt>
      <trkpt lat="46.66847" lon="0.05334">
        <ele>143.12</ele>
        <time>2023-06-14T19:43:40.749Z</time>
      </trkpt>
      <trkpt lat="46.66839" lon="0.05345">
        <ele>143.2</ele>
        <time>2023-06-14T19:44:29.733Z</time>
      </trkpt>
      <trkpt lat="46.66835" lon="0.05353">
        <ele>143.25</ele>
        <time>2023-06-14T19:45:18.718Z</time>
      </trkpt>
      <trkpt lat="46.66825" lon="0.0537">
        <ele>143.32</ele>
        <time>2023-06-14T19:46:07.706Z</time>
      </trkpt>
      <trkpt lat="46.66824" lon="0.05373">
        <ele>143.34</ele>
        <time>2023-06-14T19:46:56.694Z</time>
      </trkpt>
      <trkpt lat="46.66817" lon="0.0539">
        <ele>143.35</ele>
        <time>2023-06-14T19:47:45.684Z</time>
      </trkpt>
      <trkpt lat="46.66815" lon="0.05409">
        <ele>143.37</ele>
        <time>2023-06-14T19:48:34.676Z</time>
      </trkpt>
      <trkpt lat="46.66811" lon="0.05441">
        <ele>143.48</ele>
        <time>2023-06-14T19:49:23.672Z</time>
      </trkpt>
      <trkpt lat="46.6681" lon="0.05454">
        <ele>143.48</ele>
        <time>2023-06-14T19:50:12.669Z</time>
      </trkpt>
      <trkpt lat="46.66806" lon="0.05486">
        <ele>143.44</ele>
        <time>2023-06-14T19:51:01.670Z</time>
      </trkpt>
      <trkpt lat="46.66803" lon="0.05511">
        <ele>143.47</ele>
        <time>2023-06-14T19:51:50.674Z</time>
      </trkpt>
      <trkpt lat="46.66802" lon="0.05524">
        <ele>143.45</ele>
        <time>2023-06-14T19:52:39.679Z</time>
      </trkpt>
      <trkpt lat="46.66799" lon="0.0555">
        <ele>143.32</ele>
        <time>2023-06-14T19:53:28.687Z</time>
      </trkpt>
      <trkpt lat="46.66791" lon="0.05627">
        <ele>143.05</ele>
        <time>2023-06-14T19:54:17.704Z</time>
      </trkpt>
      <trkpt lat="46.66788" lon="0.05652">
        <ele>142.84</ele>
        <time>2023-06-14T19:55:06.723Z</time>
      </trkpt>
      <trkpt lat="46.66786" lon="0.05665">
        <ele>142.7</ele>
        <time>2023-06-14T19:55:55.744Z</time>
      </trkpt>
      <trkpt lat="46.66784" lon="0.05686">
        <ele>142.39</ele>
        <time>2023-06-14T19:56:44.767Z</time>
      </trkpt>
      <trkpt lat="46.66783" lon="0.05691">
        <ele>142.33</ele>
        <time>2023-06-14T19:57:33.791Z</time>
      </trkpt>
      <trkpt lat="46.6678" lon="0.05716">
        <ele>142.05</ele>
        <time>2023-06-14T19:58:22.818Z</time>
      </trkpt>
      <trkpt lat="46.66778" lon="0.05736">
        <ele>141.81</ele>
        <time>2023-06-14T19:59:11.847Z</time>
      </trkpt>
      <trkpt lat="46.66774" lon="0.05761">
        <ele>141.53</ele>
        <time>2023-06-14T20:00:00.879Z</time>
      </trkpt>
      <trkpt lat="46.66769" lon="0.058">
        <ele>140.96</ele>
        <time>2023-06-14T20:00:49.915Z</time>
      </trkpt>
      <trkpt lat="46.66765" lon="0.05832">
        <ele>140.56</ele>
        <time>2023-06-14T20:01:38.955Z</time>
      </trkpt>
      <trkpt lat="46.66764" lon="0.05844">
        <ele>140.34</ele>
        <time>2023-06-14T20:02:27.996Z</time>
      </trkpt>
      <trkpt lat="46.66761" lon="0.05864">
        <ele>139.95</ele>
        <time>2023-06-14T20:03:17.039Z</time>
      </trkpt>
      <trkpt lat="46.6676" lon="0.05872">
        <ele>139.79</ele>
        <time>2023-06-14T20:04:06.083Z</time>
      </trkpt>
      <trkpt lat="46.66756" lon="0.05909">
        <ele>139.11</ele>
        <time>2023-06-14T20:04:55.131Z</time>
      </trkpt>
      <trkpt lat="46.66753" lon="0.05939">
        <ele>138.64</ele>
        <time>2023-06-14T20:05:44.182Z</time>
      </trkpt>
      <trkpt lat="46.66754" lon="0.05954">
        <ele>138.41</ele>
        <time>2023-06-14T20:06:33.235Z</time>
      </trkpt>
      <trkpt lat="46.66755" lon="0.05997">
        <ele>137.85</ele>
        <time>2023-06-14T20:07:22.293Z</time>
      </trkpt>
      <trkpt lat="46.66753" lon="0.06012">
        <ele>137.66</ele>
        <time>2023-06-14T20:08:11.353Z</time>
      </trkpt>
      <trkpt lat="46.66743" lon="0.06089">
        <ele>136.91</ele>
        <time>2023-06-14T20:09:00.421Z</time>
      </trkpt>
      <trkpt lat="46.6674" lon="0.06115">
        <ele>136.74</ele>
        <time>2023-06-14T20:09:49.492Z</time>
      </trkpt>
      <trkpt lat="46.66731" lon="0.06179">
        <ele>136.16</ele>
        <time>2023-06-14T20:10:38.570Z</time>
      </trkpt>
      <trkpt lat="46.6673" lon="0.06191">
        <ele>136.06</ele>
        <time>2023-06-14T20:11:27.650Z</time>
      </trkpt>
      <trkpt lat="46.66725" lon="0.0623">
        <ele>135.8</ele>
        <time>2023-06-14T20:12:16.734Z</time>
      </trkpt>
      <trkpt lat="46.6672" lon="0.06268">
        <ele>135.56</ele>
        <time>2023-06-14T20:13:05.822Z</time>
      </trkpt>
      <trkpt lat="46.66717" lon="0.06288">
        <ele>135.39</ele>
        <time>2023-06-14T20:13:54.912Z</time>
      </trkpt>
      <trkpt lat="46.66713" lon="0.06319">
        <ele>135.08</ele>
        <time>2023-06-14T20:14:44.006Z</time>
      </trkpt>
      <trkpt lat="46.66711" lon="0.06339">
        <ele>134.93</ele>
        <time>2023-06-14T20:15:33.102Z</time>
      </trkpt>
      <trkpt lat="46.66709" lon="0.06351">
        <ele>134.95</ele>
        <time>2023-06-14T20:16:22.200Z</time>
      </trkpt>
      <trkpt lat="46.66708" lon="0.06358">
        <ele>134.94</ele>
        <time>2023-06-14T20:17:11.298Z</time>
      </trkpt>
      <trkpt lat="46.66706" lon="0.0637">
        <ele>134.87</ele>
        <time>2023-06-14T20:18:00.398Z</time>
      </trkpt>
      <trkpt lat="46.66705" lon="0.06383">
        <ele>134.75</ele>
        <time>2023-06-14T20:18:49.499Z</time>
      </trkpt>
      <trkpt lat="46.66703" lon="0.06397">
        <ele>134.55</ele>
        <time>2023-06-14T20:19:38.602Z</time>
      </trkpt>
      <trkpt lat="46.66701" lon="0.06401">
        <ele>134.49</ele>
        <time>2023-06-14T20:20:27.705Z</time>
      </trkpt>
      <trkpt lat="46.66695" lon="0.0641">
        <ele>134.27</ele>
        <time>2023-06-14T20:21:16.810Z</time>
      </trkpt>
      <trkpt lat="46.66681" lon="0.06435">
        <ele>133.61</ele>
        <time>2023-06-14T20:22:05.918Z</time>
      </trkpt>
      <trkpt lat="46.66667" lon="0.06458">
        <ele>133</ele>
        <time>2023-06-14T20:22:55.030Z</time>
      </trkpt>
      <trkpt lat="46.66666" lon="0.06459">
        <ele>133</ele>
        <time>2023-06-14T20:23:44.142Z</time>
      </trkpt>
      <trkpt lat="46.6665" lon="0.06479">
        <ele>132.31</ele>
        <time>2023-06-14T20:24:33.257Z</time>
      </trkpt>
      <trkpt lat="46.6664" lon="0.06492">
        <ele>131.87</ele>
        <time>2023-06-14T20:25:22.374Z</time>
      </trkpt>
      <trkpt lat="46.66626" lon="0.06508">
        <ele>131.4</ele>
        <time>2023-06-14T20:26:11.494Z</time>
      </trkpt>
      <trkpt lat="46.66616" lon="0.06521">
        <ele>131.1</ele>
        <time>2023-06-14T20:27:00.616Z</time>
      </trkpt>
      <trkpt lat="46.66608" lon="0.0653">
        <ele>130.91</ele>
        <time>2023-06-14T20:27:49.740Z</time>
      </trkpt>
      <trkpt lat="46.66605" lon="0.06533">
        <ele>130.86</ele>
        <time>2023-06-14T20:28:38.864Z</time>
      </trkpt>
      <trkpt lat="46.66599" lon="0.06541">
        <ele>130.75</ele>
        <time>2023-06-14T20:29:27.990Z</time>
      </trkpt>
      <trkpt lat="46.66592" lon="0.06549">
        <ele>130.71</ele>
        <time>2023-06-14T20:30:17.117Z</time>
      </trkpt>
      <trkpt lat="46.66581" lon="0.06561">
        <ele>130.72</ele>
        <time>2023-06-14T20:31:06.246Z</time>
      </trkpt>
      <trkpt lat="46.66574" lon="0.06569">
        <ele>130.76</ele>
        <time>2023-06-14T20:31:55.377Z</time>
      </trkpt>
      <trkpt lat="46.6657" lon="0.06572">
        <ele>130.79</ele>
        <time>2023-06-14T20:32:44.509Z</time>
      </trkpt>
      <trkpt lat="46.66562" lon="0.06577">
        <ele>130.89</ele>
        <time>2023-06-14T20:33:33.642Z</time>
      </trkpt>
      <trkpt lat="46.66558" lon="0.06579">
        <ele>130.97</ele>
        <time>2023-06-14T20:34:22.776Z</time>
      </trkpt>
      <trkpt lat="46.66554" lon="0.06582">
        <ele>131.07</ele>
        <time>2023-06-14T20:35:11.910Z</time>
      </trkpt>
      <trkpt lat="46.66552" lon="0.06583">
        <ele>131.12</ele>
        <time>2023-06-14T20:36:01.045Z</time>
      </trkpt>
      <trkpt lat="46.66546" lon="0.06587">
        <ele>131.32</ele>
        <time>2023-06-14T20:36:50.181Z</time>
      </trkpt>
      <trkpt lat="46.66533" lon="0.06594">
        <ele>131.79</ele>
        <time>2023-06-14T20:37:39.319Z</time>
      </trkpt>
      <trkpt lat="46.66525" lon="0.06598">
        <ele>132.15</ele>
        <time>2023-06-14T20:38:28.458Z</time>
      </trkpt>
      <trkpt lat="46.66512" lon="0.06605">
        <ele>132.75</ele>
        <time>2023-06-14T20:39:17.599Z</time>
      </trkpt>
      <trkpt lat="46.66504" lon="0.0661">
        <ele>133.19</ele>
        <time>2023-06-14T20:40:06.742Z</time>
      </trkpt>
      <trkpt lat="46.66496" lon="0.06614">
        <ele>133.68</ele>
        <time>2023-06-14T20:40:55.886Z</time>
      </trkpt>
      <trkpt lat="46.66479" lon="0.06624">
        <ele>134.73</ele>
        <time>2023-06-14T20:41:45.033Z</time>
      </trkpt>
      <trkpt lat="46.66471" lon="0.06628">
        <ele>135.28</ele>
        <time>2023-06-14T20:42:34.182Z</time>
      </trkpt>
      <trkpt lat="46.66457" lon="0.06636">
        <ele>136.17</ele>
        <time>2023-06-14T20:43:23.333Z</time>
      </trkpt>
      <trkpt lat="46.66447" lon="0.06644">
        <ele>136.87</ele>
        <time>2023-06-14T20:44:12.486Z</time>
      </trkpt>
      <trkpt lat="46.66442" lon="0.06648">
        <ele>137.17</ele>
        <time>2023-06-14T20:45:01.640Z</time>
      </trkpt>
      <trkpt lat="46.6644" lon="0.06652">
        <ele>137.36</ele>
        <time>2023-06-14T20:45:50.794Z</time>
      </trkpt>
      <trkpt lat="46.66437" lon="0.06657">
        <ele>137.56</ele>
        <time>2023-06-14T20:46:39.949Z</time>
      </trkpt>
      <trkpt lat="46.66434" lon="0.06662">
        <ele>137.74</ele>
        <time>2023-06-14T20:47:29.105Z</time>
      </trkpt>
      <trkpt lat="46.66428" lon="0.06671">
        <ele>138.06</ele>
        <time>2023-06-14T20:48:18.262Z</time>
      </trkpt>
      <trkpt lat="46.66426" lon="0.06675">
        <ele>138.16</ele>
        <time>2023-06-14T20:49:07.420Z</time>
      </trkpt>
      <trkpt lat="46.66423" lon="0.06682">
        <ele>138.35</ele>
        <time>2023-06-14T20:49:56.579Z</time>
      </trkpt>
      <trkpt lat="46.664" lon="0.06729">
        <ele>139.5</ele>
        <time>2023-06-14T20:50:45.744Z</time>
      </trkpt>
      <trkpt lat="46.66393" lon="0.06744">
        <ele>139.81</ele>
        <time>2023-06-14T20:51:34.911Z</time>
      </trkpt>
      <trkpt lat="46.66392" lon="0.06745">
        <ele>139.85</ele>
        <time>2023-06-14T20:52:24.078Z</time>
      </trkpt>
      <trkpt lat="46.66386" lon="0.06755">
        <ele>140.06</ele>
        <time>2023-06-14T20:53:13.247Z</time>
      </trkpt>
      <trkpt lat="46.66372" lon="0.06779">
        <ele>140.52</ele>
        <time>2023-06-14T20:54:02.419Z</time>
      </trkpt>
      <trkpt lat="46.66366" lon="0.06789">
        <ele>140.69</ele>
        <time>2023-06-14T20:54:51.593Z</time>
      </trkpt>
      <trkpt lat="46.66366" lon="0.06789">
        <ele>140.69</ele>
        <time>2023-06-14T20:55:40.767Z</time>
      </trkpt>
      <trkpt lat="46.6635" lon="0.06811">
        <ele>141.06</ele>
        <time>2023-06-14T20:56:29.944Z</time>
      </trkpt>
      <trkpt lat="46.6634" lon="0.06825">
        <ele>141.3</ele>
        <time>2023-06-14T20:57:19.123Z</time>
      </trkpt>
      <trkpt lat="46.66321" lon="0.06851">
        <ele>141.72</ele>
        <time>2023-06-14T20:58:08.307Z</time>
      </trkpt>
      <trkpt lat="46.66315" lon="0.06859">
        <ele>141.71</ele>
        <time>2023-06-14T20:58:57.492Z</time>
      </trkpt>
      <trkpt lat="46.66298" lon="0.06885">
        <ele>141.7</ele>
        <time>2023-06-14T20:59:46.681Z</time>
      </trkpt>
      <trkpt lat="46.66292" lon="0.06894">
        <ele>141.71</ele>
        <time>2023-06-14T21:00:35.871Z</time>
      </trkpt>
      <trkpt lat="46.66279" lon="0.06913">
        <ele>141.74</ele>
        <time>2023-06-14T21:01:25.064Z</time>
      </trkpt>
      <trkpt lat="46.6626" lon="0.06941">
        <ele>141.71</ele>
        <time>2023-06-14T21:02:14.261Z</time>
      </trkpt>
      <trkpt lat="46.66253" lon="0.0695">
        <ele>141.64</ele>
        <time>2023-06-14T21:03:03.460Z</time>
      </trkpt>
      <trkpt lat="46.66239" lon="0.0697">
        <ele>141.44</ele>
        <time>2023-06-14T21:03:52.662Z</time>
      </trkpt>
      <trkpt lat="46.66234" lon="0.06978">
        <ele>141.37</ele>
        <time>2023-06-14T21:04:41.865Z</time>
      </trkpt>
      <trkpt lat="46.66225" lon="0.06993">
        <ele>141.29</ele>
        <time>2023-06-14T21:05:31.070Z</time>
      </trkpt>
      <trkpt lat="46.66215" lon="0.0701">
        <ele>141.16</ele>
        <time>2023-06-14T21:06:20.278Z</time>
      </trkpt>
      <trkpt lat="46.6621" lon="0.07017">
        <ele>141.12</ele>
        <time>2023-06-14T21:07:09.487Z</time>
      </trkpt>
      <trkpt lat="46.66188" lon="0.07048">
        <ele>140.94</ele>
        <time>2023-06-14T21:07:58.701Z</time>
      </trkpt>
      <trkpt lat="46.66186" lon="0.07051">
        <ele>140.92</ele>
        <time>2023-06-14T21:08:47.915Z</time>
      </trkpt>
      <trkpt lat="46.66169" lon="0.07072">
        <ele>140.83</ele>
        <time>2023-06-14T21:09:37.133Z</time>
      </trkpt>
      <trkpt lat="46.66167" lon="0.07074">
        <ele>140.83</ele>
        <time>2023-06-14T21:10:26.351Z</time>
      </trkpt>
      <trkpt lat="46.66152" lon="0.07089">
        <ele>140.78</ele>
        <time>2023-06-14T21:11:15.572Z</time>
      </trkpt>
      <trkpt lat="46.66144" lon="0.07097">
        <ele>140.69</ele>
        <time>2023-06-14T21:12:04.795Z</time>
      </trkpt>
      <trkpt lat="46.66119" lon="0.07122">
        <ele>141.08</ele>
        <time>2023-06-14T21:12:54.023Z</time>
      </trkpt>
      <trkpt lat="46.66109" lon="0.07128">
        <ele>141.22</ele>
        <time>2023-06-14T21:13:43.252Z</time>
      </trkpt>
      <trkpt lat="46.66173" lon="0.07404">
        <ele>143.78</ele>
        <time>2023-06-14T21:14:32.513Z</time>
      </trkpt>
      <trkpt lat="46.66181" lon="0.0744">
        <ele>143.34</ele>
        <time>2023-06-14T21:15:21.779Z</time>
      </trkpt>
      <trkpt lat="46.66182" lon="0.07444">
        <ele>143.3</ele>
        <time>2023-06-14T21:16:11.045Z</time>
      </trkpt>
      <trkpt lat="46.66182" lon="0.07452">
        <ele>143.24</ele>
        <time>2023-06-14T21:17:00.312Z</time>
      </trkpt>
      <trkpt lat="46.66182" lon="0.07458">
        <ele>143.24</ele>
        <time>2023-06-14T21:17:49.580Z</time>
      </trkpt>
      <trkpt lat="46.66182" lon="0.07463">
        <ele>143.25</ele>
        <time>2023-06-14T21:18:38.848Z</time>
      </trkpt>
      <trkpt lat="46.66204" lon="0.07486">
        <ele>143.36</ele>
        <time>2023-06-14T21:19:28.120Z</time>
      </trkpt>
      <trkpt lat="46.66222" lon="0.07505">
        <ele>142.99</ele>
        <time>2023-06-14T21:20:17.396Z</time>
      </trkpt>
      <trkpt lat="46.66229" lon="0.07515">
        <ele>142.82</ele>
        <time>2023-06-14T21:21:06.674Z</time>
      </trkpt>
      <trkpt lat="46.66233" lon="0.07528">
        <ele>142.66</ele>
        <time>2023-06-14T21:21:55.953Z</time>
      </trkpt>
      <trkpt lat="46.66186" lon="0.07535">
        <ele>141.89</ele>
        <time>2023-06-14T21:22:45.240Z</time>
      </trkpt>
      <trkpt lat="46.66167" lon="0.07538">
        <ele>141.66</ele>
        <time>2023-06-14T21:23:34.530Z</time>
      </trkpt>
      <trkpt lat="46.66161" lon="0.07539">
        <ele>141.43</ele>
        <time>2023-06-14T21:24:23.821Z</time>
      </trkpt>
      <trkpt lat="46.6613" lon="0.07543">
        <ele>140.91</ele>
        <time>2023-06-14T21:25:13.117Z</time>
      </trkpt>
      <trkpt lat="46.66053" lon="0.07555">
        <ele>136.91</ele>
        <time>2023-06-14T21:26:02.425Z</time>
      </trkpt>
      <trkpt lat="46.66035" lon="0.07557">
        <ele>136.55</ele>
        <time>2023-06-14T21:26:51.736Z</time>
      </trkpt>
      <trkpt lat="46.66022" lon="0.07559">
        <ele>136.19</ele>
        <time>2023-06-14T21:27:41.049Z</time>
      </trkpt>
      <trkpt lat="46.66011" lon="0.07561">
        <ele>135.73</ele>
        <time>2023-06-14T21:28:30.364Z</time>
      </trkpt>
      <trkpt lat="46.66011" lon="0.07571">
        <ele>135.47</ele>
        <time>2023-06-14T21:29:19.680Z</time>
      </trkpt>
      <trkpt lat="46.66012" lon="0.07583">
        <ele>135.08</ele>
        <time>2023-06-14T21:30:08.997Z</time>
      </trkpt>
      <trkpt lat="46.66012" lon="0.07587">
        <ele>134.95</ele>
        <time>2023-06-14T21:30:58.315Z</time>
      </trkpt>
      <trkpt lat="46.66012" lon="0.0759">
        <ele>134.85</ele>
        <time>2023-06-14T21:31:47.633Z</time>
      </trkpt>
      <trkpt lat="46.66011" lon="0.07596">
        <ele>134.58</ele>
        <time>2023-06-14T21:32:36.952Z</time>
      </trkpt>
      <trkpt lat="46.66011" lon="0.07603">
        <ele>134.27</ele>
        <time>2023-06-14T21:33:26.272Z</time>
      </trkpt>
      <trkpt lat="46.6601" lon="0.07609">
        <ele>133.94</ele>
        <time>2023-06-14T21:34:15.592Z</time>
      </trkpt>
      <trkpt lat="46.6601" lon="0.07622">
        <ele>133.18</ele>
        <time>2023-06-14T21:35:04.914Z</time>
      </trkpt>
      <trkpt lat="46.66008" lon="0.07641">
        <ele>131.98</ele>
        <time>2023-06-14T21:35:54.238Z</time>
      </trkpt>
      <trkpt lat="46.66008" lon="0.07647">
        <ele>131.61</ele>
        <time>2023-06-14T21:36:43.562Z</time>
      </trkpt>
      <trkpt lat="46.66006" lon="0.07671">
        <ele>130.35</ele>
        <time>2023-06-14T21:37:32.889Z</time>
      </trkpt>
      <trkpt lat="46.66005" lon="0.07671">
        <ele>130.26</ele>
        <time>2023-06-14T21:38:22.216Z</time>
      </trkpt>
      <trkpt lat="46.65977" lon="0.07667">
        <ele>129.24</ele>
        <time>2023-06-14T21:39:11.548Z</time>
      </trkpt>
      <trkpt lat="46.6596" lon="0.07665">
        <ele>128.05</ele>
        <time>2023-06-14T21:40:00.883Z</time>
      </trkpt>
      <trkpt lat="46.65951" lon="0.07664">
        <ele>127.51</ele>
        <time>2023-06-14T21:40:50.219Z</time>
      </trkpt>
      <trkpt lat="46.65938" lon="0.07662">
        <ele>126.77</ele>
        <time>2023-06-14T21:41:39.557Z</time>
      </trkpt>
      <trkpt lat="46.65935" lon="0.07662">
        <ele>126.63</ele>
        <time>2023-06-14T21:42:28.896Z</time>
      </trkpt>
      <trkpt lat="46.65929" lon="0.07662">
        <ele>126.32</ele>
        <time>2023-06-14T21:43:18.236Z</time>
      </trkpt>
      <trkpt lat="46.6592" lon="0.07663">
        <ele>125.91</ele>
        <time>2023-06-14T21:44:07.577Z</time>
      </trkpt>
      <trkpt lat="46.65918" lon="0.07663">
        <ele>125.85</ele>
        <time>2023-06-14T21:44:56.918Z</time>
      </trkpt>
      <trkpt lat="46.65907" lon="0.07666">
        <ele>125.52</ele>
        <time>2023-06-14T21:45:46.261Z</time>
      </trkpt>
      <trkpt lat="46.6589" lon="0.07672">
        <ele>125.12</ele>
        <time>2023-06-14T21:46:35.607Z</time>
      </trkpt>
      <trkpt lat="46.65878" lon="0.07676">
        <ele>124.88</ele>
        <time>2023-06-14T21:47:24.955Z</time>
      </trkpt>
      <trkpt lat="46.65877" lon="0.07676">
        <ele>124.88</ele>
        <time>2023-06-14T21:48:14.303Z</time>
      </trkpt>
      <trkpt lat="46.65861" lon="0.07682">
        <ele>124.66</ele>
        <time>2023-06-14T21:49:03.654Z</time>
      </trkpt>
      <trkpt lat="46.65856" lon="0.07683">
        <ele>124.64</ele>
        <time>2023-06-14T21:49:53.005Z</time>
      </trkpt>
      <trkpt lat="46.65845" lon="0.07685">
        <ele>124.59</ele>
        <time>2023-06-14T21:50:42.358Z</time>
      </trkpt>
      <trkpt lat="46.6583" lon="0.07683">
        <ele>124.54</ele>
        <time>2023-06-14T21:51:31.714Z</time>
      </trkpt>
      <trkpt lat="46.65824" lon="0.07683">
        <ele>124.56</ele>
        <time>2023-06-14T21:52:21.071Z</time>
      </trkpt>
      <trkpt lat="46.65818" lon="0.07682">
        <ele>124.59</ele>
        <time>2023-06-14T21:53:10.429Z</time>
      </trkpt>
      <trkpt lat="46.6581" lon="0.07678">
        <ele>124.65</ele>
        <time>2023-06-14T21:53:59.788Z</time>
      </trkpt>
      <trkpt lat="46.65807" lon="0.07676">
        <ele>124.69</ele>
        <time>2023-06-14T21:54:49.147Z</time>
      </trkpt>
      <trkpt lat="46.65798" lon="0.07671">
        <ele>124.71</ele>
        <time>2023-06-14T21:55:38.508Z</time>
      </trkpt>
      <trkpt lat="46.65792" lon="0.07665">
        <ele>124.73</ele>
        <time>2023-06-14T21:56:27.870Z</time>
      </trkpt>
      <trkpt lat="46.65779" lon="0.07651">
        <ele>124.81</ele>
        <time>2023-06-14T21:57:17.235Z</time>
      </trkpt>
      <trkpt lat="46.65769" lon="0.07641">
        <ele>124.91</ele>
        <time>2023-06-14T21:58:06.602Z</time>
      </trkpt>
      <trkpt lat="46.65755" lon="0.07627">
        <ele>125.12</ele>
        <time>2023-06-14T21:58:55.971Z</time>
      </trkpt>
      <trkpt lat="46.65744" lon="0.07615">
        <ele>124.68</ele>
        <time>2023-06-14T21:59:45.343Z</time>
      </trkpt>
      <trkpt lat="46.65741" lon="0.07612">
        <ele>124.57</ele>
        <time>2023-06-14T22:00:34.715Z</time>
      </trkpt>
      <trkpt lat="46.65733" lon="0.07605">
        <ele>124.37</ele>
        <time>2023-06-14T22:01:24.089Z</time>
      </trkpt>
      <trkpt lat="46.6573" lon="0.07602">
        <ele>124.31</ele>
        <time>2023-06-14T22:02:13.463Z</time>
      </trkpt>
      <trkpt lat="46.65722" lon="0.07595">
        <ele>124.25</ele>
        <time>2023-06-14T22:03:02.839Z</time>
      </trkpt>
      <trkpt lat="46.65719" lon="0.07592">
        <ele>124.26</ele>
        <time>2023-06-14T22:03:52.215Z</time>
      </trkpt>
      <trkpt lat="46.65718" lon="0.07585">
        <ele>124.28</ele>
        <time>2023-06-14T22:04:41.592Z</time>
      </trkpt>
      <trkpt lat="46.65718" lon="0.0758">
        <ele>124.31</ele>
        <time>2023-06-14T22:05:30.970Z</time>
      </trkpt>
      <trkpt lat="46.65718" lon="0.07579">
        <ele>124.32</ele>
        <time>2023-06-14T22:06:20.348Z</time>
      </trkpt>
      <trkpt lat="46.65708" lon="0.07557">
        <ele>124.54</ele>
        <time>2023-06-14T22:07:09.729Z</time>
      </trkpt>
      <trkpt lat="46.65697" lon="0.0753">
        <ele>124.78</ele>
        <time>2023-06-14T22:07:59.113Z</time>
      </trkpt>
      <trkpt lat="46.65696" lon="0.07527">
        <ele>124.8</ele>
        <time>2023-06-14T22:08:48.497Z</time>
      </trkpt>
      <trkpt lat="46.65689" lon="0.07515">
        <ele>124.96</ele>
        <time>2023-06-14T22:09:37.883Z</time>
      </trkpt>
      <trkpt lat="46.65689" lon="0.07515">
        <ele>124.96</ele>
        <time>2023-06-14T22:10:27.269Z</time>
      </trkpt>
      <trkpt lat="46.65679" lon="0.07502">
        <ele>125.21</ele>
        <time>2023-06-14T22:11:16.657Z</time>
      </trkpt>
      <trkpt lat="46.65673" lon="0.07493">
        <ele>125.4</ele>
        <time>2023-06-14T22:12:06.047Z</time>
      </trkpt>
      <trkpt lat="46.65653" lon="0.07467">
        <ele>126.06</ele>
        <time>2023-06-14T22:12:55.441Z</time>
      </trkpt>
      <trkpt lat="46.65633" lon="0.07441">
        <ele>126.6</ele>
        <time>2023-06-14T22:13:44.839Z</time>
      </trkpt>
      <trkpt lat="46.65621" lon="0.07425">
        <ele>126.98</ele>
        <time>2023-06-14T22:14:34.240Z</time>
      </trkpt>
      <trkpt lat="46.65609" lon="0.07412">
        <ele>127.34</ele>
        <time>2023-06-14T22:15:23.643Z</time>
      </trkpt>
      <trkpt lat="46.65605" lon="0.07407">
        <ele>127.49</ele>
        <time>2023-06-14T22:16:13.047Z</time>
      </trkpt>
      <trkpt lat="46.65602" lon="0.07404">
        <ele>127.59</ele>
        <time>2023-06-14T22:17:02.452Z</time>
      </trkpt>
      <trkpt lat="46.65587" lon="0.07391">
        <ele>128.14</ele>
        <time>2023-06-14T22:17:51.860Z</time>
      </trkpt>
      <trkpt lat="46.65556" lon="0.07364">
        <ele>129.11</ele>
        <time>2023-06-14T22:18:41.273Z</time>
      </trkpt>
      <trkpt lat="46.65552" lon="0.07361">
        <ele>129.26</ele>
        <time>2023-06-14T22:19:30.687Z</time>
      </trkpt>
      <trkpt lat="46.65545" lon="0.07354">
        <ele>129.59</ele>
        <time>2023-06-14T22:20:20.102Z</time>
      </trkpt>
      <trkpt lat="46.65518" lon="0.07331">
        <ele>130.89</ele>
        <time>2023-06-14T22:21:09.522Z</time>
      </trkpt>
      <trkpt lat="46.65502" lon="0.07317">
        <ele>131.6</ele>
        <time>2023-06-14T22:21:58.945Z</time>
      </trkpt>
      <trkpt lat="46.65472" lon="0.0729">
        <ele>132.89</ele>
        <time>2023-06-14T22:22:48.374Z</time>
      </trkpt>
      <trkpt lat="46.65453" lon="0.07274">
        <ele>133.62</ele>
        <time>2023-06-14T22:23:37.807Z</time>
      </trkpt>
      <trkpt lat="46.65445" lon="0.07266">
        <ele>133.95</ele>
        <time>2023-06-14T22:24:27.241Z</time>
      </trkpt>
      <trkpt lat="46.65428" lon="0.07246">
        <ele>134.61</ele>
        <time>2023-06-14T22:25:16.679Z</time>
      </trkpt>
      <trkpt lat="46.65426" lon="0.07244">
        <ele>134.66</ele>
        <time>2023-06-14T22:26:06.117Z</time>
      </trkpt>
      <trkpt lat="46.65415" lon="0.07228">
        <ele>135.07</ele>
        <time>2023-06-14T22:26:55.558Z</time>
      </trkpt>
      <trkpt lat="46.65405" lon="0.07214">
        <ele>135.37</ele>
        <time>2023-06-14T22:27:45.001Z</time>
      </trkpt>
      <trkpt lat="46.65397" lon="0.07199">
        <ele>135.67</ele>
        <time>2023-06-14T22:28:34.446Z</time>
      </trkpt>
      <trkpt lat="46.65394" lon="0.07194">
        <ele>135.75</ele>
        <time>2023-06-14T22:29:23.892Z</time>
      </trkpt>
      <trkpt lat="46.65389" lon="0.07183">
        <ele>135.83</ele>
        <time>2023-06-14T22:30:13.339Z</time>
      </trkpt>
      <trkpt lat="46.65385" lon="0.07176">
        <ele>135.85</ele>
        <time>2023-06-14T22:31:02.787Z</time>
      </trkpt>
      <trkpt lat="46.65367" lon="0.07129">
        <ele>136.02</ele>
        <time>2023-06-14T22:31:52.241Z</time>
      </trkpt>
      <trkpt lat="46.65157" lon="0.07064">
        <ele>136.98</ele>
        <time>2023-06-14T22:32:41.729Z</time>
      </trkpt>
      <trkpt lat="46.65081" lon="0.07068">
        <ele>137.32</ele>
        <time>2023-06-14T22:33:31.229Z</time>
      </trkpt>
      <trkpt lat="46.64962" lon="0.07059">
        <ele>137.85</ele>
        <time>2023-06-14T22:34:20.749Z</time>
      </trkpt>
      <trkpt lat="46.64932" lon="0.07063">
        <ele>137.98</ele>
        <time>2023-06-14T22:35:10.273Z</time>
      </trkpt>
      <trkpt lat="46.64918" lon="0.07067">
        <ele>138.05</ele>
        <time>2023-06-14T22:35:59.800Z</time>
      </trkpt>
      <trkpt lat="46.64898" lon="0.07072">
        <ele>138.41</ele>
        <time>2023-06-14T22:36:49.330Z</time>
      </trkpt>
      <trkpt lat="46.64877" lon="0.07083">
        <ele>138.8</ele>
        <time>2023-06-14T22:37:38.863Z</time>
      </trkpt>
      <trkpt lat="46.64756" lon="0.07162">
        <ele>141.13</ele>
        <time>2023-06-14T22:38:28.418Z</time>
      </trkpt>
      <trkpt lat="46.64747" lon="0.07168">
        <ele>140.95</ele>
        <time>2023-06-14T22:39:17.974Z</time>
      </trkpt>
      <trkpt lat="46.64744" lon="0.07169">
        <ele>140.91</ele>
        <time>2023-06-14T22:40:07.531Z</time>
      </trkpt>
      <trkpt lat="46.6474" lon="0.0717">
        <ele>140.86</ele>
        <time>2023-06-14T22:40:57.088Z</time>
      </trkpt>
      <trkpt lat="46.64735" lon="0.07171">
        <ele>140.82</ele>
        <time>2023-06-14T22:41:46.646Z</time>
      </trkpt>
      <trkpt lat="46.64726" lon="0.07173">
        <ele>140.82</ele>
        <time>2023-06-14T22:42:36.206Z</time>
      </trkpt>
      <trkpt lat="46.64715" lon="0.07176">
        <ele>140.88</ele>
        <time>2023-06-14T22:43:25.767Z</time>
      </trkpt>
      <trkpt lat="46.64709" lon="0.07177">
        <ele>140.92</ele>
        <time>2023-06-14T22:44:15.329Z</time>
      </trkpt>
      <trkpt lat="46.64696" lon="0.07179">
        <ele>140.96</ele>
        <time>2023-06-14T22:45:04.894Z</time>
      </trkpt>
      <trkpt lat="46.64687" lon="0.0718">
        <ele>141.01</ele>
        <time>2023-06-14T22:45:54.460Z</time>
      </trkpt>
      <trkpt lat="46.64656" lon="0.07185">
        <ele>141.38</ele>
        <time>2023-06-14T22:46:44.031Z</time>
      </trkpt>
      <trkpt lat="46.64647" lon="0.07186">
        <ele>141.51</ele>
        <time>2023-06-14T22:47:33.603Z</time>
      </trkpt>
      <trkpt lat="46.64622" lon="0.0719">
        <ele>142.06</ele>
        <time>2023-06-14T22:48:23.179Z</time>
      </trkpt>
      <trkpt lat="46.64621" lon="0.07189">
        <ele>142.09</ele>
        <time>2023-06-14T22:49:12.756Z</time>
      </trkpt>
      <trkpt lat="46.646" lon="0.0718">
        <ele>142.52</ele>
        <time>2023-06-14T22:50:02.336Z</time>
      </trkpt>
      <trkpt lat="46.64583" lon="0.07169">
        <ele>142.88</ele>
        <time>2023-06-14T22:50:51.919Z</time>
      </trkpt>
      <trkpt lat="46.64571" lon="0.07161">
        <ele>143.13</ele>
        <time>2023-06-14T22:51:41.504Z</time>
      </trkpt>
      <trkpt lat="46.64555" lon="0.07151">
        <ele>143.4</ele>
        <time>2023-06-14T22:52:31.092Z</time>
      </trkpt>
      <trkpt lat="46.64547" lon="0.07146">
        <ele>143.57</ele>
        <time>2023-06-14T22:53:20.681Z</time>
      </trkpt>
      <trkpt lat="46.6454" lon="0.07141">
        <ele>143.75</ele>
        <time>2023-06-14T22:54:10.272Z</time>
      </trkpt>
      <trkpt lat="46.64539" lon="0.07141">
        <ele>143.78</ele>
        <time>2023-06-14T22:54:59.863Z</time>
      </trkpt>
      <trkpt lat="46.64522" lon="0.07134">
        <ele>144.24</ele>
        <time>2023-06-14T22:55:49.457Z</time>
      </trkpt>
      <trkpt lat="46.64518" lon="0.07133">
        <ele>144.19</ele>
        <time>2023-06-14T22:56:39.051Z</time>
      </trkpt>
      <trkpt lat="46.64508" lon="0.07132">
        <ele>144.08</ele>
        <time>2023-06-14T22:57:28.647Z</time>
      </trkpt>
      <trkpt lat="46.64495" lon="0.07131">
        <ele>143.98</ele>
        <time>2023-06-14T22:58:18.245Z</time>
      </trkpt>
      <trkpt lat="46.64482" lon="0.0713">
        <ele>143.96</ele>
        <time>2023-06-14T22:59:07.845Z</time>
      </trkpt>
      <trkpt lat="46.64479" lon="0.0713">
        <ele>143.96</ele>
        <time>2023-06-14T22:59:57.446Z</time>
      </trkpt>
      <trkpt lat="46.64477" lon="0.07115">
        <ele>144</ele>
        <time>2023-06-14T23:00:47.048Z</time>
      </trkpt>
      <trkpt lat="46.64475" lon="0.07102">
        <ele>144.05</ele>
        <time>2023-06-14T23:01:36.652Z</time>
      </trkpt>
      <trkpt lat="46.64471" lon="0.07077">
        <ele>144.24</ele>
        <time>2023-06-14T23:02:26.259Z</time>
      </trkpt>
      <trkpt lat="46.64467" lon="0.07052">
        <ele>144.38</ele>
        <time>2023-06-14T23:03:15.868Z</time>
      </trkpt>
      <trkpt lat="46.64462" lon="0.0702">
        <ele>144.67</ele>
        <time>2023-06-14T23:04:05.481Z</time>
      </trkpt>
      <trkpt lat="46.64459" lon="0.07001">
        <ele>144.8</ele>
        <time>2023-06-14T23:04:55.096Z</time>
      </trkpt>
      <trkpt lat="46.64447" lon="0.06926">
        <ele>145.09</ele>
        <time>2023-06-14T23:05:44.720Z</time>
      </trkpt>
      <trkpt lat="46.64444" lon="0.06907">
        <ele>145.24</ele>
        <time>2023-06-14T23:06:34.346Z</time>
      </trkpt>
      <trkpt lat="46.64442" lon="0.06894">
        <ele>145.38</ele>
        <time>2023-06-14T23:07:23.973Z</time>
      </trkpt>
      <trkpt lat="46.64441" lon="0.06888">
        <ele>145.48</ele>
        <time>2023-06-14T23:08:13.601Z</time>
      </trkpt>
      <trkpt lat="46.64438" lon="0.06869">
        <ele>145.89</ele>
        <time>2023-06-14T23:09:03.231Z</time>
      </trkpt>
      <trkpt lat="46.64436" lon="0.06856">
        <ele>146.14</ele>
        <time>2023-06-14T23:09:52.862Z</time>
      </trkpt>
      <trkpt lat="46.64434" lon="0.06844">
        <ele>146.33</ele>
        <time>2023-06-14T23:10:42.495Z</time>
      </trkpt>
      <trkpt lat="46.64432" lon="0.06831">
        <ele>146.45</ele>
        <time>2023-06-14T23:11:32.129Z</time>
      </trkpt>
      <trkpt lat="46.6443" lon="0.06818">
        <ele>146.56</ele>
        <time>2023-06-14T23:12:21.765Z</time>
      </trkpt>
      <trkpt lat="46.64428" lon="0.06806">
        <ele>146.62</ele>
        <time>2023-06-14T23:13:11.402Z</time>
      </trkpt>
      <trkpt lat="46.64424" lon="0.06781">
        <ele>146.65</ele>
        <time>2023-06-14T23:14:01.042Z</time>
      </trkpt>
      <trkpt lat="46.64422" lon="0.06768">
        <ele>146.7</ele>
        <time>2023-06-14T23:14:50.683Z</time>
      </trkpt>
      <trkpt lat="46.64416" lon="0.0673">
        <ele>146.92</ele>
        <time>2023-06-14T23:15:40.329Z</time>
      </trkpt>
      <trkpt lat="46.64411" lon="0.06699">
        <ele>147.17</ele>
        <time>2023-06-14T23:16:29.978Z</time>
      </trkpt>
      <trkpt lat="46.64407" lon="0.06667">
        <ele>147.24</ele>
        <time>2023-06-14T23:17:19.631Z</time>
      </trkpt>
      <trkpt lat="46.64403" lon="0.06641">
        <ele>147.34</ele>
        <time>2023-06-14T23:18:09.287Z</time>
      </trkpt>
      <trkpt lat="46.64402" lon="0.06638">
        <ele>147.35</ele>
        <time>2023-06-14T23:18:58.943Z</time>
      </trkpt>
      <trkpt lat="46.64398" lon="0.06631">
        <ele>147.41</ele>
        <time>2023-06-14T23:19:48.600Z</time>
      </trkpt>
      <trkpt lat="46.64391" lon="0.06621">
        <ele>147.52</ele>
        <time>2023-06-14T23:20:38.259Z</time>
      </trkpt>
      <trkpt lat="46.64376" lon="0.06597">
        <ele>147.86</ele>
        <time>2023-06-14T23:21:27.921Z</time>
      </trkpt>
      <trkpt lat="46.64361" lon="0.06573">
        <ele>148.14</ele>
        <time>2023-06-14T23:22:17.587Z</time>
      </trkpt>
      <trkpt lat="46.64349" lon="0.06554">
        <ele>148.33</ele>
        <time>2023-06-14T23:23:07.256Z</time>
      </trkpt>
      <trkpt lat="46.64337" lon="0.06535">
        <ele>148.61</ele>
        <time>2023-06-14T23:23:56.928Z</time>
      </trkpt>
      <trkpt lat="46.64331" lon="0.06525">
        <ele>148.7</ele>
        <time>2023-06-14T23:24:46.601Z</time>
      </trkpt>
      <trkpt lat="46.64319" lon="0.06506">
        <ele>148.77</ele>
        <time>2023-06-14T23:25:36.277Z</time>
      </trkpt>
      <trkpt lat="46.64313" lon="0.06496">
        <ele>148.84</ele>
        <time>2023-06-14T23:26:25.954Z</time>
      </trkpt>
      <trkpt lat="46.64291" lon="0.06463">
        <ele>149.27</ele>
        <time>2023-06-14T23:27:15.636Z</time>
      </trkpt>
      <trkpt lat="46.64273" lon="0.06434">
        <ele>149.73</ele>
        <time>2023-06-14T23:28:05.323Z</time>
      </trkpt>
      <trkpt lat="46.64249" lon="0.06395">
        <ele>150.26</ele>
        <time>2023-06-14T23:28:55.015Z</time>
      </trkpt>
      <trkpt lat="46.64231" lon="0.06367">
        <ele>150.7</ele>
        <time>2023-06-14T23:29:44.712Z</time>
      </trkpt>
      <trkpt lat="46.64215" lon="0.06342">
        <ele>150.94</ele>
        <time>2023-06-14T23:30:34.412Z</time>
      </trkpt>
      <trkpt lat="46.64215" lon="0.06342">
        <ele>150.94</ele>
        <time>2023-06-14T23:31:24.112Z</time>
      </trkpt>
      <trkpt lat="46.64197" lon="0.06325">
        <ele>151.26</ele>
        <time>2023-06-14T23:32:13.816Z</time>
      </trkpt>
      <trkpt lat="46.64174" lon="0.06303">
        <ele>151.67</ele>
        <time>2023-06-14T23:33:03.524Z</time>
      </trkpt>
      <trkpt lat="46.64155" lon="0.06286">
        <ele>152.05</ele>
        <time>2023-06-14T23:33:53.236Z</time>
      </trkpt>
      <trkpt lat="46.64118" lon="0.0625">
        <ele>152.97</ele>
        <time>2023-06-14T23:34:42.955Z</time>
      </trkpt>
      <trkpt lat="46.6411" lon="0.06243">
        <ele>153.13</ele>
        <time>2023-06-14T23:35:32.675Z</time>
      </trkpt>
      <trkpt lat="46.64103" lon="0.06236">
        <ele>153.25</ele>
        <time>2023-06-14T23:36:22.397Z</time>
      </trkpt>
      <trkpt lat="46.64095" lon="0.06229">
        <ele>153.34</ele>
        <time>2023-06-14T23:37:12.120Z</time>
      </trkpt>
      <trkpt lat="46.64069" lon="0.06204">
        <ele>153.57</ele>
        <time>2023-06-14T23:38:01.848Z</time>
      </trkpt>
      <trkpt lat="46.64054" lon="0.06189">
        <ele>153.64</ele>
        <time>2023-06-14T23:38:51.579Z</time>
      </trkpt>
      <trkpt lat="46.64039" lon="0.06175">
        <ele>153.75</ele>
        <time>2023-06-14T23:39:41.313Z</time>
      </trkpt>
      <trkpt lat="46.64027" lon="0.06164">
        <ele>153.75</ele>
        <time>2023-06-14T23:40:31.049Z</time>
      </trkpt>
      <trkpt lat="46.64009" lon="0.06147">
        <ele>153.64</ele>
        <time>2023-06-14T23:41:20.789Z</time>
      </trkpt>
      <trkpt lat="46.64001" lon="0.0614">
        <ele>153.56</ele>
        <time>2023-06-14T23:42:10.530Z</time>
      </trkpt>
      <trkpt lat="46.6399" lon="0.06129">
        <ele>153.38</ele>
        <time>2023-06-14T23:43:00.273Z</time>
      </trkpt>
      <trkpt lat="46.63982" lon="0.06122">
        <ele>153.22</ele>
        <time>2023-06-14T23:43:50.018Z</time>
      </trkpt>
      <trkpt lat="46.63971" lon="0.06111">
        <ele>152.94</ele>
        <time>2023-06-14T23:44:39.765Z</time>
      </trkpt>
      <trkpt lat="46.63964" lon="0.06104">
        <ele>152.78</ele>
        <time>2023-06-14T23:45:29.514Z</time>
      </trkpt>
      <trkpt lat="46.63948" lon="0.0609">
        <ele>152.56</ele>
        <time>2023-06-14T23:46:19.265Z</time>
      </trkpt>
      <trkpt lat="46.63945" lon="0.06086">
        <ele>152.49</ele>
        <time>2023-06-14T23:47:09.017Z</time>
      </trkpt>
      <trkpt lat="46.6393" lon="0.06072">
        <ele>152.1</ele>
        <time>2023-06-14T23:47:58.772Z</time>
      </trkpt>
      <trkpt lat="46.63922" lon="0.06065">
        <ele>151.94</ele>
        <time>2023-06-14T23:48:48.528Z</time>
      </trkpt>
      <trkpt lat="46.63907" lon="0.06051">
        <ele>151.69</ele>
        <time>2023-06-14T23:49:38.287Z</time>
      </trkpt>
      <trkpt lat="46.63903" lon="0.06047">
        <ele>151.64</ele>
        <time>2023-06-14T23:50:28.047Z</time>
      </trkpt>
      <trkpt lat="46.63896" lon="0.0604">
        <ele>151.6</ele>
        <time>2023-06-14T23:51:17.808Z</time>
      </trkpt>
      <trkpt lat="46.63874" lon="0.06019">
        <ele>151.65</ele>
        <time>2023-06-14T23:52:07.574Z</time>
      </trkpt>
      <trkpt lat="46.63863" lon="0.06009">
        <ele>151.65</ele>
        <time>2023-06-14T23:52:57.342Z</time>
      </trkpt>
      <trkpt lat="46.6386" lon="0.06006">
        <ele>151.63</ele>
        <time>2023-06-14T23:53:47.110Z</time>
      </trkpt>
      <trkpt lat="46.63853" lon="0.06016">
        <ele>151.58</ele>
        <time>2023-06-14T23:54:36.880Z</time>
      </trkpt>
      <trkpt lat="46.63843" lon="0.0603">
        <ele>151.43</ele>
        <time>2023-06-14T23:55:26.652Z</time>
      </trkpt>
      <trkpt lat="46.63843" lon="0.0603">
        <ele>151.56</ele>
        <time>2023-06-14T23:56:16.424Z</time>
      </trkpt>
      <trkpt lat="46.63837" lon="0.06039">
        <ele>151.23</ele>
        <time>2023-06-14T23:57:06.197Z</time>
      </trkpt>
      <trkpt lat="46.63831" lon="0.06048">
        <ele>151.07</ele>
        <time>2023-06-14T23:57:55.972Z</time>
      </trkpt>
      <trkpt lat="46.63813" lon="0.06074">
        <ele>150.7</ele>
        <time>2023-06-14T23:58:45.751Z</time>
      </trkpt>
      <trkpt lat="46.63819" lon="0.06046">
        <ele>150.42</ele>
        <time>2023-06-14T23:59:35.533Z</time>
      </trkpt>
      <trkpt lat="46.63824" lon="0.0602">
        <ele>150.27</ele>
        <time>2023-06-15T00:00:25.318Z</time>
      </trkpt>
      <trkpt lat="46.63825" lon="0.05988">
        <ele>150.11</ele>
        <time>2023-06-15T00:01:15.107Z</time>
      </trkpt>
      <trkpt lat="46.63825" lon="0.05969">
        <ele>150.04</ele>
        <time>2023-06-15T00:02:04.898Z</time>
      </trkpt>
      <trkpt lat="46.63826" lon="0.0595">
        <ele>150.04</ele>
        <time>2023-06-15T00:02:54.691Z</time>
      </trkpt>
      <trkpt lat="46.63824" lon="0.0593">
        <ele>150.04</ele>
        <time>2023-06-15T00:03:44.486Z</time>
      </trkpt>
      <trkpt lat="46.63821" lon="0.05904">
        <ele>150.15</ele>
        <time>2023-06-15T00:04:34.284Z</time>
      </trkpt>
      <trkpt lat="46.63817" lon="0.05872">
        <ele>150.24</ele>
        <time>2023-06-15T00:05:24.086Z</time>
      </trkpt>
      <trkpt lat="46.63816" lon="0.05859">
        <ele>150.33</ele>
        <time>2023-06-15T00:06:13.889Z</time>
      </trkpt>
      <trkpt lat="46.63816" lon="0.05859">
        <ele>150.33</ele>
        <time>2023-06-15T00:07:03.692Z</time>
      </trkpt>
      <trkpt lat="46.63809" lon="0.05828">
        <ele>150.64</ele>
        <time>2023-06-15T00:07:53.499Z</time>
      </trkpt>
      <trkpt lat="46.63807" lon="0.05819">
        <ele>150.74</ele>
        <time>2023-06-15T00:08:43.307Z</time>
      </trkpt>
      <trkpt lat="46.638" lon="0.05798">
        <ele>151</ele>
        <time>2023-06-15T00:09:33.117Z</time>
      </trkpt>
      <trkpt lat="46.63793" lon="0.05774">
        <ele>151.37</ele>
        <time>2023-06-15T00:10:22.930Z</time>
      </trkpt>
      <trkpt lat="46.63783" lon="0.05745">
        <ele>151.75</ele>
        <time>2023-06-15T00:11:12.747Z</time>
      </trkpt>
      <trkpt lat="46.63774" lon="0.05716">
        <ele>152.25</ele>
        <time>2023-06-15T00:12:02.567Z</time>
      </trkpt>
      <trkpt lat="46.63759" lon="0.0567">
        <ele>152.95</ele>
        <time>2023-06-15T00:12:52.393Z</time>
      </trkpt>
      <trkpt lat="46.63744" lon="0.05623">
        <ele>153.46</ele>
        <time>2023-06-15T00:13:42.225Z</time>
      </trkpt>
      <trkpt lat="46.63741" lon="0.05614">
        <ele>153.56</ele>
        <time>2023-06-15T00:14:32.058Z</time>
      </trkpt>
      <trkpt lat="46.63736" lon="0.056">
        <ele>153.74</ele>
        <time>2023-06-15T00:15:21.892Z</time>
      </trkpt>
      <trkpt lat="46.63731" lon="0.05589">
        <ele>153.83</ele>
        <time>2023-06-15T00:16:11.728Z</time>
      </trkpt>
      <trkpt lat="46.63725" lon="0.05572">
        <ele>153.88</ele>
        <time>2023-06-15T00:17:01.566Z</time>
      </trkpt>
      <trkpt lat="46.6372" lon="0.05561">
        <ele>153.88</ele>
        <time>2023-06-15T00:17:51.405Z</time>
      </trkpt>
      <trkpt lat="46.63716" lon="0.0555">
        <ele>153.85</ele>
        <time>2023-06-15T00:18:41.246Z</time>
      </trkpt>
      <trkpt lat="46.63707" lon="0.05528">
        <ele>153.73</ele>
        <time>2023-06-15T00:19:31.090Z</time>
      </trkpt>
      <trkpt lat="46.63694" lon="0.05494">
        <ele>153.59</ele>
        <time>2023-06-15T00:20:20.938Z</time>
      </trkpt>
      <trkpt lat="46.63682" lon="0.05464">
        <ele>153.3</ele>
        <time>2023-06-15T00:21:10.790Z</time>
      </trkpt>
      <trkpt lat="46.63677" lon="0.05449">
        <ele>153.16</ele>
        <time>2023-06-15T00:22:00.644Z</time>
      </trkpt>
      <trkpt lat="46.63673" lon="0.05438">
        <ele>153.03</ele>
        <time>2023-06-15T00:22:50.499Z</time>
      </trkpt>
      <trkpt lat="46.63669" lon="0.05426">
        <ele>152.88</ele>
        <time>2023-06-15T00:23:40.355Z</time>
      </trkpt>
      <trkpt lat="46.63667" lon="0.05421">
        <ele>152.8</ele>
        <time>2023-06-15T00:24:30.212Z</time>
      </trkpt>
      <trkpt lat="46.6366" lon="0.05407">
        <ele>152.55</ele>
        <time>2023-06-15T00:25:20.071Z</time>
      </trkpt>
      <trkpt lat="46.63659" lon="0.05405">
        <ele>152.51</ele>
        <time>2023-06-15T00:26:09.930Z</time>
      </trkpt>
      <trkpt lat="46.63648" lon="0.05386">
        <ele>152.21</ele>
        <time>2023-06-15T00:26:59.792Z</time>
      </trkpt>
      <trkpt lat="46.63638" lon="0.05372">
        <ele>151.97</ele>
        <time>2023-06-15T00:27:49.656Z</time>
      </trkpt>
      <trkpt lat="46.63635" lon="0.05368">
        <ele>151.91</ele>
        <time>2023-06-15T00:28:39.521Z</time>
      </trkpt>
      <trkpt lat="46.6361" lon="0.0534">
        <ele>151.47</ele>
        <time>2023-06-15T00:29:29.391Z</time>
      </trkpt>
      <trkpt lat="46.63597" lon="0.05325">
        <ele>151.34</ele>
        <time>2023-06-15T00:30:19.263Z</time>
      </trkpt>
      <trkpt lat="46.63596" lon="0.05324">
        <ele>151.33</ele>
        <time>2023-06-15T00:31:09.136Z</time>
      </trkpt>
      <trkpt lat="46.6359" lon="0.05315">
        <ele>151.22</ele>
        <time>2023-06-15T00:31:59.010Z</time>
      </trkpt>
      <trkpt lat="46.63585" lon="0.05308">
        <ele>151.02</ele>
        <time>2023-06-15T00:32:48.885Z</time>
      </trkpt>
      <trkpt lat="46.63581" lon="0.053">
        <ele>150.81</ele>
        <time>2023-06-15T00:33:38.761Z</time>
      </trkpt>
      <trkpt lat="46.63575" lon="0.0529">
        <ele>150.49</ele>
        <time>2023-06-15T00:34:28.639Z</time>
      </trkpt>
      <trkpt lat="46.63573" lon="0.05284">
        <ele>150.3</ele>
        <time>2023-06-15T00:35:18.517Z</time>
      </trkpt>
      <trkpt lat="46.63565" lon="0.05269">
        <ele>149.59</ele>
        <time>2023-06-15T00:36:08.398Z</time>
      </trkpt>
      <trkpt lat="46.63562" lon="0.05264">
        <ele>149.39</ele>
        <time>2023-06-15T00:36:58.279Z</time>
      </trkpt>
      <trkpt lat="46.63559" lon="0.05258">
        <ele>149.23</ele>
        <time>2023-06-15T00:37:48.161Z</time>
      </trkpt>
      <trkpt lat="46.63551" lon="0.05243">
        <ele>148.84</ele>
        <time>2023-06-15T00:38:38.045Z</time>
      </trkpt>
      <trkpt lat="46.63549" lon="0.05238">
        <ele>148.68</ele>
        <time>2023-06-15T00:39:27.930Z</time>
      </trkpt>
      <trkpt lat="46.63546" lon="0.05232">
        <ele>148.49</ele>
        <time>2023-06-15T00:40:17.816Z</time>
      </trkpt>
      <trkpt lat="46.63543" lon="0.05227">
        <ele>148.27</ele>
        <time>2023-06-15T00:41:07.702Z</time>
      </trkpt>
      <trkpt lat="46.63538" lon="0.05217">
        <ele>147.78</ele>
        <time>2023-06-15T00:41:57.590Z</time>
      </trkpt>
      <trkpt lat="46.63535" lon="0.05212">
        <ele>147.52</ele>
        <time>2023-06-15T00:42:47.478Z</time>
      </trkpt>
      <trkpt lat="46.63532" lon="0.05207">
        <ele>147.3</ele>
        <time>2023-06-15T00:43:37.367Z</time>
      </trkpt>
      <trkpt lat="46.63523" lon="0.05193">
        <ele>146.72</ele>
        <time>2023-06-15T00:44:27.258Z</time>
      </trkpt>
      <trkpt lat="46.63523" lon="0.05193">
        <ele>146.72</ele>
        <time>2023-06-15T00:45:17.149Z</time>
      </trkpt>
      <trkpt lat="46.63512" lon="0.05181">
        <ele>146.19</ele>
        <time>2023-06-15T00:46:07.042Z</time>
      </trkpt>
      <trkpt lat="46.63509" lon="0.05177">
        <ele>146</ele>
        <time>2023-06-15T00:46:56.936Z</time>
      </trkpt>
      <trkpt lat="46.63505" lon="0.05173">
        <ele>145.78</ele>
        <time>2023-06-15T00:47:46.831Z</time>
      </trkpt>
      <trkpt lat="46.63503" lon="0.0517">
        <ele>145.61</ele>
        <time>2023-06-15T00:48:36.726Z</time>
      </trkpt>
      <trkpt lat="46.63489" lon="0.0516">
        <ele>144.72</ele>
        <time>2023-06-15T00:49:26.624Z</time>
      </trkpt>
      <trkpt lat="46.63482" lon="0.05155">
        <ele>144.24</ele>
        <time>2023-06-15T00:50:16.523Z</time>
      </trkpt>
      <trkpt lat="46.63473" lon="0.05149">
        <ele>143.85</ele>
        <time>2023-06-15T00:51:06.424Z</time>
      </trkpt>
      <trkpt lat="46.63471" lon="0.05147">
        <ele>143.76</ele>
        <time>2023-06-15T00:51:56.325Z</time>
      </trkpt>
      <trkpt lat="46.6347" lon="0.05146">
        <ele>143.71</ele>
        <time>2023-06-15T00:52:46.226Z</time>
      </trkpt>
      <trkpt lat="46.63466" lon="0.05143">
        <ele>143.6</ele>
        <time>2023-06-15T00:53:36.128Z</time>
      </trkpt>
      <trkpt lat="46.63458" lon="0.05136">
        <ele>143.48</ele>
        <time>2023-06-15T00:54:26.031Z</time>
      </trkpt>
      <trkpt lat="46.63442" lon="0.05124">
        <ele>143.34</ele>
        <time>2023-06-15T00:55:15.937Z</time>
      </trkpt>
      <trkpt lat="46.6343" lon="0.05114">
        <ele>143.21</ele>
        <time>2023-06-15T00:56:05.845Z</time>
      </trkpt>
      <trkpt lat="46.63427" lon="0.05111">
        <ele>143.19</ele>
        <time>2023-06-15T00:56:55.754Z</time>
      </trkpt>
      <trkpt lat="46.63411" lon="0.05098">
        <ele>143.24</ele>
        <time>2023-06-15T00:57:45.666Z</time>
      </trkpt>
      <trkpt lat="46.63407" lon="0.05095">
        <ele>143.29</ele>
        <time>2023-06-15T00:58:35.579Z</time>
      </trkpt>
      <trkpt lat="46.63403" lon="0.05092">
        <ele>143.37</ele>
        <time>2023-06-15T00:59:25.493Z</time>
      </trkpt>
      <trkpt lat="46.63399" lon="0.05089">
        <ele>143.49</ele>
        <time>2023-06-15T01:00:15.407Z</time>
      </trkpt>
      <trkpt lat="46.63398" lon="0.05088">
        <ele>143.53</ele>
        <time>2023-06-15T01:01:05.321Z</time>
      </trkpt>
      <trkpt lat="46.63395" lon="0.05086">
        <ele>143.66</ele>
        <time>2023-06-15T01:01:55.236Z</time>
      </trkpt>
      <trkpt lat="46.63391" lon="0.05084">
        <ele>143.87</ele>
        <time>2023-06-15T01:02:45.152Z</time>
      </trkpt>
      <trkpt lat="46.63374" lon="0.05074">
        <ele>144.82</ele>
        <time>2023-06-15T01:03:35.071Z</time>
      </trkpt>
      <trkpt lat="46.6337" lon="0.05072">
        <ele>145.05</ele>
        <time>2023-06-15T01:04:24.990Z</time>
      </trkpt>
      <trkpt lat="46.63366" lon="0.0507">
        <ele>145.27</ele>
        <time>2023-06-15T01:05:14.910Z</time>
      </trkpt>
      <trkpt lat="46.63356" lon="0.05066">
        <ele>145.75</ele>
        <time>2023-06-15T01:06:04.832Z</time>
      </trkpt>
      <trkpt lat="46.63353" lon="0.05065">
        <ele>145.91</ele>
        <time>2023-06-15T01:06:54.754Z</time>
      </trkpt>
      <trkpt lat="46.63344" lon="0.05062">
        <ele>146.28</ele>
        <time>2023-06-15T01:07:44.678Z</time>
      </trkpt>
      <trkpt lat="46.6334" lon="0.05061">
        <ele>146.44</ele>
        <time>2023-06-15T01:08:34.602Z</time>
      </trkpt>
      <trkpt lat="46.63331" lon="0.05058">
        <ele>146.68</ele>
        <time>2023-06-15T01:09:24.528Z</time>
      </trkpt>
      <trkpt lat="46.63309" lon="0.0505">
        <ele>147.23</ele>
        <time>2023-06-15T01:10:14.457Z</time>
      </trkpt>
      <trkpt lat="46.63297" lon="0.05046">
        <ele>147.65</ele>
        <time>2023-06-15T01:11:04.388Z</time>
      </trkpt>
      <trkpt lat="46.63296" lon="0.05046">
        <ele>147.65</ele>
        <time>2023-06-15T01:11:54.319Z</time>
      </trkpt>
      <trkpt lat="46.63283" lon="0.05041">
        <ele>148.01</ele>
        <time>2023-06-15T01:12:44.253Z</time>
      </trkpt>
      <trkpt lat="46.63275" lon="0.05037">
        <ele>148.23</ele>
        <time>2023-06-15T01:13:34.188Z</time>
      </trkpt>
      <trkpt lat="46.63266" lon="0.05034">
        <ele>148.41</ele>
        <time>2023-06-15T01:14:24.124Z</time>
      </trkpt>
      <trkpt lat="46.63257" lon="0.05031">
        <ele>148.56</ele>
        <time>2023-06-15T01:15:14.062Z</time>
      </trkpt>
      <trkpt lat="46.63253" lon="0.05029">
        <ele>148.61</ele>
        <time>2023-06-15T01:16:04.001Z</time>
      </trkpt>
      <trkpt lat="46.63253" lon="0.05029">
        <ele>148.61</ele>
        <time>2023-06-15T01:16:53.940Z</time>
      </trkpt>
      <trkpt lat="46.63236" lon="0.05021">
        <ele>148.75</ele>
        <time>2023-06-15T01:17:43.881Z</time>
      </trkpt>
      <trkpt lat="46.63232" lon="0.05019">
        <ele>148.77</ele>
        <time>2023-06-15T01:18:33.823Z</time>
      </trkpt>
      <trkpt lat="46.63215" lon="0.05011">
        <ele>148.78</ele>
        <time>2023-06-15T01:19:23.768Z</time>
      </trkpt>
      <trkpt lat="46.63202" lon="0.05005">
        <ele>148.88</ele>
        <time>2023-06-15T01:20:13.715Z</time>
      </trkpt>
      <trkpt lat="46.63198" lon="0.05003">
        <ele>148.9</ele>
        <time>2023-06-15T01:21:03.663Z</time>
      </trkpt>
      <trkpt lat="46.63193" lon="0.05001">
        <ele>148.9</ele>
        <time>2023-06-15T01:21:53.612Z</time>
      </trkpt>
      <trkpt lat="46.6318" lon="0.04995">
        <ele>148.82</ele>
        <time>2023-06-15T01:22:43.563Z</time>
      </trkpt>
      <trkpt lat="46.63177" lon="0.04993">
        <ele>148.81</ele>
        <time>2023-06-15T01:23:33.514Z</time>
      </trkpt>
      <trkpt lat="46.63172" lon="0.0499">
        <ele>148.82</ele>
        <time>2023-06-15T01:24:23.466Z</time>
      </trkpt>
      <trkpt lat="46.6316" lon="0.04983">
        <ele>148.92</ele>
        <time>2023-06-15T01:25:13.420Z</time>
      </trkpt>
      <trkpt lat="46.63156" lon="0.0498">
        <ele>148.93</ele>
        <time>2023-06-15T01:26:03.375Z</time>
      </trkpt>
      <trkpt lat="46.63152" lon="0.04978">
        <ele>148.89</ele>
        <time>2023-06-15T01:26:53.331Z</time>
      </trkpt>
      <trkpt lat="46.63144" lon="0.04973">
        <ele>148.77</ele>
        <time>2023-06-15T01:27:43.288Z</time>
      </trkpt>
      <trkpt lat="46.63139" lon="0.0497">
        <ele>148.76</ele>
        <time>2023-06-15T01:28:33.246Z</time>
      </trkpt>
      <trkpt lat="46.63135" lon="0.04967">
        <ele>148.76</ele>
        <time>2023-06-15T01:29:23.205Z</time>
      </trkpt>
      <trkpt lat="46.63131" lon="0.04965">
        <ele>148.73</ele>
        <time>2023-06-15T01:30:13.164Z</time>
      </trkpt>
      <trkpt lat="46.63127" lon="0.04962">
        <ele>148.66</ele>
        <time>2023-06-15T01:31:03.124Z</time>
      </trkpt>
      <trkpt lat="46.63115" lon="0.04953">
        <ele>148.36</ele>
        <time>2023-06-15T01:31:53.086Z</time>
      </trkpt>
      <trkpt lat="46.63099" lon="0.04942">
        <ele>148.01</ele>
        <time>2023-06-15T01:32:43.051Z</time>
      </trkpt>
      <trkpt lat="46.63094" lon="0.04938">
        <ele>147.87</ele>
        <time>2023-06-15T01:33:33.017Z</time>
      </trkpt>
      <trkpt lat="46.63091" lon="0.04937">
        <ele>147.8</ele>
        <time>2023-06-15T01:34:22.983Z</time>
      </trkpt>
      <trkpt lat="46.63087" lon="0.04935">
        <ele>147.65</ele>
        <time>2023-06-15T01:35:12.950Z</time>
      </trkpt>
      <trkpt lat="46.63082" lon="0.04934">
        <ele>147.46</ele>
        <time>2023-06-15T01:36:02.918Z</time>
      </trkpt>
      <trkpt lat="46.63078" lon="0.04932">
        <ele>147.22</ele>
        <time>2023-06-15T01:36:52.887Z</time>
      </trkpt>
      <trkpt lat="46.63065" lon="0.04927">
        <ele>146.41</ele>
        <time>2023-06-15T01:37:42.858Z</time>
      </trkpt>
      <trkpt lat="46.63061" lon="0.04926">
        <ele>146.18</ele>
        <time>2023-06-15T01:38:32.829Z</time>
      </trkpt>
      <trkpt lat="46.63056" lon="0.04924">
        <ele>145.99</ele>
        <time>2023-06-15T01:39:22.801Z</time>
      </trkpt>
      <trkpt lat="46.63052" lon="0.04923">
        <ele>145.83</ele>
        <time>2023-06-15T01:40:12.774Z</time>
      </trkpt>
      <trkpt lat="46.63043" lon="0.04919">
        <ele>145.61</ele>
        <time>2023-06-15T01:41:02.748Z</time>
      </trkpt>
      <trkpt lat="46.63022" lon="0.04911">
        <ele>145.3</ele>
        <time>2023-06-15T01:41:52.726Z</time>
      </trkpt>
      <trkpt lat="46.63017" lon="0.0491">
        <ele>145.27</ele>
        <time>2023-06-15T01:42:42.705Z</time>
      </trkpt>
      <trkpt lat="46.63013" lon="0.04908">
        <ele>145.26</ele>
        <time>2023-06-15T01:43:32.684Z</time>
      </trkpt>
      <trkpt lat="46.63009" lon="0.04907">
        <ele>145.29</ele>
        <time>2023-06-15T01:44:22.664Z</time>
      </trkpt>
      <trkpt lat="46.63007" lon="0.04906">
        <ele>145.31</ele>
        <time>2023-06-15T01:45:12.644Z</time>
      </trkpt>
      <trkpt lat="46.62996" lon="0.04902">
        <ele>145.48</ele>
        <time>2023-06-15T01:46:02.626Z</time>
      </trkpt>
      <trkpt lat="46.62983" lon="0.04898">
        <ele>145.58</ele>
        <time>2023-06-15T01:46:52.610Z</time>
      </trkpt>
      <trkpt lat="46.62969" lon="0.04894">
        <ele>145.73</ele>
        <time>2023-06-15T01:47:42.597Z</time>
      </trkpt>
      <trkpt lat="46.62965" lon="0.04892">
        <ele>145.74</ele>
        <time>2023-06-15T01:48:32.584Z</time>
      </trkpt>
      <trkpt lat="46.62961" lon="0.04891">
        <ele>145.72</ele>
        <time>2023-06-15T01:49:22.572Z</time>
      </trkpt>
      <trkpt lat="46.62961" lon="0.04891">
        <ele>145.72</ele>
        <time>2023-06-15T01:50:12.560Z</time>
      </trkpt>
      <trkpt lat="46.62956" lon="0.04891">
        <ele>145.67</ele>
        <time>2023-06-15T01:51:02.549Z</time>
      </trkpt>
      <trkpt lat="46.62952" lon="0.04891">
        <ele>145.58</ele>
        <time>2023-06-15T01:51:52.538Z</time>
      </trkpt>
      <trkpt lat="46.62947" lon="0.04891">
        <ele>145.44</ele>
        <time>2023-06-15T01:52:42.528Z</time>
      </trkpt>
      <trkpt lat="46.62936" lon="0.04891">
        <ele>144.92</ele>
        <time>2023-06-15T01:53:32.520Z</time>
      </trkpt>
      <trkpt lat="46.62934" lon="0.04892">
        <ele>144.83</ele>
        <time>2023-06-15T01:54:22.512Z</time>
      </trkpt>
      <trkpt lat="46.62921" lon="0.04898">
        <ele>144.13</ele>
        <time>2023-06-15T01:55:12.506Z</time>
      </trkpt>
      <trkpt lat="46.62913" lon="0.04902">
        <ele>144.09</ele>
        <time>2023-06-15T01:56:02.502Z</time>
      </trkpt>
      <trkpt lat="46.62901" lon="0.04909">
        <ele>143.94</ele>
        <time>2023-06-15T01:56:52.500Z</time>
      </trkpt>
      <trkpt lat="46.62896" lon="0.04911">
        <ele>143.84</ele>
        <time>2023-06-15T01:57:42.499Z</time>
      </trkpt>
      <trkpt lat="46.62896" lon="0.04911">
        <ele>143.84</ele>
        <time>2023-06-15T01:58:32.498Z</time>
      </trkpt>
      <trkpt lat="46.62893" lon="0.04913">
        <ele>143.71</ele>
        <time>2023-06-15T01:59:22.497Z</time>
      </trkpt>
      <trkpt lat="46.62889" lon="0.04916">
        <ele>143.55</ele>
        <time>2023-06-15T02:00:12.497Z</time>
      </trkpt>
      <trkpt lat="46.62885" lon="0.04919">
        <ele>143.34</ele>
        <time>2023-06-15T02:01:02.498Z</time>
      </trkpt>
      <trkpt lat="46.62882" lon="0.04921">
        <ele>143.09</ele>
        <time>2023-06-15T02:01:52.499Z</time>
      </trkpt>
      <trkpt lat="46.62881" lon="0.0492">
        <ele>143.09</ele>
        <time>2023-06-15T02:02:42.500Z</time>
      </trkpt>
      <trkpt lat="46.62878" lon="0.04917">
        <ele>142.82</ele>
        <time>2023-06-15T02:03:32.502Z</time>
      </trkpt>
      <trkpt lat="46.6287" lon="0.0491">
        <ele>142.21</ele>
        <time>2023-06-15T02:04:22.505Z</time>
      </trkpt>
      <trkpt lat="46.6287" lon="0.0491">
        <ele>142.21</ele>
        <time>2023-06-15T02:05:12.508Z</time>
      </trkpt>
      <trkpt lat="46.62862" lon="0.04905">
        <ele>141.08</ele>
        <time>2023-06-15T02:06:02.513Z</time>
      </trkpt>
      <trkpt lat="46.62846" lon="0.04896">
        <ele>138.7</ele>
        <time>2023-06-15T02:06:52.521Z</time>
      </trkpt>
      <trkpt lat="46.62838" lon="0.04891">
        <ele>137.57</ele>
        <time>2023-06-15T02:07:42.530Z</time>
      </trkpt>
      <trkpt lat="46.62831" lon="0.04888">
        <ele>136.64</ele>
        <time>2023-06-15T02:08:32.540Z</time>
      </trkpt>
      <trkpt lat="46.6283" lon="0.04888">
        <ele>136.49</ele>
        <time>2023-06-15T02:09:22.550Z</time>
      </trkpt>
      <trkpt lat="46.62818" lon="0.04888">
        <ele>135.04</ele>
        <time>2023-06-15T02:10:12.562Z</time>
      </trkpt>
      <trkpt lat="46.62817" lon="0.04888">
        <ele>134.89</ele>
        <time>2023-06-15T02:11:02.574Z</time>
      </trkpt>
      <trkpt lat="46.62808" lon="0.04889">
        <ele>133.86</ele>
        <time>2023-06-15T02:11:52.588Z</time>
      </trkpt>
      <trkpt lat="46.62795" lon="0.04891">
        <ele>132.37</ele>
        <time>2023-06-15T02:12:42.604Z</time>
      </trkpt>
      <trkpt lat="46.62786" lon="0.04893">
        <ele>131.42</ele>
        <time>2023-06-15T02:13:32.621Z</time>
      </trkpt>
      <trkpt lat="46.62782" lon="0.04893">
        <ele>131.43</ele>
        <time>2023-06-15T02:14:22.639Z</time>
      </trkpt>
      <trkpt lat="46.62778" lon="0.04894">
        <ele>131.4</ele>
        <time>2023-06-15T02:15:12.658Z</time>
      </trkpt>
      <trkpt lat="46.62774" lon="0.04895">
        <ele>131.33</ele>
        <time>2023-06-15T02:16:02.677Z</time>
      </trkpt>
      <trkpt lat="46.62769" lon="0.04895">
        <ele>131.22</ele>
        <time>2023-06-15T02:16:52.697Z</time>
      </trkpt>
      <trkpt lat="46.62765" lon="0.04896">
        <ele>131.08</ele>
        <time>2023-06-15T02:17:42.718Z</time>
      </trkpt>
      <trkpt lat="46.62757" lon="0.04897">
        <ele>130.7</ele>
        <time>2023-06-15T02:18:32.740Z</time>
      </trkpt>
      <trkpt lat="46.62756" lon="0.04897">
        <ele>130.7</ele>
        <time>2023-06-15T02:19:22.762Z</time>
      </trkpt>
      <trkpt lat="46.62744" lon="0.04903">
        <ele>130.04</ele>
        <time>2023-06-15T02:20:12.786Z</time>
      </trkpt>
      <trkpt lat="46.62741" lon="0.04884">
        <ele>129.37</ele>
        <time>2023-06-15T02:21:02.812Z</time>
      </trkpt>
      <trkpt lat="46.6274" lon="0.04878">
        <ele>129.2</ele>
        <time>2023-06-15T02:21:52.839Z</time>
      </trkpt>
      <trkpt lat="46.62739" lon="0.04872">
        <ele>129.07</ele>
        <time>2023-06-15T02:22:42.867Z</time>
      </trkpt>
      <trkpt lat="46.62738" lon="0.04866">
        <ele>128.96</ele>
        <time>2023-06-15T02:23:32.895Z</time>
      </trkpt>
      <trkpt lat="46.62737" lon="0.0486">
        <ele>128.88</ele>
        <time>2023-06-15T02:24:22.924Z</time>
      </trkpt>
      <trkpt lat="46.62736" lon="0.04853">
        <ele>128.82</ele>
        <time>2023-06-15T02:25:12.954Z</time>
      </trkpt>
      <trkpt lat="46.62734" lon="0.04848">
        <ele>128.77</ele>
        <time>2023-06-15T02:26:02.985Z</time>
      </trkpt>
      <trkpt lat="46.62731" lon="0.04836">
        <ele>128.75</ele>
        <time>2023-06-15T02:26:53.017Z</time>
      </trkpt>
      <trkpt lat="46.62728" lon="0.04828">
        <ele>128.78</ele>
        <time>2023-06-15T02:27:43.050Z</time>
      </trkpt>
      <trkpt lat="46.62726" lon="0.04825">
        <ele>128.8</ele>
        <time>2023-06-15T02:28:33.083Z</time>
      </trkpt>
      <trkpt lat="46.6272" lon="0.04815">
        <ele>128.79</ele>
        <time>2023-06-15T02:29:23.118Z</time>
      </trkpt>
      <trkpt lat="46.6272" lon="0.04815">
        <ele>128.79</ele>
        <time>2023-06-15T02:30:13.153Z</time>
      </trkpt>
      <trkpt lat="46.62708" lon="0.04805">
        <ele>129.53</ele>
        <time>2023-06-15T02:31:03.190Z</time>
      </trkpt>
      <trkpt lat="46.62699" lon="0.04798">
        <ele>130.17</ele>
        <time>2023-06-15T02:31:53.229Z</time>
      </trkpt>
      <trkpt lat="46.62696" lon="0.04797">
        <ele>130.35</ele>
        <time>2023-06-15T02:32:43.268Z</time>
      </trkpt>
      <trkpt lat="46.62688" lon="0.04792">
        <ele>130.99</ele>
        <time>2023-06-15T02:33:33.309Z</time>
      </trkpt>
      <trkpt lat="46.62681" lon="0.04788">
        <ele>131.58</ele>
        <time>2023-06-15T02:34:23.351Z</time>
      </trkpt>
      <trkpt lat="46.6268" lon="0.04787">
        <ele>131.7</ele>
        <time>2023-06-15T02:35:13.393Z</time>
      </trkpt>
      <trkpt lat="46.62676" lon="0.04784">
        <ele>132.08</ele>
        <time>2023-06-15T02:36:03.436Z</time>
      </trkpt>
      <trkpt lat="46.62668" lon="0.04778">
        <ele>132.91</ele>
        <time>2023-06-15T02:36:53.480Z</time>
      </trkpt>
      <trkpt lat="46.62648" lon="0.04762">
        <ele>135.11</ele>
        <time>2023-06-15T02:37:43.528Z</time>
      </trkpt>
      <trkpt lat="46.62632" lon="0.04749">
        <ele>136.82</ele>
        <time>2023-06-15T02:38:33.579Z</time>
      </trkpt>
      <trkpt lat="46.62632" lon="0.04749">
        <ele>136.82</ele>
        <time>2023-06-15T02:39:23.630Z</time>
      </trkpt>
      <trkpt lat="46.62612" lon="0.04738">
        <ele>139.08</ele>
        <time>2023-06-15T02:40:13.684Z</time>
      </trkpt>
      <trkpt lat="46.62604" lon="0.04733">
        <ele>139.9</ele>
        <time>2023-06-15T02:41:03.740Z</time>
      </trkpt>
      <trkpt lat="46.62595" lon="0.04728">
        <ele>140.64</ele>
        <time>2023-06-15T02:41:53.797Z</time>
      </trkpt>
      <trkpt lat="46.62579" lon="0.04718">
        <ele>142</ele>
        <time>2023-06-15T02:42:43.857Z</time>
      </trkpt>
      <trkpt lat="46.62558" lon="0.04707">
        <ele>143.86</ele>
        <time>2023-06-15T02:43:33.920Z</time>
      </trkpt>
      <trkpt lat="46.62552" lon="0.04703">
        <ele>144.38</ele>
        <time>2023-06-15T02:44:23.985Z</time>
      </trkpt>
      <trkpt lat="46.62546" lon="0.04698">
        <ele>144.92</ele>
        <time>2023-06-15T02:45:14.051Z</time>
      </trkpt>
      <trkpt lat="46.62542" lon="0.04695">
        <ele>145.25</ele>
        <time>2023-06-15T02:46:04.117Z</time>
      </trkpt>
      <trkpt lat="46.62535" lon="0.04688">
        <ele>145.86</ele>
        <time>2023-06-15T02:46:54.185Z</time>
      </trkpt>
      <trkpt lat="46.62531" lon="0.04685">
        <ele>146.14</ele>
        <time>2023-06-15T02:47:44.253Z</time>
      </trkpt>
      <trkpt lat="46.62527" lon="0.04681">
        <ele>146.37</ele>
        <time>2023-06-15T02:48:34.322Z</time>
      </trkpt>
      <trkpt lat="46.62523" lon="0.04678">
        <ele>146.54</ele>
        <time>2023-06-15T02:49:24.392Z</time>
      </trkpt>
      <trkpt lat="46.62519" lon="0.04675">
        <ele>146.68</ele>
        <time>2023-06-15T02:50:14.463Z</time>
      </trkpt>
      <trkpt lat="46.62512" lon="0.04668">
        <ele>146.86</ele>
        <time>2023-06-15T02:51:04.535Z</time>
      </trkpt>
      <trkpt lat="46.62505" lon="0.04662">
        <ele>146.95</ele>
        <time>2023-06-15T02:51:54.608Z</time>
      </trkpt>
      <trkpt lat="46.62496" lon="0.04657">
        <ele>147.08</ele>
        <time>2023-06-15T02:52:44.683Z</time>
      </trkpt>
      <trkpt lat="46.62479" lon="0.04647">
        <ele>147.37</ele>
        <time>2023-06-15T02:53:34.761Z</time>
      </trkpt>
      <trkpt lat="46.62463" lon="0.04638">
        <ele>147.53</ele>
        <time>2023-06-15T02:54:24.842Z</time>
      </trkpt>
      <trkpt lat="46.62458" lon="0.04635">
        <ele>147.58</ele>
        <time>2023-06-15T02:55:14.923Z</time>
      </trkpt>
      <trkpt lat="46.6245" lon="0.04631">
        <ele>147.68</ele>
        <time>2023-06-15T02:56:05.006Z</time>
      </trkpt>
      <trkpt lat="46.62441" lon="0.04627">
        <ele>147.82</ele>
        <time>2023-06-15T02:56:55.090Z</time>
      </trkpt>
      <trkpt lat="46.62428" lon="0.04621">
        <ele>148.08</ele>
        <time>2023-06-15T02:57:45.176Z</time>
      </trkpt>
      <trkpt lat="46.62428" lon="0.04621">
        <ele>148.08</ele>
        <time>2023-06-15T02:58:35.262Z</time>
      </trkpt>
      <trkpt lat="46.62416" lon="0.04614">
        <ele>148.29</ele>
        <time>2023-06-15T02:59:25.350Z</time>
      </trkpt>
      <trkpt lat="46.62404" lon="0.04607">
        <ele>148.45</ele>
        <time>2023-06-15T03:00:15.441Z</time>
      </trkpt>
      <trkpt lat="46.62402" lon="0.04606">
        <ele>148.46</ele>
        <time>2023-06-15T03:01:05.532Z</time>
      </trkpt>
      <trkpt lat="46.62394" lon="0.04595">
        <ele>148.54</ele>
        <time>2023-06-15T03:01:55.625Z</time>
      </trkpt>
      <trkpt lat="46.62394" lon="0.04594">
        <ele>148.54</ele>
        <time>2023-06-15T03:02:45.718Z</time>
      </trkpt>
      <trkpt lat="46.62389" lon="0.04582">
        <ele>148.66</ele>
        <time>2023-06-15T03:03:35.812Z</time>
      </trkpt>
      <trkpt lat="46.62387" lon="0.04564">
        <ele>148.82</ele>
        <time>2023-06-15T03:04:25.908Z</time>
      </trkpt>
      <trkpt lat="46.62385" lon="0.04545">
        <ele>148.96</ele>
        <time>2023-06-15T03:05:16.006Z</time>
      </trkpt>
      <trkpt lat="46.62383" lon="0.04525">
        <ele>149.04</ele>
        <time>2023-06-15T03:06:06.107Z</time>
      </trkpt>
      <trkpt lat="46.62382" lon="0.04513">
        <ele>149.07</ele>
        <time>2023-06-15T03:06:56.209Z</time>
      </trkpt>
      <trkpt lat="46.62381" lon="0.04506">
        <ele>149.09</ele>
        <time>2023-06-15T03:07:46.312Z</time>
      </trkpt>
      <trkpt lat="46.62378" lon="0.04488">
        <ele>149.09</ele>
        <time>2023-06-15T03:08:36.417Z</time>
      </trkpt>
      <trkpt lat="46.62376" lon="0.04475">
        <ele>149.07</ele>
        <time>2023-06-15T03:09:26.523Z</time>
      </trkpt>
      <trkpt lat="46.62374" lon="0.04464">
        <ele>149.02</ele>
        <time>2023-06-15T03:10:16.631Z</time>
      </trkpt>
      <trkpt lat="46.6237" lon="0.04459">
        <ele>148.99</ele>
        <time>2023-06-15T03:11:06.739Z</time>
      </trkpt>
      <trkpt lat="46.62361" lon="0.04463">
        <ele>148.94</ele>
        <time>2023-06-15T03:11:56.849Z</time>
      </trkpt>
      <trkpt lat="46.6234" lon="0.04471">
        <ele>148.96</ele>
        <time>2023-06-15T03:12:46.962Z</time>
      </trkpt>
      <trkpt lat="46.62328" lon="0.04476">
        <ele>148.98</ele>
        <time>2023-06-15T03:13:37.077Z</time>
      </trkpt>
      <trkpt lat="46.62324" lon="0.04475">
        <ele>148.99</ele>
        <time>2023-06-15T03:14:27.193Z</time>
      </trkpt>
      <trkpt lat="46.62321" lon="0.04457">
        <ele>149.02</ele>
        <time>2023-06-15T03:15:17.311Z</time>
      </trkpt>
      <trkpt lat="46.62312" lon="0.04424">
        <ele>149.08</ele>
        <time>2023-06-15T03:16:07.433Z</time>
      </trkpt>
      <trkpt lat="46.6231" lon="0.04416">
        <ele>149.08</ele>
        <time>2023-06-15T03:16:57.556Z</time>
      </trkpt>
      <trkpt lat="46.62309" lon="0.04353">
        <ele>149.11</ele>
        <time>2023-06-15T03:17:47.686Z</time>
      </trkpt>
      <trkpt lat="46.62309" lon="0.0435">
        <ele>149.11</ele>
        <time>2023-06-15T03:18:37.816Z</time>
      </trkpt>
      <trkpt lat="46.62296" lon="0.04319">
        <ele>149.24</ele>
        <time>2023-06-15T03:19:27.950Z</time>
      </trkpt>
      <trkpt lat="46.62293" lon="0.04313">
        <ele>149.27</ele>
        <time>2023-06-15T03:20:18.085Z</time>
      </trkpt>
      <trkpt lat="46.6229" lon="0.04297">
        <ele>149.36</ele>
        <time>2023-06-15T03:21:08.222Z</time>
      </trkpt>
      <trkpt lat="46.6229" lon="0.04295">
        <ele>149.37</ele>
        <time>2023-06-15T03:21:58.359Z</time>
      </trkpt>
      <trkpt lat="46.6229" lon="0.04269">
        <ele>149.47</ele>
        <time>2023-06-15T03:22:48.499Z</time>
      </trkpt>
      <trkpt lat="46.6229" lon="0.04267">
        <ele>149.47</ele>
        <time>2023-06-15T03:23:38.639Z</time>
      </trkpt>
      <trkpt lat="46.62301" lon="0.04237">
        <ele>149.52</ele>
        <time>2023-06-15T03:24:28.783Z</time>
      </trkpt>
      <trkpt lat="46.623" lon="0.04235">
        <ele>149.53</ele>
        <time>2023-06-15T03:25:18.927Z</time>
      </trkpt>
      <trkpt lat="46.62285" lon="0.04213">
        <ele>149.61</ele>
        <time>2023-06-15T03:26:09.075Z</time>
      </trkpt>
      <trkpt lat="46.6228" lon="0.04209">
        <ele>149.64</ele>
        <time>2023-06-15T03:26:59.223Z</time>
      </trkpt>
      <trkpt lat="46.62278" lon="0.04207">
        <ele>149.63</ele>
        <time>2023-06-15T03:27:49.372Z</time>
      </trkpt>
      <trkpt lat="46.62269" lon="0.04192">
        <ele>149.63</ele>
        <time>2023-06-15T03:28:39.523Z</time>
      </trkpt>
      <trkpt lat="46.62268" lon="0.0419">
        <ele>149.63</ele>
        <time>2023-06-15T03:29:29.674Z</time>
      </trkpt>
      <trkpt lat="46.62265" lon="0.04178">
        <ele>149.65</ele>
        <time>2023-06-15T03:30:19.827Z</time>
      </trkpt>
      <trkpt lat="46.62261" lon="0.04166">
        <ele>149.74</ele>
        <time>2023-06-15T03:31:09.981Z</time>
      </trkpt>
      <trkpt lat="46.62252" lon="0.04137">
        <ele>150.04</ele>
        <time>2023-06-15T03:32:00.139Z</time>
      </trkpt>
      <trkpt lat="46.62249" lon="0.04127">
        <ele>150.07</ele>
        <time>2023-06-15T03:32:50.298Z</time>
      </trkpt>
      <trkpt lat="46.62245" lon="0.04106">
        <ele>150.16</ele>
        <time>2023-06-15T03:33:40.459Z</time>
      </trkpt>
      <trkpt lat="46.62239" lon="0.04069">
        <ele>150.39</ele>
        <time>2023-06-15T03:34:30.625Z</time>
      </trkpt>
      <trkpt lat="46.62239" lon="0.04068">
        <ele>150.39</ele>
        <time>2023-06-15T03:35:20.791Z</time>
      </trkpt>
      <trkpt lat="46.62232" lon="0.04044">
        <ele>150.46</ele>
        <time>2023-06-15T03:36:10.959Z</time>
      </trkpt>
      <trkpt lat="46.62228" lon="0.04032">
        <ele>150.43</ele>
        <time>2023-06-15T03:37:01.129Z</time>
      </trkpt>
      <trkpt lat="46.62227" lon="0.04029">
        <ele>150.4</ele>
        <time>2023-06-15T03:37:51.299Z</time>
      </trkpt>
      <trkpt lat="46.62216" lon="0.04014">
        <ele>150.29</ele>
        <time>2023-06-15T03:38:41.472Z</time>
      </trkpt>
      <trkpt lat="46.62207" lon="0.04001">
        <ele>150.24</ele>
        <time>2023-06-15T03:39:31.647Z</time>
      </trkpt>
      <trkpt lat="46.62206" lon="0.04">
        <ele>150.24</ele>
        <time>2023-06-15T03:40:21.822Z</time>
      </trkpt>
      <trkpt lat="46.62206" lon="0.04">
        <ele>150.62</ele>
        <time>2023-06-15T03:41:11.997Z</time>
      </trkpt>
      <trkpt lat="46.62189" lon="0.03993">
        <ele>149.73</ele>
        <time>2023-06-15T03:42:02.175Z</time>
      </trkpt>
      <trkpt lat="46.62186" lon="0.03992">
        <ele>149.45</ele>
        <time>2023-06-15T03:42:52.353Z</time>
      </trkpt>
      <trkpt lat="46.62179" lon="0.03979">
        <ele>148.49</ele>
        <time>2023-06-15T03:43:42.533Z</time>
      </trkpt>
      <trkpt lat="46.62173" lon="0.03966">
        <ele>147.8</ele>
        <time>2023-06-15T03:44:32.715Z</time>
      </trkpt>
      <trkpt lat="46.62168" lon="0.03972">
        <ele>147.39</ele>
        <time>2023-06-15T03:45:22.898Z</time>
      </trkpt>
      <trkpt lat="46.62159" lon="0.03981">
        <ele>146.96</ele>
        <time>2023-06-15T03:46:13.083Z</time>
      </trkpt>
      <trkpt lat="46.62154" lon="0.03978">
        <ele>146.76</ele>
        <time>2023-06-15T03:47:03.268Z</time>
      </trkpt>
      <trkpt lat="46.62145" lon="0.03974">
        <ele>145.85</ele>
        <time>2023-06-15T03:47:53.455Z</time>
      </trkpt>
      <trkpt lat="46.62141" lon="0.03972">
        <ele>145.45</ele>
        <time>2023-06-15T03:48:43.643Z</time>
      </trkpt>
      <trkpt lat="46.62132" lon="0.03965">
        <ele>144.56</ele>
        <time>2023-06-15T03:49:33.832Z</time>
      </trkpt>
      <trkpt lat="46.62127" lon="0.03962">
        <ele>142.89</ele>
        <time>2023-06-15T03:50:24.022Z</time>
      </trkpt>
      <trkpt lat="46.62127" lon="0.03962">
        <ele>132.33</ele>
        <time>2023-06-15T03:51:14.212Z</time>
      </trkpt>
      <trkpt lat="46.62118" lon="0.03956">
        <ele>131.61</ele>
        <time>2023-06-15T03:52:04.404Z</time>
      </trkpt>
      <trkpt lat="46.62114" lon="0.03953">
        <ele>131.31</ele>
        <time>2023-06-15T03:52:54.597Z</time>
      </trkpt>
      <trkpt lat="46.62105" lon="0.03948">
        <ele>130.77</ele>
        <time>2023-06-15T03:53:44.791Z</time>
      </trkpt>
      <trkpt lat="46.62102" lon="0.03946">
        <ele>130.57</ele>
        <time>2023-06-15T03:54:34.986Z</time>
      </trkpt>
      <trkpt lat="46.62097" lon="0.03944">
        <ele>130.29</ele>
        <time>2023-06-15T03:55:25.181Z</time>
      </trkpt>
      <trkpt lat="46.62092" lon="0.03943">
        <ele>130.03</ele>
        <time>2023-06-15T03:56:15.377Z</time>
      </trkpt>
      <trkpt lat="46.62089" lon="0.03947">
        <ele>129.84</ele>
        <time>2023-06-15T03:57:05.574Z</time>
      </trkpt>
      <trkpt lat="46.62088" lon="0.03949">
        <ele>129.75</ele>
        <time>2023-06-15T03:57:55.771Z</time>
      </trkpt>
      <trkpt lat="46.62092" lon="0.03956">
        <ele>129.45</ele>
        <time>2023-06-15T03:58:45.969Z</time>
      </trkpt>
      <trkpt lat="46.62092" lon="0.03957">
        <ele>129.45</ele>
        <time>2023-06-15T03:59:36.167Z</time>
      </trkpt>
      <trkpt lat="46.62093" lon="0.0397">
        <ele>129.11</ele>
        <time>2023-06-15T04:00:26.367Z</time>
      </trkpt>
      <trkpt lat="46.62094" lon="0.03983">
        <ele>128.81</ele>
        <time>2023-06-15T04:01:16.568Z</time>
      </trkpt>
      <trkpt lat="46.62095" lon="0.03988">
        <ele>128.68</ele>
        <time>2023-06-15T04:02:06.770Z</time>
      </trkpt>
      <trkpt lat="46.62095" lon="0.03989">
        <ele>128.68</ele>
        <time>2023-06-15T04:02:56.972Z</time>
      </trkpt>
      <trkpt lat="46.62091" lon="0.04">
        <ele>128.48</ele>
        <time>2023-06-15T04:03:47.175Z</time>
      </trkpt>
      <trkpt lat="46.62091" lon="0.04">
        <ele>128.48</ele>
        <time>2023-06-15T04:04:37.378Z</time>
      </trkpt>
      <trkpt lat="46.62084" lon="0.04009">
        <ele>128.34</ele>
        <time>2023-06-15T04:05:27.583Z</time>
      </trkpt>
      <trkpt lat="46.62078" lon="0.04018">
        <ele>128.24</ele>
        <time>2023-06-15T04:06:17.789Z</time>
      </trkpt>
      <trkpt lat="46.62065" lon="0.04036">
        <ele>128.18</ele>
        <time>2023-06-15T04:07:07.998Z</time>
      </trkpt>
      <trkpt lat="46.62052" lon="0.04054">
        <ele>128.09</ele>
        <time>2023-06-15T04:07:58.210Z</time>
      </trkpt>
      <trkpt lat="46.62045" lon="0.04063">
        <ele>128.1</ele>
        <time>2023-06-15T04:08:48.423Z</time>
      </trkpt>
      <trkpt lat="46.62039" lon="0.04071">
        <ele>128.17</ele>
        <time>2023-06-15T04:09:38.638Z</time>
      </trkpt>
      <trkpt lat="46.62023" lon="0.04093">
        <ele>128.47</ele>
        <time>2023-06-15T04:10:28.856Z</time>
      </trkpt>
      <trkpt lat="46.6202" lon="0.04099">
        <ele>128.55</ele>
        <time>2023-06-15T04:11:19.075Z</time>
      </trkpt>
      <trkpt lat="46.62018" lon="0.04105">
        <ele>128.59</ele>
        <time>2023-06-15T04:12:09.295Z</time>
      </trkpt>
      <trkpt lat="46.62013" lon="0.04116">
        <ele>128.63</ele>
        <time>2023-06-15T04:12:59.516Z</time>
      </trkpt>
      <trkpt lat="46.62013" lon="0.04135">
        <ele>128.69</ele>
        <time>2023-06-15T04:13:49.739Z</time>
      </trkpt>
      <trkpt lat="46.62013" lon="0.04144">
        <ele>128.41</ele>
        <time>2023-06-15T04:14:39.963Z</time>
      </trkpt>
      <trkpt lat="46.62012" lon="0.04149">
        <ele>128.28</ele>
        <time>2023-06-15T04:15:30.188Z</time>
      </trkpt>
      <trkpt lat="46.6201" lon="0.04167">
        <ele>128.17</ele>
        <time>2023-06-15T04:16:20.415Z</time>
      </trkpt>
      <trkpt lat="46.62007" lon="0.04175">
        <ele>128.12</ele>
        <time>2023-06-15T04:17:10.643Z</time>
      </trkpt>
      <trkpt lat="46.62005" lon="0.04178">
        <ele>128.1</ele>
        <time>2023-06-15T04:18:00.871Z</time>
      </trkpt>
      <trkpt lat="46.61998" lon="0.04186">
        <ele>128.05</ele>
        <time>2023-06-15T04:18:51.101Z</time>
      </trkpt>
      <trkpt lat="46.61996" lon="0.04189">
        <ele>128.04</ele>
        <time>2023-06-15T04:19:41.331Z</time>
      </trkpt>
      <trkpt lat="46.61991" lon="0.04193">
        <ele>128.03</ele>
        <time>2023-06-15T04:20:31.562Z</time>
      </trkpt>
      <trkpt lat="46.61988" lon="0.04194">
        <ele>128.02</ele>
        <time>2023-06-15T04:21:21.794Z</time>
      </trkpt>
      <trkpt lat="46.61985" lon="0.04193">
        <ele>128.02</ele>
        <time>2023-06-15T04:22:12.026Z</time>
      </trkpt>
      <trkpt lat="46.61975" lon="0.04183">
        <ele>128</ele>
        <time>2023-06-15T04:23:02.260Z</time>
      </trkpt>
      <trkpt lat="46.61962" lon="0.04169">
        <ele>127.92</ele>
        <time>2023-06-15T04:23:52.497Z</time>
      </trkpt>
      <trkpt lat="46.61961" lon="0.04168">
        <ele>127.92</ele>
        <time>2023-06-15T04:24:42.734Z</time>
      </trkpt>
      <trkpt lat="46.61945" lon="0.04138">
        <ele>127.96</ele>
        <time>2023-06-15T04:25:32.975Z</time>
      </trkpt>
      <trkpt lat="46.6194" lon="0.04128">
        <ele>128.04</ele>
        <time>2023-06-15T04:26:23.217Z</time>
      </trkpt>
      <trkpt lat="46.61936" lon="0.04122">
        <ele>128.14</ele>
        <time>2023-06-15T04:27:13.460Z</time>
      </trkpt>
      <trkpt lat="46.61933" lon="0.0412">
        <ele>128.2</ele>
        <time>2023-06-15T04:28:03.704Z</time>
      </trkpt>
      <trkpt lat="46.61931" lon="0.04118">
        <ele>128.26</ele>
        <time>2023-06-15T04:28:53.948Z</time>
      </trkpt>
      <trkpt lat="46.61925" lon="0.04117">
        <ele>128.41</ele>
        <time>2023-06-15T04:29:44.193Z</time>
      </trkpt>
      <trkpt lat="46.61925" lon="0.04117">
        <ele>128.41</ele>
        <time>2023-06-15T04:30:34.438Z</time>
      </trkpt>
      <trkpt lat="46.61917" lon="0.04123">
        <ele>128.78</ele>
        <time>2023-06-15T04:31:24.684Z</time>
      </trkpt>
      <trkpt lat="46.61906" lon="0.04132">
        <ele>129.29</ele>
        <time>2023-06-15T04:32:14.933Z</time>
      </trkpt>
      <trkpt lat="46.61902" lon="0.04135">
        <ele>129.5</ele>
        <time>2023-06-15T04:33:05.182Z</time>
      </trkpt>
      <trkpt lat="46.61896" lon="0.0414">
        <ele>129.83</ele>
        <time>2023-06-15T04:33:55.432Z</time>
      </trkpt>
      <trkpt lat="46.61893" lon="0.04141">
        <ele>129.97</ele>
        <time>2023-06-15T04:34:45.683Z</time>
      </trkpt>
      <trkpt lat="46.6188" lon="0.04143">
        <ele>130.75</ele>
        <time>2023-06-15T04:35:35.936Z</time>
      </trkpt>
      <trkpt lat="46.61871" lon="0.04145">
        <ele>131.22</ele>
        <time>2023-06-15T04:36:26.190Z</time>
      </trkpt>
      <trkpt lat="46.61871" lon="0.04145">
        <ele>131.22</ele>
        <time>2023-06-15T04:37:16.444Z</time>
      </trkpt>
      <trkpt lat="46.61859" lon="0.04144">
        <ele>131.82</ele>
        <time>2023-06-15T04:38:06.700Z</time>
      </trkpt>
      <trkpt lat="46.61845" lon="0.0414">
        <ele>132.54</ele>
        <time>2023-06-15T04:38:56.959Z</time>
      </trkpt>
      <trkpt lat="46.61843" lon="0.0414">
        <ele>132.61</ele>
        <time>2023-06-15T04:39:47.218Z</time>
      </trkpt>
      <trkpt lat="46.61828" lon="0.04132">
        <ele>133.36</ele>
        <time>2023-06-15T04:40:37.480Z</time>
      </trkpt>
      <trkpt lat="46.61818" lon="0.04127">
        <ele>133.85</ele>
        <time>2023-06-15T04:41:27.743Z</time>
      </trkpt>
      <trkpt lat="46.61806" lon="0.04129">
        <ele>134.45</ele>
        <time>2023-06-15T04:42:18.008Z</time>
      </trkpt>
      <trkpt lat="46.61803" lon="0.04129">
        <ele>134.59</ele>
        <time>2023-06-15T04:43:08.274Z</time>
      </trkpt>
      <trkpt lat="46.61788" lon="0.04125">
        <ele>135.4</ele>
        <time>2023-06-15T04:43:58.542Z</time>
      </trkpt>
      <trkpt lat="46.61782" lon="0.04123">
        <ele>135.67</ele>
        <time>2023-06-15T04:44:48.811Z</time>
      </trkpt>
      <trkpt lat="46.61772" lon="0.04124">
        <ele>136.13</ele>
        <time>2023-06-15T04:45:39.082Z</time>
      </trkpt>
      <trkpt lat="46.61766" lon="0.04127">
        <ele>136.41</ele>
        <time>2023-06-15T04:46:29.354Z</time>
      </trkpt>
      <trkpt lat="46.61757" lon="0.0413">
        <ele>136.91</ele>
        <time>2023-06-15T04:47:19.627Z</time>
      </trkpt>
      <trkpt lat="46.61751" lon="0.04133">
        <ele>137.34</ele>
        <time>2023-06-15T04:48:09.901Z</time>
      </trkpt>
      <trkpt lat="46.61744" lon="0.04134">
        <ele>137.8</ele>
        <time>2023-06-15T04:49:00.176Z</time>
      </trkpt>
      <trkpt lat="46.6174" lon="0.04135">
        <ele>138.08</ele>
        <time>2023-06-15T04:49:50.452Z</time>
      </trkpt>
      <trkpt lat="46.61735" lon="0.04135">
        <ele>138.32</ele>
        <time>2023-06-15T04:50:40.729Z</time>
      </trkpt>
      <trkpt lat="46.61731" lon="0.04136">
        <ele>138.53</ele>
        <time>2023-06-15T04:51:31.006Z</time>
      </trkpt>
      <trkpt lat="46.61722" lon="0.04137">
        <ele>138.91</ele>
        <time>2023-06-15T04:52:21.285Z</time>
      </trkpt>
      <trkpt lat="46.61716" lon="0.04138">
        <ele>139.13</ele>
        <time>2023-06-15T04:53:11.565Z</time>
      </trkpt>
      <trkpt lat="46.6171" lon="0.04144">
        <ele>139.43</ele>
        <time>2023-06-15T04:54:01.846Z</time>
      </trkpt>
      <trkpt lat="46.61694" lon="0.04157">
        <ele>140.02</ele>
        <time>2023-06-15T04:54:52.130Z</time>
      </trkpt>
      <trkpt lat="46.61683" lon="0.04168">
        <ele>140.5</ele>
        <time>2023-06-15T04:55:42.416Z</time>
      </trkpt>
      <trkpt lat="46.61677" lon="0.04173">
        <ele>140.71</ele>
        <time>2023-06-15T04:56:32.703Z</time>
      </trkpt>
      <trkpt lat="46.61675" lon="0.04174">
        <ele>140.78</ele>
        <time>2023-06-15T04:57:22.990Z</time>
      </trkpt>
      <trkpt lat="46.61663" lon="0.04183">
        <ele>141.15</ele>
        <time>2023-06-15T04:58:13.280Z</time>
      </trkpt>
      <trkpt lat="46.61655" lon="0.04188">
        <ele>141.44</ele>
        <time>2023-06-15T04:59:03.571Z</time>
      </trkpt>
      <trkpt lat="46.61642" lon="0.04196">
        <ele>141.94</ele>
        <time>2023-06-15T04:59:53.864Z</time>
      </trkpt>
      <trkpt lat="46.61623" lon="0.04209">
        <ele>142.65</ele>
        <time>2023-06-15T05:00:44.161Z</time>
      </trkpt>
      <trkpt lat="46.61622" lon="0.0421">
        <ele>142.69</ele>
        <time>2023-06-15T05:01:34.458Z</time>
      </trkpt>
      <trkpt lat="46.6161" lon="0.04219">
        <ele>143.2</ele>
        <time>2023-06-15T05:02:24.757Z</time>
      </trkpt>
      <trkpt lat="46.61598" lon="0.04228">
        <ele>143.78</ele>
        <time>2023-06-15T05:03:15.058Z</time>
      </trkpt>
      <trkpt lat="46.6159" lon="0.04234">
        <ele>144.21</ele>
        <time>2023-06-15T05:04:05.361Z</time>
      </trkpt>
      <trkpt lat="46.61586" lon="0.04237">
        <ele>144.45</ele>
        <time>2023-06-15T05:04:55.664Z</time>
      </trkpt>
      <trkpt lat="46.61574" lon="0.04246">
        <ele>145.23</ele>
        <time>2023-06-15T05:05:45.969Z</time>
      </trkpt>
      <trkpt lat="46.6157" lon="0.04249">
        <ele>145.46</ele>
        <time>2023-06-15T05:06:36.275Z</time>
      </trkpt>
      <trkpt lat="46.61562" lon="0.04255">
        <ele>145.88</ele>
        <time>2023-06-15T05:07:26.583Z</time>
      </trkpt>
      <trkpt lat="46.61554" lon="0.04261">
        <ele>146.22</ele>
        <time>2023-06-15T05:08:16.892Z</time>
      </trkpt>
      <trkpt lat="46.61544" lon="0.04268">
        <ele>146.59</ele>
        <time>2023-06-15T05:09:07.203Z</time>
      </trkpt>
      <trkpt lat="46.6154" lon="0.04272">
        <ele>146.75</ele>
        <time>2023-06-15T05:09:57.515Z</time>
      </trkpt>
      <trkpt lat="46.61539" lon="0.04274">
        <ele>146.82</ele>
        <time>2023-06-15T05:10:47.827Z</time>
      </trkpt>
      <trkpt lat="46.61532" lon="0.04286">
        <ele>147.15</ele>
        <time>2023-06-15T05:11:38.141Z</time>
      </trkpt>
      <trkpt lat="46.61528" lon="0.04289">
        <ele>147.29</ele>
        <time>2023-06-15T05:12:28.455Z</time>
      </trkpt>
      <trkpt lat="46.61516" lon="0.0429">
        <ele>147.67</ele>
        <time>2023-06-15T05:13:18.771Z</time>
      </trkpt>
      <trkpt lat="46.61498" lon="0.04292">
        <ele>148.2</ele>
        <time>2023-06-15T05:14:09.090Z</time>
      </trkpt>
      <trkpt lat="46.6148" lon="0.04294">
        <ele>148.79</ele>
        <time>2023-06-15T05:14:59.412Z</time>
      </trkpt>
      <trkpt lat="46.61471" lon="0.04295">
        <ele>149.05</ele>
        <time>2023-06-15T05:15:49.735Z</time>
      </trkpt>
      <trkpt lat="46.61449" lon="0.04297">
        <ele>149.64</ele>
        <time>2023-06-15T05:16:40.062Z</time>
      </trkpt>
      <trkpt lat="46.61445" lon="0.04298">
        <ele>149.77</ele>
        <time>2023-06-15T05:17:30.390Z</time>
      </trkpt>
      <trkpt lat="46.61436" lon="0.04299">
        <ele>150.08</ele>
        <time>2023-06-15T05:18:20.719Z</time>
      </trkpt>
      <trkpt lat="46.61418" lon="0.04301">
        <ele>150.81</ele>
        <time>2023-06-15T05:19:11.051Z</time>
      </trkpt>
      <trkpt lat="46.61404" lon="0.04302">
        <ele>151.4</ele>
        <time>2023-06-15T05:20:01.385Z</time>
      </trkpt>
      <trkpt lat="46.61404" lon="0.04302">
        <ele>151.4</ele>
        <time>2023-06-15T05:20:51.719Z</time>
      </trkpt>
      <trkpt lat="46.614" lon="0.04303">
        <ele>151.62</ele>
        <time>2023-06-15T05:21:42.054Z</time>
      </trkpt>
      <trkpt lat="46.61395" lon="0.04304">
        <ele>151.88</ele>
        <time>2023-06-15T05:22:32.390Z</time>
      </trkpt>
      <trkpt lat="46.61383" lon="0.04306">
        <ele>152.75</ele>
        <time>2023-06-15T05:23:22.728Z</time>
      </trkpt>
      <trkpt lat="46.61382" lon="0.04307">
        <ele>152.82</ele>
        <time>2023-06-15T05:24:13.066Z</time>
      </trkpt>
      <trkpt lat="46.61379" lon="0.04311">
        <ele>153.11</ele>
        <time>2023-06-15T05:25:03.404Z</time>
      </trkpt>
      <trkpt lat="46.61375" lon="0.04315">
        <ele>153.36</ele>
        <time>2023-06-15T05:25:53.743Z</time>
      </trkpt>
      <trkpt lat="46.61368" lon="0.04323">
        <ele>153.79</ele>
        <time>2023-06-15T05:26:44.084Z</time>
      </trkpt>
      <trkpt lat="46.61361" lon="0.0433">
        <ele>154.15</ele>
        <time>2023-06-15T05:27:34.426Z</time>
      </trkpt>
      <trkpt lat="46.61343" lon="0.0435">
        <ele>154.97</ele>
        <time>2023-06-15T05:28:24.772Z</time>
      </trkpt>
      <trkpt lat="46.61317" lon="0.04377">
        <ele>156.04</ele>
        <time>2023-06-15T05:29:15.123Z</time>
      </trkpt>
      <trkpt lat="46.61314" lon="0.04381">
        <ele>156.16</ele>
        <time>2023-06-15T05:30:05.474Z</time>
      </trkpt>
      <trkpt lat="46.6131" lon="0.04385">
        <ele>156.31</ele>
        <time>2023-06-15T05:30:55.826Z</time>
      </trkpt>
      <trkpt lat="46.61288" lon="0.04407">
        <ele>157.03</ele>
        <time>2023-06-15T05:31:46.182Z</time>
      </trkpt>
      <trkpt lat="46.61277" lon="0.04417">
        <ele>157.45</ele>
        <time>2023-06-15T05:32:36.541Z</time>
      </trkpt>
      <trkpt lat="46.61269" lon="0.04424">
        <ele>157.52</ele>
        <time>2023-06-15T05:33:26.901Z</time>
      </trkpt>
      <trkpt lat="46.61252" lon="0.04442">
        <ele>157.64</ele>
        <time>2023-06-15T05:34:17.264Z</time>
      </trkpt>
      <trkpt lat="46.61241" lon="0.04452">
        <ele>157.74</ele>
        <time>2023-06-15T05:35:07.629Z</time>
      </trkpt>
      <trkpt lat="46.61226" lon="0.04464">
        <ele>157.9</ele>
        <time>2023-06-15T05:35:57.997Z</time>
      </trkpt>
      <trkpt lat="46.61198" lon="0.04484">
        <ele>158.02</ele>
        <time>2023-06-15T05:36:48.370Z</time>
      </trkpt>
      <trkpt lat="46.61194" lon="0.04487">
        <ele>158</ele>
        <time>2023-06-15T05:37:38.744Z</time>
      </trkpt>
      <trkpt lat="46.61172" lon="0.04504">
        <ele>157.73</ele>
        <time>2023-06-15T05:38:29.122Z</time>
      </trkpt>
      <trkpt lat="46.61171" lon="0.04502">
        <ele>157.72</ele>
        <time>2023-06-15T05:39:19.500Z</time>
      </trkpt>
      <trkpt lat="46.61166" lon="0.04491">
        <ele>157.68</ele>
        <time>2023-06-15T05:40:09.880Z</time>
      </trkpt>
      <trkpt lat="46.61158" lon="0.04475">
        <ele>157.72</ele>
        <time>2023-06-15T05:41:00.262Z</time>
      </trkpt>
      <trkpt lat="46.61147" lon="0.04454">
        <ele>157.87</ele>
        <time>2023-06-15T05:41:50.647Z</time>
      </trkpt>
      <trkpt lat="46.61142" lon="0.04444">
        <ele>157.91</ele>
        <time>2023-06-15T05:42:41.033Z</time>
      </trkpt>
      <trkpt lat="46.61132" lon="0.04423">
        <ele>157.85</ele>
        <time>2023-06-15T05:43:31.422Z</time>
      </trkpt>
      <trkpt lat="46.61129" lon="0.04417">
        <ele>157.85</ele>
        <time>2023-06-15T05:44:21.812Z</time>
      </trkpt>
      <trkpt lat="46.61118" lon="0.04396">
        <ele>157.94</ele>
        <time>2023-06-15T05:45:12.205Z</time>
      </trkpt>
      <trkpt lat="46.61113" lon="0.04385">
        <ele>157.96</ele>
        <time>2023-06-15T05:46:02.599Z</time>
      </trkpt>
      <trkpt lat="46.61092" lon="0.04343">
        <ele>157.98</ele>
        <time>2023-06-15T05:46:52.999Z</time>
      </trkpt>
      <trkpt lat="46.61081" lon="0.04322">
        <ele>157.95</ele>
        <time>2023-06-15T05:47:43.402Z</time>
      </trkpt>
      <trkpt lat="46.61076" lon="0.04311">
        <ele>157.98</ele>
        <time>2023-06-15T05:48:33.806Z</time>
      </trkpt>
      <trkpt lat="46.61063" lon="0.04285">
        <ele>158.11</ele>
        <time>2023-06-15T05:49:24.214Z</time>
      </trkpt>
      <trkpt lat="46.61058" lon="0.04274">
        <ele>158.1</ele>
        <time>2023-06-15T05:50:14.623Z</time>
      </trkpt>
      <trkpt lat="46.61039" lon="0.04237">
        <ele>157.96</ele>
        <time>2023-06-15T05:51:05.037Z</time>
      </trkpt>
      <trkpt lat="46.61032" lon="0.04221">
        <ele>157.93</ele>
        <time>2023-06-15T05:51:55.453Z</time>
      </trkpt>
      <trkpt lat="46.61016" lon="0.0419">
        <ele>157.93</ele>
        <time>2023-06-15T05:52:45.874Z</time>
      </trkpt>
      <trkpt lat="46.61005" lon="0.04168">
        <ele>157.95</ele>
        <time>2023-06-15T05:53:36.298Z</time>
      </trkpt>
      <trkpt lat="46.61003" lon="0.04163">
        <ele>157.96</ele>
        <time>2023-06-15T05:54:26.722Z</time>
      </trkpt>
      <trkpt lat="46.60991" lon="0.04135">
        <ele>157.95</ele>
        <time>2023-06-15T05:55:17.150Z</time>
      </trkpt>
      <trkpt lat="46.60982" lon="0.04112">
        <ele>157.97</ele>
        <time>2023-06-15T05:56:07.581Z</time>
      </trkpt>
      <trkpt lat="46.60978" lon="0.04101">
        <ele>158.03</ele>
        <time>2023-06-15T05:56:58.013Z</time>
      </trkpt>
      <trkpt lat="46.60971" lon="0.04084">
        <ele>158.17</ele>
        <time>2023-06-15T05:57:48.447Z</time>
      </trkpt>
      <trkpt lat="46.6097" lon="0.04082">
        <ele>158.18</ele>
        <time>2023-06-15T05:58:38.882Z</time>
      </trkpt>
      <trkpt lat="46.60962" lon="0.04061">
        <ele>158.31</ele>
        <time>2023-06-15T05:59:29.319Z</time>
      </trkpt>
      <trkpt lat="46.60952" lon="0.04032">
        <ele>158.42</ele>
        <time>2023-06-15T06:00:19.760Z</time>
      </trkpt>
      <trkpt lat="46.60939" lon="0.03998">
        <ele>158.49</ele>
        <time>2023-06-15T06:01:10.205Z</time>
      </trkpt>
      <trkpt lat="46.60928" lon="0.03969">
        <ele>158.61</ele>
        <time>2023-06-15T06:02:00.654Z</time>
      </trkpt>
      <trkpt lat="46.60922" lon="0.03952">
        <ele>158.61</ele>
        <time>2023-06-15T06:02:51.105Z</time>
      </trkpt>
      <trkpt lat="46.60916" lon="0.03934">
        <ele>158.58</ele>
        <time>2023-06-15T06:03:41.558Z</time>
      </trkpt>
      <trkpt lat="46.60911" lon="0.03923">
        <ele>158.6</ele>
        <time>2023-06-15T06:04:32.013Z</time>
      </trkpt>
      <trkpt lat="46.60907" lon="0.03911">
        <ele>158.68</ele>
        <time>2023-06-15T06:05:22.469Z</time>
      </trkpt>
      <trkpt lat="46.609" lon="0.03895">
        <ele>158.8</ele>
        <time>2023-06-15T06:06:12.927Z</time>
      </trkpt>
      <trkpt lat="46.60888" lon="0.03867">
        <ele>159.07</ele>
        <time>2023-06-15T06:07:03.389Z</time>
      </trkpt>
      <trkpt lat="46.60885" lon="0.03862">
        <ele>159.11</ele>
        <time>2023-06-15T06:07:53.851Z</time>
      </trkpt>
      <trkpt lat="46.60876" lon="0.0384">
        <ele>159.15</ele>
        <time>2023-06-15T06:08:44.316Z</time>
      </trkpt>
      <trkpt lat="46.60859" lon="0.03801">
        <ele>159.35</ele>
        <time>2023-06-15T06:09:34.786Z</time>
      </trkpt>
      <trkpt lat="46.6085" lon="0.03782">
        <ele>159.52</ele>
        <time>2023-06-15T06:10:25.259Z</time>
      </trkpt>
      <trkpt lat="46.60848" lon="0.03773">
        <ele>159.6</ele>
        <time>2023-06-15T06:11:15.733Z</time>
      </trkpt>
      <trkpt lat="46.60839" lon="0.03736">
        <ele>159.84</ele>
        <time>2023-06-15T06:12:06.211Z</time>
      </trkpt>
      <trkpt lat="46.60831" lon="0.03705">
        <ele>160.15</ele>
        <time>2023-06-15T06:12:56.693Z</time>
      </trkpt>
      <trkpt lat="46.60828" lon="0.03693">
        <ele>160.25</ele>
        <time>2023-06-15T06:13:47.176Z</time>
      </trkpt>
      <trkpt lat="46.60827" lon="0.0369">
        <ele>160.26</ele>
        <time>2023-06-15T06:14:37.660Z</time>
      </trkpt>
      <trkpt lat="46.60824" lon="0.03681">
        <ele>160.32</ele>
        <time>2023-06-15T06:15:28.145Z</time>
      </trkpt>
      <trkpt lat="46.60815" lon="0.03659">
        <ele>160.4</ele>
        <time>2023-06-15T06:16:18.633Z</time>
      </trkpt>
      <trkpt lat="46.60806" lon="0.03636">
        <ele>160.54</ele>
        <time>2023-06-15T06:17:09.124Z</time>
      </trkpt>
      <trkpt lat="46.60801" lon="0.03625">
        <ele>160.65</ele>
        <time>2023-06-15T06:17:59.616Z</time>
      </trkpt>
      <trkpt lat="46.60784" lon="0.03579">
        <ele>161.21</ele>
        <time>2023-06-15T06:18:50.114Z</time>
      </trkpt>
      <trkpt lat="46.60777" lon="0.03563">
        <ele>161.22</ele>
        <time>2023-06-15T06:19:40.614Z</time>
      </trkpt>
      <trkpt lat="46.6077" lon="0.03546">
        <ele>161.31</ele>
        <time>2023-06-15T06:20:31.116Z</time>
      </trkpt>
      <trkpt lat="46.60768" lon="0.0354">
        <ele>161.3</ele>
        <time>2023-06-15T06:21:21.619Z</time>
      </trkpt>
      <trkpt lat="46.60766" lon="0.03534">
        <ele>161.25</ele>
        <time>2023-06-15T06:22:12.123Z</time>
      </trkpt>
      <trkpt lat="46.60757" lon="0.03512">
        <ele>160.94</ele>
        <time>2023-06-15T06:23:02.629Z</time>
      </trkpt>
      <trkpt lat="46.60744" lon="0.03478">
        <ele>160.4</ele>
        <time>2023-06-15T06:23:53.140Z</time>
      </trkpt>
      <trkpt lat="46.60741" lon="0.03472">
        <ele>160.35</ele>
        <time>2023-06-15T06:24:43.651Z</time>
      </trkpt>
      <trkpt lat="46.60739" lon="0.03466">
        <ele>160.35</ele>
        <time>2023-06-15T06:25:34.163Z</time>
      </trkpt>
      <trkpt lat="46.60732" lon="0.03449">
        <ele>160.54</ele>
        <time>2023-06-15T06:26:24.677Z</time>
      </trkpt>
      <trkpt lat="46.6073" lon="0.03444">
        <ele>160.55</ele>
        <time>2023-06-15T06:27:15.192Z</time>
      </trkpt>
      <trkpt lat="46.60726" lon="0.03432">
        <ele>160.5</ele>
        <time>2023-06-15T06:28:05.708Z</time>
      </trkpt>
      <trkpt lat="46.60724" lon="0.03427">
        <ele>160.52</ele>
        <time>2023-06-15T06:28:56.225Z</time>
      </trkpt>
      <trkpt lat="46.60721" lon="0.03421">
        <ele>160.56</ele>
        <time>2023-06-15T06:29:46.743Z</time>
      </trkpt>
      <trkpt lat="46.60715" lon="0.03404">
        <ele>160.74</ele>
        <time>2023-06-15T06:30:37.263Z</time>
      </trkpt>
      <trkpt lat="46.60712" lon="0.03398">
        <ele>160.77</ele>
        <time>2023-06-15T06:31:27.784Z</time>
      </trkpt>
      <trkpt lat="46.6071" lon="0.03393">
        <ele>160.76</ele>
        <time>2023-06-15T06:32:18.305Z</time>
      </trkpt>
      <trkpt lat="46.60708" lon="0.03387">
        <ele>160.72</ele>
        <time>2023-06-15T06:33:08.827Z</time>
      </trkpt>
      <trkpt lat="46.60704" lon="0.03376">
        <ele>160.58</ele>
        <time>2023-06-15T06:33:59.351Z</time>
      </trkpt>
      <trkpt lat="46.60701" lon="0.0337">
        <ele>160.47</ele>
        <time>2023-06-15T06:34:49.875Z</time>
      </trkpt>
      <trkpt lat="46.60699" lon="0.03365">
        <ele>160.32</ele>
        <time>2023-06-15T06:35:40.400Z</time>
      </trkpt>
      <trkpt lat="46.60697" lon="0.03359">
        <ele>160.11</ele>
        <time>2023-06-15T06:36:30.926Z</time>
      </trkpt>
      <trkpt lat="46.60692" lon="0.03348">
        <ele>159.65</ele>
        <time>2023-06-15T06:37:21.453Z</time>
      </trkpt>
      <trkpt lat="46.6069" lon="0.03342">
        <ele>159.5</ele>
        <time>2023-06-15T06:38:11.981Z</time>
      </trkpt>
      <trkpt lat="46.60688" lon="0.03336">
        <ele>159.45</ele>
        <time>2023-06-15T06:39:02.510Z</time>
      </trkpt>
      <trkpt lat="46.60686" lon="0.03331">
        <ele>159.49</ele>
        <time>2023-06-15T06:39:53.039Z</time>
      </trkpt>
      <trkpt lat="46.60684" lon="0.03325">
        <ele>159.61</ele>
        <time>2023-06-15T06:40:43.569Z</time>
      </trkpt>
      <trkpt lat="46.60679" lon="0.03314">
        <ele>159.9</ele>
        <time>2023-06-15T06:41:34.101Z</time>
      </trkpt>
      <trkpt lat="46.60677" lon="0.03308">
        <ele>160</ele>
        <time>2023-06-15T06:42:24.633Z</time>
      </trkpt>
      <trkpt lat="46.6067" lon="0.03291">
        <ele>160.19</ele>
        <time>2023-06-15T06:43:15.167Z</time>
      </trkpt>
      <trkpt lat="46.60668" lon="0.03285">
        <ele>160.24</ele>
        <time>2023-06-15T06:44:05.702Z</time>
      </trkpt>
      <trkpt lat="46.60666" lon="0.0328">
        <ele>160.26</ele>
        <time>2023-06-15T06:44:56.238Z</time>
      </trkpt>
      <trkpt lat="46.60659" lon="0.03263">
        <ele>160.19</ele>
        <time>2023-06-15T06:45:46.776Z</time>
      </trkpt>
      <trkpt lat="46.60658" lon="0.0326">
        <ele>160.19</ele>
        <time>2023-06-15T06:46:37.314Z</time>
      </trkpt>
      <trkpt lat="46.6065" lon="0.03248">
        <ele>160.2</ele>
        <time>2023-06-15T06:47:27.854Z</time>
      </trkpt>
      <trkpt lat="46.60644" lon="0.03239">
        <ele>160.16</ele>
        <time>2023-06-15T06:48:18.396Z</time>
      </trkpt>
      <trkpt lat="46.60641" lon="0.03234">
        <ele>160.18</ele>
        <time>2023-06-15T06:49:08.938Z</time>
      </trkpt>
      <trkpt lat="46.60638" lon="0.0323">
        <ele>160.21</ele>
        <time>2023-06-15T06:49:59.481Z</time>
      </trkpt>
      <trkpt lat="46.60634" lon="0.03218">
        <ele>160.29</ele>
        <time>2023-06-15T06:50:50.025Z</time>
      </trkpt>
      <trkpt lat="46.60632" lon="0.03212">
        <ele>160.3</ele>
        <time>2023-06-15T06:51:40.570Z</time>
      </trkpt>
      <trkpt lat="46.60625" lon="0.03195">
        <ele>160.24</ele>
        <time>2023-06-15T06:52:31.117Z</time>
      </trkpt>
      <trkpt lat="46.60617" lon="0.03172">
        <ele>160.1</ele>
        <time>2023-06-15T06:53:21.667Z</time>
      </trkpt>
      <trkpt lat="46.60613" lon="0.0316">
        <ele>160.08</ele>
        <time>2023-06-15T06:54:12.219Z</time>
      </trkpt>
      <trkpt lat="46.60611" lon="0.03154">
        <ele>160.12</ele>
        <time>2023-06-15T06:55:02.771Z</time>
      </trkpt>
      <trkpt lat="46.60605" lon="0.03137">
        <ele>160.33</ele>
        <time>2023-06-15T06:55:53.326Z</time>
      </trkpt>
      <trkpt lat="46.60603" lon="0.03131">
        <ele>160.34</ele>
        <time>2023-06-15T06:56:43.881Z</time>
      </trkpt>
      <trkpt lat="46.60599" lon="0.0312">
        <ele>160.24</ele>
        <time>2023-06-15T06:57:34.438Z</time>
      </trkpt>
      <trkpt lat="46.60597" lon="0.03114">
        <ele>160.22</ele>
        <time>2023-06-15T06:58:24.995Z</time>
      </trkpt>
      <trkpt lat="46.6059" lon="0.03096">
        <ele>160.31</ele>
        <time>2023-06-15T06:59:15.555Z</time>
      </trkpt>
      <trkpt lat="46.60586" lon="0.03085">
        <ele>160.34</ele>
        <time>2023-06-15T07:00:06.116Z</time>
      </trkpt>
      <trkpt lat="46.60584" lon="0.03079">
        <ele>160.39</ele>
        <time>2023-06-15T07:00:56.678Z</time>
      </trkpt>
      <trkpt lat="46.6058" lon="0.03067">
        <ele>160.55</ele>
        <time>2023-06-15T07:01:47.241Z</time>
      </trkpt>
      <trkpt lat="46.60578" lon="0.03062">
        <ele>160.59</ele>
        <time>2023-06-15T07:02:37.805Z</time>
      </trkpt>
      <trkpt lat="46.60576" lon="0.03056">
        <ele>160.6</ele>
        <time>2023-06-15T07:03:28.370Z</time>
      </trkpt>
      <trkpt lat="46.60572" lon="0.03044">
        <ele>160.56</ele>
        <time>2023-06-15T07:04:18.936Z</time>
      </trkpt>
      <trkpt lat="46.6057" lon="0.03039">
        <ele>160.56</ele>
        <time>2023-06-15T07:05:09.503Z</time>
      </trkpt>
      <trkpt lat="46.60568" lon="0.03034">
        <ele>160.57</ele>
        <time>2023-06-15T07:06:00.070Z</time>
      </trkpt>
      <trkpt lat="46.60563" lon="0.03022">
        <ele>160.63</ele>
        <time>2023-06-15T07:06:50.639Z</time>
      </trkpt>
      <trkpt lat="46.60558" lon="0.0301">
        <ele>160.64</ele>
        <time>2023-06-15T07:07:41.209Z</time>
      </trkpt>
      <trkpt lat="46.60552" lon="0.02994">
        <ele>160.57</ele>
        <time>2023-06-15T07:08:31.781Z</time>
      </trkpt>
      <trkpt lat="46.60549" lon="0.02988">
        <ele>160.51</ele>
        <time>2023-06-15T07:09:22.354Z</time>
      </trkpt>
      <trkpt lat="46.60542" lon="0.02971">
        <ele>160.28</ele>
        <time>2023-06-15T07:10:12.929Z</time>
      </trkpt>
      <trkpt lat="46.60538" lon="0.0296">
        <ele>160.22</ele>
        <time>2023-06-15T07:11:03.506Z</time>
      </trkpt>
      <trkpt lat="46.60533" lon="0.02949">
        <ele>160.26</ele>
        <time>2023-06-15T07:11:54.084Z</time>
      </trkpt>
      <trkpt lat="46.60526" lon="0.02932">
        <ele>160.41</ele>
        <time>2023-06-15T07:12:44.664Z</time>
      </trkpt>
      <trkpt lat="46.60524" lon="0.02926">
        <ele>160.39</ele>
        <time>2023-06-15T07:13:35.245Z</time>
      </trkpt>
      <trkpt lat="46.6052" lon="0.02915">
        <ele>160.19</ele>
        <time>2023-06-15T07:14:25.828Z</time>
      </trkpt>
      <trkpt lat="46.60517" lon="0.02909">
        <ele>160.12</ele>
        <time>2023-06-15T07:15:16.411Z</time>
      </trkpt>
      <trkpt lat="46.60515" lon="0.02904">
        <ele>160.15</ele>
        <time>2023-06-15T07:16:06.995Z</time>
      </trkpt>
      <trkpt lat="46.60513" lon="0.02898">
        <ele>160.3</ele>
        <time>2023-06-15T07:16:57.580Z</time>
      </trkpt>
      <trkpt lat="46.6051" lon="0.02893">
        <ele>160.54</ele>
        <time>2023-06-15T07:17:48.165Z</time>
      </trkpt>
      <trkpt lat="46.60508" lon="0.02887">
        <ele>160.81</ele>
        <time>2023-06-15T07:18:38.751Z</time>
      </trkpt>
      <trkpt lat="46.60506" lon="0.02882">
        <ele>161.04</ele>
        <time>2023-06-15T07:19:29.338Z</time>
      </trkpt>
      <trkpt lat="46.60504" lon="0.02876">
        <ele>161.19</ele>
        <time>2023-06-15T07:20:19.926Z</time>
      </trkpt>
      <trkpt lat="46.60501" lon="0.0287">
        <ele>161.27</ele>
        <time>2023-06-15T07:21:10.514Z</time>
      </trkpt>
      <trkpt lat="46.60499" lon="0.02865">
        <ele>161.28</ele>
        <time>2023-06-15T07:22:01.103Z</time>
      </trkpt>
      <trkpt lat="46.60497" lon="0.02859">
        <ele>161.25</ele>
        <time>2023-06-15T07:22:51.693Z</time>
      </trkpt>
      <trkpt lat="46.60488" lon="0.02837">
        <ele>160.93</ele>
        <time>2023-06-15T07:23:42.286Z</time>
      </trkpt>
      <trkpt lat="46.60485" lon="0.02831">
        <ele>160.87</ele>
        <time>2023-06-15T07:24:32.879Z</time>
      </trkpt>
      <trkpt lat="46.60483" lon="0.02825">
        <ele>160.84</ele>
        <time>2023-06-15T07:25:23.473Z</time>
      </trkpt>
      <trkpt lat="46.60481" lon="0.0282">
        <ele>160.85</ele>
        <time>2023-06-15T07:26:14.068Z</time>
      </trkpt>
      <trkpt lat="46.60478" lon="0.02814">
        <ele>160.9</ele>
        <time>2023-06-15T07:27:04.663Z</time>
      </trkpt>
      <trkpt lat="46.60476" lon="0.02809">
        <ele>160.99</ele>
        <time>2023-06-15T07:27:55.259Z</time>
      </trkpt>
      <trkpt lat="46.60474" lon="0.02803">
        <ele>161.16</ele>
        <time>2023-06-15T07:28:45.856Z</time>
      </trkpt>
      <trkpt lat="46.60469" lon="0.02792">
        <ele>161.6</ele>
        <time>2023-06-15T07:29:36.454Z</time>
      </trkpt>
      <trkpt lat="46.60467" lon="0.02786">
        <ele>161.77</ele>
        <time>2023-06-15T07:30:27.053Z</time>
      </trkpt>
      <trkpt lat="46.60465" lon="0.02781">
        <ele>161.85</ele>
        <time>2023-06-15T07:31:17.653Z</time>
      </trkpt>
      <trkpt lat="46.60463" lon="0.02775">
        <ele>161.82</ele>
        <time>2023-06-15T07:32:08.253Z</time>
      </trkpt>
      <trkpt lat="46.60458" lon="0.02764">
        <ele>161.61</ele>
        <time>2023-06-15T07:32:58.855Z</time>
      </trkpt>
      <trkpt lat="46.60456" lon="0.02758">
        <ele>161.54</ele>
        <time>2023-06-15T07:33:49.458Z</time>
      </trkpt>
      <trkpt lat="46.60453" lon="0.02753">
        <ele>161.53</ele>
        <time>2023-06-15T07:34:40.061Z</time>
      </trkpt>
      <trkpt lat="46.60451" lon="0.02747">
        <ele>161.59</ele>
        <time>2023-06-15T07:35:30.665Z</time>
      </trkpt>
      <trkpt lat="46.60444" lon="0.0273">
        <ele>161.93</ele>
        <time>2023-06-15T07:36:21.271Z</time>
      </trkpt>
      <trkpt lat="46.60442" lon="0.02725">
        <ele>161.98</ele>
        <time>2023-06-15T07:37:11.878Z</time>
      </trkpt>
      <trkpt lat="46.6044" lon="0.02719">
        <ele>161.98</ele>
        <time>2023-06-15T07:38:02.486Z</time>
      </trkpt>
      <trkpt lat="46.60437" lon="0.02713">
        <ele>161.95</ele>
        <time>2023-06-15T07:38:53.094Z</time>
      </trkpt>
      <trkpt lat="46.60433" lon="0.02702">
        <ele>161.84</ele>
        <time>2023-06-15T07:39:43.704Z</time>
      </trkpt>
      <trkpt lat="46.60428" lon="0.02691">
        <ele>161.79</ele>
        <time>2023-06-15T07:40:34.315Z</time>
      </trkpt>
      <trkpt lat="46.60426" lon="0.02685">
        <ele>161.8</ele>
        <time>2023-06-15T07:41:24.927Z</time>
      </trkpt>
      <trkpt lat="46.60421" lon="0.02674">
        <ele>161.87</ele>
        <time>2023-06-15T07:42:15.540Z</time>
      </trkpt>
      <trkpt lat="46.60419" lon="0.02669">
        <ele>161.88</ele>
        <time>2023-06-15T07:43:06.154Z</time>
      </trkpt>
      <trkpt lat="46.60417" lon="0.02663">
        <ele>161.82</ele>
        <time>2023-06-15T07:43:56.769Z</time>
      </trkpt>
      <trkpt lat="46.60415" lon="0.02657">
        <ele>161.71</ele>
        <time>2023-06-15T07:44:47.385Z</time>
      </trkpt>
      <trkpt lat="46.60412" lon="0.02652">
        <ele>161.54</ele>
        <time>2023-06-15T07:45:38.001Z</time>
      </trkpt>
      <trkpt lat="46.60405" lon="0.02635">
        <ele>161.59</ele>
        <time>2023-06-15T07:46:28.619Z</time>
      </trkpt>
      <trkpt lat="46.60403" lon="0.02629">
        <ele>161.57</ele>
        <time>2023-06-15T07:47:19.238Z</time>
      </trkpt>
      <trkpt lat="46.60401" lon="0.02624">
        <ele>161.5</ele>
        <time>2023-06-15T07:48:09.858Z</time>
      </trkpt>
      <trkpt lat="46.60394" lon="0.02607">
        <ele>161.07</ele>
        <time>2023-06-15T07:49:00.480Z</time>
      </trkpt>
      <trkpt lat="46.60392" lon="0.02601">
        <ele>160.98</ele>
        <time>2023-06-15T07:49:51.103Z</time>
      </trkpt>
      <trkpt lat="46.6039" lon="0.02597">
        <ele>160.94</ele>
        <time>2023-06-15T07:50:41.726Z</time>
      </trkpt>
      <trkpt lat="46.60389" lon="0.02596">
        <ele>160.93</ele>
        <time>2023-06-15T07:51:32.349Z</time>
      </trkpt>
      <trkpt lat="46.60387" lon="0.02591">
        <ele>160.94</ele>
        <time>2023-06-15T07:52:22.973Z</time>
      </trkpt>
      <trkpt lat="46.60384" lon="0.02585">
        <ele>161</ele>
        <time>2023-06-15T07:53:13.598Z</time>
      </trkpt>
      <trkpt lat="46.60381" lon="0.0258">
        <ele>161.11</ele>
        <time>2023-06-15T07:54:04.224Z</time>
      </trkpt>
      <trkpt lat="46.60376" lon="0.0257">
        <ele>161.37</ele>
        <time>2023-06-15T07:54:54.851Z</time>
      </trkpt>
      <trkpt lat="46.60373" lon="0.02565">
        <ele>161.46</ele>
        <time>2023-06-15T07:55:45.479Z</time>
      </trkpt>
      <trkpt lat="46.60371" lon="0.02559">
        <ele>161.5</ele>
        <time>2023-06-15T07:56:36.107Z</time>
      </trkpt>
      <trkpt lat="46.60368" lon="0.02554">
        <ele>161.49</ele>
        <time>2023-06-15T07:57:26.736Z</time>
      </trkpt>
      <trkpt lat="46.6036" lon="0.02539">
        <ele>161.32</ele>
        <time>2023-06-15T07:58:17.367Z</time>
      </trkpt>
      <trkpt lat="46.60352" lon="0.02523">
        <ele>161.26</ele>
        <time>2023-06-15T07:59:08.000Z</time>
      </trkpt>
      <trkpt lat="46.60349" lon="0.02518">
        <ele>161.21</ele>
        <time>2023-06-15T07:59:58.634Z</time>
      </trkpt>
      <trkpt lat="46.60339" lon="0.02497">
        <ele>160.89</ele>
        <time>2023-06-15T08:00:49.271Z</time>
      </trkpt>
      <trkpt lat="46.60336" lon="0.02492">
        <ele>160.75</ele>
        <time>2023-06-15T08:01:39.909Z</time>
      </trkpt>
      <trkpt lat="46.60333" lon="0.02486">
        <ele>160.55</ele>
        <time>2023-06-15T08:02:30.548Z</time>
      </trkpt>
      <trkpt lat="46.60328" lon="0.02476">
        <ele>160.11</ele>
        <time>2023-06-15T08:03:21.188Z</time>
      </trkpt>
      <trkpt lat="46.60325" lon="0.02471">
        <ele>159.93</ele>
        <time>2023-06-15T08:04:11.829Z</time>
      </trkpt>
      <trkpt lat="46.60322" lon="0.02466">
        <ele>159.79</ele>
        <time>2023-06-15T08:05:02.470Z</time>
      </trkpt>
      <trkpt lat="46.6032" lon="0.0246">
        <ele>159.69</ele>
        <time>2023-06-15T08:05:53.112Z</time>
      </trkpt>
      <trkpt lat="46.60317" lon="0.02455">
        <ele>159.64</ele>
        <time>2023-06-15T08:06:43.755Z</time>
      </trkpt>
      <trkpt lat="46.60309" lon="0.02439">
        <ele>159.6</ele>
        <time>2023-06-15T08:07:34.400Z</time>
      </trkpt>
      <trkpt lat="46.60306" lon="0.02434">
        <ele>159.53</ele>
        <time>2023-06-15T08:08:25.046Z</time>
      </trkpt>
      <trkpt lat="46.60304" lon="0.02429">
        <ele>159.39</ele>
        <time>2023-06-15T08:09:15.692Z</time>
      </trkpt>
      <trkpt lat="46.60301" lon="0.02424">
        <ele>159.18</ele>
        <time>2023-06-15T08:10:06.339Z</time>
      </trkpt>
      <trkpt lat="46.60296" lon="0.02413">
        <ele>158.7</ele>
        <time>2023-06-15T08:10:56.988Z</time>
      </trkpt>
      <trkpt lat="46.60293" lon="0.02408">
        <ele>158.52</ele>
        <time>2023-06-15T08:11:47.637Z</time>
      </trkpt>
      <trkpt lat="46.6029" lon="0.02403">
        <ele>158.39</ele>
        <time>2023-06-15T08:12:38.287Z</time>
      </trkpt>
      <trkpt lat="46.60288" lon="0.02398">
        <ele>158.31</ele>
        <time>2023-06-15T08:13:28.938Z</time>
      </trkpt>
      <trkpt lat="46.6028" lon="0.02382">
        <ele>158.2</ele>
        <time>2023-06-15T08:14:19.591Z</time>
      </trkpt>
      <trkpt lat="46.60279" lon="0.02381">
        <ele>158.18</ele>
        <time>2023-06-15T08:15:10.244Z</time>
      </trkpt>
      <trkpt lat="46.60273" lon="0.02373">
        <ele>158.08</ele>
        <time>2023-06-15T08:16:00.898Z</time>
      </trkpt>
      <trkpt lat="46.6026" lon="0.02355">
        <ele>157.82</ele>
        <time>2023-06-15T08:16:51.555Z</time>
      </trkpt>
      <trkpt lat="46.60251" lon="0.02341">
        <ele>157.59</ele>
        <time>2023-06-15T08:17:42.214Z</time>
      </trkpt>
      <trkpt lat="46.60247" lon="0.02337">
        <ele>157.56</ele>
        <time>2023-06-15T08:18:32.874Z</time>
      </trkpt>
      <trkpt lat="46.60244" lon="0.02332">
        <ele>157.57</ele>
        <time>2023-06-15T08:19:23.535Z</time>
      </trkpt>
      <trkpt lat="46.60235" lon="0.02319">
        <ele>157.73</ele>
        <time>2023-06-15T08:20:14.198Z</time>
      </trkpt>
      <trkpt lat="46.60228" lon="0.0231">
        <ele>157.78</ele>
        <time>2023-06-15T08:21:04.862Z</time>
      </trkpt>
      <trkpt lat="46.60225" lon="0.02305">
        <ele>157.76</ele>
        <time>2023-06-15T08:21:55.527Z</time>
      </trkpt>
      <trkpt lat="46.60222" lon="0.02301">
        <ele>157.68</ele>
        <time>2023-06-15T08:22:46.193Z</time>
      </trkpt>
      <trkpt lat="46.60215" lon="0.02292">
        <ele>157.41</ele>
        <time>2023-06-15T08:23:36.860Z</time>
      </trkpt>
      <trkpt lat="46.60212" lon="0.02287">
        <ele>157.35</ele>
        <time>2023-06-15T08:24:27.528Z</time>
      </trkpt>
      <trkpt lat="46.60209" lon="0.02283">
        <ele>157.37</ele>
        <time>2023-06-15T08:25:18.197Z</time>
      </trkpt>
      <trkpt lat="46.60206" lon="0.02278">
        <ele>157.46</ele>
        <time>2023-06-15T08:26:08.866Z</time>
      </trkpt>
      <trkpt lat="46.60196" lon="0.02265">
        <ele>157.79</ele>
        <time>2023-06-15T08:26:59.538Z</time>
      </trkpt>
      <trkpt lat="46.60189" lon="0.02256">
        <ele>157.94</ele>
        <time>2023-06-15T08:27:50.211Z</time>
      </trkpt>
      <trkpt lat="46.60183" lon="0.02247">
        <ele>157.94</ele>
        <time>2023-06-15T08:28:40.885Z</time>
      </trkpt>
      <trkpt lat="46.6018" lon="0.02242">
        <ele>157.89</ele>
        <time>2023-06-15T08:29:31.560Z</time>
      </trkpt>
      <trkpt lat="46.60177" lon="0.02238">
        <ele>157.8</ele>
        <time>2023-06-15T08:30:22.236Z</time>
      </trkpt>
      <trkpt lat="46.60173" lon="0.02233">
        <ele>157.64</ele>
        <time>2023-06-15T08:31:12.913Z</time>
      </trkpt>
      <trkpt lat="46.6017" lon="0.02229">
        <ele>157.39</ele>
        <time>2023-06-15T08:32:03.590Z</time>
      </trkpt>
      <trkpt lat="46.60167" lon="0.02224">
        <ele>157.11</ele>
        <time>2023-06-15T08:32:54.268Z</time>
      </trkpt>
      <trkpt lat="46.60164" lon="0.0222">
        <ele>156.86</ele>
        <time>2023-06-15T08:33:44.947Z</time>
      </trkpt>
      <trkpt lat="46.6016" lon="0.02215">
        <ele>156.67</ele>
        <time>2023-06-15T08:34:35.626Z</time>
      </trkpt>
      <trkpt lat="46.60157" lon="0.02211">
        <ele>156.52</ele>
        <time>2023-06-15T08:35:26.306Z</time>
      </trkpt>
      <trkpt lat="46.60154" lon="0.02206">
        <ele>156.42</ele>
        <time>2023-06-15T08:36:16.987Z</time>
      </trkpt>
      <trkpt lat="46.60151" lon="0.02202">
        <ele>156.35</ele>
        <time>2023-06-15T08:37:07.669Z</time>
      </trkpt>
      <trkpt lat="46.60141" lon="0.02188">
        <ele>156.2</ele>
        <time>2023-06-15T08:37:58.353Z</time>
      </trkpt>
      <trkpt lat="46.60128" lon="0.0217">
        <ele>155.92</ele>
        <time>2023-06-15T08:38:49.040Z</time>
      </trkpt>
      <trkpt lat="46.60125" lon="0.02166">
        <ele>155.83</ele>
        <time>2023-06-15T08:39:39.727Z</time>
      </trkpt>
      <trkpt lat="46.60122" lon="0.02161">
        <ele>155.69</ele>
        <time>2023-06-15T08:40:30.415Z</time>
      </trkpt>
      <trkpt lat="46.60118" lon="0.02157">
        <ele>155.51</ele>
        <time>2023-06-15T08:41:21.104Z</time>
      </trkpt>
      <trkpt lat="46.60112" lon="0.02147">
        <ele>155.09</ele>
        <time>2023-06-15T08:42:11.794Z</time>
      </trkpt>
      <trkpt lat="46.60109" lon="0.02143">
        <ele>154.95</ele>
        <time>2023-06-15T08:43:02.485Z</time>
      </trkpt>
      <trkpt lat="46.60106" lon="0.02139">
        <ele>154.89</ele>
        <time>2023-06-15T08:43:53.177Z</time>
      </trkpt>
      <trkpt lat="46.60102" lon="0.02134">
        <ele>154.92</ele>
        <time>2023-06-15T08:44:43.869Z</time>
      </trkpt>
      <trkpt lat="46.60099" lon="0.02129">
        <ele>155.02</ele>
        <time>2023-06-15T08:45:34.562Z</time>
      </trkpt>
      <trkpt lat="46.60093" lon="0.0212">
        <ele>155.34</ele>
        <time>2023-06-15T08:46:25.256Z</time>
      </trkpt>
      <trkpt lat="46.60089" lon="0.02116">
        <ele>155.47</ele>
        <time>2023-06-15T08:47:15.951Z</time>
      </trkpt>
      <trkpt lat="46.60086" lon="0.02111">
        <ele>155.56</ele>
        <time>2023-06-15T08:48:06.647Z</time>
      </trkpt>
      <trkpt lat="46.60077" lon="0.02098">
        <ele>155.75</ele>
        <time>2023-06-15T08:48:57.345Z</time>
      </trkpt>
      <trkpt lat="46.60073" lon="0.02093">
        <ele>155.83</ele>
        <time>2023-06-15T08:49:48.044Z</time>
      </trkpt>
      <trkpt lat="46.6007" lon="0.02089">
        <ele>155.94</ele>
        <time>2023-06-15T08:50:38.743Z</time>
      </trkpt>
      <trkpt lat="46.6006" lon="0.02075">
        <ele>156.32</ele>
        <time>2023-06-15T08:51:29.445Z</time>
      </trkpt>
      <trkpt lat="46.60054" lon="0.02066">
        <ele>156.54</ele>
        <time>2023-06-15T08:52:20.148Z</time>
      </trkpt>
      <trkpt lat="46.60048" lon="0.02057">
        <ele>156.71</ele>
        <time>2023-06-15T08:53:10.852Z</time>
      </trkpt>
      <trkpt lat="46.60038" lon="0.02044">
        <ele>156.86</ele>
        <time>2023-06-15T08:54:01.559Z</time>
      </trkpt>
      <trkpt lat="46.60035" lon="0.02039">
        <ele>156.88</ele>
        <time>2023-06-15T08:54:52.266Z</time>
      </trkpt>
      <trkpt lat="46.60031" lon="0.02035">
        <ele>156.85</ele>
        <time>2023-06-15T08:55:42.974Z</time>
      </trkpt>
      <trkpt lat="46.60028" lon="0.0203">
        <ele>156.76</ele>
        <time>2023-06-15T08:56:33.683Z</time>
      </trkpt>
      <trkpt lat="46.60025" lon="0.02026">
        <ele>156.63</ele>
        <time>2023-06-15T08:57:24.393Z</time>
      </trkpt>
      <trkpt lat="46.60018" lon="0.02017">
        <ele>156.3</ele>
        <time>2023-06-15T08:58:15.104Z</time>
      </trkpt>
      <trkpt lat="46.60015" lon="0.02012">
        <ele>156.19</ele>
        <time>2023-06-15T08:59:05.816Z</time>
      </trkpt>
      <trkpt lat="46.60012" lon="0.02008">
        <ele>156.15</ele>
        <time>2023-06-15T08:59:56.528Z</time>
      </trkpt>
      <trkpt lat="46.60009" lon="0.02003">
        <ele>156.17</ele>
        <time>2023-06-15T09:00:47.241Z</time>
      </trkpt>
      <trkpt lat="46.60006" lon="0.01999">
        <ele>156.23</ele>
        <time>2023-06-15T09:01:37.955Z</time>
      </trkpt>
      <trkpt lat="46.60002" lon="0.01994">
        <ele>156.35</ele>
        <time>2023-06-15T09:02:28.670Z</time>
      </trkpt>
      <trkpt lat="46.59999" lon="0.0199">
        <ele>156.53</ele>
        <time>2023-06-15T09:03:19.385Z</time>
      </trkpt>
      <trkpt lat="46.59996" lon="0.01985">
        <ele>156.79</ele>
        <time>2023-06-15T09:04:10.101Z</time>
      </trkpt>
      <trkpt lat="46.59989" lon="0.01976">
        <ele>157.36</ele>
        <time>2023-06-15T09:05:00.818Z</time>
      </trkpt>
      <trkpt lat="46.59986" lon="0.01972">
        <ele>157.59</ele>
        <time>2023-06-15T09:05:51.536Z</time>
      </trkpt>
      <trkpt lat="46.59983" lon="0.01967">
        <ele>157.74</ele>
        <time>2023-06-15T09:06:42.255Z</time>
      </trkpt>
      <trkpt lat="46.5998" lon="0.01963">
        <ele>157.83</ele>
        <time>2023-06-15T09:07:32.975Z</time>
      </trkpt>
      <trkpt lat="46.59977" lon="0.01958">
        <ele>157.82</ele>
        <time>2023-06-15T09:08:23.695Z</time>
      </trkpt>
      <trkpt lat="46.59973" lon="0.01954">
        <ele>157.75</ele>
        <time>2023-06-15T09:09:14.416Z</time>
      </trkpt>
      <trkpt lat="46.59964" lon="0.0194">
        <ele>157.35</ele>
        <time>2023-06-15T09:10:05.139Z</time>
      </trkpt>
      <trkpt lat="46.5996" lon="0.01936">
        <ele>157.26</ele>
        <time>2023-06-15T09:10:55.863Z</time>
      </trkpt>
      <trkpt lat="46.59957" lon="0.01931">
        <ele>157.22</ele>
        <time>2023-06-15T09:11:46.588Z</time>
      </trkpt>
      <trkpt lat="46.59954" lon="0.01926">
        <ele>157.23</ele>
        <time>2023-06-15T09:12:37.313Z</time>
      </trkpt>
      <trkpt lat="46.59938" lon="0.01904">
        <ele>157.48</ele>
        <time>2023-06-15T09:13:28.042Z</time>
      </trkpt>
      <trkpt lat="46.59931" lon="0.01895">
        <ele>157.6</ele>
        <time>2023-06-15T09:14:18.772Z</time>
      </trkpt>
      <trkpt lat="46.59928" lon="0.0189">
        <ele>157.7</ele>
        <time>2023-06-15T09:15:09.503Z</time>
      </trkpt>
      <trkpt lat="46.59918" lon="0.01877">
        <ele>158.09</ele>
        <time>2023-06-15T09:16:00.236Z</time>
      </trkpt>
      <trkpt lat="46.59915" lon="0.01872">
        <ele>158.19</ele>
        <time>2023-06-15T09:16:50.970Z</time>
      </trkpt>
      <trkpt lat="46.59912" lon="0.01868">
        <ele>158.27</ele>
        <time>2023-06-15T09:17:41.705Z</time>
      </trkpt>
      <trkpt lat="46.59906" lon="0.01859">
        <ele>158.38</ele>
        <time>2023-06-15T09:18:32.441Z</time>
      </trkpt>
      <trkpt lat="46.5989" lon="0.01836">
        <ele>158.55</ele>
        <time>2023-06-15T09:19:23.181Z</time>
      </trkpt>
      <trkpt lat="46.59886" lon="0.01832">
        <ele>158.62</ele>
        <time>2023-06-15T09:20:13.921Z</time>
      </trkpt>
      <trkpt lat="46.59883" lon="0.01827">
        <ele>158.77</ele>
        <time>2023-06-15T09:21:04.662Z</time>
      </trkpt>
      <trkpt lat="46.59877" lon="0.01818">
        <ele>159.15</ele>
        <time>2023-06-15T09:21:55.404Z</time>
      </trkpt>
      <trkpt lat="46.59873" lon="0.01814">
        <ele>159.27</ele>
        <time>2023-06-15T09:22:46.147Z</time>
      </trkpt>
      <trkpt lat="46.5987" lon="0.01809">
        <ele>159.32</ele>
        <time>2023-06-15T09:23:36.891Z</time>
      </trkpt>
      <trkpt lat="46.59864" lon="0.018">
        <ele>159.34</ele>
        <time>2023-06-15T09:24:27.636Z</time>
      </trkpt>
      <trkpt lat="46.5986" lon="0.01796">
        <ele>159.38</ele>
        <time>2023-06-15T09:25:18.382Z</time>
      </trkpt>
      <trkpt lat="46.59857" lon="0.01791">
        <ele>159.44</ele>
        <time>2023-06-15T09:26:09.129Z</time>
      </trkpt>
      <trkpt lat="46.59851" lon="0.01782">
        <ele>159.39</ele>
        <time>2023-06-15T09:26:59.877Z</time>
      </trkpt>
      <trkpt lat="46.59841" lon="0.01769">
        <ele>159.2</ele>
        <time>2023-06-15T09:27:50.627Z</time>
      </trkpt>
      <trkpt lat="46.59838" lon="0.01764">
        <ele>159.17</ele>
        <time>2023-06-15T09:28:41.378Z</time>
      </trkpt>
      <trkpt lat="46.59835" lon="0.0176">
        <ele>159.17</ele>
        <time>2023-06-15T09:29:32.130Z</time>
      </trkpt>
      <trkpt lat="46.59822" lon="0.01742">
        <ele>159.32</ele>
        <time>2023-06-15T09:30:22.885Z</time>
      </trkpt>
      <trkpt lat="46.59818" lon="0.01737">
        <ele>159.33</ele>
        <time>2023-06-15T09:31:13.640Z</time>
      </trkpt>
      <trkpt lat="46.59815" lon="0.01733">
        <ele>159.31</ele>
        <time>2023-06-15T09:32:04.396Z</time>
      </trkpt>
      <trkpt lat="46.59802" lon="0.01714">
        <ele>159.09</ele>
        <time>2023-06-15T09:32:55.155Z</time>
      </trkpt>
      <trkpt lat="46.59799" lon="0.0171">
        <ele>159.06</ele>
        <time>2023-06-15T09:33:45.915Z</time>
      </trkpt>
      <trkpt lat="46.59793" lon="0.01701">
        <ele>159.08</ele>
        <time>2023-06-15T09:34:36.676Z</time>
      </trkpt>
      <trkpt lat="46.59783" lon="0.01687">
        <ele>159.19</ele>
        <time>2023-06-15T09:35:27.439Z</time>
      </trkpt>
      <trkpt lat="46.5978" lon="0.01683">
        <ele>159.21</ele>
        <time>2023-06-15T09:36:18.203Z</time>
      </trkpt>
      <trkpt lat="46.59773" lon="0.01674">
        <ele>159.17</ele>
        <time>2023-06-15T09:37:08.968Z</time>
      </trkpt>
      <trkpt lat="46.59764" lon="0.0166">
        <ele>158.97</ele>
        <time>2023-06-15T09:37:59.736Z</time>
      </trkpt>
      <trkpt lat="46.5976" lon="0.01656">
        <ele>158.93</ele>
        <time>2023-06-15T09:38:50.504Z</time>
      </trkpt>
      <trkpt lat="46.59757" lon="0.01651">
        <ele>158.94</ele>
        <time>2023-06-15T09:39:41.273Z</time>
      </trkpt>
      <trkpt lat="46.59754" lon="0.01647">
        <ele>159.03</ele>
        <time>2023-06-15T09:40:32.043Z</time>
      </trkpt>
      <trkpt lat="46.59751" lon="0.01642">
        <ele>159.18</ele>
        <time>2023-06-15T09:41:22.813Z</time>
      </trkpt>
      <trkpt lat="46.59744" lon="0.01633">
        <ele>159.55</ele>
        <time>2023-06-15T09:42:13.585Z</time>
      </trkpt>
      <trkpt lat="46.59741" lon="0.01629">
        <ele>159.72</ele>
        <time>2023-06-15T09:43:04.358Z</time>
      </trkpt>
      <trkpt lat="46.59738" lon="0.01624">
        <ele>159.83</ele>
        <time>2023-06-15T09:43:55.131Z</time>
      </trkpt>
      <trkpt lat="46.59735" lon="0.0162">
        <ele>159.86</ele>
        <time>2023-06-15T09:44:45.905Z</time>
      </trkpt>
      <trkpt lat="46.59731" lon="0.01615">
        <ele>159.84</ele>
        <time>2023-06-15T09:45:36.680Z</time>
      </trkpt>
      <trkpt lat="46.59725" lon="0.01606">
        <ele>159.73</ele>
        <time>2023-06-15T09:46:27.456Z</time>
      </trkpt>
      <trkpt lat="46.59712" lon="0.01588">
        <ele>159.65</ele>
        <time>2023-06-15T09:47:18.235Z</time>
      </trkpt>
      <trkpt lat="46.59709" lon="0.01584">
        <ele>159.6</ele>
        <time>2023-06-15T09:48:09.015Z</time>
      </trkpt>
      <trkpt lat="46.59705" lon="0.01579">
        <ele>159.54</ele>
        <time>2023-06-15T09:48:59.796Z</time>
      </trkpt>
      <trkpt lat="46.59702" lon="0.01574">
        <ele>159.45</ele>
        <time>2023-06-15T09:49:50.577Z</time>
      </trkpt>
      <trkpt lat="46.59693" lon="0.01561">
        <ele>159.13</ele>
        <time>2023-06-15T09:50:41.360Z</time>
      </trkpt>
      <trkpt lat="46.59686" lon="0.01552">
        <ele>159.01</ele>
        <time>2023-06-15T09:51:32.145Z</time>
      </trkpt>
      <trkpt lat="46.59683" lon="0.01547">
        <ele>158.99</ele>
        <time>2023-06-15T09:52:22.931Z</time>
      </trkpt>
      <trkpt lat="46.5968" lon="0.01543">
        <ele>159.02</ele>
        <time>2023-06-15T09:53:13.717Z</time>
      </trkpt>
      <trkpt lat="46.59667" lon="0.01525">
        <ele>159.26</ele>
        <time>2023-06-15T09:54:04.506Z</time>
      </trkpt>
      <trkpt lat="46.59663" lon="0.0152">
        <ele>159.29</ele>
        <time>2023-06-15T09:54:55.296Z</time>
      </trkpt>
      <trkpt lat="46.59654" lon="0.01507">
        <ele>159.28</ele>
        <time>2023-06-15T09:55:46.088Z</time>
      </trkpt>
      <trkpt lat="46.59651" lon="0.01502">
        <ele>159.31</ele>
        <time>2023-06-15T09:56:36.881Z</time>
      </trkpt>
      <trkpt lat="46.59644" lon="0.01493">
        <ele>159.41</ele>
        <time>2023-06-15T09:57:27.675Z</time>
      </trkpt>
      <trkpt lat="46.59641" lon="0.01489">
        <ele>159.44</ele>
        <time>2023-06-15T09:58:18.470Z</time>
      </trkpt>
      <trkpt lat="46.59638" lon="0.01484">
        <ele>159.44</ele>
        <time>2023-06-15T09:59:09.266Z</time>
      </trkpt>
      <trkpt lat="46.59631" lon="0.01475">
        <ele>159.34</ele>
        <time>2023-06-15T10:00:00.063Z</time>
      </trkpt>
      <trkpt lat="46.59628" lon="0.01471">
        <ele>159.26</ele>
        <time>2023-06-15T10:00:50.861Z</time>
      </trkpt>
      <trkpt lat="46.59618" lon="0.01457">
        <ele>158.95</ele>
        <time>2023-06-15T10:01:41.661Z</time>
      </trkpt>
      <trkpt lat="46.59615" lon="0.01453">
        <ele>158.89</ele>
        <time>2023-06-15T10:02:32.462Z</time>
      </trkpt>
      <trkpt lat="46.59612" lon="0.01448">
        <ele>158.88</ele>
        <time>2023-06-15T10:03:23.263Z</time>
      </trkpt>
      <trkpt lat="46.59602" lon="0.01434">
        <ele>158.94</ele>
        <time>2023-06-15T10:04:14.067Z</time>
      </trkpt>
      <trkpt lat="46.5958" lon="0.01403">
        <ele>158.83</ele>
        <time>2023-06-15T10:05:04.876Z</time>
      </trkpt>
      <trkpt lat="46.59567" lon="0.01385">
        <ele>158.81</ele>
        <time>2023-06-15T10:05:55.687Z</time>
      </trkpt>
      <trkpt lat="46.59564" lon="0.01381">
        <ele>158.79</ele>
        <time>2023-06-15T10:06:46.499Z</time>
      </trkpt>
      <trkpt lat="46.59561" lon="0.01377">
        <ele>158.74</ele>
        <time>2023-06-15T10:07:37.312Z</time>
      </trkpt>
      <trkpt lat="46.5956" lon="0.01378">
        <ele>158.74</ele>
        <time>2023-06-15T10:08:28.125Z</time>
      </trkpt>
      <trkpt lat="46.59551" lon="0.01392">
        <ele>158.52</ele>
        <time>2023-06-15T10:09:18.940Z</time>
      </trkpt>
      <trkpt lat="46.59536" lon="0.01416">
        <ele>158.25</ele>
        <time>2023-06-15T10:10:09.758Z</time>
      </trkpt>
      <trkpt lat="46.5953" lon="0.01425">
        <ele>158.1</ele>
        <time>2023-06-15T10:11:00.578Z</time>
      </trkpt>
      <trkpt lat="46.59521" lon="0.0144">
        <ele>157.83</ele>
        <time>2023-06-15T10:11:51.400Z</time>
      </trkpt>
      <trkpt lat="46.59515" lon="0.01449">
        <ele>157.69</ele>
        <time>2023-06-15T10:12:42.223Z</time>
      </trkpt>
      <trkpt lat="46.59506" lon="0.01463">
        <ele>157.55</ele>
        <time>2023-06-15T10:13:33.049Z</time>
      </trkpt>
      <trkpt lat="46.595" lon="0.01473">
        <ele>157.48</ele>
        <time>2023-06-15T10:14:23.876Z</time>
      </trkpt>
      <trkpt lat="46.59482" lon="0.01501">
        <ele>157.52</ele>
        <time>2023-06-15T10:15:14.707Z</time>
      </trkpt>
      <trkpt lat="46.59467" lon="0.01525">
        <ele>157.64</ele>
        <time>2023-06-15T10:16:05.542Z</time>
      </trkpt>
      <trkpt lat="46.59458" lon="0.01539">
        <ele>157.67</ele>
        <time>2023-06-15T10:16:56.379Z</time>
      </trkpt>
      <trkpt lat="46.59452" lon="0.01549">
        <ele>157.63</ele>
        <time>2023-06-15T10:17:47.217Z</time>
      </trkpt>
      <trkpt lat="46.59437" lon="0.01573">
        <ele>157.44</ele>
        <time>2023-06-15T10:18:38.059Z</time>
      </trkpt>
      <trkpt lat="46.59431" lon="0.01582">
        <ele>157.41</ele>
        <time>2023-06-15T10:19:28.902Z</time>
      </trkpt>
      <trkpt lat="46.59425" lon="0.01592">
        <ele>157.4</ele>
        <time>2023-06-15T10:20:19.747Z</time>
      </trkpt>
      <trkpt lat="46.59413" lon="0.01611">
        <ele>157.5</ele>
        <time>2023-06-15T10:21:10.595Z</time>
      </trkpt>
      <trkpt lat="46.59395" lon="0.01639">
        <ele>156.77</ele>
        <time>2023-06-15T10:22:01.447Z</time>
      </trkpt>
      <trkpt lat="46.59389" lon="0.01649">
        <ele>156.55</ele>
        <time>2023-06-15T10:22:52.300Z</time>
      </trkpt>
      <trkpt lat="46.59383" lon="0.01658">
        <ele>156.37</ele>
        <time>2023-06-15T10:23:43.155Z</time>
      </trkpt>
      <trkpt lat="46.59379" lon="0.01646">
        <ele>156.18</ele>
        <time>2023-06-15T10:24:34.011Z</time>
      </trkpt>
      <trkpt lat="46.59364" lon="0.01605">
        <ele>155.5</ele>
        <time>2023-06-15T10:25:24.872Z</time>
      </trkpt>
      <trkpt lat="46.59351" lon="0.01571">
        <ele>155</ele>
        <time>2023-06-15T10:26:15.738Z</time>
      </trkpt>
      <trkpt lat="46.59341" lon="0.01542">
        <ele>154.64</ele>
        <time>2023-06-15T10:27:06.607Z</time>
      </trkpt>
      <trkpt lat="46.59335" lon="0.01525">
        <ele>154.47</ele>
        <time>2023-06-15T10:27:57.478Z</time>
      </trkpt>
      <trkpt lat="46.59329" lon="0.01509">
        <ele>154.39</ele>
        <time>2023-06-15T10:28:48.351Z</time>
      </trkpt>
      <trkpt lat="46.59327" lon="0.01501">
        <ele>154.36</ele>
        <time>2023-06-15T10:29:39.225Z</time>
      </trkpt>
      <trkpt lat="46.59321" lon="0.01483">
        <ele>154.34</ele>
        <time>2023-06-15T10:30:30.101Z</time>
      </trkpt>
      <trkpt lat="46.59318" lon="0.01471">
        <ele>154.38</ele>
        <time>2023-06-15T10:31:20.979Z</time>
      </trkpt>
      <trkpt lat="46.59313" lon="0.01454">
        <ele>154.48</ele>
        <time>2023-06-15T10:32:11.859Z</time>
      </trkpt>
      <trkpt lat="46.59313" lon="0.01453">
        <ele>154.48</ele>
        <time>2023-06-15T10:33:02.739Z</time>
      </trkpt>
      <trkpt lat="46.59302" lon="0.01403">
        <ele>154.81</ele>
        <time>2023-06-15T10:33:53.625Z</time>
      </trkpt>
      <trkpt lat="46.59289" lon="0.01348">
        <ele>155.15</ele>
        <time>2023-06-15T10:34:44.517Z</time>
      </trkpt>
      <trkpt lat="46.59278" lon="0.01298">
        <ele>155.49</ele>
        <time>2023-06-15T10:35:35.415Z</time>
      </trkpt>
      <trkpt lat="46.59273" lon="0.01273">
        <ele>155.72</ele>
        <time>2023-06-15T10:36:26.316Z</time>
      </trkpt>
      <trkpt lat="46.59262" lon="0.01224">
        <ele>156.24</ele>
        <time>2023-06-15T10:37:17.223Z</time>
      </trkpt>
      <trkpt lat="46.59258" lon="0.01205">
        <ele>156.36</ele>
        <time>2023-06-15T10:38:08.132Z</time>
      </trkpt>
      <trkpt lat="46.59249" lon="0.01168">
        <ele>156.49</ele>
        <time>2023-06-15T10:38:59.045Z</time>
      </trkpt>
      <trkpt lat="46.59245" lon="0.01149">
        <ele>156.5</ele>
        <time>2023-06-15T10:39:49.960Z</time>
      </trkpt>
      <trkpt lat="46.5924" lon="0.01124">
        <ele>156.46</ele>
        <time>2023-06-15T10:40:40.878Z</time>
      </trkpt>
      <trkpt lat="46.59233" lon="0.01093">
        <ele>156.34</ele>
        <time>2023-06-15T10:41:31.800Z</time>
      </trkpt>
      <trkpt lat="46.59223" lon="0.0105">
        <ele>156.28</ele>
        <time>2023-06-15T10:42:22.727Z</time>
      </trkpt>
      <trkpt lat="46.59216" lon="0.01019">
        <ele>156.2</ele>
        <time>2023-06-15T10:43:13.657Z</time>
      </trkpt>
      <trkpt lat="46.59206" lon="0.00975">
        <ele>156.14</ele>
        <time>2023-06-15T10:44:04.592Z</time>
      </trkpt>
      <trkpt lat="46.59202" lon="0.00957">
        <ele>156.15</ele>
        <time>2023-06-15T10:44:55.530Z</time>
      </trkpt>
      <trkpt lat="46.592" lon="0.00944">
        <ele>156.19</ele>
        <time>2023-06-15T10:45:46.469Z</time>
      </trkpt>
      <trkpt lat="46.59197" lon="0.00932">
        <ele>156.28</ele>
        <time>2023-06-15T10:46:37.409Z</time>
      </trkpt>
      <trkpt lat="46.59186" lon="0.00882">
        <ele>156.76</ele>
        <time>2023-06-15T10:47:28.355Z</time>
      </trkpt>
      <trkpt lat="46.59176" lon="0.00839">
        <ele>157.26</ele>
        <time>2023-06-15T10:48:19.306Z</time>
      </trkpt>
      <trkpt lat="46.59169" lon="0.00808">
        <ele>157.51</ele>
        <time>2023-06-15T10:49:10.261Z</time>
      </trkpt>
      <trkpt lat="46.59165" lon="0.00789">
        <ele>157.6</ele>
        <time>2023-06-15T10:50:01.218Z</time>
      </trkpt>
      <trkpt lat="46.59158" lon="0.00758">
        <ele>157.66</ele>
        <time>2023-06-15T10:50:52.179Z</time>
      </trkpt>
      <trkpt lat="46.59151" lon="0.00727">
        <ele>157.78</ele>
        <time>2023-06-15T10:51:43.143Z</time>
      </trkpt>
      <trkpt lat="46.59147" lon="0.00709">
        <ele>157.79</ele>
        <time>2023-06-15T10:52:34.109Z</time>
      </trkpt>
      <trkpt lat="46.5914" lon="0.00678">
        <ele>157.78</ele>
        <time>2023-06-15T10:53:25.079Z</time>
      </trkpt>
      <trkpt lat="46.59133" lon="0.00647">
        <ele>157.81</ele>
        <time>2023-06-15T10:54:16.052Z</time>
      </trkpt>
      <trkpt lat="46.59124" lon="0.00605">
        <ele>157.95</ele>
        <time>2023-06-15T10:55:07.030Z</time>
      </trkpt>
      <trkpt lat="46.59116" lon="0.00569">
        <ele>157.96</ele>
        <time>2023-06-15T10:55:58.013Z</time>
      </trkpt>
      <trkpt lat="46.59114" lon="0.00563">
        <ele>157.97</ele>
        <time>2023-06-15T10:56:48.996Z</time>
      </trkpt>
      <trkpt lat="46.59109" lon="0.00549">
        <ele>157.84</ele>
        <time>2023-06-15T10:57:39.981Z</time>
      </trkpt>
      <trkpt lat="46.59107" lon="0.00546">
        <ele>157.81</ele>
        <time>2023-06-15T10:58:30.966Z</time>
      </trkpt>
      <trkpt lat="46.59102" lon="0.00535">
        <ele>157.73</ele>
        <time>2023-06-15T10:59:21.953Z</time>
      </trkpt>
      <trkpt lat="46.591" lon="0.0053">
        <ele>157.72</ele>
        <time>2023-06-15T11:00:12.941Z</time>
      </trkpt>
      <trkpt lat="46.59097" lon="0.00524">
        <ele>157.73</ele>
        <time>2023-06-15T11:01:03.929Z</time>
      </trkpt>
      <trkpt lat="46.59092" lon="0.00513">
        <ele>157.79</ele>
        <time>2023-06-15T11:01:54.919Z</time>
      </trkpt>
      <trkpt lat="46.5909" lon="0.00509">
        <ele>157.79</ele>
        <time>2023-06-15T11:02:45.909Z</time>
      </trkpt>
      <trkpt lat="46.5909" lon="0.00508">
        <ele>157.79</ele>
        <time>2023-06-15T11:03:36.900Z</time>
      </trkpt>
      <trkpt lat="46.59088" lon="0.00502">
        <ele>157.76</ele>
        <time>2023-06-15T11:04:27.891Z</time>
      </trkpt>
      <trkpt lat="46.59083" lon="0.00484">
        <ele>157.62</ele>
        <time>2023-06-15T11:05:18.884Z</time>
      </trkpt>
      <trkpt lat="46.59076" lon="0.00459">
        <ele>157.52</ele>
        <time>2023-06-15T11:06:09.880Z</time>
      </trkpt>
      <trkpt lat="46.59075" lon="0.00453">
        <ele>157.47</ele>
        <time>2023-06-15T11:07:00.877Z</time>
      </trkpt>
      <trkpt lat="46.5907" lon="0.00435">
        <ele>157.23</ele>
        <time>2023-06-15T11:07:51.876Z</time>
      </trkpt>
      <trkpt lat="46.59068" lon="0.00429">
        <ele>157.19</ele>
        <time>2023-06-15T11:08:42.876Z</time>
      </trkpt>
      <trkpt lat="46.59065" lon="0.00417">
        <ele>157.21</ele>
        <time>2023-06-15T11:09:33.877Z</time>
      </trkpt>
      <trkpt lat="46.59059" lon="0.00399">
        <ele>157.3</ele>
        <time>2023-06-15T11:10:24.881Z</time>
      </trkpt>
      <trkpt lat="46.59059" lon="0.00397">
        <ele>157.31</ele>
        <time>2023-06-15T11:11:15.885Z</time>
      </trkpt>
      <trkpt lat="46.59053" lon="0.00374">
        <ele>157.46</ele>
        <time>2023-06-15T11:12:06.891Z</time>
      </trkpt>
      <trkpt lat="46.5905" lon="0.00362">
        <ele>157.49</ele>
        <time>2023-06-15T11:12:57.899Z</time>
      </trkpt>
      <trkpt lat="46.59047" lon="0.0035">
        <ele>157.43</ele>
        <time>2023-06-15T11:13:48.908Z</time>
      </trkpt>
      <trkpt lat="46.59039" lon="0.00319">
        <ele>157.16</ele>
        <time>2023-06-15T11:14:39.921Z</time>
      </trkpt>
      <trkpt lat="46.59038" lon="0.00313">
        <ele>157.13</ele>
        <time>2023-06-15T11:15:30.935Z</time>
      </trkpt>
      <trkpt lat="46.59036" lon="0.00307">
        <ele>157.13</ele>
        <time>2023-06-15T11:16:21.949Z</time>
      </trkpt>
      <trkpt lat="46.59034" lon="0.00297">
        <ele>157.19</ele>
        <time>2023-06-15T11:17:12.964Z</time>
      </trkpt>
      <trkpt lat="46.59033" lon="0.00295">
        <ele>157.21</ele>
        <time>2023-06-15T11:18:03.980Z</time>
      </trkpt>
      <trkpt lat="46.59025" lon="0.00272">
        <ele>157.43</ele>
        <time>2023-06-15T11:18:54.999Z</time>
      </trkpt>
      <trkpt lat="46.5902" lon="0.0026">
        <ele>157.47</ele>
        <time>2023-06-15T11:19:46.019Z</time>
      </trkpt>
      <trkpt lat="46.59014" lon="0.00243">
        <ele>157.46</ele>
        <time>2023-06-15T11:20:37.041Z</time>
      </trkpt>
      <trkpt lat="46.59012" lon="0.00237">
        <ele>157.48</ele>
        <time>2023-06-15T11:21:28.064Z</time>
      </trkpt>
      <trkpt lat="46.59005" lon="0.00218">
        <ele>157.6</ele>
        <time>2023-06-15T11:22:19.089Z</time>
      </trkpt>
      <trkpt lat="46.59004" lon="0.00214">
        <ele>157.63</ele>
        <time>2023-06-15T11:23:10.115Z</time>
      </trkpt>
      <trkpt lat="46.58991" lon="0.00175">
        <ele>157.82</ele>
        <time>2023-06-15T11:24:01.146Z</time>
      </trkpt>
      <trkpt lat="46.58988" lon="0.0016">
        <ele>157.9</ele>
        <time>2023-06-15T11:24:52.178Z</time>
      </trkpt>
      <trkpt lat="46.58983" lon="0.00128">
        <ele>158.11</ele>
        <time>2023-06-15T11:25:43.214Z</time>
      </trkpt>
      <trkpt lat="46.58979" lon="0.00109">
        <ele>158.29</ele>
        <time>2023-06-15T11:26:34.252Z</time>
      </trkpt>
      <trkpt lat="46.58978" lon="0.00103">
        <ele>158.37</ele>
        <time>2023-06-15T11:27:25.291Z</time>
      </trkpt>
      <trkpt lat="46.58977" lon="0.00096">
        <ele>158.47</ele>
        <time>2023-06-15T11:28:16.331Z</time>
      </trkpt>
      <trkpt lat="46.58976" lon="0.0009">
        <ele>158.57</ele>
        <time>2023-06-15T11:29:07.371Z</time>
      </trkpt>
      <trkpt lat="46.58974" lon="0.00084">
        <ele>158.63</ele>
        <time>2023-06-15T11:29:58.412Z</time>
      </trkpt>
      <trkpt lat="46.5897" lon="0.00065">
        <ele>158.68</ele>
        <time>2023-06-15T11:30:49.455Z</time>
      </trkpt>
      <trkpt lat="46.58968" lon="0.00053">
        <ele>158.76</ele>
        <time>2023-06-15T11:31:40.500Z</time>
      </trkpt>
      <trkpt lat="46.58967" lon="0.00049">
        <ele>158.76</ele>
        <time>2023-06-15T11:32:31.545Z</time>
      </trkpt>
      <trkpt lat="46.58964" lon="0.00027">
        <ele>158.81</ele>
        <time>2023-06-15T11:33:22.592Z</time>
      </trkpt>
      <trkpt lat="46.58962" lon="8.0E-5">
        <ele>158.95</ele>
        <time>2023-06-15T11:34:13.642Z</time>
      </trkpt>
      <trkpt lat="46.58961" lon="1.0E-5">
        <ele>158.98</ele>
        <time>2023-06-15T11:35:04.692Z</time>
      </trkpt>
      <trkpt lat="46.58959" lon="-0.00025">
        <ele>159</ele>
        <time>2023-06-15T11:35:55.745Z</time>
      </trkpt>
      <trkpt lat="46.58958" lon="-0.00031">
        <ele>159.02</ele>
        <time>2023-06-15T11:36:46.799Z</time>
      </trkpt>
      <trkpt lat="46.58957" lon="-0.00037">
        <ele>159.06</ele>
        <time>2023-06-15T11:37:37.854Z</time>
      </trkpt>
      <trkpt lat="46.58956" lon="-0.00044">
        <ele>159.13</ele>
        <time>2023-06-15T11:38:28.909Z</time>
      </trkpt>
      <trkpt lat="46.58956" lon="-0.0005">
        <ele>159.23</ele>
        <time>2023-06-15T11:39:19.965Z</time>
      </trkpt>
      <trkpt lat="46.58954" lon="-0.00063">
        <ele>159.46</ele>
        <time>2023-06-15T11:40:11.023Z</time>
      </trkpt>
      <trkpt lat="46.58953" lon="-0.0007">
        <ele>159.53</ele>
        <time>2023-06-15T11:41:02.081Z</time>
      </trkpt>
      <trkpt lat="46.58953" lon="-0.00076">
        <ele>159.56</ele>
        <time>2023-06-15T11:41:53.140Z</time>
      </trkpt>
      <trkpt lat="46.5895" lon="-0.00095">
        <ele>159.53</ele>
        <time>2023-06-15T11:42:44.201Z</time>
      </trkpt>
      <trkpt lat="46.5895" lon="-0.00102">
        <ele>159.56</ele>
        <time>2023-06-15T11:43:35.263Z</time>
      </trkpt>
      <trkpt lat="46.58947" lon="-0.00128">
        <ele>159.74</ele>
        <time>2023-06-15T11:44:26.328Z</time>
      </trkpt>
      <trkpt lat="46.58946" lon="-0.00134">
        <ele>159.8</ele>
        <time>2023-06-15T11:45:17.393Z</time>
      </trkpt>
      <trkpt lat="46.58943" lon="-0.0016">
        <ele>160.18</ele>
        <time>2023-06-15T11:46:08.461Z</time>
      </trkpt>
      <trkpt lat="46.58942" lon="-0.00166">
        <ele>160.24</ele>
        <time>2023-06-15T11:46:59.530Z</time>
      </trkpt>
      <trkpt lat="46.58941" lon="-0.00173">
        <ele>160.27</ele>
        <time>2023-06-15T11:47:50.600Z</time>
      </trkpt>
      <trkpt lat="46.58939" lon="-0.00192">
        <ele>160.29</ele>
        <time>2023-06-15T11:48:41.672Z</time>
      </trkpt>
      <trkpt lat="46.58938" lon="-0.00205">
        <ele>160.34</ele>
        <time>2023-06-15T11:49:32.745Z</time>
      </trkpt>
      <trkpt lat="46.58936" lon="-0.00218">
        <ele>160.48</ele>
        <time>2023-06-15T11:50:23.820Z</time>
      </trkpt>
      <trkpt lat="46.58936" lon="-0.0022">
        <ele>160.51</ele>
        <time>2023-06-15T11:51:14.895Z</time>
      </trkpt>
      <trkpt lat="46.58936" lon="-0.00224">
        <ele>160.58</ele>
        <time>2023-06-15T11:52:05.971Z</time>
      </trkpt>
      <trkpt lat="46.58938" lon="-0.0025">
        <ele>161.09</ele>
        <time>2023-06-15T11:52:57.049Z</time>
      </trkpt>
      <trkpt lat="46.58939" lon="-0.0027">
        <ele>161.37</ele>
        <time>2023-06-15T11:53:48.130Z</time>
      </trkpt>
      <trkpt lat="46.58939" lon="-0.00276">
        <ele>161.49</ele>
        <time>2023-06-15T11:54:39.211Z</time>
      </trkpt>
      <trkpt lat="46.5894" lon="-0.00283">
        <ele>161.62</ele>
        <time>2023-06-15T11:55:30.293Z</time>
      </trkpt>
      <trkpt lat="46.5894" lon="-0.00289">
        <ele>161.78</ele>
        <time>2023-06-15T11:56:21.376Z</time>
      </trkpt>
      <trkpt lat="46.58941" lon="-0.00309">
        <ele>162.37</ele>
        <time>2023-06-15T11:57:12.461Z</time>
      </trkpt>
      <trkpt lat="46.58942" lon="-0.00322">
        <ele>162.46</ele>
        <time>2023-06-15T11:58:03.547Z</time>
      </trkpt>
      <trkpt lat="46.58943" lon="-0.00335">
        <ele>162.59</ele>
        <time>2023-06-15T11:58:54.635Z</time>
      </trkpt>
      <trkpt lat="46.58944" lon="-0.00361">
        <ele>162.74</ele>
        <time>2023-06-15T11:59:45.726Z</time>
      </trkpt>
      <trkpt lat="46.58946" lon="-0.0038">
        <ele>162.79</ele>
        <time>2023-06-15T12:00:36.819Z</time>
      </trkpt>
      <trkpt lat="46.58947" lon="-0.00406">
        <ele>162.79</ele>
        <time>2023-06-15T12:01:27.915Z</time>
      </trkpt>
      <trkpt lat="46.58948" lon="-0.00426">
        <ele>162.87</ele>
        <time>2023-06-15T12:02:19.013Z</time>
      </trkpt>
      <trkpt lat="46.58949" lon="-0.00432">
        <ele>162.91</ele>
        <time>2023-06-15T12:03:10.112Z</time>
      </trkpt>
      <trkpt lat="46.5895" lon="-0.00452">
        <ele>163.11</ele>
        <time>2023-06-15T12:04:01.213Z</time>
      </trkpt>
      <trkpt lat="46.5895" lon="-0.00459">
        <ele>163.14</ele>
        <time>2023-06-15T12:04:52.315Z</time>
      </trkpt>
      <trkpt lat="46.58953" lon="-0.00511">
        <ele>163.23</ele>
        <time>2023-06-15T12:05:43.422Z</time>
      </trkpt>
      <trkpt lat="46.58955" lon="-0.00543">
        <ele>163.13</ele>
        <time>2023-06-15T12:06:34.533Z</time>
      </trkpt>
      <trkpt lat="46.58958" lon="-0.00589">
        <ele>163.28</ele>
        <time>2023-06-15T12:07:25.649Z</time>
      </trkpt>
      <trkpt lat="46.58959" lon="-0.00602">
        <ele>163.38</ele>
        <time>2023-06-15T12:08:16.766Z</time>
      </trkpt>
      <trkpt lat="46.58959" lon="-0.00608">
        <ele>163.41</ele>
        <time>2023-06-15T12:09:07.884Z</time>
      </trkpt>
      <trkpt lat="46.5896" lon="-0.00615">
        <ele>163.47</ele>
        <time>2023-06-15T12:09:59.003Z</time>
      </trkpt>
      <trkpt lat="46.5896" lon="-0.00621">
        <ele>163.61</ele>
        <time>2023-06-15T12:10:50.123Z</time>
      </trkpt>
      <trkpt lat="46.58961" lon="-0.00634">
        <ele>164.15</ele>
        <time>2023-06-15T12:11:41.244Z</time>
      </trkpt>
      <trkpt lat="46.58961" lon="-0.00641">
        <ele>164.37</ele>
        <time>2023-06-15T12:12:32.366Z</time>
      </trkpt>
      <trkpt lat="46.58961" lon="-0.00647">
        <ele>164.49</ele>
        <time>2023-06-15T12:13:23.488Z</time>
      </trkpt>
      <trkpt lat="46.58962" lon="-0.00654">
        <ele>164.53</ele>
        <time>2023-06-15T12:14:14.611Z</time>
      </trkpt>
      <trkpt lat="46.58964" lon="-0.00686">
        <ele>164.48</ele>
        <time>2023-06-15T12:15:05.738Z</time>
      </trkpt>
      <trkpt lat="46.58965" lon="-0.00699">
        <ele>164.49</ele>
        <time>2023-06-15T12:15:56.866Z</time>
      </trkpt>
      <trkpt lat="46.58965" lon="-0.00706">
        <ele>164.54</ele>
        <time>2023-06-15T12:16:47.995Z</time>
      </trkpt>
      <trkpt lat="46.58966" lon="-0.00719">
        <ele>164.74</ele>
        <time>2023-06-15T12:17:39.125Z</time>
      </trkpt>
      <trkpt lat="46.58966" lon="-0.00725">
        <ele>164.82</ele>
        <time>2023-06-15T12:18:30.256Z</time>
      </trkpt>
      <trkpt lat="46.58966" lon="-0.00732">
        <ele>164.87</ele>
        <time>2023-06-15T12:19:21.388Z</time>
      </trkpt>
      <trkpt lat="46.58968" lon="-0.00751">
        <ele>164.91</ele>
        <time>2023-06-15T12:20:12.522Z</time>
      </trkpt>
      <trkpt lat="46.58968" lon="-0.00757">
        <ele>164.88</ele>
        <time>2023-06-15T12:21:03.657Z</time>
      </trkpt>
      <trkpt lat="46.58966" lon="-0.00777">
        <ele>164.8</ele>
        <time>2023-06-15T12:21:54.794Z</time>
      </trkpt>
      <trkpt lat="46.58964" lon="-0.0079">
        <ele>164.78</ele>
        <time>2023-06-15T12:22:45.932Z</time>
      </trkpt>
      <trkpt lat="46.58962" lon="-0.00809">
        <ele>164.8</ele>
        <time>2023-06-15T12:23:37.072Z</time>
      </trkpt>
      <trkpt lat="46.58959" lon="-0.00838">
        <ele>164.88</ele>
        <time>2023-06-15T12:24:28.216Z</time>
      </trkpt>
      <trkpt lat="46.58958" lon="-0.00841">
        <ele>164.89</ele>
        <time>2023-06-15T12:25:19.360Z</time>
      </trkpt>
      <trkpt lat="46.58936" lon="-0.00898">
        <ele>164.87</ele>
        <time>2023-06-15T12:26:10.511Z</time>
      </trkpt>
      <trkpt lat="46.5893" lon="-0.00916">
        <ele>164.93</ele>
        <time>2023-06-15T12:27:01.664Z</time>
      </trkpt>
      <trkpt lat="46.58922" lon="-0.00936">
        <ele>164.78</ele>
        <time>2023-06-15T12:27:52.820Z</time>
      </trkpt>
      <trkpt lat="46.58921" lon="-0.00939">
        <ele>164.77</ele>
        <time>2023-06-15T12:28:43.976Z</time>
      </trkpt>
      <trkpt lat="46.58911" lon="-0.00974">
        <ele>164.69</ele>
        <time>2023-06-15T12:29:35.137Z</time>
      </trkpt>
      <trkpt lat="46.58907" lon="-0.00986">
        <ele>164.72</ele>
        <time>2023-06-15T12:30:26.299Z</time>
      </trkpt>
      <trkpt lat="46.58905" lon="-0.00992">
        <ele>164.77</ele>
        <time>2023-06-15T12:31:17.462Z</time>
      </trkpt>
      <trkpt lat="46.58902" lon="-0.01004">
        <ele>164.92</ele>
        <time>2023-06-15T12:32:08.626Z</time>
      </trkpt>
      <trkpt lat="46.589" lon="-0.0101">
        <ele>164.97</ele>
        <time>2023-06-15T12:32:59.791Z</time>
      </trkpt>
      <trkpt lat="46.58896" lon="-0.01022">
        <ele>164.98</ele>
        <time>2023-06-15T12:33:50.957Z</time>
      </trkpt>
      <trkpt lat="46.58891" lon="-0.0104">
        <ele>164.92</ele>
        <time>2023-06-15T12:34:42.126Z</time>
      </trkpt>
      <trkpt lat="46.58886" lon="-0.01058">
        <ele>164.78</ele>
        <time>2023-06-15T12:35:33.297Z</time>
      </trkpt>
      <trkpt lat="46.58884" lon="-0.01064">
        <ele>164.77</ele>
        <time>2023-06-15T12:36:24.468Z</time>
      </trkpt>
      <trkpt lat="46.5888" lon="-0.01076">
        <ele>164.82</ele>
        <time>2023-06-15T12:37:15.641Z</time>
      </trkpt>
      <trkpt lat="46.58873" lon="-0.011">
        <ele>164.87</ele>
        <time>2023-06-15T12:38:06.817Z</time>
      </trkpt>
      <trkpt lat="46.58871" lon="-0.01106">
        <ele>164.91</ele>
        <time>2023-06-15T12:38:57.993Z</time>
      </trkpt>
      <trkpt lat="46.58866" lon="-0.01124">
        <ele>165.09</ele>
        <time>2023-06-15T12:39:49.172Z</time>
      </trkpt>
      <trkpt lat="46.58864" lon="-0.0113">
        <ele>165.1</ele>
        <time>2023-06-15T12:40:40.351Z</time>
      </trkpt>
      <trkpt lat="46.58861" lon="-0.01142">
        <ele>165.07</ele>
        <time>2023-06-15T12:41:31.532Z</time>
      </trkpt>
      <trkpt lat="46.58859" lon="-0.01148">
        <ele>165.13</ele>
        <time>2023-06-15T12:42:22.713Z</time>
      </trkpt>
      <trkpt lat="46.58855" lon="-0.0116">
        <ele>165.33</ele>
        <time>2023-06-15T12:43:13.896Z</time>
      </trkpt>
      <trkpt lat="46.58853" lon="-0.01166">
        <ele>165.4</ele>
        <time>2023-06-15T12:44:05.080Z</time>
      </trkpt>
      <trkpt lat="46.58852" lon="-0.01172">
        <ele>165.44</ele>
        <time>2023-06-15T12:44:56.264Z</time>
      </trkpt>
      <trkpt lat="46.5885" lon="-0.01178">
        <ele>165.45</ele>
        <time>2023-06-15T12:45:47.449Z</time>
      </trkpt>
      <trkpt lat="46.58836" lon="-0.01226">
        <ele>165.43</ele>
        <time>2023-06-15T12:46:38.640Z</time>
      </trkpt>
      <trkpt lat="46.58825" lon="-0.01262">
        <ele>165.35</ele>
        <time>2023-06-15T12:47:29.835Z</time>
      </trkpt>
      <trkpt lat="46.58816" lon="-0.01292">
        <ele>165.22</ele>
        <time>2023-06-15T12:48:21.034Z</time>
      </trkpt>
      <trkpt lat="46.58814" lon="-0.01298">
        <ele>165.17</ele>
        <time>2023-06-15T12:49:12.233Z</time>
      </trkpt>
      <trkpt lat="46.58809" lon="-0.01316">
        <ele>164.87</ele>
        <time>2023-06-15T12:50:03.435Z</time>
      </trkpt>
      <trkpt lat="46.58807" lon="-0.01322">
        <ele>164.79</ele>
        <time>2023-06-15T12:50:54.637Z</time>
      </trkpt>
      <trkpt lat="46.58807" lon="-0.01322">
        <ele>164.79</ele>
        <time>2023-06-15T12:51:45.839Z</time>
      </trkpt>
      <trkpt lat="46.58796" lon="-0.01343">
        <ele>164.55</ele>
        <time>2023-06-15T12:52:37.044Z</time>
      </trkpt>
      <trkpt lat="46.58791" lon="-0.01353">
        <ele>164.39</ele>
        <time>2023-06-15T12:53:28.251Z</time>
      </trkpt>
      <trkpt lat="46.58783" lon="-0.01369">
        <ele>164.1</ele>
        <time>2023-06-15T12:54:19.460Z</time>
      </trkpt>
      <trkpt lat="46.58775" lon="-0.01385">
        <ele>163.89</ele>
        <time>2023-06-15T12:55:10.671Z</time>
      </trkpt>
      <trkpt lat="46.58772" lon="-0.0139">
        <ele>163.8</ele>
        <time>2023-06-15T12:56:01.883Z</time>
      </trkpt>
      <trkpt lat="46.58767" lon="-0.01401">
        <ele>163.52</ele>
        <time>2023-06-15T12:56:53.096Z</time>
      </trkpt>
      <trkpt lat="46.58764" lon="-0.01406">
        <ele>163.4</ele>
        <time>2023-06-15T12:57:44.310Z</time>
      </trkpt>
      <trkpt lat="46.58762" lon="-0.01411">
        <ele>163.33</ele>
        <time>2023-06-15T12:58:35.525Z</time>
      </trkpt>
      <trkpt lat="46.58743" lon="-0.01448">
        <ele>163.19</ele>
        <time>2023-06-15T12:59:26.745Z</time>
      </trkpt>
      <trkpt lat="46.58733" lon="-0.01467">
        <ele>163.13</ele>
        <time>2023-06-15T13:00:17.967Z</time>
      </trkpt>
      <trkpt lat="46.5872" lon="-0.01503">
        <ele>163.04</ele>
        <time>2023-06-15T13:01:09.194Z</time>
      </trkpt>
      <trkpt lat="46.58718" lon="-0.01505">
        <ele>163.04</ele>
        <time>2023-06-15T13:02:00.421Z</time>
      </trkpt>
      <trkpt lat="46.58706" lon="-0.01524">
        <ele>163.11</ele>
        <time>2023-06-15T13:02:51.651Z</time>
      </trkpt>
      <trkpt lat="46.587" lon="-0.01534">
        <ele>163.1</ele>
        <time>2023-06-15T13:03:42.882Z</time>
      </trkpt>
      <trkpt lat="46.58694" lon="-0.01543">
        <ele>163.13</ele>
        <time>2023-06-15T13:04:34.115Z</time>
      </trkpt>
      <trkpt lat="46.58673" lon="-0.01577">
        <ele>163.43</ele>
        <time>2023-06-15T13:05:25.353Z</time>
      </trkpt>
      <trkpt lat="46.5867" lon="-0.01581">
        <ele>163.49</ele>
        <time>2023-06-15T13:06:16.592Z</time>
      </trkpt>
      <trkpt lat="46.58661" lon="-0.01596">
        <ele>163.73</ele>
        <time>2023-06-15T13:07:07.833Z</time>
      </trkpt>
      <trkpt lat="46.58655" lon="-0.01605">
        <ele>163.85</ele>
        <time>2023-06-15T13:07:59.075Z</time>
      </trkpt>
      <trkpt lat="46.58634" lon="-0.01638">
        <ele>164.16</ele>
        <time>2023-06-15T13:08:50.322Z</time>
      </trkpt>
      <trkpt lat="46.58622" lon="-0.01657">
        <ele>164.28</ele>
        <time>2023-06-15T13:09:41.572Z</time>
      </trkpt>
      <trkpt lat="46.58619" lon="-0.01662">
        <ele>164.33</ele>
        <time>2023-06-15T13:10:32.823Z</time>
      </trkpt>
      <trkpt lat="46.58616" lon="-0.01667">
        <ele>164.39</ele>
        <time>2023-06-15T13:11:24.074Z</time>
      </trkpt>
      <trkpt lat="46.58607" lon="-0.01681">
        <ele>164.66</ele>
        <time>2023-06-15T13:12:15.327Z</time>
      </trkpt>
      <trkpt lat="46.58601" lon="-0.01691">
        <ele>164.82</ele>
        <time>2023-06-15T13:13:06.582Z</time>
      </trkpt>
      <trkpt lat="46.58577" lon="-0.01729">
        <ele>165.2</ele>
        <time>2023-06-15T13:13:57.843Z</time>
      </trkpt>
      <trkpt lat="46.58571" lon="-0.01738">
        <ele>165.25</ele>
        <time>2023-06-15T13:14:49.105Z</time>
      </trkpt>
      <trkpt lat="46.58565" lon="-0.01748">
        <ele>165.26</ele>
        <time>2023-06-15T13:15:40.368Z</time>
      </trkpt>
      <trkpt lat="46.58562" lon="-0.01752">
        <ele>165.24</ele>
        <time>2023-06-15T13:16:31.632Z</time>
      </trkpt>
      <trkpt lat="46.58534" lon="-0.01794">
        <ele>165.09</ele>
        <time>2023-06-15T13:17:22.903Z</time>
      </trkpt>
      <trkpt lat="46.58521" lon="-0.01812">
        <ele>164.95</ele>
        <time>2023-06-15T13:18:14.176Z</time>
      </trkpt>
      <trkpt lat="46.58502" lon="-0.01839">
        <ele>164.66</ele>
        <time>2023-06-15T13:19:05.454Z</time>
      </trkpt>
      <trkpt lat="46.5849" lon="-0.01858">
        <ele>164.62</ele>
        <time>2023-06-15T13:19:56.734Z</time>
      </trkpt>
      <trkpt lat="46.58478" lon="-0.01876">
        <ele>164.55</ele>
        <time>2023-06-15T13:20:48.017Z</time>
      </trkpt>
      <trkpt lat="46.58471" lon="-0.01885">
        <ele>164.55</ele>
        <time>2023-06-15T13:21:39.302Z</time>
      </trkpt>
      <trkpt lat="46.5845" lon="-0.01917">
        <ele>164.28</ele>
        <time>2023-06-15T13:22:30.592Z</time>
      </trkpt>
      <trkpt lat="46.58443" lon="-0.01926">
        <ele>164.23</ele>
        <time>2023-06-15T13:23:21.883Z</time>
      </trkpt>
      <trkpt lat="46.5844" lon="-0.01931">
        <ele>164.21</ele>
        <time>2023-06-15T13:24:13.175Z</time>
      </trkpt>
      <trkpt lat="46.58431" lon="-0.01922">
        <ele>164.18</ele>
        <time>2023-06-15T13:25:04.469Z</time>
      </trkpt>
      <trkpt lat="46.58417" lon="-0.01912">
        <ele>164.15</ele>
        <time>2023-06-15T13:25:55.765Z</time>
      </trkpt>
      <trkpt lat="46.58409" lon="-0.01906">
        <ele>164.1</ele>
        <time>2023-06-15T13:26:47.063Z</time>
      </trkpt>
      <trkpt lat="46.58386" lon="-0.01888">
        <ele>163.88</ele>
        <time>2023-06-15T13:27:38.365Z</time>
      </trkpt>
      <trkpt lat="46.5837" lon="-0.01876">
        <ele>163.82</ele>
        <time>2023-06-15T13:28:29.670Z</time>
      </trkpt>
      <trkpt lat="46.58362" lon="-0.0187">
        <ele>163.74</ele>
        <time>2023-06-15T13:29:20.976Z</time>
      </trkpt>
      <trkpt lat="46.58354" lon="-0.01865">
        <ele>163.62</ele>
        <time>2023-06-15T13:30:12.284Z</time>
      </trkpt>
      <trkpt lat="46.5835" lon="-0.01862">
        <ele>163.53</ele>
        <time>2023-06-15T13:31:03.592Z</time>
      </trkpt>
      <trkpt lat="46.58342" lon="-0.01856">
        <ele>163.32</ele>
        <time>2023-06-15T13:31:54.902Z</time>
      </trkpt>
      <trkpt lat="46.58322" lon="-0.01841">
        <ele>162.73</ele>
        <time>2023-06-15T13:32:46.215Z</time>
      </trkpt>
      <trkpt lat="46.58313" lon="-0.01834">
        <ele>162.39</ele>
        <time>2023-06-15T13:33:37.530Z</time>
      </trkpt>
      <trkpt lat="46.58302" lon="-0.01828">
        <ele>162.03</ele>
        <time>2023-06-15T13:34:28.847Z</time>
      </trkpt>
      <trkpt lat="46.58276" lon="-0.01816">
        <ele>160.85</ele>
        <time>2023-06-15T13:35:20.168Z</time>
      </trkpt>
      <trkpt lat="46.58272" lon="-0.01814">
        <ele>160.67</ele>
        <time>2023-06-15T13:36:11.490Z</time>
      </trkpt>
      <trkpt lat="46.58269" lon="-0.01812">
        <ele>160.54</ele>
        <time>2023-06-15T13:37:02.812Z</time>
      </trkpt>
      <trkpt lat="46.58265" lon="-0.01809">
        <ele>160.38</ele>
        <time>2023-06-15T13:37:54.135Z</time>
      </trkpt>
      <trkpt lat="46.58264" lon="-0.01808">
        <ele>160.35</ele>
        <time>2023-06-15T13:38:45.458Z</time>
      </trkpt>
      <trkpt lat="46.58262" lon="-0.01802">
        <ele>160.19</ele>
        <time>2023-06-15T13:39:36.782Z</time>
      </trkpt>
      <trkpt lat="46.58255" lon="-0.01803">
        <ele>159.97</ele>
        <time>2023-06-15T13:40:28.107Z</time>
      </trkpt>
      <trkpt lat="46.5825" lon="-0.01809">
        <ele>159.77</ele>
        <time>2023-06-15T13:41:19.433Z</time>
      </trkpt>
      <trkpt lat="46.58241" lon="-0.01819">
        <ele>159.44</ele>
        <time>2023-06-15T13:42:10.761Z</time>
      </trkpt>
      <trkpt lat="46.58236" lon="-0.01825">
        <ele>159.26</ele>
        <time>2023-06-15T13:43:02.090Z</time>
      </trkpt>
      <trkpt lat="46.5823" lon="-0.01834">
        <ele>159.03</ele>
        <time>2023-06-15T13:43:53.420Z</time>
      </trkpt>
      <trkpt lat="46.5822" lon="-0.01848">
        <ele>158.72</ele>
        <time>2023-06-15T13:44:44.753Z</time>
      </trkpt>
      <trkpt lat="46.5822" lon="-0.01848">
        <ele>158.72</ele>
        <time>2023-06-15T13:45:36.086Z</time>
      </trkpt>
      <trkpt lat="46.58213" lon="-0.01856">
        <ele>158.47</ele>
        <time>2023-06-15T13:46:27.420Z</time>
      </trkpt>
      <trkpt lat="46.58206" lon="-0.01864">
        <ele>158.18</ele>
        <time>2023-06-15T13:47:18.755Z</time>
      </trkpt>
      <trkpt lat="46.58201" lon="-0.01871">
        <ele>157.92</ele>
        <time>2023-06-15T13:48:10.092Z</time>
      </trkpt>
      <trkpt lat="46.58199" lon="-0.01873">
        <ele>157.85</ele>
        <time>2023-06-15T13:49:01.429Z</time>
      </trkpt>
      <trkpt lat="46.58192" lon="-0.0188">
        <ele>157.43</ele>
        <time>2023-06-15T13:49:52.767Z</time>
      </trkpt>
      <trkpt lat="46.58185" lon="-0.01888">
        <ele>156.91</ele>
        <time>2023-06-15T13:50:44.107Z</time>
      </trkpt>
      <trkpt lat="46.58181" lon="-0.01892">
        <ele>156.61</ele>
        <time>2023-06-15T13:51:35.447Z</time>
      </trkpt>
      <trkpt lat="46.58167" lon="-0.01907">
        <ele>155.24</ele>
        <time>2023-06-15T13:52:26.790Z</time>
      </trkpt>
      <trkpt lat="46.58163" lon="-0.01911">
        <ele>154.94</ele>
        <time>2023-06-15T13:53:18.134Z</time>
      </trkpt>
      <trkpt lat="46.5816" lon="-0.01915">
        <ele>154.67</ele>
        <time>2023-06-15T13:54:09.479Z</time>
      </trkpt>
      <trkpt lat="46.58149" lon="-0.01927">
        <ele>154</ele>
        <time>2023-06-15T13:55:00.826Z</time>
      </trkpt>
      <trkpt lat="46.58138" lon="-0.01938">
        <ele>153.51</ele>
        <time>2023-06-15T13:55:52.175Z</time>
      </trkpt>
      <trkpt lat="46.5813" lon="-0.01947">
        <ele>153.5</ele>
        <time>2023-06-15T13:56:43.526Z</time>
      </trkpt>
      <trkpt lat="46.58129" lon="-0.01948">
        <ele>153.5</ele>
        <time>2023-06-15T13:57:34.877Z</time>
      </trkpt>
      <trkpt lat="46.58116" lon="-0.01955">
        <ele>153.46</ele>
        <time>2023-06-15T13:58:26.230Z</time>
      </trkpt>
      <trkpt lat="46.58115" lon="-0.01956">
        <ele>153.46</ele>
        <time>2023-06-15T13:59:17.583Z</time>
      </trkpt>
      <trkpt lat="46.58112" lon="-0.01956">
        <ele>153.47</ele>
        <time>2023-06-15T14:00:08.937Z</time>
      </trkpt>
      <trkpt lat="46.58108" lon="-0.01957">
        <ele>153.5</ele>
        <time>2023-06-15T14:01:00.291Z</time>
      </trkpt>
      <trkpt lat="46.58108" lon="-0.01957">
        <ele>153.5</ele>
        <time>2023-06-15T14:01:51.645Z</time>
      </trkpt>
      <trkpt lat="46.58099" lon="-0.01953">
        <ele>153.63</ele>
        <time>2023-06-15T14:02:43.001Z</time>
      </trkpt>
      <trkpt lat="46.58086" lon="-0.01946">
        <ele>153.89</ele>
        <time>2023-06-15T14:03:34.359Z</time>
      </trkpt>
      <trkpt lat="46.58086" lon="-0.01946">
        <ele>153.89</ele>
        <time>2023-06-15T14:04:25.717Z</time>
      </trkpt>
      <trkpt lat="46.58081" lon="-0.01946">
        <ele>154.01</ele>
        <time>2023-06-15T14:05:17.076Z</time>
      </trkpt>
      <trkpt lat="46.58078" lon="-0.01947">
        <ele>154.1</ele>
        <time>2023-06-15T14:06:08.435Z</time>
      </trkpt>
      <trkpt lat="46.58075" lon="-0.01948">
        <ele>154.18</ele>
        <time>2023-06-15T14:06:59.795Z</time>
      </trkpt>
      <trkpt lat="46.58071" lon="-0.01955">
        <ele>154.36</ele>
        <time>2023-06-15T14:07:51.156Z</time>
      </trkpt>
      <trkpt lat="46.58068" lon="-0.0196">
        <ele>154.53</ele>
        <time>2023-06-15T14:08:42.518Z</time>
      </trkpt>
      <trkpt lat="46.58067" lon="-0.01963">
        <ele>154.63</ele>
        <time>2023-06-15T14:09:33.880Z</time>
      </trkpt>
      <trkpt lat="46.58063" lon="-0.0198">
        <ele>155.17</ele>
        <time>2023-06-15T14:10:25.244Z</time>
      </trkpt>
      <trkpt lat="46.58061" lon="-0.01984">
        <ele>155.31</ele>
        <time>2023-06-15T14:11:16.608Z</time>
      </trkpt>
      <trkpt lat="46.58056" lon="-0.01995">
        <ele>155.67</ele>
        <time>2023-06-15T14:12:07.974Z</time>
      </trkpt>
      <trkpt lat="46.58051" lon="-0.02005">
        <ele>155.99</ele>
        <time>2023-06-15T14:12:59.341Z</time>
      </trkpt>
      <trkpt lat="46.58046" lon="-0.02016">
        <ele>156.25</ele>
        <time>2023-06-15T14:13:50.710Z</time>
      </trkpt>
      <trkpt lat="46.58041" lon="-0.02027">
        <ele>156.47</ele>
        <time>2023-06-15T14:14:42.080Z</time>
      </trkpt>
      <trkpt lat="46.58036" lon="-0.02038">
        <ele>156.65</ele>
        <time>2023-06-15T14:15:33.452Z</time>
      </trkpt>
      <trkpt lat="46.58031" lon="-0.02048">
        <ele>156.77</ele>
        <time>2023-06-15T14:16:24.825Z</time>
      </trkpt>
      <trkpt lat="46.58019" lon="-0.02075">
        <ele>157</ele>
        <time>2023-06-15T14:17:16.202Z</time>
      </trkpt>
      <trkpt lat="46.58018" lon="-0.02077">
        <ele>157.03</ele>
        <time>2023-06-15T14:18:07.579Z</time>
      </trkpt>
      <trkpt lat="46.58005" lon="-0.021">
        <ele>157.52</ele>
        <time>2023-06-15T14:18:58.959Z</time>
      </trkpt>
      <trkpt lat="46.58003" lon="-0.02103">
        <ele>157.6</ele>
        <time>2023-06-15T14:19:50.340Z</time>
      </trkpt>
      <trkpt lat="46.57998" lon="-0.02107">
        <ele>157.76</ele>
        <time>2023-06-15T14:20:41.722Z</time>
      </trkpt>
      <trkpt lat="46.57991" lon="-0.02114">
        <ele>158.03</ele>
        <time>2023-06-15T14:21:33.105Z</time>
      </trkpt>
      <trkpt lat="46.57987" lon="-0.02117">
        <ele>158.13</ele>
        <time>2023-06-15T14:22:24.489Z</time>
      </trkpt>
      <trkpt lat="46.57983" lon="-0.02121">
        <ele>158.26</ele>
        <time>2023-06-15T14:23:15.873Z</time>
      </trkpt>
      <trkpt lat="46.57969" lon="-0.02136">
        <ele>158.64</ele>
        <time>2023-06-15T14:24:07.260Z</time>
      </trkpt>
      <trkpt lat="46.57955" lon="-0.0215">
        <ele>159.06</ele>
        <time>2023-06-15T14:24:58.650Z</time>
      </trkpt>
      <trkpt lat="46.57947" lon="-0.02158">
        <ele>159.21</ele>
        <time>2023-06-15T14:25:50.041Z</time>
      </trkpt>
      <trkpt lat="46.57947" lon="-0.02158">
        <ele>159.21</ele>
        <time>2023-06-15T14:26:41.432Z</time>
      </trkpt>
      <trkpt lat="46.57935" lon="-0.02176">
        <ele>159.46</ele>
        <time>2023-06-15T14:27:32.826Z</time>
      </trkpt>
      <trkpt lat="46.57929" lon="-0.02186">
        <ele>159.62</ele>
        <time>2023-06-15T14:28:24.222Z</time>
      </trkpt>
      <trkpt lat="46.57914" lon="-0.02198">
        <ele>159.92</ele>
        <time>2023-06-15T14:29:15.620Z</time>
      </trkpt>
      <trkpt lat="46.57907" lon="-0.02204">
        <ele>160.05</ele>
        <time>2023-06-15T14:30:07.020Z</time>
      </trkpt>
      <trkpt lat="46.57887" lon="-0.0222">
        <ele>159.84</ele>
        <time>2023-06-15T14:30:58.423Z</time>
      </trkpt>
      <trkpt lat="46.57886" lon="-0.02221">
        <ele>159.81</ele>
        <time>2023-06-15T14:31:49.827Z</time>
      </trkpt>
      <trkpt lat="46.57883" lon="-0.02221">
        <ele>159.76</ele>
        <time>2023-06-15T14:32:41.231Z</time>
      </trkpt>
      <trkpt lat="46.57866" lon="-0.02224">
        <ele>159.37</ele>
        <time>2023-06-15T14:33:32.638Z</time>
      </trkpt>
      <trkpt lat="46.57866" lon="-0.02225">
        <ele>159.37</ele>
        <time>2023-06-15T14:34:24.045Z</time>
      </trkpt>
      <trkpt lat="46.57863" lon="-0.02238">
        <ele>159.21</ele>
        <time>2023-06-15T14:35:15.453Z</time>
      </trkpt>
      <trkpt lat="46.57861" lon="-0.0225">
        <ele>159.07</ele>
        <time>2023-06-15T14:36:06.863Z</time>
      </trkpt>
      <trkpt lat="46.57858" lon="-0.02269">
        <ele>158.87</ele>
        <time>2023-06-15T14:36:58.275Z</time>
      </trkpt>
      <trkpt lat="46.57853" lon="-0.02294">
        <ele>158.68</ele>
        <time>2023-06-15T14:37:49.690Z</time>
      </trkpt>
      <trkpt lat="46.57852" lon="-0.02301">
        <ele>158.6</ele>
        <time>2023-06-15T14:38:41.106Z</time>
      </trkpt>
      <trkpt lat="46.57851" lon="-0.02307">
        <ele>158.48</ele>
        <time>2023-06-15T14:39:32.522Z</time>
      </trkpt>
      <trkpt lat="46.57848" lon="-0.02326">
        <ele>158.04</ele>
        <time>2023-06-15T14:40:23.940Z</time>
      </trkpt>
      <trkpt lat="46.57846" lon="-0.02338">
        <ele>157.8</ele>
        <time>2023-06-15T14:41:15.360Z</time>
      </trkpt>
      <trkpt lat="46.57845" lon="-0.02345">
        <ele>157.7</ele>
        <time>2023-06-15T14:42:06.781Z</time>
      </trkpt>
      <trkpt lat="46.57844" lon="-0.02351">
        <ele>157.63</ele>
        <time>2023-06-15T14:42:58.202Z</time>
      </trkpt>
      <trkpt lat="46.57843" lon="-0.02357">
        <ele>157.59</ele>
        <time>2023-06-15T14:43:49.624Z</time>
      </trkpt>
      <trkpt lat="46.57841" lon="-0.02364">
        <ele>157.58</ele>
        <time>2023-06-15T14:44:41.047Z</time>
      </trkpt>
      <trkpt lat="46.5784" lon="-0.0237">
        <ele>157.62</ele>
        <time>2023-06-15T14:45:32.470Z</time>
      </trkpt>
      <trkpt lat="46.57837" lon="-0.02389">
        <ele>157.81</ele>
        <time>2023-06-15T14:46:23.896Z</time>
      </trkpt>
      <trkpt lat="46.57836" lon="-0.02395">
        <ele>157.84</ele>
        <time>2023-06-15T14:47:15.322Z</time>
      </trkpt>
      <trkpt lat="46.57833" lon="-0.02413">
        <ele>157.89</ele>
        <time>2023-06-15T14:48:06.750Z</time>
      </trkpt>
      <trkpt lat="46.57819" lon="-0.0244">
        <ele>157.99</ele>
        <time>2023-06-15T14:48:58.182Z</time>
      </trkpt>
      <trkpt lat="46.57814" lon="-0.02451">
        <ele>157.99</ele>
        <time>2023-06-15T14:49:49.616Z</time>
      </trkpt>
      <trkpt lat="46.57814" lon="-0.02451">
        <ele>157.99</ele>
        <time>2023-06-15T14:50:41.050Z</time>
      </trkpt>
      <trkpt lat="46.57799" lon="-0.02474">
        <ele>157.85</ele>
        <time>2023-06-15T14:51:32.487Z</time>
      </trkpt>
      <trkpt lat="46.57789" lon="-0.02488">
        <ele>157.8</ele>
        <time>2023-06-15T14:52:23.926Z</time>
      </trkpt>
      <trkpt lat="46.57786" lon="-0.02493">
        <ele>157.75</ele>
        <time>2023-06-15T14:53:15.366Z</time>
      </trkpt>
      <trkpt lat="46.57783" lon="-0.02497">
        <ele>157.68</ele>
        <time>2023-06-15T14:54:06.807Z</time>
      </trkpt>
      <trkpt lat="46.57774" lon="-0.02511">
        <ele>157.4</ele>
        <time>2023-06-15T14:54:58.250Z</time>
      </trkpt>
      <trkpt lat="46.57771" lon="-0.02516">
        <ele>157.33</ele>
        <time>2023-06-15T14:55:49.693Z</time>
      </trkpt>
      <trkpt lat="46.57767" lon="-0.0252">
        <ele>157.29</ele>
        <time>2023-06-15T14:56:41.137Z</time>
      </trkpt>
      <trkpt lat="46.57765" lon="-0.02524">
        <ele>157.27</ele>
        <time>2023-06-15T14:57:32.582Z</time>
      </trkpt>
      <trkpt lat="46.57753" lon="-0.02537">
        <ele>157.21</ele>
        <time>2023-06-15T14:58:24.029Z</time>
      </trkpt>
      <trkpt lat="46.57746" lon="-0.02544">
        <ele>157.14</ele>
        <time>2023-06-15T14:59:15.478Z</time>
      </trkpt>
      <trkpt lat="46.57732" lon="-0.0256">
        <ele>156.95</ele>
        <time>2023-06-15T15:00:06.929Z</time>
      </trkpt>
      <trkpt lat="46.57728" lon="-0.02564">
        <ele>156.94</ele>
        <time>2023-06-15T15:00:58.381Z</time>
      </trkpt>
      <trkpt lat="46.57725" lon="-0.02568">
        <ele>156.97</ele>
        <time>2023-06-15T15:01:49.834Z</time>
      </trkpt>
      <trkpt lat="46.57721" lon="-0.02571">
        <ele>157.02</ele>
        <time>2023-06-15T15:02:41.288Z</time>
      </trkpt>
      <trkpt lat="46.57714" lon="-0.02579">
        <ele>157.18</ele>
        <time>2023-06-15T15:03:32.743Z</time>
      </trkpt>
      <trkpt lat="46.57714" lon="-0.02579">
        <ele>157.19</ele>
        <time>2023-06-15T15:04:24.198Z</time>
      </trkpt>
      <trkpt lat="46.57704" lon="-0.0259">
        <ele>157.31</ele>
        <time>2023-06-15T15:05:15.655Z</time>
      </trkpt>
      <trkpt lat="46.57693" lon="-0.02602">
        <ele>157.5</ele>
        <time>2023-06-15T15:06:07.114Z</time>
      </trkpt>
      <trkpt lat="46.57682" lon="-0.02614">
        <ele>157.76</ele>
        <time>2023-06-15T15:06:58.575Z</time>
      </trkpt>
      <trkpt lat="46.57679" lon="-0.02617">
        <ele>157.84</ele>
        <time>2023-06-15T15:07:50.037Z</time>
      </trkpt>
      <trkpt lat="46.57665" lon="-0.026">
        <ele>158.26</ele>
        <time>2023-06-15T15:08:41.502Z</time>
      </trkpt>
      <trkpt lat="46.57661" lon="-0.02595">
        <ele>158.39</ele>
        <time>2023-06-15T15:09:32.968Z</time>
      </trkpt>
      <trkpt lat="46.57654" lon="-0.0258">
        <ele>158.72</ele>
        <time>2023-06-15T15:10:24.436Z</time>
      </trkpt>
      <trkpt lat="46.57648" lon="-0.02566">
        <ele>159.07</ele>
        <time>2023-06-15T15:11:15.906Z</time>
      </trkpt>
      <trkpt lat="46.57648" lon="-0.02565">
        <ele>159.1</ele>
        <time>2023-06-15T15:12:07.376Z</time>
      </trkpt>
      <trkpt lat="46.57638" lon="-0.0253">
        <ele>159.96</ele>
        <time>2023-06-15T15:12:58.850Z</time>
      </trkpt>
      <trkpt lat="46.57636" lon="-0.02522">
        <ele>160.17</ele>
        <time>2023-06-15T15:13:50.325Z</time>
      </trkpt>
      <trkpt lat="46.57633" lon="-0.02513">
        <ele>160.42</ele>
        <time>2023-06-15T15:14:41.801Z</time>
      </trkpt>
      <trkpt lat="46.5763" lon="-0.02507">
        <ele>160.49</ele>
        <time>2023-06-15T15:15:33.278Z</time>
      </trkpt>
      <trkpt lat="46.57624" lon="-0.02499">
        <ele>160.6</ele>
        <time>2023-06-15T15:16:24.756Z</time>
      </trkpt>
      <trkpt lat="46.57602" lon="-0.02468">
        <ele>161.2</ele>
        <time>2023-06-15T15:17:16.239Z</time>
      </trkpt>
      <trkpt lat="46.57601" lon="-0.02469">
        <ele>161.2</ele>
        <time>2023-06-15T15:18:07.722Z</time>
      </trkpt>
      <trkpt lat="46.57597" lon="-0.02475">
        <ele>161.3</ele>
        <time>2023-06-15T15:18:59.206Z</time>
      </trkpt>
      <trkpt lat="46.57593" lon="-0.02481">
        <ele>161.32</ele>
        <time>2023-06-15T15:19:50.691Z</time>
      </trkpt>
      <trkpt lat="46.57585" lon="-0.02468">
        <ele>161.38</ele>
        <time>2023-06-15T15:20:42.178Z</time>
      </trkpt>
      <trkpt lat="46.57575" lon="-0.02454">
        <ele>161.35</ele>
        <time>2023-06-15T15:21:33.667Z</time>
      </trkpt>
      <trkpt lat="46.57572" lon="-0.0245">
        <ele>161.38</ele>
        <time>2023-06-15T15:22:25.157Z</time>
      </trkpt>
      <trkpt lat="46.57569" lon="-0.02445">
        <ele>161.46</ele>
        <time>2023-06-15T15:23:16.647Z</time>
      </trkpt>
      <trkpt lat="46.57567" lon="-0.02442">
        <ele>161.53</ele>
        <time>2023-06-15T15:24:08.138Z</time>
      </trkpt>
      <trkpt lat="46.57566" lon="-0.02443">
        <ele>161.57</ele>
        <time>2023-06-15T15:24:59.629Z</time>
      </trkpt>
      <trkpt lat="46.57551" lon="-0.02459">
        <ele>162.15</ele>
        <time>2023-06-15T15:25:51.123Z</time>
      </trkpt>
      <trkpt lat="46.57548" lon="-0.02463">
        <ele>162.34</ele>
        <time>2023-06-15T15:26:42.618Z</time>
      </trkpt>
      <trkpt lat="46.57548" lon="-0.02463">
        <ele>162.34</ele>
        <time>2023-06-15T15:27:34.113Z</time>
      </trkpt>
      <trkpt lat="46.57543" lon="-0.02464">
        <ele>162.58</ele>
        <time>2023-06-15T15:28:25.608Z</time>
      </trkpt>
      <trkpt lat="46.57535" lon="-0.02466">
        <ele>163.1</ele>
        <time>2023-06-15T15:29:17.105Z</time>
      </trkpt>
      <trkpt lat="46.57525" lon="-0.02468">
        <ele>163.34</ele>
        <time>2023-06-15T15:30:08.603Z</time>
      </trkpt>
      <trkpt lat="46.57525" lon="-0.02468">
        <ele>163.34</ele>
        <time>2023-06-15T15:31:00.101Z</time>
      </trkpt>
      <trkpt lat="46.57522" lon="-0.0247">
        <ele>163.43</ele>
        <time>2023-06-15T15:31:51.600Z</time>
      </trkpt>
      <trkpt lat="46.57513" lon="-0.02475">
        <ele>163.57</ele>
        <time>2023-06-15T15:32:43.100Z</time>
      </trkpt>
      <trkpt lat="46.57509" lon="-0.02477">
        <ele>163.62</ele>
        <time>2023-06-15T15:33:34.601Z</time>
      </trkpt>
      <trkpt lat="46.57502" lon="-0.02487">
        <ele>163.74</ele>
        <time>2023-06-15T15:34:26.104Z</time>
      </trkpt>
      <trkpt lat="46.57497" lon="-0.02493">
        <ele>163.85</ele>
        <time>2023-06-15T15:35:17.608Z</time>
      </trkpt>
      <trkpt lat="46.57491" lon="-0.02486">
        <ele>163.99</ele>
        <time>2023-06-15T15:36:09.113Z</time>
      </trkpt>
      <trkpt lat="46.5748" lon="-0.02474">
        <ele>164.15</ele>
        <time>2023-06-15T15:37:00.620Z</time>
      </trkpt>
      <trkpt lat="46.5747" lon="-0.02461">
        <ele>164.36</ele>
        <time>2023-06-15T15:37:52.129Z</time>
      </trkpt>
      <trkpt lat="46.57468" lon="-0.02459">
        <ele>164.38</ele>
        <time>2023-06-15T15:38:43.639Z</time>
      </trkpt>
      <trkpt lat="46.57467" lon="-0.02461">
        <ele>164.41</ele>
        <time>2023-06-15T15:39:35.149Z</time>
      </trkpt>
      <trkpt lat="46.57465" lon="-0.02465">
        <ele>164.42</ele>
        <time>2023-06-15T15:40:26.660Z</time>
      </trkpt>
      <trkpt lat="46.5746" lon="-0.02461">
        <ele>164.46</ele>
        <time>2023-06-15T15:41:18.171Z</time>
      </trkpt>
      <trkpt lat="46.57441" lon="-0.02444">
        <ele>164.55</ele>
        <time>2023-06-15T15:42:09.686Z</time>
      </trkpt>
      <trkpt lat="46.57436" lon="-0.02439">
        <ele>164.53</ele>
        <time>2023-06-15T15:43:01.202Z</time>
      </trkpt>
      <trkpt lat="46.57429" lon="-0.02435">
        <ele>164.52</ele>
        <time>2023-06-15T15:43:52.719Z</time>
      </trkpt>
      <trkpt lat="46.57421" lon="-0.0243">
        <ele>164.66</ele>
        <time>2023-06-15T15:44:44.238Z</time>
      </trkpt>
      <trkpt lat="46.57421" lon="-0.0243">
        <ele>164.66</ele>
        <time>2023-06-15T15:45:35.757Z</time>
      </trkpt>
      <trkpt lat="46.57415" lon="-0.02421">
        <ele>164.75</ele>
        <time>2023-06-15T15:46:27.277Z</time>
      </trkpt>
      <trkpt lat="46.57412" lon="-0.02416">
        <ele>164.83</ele>
        <time>2023-06-15T15:47:18.798Z</time>
      </trkpt>
      <trkpt lat="46.57409" lon="-0.02412">
        <ele>164.95</ele>
        <time>2023-06-15T15:48:10.319Z</time>
      </trkpt>
      <trkpt lat="46.57405" lon="-0.02406">
        <ele>165.12</ele>
        <time>2023-06-15T15:49:01.841Z</time>
      </trkpt>
      <trkpt lat="46.57402" lon="-0.02406">
        <ele>165.23</ele>
        <time>2023-06-15T15:49:53.364Z</time>
      </trkpt>
      <trkpt lat="46.57397" lon="-0.02405">
        <ele>165.33</ele>
        <time>2023-06-15T15:50:44.888Z</time>
      </trkpt>
      <trkpt lat="46.57393" lon="-0.02405">
        <ele>165.39</ele>
        <time>2023-06-15T15:51:36.412Z</time>
      </trkpt>
      <trkpt lat="46.57393" lon="-0.02405">
        <ele>165.39</ele>
        <time>2023-06-15T15:52:27.936Z</time>
      </trkpt>
      <trkpt lat="46.57389" lon="-0.02402">
        <ele>165.42</ele>
        <time>2023-06-15T15:53:19.461Z</time>
      </trkpt>
      <trkpt lat="46.57367" lon="-0.02386">
        <ele>165.5</ele>
        <time>2023-06-15T15:54:10.990Z</time>
      </trkpt>
      <trkpt lat="46.57353" lon="-0.02377">
        <ele>165.56</ele>
        <time>2023-06-15T15:55:02.521Z</time>
      </trkpt>
      <trkpt lat="46.5734" lon="-0.02369">
        <ele>165.56</ele>
        <time>2023-06-15T15:55:54.055Z</time>
      </trkpt>
      <trkpt lat="46.57324" lon="-0.02363">
        <ele>165.57</ele>
        <time>2023-06-15T15:56:45.591Z</time>
      </trkpt>
      <trkpt lat="46.5732" lon="-0.02362">
        <ele>165.53</ele>
        <time>2023-06-15T15:57:37.128Z</time>
      </trkpt>
      <trkpt lat="46.57315" lon="-0.02361">
        <ele>165.49</ele>
        <time>2023-06-15T15:58:28.666Z</time>
      </trkpt>
      <trkpt lat="46.57295" lon="-0.02357">
        <ele>165.56</ele>
        <time>2023-06-15T15:59:20.207Z</time>
      </trkpt>
      <trkpt lat="46.57286" lon="-0.02356">
        <ele>165.52</ele>
        <time>2023-06-15T16:00:11.749Z</time>
      </trkpt>
      <trkpt lat="46.57273" lon="-0.02353">
        <ele>165.32</ele>
        <time>2023-06-15T16:01:03.293Z</time>
      </trkpt>
      <trkpt lat="46.57274" lon="-0.02343">
        <ele>165.22</ele>
        <time>2023-06-15T16:01:54.839Z</time>
      </trkpt>
      <trkpt lat="46.57276" lon="-0.02331">
        <ele>165.15</ele>
        <time>2023-06-15T16:02:46.386Z</time>
      </trkpt>
      <trkpt lat="46.57283" lon="-0.0227">
        <ele>165.17</ele>
        <time>2023-06-15T16:03:37.940Z</time>
      </trkpt>
      <trkpt lat="46.5725" lon="-0.02237">
        <ele>165.2</ele>
        <time>2023-06-15T16:04:29.500Z</time>
      </trkpt>
      <trkpt lat="46.57239" lon="-0.02226">
        <ele>165.02</ele>
        <time>2023-06-15T16:05:21.062Z</time>
      </trkpt>
      <trkpt lat="46.57215" lon="-0.02202">
        <ele>164.87</ele>
        <time>2023-06-15T16:06:12.629Z</time>
      </trkpt>
      <trkpt lat="46.57222" lon="-0.02185">
        <ele>164.81</ele>
        <time>2023-06-15T16:07:04.198Z</time>
      </trkpt>
      <trkpt lat="46.57239" lon="-0.02152">
        <ele>164.68</ele>
        <time>2023-06-15T16:07:55.772Z</time>
      </trkpt>
      <trkpt lat="46.57259" lon="-0.02113">
        <ele>164.85</ele>
        <time>2023-06-15T16:08:47.351Z</time>
      </trkpt>
      <trkpt lat="46.57272" lon="-0.02088">
        <ele>164.88</ele>
        <time>2023-06-15T16:09:38.934Z</time>
      </trkpt>
      <trkpt lat="46.57277" lon="-0.02078">
        <ele>164.87</ele>
        <time>2023-06-15T16:10:30.518Z</time>
      </trkpt>
      <trkpt lat="46.57282" lon="-0.02068">
        <ele>164.83</ele>
        <time>2023-06-15T16:11:22.103Z</time>
      </trkpt>
      <trkpt lat="46.57285" lon="-0.02063">
        <ele>164.82</ele>
        <time>2023-06-15T16:12:13.689Z</time>
      </trkpt>
      <trkpt lat="46.57272" lon="-0.02048">
        <ele>164.8</ele>
        <time>2023-06-15T16:13:05.278Z</time>
      </trkpt>
      <trkpt lat="46.57255" lon="-0.0203">
        <ele>164.7</ele>
        <time>2023-06-15T16:13:56.870Z</time>
      </trkpt>
      <trkpt lat="46.57245" lon="-0.02018">
        <ele>164.66</ele>
        <time>2023-06-15T16:14:48.464Z</time>
      </trkpt>
      <trkpt lat="46.57238" lon="-0.0201">
        <ele>164.58</ele>
        <time>2023-06-15T16:15:40.060Z</time>
      </trkpt>
      <trkpt lat="46.57227" lon="-0.01999">
        <ele>164.41</ele>
        <time>2023-06-15T16:16:31.658Z</time>
      </trkpt>
      <trkpt lat="46.5722" lon="-0.01991">
        <ele>164.26</ele>
        <time>2023-06-15T16:17:23.257Z</time>
      </trkpt>
      <trkpt lat="46.57209" lon="-0.0198">
        <ele>164.06</ele>
        <time>2023-06-15T16:18:14.858Z</time>
      </trkpt>
      <trkpt lat="46.57195" lon="-0.01965">
        <ele>163.88</ele>
        <time>2023-06-15T16:19:06.462Z</time>
      </trkpt>
      <trkpt lat="46.57177" lon="-0.01947">
        <ele>163.7</ele>
        <time>2023-06-15T16:19:58.070Z</time>
      </trkpt>
      <trkpt lat="46.57155" lon="-0.01925">
        <ele>163.37</ele>
        <time>2023-06-15T16:20:49.682Z</time>
      </trkpt>
      <trkpt lat="46.57147" lon="-0.01916">
        <ele>163.28</ele>
        <time>2023-06-15T16:21:41.295Z</time>
      </trkpt>
      <trkpt lat="46.57141" lon="-0.0191">
        <ele>163.23</ele>
        <time>2023-06-15T16:22:32.910Z</time>
      </trkpt>
      <trkpt lat="46.57122" lon="-0.01893">
        <ele>163.17</ele>
        <time>2023-06-15T16:23:24.528Z</time>
      </trkpt>
      <trkpt lat="46.57118" lon="-0.01889">
        <ele>163.12</ele>
        <time>2023-06-15T16:24:16.147Z</time>
      </trkpt>
      <trkpt lat="46.57106" lon="-0.01883">
        <ele>163.01</ele>
        <time>2023-06-15T16:25:07.768Z</time>
      </trkpt>
      <trkpt lat="46.57098" lon="-0.01878">
        <ele>162.89</ele>
        <time>2023-06-15T16:25:59.390Z</time>
      </trkpt>
      <trkpt lat="46.57086" lon="-0.01871">
        <ele>162.68</ele>
        <time>2023-06-15T16:26:51.014Z</time>
      </trkpt>
      <trkpt lat="46.57082" lon="-0.01869">
        <ele>162.63</ele>
        <time>2023-06-15T16:27:42.639Z</time>
      </trkpt>
      <trkpt lat="46.57073" lon="-0.01864">
        <ele>162.57</ele>
        <time>2023-06-15T16:28:34.266Z</time>
      </trkpt>
      <trkpt lat="46.57073" lon="-0.01864">
        <ele>162.57</ele>
        <time>2023-06-15T16:29:25.893Z</time>
      </trkpt>
      <trkpt lat="46.57055" lon="-0.01836">
        <ele>162.6</ele>
        <time>2023-06-15T16:30:17.524Z</time>
      </trkpt>
      <trkpt lat="46.5704" lon="-0.01812">
        <ele>162.54</ele>
        <time>2023-06-15T16:31:09.158Z</time>
      </trkpt>
      <trkpt lat="46.57034" lon="-0.01803">
        <ele>162.56</ele>
        <time>2023-06-15T16:32:00.794Z</time>
      </trkpt>
      <trkpt lat="46.57017" lon="-0.01774">
        <ele>162.68</ele>
        <time>2023-06-15T16:32:52.434Z</time>
      </trkpt>
      <trkpt lat="46.57011" lon="-0.01765">
        <ele>162.66</ele>
        <time>2023-06-15T16:33:44.075Z</time>
      </trkpt>
      <trkpt lat="46.57002" lon="-0.01751">
        <ele>162.55</ele>
        <time>2023-06-15T16:34:35.719Z</time>
      </trkpt>
      <trkpt lat="46.56998" lon="-0.01745">
        <ele>162.56</ele>
        <time>2023-06-15T16:35:27.363Z</time>
      </trkpt>
      <trkpt lat="46.5698" lon="-0.01727">
        <ele>162.61</ele>
        <time>2023-06-15T16:36:19.011Z</time>
      </trkpt>
      <trkpt lat="46.56967" lon="-0.01714">
        <ele>162.58</ele>
        <time>2023-06-15T16:37:10.661Z</time>
      </trkpt>
      <trkpt lat="46.56952" lon="-0.01712">
        <ele>162.56</ele>
        <time>2023-06-15T16:38:02.314Z</time>
      </trkpt>
      <trkpt lat="46.56944" lon="-0.0171">
        <ele>162.58</ele>
        <time>2023-06-15T16:38:53.968Z</time>
      </trkpt>
      <trkpt lat="46.56937" lon="-0.01709">
        <ele>162.62</ele>
        <time>2023-06-15T16:39:45.623Z</time>
      </trkpt>
      <trkpt lat="46.56899" lon="-0.01718">
        <ele>162.91</ele>
        <time>2023-06-15T16:40:37.284Z</time>
      </trkpt>
      <trkpt lat="46.56886" lon="-0.01721">
        <ele>163.08</ele>
        <time>2023-06-15T16:41:28.948Z</time>
      </trkpt>
      <trkpt lat="46.56878" lon="-0.01724">
        <ele>163.25</ele>
        <time>2023-06-15T16:42:20.613Z</time>
      </trkpt>
      <trkpt lat="46.56865" lon="-0.01727">
        <ele>163.54</ele>
        <time>2023-06-15T16:43:12.280Z</time>
      </trkpt>
      <trkpt lat="46.56847" lon="-0.01731">
        <ele>163.98</ele>
        <time>2023-06-15T16:44:03.950Z</time>
      </trkpt>
      <trkpt lat="46.56839" lon="-0.01733">
        <ele>164.16</ele>
        <time>2023-06-15T16:44:55.621Z</time>
      </trkpt>
      <trkpt lat="46.56838" lon="-0.01733">
        <ele>164.16</ele>
        <time>2023-06-15T16:45:47.292Z</time>
      </trkpt>
      <trkpt lat="46.5683" lon="-0.01729">
        <ele>164.29</ele>
        <time>2023-06-15T16:46:38.965Z</time>
      </trkpt>
      <trkpt lat="46.56815" lon="-0.01723">
        <ele>164.44</ele>
        <time>2023-06-15T16:47:30.640Z</time>
      </trkpt>
      <trkpt lat="46.56813" lon="-0.01721">
        <ele>164.47</ele>
        <time>2023-06-15T16:48:22.316Z</time>
      </trkpt>
      <trkpt lat="46.56801" lon="-0.01711">
        <ele>164.51</ele>
        <time>2023-06-15T16:49:13.994Z</time>
      </trkpt>
      <trkpt lat="46.56771" lon="-0.01685">
        <ele>164.47</ele>
        <time>2023-06-15T16:50:05.677Z</time>
      </trkpt>
      <trkpt lat="46.56763" lon="-0.01679">
        <ele>164.41</ele>
        <time>2023-06-15T16:50:57.362Z</time>
      </trkpt>
      <trkpt lat="46.56751" lon="-0.01669">
        <ele>164.28</ele>
        <time>2023-06-15T16:51:49.049Z</time>
      </trkpt>
      <trkpt lat="46.56744" lon="-0.01662">
        <ele>164.25</ele>
        <time>2023-06-15T16:52:40.737Z</time>
      </trkpt>
      <trkpt lat="46.56725" lon="-0.01646">
        <ele>164.33</ele>
        <time>2023-06-15T16:53:32.429Z</time>
      </trkpt>
      <trkpt lat="46.56717" lon="-0.01639">
        <ele>164.39</ele>
        <time>2023-06-15T16:54:24.122Z</time>
      </trkpt>
      <trkpt lat="46.56705" lon="-0.0163">
        <ele>164.51</ele>
        <time>2023-06-15T16:55:15.818Z</time>
      </trkpt>
      <trkpt lat="46.56694" lon="-0.0162">
        <ele>164.56</ele>
        <time>2023-06-15T16:56:07.516Z</time>
      </trkpt>
      <trkpt lat="46.56679" lon="-0.01607">
        <ele>164.53</ele>
        <time>2023-06-15T16:56:59.217Z</time>
      </trkpt>
      <trkpt lat="46.56667" lon="-0.01597">
        <ele>164.65</ele>
        <time>2023-06-15T16:57:50.920Z</time>
      </trkpt>
      <trkpt lat="46.56658" lon="-0.01619">
        <ele>164.81</ele>
        <time>2023-06-15T16:58:42.626Z</time>
      </trkpt>
      <trkpt lat="46.56653" lon="-0.0163">
        <ele>164.91</ele>
        <time>2023-06-15T16:59:34.333Z</time>
      </trkpt>
      <trkpt lat="46.56649" lon="-0.0164">
        <ele>165.03</ele>
        <time>2023-06-15T17:00:26.041Z</time>
      </trkpt>
      <trkpt lat="46.5664" lon="-0.01656">
        <ele>165.26</ele>
        <time>2023-06-15T17:01:17.752Z</time>
      </trkpt>
      <trkpt lat="46.56632" lon="-0.01671">
        <ele>165.43</ele>
        <time>2023-06-15T17:02:09.465Z</time>
      </trkpt>
      <trkpt lat="46.56629" lon="-0.01676">
        <ele>165.37</ele>
        <time>2023-06-15T17:03:01.178Z</time>
      </trkpt>
      <trkpt lat="46.56626" lon="-0.01681">
        <ele>165.33</ele>
        <time>2023-06-15T17:03:52.892Z</time>
      </trkpt>
      <trkpt lat="46.56624" lon="-0.01686">
        <ele>165.33</ele>
        <time>2023-06-15T17:04:44.607Z</time>
      </trkpt>
      <trkpt lat="46.56621" lon="-0.01691">
        <ele>165.36</ele>
        <time>2023-06-15T17:05:36.323Z</time>
      </trkpt>
      <trkpt lat="46.56618" lon="-0.01697">
        <ele>165.42</ele>
        <time>2023-06-15T17:06:28.039Z</time>
      </trkpt>
      <trkpt lat="46.56612" lon="-0.01707">
        <ele>165.57</ele>
        <time>2023-06-15T17:07:19.757Z</time>
      </trkpt>
      <trkpt lat="46.56604" lon="-0.01722">
        <ele>165.83</ele>
        <time>2023-06-15T17:08:11.477Z</time>
      </trkpt>
      <trkpt lat="46.56594" lon="-0.01735">
        <ele>166.1</ele>
        <time>2023-06-15T17:09:03.199Z</time>
      </trkpt>
      <trkpt lat="46.56584" lon="-0.01748">
        <ele>166.29</ele>
        <time>2023-06-15T17:09:54.923Z</time>
      </trkpt>
      <trkpt lat="46.56578" lon="-0.01757">
        <ele>166.34</ele>
        <time>2023-06-15T17:10:46.649Z</time>
      </trkpt>
      <trkpt lat="46.56574" lon="-0.01762">
        <ele>166.34</ele>
        <time>2023-06-15T17:11:38.375Z</time>
      </trkpt>
      <trkpt lat="46.56548" lon="-0.01787">
        <ele>166.39</ele>
        <time>2023-06-15T17:12:30.106Z</time>
      </trkpt>
      <trkpt lat="46.56526" lon="-0.0181">
        <ele>166.66</ele>
        <time>2023-06-15T17:13:21.842Z</time>
      </trkpt>
      <trkpt lat="46.56525" lon="-0.01811">
        <ele>166.68</ele>
        <time>2023-06-15T17:14:13.578Z</time>
      </trkpt>
      <trkpt lat="46.56515" lon="-0.01819">
        <ele>166.88</ele>
        <time>2023-06-15T17:15:05.316Z</time>
      </trkpt>
      <trkpt lat="46.56503" lon="-0.01828">
        <ele>167.04</ele>
        <time>2023-06-15T17:15:57.056Z</time>
      </trkpt>
      <trkpt lat="46.56495" lon="-0.01834">
        <ele>167.17</ele>
        <time>2023-06-15T17:16:48.797Z</time>
      </trkpt>
      <trkpt lat="46.56491" lon="-0.01837">
        <ele>167.21</ele>
        <time>2023-06-15T17:17:40.539Z</time>
      </trkpt>
      <trkpt lat="46.56463" lon="-0.01858">
        <ele>167.28</ele>
        <time>2023-06-15T17:18:32.286Z</time>
      </trkpt>
      <trkpt lat="46.56455" lon="-0.01864">
        <ele>167.27</ele>
        <time>2023-06-15T17:19:24.035Z</time>
      </trkpt>
      <trkpt lat="46.56435" lon="-0.01879">
        <ele>167.15</ele>
        <time>2023-06-15T17:20:15.787Z</time>
      </trkpt>
      <trkpt lat="46.56432" lon="-0.01881">
        <ele>167.13</ele>
        <time>2023-06-15T17:21:07.540Z</time>
      </trkpt>
      <trkpt lat="46.56419" lon="-0.01889">
        <ele>167.09</ele>
        <time>2023-06-15T17:21:59.295Z</time>
      </trkpt>
      <trkpt lat="46.56414" lon="-0.01892">
        <ele>167.04</ele>
        <time>2023-06-15T17:22:51.051Z</time>
      </trkpt>
      <trkpt lat="46.56406" lon="-0.01896">
        <ele>166.9</ele>
        <time>2023-06-15T17:23:42.808Z</time>
      </trkpt>
      <trkpt lat="46.56394" lon="-0.01904">
        <ele>166.8</ele>
        <time>2023-06-15T17:24:34.567Z</time>
      </trkpt>
      <trkpt lat="46.5639" lon="-0.01906">
        <ele>166.75</ele>
        <time>2023-06-15T17:25:26.327Z</time>
      </trkpt>
      <trkpt lat="46.56377" lon="-0.01914">
        <ele>166.52</ele>
        <time>2023-06-15T17:26:18.089Z</time>
      </trkpt>
      <trkpt lat="46.56365" lon="-0.01921">
        <ele>166.33</ele>
        <time>2023-06-15T17:27:09.853Z</time>
      </trkpt>
      <trkpt lat="46.5636" lon="-0.01924">
        <ele>166.3</ele>
        <time>2023-06-15T17:28:01.618Z</time>
      </trkpt>
      <trkpt lat="46.5636" lon="-0.01924">
        <ele>166.3</ele>
        <time>2023-06-15T17:28:53.383Z</time>
      </trkpt>
      <trkpt lat="46.56348" lon="-0.01932">
        <ele>166.27</ele>
        <time>2023-06-15T17:29:45.150Z</time>
      </trkpt>
      <trkpt lat="46.56332" lon="-0.01943">
        <ele>166.13</ele>
        <time>2023-06-15T17:30:36.920Z</time>
      </trkpt>
      <trkpt lat="46.56312" lon="-0.01957">
        <ele>166.03</ele>
        <time>2023-06-15T17:31:28.694Z</time>
      </trkpt>
      <trkpt lat="46.56304" lon="-0.01962">
        <ele>166.04</ele>
        <time>2023-06-15T17:32:20.469Z</time>
      </trkpt>
      <trkpt lat="46.56298" lon="-0.01966">
        <ele>166.06</ele>
        <time>2023-06-15T17:33:12.245Z</time>
      </trkpt>
      <trkpt lat="46.56291" lon="-0.0197">
        <ele>166.09</ele>
        <time>2023-06-15T17:34:04.022Z</time>
      </trkpt>
      <trkpt lat="46.56279" lon="-0.01978">
        <ele>166.18</ele>
        <time>2023-06-15T17:34:55.801Z</time>
      </trkpt>
      <trkpt lat="46.56275" lon="-0.01981">
        <ele>166.19</ele>
        <time>2023-06-15T17:35:47.581Z</time>
      </trkpt>
      <trkpt lat="46.56234" lon="-0.02007">
        <ele>166.06</ele>
        <time>2023-06-15T17:36:39.368Z</time>
      </trkpt>
      <trkpt lat="46.5623" lon="-0.0201">
        <ele>166.07</ele>
        <time>2023-06-15T17:37:31.156Z</time>
      </trkpt>
      <trkpt lat="46.56214" lon="-0.0202">
        <ele>166.19</ele>
        <time>2023-06-15T17:38:22.947Z</time>
      </trkpt>
      <trkpt lat="46.56205" lon="-0.02025">
        <ele>166.18</ele>
        <time>2023-06-15T17:39:14.739Z</time>
      </trkpt>
      <trkpt lat="46.56189" lon="-0.02036">
        <ele>166.08</ele>
        <time>2023-06-15T17:40:06.534Z</time>
      </trkpt>
      <trkpt lat="46.56185" lon="-0.02039">
        <ele>166.08</ele>
        <time>2023-06-15T17:40:58.330Z</time>
      </trkpt>
      <trkpt lat="46.56181" lon="-0.02041">
        <ele>166.11</ele>
        <time>2023-06-15T17:41:50.127Z</time>
      </trkpt>
      <trkpt lat="46.56156" lon="-0.02057">
        <ele>166.4</ele>
        <time>2023-06-15T17:42:41.928Z</time>
      </trkpt>
      <trkpt lat="46.56136" lon="-0.0207">
        <ele>166.46</ele>
        <time>2023-06-15T17:43:33.732Z</time>
      </trkpt>
      <trkpt lat="46.56115" lon="-0.02083">
        <ele>166.58</ele>
        <time>2023-06-15T17:44:25.540Z</time>
      </trkpt>
      <trkpt lat="46.56111" lon="-0.02086">
        <ele>166.62</ele>
        <time>2023-06-15T17:45:17.349Z</time>
      </trkpt>
      <trkpt lat="46.56105" lon="-0.0209">
        <ele>166.71</ele>
        <time>2023-06-15T17:46:09.159Z</time>
      </trkpt>
      <trkpt lat="46.56099" lon="-0.02095">
        <ele>166.82</ele>
        <time>2023-06-15T17:47:00.970Z</time>
      </trkpt>
      <trkpt lat="46.56096" lon="-0.02099">
        <ele>166.87</ele>
        <time>2023-06-15T17:47:52.782Z</time>
      </trkpt>
      <trkpt lat="46.56084" lon="-0.02109">
        <ele>166.96</ele>
        <time>2023-06-15T17:48:44.596Z</time>
      </trkpt>
      <trkpt lat="46.56077" lon="-0.02116">
        <ele>167.06</ele>
        <time>2023-06-15T17:49:36.411Z</time>
      </trkpt>
      <trkpt lat="46.56069" lon="-0.02123">
        <ele>167.13</ele>
        <time>2023-06-15T17:50:28.228Z</time>
      </trkpt>
      <trkpt lat="46.56062" lon="-0.0213">
        <ele>167.15</ele>
        <time>2023-06-15T17:51:20.046Z</time>
      </trkpt>
      <trkpt lat="46.5605" lon="-0.02141">
        <ele>167.1</ele>
        <time>2023-06-15T17:52:11.866Z</time>
      </trkpt>
      <trkpt lat="46.56046" lon="-0.02144">
        <ele>167.1</ele>
        <time>2023-06-15T17:53:03.687Z</time>
      </trkpt>
      <trkpt lat="46.56041" lon="-0.02149">
        <ele>167.15</ele>
        <time>2023-06-15T17:53:55.509Z</time>
      </trkpt>
      <trkpt lat="46.56021" lon="-0.0217">
        <ele>167.37</ele>
        <time>2023-06-15T17:54:47.335Z</time>
      </trkpt>
      <trkpt lat="46.55999" lon="-0.02193">
        <ele>167.54</ele>
        <time>2023-06-15T17:55:39.165Z</time>
      </trkpt>
      <trkpt lat="46.55985" lon="-0.02209">
        <ele>167.69</ele>
        <time>2023-06-15T17:56:30.998Z</time>
      </trkpt>
      <trkpt lat="46.55973" lon="-0.02221">
        <ele>167.74</ele>
        <time>2023-06-15T17:57:22.833Z</time>
      </trkpt>
      <trkpt lat="46.5597" lon="-0.02224">
        <ele>167.76</ele>
        <time>2023-06-15T17:58:14.669Z</time>
      </trkpt>
      <trkpt lat="46.55947" lon="-0.02244">
        <ele>168.01</ele>
        <time>2023-06-15T17:59:06.509Z</time>
      </trkpt>
      <trkpt lat="46.55943" lon="-0.02247">
        <ele>168.06</ele>
        <time>2023-06-15T17:59:58.350Z</time>
      </trkpt>
      <trkpt lat="46.55928" lon="-0.0226">
        <ele>168.32</ele>
        <time>2023-06-15T18:00:50.194Z</time>
      </trkpt>
      <trkpt lat="46.55912" lon="-0.02274">
        <ele>168.49</ele>
        <time>2023-06-15T18:01:42.041Z</time>
      </trkpt>
      <trkpt lat="46.55901" lon="-0.02284">
        <ele>168.7</ele>
        <time>2023-06-15T18:02:33.890Z</time>
      </trkpt>
      <trkpt lat="46.55893" lon="-0.0229">
        <ele>168.91</ele>
        <time>2023-06-15T18:03:25.740Z</time>
      </trkpt>
      <trkpt lat="46.55874" lon="-0.02307">
        <ele>169.32</ele>
        <time>2023-06-15T18:04:17.594Z</time>
      </trkpt>
      <trkpt lat="46.55866" lon="-0.02313">
        <ele>169.51</ele>
        <time>2023-06-15T18:05:09.449Z</time>
      </trkpt>
      <trkpt lat="46.55855" lon="-0.02323">
        <ele>169.86</ele>
        <time>2023-06-15T18:06:01.306Z</time>
      </trkpt>
      <trkpt lat="46.5585" lon="-0.02341">
        <ele>170.22</ele>
        <time>2023-06-15T18:06:53.166Z</time>
      </trkpt>
      <trkpt lat="46.55849" lon="-0.02346">
        <ele>170.33</ele>
        <time>2023-06-15T18:07:45.026Z</time>
      </trkpt>
      <trkpt lat="46.55846" lon="-0.02352">
        <ele>170.49</ele>
        <time>2023-06-15T18:08:36.887Z</time>
      </trkpt>
      <trkpt lat="46.55832" lon="-0.02385">
        <ele>171.41</ele>
        <time>2023-06-15T18:09:28.752Z</time>
      </trkpt>
      <trkpt lat="46.55825" lon="-0.02401">
        <ele>171.84</ele>
        <time>2023-06-15T18:10:20.619Z</time>
      </trkpt>
      <trkpt lat="46.55813" lon="-0.02429">
        <ele>172.62</ele>
        <time>2023-06-15T18:11:12.490Z</time>
      </trkpt>
      <trkpt lat="46.55808" lon="-0.02439">
        <ele>172.89</ele>
        <time>2023-06-15T18:12:04.362Z</time>
      </trkpt>
      <trkpt lat="46.55801" lon="-0.02456">
        <ele>173.26</ele>
        <time>2023-06-15T18:12:56.237Z</time>
      </trkpt>
      <trkpt lat="46.558" lon="-0.02459">
        <ele>173.32</ele>
        <time>2023-06-15T18:13:48.112Z</time>
      </trkpt>
      <trkpt lat="46.55795" lon="-0.02473">
        <ele>173.6</ele>
        <time>2023-06-15T18:14:39.989Z</time>
      </trkpt>
      <trkpt lat="46.55788" lon="-0.02491">
        <ele>173.56</ele>
        <time>2023-06-15T18:15:31.868Z</time>
      </trkpt>
      <trkpt lat="46.5578" lon="-0.0252">
        <ele>173.52</ele>
        <time>2023-06-15T18:16:23.750Z</time>
      </trkpt>
      <trkpt lat="46.55777" lon="-0.02531">
        <ele>173.58</ele>
        <time>2023-06-15T18:17:15.634Z</time>
      </trkpt>
      <trkpt lat="46.55777" lon="-0.02532">
        <ele>173.58</ele>
        <time>2023-06-15T18:18:07.518Z</time>
      </trkpt>
      <trkpt lat="46.55773" lon="-0.02544">
        <ele>173.68</ele>
        <time>2023-06-15T18:18:59.403Z</time>
      </trkpt>
      <trkpt lat="46.55768" lon="-0.02555">
        <ele>173.8</ele>
        <time>2023-06-15T18:19:51.290Z</time>
      </trkpt>
      <trkpt lat="46.5576" lon="-0.02579">
        <ele>174.14</ele>
        <time>2023-06-15T18:20:43.180Z</time>
      </trkpt>
      <trkpt lat="46.55755" lon="-0.02594">
        <ele>174.31</ele>
        <time>2023-06-15T18:21:35.072Z</time>
      </trkpt>
      <trkpt lat="46.55752" lon="-0.02601">
        <ele>174.41</ele>
        <time>2023-06-15T18:22:26.964Z</time>
      </trkpt>
      <trkpt lat="46.55742" lon="-0.02623">
        <ele>174.77</ele>
        <time>2023-06-15T18:23:18.859Z</time>
      </trkpt>
      <trkpt lat="46.55737" lon="-0.02634">
        <ele>174.92</ele>
        <time>2023-06-15T18:24:10.756Z</time>
      </trkpt>
      <trkpt lat="46.55722" lon="-0.02667">
        <ele>175.22</ele>
        <time>2023-06-15T18:25:02.657Z</time>
      </trkpt>
      <trkpt lat="46.55717" lon="-0.02678">
        <ele>175.34</ele>
        <time>2023-06-15T18:25:54.560Z</time>
      </trkpt>
      <trkpt lat="46.55714" lon="-0.02683">
        <ele>175.43</ele>
        <time>2023-06-15T18:26:46.463Z</time>
      </trkpt>
      <trkpt lat="46.55707" lon="-0.02699">
        <ele>175.77</ele>
        <time>2023-06-15T18:27:38.368Z</time>
      </trkpt>
      <trkpt lat="46.557" lon="-0.02714">
        <ele>176</ele>
        <time>2023-06-15T18:28:30.275Z</time>
      </trkpt>
      <trkpt lat="46.55697" lon="-0.02722">
        <ele>176.12</ele>
        <time>2023-06-15T18:29:22.183Z</time>
      </trkpt>
      <trkpt lat="46.55695" lon="-0.02727">
        <ele>176.23</ele>
        <time>2023-06-15T18:30:14.092Z</time>
      </trkpt>
      <trkpt lat="46.55694" lon="-0.02733">
        <ele>176.38</ele>
        <time>2023-06-15T18:31:06.002Z</time>
      </trkpt>
      <trkpt lat="46.55689" lon="-0.02747">
        <ele>176.77</ele>
        <time>2023-06-15T18:31:57.913Z</time>
      </trkpt>
      <trkpt lat="46.55681" lon="-0.02776">
        <ele>177.58</ele>
        <time>2023-06-15T18:32:49.828Z</time>
      </trkpt>
      <trkpt lat="46.55678" lon="-0.02788">
        <ele>177.89</ele>
        <time>2023-06-15T18:33:41.744Z</time>
      </trkpt>
      <trkpt lat="46.55676" lon="-0.02794">
        <ele>178.02</ele>
        <time>2023-06-15T18:34:33.661Z</time>
      </trkpt>
      <trkpt lat="46.55672" lon="-0.02812">
        <ele>178.37</ele>
        <time>2023-06-15T18:35:25.580Z</time>
      </trkpt>
      <trkpt lat="46.55668" lon="-0.02824">
        <ele>178.57</ele>
        <time>2023-06-15T18:36:17.501Z</time>
      </trkpt>
      <trkpt lat="46.55662" lon="-0.02848">
        <ele>178.88</ele>
        <time>2023-06-15T18:37:09.424Z</time>
      </trkpt>
      <trkpt lat="46.5566" lon="-0.02861">
        <ele>179.05</ele>
        <time>2023-06-15T18:38:01.349Z</time>
      </trkpt>
      <trkpt lat="46.55658" lon="-0.02874">
        <ele>179.23</ele>
        <time>2023-06-15T18:38:53.275Z</time>
      </trkpt>
      <trkpt lat="46.55655" lon="-0.02887">
        <ele>179.49</ele>
        <time>2023-06-15T18:39:45.203Z</time>
      </trkpt>
      <trkpt lat="46.55653" lon="-0.02899">
        <ele>179.8</ele>
        <time>2023-06-15T18:40:37.132Z</time>
      </trkpt>
      <trkpt lat="46.5565" lon="-0.02918">
        <ele>180.32</ele>
        <time>2023-06-15T18:41:29.063Z</time>
      </trkpt>
      <trkpt lat="46.55649" lon="-0.02925">
        <ele>180.51</ele>
        <time>2023-06-15T18:42:20.995Z</time>
      </trkpt>
      <trkpt lat="46.55647" lon="-0.02937">
        <ele>180.96</ele>
        <time>2023-06-15T18:43:12.929Z</time>
      </trkpt>
      <trkpt lat="46.55646" lon="-0.02941">
        <ele>181.1</ele>
        <time>2023-06-15T18:44:04.863Z</time>
      </trkpt>
      <trkpt lat="46.55645" lon="-0.02953">
        <ele>181.57</ele>
        <time>2023-06-15T18:44:56.798Z</time>
      </trkpt>
      <trkpt lat="46.55646" lon="-0.02957">
        <ele>181.73</ele>
        <time>2023-06-15T18:45:48.734Z</time>
      </trkpt>
      <trkpt lat="46.55646" lon="-0.02963">
        <ele>182.01</ele>
        <time>2023-06-15T18:46:40.670Z</time>
      </trkpt>
      <trkpt lat="46.55649" lon="-0.02982">
        <ele>182.91</ele>
        <time>2023-06-15T18:47:32.609Z</time>
      </trkpt>
      <trkpt lat="46.55651" lon="-0.02995">
        <ele>183.09</ele>
        <time>2023-06-15T18:48:24.549Z</time>
      </trkpt>
      <trkpt lat="46.55653" lon="-0.03008">
        <ele>183.31</ele>
        <time>2023-06-15T18:49:16.491Z</time>
      </trkpt>
      <trkpt lat="46.55655" lon="-0.03027">
        <ele>183.68</ele>
        <time>2023-06-15T18:50:08.435Z</time>
      </trkpt>
      <trkpt lat="46.55657" lon="-0.0304">
        <ele>183.95</ele>
        <time>2023-06-15T18:51:00.380Z</time>
      </trkpt>
      <trkpt lat="46.55658" lon="-0.03045">
        <ele>184.07</ele>
        <time>2023-06-15T18:51:52.326Z</time>
      </trkpt>
      <trkpt lat="46.55644" lon="-0.03048">
        <ele>184.55</ele>
        <time>2023-06-15T18:52:44.274Z</time>
      </trkpt>
      <trkpt lat="46.556" lon="-0.03056">
        <ele>186.1</ele>
        <time>2023-06-15T18:53:36.229Z</time>
      </trkpt>
      <trkpt lat="46.55578" lon="-0.0306">
        <ele>186.9</ele>
        <time>2023-06-15T18:54:28.188Z</time>
      </trkpt>
      <trkpt lat="46.55569" lon="-0.03062">
        <ele>187.18</ele>
        <time>2023-06-15T18:55:20.148Z</time>
      </trkpt>
      <trkpt lat="46.55561" lon="-0.03063">
        <ele>187.44</ele>
        <time>2023-06-15T18:56:12.109Z</time>
      </trkpt>
      <trkpt lat="46.5556" lon="-0.03063">
        <ele>187.44</ele>
        <time>2023-06-15T18:57:04.071Z</time>
      </trkpt>
      <trkpt lat="46.55547" lon="-0.03069">
        <ele>187.79</ele>
        <time>2023-06-15T18:57:56.035Z</time>
      </trkpt>
      <trkpt lat="46.55546" lon="-0.03069">
        <ele>187.82</ele>
        <time>2023-06-15T18:58:47.999Z</time>
      </trkpt>
      <trkpt lat="46.55531" lon="-0.03077">
        <ele>188.21</ele>
        <time>2023-06-15T18:59:39.966Z</time>
      </trkpt>
      <trkpt lat="46.55522" lon="-0.03082">
        <ele>188.37</ele>
        <time>2023-06-15T19:00:31.934Z</time>
      </trkpt>
      <trkpt lat="46.5551" lon="-0.03089">
        <ele>188.56</ele>
        <time>2023-06-15T19:01:23.904Z</time>
      </trkpt>
      <trkpt lat="46.55497" lon="-0.03096">
        <ele>188.69</ele>
        <time>2023-06-15T19:02:15.876Z</time>
      </trkpt>
      <trkpt lat="46.55489" lon="-0.031">
        <ele>188.75</ele>
        <time>2023-06-15T19:03:07.850Z</time>
      </trkpt>
      <trkpt lat="46.5548" lon="-0.03105">
        <ele>188.76</ele>
        <time>2023-06-15T19:03:59.825Z</time>
      </trkpt>
      <trkpt lat="46.55464" lon="-0.03114">
        <ele>188.68</ele>
        <time>2023-06-15T19:04:51.803Z</time>
      </trkpt>
      <trkpt lat="46.55456" lon="-0.03118">
        <ele>188.6</ele>
        <time>2023-06-15T19:05:43.782Z</time>
      </trkpt>
      <trkpt lat="46.55455" lon="-0.03118">
        <ele>188.6</ele>
        <time>2023-06-15T19:06:35.761Z</time>
      </trkpt>
      <trkpt lat="46.55442" lon="-0.03121">
        <ele>188.41</ele>
        <time>2023-06-15T19:07:27.742Z</time>
      </trkpt>
      <trkpt lat="46.55425" lon="-0.03125">
        <ele>188.01</ele>
        <time>2023-06-15T19:08:19.726Z</time>
      </trkpt>
      <trkpt lat="46.5542" lon="-0.03124">
        <ele>187.9</ele>
        <time>2023-06-15T19:09:11.711Z</time>
      </trkpt>
      <trkpt lat="46.55411" lon="-0.03123">
        <ele>187.68</ele>
        <time>2023-06-15T19:10:03.697Z</time>
      </trkpt>
      <trkpt lat="46.55398" lon="-0.03121">
        <ele>187.26</ele>
        <time>2023-06-15T19:10:55.686Z</time>
      </trkpt>
      <trkpt lat="46.55389" lon="-0.0312">
        <ele>187</ele>
        <time>2023-06-15T19:11:47.676Z</time>
      </trkpt>
      <trkpt lat="46.5538" lon="-0.0312">
        <ele>186.71</ele>
        <time>2023-06-15T19:12:39.667Z</time>
      </trkpt>
      <trkpt lat="46.55363" lon="-0.03119">
        <ele>186.08</ele>
        <time>2023-06-15T19:13:31.661Z</time>
      </trkpt>
      <trkpt lat="46.55354" lon="-0.03118">
        <ele>185.8</ele>
        <time>2023-06-15T19:14:23.657Z</time>
      </trkpt>
      <trkpt lat="46.55345" lon="-0.03118">
        <ele>185.56</ele>
        <time>2023-06-15T19:15:15.654Z</time>
      </trkpt>
      <trkpt lat="46.55336" lon="-0.03117">
        <ele>185.36</ele>
        <time>2023-06-15T19:16:07.653Z</time>
      </trkpt>
      <trkpt lat="46.55332" lon="-0.03117">
        <ele>185.28</ele>
        <time>2023-06-15T19:16:59.652Z</time>
      </trkpt>
      <trkpt lat="46.55318" lon="-0.03117">
        <ele>185.06</ele>
        <time>2023-06-15T19:17:51.653Z</time>
      </trkpt>
      <trkpt lat="46.55314" lon="-0.03117">
        <ele>185.01</ele>
        <time>2023-06-15T19:18:43.655Z</time>
      </trkpt>
      <trkpt lat="46.55314" lon="-0.03117">
        <ele>185.01</ele>
        <time>2023-06-15T19:19:35.657Z</time>
      </trkpt>
      <trkpt lat="46.55305" lon="-0.03118">
        <ele>184.95</ele>
        <time>2023-06-15T19:20:27.660Z</time>
      </trkpt>
      <trkpt lat="46.55292" lon="-0.0312">
        <ele>184.9</ele>
        <time>2023-06-15T19:21:19.666Z</time>
      </trkpt>
      <trkpt lat="46.55266" lon="-0.03124">
        <ele>184.9</ele>
        <time>2023-06-15T19:22:11.676Z</time>
      </trkpt>
      <trkpt lat="46.55252" lon="-0.03126">
        <ele>184.86</ele>
        <time>2023-06-15T19:23:03.688Z</time>
      </trkpt>
      <trkpt lat="46.55247" lon="-0.03127">
        <ele>184.79</ele>
        <time>2023-06-15T19:23:55.701Z</time>
      </trkpt>
      <trkpt lat="46.55228" lon="-0.03125">
        <ele>184.58</ele>
        <time>2023-06-15T19:24:47.717Z</time>
      </trkpt>
      <trkpt lat="46.55226" lon="-0.03125">
        <ele>184.56</ele>
        <time>2023-06-15T19:25:39.733Z</time>
      </trkpt>
      <trkpt lat="46.55208" lon="-0.03121">
        <ele>184.39</ele>
        <time>2023-06-15T19:26:31.752Z</time>
      </trkpt>
      <trkpt lat="46.55195" lon="-0.03116">
        <ele>184.26</ele>
        <time>2023-06-15T19:27:23.773Z</time>
      </trkpt>
      <trkpt lat="46.55186" lon="-0.03113">
        <ele>184.15</ele>
        <time>2023-06-15T19:28:15.796Z</time>
      </trkpt>
      <trkpt lat="46.55177" lon="-0.03109">
        <ele>184.01</ele>
        <time>2023-06-15T19:29:07.820Z</time>
      </trkpt>
      <trkpt lat="46.55173" lon="-0.03108">
        <ele>183.92</ele>
        <time>2023-06-15T19:29:59.845Z</time>
      </trkpt>
      <trkpt lat="46.55164" lon="-0.03104">
        <ele>183.71</ele>
        <time>2023-06-15T19:30:51.871Z</time>
      </trkpt>
      <trkpt lat="46.55151" lon="-0.031">
        <ele>183.33</ele>
        <time>2023-06-15T19:31:43.900Z</time>
      </trkpt>
      <trkpt lat="46.55138" lon="-0.03095">
        <ele>182.92</ele>
        <time>2023-06-15T19:32:35.931Z</time>
      </trkpt>
      <trkpt lat="46.5513" lon="-0.03091">
        <ele>182.61</ele>
        <time>2023-06-15T19:33:27.963Z</time>
      </trkpt>
      <trkpt lat="46.55112" lon="-0.03085">
        <ele>181.96</ele>
        <time>2023-06-15T19:34:19.998Z</time>
      </trkpt>
      <trkpt lat="46.55091" lon="-0.03076">
        <ele>181.19</ele>
        <time>2023-06-15T19:35:12.037Z</time>
      </trkpt>
      <trkpt lat="46.55078" lon="-0.03071">
        <ele>180.67</ele>
        <time>2023-06-15T19:36:04.078Z</time>
      </trkpt>
      <trkpt lat="46.55071" lon="-0.03069">
        <ele>180.38</ele>
        <time>2023-06-15T19:36:56.120Z</time>
      </trkpt>
      <trkpt lat="46.55054" lon="-0.03068">
        <ele>179.66</ele>
        <time>2023-06-15T19:37:48.165Z</time>
      </trkpt>
      <trkpt lat="46.55051" lon="-0.03068">
        <ele>179.54</ele>
        <time>2023-06-15T19:38:40.210Z</time>
      </trkpt>
      <trkpt lat="46.55042" lon="-0.0307">
        <ele>179.21</ele>
        <time>2023-06-15T19:39:32.256Z</time>
      </trkpt>
      <trkpt lat="46.55033" lon="-0.03071">
        <ele>178.93</ele>
        <time>2023-06-15T19:40:24.304Z</time>
      </trkpt>
      <trkpt lat="46.55029" lon="-0.03072">
        <ele>178.81</ele>
        <time>2023-06-15T19:41:16.353Z</time>
      </trkpt>
      <trkpt lat="46.5502" lon="-0.03073">
        <ele>178.62</ele>
        <time>2023-06-15T19:42:08.403Z</time>
      </trkpt>
      <trkpt lat="46.55015" lon="-0.03074">
        <ele>178.55</ele>
        <time>2023-06-15T19:43:00.454Z</time>
      </trkpt>
      <trkpt lat="46.55006" lon="-0.03075">
        <ele>178.45</ele>
        <time>2023-06-15T19:43:52.506Z</time>
      </trkpt>
      <trkpt lat="46.54979" lon="-0.03079">
        <ele>178.26</ele>
        <time>2023-06-15T19:44:44.563Z</time>
      </trkpt>
      <trkpt lat="46.54976" lon="-0.0308">
        <ele>178.22</ele>
        <time>2023-06-15T19:45:36.620Z</time>
      </trkpt>
      <trkpt lat="46.54961" lon="-0.03079">
        <ele>178.07</ele>
        <time>2023-06-15T19:46:28.679Z</time>
      </trkpt>
      <trkpt lat="46.54953" lon="-0.03078">
        <ele>177.99</ele>
        <time>2023-06-15T19:47:20.740Z</time>
      </trkpt>
      <trkpt lat="46.54943" lon="-0.03076">
        <ele>177.94</ele>
        <time>2023-06-15T19:48:12.802Z</time>
      </trkpt>
      <trkpt lat="46.54943" lon="-0.03076">
        <ele>177.94</ele>
        <time>2023-06-15T19:49:04.864Z</time>
      </trkpt>
      <trkpt lat="46.54935" lon="-0.03072">
        <ele>177.92</ele>
        <time>2023-06-15T19:49:56.928Z</time>
      </trkpt>
      <trkpt lat="46.54927" lon="-0.03068">
        <ele>177.96</ele>
        <time>2023-06-15T19:50:48.993Z</time>
      </trkpt>
      <trkpt lat="46.54918" lon="-0.03064">
        <ele>178.06</ele>
        <time>2023-06-15T19:51:41.060Z</time>
      </trkpt>
      <trkpt lat="46.54909" lon="-0.0306">
        <ele>178.21</ele>
        <time>2023-06-15T19:52:33.128Z</time>
      </trkpt>
      <trkpt lat="46.54909" lon="-0.0306">
        <ele>178.21</ele>
        <time>2023-06-15T19:53:25.196Z</time>
      </trkpt>
      <trkpt lat="46.54888" lon="-0.03053">
        <ele>178.64</ele>
        <time>2023-06-15T19:54:17.268Z</time>
      </trkpt>
      <trkpt lat="46.54879" lon="-0.0305">
        <ele>178.75</ele>
        <time>2023-06-15T19:55:09.341Z</time>
      </trkpt>
      <trkpt lat="46.54866" lon="-0.03046">
        <ele>178.84</ele>
        <time>2023-06-15T19:56:01.416Z</time>
      </trkpt>
      <trkpt lat="46.54848" lon="-0.0304">
        <ele>178.86</ele>
        <time>2023-06-15T19:56:53.494Z</time>
      </trkpt>
      <trkpt lat="46.54809" lon="-0.03027">
        <ele>178.69</ele>
        <time>2023-06-15T19:57:45.579Z</time>
      </trkpt>
      <trkpt lat="46.54796" lon="-0.03023">
        <ele>178.6</ele>
        <time>2023-06-15T19:58:37.666Z</time>
      </trkpt>
      <trkpt lat="46.54787" lon="-0.0302">
        <ele>178.5</ele>
        <time>2023-06-15T19:59:29.754Z</time>
      </trkpt>
      <trkpt lat="46.54761" lon="-0.03011">
        <ele>177.99</ele>
        <time>2023-06-15T20:00:21.846Z</time>
      </trkpt>
      <trkpt lat="46.54755" lon="-0.03009">
        <ele>177.89</ele>
        <time>2023-06-15T20:01:13.939Z</time>
      </trkpt>
      <trkpt lat="46.54752" lon="-0.03008">
        <ele>177.85</ele>
        <time>2023-06-15T20:02:06.033Z</time>
      </trkpt>
      <trkpt lat="46.54739" lon="-0.03003">
        <ele>177.73</ele>
        <time>2023-06-15T20:02:58.129Z</time>
      </trkpt>
      <trkpt lat="46.54735" lon="-0.03001">
        <ele>177.71</ele>
        <time>2023-06-15T20:03:50.226Z</time>
      </trkpt>
      <trkpt lat="46.54726" lon="-0.02998">
        <ele>177.71</ele>
        <time>2023-06-15T20:04:42.324Z</time>
      </trkpt>
      <trkpt lat="46.54717" lon="-0.02995">
        <ele>177.75</ele>
        <time>2023-06-15T20:05:34.424Z</time>
      </trkpt>
      <trkpt lat="46.54709" lon="-0.02992">
        <ele>177.86</ele>
        <time>2023-06-15T20:06:26.525Z</time>
      </trkpt>
      <trkpt lat="46.547" lon="-0.02989">
        <ele>178.03</ele>
        <time>2023-06-15T20:07:18.627Z</time>
      </trkpt>
      <trkpt lat="46.54678" lon="-0.0298">
        <ele>178.51</ele>
        <time>2023-06-15T20:08:10.733Z</time>
      </trkpt>
      <trkpt lat="46.5467" lon="-0.02977">
        <ele>178.68</ele>
        <time>2023-06-15T20:09:02.841Z</time>
      </trkpt>
      <trkpt lat="46.54648" lon="-0.02969">
        <ele>179.04</ele>
        <time>2023-06-15T20:09:54.952Z</time>
      </trkpt>
      <trkpt lat="46.54622" lon="-0.02959">
        <ele>179.41</ele>
        <time>2023-06-15T20:10:47.067Z</time>
      </trkpt>
      <trkpt lat="46.54618" lon="-0.02958">
        <ele>179.49</ele>
        <time>2023-06-15T20:11:39.183Z</time>
      </trkpt>
      <trkpt lat="46.54613" lon="-0.02956">
        <ele>179.6</ele>
        <time>2023-06-15T20:12:31.300Z</time>
      </trkpt>
      <trkpt lat="46.54592" lon="-0.02947">
        <ele>180.18</ele>
        <time>2023-06-15T20:13:23.420Z</time>
      </trkpt>
      <trkpt lat="46.54583" lon="-0.02943">
        <ele>180.35</ele>
        <time>2023-06-15T20:14:15.542Z</time>
      </trkpt>
      <trkpt lat="46.54561" lon="-0.02934">
        <ele>180.61</ele>
        <time>2023-06-15T20:15:07.667Z</time>
      </trkpt>
      <trkpt lat="46.54548" lon="-0.02929">
        <ele>180.79</ele>
        <time>2023-06-15T20:15:59.795Z</time>
      </trkpt>
      <trkpt lat="46.54531" lon="-0.02922">
        <ele>180.99</ele>
        <time>2023-06-15T20:16:51.925Z</time>
      </trkpt>
      <trkpt lat="46.54523" lon="-0.02918">
        <ele>181.13</ele>
        <time>2023-06-15T20:17:44.057Z</time>
      </trkpt>
      <trkpt lat="46.54514" lon="-0.02915">
        <ele>181.33</ele>
        <time>2023-06-15T20:18:36.190Z</time>
      </trkpt>
      <trkpt lat="46.54505" lon="-0.02911">
        <ele>181.61</ele>
        <time>2023-06-15T20:19:28.325Z</time>
      </trkpt>
      <trkpt lat="46.54497" lon="-0.02907">
        <ele>181.94</ele>
        <time>2023-06-15T20:20:20.461Z</time>
      </trkpt>
      <trkpt lat="46.54488" lon="-0.02904">
        <ele>182.3</ele>
        <time>2023-06-15T20:21:12.599Z</time>
      </trkpt>
      <trkpt lat="46.54484" lon="-0.02902">
        <ele>182.49</ele>
        <time>2023-06-15T20:22:04.737Z</time>
      </trkpt>
      <trkpt lat="46.5448" lon="-0.029">
        <ele>182.71</ele>
        <time>2023-06-15T20:22:56.876Z</time>
      </trkpt>
      <trkpt lat="46.54471" lon="-0.02896">
        <ele>183.16</ele>
        <time>2023-06-15T20:23:49.017Z</time>
      </trkpt>
      <trkpt lat="46.54449" lon="-0.02885">
        <ele>184.54</ele>
        <time>2023-06-15T20:24:41.161Z</time>
      </trkpt>
      <trkpt lat="46.54438" lon="-0.02875">
        <ele>185.3</ele>
        <time>2023-06-15T20:25:33.307Z</time>
      </trkpt>
      <trkpt lat="46.54435" lon="-0.02872">
        <ele>185.55</ele>
        <time>2023-06-15T20:26:25.454Z</time>
      </trkpt>
      <trkpt lat="46.54431" lon="-0.02868">
        <ele>185.77</ele>
        <time>2023-06-15T20:27:17.602Z</time>
      </trkpt>
      <trkpt lat="46.54427" lon="-0.02865">
        <ele>185.95</ele>
        <time>2023-06-15T20:28:09.750Z</time>
      </trkpt>
      <trkpt lat="46.54419" lon="-0.02858">
        <ele>186.25</ele>
        <time>2023-06-15T20:29:01.900Z</time>
      </trkpt>
      <trkpt lat="46.54412" lon="-0.02851">
        <ele>186.51</ele>
        <time>2023-06-15T20:29:54.051Z</time>
      </trkpt>
      <trkpt lat="46.54401" lon="-0.0284">
        <ele>186.79</ele>
        <time>2023-06-15T20:30:46.204Z</time>
      </trkpt>
      <trkpt lat="46.54385" lon="-0.02825">
        <ele>187.11</ele>
        <time>2023-06-15T20:31:38.360Z</time>
      </trkpt>
      <trkpt lat="46.54379" lon="-0.0282">
        <ele>187.2</ele>
        <time>2023-06-15T20:32:30.518Z</time>
      </trkpt>
      <trkpt lat="46.54369" lon="-0.02814">
        <ele>187.37</ele>
        <time>2023-06-15T20:33:22.677Z</time>
      </trkpt>
      <trkpt lat="46.54362" lon="-0.02811">
        <ele>187.45</ele>
        <time>2023-06-15T20:34:14.837Z</time>
      </trkpt>
      <trkpt lat="46.54356" lon="-0.0281">
        <ele>187.54</ele>
        <time>2023-06-15T20:35:06.998Z</time>
      </trkpt>
      <trkpt lat="46.54347" lon="-0.02809">
        <ele>187.62</ele>
        <time>2023-06-15T20:35:59.161Z</time>
      </trkpt>
      <trkpt lat="46.54344" lon="-0.02809">
        <ele>187.65</ele>
        <time>2023-06-15T20:36:51.324Z</time>
      </trkpt>
      <trkpt lat="46.54338" lon="-0.02811">
        <ele>187.74</ele>
        <time>2023-06-15T20:37:43.488Z</time>
      </trkpt>
      <trkpt lat="46.54321" lon="-0.02816">
        <ele>188.07</ele>
        <time>2023-06-15T20:38:35.655Z</time>
      </trkpt>
      <trkpt lat="46.54313" lon="-0.02818">
        <ele>188.24</ele>
        <time>2023-06-15T20:39:27.823Z</time>
      </trkpt>
      <trkpt lat="46.54305" lon="-0.02826">
        <ele>188.46</ele>
        <time>2023-06-15T20:40:19.993Z</time>
      </trkpt>
      <trkpt lat="46.543" lon="-0.02832">
        <ele>188.61</ele>
        <time>2023-06-15T20:41:12.164Z</time>
      </trkpt>
      <trkpt lat="46.54279" lon="-0.02862">
        <ele>189.34</ele>
        <time>2023-06-15T20:42:04.340Z</time>
      </trkpt>
      <trkpt lat="46.54273" lon="-0.02871">
        <ele>189.59</ele>
        <time>2023-06-15T20:42:56.517Z</time>
      </trkpt>
      <trkpt lat="46.54267" lon="-0.0288">
        <ele>189.88</ele>
        <time>2023-06-15T20:43:48.696Z</time>
      </trkpt>
      <trkpt lat="46.54229" lon="-0.02934">
        <ele>191.76</ele>
        <time>2023-06-15T20:44:40.883Z</time>
      </trkpt>
      <trkpt lat="46.54223" lon="-0.02943">
        <ele>192.06</ele>
        <time>2023-06-15T20:45:33.071Z</time>
      </trkpt>
      <trkpt lat="46.54213" lon="-0.02957">
        <ele>192.46</ele>
        <time>2023-06-15T20:46:25.262Z</time>
      </trkpt>
      <trkpt lat="46.54204" lon="-0.02971">
        <ele>192.81</ele>
        <time>2023-06-15T20:47:17.455Z</time>
      </trkpt>
      <trkpt lat="46.54201" lon="-0.02975">
        <ele>192.88</ele>
        <time>2023-06-15T20:48:09.648Z</time>
      </trkpt>
      <trkpt lat="46.54193" lon="-0.02982">
        <ele>193.05</ele>
        <time>2023-06-15T20:49:01.843Z</time>
      </trkpt>
      <trkpt lat="46.54183" lon="-0.02992">
        <ele>193.18</ele>
        <time>2023-06-15T20:49:54.040Z</time>
      </trkpt>
      <trkpt lat="46.54158" lon="-0.0301">
        <ele>193.47</ele>
        <time>2023-06-15T20:50:46.241Z</time>
      </trkpt>
      <trkpt lat="46.54151" lon="-0.03017">
        <ele>193.56</ele>
        <time>2023-06-15T20:51:38.444Z</time>
      </trkpt>
      <trkpt lat="46.54141" lon="-0.03029">
        <ele>193.71</ele>
        <time>2023-06-15T20:52:30.649Z</time>
      </trkpt>
      <trkpt lat="46.54135" lon="-0.03038">
        <ele>193.82</ele>
        <time>2023-06-15T20:53:22.855Z</time>
      </trkpt>
      <trkpt lat="46.54126" lon="-0.03051">
        <ele>193.92</ele>
        <time>2023-06-15T20:54:15.063Z</time>
      </trkpt>
      <trkpt lat="46.54119" lon="-0.0306">
        <ele>193.97</ele>
        <time>2023-06-15T20:55:07.273Z</time>
      </trkpt>
      <trkpt lat="46.54105" lon="-0.03083">
        <ele>194.11</ele>
        <time>2023-06-15T20:55:59.486Z</time>
      </trkpt>
      <trkpt lat="46.54102" lon="-0.03088">
        <ele>194.15</ele>
        <time>2023-06-15T20:56:51.700Z</time>
      </trkpt>
      <trkpt lat="46.54091" lon="-0.03114">
        <ele>194.38</ele>
        <time>2023-06-15T20:57:43.917Z</time>
      </trkpt>
      <trkpt lat="46.54088" lon="-0.0312">
        <ele>194.41</ele>
        <time>2023-06-15T20:58:36.135Z</time>
      </trkpt>
      <trkpt lat="46.54079" lon="-0.03143">
        <ele>194.54</ele>
        <time>2023-06-15T20:59:28.356Z</time>
      </trkpt>
      <trkpt lat="46.54078" lon="-0.03146">
        <ele>194.59</ele>
        <time>2023-06-15T21:00:20.577Z</time>
      </trkpt>
      <trkpt lat="46.54069" lon="-0.03169">
        <ele>194.47</ele>
        <time>2023-06-15T21:01:12.801Z</time>
      </trkpt>
      <trkpt lat="46.54058" lon="-0.03186">
        <ele>194.38</ele>
        <time>2023-06-15T21:02:05.028Z</time>
      </trkpt>
      <trkpt lat="46.54053" lon="-0.03193">
        <ele>194.31</ele>
        <time>2023-06-15T21:02:57.256Z</time>
      </trkpt>
      <trkpt lat="46.54045" lon="-0.03202">
        <ele>194.21</ele>
        <time>2023-06-15T21:03:49.485Z</time>
      </trkpt>
      <trkpt lat="46.54029" lon="-0.03211">
        <ele>194.04</ele>
        <time>2023-06-15T21:04:41.717Z</time>
      </trkpt>
      <trkpt lat="46.54017" lon="-0.03216">
        <ele>193.92</ele>
        <time>2023-06-15T21:05:33.951Z</time>
      </trkpt>
      <trkpt lat="46.54012" lon="-0.03218">
        <ele>193.86</ele>
        <time>2023-06-15T21:06:26.186Z</time>
      </trkpt>
      <trkpt lat="46.54008" lon="-0.03218">
        <ele>193.81</ele>
        <time>2023-06-15T21:07:18.422Z</time>
      </trkpt>
      <trkpt lat="46.53995" lon="-0.03219">
        <ele>193.68</ele>
        <time>2023-06-15T21:08:10.660Z</time>
      </trkpt>
      <trkpt lat="46.53986" lon="-0.0322">
        <ele>193.61</ele>
        <time>2023-06-15T21:09:02.899Z</time>
      </trkpt>
      <trkpt lat="46.53977" lon="-0.03218">
        <ele>193.55</ele>
        <time>2023-06-15T21:09:55.140Z</time>
      </trkpt>
      <trkpt lat="46.53956" lon="-0.03213">
        <ele>193.49</ele>
        <time>2023-06-15T21:10:47.384Z</time>
      </trkpt>
      <trkpt lat="46.53929" lon="-0.03207">
        <ele>193.49</ele>
        <time>2023-06-15T21:11:39.632Z</time>
      </trkpt>
      <trkpt lat="46.539" lon="-0.03198">
        <ele>193.5</ele>
        <time>2023-06-15T21:12:31.885Z</time>
      </trkpt>
      <trkpt lat="46.53879" lon="-0.03191">
        <ele>193.52</ele>
        <time>2023-06-15T21:13:24.142Z</time>
      </trkpt>
      <trkpt lat="46.53874" lon="-0.03191">
        <ele>193.53</ele>
        <time>2023-06-15T21:14:16.399Z</time>
      </trkpt>
      <trkpt lat="46.53848" lon="-0.0319">
        <ele>193.52</ele>
        <time>2023-06-15T21:15:08.661Z</time>
      </trkpt>
      <trkpt lat="46.53836" lon="-0.03189">
        <ele>193.5</ele>
        <time>2023-06-15T21:16:00.925Z</time>
      </trkpt>
      <trkpt lat="46.53816" lon="-0.03182">
        <ele>193.48</ele>
        <time>2023-06-15T21:16:53.192Z</time>
      </trkpt>
      <trkpt lat="46.53805" lon="-0.03176">
        <ele>193.47</ele>
        <time>2023-06-15T21:17:45.461Z</time>
      </trkpt>
      <trkpt lat="46.5378" lon="-0.03163">
        <ele>193.44</ele>
        <time>2023-06-15T21:18:37.734Z</time>
      </trkpt>
      <trkpt lat="46.53765" lon="-0.03155">
        <ele>193.44</ele>
        <time>2023-06-15T21:19:30.010Z</time>
      </trkpt>
      <trkpt lat="46.53763" lon="-0.03155">
        <ele>193.45</ele>
        <time>2023-06-15T21:20:22.286Z</time>
      </trkpt>
      <trkpt lat="46.53746" lon="-0.0315">
        <ele>193.49</ele>
        <time>2023-06-15T21:21:14.565Z</time>
      </trkpt>
      <trkpt lat="46.53703" lon="-0.03137">
        <ele>192.95</ele>
        <time>2023-06-15T21:22:06.851Z</time>
      </trkpt>
      <trkpt lat="46.53685" lon="-0.03134">
        <ele>192.73</ele>
        <time>2023-06-15T21:22:59.140Z</time>
      </trkpt>
      <trkpt lat="46.53676" lon="-0.03132">
        <ele>192.58</ele>
        <time>2023-06-15T21:23:51.430Z</time>
      </trkpt>
      <trkpt lat="46.53663" lon="-0.03129">
        <ele>192.28</ele>
        <time>2023-06-15T21:24:43.722Z</time>
      </trkpt>
      <trkpt lat="46.53656" lon="-0.03128">
        <ele>192.1</ele>
        <time>2023-06-15T21:25:36.015Z</time>
      </trkpt>
      <trkpt lat="46.53637" lon="-0.03127">
        <ele>191.64</ele>
        <time>2023-06-15T21:26:28.311Z</time>
      </trkpt>
      <trkpt lat="46.53631" lon="-0.03127">
        <ele>191.49</ele>
        <time>2023-06-15T21:27:20.608Z</time>
      </trkpt>
      <trkpt lat="46.53628" lon="-0.03127">
        <ele>191.41</ele>
        <time>2023-06-15T21:28:12.906Z</time>
      </trkpt>
      <trkpt lat="46.5361" lon="-0.03129">
        <ele>190.9</ele>
        <time>2023-06-15T21:29:05.207Z</time>
      </trkpt>
      <trkpt lat="46.53592" lon="-0.0313">
        <ele>190.48</ele>
        <time>2023-06-15T21:29:57.510Z</time>
      </trkpt>
      <trkpt lat="46.53579" lon="-0.03132">
        <ele>190.22</ele>
        <time>2023-06-15T21:30:49.816Z</time>
      </trkpt>
      <trkpt lat="46.53574" lon="-0.03132">
        <ele>190.13</ele>
        <time>2023-06-15T21:31:42.122Z</time>
      </trkpt>
      <trkpt lat="46.53552" lon="-0.03135">
        <ele>189.75</ele>
        <time>2023-06-15T21:32:34.432Z</time>
      </trkpt>
      <trkpt lat="46.53522" lon="-0.03138">
        <ele>189.27</ele>
        <time>2023-06-15T21:33:26.747Z</time>
      </trkpt>
      <trkpt lat="46.53513" lon="-0.03139">
        <ele>189.11</ele>
        <time>2023-06-15T21:34:19.063Z</time>
      </trkpt>
      <trkpt lat="46.53495" lon="-0.03141">
        <ele>188.75</ele>
        <time>2023-06-15T21:35:11.382Z</time>
      </trkpt>
      <trkpt lat="46.53482" lon="-0.03143">
        <ele>188.43</ele>
        <time>2023-06-15T21:36:03.703Z</time>
      </trkpt>
      <trkpt lat="46.53464" lon="-0.03145">
        <ele>187.51</ele>
        <time>2023-06-15T21:36:56.027Z</time>
      </trkpt>
      <trkpt lat="46.53457" lon="-0.03146">
        <ele>187.13</ele>
        <time>2023-06-15T21:37:48.352Z</time>
      </trkpt>
      <trkpt lat="46.53446" lon="-0.03148">
        <ele>186.54</ele>
        <time>2023-06-15T21:38:40.679Z</time>
      </trkpt>
      <trkpt lat="46.53442" lon="-0.03152">
        <ele>186.3</ele>
        <time>2023-06-15T21:39:33.007Z</time>
      </trkpt>
      <trkpt lat="46.5344" lon="-0.03154">
        <ele>186.16</ele>
        <time>2023-06-15T21:40:25.335Z</time>
      </trkpt>
      <trkpt lat="46.53434" lon="-0.03167">
        <ele>185.63</ele>
        <time>2023-06-15T21:41:17.665Z</time>
      </trkpt>
      <trkpt lat="46.53429" lon="-0.03178">
        <ele>185.24</ele>
        <time>2023-06-15T21:42:09.996Z</time>
      </trkpt>
      <trkpt lat="46.53426" lon="-0.03184">
        <ele>185.03</ele>
        <time>2023-06-15T21:43:02.328Z</time>
      </trkpt>
      <trkpt lat="46.5341" lon="-0.03237">
        <ele>183.45</ele>
        <time>2023-06-15T21:43:54.666Z</time>
      </trkpt>
      <trkpt lat="46.53407" lon="-0.03249">
        <ele>183.14</ele>
        <time>2023-06-15T21:44:47.006Z</time>
      </trkpt>
      <trkpt lat="46.53402" lon="-0.03267">
        <ele>182.77</ele>
        <time>2023-06-15T21:45:39.348Z</time>
      </trkpt>
      <trkpt lat="46.53396" lon="-0.03285">
        <ele>182.47</ele>
        <time>2023-06-15T21:46:31.692Z</time>
      </trkpt>
      <trkpt lat="46.53391" lon="-0.03303">
        <ele>182.21</ele>
        <time>2023-06-15T21:47:24.038Z</time>
      </trkpt>
      <trkpt lat="46.53382" lon="-0.03333">
        <ele>181.84</ele>
        <time>2023-06-15T21:48:16.388Z</time>
      </trkpt>
      <trkpt lat="46.53373" lon="-0.03363">
        <ele>181.57</ele>
        <time>2023-06-15T21:49:08.742Z</time>
      </trkpt>
      <trkpt lat="46.53368" lon="-0.03381">
        <ele>181.49</ele>
        <time>2023-06-15T21:50:01.098Z</time>
      </trkpt>
      <trkpt lat="46.53359" lon="-0.03411">
        <ele>181.44</ele>
        <time>2023-06-15T21:50:53.457Z</time>
      </trkpt>
      <trkpt lat="46.53357" lon="-0.03417">
        <ele>181.41</ele>
        <time>2023-06-15T21:51:45.817Z</time>
      </trkpt>
      <trkpt lat="46.53356" lon="-0.03423">
        <ele>181.35</ele>
        <time>2023-06-15T21:52:38.178Z</time>
      </trkpt>
      <trkpt lat="46.53352" lon="-0.03435">
        <ele>181.13</ele>
        <time>2023-06-15T21:53:30.540Z</time>
      </trkpt>
      <trkpt lat="46.5335" lon="-0.03441">
        <ele>180.98</ele>
        <time>2023-06-15T21:54:22.903Z</time>
      </trkpt>
      <trkpt lat="46.53349" lon="-0.03447">
        <ele>180.8</ele>
        <time>2023-06-15T21:55:15.267Z</time>
      </trkpt>
      <trkpt lat="46.53347" lon="-0.03453">
        <ele>180.59</ele>
        <time>2023-06-15T21:56:07.631Z</time>
      </trkpt>
      <trkpt lat="46.53333" lon="-0.03501">
        <ele>178.7</ele>
        <time>2023-06-15T21:57:00.001Z</time>
      </trkpt>
      <trkpt lat="46.53324" lon="-0.03531">
        <ele>177.49</ele>
        <time>2023-06-15T21:57:52.375Z</time>
      </trkpt>
      <trkpt lat="46.5332" lon="-0.03543">
        <ele>177.06</ele>
        <time>2023-06-15T21:58:44.750Z</time>
      </trkpt>
      <trkpt lat="46.53317" lon="-0.03555">
        <ele>176.68</ele>
        <time>2023-06-15T21:59:37.127Z</time>
      </trkpt>
      <trkpt lat="46.53313" lon="-0.03567">
        <ele>176.36</ele>
        <time>2023-06-15T22:00:29.505Z</time>
      </trkpt>
      <trkpt lat="46.53312" lon="-0.03573">
        <ele>176.22</ele>
        <time>2023-06-15T22:01:21.884Z</time>
      </trkpt>
      <trkpt lat="46.53303" lon="-0.03603">
        <ele>175.63</ele>
        <time>2023-06-15T22:02:14.266Z</time>
      </trkpt>
      <trkpt lat="46.53299" lon="-0.03615">
        <ele>175.43</ele>
        <time>2023-06-15T22:03:06.650Z</time>
      </trkpt>
      <trkpt lat="46.53297" lon="-0.03621">
        <ele>175.35</ele>
        <time>2023-06-15T22:03:59.035Z</time>
      </trkpt>
      <trkpt lat="46.53292" lon="-0.03639">
        <ele>175.17</ele>
        <time>2023-06-15T22:04:51.422Z</time>
      </trkpt>
      <trkpt lat="46.5329" lon="-0.03647">
        <ele>175.12</ele>
        <time>2023-06-15T22:05:43.810Z</time>
      </trkpt>
      <trkpt lat="46.53288" lon="-0.03651">
        <ele>175.1</ele>
        <time>2023-06-15T22:06:36.198Z</time>
      </trkpt>
      <trkpt lat="46.53281" lon="-0.03668">
        <ele>175.03</ele>
        <time>2023-06-15T22:07:28.588Z</time>
      </trkpt>
      <trkpt lat="46.53276" lon="-0.03678">
        <ele>174.95</ele>
        <time>2023-06-15T22:08:20.980Z</time>
      </trkpt>
      <trkpt lat="46.53266" lon="-0.03692">
        <ele>174.83</ele>
        <time>2023-06-15T22:09:13.374Z</time>
      </trkpt>
      <trkpt lat="46.53266" lon="-0.03692">
        <ele>174.83</ele>
        <time>2023-06-15T22:10:05.768Z</time>
      </trkpt>
      <trkpt lat="46.53258" lon="-0.03699">
        <ele>174.78</ele>
        <time>2023-06-15T22:10:58.163Z</time>
      </trkpt>
      <trkpt lat="46.53247" lon="-0.03709">
        <ele>174.81</ele>
        <time>2023-06-15T22:11:50.561Z</time>
      </trkpt>
      <trkpt lat="46.53239" lon="-0.03716">
        <ele>174.87</ele>
        <time>2023-06-15T22:12:42.960Z</time>
      </trkpt>
      <trkpt lat="46.53224" lon="-0.0373">
        <ele>175.04</ele>
        <time>2023-06-15T22:13:35.362Z</time>
      </trkpt>
      <trkpt lat="46.53217" lon="-0.03737">
        <ele>175.15</ele>
        <time>2023-06-15T22:14:27.765Z</time>
      </trkpt>
      <trkpt lat="46.53194" lon="-0.03758">
        <ele>175.64</ele>
        <time>2023-06-15T22:15:20.173Z</time>
      </trkpt>
      <trkpt lat="46.53186" lon="-0.03765">
        <ele>175.78</ele>
        <time>2023-06-15T22:16:12.582Z</time>
      </trkpt>
      <trkpt lat="46.5316" lon="-0.03789">
        <ele>176.21</ele>
        <time>2023-06-15T22:17:04.996Z</time>
      </trkpt>
      <trkpt lat="46.5314" lon="-0.03807">
        <ele>176.59</ele>
        <time>2023-06-15T22:17:57.414Z</time>
      </trkpt>
      <trkpt lat="46.5314" lon="-0.03807">
        <ele>176.59</ele>
        <time>2023-06-15T22:18:49.832Z</time>
      </trkpt>
      <trkpt lat="46.53129" lon="-0.03817">
        <ele>176.87</ele>
        <time>2023-06-15T22:19:42.252Z</time>
      </trkpt>
      <trkpt lat="46.53114" lon="-0.0383">
        <ele>177.29</ele>
        <time>2023-06-15T22:20:34.675Z</time>
      </trkpt>
      <trkpt lat="46.53098" lon="-0.03844">
        <ele>177.65</ele>
        <time>2023-06-15T22:21:27.101Z</time>
      </trkpt>
      <trkpt lat="46.53083" lon="-0.03857">
        <ele>178.05</ele>
        <time>2023-06-15T22:22:19.530Z</time>
      </trkpt>
      <trkpt lat="46.53037" lon="-0.03898">
        <ele>178.99</ele>
        <time>2023-06-15T22:23:11.967Z</time>
      </trkpt>
      <trkpt lat="46.53025" lon="-0.03908">
        <ele>179.26</ele>
        <time>2023-06-15T22:24:04.406Z</time>
      </trkpt>
      <trkpt lat="46.5301" lon="-0.03921">
        <ele>179.67</ele>
        <time>2023-06-15T22:24:56.848Z</time>
      </trkpt>
      <trkpt lat="46.52987" lon="-0.03941">
        <ele>180.38</ele>
        <time>2023-06-15T22:25:49.295Z</time>
      </trkpt>
      <trkpt lat="46.52971" lon="-0.03955">
        <ele>179.77</ele>
        <time>2023-06-15T22:26:41.744Z</time>
      </trkpt>
      <trkpt lat="46.52948" lon="-0.03971">
        <ele>178.92</ele>
        <time>2023-06-15T22:27:34.198Z</time>
      </trkpt>
      <trkpt lat="46.5295" lon="-0.0398">
        <ele>178.71</ele>
        <time>2023-06-15T22:28:26.653Z</time>
      </trkpt>
      <trkpt lat="46.53017" lon="-0.0412">
        <ele>174.81</ele>
        <time>2023-06-15T22:29:19.126Z</time>
      </trkpt>
      <trkpt lat="46.53019" lon="-0.04129">
        <ele>174.59</ele>
        <time>2023-06-15T22:30:11.600Z</time>
      </trkpt>
      <trkpt lat="46.52997" lon="-0.04162">
        <ele>173.55</ele>
        <time>2023-06-15T22:31:04.080Z</time>
      </trkpt>
      <trkpt lat="46.52987" lon="-0.04177">
        <ele>173.45</ele>
        <time>2023-06-15T22:31:56.562Z</time>
      </trkpt>
      <trkpt lat="46.52982" lon="-0.04193">
        <ele>173.38</ele>
        <time>2023-06-15T22:32:49.046Z</time>
      </trkpt>
      <trkpt lat="46.52989" lon="-0.04216">
        <ele>173.27</ele>
        <time>2023-06-15T22:33:41.533Z</time>
      </trkpt>
      <trkpt lat="46.53003" lon="-0.04295">
        <ele>172.91</ele>
        <time>2023-06-15T22:34:34.029Z</time>
      </trkpt>
      <trkpt lat="46.53005" lon="-0.04388">
        <ele>172.51</ele>
        <time>2023-06-15T22:35:26.535Z</time>
      </trkpt>
      <trkpt lat="46.53008" lon="-0.04399">
        <ele>172.45</ele>
        <time>2023-06-15T22:36:19.042Z</time>
      </trkpt>
      <trkpt lat="46.53054" lon="-0.04463">
        <ele>172.05</ele>
        <time>2023-06-15T22:37:11.559Z</time>
      </trkpt>
      <trkpt lat="46.53075" lon="-0.04508">
        <ele>171.81</ele>
        <time>2023-06-15T22:38:04.082Z</time>
      </trkpt>
      <trkpt lat="46.53087" lon="-0.04551">
        <ele>171.61</ele>
        <time>2023-06-15T22:38:56.610Z</time>
      </trkpt>
      <trkpt lat="46.53108" lon="-0.04646">
        <ele>171.18</ele>
        <time>2023-06-15T22:39:49.149Z</time>
      </trkpt>
      <trkpt lat="46.53107" lon="-0.04687">
        <ele>171</ele>
        <time>2023-06-15T22:40:41.693Z</time>
      </trkpt>
      <trkpt lat="46.53094" lon="-0.04859">
        <ele>170.24</ele>
        <time>2023-06-15T22:41:34.256Z</time>
      </trkpt>
      <trkpt lat="46.53083" lon="-0.04911">
        <ele>170</ele>
        <time>2023-06-15T22:42:26.825Z</time>
      </trkpt>
      <trkpt lat="46.53039" lon="-0.05068">
        <ele>169.27</ele>
        <time>2023-06-15T22:43:19.413Z</time>
      </trkpt>
      <trkpt lat="46.53034" lon="-0.05113">
        <ele>169.07</ele>
        <time>2023-06-15T22:44:12.006Z</time>
      </trkpt>
      <trkpt lat="46.53032" lon="-0.0512">
        <ele>169.03</ele>
        <time>2023-06-15T22:45:04.600Z</time>
      </trkpt>
      <trkpt lat="46.53027" lon="-0.05125">
        <ele>169</ele>
        <time>2023-06-15T22:45:57.195Z</time>
      </trkpt>
      <trkpt lat="46.53017" lon="-0.05131">
        <ele>168.93</ele>
        <time>2023-06-15T22:46:49.791Z</time>
      </trkpt>
      <trkpt lat="46.52995" lon="-0.05137">
        <ele>168.79</ele>
        <time>2023-06-15T22:47:42.391Z</time>
      </trkpt>
      <trkpt lat="46.52952" lon="-0.0515">
        <ele>168.58</ele>
        <time>2023-06-15T22:48:34.998Z</time>
      </trkpt>
      <trkpt lat="46.52949" lon="-0.05154">
        <ele>168.56</ele>
        <time>2023-06-15T22:49:27.606Z</time>
      </trkpt>
      <trkpt lat="46.52947" lon="-0.05161">
        <ele>168.54</ele>
        <time>2023-06-15T22:50:20.215Z</time>
      </trkpt>
      <trkpt lat="46.52982" lon="-0.05236">
        <ele>168.25</ele>
        <time>2023-06-15T22:51:12.834Z</time>
      </trkpt>
      <trkpt lat="46.53008" lon="-0.05283">
        <ele>168.06</ele>
        <time>2023-06-15T22:52:05.459Z</time>
      </trkpt>
      <trkpt lat="46.53026" lon="-0.05326">
        <ele>167.9</ele>
        <time>2023-06-15T22:52:58.090Z</time>
      </trkpt>
      <trkpt lat="46.53067" lon="-0.05392">
        <ele>167.61</ele>
        <time>2023-06-15T22:53:50.731Z</time>
      </trkpt>
      <trkpt lat="46.53104" lon="-0.05442">
        <ele>167.38</ele>
        <time>2023-06-15T22:54:43.380Z</time>
      </trkpt>
      <trkpt lat="46.53125" lon="-0.0548">
        <ele>167.22</ele>
        <time>2023-06-15T22:55:36.034Z</time>
      </trkpt>
      <trkpt lat="46.53147" lon="-0.0556">
        <ele>166.95</ele>
        <time>2023-06-15T22:56:28.698Z</time>
      </trkpt>
      <trkpt lat="46.53158" lon="-0.05589">
        <ele>166.84</ele>
        <time>2023-06-15T22:57:21.365Z</time>
      </trkpt>
      <trkpt lat="46.53182" lon="-0.05634">
        <ele>166.66</ele>
        <time>2023-06-15T22:58:14.039Z</time>
      </trkpt>
      <trkpt lat="46.53181" lon="-0.05646">
        <ele>166.62</ele>
        <time>2023-06-15T22:59:06.714Z</time>
      </trkpt>
      <trkpt lat="46.53148" lon="-0.0571">
        <ele>166.37</ele>
        <time>2023-06-15T22:59:59.398Z</time>
      </trkpt>
      <trkpt lat="46.53142" lon="-0.0572">
        <ele>165.88</ele>
        <time>2023-06-15T23:00:52.083Z</time>
      </trkpt>
      <trkpt lat="46.5314" lon="-0.05725">
        <ele>165.68</ele>
        <time>2023-06-15T23:01:44.769Z</time>
      </trkpt>
      <trkpt lat="46.53137" lon="-0.0573">
        <ele>165.51</ele>
        <time>2023-06-15T23:02:37.456Z</time>
      </trkpt>
      <trkpt lat="46.53126" lon="-0.05751">
        <ele>164.91</ele>
        <time>2023-06-15T23:03:30.145Z</time>
      </trkpt>
      <trkpt lat="46.53121" lon="-0.05761">
        <ele>164.53</ele>
        <time>2023-06-15T23:04:22.836Z</time>
      </trkpt>
      <trkpt lat="46.53121" lon="-0.05761">
        <ele>164.53</ele>
        <time>2023-06-15T23:05:15.527Z</time>
      </trkpt>
      <trkpt lat="46.53112" lon="-0.05758">
        <ele>164.09</ele>
        <time>2023-06-15T23:06:08.219Z</time>
      </trkpt>
      <trkpt lat="46.53108" lon="-0.05756">
        <ele>163.84</ele>
        <time>2023-06-15T23:07:00.912Z</time>
      </trkpt>
      <trkpt lat="46.53104" lon="-0.05755">
        <ele>163.57</ele>
        <time>2023-06-15T23:07:53.606Z</time>
      </trkpt>
      <trkpt lat="46.53095" lon="-0.0575">
        <ele>162.96</ele>
        <time>2023-06-15T23:08:46.301Z</time>
      </trkpt>
      <trkpt lat="46.53091" lon="-0.05748">
        <ele>162.72</ele>
        <time>2023-06-15T23:09:38.997Z</time>
      </trkpt>
      <trkpt lat="46.53087" lon="-0.05746">
        <ele>162.53</ele>
        <time>2023-06-15T23:10:31.694Z</time>
      </trkpt>
      <trkpt lat="46.53083" lon="-0.05744">
        <ele>162.38</ele>
        <time>2023-06-15T23:11:24.391Z</time>
      </trkpt>
      <trkpt lat="46.53078" lon="-0.05741">
        <ele>162.27</ele>
        <time>2023-06-15T23:12:17.089Z</time>
      </trkpt>
      <trkpt lat="46.53074" lon="-0.05739">
        <ele>162.2</ele>
        <time>2023-06-15T23:13:09.788Z</time>
      </trkpt>
      <trkpt lat="46.5307" lon="-0.05737">
        <ele>162.18</ele>
        <time>2023-06-15T23:14:02.487Z</time>
      </trkpt>
      <trkpt lat="46.53066" lon="-0.05735">
        <ele>162.19</ele>
        <time>2023-06-15T23:14:55.187Z</time>
      </trkpt>
      <trkpt lat="46.53061" lon="-0.05732">
        <ele>162.23</ele>
        <time>2023-06-15T23:15:47.888Z</time>
      </trkpt>
      <trkpt lat="46.53058" lon="-0.05729">
        <ele>162.26</ele>
        <time>2023-06-15T23:16:40.590Z</time>
      </trkpt>
      <trkpt lat="46.53046" lon="-0.0572">
        <ele>162.41</ele>
        <time>2023-06-15T23:17:33.294Z</time>
      </trkpt>
      <trkpt lat="46.53038" lon="-0.05715">
        <ele>162.54</ele>
        <time>2023-06-15T23:18:25.999Z</time>
      </trkpt>
      <trkpt lat="46.5303" lon="-0.05709">
        <ele>162.71</ele>
        <time>2023-06-15T23:19:18.705Z</time>
      </trkpt>
      <trkpt lat="46.53014" lon="-0.05697">
        <ele>163.2</ele>
        <time>2023-06-15T23:20:11.414Z</time>
      </trkpt>
      <trkpt lat="46.5301" lon="-0.05693">
        <ele>163.27</ele>
        <time>2023-06-15T23:21:04.124Z</time>
      </trkpt>
      <trkpt lat="46.53007" lon="-0.05691">
        <ele>163.29</ele>
        <time>2023-06-15T23:21:56.835Z</time>
      </trkpt>
      <trkpt lat="46.53006" lon="-0.05691">
        <ele>163.29</ele>
        <time>2023-06-15T23:22:49.546Z</time>
      </trkpt>
      <trkpt lat="46.53002" lon="-0.05688">
        <ele>163.27</ele>
        <time>2023-06-15T23:23:42.257Z</time>
      </trkpt>
      <trkpt lat="46.52998" lon="-0.05686">
        <ele>163.19</ele>
        <time>2023-06-15T23:24:34.969Z</time>
      </trkpt>
      <trkpt lat="46.52994" lon="-0.05683">
        <ele>163.08</ele>
        <time>2023-06-15T23:25:27.682Z</time>
      </trkpt>
      <trkpt lat="46.5299" lon="-0.05681">
        <ele>162.94</ele>
        <time>2023-06-15T23:26:20.396Z</time>
      </trkpt>
      <trkpt lat="46.52988" lon="-0.0568">
        <ele>162.91</ele>
        <time>2023-06-15T23:27:13.110Z</time>
      </trkpt>
      <trkpt lat="46.52945" lon="-0.0568">
        <ele>162.32</ele>
        <time>2023-06-15T23:28:05.831Z</time>
      </trkpt>
      <trkpt lat="46.52907" lon="-0.05685">
        <ele>161.81</ele>
        <time>2023-06-15T23:28:58.558Z</time>
      </trkpt>
      <trkpt lat="46.52863" lon="-0.05692">
        <ele>160.79</ele>
        <time>2023-06-15T23:29:51.292Z</time>
      </trkpt>
      <trkpt lat="46.52763" lon="-0.0571">
        <ele>158.5</ele>
        <time>2023-06-15T23:30:44.042Z</time>
      </trkpt>
      <trkpt lat="46.52754" lon="-0.05712">
        <ele>158.5</ele>
        <time>2023-06-15T23:31:36.794Z</time>
      </trkpt>
      <trkpt lat="46.52747" lon="-0.05715">
        <ele>158.51</ele>
        <time>2023-06-15T23:32:29.547Z</time>
      </trkpt>
      <trkpt lat="46.52735" lon="-0.05721">
        <ele>158.99</ele>
        <time>2023-06-15T23:33:22.302Z</time>
      </trkpt>
      <trkpt lat="46.52722" lon="-0.05734">
        <ele>159.6</ele>
        <time>2023-06-15T23:34:15.059Z</time>
      </trkpt>
      <trkpt lat="46.52663" lon="-0.05814">
        <ele>162.73</ele>
        <time>2023-06-15T23:35:07.829Z</time>
      </trkpt>
      <trkpt lat="46.52609" lon="-0.05898">
        <ele>165.81</ele>
        <time>2023-06-15T23:36:00.612Z</time>
      </trkpt>
      <trkpt lat="46.52582" lon="-0.0594">
        <ele>165.33</ele>
        <time>2023-06-15T23:36:53.401Z</time>
      </trkpt>
      <trkpt lat="46.52571" lon="-0.05947">
        <ele>165.19</ele>
        <time>2023-06-15T23:37:46.192Z</time>
      </trkpt>
      <trkpt lat="46.52562" lon="-0.05947">
        <ele>165.08</ele>
        <time>2023-06-15T23:38:38.985Z</time>
      </trkpt>
      <trkpt lat="46.52516" lon="-0.0594">
        <ele>164.52</ele>
        <time>2023-06-15T23:39:31.785Z</time>
      </trkpt>
      <trkpt lat="46.52436" lon="-0.05936">
        <ele>163.56</ele>
        <time>2023-06-15T23:40:24.598Z</time>
      </trkpt>
      <trkpt lat="46.52392" lon="-0.05931">
        <ele>163.03</ele>
        <time>2023-06-15T23:41:17.418Z</time>
      </trkpt>
      <trkpt lat="46.52351" lon="-0.05913">
        <ele>162.51</ele>
        <time>2023-06-15T23:42:10.245Z</time>
      </trkpt>
      <trkpt lat="46.52334" lon="-0.05902">
        <ele>162.29</ele>
        <time>2023-06-15T23:43:03.075Z</time>
      </trkpt>
      <trkpt lat="46.52252" lon="-0.05809">
        <ele>161.03</ele>
        <time>2023-06-15T23:43:55.921Z</time>
      </trkpt>
      <trkpt lat="46.52241" lon="-0.058">
        <ele>160.88</ele>
        <time>2023-06-15T23:44:48.769Z</time>
      </trkpt>
      <trkpt lat="46.5224" lon="-0.058">
        <ele>160.88</ele>
        <time>2023-06-15T23:45:41.618Z</time>
      </trkpt>
      <trkpt lat="46.52232" lon="-0.05798">
        <ele>161.09</ele>
        <time>2023-06-15T23:46:34.468Z</time>
      </trkpt>
      <trkpt lat="46.52228" lon="-0.05797">
        <ele>161.18</ele>
        <time>2023-06-15T23:47:27.319Z</time>
      </trkpt>
      <trkpt lat="46.52219" lon="-0.05795">
        <ele>161.32</ele>
        <time>2023-06-15T23:48:20.171Z</time>
      </trkpt>
      <trkpt lat="46.52211" lon="-0.05798">
        <ele>161.47</ele>
        <time>2023-06-15T23:49:13.024Z</time>
      </trkpt>
      <trkpt lat="46.52206" lon="-0.058">
        <ele>161.56</ele>
        <time>2023-06-15T23:50:05.878Z</time>
      </trkpt>
      <trkpt lat="46.52206" lon="-0.058">
        <ele>161.56</ele>
        <time>2023-06-15T23:50:58.732Z</time>
      </trkpt>
      <trkpt lat="46.52203" lon="-0.05803">
        <ele>161.68</ele>
        <time>2023-06-15T23:51:51.587Z</time>
      </trkpt>
      <trkpt lat="46.52198" lon="-0.05807">
        <ele>161.86</ele>
        <time>2023-06-15T23:52:44.443Z</time>
      </trkpt>
      <trkpt lat="46.52187" lon="-0.05824">
        <ele>162.37</ele>
        <time>2023-06-15T23:53:37.301Z</time>
      </trkpt>
      <trkpt lat="46.52185" lon="-0.05828">
        <ele>162.52</ele>
        <time>2023-06-15T23:54:30.160Z</time>
      </trkpt>
      <trkpt lat="46.52179" lon="-0.05838">
        <ele>162.89</ele>
        <time>2023-06-15T23:55:23.020Z</time>
      </trkpt>
      <trkpt lat="46.52173" lon="-0.05847">
        <ele>163.32</ele>
        <time>2023-06-15T23:56:15.882Z</time>
      </trkpt>
      <trkpt lat="46.52143" lon="-0.05895">
        <ele>164.18</ele>
        <time>2023-06-15T23:57:08.751Z</time>
      </trkpt>
      <trkpt lat="46.52132" lon="-0.05922">
        <ele>164.6</ele>
        <time>2023-06-15T23:58:01.623Z</time>
      </trkpt>
      <trkpt lat="46.5213" lon="-0.05936">
        <ele>164.8</ele>
        <time>2023-06-15T23:58:54.497Z</time>
      </trkpt>
      <trkpt lat="46.52127" lon="-0.06002">
        <ele>165.68</ele>
        <time>2023-06-15T23:59:47.378Z</time>
      </trkpt>
      <trkpt lat="46.5212" lon="-0.06047">
        <ele>166.3</ele>
        <time>2023-06-16T00:00:40.264Z</time>
      </trkpt>
      <trkpt lat="46.52098" lon="-0.0611">
        <ele>167.25</ele>
        <time>2023-06-16T00:01:33.158Z</time>
      </trkpt>
      <trkpt lat="46.52092" lon="-0.06122">
        <ele>167.45</ele>
        <time>2023-06-16T00:02:26.054Z</time>
      </trkpt>
      <trkpt lat="46.52091" lon="-0.06124">
        <ele>167.45</ele>
        <time>2023-06-16T00:03:18.950Z</time>
      </trkpt>
      <trkpt lat="46.52082" lon="-0.06138">
        <ele>167.49</ele>
        <time>2023-06-16T00:04:11.848Z</time>
      </trkpt>
      <trkpt lat="46.52076" lon="-0.06144">
        <ele>167.51</ele>
        <time>2023-06-16T00:05:04.747Z</time>
      </trkpt>
      <trkpt lat="46.52059" lon="-0.06162">
        <ele>167.7</ele>
        <time>2023-06-16T00:05:57.650Z</time>
      </trkpt>
      <trkpt lat="46.52058" lon="-0.06163">
        <ele>167.73</ele>
        <time>2023-06-16T00:06:50.553Z</time>
      </trkpt>
      <trkpt lat="46.52028" lon="-0.06183">
        <ele>168.61</ele>
        <time>2023-06-16T00:07:43.461Z</time>
      </trkpt>
      <trkpt lat="46.5202" lon="-0.06193">
        <ele>168.89</ele>
        <time>2023-06-16T00:08:36.371Z</time>
      </trkpt>
      <trkpt lat="46.52002" lon="-0.06228">
        <ele>169.69</ele>
        <time>2023-06-16T00:09:29.286Z</time>
      </trkpt>
      <trkpt lat="46.51992" lon="-0.06242">
        <ele>170.06</ele>
        <time>2023-06-16T00:10:22.203Z</time>
      </trkpt>
      <trkpt lat="46.51967" lon="-0.06264">
        <ele>170.84</ele>
        <time>2023-06-16T00:11:15.125Z</time>
      </trkpt>
      <trkpt lat="46.51955" lon="-0.06278">
        <ele>171.25</ele>
        <time>2023-06-16T00:12:08.049Z</time>
      </trkpt>
      <trkpt lat="46.51925" lon="-0.06321">
        <ele>172.37</ele>
        <time>2023-06-16T00:13:00.980Z</time>
      </trkpt>
      <trkpt lat="46.51852" lon="-0.06418">
        <ele>175.01</ele>
        <time>2023-06-16T00:13:53.927Z</time>
      </trkpt>
      <trkpt lat="46.51816" lon="-0.06462">
        <ele>176.27</ele>
        <time>2023-06-16T00:14:46.881Z</time>
      </trkpt>
      <trkpt lat="46.51803" lon="-0.06478">
        <ele>175.95</ele>
        <time>2023-06-16T00:15:39.838Z</time>
      </trkpt>
      <trkpt lat="46.51797" lon="-0.06486">
        <ele>175.84</ele>
        <time>2023-06-16T00:16:32.796Z</time>
      </trkpt>
      <trkpt lat="46.51783" lon="-0.06502">
        <ele>175.72</ele>
        <time>2023-06-16T00:17:25.757Z</time>
      </trkpt>
      <trkpt lat="46.51782" lon="-0.06504">
        <ele>175.71</ele>
        <time>2023-06-16T00:18:18.718Z</time>
      </trkpt>
      <trkpt lat="46.51778" lon="-0.06497">
        <ele>175.7</ele>
        <time>2023-06-16T00:19:11.680Z</time>
      </trkpt>
      <trkpt lat="46.51765" lon="-0.06472">
        <ele>175.77</ele>
        <time>2023-06-16T00:20:04.646Z</time>
      </trkpt>
      <trkpt lat="46.51759" lon="-0.06462">
        <ele>175.49</ele>
        <time>2023-06-16T00:20:57.613Z</time>
      </trkpt>
      <trkpt lat="46.51757" lon="-0.06457">
        <ele>175.39</ele>
        <time>2023-06-16T00:21:50.581Z</time>
      </trkpt>
      <trkpt lat="46.51751" lon="-0.06447">
        <ele>175.31</ele>
        <time>2023-06-16T00:22:43.550Z</time>
      </trkpt>
      <trkpt lat="46.51743" lon="-0.06432">
        <ele>175.27</ele>
        <time>2023-06-16T00:23:36.521Z</time>
      </trkpt>
      <trkpt lat="46.51737" lon="-0.06421">
        <ele>175.3</ele>
        <time>2023-06-16T00:24:29.494Z</time>
      </trkpt>
      <trkpt lat="46.51737" lon="-0.06421">
        <ele>175.3</ele>
        <time>2023-06-16T00:25:22.467Z</time>
      </trkpt>
      <trkpt lat="46.5173" lon="-0.06406">
        <ele>175.39</ele>
        <time>2023-06-16T00:26:15.442Z</time>
      </trkpt>
      <trkpt lat="46.51723" lon="-0.06389">
        <ele>175.45</ele>
        <time>2023-06-16T00:27:08.419Z</time>
      </trkpt>
      <trkpt lat="46.51723" lon="-0.06389">
        <ele>175.45</ele>
        <time>2023-06-16T00:28:01.396Z</time>
      </trkpt>
      <trkpt lat="46.51719" lon="-0.06378">
        <ele>175.52</ele>
        <time>2023-06-16T00:28:54.375Z</time>
      </trkpt>
      <trkpt lat="46.51713" lon="-0.06361">
        <ele>175.69</ele>
        <time>2023-06-16T00:29:47.356Z</time>
      </trkpt>
      <trkpt lat="46.51711" lon="-0.06355">
        <ele>175.73</ele>
        <time>2023-06-16T00:30:40.337Z</time>
      </trkpt>
      <trkpt lat="46.51704" lon="-0.06338">
        <ele>175.81</ele>
        <time>2023-06-16T00:31:33.320Z</time>
      </trkpt>
      <trkpt lat="46.51696" lon="-0.06316">
        <ele>175.95</ele>
        <time>2023-06-16T00:32:26.306Z</time>
      </trkpt>
      <trkpt lat="46.51692" lon="-0.06304">
        <ele>175.97</ele>
        <time>2023-06-16T00:33:19.294Z</time>
      </trkpt>
      <trkpt lat="46.51688" lon="-0.06294">
        <ele>175.93</ele>
        <time>2023-06-16T00:34:12.283Z</time>
      </trkpt>
      <trkpt lat="46.5168" lon="-0.06272">
        <ele>175.8</ele>
        <time>2023-06-16T00:35:05.275Z</time>
      </trkpt>
      <trkpt lat="46.51672" lon="-0.06251">
        <ele>175.7</ele>
        <time>2023-06-16T00:35:58.269Z</time>
      </trkpt>
      <trkpt lat="46.51671" lon="-0.06247">
        <ele>175.67</ele>
        <time>2023-06-16T00:36:51.264Z</time>
      </trkpt>
      <trkpt lat="46.51665" lon="-0.06229">
        <ele>175.56</ele>
        <time>2023-06-16T00:37:44.261Z</time>
      </trkpt>
      <trkpt lat="46.51661" lon="-0.06217">
        <ele>175.36</ele>
        <time>2023-06-16T00:38:37.260Z</time>
      </trkpt>
      <trkpt lat="46.51654" lon="-0.06193">
        <ele>175.03</ele>
        <time>2023-06-16T00:39:30.261Z</time>
      </trkpt>
      <trkpt lat="46.51646" lon="-0.0617">
        <ele>174.81</ele>
        <time>2023-06-16T00:40:23.265Z</time>
      </trkpt>
      <trkpt lat="46.51646" lon="-0.0617">
        <ele>174.81</ele>
        <time>2023-06-16T00:41:16.269Z</time>
      </trkpt>
      <trkpt lat="46.51637" lon="-0.06174">
        <ele>174.67</ele>
        <time>2023-06-16T00:42:09.275Z</time>
      </trkpt>
      <trkpt lat="46.5162" lon="-0.06182">
        <ele>174.23</ele>
        <time>2023-06-16T00:43:02.284Z</time>
      </trkpt>
      <trkpt lat="46.51612" lon="-0.06186">
        <ele>173.99</ele>
        <time>2023-06-16T00:43:55.294Z</time>
      </trkpt>
      <trkpt lat="46.51608" lon="-0.06188">
        <ele>173.86</ele>
        <time>2023-06-16T00:44:48.305Z</time>
      </trkpt>
      <trkpt lat="46.51604" lon="-0.06185">
        <ele>173.7</ele>
        <time>2023-06-16T00:45:41.316Z</time>
      </trkpt>
      <trkpt lat="46.51579" lon="-0.06168">
        <ele>172.66</ele>
        <time>2023-06-16T00:46:34.332Z</time>
      </trkpt>
      <trkpt lat="46.51567" lon="-0.06159">
        <ele>172.23</ele>
        <time>2023-06-16T00:47:27.350Z</time>
      </trkpt>
      <trkpt lat="46.51551" lon="-0.06148">
        <ele>171.61</ele>
        <time>2023-06-16T00:48:20.371Z</time>
      </trkpt>
      <trkpt lat="46.51547" lon="-0.06145">
        <ele>171.48</ele>
        <time>2023-06-16T00:49:13.393Z</time>
      </trkpt>
      <trkpt lat="46.51535" lon="-0.06137">
        <ele>171.17</ele>
        <time>2023-06-16T00:50:06.417Z</time>
      </trkpt>
      <trkpt lat="46.51519" lon="-0.06125">
        <ele>170.69</ele>
        <time>2023-06-16T00:50:59.444Z</time>
      </trkpt>
      <trkpt lat="46.51511" lon="-0.0612">
        <ele>170.51</ele>
        <time>2023-06-16T00:51:52.472Z</time>
      </trkpt>
      <trkpt lat="46.51503" lon="-0.06114">
        <ele>170.45</ele>
        <time>2023-06-16T00:52:45.501Z</time>
      </trkpt>
      <trkpt lat="46.51487" lon="-0.06103">
        <ele>170.43</ele>
        <time>2023-06-16T00:53:38.533Z</time>
      </trkpt>
      <trkpt lat="46.51466" lon="-0.06089">
        <ele>170.31</ele>
        <time>2023-06-16T00:54:31.569Z</time>
      </trkpt>
      <trkpt lat="46.51454" lon="-0.0608">
        <ele>170.21</ele>
        <time>2023-06-16T00:55:24.607Z</time>
      </trkpt>
      <trkpt lat="46.51442" lon="-0.06072">
        <ele>170.08</ele>
        <time>2023-06-16T00:56:17.647Z</time>
      </trkpt>
      <trkpt lat="46.51426" lon="-0.0606">
        <ele>169.78</ele>
        <time>2023-06-16T00:57:10.690Z</time>
      </trkpt>
      <trkpt lat="46.51422" lon="-0.06057">
        <ele>169.72</ele>
        <time>2023-06-16T00:58:03.734Z</time>
      </trkpt>
      <trkpt lat="46.51414" lon="-0.06052">
        <ele>169.68</ele>
        <time>2023-06-16T00:58:56.779Z</time>
      </trkpt>
      <trkpt lat="46.51397" lon="-0.0604">
        <ele>169.68</ele>
        <time>2023-06-16T00:59:49.827Z</time>
      </trkpt>
      <trkpt lat="46.51394" lon="-0.06037">
        <ele>169.69</ele>
        <time>2023-06-16T01:00:42.876Z</time>
      </trkpt>
      <trkpt lat="46.5139" lon="-0.06033">
        <ele>169.67</ele>
        <time>2023-06-16T01:01:35.926Z</time>
      </trkpt>
      <trkpt lat="46.51369" lon="-0.0601">
        <ele>169.47</ele>
        <time>2023-06-16T01:02:28.980Z</time>
      </trkpt>
      <trkpt lat="46.51361" lon="-0.06003">
        <ele>169.37</ele>
        <time>2023-06-16T01:03:22.035Z</time>
      </trkpt>
      <trkpt lat="46.51358" lon="-0.05999">
        <ele>169.29</ele>
        <time>2023-06-16T01:04:15.091Z</time>
      </trkpt>
      <trkpt lat="46.51354" lon="-0.05995">
        <ele>169.18</ele>
        <time>2023-06-16T01:05:08.148Z</time>
      </trkpt>
      <trkpt lat="46.51349" lon="-0.0599">
        <ele>168.98</ele>
        <time>2023-06-16T01:06:01.206Z</time>
      </trkpt>
      <trkpt lat="46.51347" lon="-0.05987">
        <ele>168.89</ele>
        <time>2023-06-16T01:06:54.264Z</time>
      </trkpt>
      <trkpt lat="46.51341" lon="-0.05978">
        <ele>168.51</ele>
        <time>2023-06-16T01:07:47.324Z</time>
      </trkpt>
      <trkpt lat="46.51337" lon="-0.05973">
        <ele>168.27</ele>
        <time>2023-06-16T01:08:40.384Z</time>
      </trkpt>
      <trkpt lat="46.51334" lon="-0.05969">
        <ele>168</ele>
        <time>2023-06-16T01:09:33.445Z</time>
      </trkpt>
      <trkpt lat="46.51328" lon="-0.0596">
        <ele>167.42</ele>
        <time>2023-06-16T01:10:26.507Z</time>
      </trkpt>
      <trkpt lat="46.51315" lon="-0.05941">
        <ele>166.32</ele>
        <time>2023-06-16T01:11:19.572Z</time>
      </trkpt>
      <trkpt lat="46.51309" lon="-0.05932">
        <ele>165.09</ele>
        <time>2023-06-16T01:12:12.639Z</time>
      </trkpt>
      <trkpt lat="46.51306" lon="-0.05928">
        <ele>164.53</ele>
        <time>2023-06-16T01:13:05.706Z</time>
      </trkpt>
      <trkpt lat="46.51299" lon="-0.05918">
        <ele>163.53</ele>
        <time>2023-06-16T01:13:58.775Z</time>
      </trkpt>
      <trkpt lat="46.51299" lon="-0.05918">
        <ele>163.53</ele>
        <time>2023-06-16T01:14:51.844Z</time>
      </trkpt>
      <trkpt lat="46.51293" lon="-0.05909">
        <ele>162.63</ele>
        <time>2023-06-16T01:15:44.914Z</time>
      </trkpt>
      <trkpt lat="46.51287" lon="-0.05899">
        <ele>161.8</ele>
        <time>2023-06-16T01:16:37.986Z</time>
      </trkpt>
      <trkpt lat="46.51284" lon="-0.05893">
        <ele>161.33</ele>
        <time>2023-06-16T01:17:31.059Z</time>
      </trkpt>
      <trkpt lat="46.51282" lon="-0.05897">
        <ele>161.02</ele>
        <time>2023-06-16T01:18:24.132Z</time>
      </trkpt>
      <trkpt lat="46.51274" lon="-0.05914">
        <ele>159.88</ele>
        <time>2023-06-16T01:19:17.207Z</time>
      </trkpt>
      <trkpt lat="46.51269" lon="-0.05924">
        <ele>159.19</ele>
        <time>2023-06-16T01:20:10.284Z</time>
      </trkpt>
      <trkpt lat="46.51267" lon="-0.0593">
        <ele>158.86</ele>
        <time>2023-06-16T01:21:03.362Z</time>
      </trkpt>
      <trkpt lat="46.51264" lon="-0.05935">
        <ele>158.56</ele>
        <time>2023-06-16T01:21:56.440Z</time>
      </trkpt>
      <trkpt lat="46.51262" lon="-0.05941">
        <ele>158.3</ele>
        <time>2023-06-16T01:22:49.519Z</time>
      </trkpt>
      <trkpt lat="46.51259" lon="-0.05946">
        <ele>158.07</ele>
        <time>2023-06-16T01:23:42.599Z</time>
      </trkpt>
      <trkpt lat="46.51254" lon="-0.05957">
        <ele>157.68</ele>
        <time>2023-06-16T01:24:35.680Z</time>
      </trkpt>
      <trkpt lat="46.51247" lon="-0.05973">
        <ele>157.18</ele>
        <time>2023-06-16T01:25:28.763Z</time>
      </trkpt>
      <trkpt lat="46.51244" lon="-0.05979">
        <ele>157.03</ele>
        <time>2023-06-16T01:26:21.847Z</time>
      </trkpt>
      <trkpt lat="46.5124" lon="-0.0598">
        <ele>156.92</ele>
        <time>2023-06-16T01:27:14.932Z</time>
      </trkpt>
      <trkpt lat="46.51236" lon="-0.05981">
        <ele>156.84</ele>
        <time>2023-06-16T01:28:08.017Z</time>
      </trkpt>
      <trkpt lat="46.51209" lon="-0.05988">
        <ele>156.47</ele>
        <time>2023-06-16T01:29:01.107Z</time>
      </trkpt>
      <trkpt lat="46.51201" lon="-0.05991">
        <ele>156.27</ele>
        <time>2023-06-16T01:29:54.198Z</time>
      </trkpt>
      <trkpt lat="46.51196" lon="-0.05992">
        <ele>156.13</ele>
        <time>2023-06-16T01:30:47.290Z</time>
      </trkpt>
      <trkpt lat="46.51178" lon="-0.05997">
        <ele>155.52</ele>
        <time>2023-06-16T01:31:40.385Z</time>
      </trkpt>
      <trkpt lat="46.51178" lon="-0.05997">
        <ele>155.52</ele>
        <time>2023-06-16T01:32:33.480Z</time>
      </trkpt>
      <trkpt lat="46.51161" lon="-0.06002">
        <ele>154.84</ele>
        <time>2023-06-16T01:33:26.578Z</time>
      </trkpt>
      <trkpt lat="46.51157" lon="-0.06004">
        <ele>154.71</ele>
        <time>2023-06-16T01:34:19.676Z</time>
      </trkpt>
      <trkpt lat="46.51139" lon="-0.0601">
        <ele>154.29</ele>
        <time>2023-06-16T01:35:12.777Z</time>
      </trkpt>
      <trkpt lat="46.51135" lon="-0.06011">
        <ele>154.14</ele>
        <time>2023-06-16T01:36:05.879Z</time>
      </trkpt>
      <trkpt lat="46.5113" lon="-0.06012">
        <ele>153.95</ele>
        <time>2023-06-16T01:36:58.982Z</time>
      </trkpt>
      <trkpt lat="46.51126" lon="-0.06014">
        <ele>153.7</ele>
        <time>2023-06-16T01:37:52.085Z</time>
      </trkpt>
      <trkpt lat="46.51122" lon="-0.06015">
        <ele>153.43</ele>
        <time>2023-06-16T01:38:45.189Z</time>
      </trkpt>
      <trkpt lat="46.51115" lon="-0.06017">
        <ele>153.42</ele>
        <time>2023-06-16T01:39:38.294Z</time>
      </trkpt>
      <trkpt lat="46.51113" lon="-0.06018">
        <ele>153.35</ele>
        <time>2023-06-16T01:40:31.400Z</time>
      </trkpt>
      <trkpt lat="46.51084" lon="-0.06022">
        <ele>152.45</ele>
        <time>2023-06-16T01:41:24.510Z</time>
      </trkpt>
      <trkpt lat="46.51062" lon="-0.06025">
        <ele>151.68</ele>
        <time>2023-06-16T01:42:17.624Z</time>
      </trkpt>
      <trkpt lat="46.51053" lon="-0.06026">
        <ele>151.46</ele>
        <time>2023-06-16T01:43:10.739Z</time>
      </trkpt>
      <trkpt lat="46.51049" lon="-0.06027">
        <ele>151.38</ele>
        <time>2023-06-16T01:44:03.855Z</time>
      </trkpt>
      <trkpt lat="46.51036" lon="-0.06034">
        <ele>151.09</ele>
        <time>2023-06-16T01:44:56.973Z</time>
      </trkpt>
      <trkpt lat="46.51023" lon="-0.0604">
        <ele>150.76</ele>
        <time>2023-06-16T01:45:50.093Z</time>
      </trkpt>
      <trkpt lat="46.51014" lon="-0.06044">
        <ele>150.52</ele>
        <time>2023-06-16T01:46:43.215Z</time>
      </trkpt>
      <trkpt lat="46.50997" lon="-0.06053">
        <ele>149.95</ele>
        <time>2023-06-16T01:47:36.340Z</time>
      </trkpt>
      <trkpt lat="46.50991" lon="-0.06056">
        <ele>149.77</ele>
        <time>2023-06-16T01:48:29.466Z</time>
      </trkpt>
      <trkpt lat="46.50985" lon="-0.06061">
        <ele>149.61</ele>
        <time>2023-06-16T01:49:22.593Z</time>
      </trkpt>
      <trkpt lat="46.50978" lon="-0.06068">
        <ele>149.35</ele>
        <time>2023-06-16T01:50:15.721Z</time>
      </trkpt>
      <trkpt lat="46.50964" lon="-0.06081">
        <ele>148.77</ele>
        <time>2023-06-16T01:51:08.852Z</time>
      </trkpt>
      <trkpt lat="46.50958" lon="-0.0608">
        <ele>148.57</ele>
        <time>2023-06-16T01:52:01.984Z</time>
      </trkpt>
      <trkpt lat="46.50949" lon="-0.0608">
        <ele>148.28</ele>
        <time>2023-06-16T01:52:55.117Z</time>
      </trkpt>
      <trkpt lat="46.50945" lon="-0.06079">
        <ele>148.15</ele>
        <time>2023-06-16T01:53:48.251Z</time>
      </trkpt>
      <trkpt lat="46.50942" lon="-0.06079">
        <ele>148.08</ele>
        <time>2023-06-16T01:54:41.385Z</time>
      </trkpt>
      <trkpt lat="46.5094" lon="-0.0608">
        <ele>148.04</ele>
        <time>2023-06-16T01:55:34.520Z</time>
      </trkpt>
      <trkpt lat="46.50932" lon="-0.06083">
        <ele>147.87</ele>
        <time>2023-06-16T01:56:27.656Z</time>
      </trkpt>
      <trkpt lat="46.50927" lon="-0.06085">
        <ele>147.81</ele>
        <time>2023-06-16T01:57:20.793Z</time>
      </trkpt>
      <trkpt lat="46.50914" lon="-0.0609">
        <ele>147.72</ele>
        <time>2023-06-16T01:58:13.932Z</time>
      </trkpt>
      <trkpt lat="46.50914" lon="-0.0609">
        <ele>147.72</ele>
        <time>2023-06-16T01:59:07.071Z</time>
      </trkpt>
      <trkpt lat="46.5091" lon="-0.06091">
        <ele>147.63</ele>
        <time>2023-06-16T02:00:00.211Z</time>
      </trkpt>
      <trkpt lat="46.50906" lon="-0.06092">
        <ele>147.45</ele>
        <time>2023-06-16T02:00:53.351Z</time>
      </trkpt>
      <trkpt lat="46.50901" lon="-0.06093">
        <ele>147.21</ele>
        <time>2023-06-16T02:01:46.492Z</time>
      </trkpt>
      <trkpt lat="46.50888" lon="-0.06097">
        <ele>146.29</ele>
        <time>2023-06-16T02:02:39.635Z</time>
      </trkpt>
      <trkpt lat="46.50888" lon="-0.06097">
        <ele>146.29</ele>
        <time>2023-06-16T02:03:32.778Z</time>
      </trkpt>
      <trkpt lat="46.50885" lon="-0.06092">
        <ele>146.02</ele>
        <time>2023-06-16T02:04:25.922Z</time>
      </trkpt>
      <trkpt lat="46.50882" lon="-0.06087">
        <ele>145.8</ele>
        <time>2023-06-16T02:05:19.067Z</time>
      </trkpt>
      <trkpt lat="46.50879" lon="-0.06082">
        <ele>145.62</ele>
        <time>2023-06-16T02:06:12.212Z</time>
      </trkpt>
      <trkpt lat="46.50876" lon="-0.06076">
        <ele>145.51</ele>
        <time>2023-06-16T02:07:05.358Z</time>
      </trkpt>
      <trkpt lat="46.50876" lon="-0.06076">
        <ele>145.51</ele>
        <time>2023-06-16T02:07:58.504Z</time>
      </trkpt>
      <trkpt lat="46.50874" lon="-0.06072">
        <ele>145.43</ele>
        <time>2023-06-16T02:08:51.651Z</time>
      </trkpt>
      <trkpt lat="46.50872" lon="-0.06066">
        <ele>145.4</ele>
        <time>2023-06-16T02:09:44.798Z</time>
      </trkpt>
      <trkpt lat="46.50869" lon="-0.06061">
        <ele>145.4</ele>
        <time>2023-06-16T02:10:37.946Z</time>
      </trkpt>
      <trkpt lat="46.50867" lon="-0.06055">
        <ele>145.43</ele>
        <time>2023-06-16T02:11:31.095Z</time>
      </trkpt>
      <trkpt lat="46.50864" lon="-0.0605">
        <ele>145.49</ele>
        <time>2023-06-16T02:12:24.245Z</time>
      </trkpt>
      <trkpt lat="46.50855" lon="-0.06028">
        <ele>145.84</ele>
        <time>2023-06-16T02:13:17.397Z</time>
      </trkpt>
      <trkpt lat="46.50854" lon="-0.06027">
        <ele>145.85</ele>
        <time>2023-06-16T02:14:10.550Z</time>
      </trkpt>
      <trkpt lat="46.50828" lon="-0.06013">
        <ele>146.24</ele>
        <time>2023-06-16T02:15:03.707Z</time>
      </trkpt>
      <trkpt lat="46.50821" lon="-0.06017">
        <ele>146.34</ele>
        <time>2023-06-16T02:15:56.865Z</time>
      </trkpt>
      <trkpt lat="46.50809" lon="-0.06024">
        <ele>146.62</ele>
        <time>2023-06-16T02:16:50.025Z</time>
      </trkpt>
      <trkpt lat="46.50801" lon="-0.06029">
        <ele>146.84</ele>
        <time>2023-06-16T02:17:43.187Z</time>
      </trkpt>
      <trkpt lat="46.50792" lon="-0.06034">
        <ele>147.12</ele>
        <time>2023-06-16T02:18:36.350Z</time>
      </trkpt>
      <trkpt lat="46.50788" lon="-0.06036">
        <ele>147.28</ele>
        <time>2023-06-16T02:19:29.514Z</time>
      </trkpt>
      <trkpt lat="46.5078" lon="-0.06041">
        <ele>147.64</ele>
        <time>2023-06-16T02:20:22.679Z</time>
      </trkpt>
      <trkpt lat="46.50776" lon="-0.06043">
        <ele>147.81</ele>
        <time>2023-06-16T02:21:15.845Z</time>
      </trkpt>
      <trkpt lat="46.50777" lon="-0.0605">
        <ele>148.03</ele>
        <time>2023-06-16T02:22:09.012Z</time>
      </trkpt>
      <trkpt lat="46.50779" lon="-0.06063">
        <ele>148.48</ele>
        <time>2023-06-16T02:23:02.180Z</time>
      </trkpt>
      <trkpt lat="46.50782" lon="-0.06082">
        <ele>149.2</ele>
        <time>2023-06-16T02:23:55.350Z</time>
      </trkpt>
      <trkpt lat="46.50784" lon="-0.06095">
        <ele>149.64</ele>
        <time>2023-06-16T02:24:48.522Z</time>
      </trkpt>
      <trkpt lat="46.50784" lon="-0.06095">
        <ele>149.64</ele>
        <time>2023-06-16T02:25:41.694Z</time>
      </trkpt>
      <trkpt lat="46.50787" lon="-0.06129">
        <ele>149.81</ele>
        <time>2023-06-16T02:26:34.870Z</time>
      </trkpt>
      <trkpt lat="46.50782" lon="-0.0616">
        <ele>149.96</ele>
        <time>2023-06-16T02:27:28.049Z</time>
      </trkpt>
      <trkpt lat="46.50781" lon="-0.06208">
        <ele>150.2</ele>
        <time>2023-06-16T02:28:21.234Z</time>
      </trkpt>
      <trkpt lat="46.50778" lon="-0.06214">
        <ele>150.24</ele>
        <time>2023-06-16T02:29:14.419Z</time>
      </trkpt>
      <trkpt lat="46.50764" lon="-0.06249">
        <ele>151.85</ele>
        <time>2023-06-16T02:30:07.609Z</time>
      </trkpt>
      <trkpt lat="46.50758" lon="-0.06273">
        <ele>152.86</ele>
        <time>2023-06-16T02:31:00.802Z</time>
      </trkpt>
      <trkpt lat="46.50757" lon="-0.06292">
        <ele>153.62</ele>
        <time>2023-06-16T02:31:53.997Z</time>
      </trkpt>
      <trkpt lat="46.5077" lon="-0.06324">
        <ele>155.1</ele>
        <time>2023-06-16T02:32:47.196Z</time>
      </trkpt>
      <trkpt lat="46.50773" lon="-0.06339">
        <ele>155.73</ele>
        <time>2023-06-16T02:33:40.397Z</time>
      </trkpt>
      <trkpt lat="46.50775" lon="-0.06353">
        <ele>156.29</ele>
        <time>2023-06-16T02:34:33.599Z</time>
      </trkpt>
      <trkpt lat="46.50774" lon="-0.06371">
        <ele>157.07</ele>
        <time>2023-06-16T02:35:26.803Z</time>
      </trkpt>
      <trkpt lat="46.50774" lon="-0.06372">
        <ele>157.07</ele>
        <time>2023-06-16T02:36:20.007Z</time>
      </trkpt>
      <trkpt lat="46.5077" lon="-0.06385">
        <ele>157.22</ele>
        <time>2023-06-16T02:37:13.213Z</time>
      </trkpt>
      <trkpt lat="46.5076" lon="-0.0641">
        <ele>157.55</ele>
        <time>2023-06-16T02:38:06.422Z</time>
      </trkpt>
      <trkpt lat="46.50752" lon="-0.06431">
        <ele>157.92</ele>
        <time>2023-06-16T02:38:59.634Z</time>
      </trkpt>
      <trkpt lat="46.50746" lon="-0.0644">
        <ele>158.11</ele>
        <time>2023-06-16T02:39:52.847Z</time>
      </trkpt>
      <trkpt lat="46.50743" lon="-0.06453">
        <ele>158.32</ele>
        <time>2023-06-16T02:40:46.062Z</time>
      </trkpt>
      <trkpt lat="46.50741" lon="-0.06468">
        <ele>158.55</ele>
        <time>2023-06-16T02:41:39.278Z</time>
      </trkpt>
      <trkpt lat="46.50728" lon="-0.06483">
        <ele>158.92</ele>
        <time>2023-06-16T02:42:32.497Z</time>
      </trkpt>
      <trkpt lat="46.50713" lon="-0.06514">
        <ele>159.5</ele>
        <time>2023-06-16T02:43:25.720Z</time>
      </trkpt>
      <trkpt lat="46.50695" lon="-0.06536">
        <ele>160.02</ele>
        <time>2023-06-16T02:44:18.947Z</time>
      </trkpt>
      <trkpt lat="46.50666" lon="-0.06557">
        <ele>160.74</ele>
        <time>2023-06-16T02:45:12.179Z</time>
      </trkpt>
      <trkpt lat="46.50612" lon="-0.0659">
        <ele>162.04</ele>
        <time>2023-06-16T02:46:05.420Z</time>
      </trkpt>
      <trkpt lat="46.50551" lon="-0.06622">
        <ele>163.47</ele>
        <time>2023-06-16T02:46:58.672Z</time>
      </trkpt>
      <trkpt lat="46.5053" lon="-0.06647">
        <ele>164.08</ele>
        <time>2023-06-16T02:47:51.928Z</time>
      </trkpt>
      <trkpt lat="46.50514" lon="-0.06675">
        <ele>164.63</ele>
        <time>2023-06-16T02:48:45.188Z</time>
      </trkpt>
      <trkpt lat="46.50487" lon="-0.06701">
        <ele>165.35</ele>
        <time>2023-06-16T02:49:38.453Z</time>
      </trkpt>
      <trkpt lat="46.50448" lon="-0.06722">
        <ele>166.27</ele>
        <time>2023-06-16T02:50:31.725Z</time>
      </trkpt>
      <trkpt lat="46.50405" lon="-0.06736">
        <ele>167.25</ele>
        <time>2023-06-16T02:51:25.004Z</time>
      </trkpt>
      <trkpt lat="46.50384" lon="-0.06754">
        <ele>167.79</ele>
        <time>2023-06-16T02:52:18.287Z</time>
      </trkpt>
      <trkpt lat="46.50366" lon="-0.06779">
        <ele>168.34</ele>
        <time>2023-06-16T02:53:11.574Z</time>
      </trkpt>
      <trkpt lat="46.5035" lon="-0.06797">
        <ele>168.79</ele>
        <time>2023-06-16T02:54:04.864Z</time>
      </trkpt>
      <trkpt lat="46.5029" lon="-0.06846">
        <ele>170.31</ele>
        <time>2023-06-16T02:54:58.165Z</time>
      </trkpt>
      <trkpt lat="46.50251" lon="-0.06878">
        <ele>170.18</ele>
        <time>2023-06-16T02:55:51.473Z</time>
      </trkpt>
      <trkpt lat="46.50248" lon="-0.06862">
        <ele>170.15</ele>
        <time>2023-06-16T02:56:44.783Z</time>
      </trkpt>
      <trkpt lat="46.50242" lon="-0.06824">
        <ele>170.19</ele>
        <time>2023-06-16T02:57:38.098Z</time>
      </trkpt>
      <trkpt lat="46.50239" lon="-0.06805">
        <ele>170.24</ele>
        <time>2023-06-16T02:58:31.415Z</time>
      </trkpt>
      <trkpt lat="46.50237" lon="-0.0679">
        <ele>170.33</ele>
        <time>2023-06-16T02:59:24.733Z</time>
      </trkpt>
      <trkpt lat="46.50227" lon="-0.06743">
        <ele>170.62</ele>
        <time>2023-06-16T03:00:18.057Z</time>
      </trkpt>
      <trkpt lat="46.50218" lon="-0.06704">
        <ele>170.94</ele>
        <time>2023-06-16T03:01:11.385Z</time>
      </trkpt>
      <trkpt lat="46.50216" lon="-0.06694">
        <ele>171.03</ele>
        <time>2023-06-16T03:02:04.715Z</time>
      </trkpt>
      <trkpt lat="46.50207" lon="-0.06631">
        <ele>171.47</ele>
        <time>2023-06-16T03:02:58.052Z</time>
      </trkpt>
      <trkpt lat="46.50202" lon="-0.06599">
        <ele>171.75</ele>
        <time>2023-06-16T03:03:51.392Z</time>
      </trkpt>
      <trkpt lat="46.50201" lon="-0.06593">
        <ele>171.78</ele>
        <time>2023-06-16T03:04:44.733Z</time>
      </trkpt>
      <trkpt lat="46.50195" lon="-0.06562">
        <ele>171.96</ele>
        <time>2023-06-16T03:05:38.078Z</time>
      </trkpt>
      <trkpt lat="46.50192" lon="-0.0655">
        <ele>172</ele>
        <time>2023-06-16T03:06:31.424Z</time>
      </trkpt>
      <trkpt lat="46.50192" lon="-0.0655">
        <ele>172</ele>
        <time>2023-06-16T03:07:24.770Z</time>
      </trkpt>
      <trkpt lat="46.50183" lon="-0.06513">
        <ele>172.05</ele>
        <time>2023-06-16T03:08:18.120Z</time>
      </trkpt>
      <trkpt lat="46.50165" lon="-0.06442">
        <ele>172.04</ele>
        <time>2023-06-16T03:09:11.479Z</time>
      </trkpt>
      <trkpt lat="46.50158" lon="-0.06415">
        <ele>172</ele>
        <time>2023-06-16T03:10:04.841Z</time>
      </trkpt>
      <trkpt lat="46.50157" lon="-0.06412">
        <ele>172</ele>
        <time>2023-06-16T03:10:58.203Z</time>
      </trkpt>
      <trkpt lat="46.5015" lon="-0.06393">
        <ele>171.95</ele>
        <time>2023-06-16T03:11:51.568Z</time>
      </trkpt>
      <trkpt lat="46.50145" lon="-0.06386">
        <ele>171.94</ele>
        <time>2023-06-16T03:12:44.934Z</time>
      </trkpt>
      <trkpt lat="46.50128" lon="-0.06362">
        <ele>171.8</ele>
        <time>2023-06-16T03:13:38.303Z</time>
      </trkpt>
      <trkpt lat="46.50126" lon="-0.0636">
        <ele>171.79</ele>
        <time>2023-06-16T03:14:31.673Z</time>
      </trkpt>
      <trkpt lat="46.50096" lon="-0.06331">
        <ele>171.63</ele>
        <time>2023-06-16T03:15:25.049Z</time>
      </trkpt>
      <trkpt lat="46.50059" lon="-0.06296">
        <ele>171.53</ele>
        <time>2023-06-16T03:16:18.432Z</time>
      </trkpt>
      <trkpt lat="46.50037" lon="-0.06275">
        <ele>171.51</ele>
        <time>2023-06-16T03:17:11.819Z</time>
      </trkpt>
      <trkpt lat="46.50004" lon="-0.06243">
        <ele>171.53</ele>
        <time>2023-06-16T03:18:05.212Z</time>
      </trkpt>
      <trkpt lat="46.49993" lon="-0.06233">
        <ele>171.56</ele>
        <time>2023-06-16T03:18:58.607Z</time>
      </trkpt>
      <trkpt lat="46.49982" lon="-0.06222">
        <ele>171.67</ele>
        <time>2023-06-16T03:19:52.005Z</time>
      </trkpt>
      <trkpt lat="46.49967" lon="-0.06208">
        <ele>171.88</ele>
        <time>2023-06-16T03:20:45.405Z</time>
      </trkpt>
      <trkpt lat="46.49956" lon="-0.06198">
        <ele>171.81</ele>
        <time>2023-06-16T03:21:38.807Z</time>
      </trkpt>
      <trkpt lat="46.49949" lon="-0.06191">
        <ele>171.73</ele>
        <time>2023-06-16T03:22:32.211Z</time>
      </trkpt>
      <trkpt lat="46.49941" lon="-0.06184">
        <ele>171.62</ele>
        <time>2023-06-16T03:23:25.616Z</time>
      </trkpt>
      <trkpt lat="46.49912" lon="-0.06156">
        <ele>171.12</ele>
        <time>2023-06-16T03:24:19.027Z</time>
      </trkpt>
      <trkpt lat="46.49903" lon="-0.06147">
        <ele>170.94</ele>
        <time>2023-06-16T03:25:12.440Z</time>
      </trkpt>
      <trkpt lat="46.49895" lon="-0.06137">
        <ele>170.77</ele>
        <time>2023-06-16T03:26:05.854Z</time>
      </trkpt>
      <trkpt lat="46.4987" lon="-0.06108">
        <ele>169.99</ele>
        <time>2023-06-16T03:26:59.273Z</time>
      </trkpt>
      <trkpt lat="46.4986" lon="-0.06095">
        <ele>169.68</ele>
        <time>2023-06-16T03:27:52.695Z</time>
      </trkpt>
      <trkpt lat="46.49857" lon="-0.06091">
        <ele>169.58</ele>
        <time>2023-06-16T03:28:46.117Z</time>
      </trkpt>
      <trkpt lat="46.4984" lon="-0.06068">
        <ele>169.03</ele>
        <time>2023-06-16T03:29:39.543Z</time>
      </trkpt>
      <trkpt lat="46.49818" lon="-0.06037">
        <ele>168.3</ele>
        <time>2023-06-16T03:30:32.974Z</time>
      </trkpt>
      <trkpt lat="46.49808" lon="-0.06023">
        <ele>168.01</ele>
        <time>2023-06-16T03:31:26.407Z</time>
      </trkpt>
      <trkpt lat="46.49785" lon="-0.05992">
        <ele>167.41</ele>
        <time>2023-06-16T03:32:19.845Z</time>
      </trkpt>
      <trkpt lat="46.49775" lon="-0.05979">
        <ele>167.17</ele>
        <time>2023-06-16T03:33:13.285Z</time>
      </trkpt>
      <trkpt lat="46.49759" lon="-0.05956">
        <ele>166.84</ele>
        <time>2023-06-16T03:34:06.729Z</time>
      </trkpt>
      <trkpt lat="46.49749" lon="-0.05943">
        <ele>166.69</ele>
        <time>2023-06-16T03:35:00.175Z</time>
      </trkpt>
      <trkpt lat="46.49731" lon="-0.05926">
        <ele>166.46</ele>
        <time>2023-06-16T03:35:53.624Z</time>
      </trkpt>
      <trkpt lat="46.49722" lon="-0.05918">
        <ele>166.3</ele>
        <time>2023-06-16T03:36:47.075Z</time>
      </trkpt>
      <trkpt lat="46.49711" lon="-0.05907">
        <ele>166.06</ele>
        <time>2023-06-16T03:37:40.528Z</time>
      </trkpt>
      <trkpt lat="46.49707" lon="-0.05904">
        <ele>165.98</ele>
        <time>2023-06-16T03:38:33.982Z</time>
      </trkpt>
      <trkpt lat="46.49695" lon="-0.05895">
        <ele>165.77</ele>
        <time>2023-06-16T03:39:27.438Z</time>
      </trkpt>
      <trkpt lat="46.49685" lon="-0.05887">
        <ele>165.39</ele>
        <time>2023-06-16T03:40:20.896Z</time>
      </trkpt>
      <trkpt lat="46.49682" lon="-0.05885">
        <ele>165.28</ele>
        <time>2023-06-16T03:41:14.355Z</time>
      </trkpt>
      <trkpt lat="46.49672" lon="-0.05874">
        <ele>164.85</ele>
        <time>2023-06-16T03:42:07.816Z</time>
      </trkpt>
      <trkpt lat="46.49658" lon="-0.05858">
        <ele>164.31</ele>
        <time>2023-06-16T03:43:01.279Z</time>
      </trkpt>
      <trkpt lat="46.49655" lon="-0.05862">
        <ele>164.2</ele>
        <time>2023-06-16T03:43:54.743Z</time>
      </trkpt>
      <trkpt lat="46.49647" lon="-0.05877">
        <ele>163.23</ele>
        <time>2023-06-16T03:44:48.209Z</time>
      </trkpt>
      <trkpt lat="46.49626" lon="-0.05912">
        <ele>160.7</ele>
        <time>2023-06-16T03:45:41.680Z</time>
      </trkpt>
      <trkpt lat="46.49627" lon="-0.05916">
        <ele>160.47</ele>
        <time>2023-06-16T03:46:35.152Z</time>
      </trkpt>
      <trkpt lat="46.49629" lon="-0.05927">
        <ele>159.88</ele>
        <time>2023-06-16T03:47:28.625Z</time>
      </trkpt>
      <trkpt lat="46.49626" lon="-0.05941">
        <ele>159.15</ele>
        <time>2023-06-16T03:48:22.100Z</time>
      </trkpt>
      <trkpt lat="46.49622" lon="-0.05959">
        <ele>158.19</ele>
        <time>2023-06-16T03:49:15.577Z</time>
      </trkpt>
      <trkpt lat="46.4962" lon="-0.05968">
        <ele>157.72</ele>
        <time>2023-06-16T03:50:09.055Z</time>
      </trkpt>
      <trkpt lat="46.4962" lon="-0.05971">
        <ele>157.59</ele>
        <time>2023-06-16T03:51:02.533Z</time>
      </trkpt>
      <trkpt lat="46.49618" lon="-0.05983">
        <ele>157.03</ele>
        <time>2023-06-16T03:51:56.012Z</time>
      </trkpt>
      <trkpt lat="46.49616" lon="-0.05996">
        <ele>156.52</ele>
        <time>2023-06-16T03:52:49.493Z</time>
      </trkpt>
      <trkpt lat="46.49615" lon="-0.06004">
        <ele>156.19</ele>
        <time>2023-06-16T03:53:42.975Z</time>
      </trkpt>
      <trkpt lat="46.49614" lon="-0.06015">
        <ele>155.79</ele>
        <time>2023-06-16T03:54:36.458Z</time>
      </trkpt>
      <trkpt lat="46.49614" lon="-0.06024">
        <ele>155.52</ele>
        <time>2023-06-16T03:55:29.942Z</time>
      </trkpt>
      <trkpt lat="46.49614" lon="-0.06033">
        <ele>155.27</ele>
        <time>2023-06-16T03:56:23.427Z</time>
      </trkpt>
      <trkpt lat="46.49614" lon="-0.06046">
        <ele>154.96</ele>
        <time>2023-06-16T03:57:16.913Z</time>
      </trkpt>
      <trkpt lat="46.49615" lon="-0.06081">
        <ele>154.16</ele>
        <time>2023-06-16T03:58:10.403Z</time>
      </trkpt>
      <trkpt lat="46.49601" lon="-0.06085">
        <ele>153.7</ele>
        <time>2023-06-16T03:59:03.896Z</time>
      </trkpt>
      <trkpt lat="46.49588" lon="-0.06088">
        <ele>153.22</ele>
        <time>2023-06-16T03:59:57.391Z</time>
      </trkpt>
      <trkpt lat="46.49575" lon="-0.06092">
        <ele>152.35</ele>
        <time>2023-06-16T04:00:50.888Z</time>
      </trkpt>
      <trkpt lat="46.49567" lon="-0.06094">
        <ele>151.68</ele>
        <time>2023-06-16T04:01:44.386Z</time>
      </trkpt>
      <trkpt lat="46.49564" lon="-0.06095">
        <ele>151.45</ele>
        <time>2023-06-16T04:02:37.885Z</time>
      </trkpt>
      <trkpt lat="46.49558" lon="-0.06095">
        <ele>150.95</ele>
        <time>2023-06-16T04:03:31.385Z</time>
      </trkpt>
      <trkpt lat="46.49543" lon="-0.06095">
        <ele>149.63</ele>
        <time>2023-06-16T04:04:24.887Z</time>
      </trkpt>
      <trkpt lat="46.49539" lon="-0.06104">
        <ele>148.98</ele>
        <time>2023-06-16T04:05:18.390Z</time>
      </trkpt>
      <trkpt lat="46.49536" lon="-0.06109">
        <ele>148.61</ele>
        <time>2023-06-16T04:06:11.894Z</time>
      </trkpt>
      <trkpt lat="46.49533" lon="-0.06115">
        <ele>148.28</ele>
        <time>2023-06-16T04:07:05.399Z</time>
      </trkpt>
      <trkpt lat="46.49533" lon="-0.06115">
        <ele>148.28</ele>
        <time>2023-06-16T04:07:58.904Z</time>
      </trkpt>
      <trkpt lat="46.4953" lon="-0.06118">
        <ele>147.99</ele>
        <time>2023-06-16T04:08:52.409Z</time>
      </trkpt>
      <trkpt lat="46.49526" lon="-0.06122">
        <ele>147.73</ele>
        <time>2023-06-16T04:09:45.915Z</time>
      </trkpt>
      <trkpt lat="46.49516" lon="-0.06133">
        <ele>147.03</ele>
        <time>2023-06-16T04:10:39.423Z</time>
      </trkpt>
      <trkpt lat="46.49516" lon="-0.06133">
        <ele>147.03</ele>
        <time>2023-06-16T04:11:32.931Z</time>
      </trkpt>
      <trkpt lat="46.49508" lon="-0.06139">
        <ele>146.65</ele>
        <time>2023-06-16T04:12:26.441Z</time>
      </trkpt>
      <trkpt lat="46.49496" lon="-0.06148">
        <ele>146.22</ele>
        <time>2023-06-16T04:13:19.953Z</time>
      </trkpt>
      <trkpt lat="46.49488" lon="-0.06153">
        <ele>146</ele>
        <time>2023-06-16T04:14:13.466Z</time>
      </trkpt>
      <trkpt lat="46.4948" lon="-0.06159">
        <ele>145.88</ele>
        <time>2023-06-16T04:15:06.981Z</time>
      </trkpt>
      <trkpt lat="46.49479" lon="-0.0616">
        <ele>145.87</ele>
        <time>2023-06-16T04:16:00.496Z</time>
      </trkpt>
      <trkpt lat="46.49472" lon="-0.06164">
        <ele>145.84</ele>
        <time>2023-06-16T04:16:54.012Z</time>
      </trkpt>
      <trkpt lat="46.49463" lon="-0.06168">
        <ele>145.84</ele>
        <time>2023-06-16T04:17:47.529Z</time>
      </trkpt>
      <trkpt lat="46.49462" lon="-0.06169">
        <ele>145.84</ele>
        <time>2023-06-16T04:18:41.047Z</time>
      </trkpt>
      <trkpt lat="46.49459" lon="-0.06178">
        <ele>145.9</ele>
        <time>2023-06-16T04:19:34.566Z</time>
      </trkpt>
      <trkpt lat="46.49455" lon="-0.06188">
        <ele>146.01</ele>
        <time>2023-06-16T04:20:28.086Z</time>
      </trkpt>
      <trkpt lat="46.49453" lon="-0.06203">
        <ele>146.17</ele>
        <time>2023-06-16T04:21:21.608Z</time>
      </trkpt>
      <trkpt lat="46.49454" lon="-0.06215">
        <ele>146.3</ele>
        <time>2023-06-16T04:22:15.131Z</time>
      </trkpt>
      <trkpt lat="46.49455" lon="-0.06222">
        <ele>146.32</ele>
        <time>2023-06-16T04:23:08.655Z</time>
      </trkpt>
      <trkpt lat="46.49454" lon="-0.06228">
        <ele>146.34</ele>
        <time>2023-06-16T04:24:02.180Z</time>
      </trkpt>
      <trkpt lat="46.49452" lon="-0.06241">
        <ele>146.28</ele>
        <time>2023-06-16T04:24:55.706Z</time>
      </trkpt>
      <trkpt lat="46.49451" lon="-0.06247">
        <ele>146.2</ele>
        <time>2023-06-16T04:25:49.233Z</time>
      </trkpt>
      <trkpt lat="46.4945" lon="-0.06253">
        <ele>146.1</ele>
        <time>2023-06-16T04:26:42.760Z</time>
      </trkpt>
      <trkpt lat="46.49447" lon="-0.06272">
        <ele>145.71</ele>
        <time>2023-06-16T04:27:36.290Z</time>
      </trkpt>
      <trkpt lat="46.49445" lon="-0.06284">
        <ele>145.49</ele>
        <time>2023-06-16T04:28:29.821Z</time>
      </trkpt>
      <trkpt lat="46.4944" lon="-0.06314">
        <ele>145.09</ele>
        <time>2023-06-16T04:29:23.355Z</time>
      </trkpt>
      <trkpt lat="46.49437" lon="-0.06322">
        <ele>144.99</ele>
        <time>2023-06-16T04:30:16.890Z</time>
      </trkpt>
      <trkpt lat="46.49434" lon="-0.06332">
        <ele>144.76</ele>
        <time>2023-06-16T04:31:10.427Z</time>
      </trkpt>
      <trkpt lat="46.49434" lon="-0.06333">
        <ele>144.76</ele>
        <time>2023-06-16T04:32:03.964Z</time>
      </trkpt>
      <trkpt lat="46.49431" lon="-0.06339">
        <ele>144.63</ele>
        <time>2023-06-16T04:32:57.501Z</time>
      </trkpt>
      <trkpt lat="46.49427" lon="-0.0635">
        <ele>144.31</ele>
        <time>2023-06-16T04:33:51.040Z</time>
      </trkpt>
      <trkpt lat="46.49418" lon="-0.06372">
        <ele>143.58</ele>
        <time>2023-06-16T04:34:44.582Z</time>
      </trkpt>
      <trkpt lat="46.49415" lon="-0.06377">
        <ele>143.36</ele>
        <time>2023-06-16T04:35:38.124Z</time>
      </trkpt>
      <trkpt lat="46.49413" lon="-0.06383">
        <ele>143.08</ele>
        <time>2023-06-16T04:36:31.667Z</time>
      </trkpt>
      <trkpt lat="46.49411" lon="-0.06388">
        <ele>142.72</ele>
        <time>2023-06-16T04:37:25.211Z</time>
      </trkpt>
      <trkpt lat="46.49408" lon="-0.06394">
        <ele>142.27</ele>
        <time>2023-06-16T04:38:18.755Z</time>
      </trkpt>
      <trkpt lat="46.49406" lon="-0.06399">
        <ele>141.74</ele>
        <time>2023-06-16T04:39:12.300Z</time>
      </trkpt>
      <trkpt lat="46.49404" lon="-0.06405">
        <ele>141.14</ele>
        <time>2023-06-16T04:40:05.846Z</time>
      </trkpt>
      <trkpt lat="46.49401" lon="-0.06411">
        <ele>140.49</ele>
        <time>2023-06-16T04:40:59.393Z</time>
      </trkpt>
      <trkpt lat="46.494" lon="-0.06414">
        <ele>140.06</ele>
        <time>2023-06-16T04:41:52.940Z</time>
      </trkpt>
      <trkpt lat="46.49399" lon="-0.0643">
        <ele>138.33</ele>
        <time>2023-06-16T04:42:46.489Z</time>
      </trkpt>
      <trkpt lat="46.49397" lon="-0.06435">
        <ele>137.69</ele>
        <time>2023-06-16T04:43:40.039Z</time>
      </trkpt>
      <trkpt lat="46.49395" lon="-0.06441">
        <ele>137.05</ele>
        <time>2023-06-16T04:44:33.589Z</time>
      </trkpt>
      <trkpt lat="46.49393" lon="-0.06447">
        <ele>136.46</ele>
        <time>2023-06-16T04:45:27.140Z</time>
      </trkpt>
      <trkpt lat="46.49391" lon="-0.06453">
        <ele>135.93</ele>
        <time>2023-06-16T04:46:20.692Z</time>
      </trkpt>
      <trkpt lat="46.49389" lon="-0.06459">
        <ele>135.45</ele>
        <time>2023-06-16T04:47:14.244Z</time>
      </trkpt>
      <trkpt lat="46.49388" lon="-0.06461">
        <ele>135.27</ele>
        <time>2023-06-16T04:48:07.797Z</time>
      </trkpt>
      <trkpt lat="46.49385" lon="-0.06462">
        <ele>135.04</ele>
        <time>2023-06-16T04:49:01.350Z</time>
      </trkpt>
      <trkpt lat="46.49381" lon="-0.06464">
        <ele>134.69</ele>
        <time>2023-06-16T04:49:54.904Z</time>
      </trkpt>
      <trkpt lat="46.49377" lon="-0.06465">
        <ele>134.43</ele>
        <time>2023-06-16T04:50:48.459Z</time>
      </trkpt>
      <trkpt lat="46.49372" lon="-0.06467">
        <ele>134.24</ele>
        <time>2023-06-16T04:51:42.014Z</time>
      </trkpt>
      <trkpt lat="46.49368" lon="-0.06469">
        <ele>134.13</ele>
        <time>2023-06-16T04:52:35.570Z</time>
      </trkpt>
      <trkpt lat="46.49364" lon="-0.0647">
        <ele>134.09</ele>
        <time>2023-06-16T04:53:29.127Z</time>
      </trkpt>
      <trkpt lat="46.49359" lon="-0.06472">
        <ele>134.11</ele>
        <time>2023-06-16T04:54:22.684Z</time>
      </trkpt>
      <trkpt lat="46.49355" lon="-0.06474">
        <ele>134.17</ele>
        <time>2023-06-16T04:55:16.242Z</time>
      </trkpt>
      <trkpt lat="46.49352" lon="-0.06475">
        <ele>134.23</ele>
        <time>2023-06-16T04:56:09.801Z</time>
      </trkpt>
      <trkpt lat="46.49339" lon="-0.06478">
        <ele>134.47</ele>
        <time>2023-06-16T04:57:03.362Z</time>
      </trkpt>
      <trkpt lat="46.49327" lon="-0.06478">
        <ele>134.7</ele>
        <time>2023-06-16T04:57:56.925Z</time>
      </trkpt>
      <trkpt lat="46.49324" lon="-0.06477">
        <ele>134.76</ele>
        <time>2023-06-16T04:58:50.488Z</time>
      </trkpt>
      <trkpt lat="46.49316" lon="-0.06475">
        <ele>134.87</ele>
        <time>2023-06-16T04:59:44.052Z</time>
      </trkpt>
      <trkpt lat="46.49313" lon="-0.06469">
        <ele>134.95</ele>
        <time>2023-06-16T05:00:37.617Z</time>
      </trkpt>
      <trkpt lat="46.49303" lon="-0.06453">
        <ele>134.95</ele>
        <time>2023-06-16T05:01:31.185Z</time>
      </trkpt>
      <trkpt lat="46.49302" lon="-0.06451">
        <ele>134.96</ele>
        <time>2023-06-16T05:02:24.753Z</time>
      </trkpt>
      <trkpt lat="46.49295" lon="-0.06434">
        <ele>135.81</ele>
        <time>2023-06-16T05:03:18.323Z</time>
      </trkpt>
      <trkpt lat="46.49292" lon="-0.06429">
        <ele>136.12</ele>
        <time>2023-06-16T05:04:11.894Z</time>
      </trkpt>
      <trkpt lat="46.49285" lon="-0.06413">
        <ele>137.1</ele>
        <time>2023-06-16T05:05:05.467Z</time>
      </trkpt>
      <trkpt lat="46.49285" lon="-0.06412">
        <ele>137.1</ele>
        <time>2023-06-16T05:05:59.040Z</time>
      </trkpt>
      <trkpt lat="46.49282" lon="-0.06408">
        <ele>137.4</ele>
        <time>2023-06-16T05:06:52.614Z</time>
      </trkpt>
      <trkpt lat="46.49279" lon="-0.06403">
        <ele>137.66</ele>
        <time>2023-06-16T05:07:46.188Z</time>
      </trkpt>
      <trkpt lat="46.49275" lon="-0.06398">
        <ele>137.88</ele>
        <time>2023-06-16T05:08:39.763Z</time>
      </trkpt>
      <trkpt lat="46.49274" lon="-0.06396">
        <ele>137.96</ele>
        <time>2023-06-16T05:09:33.339Z</time>
      </trkpt>
      <trkpt lat="46.49272" lon="-0.06396">
        <ele>138.06</ele>
        <time>2023-06-16T05:10:26.915Z</time>
      </trkpt>
      <trkpt lat="46.49267" lon="-0.06395">
        <ele>138.2</ele>
        <time>2023-06-16T05:11:20.492Z</time>
      </trkpt>
      <trkpt lat="46.49258" lon="-0.06393">
        <ele>138.41</ele>
        <time>2023-06-16T05:12:14.070Z</time>
      </trkpt>
      <trkpt lat="46.49241" lon="-0.0639">
        <ele>140.85</ele>
        <time>2023-06-16T05:13:07.651Z</time>
      </trkpt>
      <trkpt lat="46.49235" lon="-0.06389">
        <ele>141.68</ele>
        <time>2023-06-16T05:14:01.233Z</time>
      </trkpt>
      <trkpt lat="46.49233" lon="-0.06389">
        <ele>142.01</ele>
        <time>2023-06-16T05:14:54.815Z</time>
      </trkpt>
      <trkpt lat="46.49223" lon="-0.06389">
        <ele>143.22</ele>
        <time>2023-06-16T05:15:48.399Z</time>
      </trkpt>
      <trkpt lat="46.49216" lon="-0.06394">
        <ele>144.21</ele>
        <time>2023-06-16T05:16:41.984Z</time>
      </trkpt>
      <trkpt lat="46.49213" lon="-0.06397">
        <ele>144.67</ele>
        <time>2023-06-16T05:17:35.570Z</time>
      </trkpt>
      <trkpt lat="46.49201" lon="-0.06389">
        <ele>146.37</ele>
        <time>2023-06-16T05:18:29.158Z</time>
      </trkpt>
      <trkpt lat="46.49189" lon="-0.06381">
        <ele>147.92</ele>
        <time>2023-06-16T05:19:22.748Z</time>
      </trkpt>
      <trkpt lat="46.49181" lon="-0.06376">
        <ele>148.89</ele>
        <time>2023-06-16T05:20:16.339Z</time>
      </trkpt>
      <trkpt lat="46.4918" lon="-0.06375">
        <ele>149.01</ele>
        <time>2023-06-16T05:21:09.930Z</time>
      </trkpt>
      <trkpt lat="46.49173" lon="-0.06373">
        <ele>149.81</ele>
        <time>2023-06-16T05:22:03.523Z</time>
      </trkpt>
      <trkpt lat="46.4916" lon="-0.06369">
        <ele>151.14</ele>
        <time>2023-06-16T05:22:57.118Z</time>
      </trkpt>
      <trkpt lat="46.49151" lon="-0.06367">
        <ele>151.19</ele>
        <time>2023-06-16T05:23:50.714Z</time>
      </trkpt>
      <trkpt lat="46.4915" lon="-0.06367">
        <ele>151.19</ele>
        <time>2023-06-16T05:24:44.310Z</time>
      </trkpt>
      <trkpt lat="46.49137" lon="-0.06369">
        <ele>151.38</ele>
        <time>2023-06-16T05:25:37.908Z</time>
      </trkpt>
      <trkpt lat="46.49128" lon="-0.06371">
        <ele>151.46</ele>
        <time>2023-06-16T05:26:31.508Z</time>
      </trkpt>
      <trkpt lat="46.49119" lon="-0.06372">
        <ele>151.47</ele>
        <time>2023-06-16T05:27:25.109Z</time>
      </trkpt>
      <trkpt lat="46.49114" lon="-0.06373">
        <ele>151.43</ele>
        <time>2023-06-16T05:28:18.711Z</time>
      </trkpt>
      <trkpt lat="46.49114" lon="-0.06378">
        <ele>151.41</ele>
        <time>2023-06-16T05:29:12.314Z</time>
      </trkpt>
      <trkpt lat="46.49115" lon="-0.06385">
        <ele>151.35</ele>
        <time>2023-06-16T05:30:05.917Z</time>
      </trkpt>
      <trkpt lat="46.49116" lon="-0.06398">
        <ele>151.19</ele>
        <time>2023-06-16T05:30:59.522Z</time>
      </trkpt>
      <trkpt lat="46.49118" lon="-0.0643">
        <ele>150.66</ele>
        <time>2023-06-16T05:31:53.130Z</time>
      </trkpt>
      <trkpt lat="46.49119" lon="-0.06443">
        <ele>150.48</ele>
        <time>2023-06-16T05:32:46.740Z</time>
      </trkpt>
      <trkpt lat="46.49121" lon="-0.06462">
        <ele>150.22</ele>
        <time>2023-06-16T05:33:40.352Z</time>
      </trkpt>
      <trkpt lat="46.49125" lon="-0.06494">
        <ele>149.68</ele>
        <time>2023-06-16T05:34:33.968Z</time>
      </trkpt>
      <trkpt lat="46.49126" lon="-0.06503">
        <ele>149.56</ele>
        <time>2023-06-16T05:35:27.585Z</time>
      </trkpt>
      <trkpt lat="46.49126" lon="-0.06507">
        <ele>149.51</ele>
        <time>2023-06-16T05:36:21.202Z</time>
      </trkpt>
      <trkpt lat="46.49126" lon="-0.06514">
        <ele>149.45</ele>
        <time>2023-06-16T05:37:14.820Z</time>
      </trkpt>
      <trkpt lat="46.49125" lon="-0.06533">
        <ele>149.37</ele>
        <time>2023-06-16T05:38:08.440Z</time>
      </trkpt>
      <trkpt lat="46.49125" lon="-0.06543">
        <ele>149.39</ele>
        <time>2023-06-16T05:39:02.061Z</time>
      </trkpt>
      <trkpt lat="46.49125" lon="-0.06546">
        <ele>149.4</ele>
        <time>2023-06-16T05:39:55.682Z</time>
      </trkpt>
      <trkpt lat="46.49122" lon="-0.06566">
        <ele>149.47</ele>
        <time>2023-06-16T05:40:49.306Z</time>
      </trkpt>
      <trkpt lat="46.4912" lon="-0.06585">
        <ele>149.64</ele>
        <time>2023-06-16T05:41:42.932Z</time>
      </trkpt>
      <trkpt lat="46.49119" lon="-0.06597">
        <ele>149.8</ele>
        <time>2023-06-16T05:42:36.559Z</time>
      </trkpt>
      <trkpt lat="46.49118" lon="-0.06604">
        <ele>149.9</ele>
        <time>2023-06-16T05:43:30.187Z</time>
      </trkpt>
      <trkpt lat="46.49113" lon="-0.06623">
        <ele>150.22</ele>
        <time>2023-06-16T05:44:23.817Z</time>
      </trkpt>
      <trkpt lat="46.49109" lon="-0.06641">
        <ele>150.64</ele>
        <time>2023-06-16T05:45:17.449Z</time>
      </trkpt>
      <trkpt lat="46.49109" lon="-0.06643">
        <ele>150.68</ele>
        <time>2023-06-16T05:46:11.081Z</time>
      </trkpt>
      <trkpt lat="46.49107" lon="-0.0666">
        <ele>151.1</ele>
        <time>2023-06-16T05:47:04.715Z</time>
      </trkpt>
      <trkpt lat="46.49105" lon="-0.06673">
        <ele>151.49</ele>
        <time>2023-06-16T05:47:58.351Z</time>
      </trkpt>
      <trkpt lat="46.49101" lon="-0.067">
        <ele>152.42</ele>
        <time>2023-06-16T05:48:51.990Z</time>
      </trkpt>
      <trkpt lat="46.491" lon="-0.06705">
        <ele>152.59</ele>
        <time>2023-06-16T05:49:45.629Z</time>
      </trkpt>
      <trkpt lat="46.49097" lon="-0.06717">
        <ele>152.97</ele>
        <time>2023-06-16T05:50:39.270Z</time>
      </trkpt>
      <trkpt lat="46.49096" lon="-0.06722">
        <ele>153.09</ele>
        <time>2023-06-16T05:51:32.911Z</time>
      </trkpt>
      <trkpt lat="46.49093" lon="-0.06728">
        <ele>153.3</ele>
        <time>2023-06-16T05:52:26.553Z</time>
      </trkpt>
      <trkpt lat="46.49087" lon="-0.06738">
        <ele>153.58</ele>
        <time>2023-06-16T05:53:20.197Z</time>
      </trkpt>
      <trkpt lat="46.49084" lon="-0.06743">
        <ele>153.7</ele>
        <time>2023-06-16T05:54:13.841Z</time>
      </trkpt>
      <trkpt lat="46.49081" lon="-0.06749">
        <ele>153.79</ele>
        <time>2023-06-16T05:55:07.486Z</time>
      </trkpt>
      <trkpt lat="46.49079" lon="-0.06754">
        <ele>153.85</ele>
        <time>2023-06-16T05:56:01.132Z</time>
      </trkpt>
      <trkpt lat="46.49076" lon="-0.06759">
        <ele>153.89</ele>
        <time>2023-06-16T05:56:54.779Z</time>
      </trkpt>
      <trkpt lat="46.49074" lon="-0.06762">
        <ele>153.9</ele>
        <time>2023-06-16T05:57:48.426Z</time>
      </trkpt>
      <trkpt lat="46.49066" lon="-0.06772">
        <ele>153.95</ele>
        <time>2023-06-16T05:58:42.075Z</time>
      </trkpt>
      <trkpt lat="46.49047" lon="-0.06799">
        <ele>154</ele>
        <time>2023-06-16T05:59:35.728Z</time>
      </trkpt>
      <trkpt lat="46.4904" lon="-0.06808">
        <ele>153.99</ele>
        <time>2023-06-16T06:00:29.382Z</time>
      </trkpt>
      <trkpt lat="46.49037" lon="-0.06812">
        <ele>153.95</ele>
        <time>2023-06-16T06:01:23.037Z</time>
      </trkpt>
      <trkpt lat="46.49033" lon="-0.06817">
        <ele>153.88</ele>
        <time>2023-06-16T06:02:16.693Z</time>
      </trkpt>
      <trkpt lat="46.4903" lon="-0.06821">
        <ele>153.79</ele>
        <time>2023-06-16T06:03:10.350Z</time>
      </trkpt>
      <trkpt lat="46.49027" lon="-0.06825">
        <ele>153.67</ele>
        <time>2023-06-16T06:04:04.007Z</time>
      </trkpt>
      <trkpt lat="46.49019" lon="-0.06836">
        <ele>153.32</ele>
        <time>2023-06-16T06:04:57.666Z</time>
      </trkpt>
      <trkpt lat="46.49017" lon="-0.06839">
        <ele>153.24</ele>
        <time>2023-06-16T06:05:51.326Z</time>
      </trkpt>
      <trkpt lat="46.49012" lon="-0.0685">
        <ele>152.91</ele>
        <time>2023-06-16T06:06:44.987Z</time>
      </trkpt>
      <trkpt lat="46.49" lon="-0.06872">
        <ele>152.1</ele>
        <time>2023-06-16T06:07:38.651Z</time>
      </trkpt>
      <trkpt lat="46.48998" lon="-0.06876">
        <ele>151.99</ele>
        <time>2023-06-16T06:08:32.316Z</time>
      </trkpt>
      <trkpt lat="46.48991" lon="-0.06892">
        <ele>151.52</ele>
        <time>2023-06-16T06:09:25.983Z</time>
      </trkpt>
      <trkpt lat="46.48989" lon="-0.06898">
        <ele>151.39</ele>
        <time>2023-06-16T06:10:19.650Z</time>
      </trkpt>
      <trkpt lat="46.48987" lon="-0.06903">
        <ele>151.29</ele>
        <time>2023-06-16T06:11:13.318Z</time>
      </trkpt>
      <trkpt lat="46.48984" lon="-0.06909">
        <ele>151.22</ele>
        <time>2023-06-16T06:12:06.987Z</time>
      </trkpt>
      <trkpt lat="46.48982" lon="-0.06914">
        <ele>151.18</ele>
        <time>2023-06-16T06:13:00.657Z</time>
      </trkpt>
      <trkpt lat="46.4898" lon="-0.0692">
        <ele>151.18</ele>
        <time>2023-06-16T06:13:54.327Z</time>
      </trkpt>
      <trkpt lat="46.48975" lon="-0.06931">
        <ele>151.26</ele>
        <time>2023-06-16T06:14:47.999Z</time>
      </trkpt>
      <trkpt lat="46.48974" lon="-0.06933">
        <ele>151.28</ele>
        <time>2023-06-16T06:15:41.671Z</time>
      </trkpt>
      <trkpt lat="46.48972" lon="-0.06936">
        <ele>151.34</ele>
        <time>2023-06-16T06:16:35.343Z</time>
      </trkpt>
      <trkpt lat="46.48967" lon="-0.06947">
        <ele>151.56</ele>
        <time>2023-06-16T06:17:29.017Z</time>
      </trkpt>
      <trkpt lat="46.4896" lon="-0.06964">
        <ele>151.96</ele>
        <time>2023-06-16T06:18:22.693Z</time>
      </trkpt>
      <trkpt lat="46.48958" lon="-0.06969">
        <ele>152.07</ele>
        <time>2023-06-16T06:19:16.370Z</time>
      </trkpt>
      <trkpt lat="46.48955" lon="-0.06974">
        <ele>152.14</ele>
        <time>2023-06-16T06:20:10.047Z</time>
      </trkpt>
      <trkpt lat="46.48953" lon="-0.0698">
        <ele>152.18</ele>
        <time>2023-06-16T06:21:03.725Z</time>
      </trkpt>
      <trkpt lat="46.4895" lon="-0.06985">
        <ele>152.18</ele>
        <time>2023-06-16T06:21:57.404Z</time>
      </trkpt>
      <trkpt lat="46.48948" lon="-0.06991">
        <ele>152.15</ele>
        <time>2023-06-16T06:22:51.084Z</time>
      </trkpt>
      <trkpt lat="46.4894" lon="-0.07007">
        <ele>151.99</ele>
        <time>2023-06-16T06:23:44.766Z</time>
      </trkpt>
      <trkpt lat="46.48935" lon="-0.07018">
        <ele>151.91</ele>
        <time>2023-06-16T06:24:38.449Z</time>
      </trkpt>
      <trkpt lat="46.4893" lon="-0.07029">
        <ele>151.86</ele>
        <time>2023-06-16T06:25:32.134Z</time>
      </trkpt>
      <trkpt lat="46.48928" lon="-0.07034">
        <ele>151.86</ele>
        <time>2023-06-16T06:26:25.819Z</time>
      </trkpt>
      <trkpt lat="46.48923" lon="-0.07045">
        <ele>151.91</ele>
        <time>2023-06-16T06:27:19.506Z</time>
      </trkpt>
      <trkpt lat="46.48917" lon="-0.07058">
        <ele>152.03</ele>
        <time>2023-06-16T06:28:13.195Z</time>
      </trkpt>
      <trkpt lat="46.48909" lon="-0.07078">
        <ele>152.22</ele>
        <time>2023-06-16T06:29:06.886Z</time>
      </trkpt>
      <trkpt lat="46.48894" lon="-0.07118">
        <ele>152.49</ele>
        <time>2023-06-16T06:30:00.582Z</time>
      </trkpt>
      <trkpt lat="46.4888" lon="-0.07152">
        <ele>152.77</ele>
        <time>2023-06-16T06:30:54.282Z</time>
      </trkpt>
      <trkpt lat="46.48879" lon="-0.07155">
        <ele>152.81</ele>
        <time>2023-06-16T06:31:47.983Z</time>
      </trkpt>
      <trkpt lat="46.48876" lon="-0.07164">
        <ele>152.92</ele>
        <time>2023-06-16T06:32:41.685Z</time>
      </trkpt>
      <trkpt lat="46.48867" lon="-0.07193">
        <ele>153.46</ele>
        <time>2023-06-16T06:33:35.391Z</time>
      </trkpt>
      <trkpt lat="46.48863" lon="-0.07205">
        <ele>153.62</ele>
        <time>2023-06-16T06:34:29.098Z</time>
      </trkpt>
      <trkpt lat="46.48863" lon="-0.07205">
        <ele>153.62</ele>
        <time>2023-06-16T06:35:22.805Z</time>
      </trkpt>
      <trkpt lat="46.4886" lon="-0.07217">
        <ele>153.75</ele>
        <time>2023-06-16T06:36:16.513Z</time>
      </trkpt>
      <trkpt lat="46.48857" lon="-0.07229">
        <ele>153.74</ele>
        <time>2023-06-16T06:37:10.223Z</time>
      </trkpt>
      <trkpt lat="46.48856" lon="-0.07235">
        <ele>153.76</ele>
        <time>2023-06-16T06:38:03.933Z</time>
      </trkpt>
      <trkpt lat="46.48853" lon="-0.07247">
        <ele>153.84</ele>
        <time>2023-06-16T06:38:57.645Z</time>
      </trkpt>
      <trkpt lat="46.48853" lon="-0.07248">
        <ele>153.85</ele>
        <time>2023-06-16T06:39:51.357Z</time>
      </trkpt>
      <trkpt lat="46.4885" lon="-0.07258">
        <ele>153.98</ele>
        <time>2023-06-16T06:40:45.070Z</time>
      </trkpt>
      <trkpt lat="46.48842" lon="-0.0728">
        <ele>154.35</ele>
        <time>2023-06-16T06:41:38.786Z</time>
      </trkpt>
      <trkpt lat="46.48838" lon="-0.07291">
        <ele>154.44</ele>
        <time>2023-06-16T06:42:32.503Z</time>
      </trkpt>
      <trkpt lat="46.48835" lon="-0.07302">
        <ele>154.47</ele>
        <time>2023-06-16T06:43:26.222Z</time>
      </trkpt>
      <trkpt lat="46.48831" lon="-0.07314">
        <ele>154.44</ele>
        <time>2023-06-16T06:44:19.942Z</time>
      </trkpt>
      <trkpt lat="46.48827" lon="-0.07325">
        <ele>154.37</ele>
        <time>2023-06-16T06:45:13.663Z</time>
      </trkpt>
      <trkpt lat="46.48823" lon="-0.07336">
        <ele>154.25</ele>
        <time>2023-06-16T06:46:07.386Z</time>
      </trkpt>
      <trkpt lat="46.48822" lon="-0.0734">
        <ele>154.2</ele>
        <time>2023-06-16T06:47:01.109Z</time>
      </trkpt>
      <trkpt lat="46.48823" lon="-0.07348">
        <ele>154.1</ele>
        <time>2023-06-16T06:47:54.833Z</time>
      </trkpt>
      <trkpt lat="46.48825" lon="-0.07359">
        <ele>153.92</ele>
        <time>2023-06-16T06:48:48.558Z</time>
      </trkpt>
      <trkpt lat="46.48825" lon="-0.0736">
        <ele>153.9</ele>
        <time>2023-06-16T06:49:42.284Z</time>
      </trkpt>
      <trkpt lat="46.48831" lon="-0.07377">
        <ele>153.53</ele>
        <time>2023-06-16T06:50:36.012Z</time>
      </trkpt>
      <trkpt lat="46.48839" lon="-0.07398">
        <ele>152.19</ele>
        <time>2023-06-16T06:51:29.742Z</time>
      </trkpt>
      <trkpt lat="46.4884" lon="-0.07404">
        <ele>151.86</ele>
        <time>2023-06-16T06:52:23.473Z</time>
      </trkpt>
      <trkpt lat="46.48842" lon="-0.07416">
        <ele>151.21</ele>
        <time>2023-06-16T06:53:17.205Z</time>
      </trkpt>
      <trkpt lat="46.48839" lon="-0.07426">
        <ele>150.65</ele>
        <time>2023-06-16T06:54:10.939Z</time>
      </trkpt>
      <trkpt lat="46.48836" lon="-0.07438">
        <ele>150.53</ele>
        <time>2023-06-16T06:55:04.674Z</time>
      </trkpt>
      <trkpt lat="46.48836" lon="-0.0744">
        <ele>150.5</ele>
        <time>2023-06-16T06:55:58.409Z</time>
      </trkpt>
      <trkpt lat="46.48836" lon="-0.07456">
        <ele>150.29</ele>
        <time>2023-06-16T06:56:52.146Z</time>
      </trkpt>
      <trkpt lat="46.48837" lon="-0.07464">
        <ele>150.19</ele>
        <time>2023-06-16T06:57:45.884Z</time>
      </trkpt>
      <trkpt lat="46.48838" lon="-0.07474">
        <ele>150.06</ele>
        <time>2023-06-16T06:58:39.623Z</time>
      </trkpt>
      <trkpt lat="46.48839" lon="-0.07476">
        <ele>150.04</ele>
        <time>2023-06-16T06:59:33.362Z</time>
      </trkpt>
      <trkpt lat="46.48843" lon="-0.07487">
        <ele>149.95</ele>
        <time>2023-06-16T07:00:27.103Z</time>
      </trkpt>
      <trkpt lat="46.48845" lon="-0.07491">
        <ele>149.92</ele>
        <time>2023-06-16T07:01:20.844Z</time>
      </trkpt>
      <trkpt lat="46.48859" lon="-0.07494">
        <ele>149.8</ele>
        <time>2023-06-16T07:02:14.587Z</time>
      </trkpt>
      <trkpt lat="46.48876" lon="-0.07499">
        <ele>149.7</ele>
        <time>2023-06-16T07:03:08.333Z</time>
      </trkpt>
      <trkpt lat="46.4889" lon="-0.07502">
        <ele>149.81</ele>
        <time>2023-06-16T07:04:02.081Z</time>
      </trkpt>
      <trkpt lat="46.4889" lon="-0.07502">
        <ele>149.81</ele>
        <time>2023-06-16T07:04:55.829Z</time>
      </trkpt>
      <trkpt lat="46.48907" lon="-0.07503">
        <ele>150.01</ele>
        <time>2023-06-16T07:05:49.580Z</time>
      </trkpt>
      <trkpt lat="46.48923" lon="-0.07503">
        <ele>150.12</ele>
        <time>2023-06-16T07:06:43.334Z</time>
      </trkpt>
      <trkpt lat="46.48925" lon="-0.07503">
        <ele>150.14</ele>
        <time>2023-06-16T07:07:37.088Z</time>
      </trkpt>
      <trkpt lat="46.48934" lon="-0.07502">
        <ele>150.25</ele>
        <time>2023-06-16T07:08:30.843Z</time>
      </trkpt>
      <trkpt lat="46.48943" lon="-0.07502">
        <ele>150.4</ele>
        <time>2023-06-16T07:09:24.600Z</time>
      </trkpt>
      <trkpt lat="46.48943" lon="-0.07502">
        <ele>150.4</ele>
        <time>2023-06-16T07:10:18.357Z</time>
      </trkpt>
      <trkpt lat="46.48951" lon="-0.07499">
        <ele>150.79</ele>
        <time>2023-06-16T07:11:12.115Z</time>
      </trkpt>
      <trkpt lat="46.48965" lon="-0.07494">
        <ele>151.46</ele>
        <time>2023-06-16T07:12:05.876Z</time>
      </trkpt>
      <trkpt lat="46.48969" lon="-0.07493">
        <ele>151.66</ele>
        <time>2023-06-16T07:12:59.637Z</time>
      </trkpt>
      <trkpt lat="46.48973" lon="-0.07491">
        <ele>151.83</ele>
        <time>2023-06-16T07:13:53.399Z</time>
      </trkpt>
      <trkpt lat="46.48973" lon="-0.07491">
        <ele>151.83</ele>
        <time>2023-06-16T07:14:47.161Z</time>
      </trkpt>
      <trkpt lat="46.48977" lon="-0.07489">
        <ele>151.97</ele>
        <time>2023-06-16T07:15:40.924Z</time>
      </trkpt>
      <trkpt lat="46.48982" lon="-0.07486">
        <ele>152.07</ele>
        <time>2023-06-16T07:16:34.687Z</time>
      </trkpt>
      <trkpt lat="46.48986" lon="-0.07484">
        <ele>152.14</ele>
        <time>2023-06-16T07:17:28.451Z</time>
      </trkpt>
      <trkpt lat="46.48988" lon="-0.07483">
        <ele>152.16</ele>
        <time>2023-06-16T07:18:22.215Z</time>
      </trkpt>
      <trkpt lat="46.48988" lon="-0.07486">
        <ele>152.18</ele>
        <time>2023-06-16T07:19:15.980Z</time>
      </trkpt>
      <trkpt lat="46.48988" lon="-0.07491">
        <ele>152.18</ele>
        <time>2023-06-16T07:20:09.745Z</time>
      </trkpt>
      <trkpt lat="46.48989" lon="-0.07492">
        <ele>152.19</ele>
        <time>2023-06-16T07:21:03.511Z</time>
      </trkpt>
      <trkpt lat="46.48993" lon="-0.07494">
        <ele>152.17</ele>
        <time>2023-06-16T07:21:57.277Z</time>
      </trkpt>
      <trkpt lat="46.48995" lon="-0.07495">
        <ele>152.15</ele>
        <time>2023-06-16T07:22:51.044Z</time>
      </trkpt>
      <trkpt lat="46.49007" lon="-0.07506">
        <ele>152.05</ele>
        <time>2023-06-16T07:23:44.813Z</time>
      </trkpt>
      <trkpt lat="46.49013" lon="-0.07517">
        <ele>151.99</ele>
        <time>2023-06-16T07:24:38.583Z</time>
      </trkpt>
      <trkpt lat="46.49018" lon="-0.0753">
        <ele>151.92</ele>
        <time>2023-06-16T07:25:32.355Z</time>
      </trkpt>
      <trkpt lat="46.49023" lon="-0.07541">
        <ele>151.91</ele>
        <time>2023-06-16T07:26:26.128Z</time>
      </trkpt>
      <trkpt lat="46.49027" lon="-0.07552">
        <ele>151.92</ele>
        <time>2023-06-16T07:27:19.903Z</time>
      </trkpt>
      <trkpt lat="46.49029" lon="-0.07565">
        <ele>151.95</ele>
        <time>2023-06-16T07:28:13.679Z</time>
      </trkpt>
      <trkpt lat="46.49032" lon="-0.07581">
        <ele>151.93</ele>
        <time>2023-06-16T07:29:07.457Z</time>
      </trkpt>
      <trkpt lat="46.49034" lon="-0.07597">
        <ele>151.93</ele>
        <time>2023-06-16T07:30:01.237Z</time>
      </trkpt>
      <trkpt lat="46.49036" lon="-0.0762">
        <ele>151.83</ele>
        <time>2023-06-16T07:30:55.020Z</time>
      </trkpt>
      <trkpt lat="46.49035" lon="-0.07629">
        <ele>151.79</ele>
        <time>2023-06-16T07:31:48.804Z</time>
      </trkpt>
      <trkpt lat="46.49032" lon="-0.07646">
        <ele>151.73</ele>
        <time>2023-06-16T07:32:42.589Z</time>
      </trkpt>
      <trkpt lat="46.49028" lon="-0.0766">
        <ele>151.69</ele>
        <time>2023-06-16T07:33:36.376Z</time>
      </trkpt>
      <trkpt lat="46.49024" lon="-0.07678">
        <ele>151.61</ele>
        <time>2023-06-16T07:34:30.165Z</time>
      </trkpt>
      <trkpt lat="46.49022" lon="-0.07685">
        <ele>151.58</ele>
        <time>2023-06-16T07:35:23.955Z</time>
      </trkpt>
      <trkpt lat="46.49018" lon="-0.07696">
        <ele>151.58</ele>
        <time>2023-06-16T07:36:17.746Z</time>
      </trkpt>
      <trkpt lat="46.49014" lon="-0.07708">
        <ele>151.67</ele>
        <time>2023-06-16T07:37:11.539Z</time>
      </trkpt>
      <trkpt lat="46.49007" lon="-0.07727">
        <ele>151.87</ele>
        <time>2023-06-16T07:38:05.334Z</time>
      </trkpt>
      <trkpt lat="46.49005" lon="-0.07738">
        <ele>151.98</ele>
        <time>2023-06-16T07:38:59.131Z</time>
      </trkpt>
      <trkpt lat="46.49004" lon="-0.07742">
        <ele>152</ele>
        <time>2023-06-16T07:39:52.928Z</time>
      </trkpt>
      <trkpt lat="46.49003" lon="-0.07763">
        <ele>152.14</ele>
        <time>2023-06-16T07:40:46.727Z</time>
      </trkpt>
      <trkpt lat="46.49006" lon="-0.07774">
        <ele>152.21</ele>
        <time>2023-06-16T07:41:40.528Z</time>
      </trkpt>
      <trkpt lat="46.49009" lon="-0.07781">
        <ele>152.27</ele>
        <time>2023-06-16T07:42:34.330Z</time>
      </trkpt>
      <trkpt lat="46.49016" lon="-0.07798">
        <ele>152.43</ele>
        <time>2023-06-16T07:43:28.134Z</time>
      </trkpt>
      <trkpt lat="46.49018" lon="-0.07803">
        <ele>152.49</ele>
        <time>2023-06-16T07:44:21.938Z</time>
      </trkpt>
      <trkpt lat="46.49027" lon="-0.07818">
        <ele>152.7</ele>
        <time>2023-06-16T07:45:15.745Z</time>
      </trkpt>
      <trkpt lat="46.49035" lon="-0.07831">
        <ele>152.94</ele>
        <time>2023-06-16T07:46:09.554Z</time>
      </trkpt>
      <trkpt lat="46.4904" lon="-0.07836">
        <ele>153.07</ele>
        <time>2023-06-16T07:47:03.363Z</time>
      </trkpt>
      <trkpt lat="46.49043" lon="-0.07839">
        <ele>153.11</ele>
        <time>2023-06-16T07:47:57.173Z</time>
      </trkpt>
      <trkpt lat="46.49048" lon="-0.0784">
        <ele>153.19</ele>
        <time>2023-06-16T07:48:50.984Z</time>
      </trkpt>
      <trkpt lat="46.49053" lon="-0.07842">
        <ele>153.21</ele>
        <time>2023-06-16T07:49:44.796Z</time>
      </trkpt>
      <trkpt lat="46.49054" lon="-0.07842">
        <ele>153.2</ele>
        <time>2023-06-16T07:50:38.608Z</time>
      </trkpt>
      <trkpt lat="46.49057" lon="-0.07842">
        <ele>153.2</ele>
        <time>2023-06-16T07:51:32.420Z</time>
      </trkpt>
      <trkpt lat="46.49066" lon="-0.07843">
        <ele>153.11</ele>
        <time>2023-06-16T07:52:26.234Z</time>
      </trkpt>
      <trkpt lat="46.4907" lon="-0.07843">
        <ele>153.04</ele>
        <time>2023-06-16T07:53:20.048Z</time>
      </trkpt>
      <trkpt lat="46.49081" lon="-0.07849">
        <ele>152.86</ele>
        <time>2023-06-16T07:54:13.864Z</time>
      </trkpt>
      <trkpt lat="46.49083" lon="-0.0785">
        <ele>152.83</ele>
        <time>2023-06-16T07:55:07.681Z</time>
      </trkpt>
      <trkpt lat="46.49097" lon="-0.0786">
        <ele>152.54</ele>
        <time>2023-06-16T07:56:01.500Z</time>
      </trkpt>
      <trkpt lat="46.49099" lon="-0.07862">
        <ele>152.5</ele>
        <time>2023-06-16T07:56:55.320Z</time>
      </trkpt>
      <trkpt lat="46.49115" lon="-0.07878">
        <ele>152.05</ele>
        <time>2023-06-16T07:57:49.143Z</time>
      </trkpt>
      <trkpt lat="46.49117" lon="-0.07881">
        <ele>151.99</ele>
        <time>2023-06-16T07:58:42.966Z</time>
      </trkpt>
      <trkpt lat="46.49123" lon="-0.0789">
        <ele>152.35</ele>
        <time>2023-06-16T07:59:36.791Z</time>
      </trkpt>
      <trkpt lat="46.49129" lon="-0.079">
        <ele>152.74</ele>
        <time>2023-06-16T08:00:30.617Z</time>
      </trkpt>
      <trkpt lat="46.49148" lon="-0.07928">
        <ele>154.02</ele>
        <time>2023-06-16T08:01:24.447Z</time>
      </trkpt>
      <trkpt lat="46.49149" lon="-0.0793">
        <ele>154.1</ele>
        <time>2023-06-16T08:02:18.278Z</time>
      </trkpt>
      <trkpt lat="46.49161" lon="-0.07954">
        <ele>155.03</ele>
        <time>2023-06-16T08:03:12.112Z</time>
      </trkpt>
      <trkpt lat="46.49164" lon="-0.07958">
        <ele>155.23</ele>
        <time>2023-06-16T08:04:05.947Z</time>
      </trkpt>
      <trkpt lat="46.49177" lon="-0.07976">
        <ele>155.62</ele>
        <time>2023-06-16T08:04:59.784Z</time>
      </trkpt>
      <trkpt lat="46.49194" lon="-0.07998">
        <ele>156.25</ele>
        <time>2023-06-16T08:05:53.625Z</time>
      </trkpt>
      <trkpt lat="46.49197" lon="-0.08002">
        <ele>156.35</ele>
        <time>2023-06-16T08:06:47.467Z</time>
      </trkpt>
      <trkpt lat="46.49198" lon="-0.08004">
        <ele>156.38</ele>
        <time>2023-06-16T08:07:41.309Z</time>
      </trkpt>
      <trkpt lat="46.492" lon="-0.08027">
        <ele>156.69</ele>
        <time>2023-06-16T08:08:35.154Z</time>
      </trkpt>
      <trkpt lat="46.49201" lon="-0.0804">
        <ele>156.89</ele>
        <time>2023-06-16T08:09:29.000Z</time>
      </trkpt>
      <trkpt lat="46.49206" lon="-0.08085">
        <ele>157.71</ele>
        <time>2023-06-16T08:10:22.851Z</time>
      </trkpt>
      <trkpt lat="46.49208" lon="-0.08107">
        <ele>158.15</ele>
        <time>2023-06-16T08:11:16.704Z</time>
      </trkpt>
      <trkpt lat="46.49211" lon="-0.08116">
        <ele>158.35</ele>
        <time>2023-06-16T08:12:10.558Z</time>
      </trkpt>
      <trkpt lat="46.49214" lon="-0.08125">
        <ele>158.5</ele>
        <time>2023-06-16T08:13:04.414Z</time>
      </trkpt>
      <trkpt lat="46.49215" lon="-0.08127">
        <ele>158.54</ele>
        <time>2023-06-16T08:13:58.270Z</time>
      </trkpt>
      <trkpt lat="46.49222" lon="-0.08144">
        <ele>158.74</ele>
        <time>2023-06-16T08:14:52.128Z</time>
      </trkpt>
      <trkpt lat="46.49227" lon="-0.08155">
        <ele>158.92</ele>
        <time>2023-06-16T08:15:45.987Z</time>
      </trkpt>
      <trkpt lat="46.49229" lon="-0.0816">
        <ele>159.05</ele>
        <time>2023-06-16T08:16:39.847Z</time>
      </trkpt>
      <trkpt lat="46.49234" lon="-0.08172">
        <ele>159.41</ele>
        <time>2023-06-16T08:17:33.709Z</time>
      </trkpt>
      <trkpt lat="46.49236" lon="-0.08177">
        <ele>159.55</ele>
        <time>2023-06-16T08:18:27.571Z</time>
      </trkpt>
      <trkpt lat="46.49238" lon="-0.08182">
        <ele>159.69</ele>
        <time>2023-06-16T08:19:21.434Z</time>
      </trkpt>
      <trkpt lat="46.4924" lon="-0.08188">
        <ele>159.8</ele>
        <time>2023-06-16T08:20:15.298Z</time>
      </trkpt>
      <trkpt lat="46.49242" lon="-0.08193">
        <ele>159.88</ele>
        <time>2023-06-16T08:21:09.162Z</time>
      </trkpt>
      <trkpt lat="46.49249" lon="-0.0821">
        <ele>160.04</ele>
        <time>2023-06-16T08:22:03.029Z</time>
      </trkpt>
      <trkpt lat="46.4925" lon="-0.08213">
        <ele>160.07</ele>
        <time>2023-06-16T08:22:56.896Z</time>
      </trkpt>
      <trkpt lat="46.49251" lon="-0.08216">
        <ele>160.12</ele>
        <time>2023-06-16T08:23:50.763Z</time>
      </trkpt>
      <trkpt lat="46.49252" lon="-0.08222">
        <ele>160.23</ele>
        <time>2023-06-16T08:24:44.631Z</time>
      </trkpt>
      <trkpt lat="46.49255" lon="-0.08234">
        <ele>160.49</ele>
        <time>2023-06-16T08:25:38.500Z</time>
      </trkpt>
      <trkpt lat="46.49268" lon="-0.08285">
        <ele>161.65</ele>
        <time>2023-06-16T08:26:32.375Z</time>
      </trkpt>
      <trkpt lat="46.49268" lon="-0.08285">
        <ele>160.95</ele>
        <time>2023-06-16T08:27:26.250Z</time>
      </trkpt>
      <trkpt lat="46.49269" lon="-0.08291">
        <ele>160.69</ele>
        <time>2023-06-16T08:28:20.126Z</time>
      </trkpt>
      <trkpt lat="46.49273" lon="-0.08307">
        <ele>160.22</ele>
        <time>2023-06-16T08:29:14.004Z</time>
      </trkpt>
      <trkpt lat="46.49277" lon="-0.08323">
        <ele>159.51</ele>
        <time>2023-06-16T08:30:07.884Z</time>
      </trkpt>
      <trkpt lat="46.49282" lon="-0.08343">
        <ele>158.6</ele>
        <time>2023-06-16T08:31:01.766Z</time>
      </trkpt>
      <trkpt lat="46.49284" lon="-0.08347">
        <ele>158.38</ele>
        <time>2023-06-16T08:31:55.649Z</time>
      </trkpt>
      <trkpt lat="46.4928" lon="-0.08352">
        <ele>158.05</ele>
        <time>2023-06-16T08:32:49.533Z</time>
      </trkpt>
      <trkpt lat="46.49273" lon="-0.08353">
        <ele>157.6</ele>
        <time>2023-06-16T08:33:43.418Z</time>
      </trkpt>
      <trkpt lat="46.49273" lon="-0.08353">
        <ele>157.67</ele>
        <time>2023-06-16T08:34:37.303Z</time>
      </trkpt>
      <trkpt lat="46.49269" lon="-0.08354">
        <ele>157.83</ele>
        <time>2023-06-16T08:35:31.188Z</time>
      </trkpt>
      <trkpt lat="46.49263" lon="-0.08357">
        <ele>158.13</ele>
        <time>2023-06-16T08:36:25.074Z</time>
      </trkpt>
      <trkpt lat="46.49257" lon="-0.0836">
        <ele>158.41</ele>
        <time>2023-06-16T08:37:18.961Z</time>
      </trkpt>
      <trkpt lat="46.49247" lon="-0.08369">
        <ele>158.97</ele>
        <time>2023-06-16T08:38:12.850Z</time>
      </trkpt>
      <trkpt lat="46.49238" lon="-0.08372">
        <ele>159.42</ele>
        <time>2023-06-16T08:39:06.741Z</time>
      </trkpt>
      <trkpt lat="46.49229" lon="-0.08376">
        <ele>159.32</ele>
        <time>2023-06-16T08:40:00.633Z</time>
      </trkpt>
      <trkpt lat="46.49229" lon="-0.08376">
        <ele>159.32</ele>
        <time>2023-06-16T08:40:54.525Z</time>
      </trkpt>
      <trkpt lat="46.4923" lon="-0.08381">
        <ele>159.3</ele>
        <time>2023-06-16T08:41:48.418Z</time>
      </trkpt>
      <trkpt lat="46.49232" lon="-0.08387">
        <ele>159.29</ele>
        <time>2023-06-16T08:42:42.312Z</time>
      </trkpt>
      <trkpt lat="46.49238" lon="-0.08412">
        <ele>159.32</ele>
        <time>2023-06-16T08:43:36.208Z</time>
      </trkpt>
      <trkpt lat="46.4924" lon="-0.08419">
        <ele>159.3</ele>
        <time>2023-06-16T08:44:30.105Z</time>
      </trkpt>
      <trkpt lat="46.4924" lon="-0.08424">
        <ele>159.29</ele>
        <time>2023-06-16T08:45:24.003Z</time>
      </trkpt>
      <trkpt lat="46.4924" lon="-0.08428">
        <ele>159.26</ele>
        <time>2023-06-16T08:46:17.901Z</time>
      </trkpt>
      <trkpt lat="46.49239" lon="-0.0843">
        <ele>159.25</ele>
        <time>2023-06-16T08:47:11.800Z</time>
      </trkpt>
      <trkpt lat="46.49237" lon="-0.08436">
        <ele>159.19</ele>
        <time>2023-06-16T08:48:05.699Z</time>
      </trkpt>
      <trkpt lat="46.49233" lon="-0.0845">
        <ele>159</ele>
        <time>2023-06-16T08:48:59.600Z</time>
      </trkpt>
      <trkpt lat="46.49231" lon="-0.08453">
        <ele>158.96</ele>
        <time>2023-06-16T08:49:53.501Z</time>
      </trkpt>
      <trkpt lat="46.49224" lon="-0.08464">
        <ele>158.85</ele>
        <time>2023-06-16T08:50:47.404Z</time>
      </trkpt>
      <trkpt lat="46.49223" lon="-0.08468">
        <ele>158.82</ele>
        <time>2023-06-16T08:51:41.308Z</time>
      </trkpt>
      <trkpt lat="46.49222" lon="-0.08474">
        <ele>158.74</ele>
        <time>2023-06-16T08:52:35.212Z</time>
      </trkpt>
      <trkpt lat="46.4922" lon="-0.0848">
        <ele>158.64</ele>
        <time>2023-06-16T08:53:29.117Z</time>
      </trkpt>
      <trkpt lat="46.49219" lon="-0.08485">
        <ele>158.53</ele>
        <time>2023-06-16T08:54:23.023Z</time>
      </trkpt>
      <trkpt lat="46.49217" lon="-0.08506">
        <ele>158.11</ele>
        <time>2023-06-16T08:55:16.931Z</time>
      </trkpt>
      <trkpt lat="46.49217" lon="-0.08512">
        <ele>158</ele>
        <time>2023-06-16T08:56:10.840Z</time>
      </trkpt>
      <trkpt lat="46.49216" lon="-0.08518">
        <ele>157.91</ele>
        <time>2023-06-16T08:57:04.749Z</time>
      </trkpt>
      <trkpt lat="46.49216" lon="-0.08525">
        <ele>157.87</ele>
        <time>2023-06-16T08:57:58.659Z</time>
      </trkpt>
      <trkpt lat="46.49215" lon="-0.08531">
        <ele>157.85</ele>
        <time>2023-06-16T08:58:52.570Z</time>
      </trkpt>
      <trkpt lat="46.49215" lon="-0.08538">
        <ele>157.87</ele>
        <time>2023-06-16T08:59:46.481Z</time>
      </trkpt>
      <trkpt lat="46.49213" lon="-0.08561">
        <ele>158.11</ele>
        <time>2023-06-16T09:00:40.395Z</time>
      </trkpt>
      <trkpt lat="46.49212" lon="-0.08563">
        <ele>158.14</ele>
        <time>2023-06-16T09:01:34.309Z</time>
      </trkpt>
      <trkpt lat="46.49211" lon="-0.08569">
        <ele>158.16</ele>
        <time>2023-06-16T09:02:28.224Z</time>
      </trkpt>
      <trkpt lat="46.49209" lon="-0.08575">
        <ele>158.14</ele>
        <time>2023-06-16T09:03:22.140Z</time>
      </trkpt>
      <trkpt lat="46.49207" lon="-0.08581">
        <ele>158.08</ele>
        <time>2023-06-16T09:04:16.056Z</time>
      </trkpt>
      <trkpt lat="46.49204" lon="-0.08593">
        <ele>157.89</ele>
        <time>2023-06-16T09:05:09.974Z</time>
      </trkpt>
      <trkpt lat="46.49202" lon="-0.086">
        <ele>157.17</ele>
        <time>2023-06-16T09:06:03.893Z</time>
      </trkpt>
      <trkpt lat="46.49199" lon="-0.08622">
        <ele>155.04</ele>
        <time>2023-06-16T09:06:57.814Z</time>
      </trkpt>
      <trkpt lat="46.49198" lon="-0.08632">
        <ele>154.06</ele>
        <time>2023-06-16T09:07:51.736Z</time>
      </trkpt>
      <trkpt lat="46.49199" lon="-0.08639">
        <ele>153.36</ele>
        <time>2023-06-16T09:08:45.659Z</time>
      </trkpt>
      <trkpt lat="46.49205" lon="-0.0865">
        <ele>152.06</ele>
        <time>2023-06-16T09:09:39.584Z</time>
      </trkpt>
      <trkpt lat="46.49208" lon="-0.08656">
        <ele>151.94</ele>
        <time>2023-06-16T09:10:33.509Z</time>
      </trkpt>
      <trkpt lat="46.49203" lon="-0.08672">
        <ele>151.69</ele>
        <time>2023-06-16T09:11:27.436Z</time>
      </trkpt>
      <trkpt lat="46.492" lon="-0.08679">
        <ele>151.58</ele>
        <time>2023-06-16T09:12:21.364Z</time>
      </trkpt>
      <trkpt lat="46.49199" lon="-0.08683">
        <ele>151.53</ele>
        <time>2023-06-16T09:13:15.293Z</time>
      </trkpt>
      <trkpt lat="46.49198" lon="-0.08689">
        <ele>151.47</ele>
        <time>2023-06-16T09:14:09.222Z</time>
      </trkpt>
      <trkpt lat="46.49198" lon="-0.08696">
        <ele>151.41</ele>
        <time>2023-06-16T09:15:03.152Z</time>
      </trkpt>
      <trkpt lat="46.49198" lon="-0.08709">
        <ele>151.32</ele>
        <time>2023-06-16T09:15:57.084Z</time>
      </trkpt>
      <trkpt lat="46.49198" lon="-0.08712">
        <ele>151.3</ele>
        <time>2023-06-16T09:16:51.016Z</time>
      </trkpt>
      <trkpt lat="46.49195" lon="-0.0872">
        <ele>151.26</ele>
        <time>2023-06-16T09:17:44.949Z</time>
      </trkpt>
      <trkpt lat="46.49191" lon="-0.08729">
        <ele>151.23</ele>
        <time>2023-06-16T09:18:38.883Z</time>
      </trkpt>
      <trkpt lat="46.49191" lon="-0.08732">
        <ele>151.23</ele>
        <time>2023-06-16T09:19:32.817Z</time>
      </trkpt>
      <trkpt lat="46.49189" lon="-0.08744">
        <ele>151.26</ele>
        <time>2023-06-16T09:20:26.753Z</time>
      </trkpt>
      <trkpt lat="46.49187" lon="-0.08757">
        <ele>151.36</ele>
        <time>2023-06-16T09:21:20.690Z</time>
      </trkpt>
      <trkpt lat="46.49185" lon="-0.08769">
        <ele>151.54</ele>
        <time>2023-06-16T09:22:14.629Z</time>
      </trkpt>
      <trkpt lat="46.49184" lon="-0.08782">
        <ele>151.78</ele>
        <time>2023-06-16T09:23:08.569Z</time>
      </trkpt>
      <trkpt lat="46.49183" lon="-0.08788">
        <ele>151.94</ele>
        <time>2023-06-16T09:24:02.510Z</time>
      </trkpt>
      <trkpt lat="46.49181" lon="-0.088">
        <ele>152.33</ele>
        <time>2023-06-16T09:24:56.452Z</time>
      </trkpt>
      <trkpt lat="46.49181" lon="-0.08801">
        <ele>152.33</ele>
        <time>2023-06-16T09:25:50.394Z</time>
      </trkpt>
      <trkpt lat="46.49177" lon="-0.08812">
        <ele>152.82</ele>
        <time>2023-06-16T09:26:44.338Z</time>
      </trkpt>
      <trkpt lat="46.49175" lon="-0.08818">
        <ele>153.1</ele>
        <time>2023-06-16T09:27:38.282Z</time>
      </trkpt>
      <trkpt lat="46.49169" lon="-0.08836">
        <ele>153.98</ele>
        <time>2023-06-16T09:28:32.229Z</time>
      </trkpt>
      <trkpt lat="46.49166" lon="-0.08847">
        <ele>154.51</ele>
        <time>2023-06-16T09:29:26.177Z</time>
      </trkpt>
      <trkpt lat="46.49164" lon="-0.08853">
        <ele>154.74</ele>
        <time>2023-06-16T09:30:20.126Z</time>
      </trkpt>
      <trkpt lat="46.49162" lon="-0.08858">
        <ele>154.93</ele>
        <time>2023-06-16T09:31:14.075Z</time>
      </trkpt>
      <trkpt lat="46.49162" lon="-0.08859">
        <ele>154.93</ele>
        <time>2023-06-16T09:32:08.024Z</time>
      </trkpt>
      <trkpt lat="46.49158" lon="-0.08863">
        <ele>155.08</ele>
        <time>2023-06-16T09:33:01.974Z</time>
      </trkpt>
      <trkpt lat="46.49155" lon="-0.08868">
        <ele>155.2</ele>
        <time>2023-06-16T09:33:55.925Z</time>
      </trkpt>
      <trkpt lat="46.49149" lon="-0.08877">
        <ele>155.36</ele>
        <time>2023-06-16T09:34:49.877Z</time>
      </trkpt>
      <trkpt lat="46.49143" lon="-0.08886">
        <ele>155.44</ele>
        <time>2023-06-16T09:35:43.831Z</time>
      </trkpt>
      <trkpt lat="46.49124" lon="-0.08915">
        <ele>155.55</ele>
        <time>2023-06-16T09:36:37.789Z</time>
      </trkpt>
      <trkpt lat="46.49122" lon="-0.08919">
        <ele>155.57</ele>
        <time>2023-06-16T09:37:31.748Z</time>
      </trkpt>
      <trkpt lat="46.49117" lon="-0.08929">
        <ele>155.58</ele>
        <time>2023-06-16T09:38:25.708Z</time>
      </trkpt>
      <trkpt lat="46.49115" lon="-0.08933">
        <ele>155.56</ele>
        <time>2023-06-16T09:39:19.669Z</time>
      </trkpt>
      <trkpt lat="46.49114" lon="-0.08941">
        <ele>155.54</ele>
        <time>2023-06-16T09:40:13.630Z</time>
      </trkpt>
      <trkpt lat="46.49113" lon="-0.08955">
        <ele>154.96</ele>
        <time>2023-06-16T09:41:07.593Z</time>
      </trkpt>
      <trkpt lat="46.49113" lon="-0.08955">
        <ele>154.96</ele>
        <time>2023-06-16T09:42:01.556Z</time>
      </trkpt>
      <trkpt lat="46.49114" lon="-0.0896">
        <ele>154.64</ele>
        <time>2023-06-16T09:42:55.520Z</time>
      </trkpt>
      <trkpt lat="46.49115" lon="-0.08969">
        <ele>154.16</ele>
        <time>2023-06-16T09:43:49.485Z</time>
      </trkpt>
      <trkpt lat="46.49116" lon="-0.08973">
        <ele>153.94</ele>
        <time>2023-06-16T09:44:43.450Z</time>
      </trkpt>
      <trkpt lat="46.4912" lon="-0.08984">
        <ele>153.15</ele>
        <time>2023-06-16T09:45:37.416Z</time>
      </trkpt>
      <trkpt lat="46.49127" lon="-0.09004">
        <ele>151.64</ele>
        <time>2023-06-16T09:46:31.385Z</time>
      </trkpt>
      <trkpt lat="46.49124" lon="-0.09004">
        <ele>151.39</ele>
        <time>2023-06-16T09:47:25.354Z</time>
      </trkpt>
      <trkpt lat="46.4912" lon="-0.09004">
        <ele>150.98</ele>
        <time>2023-06-16T09:48:19.324Z</time>
      </trkpt>
      <trkpt lat="46.4912" lon="-0.09004">
        <ele>150.98</ele>
        <time>2023-06-16T09:49:13.294Z</time>
      </trkpt>
      <trkpt lat="46.49116" lon="-0.09003">
        <ele>150.62</ele>
        <time>2023-06-16T09:50:07.265Z</time>
      </trkpt>
      <trkpt lat="46.49113" lon="-0.09002">
        <ele>150.42</ele>
        <time>2023-06-16T09:51:01.236Z</time>
      </trkpt>
      <trkpt lat="46.49111" lon="-0.09001">
        <ele>150.3</ele>
        <time>2023-06-16T09:51:55.207Z</time>
      </trkpt>
      <trkpt lat="46.49107" lon="-0.08999">
        <ele>150.04</ele>
        <time>2023-06-16T09:52:49.179Z</time>
      </trkpt>
      <trkpt lat="46.49103" lon="-0.08996">
        <ele>149.83</ele>
        <time>2023-06-16T09:53:43.152Z</time>
      </trkpt>
      <trkpt lat="46.49099" lon="-0.08994">
        <ele>149.68</ele>
        <time>2023-06-16T09:54:37.126Z</time>
      </trkpt>
      <trkpt lat="46.49095" lon="-0.08992">
        <ele>149.58</ele>
        <time>2023-06-16T09:55:31.100Z</time>
      </trkpt>
      <trkpt lat="46.49091" lon="-0.08989">
        <ele>149.53</ele>
        <time>2023-06-16T09:56:25.075Z</time>
      </trkpt>
      <trkpt lat="46.49087" lon="-0.08987">
        <ele>149.52</ele>
        <time>2023-06-16T09:57:19.051Z</time>
      </trkpt>
      <trkpt lat="46.49087" lon="-0.08987">
        <ele>149.52</ele>
        <time>2023-06-16T09:58:13.027Z</time>
      </trkpt>
      <trkpt lat="46.49079" lon="-0.08983">
        <ele>149.58</ele>
        <time>2023-06-16T09:59:07.004Z</time>
      </trkpt>
      <trkpt lat="46.49078" lon="-0.08983">
        <ele>149.58</ele>
        <time>2023-06-16T10:00:00.981Z</time>
      </trkpt>
      <trkpt lat="46.49069" lon="-0.08986">
        <ele>149.74</ele>
        <time>2023-06-16T10:00:54.960Z</time>
      </trkpt>
      <trkpt lat="46.49066" lon="-0.08987">
        <ele>149.86</ele>
        <time>2023-06-16T10:01:48.939Z</time>
      </trkpt>
      <trkpt lat="46.49065" lon="-0.08988">
        <ele>149.86</ele>
        <time>2023-06-16T10:02:42.918Z</time>
      </trkpt>
      <trkpt lat="46.49054" lon="-0.08998">
        <ele>150.28</ele>
        <time>2023-06-16T10:03:36.899Z</time>
      </trkpt>
      <trkpt lat="46.49047" lon="-0.09005">
        <ele>150.52</ele>
        <time>2023-06-16T10:04:30.882Z</time>
      </trkpt>
      <trkpt lat="46.49035" lon="-0.09016">
        <ele>150.83</ele>
        <time>2023-06-16T10:05:24.867Z</time>
      </trkpt>
      <trkpt lat="46.49028" lon="-0.09023">
        <ele>150.98</ele>
        <time>2023-06-16T10:06:18.853Z</time>
      </trkpt>
      <trkpt lat="46.49021" lon="-0.0903">
        <ele>151.07</ele>
        <time>2023-06-16T10:07:12.841Z</time>
      </trkpt>
      <trkpt lat="46.48994" lon="-0.09055">
        <ele>151.27</ele>
        <time>2023-06-16T10:08:06.834Z</time>
      </trkpt>
      <trkpt lat="46.48991" lon="-0.09058">
        <ele>151.3</ele>
        <time>2023-06-16T10:09:00.827Z</time>
      </trkpt>
      <trkpt lat="46.48979" lon="-0.09067">
        <ele>151.42</ele>
        <time>2023-06-16T10:09:54.823Z</time>
      </trkpt>
      <trkpt lat="46.4897" lon="-0.09074">
        <ele>151.41</ele>
        <time>2023-06-16T10:10:48.820Z</time>
      </trkpt>
      <trkpt lat="46.48959" lon="-0.09083">
        <ele>151.33</ele>
        <time>2023-06-16T10:11:42.819Z</time>
      </trkpt>
      <trkpt lat="46.48951" lon="-0.09089">
        <ele>151.32</ele>
        <time>2023-06-16T10:12:36.820Z</time>
      </trkpt>
      <trkpt lat="46.4895" lon="-0.0909">
        <ele>151.32</ele>
        <time>2023-06-16T10:13:30.821Z</time>
      </trkpt>
      <trkpt lat="46.48942" lon="-0.09093">
        <ele>151.33</ele>
        <time>2023-06-16T10:14:24.823Z</time>
      </trkpt>
      <trkpt lat="46.48938" lon="-0.09094">
        <ele>151.35</ele>
        <time>2023-06-16T10:15:18.826Z</time>
      </trkpt>
      <trkpt lat="46.4893" lon="-0.09099">
        <ele>151.39</ele>
        <time>2023-06-16T10:16:12.830Z</time>
      </trkpt>
      <trkpt lat="46.48929" lon="-0.091">
        <ele>151.39</ele>
        <time>2023-06-16T10:17:06.834Z</time>
      </trkpt>
      <trkpt lat="46.48922" lon="-0.09105">
        <ele>151.48</ele>
        <time>2023-06-16T10:18:00.840Z</time>
      </trkpt>
      <trkpt lat="46.48918" lon="-0.09108">
        <ele>151.55</ele>
        <time>2023-06-16T10:18:54.846Z</time>
      </trkpt>
      <trkpt lat="46.48894" lon="-0.09125">
        <ele>152.06</ele>
        <time>2023-06-16T10:19:48.857Z</time>
      </trkpt>
      <trkpt lat="46.48882" lon="-0.09134">
        <ele>152.28</ele>
        <time>2023-06-16T10:20:42.870Z</time>
      </trkpt>
      <trkpt lat="46.48874" lon="-0.09139">
        <ele>152.4</ele>
        <time>2023-06-16T10:21:36.884Z</time>
      </trkpt>
      <trkpt lat="46.48858" lon="-0.09151">
        <ele>152.59</ele>
        <time>2023-06-16T10:22:30.901Z</time>
      </trkpt>
      <trkpt lat="46.4885" lon="-0.09156">
        <ele>152.72</ele>
        <time>2023-06-16T10:23:24.920Z</time>
      </trkpt>
      <trkpt lat="46.48842" lon="-0.09162">
        <ele>152.88</ele>
        <time>2023-06-16T10:24:18.940Z</time>
      </trkpt>
      <trkpt lat="46.48826" lon="-0.09173">
        <ele>153.26</ele>
        <time>2023-06-16T10:25:12.963Z</time>
      </trkpt>
      <trkpt lat="46.48821" lon="-0.09177">
        <ele>153.36</ele>
        <time>2023-06-16T10:26:06.987Z</time>
      </trkpt>
      <trkpt lat="46.48818" lon="-0.0918">
        <ele>153.43</ele>
        <time>2023-06-16T10:27:01.011Z</time>
      </trkpt>
      <trkpt lat="46.48784" lon="-0.09209">
        <ele>154.08</ele>
        <time>2023-06-16T10:27:55.042Z</time>
      </trkpt>
      <trkpt lat="46.48776" lon="-0.09216">
        <ele>154.23</ele>
        <time>2023-06-16T10:28:49.074Z</time>
      </trkpt>
      <trkpt lat="46.4875" lon="-0.09242">
        <ele>154.79</ele>
        <time>2023-06-16T10:29:43.111Z</time>
      </trkpt>
      <trkpt lat="46.4875" lon="-0.09242">
        <ele>154.79</ele>
        <time>2023-06-16T10:30:37.148Z</time>
      </trkpt>
      <trkpt lat="46.48732" lon="-0.0927">
        <ele>155.15</ele>
        <time>2023-06-16T10:31:31.189Z</time>
      </trkpt>
      <trkpt lat="46.48713" lon="-0.09297">
        <ele>155.47</ele>
        <time>2023-06-16T10:32:25.235Z</time>
      </trkpt>
      <trkpt lat="46.48692" lon="-0.0933">
        <ele>155.96</ele>
        <time>2023-06-16T10:33:19.286Z</time>
      </trkpt>
      <trkpt lat="46.48679" lon="-0.09349">
        <ele>156.32</ele>
        <time>2023-06-16T10:34:13.340Z</time>
      </trkpt>
      <trkpt lat="46.48667" lon="-0.09367">
        <ele>156.79</ele>
        <time>2023-06-16T10:35:07.396Z</time>
      </trkpt>
      <trkpt lat="46.48651" lon="-0.09391">
        <ele>157.3</ele>
        <time>2023-06-16T10:36:01.456Z</time>
      </trkpt>
      <trkpt lat="46.48636" lon="-0.09414">
        <ele>157.76</ele>
        <time>2023-06-16T10:36:55.520Z</time>
      </trkpt>
      <trkpt lat="46.48608" lon="-0.09456">
        <ele>158.32</ele>
        <time>2023-06-16T10:37:49.590Z</time>
      </trkpt>
      <trkpt lat="46.48605" lon="-0.09461">
        <ele>158.42</ele>
        <time>2023-06-16T10:38:43.661Z</time>
      </trkpt>
      <trkpt lat="46.48604" lon="-0.09462">
        <ele>158.45</ele>
        <time>2023-06-16T10:39:37.732Z</time>
      </trkpt>
      <trkpt lat="46.48595" lon="-0.09473">
        <ele>158.78</ele>
        <time>2023-06-16T10:40:31.805Z</time>
      </trkpt>
      <trkpt lat="46.48592" lon="-0.09478">
        <ele>158.87</ele>
        <time>2023-06-16T10:41:25.879Z</time>
      </trkpt>
      <trkpt lat="46.48581" lon="-0.0949">
        <ele>159.09</ele>
        <time>2023-06-16T10:42:19.955Z</time>
      </trkpt>
      <trkpt lat="46.48578" lon="-0.09495">
        <ele>159.18</ele>
        <time>2023-06-16T10:43:14.031Z</time>
      </trkpt>
      <trkpt lat="46.48565" lon="-0.09512">
        <ele>159.72</ele>
        <time>2023-06-16T10:44:08.110Z</time>
      </trkpt>
      <trkpt lat="46.48558" lon="-0.0952">
        <ele>159.94</ele>
        <time>2023-06-16T10:45:02.191Z</time>
      </trkpt>
      <trkpt lat="46.48551" lon="-0.09529">
        <ele>160.12</ele>
        <time>2023-06-16T10:45:56.273Z</time>
      </trkpt>
      <trkpt lat="46.48541" lon="-0.09541">
        <ele>160.35</ele>
        <time>2023-06-16T10:46:50.357Z</time>
      </trkpt>
      <trkpt lat="46.48538" lon="-0.09546">
        <ele>160.45</ele>
        <time>2023-06-16T10:47:44.442Z</time>
      </trkpt>
      <trkpt lat="46.48534" lon="-0.0955">
        <ele>160.59</ele>
        <time>2023-06-16T10:48:38.528Z</time>
      </trkpt>
      <trkpt lat="46.48528" lon="-0.09559">
        <ele>160.91</ele>
        <time>2023-06-16T10:49:32.615Z</time>
      </trkpt>
      <trkpt lat="46.48514" lon="-0.09576">
        <ele>161.63</ele>
        <time>2023-06-16T10:50:26.705Z</time>
      </trkpt>
      <trkpt lat="46.48511" lon="-0.0958">
        <ele>161.79</ele>
        <time>2023-06-16T10:51:20.796Z</time>
      </trkpt>
      <trkpt lat="46.48501" lon="-0.09593">
        <ele>162.15</ele>
        <time>2023-06-16T10:52:14.889Z</time>
      </trkpt>
      <trkpt lat="46.48497" lon="-0.09597">
        <ele>162.29</ele>
        <time>2023-06-16T10:53:08.983Z</time>
      </trkpt>
      <trkpt lat="46.48494" lon="-0.09601">
        <ele>162.47</ele>
        <time>2023-06-16T10:54:03.077Z</time>
      </trkpt>
      <trkpt lat="46.4849" lon="-0.09606">
        <ele>162.68</ele>
        <time>2023-06-16T10:54:57.172Z</time>
      </trkpt>
      <trkpt lat="46.4849" lon="-0.09606">
        <ele>162.68</ele>
        <time>2023-06-16T10:55:51.267Z</time>
      </trkpt>
      <trkpt lat="46.48487" lon="-0.09609">
        <ele>162.93</ele>
        <time>2023-06-16T10:56:45.363Z</time>
      </trkpt>
      <trkpt lat="46.48471" lon="-0.09622">
        <ele>163.99</ele>
        <time>2023-06-16T10:57:39.462Z</time>
      </trkpt>
      <trkpt lat="46.48468" lon="-0.09626">
        <ele>164.2</ele>
        <time>2023-06-16T10:58:33.561Z</time>
      </trkpt>
      <trkpt lat="46.48464" lon="-0.09629">
        <ele>164.38</ele>
        <time>2023-06-16T10:59:27.661Z</time>
      </trkpt>
      <trkpt lat="46.4846" lon="-0.09632">
        <ele>164.51</ele>
        <time>2023-06-16T11:00:21.762Z</time>
      </trkpt>
      <trkpt lat="46.48456" lon="-0.09636">
        <ele>164.6</ele>
        <time>2023-06-16T11:01:15.863Z</time>
      </trkpt>
      <trkpt lat="46.48437" lon="-0.09652">
        <ele>164.87</ele>
        <time>2023-06-16T11:02:09.968Z</time>
      </trkpt>
      <trkpt lat="46.48429" lon="-0.09659">
        <ele>165.02</ele>
        <time>2023-06-16T11:03:04.074Z</time>
      </trkpt>
      <trkpt lat="46.48422" lon="-0.09666">
        <ele>165.24</ele>
        <time>2023-06-16T11:03:58.182Z</time>
      </trkpt>
      <trkpt lat="46.48408" lon="-0.09678">
        <ele>165.7</ele>
        <time>2023-06-16T11:04:52.292Z</time>
      </trkpt>
      <trkpt lat="46.48406" lon="-0.09679">
        <ele>165.76</ele>
        <time>2023-06-16T11:05:46.403Z</time>
      </trkpt>
      <trkpt lat="46.4839" lon="-0.0969">
        <ele>166.19</ele>
        <time>2023-06-16T11:06:40.517Z</time>
      </trkpt>
      <trkpt lat="46.48382" lon="-0.09696">
        <ele>166.44</ele>
        <time>2023-06-16T11:07:34.632Z</time>
      </trkpt>
      <trkpt lat="46.48358" lon="-0.09712">
        <ele>167.33</ele>
        <time>2023-06-16T11:08:28.751Z</time>
      </trkpt>
      <trkpt lat="46.48342" lon="-0.09723">
        <ele>168.04</ele>
        <time>2023-06-16T11:09:22.873Z</time>
      </trkpt>
      <trkpt lat="46.48334" lon="-0.09729">
        <ele>168.42</ele>
        <time>2023-06-16T11:10:16.997Z</time>
      </trkpt>
      <trkpt lat="46.48322" lon="-0.09737">
        <ele>169.14</ele>
        <time>2023-06-16T11:11:11.123Z</time>
      </trkpt>
      <trkpt lat="46.48309" lon="-0.09745">
        <ele>169.82</ele>
        <time>2023-06-16T11:12:05.251Z</time>
      </trkpt>
      <trkpt lat="46.48305" lon="-0.09748">
        <ele>170.08</ele>
        <time>2023-06-16T11:12:59.380Z</time>
      </trkpt>
      <trkpt lat="46.48301" lon="-0.09751">
        <ele>170.38</ele>
        <time>2023-06-16T11:13:53.509Z</time>
      </trkpt>
      <trkpt lat="46.48293" lon="-0.09757">
        <ele>171.09</ele>
        <time>2023-06-16T11:14:47.640Z</time>
      </trkpt>
      <trkpt lat="46.48289" lon="-0.09759">
        <ele>171.43</ele>
        <time>2023-06-16T11:15:41.771Z</time>
      </trkpt>
      <trkpt lat="46.48261" lon="-0.09778">
        <ele>170.96</ele>
        <time>2023-06-16T11:16:35.907Z</time>
      </trkpt>
      <trkpt lat="46.48251" lon="-0.09785">
        <ele>170.82</ele>
        <time>2023-06-16T11:17:30.045Z</time>
      </trkpt>
      <trkpt lat="46.48252" lon="-0.09785">
        <ele>170.81</ele>
        <time>2023-06-16T11:18:24.183Z</time>
      </trkpt>
      <trkpt lat="46.48247" lon="-0.09785">
        <ele>170.75</ele>
        <time>2023-06-16T11:19:18.322Z</time>
      </trkpt>
      <trkpt lat="46.48247" lon="-0.09777">
        <ele>170.69</ele>
        <time>2023-06-16T11:20:12.462Z</time>
      </trkpt>
      <trkpt lat="46.48251" lon="-0.09693">
        <ele>169.94</ele>
        <time>2023-06-16T11:21:06.611Z</time>
      </trkpt>
      <trkpt lat="46.48254" lon="-0.09635">
        <ele>169.52</ele>
        <time>2023-06-16T11:22:00.767Z</time>
      </trkpt>
      <trkpt lat="46.48256" lon="-0.09578">
        <ele>169.05</ele>
        <time>2023-06-16T11:22:54.929Z</time>
      </trkpt>
      <trkpt lat="46.48257" lon="-0.09564">
        <ele>168.94</ele>
        <time>2023-06-16T11:23:49.093Z</time>
      </trkpt>
      <trkpt lat="46.48264" lon="-0.09466">
        <ele>168.3</ele>
        <time>2023-06-16T11:24:43.268Z</time>
      </trkpt>
      <trkpt lat="46.48269" lon="-0.0943">
        <ele>168.07</ele>
        <time>2023-06-16T11:25:37.447Z</time>
      </trkpt>
      <trkpt lat="46.4824" lon="-0.09402">
        <ele>167.75</ele>
        <time>2023-06-16T11:26:31.631Z</time>
      </trkpt>
      <trkpt lat="46.4819" lon="-0.09374">
        <ele>167.25</ele>
        <time>2023-06-16T11:27:25.824Z</time>
      </trkpt>
      <trkpt lat="46.48129" lon="-0.0933">
        <ele>166.61</ele>
        <time>2023-06-16T11:28:20.028Z</time>
      </trkpt>
      <trkpt lat="46.48122" lon="-0.0921">
        <ele>165.84</ele>
        <time>2023-06-16T11:29:14.245Z</time>
      </trkpt>
      <trkpt lat="46.48112" lon="-0.09148">
        <ele>165.43</ele>
        <time>2023-06-16T11:30:08.469Z</time>
      </trkpt>
      <trkpt lat="46.48107" lon="-0.09072">
        <ele>164.95</ele>
        <time>2023-06-16T11:31:02.702Z</time>
      </trkpt>
      <trkpt lat="46.4809" lon="-0.09008">
        <ele>164.51</ele>
        <time>2023-06-16T11:31:56.942Z</time>
      </trkpt>
      <trkpt lat="46.48062" lon="-0.08919">
        <ele>163.88</ele>
        <time>2023-06-16T11:32:51.193Z</time>
      </trkpt>
      <trkpt lat="46.48041" lon="-0.08869">
        <ele>163.51</ele>
        <time>2023-06-16T11:33:45.450Z</time>
      </trkpt>
      <trkpt lat="46.4804" lon="-0.08868">
        <ele>163.51</ele>
        <time>2023-06-16T11:34:39.708Z</time>
      </trkpt>
      <trkpt lat="46.48012" lon="-0.08811">
        <ele>163.73</ele>
        <time>2023-06-16T11:35:33.973Z</time>
      </trkpt>
      <trkpt lat="46.4798" lon="-0.08843">
        <ele>163.92</ele>
        <time>2023-06-16T11:36:28.245Z</time>
      </trkpt>
      <trkpt lat="46.4795" lon="-0.08862">
        <ele>164.07</ele>
        <time>2023-06-16T11:37:22.522Z</time>
      </trkpt>
      <trkpt lat="46.47904" lon="-0.08884">
        <ele>164.29</ele>
        <time>2023-06-16T11:38:16.807Z</time>
      </trkpt>
      <trkpt lat="46.47868" lon="-0.08908">
        <ele>164.48</ele>
        <time>2023-06-16T11:39:11.098Z</time>
      </trkpt>
      <trkpt lat="46.47799" lon="-0.08947">
        <ele>164.82</ele>
        <time>2023-06-16T11:40:05.401Z</time>
      </trkpt>
      <trkpt lat="46.4779" lon="-0.08958">
        <ele>164.88</ele>
        <time>2023-06-16T11:40:59.706Z</time>
      </trkpt>
      <trkpt lat="46.47764" lon="-0.0903">
        <ele>165.14</ele>
        <time>2023-06-16T11:41:54.020Z</time>
      </trkpt>
      <trkpt lat="46.47759" lon="-0.09058">
        <ele>165.23</ele>
        <time>2023-06-16T11:42:48.337Z</time>
      </trkpt>
      <trkpt lat="46.47756" lon="-0.09084">
        <ele>165.31</ele>
        <time>2023-06-16T11:43:42.657Z</time>
      </trkpt>
      <trkpt lat="46.47757" lon="-0.09125">
        <ele>165.45</ele>
        <time>2023-06-16T11:44:36.981Z</time>
      </trkpt>
      <trkpt lat="46.47757" lon="-0.09155">
        <ele>165.19</ele>
        <time>2023-06-16T11:45:31.309Z</time>
      </trkpt>
      <trkpt lat="46.47757" lon="-0.09158">
        <ele>165.17</ele>
        <time>2023-06-16T11:46:25.637Z</time>
      </trkpt>
      <trkpt lat="46.47756" lon="-0.09173">
        <ele>165.07</ele>
        <time>2023-06-16T11:47:19.967Z</time>
      </trkpt>
      <trkpt lat="46.47751" lon="-0.09194">
        <ele>164.93</ele>
        <time>2023-06-16T11:48:14.299Z</time>
      </trkpt>
      <trkpt lat="46.47729" lon="-0.09187">
        <ele>164.72</ele>
        <time>2023-06-16T11:49:08.635Z</time>
      </trkpt>
      <trkpt lat="46.47717" lon="-0.09187">
        <ele>164.61</ele>
        <time>2023-06-16T11:50:02.973Z</time>
      </trkpt>
      <trkpt lat="46.47691" lon="-0.09198">
        <ele>164.35</ele>
        <time>2023-06-16T11:50:57.315Z</time>
      </trkpt>
      <trkpt lat="46.47684" lon="-0.09204">
        <ele>164.28</ele>
        <time>2023-06-16T11:51:51.658Z</time>
      </trkpt>
      <trkpt lat="46.47663" lon="-0.09223">
        <ele>164.65</ele>
        <time>2023-06-16T11:52:46.005Z</time>
      </trkpt>
      <trkpt lat="46.47654" lon="-0.09234">
        <ele>164.83</ele>
        <time>2023-06-16T11:53:40.354Z</time>
      </trkpt>
      <trkpt lat="46.47647" lon="-0.09248">
        <ele>165.01</ele>
        <time>2023-06-16T11:54:34.705Z</time>
      </trkpt>
      <trkpt lat="46.47563" lon="-0.09194">
        <ele>166.42</ele>
        <time>2023-06-16T11:55:29.071Z</time>
      </trkpt>
      <trkpt lat="46.47548" lon="-0.09183">
        <ele>166.56</ele>
        <time>2023-06-16T11:56:23.439Z</time>
      </trkpt>
      <trkpt lat="46.47522" lon="-0.09167">
        <ele>167.63</ele>
        <time>2023-06-16T11:57:17.812Z</time>
      </trkpt>
      <trkpt lat="46.47504" lon="-0.09155">
        <ele>168.06</ele>
        <time>2023-06-16T11:58:12.188Z</time>
      </trkpt>
      <trkpt lat="46.47497" lon="-0.09159">
        <ele>168.23</ele>
        <time>2023-06-16T11:59:06.565Z</time>
      </trkpt>
      <trkpt lat="46.47464" lon="-0.09205">
        <ele>169.22</ele>
        <time>2023-06-16T12:00:00.950Z</time>
      </trkpt>
      <trkpt lat="46.47391" lon="-0.09287">
        <ele>171.22</ele>
        <time>2023-06-16T12:00:55.349Z</time>
      </trkpt>
      <trkpt lat="46.47366" lon="-0.09319">
        <ele>171.94</ele>
        <time>2023-06-16T12:01:49.754Z</time>
      </trkpt>
      <trkpt lat="46.4734" lon="-0.09337">
        <ele>172.57</ele>
        <time>2023-06-16T12:02:44.163Z</time>
      </trkpt>
      <trkpt lat="46.47292" lon="-0.0936">
        <ele>173.67</ele>
        <time>2023-06-16T12:03:38.580Z</time>
      </trkpt>
      <trkpt lat="46.47262" lon="-0.09389">
        <ele>174.45</ele>
        <time>2023-06-16T12:04:33.003Z</time>
      </trkpt>
      <trkpt lat="46.47256" lon="-0.09395">
        <ele>174.53</ele>
        <time>2023-06-16T12:05:27.427Z</time>
      </trkpt>
      <trkpt lat="46.47238" lon="-0.09423">
        <ele>174.81</ele>
        <time>2023-06-16T12:06:21.856Z</time>
      </trkpt>
      <trkpt lat="46.4723" lon="-0.09439">
        <ele>174.96</ele>
        <time>2023-06-16T12:07:16.287Z</time>
      </trkpt>
      <trkpt lat="46.47223" lon="-0.0947">
        <ele>175.2</ele>
        <time>2023-06-16T12:08:10.721Z</time>
      </trkpt>
      <trkpt lat="46.47218" lon="-0.09552">
        <ele>175.81</ele>
        <time>2023-06-16T12:09:05.164Z</time>
      </trkpt>
      <trkpt lat="46.47218" lon="-0.09586">
        <ele>176.06</ele>
        <time>2023-06-16T12:09:59.611Z</time>
      </trkpt>
      <trkpt lat="46.47218" lon="-0.09588">
        <ele>176.06</ele>
        <time>2023-06-16T12:10:54.058Z</time>
      </trkpt>
      <trkpt lat="46.47213" lon="-0.09627">
        <ele>176.13</ele>
        <time>2023-06-16T12:11:48.510Z</time>
      </trkpt>
      <trkpt lat="46.47206" lon="-0.09653">
        <ele>176.18</ele>
        <time>2023-06-16T12:12:42.965Z</time>
      </trkpt>
      <trkpt lat="46.47197" lon="-0.09671">
        <ele>176.22</ele>
        <time>2023-06-16T12:13:37.422Z</time>
      </trkpt>
      <trkpt lat="46.4718" lon="-0.09692">
        <ele>176.27</ele>
        <time>2023-06-16T12:14:31.883Z</time>
      </trkpt>
      <trkpt lat="46.47148" lon="-0.09735">
        <ele>176.38</ele>
        <time>2023-06-16T12:15:26.351Z</time>
      </trkpt>
      <trkpt lat="46.4708" lon="-0.09793">
        <ele>176.58</ele>
        <time>2023-06-16T12:16:20.832Z</time>
      </trkpt>
      <trkpt lat="46.47076" lon="-0.09799">
        <ele>176.6</ele>
        <time>2023-06-16T12:17:15.313Z</time>
      </trkpt>
      <trkpt lat="46.47059" lon="-0.09828">
        <ele>176.78</ele>
        <time>2023-06-16T12:18:09.799Z</time>
      </trkpt>
      <trkpt lat="46.46964" lon="-0.09915">
        <ele>177.55</ele>
        <time>2023-06-16T12:19:04.303Z</time>
      </trkpt>
      <trkpt lat="46.46907" lon="-0.09964">
        <ele>178.01</ele>
        <time>2023-06-16T12:19:58.817Z</time>
      </trkpt>
      <trkpt lat="46.46856" lon="-0.10003">
        <ele>178.41</ele>
        <time>2023-06-16T12:20:53.341Z</time>
      </trkpt>
      <trkpt lat="46.46838" lon="-0.10022">
        <ele>178.56</ele>
        <time>2023-06-16T12:21:47.868Z</time>
      </trkpt>
      <trkpt lat="46.46821" lon="-0.10044">
        <ele>178.72</ele>
        <time>2023-06-16T12:22:42.399Z</time>
      </trkpt>
      <trkpt lat="46.46798" lon="-0.10084">
        <ele>178.97</ele>
        <time>2023-06-16T12:23:36.936Z</time>
      </trkpt>
      <trkpt lat="46.46787" lon="-0.10103">
        <ele>178.8</ele>
        <time>2023-06-16T12:24:31.475Z</time>
      </trkpt>
      <trkpt lat="46.46782" lon="-0.10112">
        <ele>178.69</ele>
        <time>2023-06-16T12:25:26.016Z</time>
      </trkpt>
      <trkpt lat="46.46767" lon="-0.10137">
        <ele>178.34</ele>
        <time>2023-06-16T12:26:20.560Z</time>
      </trkpt>
      <trkpt lat="46.46763" lon="-0.10129">
        <ele>178.24</ele>
        <time>2023-06-16T12:27:15.105Z</time>
      </trkpt>
      <trkpt lat="46.46746" lon="-0.10097">
        <ele>177.78</ele>
        <time>2023-06-16T12:28:09.655Z</time>
      </trkpt>
      <trkpt lat="46.46738" lon="-0.10082">
        <ele>177.5</ele>
        <time>2023-06-16T12:29:04.207Z</time>
      </trkpt>
      <trkpt lat="46.46732" lon="-0.10071">
        <ele>177.28</ele>
        <time>2023-06-16T12:29:58.760Z</time>
      </trkpt>
      <trkpt lat="46.46727" lon="-0.10061">
        <ele>177.02</ele>
        <time>2023-06-16T12:30:53.315Z</time>
      </trkpt>
      <trkpt lat="46.46717" lon="-0.10042">
        <ele>176.5</ele>
        <time>2023-06-16T12:31:47.872Z</time>
      </trkpt>
      <trkpt lat="46.46707" lon="-0.10026">
        <ele>176.06</ele>
        <time>2023-06-16T12:32:42.432Z</time>
      </trkpt>
      <trkpt lat="46.46696" lon="-0.10007">
        <ele>175.54</ele>
        <time>2023-06-16T12:33:36.995Z</time>
      </trkpt>
      <trkpt lat="46.46696" lon="-0.10007">
        <ele>175.54</ele>
        <time>2023-06-16T12:34:31.558Z</time>
      </trkpt>
      <trkpt lat="46.46689" lon="-0.09998">
        <ele>175.25</ele>
        <time>2023-06-16T12:35:26.122Z</time>
      </trkpt>
      <trkpt lat="46.46672" lon="-0.09978">
        <ele>174.41</ele>
        <time>2023-06-16T12:36:20.690Z</time>
      </trkpt>
      <trkpt lat="46.46643" lon="-0.09942">
        <ele>173.11</ele>
        <time>2023-06-16T12:37:15.264Z</time>
      </trkpt>
      <trkpt lat="46.46638" lon="-0.09936">
        <ele>172.9</ele>
        <time>2023-06-16T12:38:09.839Z</time>
      </trkpt>
      <trkpt lat="46.46631" lon="-0.09928">
        <ele>172.61</ele>
        <time>2023-06-16T12:39:04.415Z</time>
      </trkpt>
      <trkpt lat="46.46617" lon="-0.09912">
        <ele>172.15</ele>
        <time>2023-06-16T12:39:58.994Z</time>
      </trkpt>
      <trkpt lat="46.46607" lon="-0.099">
        <ele>171.87</ele>
        <time>2023-06-16T12:40:53.575Z</time>
      </trkpt>
      <trkpt lat="46.466" lon="-0.09892">
        <ele>171.73</ele>
        <time>2023-06-16T12:41:48.158Z</time>
      </trkpt>
      <trkpt lat="46.46593" lon="-0.09884">
        <ele>171.62</ele>
        <time>2023-06-16T12:42:42.742Z</time>
      </trkpt>
      <trkpt lat="46.46586" lon="-0.09876">
        <ele>171.54</ele>
        <time>2023-06-16T12:43:37.327Z</time>
      </trkpt>
      <trkpt lat="46.46575" lon="-0.09864">
        <ele>171.48</ele>
        <time>2023-06-16T12:44:31.914Z</time>
      </trkpt>
      <trkpt lat="46.46565" lon="-0.09852">
        <ele>171.51</ele>
        <time>2023-06-16T12:45:26.504Z</time>
      </trkpt>
      <trkpt lat="46.46548" lon="-0.09832">
        <ele>171.64</ele>
        <time>2023-06-16T12:46:21.097Z</time>
      </trkpt>
      <trkpt lat="46.46541" lon="-0.09824">
        <ele>171.71</ele>
        <time>2023-06-16T12:47:15.692Z</time>
      </trkpt>
      <trkpt lat="46.46523" lon="-0.09804">
        <ele>172</ele>
        <time>2023-06-16T12:48:10.290Z</time>
      </trkpt>
      <trkpt lat="46.46514" lon="-0.09793">
        <ele>172.2</ele>
        <time>2023-06-16T12:49:04.890Z</time>
      </trkpt>
      <trkpt lat="46.46509" lon="-0.09788">
        <ele>172.3</ele>
        <time>2023-06-16T12:49:59.491Z</time>
      </trkpt>
      <trkpt lat="46.46503" lon="-0.09781">
        <ele>172.48</ele>
        <time>2023-06-16T12:50:54.093Z</time>
      </trkpt>
      <trkpt lat="46.46502" lon="-0.0978">
        <ele>172.51</ele>
        <time>2023-06-16T12:51:48.695Z</time>
      </trkpt>
      <trkpt lat="46.46498" lon="-0.09777">
        <ele>172.63</ele>
        <time>2023-06-16T12:52:43.298Z</time>
      </trkpt>
      <trkpt lat="46.46486" lon="-0.09767">
        <ele>173.08</ele>
        <time>2023-06-16T12:53:37.903Z</time>
      </trkpt>
      <trkpt lat="46.46486" lon="-0.09767">
        <ele>173.08</ele>
        <time>2023-06-16T12:54:32.508Z</time>
      </trkpt>
      <trkpt lat="46.4647" lon="-0.09757">
        <ele>173.39</ele>
        <time>2023-06-16T12:55:27.116Z</time>
      </trkpt>
      <trkpt lat="46.46468" lon="-0.09756">
        <ele>173.44</ele>
        <time>2023-06-16T12:56:21.725Z</time>
      </trkpt>
      <trkpt lat="46.46441" lon="-0.09746">
        <ele>174</ele>
        <time>2023-06-16T12:57:16.338Z</time>
      </trkpt>
      <trkpt lat="46.46422" lon="-0.09742">
        <ele>174.39</ele>
        <time>2023-06-16T12:58:10.954Z</time>
      </trkpt>
      <trkpt lat="46.464" lon="-0.09737">
        <ele>174.79</ele>
        <time>2023-06-16T12:59:05.574Z</time>
      </trkpt>
      <trkpt lat="46.46392" lon="-0.09735">
        <ele>175</ele>
        <time>2023-06-16T13:00:00.195Z</time>
      </trkpt>
      <trkpt lat="46.46391" lon="-0.09735">
        <ele>175</ele>
        <time>2023-06-16T13:00:54.816Z</time>
      </trkpt>
      <trkpt lat="46.46387" lon="-0.09733">
        <ele>175.13</ele>
        <time>2023-06-16T13:01:49.438Z</time>
      </trkpt>
      <trkpt lat="46.46361" lon="-0.09724">
        <ele>176</ele>
        <time>2023-06-16T13:02:44.064Z</time>
      </trkpt>
      <trkpt lat="46.46353" lon="-0.09721">
        <ele>176.31</ele>
        <time>2023-06-16T13:03:38.691Z</time>
      </trkpt>
      <trkpt lat="46.46326" lon="-0.09711">
        <ele>177.3</ele>
        <time>2023-06-16T13:04:33.323Z</time>
      </trkpt>
      <trkpt lat="46.46313" lon="-0.09706">
        <ele>177.76</ele>
        <time>2023-06-16T13:05:27.957Z</time>
      </trkpt>
      <trkpt lat="46.46313" lon="-0.09706">
        <ele>177.76</ele>
        <time>2023-06-16T13:06:22.591Z</time>
      </trkpt>
      <trkpt lat="46.46297" lon="-0.09699">
        <ele>178.3</ele>
        <time>2023-06-16T13:07:17.228Z</time>
      </trkpt>
      <trkpt lat="46.4627" lon="-0.09675">
        <ele>179.32</ele>
        <time>2023-06-16T13:08:11.870Z</time>
      </trkpt>
      <trkpt lat="46.46247" lon="-0.09654">
        <ele>180.22</ele>
        <time>2023-06-16T13:09:06.516Z</time>
      </trkpt>
      <trkpt lat="46.46236" lon="-0.09644">
        <ele>180.61</ele>
        <time>2023-06-16T13:10:01.164Z</time>
      </trkpt>
      <trkpt lat="46.46224" lon="-0.09634">
        <ele>180.96</ele>
        <time>2023-06-16T13:10:55.814Z</time>
      </trkpt>
      <trkpt lat="46.46213" lon="-0.09624">
        <ele>181.2</ele>
        <time>2023-06-16T13:11:50.467Z</time>
      </trkpt>
      <trkpt lat="46.46201" lon="-0.09613">
        <ele>181.38</ele>
        <time>2023-06-16T13:12:45.122Z</time>
      </trkpt>
      <trkpt lat="46.46178" lon="-0.09593">
        <ele>181.63</ele>
        <time>2023-06-16T13:13:39.781Z</time>
      </trkpt>
      <trkpt lat="46.46163" lon="-0.09579">
        <ele>182.06</ele>
        <time>2023-06-16T13:14:34.443Z</time>
      </trkpt>
      <trkpt lat="46.46152" lon="-0.09569">
        <ele>182.35</ele>
        <time>2023-06-16T13:15:29.107Z</time>
      </trkpt>
      <trkpt lat="46.46148" lon="-0.09566">
        <ele>182.41</ele>
        <time>2023-06-16T13:16:23.772Z</time>
      </trkpt>
      <trkpt lat="46.46144" lon="-0.09562">
        <ele>182.45</ele>
        <time>2023-06-16T13:17:18.437Z</time>
      </trkpt>
      <trkpt lat="46.4614" lon="-0.09559">
        <ele>182.46</ele>
        <time>2023-06-16T13:18:13.103Z</time>
      </trkpt>
      <trkpt lat="46.46137" lon="-0.09556">
        <ele>182.45</ele>
        <time>2023-06-16T13:19:07.770Z</time>
      </trkpt>
      <trkpt lat="46.46136" lon="-0.09556">
        <ele>182.45</ele>
        <time>2023-06-16T13:20:02.437Z</time>
      </trkpt>
      <trkpt lat="46.46118" lon="-0.09545">
        <ele>182.25</ele>
        <time>2023-06-16T13:20:57.107Z</time>
      </trkpt>
      <trkpt lat="46.46116" lon="-0.09544">
        <ele>182.23</ele>
        <time>2023-06-16T13:21:51.777Z</time>
      </trkpt>
      <trkpt lat="46.46089" lon="-0.09535">
        <ele>181.89</ele>
        <time>2023-06-16T13:22:46.452Z</time>
      </trkpt>
      <trkpt lat="46.46055" lon="-0.09522">
        <ele>181.59</ele>
        <time>2023-06-16T13:23:41.132Z</time>
      </trkpt>
      <trkpt lat="46.46046" lon="-0.09519">
        <ele>181.46</ele>
        <time>2023-06-16T13:24:35.814Z</time>
      </trkpt>
      <trkpt lat="46.46028" lon="-0.09513">
        <ele>181.13</ele>
        <time>2023-06-16T13:25:30.499Z</time>
      </trkpt>
      <trkpt lat="46.4602" lon="-0.0951">
        <ele>180.98</ele>
        <time>2023-06-16T13:26:25.185Z</time>
      </trkpt>
      <trkpt lat="46.45994" lon="-0.09501">
        <ele>180.64</ele>
        <time>2023-06-16T13:27:19.876Z</time>
      </trkpt>
      <trkpt lat="46.45963" lon="-0.0949">
        <ele>180.34</ele>
        <time>2023-06-16T13:28:14.572Z</time>
      </trkpt>
      <trkpt lat="46.45924" lon="-0.09476">
        <ele>180.06</ele>
        <time>2023-06-16T13:29:09.274Z</time>
      </trkpt>
      <trkpt lat="46.45898" lon="-0.09466">
        <ele>179.83</ele>
        <time>2023-06-16T13:30:03.980Z</time>
      </trkpt>
      <trkpt lat="46.45889" lon="-0.09463">
        <ele>179.8</ele>
        <time>2023-06-16T13:30:58.688Z</time>
      </trkpt>
      <trkpt lat="46.4588" lon="-0.0946">
        <ele>179.83</ele>
        <time>2023-06-16T13:31:53.397Z</time>
      </trkpt>
      <trkpt lat="46.45867" lon="-0.09456">
        <ele>179.92</ele>
        <time>2023-06-16T13:32:48.108Z</time>
      </trkpt>
      <trkpt lat="46.45854" lon="-0.09451">
        <ele>180.04</ele>
        <time>2023-06-16T13:33:42.822Z</time>
      </trkpt>
      <trkpt lat="46.45846" lon="-0.09448">
        <ele>180.14</ele>
        <time>2023-06-16T13:34:37.537Z</time>
      </trkpt>
      <trkpt lat="46.45828" lon="-0.09442">
        <ele>180.41</ele>
        <time>2023-06-16T13:35:32.255Z</time>
      </trkpt>
      <trkpt lat="46.45821" lon="-0.09439">
        <ele>180.54</ele>
        <time>2023-06-16T13:36:26.974Z</time>
      </trkpt>
      <trkpt lat="46.45811" lon="-0.09435">
        <ele>180.74</ele>
        <time>2023-06-16T13:37:21.695Z</time>
      </trkpt>
      <trkpt lat="46.45768" lon="-0.09417">
        <ele>181.45</ele>
        <time>2023-06-16T13:38:16.423Z</time>
      </trkpt>
      <trkpt lat="46.45755" lon="-0.09412">
        <ele>181.61</ele>
        <time>2023-06-16T13:39:11.153Z</time>
      </trkpt>
      <trkpt lat="46.45742" lon="-0.09407">
        <ele>181.72</ele>
        <time>2023-06-16T13:40:05.885Z</time>
      </trkpt>
      <trkpt lat="46.45729" lon="-0.09402">
        <ele>181.76</ele>
        <time>2023-06-16T13:41:00.619Z</time>
      </trkpt>
      <trkpt lat="46.45707" lon="-0.09393">
        <ele>181.78</ele>
        <time>2023-06-16T13:41:55.357Z</time>
      </trkpt>
      <trkpt lat="46.45694" lon="-0.09388">
        <ele>181.78</ele>
        <time>2023-06-16T13:42:50.097Z</time>
      </trkpt>
      <trkpt lat="46.45686" lon="-0.09384">
        <ele>181.76</ele>
        <time>2023-06-16T13:43:44.839Z</time>
      </trkpt>
      <trkpt lat="46.45677" lon="-0.09381">
        <ele>181.72</ele>
        <time>2023-06-16T13:44:39.582Z</time>
      </trkpt>
      <trkpt lat="46.4566" lon="-0.09374">
        <ele>181.58</ele>
        <time>2023-06-16T13:45:34.328Z</time>
      </trkpt>
      <trkpt lat="46.45647" lon="-0.09369">
        <ele>181.46</ele>
        <time>2023-06-16T13:46:29.076Z</time>
      </trkpt>
      <trkpt lat="46.45629" lon="-0.09362">
        <ele>181.27</ele>
        <time>2023-06-16T13:47:23.827Z</time>
      </trkpt>
      <trkpt lat="46.45621" lon="-0.09358">
        <ele>181.2</ele>
        <time>2023-06-16T13:48:18.579Z</time>
      </trkpt>
      <trkpt lat="46.45612" lon="-0.09355">
        <ele>181.17</ele>
        <time>2023-06-16T13:49:13.333Z</time>
      </trkpt>
      <trkpt lat="46.45588" lon="-0.09345">
        <ele>181.15</ele>
        <time>2023-06-16T13:50:08.091Z</time>
      </trkpt>
      <trkpt lat="46.45586" lon="-0.09345">
        <ele>181.15</ele>
        <time>2023-06-16T13:51:02.849Z</time>
      </trkpt>
      <trkpt lat="46.45573" lon="-0.09343">
        <ele>181.31</ele>
        <time>2023-06-16T13:51:57.609Z</time>
      </trkpt>
      <trkpt lat="46.45566" lon="-0.09342">
        <ele>181.36</ele>
        <time>2023-06-16T13:52:52.370Z</time>
      </trkpt>
      <trkpt lat="46.45564" lon="-0.09342">
        <ele>181.38</ele>
        <time>2023-06-16T13:53:47.132Z</time>
      </trkpt>
      <trkpt lat="46.45546" lon="-0.09345">
        <ele>181.45</ele>
        <time>2023-06-16T13:54:41.896Z</time>
      </trkpt>
      <trkpt lat="46.45538" lon="-0.09349">
        <ele>181.49</ele>
        <time>2023-06-16T13:55:36.662Z</time>
      </trkpt>
      <trkpt lat="46.45531" lon="-0.09353">
        <ele>181.53</ele>
        <time>2023-06-16T13:56:31.429Z</time>
      </trkpt>
      <trkpt lat="46.45513" lon="-0.09375">
        <ele>181.66</ele>
        <time>2023-06-16T13:57:26.200Z</time>
      </trkpt>
      <trkpt lat="46.45503" lon="-0.09387">
        <ele>181.68</ele>
        <time>2023-06-16T13:58:20.973Z</time>
      </trkpt>
      <trkpt lat="46.45497" lon="-0.09395">
        <ele>181.67</ele>
        <time>2023-06-16T13:59:15.747Z</time>
      </trkpt>
      <trkpt lat="46.45483" lon="-0.09413">
        <ele>181.67</ele>
        <time>2023-06-16T14:00:10.524Z</time>
      </trkpt>
      <trkpt lat="46.45464" lon="-0.09439">
        <ele>181.71</ele>
        <time>2023-06-16T14:01:05.305Z</time>
      </trkpt>
      <trkpt lat="46.45457" lon="-0.09448">
        <ele>181.68</ele>
        <time>2023-06-16T14:02:00.088Z</time>
      </trkpt>
      <trkpt lat="46.45452" lon="-0.09455">
        <ele>181.62</ele>
        <time>2023-06-16T14:02:54.872Z</time>
      </trkpt>
      <trkpt lat="46.45451" lon="-0.09456">
        <ele>181.61</ele>
        <time>2023-06-16T14:03:49.656Z</time>
      </trkpt>
      <trkpt lat="46.45414" lon="-0.09495">
        <ele>181.01</ele>
        <time>2023-06-16T14:04:44.448Z</time>
      </trkpt>
      <trkpt lat="46.45408" lon="-0.09501">
        <ele>180.92</ele>
        <time>2023-06-16T14:05:39.241Z</time>
      </trkpt>
      <trkpt lat="46.454" lon="-0.09507">
        <ele>180.7</ele>
        <time>2023-06-16T14:06:34.035Z</time>
      </trkpt>
      <trkpt lat="46.45396" lon="-0.09511">
        <ele>180.61</ele>
        <time>2023-06-16T14:07:28.830Z</time>
      </trkpt>
      <trkpt lat="46.45377" lon="-0.09528">
        <ele>180.3</ele>
        <time>2023-06-16T14:08:23.628Z</time>
      </trkpt>
      <trkpt lat="46.4537" lon="-0.09534">
        <ele>180.14</ele>
        <time>2023-06-16T14:09:18.428Z</time>
      </trkpt>
      <trkpt lat="46.45366" lon="-0.09538">
        <ele>180.04</ele>
        <time>2023-06-16T14:10:13.229Z</time>
      </trkpt>
      <trkpt lat="46.45347" lon="-0.09555">
        <ele>179.45</ele>
        <time>2023-06-16T14:11:08.033Z</time>
      </trkpt>
      <trkpt lat="46.45339" lon="-0.09561">
        <ele>179.27</ele>
        <time>2023-06-16T14:12:02.839Z</time>
      </trkpt>
      <trkpt lat="46.45334" lon="-0.09566">
        <ele>179.16</ele>
        <time>2023-06-16T14:12:57.646Z</time>
      </trkpt>
      <trkpt lat="46.45325" lon="-0.09576">
        <ele>178.97</ele>
        <time>2023-06-16T14:13:52.454Z</time>
      </trkpt>
      <trkpt lat="46.45307" lon="-0.09596">
        <ele>178.51</ele>
        <time>2023-06-16T14:14:47.266Z</time>
      </trkpt>
      <trkpt lat="46.453" lon="-0.09604">
        <ele>178.36</ele>
        <time>2023-06-16T14:15:42.079Z</time>
      </trkpt>
      <trkpt lat="46.45279" lon="-0.09627">
        <ele>177.96</ele>
        <time>2023-06-16T14:16:36.897Z</time>
      </trkpt>
      <trkpt lat="46.45268" lon="-0.09638">
        <ele>177.76</ele>
        <time>2023-06-16T14:17:31.717Z</time>
      </trkpt>
      <trkpt lat="46.45257" lon="-0.0965">
        <ele>177.6</ele>
        <time>2023-06-16T14:18:26.539Z</time>
      </trkpt>
      <trkpt lat="46.4525" lon="-0.09657">
        <ele>177.55</ele>
        <time>2023-06-16T14:19:21.362Z</time>
      </trkpt>
      <trkpt lat="46.45232" lon="-0.09676">
        <ele>177.55</ele>
        <time>2023-06-16T14:20:16.189Z</time>
      </trkpt>
      <trkpt lat="46.45203" lon="-0.09706">
        <ele>177.28</ele>
        <time>2023-06-16T14:21:11.022Z</time>
      </trkpt>
      <trkpt lat="46.45181" lon="-0.09728">
        <ele>177.16</ele>
        <time>2023-06-16T14:22:05.859Z</time>
      </trkpt>
      <trkpt lat="46.45159" lon="-0.0975">
        <ele>176.99</ele>
        <time>2023-06-16T14:23:00.700Z</time>
      </trkpt>
      <trkpt lat="46.45137" lon="-0.09773">
        <ele>176.89</ele>
        <time>2023-06-16T14:23:55.545Z</time>
      </trkpt>
      <trkpt lat="46.4513" lon="-0.0978">
        <ele>176.92</ele>
        <time>2023-06-16T14:24:50.392Z</time>
      </trkpt>
      <trkpt lat="46.45112" lon="-0.09799">
        <ele>177.1</ele>
        <time>2023-06-16T14:25:45.242Z</time>
      </trkpt>
      <trkpt lat="46.45108" lon="-0.09803">
        <ele>177.12</ele>
        <time>2023-06-16T14:26:40.093Z</time>
      </trkpt>
      <trkpt lat="46.45104" lon="-0.09806">
        <ele>177.14</ele>
        <time>2023-06-16T14:27:34.945Z</time>
      </trkpt>
      <trkpt lat="46.45097" lon="-0.09812">
        <ele>177.15</ele>
        <time>2023-06-16T14:28:29.798Z</time>
      </trkpt>
      <trkpt lat="46.45085" lon="-0.09822">
        <ele>177.07</ele>
        <time>2023-06-16T14:29:24.653Z</time>
      </trkpt>
      <trkpt lat="46.45082" lon="-0.09824">
        <ele>177.06</ele>
        <time>2023-06-16T14:30:19.509Z</time>
      </trkpt>
      <trkpt lat="46.45077" lon="-0.09827">
        <ele>177.06</ele>
        <time>2023-06-16T14:31:14.366Z</time>
      </trkpt>
      <trkpt lat="46.45064" lon="-0.09833">
        <ele>177.1</ele>
        <time>2023-06-16T14:32:09.225Z</time>
      </trkpt>
      <trkpt lat="46.45052" lon="-0.0984">
        <ele>177.16</ele>
        <time>2023-06-16T14:33:04.086Z</time>
      </trkpt>
      <trkpt lat="46.45035" lon="-0.09851">
        <ele>177.25</ele>
        <time>2023-06-16T14:33:58.950Z</time>
      </trkpt>
      <trkpt lat="46.45019" lon="-0.09861">
        <ele>177.29</ele>
        <time>2023-06-16T14:34:53.817Z</time>
      </trkpt>
      <trkpt lat="46.45007" lon="-0.09869">
        <ele>177.29</ele>
        <time>2023-06-16T14:35:48.686Z</time>
      </trkpt>
      <trkpt lat="46.44986" lon="-0.09882">
        <ele>177.23</ele>
        <time>2023-06-16T14:36:43.559Z</time>
      </trkpt>
      <trkpt lat="46.44946" lon="-0.09907">
        <ele>177.31</ele>
        <time>2023-06-16T14:37:38.439Z</time>
      </trkpt>
      <trkpt lat="46.44938" lon="-0.09912">
        <ele>177.25</ele>
        <time>2023-06-16T14:38:33.320Z</time>
      </trkpt>
      <trkpt lat="46.44935" lon="-0.09914">
        <ele>177.2</ele>
        <time>2023-06-16T14:39:28.202Z</time>
      </trkpt>
      <trkpt lat="46.44921" lon="-0.09918">
        <ele>177.02</ele>
        <time>2023-06-16T14:40:23.086Z</time>
      </trkpt>
      <trkpt lat="46.44913" lon="-0.09921">
        <ele>176.94</ele>
        <time>2023-06-16T14:41:17.971Z</time>
      </trkpt>
      <trkpt lat="46.44913" lon="-0.09921">
        <ele>176.94</ele>
        <time>2023-06-16T14:42:12.856Z</time>
      </trkpt>
      <trkpt lat="46.44907" lon="-0.09918">
        <ele>176.99</ele>
        <time>2023-06-16T14:43:07.742Z</time>
      </trkpt>
      <trkpt lat="46.44906" lon="-0.09928">
        <ele>177.06</ele>
        <time>2023-06-16T14:44:02.629Z</time>
      </trkpt>
      <trkpt lat="46.44904" lon="-0.09948">
        <ele>177.14</ele>
        <time>2023-06-16T14:44:57.518Z</time>
      </trkpt>
      <trkpt lat="46.44903" lon="-0.09958">
        <ele>177.23</ele>
        <time>2023-06-16T14:45:52.409Z</time>
      </trkpt>
      <trkpt lat="46.449" lon="-0.09966">
        <ele>177.31</ele>
        <time>2023-06-16T14:46:47.301Z</time>
      </trkpt>
      <trkpt lat="46.44897" lon="-0.09971">
        <ele>177.33</ele>
        <time>2023-06-16T14:47:42.193Z</time>
      </trkpt>
      <trkpt lat="46.44895" lon="-0.09977">
        <ele>177.29</ele>
        <time>2023-06-16T14:48:37.086Z</time>
      </trkpt>
      <trkpt lat="46.44892" lon="-0.09981">
        <ele>177.27</ele>
        <time>2023-06-16T14:49:31.980Z</time>
      </trkpt>
      <trkpt lat="46.44878" lon="-0.09998">
        <ele>176.98</ele>
        <time>2023-06-16T14:50:26.877Z</time>
      </trkpt>
      <trkpt lat="46.44864" lon="-0.10014">
        <ele>176.78</ele>
        <time>2023-06-16T14:51:21.777Z</time>
      </trkpt>
      <trkpt lat="46.44854" lon="-0.10027">
        <ele>176.59</ele>
        <time>2023-06-16T14:52:16.679Z</time>
      </trkpt>
      <trkpt lat="46.44847" lon="-0.10035">
        <ele>176.5</ele>
        <time>2023-06-16T14:53:11.582Z</time>
      </trkpt>
      <trkpt lat="46.44827" lon="-0.1006">
        <ele>176.37</ele>
        <time>2023-06-16T14:54:06.489Z</time>
      </trkpt>
      <trkpt lat="46.44816" lon="-0.10073">
        <ele>176.28</ele>
        <time>2023-06-16T14:55:01.399Z</time>
      </trkpt>
      <trkpt lat="46.44813" lon="-0.10077">
        <ele>176.27</ele>
        <time>2023-06-16T14:55:56.309Z</time>
      </trkpt>
      <trkpt lat="46.44796" lon="-0.10098">
        <ele>176.26</ele>
        <time>2023-06-16T14:56:51.223Z</time>
      </trkpt>
      <trkpt lat="46.44788" lon="-0.10107">
        <ele>176.31</ele>
        <time>2023-06-16T14:57:46.138Z</time>
      </trkpt>
      <trkpt lat="46.44781" lon="-0.10112">
        <ele>176.35</ele>
        <time>2023-06-16T14:58:41.055Z</time>
      </trkpt>
      <trkpt lat="46.44777" lon="-0.10116">
        <ele>176.35</ele>
        <time>2023-06-16T14:59:35.972Z</time>
      </trkpt>
      <trkpt lat="46.44773" lon="-0.10119">
        <ele>176.31</ele>
        <time>2023-06-16T15:00:30.890Z</time>
      </trkpt>
      <trkpt lat="46.44762" lon="-0.10128">
        <ele>176.13</ele>
        <time>2023-06-16T15:01:25.810Z</time>
      </trkpt>
      <trkpt lat="46.4475" lon="-0.10138">
        <ele>176.02</ele>
        <time>2023-06-16T15:02:20.732Z</time>
      </trkpt>
      <trkpt lat="46.44746" lon="-0.10141">
        <ele>175.95</ele>
        <time>2023-06-16T15:03:15.655Z</time>
      </trkpt>
      <trkpt lat="46.44735" lon="-0.1015">
        <ele>175.66</ele>
        <time>2023-06-16T15:04:10.580Z</time>
      </trkpt>
      <trkpt lat="46.4473" lon="-0.10154">
        <ele>175.58</ele>
        <time>2023-06-16T15:05:05.506Z</time>
      </trkpt>
      <trkpt lat="46.4473" lon="-0.10154">
        <ele>175.58</ele>
        <time>2023-06-16T15:06:00.432Z</time>
      </trkpt>
      <trkpt lat="46.44715" lon="-0.10167">
        <ele>175.42</ele>
        <time>2023-06-16T15:06:55.361Z</time>
      </trkpt>
      <trkpt lat="46.44711" lon="-0.1017">
        <ele>175.34</ele>
        <time>2023-06-16T15:07:50.291Z</time>
      </trkpt>
      <trkpt lat="46.447" lon="-0.1018">
        <ele>174.96</ele>
        <time>2023-06-16T15:08:45.223Z</time>
      </trkpt>
      <trkpt lat="46.44692" lon="-0.10187">
        <ele>174.75</ele>
        <time>2023-06-16T15:09:40.156Z</time>
      </trkpt>
      <trkpt lat="46.44685" lon="-0.10193">
        <ele>174.46</ele>
        <time>2023-06-16T15:10:35.091Z</time>
      </trkpt>
      <trkpt lat="46.44677" lon="-0.102">
        <ele>174.14</ele>
        <time>2023-06-16T15:11:30.027Z</time>
      </trkpt>
      <trkpt lat="46.44673" lon="-0.10204">
        <ele>174.01</ele>
        <time>2023-06-16T15:12:24.964Z</time>
      </trkpt>
      <trkpt lat="46.44662" lon="-0.10215">
        <ele>173.68</ele>
        <time>2023-06-16T15:13:19.903Z</time>
      </trkpt>
      <trkpt lat="46.44647" lon="-0.10229">
        <ele>173.32</ele>
        <time>2023-06-16T15:14:14.845Z</time>
      </trkpt>
      <trkpt lat="46.4464" lon="-0.10236">
        <ele>173.17</ele>
        <time>2023-06-16T15:15:09.788Z</time>
      </trkpt>
      <trkpt lat="46.44639" lon="-0.10237">
        <ele>173.15</ele>
        <time>2023-06-16T15:16:04.731Z</time>
      </trkpt>
      <trkpt lat="46.4463" lon="-0.1025">
        <ele>173.02</ele>
        <time>2023-06-16T15:16:59.676Z</time>
      </trkpt>
      <trkpt lat="46.44622" lon="-0.10261">
        <ele>172.85</ele>
        <time>2023-06-16T15:17:54.623Z</time>
      </trkpt>
      <trkpt lat="46.4462" lon="-0.10263">
        <ele>172.82</ele>
        <time>2023-06-16T15:18:49.570Z</time>
      </trkpt>
      <trkpt lat="46.4461" lon="-0.10272">
        <ele>172.71</ele>
        <time>2023-06-16T15:19:44.519Z</time>
      </trkpt>
      <trkpt lat="46.44608" lon="-0.10273">
        <ele>172.7</ele>
        <time>2023-06-16T15:20:39.469Z</time>
      </trkpt>
      <trkpt lat="46.44599" lon="-0.10276">
        <ele>172.63</ele>
        <time>2023-06-16T15:21:34.420Z</time>
      </trkpt>
      <trkpt lat="46.44591" lon="-0.10277">
        <ele>172.59</ele>
        <time>2023-06-16T15:22:29.373Z</time>
      </trkpt>
      <trkpt lat="46.44586" lon="-0.10278">
        <ele>172.54</ele>
        <time>2023-06-16T15:23:24.326Z</time>
      </trkpt>
      <trkpt lat="46.44582" lon="-0.10279">
        <ele>172.47</ele>
        <time>2023-06-16T15:24:19.280Z</time>
      </trkpt>
      <trkpt lat="46.44578" lon="-0.10279">
        <ele>172.41</ele>
        <time>2023-06-16T15:25:14.235Z</time>
      </trkpt>
      <trkpt lat="46.44569" lon="-0.10278">
        <ele>172.22</ele>
        <time>2023-06-16T15:26:09.191Z</time>
      </trkpt>
      <trkpt lat="46.44551" lon="-0.10276">
        <ele>171.73</ele>
        <time>2023-06-16T15:27:04.150Z</time>
      </trkpt>
      <trkpt lat="46.44533" lon="-0.10269">
        <ele>171.24</ele>
        <time>2023-06-16T15:27:59.112Z</time>
      </trkpt>
      <trkpt lat="46.4452" lon="-0.10264">
        <ele>170.83</ele>
        <time>2023-06-16T15:28:54.076Z</time>
      </trkpt>
      <trkpt lat="46.44516" lon="-0.10263">
        <ele>170.72</ele>
        <time>2023-06-16T15:29:49.041Z</time>
      </trkpt>
      <trkpt lat="46.44505" lon="-0.10262">
        <ele>170.43</ele>
        <time>2023-06-16T15:30:44.007Z</time>
      </trkpt>
      <trkpt lat="46.44498" lon="-0.10262">
        <ele>170.25</ele>
        <time>2023-06-16T15:31:38.975Z</time>
      </trkpt>
      <trkpt lat="46.44494" lon="-0.10262">
        <ele>170.12</ele>
        <time>2023-06-16T15:32:33.943Z</time>
      </trkpt>
      <trkpt lat="46.44471" lon="-0.10262">
        <ele>169.29</ele>
        <time>2023-06-16T15:33:28.915Z</time>
      </trkpt>
      <trkpt lat="46.44453" lon="-0.10262">
        <ele>168.72</ele>
        <time>2023-06-16T15:34:23.890Z</time>
      </trkpt>
      <trkpt lat="46.44431" lon="-0.10262">
        <ele>167.85</ele>
        <time>2023-06-16T15:35:18.868Z</time>
      </trkpt>
      <trkpt lat="46.44413" lon="-0.10261">
        <ele>167.25</ele>
        <time>2023-06-16T15:36:13.849Z</time>
      </trkpt>
      <trkpt lat="46.44404" lon="-0.10261">
        <ele>166.98</ele>
        <time>2023-06-16T15:37:08.832Z</time>
      </trkpt>
      <trkpt lat="46.44395" lon="-0.10261">
        <ele>166.76</ele>
        <time>2023-06-16T15:38:03.816Z</time>
      </trkpt>
      <trkpt lat="46.44391" lon="-0.10261">
        <ele>166.67</ele>
        <time>2023-06-16T15:38:58.801Z</time>
      </trkpt>
      <trkpt lat="46.44386" lon="-0.10261">
        <ele>166.6</ele>
        <time>2023-06-16T15:39:53.787Z</time>
      </trkpt>
      <trkpt lat="46.44373" lon="-0.10261">
        <ele>166.44</ele>
        <time>2023-06-16T15:40:48.775Z</time>
      </trkpt>
      <trkpt lat="46.44368" lon="-0.10261">
        <ele>166.36</ele>
        <time>2023-06-16T15:41:43.763Z</time>
      </trkpt>
      <trkpt lat="46.44355" lon="-0.10261">
        <ele>166.07</ele>
        <time>2023-06-16T15:42:38.754Z</time>
      </trkpt>
      <trkpt lat="46.4435" lon="-0.10261">
        <ele>166</ele>
        <time>2023-06-16T15:43:33.745Z</time>
      </trkpt>
      <trkpt lat="46.44341" lon="-0.10261">
        <ele>165.93</ele>
        <time>2023-06-16T15:44:28.738Z</time>
      </trkpt>
      <trkpt lat="46.44337" lon="-0.10261">
        <ele>165.93</ele>
        <time>2023-06-16T15:45:23.731Z</time>
      </trkpt>
      <trkpt lat="46.44332" lon="-0.10261">
        <ele>165.97</ele>
        <time>2023-06-16T15:46:18.725Z</time>
      </trkpt>
      <trkpt lat="46.44328" lon="-0.10261">
        <ele>166.04</ele>
        <time>2023-06-16T15:47:13.720Z</time>
      </trkpt>
      <trkpt lat="46.44325" lon="-0.10261">
        <ele>166.1</ele>
        <time>2023-06-16T15:48:08.715Z</time>
      </trkpt>
      <trkpt lat="46.44306" lon="-0.10259">
        <ele>166.53</ele>
        <time>2023-06-16T15:49:03.713Z</time>
      </trkpt>
      <trkpt lat="46.44288" lon="-0.10256">
        <ele>166.99</ele>
        <time>2023-06-16T15:49:58.714Z</time>
      </trkpt>
      <trkpt lat="46.44283" lon="-0.10256">
        <ele>167.07</ele>
        <time>2023-06-16T15:50:53.716Z</time>
      </trkpt>
      <trkpt lat="46.44279" lon="-0.10255">
        <ele>167.12</ele>
        <time>2023-06-16T15:51:48.719Z</time>
      </trkpt>
      <trkpt lat="46.44277" lon="-0.10255">
        <ele>167.13</ele>
        <time>2023-06-16T15:52:43.722Z</time>
      </trkpt>
      <trkpt lat="46.44265" lon="-0.10257">
        <ele>167.21</ele>
        <time>2023-06-16T15:53:38.727Z</time>
      </trkpt>
      <trkpt lat="46.44261" lon="-0.10257">
        <ele>167.27</ele>
        <time>2023-06-16T15:54:33.733Z</time>
      </trkpt>
      <trkpt lat="46.44243" lon="-0.10259">
        <ele>167.66</ele>
        <time>2023-06-16T15:55:28.741Z</time>
      </trkpt>
      <trkpt lat="46.44234" lon="-0.10261">
        <ele>167.9</ele>
        <time>2023-06-16T15:56:23.751Z</time>
      </trkpt>
      <trkpt lat="46.44221" lon="-0.10262">
        <ele>168.38</ele>
        <time>2023-06-16T15:57:18.763Z</time>
      </trkpt>
      <trkpt lat="46.44209" lon="-0.10264">
        <ele>168.77</ele>
        <time>2023-06-16T15:58:13.777Z</time>
      </trkpt>
      <trkpt lat="46.44199" lon="-0.10264">
        <ele>169.13</ele>
        <time>2023-06-16T15:59:08.793Z</time>
      </trkpt>
      <trkpt lat="46.44198" lon="-0.10264">
        <ele>169.13</ele>
        <time>2023-06-16T16:00:03.809Z</time>
      </trkpt>
      <trkpt lat="46.44194" lon="-0.10262">
        <ele>169.3</ele>
        <time>2023-06-16T16:00:58.825Z</time>
      </trkpt>
      <trkpt lat="46.44189" lon="-0.10261">
        <ele>169.51</ele>
        <time>2023-06-16T16:01:53.842Z</time>
      </trkpt>
      <trkpt lat="46.44189" lon="-0.10261">
        <ele>169.51</ele>
        <time>2023-06-16T16:02:48.859Z</time>
      </trkpt>
      <trkpt lat="46.44182" lon="-0.10255">
        <ele>169.97</ele>
        <time>2023-06-16T16:03:43.878Z</time>
      </trkpt>
      <trkpt lat="46.44178" lon="-0.10252">
        <ele>170.18</ele>
        <time>2023-06-16T16:04:38.897Z</time>
      </trkpt>
      <trkpt lat="46.44174" lon="-0.10248">
        <ele>170.34</ele>
        <time>2023-06-16T16:05:33.917Z</time>
      </trkpt>
      <trkpt lat="46.44162" lon="-0.10238">
        <ele>170.68</ele>
        <time>2023-06-16T16:06:28.939Z</time>
      </trkpt>
      <trkpt lat="46.44159" lon="-0.10235">
        <ele>170.83</ele>
        <time>2023-06-16T16:07:23.962Z</time>
      </trkpt>
      <trkpt lat="46.44155" lon="-0.10232">
        <ele>171.01</ele>
        <time>2023-06-16T16:08:18.986Z</time>
      </trkpt>
      <trkpt lat="46.44143" lon="-0.10222">
        <ele>171.67</ele>
        <time>2023-06-16T16:09:14.012Z</time>
      </trkpt>
      <trkpt lat="46.44131" lon="-0.10212">
        <ele>172.24</ele>
        <time>2023-06-16T16:10:09.040Z</time>
      </trkpt>
      <trkpt lat="46.4413" lon="-0.10211">
        <ele>172.29</ele>
        <time>2023-06-16T16:11:04.068Z</time>
      </trkpt>
      <trkpt lat="46.44115" lon="-0.10204">
        <ele>172.87</ele>
        <time>2023-06-16T16:11:59.099Z</time>
      </trkpt>
      <trkpt lat="46.44115" lon="-0.10204">
        <ele>172.87</ele>
        <time>2023-06-16T16:12:54.130Z</time>
      </trkpt>
      <trkpt lat="46.441" lon="-0.102">
        <ele>173.41</ele>
        <time>2023-06-16T16:13:49.163Z</time>
      </trkpt>
      <trkpt lat="46.44077" lon="-0.10205">
        <ele>174.26</ele>
        <time>2023-06-16T16:14:44.200Z</time>
      </trkpt>
      <trkpt lat="46.44071" lon="-0.10208">
        <ele>174.51</ele>
        <time>2023-06-16T16:15:39.238Z</time>
      </trkpt>
      <trkpt lat="46.44062" lon="-0.10213">
        <ele>174.77</ele>
        <time>2023-06-16T16:16:34.277Z</time>
      </trkpt>
      <trkpt lat="46.44045" lon="-0.10222">
        <ele>175.12</ele>
        <time>2023-06-16T16:17:29.319Z</time>
      </trkpt>
      <trkpt lat="46.44038" lon="-0.10226">
        <ele>175.34</ele>
        <time>2023-06-16T16:18:24.362Z</time>
      </trkpt>
      <trkpt lat="46.44029" lon="-0.10233">
        <ele>175.62</ele>
        <time>2023-06-16T16:19:19.407Z</time>
      </trkpt>
      <trkpt lat="46.44021" lon="-0.10239">
        <ele>175.78</ele>
        <time>2023-06-16T16:20:14.454Z</time>
      </trkpt>
      <trkpt lat="46.44017" lon="-0.10242">
        <ele>175.83</ele>
        <time>2023-06-16T16:21:09.501Z</time>
      </trkpt>
      <trkpt lat="46.44013" lon="-0.10245">
        <ele>175.85</ele>
        <time>2023-06-16T16:22:04.549Z</time>
      </trkpt>
      <trkpt lat="46.4401" lon="-0.10247">
        <ele>175.85</ele>
        <time>2023-06-16T16:22:59.598Z</time>
      </trkpt>
      <trkpt lat="46.44001" lon="-0.10252">
        <ele>175.87</ele>
        <time>2023-06-16T16:23:54.648Z</time>
      </trkpt>
      <trkpt lat="46.43984" lon="-0.10262">
        <ele>175.76</ele>
        <time>2023-06-16T16:24:49.701Z</time>
      </trkpt>
      <trkpt lat="46.43973" lon="-0.10269">
        <ele>175.77</ele>
        <time>2023-06-16T16:25:44.756Z</time>
      </trkpt>
      <trkpt lat="46.43963" lon="-0.10272">
        <ele>175.78</ele>
        <time>2023-06-16T16:26:39.813Z</time>
      </trkpt>
      <trkpt lat="46.43959" lon="-0.10274">
        <ele>175.74</ele>
        <time>2023-06-16T16:27:34.870Z</time>
      </trkpt>
      <trkpt lat="46.43954" lon="-0.10276">
        <ele>175.66</ele>
        <time>2023-06-16T16:28:29.928Z</time>
      </trkpt>
      <trkpt lat="46.4395" lon="-0.10277">
        <ele>175.53</ele>
        <time>2023-06-16T16:29:24.987Z</time>
      </trkpt>
      <trkpt lat="46.43946" lon="-0.10279">
        <ele>175.36</ele>
        <time>2023-06-16T16:30:20.046Z</time>
      </trkpt>
      <trkpt lat="46.43933" lon="-0.10283">
        <ele>174.75</ele>
        <time>2023-06-16T16:31:15.108Z</time>
      </trkpt>
      <trkpt lat="46.43914" lon="-0.10293">
        <ele>173.82</ele>
        <time>2023-06-16T16:32:10.173Z</time>
      </trkpt>
      <trkpt lat="46.43911" lon="-0.10294">
        <ele>173.7</ele>
        <time>2023-06-16T16:33:05.238Z</time>
      </trkpt>
      <trkpt lat="46.43903" lon="-0.10296">
        <ele>173.35</ele>
        <time>2023-06-16T16:34:00.305Z</time>
      </trkpt>
      <trkpt lat="46.43898" lon="-0.10297">
        <ele>173.2</ele>
        <time>2023-06-16T16:34:55.372Z</time>
      </trkpt>
      <trkpt lat="46.43894" lon="-0.10297">
        <ele>173.07</ele>
        <time>2023-06-16T16:35:50.440Z</time>
      </trkpt>
      <trkpt lat="46.43889" lon="-0.10298">
        <ele>172.96</ele>
        <time>2023-06-16T16:36:45.509Z</time>
      </trkpt>
      <trkpt lat="46.4388" lon="-0.10299">
        <ele>172.78</ele>
        <time>2023-06-16T16:37:40.579Z</time>
      </trkpt>
      <trkpt lat="46.43868" lon="-0.103">
        <ele>172.55</ele>
        <time>2023-06-16T16:38:35.651Z</time>
      </trkpt>
      <trkpt lat="46.43863" lon="-0.10301">
        <ele>172.46</ele>
        <time>2023-06-16T16:39:30.724Z</time>
      </trkpt>
      <trkpt lat="46.43858" lon="-0.10302">
        <ele>172.36</ele>
        <time>2023-06-16T16:40:25.798Z</time>
      </trkpt>
      <trkpt lat="46.43849" lon="-0.10305">
        <ele>172.09</ele>
        <time>2023-06-16T16:41:20.873Z</time>
      </trkpt>
      <trkpt lat="46.4384" lon="-0.10307">
        <ele>171.77</ele>
        <time>2023-06-16T16:42:15.950Z</time>
      </trkpt>
      <trkpt lat="46.43824" lon="-0.10311">
        <ele>171.75</ele>
        <time>2023-06-16T16:43:11.029Z</time>
      </trkpt>
      <trkpt lat="46.43824" lon="-0.10311">
        <ele>171.75</ele>
        <time>2023-06-16T16:44:06.108Z</time>
      </trkpt>
      <trkpt lat="46.43807" lon="-0.10311">
        <ele>171.68</ele>
        <time>2023-06-16T16:45:01.190Z</time>
      </trkpt>
      <trkpt lat="46.43795" lon="-0.10312">
        <ele>171.64</ele>
        <time>2023-06-16T16:45:56.274Z</time>
      </trkpt>
      <trkpt lat="46.43791" lon="-0.10313">
        <ele>171.63</ele>
        <time>2023-06-16T16:46:51.359Z</time>
      </trkpt>
      <trkpt lat="46.43776" lon="-0.10323">
        <ele>171.6</ele>
        <time>2023-06-16T16:47:46.446Z</time>
      </trkpt>
      <trkpt lat="46.43761" lon="-0.10333">
        <ele>171.52</ele>
        <time>2023-06-16T16:48:41.536Z</time>
      </trkpt>
      <trkpt lat="46.4375" lon="-0.1034">
        <ele>171.29</ele>
        <time>2023-06-16T16:49:36.628Z</time>
      </trkpt>
      <trkpt lat="46.43744" lon="-0.10341">
        <ele>171.19</ele>
        <time>2023-06-16T16:50:31.721Z</time>
      </trkpt>
      <trkpt lat="46.43736" lon="-0.10343">
        <ele>171.04</ele>
        <time>2023-06-16T16:51:26.815Z</time>
      </trkpt>
      <trkpt lat="46.43727" lon="-0.10341">
        <ele>170.9</ele>
        <time>2023-06-16T16:52:21.911Z</time>
      </trkpt>
      <trkpt lat="46.43725" lon="-0.10341">
        <ele>170.87</ele>
        <time>2023-06-16T16:53:17.007Z</time>
      </trkpt>
      <trkpt lat="46.43712" lon="-0.10337">
        <ele>170.67</ele>
        <time>2023-06-16T16:54:12.105Z</time>
      </trkpt>
      <trkpt lat="46.43693" lon="-0.10318">
        <ele>170.34</ele>
        <time>2023-06-16T16:55:07.207Z</time>
      </trkpt>
      <trkpt lat="46.43692" lon="-0.10316">
        <ele>170.32</ele>
        <time>2023-06-16T16:56:02.309Z</time>
      </trkpt>
      <trkpt lat="46.43682" lon="-0.10303">
        <ele>170.15</ele>
        <time>2023-06-16T16:56:57.413Z</time>
      </trkpt>
      <trkpt lat="46.43663" lon="-0.10277">
        <ele>169.95</ele>
        <time>2023-06-16T16:57:52.521Z</time>
      </trkpt>
      <trkpt lat="46.43661" lon="-0.10275">
        <ele>169.92</ele>
        <time>2023-06-16T16:58:47.630Z</time>
      </trkpt>
      <trkpt lat="46.43655" lon="-0.1027">
        <ele>169.83</ele>
        <time>2023-06-16T16:59:42.740Z</time>
      </trkpt>
      <trkpt lat="46.43643" lon="-0.10259">
        <ele>169.61</ele>
        <time>2023-06-16T17:00:37.852Z</time>
      </trkpt>
      <trkpt lat="46.43626" lon="-0.10255">
        <ele>169.35</ele>
        <time>2023-06-16T17:01:32.967Z</time>
      </trkpt>
      <trkpt lat="46.43621" lon="-0.10254">
        <ele>169.29</ele>
        <time>2023-06-16T17:02:28.083Z</time>
      </trkpt>
      <trkpt lat="46.43595" lon="-0.10254">
        <ele>169.01</ele>
        <time>2023-06-16T17:03:23.203Z</time>
      </trkpt>
      <trkpt lat="46.43588" lon="-0.10254">
        <ele>168.95</ele>
        <time>2023-06-16T17:04:18.324Z</time>
      </trkpt>
      <trkpt lat="46.43568" lon="-0.10256">
        <ele>168.8</ele>
        <time>2023-06-16T17:05:13.448Z</time>
      </trkpt>
      <trkpt lat="46.43562" lon="-0.10257">
        <ele>168.73</ele>
        <time>2023-06-16T17:06:08.573Z</time>
      </trkpt>
      <trkpt lat="46.43547" lon="-0.10263">
        <ele>168.59</ele>
        <time>2023-06-16T17:07:03.701Z</time>
      </trkpt>
      <trkpt lat="46.43525" lon="-0.1027">
        <ele>168.46</ele>
        <time>2023-06-16T17:07:58.832Z</time>
      </trkpt>
      <trkpt lat="46.43516" lon="-0.10273">
        <ele>168.39</ele>
        <time>2023-06-16T17:08:53.965Z</time>
      </trkpt>
      <trkpt lat="46.43498" lon="-0.1028">
        <ele>168.18</ele>
        <time>2023-06-16T17:09:49.101Z</time>
      </trkpt>
      <trkpt lat="46.43491" lon="-0.10284">
        <ele>168.1</ele>
        <time>2023-06-16T17:10:44.238Z</time>
      </trkpt>
      <trkpt lat="46.43482" lon="-0.10288">
        <ele>168.05</ele>
        <time>2023-06-16T17:11:39.376Z</time>
      </trkpt>
      <trkpt lat="46.43474" lon="-0.10293">
        <ele>168.05</ele>
        <time>2023-06-16T17:12:34.516Z</time>
      </trkpt>
      <trkpt lat="46.43474" lon="-0.10293">
        <ele>168.05</ele>
        <time>2023-06-16T17:13:29.656Z</time>
      </trkpt>
      <trkpt lat="46.4345" lon="-0.10309">
        <ele>168.26</ele>
        <time>2023-06-16T17:14:24.800Z</time>
      </trkpt>
      <trkpt lat="46.43433" lon="-0.1032">
        <ele>167.8</ele>
        <time>2023-06-16T17:15:19.947Z</time>
      </trkpt>
      <trkpt lat="46.4343" lon="-0.10322">
        <ele>167.71</ele>
        <time>2023-06-16T17:16:15.094Z</time>
      </trkpt>
      <trkpt lat="46.43429" lon="-0.10323">
        <ele>167.71</ele>
        <time>2023-06-16T17:17:10.242Z</time>
      </trkpt>
      <trkpt lat="46.43425" lon="-0.10326">
        <ele>167.65</ele>
        <time>2023-06-16T17:18:05.390Z</time>
      </trkpt>
      <trkpt lat="46.43421" lon="-0.10329">
        <ele>167.61</ele>
        <time>2023-06-16T17:19:00.539Z</time>
      </trkpt>
      <trkpt lat="46.43413" lon="-0.10335">
        <ele>167.57</ele>
        <time>2023-06-16T17:19:55.689Z</time>
      </trkpt>
      <trkpt lat="46.43405" lon="-0.10342">
        <ele>167.59</ele>
        <time>2023-06-16T17:20:50.841Z</time>
      </trkpt>
      <trkpt lat="46.43403" lon="-0.10337">
        <ele>167.6</ele>
        <time>2023-06-16T17:21:45.994Z</time>
      </trkpt>
      <trkpt lat="46.43399" lon="-0.10325">
        <ele>167.57</ele>
        <time>2023-06-16T17:22:41.148Z</time>
      </trkpt>
      <trkpt lat="46.43397" lon="-0.1032">
        <ele>167.53</ele>
        <time>2023-06-16T17:23:36.303Z</time>
      </trkpt>
      <trkpt lat="46.43389" lon="-0.10296">
        <ele>167.3</ele>
        <time>2023-06-16T17:24:31.461Z</time>
      </trkpt>
      <trkpt lat="46.43387" lon="-0.1029">
        <ele>167.27</ele>
        <time>2023-06-16T17:25:26.619Z</time>
      </trkpt>
      <trkpt lat="46.43386" lon="-0.10286">
        <ele>167.27</ele>
        <time>2023-06-16T17:26:21.778Z</time>
      </trkpt>
      <trkpt lat="46.43385" lon="-0.10284">
        <ele>167.27</ele>
        <time>2023-06-16T17:27:16.937Z</time>
      </trkpt>
      <trkpt lat="46.43384" lon="-0.10278">
        <ele>167.31</ele>
        <time>2023-06-16T17:28:12.097Z</time>
      </trkpt>
      <trkpt lat="46.43376" lon="-0.10254">
        <ele>167.58</ele>
        <time>2023-06-16T17:29:07.260Z</time>
      </trkpt>
      <trkpt lat="46.43376" lon="-0.10254">
        <ele>167.58</ele>
        <time>2023-06-16T17:30:02.423Z</time>
      </trkpt>
      <trkpt lat="46.43374" lon="-0.10235">
        <ele>167.68</ele>
        <time>2023-06-16T17:30:57.588Z</time>
      </trkpt>
      <trkpt lat="46.43373" lon="-0.1023">
        <ele>167.73</ele>
        <time>2023-06-16T17:31:52.754Z</time>
      </trkpt>
      <trkpt lat="46.43373" lon="-0.10229">
        <ele>167.73</ele>
        <time>2023-06-16T17:32:47.920Z</time>
      </trkpt>
      <trkpt lat="46.43373" lon="-0.10203">
        <ele>168.11</ele>
        <time>2023-06-16T17:33:43.089Z</time>
      </trkpt>
      <trkpt lat="46.43373" lon="-0.10196">
        <ele>168.18</ele>
        <time>2023-06-16T17:34:38.258Z</time>
      </trkpt>
      <trkpt lat="46.43373" lon="-0.10177">
        <ele>168.34</ele>
        <time>2023-06-16T17:35:33.429Z</time>
      </trkpt>
      <trkpt lat="46.43374" lon="-0.1017">
        <ele>168.42</ele>
        <time>2023-06-16T17:36:28.601Z</time>
      </trkpt>
      <trkpt lat="46.43374" lon="-0.10144">
        <ele>168.86</ele>
        <time>2023-06-16T17:37:23.776Z</time>
      </trkpt>
      <trkpt lat="46.43374" lon="-0.10138">
        <ele>168.94</ele>
        <time>2023-06-16T17:38:18.952Z</time>
      </trkpt>
      <trkpt lat="46.43374" lon="-0.10118">
        <ele>169.16</ele>
        <time>2023-06-16T17:39:14.130Z</time>
      </trkpt>
      <trkpt lat="46.43374" lon="-0.10115">
        <ele>169.18</ele>
        <time>2023-06-16T17:40:09.308Z</time>
      </trkpt>
      <trkpt lat="46.43371" lon="-0.10101">
        <ele>169.29</ele>
        <time>2023-06-16T17:41:04.488Z</time>
      </trkpt>
      <trkpt lat="46.43367" lon="-0.10095">
        <ele>169.36</ele>
        <time>2023-06-16T17:41:59.669Z</time>
      </trkpt>
      <trkpt lat="46.43366" lon="-0.10093">
        <ele>169.37</ele>
        <time>2023-06-16T17:42:54.850Z</time>
      </trkpt>
      <trkpt lat="46.43351" lon="-0.10085">
        <ele>169.48</ele>
        <time>2023-06-16T17:43:50.034Z</time>
      </trkpt>
      <trkpt lat="46.43342" lon="-0.10081">
        <ele>169.49</ele>
        <time>2023-06-16T17:44:45.219Z</time>
      </trkpt>
      <trkpt lat="46.43338" lon="-0.10079">
        <ele>169.46</ele>
        <time>2023-06-16T17:45:40.405Z</time>
      </trkpt>
      <trkpt lat="46.43329" lon="-0.10075">
        <ele>169.32</ele>
        <time>2023-06-16T17:46:35.592Z</time>
      </trkpt>
      <trkpt lat="46.43317" lon="-0.10068">
        <ele>169.02</ele>
        <time>2023-06-16T17:47:30.781Z</time>
      </trkpt>
      <trkpt lat="46.43312" lon="-0.10066">
        <ele>168.96</ele>
        <time>2023-06-16T17:48:25.971Z</time>
      </trkpt>
      <trkpt lat="46.43308" lon="-0.10064">
        <ele>168.94</ele>
        <time>2023-06-16T17:49:21.162Z</time>
      </trkpt>
      <trkpt lat="46.43304" lon="-0.10062">
        <ele>168.95</ele>
        <time>2023-06-16T17:50:16.354Z</time>
      </trkpt>
      <trkpt lat="46.433" lon="-0.1006">
        <ele>168.99</ele>
        <time>2023-06-16T17:51:11.546Z</time>
      </trkpt>
      <trkpt lat="46.43283" lon="-0.10051">
        <ele>169.28</ele>
        <time>2023-06-16T17:52:06.741Z</time>
      </trkpt>
      <trkpt lat="46.43278" lon="-0.10049">
        <ele>169.31</ele>
        <time>2023-06-16T17:53:01.937Z</time>
      </trkpt>
      <trkpt lat="46.43274" lon="-0.10047">
        <ele>169.29</ele>
        <time>2023-06-16T17:53:57.134Z</time>
      </trkpt>
      <trkpt lat="46.4327" lon="-0.10045">
        <ele>169.22</ele>
        <time>2023-06-16T17:54:52.331Z</time>
      </trkpt>
      <trkpt lat="46.43266" lon="-0.10042">
        <ele>169.09</ele>
        <time>2023-06-16T17:55:47.529Z</time>
      </trkpt>
      <trkpt lat="46.43253" lon="-0.10036">
        <ele>168.6</ele>
        <time>2023-06-16T17:56:42.729Z</time>
      </trkpt>
      <trkpt lat="46.43251" lon="-0.10035">
        <ele>168.54</ele>
        <time>2023-06-16T17:57:37.930Z</time>
      </trkpt>
      <trkpt lat="46.43231" lon="-0.10029">
        <ele>168</ele>
        <time>2023-06-16T17:58:33.134Z</time>
      </trkpt>
      <trkpt lat="46.43222" lon="-0.10027">
        <ele>167.8</ele>
        <time>2023-06-16T17:59:28.339Z</time>
      </trkpt>
      <trkpt lat="46.43209" lon="-0.10023">
        <ele>167.61</ele>
        <time>2023-06-16T18:00:23.546Z</time>
      </trkpt>
      <trkpt lat="46.432" lon="-0.10021">
        <ele>167.43</ele>
        <time>2023-06-16T18:01:18.755Z</time>
      </trkpt>
      <trkpt lat="46.43182" lon="-0.10016">
        <ele>166.92</ele>
        <time>2023-06-16T18:02:13.967Z</time>
      </trkpt>
      <trkpt lat="46.43176" lon="-0.10014">
        <ele>166.77</ele>
        <time>2023-06-16T18:03:09.180Z</time>
      </trkpt>
      <trkpt lat="46.4317" lon="-0.1001">
        <ele>166.62</ele>
        <time>2023-06-16T18:04:04.394Z</time>
      </trkpt>
      <trkpt lat="46.43158" lon="-0.10003">
        <ele>166.28</ele>
        <time>2023-06-16T18:04:59.610Z</time>
      </trkpt>
      <trkpt lat="46.43153" lon="-0.1">
        <ele>166.14</ele>
        <time>2023-06-16T18:05:54.827Z</time>
      </trkpt>
      <trkpt lat="46.43149" lon="-0.09997">
        <ele>166.05</ele>
        <time>2023-06-16T18:06:50.045Z</time>
      </trkpt>
      <trkpt lat="46.43145" lon="-0.09994">
        <ele>165.99</ele>
        <time>2023-06-16T18:07:45.263Z</time>
      </trkpt>
      <trkpt lat="46.43132" lon="-0.09987">
        <ele>165.97</ele>
        <time>2023-06-16T18:08:40.483Z</time>
      </trkpt>
      <trkpt lat="46.43128" lon="-0.09984">
        <ele>165.93</ele>
        <time>2023-06-16T18:09:35.704Z</time>
      </trkpt>
      <trkpt lat="46.43127" lon="-0.09983">
        <ele>165.9</ele>
        <time>2023-06-16T18:10:30.925Z</time>
      </trkpt>
      <trkpt lat="46.43117" lon="-0.09974">
        <ele>165.69</ele>
        <time>2023-06-16T18:11:26.148Z</time>
      </trkpt>
      <trkpt lat="46.43105" lon="-0.09965">
        <ele>165.53</ele>
        <time>2023-06-16T18:12:21.373Z</time>
      </trkpt>
      <trkpt lat="46.43097" lon="-0.09958">
        <ele>165.4</ele>
        <time>2023-06-16T18:13:16.600Z</time>
      </trkpt>
      <trkpt lat="46.43078" lon="-0.09942">
        <ele>164.92</ele>
        <time>2023-06-16T18:14:11.830Z</time>
      </trkpt>
      <trkpt lat="46.4307" lon="-0.09935">
        <ele>164.77</ele>
        <time>2023-06-16T18:15:07.062Z</time>
      </trkpt>
      <trkpt lat="46.43062" lon="-0.09929">
        <ele>164.66</ele>
        <time>2023-06-16T18:16:02.295Z</time>
      </trkpt>
      <trkpt lat="46.43055" lon="-0.09923">
        <ele>164.73</ele>
        <time>2023-06-16T18:16:57.530Z</time>
      </trkpt>
      <trkpt lat="46.43048" lon="-0.09917">
        <ele>164.74</ele>
        <time>2023-06-16T18:17:52.766Z</time>
      </trkpt>
      <trkpt lat="46.43031" lon="-0.09897">
        <ele>164.77</ele>
        <time>2023-06-16T18:18:48.005Z</time>
      </trkpt>
      <trkpt lat="46.43022" lon="-0.09887">
        <ele>164.8</ele>
        <time>2023-06-16T18:19:43.246Z</time>
      </trkpt>
      <trkpt lat="46.43014" lon="-0.09879">
        <ele>164.84</ele>
        <time>2023-06-16T18:20:38.489Z</time>
      </trkpt>
      <trkpt lat="46.42989" lon="-0.09853">
        <ele>164.47</ele>
        <time>2023-06-16T18:21:33.737Z</time>
      </trkpt>
      <trkpt lat="46.42975" lon="-0.09833">
        <ele>164.24</ele>
        <time>2023-06-16T18:22:28.988Z</time>
      </trkpt>
      <trkpt lat="46.42951" lon="-0.09828">
        <ele>163.95</ele>
        <time>2023-06-16T18:23:24.243Z</time>
      </trkpt>
      <trkpt lat="46.42923" lon="-0.09828">
        <ele>163.61</ele>
        <time>2023-06-16T18:24:19.502Z</time>
      </trkpt>
      <trkpt lat="46.4289" lon="-0.09839">
        <ele>163.2</ele>
        <time>2023-06-16T18:25:14.767Z</time>
      </trkpt>
      <trkpt lat="46.42855" lon="-0.09856">
        <ele>162.76</ele>
        <time>2023-06-16T18:26:10.038Z</time>
      </trkpt>
      <trkpt lat="46.42806" lon="-0.09889">
        <ele>162.12</ele>
        <time>2023-06-16T18:27:05.317Z</time>
      </trkpt>
      <trkpt lat="46.42663" lon="-0.10004">
        <ele>160.16</ele>
        <time>2023-06-16T18:28:00.622Z</time>
      </trkpt>
      <trkpt lat="46.42568" lon="-0.10085">
        <ele>158.84</ele>
        <time>2023-06-16T18:28:55.945Z</time>
      </trkpt>
      <trkpt lat="46.42568" lon="-0.10085">
        <ele>158.84</ele>
        <time>2023-06-16T18:29:51.268Z</time>
      </trkpt>
      <trkpt lat="46.42522" lon="-0.10113">
        <ele>159.32</ele>
        <time>2023-06-16T18:30:46.599Z</time>
      </trkpt>
      <trkpt lat="46.42535" lon="-0.10154">
        <ele>159.62</ele>
        <time>2023-06-16T18:31:41.935Z</time>
      </trkpt>
      <trkpt lat="46.4254" lon="-0.1019">
        <ele>159.87</ele>
        <time>2023-06-16T18:32:37.275Z</time>
      </trkpt>
      <trkpt lat="46.42542" lon="-0.10243">
        <ele>160.23</ele>
        <time>2023-06-16T18:33:32.621Z</time>
      </trkpt>
      <trkpt lat="46.42538" lon="-0.10332">
        <ele>160.83</ele>
        <time>2023-06-16T18:34:27.977Z</time>
      </trkpt>
      <trkpt lat="46.42539" lon="-0.10368">
        <ele>161.07</ele>
        <time>2023-06-16T18:35:23.337Z</time>
      </trkpt>
      <trkpt lat="46.42543" lon="-0.10415">
        <ele>161.39</ele>
        <time>2023-06-16T18:36:18.702Z</time>
      </trkpt>
      <trkpt lat="46.42565" lon="-0.10516">
        <ele>162.1</ele>
        <time>2023-06-16T18:37:14.079Z</time>
      </trkpt>
      <trkpt lat="46.4257" lon="-0.10565">
        <ele>162.43</ele>
        <time>2023-06-16T18:38:09.461Z</time>
      </trkpt>
      <trkpt lat="46.42574" lon="-0.10587">
        <ele>162.59</ele>
        <time>2023-06-16T18:39:04.846Z</time>
      </trkpt>
      <trkpt lat="46.42585" lon="-0.10633">
        <ele>162.92</ele>
        <time>2023-06-16T18:40:00.236Z</time>
      </trkpt>
      <trkpt lat="46.42592" lon="-0.10665">
        <ele>162.18</ele>
        <time>2023-06-16T18:40:55.630Z</time>
      </trkpt>
      <trkpt lat="46.42592" lon="-0.10687">
        <ele>161.7</ele>
        <time>2023-06-16T18:41:51.026Z</time>
      </trkpt>
      <trkpt lat="46.42589" lon="-0.10703">
        <ele>161.34</ele>
        <time>2023-06-16T18:42:46.424Z</time>
      </trkpt>
      <trkpt lat="46.42564" lon="-0.10749">
        <ele>160.06</ele>
        <time>2023-06-16T18:43:41.829Z</time>
      </trkpt>
      <trkpt lat="46.4256" lon="-0.10755">
        <ele>160</ele>
        <time>2023-06-16T18:44:37.235Z</time>
      </trkpt>
      <trkpt lat="46.42558" lon="-0.10759">
        <ele>159.97</ele>
        <time>2023-06-16T18:45:32.641Z</time>
      </trkpt>
      <trkpt lat="46.42554" lon="-0.1077">
        <ele>159.86</ele>
        <time>2023-06-16T18:46:28.049Z</time>
      </trkpt>
      <trkpt lat="46.42538" lon="-0.1081">
        <ele>159.35</ele>
        <time>2023-06-16T18:47:23.462Z</time>
      </trkpt>
      <trkpt lat="46.42522" lon="-0.10819">
        <ele>159.09</ele>
        <time>2023-06-16T18:48:18.877Z</time>
      </trkpt>
      <trkpt lat="46.42506" lon="-0.10828">
        <ele>158.85</ele>
        <time>2023-06-16T18:49:14.295Z</time>
      </trkpt>
      <trkpt lat="46.42493" lon="-0.10835">
        <ele>158.69</ele>
        <time>2023-06-16T18:50:09.715Z</time>
      </trkpt>
      <trkpt lat="46.42483" lon="-0.10841">
        <ele>158.59</ele>
        <time>2023-06-16T18:51:05.137Z</time>
      </trkpt>
      <trkpt lat="46.42449" lon="-0.10866">
        <ele>158.26</ele>
        <time>2023-06-16T18:52:00.565Z</time>
      </trkpt>
      <trkpt lat="46.42409" lon="-0.10895">
        <ele>158.07</ele>
        <time>2023-06-16T18:52:56.000Z</time>
      </trkpt>
      <trkpt lat="46.42406" lon="-0.10898">
        <ele>158.06</ele>
        <time>2023-06-16T18:53:51.436Z</time>
      </trkpt>
      <trkpt lat="46.42381" lon="-0.10921">
        <ele>157.58</ele>
        <time>2023-06-16T18:54:46.877Z</time>
      </trkpt>
      <trkpt lat="46.42364" lon="-0.10937">
        <ele>157.28</ele>
        <time>2023-06-16T18:55:42.321Z</time>
      </trkpt>
      <trkpt lat="46.42363" lon="-0.10938">
        <ele>157.26</ele>
        <time>2023-06-16T18:56:37.765Z</time>
      </trkpt>
      <trkpt lat="46.42356" lon="-0.10946">
        <ele>157.03</ele>
        <time>2023-06-16T18:57:33.211Z</time>
      </trkpt>
      <trkpt lat="46.42349" lon="-0.10954">
        <ele>156.83</ele>
        <time>2023-06-16T18:58:28.658Z</time>
      </trkpt>
      <trkpt lat="46.42339" lon="-0.10965">
        <ele>156.57</ele>
        <time>2023-06-16T18:59:24.107Z</time>
      </trkpt>
      <trkpt lat="46.42325" lon="-0.10981">
        <ele>156.29</ele>
        <time>2023-06-16T19:00:19.559Z</time>
      </trkpt>
      <trkpt lat="46.42324" lon="-0.10982">
        <ele>156.27</ele>
        <time>2023-06-16T19:01:15.011Z</time>
      </trkpt>
      <trkpt lat="46.42312" lon="-0.10998">
        <ele>156.07</ele>
        <time>2023-06-16T19:02:10.466Z</time>
      </trkpt>
      <trkpt lat="46.42305" lon="-0.11006">
        <ele>155.98</ele>
        <time>2023-06-16T19:03:05.922Z</time>
      </trkpt>
      <trkpt lat="46.42299" lon="-0.11015">
        <ele>155.93</ele>
        <time>2023-06-16T19:04:01.379Z</time>
      </trkpt>
      <trkpt lat="46.42292" lon="-0.11023">
        <ele>155.93</ele>
        <time>2023-06-16T19:04:56.838Z</time>
      </trkpt>
      <trkpt lat="46.42276" lon="-0.11045">
        <ele>155.99</ele>
        <time>2023-06-16T19:05:52.300Z</time>
      </trkpt>
      <trkpt lat="46.42276" lon="-0.11045">
        <ele>155.99</ele>
        <time>2023-06-16T19:06:47.762Z</time>
      </trkpt>
      <trkpt lat="46.42258" lon="-0.11059">
        <ele>155.85</ele>
        <time>2023-06-16T19:07:43.228Z</time>
      </trkpt>
      <trkpt lat="46.42237" lon="-0.1107">
        <ele>155.7</ele>
        <time>2023-06-16T19:08:38.697Z</time>
      </trkpt>
      <trkpt lat="46.42231" lon="-0.11071">
        <ele>155.67</ele>
        <time>2023-06-16T19:09:34.167Z</time>
      </trkpt>
      <trkpt lat="46.4223" lon="-0.11071">
        <ele>155.66</ele>
        <time>2023-06-16T19:10:29.637Z</time>
      </trkpt>
      <trkpt lat="46.42231" lon="-0.11082">
        <ele>155.65</ele>
        <time>2023-06-16T19:11:25.109Z</time>
      </trkpt>
      <trkpt lat="46.42234" lon="-0.11132">
        <ele>155.93</ele>
        <time>2023-06-16T19:12:20.586Z</time>
      </trkpt>
      <trkpt lat="46.42234" lon="-0.11132">
        <ele>157.47</ele>
        <time>2023-06-16T19:13:16.063Z</time>
      </trkpt>
      <trkpt lat="46.42235" lon="-0.11149">
        <ele>157.4</ele>
        <time>2023-06-16T19:14:11.542Z</time>
      </trkpt>
      <trkpt lat="46.42235" lon="-0.11149">
        <ele>155.84</ele>
        <time>2023-06-16T19:15:07.021Z</time>
      </trkpt>
      <trkpt lat="46.42235" lon="-0.11155">
        <ele>155.8</ele>
        <time>2023-06-16T19:16:02.501Z</time>
      </trkpt>
      <trkpt lat="46.42254" lon="-0.11153">
        <ele>155.65</ele>
        <time>2023-06-16T19:16:57.984Z</time>
      </trkpt>
      <trkpt lat="46.42263" lon="-0.11153">
        <ele>155.67</ele>
        <time>2023-06-16T19:17:53.468Z</time>
      </trkpt>
      <trkpt lat="46.4227" lon="-0.11152">
        <ele>155.5</ele>
        <time>2023-06-16T19:18:48.953Z</time>
      </trkpt>
      <trkpt lat="46.42265" lon="-0.11152">
        <ele>155.38</ele>
        <time>2023-06-16T19:19:44.439Z</time>
      </trkpt>
      <trkpt lat="46.42239" lon="-0.11155">
        <ele>154.88</ele>
        <time>2023-06-16T19:20:39.929Z</time>
      </trkpt>
      <trkpt lat="46.42235" lon="-0.11155">
        <ele>154.82</ele>
        <time>2023-06-16T19:21:35.420Z</time>
      </trkpt>
      <trkpt lat="46.42235" lon="-0.11142">
        <ele>154.7</ele>
        <time>2023-06-16T19:22:30.912Z</time>
      </trkpt>
      <trkpt lat="46.42235" lon="-0.11142">
        <ele>154.7</ele>
        <time>2023-06-16T19:23:26.404Z</time>
      </trkpt>
      <trkpt lat="46.42228" lon="-0.11145">
        <ele>154.61</ele>
        <time>2023-06-16T19:24:21.898Z</time>
      </trkpt>
      <trkpt lat="46.42221" lon="-0.11149">
        <ele>154.52</ele>
        <time>2023-06-16T19:25:17.393Z</time>
      </trkpt>
      <trkpt lat="46.4222" lon="-0.11151">
        <ele>154.5</ele>
        <time>2023-06-16T19:26:12.888Z</time>
      </trkpt>
      <trkpt lat="46.42199" lon="-0.11174">
        <ele>153.96</ele>
        <time>2023-06-16T19:27:08.387Z</time>
      </trkpt>
      <trkpt lat="46.42199" lon="-0.11174">
        <ele>153.96</ele>
        <time>2023-06-16T19:28:03.886Z</time>
      </trkpt>
      <trkpt lat="46.42191" lon="-0.1118">
        <ele>153.81</ele>
        <time>2023-06-16T19:28:59.387Z</time>
      </trkpt>
      <trkpt lat="46.42188" lon="-0.11182">
        <ele>153.76</ele>
        <time>2023-06-16T19:29:54.888Z</time>
      </trkpt>
      <trkpt lat="46.42179" lon="-0.11186">
        <ele>153.64</ele>
        <time>2023-06-16T19:30:50.391Z</time>
      </trkpt>
      <trkpt lat="46.42158" lon="-0.11194">
        <ele>153.43</ele>
        <time>2023-06-16T19:31:45.897Z</time>
      </trkpt>
      <trkpt lat="46.42155" lon="-0.11195">
        <ele>153.39</ele>
        <time>2023-06-16T19:32:41.404Z</time>
      </trkpt>
      <trkpt lat="46.42143" lon="-0.11202">
        <ele>153.23</ele>
        <time>2023-06-16T19:33:36.913Z</time>
      </trkpt>
      <trkpt lat="46.4214" lon="-0.11205">
        <ele>153.2</ele>
        <time>2023-06-16T19:34:32.422Z</time>
      </trkpt>
      <trkpt lat="46.42133" lon="-0.11213">
        <ele>153.03</ele>
        <time>2023-06-16T19:35:27.933Z</time>
      </trkpt>
      <trkpt lat="46.42129" lon="-0.11224">
        <ele>152.89</ele>
        <time>2023-06-16T19:36:23.445Z</time>
      </trkpt>
      <trkpt lat="46.42122" lon="-0.11241">
        <ele>152.63</ele>
        <time>2023-06-16T19:37:18.959Z</time>
      </trkpt>
      <trkpt lat="46.42105" lon="-0.11227">
        <ele>152.26</ele>
        <time>2023-06-16T19:38:14.476Z</time>
      </trkpt>
      <trkpt lat="46.42103" lon="-0.11226">
        <ele>152.22</ele>
        <time>2023-06-16T19:39:09.994Z</time>
      </trkpt>
      <trkpt lat="46.42087" lon="-0.11217">
        <ele>151.88</ele>
        <time>2023-06-16T19:40:05.515Z</time>
      </trkpt>
      <trkpt lat="46.42071" lon="-0.11207">
        <ele>151.51</ele>
        <time>2023-06-16T19:41:01.038Z</time>
      </trkpt>
      <trkpt lat="46.4206" lon="-0.11201">
        <ele>151.27</ele>
        <time>2023-06-16T19:41:56.563Z</time>
      </trkpt>
      <trkpt lat="46.42035" lon="-0.11186">
        <ele>150.48</ele>
        <time>2023-06-16T19:42:52.093Z</time>
      </trkpt>
      <trkpt lat="46.42019" lon="-0.11177">
        <ele>149.9</ele>
        <time>2023-06-16T19:43:47.625Z</time>
      </trkpt>
      <trkpt lat="46.42016" lon="-0.11173">
        <ele>149.77</ele>
        <time>2023-06-16T19:44:43.158Z</time>
      </trkpt>
      <trkpt lat="46.42013" lon="-0.11169">
        <ele>149.66</ele>
        <time>2023-06-16T19:45:38.692Z</time>
      </trkpt>
      <trkpt lat="46.4201" lon="-0.11156">
        <ele>149.41</ele>
        <time>2023-06-16T19:46:34.227Z</time>
      </trkpt>
      <trkpt lat="46.42008" lon="-0.11149">
        <ele>149.28</ele>
        <time>2023-06-16T19:47:29.763Z</time>
      </trkpt>
      <trkpt lat="46.42006" lon="-0.11145">
        <ele>149.22</ele>
        <time>2023-06-16T19:48:25.299Z</time>
      </trkpt>
      <trkpt lat="46.42004" lon="-0.1114">
        <ele>149.14</ele>
        <time>2023-06-16T19:49:20.836Z</time>
      </trkpt>
      <trkpt lat="46.41998" lon="-0.1113">
        <ele>149.04</ele>
        <time>2023-06-16T19:50:16.375Z</time>
      </trkpt>
      <trkpt lat="46.41997" lon="-0.11127">
        <ele>149.02</ele>
        <time>2023-06-16T19:51:11.914Z</time>
      </trkpt>
      <trkpt lat="46.4199" lon="-0.11116">
        <ele>148.97</ele>
        <time>2023-06-16T19:52:07.455Z</time>
      </trkpt>
      <trkpt lat="46.41981" lon="-0.11102">
        <ele>148.97</ele>
        <time>2023-06-16T19:53:02.998Z</time>
      </trkpt>
      <trkpt lat="46.41972" lon="-0.11088">
        <ele>149.03</ele>
        <time>2023-06-16T19:53:58.543Z</time>
      </trkpt>
      <trkpt lat="46.41968" lon="-0.11081">
        <ele>149.07</ele>
        <time>2023-06-16T19:54:54.089Z</time>
      </trkpt>
      <trkpt lat="46.41941" lon="-0.11043">
        <ele>149.33</ele>
        <time>2023-06-16T19:55:49.641Z</time>
      </trkpt>
      <trkpt lat="46.41936" lon="-0.11035">
        <ele>149.39</ele>
        <time>2023-06-16T19:56:45.194Z</time>
      </trkpt>
      <trkpt lat="46.41925" lon="-0.11013">
        <ele>149.54</ele>
        <time>2023-06-16T19:57:40.750Z</time>
      </trkpt>
      <trkpt lat="46.4192" lon="-0.11003">
        <ele>149.55</ele>
        <time>2023-06-16T19:58:36.307Z</time>
      </trkpt>
      <trkpt lat="46.41912" lon="-0.10988">
        <ele>149.6</ele>
        <time>2023-06-16T19:59:31.867Z</time>
      </trkpt>
      <trkpt lat="46.41874" lon="-0.1091">
        <ele>150</ele>
        <time>2023-06-16T20:00:27.437Z</time>
      </trkpt>
      <trkpt lat="46.41862" lon="-0.10887">
        <ele>150.08</ele>
        <time>2023-06-16T20:01:23.010Z</time>
      </trkpt>
      <trkpt lat="46.41852" lon="-0.1087">
        <ele>150.16</ele>
        <time>2023-06-16T20:02:18.586Z</time>
      </trkpt>
      <trkpt lat="46.41844" lon="-0.10855">
        <ele>150.26</ele>
        <time>2023-06-16T20:03:14.164Z</time>
      </trkpt>
      <trkpt lat="46.41835" lon="-0.1084">
        <ele>150.41</ele>
        <time>2023-06-16T20:04:09.744Z</time>
      </trkpt>
      <trkpt lat="46.41817" lon="-0.1081">
        <ele>150.46</ele>
        <time>2023-06-16T20:05:05.328Z</time>
      </trkpt>
      <trkpt lat="46.41802" lon="-0.10783">
        <ele>150.82</ele>
        <time>2023-06-16T20:06:00.916Z</time>
      </trkpt>
      <trkpt lat="46.41795" lon="-0.10771">
        <ele>150.99</ele>
        <time>2023-06-16T20:06:56.506Z</time>
      </trkpt>
      <trkpt lat="46.41789" lon="-0.10761">
        <ele>151.16</ele>
        <time>2023-06-16T20:07:52.098Z</time>
      </trkpt>
      <trkpt lat="46.4178" lon="-0.10746">
        <ele>151.5</ele>
        <time>2023-06-16T20:08:47.692Z</time>
      </trkpt>
      <trkpt lat="46.41774" lon="-0.10737">
        <ele>151.75</ele>
        <time>2023-06-16T20:09:43.287Z</time>
      </trkpt>
      <trkpt lat="46.41769" lon="-0.10727">
        <ele>152.06</ele>
        <time>2023-06-16T20:10:38.884Z</time>
      </trkpt>
      <trkpt lat="46.41751" lon="-0.10698">
        <ele>153.17</ele>
        <time>2023-06-16T20:11:34.485Z</time>
      </trkpt>
      <trkpt lat="46.41743" lon="-0.10683">
        <ele>153.68</ele>
        <time>2023-06-16T20:12:30.088Z</time>
      </trkpt>
      <trkpt lat="46.41737" lon="-0.10674">
        <ele>153.99</ele>
        <time>2023-06-16T20:13:25.692Z</time>
      </trkpt>
      <trkpt lat="46.41731" lon="-0.10664">
        <ele>154.24</ele>
        <time>2023-06-16T20:14:21.298Z</time>
      </trkpt>
      <trkpt lat="46.41725" lon="-0.10654">
        <ele>154.46</ele>
        <time>2023-06-16T20:15:16.905Z</time>
      </trkpt>
      <trkpt lat="46.41714" lon="-0.10635">
        <ele>154.8</ele>
        <time>2023-06-16T20:16:12.515Z</time>
      </trkpt>
      <trkpt lat="46.41708" lon="-0.10626">
        <ele>154.81</ele>
        <time>2023-06-16T20:17:08.126Z</time>
      </trkpt>
      <trkpt lat="46.41703" lon="-0.10616">
        <ele>154.85</ele>
        <time>2023-06-16T20:18:03.739Z</time>
      </trkpt>
      <trkpt lat="46.417" lon="-0.10611">
        <ele>154.85</ele>
        <time>2023-06-16T20:18:59.352Z</time>
      </trkpt>
      <trkpt lat="46.41688" lon="-0.10592">
        <ele>154.78</ele>
        <time>2023-06-16T20:19:54.968Z</time>
      </trkpt>
      <trkpt lat="46.41682" lon="-0.10582">
        <ele>154.72</ele>
        <time>2023-06-16T20:20:50.586Z</time>
      </trkpt>
      <trkpt lat="46.41675" lon="-0.1057">
        <ele>154.61</ele>
        <time>2023-06-16T20:21:46.205Z</time>
      </trkpt>
      <trkpt lat="46.4167" lon="-0.10562">
        <ele>154.54</ele>
        <time>2023-06-16T20:22:41.826Z</time>
      </trkpt>
      <trkpt lat="46.41652" lon="-0.10534">
        <ele>154.32</ele>
        <time>2023-06-16T20:23:37.451Z</time>
      </trkpt>
      <trkpt lat="46.41649" lon="-0.10529">
        <ele>154.29</ele>
        <time>2023-06-16T20:24:33.077Z</time>
      </trkpt>
      <trkpt lat="46.41642" lon="-0.10519">
        <ele>154.28</ele>
        <time>2023-06-16T20:25:28.704Z</time>
      </trkpt>
      <trkpt lat="46.41642" lon="-0.10519">
        <ele>154.28</ele>
        <time>2023-06-16T20:26:24.331Z</time>
      </trkpt>
      <trkpt lat="46.41635" lon="-0.10512">
        <ele>154.32</ele>
        <time>2023-06-16T20:27:19.959Z</time>
      </trkpt>
      <trkpt lat="46.41631" lon="-0.10508">
        <ele>154.36</ele>
        <time>2023-06-16T20:28:15.588Z</time>
      </trkpt>
      <trkpt lat="46.41609" lon="-0.10488">
        <ele>154.57</ele>
        <time>2023-06-16T20:29:11.221Z</time>
      </trkpt>
      <trkpt lat="46.41597" lon="-0.10478">
        <ele>154.75</ele>
        <time>2023-06-16T20:30:06.857Z</time>
      </trkpt>
      <trkpt lat="46.41582" lon="-0.10464">
        <ele>155.04</ele>
        <time>2023-06-16T20:31:02.496Z</time>
      </trkpt>
      <trkpt lat="46.41575" lon="-0.10457">
        <ele>155.23</ele>
        <time>2023-06-16T20:31:58.136Z</time>
      </trkpt>
      <trkpt lat="46.41567" lon="-0.1045">
        <ele>155.47</ele>
        <time>2023-06-16T20:32:53.777Z</time>
      </trkpt>
      <trkpt lat="46.4156" lon="-0.10443">
        <ele>155.78</ele>
        <time>2023-06-16T20:33:49.420Z</time>
      </trkpt>
      <trkpt lat="46.41548" lon="-0.10433">
        <ele>156.3</ele>
        <time>2023-06-16T20:34:45.065Z</time>
      </trkpt>
      <trkpt lat="46.41533" lon="-0.10419">
        <ele>156.95</ele>
        <time>2023-06-16T20:35:40.713Z</time>
      </trkpt>
      <trkpt lat="46.41524" lon="-0.10411">
        <ele>157.31</ele>
        <time>2023-06-16T20:36:36.363Z</time>
      </trkpt>
      <trkpt lat="46.41513" lon="-0.10404">
        <ele>157.72</ele>
        <time>2023-06-16T20:37:32.014Z</time>
      </trkpt>
      <trkpt lat="46.41509" lon="-0.10401">
        <ele>157.89</ele>
        <time>2023-06-16T20:38:27.666Z</time>
      </trkpt>
      <trkpt lat="46.41493" lon="-0.10389">
        <ele>158.66</ele>
        <time>2023-06-16T20:39:23.321Z</time>
      </trkpt>
      <trkpt lat="46.41473" lon="-0.10375">
        <ele>159.49</ele>
        <time>2023-06-16T20:40:18.980Z</time>
      </trkpt>
      <trkpt lat="46.41465" lon="-0.10369">
        <ele>159.8</ele>
        <time>2023-06-16T20:41:14.640Z</time>
      </trkpt>
      <trkpt lat="46.41449" lon="-0.10358">
        <ele>160.34</ele>
        <time>2023-06-16T20:42:10.303Z</time>
      </trkpt>
      <trkpt lat="46.41445" lon="-0.10355">
        <ele>160.49</ele>
        <time>2023-06-16T20:43:05.967Z</time>
      </trkpt>
      <trkpt lat="46.41437" lon="-0.10349">
        <ele>160.82</ele>
        <time>2023-06-16T20:44:01.632Z</time>
      </trkpt>
      <trkpt lat="46.41421" lon="-0.10338">
        <ele>161.53</ele>
        <time>2023-06-16T20:44:57.300Z</time>
      </trkpt>
      <trkpt lat="46.41417" lon="-0.10335">
        <ele>161.68</ele>
        <time>2023-06-16T20:45:52.969Z</time>
      </trkpt>
      <trkpt lat="46.41413" lon="-0.10332">
        <ele>161.8</ele>
        <time>2023-06-16T20:46:48.638Z</time>
      </trkpt>
      <trkpt lat="46.4141" lon="-0.1033">
        <ele>161.73</ele>
        <time>2023-06-16T20:47:44.308Z</time>
      </trkpt>
      <trkpt lat="46.41401" lon="-0.10326">
        <ele>161.54</ele>
        <time>2023-06-16T20:48:39.979Z</time>
      </trkpt>
      <trkpt lat="46.41394" lon="-0.10322">
        <ele>161.31</ele>
        <time>2023-06-16T20:49:35.652Z</time>
      </trkpt>
      <trkpt lat="46.41386" lon="-0.10318">
        <ele>161.03</ele>
        <time>2023-06-16T20:50:31.326Z</time>
      </trkpt>
      <trkpt lat="46.41374" lon="-0.10312">
        <ele>160.52</ele>
        <time>2023-06-16T20:51:27.002Z</time>
      </trkpt>
      <trkpt lat="46.4137" lon="-0.1031">
        <ele>160.28</ele>
        <time>2023-06-16T20:52:22.679Z</time>
      </trkpt>
      <trkpt lat="46.41365" lon="-0.10308">
        <ele>160.01</ele>
        <time>2023-06-16T20:53:18.356Z</time>
      </trkpt>
      <trkpt lat="46.41361" lon="-0.10306">
        <ele>159.71</ele>
        <time>2023-06-16T20:54:14.034Z</time>
      </trkpt>
      <trkpt lat="46.41348" lon="-0.103">
        <ele>158.75</ele>
        <time>2023-06-16T20:55:09.714Z</time>
      </trkpt>
      <trkpt lat="46.4134" lon="-0.10295">
        <ele>158.07</ele>
        <time>2023-06-16T20:56:05.396Z</time>
      </trkpt>
      <trkpt lat="46.41336" lon="-0.10293">
        <ele>157.69</ele>
        <time>2023-06-16T20:57:01.078Z</time>
      </trkpt>
      <trkpt lat="46.41325" lon="-0.10288">
        <ele>156.66</ele>
        <time>2023-06-16T20:57:56.762Z</time>
      </trkpt>
      <trkpt lat="46.41325" lon="-0.10285">
        <ele>156.46</ele>
        <time>2023-06-16T20:58:52.447Z</time>
      </trkpt>
      <trkpt lat="46.41324" lon="-0.10265">
        <ele>155.32</ele>
        <time>2023-06-16T20:59:48.134Z</time>
      </trkpt>
      <trkpt lat="46.41323" lon="-0.10248">
        <ele>154.27</ele>
        <time>2023-06-16T21:00:43.823Z</time>
      </trkpt>
      <trkpt lat="46.41322" lon="-0.1024">
        <ele>153.75</ele>
        <time>2023-06-16T21:01:39.513Z</time>
      </trkpt>
      <trkpt lat="46.41318" lon="-0.10221">
        <ele>152.67</ele>
        <time>2023-06-16T21:02:35.205Z</time>
      </trkpt>
      <trkpt lat="46.41317" lon="-0.10214">
        <ele>152.34</ele>
        <time>2023-06-16T21:03:30.898Z</time>
      </trkpt>
      <trkpt lat="46.41316" lon="-0.10208">
        <ele>152.04</ele>
        <time>2023-06-16T21:04:26.591Z</time>
      </trkpt>
      <trkpt lat="46.41315" lon="-0.10202">
        <ele>151.77</ele>
        <time>2023-06-16T21:05:22.285Z</time>
      </trkpt>
      <trkpt lat="46.41312" lon="-0.10183">
        <ele>151.02</ele>
        <time>2023-06-16T21:06:17.981Z</time>
      </trkpt>
      <trkpt lat="46.41309" lon="-0.10168">
        <ele>150.38</ele>
        <time>2023-06-16T21:07:13.679Z</time>
      </trkpt>
      <trkpt lat="46.41308" lon="-0.10164">
        <ele>150.21</ele>
        <time>2023-06-16T21:08:09.377Z</time>
      </trkpt>
      <trkpt lat="46.41307" lon="-0.10158">
        <ele>149.97</ele>
        <time>2023-06-16T21:09:05.076Z</time>
      </trkpt>
      <trkpt lat="46.41305" lon="-0.10145">
        <ele>149.55</ele>
        <time>2023-06-16T21:10:00.776Z</time>
      </trkpt>
      <trkpt lat="46.41302" lon="-0.10132">
        <ele>149.17</ele>
        <time>2023-06-16T21:10:56.478Z</time>
      </trkpt>
      <trkpt lat="46.413" lon="-0.1012">
        <ele>148.85</ele>
        <time>2023-06-16T21:11:52.181Z</time>
      </trkpt>
      <trkpt lat="46.41296" lon="-0.10101">
        <ele>148.52</ele>
        <time>2023-06-16T21:12:47.887Z</time>
      </trkpt>
      <trkpt lat="46.41291" lon="-0.10076">
        <ele>148</ele>
        <time>2023-06-16T21:13:43.595Z</time>
      </trkpt>
      <trkpt lat="46.41289" lon="-0.10065">
        <ele>147.81</ele>
        <time>2023-06-16T21:14:39.305Z</time>
      </trkpt>
      <trkpt lat="46.41288" lon="-0.10064">
        <ele>147.79</ele>
        <time>2023-06-16T21:15:35.015Z</time>
      </trkpt>
      <trkpt lat="46.41285" lon="-0.10059">
        <ele>147.71</ele>
        <time>2023-06-16T21:16:30.726Z</time>
      </trkpt>
      <trkpt lat="46.41274" lon="-0.10039">
        <ele>147.51</ele>
        <time>2023-06-16T21:17:26.439Z</time>
      </trkpt>
      <trkpt lat="46.41271" lon="-0.10034">
        <ele>147.46</ele>
        <time>2023-06-16T21:18:22.153Z</time>
      </trkpt>
      <trkpt lat="46.41258" lon="-0.10016">
        <ele>147.12</ele>
        <time>2023-06-16T21:19:17.870Z</time>
      </trkpt>
      <trkpt lat="46.41255" lon="-0.10011">
        <ele>147.05</ele>
        <time>2023-06-16T21:20:13.588Z</time>
      </trkpt>
      <trkpt lat="46.41249" lon="-0.10002">
        <ele>146.96</ele>
        <time>2023-06-16T21:21:09.307Z</time>
      </trkpt>
      <trkpt lat="46.41232" lon="-0.09978">
        <ele>146.82</ele>
        <time>2023-06-16T21:22:05.030Z</time>
      </trkpt>
      <trkpt lat="46.41214" lon="-0.0996">
        <ele>146.7</ele>
        <time>2023-06-16T21:23:00.756Z</time>
      </trkpt>
      <trkpt lat="46.41203" lon="-0.09949">
        <ele>146.65</ele>
        <time>2023-06-16T21:23:56.485Z</time>
      </trkpt>
      <trkpt lat="46.41192" lon="-0.09938">
        <ele>146.64</ele>
        <time>2023-06-16T21:24:52.216Z</time>
      </trkpt>
      <trkpt lat="46.41181" lon="-0.09927">
        <ele>146.7</ele>
        <time>2023-06-16T21:25:47.949Z</time>
      </trkpt>
      <trkpt lat="46.4117" lon="-0.09915">
        <ele>146.67</ele>
        <time>2023-06-16T21:26:43.684Z</time>
      </trkpt>
      <trkpt lat="46.41155" lon="-0.09901">
        <ele>146.68</ele>
        <time>2023-06-16T21:27:39.422Z</time>
      </trkpt>
      <trkpt lat="46.41144" lon="-0.09889">
        <ele>146.58</ele>
        <time>2023-06-16T21:28:35.162Z</time>
      </trkpt>
      <trkpt lat="46.41141" lon="-0.09886">
        <ele>146.56</ele>
        <time>2023-06-16T21:29:30.903Z</time>
      </trkpt>
      <trkpt lat="46.41121" lon="-0.09869">
        <ele>146.52</ele>
        <time>2023-06-16T21:30:26.647Z</time>
      </trkpt>
      <trkpt lat="46.41102" lon="-0.09852">
        <ele>146.37</ele>
        <time>2023-06-16T21:31:22.395Z</time>
      </trkpt>
      <trkpt lat="46.41099" lon="-0.09849">
        <ele>146.31</ele>
        <time>2023-06-16T21:32:18.144Z</time>
      </trkpt>
      <trkpt lat="46.41096" lon="-0.09843">
        <ele>146.24</ele>
        <time>2023-06-16T21:33:13.893Z</time>
      </trkpt>
      <trkpt lat="46.41087" lon="-0.09829">
        <ele>146</ele>
        <time>2023-06-16T21:34:09.645Z</time>
      </trkpt>
      <trkpt lat="46.41084" lon="-0.09824">
        <ele>145.91</ele>
        <time>2023-06-16T21:35:05.397Z</time>
      </trkpt>
      <trkpt lat="46.41082" lon="-0.09818">
        <ele>145.82</ele>
        <time>2023-06-16T21:36:01.150Z</time>
      </trkpt>
      <trkpt lat="46.41075" lon="-0.09801">
        <ele>145.5</ele>
        <time>2023-06-16T21:36:56.905Z</time>
      </trkpt>
      <trkpt lat="46.41072" lon="-0.09796">
        <ele>145.41</ele>
        <time>2023-06-16T21:37:52.661Z</time>
      </trkpt>
      <trkpt lat="46.41071" lon="-0.09793">
        <ele>145.37</ele>
        <time>2023-06-16T21:38:48.417Z</time>
      </trkpt>
      <trkpt lat="46.41066" lon="-0.09779">
        <ele>145.22</ele>
        <time>2023-06-16T21:39:44.175Z</time>
      </trkpt>
      <trkpt lat="46.41064" lon="-0.09773">
        <ele>145.14</ele>
        <time>2023-06-16T21:40:39.934Z</time>
      </trkpt>
      <trkpt lat="46.4106" lon="-0.09761">
        <ele>144.9</ele>
        <time>2023-06-16T21:41:35.694Z</time>
      </trkpt>
      <trkpt lat="46.41055" lon="-0.09743">
        <ele>144.34</ele>
        <time>2023-06-16T21:42:31.456Z</time>
      </trkpt>
      <trkpt lat="46.41053" lon="-0.09737">
        <ele>144.21</ele>
        <time>2023-06-16T21:43:27.219Z</time>
      </trkpt>
      <trkpt lat="46.41049" lon="-0.09726">
        <ele>144.04</ele>
        <time>2023-06-16T21:44:22.984Z</time>
      </trkpt>
      <trkpt lat="46.41047" lon="-0.0972">
        <ele>143.94</ele>
        <time>2023-06-16T21:45:18.749Z</time>
      </trkpt>
      <trkpt lat="46.41044" lon="-0.09714">
        <ele>143.83</ele>
        <time>2023-06-16T21:46:14.515Z</time>
      </trkpt>
      <trkpt lat="46.41033" lon="-0.09688">
        <ele>143.2</ele>
        <time>2023-06-16T21:47:10.284Z</time>
      </trkpt>
      <trkpt lat="46.41029" lon="-0.09682">
        <ele>143.05</ele>
        <time>2023-06-16T21:48:06.054Z</time>
      </trkpt>
      <trkpt lat="46.4102" lon="-0.09667">
        <ele>142.74</ele>
        <time>2023-06-16T21:49:01.826Z</time>
      </trkpt>
      <trkpt lat="46.41011" lon="-0.09652">
        <ele>142.33</ele>
        <time>2023-06-16T21:49:57.601Z</time>
      </trkpt>
      <trkpt lat="46.41008" lon="-0.09649">
        <ele>142.22</ele>
        <time>2023-06-16T21:50:53.376Z</time>
      </trkpt>
      <trkpt lat="46.41001" lon="-0.09641">
        <ele>142.01</ele>
        <time>2023-06-16T21:51:49.153Z</time>
      </trkpt>
      <trkpt lat="46.4098" lon="-0.09617">
        <ele>141.31</ele>
        <time>2023-06-16T21:52:44.934Z</time>
      </trkpt>
      <trkpt lat="46.40976" lon="-0.09613">
        <ele>141.18</ele>
        <time>2023-06-16T21:53:40.716Z</time>
      </trkpt>
      <trkpt lat="46.40972" lon="-0.09609">
        <ele>141.02</ele>
        <time>2023-06-16T21:54:36.499Z</time>
      </trkpt>
      <trkpt lat="46.40955" lon="-0.09589">
        <ele>140.09</ele>
        <time>2023-06-16T21:55:32.285Z</time>
      </trkpt>
      <trkpt lat="46.40948" lon="-0.09581">
        <ele>139.75</ele>
        <time>2023-06-16T21:56:28.073Z</time>
      </trkpt>
      <trkpt lat="46.40933" lon="-0.09565">
        <ele>139.17</ele>
        <time>2023-06-16T21:57:23.863Z</time>
      </trkpt>
      <trkpt lat="46.4091" lon="-0.09539">
        <ele>138.13</ele>
        <time>2023-06-16T21:58:19.658Z</time>
      </trkpt>
      <trkpt lat="46.40896" lon="-0.0953">
        <ele>137.6</ele>
        <time>2023-06-16T21:59:15.456Z</time>
      </trkpt>
      <trkpt lat="46.40884" lon="-0.09523">
        <ele>137.22</ele>
        <time>2023-06-16T22:00:11.256Z</time>
      </trkpt>
      <trkpt lat="46.40883" lon="-0.09523">
        <ele>137.22</ele>
        <time>2023-06-16T22:01:07.056Z</time>
      </trkpt>
      <trkpt lat="46.40875" lon="-0.09518">
        <ele>137.05</ele>
        <time>2023-06-16T22:02:02.857Z</time>
      </trkpt>
      <trkpt lat="46.40871" lon="-0.09516">
        <ele>137</ele>
        <time>2023-06-16T22:02:58.659Z</time>
      </trkpt>
      <trkpt lat="46.40862" lon="-0.09515">
        <ele>136.91</ele>
        <time>2023-06-16T22:03:54.462Z</time>
      </trkpt>
      <trkpt lat="46.40853" lon="-0.09513">
        <ele>136.77</ele>
        <time>2023-06-16T22:04:50.267Z</time>
      </trkpt>
      <trkpt lat="46.40851" lon="-0.09513">
        <ele>136.72</ele>
        <time>2023-06-16T22:05:46.072Z</time>
      </trkpt>
      <trkpt lat="46.40848" lon="-0.09514">
        <ele>136.66</ele>
        <time>2023-06-16T22:06:41.878Z</time>
      </trkpt>
      <trkpt lat="46.40839" lon="-0.09516">
        <ele>136.35</ele>
        <time>2023-06-16T22:07:37.685Z</time>
      </trkpt>
      <trkpt lat="46.40831" lon="-0.0952">
        <ele>136.1</ele>
        <time>2023-06-16T22:08:33.493Z</time>
      </trkpt>
      <trkpt lat="46.40827" lon="-0.09523">
        <ele>136.02</ele>
        <time>2023-06-16T22:09:29.302Z</time>
      </trkpt>
      <trkpt lat="46.4082" lon="-0.09527">
        <ele>135.95</ele>
        <time>2023-06-16T22:10:25.112Z</time>
      </trkpt>
      <trkpt lat="46.40819" lon="-0.09527">
        <ele>135.94</ele>
        <time>2023-06-16T22:11:20.923Z</time>
      </trkpt>
      <trkpt lat="46.4081" lon="-0.09531">
        <ele>135.94</ele>
        <time>2023-06-16T22:12:16.735Z</time>
      </trkpt>
      <trkpt lat="46.40809" lon="-0.09531">
        <ele>135.94</ele>
        <time>2023-06-16T22:13:12.547Z</time>
      </trkpt>
      <trkpt lat="46.40806" lon="-0.09531">
        <ele>135.97</ele>
        <time>2023-06-16T22:14:08.360Z</time>
      </trkpt>
      <trkpt lat="46.40799" lon="-0.09531">
        <ele>136.04</ele>
        <time>2023-06-16T22:15:04.174Z</time>
      </trkpt>
      <trkpt lat="46.40793" lon="-0.09527">
        <ele>136.12</ele>
        <time>2023-06-16T22:15:59.989Z</time>
      </trkpt>
      <trkpt lat="46.40785" lon="-0.09521">
        <ele>136.31</ele>
        <time>2023-06-16T22:16:55.805Z</time>
      </trkpt>
      <trkpt lat="46.4078" lon="-0.09519">
        <ele>136.45</ele>
        <time>2023-06-16T22:17:51.622Z</time>
      </trkpt>
      <trkpt lat="46.40772" lon="-0.09513">
        <ele>136.77</ele>
        <time>2023-06-16T22:18:47.440Z</time>
      </trkpt>
      <trkpt lat="46.40764" lon="-0.09508">
        <ele>137.14</ele>
        <time>2023-06-16T22:19:43.260Z</time>
      </trkpt>
      <trkpt lat="46.40753" lon="-0.095">
        <ele>137.6</ele>
        <time>2023-06-16T22:20:39.082Z</time>
      </trkpt>
      <trkpt lat="46.40745" lon="-0.09495">
        <ele>137.86</ele>
        <time>2023-06-16T22:21:34.905Z</time>
      </trkpt>
      <trkpt lat="46.40732" lon="-0.0949">
        <ele>138.29</ele>
        <time>2023-06-16T22:22:30.730Z</time>
      </trkpt>
      <trkpt lat="46.40724" lon="-0.09486">
        <ele>138.53</ele>
        <time>2023-06-16T22:23:26.557Z</time>
      </trkpt>
      <trkpt lat="46.40724" lon="-0.09486">
        <ele>138.53</ele>
        <time>2023-06-16T22:24:22.384Z</time>
      </trkpt>
      <trkpt lat="46.4072" lon="-0.09483">
        <ele>138.63</ele>
        <time>2023-06-16T22:25:18.211Z</time>
      </trkpt>
      <trkpt lat="46.40713" lon="-0.09478">
        <ele>138.76</ele>
        <time>2023-06-16T22:26:14.040Z</time>
      </trkpt>
      <trkpt lat="46.40709" lon="-0.09475">
        <ele>138.78</ele>
        <time>2023-06-16T22:27:09.869Z</time>
      </trkpt>
      <trkpt lat="46.40699" lon="-0.09466">
        <ele>138.86</ele>
        <time>2023-06-16T22:28:05.700Z</time>
      </trkpt>
      <trkpt lat="46.40695" lon="-0.0946">
        <ele>138.91</ele>
        <time>2023-06-16T22:29:01.532Z</time>
      </trkpt>
      <trkpt lat="46.40692" lon="-0.09455">
        <ele>138.87</ele>
        <time>2023-06-16T22:29:57.365Z</time>
      </trkpt>
      <trkpt lat="46.4069" lon="-0.0945">
        <ele>138.85</ele>
        <time>2023-06-16T22:30:53.199Z</time>
      </trkpt>
      <trkpt lat="46.40686" lon="-0.09438">
        <ele>138.69</ele>
        <time>2023-06-16T22:31:49.034Z</time>
      </trkpt>
      <trkpt lat="46.40682" lon="-0.09428">
        <ele>138.38</ele>
        <time>2023-06-16T22:32:44.870Z</time>
      </trkpt>
      <trkpt lat="46.40682" lon="-0.09427">
        <ele>138.38</ele>
        <time>2023-06-16T22:33:40.707Z</time>
      </trkpt>
      <trkpt lat="46.4068" lon="-0.09421">
        <ele>138.25</ele>
        <time>2023-06-16T22:34:36.544Z</time>
      </trkpt>
      <trkpt lat="46.40665" lon="-0.09369">
        <ele>137.22</ele>
        <time>2023-06-16T22:35:32.387Z</time>
      </trkpt>
      <trkpt lat="46.40652" lon="-0.09361">
        <ele>136.84</ele>
        <time>2023-06-16T22:36:28.233Z</time>
      </trkpt>
      <trkpt lat="46.40635" lon="-0.0935">
        <ele>136.45</ele>
        <time>2023-06-16T22:37:24.082Z</time>
      </trkpt>
      <trkpt lat="46.40627" lon="-0.09345">
        <ele>136.32</ele>
        <time>2023-06-16T22:38:19.932Z</time>
      </trkpt>
      <trkpt lat="46.40623" lon="-0.09343">
        <ele>136.3</ele>
        <time>2023-06-16T22:39:15.783Z</time>
      </trkpt>
      <trkpt lat="46.40615" lon="-0.09338">
        <ele>136.32</ele>
        <time>2023-06-16T22:40:11.635Z</time>
      </trkpt>
      <trkpt lat="46.40609" lon="-0.09334">
        <ele>136.35</ele>
        <time>2023-06-16T22:41:07.488Z</time>
      </trkpt>
      <trkpt lat="46.40593" lon="-0.0933">
        <ele>136.45</ele>
        <time>2023-06-16T22:42:03.344Z</time>
      </trkpt>
      <trkpt lat="46.40584" lon="-0.09327">
        <ele>136.53</ele>
        <time>2023-06-16T22:42:59.201Z</time>
      </trkpt>
      <trkpt lat="46.40584" lon="-0.09327">
        <ele>136.53</ele>
        <time>2023-06-16T22:43:55.058Z</time>
      </trkpt>
      <trkpt lat="46.40575" lon="-0.09325">
        <ele>136.68</ele>
        <time>2023-06-16T22:44:50.917Z</time>
      </trkpt>
      <trkpt lat="46.40563" lon="-0.09323">
        <ele>136.98</ele>
        <time>2023-06-16T22:45:46.778Z</time>
      </trkpt>
      <trkpt lat="46.40558" lon="-0.09321">
        <ele>137.11</ele>
        <time>2023-06-16T22:46:42.640Z</time>
      </trkpt>
      <trkpt lat="46.40553" lon="-0.0932">
        <ele>137.2</ele>
        <time>2023-06-16T22:47:38.502Z</time>
      </trkpt>
      <trkpt lat="46.4055" lon="-0.09317">
        <ele>137.28</ele>
        <time>2023-06-16T22:48:34.365Z</time>
      </trkpt>
      <trkpt lat="46.40545" lon="-0.09313">
        <ele>137.34</ele>
        <time>2023-06-16T22:49:30.229Z</time>
      </trkpt>
      <trkpt lat="46.4054" lon="-0.09304">
        <ele>137.45</ele>
        <time>2023-06-16T22:50:26.094Z</time>
      </trkpt>
      <trkpt lat="46.40531" lon="-0.09291">
        <ele>137.57</ele>
        <time>2023-06-16T22:51:21.961Z</time>
      </trkpt>
      <trkpt lat="46.4053" lon="-0.0929">
        <ele>137.57</ele>
        <time>2023-06-16T22:52:17.828Z</time>
      </trkpt>
      <trkpt lat="46.40518" lon="-0.09281">
        <ele>137.39</ele>
        <time>2023-06-16T22:53:13.698Z</time>
      </trkpt>
      <trkpt lat="46.40518" lon="-0.09281">
        <ele>137.39</ele>
        <time>2023-06-16T22:54:09.568Z</time>
      </trkpt>
      <trkpt lat="46.40483" lon="-0.0927">
        <ele>137.02</ele>
        <time>2023-06-16T22:55:05.443Z</time>
      </trkpt>
      <trkpt lat="46.40481" lon="-0.09268">
        <ele>137</ele>
        <time>2023-06-16T22:56:01.319Z</time>
      </trkpt>
      <trkpt lat="46.40475" lon="-0.09272">
        <ele>136.94</ele>
        <time>2023-06-16T22:56:57.196Z</time>
      </trkpt>
      <trkpt lat="46.40463" lon="-0.0928">
        <ele>136.86</ele>
        <time>2023-06-16T22:57:53.075Z</time>
      </trkpt>
      <trkpt lat="46.40447" lon="-0.0929">
        <ele>136.81</ele>
        <time>2023-06-16T22:58:48.957Z</time>
      </trkpt>
      <trkpt lat="46.40434" lon="-0.09298">
        <ele>136.68</ele>
        <time>2023-06-16T22:59:44.841Z</time>
      </trkpt>
      <trkpt lat="46.40422" lon="-0.09306">
        <ele>136.64</ele>
        <time>2023-06-16T23:00:40.727Z</time>
      </trkpt>
      <trkpt lat="46.4041" lon="-0.09314">
        <ele>136.54</ele>
        <time>2023-06-16T23:01:36.615Z</time>
      </trkpt>
      <trkpt lat="46.40393" lon="-0.09324">
        <ele>136.52</ele>
        <time>2023-06-16T23:02:32.506Z</time>
      </trkpt>
      <trkpt lat="46.40365" lon="-0.09343">
        <ele>136.32</ele>
        <time>2023-06-16T23:03:28.402Z</time>
      </trkpt>
      <trkpt lat="46.40361" lon="-0.09345">
        <ele>136.32</ele>
        <time>2023-06-16T23:04:24.299Z</time>
      </trkpt>
      <trkpt lat="46.40352" lon="-0.09349">
        <ele>136.32</ele>
        <time>2023-06-16T23:05:20.197Z</time>
      </trkpt>
      <trkpt lat="46.40335" lon="-0.09357">
        <ele>136.28</ele>
        <time>2023-06-16T23:06:16.098Z</time>
      </trkpt>
      <trkpt lat="46.40317" lon="-0.09364">
        <ele>136.34</ele>
        <time>2023-06-16T23:07:12.002Z</time>
      </trkpt>
      <trkpt lat="46.40309" lon="-0.09368">
        <ele>136.35</ele>
        <time>2023-06-16T23:08:07.907Z</time>
      </trkpt>
      <trkpt lat="46.403" lon="-0.09372">
        <ele>136.33</ele>
        <time>2023-06-16T23:09:03.814Z</time>
      </trkpt>
      <trkpt lat="46.40297" lon="-0.09373">
        <ele>136.3</ele>
        <time>2023-06-16T23:09:59.721Z</time>
      </trkpt>
      <trkpt lat="46.40292" lon="-0.09376">
        <ele>136.25</ele>
        <time>2023-06-16T23:10:55.629Z</time>
      </trkpt>
      <trkpt lat="46.40288" lon="-0.09379">
        <ele>136.18</ele>
        <time>2023-06-16T23:11:51.538Z</time>
      </trkpt>
      <trkpt lat="46.40275" lon="-0.09387">
        <ele>135.92</ele>
        <time>2023-06-16T23:12:47.449Z</time>
      </trkpt>
      <trkpt lat="46.40275" lon="-0.09387">
        <ele>135.92</ele>
        <time>2023-06-16T23:13:43.360Z</time>
      </trkpt>
      <trkpt lat="46.40262" lon="-0.09391">
        <ele>135.69</ele>
        <time>2023-06-16T23:14:39.273Z</time>
      </trkpt>
      <trkpt lat="46.40253" lon="-0.09393">
        <ele>135.47</ele>
        <time>2023-06-16T23:15:35.188Z</time>
      </trkpt>
      <trkpt lat="46.40247" lon="-0.09395">
        <ele>135.26</ele>
        <time>2023-06-16T23:16:31.104Z</time>
      </trkpt>
      <trkpt lat="46.4024" lon="-0.09398">
        <ele>135.04</ele>
        <time>2023-06-16T23:17:27.021Z</time>
      </trkpt>
      <trkpt lat="46.40232" lon="-0.09402">
        <ele>134.83</ele>
        <time>2023-06-16T23:18:22.939Z</time>
      </trkpt>
      <trkpt lat="46.40232" lon="-0.09402">
        <ele>134.83</ele>
        <time>2023-06-16T23:19:18.857Z</time>
      </trkpt>
      <trkpt lat="46.40205" lon="-0.09426">
        <ele>134.31</ele>
        <time>2023-06-16T23:20:14.780Z</time>
      </trkpt>
      <trkpt lat="46.4019" lon="-0.0944">
        <ele>133.94</ele>
        <time>2023-06-16T23:21:10.706Z</time>
      </trkpt>
      <trkpt lat="46.40189" lon="-0.09441">
        <ele>133.92</ele>
        <time>2023-06-16T23:22:06.632Z</time>
      </trkpt>
      <trkpt lat="46.40172" lon="-0.0946">
        <ele>133.55</ele>
        <time>2023-06-16T23:23:02.562Z</time>
      </trkpt>
      <trkpt lat="46.40148" lon="-0.09488">
        <ele>132.93</ele>
        <time>2023-06-16T23:23:58.497Z</time>
      </trkpt>
      <trkpt lat="46.40141" lon="-0.09496">
        <ele>132.77</ele>
        <time>2023-06-16T23:24:54.433Z</time>
      </trkpt>
      <trkpt lat="46.4013" lon="-0.09508">
        <ele>132.6</ele>
        <time>2023-06-16T23:25:50.371Z</time>
      </trkpt>
      <trkpt lat="46.40126" lon="-0.09513">
        <ele>132.54</ele>
        <time>2023-06-16T23:26:46.310Z</time>
      </trkpt>
      <trkpt lat="46.40116" lon="-0.09525">
        <ele>132.4</ele>
        <time>2023-06-16T23:27:42.251Z</time>
      </trkpt>
      <trkpt lat="46.40101" lon="-0.09545">
        <ele>132.26</ele>
        <time>2023-06-16T23:28:38.196Z</time>
      </trkpt>
      <trkpt lat="46.40097" lon="-0.09552">
        <ele>132.22</ele>
        <time>2023-06-16T23:29:34.142Z</time>
      </trkpt>
      <trkpt lat="46.40088" lon="-0.09567">
        <ele>132.11</ele>
        <time>2023-06-16T23:30:30.090Z</time>
      </trkpt>
      <trkpt lat="46.40087" lon="-0.0957">
        <ele>132.1</ele>
        <time>2023-06-16T23:31:26.038Z</time>
      </trkpt>
      <trkpt lat="46.40078" lon="-0.09579">
        <ele>132.07</ele>
        <time>2023-06-16T23:32:21.988Z</time>
      </trkpt>
      <trkpt lat="46.40074" lon="-0.09583">
        <ele>132.03</ele>
        <time>2023-06-16T23:33:17.939Z</time>
      </trkpt>
      <trkpt lat="46.40067" lon="-0.0959">
        <ele>131.91</ele>
        <time>2023-06-16T23:34:13.891Z</time>
      </trkpt>
      <trkpt lat="46.40053" lon="-0.09603">
        <ele>131.89</ele>
        <time>2023-06-16T23:35:09.846Z</time>
      </trkpt>
      <trkpt lat="46.40032" lon="-0.09624">
        <ele>131.05</ele>
        <time>2023-06-16T23:36:05.805Z</time>
      </trkpt>
      <trkpt lat="46.40017" lon="-0.09634">
        <ele>130.5</ele>
        <time>2023-06-16T23:37:01.766Z</time>
      </trkpt>
      <trkpt lat="46.40012" lon="-0.09633">
        <ele>130.34</ele>
        <time>2023-06-16T23:37:57.728Z</time>
      </trkpt>
      <trkpt lat="46.40008" lon="-0.09639">
        <ele>130.15</ele>
        <time>2023-06-16T23:38:53.691Z</time>
      </trkpt>
      <trkpt lat="46.39996" lon="-0.09649">
        <ele>129.69</ele>
        <time>2023-06-16T23:39:49.656Z</time>
      </trkpt>
      <trkpt lat="46.39917" lon="-0.09681">
        <ele>127</ele>
        <time>2023-06-16T23:40:45.635Z</time>
      </trkpt>
      <trkpt lat="46.39863" lon="-0.09711">
        <ele>125.1</ele>
        <time>2023-06-16T23:41:41.623Z</time>
      </trkpt>
      <trkpt lat="46.39748" lon="-0.09796">
        <ele>120.86</ele>
        <time>2023-06-16T23:42:37.632Z</time>
      </trkpt>
      <trkpt lat="46.39728" lon="-0.09806">
        <ele>120.16</ele>
        <time>2023-06-16T23:43:33.644Z</time>
      </trkpt>
      <trkpt lat="46.39639" lon="-0.09839">
        <ele>117.14</ele>
        <time>2023-06-16T23:44:29.671Z</time>
      </trkpt>
      <trkpt lat="46.39582" lon="-0.09864">
        <ele>115.19</ele>
        <time>2023-06-16T23:45:25.707Z</time>
      </trkpt>
      <trkpt lat="46.39553" lon="-0.09867">
        <ele>114.23</ele>
        <time>2023-06-16T23:46:21.748Z</time>
      </trkpt>
      <trkpt lat="46.39528" lon="-0.09861">
        <ele>113.4</ele>
        <time>2023-06-16T23:47:17.793Z</time>
      </trkpt>
      <trkpt lat="46.39465" lon="-0.09856">
        <ele>111.32</ele>
        <time>2023-06-16T23:48:13.848Z</time>
      </trkpt>
      <trkpt lat="46.39443" lon="-0.09857">
        <ele>110.6</ele>
        <time>2023-06-16T23:49:09.906Z</time>
      </trkpt>
      <trkpt lat="46.39299" lon="-0.09907">
        <ele>105.74</ele>
        <time>2023-06-16T23:50:05.988Z</time>
      </trkpt>
      <trkpt lat="46.39248" lon="-0.09935">
        <ele>103.94</ele>
        <time>2023-06-16T23:51:02.079Z</time>
      </trkpt>
      <trkpt lat="46.39204" lon="-0.09956">
        <ele>102.43</ele>
        <time>2023-06-16T23:51:58.177Z</time>
      </trkpt>
      <trkpt lat="46.39183" lon="-0.09966">
        <ele>101.46</ele>
        <time>2023-06-16T23:52:54.279Z</time>
      </trkpt>
      <trkpt lat="46.3917" lon="-0.09972">
        <ele>100.8</ele>
        <time>2023-06-16T23:53:50.383Z</time>
      </trkpt>
      <trkpt lat="46.39162" lon="-0.09974">
        <ele>100.4</ele>
        <time>2023-06-16T23:54:46.488Z</time>
      </trkpt>
      <trkpt lat="46.39153" lon="-0.09977">
        <ele>99.96</ele>
        <time>2023-06-16T23:55:42.595Z</time>
      </trkpt>
      <trkpt lat="46.39153" lon="-0.09977">
        <ele>99.96</ele>
        <time>2023-06-16T23:56:38.702Z</time>
      </trkpt>
      <trkpt lat="46.3914" lon="-0.09977">
        <ele>99.22</ele>
        <time>2023-06-16T23:57:34.811Z</time>
      </trkpt>
      <trkpt lat="46.39135" lon="-0.09977">
        <ele>98.99</ele>
        <time>2023-06-16T23:58:30.921Z</time>
      </trkpt>
      <trkpt lat="46.39127" lon="-0.09976">
        <ele>98.57</ele>
        <time>2023-06-16T23:59:27.032Z</time>
      </trkpt>
      <trkpt lat="46.39117" lon="-0.09976">
        <ele>98.19</ele>
        <time>2023-06-17T00:00:23.145Z</time>
      </trkpt>
      <trkpt lat="46.39117" lon="-0.09976">
        <ele>98.19</ele>
        <time>2023-06-17T00:01:19.258Z</time>
      </trkpt>
      <trkpt lat="46.39113" lon="-0.09977">
        <ele>98.02</ele>
        <time>2023-06-17T00:02:15.371Z</time>
      </trkpt>
      <trkpt lat="46.39109" lon="-0.09978">
        <ele>97.86</ele>
        <time>2023-06-17T00:03:11.485Z</time>
      </trkpt>
      <trkpt lat="46.39094" lon="-0.0999">
        <ele>97.26</ele>
        <time>2023-06-17T00:04:07.602Z</time>
      </trkpt>
      <trkpt lat="46.39094" lon="-0.09991">
        <ele>97.26</ele>
        <time>2023-06-17T00:05:03.719Z</time>
      </trkpt>
      <trkpt lat="46.39088" lon="-0.10001">
        <ele>96.9</ele>
        <time>2023-06-17T00:05:59.837Z</time>
      </trkpt>
      <trkpt lat="46.39083" lon="-0.1001">
        <ele>96.47</ele>
        <time>2023-06-17T00:06:55.957Z</time>
      </trkpt>
      <trkpt lat="46.39071" lon="-0.1003">
        <ele>95.51</ele>
        <time>2023-06-17T00:07:52.079Z</time>
      </trkpt>
      <trkpt lat="46.39066" lon="-0.1004">
        <ele>95.89</ele>
        <time>2023-06-17T00:08:48.203Z</time>
      </trkpt>
      <trkpt lat="46.39056" lon="-0.10054">
        <ele>96.51</ele>
        <time>2023-06-17T00:09:44.329Z</time>
      </trkpt>
      <trkpt lat="46.39054" lon="-0.10057">
        <ele>96.65</ele>
        <time>2023-06-17T00:10:40.455Z</time>
      </trkpt>
      <trkpt lat="46.3903" lon="-0.10077">
        <ele>98.02</ele>
        <time>2023-06-17T00:11:36.586Z</time>
      </trkpt>
      <trkpt lat="46.39031" lon="-0.10078">
        <ele>98.02</ele>
        <time>2023-06-17T00:12:32.717Z</time>
      </trkpt>
      <trkpt lat="46.39046" lon="-0.10091">
        <ele>98.83</ele>
        <time>2023-06-17T00:13:28.851Z</time>
      </trkpt>
      <trkpt lat="46.39077" lon="-0.10118">
        <ele>100.29</ele>
        <time>2023-06-17T00:14:24.991Z</time>
      </trkpt>
      <trkpt lat="46.39107" lon="-0.10145">
        <ele>101.78</ele>
        <time>2023-06-17T00:15:21.136Z</time>
      </trkpt>
      <trkpt lat="46.39127" lon="-0.10162">
        <ele>102.63</ele>
        <time>2023-06-17T00:16:17.285Z</time>
      </trkpt>
      <trkpt lat="46.39154" lon="-0.10186">
        <ele>103.88</ele>
        <time>2023-06-17T00:17:13.439Z</time>
      </trkpt>
      <trkpt lat="46.39184" lon="-0.10213">
        <ele>105.46</ele>
        <time>2023-06-17T00:18:09.599Z</time>
      </trkpt>
      <trkpt lat="46.39198" lon="-0.10225">
        <ele>106.13</ele>
        <time>2023-06-17T00:19:05.761Z</time>
      </trkpt>
      <trkpt lat="46.39208" lon="-0.10233">
        <ele>106.59</ele>
        <time>2023-06-17T00:20:01.925Z</time>
      </trkpt>
      <trkpt lat="46.39223" lon="-0.10245">
        <ele>107.3</ele>
        <time>2023-06-17T00:20:58.092Z</time>
      </trkpt>
      <trkpt lat="46.39226" lon="-0.10247">
        <ele>107.42</ele>
        <time>2023-06-17T00:21:54.259Z</time>
      </trkpt>
      <trkpt lat="46.39236" lon="-0.10253">
        <ele>107.86</ele>
        <time>2023-06-17T00:22:50.428Z</time>
      </trkpt>
      <trkpt lat="46.39261" lon="-0.10268">
        <ele>109.08</ele>
        <time>2023-06-17T00:23:46.601Z</time>
      </trkpt>
      <trkpt lat="46.3929" lon="-0.10286">
        <ele>110.53</ele>
        <time>2023-06-17T00:24:42.780Z</time>
      </trkpt>
      <trkpt lat="46.39302" lon="-0.10293">
        <ele>111.11</ele>
        <time>2023-06-17T00:25:38.961Z</time>
      </trkpt>
      <trkpt lat="46.3931" lon="-0.10298">
        <ele>111.37</ele>
        <time>2023-06-17T00:26:35.143Z</time>
      </trkpt>
      <trkpt lat="46.39314" lon="-0.10301">
        <ele>111.52</ele>
        <time>2023-06-17T00:27:31.326Z</time>
      </trkpt>
      <trkpt lat="46.39331" lon="-0.10311">
        <ele>112.21</ele>
        <time>2023-06-17T00:28:27.512Z</time>
      </trkpt>
      <trkpt lat="46.39343" lon="-0.10318">
        <ele>112.69</ele>
        <time>2023-06-17T00:29:23.700Z</time>
      </trkpt>
      <trkpt lat="46.39348" lon="-0.10319">
        <ele>112.87</ele>
        <time>2023-06-17T00:30:19.889Z</time>
      </trkpt>
      <trkpt lat="46.39352" lon="-0.1032">
        <ele>112.99</ele>
        <time>2023-06-17T00:31:16.078Z</time>
      </trkpt>
      <trkpt lat="46.39356" lon="-0.10332">
        <ele>113.26</ele>
        <time>2023-06-17T00:32:12.269Z</time>
      </trkpt>
      <trkpt lat="46.39359" lon="-0.10344">
        <ele>113.47</ele>
        <time>2023-06-17T00:33:08.461Z</time>
      </trkpt>
      <trkpt lat="46.39361" lon="-0.1035">
        <ele>113.54</ele>
        <time>2023-06-17T00:34:04.654Z</time>
      </trkpt>
      <trkpt lat="46.39364" lon="-0.10362">
        <ele>113.64</ele>
        <time>2023-06-17T00:35:00.848Z</time>
      </trkpt>
      <trkpt lat="46.39368" lon="-0.10374">
        <ele>113.8</ele>
        <time>2023-06-17T00:35:57.044Z</time>
      </trkpt>
      <trkpt lat="46.39375" lon="-0.10398">
        <ele>114.26</ele>
        <time>2023-06-17T00:36:53.243Z</time>
      </trkpt>
      <trkpt lat="46.39377" lon="-0.10404">
        <ele>114.35</ele>
        <time>2023-06-17T00:37:49.442Z</time>
      </trkpt>
      <trkpt lat="46.3938" lon="-0.10416">
        <ele>114.45</ele>
        <time>2023-06-17T00:38:45.643Z</time>
      </trkpt>
      <trkpt lat="46.39382" lon="-0.10422">
        <ele>114.47</ele>
        <time>2023-06-17T00:39:41.845Z</time>
      </trkpt>
      <trkpt lat="46.39385" lon="-0.10434">
        <ele>114.47</ele>
        <time>2023-06-17T00:40:38.048Z</time>
      </trkpt>
      <trkpt lat="46.39391" lon="-0.10452">
        <ele>114.51</ele>
        <time>2023-06-17T00:41:34.253Z</time>
      </trkpt>
      <trkpt lat="46.39396" lon="-0.1047">
        <ele>114.52</ele>
        <time>2023-06-17T00:42:30.460Z</time>
      </trkpt>
      <trkpt lat="46.39399" lon="-0.1048">
        <ele>114.55</ele>
        <time>2023-06-17T00:43:26.668Z</time>
      </trkpt>
      <trkpt lat="46.394" lon="-0.10482">
        <ele>114.56</ele>
        <time>2023-06-17T00:44:22.877Z</time>
      </trkpt>
      <trkpt lat="46.39405" lon="-0.10493">
        <ele>114.64</ele>
        <time>2023-06-17T00:45:19.087Z</time>
      </trkpt>
      <trkpt lat="46.39414" lon="-0.10514">
        <ele>114.87</ele>
        <time>2023-06-17T00:46:15.300Z</time>
      </trkpt>
      <trkpt lat="46.39423" lon="-0.10534">
        <ele>115.04</ele>
        <time>2023-06-17T00:47:11.516Z</time>
      </trkpt>
      <trkpt lat="46.39424" lon="-0.10536">
        <ele>115.07</ele>
        <time>2023-06-17T00:48:07.732Z</time>
      </trkpt>
      <trkpt lat="46.39435" lon="-0.10557">
        <ele>115.33</ele>
        <time>2023-06-17T00:49:03.951Z</time>
      </trkpt>
      <trkpt lat="46.39443" lon="-0.10573">
        <ele>115.49</ele>
        <time>2023-06-17T00:50:00.172Z</time>
      </trkpt>
      <trkpt lat="46.39456" lon="-0.10599">
        <ele>115.72</ele>
        <time>2023-06-17T00:50:56.397Z</time>
      </trkpt>
      <trkpt lat="46.39461" lon="-0.10609">
        <ele>115.78</ele>
        <time>2023-06-17T00:51:52.623Z</time>
      </trkpt>
      <trkpt lat="46.39467" lon="-0.1062">
        <ele>115.76</ele>
        <time>2023-06-17T00:52:48.850Z</time>
      </trkpt>
      <trkpt lat="46.39472" lon="-0.1063">
        <ele>115.68</ele>
        <time>2023-06-17T00:53:45.079Z</time>
      </trkpt>
      <trkpt lat="46.39477" lon="-0.10641">
        <ele>115.55</ele>
        <time>2023-06-17T00:54:41.309Z</time>
      </trkpt>
      <trkpt lat="46.3948" lon="-0.10646">
        <ele>115.44</ele>
        <time>2023-06-17T00:55:37.540Z</time>
      </trkpt>
      <trkpt lat="46.3949" lon="-0.10667">
        <ele>114.95</ele>
        <time>2023-06-17T00:56:33.774Z</time>
      </trkpt>
      <trkpt lat="46.39492" lon="-0.1067">
        <ele>114.86</ele>
        <time>2023-06-17T00:57:30.008Z</time>
      </trkpt>
      <trkpt lat="46.39501" lon="-0.10695">
        <ele>114.22</ele>
        <time>2023-06-17T00:58:26.245Z</time>
      </trkpt>
      <trkpt lat="46.39505" lon="-0.10707">
        <ele>114.09</ele>
        <time>2023-06-17T00:59:22.484Z</time>
      </trkpt>
      <trkpt lat="46.39507" lon="-0.10713">
        <ele>114.01</ele>
        <time>2023-06-17T01:00:18.724Z</time>
      </trkpt>
      <trkpt lat="46.3951" lon="-0.10718">
        <ele>113.91</ele>
        <time>2023-06-17T01:01:14.964Z</time>
      </trkpt>
      <trkpt lat="46.39514" lon="-0.1073">
        <ele>113.62</ele>
        <time>2023-06-17T01:02:11.206Z</time>
      </trkpt>
      <trkpt lat="46.39518" lon="-0.10741">
        <ele>113.25</ele>
        <time>2023-06-17T01:03:07.449Z</time>
      </trkpt>
      <trkpt lat="46.3952" lon="-0.10747">
        <ele>113.04</ele>
        <time>2023-06-17T01:04:03.693Z</time>
      </trkpt>
      <trkpt lat="46.39522" lon="-0.10753">
        <ele>112.79</ele>
        <time>2023-06-17T01:04:59.938Z</time>
      </trkpt>
      <trkpt lat="46.39524" lon="-0.10759">
        <ele>112.51</ele>
        <time>2023-06-17T01:05:56.183Z</time>
      </trkpt>
      <trkpt lat="46.39526" lon="-0.10764">
        <ele>112.2</ele>
        <time>2023-06-17T01:06:52.429Z</time>
      </trkpt>
      <trkpt lat="46.39526" lon="-0.10764">
        <ele>112.2</ele>
        <time>2023-06-17T01:07:48.675Z</time>
      </trkpt>
      <trkpt lat="46.3953" lon="-0.10776">
        <ele>111.51</ele>
        <time>2023-06-17T01:08:44.923Z</time>
      </trkpt>
      <trkpt lat="46.39536" lon="-0.10794">
        <ele>110.42</ele>
        <time>2023-06-17T01:09:41.173Z</time>
      </trkpt>
      <trkpt lat="46.39538" lon="-0.108">
        <ele>110.09</ele>
        <time>2023-06-17T01:10:37.423Z</time>
      </trkpt>
      <trkpt lat="46.39539" lon="-0.10805">
        <ele>109.8</ele>
        <time>2023-06-17T01:11:33.674Z</time>
      </trkpt>
      <trkpt lat="46.39541" lon="-0.10811">
        <ele>109.58</ele>
        <time>2023-06-17T01:12:29.926Z</time>
      </trkpt>
      <trkpt lat="46.39543" lon="-0.10817">
        <ele>109.41</ele>
        <time>2023-06-17T01:13:26.179Z</time>
      </trkpt>
      <trkpt lat="46.39545" lon="-0.10823">
        <ele>109.29</ele>
        <time>2023-06-17T01:14:22.432Z</time>
      </trkpt>
      <trkpt lat="46.39547" lon="-0.10829">
        <ele>109.21</ele>
        <time>2023-06-17T01:15:18.686Z</time>
      </trkpt>
      <trkpt lat="46.39551" lon="-0.10841">
        <ele>109.15</ele>
        <time>2023-06-17T01:16:14.941Z</time>
      </trkpt>
      <trkpt lat="46.39551" lon="-0.10841">
        <ele>109.15</ele>
        <time>2023-06-17T01:17:11.196Z</time>
      </trkpt>
      <trkpt lat="46.39554" lon="-0.10845">
        <ele>109.17</ele>
        <time>2023-06-17T01:18:07.452Z</time>
      </trkpt>
      <trkpt lat="46.39557" lon="-0.1085">
        <ele>109.22</ele>
        <time>2023-06-17T01:19:03.709Z</time>
      </trkpt>
      <trkpt lat="46.3956" lon="-0.10855">
        <ele>109.3</ele>
        <time>2023-06-17T01:19:59.967Z</time>
      </trkpt>
      <trkpt lat="46.39561" lon="-0.10856">
        <ele>109.33</ele>
        <time>2023-06-17T01:20:56.225Z</time>
      </trkpt>
      <trkpt lat="46.39564" lon="-0.10859">
        <ele>109.41</ele>
        <time>2023-06-17T01:21:52.483Z</time>
      </trkpt>
      <trkpt lat="46.39571" lon="-0.10866">
        <ele>109.69</ele>
        <time>2023-06-17T01:22:48.743Z</time>
      </trkpt>
      <trkpt lat="46.39574" lon="-0.1087">
        <ele>109.86</ele>
        <time>2023-06-17T01:23:45.003Z</time>
      </trkpt>
      <trkpt lat="46.39577" lon="-0.10873">
        <ele>110.01</ele>
        <time>2023-06-17T01:24:41.264Z</time>
      </trkpt>
      <trkpt lat="46.39578" lon="-0.10874">
        <ele>110.07</ele>
        <time>2023-06-17T01:25:37.525Z</time>
      </trkpt>
      <trkpt lat="46.39581" lon="-0.10879">
        <ele>110.31</ele>
        <time>2023-06-17T01:26:33.787Z</time>
      </trkpt>
      <trkpt lat="46.39584" lon="-0.10883">
        <ele>110.61</ele>
        <time>2023-06-17T01:27:30.050Z</time>
      </trkpt>
      <trkpt lat="46.39586" lon="-0.10885">
        <ele>110.78</ele>
        <time>2023-06-17T01:28:26.313Z</time>
      </trkpt>
      <trkpt lat="46.39587" lon="-0.10888">
        <ele>110.97</ele>
        <time>2023-06-17T01:29:22.576Z</time>
      </trkpt>
      <trkpt lat="46.39589" lon="-0.10894">
        <ele>111.39</ele>
        <time>2023-06-17T01:30:18.840Z</time>
      </trkpt>
      <trkpt lat="46.39591" lon="-0.109">
        <ele>111.86</ele>
        <time>2023-06-17T01:31:15.105Z</time>
      </trkpt>
      <trkpt lat="46.39597" lon="-0.10917">
        <ele>113.36</ele>
        <time>2023-06-17T01:32:11.372Z</time>
      </trkpt>
      <trkpt lat="46.39599" lon="-0.10923">
        <ele>113.84</ele>
        <time>2023-06-17T01:33:07.640Z</time>
      </trkpt>
      <trkpt lat="46.39603" lon="-0.10934">
        <ele>114.73</ele>
        <time>2023-06-17T01:34:03.909Z</time>
      </trkpt>
      <trkpt lat="46.3961" lon="-0.10955">
        <ele>116.2</ele>
        <time>2023-06-17T01:35:00.181Z</time>
      </trkpt>
      <trkpt lat="46.3961" lon="-0.10958">
        <ele>116.39</ele>
        <time>2023-06-17T01:35:56.453Z</time>
      </trkpt>
      <trkpt lat="46.39613" lon="-0.10973">
        <ele>117.31</ele>
        <time>2023-06-17T01:36:52.727Z</time>
      </trkpt>
      <trkpt lat="46.39613" lon="-0.10985">
        <ele>118.03</ele>
        <time>2023-06-17T01:37:49.002Z</time>
      </trkpt>
      <trkpt lat="46.39612" lon="-0.1099">
        <ele>118.32</ele>
        <time>2023-06-17T01:38:45.277Z</time>
      </trkpt>
      <trkpt lat="46.39611" lon="-0.10996">
        <ele>118.15</ele>
        <time>2023-06-17T01:39:41.553Z</time>
      </trkpt>
      <trkpt lat="46.3961" lon="-0.11002">
        <ele>118.02</ele>
        <time>2023-06-17T01:40:37.830Z</time>
      </trkpt>
      <trkpt lat="46.39607" lon="-0.11014">
        <ele>117.85</ele>
        <time>2023-06-17T01:41:34.108Z</time>
      </trkpt>
      <trkpt lat="46.39606" lon="-0.1102">
        <ele>117.74</ele>
        <time>2023-06-17T01:42:30.387Z</time>
      </trkpt>
      <trkpt lat="46.39606" lon="-0.11021">
        <ele>117.74</ele>
        <time>2023-06-17T01:43:26.666Z</time>
      </trkpt>
      <trkpt lat="46.39605" lon="-0.11027">
        <ele>117.6</ele>
        <time>2023-06-17T01:44:22.946Z</time>
      </trkpt>
      <trkpt lat="46.39604" lon="-0.1104">
        <ele>117.21</ele>
        <time>2023-06-17T01:45:19.227Z</time>
      </trkpt>
      <trkpt lat="46.39602" lon="-0.11059">
        <ele>116.48</ele>
        <time>2023-06-17T01:46:15.510Z</time>
      </trkpt>
      <trkpt lat="46.39601" lon="-0.11065">
        <ele>116.23</ele>
        <time>2023-06-17T01:47:11.794Z</time>
      </trkpt>
      <trkpt lat="46.39579" lon="-0.1107">
        <ele>114.87</ele>
        <time>2023-06-17T01:48:08.082Z</time>
      </trkpt>
      <trkpt lat="46.39577" lon="-0.1107">
        <ele>114.77</ele>
        <time>2023-06-17T01:49:04.370Z</time>
      </trkpt>
      <trkpt lat="46.3957" lon="-0.1107">
        <ele>114.31</ele>
        <time>2023-06-17T01:50:00.659Z</time>
      </trkpt>
      <trkpt lat="46.39556" lon="-0.1107">
        <ele>113.42</ele>
        <time>2023-06-17T01:50:56.950Z</time>
      </trkpt>
      <trkpt lat="46.39547" lon="-0.1107">
        <ele>112.88</ele>
        <time>2023-06-17T01:51:53.243Z</time>
      </trkpt>
      <trkpt lat="46.39538" lon="-0.1107">
        <ele>112.41</ele>
        <time>2023-06-17T01:52:49.537Z</time>
      </trkpt>
      <trkpt lat="46.39535" lon="-0.1107">
        <ele>112.27</ele>
        <time>2023-06-17T01:53:45.832Z</time>
      </trkpt>
      <trkpt lat="46.39534" lon="-0.1107">
        <ele>112.22</ele>
        <time>2023-06-17T01:54:42.127Z</time>
      </trkpt>
      <trkpt lat="46.39529" lon="-0.11071">
        <ele>112.06</ele>
        <time>2023-06-17T01:55:38.423Z</time>
      </trkpt>
      <trkpt lat="46.39525" lon="-0.11072">
        <ele>111.95</ele>
        <time>2023-06-17T01:56:34.719Z</time>
      </trkpt>
      <trkpt lat="46.3952" lon="-0.11073">
        <ele>111.88</ele>
        <time>2023-06-17T01:57:31.016Z</time>
      </trkpt>
      <trkpt lat="46.39514" lon="-0.11074">
        <ele>111.82</ele>
        <time>2023-06-17T01:58:27.314Z</time>
      </trkpt>
      <trkpt lat="46.39503" lon="-0.11078">
        <ele>111.74</ele>
        <time>2023-06-17T01:59:23.614Z</time>
      </trkpt>
      <trkpt lat="46.39494" lon="-0.11081">
        <ele>111.65</ele>
        <time>2023-06-17T02:00:19.915Z</time>
      </trkpt>
      <trkpt lat="46.39486" lon="-0.11085">
        <ele>111.46</ele>
        <time>2023-06-17T02:01:16.218Z</time>
      </trkpt>
      <trkpt lat="46.39473" lon="-0.1109">
        <ele>111.08</ele>
        <time>2023-06-17T02:02:12.523Z</time>
      </trkpt>
      <trkpt lat="46.39468" lon="-0.11091">
        <ele>110.97</ele>
        <time>2023-06-17T02:03:08.829Z</time>
      </trkpt>
      <trkpt lat="46.39451" lon="-0.11098">
        <ele>110.71</ele>
        <time>2023-06-17T02:04:05.137Z</time>
      </trkpt>
      <trkpt lat="46.39434" lon="-0.11105">
        <ele>110.56</ele>
        <time>2023-06-17T02:05:01.448Z</time>
      </trkpt>
      <trkpt lat="46.3943" lon="-0.11106">
        <ele>110.49</ele>
        <time>2023-06-17T02:05:57.760Z</time>
      </trkpt>
      <trkpt lat="46.39429" lon="-0.11106">
        <ele>110.49</ele>
        <time>2023-06-17T02:06:54.072Z</time>
      </trkpt>
      <trkpt lat="46.39417" lon="-0.11114">
        <ele>110.24</ele>
        <time>2023-06-17T02:07:50.386Z</time>
      </trkpt>
      <trkpt lat="46.39413" lon="-0.11117">
        <ele>110.18</ele>
        <time>2023-06-17T02:08:46.701Z</time>
      </trkpt>
      <trkpt lat="46.39409" lon="-0.1112">
        <ele>110.16</ele>
        <time>2023-06-17T02:09:43.017Z</time>
      </trkpt>
      <trkpt lat="46.39409" lon="-0.1112">
        <ele>110.16</ele>
        <time>2023-06-17T02:10:39.333Z</time>
      </trkpt>
      <trkpt lat="46.39406" lon="-0.11124">
        <ele>110.19</ele>
        <time>2023-06-17T02:11:35.649Z</time>
      </trkpt>
      <trkpt lat="46.39396" lon="-0.11137">
        <ele>110.4</ele>
        <time>2023-06-17T02:12:31.967Z</time>
      </trkpt>
      <trkpt lat="46.39385" lon="-0.1115">
        <ele>110.53</ele>
        <time>2023-06-17T02:13:28.288Z</time>
      </trkpt>
      <trkpt lat="46.39382" lon="-0.11154">
        <ele>110.6</ele>
        <time>2023-06-17T02:14:24.609Z</time>
      </trkpt>
      <trkpt lat="46.39378" lon="-0.11159">
        <ele>110.73</ele>
        <time>2023-06-17T02:15:20.931Z</time>
      </trkpt>
      <trkpt lat="46.39378" lon="-0.11159">
        <ele>110.73</ele>
        <time>2023-06-17T02:16:17.253Z</time>
      </trkpt>
      <trkpt lat="46.39371" lon="-0.11164">
        <ele>111.09</ele>
        <time>2023-06-17T02:17:13.576Z</time>
      </trkpt>
      <trkpt lat="46.39365" lon="-0.11167">
        <ele>111.36</ele>
        <time>2023-06-17T02:18:09.900Z</time>
      </trkpt>
      <trkpt lat="46.39362" lon="-0.11168">
        <ele>111.49</ele>
        <time>2023-06-17T02:19:06.225Z</time>
      </trkpt>
      <trkpt lat="46.39358" lon="-0.11169">
        <ele>111.72</ele>
        <time>2023-06-17T02:20:02.551Z</time>
      </trkpt>
      <trkpt lat="46.39349" lon="-0.11172">
        <ele>112.26</ele>
        <time>2023-06-17T02:20:58.878Z</time>
      </trkpt>
      <trkpt lat="46.39345" lon="-0.11173">
        <ele>112.51</ele>
        <time>2023-06-17T02:21:55.206Z</time>
      </trkpt>
      <trkpt lat="46.3934" lon="-0.11174">
        <ele>112.72</ele>
        <time>2023-06-17T02:22:51.534Z</time>
      </trkpt>
      <trkpt lat="46.39332" lon="-0.11177">
        <ele>113.09</ele>
        <time>2023-06-17T02:23:47.864Z</time>
      </trkpt>
      <trkpt lat="46.39323" lon="-0.1118">
        <ele>113.51</ele>
        <time>2023-06-17T02:24:44.195Z</time>
      </trkpt>
      <trkpt lat="46.39314" lon="-0.11182">
        <ele>114.02</ele>
        <time>2023-06-17T02:25:40.528Z</time>
      </trkpt>
      <trkpt lat="46.39305" lon="-0.11185">
        <ele>114.58</ele>
        <time>2023-06-17T02:26:36.862Z</time>
      </trkpt>
      <trkpt lat="46.39292" lon="-0.11189">
        <ele>115.54</ele>
        <time>2023-06-17T02:27:33.198Z</time>
      </trkpt>
      <trkpt lat="46.39292" lon="-0.11189">
        <ele>115.54</ele>
        <time>2023-06-17T02:28:29.534Z</time>
      </trkpt>
      <trkpt lat="46.3928" lon="-0.11196">
        <ele>116.57</ele>
        <time>2023-06-17T02:29:25.873Z</time>
      </trkpt>
      <trkpt lat="46.39275" lon="-0.11198">
        <ele>116.89</ele>
        <time>2023-06-17T02:30:22.212Z</time>
      </trkpt>
      <trkpt lat="46.39272" lon="-0.112">
        <ele>117.18</ele>
        <time>2023-06-17T02:31:18.552Z</time>
      </trkpt>
      <trkpt lat="46.39271" lon="-0.11201">
        <ele>117.18</ele>
        <time>2023-06-17T02:32:14.892Z</time>
      </trkpt>
      <trkpt lat="46.39267" lon="-0.11204">
        <ele>117.43</ele>
        <time>2023-06-17T02:33:11.233Z</time>
      </trkpt>
      <trkpt lat="46.39264" lon="-0.11208">
        <ele>117.64</ele>
        <time>2023-06-17T02:34:07.574Z</time>
      </trkpt>
      <trkpt lat="46.39252" lon="-0.11218">
        <ele>118.19</ele>
        <time>2023-06-17T02:35:03.918Z</time>
      </trkpt>
      <trkpt lat="46.39249" lon="-0.11222">
        <ele>118.41</ele>
        <time>2023-06-17T02:36:00.262Z</time>
      </trkpt>
      <trkpt lat="46.39245" lon="-0.11225">
        <ele>118.67</ele>
        <time>2023-06-17T02:36:56.607Z</time>
      </trkpt>
      <trkpt lat="46.39241" lon="-0.11228">
        <ele>118.98</ele>
        <time>2023-06-17T02:37:52.953Z</time>
      </trkpt>
      <trkpt lat="46.39234" lon="-0.11235">
        <ele>119.68</ele>
        <time>2023-06-17T02:38:49.300Z</time>
      </trkpt>
      <trkpt lat="46.3923" lon="-0.1124">
        <ele>120.11</ele>
        <time>2023-06-17T02:39:45.648Z</time>
      </trkpt>
      <trkpt lat="46.39227" lon="-0.11244">
        <ele>120.45</ele>
        <time>2023-06-17T02:40:41.997Z</time>
      </trkpt>
      <trkpt lat="46.3922" lon="-0.11253">
        <ele>121.04</ele>
        <time>2023-06-17T02:41:38.347Z</time>
      </trkpt>
      <trkpt lat="46.39211" lon="-0.11267">
        <ele>121.59</ele>
        <time>2023-06-17T02:42:34.699Z</time>
      </trkpt>
      <trkpt lat="46.39208" lon="-0.11271">
        <ele>121.75</ele>
        <time>2023-06-17T02:43:31.052Z</time>
      </trkpt>
      <trkpt lat="46.39201" lon="-0.1128">
        <ele>122.01</ele>
        <time>2023-06-17T02:44:27.406Z</time>
      </trkpt>
      <trkpt lat="46.39195" lon="-0.11289">
        <ele>122.23</ele>
        <time>2023-06-17T02:45:23.762Z</time>
      </trkpt>
      <trkpt lat="46.39181" lon="-0.11307">
        <ele>122.72</ele>
        <time>2023-06-17T02:46:20.121Z</time>
      </trkpt>
      <trkpt lat="46.39178" lon="-0.1131">
        <ele>122.83</ele>
        <time>2023-06-17T02:47:16.480Z</time>
      </trkpt>
      <trkpt lat="46.39156" lon="-0.11333">
        <ele>123.42</ele>
        <time>2023-06-17T02:48:12.844Z</time>
      </trkpt>
      <trkpt lat="46.39149" lon="-0.1134">
        <ele>123.59</ele>
        <time>2023-06-17T02:49:09.209Z</time>
      </trkpt>
      <trkpt lat="46.39142" lon="-0.11348">
        <ele>123.72</ele>
        <time>2023-06-17T02:50:05.575Z</time>
      </trkpt>
      <trkpt lat="46.39134" lon="-0.11355">
        <ele>123.82</ele>
        <time>2023-06-17T02:51:01.943Z</time>
      </trkpt>
      <trkpt lat="46.39122" lon="-0.11368">
        <ele>123.93</ele>
        <time>2023-06-17T02:51:58.313Z</time>
      </trkpt>
      <trkpt lat="46.39104" lon="-0.11384">
        <ele>124.09</ele>
        <time>2023-06-17T02:52:54.687Z</time>
      </trkpt>
      <trkpt lat="46.39097" lon="-0.1139">
        <ele>124.14</ele>
        <time>2023-06-17T02:53:51.062Z</time>
      </trkpt>
      <trkpt lat="46.39089" lon="-0.11397">
        <ele>124.16</ele>
        <time>2023-06-17T02:54:47.438Z</time>
      </trkpt>
      <trkpt lat="46.39074" lon="-0.11411">
        <ele>124.13</ele>
        <time>2023-06-17T02:55:43.817Z</time>
      </trkpt>
      <trkpt lat="46.39067" lon="-0.11417">
        <ele>124.1</ele>
        <time>2023-06-17T02:56:40.198Z</time>
      </trkpt>
      <trkpt lat="46.39067" lon="-0.11417">
        <ele>124.1</ele>
        <time>2023-06-17T02:57:36.579Z</time>
      </trkpt>
      <trkpt lat="46.39059" lon="-0.11425">
        <ele>124.02</ele>
        <time>2023-06-17T02:58:32.961Z</time>
      </trkpt>
      <trkpt lat="46.3903" lon="-0.11454">
        <ele>123.46</ele>
        <time>2023-06-17T02:59:29.349Z</time>
      </trkpt>
      <trkpt lat="46.39022" lon="-0.11461">
        <ele>123.34</ele>
        <time>2023-06-17T03:00:25.738Z</time>
      </trkpt>
      <trkpt lat="46.39022" lon="-0.11461">
        <ele>123.34</ele>
        <time>2023-06-17T03:01:22.127Z</time>
      </trkpt>
      <trkpt lat="46.39004" lon="-0.11479">
        <ele>123.11</ele>
        <time>2023-06-17T03:02:18.520Z</time>
      </trkpt>
      <trkpt lat="46.38985" lon="-0.11497">
        <ele>122.81</ele>
        <time>2023-06-17T03:03:14.916Z</time>
      </trkpt>
      <trkpt lat="46.38966" lon="-0.11515">
        <ele>122.63</ele>
        <time>2023-06-17T03:04:11.316Z</time>
      </trkpt>
      <trkpt lat="46.38959" lon="-0.11522">
        <ele>122.52</ele>
        <time>2023-06-17T03:05:07.717Z</time>
      </trkpt>
      <trkpt lat="46.38952" lon="-0.11529">
        <ele>122.36</ele>
        <time>2023-06-17T03:06:04.120Z</time>
      </trkpt>
      <trkpt lat="46.38944" lon="-0.11536">
        <ele>122.17</ele>
        <time>2023-06-17T03:07:00.524Z</time>
      </trkpt>
      <trkpt lat="46.38941" lon="-0.11539">
        <ele>122.06</ele>
        <time>2023-06-17T03:07:56.929Z</time>
      </trkpt>
      <trkpt lat="46.38929" lon="-0.11549">
        <ele>121.7</ele>
        <time>2023-06-17T03:08:53.336Z</time>
      </trkpt>
      <trkpt lat="46.38921" lon="-0.11556">
        <ele>121.48</ele>
        <time>2023-06-17T03:09:49.745Z</time>
      </trkpt>
      <trkpt lat="46.38906" lon="-0.11568">
        <ele>121.12</ele>
        <time>2023-06-17T03:10:46.156Z</time>
      </trkpt>
      <trkpt lat="46.3889" lon="-0.11581">
        <ele>120.69</ele>
        <time>2023-06-17T03:11:42.570Z</time>
      </trkpt>
      <trkpt lat="46.38878" lon="-0.11591">
        <ele>120.4</ele>
        <time>2023-06-17T03:12:38.986Z</time>
      </trkpt>
      <trkpt lat="46.38863" lon="-0.11604">
        <ele>120.06</ele>
        <time>2023-06-17T03:13:35.405Z</time>
      </trkpt>
      <trkpt lat="46.38859" lon="-0.11607">
        <ele>119.98</ele>
        <time>2023-06-17T03:14:31.825Z</time>
      </trkpt>
      <trkpt lat="46.38855" lon="-0.11611">
        <ele>119.91</ele>
        <time>2023-06-17T03:15:28.246Z</time>
      </trkpt>
      <trkpt lat="46.38834" lon="-0.11632">
        <ele>119.56</ele>
        <time>2023-06-17T03:16:24.671Z</time>
      </trkpt>
      <trkpt lat="46.38819" lon="-0.11649">
        <ele>119.32</ele>
        <time>2023-06-17T03:17:21.099Z</time>
      </trkpt>
      <trkpt lat="46.38812" lon="-0.11657">
        <ele>119.15</ele>
        <time>2023-06-17T03:18:17.528Z</time>
      </trkpt>
      <trkpt lat="46.38795" lon="-0.11677">
        <ele>118.56</ele>
        <time>2023-06-17T03:19:13.961Z</time>
      </trkpt>
      <trkpt lat="46.38793" lon="-0.11679">
        <ele>118.5</ele>
        <time>2023-06-17T03:20:10.394Z</time>
      </trkpt>
      <trkpt lat="46.38787" lon="-0.11681">
        <ele>118.37</ele>
        <time>2023-06-17T03:21:06.828Z</time>
      </trkpt>
      <trkpt lat="46.38785" lon="-0.11693">
        <ele>118.19</ele>
        <time>2023-06-17T03:22:03.264Z</time>
      </trkpt>
      <trkpt lat="46.38781" lon="-0.11703">
        <ele>118.02</ele>
        <time>2023-06-17T03:22:59.701Z</time>
      </trkpt>
      <trkpt lat="46.38777" lon="-0.1171">
        <ele>117.9</ele>
        <time>2023-06-17T03:23:56.139Z</time>
      </trkpt>
      <trkpt lat="46.38767" lon="-0.11731">
        <ele>117.48</ele>
        <time>2023-06-17T03:24:52.580Z</time>
      </trkpt>
      <trkpt lat="46.38758" lon="-0.11746">
        <ele>117.2</ele>
        <time>2023-06-17T03:25:49.023Z</time>
      </trkpt>
      <trkpt lat="46.38748" lon="-0.11767">
        <ele>116.72</ele>
        <time>2023-06-17T03:26:45.469Z</time>
      </trkpt>
      <trkpt lat="46.3874" lon="-0.11782">
        <ele>116.41</ele>
        <time>2023-06-17T03:27:41.917Z</time>
      </trkpt>
      <trkpt lat="46.38734" lon="-0.11793">
        <ele>116.23</ele>
        <time>2023-06-17T03:28:38.366Z</time>
      </trkpt>
      <trkpt lat="46.38732" lon="-0.11797">
        <ele>116.16</ele>
        <time>2023-06-17T03:29:34.816Z</time>
      </trkpt>
      <trkpt lat="46.38724" lon="-0.11814">
        <ele>115.92</ele>
        <time>2023-06-17T03:30:31.268Z</time>
      </trkpt>
      <trkpt lat="46.38711" lon="-0.1184">
        <ele>115.5</ele>
        <time>2023-06-17T03:31:27.724Z</time>
      </trkpt>
      <trkpt lat="46.38704" lon="-0.11856">
        <ele>115.32</ele>
        <time>2023-06-17T03:32:24.182Z</time>
      </trkpt>
      <trkpt lat="46.38683" lon="-0.11899">
        <ele>114.98</ele>
        <time>2023-06-17T03:33:20.646Z</time>
      </trkpt>
      <trkpt lat="46.38676" lon="-0.11915">
        <ele>114.91</ele>
        <time>2023-06-17T03:34:17.112Z</time>
      </trkpt>
      <trkpt lat="46.38671" lon="-0.11925">
        <ele>114.9</ele>
        <time>2023-06-17T03:35:13.579Z</time>
      </trkpt>
      <trkpt lat="46.38665" lon="-0.11937">
        <ele>114.93</ele>
        <time>2023-06-17T03:36:10.048Z</time>
      </trkpt>
      <trkpt lat="46.38665" lon="-0.11937">
        <ele>114.93</ele>
        <time>2023-06-17T03:37:06.517Z</time>
      </trkpt>
      <trkpt lat="46.38654" lon="-0.11956">
        <ele>115.04</ele>
        <time>2023-06-17T03:38:02.989Z</time>
      </trkpt>
      <trkpt lat="46.38649" lon="-0.11966">
        <ele>115.15</ele>
        <time>2023-06-17T03:38:59.462Z</time>
      </trkpt>
      <trkpt lat="46.38645" lon="-0.11973">
        <ele>115.26</ele>
        <time>2023-06-17T03:39:55.936Z</time>
      </trkpt>
      <trkpt lat="46.38639" lon="-0.1198">
        <ele>115.4</ele>
        <time>2023-06-17T03:40:52.411Z</time>
      </trkpt>
      <trkpt lat="46.38632" lon="-0.11988">
        <ele>115.54</ele>
        <time>2023-06-17T03:41:48.888Z</time>
      </trkpt>
      <trkpt lat="46.38628" lon="-0.11993">
        <ele>115.59</ele>
        <time>2023-06-17T03:42:45.365Z</time>
      </trkpt>
      <trkpt lat="46.38625" lon="-0.11996">
        <ele>115.63</ele>
        <time>2023-06-17T03:43:41.843Z</time>
      </trkpt>
      <trkpt lat="46.38617" lon="-0.12002">
        <ele>115.62</ele>
        <time>2023-06-17T03:44:38.322Z</time>
      </trkpt>
      <trkpt lat="46.38614" lon="-0.12006">
        <ele>115.58</ele>
        <time>2023-06-17T03:45:34.802Z</time>
      </trkpt>
      <trkpt lat="46.38606" lon="-0.12012">
        <ele>115.45</ele>
        <time>2023-06-17T03:46:31.284Z</time>
      </trkpt>
      <trkpt lat="46.38599" lon="-0.12019">
        <ele>116.01</ele>
        <time>2023-06-17T03:47:27.767Z</time>
      </trkpt>
      <trkpt lat="46.38591" lon="-0.12026">
        <ele>116.52</ele>
        <time>2023-06-17T03:48:24.251Z</time>
      </trkpt>
      <trkpt lat="46.38583" lon="-0.12033">
        <ele>116.94</ele>
        <time>2023-06-17T03:49:20.737Z</time>
      </trkpt>
      <trkpt lat="46.38575" lon="-0.1204">
        <ele>117.37</ele>
        <time>2023-06-17T03:50:17.224Z</time>
      </trkpt>
      <trkpt lat="46.38572" lon="-0.12043">
        <ele>117.53</ele>
        <time>2023-06-17T03:51:13.712Z</time>
      </trkpt>
      <trkpt lat="46.38562" lon="-0.12055">
        <ele>118.07</ele>
        <time>2023-06-17T03:52:10.202Z</time>
      </trkpt>
      <trkpt lat="46.38562" lon="-0.12055">
        <ele>118.07</ele>
        <time>2023-06-17T03:53:06.692Z</time>
      </trkpt>
      <trkpt lat="46.38574" lon="-0.12061">
        <ele>118.51</ele>
        <time>2023-06-17T03:54:03.184Z</time>
      </trkpt>
      <trkpt lat="46.38579" lon="-0.12065">
        <ele>118.71</ele>
        <time>2023-06-17T03:54:59.677Z</time>
      </trkpt>
      <trkpt lat="46.38586" lon="-0.12072">
        <ele>119.05</ele>
        <time>2023-06-17T03:55:56.171Z</time>
      </trkpt>
      <trkpt lat="46.3859" lon="-0.12076">
        <ele>119.25</ele>
        <time>2023-06-17T03:56:52.666Z</time>
      </trkpt>
      <trkpt lat="46.38593" lon="-0.1208">
        <ele>119.43</ele>
        <time>2023-06-17T03:57:49.162Z</time>
      </trkpt>
      <trkpt lat="46.38608" lon="-0.12104">
        <ele>120.43</ele>
        <time>2023-06-17T03:58:45.661Z</time>
      </trkpt>
      <trkpt lat="46.38613" lon="-0.12112">
        <ele>120.75</ele>
        <time>2023-06-17T03:59:42.162Z</time>
      </trkpt>
      <trkpt lat="46.38623" lon="-0.12136">
        <ele>121.59</ele>
        <time>2023-06-17T04:00:38.666Z</time>
      </trkpt>
      <trkpt lat="46.3863" lon="-0.12152">
        <ele>122.14</ele>
        <time>2023-06-17T04:01:35.172Z</time>
      </trkpt>
      <trkpt lat="46.38631" lon="-0.12155">
        <ele>122.22</ele>
        <time>2023-06-17T04:02:31.678Z</time>
      </trkpt>
      <trkpt lat="46.38638" lon="-0.12175">
        <ele>122.84</ele>
        <time>2023-06-17T04:03:28.187Z</time>
      </trkpt>
      <trkpt lat="46.38649" lon="-0.1221">
        <ele>123.77</ele>
        <time>2023-06-17T04:04:24.700Z</time>
      </trkpt>
      <trkpt lat="46.38655" lon="-0.12227">
        <ele>123.94</ele>
        <time>2023-06-17T04:05:21.215Z</time>
      </trkpt>
      <trkpt lat="46.38655" lon="-0.12228">
        <ele>123.94</ele>
        <time>2023-06-17T04:06:17.730Z</time>
      </trkpt>
      <trkpt lat="46.38667" lon="-0.12255">
        <ele>124.33</ele>
        <time>2023-06-17T04:07:14.249Z</time>
      </trkpt>
      <trkpt lat="46.38669" lon="-0.12261">
        <ele>124.42</ele>
        <time>2023-06-17T04:08:10.768Z</time>
      </trkpt>
      <trkpt lat="46.38676" lon="-0.12278">
        <ele>124.78</ele>
        <time>2023-06-17T04:09:07.290Z</time>
      </trkpt>
      <trkpt lat="46.38685" lon="-0.123">
        <ele>125.18</ele>
        <time>2023-06-17T04:10:03.814Z</time>
      </trkpt>
      <trkpt lat="46.3869" lon="-0.12311">
        <ele>125.35</ele>
        <time>2023-06-17T04:11:00.340Z</time>
      </trkpt>
      <trkpt lat="46.38692" lon="-0.12316">
        <ele>125.41</ele>
        <time>2023-06-17T04:11:56.867Z</time>
      </trkpt>
      <trkpt lat="46.38695" lon="-0.12323">
        <ele>125.45</ele>
        <time>2023-06-17T04:12:53.394Z</time>
      </trkpt>
      <trkpt lat="46.38695" lon="-0.12323">
        <ele>125.45</ele>
        <time>2023-06-17T04:13:49.921Z</time>
      </trkpt>
      <trkpt lat="46.387" lon="-0.12332">
        <ele>125.47</ele>
        <time>2023-06-17T04:14:46.450Z</time>
      </trkpt>
      <trkpt lat="46.38703" lon="-0.12337">
        <ele>125.5</ele>
        <time>2023-06-17T04:15:42.979Z</time>
      </trkpt>
      <trkpt lat="46.38706" lon="-0.12343">
        <ele>125.56</ele>
        <time>2023-06-17T04:16:39.509Z</time>
      </trkpt>
      <trkpt lat="46.38708" lon="-0.12348">
        <ele>125.66</ele>
        <time>2023-06-17T04:17:36.040Z</time>
      </trkpt>
      <trkpt lat="46.38714" lon="-0.12358">
        <ele>125.89</ele>
        <time>2023-06-17T04:18:32.572Z</time>
      </trkpt>
      <trkpt lat="46.38714" lon="-0.12358">
        <ele>126.73</ele>
        <time>2023-06-17T04:19:29.104Z</time>
      </trkpt>
      <trkpt lat="46.38722" lon="-0.12373">
        <ele>126.58</ele>
        <time>2023-06-17T04:20:25.638Z</time>
      </trkpt>
      <trkpt lat="46.3873" lon="-0.12387">
        <ele>126.41</ele>
        <time>2023-06-17T04:21:22.174Z</time>
      </trkpt>
      <trkpt lat="46.38738" lon="-0.12403">
        <ele>126.12</ele>
        <time>2023-06-17T04:22:18.713Z</time>
      </trkpt>
      <trkpt lat="46.38746" lon="-0.12418">
        <ele>125.91</ele>
        <time>2023-06-17T04:23:15.254Z</time>
      </trkpt>
      <trkpt lat="46.38741" lon="-0.12424">
        <ele>125.81</ele>
        <time>2023-06-17T04:24:11.796Z</time>
      </trkpt>
      <trkpt lat="46.38733" lon="-0.12435">
        <ele>125.7</ele>
        <time>2023-06-17T04:25:08.340Z</time>
      </trkpt>
      <trkpt lat="46.38725" lon="-0.12445">
        <ele>125.57</ele>
        <time>2023-06-17T04:26:04.885Z</time>
      </trkpt>
      <trkpt lat="46.38708" lon="-0.12466">
        <ele>125.44</ele>
        <time>2023-06-17T04:27:01.434Z</time>
      </trkpt>
      <trkpt lat="46.38692" lon="-0.12488">
        <ele>125.43</ele>
        <time>2023-06-17T04:27:57.986Z</time>
      </trkpt>
      <trkpt lat="46.38684" lon="-0.12498">
        <ele>125.37</ele>
        <time>2023-06-17T04:28:54.540Z</time>
      </trkpt>
      <trkpt lat="46.38676" lon="-0.12509">
        <ele>125.36</ele>
        <time>2023-06-17T04:29:51.096Z</time>
      </trkpt>
      <trkpt lat="46.38659" lon="-0.1253">
        <ele>125.46</ele>
        <time>2023-06-17T04:30:47.655Z</time>
      </trkpt>
      <trkpt lat="46.38653" lon="-0.12538">
        <ele>125.52</ele>
        <time>2023-06-17T04:31:44.216Z</time>
      </trkpt>
      <trkpt lat="46.38651" lon="-0.12541">
        <ele>125.55</ele>
        <time>2023-06-17T04:32:40.777Z</time>
      </trkpt>
      <trkpt lat="46.38642" lon="-0.12552">
        <ele>125.57</ele>
        <time>2023-06-17T04:33:37.340Z</time>
      </trkpt>
      <trkpt lat="46.38633" lon="-0.12565">
        <ele>125.39</ele>
        <time>2023-06-17T04:34:33.905Z</time>
      </trkpt>
      <trkpt lat="46.38623" lon="-0.12578">
        <ele>125</ele>
        <time>2023-06-17T04:35:30.472Z</time>
      </trkpt>
      <trkpt lat="46.38613" lon="-0.12591">
        <ele>124.41</ele>
        <time>2023-06-17T04:36:27.041Z</time>
      </trkpt>
      <trkpt lat="46.38603" lon="-0.12605">
        <ele>123.57</ele>
        <time>2023-06-17T04:37:23.613Z</time>
      </trkpt>
      <trkpt lat="46.38592" lon="-0.12619">
        <ele>121.79</ele>
        <time>2023-06-17T04:38:20.187Z</time>
      </trkpt>
      <trkpt lat="46.38582" lon="-0.12633">
        <ele>120.3</ele>
        <time>2023-06-17T04:39:16.763Z</time>
      </trkpt>
      <trkpt lat="46.38571" lon="-0.12647">
        <ele>118.66</ele>
        <time>2023-06-17T04:40:13.342Z</time>
      </trkpt>
      <trkpt lat="46.38559" lon="-0.12663">
        <ele>117.03</ele>
        <time>2023-06-17T04:41:09.923Z</time>
      </trkpt>
      <trkpt lat="46.38547" lon="-0.12679">
        <ele>116</ele>
        <time>2023-06-17T04:42:06.507Z</time>
      </trkpt>
      <trkpt lat="46.38534" lon="-0.12696">
        <ele>115.15</ele>
        <time>2023-06-17T04:43:03.093Z</time>
      </trkpt>
      <trkpt lat="46.38521" lon="-0.12713">
        <ele>114.32</ele>
        <time>2023-06-17T04:43:59.682Z</time>
      </trkpt>
      <trkpt lat="46.38508" lon="-0.12731">
        <ele>113.69</ele>
        <time>2023-06-17T04:44:56.274Z</time>
      </trkpt>
      <trkpt lat="46.38501" lon="-0.1274">
        <ele>113.41</ele>
        <time>2023-06-17T04:45:52.868Z</time>
      </trkpt>
      <trkpt lat="46.38488" lon="-0.12757">
        <ele>112.82</ele>
        <time>2023-06-17T04:46:49.465Z</time>
      </trkpt>
      <trkpt lat="46.38475" lon="-0.12774">
        <ele>112.51</ele>
        <time>2023-06-17T04:47:46.064Z</time>
      </trkpt>
      <trkpt lat="46.38463" lon="-0.12791">
        <ele>112.49</ele>
        <time>2023-06-17T04:48:42.666Z</time>
      </trkpt>
      <trkpt lat="46.38451" lon="-0.12807">
        <ele>111.9</ele>
        <time>2023-06-17T04:49:39.271Z</time>
      </trkpt>
      <trkpt lat="46.38437" lon="-0.12825">
        <ele>110.44</ele>
        <time>2023-06-17T04:50:35.879Z</time>
      </trkpt>
      <trkpt lat="46.3843" lon="-0.12834">
        <ele>109.12</ele>
        <time>2023-06-17T04:51:32.488Z</time>
      </trkpt>
      <trkpt lat="46.38423" lon="-0.12843">
        <ele>108.31</ele>
        <time>2023-06-17T04:52:29.099Z</time>
      </trkpt>
      <trkpt lat="46.38416" lon="-0.12853">
        <ele>107.74</ele>
        <time>2023-06-17T04:53:25.711Z</time>
      </trkpt>
      <trkpt lat="46.38412" lon="-0.12858">
        <ele>107.56</ele>
        <time>2023-06-17T04:54:22.324Z</time>
      </trkpt>
      <trkpt lat="46.38408" lon="-0.12862">
        <ele>107.4</ele>
        <time>2023-06-17T04:55:18.938Z</time>
      </trkpt>
      <trkpt lat="46.38401" lon="-0.12871">
        <ele>107.33</ele>
        <time>2023-06-17T04:56:15.553Z</time>
      </trkpt>
      <trkpt lat="46.38393" lon="-0.12881">
        <ele>107.32</ele>
        <time>2023-06-17T04:57:12.170Z</time>
      </trkpt>
      <trkpt lat="46.38385" lon="-0.1289">
        <ele>107.47</ele>
        <time>2023-06-17T04:58:08.789Z</time>
      </trkpt>
      <trkpt lat="46.38377" lon="-0.129">
        <ele>107.55</ele>
        <time>2023-06-17T04:59:05.409Z</time>
      </trkpt>
      <trkpt lat="46.3837" lon="-0.12908">
        <ele>107.45</ele>
        <time>2023-06-17T05:00:02.031Z</time>
      </trkpt>
      <trkpt lat="46.38357" lon="-0.12925">
        <ele>106.77</ele>
        <time>2023-06-17T05:00:58.656Z</time>
      </trkpt>
      <trkpt lat="46.38349" lon="-0.12934">
        <ele>106.2</ele>
        <time>2023-06-17T05:01:55.282Z</time>
      </trkpt>
      <trkpt lat="46.38336" lon="-0.12949">
        <ele>104.6</ele>
        <time>2023-06-17T05:02:51.911Z</time>
      </trkpt>
      <trkpt lat="46.3833" lon="-0.12957">
        <ele>103.57</ele>
        <time>2023-06-17T05:03:48.541Z</time>
      </trkpt>
      <trkpt lat="46.38324" lon="-0.12965">
        <ele>102.54</ele>
        <time>2023-06-17T05:04:45.172Z</time>
      </trkpt>
      <trkpt lat="46.38312" lon="-0.1298">
        <ele>99.9</ele>
        <time>2023-06-17T05:05:41.806Z</time>
      </trkpt>
      <trkpt lat="46.38302" lon="-0.12993">
        <ele>97.64</ele>
        <time>2023-06-17T05:06:38.442Z</time>
      </trkpt>
      <trkpt lat="46.38297" lon="-0.13">
        <ele>96.37</ele>
        <time>2023-06-17T05:07:35.079Z</time>
      </trkpt>
      <trkpt lat="46.38293" lon="-0.13005">
        <ele>95.39</ele>
        <time>2023-06-17T05:08:31.717Z</time>
      </trkpt>
      <trkpt lat="46.38284" lon="-0.13014">
        <ele>93.55</ele>
        <time>2023-06-17T05:09:28.357Z</time>
      </trkpt>
      <trkpt lat="46.38283" lon="-0.13014">
        <ele>93.55</ele>
        <time>2023-06-17T05:10:24.997Z</time>
      </trkpt>
      <trkpt lat="46.38275" lon="-0.13022">
        <ele>91.95</ele>
        <time>2023-06-17T05:11:21.639Z</time>
      </trkpt>
      <trkpt lat="46.38266" lon="-0.1303">
        <ele>90.75</ele>
        <time>2023-06-17T05:12:18.282Z</time>
      </trkpt>
      <trkpt lat="46.38258" lon="-0.13037">
        <ele>90.04</ele>
        <time>2023-06-17T05:13:14.927Z</time>
      </trkpt>
      <trkpt lat="46.38249" lon="-0.13045">
        <ele>89.16</ele>
        <time>2023-06-17T05:14:11.573Z</time>
      </trkpt>
      <trkpt lat="46.3824" lon="-0.13053">
        <ele>87.92</ele>
        <time>2023-06-17T05:15:08.221Z</time>
      </trkpt>
      <trkpt lat="46.3823" lon="-0.13062">
        <ele>87.32</ele>
        <time>2023-06-17T05:16:04.871Z</time>
      </trkpt>
      <trkpt lat="46.38229" lon="-0.13065">
        <ele>87.19</ele>
        <time>2023-06-17T05:17:01.521Z</time>
      </trkpt>
      <trkpt lat="46.38229" lon="-0.13065">
        <ele>87.13</ele>
        <time>2023-06-17T05:17:58.171Z</time>
      </trkpt>
      <trkpt lat="46.38226" lon="-0.13075">
        <ele>87.23</ele>
        <time>2023-06-17T05:18:54.823Z</time>
      </trkpt>
      <trkpt lat="46.38227" lon="-0.13084">
        <ele>87.32</ele>
        <time>2023-06-17T05:19:51.476Z</time>
      </trkpt>
      <trkpt lat="46.38228" lon="-0.13088">
        <ele>87.35</ele>
        <time>2023-06-17T05:20:48.129Z</time>
      </trkpt>
      <trkpt lat="46.38234" lon="-0.13102">
        <ele>87.49</ele>
        <time>2023-06-17T05:21:44.784Z</time>
      </trkpt>
      <trkpt lat="46.38234" lon="-0.13117">
        <ele>87.61</ele>
        <time>2023-06-17T05:22:41.441Z</time>
      </trkpt>
      <trkpt lat="46.38233" lon="-0.13119">
        <ele>87.64</ele>
        <time>2023-06-17T05:23:38.098Z</time>
      </trkpt>
      <trkpt lat="46.38227" lon="-0.13128">
        <ele>87.77</ele>
        <time>2023-06-17T05:24:34.756Z</time>
      </trkpt>
      <trkpt lat="46.38224" lon="-0.13132">
        <ele>87.83</ele>
        <time>2023-06-17T05:25:31.415Z</time>
      </trkpt>
      <trkpt lat="46.38245" lon="-0.13166">
        <ele>88.36</ele>
        <time>2023-06-17T05:26:28.079Z</time>
      </trkpt>
      <trkpt lat="46.38272" lon="-0.13209">
        <ele>88.9</ele>
        <time>2023-06-17T05:27:24.749Z</time>
      </trkpt>
      <trkpt lat="46.38283" lon="-0.13229">
        <ele>89.18</ele>
        <time>2023-06-17T05:28:21.422Z</time>
      </trkpt>
      <trkpt lat="46.38295" lon="-0.13248">
        <ele>89.55</ele>
        <time>2023-06-17T05:29:18.098Z</time>
      </trkpt>
      <trkpt lat="46.38304" lon="-0.13262">
        <ele>89.77</ele>
        <time>2023-06-17T05:30:14.776Z</time>
      </trkpt>
      <trkpt lat="46.3831" lon="-0.13272">
        <ele>89.85</ele>
        <time>2023-06-17T05:31:11.456Z</time>
      </trkpt>
      <trkpt lat="46.38316" lon="-0.13282">
        <ele>89.9</ele>
        <time>2023-06-17T05:32:08.137Z</time>
      </trkpt>
      <trkpt lat="46.38318" lon="-0.13285">
        <ele>89.91</ele>
        <time>2023-06-17T05:33:04.819Z</time>
      </trkpt>
      <trkpt lat="46.38322" lon="-0.13291">
        <ele>89.93</ele>
        <time>2023-06-17T05:34:01.501Z</time>
      </trkpt>
      <trkpt lat="46.38328" lon="-0.13301">
        <ele>89.93</ele>
        <time>2023-06-17T05:34:58.185Z</time>
      </trkpt>
      <trkpt lat="46.38334" lon="-0.1331">
        <ele>89.88</ele>
        <time>2023-06-17T05:35:54.870Z</time>
      </trkpt>
      <trkpt lat="46.38352" lon="-0.13339">
        <ele>89.67</ele>
        <time>2023-06-17T05:36:51.560Z</time>
      </trkpt>
      <trkpt lat="46.38397" lon="-0.13411">
        <ele>88.88</ele>
        <time>2023-06-17T05:37:48.260Z</time>
      </trkpt>
      <trkpt lat="46.38409" lon="-0.1343">
        <ele>88.73</ele>
        <time>2023-06-17T05:38:44.963Z</time>
      </trkpt>
      <trkpt lat="46.38444" lon="-0.13486">
        <ele>84.53</ele>
        <time>2023-06-17T05:39:41.675Z</time>
      </trkpt>
      <trkpt lat="46.38438" lon="-0.13491">
        <ele>83.97</ele>
        <time>2023-06-17T05:40:38.388Z</time>
      </trkpt>
      <trkpt lat="46.38383" lon="-0.13562">
        <ele>78.03</ele>
        <time>2023-06-17T05:41:35.113Z</time>
      </trkpt>
      <trkpt lat="46.38327" lon="-0.13633">
        <ele>75.92</ele>
        <time>2023-06-17T05:42:31.849Z</time>
      </trkpt>
      <trkpt lat="46.38313" lon="-0.13659">
        <ele>75.29</ele>
        <time>2023-06-17T05:43:28.589Z</time>
      </trkpt>
      <trkpt lat="46.38308" lon="-0.13669">
        <ele>75.18</ele>
        <time>2023-06-17T05:44:25.330Z</time>
      </trkpt>
      <trkpt lat="46.38298" lon="-0.13702">
        <ele>74.89</ele>
        <time>2023-06-17T05:45:22.075Z</time>
      </trkpt>
      <trkpt lat="46.38295" lon="-0.13707">
        <ele>74.84</ele>
        <time>2023-06-17T05:46:18.821Z</time>
      </trkpt>
      <trkpt lat="46.38286" lon="-0.13722">
        <ele>75.24</ele>
        <time>2023-06-17T05:47:15.569Z</time>
      </trkpt>
      <trkpt lat="46.38283" lon="-0.13726">
        <ele>75.36</ele>
        <time>2023-06-17T05:48:12.318Z</time>
      </trkpt>
      <trkpt lat="46.3828" lon="-0.1373">
        <ele>75.51</ele>
        <time>2023-06-17T05:49:09.068Z</time>
      </trkpt>
      <trkpt lat="46.38263" lon="-0.13738">
        <ele>76.14</ele>
        <time>2023-06-17T05:50:05.821Z</time>
      </trkpt>
      <trkpt lat="46.38254" lon="-0.13741">
        <ele>76.42</ele>
        <time>2023-06-17T05:51:02.575Z</time>
      </trkpt>
      <trkpt lat="46.38251" lon="-0.13743">
        <ele>76.51</ele>
        <time>2023-06-17T05:51:59.329Z</time>
      </trkpt>
      <trkpt lat="46.38253" lon="-0.1375">
        <ele>76.67</ele>
        <time>2023-06-17T05:52:56.084Z</time>
      </trkpt>
      <trkpt lat="46.38256" lon="-0.13763">
        <ele>76.88</ele>
        <time>2023-06-17T05:53:52.841Z</time>
      </trkpt>
      <trkpt lat="46.38256" lon="-0.13763">
        <ele>76.88</ele>
        <time>2023-06-17T05:54:49.598Z</time>
      </trkpt>
      <trkpt lat="46.38257" lon="-0.13775">
        <ele>77.04</ele>
        <time>2023-06-17T05:55:46.356Z</time>
      </trkpt>
      <trkpt lat="46.38258" lon="-0.13788">
        <ele>77.15</ele>
        <time>2023-06-17T05:56:43.116Z</time>
      </trkpt>
      <trkpt lat="46.38258" lon="-0.13791">
        <ele>77.15</ele>
        <time>2023-06-17T05:57:39.876Z</time>
      </trkpt>
      <trkpt lat="46.38257" lon="-0.13801">
        <ele>77.19</ele>
        <time>2023-06-17T05:58:36.637Z</time>
      </trkpt>
      <trkpt lat="46.38255" lon="-0.13813">
        <ele>77.15</ele>
        <time>2023-06-17T05:59:33.399Z</time>
      </trkpt>
      <trkpt lat="46.38252" lon="-0.13818">
        <ele>77.14</ele>
        <time>2023-06-17T06:00:30.162Z</time>
      </trkpt>
      <trkpt lat="46.38247" lon="-0.13829">
        <ele>77.05</ele>
        <time>2023-06-17T06:01:26.927Z</time>
      </trkpt>
      <trkpt lat="46.38245" lon="-0.13832">
        <ele>77.01</ele>
        <time>2023-06-17T06:02:23.692Z</time>
      </trkpt>
      <trkpt lat="46.38244" lon="-0.13833">
        <ele>76.99</ele>
        <time>2023-06-17T06:03:20.457Z</time>
      </trkpt>
      <trkpt lat="46.38237" lon="-0.13841">
        <ele>76.83</ele>
        <time>2023-06-17T06:04:17.224Z</time>
      </trkpt>
      <trkpt lat="46.38222" lon="-0.13856">
        <ele>76.44</ele>
        <time>2023-06-17T06:05:13.994Z</time>
      </trkpt>
      <trkpt lat="46.38212" lon="-0.13868">
        <ele>76.09</ele>
        <time>2023-06-17T06:06:10.766Z</time>
      </trkpt>
      <trkpt lat="46.38204" lon="-0.13876">
        <ele>75.81</ele>
        <time>2023-06-17T06:07:07.539Z</time>
      </trkpt>
      <trkpt lat="46.38197" lon="-0.13883">
        <ele>75.49</ele>
        <time>2023-06-17T06:08:04.314Z</time>
      </trkpt>
      <trkpt lat="46.38177" lon="-0.13905">
        <ele>74.48</ele>
        <time>2023-06-17T06:09:01.093Z</time>
      </trkpt>
      <trkpt lat="46.38176" lon="-0.13906">
        <ele>74.42</ele>
        <time>2023-06-17T06:09:57.872Z</time>
      </trkpt>
      <trkpt lat="46.38165" lon="-0.13918">
        <ele>73.93</ele>
        <time>2023-06-17T06:10:54.653Z</time>
      </trkpt>
      <trkpt lat="46.38158" lon="-0.13926">
        <ele>73.64</ele>
        <time>2023-06-17T06:11:51.435Z</time>
      </trkpt>
      <trkpt lat="46.38141" lon="-0.13947">
        <ele>73.03</ele>
        <time>2023-06-17T06:12:48.221Z</time>
      </trkpt>
      <trkpt lat="46.38138" lon="-0.13951">
        <ele>72.87</ele>
        <time>2023-06-17T06:13:45.008Z</time>
      </trkpt>
      <trkpt lat="46.38124" lon="-0.13967">
        <ele>72.09</ele>
        <time>2023-06-17T06:14:41.798Z</time>
      </trkpt>
      <trkpt lat="46.3812" lon="-0.13971">
        <ele>71.87</ele>
        <time>2023-06-17T06:15:38.588Z</time>
      </trkpt>
      <trkpt lat="46.38117" lon="-0.13975">
        <ele>71.62</ele>
        <time>2023-06-17T06:16:35.379Z</time>
      </trkpt>
      <trkpt lat="46.38107" lon="-0.13986">
        <ele>70.88</ele>
        <time>2023-06-17T06:17:32.172Z</time>
      </trkpt>
    </trkseg>
  </trk>
</gpx>